<?xml version="1.0" encoding="UTF-8"?>
<gpx version="1.1" creator="https://www.youtrack.es" xsi:schemaLocation="http://www.topografix.com/GPX/1/1 http://www.topografix.com/GPX/1/1/gpx.xsd http://www.garmin.com/xmlschemas/GpxExtensions/v3 http://www.garmin.com/xmlschemas/GpxExtensionsv3.xsd http://www.garmin.com/xmlschemas/TrackPointExtension/v1 http://www.garmin.com/xmlschemas/TrackPointExtensionv1.xsd" xmlns:gpxtpx="http://www.garmin.com/xmlschemas/TrackPointExtension/v1" xmlns:gpxx="http://www.garmin.com/xmlschemas/GpxExtensions/v3" xmlns:xsi="http://www.w3.org/2001/XMLSchema-instance">
  <metadata>
    <link href="https://www.youtrack.es">
      <text>YouTrack.es</text>
    </link>
    <time>2026-05-07T18:41:21Z</time>
  </metadata>
  <trk>
    <src>https://www.youtrack.es</src>
    <link href="https://www.youtrack.es/ruta/12708-sant">
      <text>YouTrack.es</text>
    </link>
    <trkseg>
      <trkpt lat="43.0085130" lon="-1.3197290">
        <ele>945.8</ele>
        <time>2020-03-26T18:51:15Z</time>
      </trkpt>
      <trkpt lat="43.0085130" lon="-1.3197290">
        <ele>945.8</ele>
        <time>2020-03-26T18:51:17Z</time>
      </trkpt>
      <trkpt lat="43.0085130" lon="-1.3197290">
        <ele>945.8</ele>
        <time>2020-03-26T18:51:19Z</time>
      </trkpt>
      <trkpt lat="43.0085130" lon="-1.3197290">
        <ele>945.8</ele>
        <time>2020-03-26T18:51:21Z</time>
      </trkpt>
      <trkpt lat="43.0085130" lon="-1.3197290">
        <ele>945.8</ele>
        <time>2020-03-26T18:51:24Z</time>
      </trkpt>
      <trkpt lat="43.0085130" lon="-1.3197290">
        <ele>945.8</ele>
        <time>2020-03-26T18:51:26Z</time>
      </trkpt>
      <trkpt lat="43.0085130" lon="-1.3197290">
        <ele>945.8</ele>
        <time>2020-03-26T18:51:28Z</time>
      </trkpt>
      <trkpt lat="43.0085130" lon="-1.3197290">
        <ele>945.8</ele>
        <time>2020-03-26T18:51:30Z</time>
      </trkpt>
      <trkpt lat="43.0085130" lon="-1.3197290">
        <ele>945.8</ele>
        <time>2020-03-26T18:51:32Z</time>
      </trkpt>
      <trkpt lat="43.0085130" lon="-1.3197290">
        <ele>945.8</ele>
        <time>2020-03-26T18:51:34Z</time>
      </trkpt>
      <trkpt lat="43.0085130" lon="-1.3197290">
        <ele>945.8</ele>
        <time>2020-03-26T18:51:36Z</time>
      </trkpt>
      <trkpt lat="43.0085130" lon="-1.3197290">
        <ele>945.8</ele>
        <time>2020-03-26T18:51:38Z</time>
      </trkpt>
      <trkpt lat="43.0085130" lon="-1.3197290">
        <ele>945.8</ele>
        <time>2020-03-26T18:51:40Z</time>
      </trkpt>
      <trkpt lat="43.0085130" lon="-1.3197290">
        <ele>945.8</ele>
        <time>2020-03-26T18:51:42Z</time>
      </trkpt>
      <trkpt lat="43.0085130" lon="-1.3197290">
        <ele>945.8</ele>
        <time>2020-03-26T18:51:44Z</time>
      </trkpt>
      <trkpt lat="43.0085130" lon="-1.3197290">
        <ele>945.8</ele>
        <time>2020-03-26T18:51:46Z</time>
      </trkpt>
      <trkpt lat="43.0085130" lon="-1.3197290">
        <ele>945.8</ele>
        <time>2020-03-26T18:51:48Z</time>
      </trkpt>
      <trkpt lat="43.0085130" lon="-1.3197290">
        <ele>945.8</ele>
        <time>2020-03-26T18:51:50Z</time>
      </trkpt>
      <trkpt lat="43.0085130" lon="-1.3197290">
        <ele>945.8</ele>
        <time>2020-03-26T18:51:52Z</time>
      </trkpt>
      <trkpt lat="43.0085130" lon="-1.3197290">
        <ele>945.8</ele>
        <time>2020-03-26T18:51:54Z</time>
      </trkpt>
      <trkpt lat="43.0085130" lon="-1.3197290">
        <ele>945.8</ele>
        <time>2020-03-26T18:51:56Z</time>
      </trkpt>
      <trkpt lat="43.0085130" lon="-1.3197290">
        <ele>945.8</ele>
        <time>2020-03-26T18:51:58Z</time>
      </trkpt>
      <trkpt lat="43.0085130" lon="-1.3197290">
        <ele>945.8</ele>
        <time>2020-03-26T18:52:00Z</time>
      </trkpt>
      <trkpt lat="43.0085130" lon="-1.3197290">
        <ele>945.8</ele>
        <time>2020-03-26T18:52:02Z</time>
      </trkpt>
      <trkpt lat="43.0085130" lon="-1.3197290">
        <ele>945.8</ele>
        <time>2020-03-26T18:52:04Z</time>
      </trkpt>
      <trkpt lat="43.0085130" lon="-1.3197290">
        <ele>945.8</ele>
        <time>2020-03-26T18:52:06Z</time>
      </trkpt>
      <trkpt lat="43.0085130" lon="-1.3197290">
        <ele>945.8</ele>
        <time>2020-03-26T18:52:08Z</time>
      </trkpt>
      <trkpt lat="43.0085130" lon="-1.3197290">
        <ele>945.8</ele>
        <time>2020-03-26T18:52:10Z</time>
      </trkpt>
      <trkpt lat="43.0085130" lon="-1.3197290">
        <ele>945.8</ele>
        <time>2020-03-26T18:52:12Z</time>
      </trkpt>
      <trkpt lat="43.0085130" lon="-1.3197290">
        <ele>945.8</ele>
        <time>2020-03-26T18:52:14Z</time>
      </trkpt>
      <trkpt lat="43.0085130" lon="-1.3197290">
        <ele>945.8</ele>
        <time>2020-03-26T18:52:16Z</time>
      </trkpt>
      <trkpt lat="43.0085130" lon="-1.3197290">
        <ele>945.8</ele>
        <time>2020-03-26T18:52:18Z</time>
      </trkpt>
      <trkpt lat="43.0085130" lon="-1.3197290">
        <ele>945.8</ele>
        <time>2020-03-26T18:52:20Z</time>
      </trkpt>
      <trkpt lat="43.0085130" lon="-1.3197290">
        <ele>945.8</ele>
        <time>2020-03-26T18:52:22Z</time>
      </trkpt>
      <trkpt lat="43.0085130" lon="-1.3197290">
        <ele>945.8</ele>
        <time>2020-03-26T18:52:24Z</time>
      </trkpt>
      <trkpt lat="43.0085130" lon="-1.3197290">
        <ele>945.8</ele>
        <time>2020-03-26T18:52:26Z</time>
      </trkpt>
      <trkpt lat="43.0085130" lon="-1.3197290">
        <ele>945.8</ele>
        <time>2020-03-26T18:52:28Z</time>
      </trkpt>
      <trkpt lat="43.0085130" lon="-1.3197290">
        <ele>945.8</ele>
        <time>2020-03-26T18:52:30Z</time>
      </trkpt>
      <trkpt lat="43.0085130" lon="-1.3197290">
        <ele>945.8</ele>
        <time>2020-03-26T18:52:32Z</time>
      </trkpt>
      <trkpt lat="43.0085130" lon="-1.3197290">
        <ele>945.8</ele>
        <time>2020-03-26T18:52:32Z</time>
      </trkpt>
      <trkpt lat="43.0085110" lon="-1.3197280">
        <ele>945.8</ele>
        <time>2020-03-26T18:52:34Z</time>
      </trkpt>
      <trkpt lat="43.0084820" lon="-1.3197100">
        <ele>945.5</ele>
        <time>2020-03-26T18:52:36Z</time>
      </trkpt>
      <trkpt lat="43.0084090" lon="-1.3196660">
        <ele>944.6</ele>
        <time>2020-03-26T18:52:38Z</time>
      </trkpt>
      <trkpt lat="43.0083280" lon="-1.3196240">
        <ele>943.7</ele>
        <time>2020-03-26T18:52:40Z</time>
      </trkpt>
      <trkpt lat="43.0082140" lon="-1.3195750">
        <ele>942.6</ele>
        <time>2020-03-26T18:52:42Z</time>
      </trkpt>
      <trkpt lat="43.0081330" lon="-1.3195420">
        <ele>942.7</ele>
        <time>2020-03-26T18:52:44Z</time>
      </trkpt>
      <trkpt lat="43.0079970" lon="-1.3194930">
        <ele>942.7</ele>
        <time>2020-03-26T18:52:46Z</time>
      </trkpt>
      <trkpt lat="43.0078580" lon="-1.3194510">
        <ele>942.6</ele>
        <time>2020-03-26T18:52:48Z</time>
      </trkpt>
      <trkpt lat="43.0077570" lon="-1.3194320">
        <ele>942.4</ele>
        <time>2020-03-26T18:52:50Z</time>
      </trkpt>
      <trkpt lat="43.0075660" lon="-1.3193960">
        <ele>942.0</ele>
        <time>2020-03-26T18:52:52Z</time>
      </trkpt>
      <trkpt lat="43.0074160" lon="-1.3193760">
        <ele>941.6</ele>
        <time>2020-03-26T18:52:54Z</time>
      </trkpt>
      <trkpt lat="43.0072330" lon="-1.3193540">
        <ele>941.2</ele>
        <time>2020-03-26T18:52:56Z</time>
      </trkpt>
      <trkpt lat="43.0070940" lon="-1.3193390">
        <ele>940.9</ele>
        <time>2020-03-26T18:52:58Z</time>
      </trkpt>
      <trkpt lat="43.0069470" lon="-1.3193230">
        <ele>940.5</ele>
        <time>2020-03-26T18:53:00Z</time>
      </trkpt>
      <trkpt lat="43.0066350" lon="-1.3192890">
        <ele>939.7</ele>
        <time>2020-03-26T18:53:02Z</time>
      </trkpt>
      <trkpt lat="43.0064880" lon="-1.3192730">
        <ele>939.3</ele>
        <time>2020-03-26T18:53:04Z</time>
      </trkpt>
      <trkpt lat="43.0063470" lon="-1.3192580">
        <ele>938.9</ele>
        <time>2020-03-26T18:53:06Z</time>
      </trkpt>
      <trkpt lat="43.0062080" lon="-1.3192430">
        <ele>938.5</ele>
        <time>2020-03-26T18:53:08Z</time>
      </trkpt>
      <trkpt lat="43.0058560" lon="-1.3192120">
        <ele>937.9</ele>
        <time>2020-03-26T18:53:10Z</time>
      </trkpt>
      <trkpt lat="43.0057120" lon="-1.3192160">
        <ele>937.6</ele>
        <time>2020-03-26T18:53:12Z</time>
      </trkpt>
      <trkpt lat="43.0054650" lon="-1.3192310">
        <ele>937.1</ele>
        <time>2020-03-26T18:53:14Z</time>
      </trkpt>
      <trkpt lat="43.0053210" lon="-1.3192580">
        <ele>936.9</ele>
        <time>2020-03-26T18:53:16Z</time>
      </trkpt>
      <trkpt lat="43.0050940" lon="-1.3193080">
        <ele>936.7</ele>
        <time>2020-03-26T18:53:18Z</time>
      </trkpt>
      <trkpt lat="43.0048710" lon="-1.3193640">
        <ele>936.7</ele>
        <time>2020-03-26T18:53:20Z</time>
      </trkpt>
      <trkpt lat="43.0047300" lon="-1.3194050">
        <ele>936.8</ele>
        <time>2020-03-26T18:53:22Z</time>
      </trkpt>
      <trkpt lat="43.0045100" lon="-1.3194810">
        <ele>937.2</ele>
        <time>2020-03-26T18:53:24Z</time>
      </trkpt>
      <trkpt lat="43.0043230" lon="-1.3195750">
        <ele>937.8</ele>
        <time>2020-03-26T18:53:26Z</time>
      </trkpt>
      <trkpt lat="43.0041380" lon="-1.3196960">
        <ele>938.5</ele>
        <time>2020-03-26T18:53:28Z</time>
      </trkpt>
      <trkpt lat="43.0039510" lon="-1.3198350">
        <ele>938.8</ele>
        <time>2020-03-26T18:53:30Z</time>
      </trkpt>
      <trkpt lat="43.0038290" lon="-1.3199390">
        <ele>938.6</ele>
        <time>2020-03-26T18:53:32Z</time>
      </trkpt>
      <trkpt lat="43.0037080" lon="-1.3200430">
        <ele>938.4</ele>
        <time>2020-03-26T18:53:34Z</time>
      </trkpt>
      <trkpt lat="43.0034790" lon="-1.3202410">
        <ele>937.7</ele>
        <time>2020-03-26T18:53:36Z</time>
      </trkpt>
      <trkpt lat="43.0033550" lon="-1.3203480">
        <ele>937.3</ele>
        <time>2020-03-26T18:53:38Z</time>
      </trkpt>
      <trkpt lat="43.0031240" lon="-1.3205510">
        <ele>936.8</ele>
        <time>2020-03-26T18:53:40Z</time>
      </trkpt>
      <trkpt lat="43.0030030" lon="-1.3206630">
        <ele>936.4</ele>
        <time>2020-03-26T18:53:42Z</time>
      </trkpt>
      <trkpt lat="43.0028830" lon="-1.3207760">
        <ele>936.0</ele>
        <time>2020-03-26T18:53:44Z</time>
      </trkpt>
      <trkpt lat="43.0026230" lon="-1.3210180">
        <ele>935.3</ele>
        <time>2020-03-26T18:53:46Z</time>
      </trkpt>
      <trkpt lat="43.0024790" lon="-1.3211600">
        <ele>934.8</ele>
        <time>2020-03-26T18:53:48Z</time>
      </trkpt>
      <trkpt lat="43.0023550" lon="-1.3212820">
        <ele>934.3</ele>
        <time>2020-03-26T18:53:50Z</time>
      </trkpt>
      <trkpt lat="43.0022280" lon="-1.3214070">
        <ele>933.9</ele>
        <time>2020-03-26T18:53:52Z</time>
      </trkpt>
      <trkpt lat="43.0019330" lon="-1.3216970">
        <ele>932.9</ele>
        <time>2020-03-26T18:53:54Z</time>
      </trkpt>
      <trkpt lat="43.0018000" lon="-1.3218290">
        <ele>932.3</ele>
        <time>2020-03-26T18:53:56Z</time>
      </trkpt>
      <trkpt lat="43.0016630" lon="-1.3219640">
        <ele>931.6</ele>
        <time>2020-03-26T18:53:58Z</time>
      </trkpt>
      <trkpt lat="43.0015240" lon="-1.3221020">
        <ele>931.1</ele>
        <time>2020-03-26T18:54:00Z</time>
      </trkpt>
      <trkpt lat="43.0012220" lon="-1.3223990">
        <ele>929.6</ele>
        <time>2020-03-26T18:54:02Z</time>
      </trkpt>
      <trkpt lat="43.0010900" lon="-1.3225290">
        <ele>929.3</ele>
        <time>2020-03-26T18:54:04Z</time>
      </trkpt>
      <trkpt lat="43.0009570" lon="-1.3226590">
        <ele>928.9</ele>
        <time>2020-03-26T18:54:06Z</time>
      </trkpt>
      <trkpt lat="43.0006420" lon="-1.3229700">
        <ele>928.2</ele>
        <time>2020-03-26T18:54:08Z</time>
      </trkpt>
      <trkpt lat="43.0005100" lon="-1.3231000">
        <ele>927.9</ele>
        <time>2020-03-26T18:54:10Z</time>
      </trkpt>
      <trkpt lat="43.0003750" lon="-1.3232330">
        <ele>927.3</ele>
        <time>2020-03-26T18:54:12Z</time>
      </trkpt>
      <trkpt lat="43.0002410" lon="-1.3233650">
        <ele>926.4</ele>
        <time>2020-03-26T18:54:14Z</time>
      </trkpt>
      <trkpt lat="42.9999240" lon="-1.3236780">
        <ele>924.6</ele>
        <time>2020-03-26T18:54:16Z</time>
      </trkpt>
      <trkpt lat="42.9997890" lon="-1.3238110">
        <ele>924.1</ele>
        <time>2020-03-26T18:54:18Z</time>
      </trkpt>
      <trkpt lat="42.9996540" lon="-1.3239440">
        <ele>923.7</ele>
        <time>2020-03-26T18:54:20Z</time>
      </trkpt>
      <trkpt lat="42.9995180" lon="-1.3240780">
        <ele>923.3</ele>
        <time>2020-03-26T18:54:22Z</time>
      </trkpt>
      <trkpt lat="42.9991990" lon="-1.3243920">
        <ele>923.2</ele>
        <time>2020-03-26T18:54:24Z</time>
      </trkpt>
      <trkpt lat="42.9990630" lon="-1.3245270">
        <ele>923.2</ele>
        <time>2020-03-26T18:54:26Z</time>
      </trkpt>
      <trkpt lat="42.9989260" lon="-1.3246620">
        <ele>923.2</ele>
        <time>2020-03-26T18:54:28Z</time>
      </trkpt>
      <trkpt lat="42.9986070" lon="-1.3249750">
        <ele>923.6</ele>
        <time>2020-03-26T18:54:30Z</time>
      </trkpt>
      <trkpt lat="42.9984750" lon="-1.3251050">
        <ele>923.8</ele>
        <time>2020-03-26T18:54:32Z</time>
      </trkpt>
      <trkpt lat="42.9983500" lon="-1.3252270">
        <ele>923.8</ele>
        <time>2020-03-26T18:54:34Z</time>
      </trkpt>
      <trkpt lat="42.9982320" lon="-1.3253440">
        <ele>923.5</ele>
        <time>2020-03-26T18:54:36Z</time>
      </trkpt>
      <trkpt lat="42.9979350" lon="-1.3256350">
        <ele>923.1</ele>
        <time>2020-03-26T18:54:38Z</time>
      </trkpt>
      <trkpt lat="42.9978210" lon="-1.3257460">
        <ele>923.1</ele>
        <time>2020-03-26T18:54:40Z</time>
      </trkpt>
      <trkpt lat="42.9977080" lon="-1.3258570">
        <ele>922.9</ele>
        <time>2020-03-26T18:54:42Z</time>
      </trkpt>
      <trkpt lat="42.9975940" lon="-1.3259690">
        <ele>922.5</ele>
        <time>2020-03-26T18:54:44Z</time>
      </trkpt>
      <trkpt lat="42.9974810" lon="-1.3260790">
        <ele>922.1</ele>
        <time>2020-03-26T18:54:46Z</time>
      </trkpt>
      <trkpt lat="42.9971830" lon="-1.3263710">
        <ele>921.1</ele>
        <time>2020-03-26T18:54:48Z</time>
      </trkpt>
      <trkpt lat="42.9970620" lon="-1.3264910">
        <ele>920.9</ele>
        <time>2020-03-26T18:54:50Z</time>
      </trkpt>
      <trkpt lat="42.9969360" lon="-1.3266140">
        <ele>920.5</ele>
        <time>2020-03-26T18:54:52Z</time>
      </trkpt>
      <trkpt lat="42.9968060" lon="-1.3267410">
        <ele>920.0</ele>
        <time>2020-03-26T18:54:54Z</time>
      </trkpt>
      <trkpt lat="42.9964920" lon="-1.3270500">
        <ele>917.7</ele>
        <time>2020-03-26T18:54:56Z</time>
      </trkpt>
      <trkpt lat="42.9963600" lon="-1.3271800">
        <ele>916.6</ele>
        <time>2020-03-26T18:54:58Z</time>
      </trkpt>
      <trkpt lat="42.9962250" lon="-1.3273120">
        <ele>915.8</ele>
        <time>2020-03-26T18:55:00Z</time>
      </trkpt>
      <trkpt lat="42.9959060" lon="-1.3276230">
        <ele>915.1</ele>
        <time>2020-03-26T18:55:02Z</time>
      </trkpt>
      <trkpt lat="42.9957730" lon="-1.3277540">
        <ele>915.1</ele>
        <time>2020-03-26T18:55:04Z</time>
      </trkpt>
      <trkpt lat="42.9956470" lon="-1.3278780">
        <ele>915.2</ele>
        <time>2020-03-26T18:55:06Z</time>
      </trkpt>
      <trkpt lat="42.9955210" lon="-1.3280010">
        <ele>915.4</ele>
        <time>2020-03-26T18:55:08Z</time>
      </trkpt>
      <trkpt lat="42.9952120" lon="-1.3283030">
        <ele>915.6</ele>
        <time>2020-03-26T18:55:10Z</time>
      </trkpt>
      <trkpt lat="42.9950870" lon="-1.3284260">
        <ele>915.4</ele>
        <time>2020-03-26T18:55:12Z</time>
      </trkpt>
      <trkpt lat="42.9949600" lon="-1.3285500">
        <ele>915.1</ele>
        <time>2020-03-26T18:55:14Z</time>
      </trkpt>
      <trkpt lat="42.9948330" lon="-1.3286740">
        <ele>915.1</ele>
        <time>2020-03-26T18:55:16Z</time>
      </trkpt>
      <trkpt lat="42.9945240" lon="-1.3289770">
        <ele>915.0</ele>
        <time>2020-03-26T18:55:18Z</time>
      </trkpt>
      <trkpt lat="42.9943390" lon="-1.3291600">
        <ele>914.8</ele>
        <time>2020-03-26T18:55:20Z</time>
      </trkpt>
      <trkpt lat="42.9942000" lon="-1.3292980">
        <ele>913.1</ele>
        <time>2020-03-26T18:55:22Z</time>
      </trkpt>
      <trkpt lat="42.9939630" lon="-1.3295290">
        <ele>910.1</ele>
        <time>2020-03-26T18:55:24Z</time>
      </trkpt>
      <trkpt lat="42.9937510" lon="-1.3297320">
        <ele>906.9</ele>
        <time>2020-03-26T18:55:26Z</time>
      </trkpt>
      <trkpt lat="42.9936020" lon="-1.3298800">
        <ele>905.5</ele>
        <time>2020-03-26T18:55:28Z</time>
      </trkpt>
      <trkpt lat="42.9934530" lon="-1.3300280">
        <ele>904.4</ele>
        <time>2020-03-26T18:55:30Z</time>
      </trkpt>
      <trkpt lat="42.9931450" lon="-1.3303330">
        <ele>901.6</ele>
        <time>2020-03-26T18:55:32Z</time>
      </trkpt>
      <trkpt lat="42.9929960" lon="-1.3304810">
        <ele>900.3</ele>
        <time>2020-03-26T18:55:34Z</time>
      </trkpt>
      <trkpt lat="42.9928460" lon="-1.3306290">
        <ele>899.4</ele>
        <time>2020-03-26T18:55:36Z</time>
      </trkpt>
      <trkpt lat="42.9925160" lon="-1.3309570">
        <ele>898.7</ele>
        <time>2020-03-26T18:55:38Z</time>
      </trkpt>
      <trkpt lat="42.9923470" lon="-1.3311850">
        <ele>898.4</ele>
        <time>2020-03-26T18:55:40Z</time>
      </trkpt>
      <trkpt lat="42.9922090" lon="-1.3314540">
        <ele>897.4</ele>
        <time>2020-03-26T18:55:42Z</time>
      </trkpt>
      <trkpt lat="42.9921230" lon="-1.3316540">
        <ele>897.0</ele>
        <time>2020-03-26T18:55:44Z</time>
      </trkpt>
      <trkpt lat="42.9919830" lon="-1.3319790">
        <ele>896.6</ele>
        <time>2020-03-26T18:55:46Z</time>
      </trkpt>
      <trkpt lat="42.9918650" lon="-1.3322520">
        <ele>896.0</ele>
        <time>2020-03-26T18:55:48Z</time>
      </trkpt>
      <trkpt lat="42.9917850" lon="-1.3324390">
        <ele>895.6</ele>
        <time>2020-03-26T18:55:50Z</time>
      </trkpt>
      <trkpt lat="42.9917080" lon="-1.3326150">
        <ele>895.3</ele>
        <time>2020-03-26T18:55:52Z</time>
      </trkpt>
      <trkpt lat="42.9915470" lon="-1.3329890">
        <ele>894.8</ele>
        <time>2020-03-26T18:55:54Z</time>
      </trkpt>
      <trkpt lat="42.9914730" lon="-1.3331620">
        <ele>894.8</ele>
        <time>2020-03-26T18:55:56Z</time>
      </trkpt>
      <trkpt lat="42.9914000" lon="-1.3333330">
        <ele>894.8</ele>
        <time>2020-03-26T18:55:58Z</time>
      </trkpt>
      <trkpt lat="42.9912400" lon="-1.3337020">
        <ele>895.1</ele>
        <time>2020-03-26T18:56:00Z</time>
      </trkpt>
      <trkpt lat="42.9911640" lon="-1.3338710">
        <ele>895.3</ele>
        <time>2020-03-26T18:56:02Z</time>
      </trkpt>
      <trkpt lat="42.9910870" lon="-1.3340420">
        <ele>895.6</ele>
        <time>2020-03-26T18:56:04Z</time>
      </trkpt>
      <trkpt lat="42.9909450" lon="-1.3343590">
        <ele>895.6</ele>
        <time>2020-03-26T18:56:06Z</time>
      </trkpt>
      <trkpt lat="42.9908130" lon="-1.3346540">
        <ele>895.6</ele>
        <time>2020-03-26T18:56:08Z</time>
      </trkpt>
      <trkpt lat="42.9906670" lon="-1.3348340">
        <ele>896.2</ele>
        <time>2020-03-26T18:56:10Z</time>
      </trkpt>
      <trkpt lat="42.9905420" lon="-1.3349320">
        <ele>896.1</ele>
        <time>2020-03-26T18:56:12Z</time>
      </trkpt>
      <trkpt lat="42.9904200" lon="-1.3350280">
        <ele>896.0</ele>
        <time>2020-03-26T18:56:14Z</time>
      </trkpt>
      <trkpt lat="42.9901660" lon="-1.3352260">
        <ele>895.4</ele>
        <time>2020-03-26T18:56:16Z</time>
      </trkpt>
      <trkpt lat="42.9899940" lon="-1.3353600">
        <ele>895.1</ele>
        <time>2020-03-26T18:56:18Z</time>
      </trkpt>
      <trkpt lat="42.9898710" lon="-1.3354560">
        <ele>894.9</ele>
        <time>2020-03-26T18:56:20Z</time>
      </trkpt>
      <trkpt lat="42.9897450" lon="-1.3355540">
        <ele>894.6</ele>
        <time>2020-03-26T18:56:22Z</time>
      </trkpt>
      <trkpt lat="42.9896180" lon="-1.3356540">
        <ele>894.4</ele>
        <time>2020-03-26T18:56:24Z</time>
      </trkpt>
      <trkpt lat="42.9893060" lon="-1.3358870">
        <ele>893.2</ele>
        <time>2020-03-26T18:56:26Z</time>
      </trkpt>
      <trkpt lat="42.9891780" lon="-1.3359790">
        <ele>892.9</ele>
        <time>2020-03-26T18:56:28Z</time>
      </trkpt>
      <trkpt lat="42.9889930" lon="-1.3361050">
        <ele>892.7</ele>
        <time>2020-03-26T18:56:30Z</time>
      </trkpt>
      <trkpt lat="42.9888580" lon="-1.3361950">
        <ele>892.6</ele>
        <time>2020-03-26T18:56:32Z</time>
      </trkpt>
      <trkpt lat="42.9885790" lon="-1.3363780">
        <ele>892.5</ele>
        <time>2020-03-26T18:56:34Z</time>
      </trkpt>
      <trkpt lat="42.9883790" lon="-1.3364820">
        <ele>892.3</ele>
        <time>2020-03-26T18:56:36Z</time>
      </trkpt>
      <trkpt lat="42.9882320" lon="-1.3365520">
        <ele>891.4</ele>
        <time>2020-03-26T18:56:38Z</time>
      </trkpt>
      <trkpt lat="42.9879770" lon="-1.3366740">
        <ele>889.5</ele>
        <time>2020-03-26T18:56:40Z</time>
      </trkpt>
      <trkpt lat="42.9878010" lon="-1.3367650">
        <ele>888.9</ele>
        <time>2020-03-26T18:56:42Z</time>
      </trkpt>
      <trkpt lat="42.9876500" lon="-1.3368420">
        <ele>887.9</ele>
        <time>2020-03-26T18:56:44Z</time>
      </trkpt>
      <trkpt lat="42.9873640" lon="-1.3369900">
        <ele>887.7</ele>
        <time>2020-03-26T18:56:46Z</time>
      </trkpt>
      <trkpt lat="42.9872110" lon="-1.3370740">
        <ele>887.7</ele>
        <time>2020-03-26T18:56:48Z</time>
      </trkpt>
      <trkpt lat="42.9870580" lon="-1.3371580">
        <ele>887.8</ele>
        <time>2020-03-26T18:56:50Z</time>
      </trkpt>
      <trkpt lat="42.9867790" lon="-1.3373330">
        <ele>887.9</ele>
        <time>2020-03-26T18:56:52Z</time>
      </trkpt>
      <trkpt lat="42.9865580" lon="-1.3375510">
        <ele>887.9</ele>
        <time>2020-03-26T18:56:54Z</time>
      </trkpt>
      <trkpt lat="42.9864310" lon="-1.3377060">
        <ele>887.4</ele>
        <time>2020-03-26T18:56:56Z</time>
      </trkpt>
      <trkpt lat="42.9862140" lon="-1.3379730">
        <ele>886.0</ele>
        <time>2020-03-26T18:56:58Z</time>
      </trkpt>
      <trkpt lat="42.9860350" lon="-1.3381910">
        <ele>884.9</ele>
        <time>2020-03-26T18:57:00Z</time>
      </trkpt>
      <trkpt lat="42.9859120" lon="-1.3383410">
        <ele>884.2</ele>
        <time>2020-03-26T18:57:02Z</time>
      </trkpt>
      <trkpt lat="42.9857960" lon="-1.3384830">
        <ele>883.8</ele>
        <time>2020-03-26T18:57:04Z</time>
      </trkpt>
      <trkpt lat="42.9856830" lon="-1.3386210">
        <ele>883.4</ele>
        <time>2020-03-26T18:57:06Z</time>
      </trkpt>
      <trkpt lat="42.9854000" lon="-1.3389680">
        <ele>882.9</ele>
        <time>2020-03-26T18:57:08Z</time>
      </trkpt>
      <trkpt lat="42.9852890" lon="-1.3391030">
        <ele>882.5</ele>
        <time>2020-03-26T18:57:10Z</time>
      </trkpt>
      <trkpt lat="42.9851770" lon="-1.3392390">
        <ele>882.2</ele>
        <time>2020-03-26T18:57:12Z</time>
      </trkpt>
      <trkpt lat="42.9850670" lon="-1.3393740">
        <ele>882.2</ele>
        <time>2020-03-26T18:57:14Z</time>
      </trkpt>
      <trkpt lat="42.9847850" lon="-1.3397190">
        <ele>881.8</ele>
        <time>2020-03-26T18:57:16Z</time>
      </trkpt>
      <trkpt lat="42.9846720" lon="-1.3398570">
        <ele>881.2</ele>
        <time>2020-03-26T18:57:18Z</time>
      </trkpt>
      <trkpt lat="42.9845570" lon="-1.3399980">
        <ele>880.2</ele>
        <time>2020-03-26T18:57:20Z</time>
      </trkpt>
      <trkpt lat="42.9844410" lon="-1.3401410">
        <ele>879.4</ele>
        <time>2020-03-26T18:57:22Z</time>
      </trkpt>
      <trkpt lat="42.9843250" lon="-1.3402830">
        <ele>878.9</ele>
        <time>2020-03-26T18:57:24Z</time>
      </trkpt>
      <trkpt lat="42.9840360" lon="-1.3406360">
        <ele>878.3</ele>
        <time>2020-03-26T18:57:26Z</time>
      </trkpt>
      <trkpt lat="42.9839180" lon="-1.3407810">
        <ele>878.5</ele>
        <time>2020-03-26T18:57:28Z</time>
      </trkpt>
      <trkpt lat="42.9837990" lon="-1.3409250">
        <ele>878.8</ele>
        <time>2020-03-26T18:57:30Z</time>
      </trkpt>
      <trkpt lat="42.9835100" lon="-1.3412790">
        <ele>879.2</ele>
        <time>2020-03-26T18:57:32Z</time>
      </trkpt>
      <trkpt lat="42.9833940" lon="-1.3414210">
        <ele>879.2</ele>
        <time>2020-03-26T18:57:34Z</time>
      </trkpt>
      <trkpt lat="42.9832820" lon="-1.3415580">
        <ele>879.2</ele>
        <time>2020-03-26T18:57:36Z</time>
      </trkpt>
      <trkpt lat="42.9831740" lon="-1.3416910">
        <ele>879.3</ele>
        <time>2020-03-26T18:57:38Z</time>
      </trkpt>
      <trkpt lat="42.9830690" lon="-1.3418190">
        <ele>879.3</ele>
        <time>2020-03-26T18:57:40Z</time>
      </trkpt>
      <trkpt lat="42.9827920" lon="-1.3421500">
        <ele>879.7</ele>
        <time>2020-03-26T18:57:42Z</time>
      </trkpt>
      <trkpt lat="42.9826890" lon="-1.3422700">
        <ele>880.0</ele>
        <time>2020-03-26T18:57:44Z</time>
      </trkpt>
      <trkpt lat="42.9825870" lon="-1.3423880">
        <ele>880.6</ele>
        <time>2020-03-26T18:57:46Z</time>
      </trkpt>
      <trkpt lat="42.9824860" lon="-1.3425050">
        <ele>881.1</ele>
        <time>2020-03-26T18:57:48Z</time>
      </trkpt>
      <trkpt lat="42.9822370" lon="-1.3427940">
        <ele>882.7</ele>
        <time>2020-03-26T18:57:50Z</time>
      </trkpt>
      <trkpt lat="42.9821390" lon="-1.3429070">
        <ele>883.2</ele>
        <time>2020-03-26T18:57:52Z</time>
      </trkpt>
      <trkpt lat="42.9820410" lon="-1.3430200">
        <ele>883.6</ele>
        <time>2020-03-26T18:57:54Z</time>
      </trkpt>
      <trkpt lat="42.9819430" lon="-1.3431330">
        <ele>884.1</ele>
        <time>2020-03-26T18:57:56Z</time>
      </trkpt>
      <trkpt lat="42.9816970" lon="-1.3434170">
        <ele>884.6</ele>
        <time>2020-03-26T18:57:58Z</time>
      </trkpt>
      <trkpt lat="42.9816010" lon="-1.3435290">
        <ele>884.7</ele>
        <time>2020-03-26T18:58:00Z</time>
      </trkpt>
      <trkpt lat="42.9815050" lon="-1.3436390">
        <ele>884.6</ele>
        <time>2020-03-26T18:58:02Z</time>
      </trkpt>
      <trkpt lat="42.9814110" lon="-1.3437490">
        <ele>884.5</ele>
        <time>2020-03-26T18:58:04Z</time>
      </trkpt>
      <trkpt lat="42.9811660" lon="-1.3440320">
        <ele>884.1</ele>
        <time>2020-03-26T18:58:06Z</time>
      </trkpt>
      <trkpt lat="42.9810660" lon="-1.3441470">
        <ele>883.7</ele>
        <time>2020-03-26T18:58:08Z</time>
      </trkpt>
      <trkpt lat="42.9809630" lon="-1.3442670">
        <ele>883.3</ele>
        <time>2020-03-26T18:58:10Z</time>
      </trkpt>
      <trkpt lat="42.9808560" lon="-1.3443900">
        <ele>883.1</ele>
        <time>2020-03-26T18:58:12Z</time>
      </trkpt>
      <trkpt lat="42.9805980" lon="-1.3446900">
        <ele>882.3</ele>
        <time>2020-03-26T18:58:14Z</time>
      </trkpt>
      <trkpt lat="42.9804890" lon="-1.3448160">
        <ele>881.9</ele>
        <time>2020-03-26T18:58:16Z</time>
      </trkpt>
      <trkpt lat="42.9803780" lon="-1.3449440">
        <ele>881.5</ele>
        <time>2020-03-26T18:58:18Z</time>
      </trkpt>
      <trkpt lat="42.9802670" lon="-1.3450730">
        <ele>881.1</ele>
        <time>2020-03-26T18:58:20Z</time>
      </trkpt>
      <trkpt lat="42.9800050" lon="-1.3453730">
        <ele>880.3</ele>
        <time>2020-03-26T18:58:22Z</time>
      </trkpt>
      <trkpt lat="42.9798900" lon="-1.3455010">
        <ele>879.7</ele>
        <time>2020-03-26T18:58:24Z</time>
      </trkpt>
      <trkpt lat="42.9797730" lon="-1.3456310">
        <ele>879.2</ele>
        <time>2020-03-26T18:58:26Z</time>
      </trkpt>
      <trkpt lat="42.9795280" lon="-1.3459020">
        <ele>878.4</ele>
        <time>2020-03-26T18:58:28Z</time>
      </trkpt>
      <trkpt lat="42.9794100" lon="-1.3460330">
        <ele>878.0</ele>
        <time>2020-03-26T18:58:30Z</time>
      </trkpt>
      <trkpt lat="42.9792920" lon="-1.3461640">
        <ele>877.8</ele>
        <time>2020-03-26T18:58:32Z</time>
      </trkpt>
      <trkpt lat="42.9790480" lon="-1.3464360">
        <ele>876.8</ele>
        <time>2020-03-26T18:58:34Z</time>
      </trkpt>
      <trkpt lat="42.9789300" lon="-1.3465670">
        <ele>876.3</ele>
        <time>2020-03-26T18:58:36Z</time>
      </trkpt>
      <trkpt lat="42.9788120" lon="-1.3466980">
        <ele>875.8</ele>
        <time>2020-03-26T18:58:38Z</time>
      </trkpt>
      <trkpt lat="42.9785640" lon="-1.3469650">
        <ele>874.8</ele>
        <time>2020-03-26T18:58:40Z</time>
      </trkpt>
      <trkpt lat="42.9784420" lon="-1.3470900">
        <ele>874.2</ele>
        <time>2020-03-26T18:58:42Z</time>
      </trkpt>
      <trkpt lat="42.9783180" lon="-1.3472180">
        <ele>873.5</ele>
        <time>2020-03-26T18:58:44Z</time>
      </trkpt>
      <trkpt lat="42.9781920" lon="-1.3473470">
        <ele>872.9</ele>
        <time>2020-03-26T18:58:46Z</time>
      </trkpt>
      <trkpt lat="42.9778920" lon="-1.3476550">
        <ele>871.2</ele>
        <time>2020-03-26T18:58:48Z</time>
      </trkpt>
      <trkpt lat="42.9777620" lon="-1.3477880">
        <ele>871.0</ele>
        <time>2020-03-26T18:58:50Z</time>
      </trkpt>
      <trkpt lat="42.9776310" lon="-1.3479220">
        <ele>870.8</ele>
        <time>2020-03-26T18:58:52Z</time>
      </trkpt>
      <trkpt lat="42.9773270" lon="-1.3482390">
        <ele>870.6</ele>
        <time>2020-03-26T18:58:54Z</time>
      </trkpt>
      <trkpt lat="42.9771400" lon="-1.3484470">
        <ele>869.4</ele>
        <time>2020-03-26T18:58:56Z</time>
      </trkpt>
      <trkpt lat="42.9770150" lon="-1.3486100">
        <ele>868.4</ele>
        <time>2020-03-26T18:58:58Z</time>
      </trkpt>
      <trkpt lat="42.9768290" lon="-1.3488490">
        <ele>867.2</ele>
        <time>2020-03-26T18:59:00Z</time>
      </trkpt>
      <trkpt lat="42.9767050" lon="-1.3489880">
        <ele>866.8</ele>
        <time>2020-03-26T18:59:02Z</time>
      </trkpt>
      <trkpt lat="42.9765870" lon="-1.3491200">
        <ele>866.5</ele>
        <time>2020-03-26T18:59:04Z</time>
      </trkpt>
      <trkpt lat="42.9763380" lon="-1.3493970">
        <ele>866.2</ele>
        <time>2020-03-26T18:59:06Z</time>
      </trkpt>
      <trkpt lat="42.9762210" lon="-1.3495240">
        <ele>866.7</ele>
        <time>2020-03-26T18:59:08Z</time>
      </trkpt>
      <trkpt lat="42.9761040" lon="-1.3496510">
        <ele>867.1</ele>
        <time>2020-03-26T18:59:10Z</time>
      </trkpt>
      <trkpt lat="42.9758400" lon="-1.3499390">
        <ele>868.2</ele>
        <time>2020-03-26T18:59:12Z</time>
      </trkpt>
      <trkpt lat="42.9757120" lon="-1.3500770">
        <ele>869.2</ele>
        <time>2020-03-26T18:59:14Z</time>
      </trkpt>
      <trkpt lat="42.9755950" lon="-1.3502040">
        <ele>870.0</ele>
        <time>2020-03-26T18:59:16Z</time>
      </trkpt>
      <trkpt lat="42.9754780" lon="-1.3503310">
        <ele>870.5</ele>
        <time>2020-03-26T18:59:18Z</time>
      </trkpt>
      <trkpt lat="42.9751990" lon="-1.3506350">
        <ele>871.2</ele>
        <time>2020-03-26T18:59:20Z</time>
      </trkpt>
      <trkpt lat="42.9750830" lon="-1.3507640">
        <ele>870.9</ele>
        <time>2020-03-26T18:59:22Z</time>
      </trkpt>
      <trkpt lat="42.9749670" lon="-1.3508930">
        <ele>870.7</ele>
        <time>2020-03-26T18:59:24Z</time>
      </trkpt>
      <trkpt lat="42.9747440" lon="-1.3511380">
        <ele>870.3</ele>
        <time>2020-03-26T18:59:26Z</time>
      </trkpt>
      <trkpt lat="42.9745720" lon="-1.3513270">
        <ele>869.7</ele>
        <time>2020-03-26T18:59:28Z</time>
      </trkpt>
      <trkpt lat="42.9744120" lon="-1.3515030">
        <ele>869.3</ele>
        <time>2020-03-26T18:59:30Z</time>
      </trkpt>
      <trkpt lat="42.9742800" lon="-1.3516480">
        <ele>868.7</ele>
        <time>2020-03-26T18:59:32Z</time>
      </trkpt>
      <trkpt lat="42.9740190" lon="-1.3519340">
        <ele>867.2</ele>
        <time>2020-03-26T18:59:34Z</time>
      </trkpt>
      <trkpt lat="42.9738960" lon="-1.3520690">
        <ele>866.5</ele>
        <time>2020-03-26T18:59:36Z</time>
      </trkpt>
      <trkpt lat="42.9737860" lon="-1.3521910">
        <ele>866.1</ele>
        <time>2020-03-26T18:59:38Z</time>
      </trkpt>
      <trkpt lat="42.9736850" lon="-1.3523010">
        <ele>865.9</ele>
        <time>2020-03-26T18:59:40Z</time>
      </trkpt>
      <trkpt lat="42.9734300" lon="-1.3525800">
        <ele>866.3</ele>
        <time>2020-03-26T18:59:42Z</time>
      </trkpt>
      <trkpt lat="42.9733190" lon="-1.3527010">
        <ele>867.2</ele>
        <time>2020-03-26T18:59:44Z</time>
      </trkpt>
      <trkpt lat="42.9732300" lon="-1.3527980">
        <ele>867.9</ele>
        <time>2020-03-26T18:59:46Z</time>
      </trkpt>
      <trkpt lat="42.9731410" lon="-1.3528940">
        <ele>868.9</ele>
        <time>2020-03-26T18:59:48Z</time>
      </trkpt>
      <trkpt lat="42.9730540" lon="-1.3529880">
        <ele>869.9</ele>
        <time>2020-03-26T18:59:50Z</time>
      </trkpt>
      <trkpt lat="42.9728290" lon="-1.3532340">
        <ele>872.3</ele>
        <time>2020-03-26T18:59:52Z</time>
      </trkpt>
      <trkpt lat="42.9727270" lon="-1.3533650">
        <ele>873.8</ele>
        <time>2020-03-26T18:59:54Z</time>
      </trkpt>
      <trkpt lat="42.9726520" lon="-1.3534950">
        <ele>875.4</ele>
        <time>2020-03-26T18:59:56Z</time>
      </trkpt>
      <trkpt lat="42.9725960" lon="-1.3536620">
        <ele>876.5</ele>
        <time>2020-03-26T18:59:58Z</time>
      </trkpt>
      <trkpt lat="42.9725840" lon="-1.3538080">
        <ele>877.1</ele>
        <time>2020-03-26T19:00:00Z</time>
      </trkpt>
      <trkpt lat="42.9725910" lon="-1.3539550">
        <ele>877.8</ele>
        <time>2020-03-26T19:00:02Z</time>
      </trkpt>
      <trkpt lat="42.9726300" lon="-1.3541200">
        <ele>878.8</ele>
        <time>2020-03-26T19:00:04Z</time>
      </trkpt>
      <trkpt lat="42.9726740" lon="-1.3542110">
        <ele>879.3</ele>
        <time>2020-03-26T19:00:06Z</time>
      </trkpt>
      <trkpt lat="42.9727460" lon="-1.3543560">
        <ele>880.1</ele>
        <time>2020-03-26T19:00:08Z</time>
      </trkpt>
      <trkpt lat="42.9727970" lon="-1.3544420">
        <ele>880.5</ele>
        <time>2020-03-26T19:00:10Z</time>
      </trkpt>
      <trkpt lat="42.9728810" lon="-1.3545790">
        <ele>881.4</ele>
        <time>2020-03-26T19:00:12Z</time>
      </trkpt>
      <trkpt lat="42.9729640" lon="-1.3547050">
        <ele>882.4</ele>
        <time>2020-03-26T19:00:14Z</time>
      </trkpt>
      <trkpt lat="42.9730350" lon="-1.3548060">
        <ele>883.2</ele>
        <time>2020-03-26T19:00:16Z</time>
      </trkpt>
      <trkpt lat="42.9730940" lon="-1.3548860">
        <ele>883.7</ele>
        <time>2020-03-26T19:00:18Z</time>
      </trkpt>
      <trkpt lat="42.9731520" lon="-1.3549650">
        <ele>884.3</ele>
        <time>2020-03-26T19:00:20Z</time>
      </trkpt>
      <trkpt lat="42.9732750" lon="-1.3551330">
        <ele>885.2</ele>
        <time>2020-03-26T19:00:22Z</time>
      </trkpt>
      <trkpt lat="42.9733630" lon="-1.3552360">
        <ele>885.7</ele>
        <time>2020-03-26T19:00:24Z</time>
      </trkpt>
      <trkpt lat="42.9734640" lon="-1.3553280">
        <ele>886.0</ele>
        <time>2020-03-26T19:00:26Z</time>
      </trkpt>
      <trkpt lat="42.9735470" lon="-1.3554020">
        <ele>886.1</ele>
        <time>2020-03-26T19:00:28Z</time>
      </trkpt>
      <trkpt lat="42.9737110" lon="-1.3555530">
        <ele>885.5</ele>
        <time>2020-03-26T19:00:30Z</time>
      </trkpt>
      <trkpt lat="42.9738030" lon="-1.3556740">
        <ele>884.5</ele>
        <time>2020-03-26T19:00:32Z</time>
      </trkpt>
      <trkpt lat="42.9739690" lon="-1.3558910">
        <ele>882.5</ele>
        <time>2020-03-26T19:00:34Z</time>
      </trkpt>
      <trkpt lat="42.9740710" lon="-1.3560330">
        <ele>881.6</ele>
        <time>2020-03-26T19:00:36Z</time>
      </trkpt>
      <trkpt lat="42.9742280" lon="-1.3562500">
        <ele>879.7</ele>
        <time>2020-03-26T19:00:38Z</time>
      </trkpt>
      <trkpt lat="42.9743470" lon="-1.3564150">
        <ele>877.7</ele>
        <time>2020-03-26T19:00:40Z</time>
      </trkpt>
      <trkpt lat="42.9745880" lon="-1.3567480">
        <ele>875.1</ele>
        <time>2020-03-26T19:00:42Z</time>
      </trkpt>
      <trkpt lat="42.9747220" lon="-1.3569350">
        <ele>873.3</ele>
        <time>2020-03-26T19:00:44Z</time>
      </trkpt>
      <trkpt lat="42.9749770" lon="-1.3572900">
        <ele>869.0</ele>
        <time>2020-03-26T19:00:46Z</time>
      </trkpt>
      <trkpt lat="42.9751050" lon="-1.3575130">
        <ele>867.5</ele>
        <time>2020-03-26T19:00:48Z</time>
      </trkpt>
      <trkpt lat="42.9752740" lon="-1.3578590">
        <ele>866.1</ele>
        <time>2020-03-26T19:00:50Z</time>
      </trkpt>
      <trkpt lat="42.9753850" lon="-1.3581160">
        <ele>865.2</ele>
        <time>2020-03-26T19:00:52Z</time>
      </trkpt>
      <trkpt lat="42.9755820" lon="-1.3585690">
        <ele>863.3</ele>
        <time>2020-03-26T19:00:54Z</time>
      </trkpt>
      <trkpt lat="42.9756890" lon="-1.3588140">
        <ele>862.0</ele>
        <time>2020-03-26T19:00:56Z</time>
      </trkpt>
      <trkpt lat="42.9758770" lon="-1.3592460">
        <ele>859.7</ele>
        <time>2020-03-26T19:00:58Z</time>
      </trkpt>
      <trkpt lat="42.9759760" lon="-1.3594730">
        <ele>858.5</ele>
        <time>2020-03-26T19:01:00Z</time>
      </trkpt>
      <trkpt lat="42.9761590" lon="-1.3598950">
        <ele>857.4</ele>
        <time>2020-03-26T19:01:02Z</time>
      </trkpt>
      <trkpt lat="42.9762470" lon="-1.3601080">
        <ele>857.0</ele>
        <time>2020-03-26T19:01:04Z</time>
      </trkpt>
      <trkpt lat="42.9763270" lon="-1.3603030">
        <ele>856.8</ele>
        <time>2020-03-26T19:01:06Z</time>
      </trkpt>
      <trkpt lat="42.9764020" lon="-1.3604850">
        <ele>856.8</ele>
        <time>2020-03-26T19:01:08Z</time>
      </trkpt>
      <trkpt lat="42.9765890" lon="-1.3609360">
        <ele>857.6</ele>
        <time>2020-03-26T19:01:10Z</time>
      </trkpt>
      <trkpt lat="42.9766560" lon="-1.3610990">
        <ele>858.3</ele>
        <time>2020-03-26T19:01:12Z</time>
      </trkpt>
      <trkpt lat="42.9767190" lon="-1.3612530">
        <ele>859.1</ele>
        <time>2020-03-26T19:01:14Z</time>
      </trkpt>
      <trkpt lat="42.9767810" lon="-1.3614030">
        <ele>859.9</ele>
        <time>2020-03-26T19:01:16Z</time>
      </trkpt>
      <trkpt lat="42.9768400" lon="-1.3615450">
        <ele>860.8</ele>
        <time>2020-03-26T19:01:18Z</time>
      </trkpt>
      <trkpt lat="42.9770130" lon="-1.3619630">
        <ele>863.4</ele>
        <time>2020-03-26T19:01:20Z</time>
      </trkpt>
      <trkpt lat="42.9770660" lon="-1.3620930">
        <ele>864.5</ele>
        <time>2020-03-26T19:01:22Z</time>
      </trkpt>
      <trkpt lat="42.9771160" lon="-1.3622130">
        <ele>865.7</ele>
        <time>2020-03-26T19:01:24Z</time>
      </trkpt>
      <trkpt lat="42.9771630" lon="-1.3623280">
        <ele>866.6</ele>
        <time>2020-03-26T19:01:26Z</time>
      </trkpt>
      <trkpt lat="42.9772090" lon="-1.3624390">
        <ele>867.5</ele>
        <time>2020-03-26T19:01:28Z</time>
      </trkpt>
      <trkpt lat="42.9773340" lon="-1.3627420">
        <ele>869.8</ele>
        <time>2020-03-26T19:01:30Z</time>
      </trkpt>
      <trkpt lat="42.9773750" lon="-1.3628430">
        <ele>870.2</ele>
        <time>2020-03-26T19:01:32Z</time>
      </trkpt>
      <trkpt lat="42.9774480" lon="-1.3630200">
        <ele>871.0</ele>
        <time>2020-03-26T19:01:34Z</time>
      </trkpt>
      <trkpt lat="42.9774860" lon="-1.3631130">
        <ele>871.4</ele>
        <time>2020-03-26T19:01:36Z</time>
      </trkpt>
      <trkpt lat="42.9775230" lon="-1.3632010">
        <ele>871.7</ele>
        <time>2020-03-26T19:01:38Z</time>
      </trkpt>
      <trkpt lat="42.9775590" lon="-1.3632890">
        <ele>872.0</ele>
        <time>2020-03-26T19:01:40Z</time>
      </trkpt>
      <trkpt lat="42.9776510" lon="-1.3635110">
        <ele>872.8</ele>
        <time>2020-03-26T19:01:42Z</time>
      </trkpt>
      <trkpt lat="42.9776860" lon="-1.3635950">
        <ele>873.1</ele>
        <time>2020-03-26T19:01:44Z</time>
      </trkpt>
      <trkpt lat="42.9777210" lon="-1.3636780">
        <ele>873.3</ele>
        <time>2020-03-26T19:01:46Z</time>
      </trkpt>
      <trkpt lat="42.9777550" lon="-1.3637580">
        <ele>873.5</ele>
        <time>2020-03-26T19:01:48Z</time>
      </trkpt>
      <trkpt lat="42.9777880" lon="-1.3638380">
        <ele>873.7</ele>
        <time>2020-03-26T19:01:50Z</time>
      </trkpt>
      <trkpt lat="42.9778800" lon="-1.3640580">
        <ele>874.3</ele>
        <time>2020-03-26T19:01:52Z</time>
      </trkpt>
      <trkpt lat="42.9779120" lon="-1.3641350">
        <ele>874.6</ele>
        <time>2020-03-26T19:01:54Z</time>
      </trkpt>
      <trkpt lat="42.9779450" lon="-1.3642130">
        <ele>874.9</ele>
        <time>2020-03-26T19:01:56Z</time>
      </trkpt>
      <trkpt lat="42.9779770" lon="-1.3642900">
        <ele>875.1</ele>
        <time>2020-03-26T19:01:58Z</time>
      </trkpt>
      <trkpt lat="42.9780090" lon="-1.3643670">
        <ele>875.4</ele>
        <time>2020-03-26T19:02:00Z</time>
      </trkpt>
      <trkpt lat="42.9780410" lon="-1.3644440">
        <ele>875.7</ele>
        <time>2020-03-26T19:02:02Z</time>
      </trkpt>
      <trkpt lat="42.9780740" lon="-1.3645220">
        <ele>876.0</ele>
        <time>2020-03-26T19:02:04Z</time>
      </trkpt>
      <trkpt lat="42.9781070" lon="-1.3646010">
        <ele>876.2</ele>
        <time>2020-03-26T19:02:06Z</time>
      </trkpt>
      <trkpt lat="42.9781400" lon="-1.3646790">
        <ele>876.5</ele>
        <time>2020-03-26T19:02:08Z</time>
      </trkpt>
      <trkpt lat="42.9781730" lon="-1.3647580">
        <ele>876.7</ele>
        <time>2020-03-26T19:02:10Z</time>
      </trkpt>
      <trkpt lat="42.9783180" lon="-1.3651250">
        <ele>877.8</ele>
        <time>2020-03-26T19:02:12Z</time>
      </trkpt>
      <trkpt lat="42.9783510" lon="-1.3652350">
        <ele>878.1</ele>
        <time>2020-03-26T19:02:14Z</time>
      </trkpt>
      <trkpt lat="42.9783880" lon="-1.3653590">
        <ele>878.3</ele>
        <time>2020-03-26T19:02:16Z</time>
      </trkpt>
      <trkpt lat="42.9784610" lon="-1.3656270">
        <ele>878.9</ele>
        <time>2020-03-26T19:02:18Z</time>
      </trkpt>
      <trkpt lat="42.9785060" lon="-1.3658420">
        <ele>879.2</ele>
        <time>2020-03-26T19:02:20Z</time>
      </trkpt>
      <trkpt lat="42.9785460" lon="-1.3660380">
        <ele>878.0</ele>
        <time>2020-03-26T19:02:22Z</time>
      </trkpt>
      <trkpt lat="42.9785770" lon="-1.3661930">
        <ele>877.1</ele>
        <time>2020-03-26T19:02:24Z</time>
      </trkpt>
      <trkpt lat="42.9786280" lon="-1.3664320">
        <ele>875.9</ele>
        <time>2020-03-26T19:02:26Z</time>
      </trkpt>
      <trkpt lat="42.9786760" lon="-1.3666860">
        <ele>874.7</ele>
        <time>2020-03-26T19:02:28Z</time>
      </trkpt>
      <trkpt lat="42.9787120" lon="-1.3669610">
        <ele>873.3</ele>
        <time>2020-03-26T19:02:30Z</time>
      </trkpt>
      <trkpt lat="42.9787380" lon="-1.3671990">
        <ele>872.5</ele>
        <time>2020-03-26T19:02:32Z</time>
      </trkpt>
      <trkpt lat="42.9787570" lon="-1.3674160">
        <ele>871.8</ele>
        <time>2020-03-26T19:02:34Z</time>
      </trkpt>
      <trkpt lat="42.9787760" lon="-1.3676450">
        <ele>870.9</ele>
        <time>2020-03-26T19:02:36Z</time>
      </trkpt>
      <trkpt lat="42.9788290" lon="-1.3681340">
        <ele>869.4</ele>
        <time>2020-03-26T19:02:38Z</time>
      </trkpt>
      <trkpt lat="42.9788710" lon="-1.3683550">
        <ele>869.7</ele>
        <time>2020-03-26T19:02:40Z</time>
      </trkpt>
      <trkpt lat="42.9789350" lon="-1.3686960">
        <ele>870.1</ele>
        <time>2020-03-26T19:02:42Z</time>
      </trkpt>
      <trkpt lat="42.9789730" lon="-1.3688990">
        <ele>870.1</ele>
        <time>2020-03-26T19:02:44Z</time>
      </trkpt>
      <trkpt lat="42.9790460" lon="-1.3692590">
        <ele>870.2</ele>
        <time>2020-03-26T19:02:46Z</time>
      </trkpt>
      <trkpt lat="42.9790880" lon="-1.3694490">
        <ele>870.3</ele>
        <time>2020-03-26T19:02:48Z</time>
      </trkpt>
      <trkpt lat="42.9791630" lon="-1.3697660">
        <ele>870.0</ele>
        <time>2020-03-26T19:02:50Z</time>
      </trkpt>
      <trkpt lat="42.9792070" lon="-1.3699420">
        <ele>869.6</ele>
        <time>2020-03-26T19:02:52Z</time>
      </trkpt>
      <trkpt lat="42.9792930" lon="-1.3702740">
        <ele>869.2</ele>
        <time>2020-03-26T19:02:54Z</time>
      </trkpt>
      <trkpt lat="42.9793380" lon="-1.3704390">
        <ele>869.3</ele>
        <time>2020-03-26T19:02:56Z</time>
      </trkpt>
      <trkpt lat="42.9793830" lon="-1.3705980">
        <ele>869.4</ele>
        <time>2020-03-26T19:02:58Z</time>
      </trkpt>
      <trkpt lat="42.9794260" lon="-1.3707550">
        <ele>869.6</ele>
        <time>2020-03-26T19:03:00Z</time>
      </trkpt>
      <trkpt lat="42.9795360" lon="-1.3711490">
        <ele>870.3</ele>
        <time>2020-03-26T19:03:02Z</time>
      </trkpt>
      <trkpt lat="42.9795770" lon="-1.3712980">
        <ele>870.8</ele>
        <time>2020-03-26T19:03:04Z</time>
      </trkpt>
      <trkpt lat="42.9796170" lon="-1.3714390">
        <ele>871.3</ele>
        <time>2020-03-26T19:03:06Z</time>
      </trkpt>
      <trkpt lat="42.9796540" lon="-1.3715740">
        <ele>871.8</ele>
        <time>2020-03-26T19:03:08Z</time>
      </trkpt>
      <trkpt lat="42.9796910" lon="-1.3717050">
        <ele>872.2</ele>
        <time>2020-03-26T19:03:10Z</time>
      </trkpt>
      <trkpt lat="42.9797950" lon="-1.3720730">
        <ele>873.9</ele>
        <time>2020-03-26T19:03:12Z</time>
      </trkpt>
      <trkpt lat="42.9798490" lon="-1.3722520">
        <ele>874.1</ele>
        <time>2020-03-26T19:03:14Z</time>
      </trkpt>
      <trkpt lat="42.9798850" lon="-1.3723730">
        <ele>874.2</ele>
        <time>2020-03-26T19:03:16Z</time>
      </trkpt>
      <trkpt lat="42.9799410" lon="-1.3725670">
        <ele>874.4</ele>
        <time>2020-03-26T19:03:18Z</time>
      </trkpt>
      <trkpt lat="42.9799870" lon="-1.3727220">
        <ele>874.3</ele>
        <time>2020-03-26T19:03:20Z</time>
      </trkpt>
      <trkpt lat="42.9800510" lon="-1.3729290">
        <ele>874.3</ele>
        <time>2020-03-26T19:03:22Z</time>
      </trkpt>
      <trkpt lat="42.9801000" lon="-1.3730810">
        <ele>873.9</ele>
        <time>2020-03-26T19:03:24Z</time>
      </trkpt>
      <trkpt lat="42.9801900" lon="-1.3733280">
        <ele>873.3</ele>
        <time>2020-03-26T19:03:26Z</time>
      </trkpt>
      <trkpt lat="42.9803150" lon="-1.3735340">
        <ele>872.6</ele>
        <time>2020-03-26T19:03:28Z</time>
      </trkpt>
      <trkpt lat="42.9804640" lon="-1.3737060">
        <ele>871.9</ele>
        <time>2020-03-26T19:03:30Z</time>
      </trkpt>
      <trkpt lat="42.9805730" lon="-1.3738140">
        <ele>871.4</ele>
        <time>2020-03-26T19:03:32Z</time>
      </trkpt>
      <trkpt lat="42.9806790" lon="-1.3739200">
        <ele>871.0</ele>
        <time>2020-03-26T19:03:34Z</time>
      </trkpt>
      <trkpt lat="42.9807850" lon="-1.3740250">
        <ele>870.6</ele>
        <time>2020-03-26T19:03:36Z</time>
      </trkpt>
      <trkpt lat="42.9810210" lon="-1.3742510">
        <ele>870.1</ele>
        <time>2020-03-26T19:03:38Z</time>
      </trkpt>
      <trkpt lat="42.9812110" lon="-1.3744240">
        <ele>869.7</ele>
        <time>2020-03-26T19:03:40Z</time>
      </trkpt>
      <trkpt lat="42.9813250" lon="-1.3745230">
        <ele>869.5</ele>
        <time>2020-03-26T19:03:42Z</time>
      </trkpt>
      <trkpt lat="42.9815200" lon="-1.3746920">
        <ele>869.2</ele>
        <time>2020-03-26T19:03:44Z</time>
      </trkpt>
      <trkpt lat="42.9816540" lon="-1.3748250">
        <ele>870.0</ele>
        <time>2020-03-26T19:03:46Z</time>
      </trkpt>
      <trkpt lat="42.9817930" lon="-1.3749910">
        <ele>870.8</ele>
        <time>2020-03-26T19:03:48Z</time>
      </trkpt>
      <trkpt lat="42.9818880" lon="-1.3751600">
        <ele>871.5</ele>
        <time>2020-03-26T19:03:50Z</time>
      </trkpt>
      <trkpt lat="42.9819560" lon="-1.3753560">
        <ele>872.3</ele>
        <time>2020-03-26T19:03:52Z</time>
      </trkpt>
      <trkpt lat="42.9820020" lon="-1.3755590">
        <ele>873.1</ele>
        <time>2020-03-26T19:03:54Z</time>
      </trkpt>
      <trkpt lat="42.9820190" lon="-1.3757510">
        <ele>873.7</ele>
        <time>2020-03-26T19:03:56Z</time>
      </trkpt>
      <trkpt lat="42.9820190" lon="-1.3759590">
        <ele>874.2</ele>
        <time>2020-03-26T19:03:58Z</time>
      </trkpt>
      <trkpt lat="42.9820020" lon="-1.3760820">
        <ele>874.4</ele>
        <time>2020-03-26T19:04:00Z</time>
      </trkpt>
      <trkpt lat="42.9819740" lon="-1.3762700">
        <ele>875.0</ele>
        <time>2020-03-26T19:04:02Z</time>
      </trkpt>
      <trkpt lat="42.9819540" lon="-1.3763800">
        <ele>875.5</ele>
        <time>2020-03-26T19:04:04Z</time>
      </trkpt>
      <trkpt lat="42.9819350" lon="-1.3764860">
        <ele>875.8</ele>
        <time>2020-03-26T19:04:06Z</time>
      </trkpt>
      <trkpt lat="42.9819170" lon="-1.3765890">
        <ele>876.2</ele>
        <time>2020-03-26T19:04:08Z</time>
      </trkpt>
      <trkpt lat="42.9818680" lon="-1.3768690">
        <ele>877.1</ele>
        <time>2020-03-26T19:04:10Z</time>
      </trkpt>
      <trkpt lat="42.9818580" lon="-1.3769800">
        <ele>877.3</ele>
        <time>2020-03-26T19:04:12Z</time>
      </trkpt>
      <trkpt lat="42.9818440" lon="-1.3771670">
        <ele>877.5</ele>
        <time>2020-03-26T19:04:14Z</time>
      </trkpt>
      <trkpt lat="42.9818380" lon="-1.3773000">
        <ele>877.5</ele>
        <time>2020-03-26T19:04:16Z</time>
      </trkpt>
      <trkpt lat="42.9818350" lon="-1.3775200">
        <ele>877.5</ele>
        <time>2020-03-26T19:04:18Z</time>
      </trkpt>
      <trkpt lat="42.9818380" lon="-1.3776600">
        <ele>877.5</ele>
        <time>2020-03-26T19:04:20Z</time>
      </trkpt>
      <trkpt lat="42.9818430" lon="-1.3779370">
        <ele>877.4</ele>
        <time>2020-03-26T19:04:22Z</time>
      </trkpt>
      <trkpt lat="42.9818400" lon="-1.3780810">
        <ele>877.4</ele>
        <time>2020-03-26T19:04:24Z</time>
      </trkpt>
      <trkpt lat="42.9818330" lon="-1.3783240">
        <ele>877.2</ele>
        <time>2020-03-26T19:04:26Z</time>
      </trkpt>
      <trkpt lat="42.9818230" lon="-1.3784620">
        <ele>876.8</ele>
        <time>2020-03-26T19:04:28Z</time>
      </trkpt>
      <trkpt lat="42.9818030" lon="-1.3786740">
        <ele>876.5</ele>
        <time>2020-03-26T19:04:30Z</time>
      </trkpt>
      <trkpt lat="42.9817870" lon="-1.3788050">
        <ele>876.6</ele>
        <time>2020-03-26T19:04:32Z</time>
      </trkpt>
      <trkpt lat="42.9817710" lon="-1.3789340">
        <ele>876.7</ele>
        <time>2020-03-26T19:04:34Z</time>
      </trkpt>
      <trkpt lat="42.9817280" lon="-1.3791950">
        <ele>877.3</ele>
        <time>2020-03-26T19:04:36Z</time>
      </trkpt>
      <trkpt lat="42.9817020" lon="-1.3793220">
        <ele>877.6</ele>
        <time>2020-03-26T19:04:38Z</time>
      </trkpt>
      <trkpt lat="42.9816760" lon="-1.3794490">
        <ele>878.0</ele>
        <time>2020-03-26T19:04:40Z</time>
      </trkpt>
      <trkpt lat="42.9816220" lon="-1.3797370">
        <ele>879.1</ele>
        <time>2020-03-26T19:04:42Z</time>
      </trkpt>
      <trkpt lat="42.9816090" lon="-1.3798540">
        <ele>879.6</ele>
        <time>2020-03-26T19:04:44Z</time>
      </trkpt>
      <trkpt lat="42.9815910" lon="-1.3800560">
        <ele>880.5</ele>
        <time>2020-03-26T19:04:46Z</time>
      </trkpt>
      <trkpt lat="42.9815880" lon="-1.3801590">
        <ele>881.0</ele>
        <time>2020-03-26T19:04:48Z</time>
      </trkpt>
      <trkpt lat="42.9815850" lon="-1.3802580">
        <ele>881.5</ele>
        <time>2020-03-26T19:04:50Z</time>
      </trkpt>
      <trkpt lat="42.9815830" lon="-1.3803520">
        <ele>882.0</ele>
        <time>2020-03-26T19:04:52Z</time>
      </trkpt>
      <trkpt lat="42.9815760" lon="-1.3806010">
        <ele>883.4</ele>
        <time>2020-03-26T19:04:54Z</time>
      </trkpt>
      <trkpt lat="42.9815770" lon="-1.3806930">
        <ele>883.9</ele>
        <time>2020-03-26T19:04:56Z</time>
      </trkpt>
      <trkpt lat="42.9815790" lon="-1.3807840">
        <ele>884.4</ele>
        <time>2020-03-26T19:04:58Z</time>
      </trkpt>
      <trkpt lat="42.9815800" lon="-1.3808740">
        <ele>885.0</ele>
        <time>2020-03-26T19:05:00Z</time>
      </trkpt>
      <trkpt lat="42.9815850" lon="-1.3810880">
        <ele>886.2</ele>
        <time>2020-03-26T19:05:02Z</time>
      </trkpt>
      <trkpt lat="42.9815990" lon="-1.3812100">
        <ele>886.9</ele>
        <time>2020-03-26T19:05:04Z</time>
      </trkpt>
      <trkpt lat="42.9816330" lon="-1.3813190">
        <ele>887.5</ele>
        <time>2020-03-26T19:05:06Z</time>
      </trkpt>
      <trkpt lat="42.9816590" lon="-1.3813870">
        <ele>887.8</ele>
        <time>2020-03-26T19:05:08Z</time>
      </trkpt>
      <trkpt lat="42.9816810" lon="-1.3814410">
        <ele>888.1</ele>
        <time>2020-03-26T19:05:10Z</time>
      </trkpt>
      <trkpt lat="42.9816960" lon="-1.3814820">
        <ele>888.3</ele>
        <time>2020-03-26T19:05:12Z</time>
      </trkpt>
      <trkpt lat="42.9817390" lon="-1.3815860">
        <ele>888.8</ele>
        <time>2020-03-26T19:05:14Z</time>
      </trkpt>
      <trkpt lat="42.9817590" lon="-1.3816310">
        <ele>889.1</ele>
        <time>2020-03-26T19:05:16Z</time>
      </trkpt>
      <trkpt lat="42.9817830" lon="-1.3816820">
        <ele>889.3</ele>
        <time>2020-03-26T19:05:18Z</time>
      </trkpt>
      <trkpt lat="42.9818070" lon="-1.3817370">
        <ele>889.6</ele>
        <time>2020-03-26T19:05:20Z</time>
      </trkpt>
      <trkpt lat="42.9818330" lon="-1.3817930">
        <ele>889.9</ele>
        <time>2020-03-26T19:05:22Z</time>
      </trkpt>
      <trkpt lat="42.9818580" lon="-1.3818490">
        <ele>890.2</ele>
        <time>2020-03-26T19:05:24Z</time>
      </trkpt>
      <trkpt lat="42.9819260" lon="-1.3820230">
        <ele>891.1</ele>
        <time>2020-03-26T19:05:26Z</time>
      </trkpt>
      <trkpt lat="42.9819430" lon="-1.3820870">
        <ele>891.4</ele>
        <time>2020-03-26T19:05:28Z</time>
      </trkpt>
      <trkpt lat="42.9819640" lon="-1.3822050">
        <ele>892.1</ele>
        <time>2020-03-26T19:05:30Z</time>
      </trkpt>
      <trkpt lat="42.9819760" lon="-1.3823110">
        <ele>892.7</ele>
        <time>2020-03-26T19:05:32Z</time>
      </trkpt>
      <trkpt lat="42.9819790" lon="-1.3823830">
        <ele>893.1</ele>
        <time>2020-03-26T19:05:34Z</time>
      </trkpt>
      <trkpt lat="42.9819730" lon="-1.3824980">
        <ele>893.8</ele>
        <time>2020-03-26T19:05:36Z</time>
      </trkpt>
      <trkpt lat="42.9819620" lon="-1.3825690">
        <ele>894.2</ele>
        <time>2020-03-26T19:05:38Z</time>
      </trkpt>
      <trkpt lat="42.9819350" lon="-1.3826820">
        <ele>894.8</ele>
        <time>2020-03-26T19:05:40Z</time>
      </trkpt>
      <trkpt lat="42.9819140" lon="-1.3827510">
        <ele>895.2</ele>
        <time>2020-03-26T19:05:42Z</time>
      </trkpt>
      <trkpt lat="42.9818920" lon="-1.3828200">
        <ele>895.6</ele>
        <time>2020-03-26T19:05:44Z</time>
      </trkpt>
      <trkpt lat="42.9818430" lon="-1.3829580">
        <ele>896.2</ele>
        <time>2020-03-26T19:05:46Z</time>
      </trkpt>
      <trkpt lat="42.9818160" lon="-1.3830230">
        <ele>896.5</ele>
        <time>2020-03-26T19:05:48Z</time>
      </trkpt>
      <trkpt lat="42.9817890" lon="-1.3830900">
        <ele>896.8</ele>
        <time>2020-03-26T19:05:50Z</time>
      </trkpt>
      <trkpt lat="42.9817620" lon="-1.3831560">
        <ele>897.1</ele>
        <time>2020-03-26T19:05:52Z</time>
      </trkpt>
      <trkpt lat="42.9817350" lon="-1.3832220">
        <ele>897.4</ele>
        <time>2020-03-26T19:05:54Z</time>
      </trkpt>
      <trkpt lat="42.9816570" lon="-1.3834130">
        <ele>898.2</ele>
        <time>2020-03-26T19:05:56Z</time>
      </trkpt>
      <trkpt lat="42.9816120" lon="-1.3835180">
        <ele>898.6</ele>
        <time>2020-03-26T19:05:58Z</time>
      </trkpt>
      <trkpt lat="42.9815840" lon="-1.3835830">
        <ele>898.9</ele>
        <time>2020-03-26T19:06:00Z</time>
      </trkpt>
      <trkpt lat="42.9815570" lon="-1.3836460">
        <ele>899.2</ele>
        <time>2020-03-26T19:06:02Z</time>
      </trkpt>
      <trkpt lat="42.9815300" lon="-1.3837100">
        <ele>899.5</ele>
        <time>2020-03-26T19:06:04Z</time>
      </trkpt>
      <trkpt lat="42.9815030" lon="-1.3837740">
        <ele>899.8</ele>
        <time>2020-03-26T19:06:06Z</time>
      </trkpt>
      <trkpt lat="42.9814760" lon="-1.3838390">
        <ele>900.1</ele>
        <time>2020-03-26T19:06:08Z</time>
      </trkpt>
      <trkpt lat="42.9814480" lon="-1.3839030">
        <ele>900.3</ele>
        <time>2020-03-26T19:06:10Z</time>
      </trkpt>
      <trkpt lat="42.9813510" lon="-1.3841320">
        <ele>901.1</ele>
        <time>2020-03-26T19:06:12Z</time>
      </trkpt>
      <trkpt lat="42.9813190" lon="-1.3841940">
        <ele>901.2</ele>
        <time>2020-03-26T19:06:14Z</time>
      </trkpt>
      <trkpt lat="42.9812650" lon="-1.3842870">
        <ele>901.5</ele>
        <time>2020-03-26T19:06:16Z</time>
      </trkpt>
      <trkpt lat="42.9812230" lon="-1.3843370">
        <ele>901.8</ele>
        <time>2020-03-26T19:06:18Z</time>
      </trkpt>
      <trkpt lat="42.9811820" lon="-1.3843860">
        <ele>902.0</ele>
        <time>2020-03-26T19:06:20Z</time>
      </trkpt>
      <trkpt lat="42.9811410" lon="-1.3844350">
        <ele>902.2</ele>
        <time>2020-03-26T19:06:22Z</time>
      </trkpt>
      <trkpt lat="42.9810370" lon="-1.3845600">
        <ele>902.9</ele>
        <time>2020-03-26T19:06:24Z</time>
      </trkpt>
      <trkpt lat="42.9809960" lon="-1.3846130">
        <ele>903.2</ele>
        <time>2020-03-26T19:06:26Z</time>
      </trkpt>
      <trkpt lat="42.9809540" lon="-1.3846660">
        <ele>903.6</ele>
        <time>2020-03-26T19:06:28Z</time>
      </trkpt>
      <trkpt lat="42.9809130" lon="-1.3847190">
        <ele>904.0</ele>
        <time>2020-03-26T19:06:30Z</time>
      </trkpt>
      <trkpt lat="42.9808720" lon="-1.3847720">
        <ele>904.4</ele>
        <time>2020-03-26T19:06:32Z</time>
      </trkpt>
      <trkpt lat="42.9808310" lon="-1.3848240">
        <ele>904.8</ele>
        <time>2020-03-26T19:06:34Z</time>
      </trkpt>
      <trkpt lat="42.9807110" lon="-1.3849930">
        <ele>906.0</ele>
        <time>2020-03-26T19:06:36Z</time>
      </trkpt>
      <trkpt lat="42.9806710" lon="-1.3850870">
        <ele>906.5</ele>
        <time>2020-03-26T19:06:38Z</time>
      </trkpt>
      <trkpt lat="42.9806550" lon="-1.3851590">
        <ele>906.9</ele>
        <time>2020-03-26T19:06:40Z</time>
      </trkpt>
      <trkpt lat="42.9806320" lon="-1.3852910">
        <ele>907.5</ele>
        <time>2020-03-26T19:06:42Z</time>
      </trkpt>
      <trkpt lat="42.9806450" lon="-1.3853630">
        <ele>907.8</ele>
        <time>2020-03-26T19:06:44Z</time>
      </trkpt>
      <trkpt lat="42.9806730" lon="-1.3854620">
        <ele>908.3</ele>
        <time>2020-03-26T19:06:46Z</time>
      </trkpt>
      <trkpt lat="42.9807170" lon="-1.3855490">
        <ele>908.7</ele>
        <time>2020-03-26T19:06:48Z</time>
      </trkpt>
      <trkpt lat="42.9807730" lon="-1.3856160">
        <ele>909.2</ele>
        <time>2020-03-26T19:06:50Z</time>
      </trkpt>
      <trkpt lat="42.9808420" lon="-1.3856770">
        <ele>909.7</ele>
        <time>2020-03-26T19:06:52Z</time>
      </trkpt>
      <trkpt lat="42.9808960" lon="-1.3857170">
        <ele>910.1</ele>
        <time>2020-03-26T19:06:54Z</time>
      </trkpt>
      <trkpt lat="42.9809570" lon="-1.3857620">
        <ele>910.7</ele>
        <time>2020-03-26T19:06:56Z</time>
      </trkpt>
      <trkpt lat="42.9810790" lon="-1.3858510">
        <ele>911.9</ele>
        <time>2020-03-26T19:06:58Z</time>
      </trkpt>
      <trkpt lat="42.9811400" lon="-1.3858940">
        <ele>912.5</ele>
        <time>2020-03-26T19:07:00Z</time>
      </trkpt>
      <trkpt lat="42.9812320" lon="-1.3859630">
        <ele>913.4</ele>
        <time>2020-03-26T19:07:02Z</time>
      </trkpt>
      <trkpt lat="42.9813230" lon="-1.3860300">
        <ele>914.2</ele>
        <time>2020-03-26T19:07:04Z</time>
      </trkpt>
      <trkpt lat="42.9813860" lon="-1.3860590">
        <ele>914.7</ele>
        <time>2020-03-26T19:07:06Z</time>
      </trkpt>
      <trkpt lat="42.9814830" lon="-1.3860910">
        <ele>915.5</ele>
        <time>2020-03-26T19:07:08Z</time>
      </trkpt>
      <trkpt lat="42.9815800" lon="-1.3861080">
        <ele>916.3</ele>
        <time>2020-03-26T19:07:10Z</time>
      </trkpt>
      <trkpt lat="42.9816690" lon="-1.3861280">
        <ele>917.1</ele>
        <time>2020-03-26T19:07:12Z</time>
      </trkpt>
      <trkpt lat="42.9817370" lon="-1.3861900">
        <ele>917.7</ele>
        <time>2020-03-26T19:07:14Z</time>
      </trkpt>
      <trkpt lat="42.9817580" lon="-1.3862830">
        <ele>918.2</ele>
        <time>2020-03-26T19:07:16Z</time>
      </trkpt>
      <trkpt lat="42.9817230" lon="-1.3863880">
        <ele>918.7</ele>
        <time>2020-03-26T19:07:18Z</time>
      </trkpt>
      <trkpt lat="42.9816740" lon="-1.3864170">
        <ele>918.9</ele>
        <time>2020-03-26T19:07:20Z</time>
      </trkpt>
      <trkpt lat="42.9815980" lon="-1.3864410">
        <ele>919.2</ele>
        <time>2020-03-26T19:07:22Z</time>
      </trkpt>
      <trkpt lat="42.9815410" lon="-1.3864490">
        <ele>919.4</ele>
        <time>2020-03-26T19:07:24Z</time>
      </trkpt>
      <trkpt lat="42.9814840" lon="-1.3864580">
        <ele>919.6</ele>
        <time>2020-03-26T19:07:26Z</time>
      </trkpt>
      <trkpt lat="42.9814270" lon="-1.3864660">
        <ele>919.8</ele>
        <time>2020-03-26T19:07:28Z</time>
      </trkpt>
      <trkpt lat="42.9813720" lon="-1.3864740">
        <ele>920.0</ele>
        <time>2020-03-26T19:07:30Z</time>
      </trkpt>
      <trkpt lat="42.9813170" lon="-1.3864820">
        <ele>920.2</ele>
        <time>2020-03-26T19:07:32Z</time>
      </trkpt>
      <trkpt lat="42.9811390" lon="-1.3865030">
        <ele>921.0</ele>
        <time>2020-03-26T19:07:34Z</time>
      </trkpt>
      <trkpt lat="42.9810840" lon="-1.3865060">
        <ele>921.3</ele>
        <time>2020-03-26T19:07:36Z</time>
      </trkpt>
      <trkpt lat="42.9810300" lon="-1.3865080">
        <ele>921.7</ele>
        <time>2020-03-26T19:07:38Z</time>
      </trkpt>
      <trkpt lat="42.9809050" lon="-1.3865100">
        <ele>922.7</ele>
        <time>2020-03-26T19:07:40Z</time>
      </trkpt>
      <trkpt lat="42.9808480" lon="-1.3864950">
        <ele>923.2</ele>
        <time>2020-03-26T19:07:42Z</time>
      </trkpt>
      <trkpt lat="42.9807880" lon="-1.3864800">
        <ele>923.8</ele>
        <time>2020-03-26T19:07:44Z</time>
      </trkpt>
      <trkpt lat="42.9806770" lon="-1.3864480">
        <ele>924.9</ele>
        <time>2020-03-26T19:07:46Z</time>
      </trkpt>
      <trkpt lat="42.9806200" lon="-1.3864280">
        <ele>925.3</ele>
        <time>2020-03-26T19:07:48Z</time>
      </trkpt>
      <trkpt lat="42.9805640" lon="-1.3864090">
        <ele>925.7</ele>
        <time>2020-03-26T19:07:50Z</time>
      </trkpt>
      <trkpt lat="42.9804370" lon="-1.3863740">
        <ele>926.5</ele>
        <time>2020-03-26T19:07:52Z</time>
      </trkpt>
      <trkpt lat="42.9803810" lon="-1.3863700">
        <ele>926.8</ele>
        <time>2020-03-26T19:07:54Z</time>
      </trkpt>
      <trkpt lat="42.9803260" lon="-1.3863660">
        <ele>927.1</ele>
        <time>2020-03-26T19:07:56Z</time>
      </trkpt>
      <trkpt lat="42.9802710" lon="-1.3863620">
        <ele>927.5</ele>
        <time>2020-03-26T19:07:58Z</time>
      </trkpt>
      <trkpt lat="42.9801410" lon="-1.3863630">
        <ele>928.3</ele>
        <time>2020-03-26T19:08:00Z</time>
      </trkpt>
      <trkpt lat="42.9800720" lon="-1.3863900">
        <ele>928.8</ele>
        <time>2020-03-26T19:08:02Z</time>
      </trkpt>
      <trkpt lat="42.9799970" lon="-1.3864390">
        <ele>929.2</ele>
        <time>2020-03-26T19:08:04Z</time>
      </trkpt>
      <trkpt lat="42.9799560" lon="-1.3864880">
        <ele>929.6</ele>
        <time>2020-03-26T19:08:06Z</time>
      </trkpt>
      <trkpt lat="42.9798920" lon="-1.3865700">
        <ele>929.5</ele>
        <time>2020-03-26T19:08:08Z</time>
      </trkpt>
      <trkpt lat="42.9798240" lon="-1.3867070">
        <ele>929.3</ele>
        <time>2020-03-26T19:08:10Z</time>
      </trkpt>
      <trkpt lat="42.9797740" lon="-1.3868100">
        <ele>929.2</ele>
        <time>2020-03-26T19:08:12Z</time>
      </trkpt>
      <trkpt lat="42.9797310" lon="-1.3870270">
        <ele>929.0</ele>
        <time>2020-03-26T19:08:14Z</time>
      </trkpt>
      <trkpt lat="42.9797760" lon="-1.3872220">
        <ele>929.0</ele>
        <time>2020-03-26T19:08:16Z</time>
      </trkpt>
      <trkpt lat="42.9798750" lon="-1.3873590">
        <ele>929.0</ele>
        <time>2020-03-26T19:08:18Z</time>
      </trkpt>
      <trkpt lat="42.9800100" lon="-1.3874700">
        <ele>928.5</ele>
        <time>2020-03-26T19:08:20Z</time>
      </trkpt>
      <trkpt lat="42.9801460" lon="-1.3876160">
        <ele>928.0</ele>
        <time>2020-03-26T19:08:22Z</time>
      </trkpt>
      <trkpt lat="42.9800860" lon="-1.3878090">
        <ele>927.2</ele>
        <time>2020-03-26T19:08:24Z</time>
      </trkpt>
      <trkpt lat="42.9799340" lon="-1.3878370">
        <ele>926.2</ele>
        <time>2020-03-26T19:08:26Z</time>
      </trkpt>
      <trkpt lat="42.9797720" lon="-1.3878200">
        <ele>925.2</ele>
        <time>2020-03-26T19:08:28Z</time>
      </trkpt>
      <trkpt lat="42.9795700" lon="-1.3878340">
        <ele>924.2</ele>
        <time>2020-03-26T19:08:30Z</time>
      </trkpt>
      <trkpt lat="42.9794200" lon="-1.3878590">
        <ele>923.5</ele>
        <time>2020-03-26T19:08:32Z</time>
      </trkpt>
      <trkpt lat="42.9792850" lon="-1.3878970">
        <ele>922.8</ele>
        <time>2020-03-26T19:08:34Z</time>
      </trkpt>
      <trkpt lat="42.9790480" lon="-1.3879650">
        <ele>921.7</ele>
        <time>2020-03-26T19:08:36Z</time>
      </trkpt>
      <trkpt lat="42.9789020" lon="-1.3880070">
        <ele>921.1</ele>
        <time>2020-03-26T19:08:38Z</time>
      </trkpt>
      <trkpt lat="42.9786290" lon="-1.3880680">
        <ele>920.0</ele>
        <time>2020-03-26T19:08:40Z</time>
      </trkpt>
      <trkpt lat="42.9784160" lon="-1.3880480">
        <ele>918.9</ele>
        <time>2020-03-26T19:08:42Z</time>
      </trkpt>
      <trkpt lat="42.9782180" lon="-1.3879210">
        <ele>917.7</ele>
        <time>2020-03-26T19:08:44Z</time>
      </trkpt>
      <trkpt lat="42.9780640" lon="-1.3876760">
        <ele>915.8</ele>
        <time>2020-03-26T19:08:46Z</time>
      </trkpt>
      <trkpt lat="42.9778430" lon="-1.3873910">
        <ele>913.1</ele>
        <time>2020-03-26T19:08:48Z</time>
      </trkpt>
      <trkpt lat="42.9776010" lon="-1.3873020">
        <ele>910.7</ele>
        <time>2020-03-26T19:08:50Z</time>
      </trkpt>
      <trkpt lat="42.9773100" lon="-1.3872810">
        <ele>907.8</ele>
        <time>2020-03-26T19:08:52Z</time>
      </trkpt>
      <trkpt lat="42.9770230" lon="-1.3873320">
        <ele>905.4</ele>
        <time>2020-03-26T19:08:54Z</time>
      </trkpt>
      <trkpt lat="42.9766810" lon="-1.3874210">
        <ele>902.7</ele>
        <time>2020-03-26T19:08:56Z</time>
      </trkpt>
      <trkpt lat="42.9763880" lon="-1.3873740">
        <ele>900.4</ele>
        <time>2020-03-26T19:08:58Z</time>
      </trkpt>
      <trkpt lat="42.9761320" lon="-1.3871920">
        <ele>898.0</ele>
        <time>2020-03-26T19:09:00Z</time>
      </trkpt>
      <trkpt lat="42.9758530" lon="-1.3870410">
        <ele>894.5</ele>
        <time>2020-03-26T19:09:02Z</time>
      </trkpt>
      <trkpt lat="42.9758680" lon="-1.3873940">
        <ele>890.4</ele>
        <time>2020-03-26T19:09:04Z</time>
      </trkpt>
      <trkpt lat="42.9760340" lon="-1.3877520">
        <ele>886.5</ele>
        <time>2020-03-26T19:09:06Z</time>
      </trkpt>
      <trkpt lat="42.9761960" lon="-1.3881190">
        <ele>883.2</ele>
        <time>2020-03-26T19:09:08Z</time>
      </trkpt>
      <trkpt lat="42.9764210" lon="-1.3883950">
        <ele>880.7</ele>
        <time>2020-03-26T19:09:10Z</time>
      </trkpt>
      <trkpt lat="42.9767270" lon="-1.3886470">
        <ele>878.2</ele>
        <time>2020-03-26T19:09:12Z</time>
      </trkpt>
      <trkpt lat="42.9770620" lon="-1.3887690">
        <ele>875.4</ele>
        <time>2020-03-26T19:09:14Z</time>
      </trkpt>
      <trkpt lat="42.9773420" lon="-1.3890250">
        <ele>873.1</ele>
        <time>2020-03-26T19:09:16Z</time>
      </trkpt>
      <trkpt lat="42.9774550" lon="-1.3893940">
        <ele>870.6</ele>
        <time>2020-03-26T19:09:18Z</time>
      </trkpt>
      <trkpt lat="42.9775750" lon="-1.3898290">
        <ele>867.5</ele>
        <time>2020-03-26T19:09:20Z</time>
      </trkpt>
      <trkpt lat="42.9776610" lon="-1.3902890">
        <ele>864.7</ele>
        <time>2020-03-26T19:09:22Z</time>
      </trkpt>
      <trkpt lat="42.9776940" lon="-1.3907680">
        <ele>862.4</ele>
        <time>2020-03-26T19:09:24Z</time>
      </trkpt>
      <trkpt lat="42.9777680" lon="-1.3912100">
        <ele>860.0</ele>
        <time>2020-03-26T19:09:26Z</time>
      </trkpt>
      <trkpt lat="42.9779120" lon="-1.3916250">
        <ele>857.7</ele>
        <time>2020-03-26T19:09:28Z</time>
      </trkpt>
      <trkpt lat="42.9780140" lon="-1.3920860">
        <ele>855.5</ele>
        <time>2020-03-26T19:09:30Z</time>
      </trkpt>
      <trkpt lat="42.9778460" lon="-1.3924280">
        <ele>853.5</ele>
        <time>2020-03-26T19:09:32Z</time>
      </trkpt>
      <trkpt lat="42.9776610" lon="-1.3928140">
        <ele>851.1</ele>
        <time>2020-03-26T19:09:34Z</time>
      </trkpt>
      <trkpt lat="42.9775640" lon="-1.3931580">
        <ele>849.0</ele>
        <time>2020-03-26T19:09:36Z</time>
      </trkpt>
      <trkpt lat="42.9774500" lon="-1.3936070">
        <ele>846.3</ele>
        <time>2020-03-26T19:09:38Z</time>
      </trkpt>
      <trkpt lat="42.9773900" lon="-1.3940940">
        <ele>843.4</ele>
        <time>2020-03-26T19:09:40Z</time>
      </trkpt>
      <trkpt lat="42.9774090" lon="-1.3944860">
        <ele>841.2</ele>
        <time>2020-03-26T19:09:42Z</time>
      </trkpt>
      <trkpt lat="42.9774310" lon="-1.3949640">
        <ele>838.6</ele>
        <time>2020-03-26T19:09:44Z</time>
      </trkpt>
      <trkpt lat="42.9774180" lon="-1.3953980">
        <ele>836.5</ele>
        <time>2020-03-26T19:09:46Z</time>
      </trkpt>
      <trkpt lat="42.9773500" lon="-1.3957960">
        <ele>834.3</ele>
        <time>2020-03-26T19:09:48Z</time>
      </trkpt>
      <trkpt lat="42.9772350" lon="-1.3961100">
        <ele>832.4</ele>
        <time>2020-03-26T19:09:50Z</time>
      </trkpt>
      <trkpt lat="42.9770520" lon="-1.3964540">
        <ele>830.3</ele>
        <time>2020-03-26T19:09:52Z</time>
      </trkpt>
      <trkpt lat="42.9768730" lon="-1.3967870">
        <ele>828.2</ele>
        <time>2020-03-26T19:09:54Z</time>
      </trkpt>
      <trkpt lat="42.9767410" lon="-1.3970340">
        <ele>826.5</ele>
        <time>2020-03-26T19:09:56Z</time>
      </trkpt>
      <trkpt lat="42.9765430" lon="-1.3975290">
        <ele>823.7</ele>
        <time>2020-03-26T19:09:58Z</time>
      </trkpt>
      <trkpt lat="42.9765770" lon="-1.3979670">
        <ele>821.8</ele>
        <time>2020-03-26T19:10:00Z</time>
      </trkpt>
      <trkpt lat="42.9766790" lon="-1.3983930">
        <ele>819.3</ele>
        <time>2020-03-26T19:10:02Z</time>
      </trkpt>
      <trkpt lat="42.9764450" lon="-1.3985450">
        <ele>815.9</ele>
        <time>2020-03-26T19:10:04Z</time>
      </trkpt>
      <trkpt lat="42.9761260" lon="-1.3983770">
        <ele>811.4</ele>
        <time>2020-03-26T19:10:06Z</time>
      </trkpt>
      <trkpt lat="42.9758090" lon="-1.3984340">
        <ele>808.3</ele>
        <time>2020-03-26T19:10:08Z</time>
      </trkpt>
      <trkpt lat="42.9755520" lon="-1.3986280">
        <ele>805.1</ele>
        <time>2020-03-26T19:10:10Z</time>
      </trkpt>
      <trkpt lat="42.9752250" lon="-1.3989020">
        <ele>802.0</ele>
        <time>2020-03-26T19:10:12Z</time>
      </trkpt>
      <trkpt lat="42.9750160" lon="-1.3990940">
        <ele>800.3</ele>
        <time>2020-03-26T19:10:14Z</time>
      </trkpt>
      <trkpt lat="42.9746700" lon="-1.3994390">
        <ele>797.0</ele>
        <time>2020-03-26T19:10:16Z</time>
      </trkpt>
      <trkpt lat="42.9743610" lon="-1.3997170">
        <ele>793.9</ele>
        <time>2020-03-26T19:10:18Z</time>
      </trkpt>
      <trkpt lat="42.9740560" lon="-1.3998330">
        <ele>791.5</ele>
        <time>2020-03-26T19:10:20Z</time>
      </trkpt>
      <trkpt lat="42.9737940" lon="-1.3999890">
        <ele>789.8</ele>
        <time>2020-03-26T19:10:22Z</time>
      </trkpt>
      <trkpt lat="42.9734720" lon="-1.4001800">
        <ele>787.2</ele>
        <time>2020-03-26T19:10:24Z</time>
      </trkpt>
      <trkpt lat="42.9731730" lon="-1.4003300">
        <ele>785.1</ele>
        <time>2020-03-26T19:10:26Z</time>
      </trkpt>
      <trkpt lat="42.9728670" lon="-1.4005440">
        <ele>782.7</ele>
        <time>2020-03-26T19:10:28Z</time>
      </trkpt>
      <trkpt lat="42.9726080" lon="-1.4007460">
        <ele>780.6</ele>
        <time>2020-03-26T19:10:30Z</time>
      </trkpt>
      <trkpt lat="42.9722770" lon="-1.4009240">
        <ele>777.8</ele>
        <time>2020-03-26T19:10:32Z</time>
      </trkpt>
      <trkpt lat="42.9719930" lon="-1.4009110">
        <ele>775.5</ele>
        <time>2020-03-26T19:10:34Z</time>
      </trkpt>
      <trkpt lat="42.9716110" lon="-1.4009050">
        <ele>772.8</ele>
        <time>2020-03-26T19:10:36Z</time>
      </trkpt>
      <trkpt lat="42.9713590" lon="-1.4009160">
        <ele>771.1</ele>
        <time>2020-03-26T19:10:38Z</time>
      </trkpt>
      <trkpt lat="42.9709200" lon="-1.4009330">
        <ele>767.7</ele>
        <time>2020-03-26T19:10:40Z</time>
      </trkpt>
      <trkpt lat="42.9706240" lon="-1.4009120">
        <ele>765.6</ele>
        <time>2020-03-26T19:10:42Z</time>
      </trkpt>
      <trkpt lat="42.9703130" lon="-1.4008460">
        <ele>763.4</ele>
        <time>2020-03-26T19:10:44Z</time>
      </trkpt>
      <trkpt lat="42.9700500" lon="-1.4007470">
        <ele>761.5</ele>
        <time>2020-03-26T19:10:46Z</time>
      </trkpt>
      <trkpt lat="42.9697150" lon="-1.4006770">
        <ele>759.6</ele>
        <time>2020-03-26T19:10:48Z</time>
      </trkpt>
      <trkpt lat="42.9694690" lon="-1.4007350">
        <ele>759.7</ele>
        <time>2020-03-26T19:10:50Z</time>
      </trkpt>
      <trkpt lat="42.9692370" lon="-1.4008330">
        <ele>759.8</ele>
        <time>2020-03-26T19:10:52Z</time>
      </trkpt>
      <trkpt lat="42.9689950" lon="-1.4009930">
        <ele>759.9</ele>
        <time>2020-03-26T19:10:54Z</time>
      </trkpt>
      <trkpt lat="42.9688170" lon="-1.4012280">
        <ele>760.1</ele>
        <time>2020-03-26T19:10:56Z</time>
      </trkpt>
      <trkpt lat="42.9686880" lon="-1.4014990">
        <ele>760.4</ele>
        <time>2020-03-26T19:10:58Z</time>
      </trkpt>
      <trkpt lat="42.9686160" lon="-1.4017360">
        <ele>760.5</ele>
        <time>2020-03-26T19:11:00Z</time>
      </trkpt>
      <trkpt lat="42.9685420" lon="-1.4020040">
        <ele>760.4</ele>
        <time>2020-03-26T19:11:02Z</time>
      </trkpt>
      <trkpt lat="42.9684920" lon="-1.4022530">
        <ele>760.2</ele>
        <time>2020-03-26T19:11:04Z</time>
      </trkpt>
      <trkpt lat="42.9684740" lon="-1.4024930">
        <ele>759.9</ele>
        <time>2020-03-26T19:11:06Z</time>
      </trkpt>
      <trkpt lat="42.9684750" lon="-1.4027610">
        <ele>759.6</ele>
        <time>2020-03-26T19:11:08Z</time>
      </trkpt>
      <trkpt lat="42.9684990" lon="-1.4030190">
        <ele>759.3</ele>
        <time>2020-03-26T19:11:10Z</time>
      </trkpt>
      <trkpt lat="42.9685510" lon="-1.4032630">
        <ele>759.0</ele>
        <time>2020-03-26T19:11:12Z</time>
      </trkpt>
      <trkpt lat="42.9686680" lon="-1.4035450">
        <ele>758.7</ele>
        <time>2020-03-26T19:11:14Z</time>
      </trkpt>
      <trkpt lat="42.9688050" lon="-1.4037430">
        <ele>758.5</ele>
        <time>2020-03-26T19:11:16Z</time>
      </trkpt>
      <trkpt lat="42.9689100" lon="-1.4038810">
        <ele>758.3</ele>
        <time>2020-03-26T19:11:18Z</time>
      </trkpt>
      <trkpt lat="42.9690680" lon="-1.4040880">
        <ele>758.0</ele>
        <time>2020-03-26T19:11:20Z</time>
      </trkpt>
      <trkpt lat="42.9691720" lon="-1.4042250">
        <ele>757.9</ele>
        <time>2020-03-26T19:11:22Z</time>
      </trkpt>
      <trkpt lat="42.9693620" lon="-1.4044750">
        <ele>757.5</ele>
        <time>2020-03-26T19:11:24Z</time>
      </trkpt>
      <trkpt lat="42.9694930" lon="-1.4046430">
        <ele>757.2</ele>
        <time>2020-03-26T19:11:26Z</time>
      </trkpt>
      <trkpt lat="42.9695920" lon="-1.4047680">
        <ele>757.0</ele>
        <time>2020-03-26T19:11:28Z</time>
      </trkpt>
      <trkpt lat="42.9696900" lon="-1.4048920">
        <ele>756.6</ele>
        <time>2020-03-26T19:11:30Z</time>
      </trkpt>
      <trkpt lat="42.9699090" lon="-1.4051580">
        <ele>756.2</ele>
        <time>2020-03-26T19:11:32Z</time>
      </trkpt>
      <trkpt lat="42.9700550" lon="-1.4053070">
        <ele>756.0</ele>
        <time>2020-03-26T19:11:34Z</time>
      </trkpt>
      <trkpt lat="42.9702100" lon="-1.4054480">
        <ele>755.9</ele>
        <time>2020-03-26T19:11:36Z</time>
      </trkpt>
      <trkpt lat="42.9703190" lon="-1.4055430">
        <ele>755.9</ele>
        <time>2020-03-26T19:11:38Z</time>
      </trkpt>
      <trkpt lat="42.9704960" lon="-1.4057070">
        <ele>755.9</ele>
        <time>2020-03-26T19:11:40Z</time>
      </trkpt>
      <trkpt lat="42.9706100" lon="-1.4058880">
        <ele>755.9</ele>
        <time>2020-03-26T19:11:42Z</time>
      </trkpt>
      <trkpt lat="42.9706770" lon="-1.4061010">
        <ele>755.4</ele>
        <time>2020-03-26T19:11:44Z</time>
      </trkpt>
      <trkpt lat="42.9706920" lon="-1.4063080">
        <ele>754.7</ele>
        <time>2020-03-26T19:11:46Z</time>
      </trkpt>
      <trkpt lat="42.9706860" lon="-1.4064520">
        <ele>754.4</ele>
        <time>2020-03-26T19:11:48Z</time>
      </trkpt>
      <trkpt lat="42.9706800" lon="-1.4066680">
        <ele>755.8</ele>
        <time>2020-03-26T19:11:50Z</time>
      </trkpt>
      <trkpt lat="42.9706830" lon="-1.4068440">
        <ele>757.7</ele>
        <time>2020-03-26T19:11:52Z</time>
      </trkpt>
      <trkpt lat="42.9707060" lon="-1.4070450">
        <ele>759.1</ele>
        <time>2020-03-26T19:11:54Z</time>
      </trkpt>
      <trkpt lat="42.9707500" lon="-1.4071780">
        <ele>759.9</ele>
        <time>2020-03-26T19:11:56Z</time>
      </trkpt>
      <trkpt lat="42.9708100" lon="-1.4072960">
        <ele>760.8</ele>
        <time>2020-03-26T19:11:58Z</time>
      </trkpt>
      <trkpt lat="42.9708580" lon="-1.4073680">
        <ele>761.4</ele>
        <time>2020-03-26T19:12:00Z</time>
      </trkpt>
      <trkpt lat="42.9709400" lon="-1.4074930">
        <ele>762.4</ele>
        <time>2020-03-26T19:12:02Z</time>
      </trkpt>
      <trkpt lat="42.9710010" lon="-1.4075900">
        <ele>763.4</ele>
        <time>2020-03-26T19:12:04Z</time>
      </trkpt>
      <trkpt lat="42.9710360" lon="-1.4076630">
        <ele>764.0</ele>
        <time>2020-03-26T19:12:06Z</time>
      </trkpt>
      <trkpt lat="42.9710710" lon="-1.4077750">
        <ele>764.9</ele>
        <time>2020-03-26T19:12:08Z</time>
      </trkpt>
      <trkpt lat="42.9710940" lon="-1.4078940">
        <ele>765.7</ele>
        <time>2020-03-26T19:12:10Z</time>
      </trkpt>
      <trkpt lat="42.9711040" lon="-1.4079720">
        <ele>766.2</ele>
        <time>2020-03-26T19:12:12Z</time>
      </trkpt>
      <trkpt lat="42.9711080" lon="-1.4081030">
        <ele>767.0</ele>
        <time>2020-03-26T19:12:14Z</time>
      </trkpt>
      <trkpt lat="42.9710910" lon="-1.4082310">
        <ele>767.7</ele>
        <time>2020-03-26T19:12:16Z</time>
      </trkpt>
      <trkpt lat="42.9710610" lon="-1.4083530">
        <ele>768.4</ele>
        <time>2020-03-26T19:12:18Z</time>
      </trkpt>
      <trkpt lat="42.9710330" lon="-1.4084320">
        <ele>768.8</ele>
        <time>2020-03-26T19:12:20Z</time>
      </trkpt>
      <trkpt lat="42.9710050" lon="-1.4085110">
        <ele>769.2</ele>
        <time>2020-03-26T19:12:22Z</time>
      </trkpt>
      <trkpt lat="42.9709770" lon="-1.4085900">
        <ele>769.5</ele>
        <time>2020-03-26T19:12:24Z</time>
      </trkpt>
      <trkpt lat="42.9709080" lon="-1.4087800">
        <ele>770.2</ele>
        <time>2020-03-26T19:12:26Z</time>
      </trkpt>
      <trkpt lat="42.9708770" lon="-1.4088560">
        <ele>770.5</ele>
        <time>2020-03-26T19:12:28Z</time>
      </trkpt>
      <trkpt lat="42.9708460" lon="-1.4089310">
        <ele>770.8</ele>
        <time>2020-03-26T19:12:30Z</time>
      </trkpt>
      <trkpt lat="42.9707810" lon="-1.4090660">
        <ele>771.3</ele>
        <time>2020-03-26T19:12:32Z</time>
      </trkpt>
      <trkpt lat="42.9707410" lon="-1.4091330">
        <ele>771.7</ele>
        <time>2020-03-26T19:12:34Z</time>
      </trkpt>
      <trkpt lat="42.9706650" lon="-1.4092610">
        <ele>772.4</ele>
        <time>2020-03-26T19:12:36Z</time>
      </trkpt>
      <trkpt lat="42.9706180" lon="-1.4093310">
        <ele>772.9</ele>
        <time>2020-03-26T19:12:38Z</time>
      </trkpt>
      <trkpt lat="42.9705700" lon="-1.4094030">
        <ele>773.3</ele>
        <time>2020-03-26T19:12:40Z</time>
      </trkpt>
      <trkpt lat="42.9704790" lon="-1.4095370">
        <ele>774.2</ele>
        <time>2020-03-26T19:12:42Z</time>
      </trkpt>
      <trkpt lat="42.9704330" lon="-1.4096040">
        <ele>774.7</ele>
        <time>2020-03-26T19:12:44Z</time>
      </trkpt>
      <trkpt lat="42.9703900" lon="-1.4096680">
        <ele>775.2</ele>
        <time>2020-03-26T19:12:46Z</time>
      </trkpt>
      <trkpt lat="42.9703480" lon="-1.4097290">
        <ele>775.7</ele>
        <time>2020-03-26T19:12:48Z</time>
      </trkpt>
      <trkpt lat="42.9703060" lon="-1.4097890">
        <ele>776.3</ele>
        <time>2020-03-26T19:12:50Z</time>
      </trkpt>
      <trkpt lat="42.9702650" lon="-1.4098490">
        <ele>776.8</ele>
        <time>2020-03-26T19:12:52Z</time>
      </trkpt>
      <trkpt lat="42.9701270" lon="-1.4100510">
        <ele>778.4</ele>
        <time>2020-03-26T19:12:54Z</time>
      </trkpt>
      <trkpt lat="42.9700870" lon="-1.4101100">
        <ele>778.8</ele>
        <time>2020-03-26T19:12:56Z</time>
      </trkpt>
      <trkpt lat="42.9700460" lon="-1.4101700">
        <ele>779.1</ele>
        <time>2020-03-26T19:12:58Z</time>
      </trkpt>
      <trkpt lat="42.9699610" lon="-1.4102970">
        <ele>779.6</ele>
        <time>2020-03-26T19:13:00Z</time>
      </trkpt>
      <trkpt lat="42.9699200" lon="-1.4103580">
        <ele>779.8</ele>
        <time>2020-03-26T19:13:02Z</time>
      </trkpt>
      <trkpt lat="42.9698800" lon="-1.4104190">
        <ele>780.0</ele>
        <time>2020-03-26T19:13:04Z</time>
      </trkpt>
      <trkpt lat="42.9698400" lon="-1.4104800">
        <ele>780.2</ele>
        <time>2020-03-26T19:13:06Z</time>
      </trkpt>
      <trkpt lat="42.9698000" lon="-1.4105400">
        <ele>780.3</ele>
        <time>2020-03-26T19:13:08Z</time>
      </trkpt>
      <trkpt lat="42.9697610" lon="-1.4106000">
        <ele>780.5</ele>
        <time>2020-03-26T19:13:10Z</time>
      </trkpt>
      <trkpt lat="42.9696310" lon="-1.4108020">
        <ele>781.4</ele>
        <time>2020-03-26T19:13:12Z</time>
      </trkpt>
      <trkpt lat="42.9695960" lon="-1.4108680">
        <ele>781.6</ele>
        <time>2020-03-26T19:13:14Z</time>
      </trkpt>
      <trkpt lat="42.9695460" lon="-1.4109930">
        <ele>782.1</ele>
        <time>2020-03-26T19:13:16Z</time>
      </trkpt>
      <trkpt lat="42.9695350" lon="-1.4110980">
        <ele>782.4</ele>
        <time>2020-03-26T19:13:18Z</time>
      </trkpt>
      <trkpt lat="42.9695540" lon="-1.4112040">
        <ele>782.6</ele>
        <time>2020-03-26T19:13:20Z</time>
      </trkpt>
      <trkpt lat="42.9696050" lon="-1.4112810">
        <ele>782.8</ele>
        <time>2020-03-26T19:13:22Z</time>
      </trkpt>
      <trkpt lat="42.9696720" lon="-1.4113390">
        <ele>783.0</ele>
        <time>2020-03-26T19:13:24Z</time>
      </trkpt>
      <trkpt lat="42.9697480" lon="-1.4113930">
        <ele>783.3</ele>
        <time>2020-03-26T19:13:26Z</time>
      </trkpt>
      <trkpt lat="42.9698110" lon="-1.4114340">
        <ele>783.5</ele>
        <time>2020-03-26T19:13:28Z</time>
      </trkpt>
      <trkpt lat="42.9699180" lon="-1.4115190">
        <ele>784.0</ele>
        <time>2020-03-26T19:13:30Z</time>
      </trkpt>
      <trkpt lat="42.9699890" lon="-1.4116280">
        <ele>784.4</ele>
        <time>2020-03-26T19:13:32Z</time>
      </trkpt>
      <trkpt lat="42.9700410" lon="-1.4117680">
        <ele>784.7</ele>
        <time>2020-03-26T19:13:34Z</time>
      </trkpt>
      <trkpt lat="42.9700750" lon="-1.4119250">
        <ele>784.8</ele>
        <time>2020-03-26T19:13:36Z</time>
      </trkpt>
      <trkpt lat="42.9700950" lon="-1.4120860">
        <ele>784.8</ele>
        <time>2020-03-26T19:13:38Z</time>
      </trkpt>
      <trkpt lat="42.9701090" lon="-1.4122460">
        <ele>784.6</ele>
        <time>2020-03-26T19:13:40Z</time>
      </trkpt>
      <trkpt lat="42.9701140" lon="-1.4124190">
        <ele>784.2</ele>
        <time>2020-03-26T19:13:42Z</time>
      </trkpt>
      <trkpt lat="42.9701090" lon="-1.4126040">
        <ele>783.8</ele>
        <time>2020-03-26T19:13:44Z</time>
      </trkpt>
      <trkpt lat="42.9700910" lon="-1.4127980">
        <ele>783.9</ele>
        <time>2020-03-26T19:13:46Z</time>
      </trkpt>
      <trkpt lat="42.9700510" lon="-1.4129630">
        <ele>783.9</ele>
        <time>2020-03-26T19:13:48Z</time>
      </trkpt>
      <trkpt lat="42.9699940" lon="-1.4131370">
        <ele>783.9</ele>
        <time>2020-03-26T19:13:50Z</time>
      </trkpt>
      <trkpt lat="42.9699450" lon="-1.4132760">
        <ele>783.9</ele>
        <time>2020-03-26T19:13:52Z</time>
      </trkpt>
      <trkpt lat="42.9698940" lon="-1.4134210">
        <ele>783.9</ele>
        <time>2020-03-26T19:13:54Z</time>
      </trkpt>
      <trkpt lat="42.9697830" lon="-1.4137400">
        <ele>783.8</ele>
        <time>2020-03-26T19:13:56Z</time>
      </trkpt>
      <trkpt lat="42.9697150" lon="-1.4139330">
        <ele>783.5</ele>
        <time>2020-03-26T19:13:58Z</time>
      </trkpt>
      <trkpt lat="42.9696190" lon="-1.4142090">
        <ele>782.8</ele>
        <time>2020-03-26T19:14:00Z</time>
      </trkpt>
      <trkpt lat="42.9695300" lon="-1.4144560">
        <ele>781.7</ele>
        <time>2020-03-26T19:14:02Z</time>
      </trkpt>
      <trkpt lat="42.9694520" lon="-1.4146410">
        <ele>780.7</ele>
        <time>2020-03-26T19:14:04Z</time>
      </trkpt>
      <trkpt lat="42.9693280" lon="-1.4149390">
        <ele>779.1</ele>
        <time>2020-03-26T19:14:06Z</time>
      </trkpt>
      <trkpt lat="42.9691940" lon="-1.4152570">
        <ele>777.3</ele>
        <time>2020-03-26T19:14:08Z</time>
      </trkpt>
      <trkpt lat="42.9691120" lon="-1.4154530">
        <ele>776.6</ele>
        <time>2020-03-26T19:14:10Z</time>
      </trkpt>
      <trkpt lat="42.9690360" lon="-1.4156350">
        <ele>776.2</ele>
        <time>2020-03-26T19:14:12Z</time>
      </trkpt>
      <trkpt lat="42.9689630" lon="-1.4158080">
        <ele>775.9</ele>
        <time>2020-03-26T19:14:14Z</time>
      </trkpt>
      <trkpt lat="42.9688020" lon="-1.4161930">
        <ele>776.5</ele>
        <time>2020-03-26T19:14:16Z</time>
      </trkpt>
      <trkpt lat="42.9687370" lon="-1.4163500">
        <ele>776.9</ele>
        <time>2020-03-26T19:14:18Z</time>
      </trkpt>
      <trkpt lat="42.9686730" lon="-1.4165010">
        <ele>777.7</ele>
        <time>2020-03-26T19:14:20Z</time>
      </trkpt>
      <trkpt lat="42.9685440" lon="-1.4168080">
        <ele>779.5</ele>
        <time>2020-03-26T19:14:22Z</time>
      </trkpt>
      <trkpt lat="42.9684480" lon="-1.4170340">
        <ele>780.5</ele>
        <time>2020-03-26T19:14:24Z</time>
      </trkpt>
      <trkpt lat="42.9683910" lon="-1.4171690">
        <ele>780.6</ele>
        <time>2020-03-26T19:14:26Z</time>
      </trkpt>
      <trkpt lat="42.9683340" lon="-1.4173020">
        <ele>780.8</ele>
        <time>2020-03-26T19:14:28Z</time>
      </trkpt>
      <trkpt lat="42.9682200" lon="-1.4175750">
        <ele>780.4</ele>
        <time>2020-03-26T19:14:30Z</time>
      </trkpt>
      <trkpt lat="42.9681510" lon="-1.4177540">
        <ele>780.2</ele>
        <time>2020-03-26T19:14:32Z</time>
      </trkpt>
      <trkpt lat="42.9680920" lon="-1.4179390">
        <ele>780.1</ele>
        <time>2020-03-26T19:14:34Z</time>
      </trkpt>
      <trkpt lat="42.9680590" lon="-1.4180810">
        <ele>780.6</ele>
        <time>2020-03-26T19:14:36Z</time>
      </trkpt>
      <trkpt lat="42.9680130" lon="-1.4183110">
        <ele>781.1</ele>
        <time>2020-03-26T19:14:38Z</time>
      </trkpt>
      <trkpt lat="42.9679670" lon="-1.4185750">
        <ele>781.2</ele>
        <time>2020-03-26T19:14:40Z</time>
      </trkpt>
      <trkpt lat="42.9679350" lon="-1.4188100">
        <ele>781.1</ele>
        <time>2020-03-26T19:14:42Z</time>
      </trkpt>
      <trkpt lat="42.9679200" lon="-1.4190730">
        <ele>780.6</ele>
        <time>2020-03-26T19:14:44Z</time>
      </trkpt>
      <trkpt lat="42.9679480" lon="-1.4193290">
        <ele>779.9</ele>
        <time>2020-03-26T19:14:46Z</time>
      </trkpt>
      <trkpt lat="42.9680060" lon="-1.4195540">
        <ele>779.2</ele>
        <time>2020-03-26T19:14:48Z</time>
      </trkpt>
      <trkpt lat="42.9680550" lon="-1.4197350">
        <ele>778.7</ele>
        <time>2020-03-26T19:14:50Z</time>
      </trkpt>
      <trkpt lat="42.9681040" lon="-1.4199200">
        <ele>778.4</ele>
        <time>2020-03-26T19:14:52Z</time>
      </trkpt>
      <trkpt lat="42.9681990" lon="-1.4203410">
        <ele>777.7</ele>
        <time>2020-03-26T19:14:54Z</time>
      </trkpt>
      <trkpt lat="42.9681990" lon="-1.4206090">
        <ele>777.3</ele>
        <time>2020-03-26T19:14:56Z</time>
      </trkpt>
      <trkpt lat="42.9681520" lon="-1.4208450">
        <ele>777.1</ele>
        <time>2020-03-26T19:14:58Z</time>
      </trkpt>
      <trkpt lat="42.9680940" lon="-1.4210280">
        <ele>777.4</ele>
        <time>2020-03-26T19:15:00Z</time>
      </trkpt>
      <trkpt lat="42.9680200" lon="-1.4212080">
        <ele>778.2</ele>
        <time>2020-03-26T19:15:02Z</time>
      </trkpt>
      <trkpt lat="42.9679620" lon="-1.4213360">
        <ele>779.1</ele>
        <time>2020-03-26T19:15:04Z</time>
      </trkpt>
      <trkpt lat="42.9679080" lon="-1.4214570">
        <ele>779.9</ele>
        <time>2020-03-26T19:15:06Z</time>
      </trkpt>
      <trkpt lat="42.9677900" lon="-1.4217220">
        <ele>781.7</ele>
        <time>2020-03-26T19:15:08Z</time>
      </trkpt>
      <trkpt lat="42.9677350" lon="-1.4218460">
        <ele>782.3</ele>
        <time>2020-03-26T19:15:10Z</time>
      </trkpt>
      <trkpt lat="42.9676810" lon="-1.4219720">
        <ele>783.1</ele>
        <time>2020-03-26T19:15:12Z</time>
      </trkpt>
      <trkpt lat="42.9675660" lon="-1.4222490">
        <ele>784.8</ele>
        <time>2020-03-26T19:15:14Z</time>
      </trkpt>
      <trkpt lat="42.9675100" lon="-1.4224360">
        <ele>785.5</ele>
        <time>2020-03-26T19:15:16Z</time>
      </trkpt>
      <trkpt lat="42.9674770" lon="-1.4226480">
        <ele>786.0</ele>
        <time>2020-03-26T19:15:18Z</time>
      </trkpt>
      <trkpt lat="42.9674720" lon="-1.4228350">
        <ele>786.5</ele>
        <time>2020-03-26T19:15:20Z</time>
      </trkpt>
      <trkpt lat="42.9674890" lon="-1.4230200">
        <ele>786.6</ele>
        <time>2020-03-26T19:15:22Z</time>
      </trkpt>
      <trkpt lat="42.9675180" lon="-1.4232020">
        <ele>785.9</ele>
        <time>2020-03-26T19:15:24Z</time>
      </trkpt>
      <trkpt lat="42.9675510" lon="-1.4234040">
        <ele>785.1</ele>
        <time>2020-03-26T19:15:26Z</time>
      </trkpt>
      <trkpt lat="42.9675580" lon="-1.4236200">
        <ele>784.2</ele>
        <time>2020-03-26T19:15:28Z</time>
      </trkpt>
      <trkpt lat="42.9675480" lon="-1.4237930">
        <ele>783.6</ele>
        <time>2020-03-26T19:15:30Z</time>
      </trkpt>
      <trkpt lat="42.9675270" lon="-1.4241240">
        <ele>782.0</ele>
        <time>2020-03-26T19:15:32Z</time>
      </trkpt>
      <trkpt lat="42.9675010" lon="-1.4243180">
        <ele>781.3</ele>
        <time>2020-03-26T19:15:34Z</time>
      </trkpt>
      <trkpt lat="42.9674550" lon="-1.4246610">
        <ele>780.0</ele>
        <time>2020-03-26T19:15:36Z</time>
      </trkpt>
      <trkpt lat="42.9674180" lon="-1.4249380">
        <ele>778.8</ele>
        <time>2020-03-26T19:15:38Z</time>
      </trkpt>
      <trkpt lat="42.9673900" lon="-1.4251530">
        <ele>778.0</ele>
        <time>2020-03-26T19:15:40Z</time>
      </trkpt>
      <trkpt lat="42.9673610" lon="-1.4253720">
        <ele>777.2</ele>
        <time>2020-03-26T19:15:42Z</time>
      </trkpt>
      <trkpt lat="42.9672950" lon="-1.4257950">
        <ele>775.1</ele>
        <time>2020-03-26T19:15:44Z</time>
      </trkpt>
      <trkpt lat="42.9672060" lon="-1.4260740">
        <ele>773.7</ele>
        <time>2020-03-26T19:15:46Z</time>
      </trkpt>
      <trkpt lat="42.9670860" lon="-1.4263560">
        <ele>772.2</ele>
        <time>2020-03-26T19:15:48Z</time>
      </trkpt>
      <trkpt lat="42.9669760" lon="-1.4266470">
        <ele>770.8</ele>
        <time>2020-03-26T19:15:50Z</time>
      </trkpt>
      <trkpt lat="42.9668850" lon="-1.4269760">
        <ele>769.2</ele>
        <time>2020-03-26T19:15:52Z</time>
      </trkpt>
      <trkpt lat="42.9667840" lon="-1.4273480">
        <ele>767.1</ele>
        <time>2020-03-26T19:15:54Z</time>
      </trkpt>
      <trkpt lat="42.9666320" lon="-1.4276060">
        <ele>765.7</ele>
        <time>2020-03-26T19:15:56Z</time>
      </trkpt>
      <trkpt lat="42.9664360" lon="-1.4279050">
        <ele>763.7</ele>
        <time>2020-03-26T19:15:58Z</time>
      </trkpt>
      <trkpt lat="42.9662840" lon="-1.4282480">
        <ele>761.6</ele>
        <time>2020-03-26T19:16:00Z</time>
      </trkpt>
      <trkpt lat="42.9661850" lon="-1.4285010">
        <ele>760.3</ele>
        <time>2020-03-26T19:16:02Z</time>
      </trkpt>
      <trkpt lat="42.9659720" lon="-1.4288970">
        <ele>758.3</ele>
        <time>2020-03-26T19:16:04Z</time>
      </trkpt>
      <trkpt lat="42.9657440" lon="-1.4291430">
        <ele>756.2</ele>
        <time>2020-03-26T19:16:06Z</time>
      </trkpt>
      <trkpt lat="42.9655240" lon="-1.4292980">
        <ele>754.8</ele>
        <time>2020-03-26T19:16:09Z</time>
      </trkpt>
      <trkpt lat="42.9652320" lon="-1.4295260">
        <ele>753.0</ele>
        <time>2020-03-26T19:16:11Z</time>
      </trkpt>
      <trkpt lat="42.9650450" lon="-1.4297800">
        <ele>751.3</ele>
        <time>2020-03-26T19:16:13Z</time>
      </trkpt>
      <trkpt lat="42.9648800" lon="-1.4300640">
        <ele>749.3</ele>
        <time>2020-03-26T19:16:15Z</time>
      </trkpt>
      <trkpt lat="42.9646910" lon="-1.4303990">
        <ele>746.9</ele>
        <time>2020-03-26T19:16:17Z</time>
      </trkpt>
      <trkpt lat="42.9645610" lon="-1.4306290">
        <ele>745.3</ele>
        <time>2020-03-26T19:16:19Z</time>
      </trkpt>
      <trkpt lat="42.9643330" lon="-1.4310060">
        <ele>742.9</ele>
        <time>2020-03-26T19:16:21Z</time>
      </trkpt>
      <trkpt lat="42.9641920" lon="-1.4312180">
        <ele>741.6</ele>
        <time>2020-03-26T19:16:23Z</time>
      </trkpt>
      <trkpt lat="42.9639630" lon="-1.4315680">
        <ele>739.9</ele>
        <time>2020-03-26T19:16:25Z</time>
      </trkpt>
      <trkpt lat="42.9637530" lon="-1.4318420">
        <ele>739.0</ele>
        <time>2020-03-26T19:16:27Z</time>
      </trkpt>
      <trkpt lat="42.9635460" lon="-1.4320230">
        <ele>738.4</ele>
        <time>2020-03-26T19:16:29Z</time>
      </trkpt>
      <trkpt lat="42.9632810" lon="-1.4322250">
        <ele>737.3</ele>
        <time>2020-03-26T19:16:31Z</time>
      </trkpt>
      <trkpt lat="42.9630440" lon="-1.4323630">
        <ele>736.5</ele>
        <time>2020-03-26T19:16:33Z</time>
      </trkpt>
      <trkpt lat="42.9627820" lon="-1.4324580">
        <ele>735.5</ele>
        <time>2020-03-26T19:16:35Z</time>
      </trkpt>
      <trkpt lat="42.9625350" lon="-1.4324940">
        <ele>734.4</ele>
        <time>2020-03-26T19:16:37Z</time>
      </trkpt>
      <trkpt lat="42.9623290" lon="-1.4325200">
        <ele>733.6</ele>
        <time>2020-03-26T19:16:39Z</time>
      </trkpt>
      <trkpt lat="42.9619920" lon="-1.4325440">
        <ele>732.1</ele>
        <time>2020-03-26T19:16:41Z</time>
      </trkpt>
      <trkpt lat="42.9617120" lon="-1.4325470">
        <ele>731.0</ele>
        <time>2020-03-26T19:16:43Z</time>
      </trkpt>
      <trkpt lat="42.9614210" lon="-1.4325450">
        <ele>729.7</ele>
        <time>2020-03-26T19:16:45Z</time>
      </trkpt>
      <trkpt lat="42.9612100" lon="-1.4325750">
        <ele>728.7</ele>
        <time>2020-03-26T19:16:47Z</time>
      </trkpt>
      <trkpt lat="42.9609930" lon="-1.4326660">
        <ele>727.7</ele>
        <time>2020-03-26T19:16:49Z</time>
      </trkpt>
      <trkpt lat="42.9607770" lon="-1.4328260">
        <ele>726.8</ele>
        <time>2020-03-26T19:16:51Z</time>
      </trkpt>
      <trkpt lat="42.9606030" lon="-1.4329850">
        <ele>726.2</ele>
        <time>2020-03-26T19:16:53Z</time>
      </trkpt>
      <trkpt lat="42.9603990" lon="-1.4331670">
        <ele>725.9</ele>
        <time>2020-03-26T19:16:55Z</time>
      </trkpt>
      <trkpt lat="42.9601720" lon="-1.4333160">
        <ele>725.6</ele>
        <time>2020-03-26T19:16:57Z</time>
      </trkpt>
      <trkpt lat="42.9599680" lon="-1.4334020">
        <ele>725.1</ele>
        <time>2020-03-26T19:16:59Z</time>
      </trkpt>
      <trkpt lat="42.9597260" lon="-1.4334550">
        <ele>724.6</ele>
        <time>2020-03-26T19:17:01Z</time>
      </trkpt>
      <trkpt lat="42.9595610" lon="-1.4334650">
        <ele>724.4</ele>
        <time>2020-03-26T19:17:03Z</time>
      </trkpt>
      <trkpt lat="42.9592740" lon="-1.4334980">
        <ele>724.2</ele>
        <time>2020-03-26T19:17:05Z</time>
      </trkpt>
      <trkpt lat="42.9590950" lon="-1.4335820">
        <ele>724.1</ele>
        <time>2020-03-26T19:17:07Z</time>
      </trkpt>
      <trkpt lat="42.9588820" lon="-1.4336960">
        <ele>723.8</ele>
        <time>2020-03-26T19:17:09Z</time>
      </trkpt>
      <trkpt lat="42.9586500" lon="-1.4337890">
        <ele>723.4</ele>
        <time>2020-03-26T19:17:11Z</time>
      </trkpt>
      <trkpt lat="42.9584350" lon="-1.4337920">
        <ele>723.0</ele>
        <time>2020-03-26T19:17:13Z</time>
      </trkpt>
      <trkpt lat="42.9582440" lon="-1.4337230">
        <ele>722.6</ele>
        <time>2020-03-26T19:17:15Z</time>
      </trkpt>
      <trkpt lat="42.9580500" lon="-1.4336150">
        <ele>722.1</ele>
        <time>2020-03-26T19:17:17Z</time>
      </trkpt>
      <trkpt lat="42.9579090" lon="-1.4335210">
        <ele>721.7</ele>
        <time>2020-03-26T19:17:19Z</time>
      </trkpt>
      <trkpt lat="42.9577680" lon="-1.4334270">
        <ele>721.4</ele>
        <time>2020-03-26T19:17:21Z</time>
      </trkpt>
      <trkpt lat="42.9576260" lon="-1.4333320">
        <ele>721.0</ele>
        <time>2020-03-26T19:17:23Z</time>
      </trkpt>
      <trkpt lat="42.9573050" lon="-1.4331180">
        <ele>720.2</ele>
        <time>2020-03-26T19:17:25Z</time>
      </trkpt>
      <trkpt lat="42.9570650" lon="-1.4329590">
        <ele>719.5</ele>
        <time>2020-03-26T19:17:27Z</time>
      </trkpt>
      <trkpt lat="42.9569220" lon="-1.4328640">
        <ele>719.2</ele>
        <time>2020-03-26T19:17:29Z</time>
      </trkpt>
      <trkpt lat="42.9566970" lon="-1.4327150">
        <ele>718.7</ele>
        <time>2020-03-26T19:17:31Z</time>
      </trkpt>
      <trkpt lat="42.9565520" lon="-1.4326190">
        <ele>718.3</ele>
        <time>2020-03-26T19:17:33Z</time>
      </trkpt>
      <trkpt lat="42.9564060" lon="-1.4325230">
        <ele>717.9</ele>
        <time>2020-03-26T19:17:35Z</time>
      </trkpt>
      <trkpt lat="42.9560810" lon="-1.4323070">
        <ele>716.6</ele>
        <time>2020-03-26T19:17:37Z</time>
      </trkpt>
      <trkpt lat="42.9559420" lon="-1.4322040">
        <ele>716.1</ele>
        <time>2020-03-26T19:17:39Z</time>
      </trkpt>
      <trkpt lat="42.9557410" lon="-1.4320310">
        <ele>715.2</ele>
        <time>2020-03-26T19:17:41Z</time>
      </trkpt>
      <trkpt lat="42.9556140" lon="-1.4319050">
        <ele>714.8</ele>
        <time>2020-03-26T19:17:43Z</time>
      </trkpt>
      <trkpt lat="42.9553800" lon="-1.4316840">
        <ele>714.7</ele>
        <time>2020-03-26T19:17:45Z</time>
      </trkpt>
      <trkpt lat="42.9552010" lon="-1.4315470">
        <ele>714.8</ele>
        <time>2020-03-26T19:17:47Z</time>
      </trkpt>
      <trkpt lat="42.9550210" lon="-1.4314360">
        <ele>714.3</ele>
        <time>2020-03-26T19:17:49Z</time>
      </trkpt>
      <trkpt lat="42.9548760" lon="-1.4313510">
        <ele>713.9</ele>
        <time>2020-03-26T19:17:51Z</time>
      </trkpt>
      <trkpt lat="42.9547300" lon="-1.4312650">
        <ele>713.5</ele>
        <time>2020-03-26T19:17:53Z</time>
      </trkpt>
      <trkpt lat="42.9543850" lon="-1.4310700">
        <ele>712.4</ele>
        <time>2020-03-26T19:17:55Z</time>
      </trkpt>
      <trkpt lat="42.9541850" lon="-1.4310170">
        <ele>711.9</ele>
        <time>2020-03-26T19:17:57Z</time>
      </trkpt>
      <trkpt lat="42.9539620" lon="-1.4310010">
        <ele>711.6</ele>
        <time>2020-03-26T19:17:59Z</time>
      </trkpt>
      <trkpt lat="42.9537470" lon="-1.4310070">
        <ele>711.5</ele>
        <time>2020-03-26T19:18:01Z</time>
      </trkpt>
      <trkpt lat="42.9535090" lon="-1.4310280">
        <ele>711.4</ele>
        <time>2020-03-26T19:18:03Z</time>
      </trkpt>
      <trkpt lat="42.9533420" lon="-1.4310530">
        <ele>711.2</ele>
        <time>2020-03-26T19:18:05Z</time>
      </trkpt>
      <trkpt lat="42.9530460" lon="-1.4310960">
        <ele>710.6</ele>
        <time>2020-03-26T19:18:07Z</time>
      </trkpt>
      <trkpt lat="42.9528740" lon="-1.4311220">
        <ele>710.4</ele>
        <time>2020-03-26T19:18:09Z</time>
      </trkpt>
      <trkpt lat="42.9525770" lon="-1.4311650">
        <ele>709.8</ele>
        <time>2020-03-26T19:18:11Z</time>
      </trkpt>
      <trkpt lat="42.9523670" lon="-1.4311540">
        <ele>709.4</ele>
        <time>2020-03-26T19:18:13Z</time>
      </trkpt>
      <trkpt lat="42.9521760" lon="-1.4311270">
        <ele>709.2</ele>
        <time>2020-03-26T19:18:15Z</time>
      </trkpt>
      <trkpt lat="42.9519690" lon="-1.4311020">
        <ele>709.2</ele>
        <time>2020-03-26T19:18:17Z</time>
      </trkpt>
      <trkpt lat="42.9517360" lon="-1.4311120">
        <ele>709.3</ele>
        <time>2020-03-26T19:18:19Z</time>
      </trkpt>
      <trkpt lat="42.9515850" lon="-1.4311400">
        <ele>709.2</ele>
        <time>2020-03-26T19:18:21Z</time>
      </trkpt>
      <trkpt lat="42.9514310" lon="-1.4311690">
        <ele>709.2</ele>
        <time>2020-03-26T19:18:23Z</time>
      </trkpt>
      <trkpt lat="42.9512760" lon="-1.4311980">
        <ele>709.2</ele>
        <time>2020-03-26T19:18:25Z</time>
      </trkpt>
      <trkpt lat="42.9508980" lon="-1.4312690">
        <ele>709.1</ele>
        <time>2020-03-26T19:18:27Z</time>
      </trkpt>
      <trkpt lat="42.9507130" lon="-1.4313470">
        <ele>708.8</ele>
        <time>2020-03-26T19:18:29Z</time>
      </trkpt>
      <trkpt lat="42.9505230" lon="-1.4314930">
        <ele>708.2</ele>
        <time>2020-03-26T19:18:31Z</time>
      </trkpt>
      <trkpt lat="42.9504020" lon="-1.4316280">
        <ele>707.6</ele>
        <time>2020-03-26T19:18:33Z</time>
      </trkpt>
      <trkpt lat="42.9501860" lon="-1.4318260">
        <ele>706.1</ele>
        <time>2020-03-26T19:18:35Z</time>
      </trkpt>
      <trkpt lat="42.9500470" lon="-1.4319240">
        <ele>705.3</ele>
        <time>2020-03-26T19:18:37Z</time>
      </trkpt>
      <trkpt lat="42.9498300" lon="-1.4321060">
        <ele>704.2</ele>
        <time>2020-03-26T19:18:39Z</time>
      </trkpt>
      <trkpt lat="42.9497040" lon="-1.4323510">
        <ele>703.4</ele>
        <time>2020-03-26T19:18:41Z</time>
      </trkpt>
      <trkpt lat="42.9496240" lon="-1.4326270">
        <ele>702.7</ele>
        <time>2020-03-26T19:18:43Z</time>
      </trkpt>
      <trkpt lat="42.9495720" lon="-1.4328430">
        <ele>702.2</ele>
        <time>2020-03-26T19:18:45Z</time>
      </trkpt>
      <trkpt lat="42.9494720" lon="-1.4332610">
        <ele>701.2</ele>
        <time>2020-03-26T19:18:47Z</time>
      </trkpt>
      <trkpt lat="42.9494230" lon="-1.4334840">
        <ele>700.5</ele>
        <time>2020-03-26T19:18:49Z</time>
      </trkpt>
      <trkpt lat="42.9493380" lon="-1.4338750">
        <ele>699.0</ele>
        <time>2020-03-26T19:18:51Z</time>
      </trkpt>
      <trkpt lat="42.9492580" lon="-1.4341180">
        <ele>697.8</ele>
        <time>2020-03-26T19:18:53Z</time>
      </trkpt>
      <trkpt lat="42.9491000" lon="-1.4343930">
        <ele>696.6</ele>
        <time>2020-03-26T19:18:55Z</time>
      </trkpt>
      <trkpt lat="42.9489440" lon="-1.4345620">
        <ele>695.6</ele>
        <time>2020-03-26T19:18:57Z</time>
      </trkpt>
      <trkpt lat="42.9487660" lon="-1.4347160">
        <ele>694.6</ele>
        <time>2020-03-26T19:18:59Z</time>
      </trkpt>
      <trkpt lat="42.9485320" lon="-1.4349140">
        <ele>693.5</ele>
        <time>2020-03-26T19:19:01Z</time>
      </trkpt>
      <trkpt lat="42.9483860" lon="-1.4350210">
        <ele>693.0</ele>
        <time>2020-03-26T19:19:03Z</time>
      </trkpt>
      <trkpt lat="42.9481740" lon="-1.4351660">
        <ele>692.4</ele>
        <time>2020-03-26T19:19:05Z</time>
      </trkpt>
      <trkpt lat="42.9479840" lon="-1.4352750">
        <ele>691.8</ele>
        <time>2020-03-26T19:19:07Z</time>
      </trkpt>
      <trkpt lat="42.9478080" lon="-1.4353690">
        <ele>691.8</ele>
        <time>2020-03-26T19:19:09Z</time>
      </trkpt>
      <trkpt lat="42.9476130" lon="-1.4354700">
        <ele>692.4</ele>
        <time>2020-03-26T19:19:11Z</time>
      </trkpt>
      <trkpt lat="42.9474180" lon="-1.4355690">
        <ele>692.6</ele>
        <time>2020-03-26T19:19:13Z</time>
      </trkpt>
      <trkpt lat="42.9472890" lon="-1.4356410">
        <ele>692.6</ele>
        <time>2020-03-26T19:19:15Z</time>
      </trkpt>
      <trkpt lat="42.9471600" lon="-1.4357120">
        <ele>692.6</ele>
        <time>2020-03-26T19:19:17Z</time>
      </trkpt>
      <trkpt lat="42.9468970" lon="-1.4358760">
        <ele>692.3</ele>
        <time>2020-03-26T19:19:19Z</time>
      </trkpt>
      <trkpt lat="42.9467380" lon="-1.4360070">
        <ele>691.9</ele>
        <time>2020-03-26T19:19:21Z</time>
      </trkpt>
      <trkpt lat="42.9466280" lon="-1.4361180">
        <ele>691.5</ele>
        <time>2020-03-26T19:19:23Z</time>
      </trkpt>
      <trkpt lat="42.9464690" lon="-1.4362960">
        <ele>690.7</ele>
        <time>2020-03-26T19:19:25Z</time>
      </trkpt>
      <trkpt lat="42.9463130" lon="-1.4364990">
        <ele>689.5</ele>
        <time>2020-03-26T19:19:27Z</time>
      </trkpt>
      <trkpt lat="42.9461950" lon="-1.4366630">
        <ele>688.6</ele>
        <time>2020-03-26T19:19:29Z</time>
      </trkpt>
      <trkpt lat="42.9459790" lon="-1.4369620">
        <ele>686.5</ele>
        <time>2020-03-26T19:19:31Z</time>
      </trkpt>
      <trkpt lat="42.9457960" lon="-1.4372250">
        <ele>684.9</ele>
        <time>2020-03-26T19:19:33Z</time>
      </trkpt>
      <trkpt lat="42.9456280" lon="-1.4375230">
        <ele>682.7</ele>
        <time>2020-03-26T19:19:35Z</time>
      </trkpt>
      <trkpt lat="42.9455060" lon="-1.4378170">
        <ele>680.9</ele>
        <time>2020-03-26T19:19:37Z</time>
      </trkpt>
      <trkpt lat="42.9454110" lon="-1.4380550">
        <ele>679.8</ele>
        <time>2020-03-26T19:19:39Z</time>
      </trkpt>
      <trkpt lat="42.9452470" lon="-1.4384600">
        <ele>678.3</ele>
        <time>2020-03-26T19:19:41Z</time>
      </trkpt>
      <trkpt lat="42.9451350" lon="-1.4387320">
        <ele>676.0</ele>
        <time>2020-03-26T19:19:43Z</time>
      </trkpt>
      <trkpt lat="42.9450470" lon="-1.4389480">
        <ele>674.8</ele>
        <time>2020-03-26T19:19:45Z</time>
      </trkpt>
      <trkpt lat="42.9449620" lon="-1.4391570">
        <ele>674.3</ele>
        <time>2020-03-26T19:19:47Z</time>
      </trkpt>
      <trkpt lat="42.9447690" lon="-1.4396300">
        <ele>674.7</ele>
        <time>2020-03-26T19:19:49Z</time>
      </trkpt>
      <trkpt lat="42.9446600" lon="-1.4398990">
        <ele>675.6</ele>
        <time>2020-03-26T19:19:51Z</time>
      </trkpt>
      <trkpt lat="42.9445530" lon="-1.4401730">
        <ele>676.6</ele>
        <time>2020-03-26T19:19:53Z</time>
      </trkpt>
      <trkpt lat="42.9444790" lon="-1.4403500">
        <ele>675.9</ele>
        <time>2020-03-26T19:19:55Z</time>
      </trkpt>
      <trkpt lat="42.9443600" lon="-1.4406360">
        <ele>674.9</ele>
        <time>2020-03-26T19:19:57Z</time>
      </trkpt>
      <trkpt lat="42.9442900" lon="-1.4408040">
        <ele>674.4</ele>
        <time>2020-03-26T19:19:59Z</time>
      </trkpt>
      <trkpt lat="42.9441900" lon="-1.4410530">
        <ele>674.0</ele>
        <time>2020-03-26T19:20:01Z</time>
      </trkpt>
      <trkpt lat="42.9441270" lon="-1.4412120">
        <ele>674.0</ele>
        <time>2020-03-26T19:20:03Z</time>
      </trkpt>
      <trkpt lat="42.9440650" lon="-1.4413670">
        <ele>674.1</ele>
        <time>2020-03-26T19:20:05Z</time>
      </trkpt>
      <trkpt lat="42.9439330" lon="-1.4417140">
        <ele>676.1</ele>
        <time>2020-03-26T19:20:07Z</time>
      </trkpt>
      <trkpt lat="42.9438790" lon="-1.4418660">
        <ele>677.6</ele>
        <time>2020-03-26T19:20:09Z</time>
      </trkpt>
      <trkpt lat="42.9437850" lon="-1.4421280">
        <ele>678.8</ele>
        <time>2020-03-26T19:20:11Z</time>
      </trkpt>
      <trkpt lat="42.9437280" lon="-1.4422890">
        <ele>678.5</ele>
        <time>2020-03-26T19:20:13Z</time>
      </trkpt>
      <trkpt lat="42.9436250" lon="-1.4425750">
        <ele>677.8</ele>
        <time>2020-03-26T19:20:15Z</time>
      </trkpt>
      <trkpt lat="42.9435650" lon="-1.4427450">
        <ele>677.3</ele>
        <time>2020-03-26T19:20:17Z</time>
      </trkpt>
      <trkpt lat="42.9435040" lon="-1.4429150">
        <ele>676.7</ele>
        <time>2020-03-26T19:20:19Z</time>
      </trkpt>
      <trkpt lat="42.9434420" lon="-1.4430880">
        <ele>676.1</ele>
        <time>2020-03-26T19:20:21Z</time>
      </trkpt>
      <trkpt lat="42.9433070" lon="-1.4435030">
        <ele>674.5</ele>
        <time>2020-03-26T19:20:23Z</time>
      </trkpt>
      <trkpt lat="42.9432550" lon="-1.4436940">
        <ele>673.8</ele>
        <time>2020-03-26T19:20:25Z</time>
      </trkpt>
      <trkpt lat="42.9431470" lon="-1.4440880">
        <ele>672.7</ele>
        <time>2020-03-26T19:20:27Z</time>
      </trkpt>
      <trkpt lat="42.9430980" lon="-1.4442940">
        <ele>672.2</ele>
        <time>2020-03-26T19:20:29Z</time>
      </trkpt>
      <trkpt lat="42.9430200" lon="-1.4446180">
        <ele>671.4</ele>
        <time>2020-03-26T19:20:31Z</time>
      </trkpt>
      <trkpt lat="42.9429690" lon="-1.4448300">
        <ele>670.9</ele>
        <time>2020-03-26T19:20:33Z</time>
      </trkpt>
      <trkpt lat="42.9428850" lon="-1.4451770">
        <ele>669.9</ele>
        <time>2020-03-26T19:20:35Z</time>
      </trkpt>
      <trkpt lat="42.9428350" lon="-1.4453890">
        <ele>669.2</ele>
        <time>2020-03-26T19:20:37Z</time>
      </trkpt>
      <trkpt lat="42.9427840" lon="-1.4456030">
        <ele>668.5</ele>
        <time>2020-03-26T19:20:39Z</time>
      </trkpt>
      <trkpt lat="42.9426730" lon="-1.4460670">
        <ele>666.8</ele>
        <time>2020-03-26T19:20:41Z</time>
      </trkpt>
      <trkpt lat="42.9426240" lon="-1.4462730">
        <ele>666.1</ele>
        <time>2020-03-26T19:20:43Z</time>
      </trkpt>
      <trkpt lat="42.9425770" lon="-1.4464720">
        <ele>665.3</ele>
        <time>2020-03-26T19:20:45Z</time>
      </trkpt>
      <trkpt lat="42.9424650" lon="-1.4469190">
        <ele>663.4</ele>
        <time>2020-03-26T19:20:47Z</time>
      </trkpt>
      <trkpt lat="42.9424140" lon="-1.4471490">
        <ele>662.3</ele>
        <time>2020-03-26T19:20:49Z</time>
      </trkpt>
      <trkpt lat="42.9424010" lon="-1.4474360">
        <ele>661.0</ele>
        <time>2020-03-26T19:20:51Z</time>
      </trkpt>
      <trkpt lat="42.9424000" lon="-1.4477380">
        <ele>659.5</ele>
        <time>2020-03-26T19:20:53Z</time>
      </trkpt>
      <trkpt lat="42.9424070" lon="-1.4479470">
        <ele>658.0</ele>
        <time>2020-03-26T19:20:55Z</time>
      </trkpt>
      <trkpt lat="42.9424170" lon="-1.4482720">
        <ele>658.4</ele>
        <time>2020-03-26T19:20:57Z</time>
      </trkpt>
      <trkpt lat="42.9424310" lon="-1.4485900">
        <ele>661.1</ele>
        <time>2020-03-26T19:20:59Z</time>
      </trkpt>
      <trkpt lat="42.9424340" lon="-1.4488970">
        <ele>663.3</ele>
        <time>2020-03-26T19:21:01Z</time>
      </trkpt>
      <trkpt lat="42.9423340" lon="-1.4490790">
        <ele>664.8</ele>
        <time>2020-03-26T19:21:03Z</time>
      </trkpt>
      <trkpt lat="42.9421810" lon="-1.4491350">
        <ele>666.0</ele>
        <time>2020-03-26T19:21:05Z</time>
      </trkpt>
      <trkpt lat="42.9420650" lon="-1.4491400">
        <ele>665.7</ele>
        <time>2020-03-26T19:21:07Z</time>
      </trkpt>
      <trkpt lat="42.9419540" lon="-1.4491440">
        <ele>665.5</ele>
        <time>2020-03-26T19:21:09Z</time>
      </trkpt>
      <trkpt lat="42.9417110" lon="-1.4491560">
        <ele>665.0</ele>
        <time>2020-03-26T19:21:11Z</time>
      </trkpt>
      <trkpt lat="42.9416000" lon="-1.4491660">
        <ele>664.7</ele>
        <time>2020-03-26T19:21:13Z</time>
      </trkpt>
      <trkpt lat="42.9414820" lon="-1.4491760">
        <ele>664.5</ele>
        <time>2020-03-26T19:21:15Z</time>
      </trkpt>
      <trkpt lat="42.9413610" lon="-1.4491870">
        <ele>664.2</ele>
        <time>2020-03-26T19:21:17Z</time>
      </trkpt>
      <trkpt lat="42.9412390" lon="-1.4491980">
        <ele>663.7</ele>
        <time>2020-03-26T19:21:19Z</time>
      </trkpt>
      <trkpt lat="42.9409070" lon="-1.4492490">
        <ele>662.8</ele>
        <time>2020-03-26T19:21:21Z</time>
      </trkpt>
      <trkpt lat="42.9407620" lon="-1.4493670">
        <ele>662.9</ele>
        <time>2020-03-26T19:21:23Z</time>
      </trkpt>
      <trkpt lat="42.9406910" lon="-1.4495520">
        <ele>663.4</ele>
        <time>2020-03-26T19:21:25Z</time>
      </trkpt>
      <trkpt lat="42.9406760" lon="-1.4497740">
        <ele>663.7</ele>
        <time>2020-03-26T19:21:27Z</time>
      </trkpt>
      <trkpt lat="42.9406790" lon="-1.4499370">
        <ele>663.7</ele>
        <time>2020-03-26T19:21:29Z</time>
      </trkpt>
      <trkpt lat="42.9406810" lon="-1.4500940">
        <ele>663.7</ele>
        <time>2020-03-26T19:21:31Z</time>
      </trkpt>
      <trkpt lat="42.9407020" lon="-1.4504420">
        <ele>663.3</ele>
        <time>2020-03-26T19:21:33Z</time>
      </trkpt>
      <trkpt lat="42.9407400" lon="-1.4505800">
        <ele>663.0</ele>
        <time>2020-03-26T19:21:35Z</time>
      </trkpt>
      <trkpt lat="42.9408300" lon="-1.4507630">
        <ele>663.1</ele>
        <time>2020-03-26T19:21:37Z</time>
      </trkpt>
      <trkpt lat="42.9408990" lon="-1.4508670">
        <ele>663.4</ele>
        <time>2020-03-26T19:21:39Z</time>
      </trkpt>
      <trkpt lat="42.9409670" lon="-1.4509700">
        <ele>663.8</ele>
        <time>2020-03-26T19:21:41Z</time>
      </trkpt>
      <trkpt lat="42.9411300" lon="-1.4512190">
        <ele>665.2</ele>
        <time>2020-03-26T19:21:43Z</time>
      </trkpt>
      <trkpt lat="42.9411880" lon="-1.4513260">
        <ele>665.5</ele>
        <time>2020-03-26T19:21:45Z</time>
      </trkpt>
      <trkpt lat="42.9412450" lon="-1.4514290">
        <ele>665.8</ele>
        <time>2020-03-26T19:21:47Z</time>
      </trkpt>
      <trkpt lat="42.9413010" lon="-1.4515320">
        <ele>666.3</ele>
        <time>2020-03-26T19:21:49Z</time>
      </trkpt>
      <trkpt lat="42.9413560" lon="-1.4516340">
        <ele>666.8</ele>
        <time>2020-03-26T19:21:51Z</time>
      </trkpt>
      <trkpt lat="42.9414880" lon="-1.4519170">
        <ele>667.5</ele>
        <time>2020-03-26T19:21:53Z</time>
      </trkpt>
      <trkpt lat="42.9415250" lon="-1.4521010">
        <ele>666.8</ele>
        <time>2020-03-26T19:21:55Z</time>
      </trkpt>
      <trkpt lat="42.9414990" lon="-1.4522650">
        <ele>666.3</ele>
        <time>2020-03-26T19:21:57Z</time>
      </trkpt>
      <trkpt lat="42.9414420" lon="-1.4524200">
        <ele>666.1</ele>
        <time>2020-03-26T19:21:59Z</time>
      </trkpt>
      <trkpt lat="42.9413810" lon="-1.4525050">
        <ele>666.2</ele>
        <time>2020-03-26T19:22:01Z</time>
      </trkpt>
      <trkpt lat="42.9413240" lon="-1.4525860">
        <ele>666.4</ele>
        <time>2020-03-26T19:22:03Z</time>
      </trkpt>
      <trkpt lat="42.9412690" lon="-1.4526640">
        <ele>666.6</ele>
        <time>2020-03-26T19:22:05Z</time>
      </trkpt>
      <trkpt lat="42.9412150" lon="-1.4527400">
        <ele>666.9</ele>
        <time>2020-03-26T19:22:07Z</time>
      </trkpt>
      <trkpt lat="42.9411630" lon="-1.4528140">
        <ele>667.2</ele>
        <time>2020-03-26T19:22:09Z</time>
      </trkpt>
      <trkpt lat="42.9411110" lon="-1.4528870">
        <ele>667.6</ele>
        <time>2020-03-26T19:22:11Z</time>
      </trkpt>
      <trkpt lat="42.9409180" lon="-1.4531510">
        <ele>669.4</ele>
        <time>2020-03-26T19:22:13Z</time>
      </trkpt>
      <trkpt lat="42.9408570" lon="-1.4532030">
        <ele>669.8</ele>
        <time>2020-03-26T19:22:15Z</time>
      </trkpt>
      <trkpt lat="42.9407970" lon="-1.4532550">
        <ele>670.3</ele>
        <time>2020-03-26T19:22:17Z</time>
      </trkpt>
      <trkpt lat="42.9407370" lon="-1.4533070">
        <ele>670.7</ele>
        <time>2020-03-26T19:22:19Z</time>
      </trkpt>
      <trkpt lat="42.9406770" lon="-1.4533580">
        <ele>671.0</ele>
        <time>2020-03-26T19:22:21Z</time>
      </trkpt>
      <trkpt lat="42.9406180" lon="-1.4534100">
        <ele>671.4</ele>
        <time>2020-03-26T19:22:23Z</time>
      </trkpt>
      <trkpt lat="42.9405590" lon="-1.4534610">
        <ele>671.7</ele>
        <time>2020-03-26T19:22:25Z</time>
      </trkpt>
      <trkpt lat="42.9403720" lon="-1.4536310">
        <ele>672.9</ele>
        <time>2020-03-26T19:22:27Z</time>
      </trkpt>
      <trkpt lat="42.9403220" lon="-1.4536830">
        <ele>673.2</ele>
        <time>2020-03-26T19:22:29Z</time>
      </trkpt>
      <trkpt lat="42.9402730" lon="-1.4537330">
        <ele>673.6</ele>
        <time>2020-03-26T19:22:31Z</time>
      </trkpt>
      <trkpt lat="42.9402260" lon="-1.4537820">
        <ele>674.0</ele>
        <time>2020-03-26T19:22:33Z</time>
      </trkpt>
      <trkpt lat="42.9401790" lon="-1.4538300">
        <ele>674.3</ele>
        <time>2020-03-26T19:22:35Z</time>
      </trkpt>
      <trkpt lat="42.9401340" lon="-1.4538770">
        <ele>674.7</ele>
        <time>2020-03-26T19:22:37Z</time>
      </trkpt>
      <trkpt lat="42.9400890" lon="-1.4539230">
        <ele>675.0</ele>
        <time>2020-03-26T19:22:39Z</time>
      </trkpt>
      <trkpt lat="42.9400450" lon="-1.4539690">
        <ele>675.4</ele>
        <time>2020-03-26T19:22:41Z</time>
      </trkpt>
      <trkpt lat="42.9400010" lon="-1.4540150">
        <ele>675.7</ele>
        <time>2020-03-26T19:22:43Z</time>
      </trkpt>
      <trkpt lat="42.9397900" lon="-1.4542330">
        <ele>677.0</ele>
        <time>2020-03-26T19:22:45Z</time>
      </trkpt>
      <trkpt lat="42.9397460" lon="-1.4542770">
        <ele>677.3</ele>
        <time>2020-03-26T19:22:47Z</time>
      </trkpt>
      <trkpt lat="42.9397020" lon="-1.4543210">
        <ele>677.6</ele>
        <time>2020-03-26T19:22:49Z</time>
      </trkpt>
      <trkpt lat="42.9396580" lon="-1.4543650">
        <ele>677.9</ele>
        <time>2020-03-26T19:22:51Z</time>
      </trkpt>
      <trkpt lat="42.9396140" lon="-1.4544090">
        <ele>678.2</ele>
        <time>2020-03-26T19:22:53Z</time>
      </trkpt>
      <trkpt lat="42.9395700" lon="-1.4544530">
        <ele>678.5</ele>
        <time>2020-03-26T19:22:55Z</time>
      </trkpt>
      <trkpt lat="42.9395260" lon="-1.4544970">
        <ele>678.8</ele>
        <time>2020-03-26T19:22:57Z</time>
      </trkpt>
      <trkpt lat="42.9394820" lon="-1.4545410">
        <ele>679.1</ele>
        <time>2020-03-26T19:22:59Z</time>
      </trkpt>
      <trkpt lat="42.9394380" lon="-1.4545840">
        <ele>679.4</ele>
        <time>2020-03-26T19:23:01Z</time>
      </trkpt>
      <trkpt lat="42.9393940" lon="-1.4546290">
        <ele>679.8</ele>
        <time>2020-03-26T19:23:03Z</time>
      </trkpt>
      <trkpt lat="42.9393510" lon="-1.4546720">
        <ele>680.1</ele>
        <time>2020-03-26T19:23:05Z</time>
      </trkpt>
      <trkpt lat="42.9391540" lon="-1.4549000">
        <ele>681.7</ele>
        <time>2020-03-26T19:23:07Z</time>
      </trkpt>
      <trkpt lat="42.9391320" lon="-1.4549650">
        <ele>682.1</ele>
        <time>2020-03-26T19:23:09Z</time>
      </trkpt>
      <trkpt lat="42.9391280" lon="-1.4550750">
        <ele>683.2</ele>
        <time>2020-03-26T19:23:11Z</time>
      </trkpt>
      <trkpt lat="42.9391710" lon="-1.4551620">
        <ele>684.4</ele>
        <time>2020-03-26T19:23:13Z</time>
      </trkpt>
      <trkpt lat="42.9392210" lon="-1.4551890">
        <ele>685.0</ele>
        <time>2020-03-26T19:23:15Z</time>
      </trkpt>
      <trkpt lat="42.9392700" lon="-1.4552160">
        <ele>685.6</ele>
        <time>2020-03-26T19:23:17Z</time>
      </trkpt>
      <trkpt lat="42.9393200" lon="-1.4552440">
        <ele>686.3</ele>
        <time>2020-03-26T19:23:19Z</time>
      </trkpt>
      <trkpt lat="42.9394440" lon="-1.4553170">
        <ele>688.0</ele>
        <time>2020-03-26T19:23:21Z</time>
      </trkpt>
      <trkpt lat="42.9394830" lon="-1.4553650">
        <ele>688.6</ele>
        <time>2020-03-26T19:23:23Z</time>
      </trkpt>
      <trkpt lat="42.9395230" lon="-1.4554610">
        <ele>689.4</ele>
        <time>2020-03-26T19:23:25Z</time>
      </trkpt>
      <trkpt lat="42.9395240" lon="-1.4555320">
        <ele>690.0</ele>
        <time>2020-03-26T19:23:27Z</time>
      </trkpt>
      <trkpt lat="42.9395150" lon="-1.4556510">
        <ele>690.8</ele>
        <time>2020-03-26T19:23:29Z</time>
      </trkpt>
      <trkpt lat="42.9394840" lon="-1.4557050">
        <ele>691.3</ele>
        <time>2020-03-26T19:23:31Z</time>
      </trkpt>
      <trkpt lat="42.9394540" lon="-1.4557580">
        <ele>691.6</ele>
        <time>2020-03-26T19:23:33Z</time>
      </trkpt>
      <trkpt lat="42.9393800" lon="-1.4558280">
        <ele>692.1</ele>
        <time>2020-03-26T19:23:35Z</time>
      </trkpt>
      <trkpt lat="42.9393290" lon="-1.4558540">
        <ele>692.4</ele>
        <time>2020-03-26T19:23:37Z</time>
      </trkpt>
      <trkpt lat="42.9392790" lon="-1.4558800">
        <ele>692.8</ele>
        <time>2020-03-26T19:23:39Z</time>
      </trkpt>
      <trkpt lat="42.9392300" lon="-1.4559060">
        <ele>693.1</ele>
        <time>2020-03-26T19:23:41Z</time>
      </trkpt>
      <trkpt lat="42.9391820" lon="-1.4559310">
        <ele>693.4</ele>
        <time>2020-03-26T19:23:43Z</time>
      </trkpt>
      <trkpt lat="42.9391350" lon="-1.4559560">
        <ele>693.7</ele>
        <time>2020-03-26T19:23:45Z</time>
      </trkpt>
      <trkpt lat="42.9389740" lon="-1.4560530">
        <ele>694.9</ele>
        <time>2020-03-26T19:23:47Z</time>
      </trkpt>
      <trkpt lat="42.9389420" lon="-1.4561090">
        <ele>695.3</ele>
        <time>2020-03-26T19:23:49Z</time>
      </trkpt>
      <trkpt lat="42.9388890" lon="-1.4562090">
        <ele>695.9</ele>
        <time>2020-03-26T19:23:51Z</time>
      </trkpt>
      <trkpt lat="42.9388780" lon="-1.4562860">
        <ele>696.3</ele>
        <time>2020-03-26T19:23:53Z</time>
      </trkpt>
      <trkpt lat="42.9388680" lon="-1.4563580">
        <ele>696.6</ele>
        <time>2020-03-26T19:23:55Z</time>
      </trkpt>
      <trkpt lat="42.9388580" lon="-1.4564310">
        <ele>696.9</ele>
        <time>2020-03-26T19:23:57Z</time>
      </trkpt>
      <trkpt lat="42.9388490" lon="-1.4565030">
        <ele>697.2</ele>
        <time>2020-03-26T19:23:59Z</time>
      </trkpt>
      <trkpt lat="42.9388390" lon="-1.4565750">
        <ele>697.5</ele>
        <time>2020-03-26T19:24:01Z</time>
      </trkpt>
      <trkpt lat="42.9388290" lon="-1.4566480">
        <ele>697.8</ele>
        <time>2020-03-26T19:24:03Z</time>
      </trkpt>
      <trkpt lat="42.9388200" lon="-1.4567200">
        <ele>698.1</ele>
        <time>2020-03-26T19:24:05Z</time>
      </trkpt>
      <trkpt lat="42.9387870" lon="-1.4569930">
        <ele>699.5</ele>
        <time>2020-03-26T19:24:07Z</time>
      </trkpt>
      <trkpt lat="42.9387860" lon="-1.4570720">
        <ele>699.8</ele>
        <time>2020-03-26T19:24:09Z</time>
      </trkpt>
      <trkpt lat="42.9387850" lon="-1.4571510">
        <ele>700.1</ele>
        <time>2020-03-26T19:24:11Z</time>
      </trkpt>
      <trkpt lat="42.9387840" lon="-1.4572300">
        <ele>700.4</ele>
        <time>2020-03-26T19:24:13Z</time>
      </trkpt>
      <trkpt lat="42.9387830" lon="-1.4573080">
        <ele>700.7</ele>
        <time>2020-03-26T19:24:15Z</time>
      </trkpt>
      <trkpt lat="42.9388010" lon="-1.4575090">
        <ele>701.8</ele>
        <time>2020-03-26T19:24:17Z</time>
      </trkpt>
      <trkpt lat="42.9388230" lon="-1.4575790">
        <ele>702.2</ele>
        <time>2020-03-26T19:24:19Z</time>
      </trkpt>
      <trkpt lat="42.9388440" lon="-1.4576480">
        <ele>702.6</ele>
        <time>2020-03-26T19:24:21Z</time>
      </trkpt>
      <trkpt lat="42.9388940" lon="-1.4578140">
        <ele>703.5</ele>
        <time>2020-03-26T19:24:23Z</time>
      </trkpt>
      <trkpt lat="42.9388790" lon="-1.4578870">
        <ele>704.1</ele>
        <time>2020-03-26T19:24:25Z</time>
      </trkpt>
      <trkpt lat="42.9388660" lon="-1.4579590">
        <ele>704.6</ele>
        <time>2020-03-26T19:24:27Z</time>
      </trkpt>
      <trkpt lat="42.9388160" lon="-1.4580630">
        <ele>705.3</ele>
        <time>2020-03-26T19:24:29Z</time>
      </trkpt>
      <trkpt lat="42.9387770" lon="-1.4581140">
        <ele>705.6</ele>
        <time>2020-03-26T19:24:31Z</time>
      </trkpt>
      <trkpt lat="42.9387370" lon="-1.4581640">
        <ele>705.9</ele>
        <time>2020-03-26T19:24:33Z</time>
      </trkpt>
      <trkpt lat="42.9386980" lon="-1.4582140">
        <ele>706.2</ele>
        <time>2020-03-26T19:24:35Z</time>
      </trkpt>
      <trkpt lat="42.9386590" lon="-1.4582650">
        <ele>706.4</ele>
        <time>2020-03-26T19:24:37Z</time>
      </trkpt>
      <trkpt lat="42.9385350" lon="-1.4584080">
        <ele>707.1</ele>
        <time>2020-03-26T19:24:39Z</time>
      </trkpt>
      <trkpt lat="42.9384810" lon="-1.4584410">
        <ele>707.3</ele>
        <time>2020-03-26T19:24:41Z</time>
      </trkpt>
      <trkpt lat="42.9384250" lon="-1.4584750">
        <ele>707.5</ele>
        <time>2020-03-26T19:24:43Z</time>
      </trkpt>
      <trkpt lat="42.9383700" lon="-1.4585090">
        <ele>707.7</ele>
        <time>2020-03-26T19:24:45Z</time>
      </trkpt>
      <trkpt lat="42.9383150" lon="-1.4585430">
        <ele>708.0</ele>
        <time>2020-03-26T19:24:47Z</time>
      </trkpt>
      <trkpt lat="42.9382620" lon="-1.4585750">
        <ele>708.2</ele>
        <time>2020-03-26T19:24:49Z</time>
      </trkpt>
      <trkpt lat="42.9381050" lon="-1.4586950">
        <ele>709.1</ele>
        <time>2020-03-26T19:24:51Z</time>
      </trkpt>
      <trkpt lat="42.9380750" lon="-1.4587610">
        <ele>709.3</ele>
        <time>2020-03-26T19:24:53Z</time>
      </trkpt>
      <trkpt lat="42.9380450" lon="-1.4588770">
        <ele>709.7</ele>
        <time>2020-03-26T19:24:55Z</time>
      </trkpt>
      <trkpt lat="42.9380420" lon="-1.4589520">
        <ele>710.0</ele>
        <time>2020-03-26T19:24:57Z</time>
      </trkpt>
      <trkpt lat="42.9380740" lon="-1.4590530">
        <ele>710.4</ele>
        <time>2020-03-26T19:24:59Z</time>
      </trkpt>
      <trkpt lat="42.9381110" lon="-1.4591080">
        <ele>710.7</ele>
        <time>2020-03-26T19:25:01Z</time>
      </trkpt>
      <trkpt lat="42.9381850" lon="-1.4592170">
        <ele>711.3</ele>
        <time>2020-03-26T19:25:03Z</time>
      </trkpt>
      <trkpt lat="42.9382310" lon="-1.4592580">
        <ele>711.6</ele>
        <time>2020-03-26T19:25:05Z</time>
      </trkpt>
      <trkpt lat="42.9382750" lon="-1.4592990">
        <ele>711.9</ele>
        <time>2020-03-26T19:25:07Z</time>
      </trkpt>
      <trkpt lat="42.9383200" lon="-1.4593400">
        <ele>712.2</ele>
        <time>2020-03-26T19:25:09Z</time>
      </trkpt>
      <trkpt lat="42.9384290" lon="-1.4594320">
        <ele>712.8</ele>
        <time>2020-03-26T19:25:11Z</time>
      </trkpt>
      <trkpt lat="42.9384780" lon="-1.4594590">
        <ele>713.1</ele>
        <time>2020-03-26T19:25:13Z</time>
      </trkpt>
      <trkpt lat="42.9385260" lon="-1.4594860">
        <ele>713.3</ele>
        <time>2020-03-26T19:25:15Z</time>
      </trkpt>
      <trkpt lat="42.9385750" lon="-1.4595130">
        <ele>713.5</ele>
        <time>2020-03-26T19:25:17Z</time>
      </trkpt>
      <trkpt lat="42.9386230" lon="-1.4595410">
        <ele>713.7</ele>
        <time>2020-03-26T19:25:19Z</time>
      </trkpt>
      <trkpt lat="42.9387580" lon="-1.4596100">
        <ele>714.4</ele>
        <time>2020-03-26T19:25:21Z</time>
      </trkpt>
      <trkpt lat="42.9388080" lon="-1.4596290">
        <ele>714.6</ele>
        <time>2020-03-26T19:25:23Z</time>
      </trkpt>
      <trkpt lat="42.9388600" lon="-1.4596490">
        <ele>714.9</ele>
        <time>2020-03-26T19:25:25Z</time>
      </trkpt>
      <trkpt lat="42.9389120" lon="-1.4596690">
        <ele>715.3</ele>
        <time>2020-03-26T19:25:27Z</time>
      </trkpt>
      <trkpt lat="42.9389640" lon="-1.4596890">
        <ele>715.6</ele>
        <time>2020-03-26T19:25:29Z</time>
      </trkpt>
      <trkpt lat="42.9390160" lon="-1.4597090">
        <ele>715.9</ele>
        <time>2020-03-26T19:25:31Z</time>
      </trkpt>
      <trkpt lat="42.9390680" lon="-1.4597290">
        <ele>716.2</ele>
        <time>2020-03-26T19:25:33Z</time>
      </trkpt>
      <trkpt lat="42.9391200" lon="-1.4597490">
        <ele>716.6</ele>
        <time>2020-03-26T19:25:35Z</time>
      </trkpt>
      <trkpt lat="42.9391740" lon="-1.4597700">
        <ele>716.9</ele>
        <time>2020-03-26T19:25:37Z</time>
      </trkpt>
      <trkpt lat="42.9392290" lon="-1.4597910">
        <ele>717.3</ele>
        <time>2020-03-26T19:25:39Z</time>
      </trkpt>
      <trkpt lat="42.9392850" lon="-1.4598130">
        <ele>717.7</ele>
        <time>2020-03-26T19:25:41Z</time>
      </trkpt>
      <trkpt lat="42.9395610" lon="-1.4599280">
        <ele>719.4</ele>
        <time>2020-03-26T19:25:43Z</time>
      </trkpt>
      <trkpt lat="42.9396050" lon="-1.4599790">
        <ele>719.7</ele>
        <time>2020-03-26T19:25:45Z</time>
      </trkpt>
      <trkpt lat="42.9396630" lon="-1.4600780">
        <ele>720.2</ele>
        <time>2020-03-26T19:25:47Z</time>
      </trkpt>
      <trkpt lat="42.9396810" lon="-1.4601530">
        <ele>720.5</ele>
        <time>2020-03-26T19:25:49Z</time>
      </trkpt>
      <trkpt lat="42.9397000" lon="-1.4602850">
        <ele>721.0</ele>
        <time>2020-03-26T19:25:51Z</time>
      </trkpt>
      <trkpt lat="42.9397010" lon="-1.4603660">
        <ele>721.3</ele>
        <time>2020-03-26T19:25:53Z</time>
      </trkpt>
      <trkpt lat="42.9397020" lon="-1.4604460">
        <ele>721.6</ele>
        <time>2020-03-26T19:25:55Z</time>
      </trkpt>
      <trkpt lat="42.9397030" lon="-1.4605280">
        <ele>721.9</ele>
        <time>2020-03-26T19:25:57Z</time>
      </trkpt>
      <trkpt lat="42.9397330" lon="-1.4607090">
        <ele>722.6</ele>
        <time>2020-03-26T19:25:59Z</time>
      </trkpt>
      <trkpt lat="42.9397610" lon="-1.4607810">
        <ele>722.9</ele>
        <time>2020-03-26T19:26:01Z</time>
      </trkpt>
      <trkpt lat="42.9398230" lon="-1.4609020">
        <ele>723.5</ele>
        <time>2020-03-26T19:26:03Z</time>
      </trkpt>
      <trkpt lat="42.9398690" lon="-1.4609550">
        <ele>723.8</ele>
        <time>2020-03-26T19:26:05Z</time>
      </trkpt>
      <trkpt lat="42.9399150" lon="-1.4610090">
        <ele>724.0</ele>
        <time>2020-03-26T19:26:07Z</time>
      </trkpt>
      <trkpt lat="42.9400170" lon="-1.4611100">
        <ele>724.6</ele>
        <time>2020-03-26T19:26:09Z</time>
      </trkpt>
      <trkpt lat="42.9400710" lon="-1.4611410">
        <ele>724.9</ele>
        <time>2020-03-26T19:26:11Z</time>
      </trkpt>
      <trkpt lat="42.9401240" lon="-1.4611720">
        <ele>725.1</ele>
        <time>2020-03-26T19:26:13Z</time>
      </trkpt>
      <trkpt lat="42.9401770" lon="-1.4612040">
        <ele>725.4</ele>
        <time>2020-03-26T19:26:15Z</time>
      </trkpt>
      <trkpt lat="42.9402310" lon="-1.4612350">
        <ele>725.7</ele>
        <time>2020-03-26T19:26:17Z</time>
      </trkpt>
      <trkpt lat="42.9402860" lon="-1.4612670">
        <ele>726.0</ele>
        <time>2020-03-26T19:26:19Z</time>
      </trkpt>
      <trkpt lat="42.9404690" lon="-1.4613720">
        <ele>727.0</ele>
        <time>2020-03-26T19:26:21Z</time>
      </trkpt>
      <trkpt lat="42.9405280" lon="-1.4613880">
        <ele>727.3</ele>
        <time>2020-03-26T19:26:23Z</time>
      </trkpt>
      <trkpt lat="42.9405870" lon="-1.4614040">
        <ele>727.6</ele>
        <time>2020-03-26T19:26:25Z</time>
      </trkpt>
      <trkpt lat="42.9406460" lon="-1.4614190">
        <ele>727.9</ele>
        <time>2020-03-26T19:26:27Z</time>
      </trkpt>
      <trkpt lat="42.9407060" lon="-1.4614350">
        <ele>728.2</ele>
        <time>2020-03-26T19:26:29Z</time>
      </trkpt>
      <trkpt lat="42.9407650" lon="-1.4614510">
        <ele>728.4</ele>
        <time>2020-03-26T19:26:31Z</time>
      </trkpt>
      <trkpt lat="42.9408240" lon="-1.4614670">
        <ele>728.6</ele>
        <time>2020-03-26T19:26:33Z</time>
      </trkpt>
      <trkpt lat="42.9408830" lon="-1.4614830">
        <ele>728.9</ele>
        <time>2020-03-26T19:26:35Z</time>
      </trkpt>
      <trkpt lat="42.9409420" lon="-1.4614990">
        <ele>729.1</ele>
        <time>2020-03-26T19:26:37Z</time>
      </trkpt>
      <trkpt lat="42.9411870" lon="-1.4615560">
        <ele>730.2</ele>
        <time>2020-03-26T19:26:39Z</time>
      </trkpt>
      <trkpt lat="42.9412470" lon="-1.4615570">
        <ele>730.6</ele>
        <time>2020-03-26T19:26:41Z</time>
      </trkpt>
      <trkpt lat="42.9413070" lon="-1.4615580">
        <ele>730.9</ele>
        <time>2020-03-26T19:26:43Z</time>
      </trkpt>
      <trkpt lat="42.9413680" lon="-1.4615590">
        <ele>731.3</ele>
        <time>2020-03-26T19:26:45Z</time>
      </trkpt>
      <trkpt lat="42.9414280" lon="-1.4615610">
        <ele>731.6</ele>
        <time>2020-03-26T19:26:47Z</time>
      </trkpt>
      <trkpt lat="42.9414880" lon="-1.4615620">
        <ele>732.0</ele>
        <time>2020-03-26T19:26:49Z</time>
      </trkpt>
      <trkpt lat="42.9416760" lon="-1.4615660">
        <ele>733.1</ele>
        <time>2020-03-26T19:26:51Z</time>
      </trkpt>
      <trkpt lat="42.9417370" lon="-1.4615670">
        <ele>733.4</ele>
        <time>2020-03-26T19:26:53Z</time>
      </trkpt>
      <trkpt lat="42.9417960" lon="-1.4615690">
        <ele>733.7</ele>
        <time>2020-03-26T19:26:55Z</time>
      </trkpt>
      <trkpt lat="42.9418570" lon="-1.4615700">
        <ele>733.9</ele>
        <time>2020-03-26T19:26:57Z</time>
      </trkpt>
      <trkpt lat="42.9419170" lon="-1.4615720">
        <ele>734.2</ele>
        <time>2020-03-26T19:26:59Z</time>
      </trkpt>
      <trkpt lat="42.9419780" lon="-1.4615730">
        <ele>734.4</ele>
        <time>2020-03-26T19:27:01Z</time>
      </trkpt>
      <trkpt lat="42.9421670" lon="-1.4615950">
        <ele>734.9</ele>
        <time>2020-03-26T19:27:03Z</time>
      </trkpt>
      <trkpt lat="42.9422260" lon="-1.4616170">
        <ele>735.0</ele>
        <time>2020-03-26T19:27:05Z</time>
      </trkpt>
      <trkpt lat="42.9423080" lon="-1.4616950">
        <ele>735.3</ele>
        <time>2020-03-26T19:27:07Z</time>
      </trkpt>
      <trkpt lat="42.9423660" lon="-1.4618180">
        <ele>735.7</ele>
        <time>2020-03-26T19:27:09Z</time>
      </trkpt>
      <trkpt lat="42.9423620" lon="-1.4619100">
        <ele>736.1</ele>
        <time>2020-03-26T19:27:11Z</time>
      </trkpt>
      <trkpt lat="42.9423240" lon="-1.4620320">
        <ele>736.7</ele>
        <time>2020-03-26T19:27:13Z</time>
      </trkpt>
      <trkpt lat="42.9422860" lon="-1.4621030">
        <ele>737.1</ele>
        <time>2020-03-26T19:27:15Z</time>
      </trkpt>
      <trkpt lat="42.9422090" lon="-1.4622230">
        <ele>737.8</ele>
        <time>2020-03-26T19:27:17Z</time>
      </trkpt>
      <trkpt lat="42.9421550" lon="-1.4622680">
        <ele>738.2</ele>
        <time>2020-03-26T19:27:19Z</time>
      </trkpt>
      <trkpt lat="42.9421020" lon="-1.4623130">
        <ele>738.5</ele>
        <time>2020-03-26T19:27:21Z</time>
      </trkpt>
      <trkpt lat="42.9420500" lon="-1.4623570">
        <ele>738.9</ele>
        <time>2020-03-26T19:27:23Z</time>
      </trkpt>
      <trkpt lat="42.9419970" lon="-1.4624010">
        <ele>739.2</ele>
        <time>2020-03-26T19:27:25Z</time>
      </trkpt>
      <trkpt lat="42.9419450" lon="-1.4624460">
        <ele>739.6</ele>
        <time>2020-03-26T19:27:27Z</time>
      </trkpt>
      <trkpt lat="42.9417740" lon="-1.4625900">
        <ele>740.6</ele>
        <time>2020-03-26T19:27:29Z</time>
      </trkpt>
      <trkpt lat="42.9417190" lon="-1.4626360">
        <ele>740.9</ele>
        <time>2020-03-26T19:27:31Z</time>
      </trkpt>
      <trkpt lat="42.9416630" lon="-1.4626840">
        <ele>741.3</ele>
        <time>2020-03-26T19:27:33Z</time>
      </trkpt>
      <trkpt lat="42.9416070" lon="-1.4627300">
        <ele>741.6</ele>
        <time>2020-03-26T19:27:35Z</time>
      </trkpt>
      <trkpt lat="42.9415530" lon="-1.4627760">
        <ele>741.9</ele>
        <time>2020-03-26T19:27:37Z</time>
      </trkpt>
      <trkpt lat="42.9414980" lon="-1.4628220">
        <ele>742.2</ele>
        <time>2020-03-26T19:27:39Z</time>
      </trkpt>
      <trkpt lat="42.9413300" lon="-1.4629720">
        <ele>742.9</ele>
        <time>2020-03-26T19:27:41Z</time>
      </trkpt>
      <trkpt lat="42.9412870" lon="-1.4630330">
        <ele>743.1</ele>
        <time>2020-03-26T19:27:43Z</time>
      </trkpt>
      <trkpt lat="42.9412440" lon="-1.4630940">
        <ele>743.3</ele>
        <time>2020-03-26T19:27:45Z</time>
      </trkpt>
      <trkpt lat="42.9411700" lon="-1.4632310">
        <ele>743.7</ele>
        <time>2020-03-26T19:27:47Z</time>
      </trkpt>
      <trkpt lat="42.9411500" lon="-1.4633100">
        <ele>744.0</ele>
        <time>2020-03-26T19:27:49Z</time>
      </trkpt>
      <trkpt lat="42.9411260" lon="-1.4634550">
        <ele>744.4</ele>
        <time>2020-03-26T19:27:51Z</time>
      </trkpt>
      <trkpt lat="42.9411360" lon="-1.4635460">
        <ele>744.7</ele>
        <time>2020-03-26T19:27:53Z</time>
      </trkpt>
      <trkpt lat="42.9411460" lon="-1.4636400">
        <ele>744.9</ele>
        <time>2020-03-26T19:27:55Z</time>
      </trkpt>
      <trkpt lat="42.9411570" lon="-1.4637370">
        <ele>745.2</ele>
        <time>2020-03-26T19:27:57Z</time>
      </trkpt>
      <trkpt lat="42.9411880" lon="-1.4639750">
        <ele>746.0</ele>
        <time>2020-03-26T19:27:59Z</time>
      </trkpt>
      <trkpt lat="42.9412210" lon="-1.4640620">
        <ele>746.3</ele>
        <time>2020-03-26T19:28:01Z</time>
      </trkpt>
      <trkpt lat="42.9412540" lon="-1.4641480">
        <ele>746.7</ele>
        <time>2020-03-26T19:28:03Z</time>
      </trkpt>
      <trkpt lat="42.9413360" lon="-1.4642710">
        <ele>747.3</ele>
        <time>2020-03-26T19:28:05Z</time>
      </trkpt>
      <trkpt lat="42.9413950" lon="-1.4643230">
        <ele>747.7</ele>
        <time>2020-03-26T19:28:07Z</time>
      </trkpt>
      <trkpt lat="42.9414540" lon="-1.4643740">
        <ele>748.1</ele>
        <time>2020-03-26T19:28:09Z</time>
      </trkpt>
      <trkpt lat="42.9415820" lon="-1.4644500">
        <ele>748.9</ele>
        <time>2020-03-26T19:28:11Z</time>
      </trkpt>
      <trkpt lat="42.9416430" lon="-1.4644700">
        <ele>749.3</ele>
        <time>2020-03-26T19:28:13Z</time>
      </trkpt>
      <trkpt lat="42.9417010" lon="-1.4644880">
        <ele>749.7</ele>
        <time>2020-03-26T19:28:15Z</time>
      </trkpt>
      <trkpt lat="42.9417590" lon="-1.4645060">
        <ele>750.1</ele>
        <time>2020-03-26T19:28:17Z</time>
      </trkpt>
      <trkpt lat="42.9418160" lon="-1.4645240">
        <ele>750.4</ele>
        <time>2020-03-26T19:28:19Z</time>
      </trkpt>
      <trkpt lat="42.9418740" lon="-1.4645430">
        <ele>750.7</ele>
        <time>2020-03-26T19:28:21Z</time>
      </trkpt>
      <trkpt lat="42.9419330" lon="-1.4645610">
        <ele>751.0</ele>
        <time>2020-03-26T19:28:23Z</time>
      </trkpt>
      <trkpt lat="42.9419910" lon="-1.4645800">
        <ele>751.4</ele>
        <time>2020-03-26T19:28:25Z</time>
      </trkpt>
      <trkpt lat="42.9420500" lon="-1.4645980">
        <ele>751.7</ele>
        <time>2020-03-26T19:28:27Z</time>
      </trkpt>
      <trkpt lat="42.9423220" lon="-1.4646850">
        <ele>753.5</ele>
        <time>2020-03-26T19:28:29Z</time>
      </trkpt>
      <trkpt lat="42.9423810" lon="-1.4647030">
        <ele>754.0</ele>
        <time>2020-03-26T19:28:31Z</time>
      </trkpt>
      <trkpt lat="42.9424400" lon="-1.4647220">
        <ele>754.4</ele>
        <time>2020-03-26T19:28:33Z</time>
      </trkpt>
      <trkpt lat="42.9424990" lon="-1.4647400">
        <ele>754.9</ele>
        <time>2020-03-26T19:28:35Z</time>
      </trkpt>
      <trkpt lat="42.9426440" lon="-1.4647860">
        <ele>756.0</ele>
        <time>2020-03-26T19:28:37Z</time>
      </trkpt>
      <trkpt lat="42.9427020" lon="-1.4648050">
        <ele>756.4</ele>
        <time>2020-03-26T19:28:39Z</time>
      </trkpt>
      <trkpt lat="42.9427590" lon="-1.4648230">
        <ele>756.8</ele>
        <time>2020-03-26T19:28:41Z</time>
      </trkpt>
      <trkpt lat="42.9428160" lon="-1.4648420">
        <ele>757.1</ele>
        <time>2020-03-26T19:28:43Z</time>
      </trkpt>
      <trkpt lat="42.9428740" lon="-1.4648600">
        <ele>757.4</ele>
        <time>2020-03-26T19:28:45Z</time>
      </trkpt>
      <trkpt lat="42.9429320" lon="-1.4648790">
        <ele>757.7</ele>
        <time>2020-03-26T19:28:47Z</time>
      </trkpt>
      <trkpt lat="42.9431160" lon="-1.4649380">
        <ele>758.5</ele>
        <time>2020-03-26T19:28:49Z</time>
      </trkpt>
      <trkpt lat="42.9431750" lon="-1.4649570">
        <ele>758.7</ele>
        <time>2020-03-26T19:28:51Z</time>
      </trkpt>
      <trkpt lat="42.9432340" lon="-1.4649760">
        <ele>758.9</ele>
        <time>2020-03-26T19:28:53Z</time>
      </trkpt>
      <trkpt lat="42.9432930" lon="-1.4649940">
        <ele>759.1</ele>
        <time>2020-03-26T19:28:55Z</time>
      </trkpt>
      <trkpt lat="42.9433510" lon="-1.4650130">
        <ele>759.3</ele>
        <time>2020-03-26T19:28:57Z</time>
      </trkpt>
      <trkpt lat="42.9434100" lon="-1.4650320">
        <ele>759.6</ele>
        <time>2020-03-26T19:28:59Z</time>
      </trkpt>
      <trkpt lat="42.9434690" lon="-1.4650510">
        <ele>759.8</ele>
        <time>2020-03-26T19:29:01Z</time>
      </trkpt>
      <trkpt lat="42.9435280" lon="-1.4650700">
        <ele>760.0</ele>
        <time>2020-03-26T19:29:03Z</time>
      </trkpt>
      <trkpt lat="42.9437570" lon="-1.4651440">
        <ele>761.0</ele>
        <time>2020-03-26T19:29:05Z</time>
      </trkpt>
      <trkpt lat="42.9438150" lon="-1.4651640">
        <ele>761.3</ele>
        <time>2020-03-26T19:29:07Z</time>
      </trkpt>
      <trkpt lat="42.9439180" lon="-1.4652030">
        <ele>761.7</ele>
        <time>2020-03-26T19:29:09Z</time>
      </trkpt>
      <trkpt lat="42.9439710" lon="-1.4652430">
        <ele>762.0</ele>
        <time>2020-03-26T19:29:11Z</time>
      </trkpt>
      <trkpt lat="42.9440430" lon="-1.4653180">
        <ele>762.3</ele>
        <time>2020-03-26T19:29:13Z</time>
      </trkpt>
      <trkpt lat="42.9441070" lon="-1.4654140">
        <ele>762.6</ele>
        <time>2020-03-26T19:29:15Z</time>
      </trkpt>
      <trkpt lat="42.9441320" lon="-1.4654900">
        <ele>762.8</ele>
        <time>2020-03-26T19:29:17Z</time>
      </trkpt>
      <trkpt lat="42.9441560" lon="-1.4656140">
        <ele>763.2</ele>
        <time>2020-03-26T19:29:19Z</time>
      </trkpt>
      <trkpt lat="42.9441590" lon="-1.4657410">
        <ele>763.5</ele>
        <time>2020-03-26T19:29:21Z</time>
      </trkpt>
      <trkpt lat="42.9441450" lon="-1.4658210">
        <ele>763.7</ele>
        <time>2020-03-26T19:29:23Z</time>
      </trkpt>
      <trkpt lat="42.9441170" lon="-1.4659430">
        <ele>764.0</ele>
        <time>2020-03-26T19:29:25Z</time>
      </trkpt>
      <trkpt lat="42.9440910" lon="-1.4660190">
        <ele>764.2</ele>
        <time>2020-03-26T19:29:27Z</time>
      </trkpt>
      <trkpt lat="42.9440660" lon="-1.4660930">
        <ele>764.4</ele>
        <time>2020-03-26T19:29:29Z</time>
      </trkpt>
      <trkpt lat="42.9440250" lon="-1.4662440">
        <ele>764.8</ele>
        <time>2020-03-26T19:29:31Z</time>
      </trkpt>
      <trkpt lat="42.9440040" lon="-1.4663720">
        <ele>765.1</ele>
        <time>2020-03-26T19:29:33Z</time>
      </trkpt>
      <trkpt lat="42.9440090" lon="-1.4664480">
        <ele>765.3</ele>
        <time>2020-03-26T19:29:35Z</time>
      </trkpt>
      <trkpt lat="42.9440300" lon="-1.4665580">
        <ele>765.8</ele>
        <time>2020-03-26T19:29:37Z</time>
      </trkpt>
      <trkpt lat="42.9440720" lon="-1.4666480">
        <ele>766.4</ele>
        <time>2020-03-26T19:29:39Z</time>
      </trkpt>
      <trkpt lat="42.9441060" lon="-1.4667000">
        <ele>766.8</ele>
        <time>2020-03-26T19:29:41Z</time>
      </trkpt>
      <trkpt lat="42.9441640" lon="-1.4667840">
        <ele>767.6</ele>
        <time>2020-03-26T19:29:43Z</time>
      </trkpt>
      <trkpt lat="42.9442060" lon="-1.4668310">
        <ele>768.1</ele>
        <time>2020-03-26T19:29:45Z</time>
      </trkpt>
      <trkpt lat="42.9442470" lon="-1.4668790">
        <ele>768.6</ele>
        <time>2020-03-26T19:29:47Z</time>
      </trkpt>
      <trkpt lat="42.9443230" lon="-1.4669780">
        <ele>769.7</ele>
        <time>2020-03-26T19:29:49Z</time>
      </trkpt>
      <trkpt lat="42.9443600" lon="-1.4670310">
        <ele>770.3</ele>
        <time>2020-03-26T19:29:51Z</time>
      </trkpt>
      <trkpt lat="42.9444200" lon="-1.4671400">
        <ele>771.3</ele>
        <time>2020-03-26T19:29:53Z</time>
      </trkpt>
      <trkpt lat="42.9444500" lon="-1.4672430">
        <ele>772.0</ele>
        <time>2020-03-26T19:29:55Z</time>
      </trkpt>
      <trkpt lat="42.9444580" lon="-1.4673180">
        <ele>772.4</ele>
        <time>2020-03-26T19:29:57Z</time>
      </trkpt>
      <trkpt lat="42.9444480" lon="-1.4674260">
        <ele>772.9</ele>
        <time>2020-03-26T19:29:59Z</time>
      </trkpt>
      <trkpt lat="42.9444160" lon="-1.4675270">
        <ele>773.3</ele>
        <time>2020-03-26T19:30:01Z</time>
      </trkpt>
      <trkpt lat="42.9443670" lon="-1.4676220">
        <ele>773.8</ele>
        <time>2020-03-26T19:30:03Z</time>
      </trkpt>
      <trkpt lat="42.9443240" lon="-1.4676820">
        <ele>774.0</ele>
        <time>2020-03-26T19:30:05Z</time>
      </trkpt>
      <trkpt lat="42.9442470" lon="-1.4677790">
        <ele>774.5</ele>
        <time>2020-03-26T19:30:07Z</time>
      </trkpt>
      <trkpt lat="42.9441970" lon="-1.4678220">
        <ele>774.8</ele>
        <time>2020-03-26T19:30:09Z</time>
      </trkpt>
      <trkpt lat="42.9441470" lon="-1.4678630">
        <ele>775.1</ele>
        <time>2020-03-26T19:30:11Z</time>
      </trkpt>
      <trkpt lat="42.9440990" lon="-1.4679030">
        <ele>775.4</ele>
        <time>2020-03-26T19:30:13Z</time>
      </trkpt>
      <trkpt lat="42.9440510" lon="-1.4679430">
        <ele>775.8</ele>
        <time>2020-03-26T19:30:15Z</time>
      </trkpt>
      <trkpt lat="42.9440040" lon="-1.4679830">
        <ele>776.2</ele>
        <time>2020-03-26T19:30:17Z</time>
      </trkpt>
      <trkpt lat="42.9439570" lon="-1.4680220">
        <ele>776.5</ele>
        <time>2020-03-26T19:30:19Z</time>
      </trkpt>
      <trkpt lat="42.9439100" lon="-1.4680610">
        <ele>776.9</ele>
        <time>2020-03-26T19:30:21Z</time>
      </trkpt>
      <trkpt lat="42.9438640" lon="-1.4681000">
        <ele>777.3</ele>
        <time>2020-03-26T19:30:23Z</time>
      </trkpt>
      <trkpt lat="42.9436660" lon="-1.4682590">
        <ele>779.1</ele>
        <time>2020-03-26T19:30:25Z</time>
      </trkpt>
      <trkpt lat="42.9435770" lon="-1.4683180">
        <ele>780.0</ele>
        <time>2020-03-26T19:30:27Z</time>
      </trkpt>
      <trkpt lat="42.9435230" lon="-1.4683530">
        <ele>780.4</ele>
        <time>2020-03-26T19:30:29Z</time>
      </trkpt>
      <trkpt lat="42.9434340" lon="-1.4684060">
        <ele>781.2</ele>
        <time>2020-03-26T19:30:31Z</time>
      </trkpt>
      <trkpt lat="42.9433780" lon="-1.4684280">
        <ele>781.7</ele>
        <time>2020-03-26T19:30:33Z</time>
      </trkpt>
      <trkpt lat="42.9433250" lon="-1.4684490">
        <ele>782.0</ele>
        <time>2020-03-26T19:30:35Z</time>
      </trkpt>
      <trkpt lat="42.9432180" lon="-1.4684780">
        <ele>782.8</ele>
        <time>2020-03-26T19:30:37Z</time>
      </trkpt>
      <trkpt lat="42.9431640" lon="-1.4684810">
        <ele>783.1</ele>
        <time>2020-03-26T19:30:39Z</time>
      </trkpt>
      <trkpt lat="42.9430600" lon="-1.4684840">
        <ele>783.7</ele>
        <time>2020-03-26T19:30:41Z</time>
      </trkpt>
      <trkpt lat="42.9430060" lon="-1.4684730">
        <ele>783.9</ele>
        <time>2020-03-26T19:30:43Z</time>
      </trkpt>
      <trkpt lat="42.9429100" lon="-1.4684530">
        <ele>784.4</ele>
        <time>2020-03-26T19:30:45Z</time>
      </trkpt>
      <trkpt lat="42.9428580" lon="-1.4684370">
        <ele>784.7</ele>
        <time>2020-03-26T19:30:47Z</time>
      </trkpt>
      <trkpt lat="42.9427730" lon="-1.4684080">
        <ele>785.1</ele>
        <time>2020-03-26T19:30:49Z</time>
      </trkpt>
      <trkpt lat="42.9427250" lon="-1.4683840">
        <ele>785.3</ele>
        <time>2020-03-26T19:30:51Z</time>
      </trkpt>
      <trkpt lat="42.9426770" lon="-1.4683600">
        <ele>785.6</ele>
        <time>2020-03-26T19:30:53Z</time>
      </trkpt>
      <trkpt lat="42.9426290" lon="-1.4683370">
        <ele>785.8</ele>
        <time>2020-03-26T19:30:55Z</time>
      </trkpt>
      <trkpt lat="42.9425150" lon="-1.4682900">
        <ele>786.6</ele>
        <time>2020-03-26T19:30:57Z</time>
      </trkpt>
      <trkpt lat="42.9424620" lon="-1.4682760">
        <ele>787.0</ele>
        <time>2020-03-26T19:30:59Z</time>
      </trkpt>
      <trkpt lat="42.9423620" lon="-1.4682570">
        <ele>787.8</ele>
        <time>2020-03-26T19:31:01Z</time>
      </trkpt>
      <trkpt lat="42.9423070" lon="-1.4682580">
        <ele>788.3</ele>
        <time>2020-03-26T19:31:03Z</time>
      </trkpt>
      <trkpt lat="42.9422530" lon="-1.4682600">
        <ele>788.8</ele>
        <time>2020-03-26T19:31:05Z</time>
      </trkpt>
      <trkpt lat="42.9421490" lon="-1.4682770">
        <ele>789.7</ele>
        <time>2020-03-26T19:31:07Z</time>
      </trkpt>
      <trkpt lat="42.9420970" lon="-1.4682960">
        <ele>790.2</ele>
        <time>2020-03-26T19:31:09Z</time>
      </trkpt>
      <trkpt lat="42.9420240" lon="-1.4683620">
        <ele>790.8</ele>
        <time>2020-03-26T19:31:11Z</time>
      </trkpt>
      <trkpt lat="42.9419870" lon="-1.4684160">
        <ele>791.2</ele>
        <time>2020-03-26T19:31:13Z</time>
      </trkpt>
      <trkpt lat="42.9419290" lon="-1.4685270">
        <ele>791.8</ele>
        <time>2020-03-26T19:31:15Z</time>
      </trkpt>
      <trkpt lat="42.9419100" lon="-1.4686320">
        <ele>792.2</ele>
        <time>2020-03-26T19:31:17Z</time>
      </trkpt>
      <trkpt lat="42.9419080" lon="-1.4687100">
        <ele>792.5</ele>
        <time>2020-03-26T19:31:19Z</time>
      </trkpt>
      <trkpt lat="42.9419070" lon="-1.4687910">
        <ele>792.8</ele>
        <time>2020-03-26T19:31:21Z</time>
      </trkpt>
      <trkpt lat="42.9419050" lon="-1.4688710">
        <ele>793.1</ele>
        <time>2020-03-26T19:31:23Z</time>
      </trkpt>
      <trkpt lat="42.9419040" lon="-1.4689510">
        <ele>793.4</ele>
        <time>2020-03-26T19:31:25Z</time>
      </trkpt>
      <trkpt lat="42.9419030" lon="-1.4690290">
        <ele>793.7</ele>
        <time>2020-03-26T19:31:27Z</time>
      </trkpt>
      <trkpt lat="42.9418930" lon="-1.4692710">
        <ele>794.7</ele>
        <time>2020-03-26T19:31:29Z</time>
      </trkpt>
      <trkpt lat="42.9418840" lon="-1.4693460">
        <ele>794.9</ele>
        <time>2020-03-26T19:31:31Z</time>
      </trkpt>
      <trkpt lat="42.9418750" lon="-1.4694220">
        <ele>795.2</ele>
        <time>2020-03-26T19:31:33Z</time>
      </trkpt>
      <trkpt lat="42.9418470" lon="-1.4695640">
        <ele>795.9</ele>
        <time>2020-03-26T19:31:35Z</time>
      </trkpt>
      <trkpt lat="42.9418280" lon="-1.4696330">
        <ele>796.3</ele>
        <time>2020-03-26T19:31:37Z</time>
      </trkpt>
      <trkpt lat="42.9418080" lon="-1.4697020">
        <ele>796.7</ele>
        <time>2020-03-26T19:31:39Z</time>
      </trkpt>
      <trkpt lat="42.9417610" lon="-1.4698580">
        <ele>798.0</ele>
        <time>2020-03-26T19:31:41Z</time>
      </trkpt>
      <trkpt lat="42.9417320" lon="-1.4699380">
        <ele>798.7</ele>
        <time>2020-03-26T19:31:43Z</time>
      </trkpt>
      <trkpt lat="42.9416990" lon="-1.4700320">
        <ele>799.6</ele>
        <time>2020-03-26T19:31:45Z</time>
      </trkpt>
      <trkpt lat="42.9416620" lon="-1.4701320">
        <ele>800.4</ele>
        <time>2020-03-26T19:31:47Z</time>
      </trkpt>
      <trkpt lat="42.9415870" lon="-1.4703690">
        <ele>801.5</ele>
        <time>2020-03-26T19:31:49Z</time>
      </trkpt>
      <trkpt lat="42.9415750" lon="-1.4705470">
        <ele>801.8</ele>
        <time>2020-03-26T19:31:51Z</time>
      </trkpt>
      <trkpt lat="42.9416130" lon="-1.4706910">
        <ele>801.3</ele>
        <time>2020-03-26T19:31:53Z</time>
      </trkpt>
      <trkpt lat="42.9417310" lon="-1.4708140">
        <ele>800.6</ele>
        <time>2020-03-26T19:31:55Z</time>
      </trkpt>
      <trkpt lat="42.9418650" lon="-1.4708530">
        <ele>799.8</ele>
        <time>2020-03-26T19:31:57Z</time>
      </trkpt>
      <trkpt lat="42.9420180" lon="-1.4708720">
        <ele>799.0</ele>
        <time>2020-03-26T19:31:59Z</time>
      </trkpt>
      <trkpt lat="42.9421420" lon="-1.4708780">
        <ele>798.4</ele>
        <time>2020-03-26T19:32:01Z</time>
      </trkpt>
      <trkpt lat="42.9423490" lon="-1.4708770">
        <ele>797.2</ele>
        <time>2020-03-26T19:32:03Z</time>
      </trkpt>
      <trkpt lat="42.9425620" lon="-1.4708520">
        <ele>795.6</ele>
        <time>2020-03-26T19:32:05Z</time>
      </trkpt>
      <trkpt lat="42.9427720" lon="-1.4707990">
        <ele>794.1</ele>
        <time>2020-03-26T19:32:07Z</time>
      </trkpt>
      <trkpt lat="42.9429560" lon="-1.4707370">
        <ele>792.9</ele>
        <time>2020-03-26T19:32:09Z</time>
      </trkpt>
      <trkpt lat="42.9431220" lon="-1.4706760">
        <ele>791.9</ele>
        <time>2020-03-26T19:32:11Z</time>
      </trkpt>
      <trkpt lat="42.9434420" lon="-1.4706110">
        <ele>789.9</ele>
        <time>2020-03-26T19:32:13Z</time>
      </trkpt>
      <trkpt lat="42.9436890" lon="-1.4706610">
        <ele>788.5</ele>
        <time>2020-03-26T19:32:15Z</time>
      </trkpt>
      <trkpt lat="42.9439410" lon="-1.4707870">
        <ele>786.9</ele>
        <time>2020-03-26T19:32:17Z</time>
      </trkpt>
      <trkpt lat="42.9441140" lon="-1.4708910">
        <ele>785.7</ele>
        <time>2020-03-26T19:32:19Z</time>
      </trkpt>
      <trkpt lat="42.9444340" lon="-1.4710560">
        <ele>783.8</ele>
        <time>2020-03-26T19:32:21Z</time>
      </trkpt>
      <trkpt lat="42.9446690" lon="-1.4709460">
        <ele>782.3</ele>
        <time>2020-03-26T19:32:23Z</time>
      </trkpt>
      <trkpt lat="42.9448330" lon="-1.4707260">
        <ele>781.0</ele>
        <time>2020-03-26T19:32:25Z</time>
      </trkpt>
      <trkpt lat="42.9449960" lon="-1.4704190">
        <ele>779.5</ele>
        <time>2020-03-26T19:32:27Z</time>
      </trkpt>
      <trkpt lat="42.9451420" lon="-1.4702560">
        <ele>778.2</ele>
        <time>2020-03-26T19:32:29Z</time>
      </trkpt>
      <trkpt lat="42.9454010" lon="-1.4699910">
        <ele>776.2</ele>
        <time>2020-03-26T19:32:31Z</time>
      </trkpt>
      <trkpt lat="42.9456470" lon="-1.4699540">
        <ele>774.9</ele>
        <time>2020-03-26T19:32:33Z</time>
      </trkpt>
      <trkpt lat="42.9458420" lon="-1.4699970">
        <ele>774.0</ele>
        <time>2020-03-26T19:32:35Z</time>
      </trkpt>
      <trkpt lat="42.9461970" lon="-1.4700740">
        <ele>771.7</ele>
        <time>2020-03-26T19:32:37Z</time>
      </trkpt>
      <trkpt lat="42.9464580" lon="-1.4700400">
        <ele>769.5</ele>
        <time>2020-03-26T19:32:39Z</time>
      </trkpt>
      <trkpt lat="42.9466490" lon="-1.4699270">
        <ele>767.8</ele>
        <time>2020-03-26T19:32:41Z</time>
      </trkpt>
      <trkpt lat="42.9468450" lon="-1.4698120">
        <ele>766.2</ele>
        <time>2020-03-26T19:32:43Z</time>
      </trkpt>
      <trkpt lat="42.9472840" lon="-1.4696100">
        <ele>763.3</ele>
        <time>2020-03-26T19:32:45Z</time>
      </trkpt>
      <trkpt lat="42.9475150" lon="-1.4697180">
        <ele>762.1</ele>
        <time>2020-03-26T19:32:47Z</time>
      </trkpt>
      <trkpt lat="42.9476270" lon="-1.4700590">
        <ele>760.6</ele>
        <time>2020-03-26T19:32:49Z</time>
      </trkpt>
      <trkpt lat="42.9476290" lon="-1.4704970">
        <ele>758.8</ele>
        <time>2020-03-26T19:32:51Z</time>
      </trkpt>
      <trkpt lat="42.9475900" lon="-1.4708000">
        <ele>757.6</ele>
        <time>2020-03-26T19:32:53Z</time>
      </trkpt>
      <trkpt lat="42.9475160" lon="-1.4713700">
        <ele>753.5</ele>
        <time>2020-03-26T19:32:55Z</time>
      </trkpt>
      <trkpt lat="42.9474350" lon="-1.4716840">
        <ele>751.3</ele>
        <time>2020-03-26T19:32:57Z</time>
      </trkpt>
      <trkpt lat="42.9473130" lon="-1.4721130">
        <ele>749.4</ele>
        <time>2020-03-26T19:32:59Z</time>
      </trkpt>
      <trkpt lat="42.9471470" lon="-1.4724990">
        <ele>748.3</ele>
        <time>2020-03-26T19:33:01Z</time>
      </trkpt>
      <trkpt lat="42.9469290" lon="-1.4728460">
        <ele>747.0</ele>
        <time>2020-03-26T19:33:03Z</time>
      </trkpt>
      <trkpt lat="42.9469300" lon="-1.4732290">
        <ele>745.3</ele>
        <time>2020-03-26T19:33:05Z</time>
      </trkpt>
      <trkpt lat="42.9470350" lon="-1.4736100">
        <ele>742.8</ele>
        <time>2020-03-26T19:33:07Z</time>
      </trkpt>
      <trkpt lat="42.9469530" lon="-1.4739720">
        <ele>740.5</ele>
        <time>2020-03-26T19:33:09Z</time>
      </trkpt>
      <trkpt lat="42.9467600" lon="-1.4743190">
        <ele>738.1</ele>
        <time>2020-03-26T19:33:11Z</time>
      </trkpt>
      <trkpt lat="42.9466020" lon="-1.4745590">
        <ele>737.0</ele>
        <time>2020-03-26T19:33:13Z</time>
      </trkpt>
      <trkpt lat="42.9464890" lon="-1.4750480">
        <ele>734.8</ele>
        <time>2020-03-26T19:33:15Z</time>
      </trkpt>
      <trkpt lat="42.9465780" lon="-1.4755160">
        <ele>732.2</ele>
        <time>2020-03-26T19:33:17Z</time>
      </trkpt>
      <trkpt lat="42.9464800" lon="-1.4758590">
        <ele>729.7</ele>
        <time>2020-03-26T19:33:19Z</time>
      </trkpt>
      <trkpt lat="42.9462280" lon="-1.4761960">
        <ele>727.0</ele>
        <time>2020-03-26T19:33:21Z</time>
      </trkpt>
      <trkpt lat="42.9459300" lon="-1.4764360">
        <ele>725.4</ele>
        <time>2020-03-26T19:33:23Z</time>
      </trkpt>
      <trkpt lat="42.9457790" lon="-1.4767770">
        <ele>723.9</ele>
        <time>2020-03-26T19:33:25Z</time>
      </trkpt>
      <trkpt lat="42.9457670" lon="-1.4771600">
        <ele>722.7</ele>
        <time>2020-03-26T19:33:27Z</time>
      </trkpt>
      <trkpt lat="42.9458380" lon="-1.4777110">
        <ele>721.2</ele>
        <time>2020-03-26T19:33:29Z</time>
      </trkpt>
      <trkpt lat="42.9461210" lon="-1.4779790">
        <ele>719.0</ele>
        <time>2020-03-26T19:33:31Z</time>
      </trkpt>
      <trkpt lat="42.9464630" lon="-1.4780730">
        <ele>716.9</ele>
        <time>2020-03-26T19:33:33Z</time>
      </trkpt>
      <trkpt lat="42.9464930" lon="-1.4783720">
        <ele>713.4</ele>
        <time>2020-03-26T19:33:35Z</time>
      </trkpt>
      <trkpt lat="42.9461870" lon="-1.4782430">
        <ele>714.5</ele>
        <time>2020-03-26T19:33:37Z</time>
      </trkpt>
      <trkpt lat="42.9459890" lon="-1.4781050">
        <ele>715.6</ele>
        <time>2020-03-26T19:33:39Z</time>
      </trkpt>
      <trkpt lat="42.9456770" lon="-1.4778740">
        <ele>716.5</ele>
        <time>2020-03-26T19:33:41Z</time>
      </trkpt>
      <trkpt lat="42.9455490" lon="-1.4776260">
        <ele>715.6</ele>
        <time>2020-03-26T19:33:43Z</time>
      </trkpt>
      <trkpt lat="42.9455180" lon="-1.4773440">
        <ele>714.4</ele>
        <time>2020-03-26T19:33:45Z</time>
      </trkpt>
      <trkpt lat="42.9455240" lon="-1.4770310">
        <ele>712.8</ele>
        <time>2020-03-26T19:33:47Z</time>
      </trkpt>
      <trkpt lat="42.9454030" lon="-1.4769060">
        <ele>711.5</ele>
        <time>2020-03-26T19:33:49Z</time>
      </trkpt>
      <trkpt lat="42.9453310" lon="-1.4770710">
        <ele>710.5</ele>
        <time>2020-03-26T19:33:51Z</time>
      </trkpt>
      <trkpt lat="42.9452930" lon="-1.4773620">
        <ele>709.2</ele>
        <time>2020-03-26T19:33:53Z</time>
      </trkpt>
      <trkpt lat="42.9453340" lon="-1.4776080">
        <ele>708.3</ele>
        <time>2020-03-26T19:33:55Z</time>
      </trkpt>
      <trkpt lat="42.9454220" lon="-1.4778560">
        <ele>707.7</ele>
        <time>2020-03-26T19:33:57Z</time>
      </trkpt>
      <trkpt lat="42.9455740" lon="-1.4781360">
        <ele>707.0</ele>
        <time>2020-03-26T19:33:59Z</time>
      </trkpt>
      <trkpt lat="42.9457550" lon="-1.4783010">
        <ele>706.2</ele>
        <time>2020-03-26T19:34:01Z</time>
      </trkpt>
      <trkpt lat="42.9458870" lon="-1.4784100">
        <ele>705.6</ele>
        <time>2020-03-26T19:34:03Z</time>
      </trkpt>
      <trkpt lat="42.9460150" lon="-1.4785140">
        <ele>705.1</ele>
        <time>2020-03-26T19:34:05Z</time>
      </trkpt>
      <trkpt lat="42.9461380" lon="-1.4786150">
        <ele>704.8</ele>
        <time>2020-03-26T19:34:07Z</time>
      </trkpt>
      <trkpt lat="42.9464430" lon="-1.4787980">
        <ele>704.3</ele>
        <time>2020-03-26T19:34:09Z</time>
      </trkpt>
      <trkpt lat="42.9466410" lon="-1.4788090">
        <ele>703.8</ele>
        <time>2020-03-26T19:34:11Z</time>
      </trkpt>
      <trkpt lat="42.9469060" lon="-1.4788690">
        <ele>702.3</ele>
        <time>2020-03-26T19:34:13Z</time>
      </trkpt>
      <trkpt lat="42.9470770" lon="-1.4790170">
        <ele>700.7</ele>
        <time>2020-03-26T19:34:15Z</time>
      </trkpt>
      <trkpt lat="42.9473260" lon="-1.4791750">
        <ele>698.8</ele>
        <time>2020-03-26T19:34:17Z</time>
      </trkpt>
      <trkpt lat="42.9475610" lon="-1.4791450">
        <ele>697.8</ele>
        <time>2020-03-26T19:34:19Z</time>
      </trkpt>
      <trkpt lat="42.9477290" lon="-1.4789630">
        <ele>697.0</ele>
        <time>2020-03-26T19:34:21Z</time>
      </trkpt>
      <trkpt lat="42.9479830" lon="-1.4787240">
        <ele>695.4</ele>
        <time>2020-03-26T19:34:23Z</time>
      </trkpt>
      <trkpt lat="42.9481960" lon="-1.4787330">
        <ele>694.1</ele>
        <time>2020-03-26T19:34:25Z</time>
      </trkpt>
      <trkpt lat="42.9484540" lon="-1.4788160">
        <ele>692.4</ele>
        <time>2020-03-26T19:34:27Z</time>
      </trkpt>
      <trkpt lat="42.9486160" lon="-1.4786600">
        <ele>691.1</ele>
        <time>2020-03-26T19:34:29Z</time>
      </trkpt>
      <trkpt lat="42.9487070" lon="-1.4784810">
        <ele>690.2</ele>
        <time>2020-03-26T19:34:31Z</time>
      </trkpt>
      <trkpt lat="42.9488870" lon="-1.4782070">
        <ele>689.0</ele>
        <time>2020-03-26T19:34:33Z</time>
      </trkpt>
      <trkpt lat="42.9490170" lon="-1.4780740">
        <ele>688.3</ele>
        <time>2020-03-26T19:34:35Z</time>
      </trkpt>
      <trkpt lat="42.9491490" lon="-1.4779400">
        <ele>687.6</ele>
        <time>2020-03-26T19:34:37Z</time>
      </trkpt>
      <trkpt lat="42.9494510" lon="-1.4776350">
        <ele>685.1</ele>
        <time>2020-03-26T19:34:39Z</time>
      </trkpt>
      <trkpt lat="42.9496550" lon="-1.4777450">
        <ele>683.7</ele>
        <time>2020-03-26T19:34:41Z</time>
      </trkpt>
      <trkpt lat="42.9496790" lon="-1.4780410">
        <ele>682.6</ele>
        <time>2020-03-26T19:34:43Z</time>
      </trkpt>
      <trkpt lat="42.9496730" lon="-1.4783050">
        <ele>681.6</ele>
        <time>2020-03-26T19:34:45Z</time>
      </trkpt>
      <trkpt lat="42.9497100" lon="-1.4787920">
        <ele>680.1</ele>
        <time>2020-03-26T19:34:47Z</time>
      </trkpt>
      <trkpt lat="42.9498390" lon="-1.4790620">
        <ele>679.1</ele>
        <time>2020-03-26T19:34:49Z</time>
      </trkpt>
      <trkpt lat="42.9499360" lon="-1.4794700">
        <ele>677.5</ele>
        <time>2020-03-26T19:34:51Z</time>
      </trkpt>
      <trkpt lat="42.9499130" lon="-1.4799080">
        <ele>675.8</ele>
        <time>2020-03-26T19:34:53Z</time>
      </trkpt>
      <trkpt lat="42.9499930" lon="-1.4803130">
        <ele>674.0</ele>
        <time>2020-03-26T19:34:55Z</time>
      </trkpt>
      <trkpt lat="42.9499430" lon="-1.4807160">
        <ele>671.4</ele>
        <time>2020-03-26T19:34:57Z</time>
      </trkpt>
      <trkpt lat="42.9498430" lon="-1.4810140">
        <ele>668.8</ele>
        <time>2020-03-26T19:34:59Z</time>
      </trkpt>
      <trkpt lat="42.9496840" lon="-1.4814890">
        <ele>665.1</ele>
        <time>2020-03-26T19:35:01Z</time>
      </trkpt>
      <trkpt lat="42.9495050" lon="-1.4819600">
        <ele>661.3</ele>
        <time>2020-03-26T19:35:03Z</time>
      </trkpt>
      <trkpt lat="42.9492310" lon="-1.4822880">
        <ele>659.1</ele>
        <time>2020-03-26T19:35:05Z</time>
      </trkpt>
      <trkpt lat="42.9489580" lon="-1.4826140">
        <ele>656.6</ele>
        <time>2020-03-26T19:35:07Z</time>
      </trkpt>
      <trkpt lat="42.9489050" lon="-1.4830300">
        <ele>652.5</ele>
        <time>2020-03-26T19:35:09Z</time>
      </trkpt>
      <trkpt lat="42.9489500" lon="-1.4835520">
        <ele>647.8</ele>
        <time>2020-03-26T19:35:11Z</time>
      </trkpt>
      <trkpt lat="42.9486950" lon="-1.4838300">
        <ele>645.3</ele>
        <time>2020-03-26T19:35:13Z</time>
      </trkpt>
      <trkpt lat="42.9483850" lon="-1.4838970">
        <ele>643.3</ele>
        <time>2020-03-26T19:35:15Z</time>
      </trkpt>
      <trkpt lat="42.9481040" lon="-1.4839900">
        <ele>642.0</ele>
        <time>2020-03-26T19:35:17Z</time>
      </trkpt>
      <trkpt lat="42.9477710" lon="-1.4842470">
        <ele>640.3</ele>
        <time>2020-03-26T19:35:19Z</time>
      </trkpt>
      <trkpt lat="42.9475870" lon="-1.4846440">
        <ele>637.7</ele>
        <time>2020-03-26T19:35:21Z</time>
      </trkpt>
      <trkpt lat="42.9475980" lon="-1.4850540">
        <ele>634.8</ele>
        <time>2020-03-26T19:35:23Z</time>
      </trkpt>
      <trkpt lat="42.9478780" lon="-1.4850800">
        <ele>632.3</ele>
        <time>2020-03-26T19:35:25Z</time>
      </trkpt>
      <trkpt lat="42.9481970" lon="-1.4852140">
        <ele>629.6</ele>
        <time>2020-03-26T19:35:27Z</time>
      </trkpt>
      <trkpt lat="42.9482440" lon="-1.4856500">
        <ele>626.8</ele>
        <time>2020-03-26T19:35:29Z</time>
      </trkpt>
      <trkpt lat="42.9481270" lon="-1.4859480">
        <ele>624.7</ele>
        <time>2020-03-26T19:35:31Z</time>
      </trkpt>
      <trkpt lat="42.9479680" lon="-1.4863790">
        <ele>622.0</ele>
        <time>2020-03-26T19:35:33Z</time>
      </trkpt>
      <trkpt lat="42.9477210" lon="-1.4867080">
        <ele>619.7</ele>
        <time>2020-03-26T19:35:35Z</time>
      </trkpt>
      <trkpt lat="42.9474420" lon="-1.4865980">
        <ele>617.6</ele>
        <time>2020-03-26T19:35:37Z</time>
      </trkpt>
      <trkpt lat="42.9471130" lon="-1.4864180">
        <ele>615.1</ele>
        <time>2020-03-26T19:35:39Z</time>
      </trkpt>
      <trkpt lat="42.9468240" lon="-1.4865350">
        <ele>613.5</ele>
        <time>2020-03-26T19:35:41Z</time>
      </trkpt>
      <trkpt lat="42.9465950" lon="-1.4868330">
        <ele>611.5</ele>
        <time>2020-03-26T19:35:43Z</time>
      </trkpt>
      <trkpt lat="42.9464430" lon="-1.4871860">
        <ele>609.0</ele>
        <time>2020-03-26T19:35:45Z</time>
      </trkpt>
      <trkpt lat="42.9462700" lon="-1.4875290">
        <ele>606.1</ele>
        <time>2020-03-26T19:35:47Z</time>
      </trkpt>
      <trkpt lat="42.9460610" lon="-1.4878380">
        <ele>603.9</ele>
        <time>2020-03-26T19:35:49Z</time>
      </trkpt>
      <trkpt lat="42.9458800" lon="-1.4881920">
        <ele>603.5</ele>
        <time>2020-03-26T19:35:51Z</time>
      </trkpt>
      <trkpt lat="42.9460090" lon="-1.4885060">
        <ele>602.9</ele>
        <time>2020-03-26T19:35:53Z</time>
      </trkpt>
      <trkpt lat="42.9461960" lon="-1.4886010">
        <ele>602.8</ele>
        <time>2020-03-26T19:35:55Z</time>
      </trkpt>
      <trkpt lat="42.9462770" lon="-1.4889220">
        <ele>602.7</ele>
        <time>2020-03-26T19:35:57Z</time>
      </trkpt>
      <trkpt lat="42.9460500" lon="-1.4890350">
        <ele>602.7</ele>
        <time>2020-03-26T19:35:59Z</time>
      </trkpt>
      <trkpt lat="42.9458280" lon="-1.4891040">
        <ele>600.2</ele>
        <time>2020-03-26T19:36:01Z</time>
      </trkpt>
      <trkpt lat="42.9454570" lon="-1.4893630">
        <ele>592.4</ele>
        <time>2020-03-26T19:36:03Z</time>
      </trkpt>
      <trkpt lat="42.9455070" lon="-1.4897760">
        <ele>592.2</ele>
        <time>2020-03-26T19:36:05Z</time>
      </trkpt>
      <trkpt lat="42.9456090" lon="-1.4901490">
        <ele>592.1</ele>
        <time>2020-03-26T19:36:07Z</time>
      </trkpt>
      <trkpt lat="42.9457070" lon="-1.4904660">
        <ele>592.1</ele>
        <time>2020-03-26T19:36:09Z</time>
      </trkpt>
      <trkpt lat="42.9457090" lon="-1.4908330">
        <ele>590.8</ele>
        <time>2020-03-26T19:36:11Z</time>
      </trkpt>
      <trkpt lat="42.9455830" lon="-1.4910990">
        <ele>589.4</ele>
        <time>2020-03-26T19:36:13Z</time>
      </trkpt>
      <trkpt lat="42.9454740" lon="-1.4912880">
        <ele>588.8</ele>
        <time>2020-03-26T19:36:15Z</time>
      </trkpt>
      <trkpt lat="42.9452860" lon="-1.4916300">
        <ele>588.1</ele>
        <time>2020-03-26T19:36:17Z</time>
      </trkpt>
      <trkpt lat="42.9452050" lon="-1.4918430">
        <ele>587.6</ele>
        <time>2020-03-26T19:36:19Z</time>
      </trkpt>
      <trkpt lat="42.9451200" lon="-1.4920660">
        <ele>586.5</ele>
        <time>2020-03-26T19:36:21Z</time>
      </trkpt>
      <trkpt lat="42.9449350" lon="-1.4925470">
        <ele>583.8</ele>
        <time>2020-03-26T19:36:23Z</time>
      </trkpt>
      <trkpt lat="42.9447180" lon="-1.4927640">
        <ele>582.7</ele>
        <time>2020-03-26T19:36:25Z</time>
      </trkpt>
      <trkpt lat="42.9445210" lon="-1.4928720">
        <ele>582.1</ele>
        <time>2020-03-26T19:36:27Z</time>
      </trkpt>
      <trkpt lat="42.9442080" lon="-1.4930480">
        <ele>580.3</ele>
        <time>2020-03-26T19:36:29Z</time>
      </trkpt>
      <trkpt lat="42.9439990" lon="-1.4932860">
        <ele>578.5</ele>
        <time>2020-03-26T19:36:31Z</time>
      </trkpt>
      <trkpt lat="42.9439080" lon="-1.4936200">
        <ele>577.1</ele>
        <time>2020-03-26T19:36:33Z</time>
      </trkpt>
      <trkpt lat="42.9438520" lon="-1.4940580">
        <ele>575.9</ele>
        <time>2020-03-26T19:36:35Z</time>
      </trkpt>
      <trkpt lat="42.9436820" lon="-1.4943490">
        <ele>574.8</ele>
        <time>2020-03-26T19:36:37Z</time>
      </trkpt>
      <trkpt lat="42.9434480" lon="-1.4945940">
        <ele>573.3</ele>
        <time>2020-03-26T19:36:39Z</time>
      </trkpt>
      <trkpt lat="42.9432560" lon="-1.4947400">
        <ele>572.5</ele>
        <time>2020-03-26T19:36:41Z</time>
      </trkpt>
      <trkpt lat="42.9430250" lon="-1.4948080">
        <ele>571.9</ele>
        <time>2020-03-26T19:36:43Z</time>
      </trkpt>
      <trkpt lat="42.9427530" lon="-1.4948280">
        <ele>571.4</ele>
        <time>2020-03-26T19:36:45Z</time>
      </trkpt>
      <trkpt lat="42.9425800" lon="-1.4948070">
        <ele>571.1</ele>
        <time>2020-03-26T19:36:47Z</time>
      </trkpt>
      <trkpt lat="42.9424140" lon="-1.4947880">
        <ele>570.8</ele>
        <time>2020-03-26T19:36:49Z</time>
      </trkpt>
      <trkpt lat="42.9420810" lon="-1.4947910">
        <ele>570.3</ele>
        <time>2020-03-26T19:36:51Z</time>
      </trkpt>
      <trkpt lat="42.9419240" lon="-1.4948380">
        <ele>570.2</ele>
        <time>2020-03-26T19:36:53Z</time>
      </trkpt>
      <trkpt lat="42.9417680" lon="-1.4948860">
        <ele>570.1</ele>
        <time>2020-03-26T19:36:55Z</time>
      </trkpt>
      <trkpt lat="42.9416090" lon="-1.4949340">
        <ele>569.8</ele>
        <time>2020-03-26T19:36:57Z</time>
      </trkpt>
      <trkpt lat="42.9412140" lon="-1.4950420">
        <ele>568.2</ele>
        <time>2020-03-26T19:36:59Z</time>
      </trkpt>
      <trkpt lat="42.9410340" lon="-1.4950460">
        <ele>567.5</ele>
        <time>2020-03-26T19:37:01Z</time>
      </trkpt>
      <trkpt lat="42.9408410" lon="-1.4950500">
        <ele>566.8</ele>
        <time>2020-03-26T19:37:03Z</time>
      </trkpt>
      <trkpt lat="42.9404510" lon="-1.4951960">
        <ele>563.6</ele>
        <time>2020-03-26T19:37:05Z</time>
      </trkpt>
      <trkpt lat="42.9403340" lon="-1.4954580">
        <ele>561.2</ele>
        <time>2020-03-26T19:37:07Z</time>
      </trkpt>
      <trkpt lat="42.9402000" lon="-1.4958160">
        <ele>559.6</ele>
        <time>2020-03-26T19:37:09Z</time>
      </trkpt>
      <trkpt lat="42.9400300" lon="-1.4961180">
        <ele>559.1</ele>
        <time>2020-03-26T19:37:11Z</time>
      </trkpt>
      <trkpt lat="42.9398960" lon="-1.4963080">
        <ele>558.9</ele>
        <time>2020-03-26T19:37:13Z</time>
      </trkpt>
      <trkpt lat="42.9397690" lon="-1.4964870">
        <ele>558.6</ele>
        <time>2020-03-26T19:37:15Z</time>
      </trkpt>
      <trkpt lat="42.9394960" lon="-1.4968730">
        <ele>557.3</ele>
        <time>2020-03-26T19:37:17Z</time>
      </trkpt>
      <trkpt lat="42.9393660" lon="-1.4970570">
        <ele>556.0</ele>
        <time>2020-03-26T19:37:19Z</time>
      </trkpt>
      <trkpt lat="42.9392310" lon="-1.4972480">
        <ele>554.7</ele>
        <time>2020-03-26T19:37:21Z</time>
      </trkpt>
      <trkpt lat="42.9389350" lon="-1.4976680">
        <ele>551.5</ele>
        <time>2020-03-26T19:37:23Z</time>
      </trkpt>
      <trkpt lat="42.9387240" lon="-1.4979770">
        <ele>548.0</ele>
        <time>2020-03-26T19:37:25Z</time>
      </trkpt>
      <trkpt lat="42.9386000" lon="-1.4982110">
        <ele>546.3</ele>
        <time>2020-03-26T19:37:27Z</time>
      </trkpt>
      <trkpt lat="42.9384200" lon="-1.4985540">
        <ele>544.7</ele>
        <time>2020-03-26T19:37:29Z</time>
      </trkpt>
      <trkpt lat="42.9382950" lon="-1.4987910">
        <ele>543.6</ele>
        <time>2020-03-26T19:37:31Z</time>
      </trkpt>
      <trkpt lat="42.9380500" lon="-1.4992560">
        <ele>542.3</ele>
        <time>2020-03-26T19:37:33Z</time>
      </trkpt>
      <trkpt lat="42.9379240" lon="-1.4994940">
        <ele>541.7</ele>
        <time>2020-03-26T19:37:35Z</time>
      </trkpt>
      <trkpt lat="42.9378010" lon="-1.4997300">
        <ele>541.3</ele>
        <time>2020-03-26T19:37:37Z</time>
      </trkpt>
      <trkpt lat="42.9375570" lon="-1.5001920">
        <ele>539.8</ele>
        <time>2020-03-26T19:37:39Z</time>
      </trkpt>
      <trkpt lat="42.9374340" lon="-1.5004250">
        <ele>538.1</ele>
        <time>2020-03-26T19:37:41Z</time>
      </trkpt>
      <trkpt lat="42.9371910" lon="-1.5008870">
        <ele>535.9</ele>
        <time>2020-03-26T19:37:43Z</time>
      </trkpt>
      <trkpt lat="42.9370670" lon="-1.5011240">
        <ele>534.9</ele>
        <time>2020-03-26T19:37:45Z</time>
      </trkpt>
      <trkpt lat="42.9368940" lon="-1.5014540">
        <ele>534.2</ele>
        <time>2020-03-26T19:37:47Z</time>
      </trkpt>
      <trkpt lat="42.9366900" lon="-1.5018450">
        <ele>533.3</ele>
        <time>2020-03-26T19:37:49Z</time>
      </trkpt>
      <trkpt lat="42.9365650" lon="-1.5020770">
        <ele>532.9</ele>
        <time>2020-03-26T19:37:51Z</time>
      </trkpt>
      <trkpt lat="42.9363920" lon="-1.5024060">
        <ele>531.8</ele>
        <time>2020-03-26T19:37:53Z</time>
      </trkpt>
      <trkpt lat="42.9362190" lon="-1.5027220">
        <ele>531.3</ele>
        <time>2020-03-26T19:37:55Z</time>
      </trkpt>
      <trkpt lat="42.9360310" lon="-1.5030360">
        <ele>531.8</ele>
        <time>2020-03-26T19:37:57Z</time>
      </trkpt>
      <trkpt lat="42.9358210" lon="-1.5032250">
        <ele>532.5</ele>
        <time>2020-03-26T19:37:59Z</time>
      </trkpt>
      <trkpt lat="42.9356160" lon="-1.5033220">
        <ele>532.8</ele>
        <time>2020-03-26T19:38:01Z</time>
      </trkpt>
      <trkpt lat="42.9354510" lon="-1.5033720">
        <ele>532.7</ele>
        <time>2020-03-26T19:38:03Z</time>
      </trkpt>
      <trkpt lat="42.9351950" lon="-1.5034420">
        <ele>532.5</ele>
        <time>2020-03-26T19:38:05Z</time>
      </trkpt>
      <trkpt lat="42.9350410" lon="-1.5034780">
        <ele>532.2</ele>
        <time>2020-03-26T19:38:07Z</time>
      </trkpt>
      <trkpt lat="42.9348940" lon="-1.5035130">
        <ele>531.7</ele>
        <time>2020-03-26T19:38:09Z</time>
      </trkpt>
      <trkpt lat="42.9345520" lon="-1.5035920">
        <ele>530.8</ele>
        <time>2020-03-26T19:38:11Z</time>
      </trkpt>
      <trkpt lat="42.9343690" lon="-1.5036350">
        <ele>530.4</ele>
        <time>2020-03-26T19:38:13Z</time>
      </trkpt>
      <trkpt lat="42.9341580" lon="-1.5036820">
        <ele>529.8</ele>
        <time>2020-03-26T19:38:15Z</time>
      </trkpt>
      <trkpt lat="42.9339410" lon="-1.5037330">
        <ele>529.1</ele>
        <time>2020-03-26T19:38:17Z</time>
      </trkpt>
      <trkpt lat="42.9337570" lon="-1.5037750">
        <ele>528.6</ele>
        <time>2020-03-26T19:38:19Z</time>
      </trkpt>
      <trkpt lat="42.9335660" lon="-1.5038190">
        <ele>528.3</ele>
        <time>2020-03-26T19:38:21Z</time>
      </trkpt>
      <trkpt lat="42.9333370" lon="-1.5038720">
        <ele>528.1</ele>
        <time>2020-03-26T19:38:23Z</time>
      </trkpt>
      <trkpt lat="42.9330870" lon="-1.5039300">
        <ele>528.1</ele>
        <time>2020-03-26T19:38:25Z</time>
      </trkpt>
      <trkpt lat="42.9328830" lon="-1.5039780">
        <ele>528.1</ele>
        <time>2020-03-26T19:38:27Z</time>
      </trkpt>
      <trkpt lat="42.9326500" lon="-1.5040310">
        <ele>528.1</ele>
        <time>2020-03-26T19:38:29Z</time>
      </trkpt>
      <trkpt lat="42.9324910" lon="-1.5040680">
        <ele>528.0</ele>
        <time>2020-03-26T19:38:31Z</time>
      </trkpt>
      <trkpt lat="42.9322450" lon="-1.5041250">
        <ele>528.0</ele>
        <time>2020-03-26T19:38:33Z</time>
      </trkpt>
      <trkpt lat="42.9320570" lon="-1.5041670">
        <ele>528.3</ele>
        <time>2020-03-26T19:38:35Z</time>
      </trkpt>
      <trkpt lat="42.9319150" lon="-1.5041970">
        <ele>528.5</ele>
        <time>2020-03-26T19:38:37Z</time>
      </trkpt>
      <trkpt lat="42.9316700" lon="-1.5042490">
        <ele>528.8</ele>
        <time>2020-03-26T19:38:39Z</time>
      </trkpt>
      <trkpt lat="42.9314980" lon="-1.5042900">
        <ele>529.0</ele>
        <time>2020-03-26T19:38:41Z</time>
      </trkpt>
      <trkpt lat="42.9313720" lon="-1.5043210">
        <ele>529.2</ele>
        <time>2020-03-26T19:38:43Z</time>
      </trkpt>
      <trkpt lat="42.9311240" lon="-1.5043830">
        <ele>529.8</ele>
        <time>2020-03-26T19:38:45Z</time>
      </trkpt>
      <trkpt lat="42.9309620" lon="-1.5044240">
        <ele>529.9</ele>
        <time>2020-03-26T19:38:47Z</time>
      </trkpt>
      <trkpt lat="42.9308510" lon="-1.5044590">
        <ele>529.9</ele>
        <time>2020-03-26T19:38:49Z</time>
      </trkpt>
      <trkpt lat="42.9306670" lon="-1.5045190">
        <ele>529.9</ele>
        <time>2020-03-26T19:38:51Z</time>
      </trkpt>
      <trkpt lat="42.9305680" lon="-1.5045600">
        <ele>529.9</ele>
        <time>2020-03-26T19:38:53Z</time>
      </trkpt>
      <trkpt lat="42.9304730" lon="-1.5045990">
        <ele>529.9</ele>
        <time>2020-03-26T19:38:55Z</time>
      </trkpt>
      <trkpt lat="42.9302910" lon="-1.5046800">
        <ele>530.8</ele>
        <time>2020-03-26T19:38:57Z</time>
      </trkpt>
      <trkpt lat="42.9302080" lon="-1.5047260">
        <ele>531.5</ele>
        <time>2020-03-26T19:38:59Z</time>
      </trkpt>
      <trkpt lat="42.9301300" lon="-1.5047690">
        <ele>532.0</ele>
        <time>2020-03-26T19:39:01Z</time>
      </trkpt>
      <trkpt lat="42.9300530" lon="-1.5048120">
        <ele>532.4</ele>
        <time>2020-03-26T19:39:03Z</time>
      </trkpt>
      <trkpt lat="42.9299790" lon="-1.5048530">
        <ele>532.8</ele>
        <time>2020-03-26T19:39:05Z</time>
      </trkpt>
      <trkpt lat="42.9297680" lon="-1.5049690">
        <ele>533.5</ele>
        <time>2020-03-26T19:39:07Z</time>
      </trkpt>
      <trkpt lat="42.9296790" lon="-1.5050170">
        <ele>533.8</ele>
        <time>2020-03-26T19:39:09Z</time>
      </trkpt>
      <trkpt lat="42.9295130" lon="-1.5051080">
        <ele>534.2</ele>
        <time>2020-03-26T19:39:11Z</time>
      </trkpt>
      <trkpt lat="42.9293570" lon="-1.5051950">
        <ele>534.1</ele>
        <time>2020-03-26T19:39:13Z</time>
      </trkpt>
      <trkpt lat="42.9292370" lon="-1.5052640">
        <ele>533.5</ele>
        <time>2020-03-26T19:39:15Z</time>
      </trkpt>
      <trkpt lat="42.9290140" lon="-1.5053890">
        <ele>532.0</ele>
        <time>2020-03-26T19:39:17Z</time>
      </trkpt>
      <trkpt lat="42.9288140" lon="-1.5054900">
        <ele>530.7</ele>
        <time>2020-03-26T19:39:19Z</time>
      </trkpt>
      <trkpt lat="42.9286720" lon="-1.5055590">
        <ele>530.3</ele>
        <time>2020-03-26T19:39:21Z</time>
      </trkpt>
      <trkpt lat="42.9285260" lon="-1.5056300">
        <ele>529.8</ele>
        <time>2020-03-26T19:39:23Z</time>
      </trkpt>
      <trkpt lat="42.9282490" lon="-1.5057640">
        <ele>528.5</ele>
        <time>2020-03-26T19:39:25Z</time>
      </trkpt>
      <trkpt lat="42.9281010" lon="-1.5058370">
        <ele>527.9</ele>
        <time>2020-03-26T19:39:27Z</time>
      </trkpt>
      <trkpt lat="42.9278250" lon="-1.5059860">
        <ele>527.7</ele>
        <time>2020-03-26T19:39:29Z</time>
      </trkpt>
      <trkpt lat="42.9276580" lon="-1.5061140">
        <ele>527.6</ele>
        <time>2020-03-26T19:39:31Z</time>
      </trkpt>
      <trkpt lat="42.9274520" lon="-1.5062760">
        <ele>527.8</ele>
        <time>2020-03-26T19:39:33Z</time>
      </trkpt>
      <trkpt lat="42.9273320" lon="-1.5063780">
        <ele>528.0</ele>
        <time>2020-03-26T19:39:35Z</time>
      </trkpt>
      <trkpt lat="42.9272160" lon="-1.5064770">
        <ele>528.7</ele>
        <time>2020-03-26T19:39:37Z</time>
      </trkpt>
      <trkpt lat="42.9269990" lon="-1.5066610">
        <ele>530.5</ele>
        <time>2020-03-26T19:39:39Z</time>
      </trkpt>
      <trkpt lat="42.9268990" lon="-1.5067470">
        <ele>530.6</ele>
        <time>2020-03-26T19:39:41Z</time>
      </trkpt>
      <trkpt lat="42.9268080" lon="-1.5068240">
        <ele>530.7</ele>
        <time>2020-03-26T19:39:43Z</time>
      </trkpt>
      <trkpt lat="42.9267240" lon="-1.5068950">
        <ele>531.0</ele>
        <time>2020-03-26T19:39:45Z</time>
      </trkpt>
      <trkpt lat="42.9265070" lon="-1.5070810">
        <ele>532.3</ele>
        <time>2020-03-26T19:39:47Z</time>
      </trkpt>
      <trkpt lat="42.9264370" lon="-1.5071400">
        <ele>532.9</ele>
        <time>2020-03-26T19:39:49Z</time>
      </trkpt>
      <trkpt lat="42.9263730" lon="-1.5071950">
        <ele>533.6</ele>
        <time>2020-03-26T19:39:51Z</time>
      </trkpt>
      <trkpt lat="42.9263120" lon="-1.5072460">
        <ele>534.2</ele>
        <time>2020-03-26T19:39:53Z</time>
      </trkpt>
      <trkpt lat="42.9262560" lon="-1.5072940">
        <ele>534.8</ele>
        <time>2020-03-26T19:39:55Z</time>
      </trkpt>
      <trkpt lat="42.9262030" lon="-1.5073390">
        <ele>535.4</ele>
        <time>2020-03-26T19:39:57Z</time>
      </trkpt>
      <trkpt lat="42.9260110" lon="-1.5075020">
        <ele>537.2</ele>
        <time>2020-03-26T19:39:59Z</time>
      </trkpt>
      <trkpt lat="42.9259550" lon="-1.5075500">
        <ele>537.6</ele>
        <time>2020-03-26T19:40:01Z</time>
      </trkpt>
      <trkpt lat="42.9258870" lon="-1.5076080">
        <ele>538.0</ele>
        <time>2020-03-26T19:40:03Z</time>
      </trkpt>
      <trkpt lat="42.9258110" lon="-1.5076740">
        <ele>538.3</ele>
        <time>2020-03-26T19:40:05Z</time>
      </trkpt>
      <trkpt lat="42.9257260" lon="-1.5077460">
        <ele>538.5</ele>
        <time>2020-03-26T19:40:07Z</time>
      </trkpt>
      <trkpt lat="42.9256330" lon="-1.5078260">
        <ele>538.7</ele>
        <time>2020-03-26T19:40:09Z</time>
      </trkpt>
      <trkpt lat="42.9253920" lon="-1.5080260">
        <ele>537.9</ele>
        <time>2020-03-26T19:40:11Z</time>
      </trkpt>
      <trkpt lat="42.9252850" lon="-1.5081120">
        <ele>537.4</ele>
        <time>2020-03-26T19:40:13Z</time>
      </trkpt>
      <trkpt lat="42.9251740" lon="-1.5082010">
        <ele>536.6</ele>
        <time>2020-03-26T19:40:15Z</time>
      </trkpt>
      <trkpt lat="42.9249290" lon="-1.5083970">
        <ele>534.7</ele>
        <time>2020-03-26T19:40:17Z</time>
      </trkpt>
      <trkpt lat="42.9248080" lon="-1.5084940">
        <ele>533.8</ele>
        <time>2020-03-26T19:40:19Z</time>
      </trkpt>
      <trkpt lat="42.9246840" lon="-1.5085930">
        <ele>532.6</ele>
        <time>2020-03-26T19:40:21Z</time>
      </trkpt>
      <trkpt lat="42.9244260" lon="-1.5087930">
        <ele>531.2</ele>
        <time>2020-03-26T19:40:23Z</time>
      </trkpt>
      <trkpt lat="42.9242940" lon="-1.5088910">
        <ele>531.2</ele>
        <time>2020-03-26T19:40:25Z</time>
      </trkpt>
      <trkpt lat="42.9240460" lon="-1.5090730">
        <ele>531.2</ele>
        <time>2020-03-26T19:40:27Z</time>
      </trkpt>
      <trkpt lat="42.9239140" lon="-1.5091710">
        <ele>531.2</ele>
        <time>2020-03-26T19:40:29Z</time>
      </trkpt>
      <trkpt lat="42.9236740" lon="-1.5093530">
        <ele>531.2</ele>
        <time>2020-03-26T19:40:31Z</time>
      </trkpt>
      <trkpt lat="42.9235590" lon="-1.5094700">
        <ele>531.2</ele>
        <time>2020-03-26T19:40:33Z</time>
      </trkpt>
      <trkpt lat="42.9234460" lon="-1.5095850">
        <ele>531.2</ele>
        <time>2020-03-26T19:40:35Z</time>
      </trkpt>
      <trkpt lat="42.9233360" lon="-1.5096970">
        <ele>531.2</ele>
        <time>2020-03-26T19:40:37Z</time>
      </trkpt>
      <trkpt lat="42.9230960" lon="-1.5099530">
        <ele>530.8</ele>
        <time>2020-03-26T19:40:39Z</time>
      </trkpt>
      <trkpt lat="42.9229920" lon="-1.5100720">
        <ele>530.5</ele>
        <time>2020-03-26T19:40:41Z</time>
      </trkpt>
      <trkpt lat="42.9228890" lon="-1.5101900">
        <ele>530.3</ele>
        <time>2020-03-26T19:40:43Z</time>
      </trkpt>
      <trkpt lat="42.9226550" lon="-1.5104580">
        <ele>530.2</ele>
        <time>2020-03-26T19:40:45Z</time>
      </trkpt>
      <trkpt lat="42.9225360" lon="-1.5105960">
        <ele>529.9</ele>
        <time>2020-03-26T19:40:47Z</time>
      </trkpt>
      <trkpt lat="42.9224350" lon="-1.5107140">
        <ele>529.6</ele>
        <time>2020-03-26T19:40:49Z</time>
      </trkpt>
      <trkpt lat="42.9223330" lon="-1.5108330">
        <ele>529.3</ele>
        <time>2020-03-26T19:40:51Z</time>
      </trkpt>
      <trkpt lat="42.9220860" lon="-1.5111220">
        <ele>529.2</ele>
        <time>2020-03-26T19:40:53Z</time>
      </trkpt>
      <trkpt lat="42.9219830" lon="-1.5112430">
        <ele>529.2</ele>
        <time>2020-03-26T19:40:55Z</time>
      </trkpt>
      <trkpt lat="42.9218770" lon="-1.5113670">
        <ele>529.2</ele>
        <time>2020-03-26T19:40:57Z</time>
      </trkpt>
      <trkpt lat="42.9217650" lon="-1.5114970">
        <ele>529.0</ele>
        <time>2020-03-26T19:40:59Z</time>
      </trkpt>
      <trkpt lat="42.9215080" lon="-1.5118070">
        <ele>528.2</ele>
        <time>2020-03-26T19:41:01Z</time>
      </trkpt>
      <trkpt lat="42.9214010" lon="-1.5119570">
        <ele>527.8</ele>
        <time>2020-03-26T19:41:03Z</time>
      </trkpt>
      <trkpt lat="42.9212380" lon="-1.5121940">
        <ele>527.2</ele>
        <time>2020-03-26T19:41:05Z</time>
      </trkpt>
      <trkpt lat="42.9210600" lon="-1.5124620">
        <ele>526.6</ele>
        <time>2020-03-26T19:41:07Z</time>
      </trkpt>
      <trkpt lat="42.9209550" lon="-1.5126340">
        <ele>526.2</ele>
        <time>2020-03-26T19:41:09Z</time>
      </trkpt>
      <trkpt lat="42.9208480" lon="-1.5128070">
        <ele>525.9</ele>
        <time>2020-03-26T19:41:11Z</time>
      </trkpt>
      <trkpt lat="42.9206350" lon="-1.5131540">
        <ele>525.1</ele>
        <time>2020-03-26T19:41:13Z</time>
      </trkpt>
      <trkpt lat="42.9205280" lon="-1.5133290">
        <ele>524.6</ele>
        <time>2020-03-26T19:41:15Z</time>
      </trkpt>
      <trkpt lat="42.9204230" lon="-1.5135010">
        <ele>524.1</ele>
        <time>2020-03-26T19:41:17Z</time>
      </trkpt>
      <trkpt lat="42.9202130" lon="-1.5138440">
        <ele>523.0</ele>
        <time>2020-03-26T19:41:19Z</time>
      </trkpt>
      <trkpt lat="42.9201090" lon="-1.5140130">
        <ele>522.8</ele>
        <time>2020-03-26T19:41:21Z</time>
      </trkpt>
      <trkpt lat="42.9200050" lon="-1.5141830">
        <ele>522.4</ele>
        <time>2020-03-26T19:41:23Z</time>
      </trkpt>
      <trkpt lat="42.9197860" lon="-1.5145140">
        <ele>521.6</ele>
        <time>2020-03-26T19:41:25Z</time>
      </trkpt>
      <trkpt lat="42.9196700" lon="-1.5146740">
        <ele>521.2</ele>
        <time>2020-03-26T19:41:27Z</time>
      </trkpt>
      <trkpt lat="42.9195530" lon="-1.5148350">
        <ele>520.9</ele>
        <time>2020-03-26T19:41:29Z</time>
      </trkpt>
      <trkpt lat="42.9192970" lon="-1.5151890">
        <ele>520.1</ele>
        <time>2020-03-26T19:41:31Z</time>
      </trkpt>
      <trkpt lat="42.9191790" lon="-1.5153530">
        <ele>519.6</ele>
        <time>2020-03-26T19:41:33Z</time>
      </trkpt>
      <trkpt lat="42.9190590" lon="-1.5155200">
        <ele>518.9</ele>
        <time>2020-03-26T19:41:35Z</time>
      </trkpt>
      <trkpt lat="42.9187870" lon="-1.5158570">
        <ele>517.6</ele>
        <time>2020-03-26T19:41:37Z</time>
      </trkpt>
      <trkpt lat="42.9186470" lon="-1.5159800">
        <ele>517.3</ele>
        <time>2020-03-26T19:41:39Z</time>
      </trkpt>
      <trkpt lat="42.9185130" lon="-1.5160990">
        <ele>517.1</ele>
        <time>2020-03-26T19:41:41Z</time>
      </trkpt>
      <trkpt lat="42.9183820" lon="-1.5162140">
        <ele>516.9</ele>
        <time>2020-03-26T19:41:43Z</time>
      </trkpt>
      <trkpt lat="42.9180710" lon="-1.5164890">
        <ele>516.4</ele>
        <time>2020-03-26T19:41:45Z</time>
      </trkpt>
      <trkpt lat="42.9179430" lon="-1.5166020">
        <ele>516.2</ele>
        <time>2020-03-26T19:41:47Z</time>
      </trkpt>
      <trkpt lat="42.9178170" lon="-1.5167130">
        <ele>516.1</ele>
        <time>2020-03-26T19:41:49Z</time>
      </trkpt>
      <trkpt lat="42.9176920" lon="-1.5168240">
        <ele>516.0</ele>
        <time>2020-03-26T19:41:51Z</time>
      </trkpt>
      <trkpt lat="42.9173830" lon="-1.5170920">
        <ele>516.0</ele>
        <time>2020-03-26T19:41:53Z</time>
      </trkpt>
      <trkpt lat="42.9172600" lon="-1.5171970">
        <ele>516.0</ele>
        <time>2020-03-26T19:41:55Z</time>
      </trkpt>
      <trkpt lat="42.9171380" lon="-1.5173000">
        <ele>516.0</ele>
        <time>2020-03-26T19:41:57Z</time>
      </trkpt>
      <trkpt lat="42.9168470" lon="-1.5175480">
        <ele>515.9</ele>
        <time>2020-03-26T19:41:59Z</time>
      </trkpt>
      <trkpt lat="42.9167290" lon="-1.5176480">
        <ele>515.9</ele>
        <time>2020-03-26T19:42:01Z</time>
      </trkpt>
      <trkpt lat="42.9166130" lon="-1.5177470">
        <ele>516.0</ele>
        <time>2020-03-26T19:42:03Z</time>
      </trkpt>
      <trkpt lat="42.9164990" lon="-1.5178440">
        <ele>516.0</ele>
        <time>2020-03-26T19:42:05Z</time>
      </trkpt>
      <trkpt lat="42.9163870" lon="-1.5179400">
        <ele>516.1</ele>
        <time>2020-03-26T19:42:07Z</time>
      </trkpt>
      <trkpt lat="42.9161030" lon="-1.5181810">
        <ele>516.6</ele>
        <time>2020-03-26T19:42:09Z</time>
      </trkpt>
      <trkpt lat="42.9159940" lon="-1.5182740">
        <ele>516.7</ele>
        <time>2020-03-26T19:42:11Z</time>
      </trkpt>
      <trkpt lat="42.9158870" lon="-1.5183650">
        <ele>516.8</ele>
        <time>2020-03-26T19:42:13Z</time>
      </trkpt>
      <trkpt lat="42.9157810" lon="-1.5184550">
        <ele>516.8</ele>
        <time>2020-03-26T19:42:15Z</time>
      </trkpt>
      <trkpt lat="42.9155120" lon="-1.5187010">
        <ele>516.4</ele>
        <time>2020-03-26T19:42:17Z</time>
      </trkpt>
      <trkpt lat="42.9154190" lon="-1.5188060">
        <ele>516.1</ele>
        <time>2020-03-26T19:42:19Z</time>
      </trkpt>
      <trkpt lat="42.9152760" lon="-1.5189870">
        <ele>515.9</ele>
        <time>2020-03-26T19:42:21Z</time>
      </trkpt>
      <trkpt lat="42.9151550" lon="-1.5191700">
        <ele>515.8</ele>
        <time>2020-03-26T19:42:23Z</time>
      </trkpt>
      <trkpt lat="42.9150840" lon="-1.5193050">
        <ele>515.8</ele>
        <time>2020-03-26T19:42:25Z</time>
      </trkpt>
      <trkpt lat="42.9150090" lon="-1.5194480">
        <ele>515.7</ele>
        <time>2020-03-26T19:42:27Z</time>
      </trkpt>
      <trkpt lat="42.9149310" lon="-1.5195970">
        <ele>515.6</ele>
        <time>2020-03-26T19:42:29Z</time>
      </trkpt>
      <trkpt lat="42.9147440" lon="-1.5199510">
        <ele>515.0</ele>
        <time>2020-03-26T19:42:31Z</time>
      </trkpt>
      <trkpt lat="42.9146610" lon="-1.5201100">
        <ele>514.7</ele>
        <time>2020-03-26T19:42:33Z</time>
      </trkpt>
      <trkpt lat="42.9145750" lon="-1.5202750">
        <ele>514.4</ele>
        <time>2020-03-26T19:42:35Z</time>
      </trkpt>
      <trkpt lat="42.9143830" lon="-1.5206410">
        <ele>513.5</ele>
        <time>2020-03-26T19:42:37Z</time>
      </trkpt>
      <trkpt lat="42.9142960" lon="-1.5208060">
        <ele>513.1</ele>
        <time>2020-03-26T19:42:39Z</time>
      </trkpt>
      <trkpt lat="42.9142140" lon="-1.5209630">
        <ele>512.7</ele>
        <time>2020-03-26T19:42:41Z</time>
      </trkpt>
      <trkpt lat="42.9141340" lon="-1.5211160">
        <ele>512.3</ele>
        <time>2020-03-26T19:42:43Z</time>
      </trkpt>
      <trkpt lat="42.9139400" lon="-1.5214560">
        <ele>512.3</ele>
        <time>2020-03-26T19:42:45Z</time>
      </trkpt>
      <trkpt lat="42.9138010" lon="-1.5216580">
        <ele>513.2</ele>
        <time>2020-03-26T19:42:47Z</time>
      </trkpt>
      <trkpt lat="42.9136610" lon="-1.5218340">
        <ele>513.5</ele>
        <time>2020-03-26T19:42:49Z</time>
      </trkpt>
      <trkpt lat="42.9135540" lon="-1.5219450">
        <ele>513.3</ele>
        <time>2020-03-26T19:42:51Z</time>
      </trkpt>
      <trkpt lat="42.9133710" lon="-1.5221190">
        <ele>513.0</ele>
        <time>2020-03-26T19:42:53Z</time>
      </trkpt>
      <trkpt lat="42.9132480" lon="-1.5222130">
        <ele>512.8</ele>
        <time>2020-03-26T19:42:55Z</time>
      </trkpt>
      <trkpt lat="42.9130470" lon="-1.5223540">
        <ele>512.5</ele>
        <time>2020-03-26T19:42:57Z</time>
      </trkpt>
      <trkpt lat="42.9129140" lon="-1.5224410">
        <ele>512.3</ele>
        <time>2020-03-26T19:42:59Z</time>
      </trkpt>
      <trkpt lat="42.9126580" lon="-1.5226070">
        <ele>511.9</ele>
        <time>2020-03-26T19:43:01Z</time>
      </trkpt>
      <trkpt lat="42.9125280" lon="-1.5226920">
        <ele>511.7</ele>
        <time>2020-03-26T19:43:03Z</time>
      </trkpt>
      <trkpt lat="42.9124060" lon="-1.5227720">
        <ele>511.5</ele>
        <time>2020-03-26T19:43:05Z</time>
      </trkpt>
      <trkpt lat="42.9121690" lon="-1.5229350">
        <ele>511.3</ele>
        <time>2020-03-26T19:43:07Z</time>
      </trkpt>
      <trkpt lat="42.9120080" lon="-1.5230650">
        <ele>511.1</ele>
        <time>2020-03-26T19:43:09Z</time>
      </trkpt>
      <trkpt lat="42.9119130" lon="-1.5231610">
        <ele>511.0</ele>
        <time>2020-03-26T19:43:11Z</time>
      </trkpt>
      <trkpt lat="42.9117800" lon="-1.5233120">
        <ele>510.9</ele>
        <time>2020-03-26T19:43:13Z</time>
      </trkpt>
      <trkpt lat="42.9117010" lon="-1.5234150">
        <ele>510.9</ele>
        <time>2020-03-26T19:43:15Z</time>
      </trkpt>
      <trkpt lat="42.9115760" lon="-1.5236000">
        <ele>510.8</ele>
        <time>2020-03-26T19:43:17Z</time>
      </trkpt>
      <trkpt lat="42.9114680" lon="-1.5237940">
        <ele>510.8</ele>
        <time>2020-03-26T19:43:19Z</time>
      </trkpt>
      <trkpt lat="42.9114060" lon="-1.5239310">
        <ele>511.0</ele>
        <time>2020-03-26T19:43:21Z</time>
      </trkpt>
      <trkpt lat="42.9113070" lon="-1.5241730">
        <ele>511.3</ele>
        <time>2020-03-26T19:43:23Z</time>
      </trkpt>
      <trkpt lat="42.9112430" lon="-1.5243980">
        <ele>511.6</ele>
        <time>2020-03-26T19:43:25Z</time>
      </trkpt>
      <trkpt lat="42.9112050" lon="-1.5245690">
        <ele>511.8</ele>
        <time>2020-03-26T19:43:27Z</time>
      </trkpt>
      <trkpt lat="42.9111620" lon="-1.5248290">
        <ele>512.1</ele>
        <time>2020-03-26T19:43:29Z</time>
      </trkpt>
      <trkpt lat="42.9111250" lon="-1.5251170">
        <ele>512.5</ele>
        <time>2020-03-26T19:43:31Z</time>
      </trkpt>
      <trkpt lat="42.9111130" lon="-1.5252860">
        <ele>512.6</ele>
        <time>2020-03-26T19:43:33Z</time>
      </trkpt>
      <trkpt lat="42.9111010" lon="-1.5254490">
        <ele>512.8</ele>
        <time>2020-03-26T19:43:35Z</time>
      </trkpt>
      <trkpt lat="42.9110900" lon="-1.5256090">
        <ele>513.0</ele>
        <time>2020-03-26T19:43:37Z</time>
      </trkpt>
      <trkpt lat="42.9110610" lon="-1.5260080">
        <ele>513.5</ele>
        <time>2020-03-26T19:43:39Z</time>
      </trkpt>
      <trkpt lat="42.9110510" lon="-1.5261600">
        <ele>513.7</ele>
        <time>2020-03-26T19:43:41Z</time>
      </trkpt>
      <trkpt lat="42.9110400" lon="-1.5263060">
        <ele>513.9</ele>
        <time>2020-03-26T19:43:43Z</time>
      </trkpt>
      <trkpt lat="42.9110310" lon="-1.5264460">
        <ele>514.2</ele>
        <time>2020-03-26T19:43:45Z</time>
      </trkpt>
      <trkpt lat="42.9110210" lon="-1.5265810">
        <ele>514.5</ele>
        <time>2020-03-26T19:43:47Z</time>
      </trkpt>
      <trkpt lat="42.9109910" lon="-1.5269510">
        <ele>515.6</ele>
        <time>2020-03-26T19:43:49Z</time>
      </trkpt>
      <trkpt lat="42.9109730" lon="-1.5270750">
        <ele>515.6</ele>
        <time>2020-03-26T19:43:51Z</time>
      </trkpt>
      <trkpt lat="42.9109400" lon="-1.5273020">
        <ele>516.0</ele>
        <time>2020-03-26T19:43:53Z</time>
      </trkpt>
      <trkpt lat="42.9109180" lon="-1.5274180">
        <ele>516.3</ele>
        <time>2020-03-26T19:43:55Z</time>
      </trkpt>
      <trkpt lat="42.9108970" lon="-1.5275310">
        <ele>516.8</ele>
        <time>2020-03-26T19:43:57Z</time>
      </trkpt>
      <trkpt lat="42.9108500" lon="-1.5277610">
        <ele>517.7</ele>
        <time>2020-03-26T19:43:59Z</time>
      </trkpt>
      <trkpt lat="42.9108180" lon="-1.5278810">
        <ele>517.1</ele>
        <time>2020-03-26T19:44:01Z</time>
      </trkpt>
      <trkpt lat="42.9107810" lon="-1.5280190">
        <ele>516.4</ele>
        <time>2020-03-26T19:44:03Z</time>
      </trkpt>
      <trkpt lat="42.9107400" lon="-1.5281720">
        <ele>515.8</ele>
        <time>2020-03-26T19:44:05Z</time>
      </trkpt>
      <trkpt lat="42.9106950" lon="-1.5283390">
        <ele>515.1</ele>
        <time>2020-03-26T19:44:07Z</time>
      </trkpt>
      <trkpt lat="42.9105790" lon="-1.5287720">
        <ele>513.7</ele>
        <time>2020-03-26T19:44:09Z</time>
      </trkpt>
      <trkpt lat="42.9105280" lon="-1.5289630">
        <ele>513.0</ele>
        <time>2020-03-26T19:44:11Z</time>
      </trkpt>
      <trkpt lat="42.9104740" lon="-1.5291630">
        <ele>512.3</ele>
        <time>2020-03-26T19:44:13Z</time>
      </trkpt>
      <trkpt lat="42.9103510" lon="-1.5296190">
        <ele>510.9</ele>
        <time>2020-03-26T19:44:15Z</time>
      </trkpt>
      <trkpt lat="42.9102910" lon="-1.5298340">
        <ele>510.3</ele>
        <time>2020-03-26T19:44:17Z</time>
      </trkpt>
      <trkpt lat="42.9102320" lon="-1.5300460">
        <ele>509.8</ele>
        <time>2020-03-26T19:44:19Z</time>
      </trkpt>
      <trkpt lat="42.9101730" lon="-1.5302570">
        <ele>509.2</ele>
        <time>2020-03-26T19:44:21Z</time>
      </trkpt>
      <trkpt lat="42.9100460" lon="-1.5307090">
        <ele>508.3</ele>
        <time>2020-03-26T19:44:23Z</time>
      </trkpt>
      <trkpt lat="42.9099870" lon="-1.5309190">
        <ele>507.8</ele>
        <time>2020-03-26T19:44:25Z</time>
      </trkpt>
      <trkpt lat="42.9099290" lon="-1.5311290">
        <ele>507.4</ele>
        <time>2020-03-26T19:44:27Z</time>
      </trkpt>
      <trkpt lat="42.9098040" lon="-1.5315750">
        <ele>506.6</ele>
        <time>2020-03-26T19:44:29Z</time>
      </trkpt>
      <trkpt lat="42.9097490" lon="-1.5317690">
        <ele>506.3</ele>
        <time>2020-03-26T19:44:31Z</time>
      </trkpt>
      <trkpt lat="42.9096970" lon="-1.5319550">
        <ele>506.2</ele>
        <time>2020-03-26T19:44:33Z</time>
      </trkpt>
      <trkpt lat="42.9095790" lon="-1.5323760">
        <ele>506.2</ele>
        <time>2020-03-26T19:44:35Z</time>
      </trkpt>
      <trkpt lat="42.9095300" lon="-1.5325520">
        <ele>506.2</ele>
        <time>2020-03-26T19:44:37Z</time>
      </trkpt>
      <trkpt lat="42.9094810" lon="-1.5327270">
        <ele>506.2</ele>
        <time>2020-03-26T19:44:39Z</time>
      </trkpt>
      <trkpt lat="42.9094330" lon="-1.5329010">
        <ele>506.1</ele>
        <time>2020-03-26T19:44:41Z</time>
      </trkpt>
      <trkpt lat="42.9093110" lon="-1.5333090">
        <ele>505.8</ele>
        <time>2020-03-26T19:44:43Z</time>
      </trkpt>
      <trkpt lat="42.9092540" lon="-1.5334760">
        <ele>505.7</ele>
        <time>2020-03-26T19:44:45Z</time>
      </trkpt>
      <trkpt lat="42.9091490" lon="-1.5337480">
        <ele>505.5</ele>
        <time>2020-03-26T19:44:47Z</time>
      </trkpt>
      <trkpt lat="42.9090390" lon="-1.5339940">
        <ele>505.3</ele>
        <time>2020-03-26T19:44:49Z</time>
      </trkpt>
      <trkpt lat="42.9089550" lon="-1.5341360">
        <ele>505.3</ele>
        <time>2020-03-26T19:44:51Z</time>
      </trkpt>
      <trkpt lat="42.9088120" lon="-1.5343590">
        <ele>505.3</ele>
        <time>2020-03-26T19:44:53Z</time>
      </trkpt>
      <trkpt lat="42.9086700" lon="-1.5345380">
        <ele>505.4</ele>
        <time>2020-03-26T19:44:55Z</time>
      </trkpt>
      <trkpt lat="42.9085700" lon="-1.5346500">
        <ele>505.4</ele>
        <time>2020-03-26T19:44:57Z</time>
      </trkpt>
      <trkpt lat="42.9084120" lon="-1.5348030">
        <ele>505.3</ele>
        <time>2020-03-26T19:44:59Z</time>
      </trkpt>
      <trkpt lat="42.9082550" lon="-1.5349290">
        <ele>505.3</ele>
        <time>2020-03-26T19:45:01Z</time>
      </trkpt>
      <trkpt lat="42.9080810" lon="-1.5350500">
        <ele>505.3</ele>
        <time>2020-03-26T19:45:03Z</time>
      </trkpt>
      <trkpt lat="42.9079630" lon="-1.5351100">
        <ele>505.3</ele>
        <time>2020-03-26T19:45:05Z</time>
      </trkpt>
      <trkpt lat="42.9077650" lon="-1.5352040">
        <ele>505.2</ele>
        <time>2020-03-26T19:45:07Z</time>
      </trkpt>
      <trkpt lat="42.9076430" lon="-1.5352460">
        <ele>505.2</ele>
        <time>2020-03-26T19:45:09Z</time>
      </trkpt>
      <trkpt lat="42.9075210" lon="-1.5352890">
        <ele>505.2</ele>
        <time>2020-03-26T19:45:11Z</time>
      </trkpt>
      <trkpt lat="42.9074000" lon="-1.5353320">
        <ele>505.1</ele>
        <time>2020-03-26T19:45:13Z</time>
      </trkpt>
      <trkpt lat="42.9070930" lon="-1.5354400">
        <ele>505.1</ele>
        <time>2020-03-26T19:45:15Z</time>
      </trkpt>
      <trkpt lat="42.9069720" lon="-1.5354830">
        <ele>505.1</ele>
        <time>2020-03-26T19:45:17Z</time>
      </trkpt>
      <trkpt lat="42.9068500" lon="-1.5355260">
        <ele>505.2</ele>
        <time>2020-03-26T19:45:19Z</time>
      </trkpt>
      <trkpt lat="42.9067290" lon="-1.5355680">
        <ele>505.4</ele>
        <time>2020-03-26T19:45:21Z</time>
      </trkpt>
      <trkpt lat="42.9066080" lon="-1.5356110">
        <ele>505.7</ele>
        <time>2020-03-26T19:45:23Z</time>
      </trkpt>
      <trkpt lat="42.9063050" lon="-1.5357400">
        <ele>505.9</ele>
        <time>2020-03-26T19:45:25Z</time>
      </trkpt>
      <trkpt lat="42.9061270" lon="-1.5358540">
        <ele>505.9</ele>
        <time>2020-03-26T19:45:27Z</time>
      </trkpt>
      <trkpt lat="42.9060240" lon="-1.5359500">
        <ele>505.8</ele>
        <time>2020-03-26T19:45:29Z</time>
      </trkpt>
      <trkpt lat="42.9058530" lon="-1.5361220">
        <ele>505.7</ele>
        <time>2020-03-26T19:45:31Z</time>
      </trkpt>
      <trkpt lat="42.9057570" lon="-1.5362380">
        <ele>505.5</ele>
        <time>2020-03-26T19:45:33Z</time>
      </trkpt>
      <trkpt lat="42.9056610" lon="-1.5363550">
        <ele>505.3</ele>
        <time>2020-03-26T19:45:35Z</time>
      </trkpt>
      <trkpt lat="42.9055620" lon="-1.5364750">
        <ele>505.1</ele>
        <time>2020-03-26T19:45:37Z</time>
      </trkpt>
      <trkpt lat="42.9053080" lon="-1.5367850">
        <ele>504.7</ele>
        <time>2020-03-26T19:45:39Z</time>
      </trkpt>
      <trkpt lat="42.9052070" lon="-1.5369080">
        <ele>504.6</ele>
        <time>2020-03-26T19:45:41Z</time>
      </trkpt>
      <trkpt lat="42.9051050" lon="-1.5370320">
        <ele>504.4</ele>
        <time>2020-03-26T19:45:43Z</time>
      </trkpt>
      <trkpt lat="42.9050010" lon="-1.5371580">
        <ele>504.2</ele>
        <time>2020-03-26T19:45:45Z</time>
      </trkpt>
      <trkpt lat="42.9048970" lon="-1.5372860">
        <ele>504.0</ele>
        <time>2020-03-26T19:45:47Z</time>
      </trkpt>
      <trkpt lat="42.9046380" lon="-1.5376000">
        <ele>503.7</ele>
        <time>2020-03-26T19:45:49Z</time>
      </trkpt>
      <trkpt lat="42.9045360" lon="-1.5377250">
        <ele>503.7</ele>
        <time>2020-03-26T19:45:51Z</time>
      </trkpt>
      <trkpt lat="42.9044330" lon="-1.5378510">
        <ele>503.6</ele>
        <time>2020-03-26T19:45:53Z</time>
      </trkpt>
      <trkpt lat="42.9043320" lon="-1.5379740">
        <ele>503.6</ele>
        <time>2020-03-26T19:45:55Z</time>
      </trkpt>
      <trkpt lat="42.9040840" lon="-1.5382990">
        <ele>503.6</ele>
        <time>2020-03-26T19:45:57Z</time>
      </trkpt>
      <trkpt lat="42.9039490" lon="-1.5385130">
        <ele>503.6</ele>
        <time>2020-03-26T19:45:59Z</time>
      </trkpt>
      <trkpt lat="42.9038250" lon="-1.5387360">
        <ele>503.5</ele>
        <time>2020-03-26T19:46:01Z</time>
      </trkpt>
      <trkpt lat="42.9037150" lon="-1.5389740">
        <ele>503.6</ele>
        <time>2020-03-26T19:46:03Z</time>
      </trkpt>
      <trkpt lat="42.9036410" lon="-1.5391980">
        <ele>503.8</ele>
        <time>2020-03-26T19:46:05Z</time>
      </trkpt>
      <trkpt lat="42.9035670" lon="-1.5394540">
        <ele>502.9</ele>
        <time>2020-03-26T19:46:07Z</time>
      </trkpt>
      <trkpt lat="42.9035010" lon="-1.5397530">
        <ele>501.9</ele>
        <time>2020-03-26T19:46:09Z</time>
      </trkpt>
      <trkpt lat="42.9034700" lon="-1.5399590">
        <ele>501.4</ele>
        <time>2020-03-26T19:46:11Z</time>
      </trkpt>
      <trkpt lat="42.9034400" lon="-1.5401580">
        <ele>501.2</ele>
        <time>2020-03-26T19:46:13Z</time>
      </trkpt>
      <trkpt lat="42.9034110" lon="-1.5403530">
        <ele>501.0</ele>
        <time>2020-03-26T19:46:15Z</time>
      </trkpt>
      <trkpt lat="42.9033390" lon="-1.5408190">
        <ele>500.9</ele>
        <time>2020-03-26T19:46:17Z</time>
      </trkpt>
      <trkpt lat="42.9033000" lon="-1.5410040">
        <ele>501.1</ele>
        <time>2020-03-26T19:46:19Z</time>
      </trkpt>
      <trkpt lat="42.9032260" lon="-1.5412980">
        <ele>501.5</ele>
        <time>2020-03-26T19:46:21Z</time>
      </trkpt>
      <trkpt lat="42.9031670" lon="-1.5414840">
        <ele>501.8</ele>
        <time>2020-03-26T19:46:23Z</time>
      </trkpt>
      <trkpt lat="42.9030560" lon="-1.5417760">
        <ele>502.0</ele>
        <time>2020-03-26T19:46:25Z</time>
      </trkpt>
      <trkpt lat="42.9029250" lon="-1.5420550">
        <ele>501.5</ele>
        <time>2020-03-26T19:46:27Z</time>
      </trkpt>
      <trkpt lat="42.9027730" lon="-1.5423240">
        <ele>500.9</ele>
        <time>2020-03-26T19:46:29Z</time>
      </trkpt>
      <trkpt lat="42.9026550" lon="-1.5424880">
        <ele>500.5</ele>
        <time>2020-03-26T19:46:31Z</time>
      </trkpt>
      <trkpt lat="42.9024710" lon="-1.5427240">
        <ele>499.7</ele>
        <time>2020-03-26T19:46:33Z</time>
      </trkpt>
      <trkpt lat="42.9023520" lon="-1.5428610">
        <ele>499.4</ele>
        <time>2020-03-26T19:46:35Z</time>
      </trkpt>
      <trkpt lat="42.9022390" lon="-1.5429930">
        <ele>499.3</ele>
        <time>2020-03-26T19:46:37Z</time>
      </trkpt>
      <trkpt lat="42.9021280" lon="-1.5431220">
        <ele>499.3</ele>
        <time>2020-03-26T19:46:39Z</time>
      </trkpt>
      <trkpt lat="42.9018490" lon="-1.5434450">
        <ele>499.3</ele>
        <time>2020-03-26T19:46:41Z</time>
      </trkpt>
      <trkpt lat="42.9017400" lon="-1.5435720">
        <ele>499.3</ele>
        <time>2020-03-26T19:46:43Z</time>
      </trkpt>
      <trkpt lat="42.9015530" lon="-1.5437890">
        <ele>498.9</ele>
        <time>2020-03-26T19:46:45Z</time>
      </trkpt>
      <trkpt lat="42.9014380" lon="-1.5439220">
        <ele>498.6</ele>
        <time>2020-03-26T19:46:47Z</time>
      </trkpt>
      <trkpt lat="42.9012320" lon="-1.5441740">
        <ele>498.0</ele>
        <time>2020-03-26T19:46:49Z</time>
      </trkpt>
      <trkpt lat="42.9010760" lon="-1.5444050">
        <ele>497.5</ele>
        <time>2020-03-26T19:46:51Z</time>
      </trkpt>
      <trkpt lat="42.9009790" lon="-1.5445690">
        <ele>497.2</ele>
        <time>2020-03-26T19:46:53Z</time>
      </trkpt>
      <trkpt lat="42.9008580" lon="-1.5448100">
        <ele>496.6</ele>
        <time>2020-03-26T19:46:55Z</time>
      </trkpt>
      <trkpt lat="42.9007600" lon="-1.5450620">
        <ele>496.6</ele>
        <time>2020-03-26T19:46:57Z</time>
      </trkpt>
      <trkpt lat="42.9006770" lon="-1.5453260">
        <ele>497.3</ele>
        <time>2020-03-26T19:46:59Z</time>
      </trkpt>
      <trkpt lat="42.9006060" lon="-1.5456090">
        <ele>498.2</ele>
        <time>2020-03-26T19:47:01Z</time>
      </trkpt>
      <trkpt lat="42.9005750" lon="-1.5457930">
        <ele>498.6</ele>
        <time>2020-03-26T19:47:03Z</time>
      </trkpt>
      <trkpt lat="42.9005460" lon="-1.5459690">
        <ele>499.0</ele>
        <time>2020-03-26T19:47:05Z</time>
      </trkpt>
      <trkpt lat="42.9004880" lon="-1.5463220">
        <ele>499.8</ele>
        <time>2020-03-26T19:47:07Z</time>
      </trkpt>
      <trkpt lat="42.9004590" lon="-1.5465070">
        <ele>500.0</ele>
        <time>2020-03-26T19:47:09Z</time>
      </trkpt>
      <trkpt lat="42.9004340" lon="-1.5466650">
        <ele>500.3</ele>
        <time>2020-03-26T19:47:11Z</time>
      </trkpt>
      <trkpt lat="42.9004100" lon="-1.5468170">
        <ele>500.6</ele>
        <time>2020-03-26T19:47:13Z</time>
      </trkpt>
      <trkpt lat="42.9003520" lon="-1.5471720">
        <ele>501.8</ele>
        <time>2020-03-26T19:47:15Z</time>
      </trkpt>
      <trkpt lat="42.9003230" lon="-1.5473090">
        <ele>502.1</ele>
        <time>2020-03-26T19:47:17Z</time>
      </trkpt>
      <trkpt lat="42.9002960" lon="-1.5474360">
        <ele>502.5</ele>
        <time>2020-03-26T19:47:19Z</time>
      </trkpt>
      <trkpt lat="42.9002390" lon="-1.5476610">
        <ele>503.3</ele>
        <time>2020-03-26T19:47:21Z</time>
      </trkpt>
      <trkpt lat="42.9002070" lon="-1.5477690">
        <ele>503.7</ele>
        <time>2020-03-26T19:47:23Z</time>
      </trkpt>
      <trkpt lat="42.9001420" lon="-1.5479670">
        <ele>504.2</ele>
        <time>2020-03-26T19:47:25Z</time>
      </trkpt>
      <trkpt lat="42.9001030" lon="-1.5480580">
        <ele>504.5</ele>
        <time>2020-03-26T19:47:27Z</time>
      </trkpt>
      <trkpt lat="42.9000660" lon="-1.5481460">
        <ele>504.8</ele>
        <time>2020-03-26T19:47:29Z</time>
      </trkpt>
      <trkpt lat="42.8999840" lon="-1.5483320">
        <ele>505.1</ele>
        <time>2020-03-26T19:47:31Z</time>
      </trkpt>
      <trkpt lat="42.8999370" lon="-1.5484170">
        <ele>505.1</ele>
        <time>2020-03-26T19:47:33Z</time>
      </trkpt>
      <trkpt lat="42.8998850" lon="-1.5485120">
        <ele>505.1</ele>
        <time>2020-03-26T19:47:35Z</time>
      </trkpt>
      <trkpt lat="42.8997660" lon="-1.5487240">
        <ele>505.0</ele>
        <time>2020-03-26T19:47:37Z</time>
      </trkpt>
      <trkpt lat="42.8997000" lon="-1.5488300">
        <ele>505.0</ele>
        <time>2020-03-26T19:47:39Z</time>
      </trkpt>
      <trkpt lat="42.8996310" lon="-1.5489430">
        <ele>505.0</ele>
        <time>2020-03-26T19:47:41Z</time>
      </trkpt>
      <trkpt lat="42.8995580" lon="-1.5490610">
        <ele>505.0</ele>
        <time>2020-03-26T19:47:43Z</time>
      </trkpt>
      <trkpt lat="42.8994820" lon="-1.5491830">
        <ele>504.9</ele>
        <time>2020-03-26T19:47:45Z</time>
      </trkpt>
      <trkpt lat="42.8994030" lon="-1.5493110">
        <ele>504.9</ele>
        <time>2020-03-26T19:47:47Z</time>
      </trkpt>
      <trkpt lat="42.8991850" lon="-1.5496620">
        <ele>504.8</ele>
        <time>2020-03-26T19:47:49Z</time>
      </trkpt>
      <trkpt lat="42.8991060" lon="-1.5497900">
        <ele>504.8</ele>
        <time>2020-03-26T19:47:51Z</time>
      </trkpt>
      <trkpt lat="42.8990290" lon="-1.5499150">
        <ele>504.8</ele>
        <time>2020-03-26T19:47:53Z</time>
      </trkpt>
      <trkpt lat="42.8989530" lon="-1.5500370">
        <ele>504.7</ele>
        <time>2020-03-26T19:47:55Z</time>
      </trkpt>
      <trkpt lat="42.8988780" lon="-1.5501590">
        <ele>504.7</ele>
        <time>2020-03-26T19:47:57Z</time>
      </trkpt>
      <trkpt lat="42.8986660" lon="-1.5505000">
        <ele>504.6</ele>
        <time>2020-03-26T19:47:59Z</time>
      </trkpt>
      <trkpt lat="42.8985920" lon="-1.5506200">
        <ele>504.6</ele>
        <time>2020-03-26T19:48:01Z</time>
      </trkpt>
      <trkpt lat="42.8985190" lon="-1.5507370">
        <ele>504.6</ele>
        <time>2020-03-26T19:48:03Z</time>
      </trkpt>
      <trkpt lat="42.8984470" lon="-1.5508550">
        <ele>504.7</ele>
        <time>2020-03-26T19:48:05Z</time>
      </trkpt>
      <trkpt lat="42.8983750" lon="-1.5509710">
        <ele>504.7</ele>
        <time>2020-03-26T19:48:07Z</time>
      </trkpt>
      <trkpt lat="42.8981660" lon="-1.5513090">
        <ele>505.2</ele>
        <time>2020-03-26T19:48:09Z</time>
      </trkpt>
      <trkpt lat="42.8980920" lon="-1.5514290">
        <ele>505.4</ele>
        <time>2020-03-26T19:48:11Z</time>
      </trkpt>
      <trkpt lat="42.8980150" lon="-1.5515510">
        <ele>505.6</ele>
        <time>2020-03-26T19:48:13Z</time>
      </trkpt>
      <trkpt lat="42.8979370" lon="-1.5516780">
        <ele>505.9</ele>
        <time>2020-03-26T19:48:15Z</time>
      </trkpt>
      <trkpt lat="42.8978570" lon="-1.5518060">
        <ele>506.1</ele>
        <time>2020-03-26T19:48:17Z</time>
      </trkpt>
      <trkpt lat="42.8976380" lon="-1.5521600">
        <ele>506.4</ele>
        <time>2020-03-26T19:48:19Z</time>
      </trkpt>
      <trkpt lat="42.8975560" lon="-1.5522940">
        <ele>506.3</ele>
        <time>2020-03-26T19:48:21Z</time>
      </trkpt>
      <trkpt lat="42.8974730" lon="-1.5524280">
        <ele>506.0</ele>
        <time>2020-03-26T19:48:23Z</time>
      </trkpt>
      <trkpt lat="42.8973880" lon="-1.5525650">
        <ele>505.7</ele>
        <time>2020-03-26T19:48:25Z</time>
      </trkpt>
      <trkpt lat="42.8971610" lon="-1.5529220">
        <ele>504.8</ele>
        <time>2020-03-26T19:48:27Z</time>
      </trkpt>
      <trkpt lat="42.8970620" lon="-1.5530580">
        <ele>504.4</ele>
        <time>2020-03-26T19:48:29Z</time>
      </trkpt>
      <trkpt lat="42.8968920" lon="-1.5532480">
        <ele>503.6</ele>
        <time>2020-03-26T19:48:31Z</time>
      </trkpt>
      <trkpt lat="42.8966910" lon="-1.5534320">
        <ele>502.7</ele>
        <time>2020-03-26T19:48:33Z</time>
      </trkpt>
      <trkpt lat="42.8965510" lon="-1.5535430">
        <ele>502.1</ele>
        <time>2020-03-26T19:48:35Z</time>
      </trkpt>
      <trkpt lat="42.8964060" lon="-1.5536580">
        <ele>501.6</ele>
        <time>2020-03-26T19:48:37Z</time>
      </trkpt>
      <trkpt lat="42.8961330" lon="-1.5538740">
        <ele>500.8</ele>
        <time>2020-03-26T19:48:39Z</time>
      </trkpt>
      <trkpt lat="42.8959920" lon="-1.5539850">
        <ele>500.5</ele>
        <time>2020-03-26T19:48:41Z</time>
      </trkpt>
      <trkpt lat="42.8957280" lon="-1.5541910">
        <ele>500.0</ele>
        <time>2020-03-26T19:48:43Z</time>
      </trkpt>
      <trkpt lat="42.8955920" lon="-1.5542920">
        <ele>499.9</ele>
        <time>2020-03-26T19:48:45Z</time>
      </trkpt>
      <trkpt lat="42.8954590" lon="-1.5543910">
        <ele>500.0</ele>
        <time>2020-03-26T19:48:47Z</time>
      </trkpt>
      <trkpt lat="42.8951960" lon="-1.5545700">
        <ele>500.6</ele>
        <time>2020-03-26T19:48:49Z</time>
      </trkpt>
      <trkpt lat="42.8950700" lon="-1.5546470">
        <ele>501.2</ele>
        <time>2020-03-26T19:48:51Z</time>
      </trkpt>
      <trkpt lat="42.8949510" lon="-1.5547180">
        <ele>501.9</ele>
        <time>2020-03-26T19:48:53Z</time>
      </trkpt>
      <trkpt lat="42.8947120" lon="-1.5548630">
        <ele>503.2</ele>
        <time>2020-03-26T19:48:55Z</time>
      </trkpt>
      <trkpt lat="42.8946050" lon="-1.5549280">
        <ele>503.8</ele>
        <time>2020-03-26T19:48:57Z</time>
      </trkpt>
      <trkpt lat="42.8945030" lon="-1.5549900">
        <ele>504.4</ele>
        <time>2020-03-26T19:48:59Z</time>
      </trkpt>
      <trkpt lat="42.8942770" lon="-1.5551340">
        <ele>504.8</ele>
        <time>2020-03-26T19:49:01Z</time>
      </trkpt>
      <trkpt lat="42.8941650" lon="-1.5552120">
        <ele>504.1</ele>
        <time>2020-03-26T19:49:03Z</time>
      </trkpt>
      <trkpt lat="42.8940400" lon="-1.5552980">
        <ele>503.4</ele>
        <time>2020-03-26T19:49:05Z</time>
      </trkpt>
      <trkpt lat="42.8937750" lon="-1.5554820">
        <ele>501.7</ele>
        <time>2020-03-26T19:49:07Z</time>
      </trkpt>
      <trkpt lat="42.8936290" lon="-1.5555840">
        <ele>500.8</ele>
        <time>2020-03-26T19:49:09Z</time>
      </trkpt>
      <trkpt lat="42.8933480" lon="-1.5557850">
        <ele>499.1</ele>
        <time>2020-03-26T19:49:11Z</time>
      </trkpt>
      <trkpt lat="42.8931940" lon="-1.5559110">
        <ele>498.1</ele>
        <time>2020-03-26T19:49:13Z</time>
      </trkpt>
      <trkpt lat="42.8930390" lon="-1.5560390">
        <ele>497.1</ele>
        <time>2020-03-26T19:49:15Z</time>
      </trkpt>
      <trkpt lat="42.8927150" lon="-1.5563130">
        <ele>495.0</ele>
        <time>2020-03-26T19:49:17Z</time>
      </trkpt>
      <trkpt lat="42.8925660" lon="-1.5564640">
        <ele>494.0</ele>
        <time>2020-03-26T19:49:19Z</time>
      </trkpt>
      <trkpt lat="42.8923430" lon="-1.5567140">
        <ele>492.4</ele>
        <time>2020-03-26T19:49:21Z</time>
      </trkpt>
      <trkpt lat="42.8922010" lon="-1.5568850">
        <ele>491.4</ele>
        <time>2020-03-26T19:49:23Z</time>
      </trkpt>
      <trkpt lat="42.8920580" lon="-1.5570570">
        <ele>490.4</ele>
        <time>2020-03-26T19:49:25Z</time>
      </trkpt>
      <trkpt lat="42.8917160" lon="-1.5574700">
        <ele>488.1</ele>
        <time>2020-03-26T19:49:27Z</time>
      </trkpt>
      <trkpt lat="42.8915730" lon="-1.5576380">
        <ele>487.5</ele>
        <time>2020-03-26T19:49:29Z</time>
      </trkpt>
      <trkpt lat="42.8914380" lon="-1.5577970">
        <ele>487.5</ele>
        <time>2020-03-26T19:49:31Z</time>
      </trkpt>
      <trkpt lat="42.8913070" lon="-1.5579510">
        <ele>487.6</ele>
        <time>2020-03-26T19:49:33Z</time>
      </trkpt>
      <trkpt lat="42.8910260" lon="-1.5582830">
        <ele>487.9</ele>
        <time>2020-03-26T19:49:35Z</time>
      </trkpt>
      <trkpt lat="42.8908630" lon="-1.5584770">
        <ele>487.8</ele>
        <time>2020-03-26T19:49:37Z</time>
      </trkpt>
      <trkpt lat="42.8907470" lon="-1.5586130">
        <ele>487.9</ele>
        <time>2020-03-26T19:49:39Z</time>
      </trkpt>
      <trkpt lat="42.8906350" lon="-1.5587460">
        <ele>488.3</ele>
        <time>2020-03-26T19:49:41Z</time>
      </trkpt>
      <trkpt lat="42.8903900" lon="-1.5590360">
        <ele>488.8</ele>
        <time>2020-03-26T19:49:43Z</time>
      </trkpt>
      <trkpt lat="42.8902840" lon="-1.5591620">
        <ele>489.0</ele>
        <time>2020-03-26T19:49:45Z</time>
      </trkpt>
      <trkpt lat="42.8901780" lon="-1.5592870">
        <ele>489.2</ele>
        <time>2020-03-26T19:49:47Z</time>
      </trkpt>
      <trkpt lat="42.8900750" lon="-1.5594100">
        <ele>489.3</ele>
        <time>2020-03-26T19:49:49Z</time>
      </trkpt>
      <trkpt lat="42.8897950" lon="-1.5597420">
        <ele>490.1</ele>
        <time>2020-03-26T19:49:51Z</time>
      </trkpt>
      <trkpt lat="42.8896940" lon="-1.5598610">
        <ele>490.6</ele>
        <time>2020-03-26T19:49:53Z</time>
      </trkpt>
      <trkpt lat="42.8895950" lon="-1.5599790">
        <ele>490.9</ele>
        <time>2020-03-26T19:49:55Z</time>
      </trkpt>
      <trkpt lat="42.8894960" lon="-1.5600960">
        <ele>491.1</ele>
        <time>2020-03-26T19:49:57Z</time>
      </trkpt>
      <trkpt lat="42.8893990" lon="-1.5602120">
        <ele>491.3</ele>
        <time>2020-03-26T19:49:59Z</time>
      </trkpt>
      <trkpt lat="42.8891240" lon="-1.5605380">
        <ele>492.3</ele>
        <time>2020-03-26T19:50:01Z</time>
      </trkpt>
      <trkpt lat="42.8890320" lon="-1.5606480">
        <ele>492.6</ele>
        <time>2020-03-26T19:50:03Z</time>
      </trkpt>
      <trkpt lat="42.8889430" lon="-1.5607530">
        <ele>492.8</ele>
        <time>2020-03-26T19:50:05Z</time>
      </trkpt>
      <trkpt lat="42.8888600" lon="-1.5608520">
        <ele>492.9</ele>
        <time>2020-03-26T19:50:07Z</time>
      </trkpt>
      <trkpt lat="42.8887800" lon="-1.5609460">
        <ele>493.0</ele>
        <time>2020-03-26T19:50:09Z</time>
      </trkpt>
      <trkpt lat="42.8887040" lon="-1.5610370">
        <ele>493.2</ele>
        <time>2020-03-26T19:50:11Z</time>
      </trkpt>
      <trkpt lat="42.8884520" lon="-1.5613360">
        <ele>494.1</ele>
        <time>2020-03-26T19:50:13Z</time>
      </trkpt>
      <trkpt lat="42.8883820" lon="-1.5614200">
        <ele>494.5</ele>
        <time>2020-03-26T19:50:15Z</time>
      </trkpt>
      <trkpt lat="42.8882800" lon="-1.5615410">
        <ele>494.7</ele>
        <time>2020-03-26T19:50:17Z</time>
      </trkpt>
      <trkpt lat="42.8882100" lon="-1.5616240">
        <ele>494.9</ele>
        <time>2020-03-26T19:50:19Z</time>
      </trkpt>
      <trkpt lat="42.8881390" lon="-1.5617090">
        <ele>495.2</ele>
        <time>2020-03-26T19:50:21Z</time>
      </trkpt>
      <trkpt lat="42.8880670" lon="-1.5617940">
        <ele>495.5</ele>
        <time>2020-03-26T19:50:23Z</time>
      </trkpt>
      <trkpt lat="42.8879950" lon="-1.5618810">
        <ele>495.8</ele>
        <time>2020-03-26T19:50:25Z</time>
      </trkpt>
      <trkpt lat="42.8877770" lon="-1.5621400">
        <ele>496.3</ele>
        <time>2020-03-26T19:50:27Z</time>
      </trkpt>
      <trkpt lat="42.8877040" lon="-1.5622270">
        <ele>496.5</ele>
        <time>2020-03-26T19:50:29Z</time>
      </trkpt>
      <trkpt lat="42.8876320" lon="-1.5623130">
        <ele>496.5</ele>
        <time>2020-03-26T19:50:31Z</time>
      </trkpt>
      <trkpt lat="42.8875590" lon="-1.5624000">
        <ele>496.6</ele>
        <time>2020-03-26T19:50:33Z</time>
      </trkpt>
      <trkpt lat="42.8874860" lon="-1.5624880">
        <ele>496.7</ele>
        <time>2020-03-26T19:50:35Z</time>
      </trkpt>
      <trkpt lat="42.8874110" lon="-1.5625770">
        <ele>496.8</ele>
        <time>2020-03-26T19:50:37Z</time>
      </trkpt>
      <trkpt lat="42.8873370" lon="-1.5626650">
        <ele>496.9</ele>
        <time>2020-03-26T19:50:39Z</time>
      </trkpt>
      <trkpt lat="42.8870790" lon="-1.5629590">
        <ele>496.8</ele>
        <time>2020-03-26T19:50:41Z</time>
      </trkpt>
      <trkpt lat="42.8869950" lon="-1.5630440">
        <ele>496.3</ele>
        <time>2020-03-26T19:50:43Z</time>
      </trkpt>
      <trkpt lat="42.8869090" lon="-1.5631310">
        <ele>495.7</ele>
        <time>2020-03-26T19:50:45Z</time>
      </trkpt>
      <trkpt lat="42.8868180" lon="-1.5632230">
        <ele>495.2</ele>
        <time>2020-03-26T19:50:47Z</time>
      </trkpt>
      <trkpt lat="42.8865760" lon="-1.5634590">
        <ele>494.0</ele>
        <time>2020-03-26T19:50:49Z</time>
      </trkpt>
      <trkpt lat="42.8864700" lon="-1.5635330">
        <ele>493.9</ele>
        <time>2020-03-26T19:50:51Z</time>
      </trkpt>
      <trkpt lat="42.8862960" lon="-1.5636360">
        <ele>493.7</ele>
        <time>2020-03-26T19:50:53Z</time>
      </trkpt>
      <trkpt lat="42.8861150" lon="-1.5637170">
        <ele>493.4</ele>
        <time>2020-03-26T19:50:55Z</time>
      </trkpt>
      <trkpt lat="42.8859930" lon="-1.5637530">
        <ele>493.2</ele>
        <time>2020-03-26T19:50:57Z</time>
      </trkpt>
      <trkpt lat="42.8857960" lon="-1.5638030">
        <ele>493.0</ele>
        <time>2020-03-26T19:50:59Z</time>
      </trkpt>
      <trkpt lat="42.8856680" lon="-1.5638200">
        <ele>493.0</ele>
        <time>2020-03-26T19:51:01Z</time>
      </trkpt>
      <trkpt lat="42.8854310" lon="-1.5638470">
        <ele>493.0</ele>
        <time>2020-03-26T19:51:03Z</time>
      </trkpt>
      <trkpt lat="42.8853010" lon="-1.5638430">
        <ele>493.0</ele>
        <time>2020-03-26T19:51:05Z</time>
      </trkpt>
      <trkpt lat="42.8851730" lon="-1.5638390">
        <ele>493.2</ele>
        <time>2020-03-26T19:51:07Z</time>
      </trkpt>
      <trkpt lat="42.8850460" lon="-1.5638350">
        <ele>493.5</ele>
        <time>2020-03-26T19:51:09Z</time>
      </trkpt>
      <trkpt lat="42.8847490" lon="-1.5638260">
        <ele>494.3</ele>
        <time>2020-03-26T19:51:11Z</time>
      </trkpt>
      <trkpt lat="42.8846250" lon="-1.5638220">
        <ele>494.6</ele>
        <time>2020-03-26T19:51:13Z</time>
      </trkpt>
      <trkpt lat="42.8844170" lon="-1.5638160">
        <ele>494.9</ele>
        <time>2020-03-26T19:51:15Z</time>
      </trkpt>
      <trkpt lat="42.8842940" lon="-1.5638130">
        <ele>495.1</ele>
        <time>2020-03-26T19:51:17Z</time>
      </trkpt>
      <trkpt lat="42.8840850" lon="-1.5638180">
        <ele>495.6</ele>
        <time>2020-03-26T19:51:19Z</time>
      </trkpt>
      <trkpt lat="42.8839610" lon="-1.5638300">
        <ele>495.7</ele>
        <time>2020-03-26T19:51:21Z</time>
      </trkpt>
      <trkpt lat="42.8837220" lon="-1.5638540">
        <ele>495.7</ele>
        <time>2020-03-26T19:51:23Z</time>
      </trkpt>
      <trkpt lat="42.8835980" lon="-1.5638710">
        <ele>495.7</ele>
        <time>2020-03-26T19:51:25Z</time>
      </trkpt>
      <trkpt lat="42.8834730" lon="-1.5638890">
        <ele>495.7</ele>
        <time>2020-03-26T19:51:27Z</time>
      </trkpt>
      <trkpt lat="42.8833460" lon="-1.5639060">
        <ele>495.6</ele>
        <time>2020-03-26T19:51:29Z</time>
      </trkpt>
      <trkpt lat="42.8830560" lon="-1.5639470">
        <ele>494.9</ele>
        <time>2020-03-26T19:51:31Z</time>
      </trkpt>
      <trkpt lat="42.8829280" lon="-1.5639660">
        <ele>494.6</ele>
        <time>2020-03-26T19:51:33Z</time>
      </trkpt>
      <trkpt lat="42.8827970" lon="-1.5639850">
        <ele>494.3</ele>
        <time>2020-03-26T19:51:35Z</time>
      </trkpt>
      <trkpt lat="42.8825010" lon="-1.5640280">
        <ele>493.3</ele>
        <time>2020-03-26T19:51:37Z</time>
      </trkpt>
      <trkpt lat="42.8823660" lon="-1.5640540">
        <ele>492.8</ele>
        <time>2020-03-26T19:51:39Z</time>
      </trkpt>
      <trkpt lat="42.8821600" lon="-1.5641040">
        <ele>492.2</ele>
        <time>2020-03-26T19:51:41Z</time>
      </trkpt>
      <trkpt lat="42.8819590" lon="-1.5641740">
        <ele>491.4</ele>
        <time>2020-03-26T19:51:43Z</time>
      </trkpt>
      <trkpt lat="42.8818240" lon="-1.5642340">
        <ele>490.8</ele>
        <time>2020-03-26T19:51:45Z</time>
      </trkpt>
      <trkpt lat="42.8816020" lon="-1.5643460">
        <ele>490.4</ele>
        <time>2020-03-26T19:51:47Z</time>
      </trkpt>
      <trkpt lat="42.8814750" lon="-1.5644230">
        <ele>490.4</ele>
        <time>2020-03-26T19:51:49Z</time>
      </trkpt>
      <trkpt lat="42.8813510" lon="-1.5644980">
        <ele>490.4</ele>
        <time>2020-03-26T19:51:51Z</time>
      </trkpt>
      <trkpt lat="42.8812290" lon="-1.5645720">
        <ele>490.3</ele>
        <time>2020-03-26T19:51:53Z</time>
      </trkpt>
      <trkpt lat="42.8808990" lon="-1.5647720">
        <ele>489.9</ele>
        <time>2020-03-26T19:51:55Z</time>
      </trkpt>
      <trkpt lat="42.8807780" lon="-1.5648460">
        <ele>489.6</ele>
        <time>2020-03-26T19:51:57Z</time>
      </trkpt>
      <trkpt lat="42.8806560" lon="-1.5649200">
        <ele>489.3</ele>
        <time>2020-03-26T19:51:59Z</time>
      </trkpt>
      <trkpt lat="42.8805350" lon="-1.5649940">
        <ele>489.2</ele>
        <time>2020-03-26T19:52:01Z</time>
      </trkpt>
      <trkpt lat="42.8802660" lon="-1.5651580">
        <ele>488.7</ele>
        <time>2020-03-26T19:52:03Z</time>
      </trkpt>
      <trkpt lat="42.8800860" lon="-1.5652680">
        <ele>488.3</ele>
        <time>2020-03-26T19:52:05Z</time>
      </trkpt>
      <trkpt lat="42.8799620" lon="-1.5653440">
        <ele>488.2</ele>
        <time>2020-03-26T19:52:07Z</time>
      </trkpt>
      <trkpt lat="42.8798310" lon="-1.5654250">
        <ele>488.2</ele>
        <time>2020-03-26T19:52:09Z</time>
      </trkpt>
      <trkpt lat="42.8796980" lon="-1.5655060">
        <ele>488.1</ele>
        <time>2020-03-26T19:52:11Z</time>
      </trkpt>
      <trkpt lat="42.8793560" lon="-1.5657170">
        <ele>488.0</ele>
        <time>2020-03-26T19:52:13Z</time>
      </trkpt>
      <trkpt lat="42.8792170" lon="-1.5658030">
        <ele>487.8</ele>
        <time>2020-03-26T19:52:15Z</time>
      </trkpt>
      <trkpt lat="42.8790740" lon="-1.5658910">
        <ele>487.5</ele>
        <time>2020-03-26T19:52:17Z</time>
      </trkpt>
      <trkpt lat="42.8788130" lon="-1.5660490">
        <ele>486.2</ele>
        <time>2020-03-26T19:52:19Z</time>
      </trkpt>
      <trkpt lat="42.8785710" lon="-1.5661930">
        <ele>484.7</ele>
        <time>2020-03-26T19:52:21Z</time>
      </trkpt>
      <trkpt lat="42.8784240" lon="-1.5662880">
        <ele>484.1</ele>
        <time>2020-03-26T19:52:23Z</time>
      </trkpt>
      <trkpt lat="42.8782830" lon="-1.5663780">
        <ele>483.5</ele>
        <time>2020-03-26T19:52:25Z</time>
      </trkpt>
      <trkpt lat="42.8781440" lon="-1.5664670">
        <ele>482.8</ele>
        <time>2020-03-26T19:52:27Z</time>
      </trkpt>
      <trkpt lat="42.8777970" lon="-1.5666910">
        <ele>481.1</ele>
        <time>2020-03-26T19:52:29Z</time>
      </trkpt>
      <trkpt lat="42.8776600" lon="-1.5667770">
        <ele>481.6</ele>
        <time>2020-03-26T19:52:31Z</time>
      </trkpt>
      <trkpt lat="42.8774440" lon="-1.5669120">
        <ele>482.3</ele>
        <time>2020-03-26T19:52:33Z</time>
      </trkpt>
      <trkpt lat="42.8773100" lon="-1.5669970">
        <ele>482.5</ele>
        <time>2020-03-26T19:52:35Z</time>
      </trkpt>
      <trkpt lat="42.8770830" lon="-1.5671410">
        <ele>482.7</ele>
        <time>2020-03-26T19:52:37Z</time>
      </trkpt>
      <trkpt lat="42.8769540" lon="-1.5672230">
        <ele>482.9</ele>
        <time>2020-03-26T19:52:39Z</time>
      </trkpt>
      <trkpt lat="42.8768280" lon="-1.5673030">
        <ele>483.1</ele>
        <time>2020-03-26T19:52:41Z</time>
      </trkpt>
      <trkpt lat="42.8767050" lon="-1.5673810">
        <ele>483.5</ele>
        <time>2020-03-26T19:52:43Z</time>
      </trkpt>
      <trkpt lat="42.8763910" lon="-1.5675810">
        <ele>484.0</ele>
        <time>2020-03-26T19:52:45Z</time>
      </trkpt>
      <trkpt lat="42.8762660" lon="-1.5676630">
        <ele>483.5</ele>
        <time>2020-03-26T19:52:47Z</time>
      </trkpt>
      <trkpt lat="42.8761360" lon="-1.5677470">
        <ele>483.0</ele>
        <time>2020-03-26T19:52:49Z</time>
      </trkpt>
      <trkpt lat="42.8760030" lon="-1.5678340">
        <ele>482.4</ele>
        <time>2020-03-26T19:52:51Z</time>
      </trkpt>
      <trkpt lat="42.8756810" lon="-1.5680440">
        <ele>481.3</ele>
        <time>2020-03-26T19:52:53Z</time>
      </trkpt>
      <trkpt lat="42.8755430" lon="-1.5681340">
        <ele>480.8</ele>
        <time>2020-03-26T19:52:55Z</time>
      </trkpt>
      <trkpt lat="42.8754020" lon="-1.5682260">
        <ele>480.4</ele>
        <time>2020-03-26T19:52:57Z</time>
      </trkpt>
      <trkpt lat="42.8751300" lon="-1.5684040">
        <ele>479.5</ele>
        <time>2020-03-26T19:52:59Z</time>
      </trkpt>
      <trkpt lat="42.8749230" lon="-1.5685410">
        <ele>478.8</ele>
        <time>2020-03-26T19:53:01Z</time>
      </trkpt>
      <trkpt lat="42.8747690" lon="-1.5686430">
        <ele>478.2</ele>
        <time>2020-03-26T19:53:03Z</time>
      </trkpt>
      <trkpt lat="42.8746110" lon="-1.5687480">
        <ele>477.4</ele>
        <time>2020-03-26T19:53:05Z</time>
      </trkpt>
      <trkpt lat="42.8742650" lon="-1.5689780">
        <ele>476.2</ele>
        <time>2020-03-26T19:53:07Z</time>
      </trkpt>
      <trkpt lat="42.8741150" lon="-1.5690780">
        <ele>475.6</ele>
        <time>2020-03-26T19:53:09Z</time>
      </trkpt>
      <trkpt lat="42.8739740" lon="-1.5691720">
        <ele>474.8</ele>
        <time>2020-03-26T19:53:12Z</time>
      </trkpt>
      <trkpt lat="42.8738440" lon="-1.5692580">
        <ele>474.2</ele>
        <time>2020-03-26T19:53:14Z</time>
      </trkpt>
      <trkpt lat="42.8735360" lon="-1.5694640">
        <ele>474.2</ele>
        <time>2020-03-26T19:53:16Z</time>
      </trkpt>
      <trkpt lat="42.8734230" lon="-1.5695410">
        <ele>475.0</ele>
        <time>2020-03-26T19:53:18Z</time>
      </trkpt>
      <trkpt lat="42.8733170" lon="-1.5696130">
        <ele>475.8</ele>
        <time>2020-03-26T19:53:20Z</time>
      </trkpt>
      <trkpt lat="42.8730810" lon="-1.5697730">
        <ele>477.8</ele>
        <time>2020-03-26T19:53:22Z</time>
      </trkpt>
      <trkpt lat="42.8729960" lon="-1.5698310">
        <ele>478.6</ele>
        <time>2020-03-26T19:53:24Z</time>
      </trkpt>
      <trkpt lat="42.8729250" lon="-1.5698790">
        <ele>479.3</ele>
        <time>2020-03-26T19:53:26Z</time>
      </trkpt>
      <trkpt lat="42.8728650" lon="-1.5699200">
        <ele>480.0</ele>
        <time>2020-03-26T19:53:28Z</time>
      </trkpt>
      <trkpt lat="42.8728160" lon="-1.5699530">
        <ele>480.5</ele>
        <time>2020-03-26T19:53:30Z</time>
      </trkpt>
      <trkpt lat="42.8727730" lon="-1.5699820">
        <ele>481.0</ele>
        <time>2020-03-26T19:53:32Z</time>
      </trkpt>
      <trkpt lat="42.8725990" lon="-1.5700980">
        <ele>482.9</ele>
        <time>2020-03-26T19:53:34Z</time>
      </trkpt>
      <trkpt lat="42.8725650" lon="-1.5701190">
        <ele>483.3</ele>
        <time>2020-03-26T19:53:36Z</time>
      </trkpt>
      <trkpt lat="42.8725310" lon="-1.5701390">
        <ele>483.7</ele>
        <time>2020-03-26T19:53:38Z</time>
      </trkpt>
      <trkpt lat="42.8724580" lon="-1.5701830">
        <ele>484.5</ele>
        <time>2020-03-26T19:53:40Z</time>
      </trkpt>
      <trkpt lat="42.8724260" lon="-1.5702000">
        <ele>484.9</ele>
        <time>2020-03-26T19:53:42Z</time>
      </trkpt>
      <trkpt lat="42.8723950" lon="-1.5702170">
        <ele>485.3</ele>
        <time>2020-03-26T19:53:44Z</time>
      </trkpt>
      <trkpt lat="42.8723630" lon="-1.5702340">
        <ele>485.6</ele>
        <time>2020-03-26T19:53:46Z</time>
      </trkpt>
      <trkpt lat="42.8723320" lon="-1.5702510">
        <ele>486.0</ele>
        <time>2020-03-26T19:53:48Z</time>
      </trkpt>
      <trkpt lat="42.8722460" lon="-1.5702950">
        <ele>486.8</ele>
        <time>2020-03-26T19:53:50Z</time>
      </trkpt>
      <trkpt lat="42.8722140" lon="-1.5703090">
        <ele>487.1</ele>
        <time>2020-03-26T19:53:52Z</time>
      </trkpt>
      <trkpt lat="42.8721820" lon="-1.5703240">
        <ele>487.4</ele>
        <time>2020-03-26T19:53:54Z</time>
      </trkpt>
      <trkpt lat="42.8721500" lon="-1.5703380">
        <ele>487.8</ele>
        <time>2020-03-26T19:53:56Z</time>
      </trkpt>
      <trkpt lat="42.8721180" lon="-1.5703530">
        <ele>488.1</ele>
        <time>2020-03-26T19:53:58Z</time>
      </trkpt>
      <trkpt lat="42.8720850" lon="-1.5703670">
        <ele>488.4</ele>
        <time>2020-03-26T19:54:00Z</time>
      </trkpt>
      <trkpt lat="42.8720530" lon="-1.5703820">
        <ele>488.7</ele>
        <time>2020-03-26T19:54:02Z</time>
      </trkpt>
      <trkpt lat="42.8720210" lon="-1.5703960">
        <ele>489.0</ele>
        <time>2020-03-26T19:54:04Z</time>
      </trkpt>
      <trkpt lat="42.8719880" lon="-1.5704110">
        <ele>489.4</ele>
        <time>2020-03-26T19:54:06Z</time>
      </trkpt>
      <trkpt lat="42.8719550" lon="-1.5704260">
        <ele>489.7</ele>
        <time>2020-03-26T19:54:08Z</time>
      </trkpt>
      <trkpt lat="42.8719230" lon="-1.5704400">
        <ele>490.0</ele>
        <time>2020-03-26T19:54:10Z</time>
      </trkpt>
      <trkpt lat="42.8717620" lon="-1.5705140">
        <ele>491.6</ele>
        <time>2020-03-26T19:54:12Z</time>
      </trkpt>
      <trkpt lat="42.8717080" lon="-1.5705420">
        <ele>492.0</ele>
        <time>2020-03-26T19:54:14Z</time>
      </trkpt>
      <trkpt lat="42.8716410" lon="-1.5705760">
        <ele>492.6</ele>
        <time>2020-03-26T19:54:16Z</time>
      </trkpt>
      <trkpt lat="42.8714990" lon="-1.5706530">
        <ele>493.8</ele>
        <time>2020-03-26T19:54:18Z</time>
      </trkpt>
      <trkpt lat="42.8714200" lon="-1.5707010">
        <ele>494.4</ele>
        <time>2020-03-26T19:54:20Z</time>
      </trkpt>
      <trkpt lat="42.8712850" lon="-1.5707850">
        <ele>495.4</ele>
        <time>2020-03-26T19:54:22Z</time>
      </trkpt>
      <trkpt lat="42.8712010" lon="-1.5708380">
        <ele>495.9</ele>
        <time>2020-03-26T19:54:24Z</time>
      </trkpt>
      <trkpt lat="42.8711160" lon="-1.5708910">
        <ele>496.3</ele>
        <time>2020-03-26T19:54:26Z</time>
      </trkpt>
      <trkpt lat="42.8709360" lon="-1.5710050">
        <ele>497.3</ele>
        <time>2020-03-26T19:54:28Z</time>
      </trkpt>
      <trkpt lat="42.8708480" lon="-1.5710600">
        <ele>497.7</ele>
        <time>2020-03-26T19:54:30Z</time>
      </trkpt>
      <trkpt lat="42.8706960" lon="-1.5711570">
        <ele>498.4</ele>
        <time>2020-03-26T19:54:32Z</time>
      </trkpt>
      <trkpt lat="42.8705390" lon="-1.5712470">
        <ele>497.0</ele>
        <time>2020-03-26T19:54:34Z</time>
      </trkpt>
      <trkpt lat="42.8703320" lon="-1.5713430">
        <ele>493.4</ele>
        <time>2020-03-26T19:54:36Z</time>
      </trkpt>
      <trkpt lat="42.8700620" lon="-1.5714160">
        <ele>489.2</ele>
        <time>2020-03-26T19:54:38Z</time>
      </trkpt>
      <trkpt lat="42.8697930" lon="-1.5714450">
        <ele>485.0</ele>
        <time>2020-03-26T19:54:40Z</time>
      </trkpt>
      <trkpt lat="42.8695910" lon="-1.5714550">
        <ele>485.0</ele>
        <time>2020-03-26T19:54:42Z</time>
      </trkpt>
      <trkpt lat="42.8694010" lon="-1.5714640">
        <ele>485.1</ele>
        <time>2020-03-26T19:54:44Z</time>
      </trkpt>
      <trkpt lat="42.8692230" lon="-1.5714730">
        <ele>485.3</ele>
        <time>2020-03-26T19:54:46Z</time>
      </trkpt>
      <trkpt lat="42.8688310" lon="-1.5714980">
        <ele>485.9</ele>
        <time>2020-03-26T19:54:48Z</time>
      </trkpt>
      <trkpt lat="42.8685690" lon="-1.5715360">
        <ele>486.0</ele>
        <time>2020-03-26T19:54:50Z</time>
      </trkpt>
      <trkpt lat="42.8683850" lon="-1.5715850">
        <ele>486.0</ele>
        <time>2020-03-26T19:54:52Z</time>
      </trkpt>
      <trkpt lat="42.8681630" lon="-1.5716540">
        <ele>486.0</ele>
        <time>2020-03-26T19:54:54Z</time>
      </trkpt>
      <trkpt lat="42.8680270" lon="-1.5717030">
        <ele>486.0</ele>
        <time>2020-03-26T19:54:56Z</time>
      </trkpt>
      <trkpt lat="42.8677960" lon="-1.5717860">
        <ele>486.0</ele>
        <time>2020-03-26T19:54:58Z</time>
      </trkpt>
      <trkpt lat="42.8676630" lon="-1.5718390">
        <ele>485.9</ele>
        <time>2020-03-26T19:55:00Z</time>
      </trkpt>
      <trkpt lat="42.8675310" lon="-1.5718920">
        <ele>485.9</ele>
        <time>2020-03-26T19:55:02Z</time>
      </trkpt>
      <trkpt lat="42.8674000" lon="-1.5719440">
        <ele>485.9</ele>
        <time>2020-03-26T19:55:04Z</time>
      </trkpt>
      <trkpt lat="42.8672700" lon="-1.5719970">
        <ele>485.7</ele>
        <time>2020-03-26T19:55:06Z</time>
      </trkpt>
      <trkpt lat="42.8669120" lon="-1.5721400">
        <ele>485.1</ele>
        <time>2020-03-26T19:55:08Z</time>
      </trkpt>
      <trkpt lat="42.8667820" lon="-1.5721910">
        <ele>485.0</ele>
        <time>2020-03-26T19:55:10Z</time>
      </trkpt>
      <trkpt lat="42.8666540" lon="-1.5722410">
        <ele>484.9</ele>
        <time>2020-03-26T19:55:12Z</time>
      </trkpt>
      <trkpt lat="42.8665300" lon="-1.5722890">
        <ele>484.9</ele>
        <time>2020-03-26T19:55:14Z</time>
      </trkpt>
      <trkpt lat="42.8662290" lon="-1.5724070">
        <ele>484.9</ele>
        <time>2020-03-26T19:55:16Z</time>
      </trkpt>
      <trkpt lat="42.8661070" lon="-1.5724550">
        <ele>484.9</ele>
        <time>2020-03-26T19:55:18Z</time>
      </trkpt>
      <trkpt lat="42.8659840" lon="-1.5725030">
        <ele>484.9</ele>
        <time>2020-03-26T19:55:20Z</time>
      </trkpt>
      <trkpt lat="42.8658640" lon="-1.5725500">
        <ele>484.9</ele>
        <time>2020-03-26T19:55:22Z</time>
      </trkpt>
      <trkpt lat="42.8657450" lon="-1.5725960">
        <ele>484.9</ele>
        <time>2020-03-26T19:55:24Z</time>
      </trkpt>
      <trkpt lat="42.8654200" lon="-1.5727090">
        <ele>484.7</ele>
        <time>2020-03-26T19:55:26Z</time>
      </trkpt>
      <trkpt lat="42.8652940" lon="-1.5727430">
        <ele>484.5</ele>
        <time>2020-03-26T19:55:28Z</time>
      </trkpt>
      <trkpt lat="42.8650380" lon="-1.5728110">
        <ele>484.1</ele>
        <time>2020-03-26T19:55:30Z</time>
      </trkpt>
      <trkpt lat="42.8649060" lon="-1.5728400">
        <ele>483.9</ele>
        <time>2020-03-26T19:55:32Z</time>
      </trkpt>
      <trkpt lat="42.8647720" lon="-1.5728690">
        <ele>483.9</ele>
        <time>2020-03-26T19:55:34Z</time>
      </trkpt>
      <trkpt lat="42.8646370" lon="-1.5728990">
        <ele>483.9</ele>
        <time>2020-03-26T19:55:36Z</time>
      </trkpt>
      <trkpt lat="42.8643110" lon="-1.5729700">
        <ele>483.8</ele>
        <time>2020-03-26T19:55:38Z</time>
      </trkpt>
      <trkpt lat="42.8641680" lon="-1.5730020">
        <ele>483.8</ele>
        <time>2020-03-26T19:55:40Z</time>
      </trkpt>
      <trkpt lat="42.8639180" lon="-1.5730560">
        <ele>483.5</ele>
        <time>2020-03-26T19:55:42Z</time>
      </trkpt>
      <trkpt lat="42.8637590" lon="-1.5730890">
        <ele>483.2</ele>
        <time>2020-03-26T19:55:44Z</time>
      </trkpt>
      <trkpt lat="42.8635010" lon="-1.5731430">
        <ele>482.9</ele>
        <time>2020-03-26T19:55:46Z</time>
      </trkpt>
      <trkpt lat="42.8632370" lon="-1.5731990">
        <ele>482.8</ele>
        <time>2020-03-26T19:55:48Z</time>
      </trkpt>
      <trkpt lat="42.8630750" lon="-1.5732350">
        <ele>482.7</ele>
        <time>2020-03-26T19:55:50Z</time>
      </trkpt>
      <trkpt lat="42.8628300" lon="-1.5732990">
        <ele>482.4</ele>
        <time>2020-03-26T19:55:52Z</time>
      </trkpt>
      <trkpt lat="42.8626070" lon="-1.5733700">
        <ele>481.9</ele>
        <time>2020-03-26T19:55:54Z</time>
      </trkpt>
      <trkpt lat="42.8624810" lon="-1.5734310">
        <ele>481.8</ele>
        <time>2020-03-26T19:55:56Z</time>
      </trkpt>
      <trkpt lat="42.8623000" lon="-1.5735240">
        <ele>481.8</ele>
        <time>2020-03-26T19:55:58Z</time>
      </trkpt>
      <trkpt lat="42.8621820" lon="-1.5735890">
        <ele>481.8</ele>
        <time>2020-03-26T19:56:00Z</time>
      </trkpt>
      <trkpt lat="42.8619650" lon="-1.5737130">
        <ele>481.7</ele>
        <time>2020-03-26T19:56:02Z</time>
      </trkpt>
      <trkpt lat="42.8618110" lon="-1.5738100">
        <ele>481.7</ele>
        <time>2020-03-26T19:56:04Z</time>
      </trkpt>
      <trkpt lat="42.8616480" lon="-1.5739200">
        <ele>481.7</ele>
        <time>2020-03-26T19:56:06Z</time>
      </trkpt>
      <trkpt lat="42.8614870" lon="-1.5740440">
        <ele>481.7</ele>
        <time>2020-03-26T19:56:08Z</time>
      </trkpt>
      <trkpt lat="42.8613380" lon="-1.5741790">
        <ele>481.7</ele>
        <time>2020-03-26T19:56:10Z</time>
      </trkpt>
      <trkpt lat="42.8612260" lon="-1.5742890">
        <ele>481.7</ele>
        <time>2020-03-26T19:56:12Z</time>
      </trkpt>
      <trkpt lat="42.8610340" lon="-1.5744640">
        <ele>481.4</ele>
        <time>2020-03-26T19:56:14Z</time>
      </trkpt>
      <trkpt lat="42.8608440" lon="-1.5745840">
        <ele>480.8</ele>
        <time>2020-03-26T19:56:16Z</time>
      </trkpt>
      <trkpt lat="42.8606400" lon="-1.5746810">
        <ele>480.1</ele>
        <time>2020-03-26T19:56:18Z</time>
      </trkpt>
      <trkpt lat="42.8603910" lon="-1.5747900">
        <ele>479.2</ele>
        <time>2020-03-26T19:56:20Z</time>
      </trkpt>
      <trkpt lat="42.8601770" lon="-1.5749140">
        <ele>478.3</ele>
        <time>2020-03-26T19:56:22Z</time>
      </trkpt>
      <trkpt lat="42.8599560" lon="-1.5751100">
        <ele>477.5</ele>
        <time>2020-03-26T19:56:24Z</time>
      </trkpt>
      <trkpt lat="42.8597840" lon="-1.5753170">
        <ele>477.0</ele>
        <time>2020-03-26T19:56:26Z</time>
      </trkpt>
      <trkpt lat="42.8595930" lon="-1.5755600">
        <ele>476.6</ele>
        <time>2020-03-26T19:56:28Z</time>
      </trkpt>
      <trkpt lat="42.8594670" lon="-1.5757220">
        <ele>476.1</ele>
        <time>2020-03-26T19:56:30Z</time>
      </trkpt>
      <trkpt lat="42.8593460" lon="-1.5758780">
        <ele>475.7</ele>
        <time>2020-03-26T19:56:32Z</time>
      </trkpt>
      <trkpt lat="42.8592320" lon="-1.5760250">
        <ele>475.3</ele>
        <time>2020-03-26T19:56:34Z</time>
      </trkpt>
      <trkpt lat="42.8589630" lon="-1.5763720">
        <ele>474.9</ele>
        <time>2020-03-26T19:56:36Z</time>
      </trkpt>
      <trkpt lat="42.8588560" lon="-1.5765090">
        <ele>474.9</ele>
        <time>2020-03-26T19:56:38Z</time>
      </trkpt>
      <trkpt lat="42.8587540" lon="-1.5766420">
        <ele>474.9</ele>
        <time>2020-03-26T19:56:40Z</time>
      </trkpt>
      <trkpt lat="42.8586540" lon="-1.5767710">
        <ele>475.0</ele>
        <time>2020-03-26T19:56:42Z</time>
      </trkpt>
      <trkpt lat="42.8584000" lon="-1.5770990">
        <ele>475.7</ele>
        <time>2020-03-26T19:56:44Z</time>
      </trkpt>
      <trkpt lat="42.8583070" lon="-1.5772190">
        <ele>475.9</ele>
        <time>2020-03-26T19:56:46Z</time>
      </trkpt>
      <trkpt lat="42.8582170" lon="-1.5773350">
        <ele>476.1</ele>
        <time>2020-03-26T19:56:48Z</time>
      </trkpt>
      <trkpt lat="42.8581310" lon="-1.5774470">
        <ele>476.2</ele>
        <time>2020-03-26T19:56:50Z</time>
      </trkpt>
      <trkpt lat="42.8580470" lon="-1.5775540">
        <ele>476.5</ele>
        <time>2020-03-26T19:56:52Z</time>
      </trkpt>
      <trkpt lat="42.8578080" lon="-1.5778590">
        <ele>477.1</ele>
        <time>2020-03-26T19:56:54Z</time>
      </trkpt>
      <trkpt lat="42.8577260" lon="-1.5779580">
        <ele>477.2</ele>
        <time>2020-03-26T19:56:56Z</time>
      </trkpt>
      <trkpt lat="42.8576460" lon="-1.5780540">
        <ele>477.4</ele>
        <time>2020-03-26T19:56:58Z</time>
      </trkpt>
      <trkpt lat="42.8575670" lon="-1.5781490">
        <ele>477.8</ele>
        <time>2020-03-26T19:57:00Z</time>
      </trkpt>
      <trkpt lat="42.8573600" lon="-1.5783990">
        <ele>478.7</ele>
        <time>2020-03-26T19:57:02Z</time>
      </trkpt>
      <trkpt lat="42.8572830" lon="-1.5784920">
        <ele>479.0</ele>
        <time>2020-03-26T19:57:04Z</time>
      </trkpt>
      <trkpt lat="42.8572040" lon="-1.5785870">
        <ele>479.3</ele>
        <time>2020-03-26T19:57:06Z</time>
      </trkpt>
      <trkpt lat="42.8571250" lon="-1.5786820">
        <ele>479.6</ele>
        <time>2020-03-26T19:57:08Z</time>
      </trkpt>
      <trkpt lat="42.8570450" lon="-1.5787790">
        <ele>479.9</ele>
        <time>2020-03-26T19:57:10Z</time>
      </trkpt>
      <trkpt lat="42.8568330" lon="-1.5790350">
        <ele>480.7</ele>
        <time>2020-03-26T19:57:12Z</time>
      </trkpt>
      <trkpt lat="42.8567510" lon="-1.5791330">
        <ele>481.1</ele>
        <time>2020-03-26T19:57:14Z</time>
      </trkpt>
      <trkpt lat="42.8566700" lon="-1.5792310">
        <ele>481.5</ele>
        <time>2020-03-26T19:57:16Z</time>
      </trkpt>
      <trkpt lat="42.8565860" lon="-1.5793320">
        <ele>481.9</ele>
        <time>2020-03-26T19:57:18Z</time>
      </trkpt>
      <trkpt lat="42.8563730" lon="-1.5795890">
        <ele>482.5</ele>
        <time>2020-03-26T19:57:20Z</time>
      </trkpt>
      <trkpt lat="42.8562840" lon="-1.5796930">
        <ele>482.9</ele>
        <time>2020-03-26T19:57:22Z</time>
      </trkpt>
      <trkpt lat="42.8561890" lon="-1.5798040">
        <ele>483.4</ele>
        <time>2020-03-26T19:57:24Z</time>
      </trkpt>
      <trkpt lat="42.8560880" lon="-1.5799220">
        <ele>484.0</ele>
        <time>2020-03-26T19:57:26Z</time>
      </trkpt>
      <trkpt lat="42.8558360" lon="-1.5802050">
        <ele>484.5</ele>
        <time>2020-03-26T19:57:28Z</time>
      </trkpt>
      <trkpt lat="42.8557230" lon="-1.5803260">
        <ele>483.6</ele>
        <time>2020-03-26T19:57:30Z</time>
      </trkpt>
      <trkpt lat="42.8556060" lon="-1.5804510">
        <ele>483.0</ele>
        <time>2020-03-26T19:57:32Z</time>
      </trkpt>
      <trkpt lat="42.8554860" lon="-1.5805790">
        <ele>482.4</ele>
        <time>2020-03-26T19:57:34Z</time>
      </trkpt>
      <trkpt lat="42.8552070" lon="-1.5808760">
        <ele>480.6</ele>
        <time>2020-03-26T19:57:36Z</time>
      </trkpt>
      <trkpt lat="42.8550800" lon="-1.5810100">
        <ele>479.6</ele>
        <time>2020-03-26T19:57:38Z</time>
      </trkpt>
      <trkpt lat="42.8549510" lon="-1.5811460">
        <ele>478.5</ele>
        <time>2020-03-26T19:57:40Z</time>
      </trkpt>
      <trkpt lat="42.8546630" lon="-1.5814500">
        <ele>476.0</ele>
        <time>2020-03-26T19:57:42Z</time>
      </trkpt>
      <trkpt lat="42.8545310" lon="-1.5815890">
        <ele>474.7</ele>
        <time>2020-03-26T19:57:44Z</time>
      </trkpt>
      <trkpt lat="42.8542950" lon="-1.5818380">
        <ele>472.7</ele>
        <time>2020-03-26T19:57:46Z</time>
      </trkpt>
      <trkpt lat="42.8541590" lon="-1.5819830">
        <ele>473.9</ele>
        <time>2020-03-26T19:57:48Z</time>
      </trkpt>
      <trkpt lat="42.8539800" lon="-1.5822070">
        <ele>473.6</ele>
        <time>2020-03-26T19:57:50Z</time>
      </trkpt>
      <trkpt lat="42.8537730" lon="-1.5824930">
        <ele>472.0</ele>
        <time>2020-03-26T19:57:52Z</time>
      </trkpt>
      <trkpt lat="42.8536390" lon="-1.5826560">
        <ele>470.9</ele>
        <time>2020-03-26T19:57:54Z</time>
      </trkpt>
      <trkpt lat="42.8534220" lon="-1.5829230">
        <ele>469.7</ele>
        <time>2020-03-26T19:57:56Z</time>
      </trkpt>
      <trkpt lat="42.8532460" lon="-1.5831330">
        <ele>469.4</ele>
        <time>2020-03-26T19:57:58Z</time>
      </trkpt>
      <trkpt lat="42.8530290" lon="-1.5833950">
        <ele>469.6</ele>
        <time>2020-03-26T19:58:00Z</time>
      </trkpt>
      <trkpt lat="42.8528180" lon="-1.5836360">
        <ele>468.8</ele>
        <time>2020-03-26T19:58:02Z</time>
      </trkpt>
      <trkpt lat="42.8525610" lon="-1.5837710">
        <ele>465.8</ele>
        <time>2020-03-26T19:58:04Z</time>
      </trkpt>
      <trkpt lat="42.8522940" lon="-1.5837290">
        <ele>462.3</ele>
        <time>2020-03-26T19:58:06Z</time>
      </trkpt>
      <trkpt lat="42.8520710" lon="-1.5836770">
        <ele>460.2</ele>
        <time>2020-03-26T19:58:08Z</time>
      </trkpt>
      <trkpt lat="42.8517380" lon="-1.5837070">
        <ele>455.4</ele>
        <time>2020-03-26T19:58:10Z</time>
      </trkpt>
      <trkpt lat="42.8516670" lon="-1.5840630">
        <ele>454.1</ele>
        <time>2020-03-26T19:58:12Z</time>
      </trkpt>
      <trkpt lat="42.8517480" lon="-1.5838240">
        <ele>455.0</ele>
        <time>2020-03-26T19:58:14Z</time>
      </trkpt>
      <trkpt lat="42.8517170" lon="-1.5835390">
        <ele>455.2</ele>
        <time>2020-03-26T19:58:16Z</time>
      </trkpt>
      <trkpt lat="42.8515420" lon="-1.5836080">
        <ele>454.7</ele>
        <time>2020-03-26T19:58:18Z</time>
      </trkpt>
      <trkpt lat="42.8513790" lon="-1.5836720">
        <ele>454.4</ele>
        <time>2020-03-26T19:58:20Z</time>
      </trkpt>
      <trkpt lat="42.8510410" lon="-1.5838010">
        <ele>453.9</ele>
        <time>2020-03-26T19:58:22Z</time>
      </trkpt>
      <trkpt lat="42.8508910" lon="-1.5838510">
        <ele>453.6</ele>
        <time>2020-03-26T19:58:24Z</time>
      </trkpt>
      <trkpt lat="42.8507470" lon="-1.5838970">
        <ele>453.3</ele>
        <time>2020-03-26T19:58:26Z</time>
      </trkpt>
      <trkpt lat="42.8506080" lon="-1.5839430">
        <ele>453.1</ele>
        <time>2020-03-26T19:58:28Z</time>
      </trkpt>
      <trkpt lat="42.8502910" lon="-1.5840400">
        <ele>452.8</ele>
        <time>2020-03-26T19:58:30Z</time>
      </trkpt>
      <trkpt lat="42.8501550" lon="-1.5840780">
        <ele>452.7</ele>
        <time>2020-03-26T19:58:32Z</time>
      </trkpt>
      <trkpt lat="42.8499020" lon="-1.5841470">
        <ele>452.8</ele>
        <time>2020-03-26T19:58:34Z</time>
      </trkpt>
      <trkpt lat="42.8497170" lon="-1.5841960">
        <ele>452.8</ele>
        <time>2020-03-26T19:58:36Z</time>
      </trkpt>
      <trkpt lat="42.8495860" lon="-1.5842300">
        <ele>452.9</ele>
        <time>2020-03-26T19:58:38Z</time>
      </trkpt>
      <trkpt lat="42.8494590" lon="-1.5842640">
        <ele>453.2</ele>
        <time>2020-03-26T19:58:40Z</time>
      </trkpt>
      <trkpt lat="42.8493370" lon="-1.5842960">
        <ele>453.4</ele>
        <time>2020-03-26T19:58:42Z</time>
      </trkpt>
      <trkpt lat="42.8490480" lon="-1.5843720">
        <ele>453.7</ele>
        <time>2020-03-26T19:58:44Z</time>
      </trkpt>
      <trkpt lat="42.8489320" lon="-1.5844030">
        <ele>453.7</ele>
        <time>2020-03-26T19:58:46Z</time>
      </trkpt>
      <trkpt lat="42.8488200" lon="-1.5844330">
        <ele>453.7</ele>
        <time>2020-03-26T19:58:48Z</time>
      </trkpt>
      <trkpt lat="42.8487100" lon="-1.5844620">
        <ele>453.7</ele>
        <time>2020-03-26T19:58:50Z</time>
      </trkpt>
      <trkpt lat="42.8484330" lon="-1.5845380">
        <ele>453.7</ele>
        <time>2020-03-26T19:58:52Z</time>
      </trkpt>
      <trkpt lat="42.8483280" lon="-1.5845760">
        <ele>453.7</ele>
        <time>2020-03-26T19:58:54Z</time>
      </trkpt>
      <trkpt lat="42.8481460" lon="-1.5846460">
        <ele>453.7</ele>
        <time>2020-03-26T19:58:56Z</time>
      </trkpt>
      <trkpt lat="42.8480410" lon="-1.5846970">
        <ele>453.7</ele>
        <time>2020-03-26T19:58:58Z</time>
      </trkpt>
      <trkpt lat="42.8479350" lon="-1.5847470">
        <ele>453.8</ele>
        <time>2020-03-26T19:59:00Z</time>
      </trkpt>
      <trkpt lat="42.8478290" lon="-1.5847970">
        <ele>453.8</ele>
        <time>2020-03-26T19:59:02Z</time>
      </trkpt>
      <trkpt lat="42.8477240" lon="-1.5848480">
        <ele>454.0</ele>
        <time>2020-03-26T19:59:04Z</time>
      </trkpt>
      <trkpt lat="42.8474430" lon="-1.5849820">
        <ele>454.6</ele>
        <time>2020-03-26T19:59:06Z</time>
      </trkpt>
      <trkpt lat="42.8473340" lon="-1.5850350">
        <ele>454.7</ele>
        <time>2020-03-26T19:59:08Z</time>
      </trkpt>
      <trkpt lat="42.8472230" lon="-1.5850880">
        <ele>454.7</ele>
        <time>2020-03-26T19:59:10Z</time>
      </trkpt>
      <trkpt lat="42.8471090" lon="-1.5851430">
        <ele>454.7</ele>
        <time>2020-03-26T19:59:12Z</time>
      </trkpt>
      <trkpt lat="42.8468180" lon="-1.5852790">
        <ele>454.5</ele>
        <time>2020-03-26T19:59:14Z</time>
      </trkpt>
      <trkpt lat="42.8466970" lon="-1.5853300">
        <ele>454.2</ele>
        <time>2020-03-26T19:59:16Z</time>
      </trkpt>
      <trkpt lat="42.8465750" lon="-1.5853810">
        <ele>453.9</ele>
        <time>2020-03-26T19:59:18Z</time>
      </trkpt>
      <trkpt lat="42.8464520" lon="-1.5854320">
        <ele>453.8</ele>
        <time>2020-03-26T19:59:20Z</time>
      </trkpt>
      <trkpt lat="42.8461440" lon="-1.5855620">
        <ele>453.6</ele>
        <time>2020-03-26T19:59:22Z</time>
      </trkpt>
      <trkpt lat="42.8459950" lon="-1.5856290">
        <ele>453.3</ele>
        <time>2020-03-26T19:59:24Z</time>
      </trkpt>
      <trkpt lat="42.8458640" lon="-1.5856880">
        <ele>452.9</ele>
        <time>2020-03-26T19:59:26Z</time>
      </trkpt>
      <trkpt lat="42.8457320" lon="-1.5857480">
        <ele>452.6</ele>
        <time>2020-03-26T19:59:28Z</time>
      </trkpt>
      <trkpt lat="42.8455950" lon="-1.5858090">
        <ele>452.2</ele>
        <time>2020-03-26T19:59:30Z</time>
      </trkpt>
      <trkpt lat="42.8452500" lon="-1.5859590">
        <ele>451.5</ele>
        <time>2020-03-26T19:59:32Z</time>
      </trkpt>
      <trkpt lat="42.8451050" lon="-1.5860120">
        <ele>451.1</ele>
        <time>2020-03-26T19:59:34Z</time>
      </trkpt>
      <trkpt lat="42.8448520" lon="-1.5861040">
        <ele>450.7</ele>
        <time>2020-03-26T19:59:36Z</time>
      </trkpt>
      <trkpt lat="42.8446490" lon="-1.5861750">
        <ele>450.6</ele>
        <time>2020-03-26T19:59:38Z</time>
      </trkpt>
      <trkpt lat="42.8444970" lon="-1.5862280">
        <ele>450.6</ele>
        <time>2020-03-26T19:59:40Z</time>
      </trkpt>
      <trkpt lat="42.8443400" lon="-1.5862830">
        <ele>450.6</ele>
        <time>2020-03-26T19:59:42Z</time>
      </trkpt>
      <trkpt lat="42.8440200" lon="-1.5863790">
        <ele>450.6</ele>
        <time>2020-03-26T19:59:44Z</time>
      </trkpt>
      <trkpt lat="42.8437770" lon="-1.5864330">
        <ele>450.6</ele>
        <time>2020-03-26T19:59:46Z</time>
      </trkpt>
      <trkpt lat="42.8435350" lon="-1.5864760">
        <ele>450.5</ele>
        <time>2020-03-26T19:59:48Z</time>
      </trkpt>
      <trkpt lat="42.8433800" lon="-1.5864980">
        <ele>450.2</ele>
        <time>2020-03-26T19:59:50Z</time>
      </trkpt>
      <trkpt lat="42.8432270" lon="-1.5865210">
        <ele>449.9</ele>
        <time>2020-03-26T19:59:52Z</time>
      </trkpt>
      <trkpt lat="42.8430780" lon="-1.5865430">
        <ele>449.6</ele>
        <time>2020-03-26T19:59:54Z</time>
      </trkpt>
      <trkpt lat="42.8427110" lon="-1.5865940">
        <ele>449.6</ele>
        <time>2020-03-26T19:59:56Z</time>
      </trkpt>
      <trkpt lat="42.8425640" lon="-1.5866150">
        <ele>449.6</ele>
        <time>2020-03-26T19:59:58Z</time>
      </trkpt>
      <trkpt lat="42.8424200" lon="-1.5866340">
        <ele>449.6</ele>
        <time>2020-03-26T20:00:00Z</time>
      </trkpt>
      <trkpt lat="42.8422780" lon="-1.5866540">
        <ele>449.6</ele>
        <time>2020-03-26T20:00:02Z</time>
      </trkpt>
      <trkpt lat="42.8421400" lon="-1.5866730">
        <ele>449.6</ele>
        <time>2020-03-26T20:00:04Z</time>
      </trkpt>
      <trkpt lat="42.8417840" lon="-1.5867220">
        <ele>449.9</ele>
        <time>2020-03-26T20:00:06Z</time>
      </trkpt>
      <trkpt lat="42.8416410" lon="-1.5867410">
        <ele>449.8</ele>
        <time>2020-03-26T20:00:08Z</time>
      </trkpt>
      <trkpt lat="42.8414960" lon="-1.5867610">
        <ele>449.7</ele>
        <time>2020-03-26T20:00:10Z</time>
      </trkpt>
      <trkpt lat="42.8413490" lon="-1.5867810">
        <ele>449.7</ele>
        <time>2020-03-26T20:00:12Z</time>
      </trkpt>
      <trkpt lat="42.8409400" lon="-1.5868410">
        <ele>449.8</ele>
        <time>2020-03-26T20:00:14Z</time>
      </trkpt>
      <trkpt lat="42.8407630" lon="-1.5869000">
        <ele>449.7</ele>
        <time>2020-03-26T20:00:16Z</time>
      </trkpt>
      <trkpt lat="42.8405930" lon="-1.5870780">
        <ele>449.2</ele>
        <time>2020-03-26T20:00:18Z</time>
      </trkpt>
      <trkpt lat="42.8404700" lon="-1.5872500">
        <ele>449.0</ele>
        <time>2020-03-26T20:00:20Z</time>
      </trkpt>
      <trkpt lat="42.8403900" lon="-1.5874130">
        <ele>448.7</ele>
        <time>2020-03-26T20:00:22Z</time>
      </trkpt>
      <trkpt lat="42.8402370" lon="-1.5876730">
        <ele>448.2</ele>
        <time>2020-03-26T20:00:24Z</time>
      </trkpt>
      <trkpt lat="42.8401240" lon="-1.5878450">
        <ele>447.9</ele>
        <time>2020-03-26T20:00:26Z</time>
      </trkpt>
      <trkpt lat="42.8400430" lon="-1.5879730">
        <ele>447.9</ele>
        <time>2020-03-26T20:00:28Z</time>
      </trkpt>
      <trkpt lat="42.8398900" lon="-1.5882160">
        <ele>447.8</ele>
        <time>2020-03-26T20:00:30Z</time>
      </trkpt>
      <trkpt lat="42.8398060" lon="-1.5883400">
        <ele>447.9</ele>
        <time>2020-03-26T20:00:32Z</time>
      </trkpt>
      <trkpt lat="42.8396520" lon="-1.5885390">
        <ele>448.4</ele>
        <time>2020-03-26T20:00:34Z</time>
      </trkpt>
      <trkpt lat="42.8394870" lon="-1.5886730">
        <ele>449.0</ele>
        <time>2020-03-26T20:00:36Z</time>
      </trkpt>
      <trkpt lat="42.8392760" lon="-1.5887470">
        <ele>449.1</ele>
        <time>2020-03-26T20:00:38Z</time>
      </trkpt>
      <trkpt lat="42.8390750" lon="-1.5886880">
        <ele>448.3</ele>
        <time>2020-03-26T20:00:40Z</time>
      </trkpt>
      <trkpt lat="42.8389000" lon="-1.5885150">
        <ele>447.4</ele>
        <time>2020-03-26T20:00:42Z</time>
      </trkpt>
      <trkpt lat="42.8387970" lon="-1.5883000">
        <ele>446.9</ele>
        <time>2020-03-26T20:00:44Z</time>
      </trkpt>
      <trkpt lat="42.8387290" lon="-1.5880560">
        <ele>446.7</ele>
        <time>2020-03-26T20:00:46Z</time>
      </trkpt>
      <trkpt lat="42.8386550" lon="-1.5877460">
        <ele>446.6</ele>
        <time>2020-03-26T20:00:48Z</time>
      </trkpt>
      <trkpt lat="42.8385890" lon="-1.5874730">
        <ele>446.6</ele>
        <time>2020-03-26T20:00:50Z</time>
      </trkpt>
      <trkpt lat="42.8384960" lon="-1.5872240">
        <ele>446.6</ele>
        <time>2020-03-26T20:00:52Z</time>
      </trkpt>
      <trkpt lat="42.8383760" lon="-1.5870480">
        <ele>446.2</ele>
        <time>2020-03-26T20:00:54Z</time>
      </trkpt>
      <trkpt lat="42.8382000" lon="-1.5868910">
        <ele>445.9</ele>
        <time>2020-03-26T20:00:56Z</time>
      </trkpt>
      <trkpt lat="42.8380310" lon="-1.5867880">
        <ele>445.7</ele>
        <time>2020-03-26T20:00:58Z</time>
      </trkpt>
      <trkpt lat="42.8378960" lon="-1.5867400">
        <ele>445.7</ele>
        <time>2020-03-26T20:01:00Z</time>
      </trkpt>
      <trkpt lat="42.8376770" lon="-1.5866850">
        <ele>445.4</ele>
        <time>2020-03-26T20:01:02Z</time>
      </trkpt>
      <trkpt lat="42.8375400" lon="-1.5866750">
        <ele>445.1</ele>
        <time>2020-03-26T20:01:04Z</time>
      </trkpt>
      <trkpt lat="42.8373240" lon="-1.5866620">
        <ele>444.9</ele>
        <time>2020-03-26T20:01:06Z</time>
      </trkpt>
      <trkpt lat="42.8371010" lon="-1.5866380">
        <ele>444.9</ele>
        <time>2020-03-26T20:01:08Z</time>
      </trkpt>
      <trkpt lat="42.8369380" lon="-1.5866010">
        <ele>444.8</ele>
        <time>2020-03-26T20:01:10Z</time>
      </trkpt>
      <trkpt lat="42.8367390" lon="-1.5865400">
        <ele>444.4</ele>
        <time>2020-03-26T20:01:12Z</time>
      </trkpt>
      <trkpt lat="42.8366070" lon="-1.5865160">
        <ele>444.2</ele>
        <time>2020-03-26T20:01:14Z</time>
      </trkpt>
      <trkpt lat="42.8364750" lon="-1.5864920">
        <ele>444.3</ele>
        <time>2020-03-26T20:01:16Z</time>
      </trkpt>
      <trkpt lat="42.8363450" lon="-1.5864690">
        <ele>444.4</ele>
        <time>2020-03-26T20:01:18Z</time>
      </trkpt>
      <trkpt lat="42.8360260" lon="-1.5864150">
        <ele>444.3</ele>
        <time>2020-03-26T20:01:20Z</time>
      </trkpt>
      <trkpt lat="42.8358450" lon="-1.5864530">
        <ele>444.1</ele>
        <time>2020-03-26T20:01:22Z</time>
      </trkpt>
      <trkpt lat="42.8356910" lon="-1.5865170">
        <ele>443.9</ele>
        <time>2020-03-26T20:01:24Z</time>
      </trkpt>
      <trkpt lat="42.8355700" lon="-1.5863600">
        <ele>443.9</ele>
        <time>2020-03-26T20:01:26Z</time>
      </trkpt>
      <trkpt lat="42.8354220" lon="-1.5863100">
        <ele>443.8</ele>
        <time>2020-03-26T20:01:28Z</time>
      </trkpt>
      <trkpt lat="42.8352920" lon="-1.5862880">
        <ele>443.8</ele>
        <time>2020-03-26T20:01:30Z</time>
      </trkpt>
      <trkpt lat="42.8351590" lon="-1.5862670">
        <ele>443.8</ele>
        <time>2020-03-26T20:01:32Z</time>
      </trkpt>
      <trkpt lat="42.8348990" lon="-1.5862240">
        <ele>443.6</ele>
        <time>2020-03-26T20:01:34Z</time>
      </trkpt>
      <trkpt lat="42.8347620" lon="-1.5862020">
        <ele>443.4</ele>
        <time>2020-03-26T20:01:36Z</time>
      </trkpt>
      <trkpt lat="42.8344990" lon="-1.5861720">
        <ele>443.0</ele>
        <time>2020-03-26T20:01:38Z</time>
      </trkpt>
      <trkpt lat="42.8343150" lon="-1.5862620">
        <ele>443.1</ele>
        <time>2020-03-26T20:01:40Z</time>
      </trkpt>
      <trkpt lat="42.8341520" lon="-1.5861840">
        <ele>443.6</ele>
        <time>2020-03-26T20:01:42Z</time>
      </trkpt>
      <trkpt lat="42.8340390" lon="-1.5861460">
        <ele>443.9</ele>
        <time>2020-03-26T20:01:44Z</time>
      </trkpt>
      <trkpt lat="42.8338910" lon="-1.5861780">
        <ele>444.4</ele>
        <time>2020-03-26T20:01:46Z</time>
      </trkpt>
      <trkpt lat="42.8337540" lon="-1.5862000">
        <ele>444.8</ele>
        <time>2020-03-26T20:01:48Z</time>
      </trkpt>
      <trkpt lat="42.8336200" lon="-1.5862040">
        <ele>445.4</ele>
        <time>2020-03-26T20:01:50Z</time>
      </trkpt>
      <trkpt lat="42.8334980" lon="-1.5862090">
        <ele>445.9</ele>
        <time>2020-03-26T20:01:52Z</time>
      </trkpt>
      <trkpt lat="42.8334060" lon="-1.5862120">
        <ele>446.2</ele>
        <time>2020-03-26T20:01:54Z</time>
      </trkpt>
      <trkpt lat="42.8332390" lon="-1.5862180">
        <ele>446.6</ele>
        <time>2020-03-26T20:01:56Z</time>
      </trkpt>
      <trkpt lat="42.8330740" lon="-1.5862110">
        <ele>446.7</ele>
        <time>2020-03-26T20:01:58Z</time>
      </trkpt>
      <trkpt lat="42.8329230" lon="-1.5861580">
        <ele>446.7</ele>
        <time>2020-03-26T20:02:00Z</time>
      </trkpt>
      <trkpt lat="42.8327660" lon="-1.5860750">
        <ele>446.8</ele>
        <time>2020-03-26T20:02:02Z</time>
      </trkpt>
      <trkpt lat="42.8325410" lon="-1.5859750">
        <ele>446.8</ele>
        <time>2020-03-26T20:02:04Z</time>
      </trkpt>
      <trkpt lat="42.8323510" lon="-1.5859750">
        <ele>443.7</ele>
        <time>2020-03-26T20:02:06Z</time>
      </trkpt>
      <trkpt lat="42.8321830" lon="-1.5858020">
        <ele>442.8</ele>
        <time>2020-03-26T20:02:08Z</time>
      </trkpt>
      <trkpt lat="42.8320160" lon="-1.5856810">
        <ele>441.8</ele>
        <time>2020-03-26T20:02:10Z</time>
      </trkpt>
      <trkpt lat="42.8318270" lon="-1.5855660">
        <ele>440.6</ele>
        <time>2020-03-26T20:02:12Z</time>
      </trkpt>
      <trkpt lat="42.8316260" lon="-1.5854500">
        <ele>439.3</ele>
        <time>2020-03-26T20:02:14Z</time>
      </trkpt>
      <trkpt lat="42.8314870" lon="-1.5853630">
        <ele>439.1</ele>
        <time>2020-03-26T20:02:16Z</time>
      </trkpt>
      <trkpt lat="42.8312750" lon="-1.5852350">
        <ele>439.0</ele>
        <time>2020-03-26T20:02:18Z</time>
      </trkpt>
      <trkpt lat="42.8311320" lon="-1.5851520">
        <ele>439.3</ele>
        <time>2020-03-26T20:02:20Z</time>
      </trkpt>
      <trkpt lat="42.8308560" lon="-1.5850140">
        <ele>440.0</ele>
        <time>2020-03-26T20:02:22Z</time>
      </trkpt>
      <trkpt lat="42.8306630" lon="-1.5849540">
        <ele>440.2</ele>
        <time>2020-03-26T20:02:24Z</time>
      </trkpt>
      <trkpt lat="42.8304690" lon="-1.5849150">
        <ele>440.3</ele>
        <time>2020-03-26T20:02:26Z</time>
      </trkpt>
      <trkpt lat="42.8302570" lon="-1.5848800">
        <ele>440.3</ele>
        <time>2020-03-26T20:02:28Z</time>
      </trkpt>
      <trkpt lat="42.8300380" lon="-1.5848500">
        <ele>440.1</ele>
        <time>2020-03-26T20:02:30Z</time>
      </trkpt>
      <trkpt lat="42.8298810" lon="-1.5848590">
        <ele>440.0</ele>
        <time>2020-03-26T20:02:32Z</time>
      </trkpt>
      <trkpt lat="42.8297000" lon="-1.5849690">
        <ele>439.4</ele>
        <time>2020-03-26T20:02:34Z</time>
      </trkpt>
      <trkpt lat="42.8295550" lon="-1.5848840">
        <ele>439.7</ele>
        <time>2020-03-26T20:02:36Z</time>
      </trkpt>
      <trkpt lat="42.8293640" lon="-1.5848710">
        <ele>439.9</ele>
        <time>2020-03-26T20:02:38Z</time>
      </trkpt>
      <trkpt lat="42.8292210" lon="-1.5848770">
        <ele>440.0</ele>
        <time>2020-03-26T20:02:40Z</time>
      </trkpt>
      <trkpt lat="42.8290910" lon="-1.5848830">
        <ele>440.0</ele>
        <time>2020-03-26T20:02:42Z</time>
      </trkpt>
      <trkpt lat="42.8289630" lon="-1.5848880">
        <ele>440.0</ele>
        <time>2020-03-26T20:02:44Z</time>
      </trkpt>
      <trkpt lat="42.8286970" lon="-1.5849000">
        <ele>440.2</ele>
        <time>2020-03-26T20:02:46Z</time>
      </trkpt>
      <trkpt lat="42.8285860" lon="-1.5849050">
        <ele>440.5</ele>
        <time>2020-03-26T20:02:48Z</time>
      </trkpt>
      <trkpt lat="42.8283950" lon="-1.5849130">
        <ele>441.3</ele>
        <time>2020-03-26T20:02:50Z</time>
      </trkpt>
      <trkpt lat="42.8283050" lon="-1.5849170">
        <ele>441.8</ele>
        <time>2020-03-26T20:02:52Z</time>
      </trkpt>
      <trkpt lat="42.8282240" lon="-1.5849210">
        <ele>442.2</ele>
        <time>2020-03-26T20:02:54Z</time>
      </trkpt>
      <trkpt lat="42.8281490" lon="-1.5849250">
        <ele>442.6</ele>
        <time>2020-03-26T20:02:56Z</time>
      </trkpt>
      <trkpt lat="42.8280800" lon="-1.5849280">
        <ele>443.0</ele>
        <time>2020-03-26T20:02:58Z</time>
      </trkpt>
      <trkpt lat="42.8280170" lon="-1.5849310">
        <ele>443.3</ele>
        <time>2020-03-26T20:03:00Z</time>
      </trkpt>
      <trkpt lat="42.8279580" lon="-1.5849330">
        <ele>443.6</ele>
        <time>2020-03-26T20:03:02Z</time>
      </trkpt>
      <trkpt lat="42.8279020" lon="-1.5849360">
        <ele>443.7</ele>
        <time>2020-03-26T20:03:04Z</time>
      </trkpt>
      <trkpt lat="42.8278480" lon="-1.5849390">
        <ele>443.9</ele>
        <time>2020-03-26T20:03:06Z</time>
      </trkpt>
      <trkpt lat="42.8275610" lon="-1.5849520">
        <ele>444.6</ele>
        <time>2020-03-26T20:03:08Z</time>
      </trkpt>
      <trkpt lat="42.8274970" lon="-1.5849550">
        <ele>444.9</ele>
        <time>2020-03-26T20:03:10Z</time>
      </trkpt>
      <trkpt lat="42.8274250" lon="-1.5849580">
        <ele>445.3</ele>
        <time>2020-03-26T20:03:12Z</time>
      </trkpt>
      <trkpt lat="42.8273470" lon="-1.5849620">
        <ele>445.6</ele>
        <time>2020-03-26T20:03:14Z</time>
      </trkpt>
      <trkpt lat="42.8272680" lon="-1.5849660">
        <ele>446.1</ele>
        <time>2020-03-26T20:03:16Z</time>
      </trkpt>
      <trkpt lat="42.8271880" lon="-1.5849700">
        <ele>446.6</ele>
        <time>2020-03-26T20:03:18Z</time>
      </trkpt>
      <trkpt lat="42.8271050" lon="-1.5849740">
        <ele>447.1</ele>
        <time>2020-03-26T20:03:20Z</time>
      </trkpt>
      <trkpt lat="42.8268420" lon="-1.5849850">
        <ele>448.4</ele>
        <time>2020-03-26T20:03:22Z</time>
      </trkpt>
      <trkpt lat="42.8267050" lon="-1.5849870">
        <ele>448.9</ele>
        <time>2020-03-26T20:03:24Z</time>
      </trkpt>
      <trkpt lat="42.8266210" lon="-1.5849850">
        <ele>448.9</ele>
        <time>2020-03-26T20:03:26Z</time>
      </trkpt>
      <trkpt lat="42.8264890" lon="-1.5849770">
        <ele>448.8</ele>
        <time>2020-03-26T20:03:28Z</time>
      </trkpt>
      <trkpt lat="42.8264030" lon="-1.5849630">
        <ele>448.8</ele>
        <time>2020-03-26T20:03:30Z</time>
      </trkpt>
      <trkpt lat="42.8262380" lon="-1.5849360">
        <ele>448.5</ele>
        <time>2020-03-26T20:03:32Z</time>
      </trkpt>
      <trkpt lat="42.8261480" lon="-1.5849300">
        <ele>448.1</ele>
        <time>2020-03-26T20:03:34Z</time>
      </trkpt>
      <trkpt lat="42.8260100" lon="-1.5849560">
        <ele>447.8</ele>
        <time>2020-03-26T20:03:36Z</time>
      </trkpt>
      <trkpt lat="42.8258960" lon="-1.5849900">
        <ele>447.8</ele>
        <time>2020-03-26T20:03:38Z</time>
      </trkpt>
      <trkpt lat="42.8257590" lon="-1.5849390">
        <ele>448.2</ele>
        <time>2020-03-26T20:03:40Z</time>
      </trkpt>
      <trkpt lat="42.8256760" lon="-1.5848260">
        <ele>450.1</ele>
        <time>2020-03-26T20:03:42Z</time>
      </trkpt>
      <trkpt lat="42.8256300" lon="-1.5846550">
        <ele>451.7</ele>
        <time>2020-03-26T20:03:44Z</time>
      </trkpt>
      <trkpt lat="42.8255730" lon="-1.5845130">
        <ele>452.6</ele>
        <time>2020-03-26T20:03:46Z</time>
      </trkpt>
      <trkpt lat="42.8255260" lon="-1.5844190">
        <ele>453.2</ele>
        <time>2020-03-26T20:03:48Z</time>
      </trkpt>
      <trkpt lat="42.8254440" lon="-1.5842760">
        <ele>454.0</ele>
        <time>2020-03-26T20:03:50Z</time>
      </trkpt>
      <trkpt lat="42.8253620" lon="-1.5841800">
        <ele>454.5</ele>
        <time>2020-03-26T20:03:52Z</time>
      </trkpt>
      <trkpt lat="42.8253010" lon="-1.5841320">
        <ele>454.8</ele>
        <time>2020-03-26T20:03:54Z</time>
      </trkpt>
      <trkpt lat="42.8252030" lon="-1.5840670">
        <ele>455.2</ele>
        <time>2020-03-26T20:03:56Z</time>
      </trkpt>
      <trkpt lat="42.8251420" lon="-1.5840380">
        <ele>455.4</ele>
        <time>2020-03-26T20:03:58Z</time>
      </trkpt>
      <trkpt lat="42.8250810" lon="-1.5840100">
        <ele>455.6</ele>
        <time>2020-03-26T20:04:00Z</time>
      </trkpt>
      <trkpt lat="42.8250220" lon="-1.5839830">
        <ele>455.8</ele>
        <time>2020-03-26T20:04:02Z</time>
      </trkpt>
      <trkpt lat="42.8248800" lon="-1.5839300">
        <ele>456.3</ele>
        <time>2020-03-26T20:04:04Z</time>
      </trkpt>
      <trkpt lat="42.8248210" lon="-1.5839180">
        <ele>456.6</ele>
        <time>2020-03-26T20:04:06Z</time>
      </trkpt>
      <trkpt lat="42.8247630" lon="-1.5839050">
        <ele>456.9</ele>
        <time>2020-03-26T20:04:08Z</time>
      </trkpt>
      <trkpt lat="42.8247060" lon="-1.5838930">
        <ele>457.3</ele>
        <time>2020-03-26T20:04:10Z</time>
      </trkpt>
      <trkpt lat="42.8246500" lon="-1.5838810">
        <ele>457.7</ele>
        <time>2020-03-26T20:04:12Z</time>
      </trkpt>
      <trkpt lat="42.8244760" lon="-1.5838440">
        <ele>459.0</ele>
        <time>2020-03-26T20:04:14Z</time>
      </trkpt>
      <trkpt lat="42.8244200" lon="-1.5838310">
        <ele>459.3</ele>
        <time>2020-03-26T20:04:16Z</time>
      </trkpt>
      <trkpt lat="42.8243640" lon="-1.5838190">
        <ele>459.7</ele>
        <time>2020-03-26T20:04:18Z</time>
      </trkpt>
      <trkpt lat="42.8243080" lon="-1.5838080">
        <ele>460.0</ele>
        <time>2020-03-26T20:04:20Z</time>
      </trkpt>
      <trkpt lat="42.8242520" lon="-1.5837960">
        <ele>460.3</ele>
        <time>2020-03-26T20:04:22Z</time>
      </trkpt>
      <trkpt lat="42.8241960" lon="-1.5837840">
        <ele>460.5</ele>
        <time>2020-03-26T20:04:24Z</time>
      </trkpt>
      <trkpt lat="42.8240270" lon="-1.5837490">
        <ele>460.9</ele>
        <time>2020-03-26T20:04:26Z</time>
      </trkpt>
      <trkpt lat="42.8239710" lon="-1.5837390">
        <ele>461.0</ele>
        <time>2020-03-26T20:04:28Z</time>
      </trkpt>
      <trkpt lat="42.8238660" lon="-1.5837210">
        <ele>461.0</ele>
        <time>2020-03-26T20:04:30Z</time>
      </trkpt>
      <trkpt lat="42.8238000" lon="-1.5837100">
        <ele>461.1</ele>
        <time>2020-03-26T20:04:32Z</time>
      </trkpt>
      <trkpt lat="42.8237220" lon="-1.5836970">
        <ele>461.1</ele>
        <time>2020-03-26T20:04:34Z</time>
      </trkpt>
      <trkpt lat="42.8236380" lon="-1.5836820">
        <ele>461.1</ele>
        <time>2020-03-26T20:04:36Z</time>
      </trkpt>
      <trkpt lat="42.8235510" lon="-1.5836680">
        <ele>461.1</ele>
        <time>2020-03-26T20:04:38Z</time>
      </trkpt>
      <trkpt lat="42.8234610" lon="-1.5836520">
        <ele>461.1</ele>
        <time>2020-03-26T20:04:40Z</time>
      </trkpt>
      <trkpt lat="42.8232050" lon="-1.5836130">
        <ele>461.5</ele>
        <time>2020-03-26T20:04:42Z</time>
      </trkpt>
      <trkpt lat="42.8231100" lon="-1.5836020">
        <ele>461.7</ele>
        <time>2020-03-26T20:04:44Z</time>
      </trkpt>
      <trkpt lat="42.8230140" lon="-1.5835910">
        <ele>461.9</ele>
        <time>2020-03-26T20:04:46Z</time>
      </trkpt>
      <trkpt lat="42.8227880" lon="-1.5835690">
        <ele>462.1</ele>
        <time>2020-03-26T20:04:48Z</time>
      </trkpt>
      <trkpt lat="42.8226880" lon="-1.5835690">
        <ele>462.1</ele>
        <time>2020-03-26T20:04:50Z</time>
      </trkpt>
      <trkpt lat="42.8225860" lon="-1.5835680">
        <ele>462.1</ele>
        <time>2020-03-26T20:04:52Z</time>
      </trkpt>
      <trkpt lat="42.8224840" lon="-1.5835680">
        <ele>462.0</ele>
        <time>2020-03-26T20:04:54Z</time>
      </trkpt>
      <trkpt lat="42.8222610" lon="-1.5835850">
        <ele>461.7</ele>
        <time>2020-03-26T20:04:56Z</time>
      </trkpt>
      <trkpt lat="42.8221570" lon="-1.5836070">
        <ele>461.4</ele>
        <time>2020-03-26T20:04:58Z</time>
      </trkpt>
      <trkpt lat="42.8220530" lon="-1.5836290">
        <ele>461.3</ele>
        <time>2020-03-26T20:05:00Z</time>
      </trkpt>
      <trkpt lat="42.8219460" lon="-1.5836520">
        <ele>461.2</ele>
        <time>2020-03-26T20:05:02Z</time>
      </trkpt>
      <trkpt lat="42.8216940" lon="-1.5837110">
        <ele>461.2</ele>
        <time>2020-03-26T20:05:04Z</time>
      </trkpt>
      <trkpt lat="42.8215170" lon="-1.5837610">
        <ele>461.5</ele>
        <time>2020-03-26T20:05:06Z</time>
      </trkpt>
      <trkpt lat="42.8214100" lon="-1.5838020">
        <ele>461.8</ele>
        <time>2020-03-26T20:05:08Z</time>
      </trkpt>
      <trkpt lat="42.8212240" lon="-1.5838770">
        <ele>462.0</ele>
        <time>2020-03-26T20:05:10Z</time>
      </trkpt>
      <trkpt lat="42.8211170" lon="-1.5839320">
        <ele>462.1</ele>
        <time>2020-03-26T20:05:12Z</time>
      </trkpt>
      <trkpt lat="42.8210090" lon="-1.5839890">
        <ele>462.1</ele>
        <time>2020-03-26T20:05:14Z</time>
      </trkpt>
      <trkpt lat="42.8208070" lon="-1.5841000">
        <ele>462.1</ele>
        <time>2020-03-26T20:05:16Z</time>
      </trkpt>
      <trkpt lat="42.8206550" lon="-1.5842010">
        <ele>462.1</ele>
        <time>2020-03-26T20:05:18Z</time>
      </trkpt>
      <trkpt lat="42.8205470" lon="-1.5842830">
        <ele>462.1</ele>
        <time>2020-03-26T20:05:20Z</time>
      </trkpt>
      <trkpt lat="42.8203570" lon="-1.5844290">
        <ele>461.9</ele>
        <time>2020-03-26T20:05:22Z</time>
      </trkpt>
      <trkpt lat="42.8202160" lon="-1.5845510">
        <ele>461.6</ele>
        <time>2020-03-26T20:05:24Z</time>
      </trkpt>
      <trkpt lat="42.8200430" lon="-1.5847130">
        <ele>461.2</ele>
        <time>2020-03-26T20:05:26Z</time>
      </trkpt>
      <trkpt lat="42.8199320" lon="-1.5848230">
        <ele>461.1</ele>
        <time>2020-03-26T20:05:28Z</time>
      </trkpt>
      <trkpt lat="42.8197450" lon="-1.5850200">
        <ele>460.9</ele>
        <time>2020-03-26T20:05:30Z</time>
      </trkpt>
      <trkpt lat="42.8196450" lon="-1.5851450">
        <ele>460.6</ele>
        <time>2020-03-26T20:05:32Z</time>
      </trkpt>
      <trkpt lat="42.8194840" lon="-1.5853530">
        <ele>459.8</ele>
        <time>2020-03-26T20:05:34Z</time>
      </trkpt>
      <trkpt lat="42.8193900" lon="-1.5854800">
        <ele>459.3</ele>
        <time>2020-03-26T20:05:36Z</time>
      </trkpt>
      <trkpt lat="42.8192430" lon="-1.5857000">
        <ele>459.0</ele>
        <time>2020-03-26T20:05:38Z</time>
      </trkpt>
      <trkpt lat="42.8191630" lon="-1.5858380">
        <ele>458.8</ele>
        <time>2020-03-26T20:05:40Z</time>
      </trkpt>
      <trkpt lat="42.8190100" lon="-1.5861050">
        <ele>458.3</ele>
        <time>2020-03-26T20:05:42Z</time>
      </trkpt>
      <trkpt lat="42.8189240" lon="-1.5862850">
        <ele>458.1</ele>
        <time>2020-03-26T20:05:44Z</time>
      </trkpt>
      <trkpt lat="42.8188540" lon="-1.5864340">
        <ele>458.0</ele>
        <time>2020-03-26T20:05:46Z</time>
      </trkpt>
      <trkpt lat="42.8187510" lon="-1.5866800">
        <ele>457.6</ele>
        <time>2020-03-26T20:05:48Z</time>
      </trkpt>
      <trkpt lat="42.8186640" lon="-1.5869090">
        <ele>457.2</ele>
        <time>2020-03-26T20:05:50Z</time>
      </trkpt>
      <trkpt lat="42.8185580" lon="-1.5871860">
        <ele>457.0</ele>
        <time>2020-03-26T20:05:52Z</time>
      </trkpt>
      <trkpt lat="42.8184920" lon="-1.5874210">
        <ele>457.0</ele>
        <time>2020-03-26T20:05:54Z</time>
      </trkpt>
      <trkpt lat="42.8184430" lon="-1.5875990">
        <ele>457.0</ele>
        <time>2020-03-26T20:05:56Z</time>
      </trkpt>
      <trkpt lat="42.8183930" lon="-1.5877790">
        <ele>456.9</ele>
        <time>2020-03-26T20:05:58Z</time>
      </trkpt>
      <trkpt lat="42.8183420" lon="-1.5879590">
        <ele>456.9</ele>
        <time>2020-03-26T20:06:00Z</time>
      </trkpt>
      <trkpt lat="42.8182920" lon="-1.5881390">
        <ele>456.9</ele>
        <time>2020-03-26T20:06:02Z</time>
      </trkpt>
      <trkpt lat="42.8181570" lon="-1.5886260">
        <ele>457.3</ele>
        <time>2020-03-26T20:06:04Z</time>
      </trkpt>
      <trkpt lat="42.8181070" lon="-1.5888000">
        <ele>457.6</ele>
        <time>2020-03-26T20:06:06Z</time>
      </trkpt>
      <trkpt lat="42.8180600" lon="-1.5889670">
        <ele>457.8</ele>
        <time>2020-03-26T20:06:08Z</time>
      </trkpt>
      <trkpt lat="42.8180130" lon="-1.5891310">
        <ele>457.9</ele>
        <time>2020-03-26T20:06:10Z</time>
      </trkpt>
      <trkpt lat="42.8179670" lon="-1.5892900">
        <ele>457.9</ele>
        <time>2020-03-26T20:06:12Z</time>
      </trkpt>
      <trkpt lat="42.8178450" lon="-1.5897200">
        <ele>458.0</ele>
        <time>2020-03-26T20:06:14Z</time>
      </trkpt>
      <trkpt lat="42.8177780" lon="-1.5899450">
        <ele>458.2</ele>
        <time>2020-03-26T20:06:16Z</time>
      </trkpt>
      <trkpt lat="42.8177320" lon="-1.5900900">
        <ele>458.5</ele>
        <time>2020-03-26T20:06:18Z</time>
      </trkpt>
      <trkpt lat="42.8176540" lon="-1.5903360">
        <ele>458.9</ele>
        <time>2020-03-26T20:06:20Z</time>
      </trkpt>
      <trkpt lat="42.8176060" lon="-1.5904910">
        <ele>458.9</ele>
        <time>2020-03-26T20:06:22Z</time>
      </trkpt>
      <trkpt lat="42.8175550" lon="-1.5906530">
        <ele>459.0</ele>
        <time>2020-03-26T20:06:24Z</time>
      </trkpt>
      <trkpt lat="42.8174450" lon="-1.5909940">
        <ele>457.6</ele>
        <time>2020-03-26T20:06:26Z</time>
      </trkpt>
      <trkpt lat="42.8173860" lon="-1.5911680">
        <ele>457.1</ele>
        <time>2020-03-26T20:06:28Z</time>
      </trkpt>
      <trkpt lat="42.8173260" lon="-1.5913470">
        <ele>456.7</ele>
        <time>2020-03-26T20:06:30Z</time>
      </trkpt>
      <trkpt lat="42.8172640" lon="-1.5915310">
        <ele>456.4</ele>
        <time>2020-03-26T20:06:32Z</time>
      </trkpt>
      <trkpt lat="42.8171060" lon="-1.5920030">
        <ele>456.1</ele>
        <time>2020-03-26T20:06:34Z</time>
      </trkpt>
      <trkpt lat="42.8170420" lon="-1.5921960">
        <ele>456.1</ele>
        <time>2020-03-26T20:06:36Z</time>
      </trkpt>
      <trkpt lat="42.8169760" lon="-1.5923910">
        <ele>455.8</ele>
        <time>2020-03-26T20:06:38Z</time>
      </trkpt>
      <trkpt lat="42.8169100" lon="-1.5925890">
        <ele>455.5</ele>
        <time>2020-03-26T20:06:40Z</time>
      </trkpt>
      <trkpt lat="42.8167460" lon="-1.5930760">
        <ele>454.8</ele>
        <time>2020-03-26T20:06:42Z</time>
      </trkpt>
      <trkpt lat="42.8166790" lon="-1.5932780">
        <ele>454.4</ele>
        <time>2020-03-26T20:06:44Z</time>
      </trkpt>
      <trkpt lat="42.8166100" lon="-1.5934850">
        <ele>453.9</ele>
        <time>2020-03-26T20:06:46Z</time>
      </trkpt>
      <trkpt lat="42.8164820" lon="-1.5938680">
        <ele>451.8</ele>
        <time>2020-03-26T20:06:48Z</time>
      </trkpt>
      <trkpt lat="42.8163930" lon="-1.5941950">
        <ele>450.2</ele>
        <time>2020-03-26T20:06:50Z</time>
      </trkpt>
      <trkpt lat="42.8163210" lon="-1.5944800">
        <ele>449.8</ele>
        <time>2020-03-26T20:06:52Z</time>
      </trkpt>
      <trkpt lat="42.8162490" lon="-1.5946990">
        <ele>449.3</ele>
        <time>2020-03-26T20:06:54Z</time>
      </trkpt>
      <trkpt lat="42.8161760" lon="-1.5949220">
        <ele>448.8</ele>
        <time>2020-03-26T20:06:56Z</time>
      </trkpt>
      <trkpt lat="42.8160260" lon="-1.5953890">
        <ele>448.4</ele>
        <time>2020-03-26T20:06:58Z</time>
      </trkpt>
      <trkpt lat="42.8159610" lon="-1.5956000">
        <ele>448.4</ele>
        <time>2020-03-26T20:07:00Z</time>
      </trkpt>
      <trkpt lat="42.8158420" lon="-1.5959960">
        <ele>448.9</ele>
        <time>2020-03-26T20:07:02Z</time>
      </trkpt>
      <trkpt lat="42.8158100" lon="-1.5961920">
        <ele>449.4</ele>
        <time>2020-03-26T20:07:04Z</time>
      </trkpt>
      <trkpt lat="42.8157800" lon="-1.5963770">
        <ele>449.9</ele>
        <time>2020-03-26T20:07:06Z</time>
      </trkpt>
      <trkpt lat="42.8157520" lon="-1.5965510">
        <ele>450.6</ele>
        <time>2020-03-26T20:07:08Z</time>
      </trkpt>
      <trkpt lat="42.8156810" lon="-1.5969310">
        <ele>452.6</ele>
        <time>2020-03-26T20:07:10Z</time>
      </trkpt>
      <trkpt lat="42.8156480" lon="-1.5970810">
        <ele>453.5</ele>
        <time>2020-03-26T20:07:12Z</time>
      </trkpt>
      <trkpt lat="42.8156160" lon="-1.5972200">
        <ele>454.2</ele>
        <time>2020-03-26T20:07:14Z</time>
      </trkpt>
      <trkpt lat="42.8155470" lon="-1.5975330">
        <ele>455.9</ele>
        <time>2020-03-26T20:07:16Z</time>
      </trkpt>
      <trkpt lat="42.8155220" lon="-1.5976570">
        <ele>456.4</ele>
        <time>2020-03-26T20:07:18Z</time>
      </trkpt>
      <trkpt lat="42.8155000" lon="-1.5977720">
        <ele>456.7</ele>
        <time>2020-03-26T20:07:20Z</time>
      </trkpt>
      <trkpt lat="42.8154780" lon="-1.5978820">
        <ele>457.1</ele>
        <time>2020-03-26T20:07:22Z</time>
      </trkpt>
      <trkpt lat="42.8154430" lon="-1.5981390">
        <ele>457.7</ele>
        <time>2020-03-26T20:07:24Z</time>
      </trkpt>
      <trkpt lat="42.8154660" lon="-1.5983160">
        <ele>458.0</ele>
        <time>2020-03-26T20:07:26Z</time>
      </trkpt>
      <trkpt lat="42.8154640" lon="-1.5984510">
        <ele>458.0</ele>
        <time>2020-03-26T20:07:28Z</time>
      </trkpt>
      <trkpt lat="42.8154170" lon="-1.5985990">
        <ele>457.8</ele>
        <time>2020-03-26T20:07:30Z</time>
      </trkpt>
      <trkpt lat="42.8153380" lon="-1.5986950">
        <ele>457.7</ele>
        <time>2020-03-26T20:07:32Z</time>
      </trkpt>
      <trkpt lat="42.8152740" lon="-1.5988000">
        <ele>457.4</ele>
        <time>2020-03-26T20:07:34Z</time>
      </trkpt>
      <trkpt lat="42.8152210" lon="-1.5989390">
        <ele>457.1</ele>
        <time>2020-03-26T20:07:36Z</time>
      </trkpt>
      <trkpt lat="42.8151860" lon="-1.5990430">
        <ele>457.0</ele>
        <time>2020-03-26T20:07:38Z</time>
      </trkpt>
      <trkpt lat="42.8151320" lon="-1.5992320">
        <ele>456.3</ele>
        <time>2020-03-26T20:07:40Z</time>
      </trkpt>
      <trkpt lat="42.8151000" lon="-1.5993590">
        <ele>455.8</ele>
        <time>2020-03-26T20:07:42Z</time>
      </trkpt>
      <trkpt lat="42.8150650" lon="-1.5995000">
        <ele>455.5</ele>
        <time>2020-03-26T20:07:44Z</time>
      </trkpt>
      <trkpt lat="42.8150000" lon="-1.5997930">
        <ele>455.2</ele>
        <time>2020-03-26T20:07:46Z</time>
      </trkpt>
      <trkpt lat="42.8149680" lon="-1.5999620">
        <ele>455.2</ele>
        <time>2020-03-26T20:07:48Z</time>
      </trkpt>
      <trkpt lat="42.8149040" lon="-1.6003030">
        <ele>454.7</ele>
        <time>2020-03-26T20:07:50Z</time>
      </trkpt>
      <trkpt lat="42.8148710" lon="-1.6004930">
        <ele>454.4</ele>
        <time>2020-03-26T20:07:52Z</time>
      </trkpt>
      <trkpt lat="42.8148230" lon="-1.6007800">
        <ele>454.4</ele>
        <time>2020-03-26T20:07:54Z</time>
      </trkpt>
      <trkpt lat="42.8147900" lon="-1.6009790">
        <ele>454.4</ele>
        <time>2020-03-26T20:07:56Z</time>
      </trkpt>
      <trkpt lat="42.8147560" lon="-1.6011830">
        <ele>454.4</ele>
        <time>2020-03-26T20:07:58Z</time>
      </trkpt>
      <trkpt lat="42.8146770" lon="-1.6016450">
        <ele>453.8</ele>
        <time>2020-03-26T20:08:00Z</time>
      </trkpt>
      <trkpt lat="42.8146230" lon="-1.6019560">
        <ele>451.9</ele>
        <time>2020-03-26T20:08:02Z</time>
      </trkpt>
      <trkpt lat="42.8145840" lon="-1.6021690">
        <ele>450.9</ele>
        <time>2020-03-26T20:08:04Z</time>
      </trkpt>
      <trkpt lat="42.8145080" lon="-1.6025430">
        <ele>450.5</ele>
        <time>2020-03-26T20:08:06Z</time>
      </trkpt>
      <trkpt lat="42.8144270" lon="-1.6028320">
        <ele>449.6</ele>
        <time>2020-03-26T20:08:08Z</time>
      </trkpt>
      <trkpt lat="42.8143430" lon="-1.6031700">
        <ele>447.4</ele>
        <time>2020-03-26T20:08:10Z</time>
      </trkpt>
      <trkpt lat="42.8143590" lon="-1.6034850">
        <ele>446.0</ele>
        <time>2020-03-26T20:08:12Z</time>
      </trkpt>
      <trkpt lat="42.8144050" lon="-1.6037860">
        <ele>445.0</ele>
        <time>2020-03-26T20:08:14Z</time>
      </trkpt>
      <trkpt lat="42.8143430" lon="-1.6041350">
        <ele>443.4</ele>
        <time>2020-03-26T20:08:16Z</time>
      </trkpt>
      <trkpt lat="42.8141800" lon="-1.6043890">
        <ele>441.6</ele>
        <time>2020-03-26T20:08:18Z</time>
      </trkpt>
      <trkpt lat="42.8141110" lon="-1.6046700">
        <ele>441.2</ele>
        <time>2020-03-26T20:08:20Z</time>
      </trkpt>
      <trkpt lat="42.8141400" lon="-1.6049040">
        <ele>441.6</ele>
        <time>2020-03-26T20:08:22Z</time>
      </trkpt>
      <trkpt lat="42.8141670" lon="-1.6051300">
        <ele>441.9</ele>
        <time>2020-03-26T20:08:24Z</time>
      </trkpt>
      <trkpt lat="42.8142210" lon="-1.6055660">
        <ele>442.8</ele>
        <time>2020-03-26T20:08:26Z</time>
      </trkpt>
      <trkpt lat="42.8142610" lon="-1.6058560">
        <ele>443.3</ele>
        <time>2020-03-26T20:08:28Z</time>
      </trkpt>
      <trkpt lat="42.8143120" lon="-1.6061730">
        <ele>443.8</ele>
        <time>2020-03-26T20:08:30Z</time>
      </trkpt>
      <trkpt lat="42.8144530" lon="-1.6063620">
        <ele>444.3</ele>
        <time>2020-03-26T20:08:32Z</time>
      </trkpt>
      <trkpt lat="42.8144810" lon="-1.6065860">
        <ele>444.2</ele>
        <time>2020-03-26T20:08:34Z</time>
      </trkpt>
      <trkpt lat="42.8144470" lon="-1.6067950">
        <ele>444.0</ele>
        <time>2020-03-26T20:08:36Z</time>
      </trkpt>
      <trkpt lat="42.8144550" lon="-1.6070670">
        <ele>443.7</ele>
        <time>2020-03-26T20:08:38Z</time>
      </trkpt>
      <trkpt lat="42.8144650" lon="-1.6072330">
        <ele>444.0</ele>
        <time>2020-03-26T20:08:40Z</time>
      </trkpt>
      <trkpt lat="42.8144740" lon="-1.6074010">
        <ele>444.3</ele>
        <time>2020-03-26T20:08:42Z</time>
      </trkpt>
      <trkpt lat="42.8144840" lon="-1.6075690">
        <ele>444.4</ele>
        <time>2020-03-26T20:08:44Z</time>
      </trkpt>
      <trkpt lat="42.8145080" lon="-1.6079710">
        <ele>444.5</ele>
        <time>2020-03-26T20:08:46Z</time>
      </trkpt>
      <trkpt lat="42.8145180" lon="-1.6081400">
        <ele>444.6</ele>
        <time>2020-03-26T20:08:48Z</time>
      </trkpt>
      <trkpt lat="42.8145280" lon="-1.6083080">
        <ele>444.8</ele>
        <time>2020-03-26T20:08:50Z</time>
      </trkpt>
      <trkpt lat="42.8145470" lon="-1.6086350">
        <ele>445.2</ele>
        <time>2020-03-26T20:08:52Z</time>
      </trkpt>
      <trkpt lat="42.8145580" lon="-1.6088080">
        <ele>445.2</ele>
        <time>2020-03-26T20:08:54Z</time>
      </trkpt>
      <trkpt lat="42.8145750" lon="-1.6091140">
        <ele>444.8</ele>
        <time>2020-03-26T20:08:56Z</time>
      </trkpt>
      <trkpt lat="42.8145840" lon="-1.6092920">
        <ele>444.3</ele>
        <time>2020-03-26T20:08:58Z</time>
      </trkpt>
      <trkpt lat="42.8145930" lon="-1.6094710">
        <ele>443.8</ele>
        <time>2020-03-26T20:09:00Z</time>
      </trkpt>
      <trkpt lat="42.8146010" lon="-1.6096520">
        <ele>443.4</ele>
        <time>2020-03-26T20:09:02Z</time>
      </trkpt>
      <trkpt lat="42.8146100" lon="-1.6098360">
        <ele>443.2</ele>
        <time>2020-03-26T20:09:04Z</time>
      </trkpt>
      <trkpt lat="42.8146350" lon="-1.6103460">
        <ele>442.4</ele>
        <time>2020-03-26T20:09:06Z</time>
      </trkpt>
      <trkpt lat="42.8146440" lon="-1.6105330">
        <ele>442.3</ele>
        <time>2020-03-26T20:09:08Z</time>
      </trkpt>
      <trkpt lat="42.8146540" lon="-1.6107200">
        <ele>442.2</ele>
        <time>2020-03-26T20:09:10Z</time>
      </trkpt>
      <trkpt lat="42.8146630" lon="-1.6109080">
        <ele>441.9</ele>
        <time>2020-03-26T20:09:12Z</time>
      </trkpt>
      <trkpt lat="42.8146720" lon="-1.6110970">
        <ele>441.6</ele>
        <time>2020-03-26T20:09:14Z</time>
      </trkpt>
      <trkpt lat="42.8146980" lon="-1.6116100">
        <ele>441.4</ele>
        <time>2020-03-26T20:09:16Z</time>
      </trkpt>
      <trkpt lat="42.8147090" lon="-1.6118030">
        <ele>441.1</ele>
        <time>2020-03-26T20:09:18Z</time>
      </trkpt>
      <trkpt lat="42.8147200" lon="-1.6119950">
        <ele>440.7</ele>
        <time>2020-03-26T20:09:20Z</time>
      </trkpt>
      <trkpt lat="42.8147310" lon="-1.6121880">
        <ele>440.4</ele>
        <time>2020-03-26T20:09:22Z</time>
      </trkpt>
      <trkpt lat="42.8147570" lon="-1.6126540">
        <ele>439.3</ele>
        <time>2020-03-26T20:09:24Z</time>
      </trkpt>
      <trkpt lat="42.8147680" lon="-1.6128570">
        <ele>438.9</ele>
        <time>2020-03-26T20:09:26Z</time>
      </trkpt>
      <trkpt lat="42.8147800" lon="-1.6130630">
        <ele>438.4</ele>
        <time>2020-03-26T20:09:28Z</time>
      </trkpt>
      <trkpt lat="42.8148070" lon="-1.6135450">
        <ele>437.6</ele>
        <time>2020-03-26T20:09:30Z</time>
      </trkpt>
      <trkpt lat="42.8148250" lon="-1.6138470">
        <ele>437.1</ele>
        <time>2020-03-26T20:09:32Z</time>
      </trkpt>
      <trkpt lat="42.8148380" lon="-1.6140670">
        <ele>436.9</ele>
        <time>2020-03-26T20:09:34Z</time>
      </trkpt>
      <trkpt lat="42.8148510" lon="-1.6142880">
        <ele>436.7</ele>
        <time>2020-03-26T20:09:36Z</time>
      </trkpt>
      <trkpt lat="42.8149360" lon="-1.6147150">
        <ele>436.3</ele>
        <time>2020-03-26T20:09:38Z</time>
      </trkpt>
      <trkpt lat="42.8148890" lon="-1.6149920">
        <ele>436.4</ele>
        <time>2020-03-26T20:09:40Z</time>
      </trkpt>
      <trkpt lat="42.8147760" lon="-1.6152030">
        <ele>436.5</ele>
        <time>2020-03-26T20:09:42Z</time>
      </trkpt>
      <trkpt lat="42.8147280" lon="-1.6154740">
        <ele>436.6</ele>
        <time>2020-03-26T20:09:44Z</time>
      </trkpt>
      <trkpt lat="42.8147250" lon="-1.6157340">
        <ele>436.8</ele>
        <time>2020-03-26T20:09:46Z</time>
      </trkpt>
      <trkpt lat="42.8147340" lon="-1.6159310">
        <ele>436.9</ele>
        <time>2020-03-26T20:09:48Z</time>
      </trkpt>
      <trkpt lat="42.8147430" lon="-1.6161130">
        <ele>436.9</ele>
        <time>2020-03-26T20:09:50Z</time>
      </trkpt>
      <trkpt lat="42.8147520" lon="-1.6162920">
        <ele>436.9</ele>
        <time>2020-03-26T20:09:52Z</time>
      </trkpt>
      <trkpt lat="42.8147600" lon="-1.6164670">
        <ele>436.9</ele>
        <time>2020-03-26T20:09:54Z</time>
      </trkpt>
      <trkpt lat="42.8147830" lon="-1.6169430">
        <ele>436.9</ele>
        <time>2020-03-26T20:09:56Z</time>
      </trkpt>
      <trkpt lat="42.8147920" lon="-1.6171130">
        <ele>436.9</ele>
        <time>2020-03-26T20:09:58Z</time>
      </trkpt>
      <trkpt lat="42.8148000" lon="-1.6172820">
        <ele>436.9</ele>
        <time>2020-03-26T20:10:00Z</time>
      </trkpt>
      <trkpt lat="42.8148160" lon="-1.6176050">
        <ele>436.9</ele>
        <time>2020-03-26T20:10:02Z</time>
      </trkpt>
      <trkpt lat="42.8148230" lon="-1.6177700">
        <ele>436.9</ele>
        <time>2020-03-26T20:10:04Z</time>
      </trkpt>
      <trkpt lat="42.8148350" lon="-1.6180780">
        <ele>436.9</ele>
        <time>2020-03-26T20:10:06Z</time>
      </trkpt>
      <trkpt lat="42.8148340" lon="-1.6182360">
        <ele>436.9</ele>
        <time>2020-03-26T20:10:08Z</time>
      </trkpt>
      <trkpt lat="42.8148330" lon="-1.6183860">
        <ele>436.9</ele>
        <time>2020-03-26T20:10:10Z</time>
      </trkpt>
      <trkpt lat="42.8148270" lon="-1.6186950">
        <ele>437.1</ele>
        <time>2020-03-26T20:10:12Z</time>
      </trkpt>
      <trkpt lat="42.8148180" lon="-1.6188350">
        <ele>437.3</ele>
        <time>2020-03-26T20:10:14Z</time>
      </trkpt>
      <trkpt lat="42.8148000" lon="-1.6190670">
        <ele>437.8</ele>
        <time>2020-03-26T20:10:16Z</time>
      </trkpt>
      <trkpt lat="42.8147830" lon="-1.6191970">
        <ele>438.1</ele>
        <time>2020-03-26T20:10:18Z</time>
      </trkpt>
      <trkpt lat="42.8147510" lon="-1.6194340">
        <ele>438.7</ele>
        <time>2020-03-26T20:10:20Z</time>
      </trkpt>
      <trkpt lat="42.8147260" lon="-1.6195570">
        <ele>439.1</ele>
        <time>2020-03-26T20:10:22Z</time>
      </trkpt>
      <trkpt lat="42.8147040" lon="-1.6196680">
        <ele>439.4</ele>
        <time>2020-03-26T20:10:24Z</time>
      </trkpt>
      <trkpt lat="42.8146610" lon="-1.6198890">
        <ele>440.0</ele>
        <time>2020-03-26T20:10:26Z</time>
      </trkpt>
      <trkpt lat="42.8146510" lon="-1.6199910">
        <ele>440.3</ele>
        <time>2020-03-26T20:10:28Z</time>
      </trkpt>
      <trkpt lat="42.8146460" lon="-1.6201420">
        <ele>440.7</ele>
        <time>2020-03-26T20:10:30Z</time>
      </trkpt>
      <trkpt lat="42.8146660" lon="-1.6202770">
        <ele>441.1</ele>
        <time>2020-03-26T20:10:32Z</time>
      </trkpt>
      <trkpt lat="42.8147130" lon="-1.6203690">
        <ele>441.4</ele>
        <time>2020-03-26T20:10:34Z</time>
      </trkpt>
      <trkpt lat="42.8147250" lon="-1.6204990">
        <ele>442.1</ele>
        <time>2020-03-26T20:10:36Z</time>
      </trkpt>
      <trkpt lat="42.8146930" lon="-1.6206050">
        <ele>442.7</ele>
        <time>2020-03-26T20:10:38Z</time>
      </trkpt>
      <trkpt lat="42.8146340" lon="-1.6206740">
        <ele>443.5</ele>
        <time>2020-03-26T20:10:40Z</time>
      </trkpt>
      <trkpt lat="42.8145480" lon="-1.6207080">
        <ele>444.1</ele>
        <time>2020-03-26T20:10:42Z</time>
      </trkpt>
      <trkpt lat="42.8144960" lon="-1.6207490">
        <ele>444.7</ele>
        <time>2020-03-26T20:10:44Z</time>
      </trkpt>
      <trkpt lat="42.8144330" lon="-1.6208160">
        <ele>445.5</ele>
        <time>2020-03-26T20:10:46Z</time>
      </trkpt>
      <trkpt lat="42.8144040" lon="-1.6208630">
        <ele>445.9</ele>
        <time>2020-03-26T20:10:48Z</time>
      </trkpt>
      <trkpt lat="42.8143770" lon="-1.6209080">
        <ele>446.4</ele>
        <time>2020-03-26T20:10:50Z</time>
      </trkpt>
      <trkpt lat="42.8143320" lon="-1.6210010">
        <ele>447.2</ele>
        <time>2020-03-26T20:10:52Z</time>
      </trkpt>
      <trkpt lat="42.8143170" lon="-1.6210500">
        <ele>447.6</ele>
        <time>2020-03-26T20:10:54Z</time>
      </trkpt>
      <trkpt lat="42.8143040" lon="-1.6210980">
        <ele>448.5</ele>
        <time>2020-03-26T20:10:56Z</time>
      </trkpt>
      <trkpt lat="42.8142750" lon="-1.6211940">
        <ele>448.9</ele>
        <time>2020-03-26T20:10:58Z</time>
      </trkpt>
      <trkpt lat="42.8142600" lon="-1.6212410">
        <ele>449.2</ele>
        <time>2020-03-26T20:11:00Z</time>
      </trkpt>
      <trkpt lat="42.8142460" lon="-1.6212860">
        <ele>449.4</ele>
        <time>2020-03-26T20:11:02Z</time>
      </trkpt>
      <trkpt lat="42.8142320" lon="-1.6213340">
        <ele>449.6</ele>
        <time>2020-03-26T20:11:04Z</time>
      </trkpt>
      <trkpt lat="42.8141940" lon="-1.6214570">
        <ele>450.2</ele>
        <time>2020-03-26T20:11:06Z</time>
      </trkpt>
      <trkpt lat="42.8141800" lon="-1.6215030">
        <ele>450.4</ele>
        <time>2020-03-26T20:11:08Z</time>
      </trkpt>
      <trkpt lat="42.8141660" lon="-1.6215490">
        <ele>450.6</ele>
        <time>2020-03-26T20:11:10Z</time>
      </trkpt>
      <trkpt lat="42.8141510" lon="-1.6215950">
        <ele>450.7</ele>
        <time>2020-03-26T20:11:12Z</time>
      </trkpt>
      <trkpt lat="42.8141370" lon="-1.6216410">
        <ele>451.0</ele>
        <time>2020-03-26T20:11:14Z</time>
      </trkpt>
      <trkpt lat="42.8141230" lon="-1.6216880">
        <ele>451.2</ele>
        <time>2020-03-26T20:11:16Z</time>
      </trkpt>
      <trkpt lat="42.8141090" lon="-1.6217340">
        <ele>451.4</ele>
        <time>2020-03-26T20:11:18Z</time>
      </trkpt>
      <trkpt lat="42.8140610" lon="-1.6218910">
        <ele>452.0</ele>
        <time>2020-03-26T20:11:20Z</time>
      </trkpt>
      <trkpt lat="42.8140430" lon="-1.6219500">
        <ele>452.2</ele>
        <time>2020-03-26T20:11:22Z</time>
      </trkpt>
      <trkpt lat="42.8140240" lon="-1.6220110">
        <ele>452.5</ele>
        <time>2020-03-26T20:11:24Z</time>
      </trkpt>
      <trkpt lat="42.8139860" lon="-1.6221360">
        <ele>453.0</ele>
        <time>2020-03-26T20:11:26Z</time>
      </trkpt>
      <trkpt lat="42.8139660" lon="-1.6221970">
        <ele>453.3</ele>
        <time>2020-03-26T20:11:28Z</time>
      </trkpt>
      <trkpt lat="42.8139470" lon="-1.6222580">
        <ele>453.5</ele>
        <time>2020-03-26T20:11:30Z</time>
      </trkpt>
      <trkpt lat="42.8139280" lon="-1.6223200">
        <ele>453.8</ele>
        <time>2020-03-26T20:11:32Z</time>
      </trkpt>
      <trkpt lat="42.8139080" lon="-1.6223820">
        <ele>454.1</ele>
        <time>2020-03-26T20:11:34Z</time>
      </trkpt>
      <trkpt lat="42.8138480" lon="-1.6225720">
        <ele>454.8</ele>
        <time>2020-03-26T20:11:36Z</time>
      </trkpt>
      <trkpt lat="42.8138290" lon="-1.6226330">
        <ele>455.0</ele>
        <time>2020-03-26T20:11:38Z</time>
      </trkpt>
      <trkpt lat="42.8137970" lon="-1.6227340">
        <ele>455.4</ele>
        <time>2020-03-26T20:11:40Z</time>
      </trkpt>
      <trkpt lat="42.8137790" lon="-1.6227950">
        <ele>455.6</ele>
        <time>2020-03-26T20:11:42Z</time>
      </trkpt>
      <trkpt lat="42.8137600" lon="-1.6228570">
        <ele>455.8</ele>
        <time>2020-03-26T20:11:44Z</time>
      </trkpt>
      <trkpt lat="42.8137420" lon="-1.6229180">
        <ele>456.0</ele>
        <time>2020-03-26T20:11:46Z</time>
      </trkpt>
      <trkpt lat="42.8137230" lon="-1.6229800">
        <ele>456.2</ele>
        <time>2020-03-26T20:11:48Z</time>
      </trkpt>
      <trkpt lat="42.8136710" lon="-1.6231500">
        <ele>457.1</ele>
        <time>2020-03-26T20:11:50Z</time>
      </trkpt>
      <trkpt lat="42.8136470" lon="-1.6232290">
        <ele>457.6</ele>
        <time>2020-03-26T20:11:52Z</time>
      </trkpt>
      <trkpt lat="42.8136190" lon="-1.6233190">
        <ele>458.3</ele>
        <time>2020-03-26T20:11:54Z</time>
      </trkpt>
      <trkpt lat="42.8135900" lon="-1.6234130">
        <ele>458.8</ele>
        <time>2020-03-26T20:11:56Z</time>
      </trkpt>
      <trkpt lat="42.8135200" lon="-1.6236370">
        <ele>459.6</ele>
        <time>2020-03-26T20:11:58Z</time>
      </trkpt>
      <trkpt lat="42.8134880" lon="-1.6237370">
        <ele>459.7</ele>
        <time>2020-03-26T20:12:00Z</time>
      </trkpt>
      <trkpt lat="42.8134560" lon="-1.6238380">
        <ele>459.8</ele>
        <time>2020-03-26T20:12:02Z</time>
      </trkpt>
      <trkpt lat="42.8134240" lon="-1.6239410">
        <ele>459.9</ele>
        <time>2020-03-26T20:12:04Z</time>
      </trkpt>
      <trkpt lat="42.8133460" lon="-1.6241870">
        <ele>460.0</ele>
        <time>2020-03-26T20:12:06Z</time>
      </trkpt>
      <trkpt lat="42.8133130" lon="-1.6242920">
        <ele>460.0</ele>
        <time>2020-03-26T20:12:08Z</time>
      </trkpt>
      <trkpt lat="42.8132630" lon="-1.6244710">
        <ele>460.1</ele>
        <time>2020-03-26T20:12:10Z</time>
      </trkpt>
      <trkpt lat="42.8132340" lon="-1.6245850">
        <ele>460.1</ele>
        <time>2020-03-26T20:12:12Z</time>
      </trkpt>
      <trkpt lat="42.8131930" lon="-1.6247940">
        <ele>460.1</ele>
        <time>2020-03-26T20:12:14Z</time>
      </trkpt>
      <trkpt lat="42.8131730" lon="-1.6249790">
        <ele>460.0</ele>
        <time>2020-03-26T20:12:16Z</time>
      </trkpt>
      <trkpt lat="42.8131700" lon="-1.6251370">
        <ele>459.9</ele>
        <time>2020-03-26T20:12:18Z</time>
      </trkpt>
      <trkpt lat="42.8131690" lon="-1.6252680">
        <ele>459.8</ele>
        <time>2020-03-26T20:12:20Z</time>
      </trkpt>
      <trkpt lat="42.8132200" lon="-1.6255020">
        <ele>460.0</ele>
        <time>2020-03-26T20:12:22Z</time>
      </trkpt>
      <trkpt lat="42.8132370" lon="-1.6256610">
        <ele>460.3</ele>
        <time>2020-03-26T20:12:24Z</time>
      </trkpt>
      <trkpt lat="42.8131910" lon="-1.6258500">
        <ele>460.3</ele>
        <time>2020-03-26T20:12:26Z</time>
      </trkpt>
      <trkpt lat="42.8132180" lon="-1.6259720">
        <ele>460.8</ele>
        <time>2020-03-26T20:12:28Z</time>
      </trkpt>
      <trkpt lat="42.8132960" lon="-1.6261480">
        <ele>461.8</ele>
        <time>2020-03-26T20:12:30Z</time>
      </trkpt>
      <trkpt lat="42.8133410" lon="-1.6262630">
        <ele>462.2</ele>
        <time>2020-03-26T20:12:32Z</time>
      </trkpt>
      <trkpt lat="42.8134220" lon="-1.6264510">
        <ele>462.6</ele>
        <time>2020-03-26T20:12:34Z</time>
      </trkpt>
      <trkpt lat="42.8134790" lon="-1.6265580">
        <ele>462.8</ele>
        <time>2020-03-26T20:12:36Z</time>
      </trkpt>
      <trkpt lat="42.8135860" lon="-1.6267470">
        <ele>463.3</ele>
        <time>2020-03-26T20:12:38Z</time>
      </trkpt>
      <trkpt lat="42.8136550" lon="-1.6268430">
        <ele>463.7</ele>
        <time>2020-03-26T20:12:40Z</time>
      </trkpt>
      <trkpt lat="42.8137610" lon="-1.6270030">
        <ele>464.1</ele>
        <time>2020-03-26T20:12:42Z</time>
      </trkpt>
      <trkpt lat="42.8138260" lon="-1.6271140">
        <ele>464.0</ele>
        <time>2020-03-26T20:12:44Z</time>
      </trkpt>
      <trkpt lat="42.8138920" lon="-1.6272260">
        <ele>463.9</ele>
        <time>2020-03-26T20:12:46Z</time>
      </trkpt>
      <trkpt lat="42.8139600" lon="-1.6273420">
        <ele>463.8</ele>
        <time>2020-03-26T20:12:48Z</time>
      </trkpt>
      <trkpt lat="42.8140290" lon="-1.6274580">
        <ele>463.6</ele>
        <time>2020-03-26T20:12:50Z</time>
      </trkpt>
      <trkpt lat="42.8141960" lon="-1.6277960">
        <ele>463.0</ele>
        <time>2020-03-26T20:12:52Z</time>
      </trkpt>
      <trkpt lat="42.8142460" lon="-1.6279450">
        <ele>462.8</ele>
        <time>2020-03-26T20:12:54Z</time>
      </trkpt>
      <trkpt lat="42.8143150" lon="-1.6282180">
        <ele>462.3</ele>
        <time>2020-03-26T20:12:56Z</time>
      </trkpt>
      <trkpt lat="42.8143490" lon="-1.6283920">
        <ele>461.8</ele>
        <time>2020-03-26T20:12:58Z</time>
      </trkpt>
      <trkpt lat="42.8144050" lon="-1.6287110">
        <ele>459.9</ele>
        <time>2020-03-26T20:13:00Z</time>
      </trkpt>
      <trkpt lat="42.8144410" lon="-1.6290100">
        <ele>456.5</ele>
        <time>2020-03-26T20:13:02Z</time>
      </trkpt>
      <trkpt lat="42.8144210" lon="-1.6292690">
        <ele>454.1</ele>
        <time>2020-03-26T20:13:04Z</time>
      </trkpt>
      <trkpt lat="42.8143960" lon="-1.6294730">
        <ele>453.9</ele>
        <time>2020-03-26T20:13:06Z</time>
      </trkpt>
      <trkpt lat="42.8143290" lon="-1.6298180">
        <ele>451.8</ele>
        <time>2020-03-26T20:13:09Z</time>
      </trkpt>
      <trkpt lat="42.8142820" lon="-1.6300270">
        <ele>451.9</ele>
        <time>2020-03-26T20:13:11Z</time>
      </trkpt>
      <trkpt lat="42.8142130" lon="-1.6303680">
        <ele>452.0</ele>
        <time>2020-03-26T20:13:13Z</time>
      </trkpt>
      <trkpt lat="42.8141780" lon="-1.6305780">
        <ele>452.0</ele>
        <time>2020-03-26T20:13:15Z</time>
      </trkpt>
      <trkpt lat="42.8141120" lon="-1.6309820">
        <ele>451.8</ele>
        <time>2020-03-26T20:13:17Z</time>
      </trkpt>
      <trkpt lat="42.8140790" lon="-1.6311810">
        <ele>451.2</ele>
        <time>2020-03-26T20:13:19Z</time>
      </trkpt>
      <trkpt lat="42.8140290" lon="-1.6314870">
        <ele>450.5</ele>
        <time>2020-03-26T20:13:21Z</time>
      </trkpt>
      <trkpt lat="42.8139990" lon="-1.6317670">
        <ele>451.1</ele>
        <time>2020-03-26T20:13:23Z</time>
      </trkpt>
      <trkpt lat="42.8139820" lon="-1.6319410">
        <ele>452.1</ele>
        <time>2020-03-26T20:13:25Z</time>
      </trkpt>
      <trkpt lat="42.8139670" lon="-1.6320920">
        <ele>453.0</ele>
        <time>2020-03-26T20:13:27Z</time>
      </trkpt>
      <trkpt lat="42.8139540" lon="-1.6322250">
        <ele>453.7</ele>
        <time>2020-03-26T20:13:29Z</time>
      </trkpt>
      <trkpt lat="42.8139430" lon="-1.6323410">
        <ele>454.2</ele>
        <time>2020-03-26T20:13:31Z</time>
      </trkpt>
      <trkpt lat="42.8139330" lon="-1.6324420">
        <ele>454.7</ele>
        <time>2020-03-26T20:13:33Z</time>
      </trkpt>
      <trkpt lat="42.8139240" lon="-1.6325310">
        <ele>455.1</ele>
        <time>2020-03-26T20:13:35Z</time>
      </trkpt>
      <trkpt lat="42.8138860" lon="-1.6329230">
        <ele>456.9</ele>
        <time>2020-03-26T20:13:37Z</time>
      </trkpt>
      <trkpt lat="42.8138790" lon="-1.6329950">
        <ele>457.3</ele>
        <time>2020-03-26T20:13:39Z</time>
      </trkpt>
      <trkpt lat="42.8138730" lon="-1.6330600">
        <ele>457.6</ele>
        <time>2020-03-26T20:13:41Z</time>
      </trkpt>
      <trkpt lat="42.8138670" lon="-1.6331220">
        <ele>457.8</ele>
        <time>2020-03-26T20:13:43Z</time>
      </trkpt>
      <trkpt lat="42.8138610" lon="-1.6331800">
        <ele>458.1</ele>
        <time>2020-03-26T20:13:45Z</time>
      </trkpt>
      <trkpt lat="42.8138560" lon="-1.6332370">
        <ele>458.4</ele>
        <time>2020-03-26T20:13:47Z</time>
      </trkpt>
      <trkpt lat="42.8138510" lon="-1.6332920">
        <ele>458.6</ele>
        <time>2020-03-26T20:13:49Z</time>
      </trkpt>
      <trkpt lat="42.8138450" lon="-1.6333470">
        <ele>458.9</ele>
        <time>2020-03-26T20:13:51Z</time>
      </trkpt>
      <trkpt lat="42.8138400" lon="-1.6334010">
        <ele>459.2</ele>
        <time>2020-03-26T20:13:53Z</time>
      </trkpt>
      <trkpt lat="42.8138350" lon="-1.6334550">
        <ele>459.5</ele>
        <time>2020-03-26T20:13:55Z</time>
      </trkpt>
      <trkpt lat="42.8138300" lon="-1.6335090">
        <ele>459.8</ele>
        <time>2020-03-26T20:13:57Z</time>
      </trkpt>
      <trkpt lat="42.8138240" lon="-1.6335630">
        <ele>460.1</ele>
        <time>2020-03-26T20:13:59Z</time>
      </trkpt>
      <trkpt lat="42.8138190" lon="-1.6336170">
        <ele>460.4</ele>
        <time>2020-03-26T20:14:01Z</time>
      </trkpt>
      <trkpt lat="42.8138140" lon="-1.6336710">
        <ele>460.7</ele>
        <time>2020-03-26T20:14:03Z</time>
      </trkpt>
      <trkpt lat="42.8138090" lon="-1.6337250">
        <ele>461.0</ele>
        <time>2020-03-26T20:14:05Z</time>
      </trkpt>
      <trkpt lat="42.8137730" lon="-1.6340920">
        <ele>463.2</ele>
        <time>2020-03-26T20:14:07Z</time>
      </trkpt>
      <trkpt lat="42.8137650" lon="-1.6341650">
        <ele>463.2</ele>
        <time>2020-03-26T20:14:09Z</time>
      </trkpt>
      <trkpt lat="42.8137550" lon="-1.6342550">
        <ele>463.1</ele>
        <time>2020-03-26T20:14:11Z</time>
      </trkpt>
      <trkpt lat="42.8137450" lon="-1.6343580">
        <ele>463.0</ele>
        <time>2020-03-26T20:14:13Z</time>
      </trkpt>
      <trkpt lat="42.8137320" lon="-1.6344720">
        <ele>462.9</ele>
        <time>2020-03-26T20:14:15Z</time>
      </trkpt>
      <trkpt lat="42.8137190" lon="-1.6345970">
        <ele>462.6</ele>
        <time>2020-03-26T20:14:17Z</time>
      </trkpt>
      <trkpt lat="42.8137050" lon="-1.6347300">
        <ele>462.2</ele>
        <time>2020-03-26T20:14:19Z</time>
      </trkpt>
      <trkpt lat="42.8136900" lon="-1.6348710">
        <ele>461.7</ele>
        <time>2020-03-26T20:14:21Z</time>
      </trkpt>
      <trkpt lat="42.8136410" lon="-1.6353420">
        <ele>460.9</ele>
        <time>2020-03-26T20:14:23Z</time>
      </trkpt>
      <trkpt lat="42.8136190" lon="-1.6355450">
        <ele>460.6</ele>
        <time>2020-03-26T20:14:25Z</time>
      </trkpt>
      <trkpt lat="42.8136030" lon="-1.6357060">
        <ele>460.8</ele>
        <time>2020-03-26T20:14:27Z</time>
      </trkpt>
      <trkpt lat="42.8135860" lon="-1.6358760">
        <ele>460.8</ele>
        <time>2020-03-26T20:14:29Z</time>
      </trkpt>
      <trkpt lat="42.8135680" lon="-1.6360520">
        <ele>460.7</ele>
        <time>2020-03-26T20:14:31Z</time>
      </trkpt>
      <trkpt lat="42.8135230" lon="-1.6365040">
        <ele>460.5</ele>
        <time>2020-03-26T20:14:33Z</time>
      </trkpt>
      <trkpt lat="42.8135040" lon="-1.6366910">
        <ele>460.8</ele>
        <time>2020-03-26T20:14:35Z</time>
      </trkpt>
      <trkpt lat="42.8134760" lon="-1.6369600">
        <ele>461.0</ele>
        <time>2020-03-26T20:14:37Z</time>
      </trkpt>
      <trkpt lat="42.8134570" lon="-1.6371420">
        <ele>461.1</ele>
        <time>2020-03-26T20:14:39Z</time>
      </trkpt>
      <trkpt lat="42.8134380" lon="-1.6373200">
        <ele>461.1</ele>
        <time>2020-03-26T20:14:41Z</time>
      </trkpt>
      <trkpt lat="42.8133970" lon="-1.6377180">
        <ele>461.8</ele>
        <time>2020-03-26T20:14:43Z</time>
      </trkpt>
      <trkpt lat="42.8133800" lon="-1.6378880">
        <ele>462.0</ele>
        <time>2020-03-26T20:14:45Z</time>
      </trkpt>
      <trkpt lat="42.8133510" lon="-1.6381700">
        <ele>462.2</ele>
        <time>2020-03-26T20:14:47Z</time>
      </trkpt>
      <trkpt lat="42.8133350" lon="-1.6383320">
        <ele>461.9</ele>
        <time>2020-03-26T20:14:49Z</time>
      </trkpt>
      <trkpt lat="42.8133190" lon="-1.6384950">
        <ele>461.4</ele>
        <time>2020-03-26T20:14:51Z</time>
      </trkpt>
      <trkpt lat="42.8132890" lon="-1.6388540">
        <ele>460.4</ele>
        <time>2020-03-26T20:14:53Z</time>
      </trkpt>
      <trkpt lat="42.8133090" lon="-1.6390800">
        <ele>460.2</ele>
        <time>2020-03-26T20:14:55Z</time>
      </trkpt>
      <trkpt lat="42.8133750" lon="-1.6392520">
        <ele>460.4</ele>
        <time>2020-03-26T20:14:57Z</time>
      </trkpt>
      <trkpt lat="42.8133320" lon="-1.6394500">
        <ele>460.7</ele>
        <time>2020-03-26T20:14:59Z</time>
      </trkpt>
      <trkpt lat="42.8132350" lon="-1.6395770">
        <ele>461.1</ele>
        <time>2020-03-26T20:15:01Z</time>
      </trkpt>
      <trkpt lat="42.8131860" lon="-1.6397700">
        <ele>461.5</ele>
        <time>2020-03-26T20:15:03Z</time>
      </trkpt>
      <trkpt lat="42.8131720" lon="-1.6399100">
        <ele>462.0</ele>
        <time>2020-03-26T20:15:05Z</time>
      </trkpt>
      <trkpt lat="42.8131590" lon="-1.6400450">
        <ele>462.3</ele>
        <time>2020-03-26T20:15:07Z</time>
      </trkpt>
      <trkpt lat="42.8131460" lon="-1.6401760">
        <ele>462.6</ele>
        <time>2020-03-26T20:15:09Z</time>
      </trkpt>
      <trkpt lat="42.8131330" lon="-1.6403050">
        <ele>462.7</ele>
        <time>2020-03-26T20:15:11Z</time>
      </trkpt>
      <trkpt lat="42.8130970" lon="-1.6406750">
        <ele>463.2</ele>
        <time>2020-03-26T20:15:13Z</time>
      </trkpt>
      <trkpt lat="42.8130810" lon="-1.6408430">
        <ele>463.8</ele>
        <time>2020-03-26T20:15:15Z</time>
      </trkpt>
      <trkpt lat="42.8130680" lon="-1.6409690">
        <ele>464.3</ele>
        <time>2020-03-26T20:15:17Z</time>
      </trkpt>
      <trkpt lat="42.8130540" lon="-1.6410950">
        <ele>464.6</ele>
        <time>2020-03-26T20:15:19Z</time>
      </trkpt>
      <trkpt lat="42.8130410" lon="-1.6412200">
        <ele>464.9</ele>
        <time>2020-03-26T20:15:21Z</time>
      </trkpt>
      <trkpt lat="42.8130070" lon="-1.6415450">
        <ele>465.1</ele>
        <time>2020-03-26T20:15:23Z</time>
      </trkpt>
      <trkpt lat="42.8129980" lon="-1.6416730">
        <ele>465.1</ele>
        <time>2020-03-26T20:15:25Z</time>
      </trkpt>
      <trkpt lat="42.8129830" lon="-1.6418600">
        <ele>465.0</ele>
        <time>2020-03-26T20:15:27Z</time>
      </trkpt>
      <trkpt lat="42.8129690" lon="-1.6419960">
        <ele>464.9</ele>
        <time>2020-03-26T20:15:29Z</time>
      </trkpt>
      <trkpt lat="42.8129550" lon="-1.6421410">
        <ele>464.8</ele>
        <time>2020-03-26T20:15:31Z</time>
      </trkpt>
      <trkpt lat="42.8129350" lon="-1.6424600">
        <ele>464.3</ele>
        <time>2020-03-26T20:15:33Z</time>
      </trkpt>
      <trkpt lat="42.8129720" lon="-1.6426730">
        <ele>463.6</ele>
        <time>2020-03-26T20:15:35Z</time>
      </trkpt>
      <trkpt lat="42.8130600" lon="-1.6428580">
        <ele>462.8</ele>
        <time>2020-03-26T20:15:37Z</time>
      </trkpt>
      <trkpt lat="42.8130490" lon="-1.6430620">
        <ele>462.1</ele>
        <time>2020-03-26T20:15:39Z</time>
      </trkpt>
      <trkpt lat="42.8129240" lon="-1.6432330">
        <ele>461.6</ele>
        <time>2020-03-26T20:15:41Z</time>
      </trkpt>
      <trkpt lat="42.8128400" lon="-1.6434420">
        <ele>461.7</ele>
        <time>2020-03-26T20:15:43Z</time>
      </trkpt>
      <trkpt lat="42.8128160" lon="-1.6436650">
        <ele>462.1</ele>
        <time>2020-03-26T20:15:45Z</time>
      </trkpt>
      <trkpt lat="42.8127970" lon="-1.6438550">
        <ele>462.4</ele>
        <time>2020-03-26T20:15:47Z</time>
      </trkpt>
      <trkpt lat="42.8127770" lon="-1.6440510">
        <ele>462.5</ele>
        <time>2020-03-26T20:15:49Z</time>
      </trkpt>
      <trkpt lat="42.8127290" lon="-1.6445050">
        <ele>462.4</ele>
        <time>2020-03-26T20:15:51Z</time>
      </trkpt>
      <trkpt lat="42.8127090" lon="-1.6447090">
        <ele>462.2</ele>
        <time>2020-03-26T20:15:53Z</time>
      </trkpt>
      <trkpt lat="42.8126710" lon="-1.6450750">
        <ele>461.7</ele>
        <time>2020-03-26T20:15:55Z</time>
      </trkpt>
      <trkpt lat="42.8126370" lon="-1.6453580">
        <ele>461.1</ele>
        <time>2020-03-26T20:15:57Z</time>
      </trkpt>
      <trkpt lat="42.8126380" lon="-1.6456610">
        <ele>459.9</ele>
        <time>2020-03-26T20:15:59Z</time>
      </trkpt>
      <trkpt lat="42.8125480" lon="-1.6457420">
        <ele>460.6</ele>
        <time>2020-03-26T20:16:01Z</time>
      </trkpt>
      <trkpt lat="42.8125290" lon="-1.6454700">
        <ele>461.1</ele>
        <time>2020-03-26T20:16:03Z</time>
      </trkpt>
      <trkpt lat="42.8125560" lon="-1.6451680">
        <ele>461.5</ele>
        <time>2020-03-26T20:16:05Z</time>
      </trkpt>
      <trkpt lat="42.8125840" lon="-1.6448790">
        <ele>461.6</ele>
        <time>2020-03-26T20:16:07Z</time>
      </trkpt>
      <trkpt lat="42.8126070" lon="-1.6446970">
        <ele>462.0</ele>
        <time>2020-03-26T20:16:09Z</time>
      </trkpt>
      <trkpt lat="42.8126290" lon="-1.6445260">
        <ele>462.4</ele>
        <time>2020-03-26T20:16:11Z</time>
      </trkpt>
      <trkpt lat="42.8126600" lon="-1.6442500">
        <ele>462.9</ele>
        <time>2020-03-26T20:16:12Z</time>
      </trkpt>
      <trkpt lat="42.8126600" lon="-1.6442500">
        <ele>462.9</ele>
        <time>2020-03-26T20:16:12Z</time>
      </trkpt>
      <trkpt lat="42.8126600" lon="-1.6442500">
        <ele>462.9</ele>
        <time>2020-03-26T20:16:14Z</time>
      </trkpt>
      <trkpt lat="42.8126600" lon="-1.6442500">
        <ele>462.9</ele>
        <time>2020-03-26T20:16:16Z</time>
      </trkpt>
      <trkpt lat="42.8126600" lon="-1.6442500">
        <ele>462.9</ele>
        <time>2020-03-26T20:16:18Z</time>
      </trkpt>
      <trkpt lat="42.8126600" lon="-1.6442500">
        <ele>462.9</ele>
        <time>2020-03-26T20:16:20Z</time>
      </trkpt>
      <trkpt lat="42.8126600" lon="-1.6442500">
        <ele>462.9</ele>
        <time>2020-03-26T20:16:22Z</time>
      </trkpt>
      <trkpt lat="42.8126600" lon="-1.6442500">
        <ele>462.9</ele>
        <time>2020-03-26T20:16:24Z</time>
      </trkpt>
      <trkpt lat="42.8126600" lon="-1.6442500">
        <ele>462.9</ele>
        <time>2020-03-26T20:16:26Z</time>
      </trkpt>
      <trkpt lat="42.8126600" lon="-1.6442500">
        <ele>462.9</ele>
        <time>2020-03-26T20:16:28Z</time>
      </trkpt>
      <trkpt lat="42.8126600" lon="-1.6442500">
        <ele>462.9</ele>
        <time>2020-03-26T20:16:30Z</time>
      </trkpt>
      <trkpt lat="42.8126600" lon="-1.6442500">
        <ele>462.9</ele>
        <time>2020-03-26T20:16:32Z</time>
      </trkpt>
      <trkpt lat="42.8126600" lon="-1.6442500">
        <ele>462.9</ele>
        <time>2020-03-26T20:16:33Z</time>
      </trkpt>
      <trkpt lat="42.8129290" lon="-1.6432290">
        <ele>461.6</ele>
        <time>2020-03-28T17:51:39Z</time>
      </trkpt>
      <trkpt lat="42.8129290" lon="-1.6432290">
        <ele>461.6</ele>
        <time>2020-03-28T17:51:41Z</time>
      </trkpt>
      <trkpt lat="42.8129290" lon="-1.6432290">
        <ele>461.6</ele>
        <time>2020-03-28T17:51:43Z</time>
      </trkpt>
      <trkpt lat="42.8129290" lon="-1.6432290">
        <ele>461.6</ele>
        <time>2020-03-28T17:51:45Z</time>
      </trkpt>
      <trkpt lat="42.8129290" lon="-1.6432290">
        <ele>461.6</ele>
        <time>2020-03-28T17:51:47Z</time>
      </trkpt>
      <trkpt lat="42.8129290" lon="-1.6432290">
        <ele>461.6</ele>
        <time>2020-03-28T17:51:49Z</time>
      </trkpt>
      <trkpt lat="42.8129290" lon="-1.6432290">
        <ele>461.6</ele>
        <time>2020-03-28T17:51:51Z</time>
      </trkpt>
      <trkpt lat="42.8129290" lon="-1.6432290">
        <ele>461.6</ele>
        <time>2020-03-28T17:51:53Z</time>
      </trkpt>
      <trkpt lat="42.8129290" lon="-1.6432290">
        <ele>461.6</ele>
        <time>2020-03-28T17:51:55Z</time>
      </trkpt>
      <trkpt lat="42.8129290" lon="-1.6432290">
        <ele>461.6</ele>
        <time>2020-03-28T17:51:57Z</time>
      </trkpt>
      <trkpt lat="42.8129290" lon="-1.6432290">
        <ele>461.6</ele>
        <time>2020-03-28T17:51:59Z</time>
      </trkpt>
      <trkpt lat="42.8129290" lon="-1.6432290">
        <ele>461.6</ele>
        <time>2020-03-28T17:52:01Z</time>
      </trkpt>
      <trkpt lat="42.8129290" lon="-1.6432290">
        <ele>461.6</ele>
        <time>2020-03-28T17:52:03Z</time>
      </trkpt>
      <trkpt lat="42.8129290" lon="-1.6432290">
        <ele>461.6</ele>
        <time>2020-03-28T17:52:05Z</time>
      </trkpt>
      <trkpt lat="42.8129290" lon="-1.6432290">
        <ele>461.6</ele>
        <time>2020-03-28T17:52:06Z</time>
      </trkpt>
      <trkpt lat="42.8129290" lon="-1.6432290">
        <ele>461.6</ele>
        <time>2020-03-28T17:52:06Z</time>
      </trkpt>
      <trkpt lat="42.8129290" lon="-1.6432290">
        <ele>461.6</ele>
        <time>2020-03-28T17:52:08Z</time>
      </trkpt>
      <trkpt lat="42.8129110" lon="-1.6432410">
        <ele>461.6</ele>
        <time>2020-03-28T17:52:10Z</time>
      </trkpt>
      <trkpt lat="42.8128730" lon="-1.6433070">
        <ele>461.7</ele>
        <time>2020-03-28T17:52:12Z</time>
      </trkpt>
      <trkpt lat="42.8128380" lon="-1.6434540">
        <ele>461.7</ele>
        <time>2020-03-28T17:52:14Z</time>
      </trkpt>
      <trkpt lat="42.8128180" lon="-1.6436390">
        <ele>462.0</ele>
        <time>2020-03-28T17:52:16Z</time>
      </trkpt>
      <trkpt lat="42.8128030" lon="-1.6437930">
        <ele>462.3</ele>
        <time>2020-03-28T17:52:18Z</time>
      </trkpt>
      <trkpt lat="42.8127870" lon="-1.6439510">
        <ele>462.5</ele>
        <time>2020-03-28T17:52:20Z</time>
      </trkpt>
      <trkpt lat="42.8127500" lon="-1.6443230">
        <ele>462.4</ele>
        <time>2020-03-28T17:52:22Z</time>
      </trkpt>
      <trkpt lat="42.8127260" lon="-1.6445390">
        <ele>462.4</ele>
        <time>2020-03-28T17:52:24Z</time>
      </trkpt>
      <trkpt lat="42.8127080" lon="-1.6447150">
        <ele>462.2</ele>
        <time>2020-03-28T17:52:26Z</time>
      </trkpt>
      <trkpt lat="42.8126900" lon="-1.6448940">
        <ele>462.0</ele>
        <time>2020-03-28T17:52:28Z</time>
      </trkpt>
      <trkpt lat="42.8126510" lon="-1.6452340">
        <ele>461.4</ele>
        <time>2020-03-28T17:52:30Z</time>
      </trkpt>
      <trkpt lat="42.8126290" lon="-1.6454920">
        <ele>460.7</ele>
        <time>2020-03-28T17:52:32Z</time>
      </trkpt>
      <trkpt lat="42.8126710" lon="-1.6457990">
        <ele>459.6</ele>
        <time>2020-03-28T17:52:34Z</time>
      </trkpt>
      <trkpt lat="42.8127360" lon="-1.6460470">
        <ele>457.6</ele>
        <time>2020-03-28T17:52:36Z</time>
      </trkpt>
      <trkpt lat="42.8127910" lon="-1.6462520">
        <ele>455.8</ele>
        <time>2020-03-28T17:52:38Z</time>
      </trkpt>
      <trkpt lat="42.8128940" lon="-1.6466330">
        <ele>453.3</ele>
        <time>2020-03-28T17:52:40Z</time>
      </trkpt>
      <trkpt lat="42.8129490" lon="-1.6468390">
        <ele>452.4</ele>
        <time>2020-03-28T17:52:42Z</time>
      </trkpt>
      <trkpt lat="42.8130020" lon="-1.6470390">
        <ele>451.3</ele>
        <time>2020-03-28T17:52:44Z</time>
      </trkpt>
      <trkpt lat="42.8130560" lon="-1.6472420">
        <ele>450.3</ele>
        <time>2020-03-28T17:52:46Z</time>
      </trkpt>
      <trkpt lat="42.8131810" lon="-1.6477160">
        <ele>449.1</ele>
        <time>2020-03-28T17:52:48Z</time>
      </trkpt>
      <trkpt lat="42.8132480" lon="-1.6479680">
        <ele>450.0</ele>
        <time>2020-03-28T17:52:50Z</time>
      </trkpt>
      <trkpt lat="42.8133020" lon="-1.6481720">
        <ele>450.8</ele>
        <time>2020-03-28T17:52:52Z</time>
      </trkpt>
      <trkpt lat="42.8134030" lon="-1.6485540">
        <ele>452.3</ele>
        <time>2020-03-28T17:52:54Z</time>
      </trkpt>
      <trkpt lat="42.8134640" lon="-1.6487840">
        <ele>453.5</ele>
        <time>2020-03-28T17:52:56Z</time>
      </trkpt>
      <trkpt lat="42.8135320" lon="-1.6490430">
        <ele>454.4</ele>
        <time>2020-03-28T17:52:58Z</time>
      </trkpt>
      <trkpt lat="42.8136020" lon="-1.6493090">
        <ele>454.6</ele>
        <time>2020-03-28T17:53:00Z</time>
      </trkpt>
      <trkpt lat="42.8136470" lon="-1.6494820">
        <ele>454.3</ele>
        <time>2020-03-28T17:53:02Z</time>
      </trkpt>
      <trkpt lat="42.8137200" lon="-1.6497580">
        <ele>454.0</ele>
        <time>2020-03-28T17:53:04Z</time>
      </trkpt>
      <trkpt lat="42.8137780" lon="-1.6499800">
        <ele>454.1</ele>
        <time>2020-03-28T17:53:06Z</time>
      </trkpt>
      <trkpt lat="42.8138330" lon="-1.6501890">
        <ele>454.4</ele>
        <time>2020-03-28T17:53:08Z</time>
      </trkpt>
      <trkpt lat="42.8138700" lon="-1.6503330">
        <ele>454.8</ele>
        <time>2020-03-28T17:53:10Z</time>
      </trkpt>
      <trkpt lat="42.8139070" lon="-1.6504710">
        <ele>455.1</ele>
        <time>2020-03-28T17:53:12Z</time>
      </trkpt>
      <trkpt lat="42.8139860" lon="-1.6507600">
        <ele>455.8</ele>
        <time>2020-03-28T17:53:14Z</time>
      </trkpt>
      <trkpt lat="42.8140390" lon="-1.6509470">
        <ele>455.9</ele>
        <time>2020-03-28T17:53:16Z</time>
      </trkpt>
      <trkpt lat="42.8140800" lon="-1.6510900">
        <ele>455.4</ele>
        <time>2020-03-28T17:53:18Z</time>
      </trkpt>
      <trkpt lat="42.8141230" lon="-1.6512420">
        <ele>454.9</ele>
        <time>2020-03-28T17:53:20Z</time>
      </trkpt>
      <trkpt lat="42.8142110" lon="-1.6515510">
        <ele>453.8</ele>
        <time>2020-03-28T17:53:22Z</time>
      </trkpt>
      <trkpt lat="42.8142570" lon="-1.6517130">
        <ele>453.1</ele>
        <time>2020-03-28T17:53:24Z</time>
      </trkpt>
      <trkpt lat="42.8143050" lon="-1.6518790">
        <ele>452.6</ele>
        <time>2020-03-28T17:53:26Z</time>
      </trkpt>
      <trkpt lat="42.8143530" lon="-1.6520470">
        <ele>452.1</ele>
        <time>2020-03-28T17:53:28Z</time>
      </trkpt>
      <trkpt lat="42.8142790" lon="-1.6523510">
        <ele>452.5</ele>
        <time>2020-03-28T17:53:30Z</time>
      </trkpt>
      <trkpt lat="42.8142540" lon="-1.6524620">
        <ele>452.8</ele>
        <time>2020-03-28T17:53:32Z</time>
      </trkpt>
      <trkpt lat="42.8142510" lon="-1.6525640">
        <ele>452.8</ele>
        <time>2020-03-28T17:53:34Z</time>
      </trkpt>
      <trkpt lat="42.8142100" lon="-1.6526970">
        <ele>452.9</ele>
        <time>2020-03-28T17:53:36Z</time>
      </trkpt>
      <trkpt lat="42.8141490" lon="-1.6527420">
        <ele>452.9</ele>
        <time>2020-03-28T17:53:38Z</time>
      </trkpt>
      <trkpt lat="42.8141000" lon="-1.6526310">
        <ele>453.2</ele>
        <time>2020-03-28T17:53:40Z</time>
      </trkpt>
      <trkpt lat="42.8140340" lon="-1.6525350">
        <ele>453.2</ele>
        <time>2020-03-28T17:53:42Z</time>
      </trkpt>
      <trkpt lat="42.8139320" lon="-1.6525730">
        <ele>453.5</ele>
        <time>2020-03-28T17:53:44Z</time>
      </trkpt>
      <trkpt lat="42.8138860" lon="-1.6526470">
        <ele>453.8</ele>
        <time>2020-03-28T17:53:46Z</time>
      </trkpt>
      <trkpt lat="42.8138420" lon="-1.6527190">
        <ele>454.3</ele>
        <time>2020-03-28T17:53:48Z</time>
      </trkpt>
      <trkpt lat="42.8137980" lon="-1.6527900">
        <ele>455.0</ele>
        <time>2020-03-28T17:53:50Z</time>
      </trkpt>
      <trkpt lat="42.8137550" lon="-1.6528590">
        <ele>455.6</ele>
        <time>2020-03-28T17:53:52Z</time>
      </trkpt>
      <trkpt lat="42.8137130" lon="-1.6529270">
        <ele>456.1</ele>
        <time>2020-03-28T17:53:54Z</time>
      </trkpt>
      <trkpt lat="42.8136710" lon="-1.6529960">
        <ele>456.5</ele>
        <time>2020-03-28T17:53:56Z</time>
      </trkpt>
      <trkpt lat="42.8135310" lon="-1.6532270">
        <ele>457.6</ele>
        <time>2020-03-28T17:53:58Z</time>
      </trkpt>
      <trkpt lat="42.8134910" lon="-1.6532980">
        <ele>457.9</ele>
        <time>2020-03-28T17:54:00Z</time>
      </trkpt>
      <trkpt lat="42.8134500" lon="-1.6533690">
        <ele>458.1</ele>
        <time>2020-03-28T17:54:02Z</time>
      </trkpt>
      <trkpt lat="42.8134110" lon="-1.6534400">
        <ele>458.3</ele>
        <time>2020-03-28T17:54:04Z</time>
      </trkpt>
      <trkpt lat="42.8133710" lon="-1.6535110">
        <ele>458.3</ele>
        <time>2020-03-28T17:54:06Z</time>
      </trkpt>
      <trkpt lat="42.8133310" lon="-1.6535810">
        <ele>458.4</ele>
        <time>2020-03-28T17:54:08Z</time>
      </trkpt>
      <trkpt lat="42.8131940" lon="-1.6538010">
        <ele>458.4</ele>
        <time>2020-03-28T17:54:10Z</time>
      </trkpt>
      <trkpt lat="42.8131320" lon="-1.6538680">
        <ele>458.4</ele>
        <time>2020-03-28T17:54:12Z</time>
      </trkpt>
      <trkpt lat="42.8130660" lon="-1.6539390">
        <ele>458.4</ele>
        <time>2020-03-28T17:54:14Z</time>
      </trkpt>
      <trkpt lat="42.8129240" lon="-1.6540920">
        <ele>457.8</ele>
        <time>2020-03-28T17:54:16Z</time>
      </trkpt>
      <trkpt lat="42.8128200" lon="-1.6541800">
        <ele>457.2</ele>
        <time>2020-03-28T17:54:18Z</time>
      </trkpt>
      <trkpt lat="42.8127000" lon="-1.6542180">
        <ele>456.5</ele>
        <time>2020-03-28T17:54:20Z</time>
      </trkpt>
      <trkpt lat="42.8125380" lon="-1.6542380">
        <ele>456.0</ele>
        <time>2020-03-28T17:54:22Z</time>
      </trkpt>
      <trkpt lat="42.8124360" lon="-1.6542990">
        <ele>456.2</ele>
        <time>2020-03-28T17:54:24Z</time>
      </trkpt>
      <trkpt lat="42.8122810" lon="-1.6543700">
        <ele>456.4</ele>
        <time>2020-03-28T17:54:26Z</time>
      </trkpt>
      <trkpt lat="42.8121200" lon="-1.6543740">
        <ele>455.5</ele>
        <time>2020-03-28T17:54:28Z</time>
      </trkpt>
      <trkpt lat="42.8119820" lon="-1.6543180">
        <ele>454.9</ele>
        <time>2020-03-28T17:54:30Z</time>
      </trkpt>
      <trkpt lat="42.8118160" lon="-1.6542500">
        <ele>454.4</ele>
        <time>2020-03-28T17:54:32Z</time>
      </trkpt>
      <trkpt lat="42.8117060" lon="-1.6541870">
        <ele>454.1</ele>
        <time>2020-03-28T17:54:34Z</time>
      </trkpt>
      <trkpt lat="42.8115920" lon="-1.6541210">
        <ele>453.9</ele>
        <time>2020-03-28T17:54:36Z</time>
      </trkpt>
      <trkpt lat="42.8114760" lon="-1.6540540">
        <ele>453.9</ele>
        <time>2020-03-28T17:54:38Z</time>
      </trkpt>
      <trkpt lat="42.8112110" lon="-1.6539000">
        <ele>454.0</ele>
        <time>2020-03-28T17:54:40Z</time>
      </trkpt>
      <trkpt lat="42.8110910" lon="-1.6538310">
        <ele>454.0</ele>
        <time>2020-03-28T17:54:42Z</time>
      </trkpt>
      <trkpt lat="42.8109690" lon="-1.6537600">
        <ele>453.8</ele>
        <time>2020-03-28T17:54:44Z</time>
      </trkpt>
      <trkpt lat="42.8108450" lon="-1.6536890">
        <ele>453.3</ele>
        <time>2020-03-28T17:54:46Z</time>
      </trkpt>
      <trkpt lat="42.8105230" lon="-1.6535010">
        <ele>452.0</ele>
        <time>2020-03-28T17:54:48Z</time>
      </trkpt>
      <trkpt lat="42.8103880" lon="-1.6534240">
        <ele>452.2</ele>
        <time>2020-03-28T17:54:50Z</time>
      </trkpt>
      <trkpt lat="42.8102120" lon="-1.6532660">
        <ele>452.3</ele>
        <time>2020-03-28T17:54:52Z</time>
      </trkpt>
      <trkpt lat="42.8100880" lon="-1.6530960">
        <ele>452.3</ele>
        <time>2020-03-28T17:54:54Z</time>
      </trkpt>
      <trkpt lat="42.8100010" lon="-1.6529780">
        <ele>452.2</ele>
        <time>2020-03-28T17:54:56Z</time>
      </trkpt>
      <trkpt lat="42.8098620" lon="-1.6529960">
        <ele>452.5</ele>
        <time>2020-03-28T17:54:58Z</time>
      </trkpt>
      <trkpt lat="42.8097350" lon="-1.6530210">
        <ele>453.2</ele>
        <time>2020-03-28T17:55:00Z</time>
      </trkpt>
      <trkpt lat="42.8096170" lon="-1.6530890">
        <ele>453.9</ele>
        <time>2020-03-28T17:55:02Z</time>
      </trkpt>
      <trkpt lat="42.8095340" lon="-1.6531370">
        <ele>454.5</ele>
        <time>2020-03-28T17:55:04Z</time>
      </trkpt>
      <trkpt lat="42.8094570" lon="-1.6531820">
        <ele>455.0</ele>
        <time>2020-03-28T17:55:06Z</time>
      </trkpt>
      <trkpt lat="42.8093840" lon="-1.6532250">
        <ele>455.6</ele>
        <time>2020-03-28T17:55:08Z</time>
      </trkpt>
      <trkpt lat="42.8092030" lon="-1.6533470">
        <ele>456.5</ele>
        <time>2020-03-28T17:55:10Z</time>
      </trkpt>
      <trkpt lat="42.8091350" lon="-1.6534800">
        <ele>456.3</ele>
        <time>2020-03-28T17:55:12Z</time>
      </trkpt>
      <trkpt lat="42.8090620" lon="-1.6535670">
        <ele>456.1</ele>
        <time>2020-03-28T17:55:14Z</time>
      </trkpt>
      <trkpt lat="42.8089500" lon="-1.6536940">
        <ele>455.7</ele>
        <time>2020-03-28T17:55:16Z</time>
      </trkpt>
      <trkpt lat="42.8088670" lon="-1.6537850">
        <ele>455.4</ele>
        <time>2020-03-28T17:55:18Z</time>
      </trkpt>
      <trkpt lat="42.8087370" lon="-1.6539620">
        <ele>454.9</ele>
        <time>2020-03-28T17:55:20Z</time>
      </trkpt>
      <trkpt lat="42.8086630" lon="-1.6540790">
        <ele>454.6</ele>
        <time>2020-03-28T17:55:22Z</time>
      </trkpt>
      <trkpt lat="42.8085310" lon="-1.6542910">
        <ele>454.4</ele>
        <time>2020-03-28T17:55:24Z</time>
      </trkpt>
      <trkpt lat="42.8084120" lon="-1.6544820">
        <ele>454.8</ele>
        <time>2020-03-28T17:55:26Z</time>
      </trkpt>
      <trkpt lat="42.8083020" lon="-1.6546600">
        <ele>455.1</ele>
        <time>2020-03-28T17:55:28Z</time>
      </trkpt>
      <trkpt lat="42.8081850" lon="-1.6548540">
        <ele>455.1</ele>
        <time>2020-03-28T17:55:30Z</time>
      </trkpt>
      <trkpt lat="42.8080700" lon="-1.6550400">
        <ele>454.7</ele>
        <time>2020-03-28T17:55:32Z</time>
      </trkpt>
      <trkpt lat="42.8079530" lon="-1.6552340">
        <ele>454.0</ele>
        <time>2020-03-28T17:55:34Z</time>
      </trkpt>
      <trkpt lat="42.8078280" lon="-1.6554390">
        <ele>452.9</ele>
        <time>2020-03-28T17:55:36Z</time>
      </trkpt>
      <trkpt lat="42.8077420" lon="-1.6555820">
        <ele>452.5</ele>
        <time>2020-03-28T17:55:38Z</time>
      </trkpt>
      <trkpt lat="42.8076580" lon="-1.6557200">
        <ele>452.2</ele>
        <time>2020-03-28T17:55:40Z</time>
      </trkpt>
      <trkpt lat="42.8074770" lon="-1.6560220">
        <ele>451.9</ele>
        <time>2020-03-28T17:55:42Z</time>
      </trkpt>
      <trkpt lat="42.8074010" lon="-1.6561560">
        <ele>451.7</ele>
        <time>2020-03-28T17:55:44Z</time>
      </trkpt>
      <trkpt lat="42.8072710" lon="-1.6563860">
        <ele>451.4</ele>
        <time>2020-03-28T17:55:46Z</time>
      </trkpt>
      <trkpt lat="42.8071770" lon="-1.6565350">
        <ele>451.3</ele>
        <time>2020-03-28T17:55:49Z</time>
      </trkpt>
      <trkpt lat="42.8070680" lon="-1.6567180">
        <ele>451.0</ele>
        <time>2020-03-28T17:55:51Z</time>
      </trkpt>
      <trkpt lat="42.8069940" lon="-1.6568470">
        <ele>450.9</ele>
        <time>2020-03-28T17:55:53Z</time>
      </trkpt>
      <trkpt lat="42.8068680" lon="-1.6570530">
        <ele>450.5</ele>
        <time>2020-03-28T17:55:55Z</time>
      </trkpt>
      <trkpt lat="42.8068020" lon="-1.6572860">
        <ele>450.0</ele>
        <time>2020-03-28T17:55:57Z</time>
      </trkpt>
      <trkpt lat="42.8066840" lon="-1.6574120">
        <ele>449.5</ele>
        <time>2020-03-28T17:55:59Z</time>
      </trkpt>
      <trkpt lat="42.8066170" lon="-1.6575580">
        <ele>449.1</ele>
        <time>2020-03-28T17:56:01Z</time>
      </trkpt>
      <trkpt lat="42.8065470" lon="-1.6577120">
        <ele>448.7</ele>
        <time>2020-03-28T17:56:03Z</time>
      </trkpt>
      <trkpt lat="42.8064030" lon="-1.6580280">
        <ele>447.7</ele>
        <time>2020-03-28T17:56:05Z</time>
      </trkpt>
      <trkpt lat="42.8063530" lon="-1.6582600">
        <ele>447.3</ele>
        <time>2020-03-28T17:56:07Z</time>
      </trkpt>
      <trkpt lat="42.8061910" lon="-1.6583140">
        <ele>446.9</ele>
        <time>2020-03-28T17:56:09Z</time>
      </trkpt>
      <trkpt lat="42.8060840" lon="-1.6584650">
        <ele>446.5</ele>
        <time>2020-03-28T17:56:11Z</time>
      </trkpt>
      <trkpt lat="42.8059890" lon="-1.6585970">
        <ele>446.0</ele>
        <time>2020-03-28T17:56:13Z</time>
      </trkpt>
      <trkpt lat="42.8058950" lon="-1.6587300">
        <ele>445.8</ele>
        <time>2020-03-28T17:56:15Z</time>
      </trkpt>
      <trkpt lat="42.8056740" lon="-1.6590330">
        <ele>445.2</ele>
        <time>2020-03-28T17:56:17Z</time>
      </trkpt>
      <trkpt lat="42.8055750" lon="-1.6591630">
        <ele>444.9</ele>
        <time>2020-03-28T17:56:19Z</time>
      </trkpt>
      <trkpt lat="42.8054740" lon="-1.6592940">
        <ele>444.6</ele>
        <time>2020-03-28T17:56:21Z</time>
      </trkpt>
      <trkpt lat="42.8052710" lon="-1.6595570">
        <ele>443.5</ele>
        <time>2020-03-28T17:56:23Z</time>
      </trkpt>
      <trkpt lat="42.8051110" lon="-1.6597660">
        <ele>441.6</ele>
        <time>2020-03-28T17:56:25Z</time>
      </trkpt>
      <trkpt lat="42.8049250" lon="-1.6600080">
        <ele>438.7</ele>
        <time>2020-03-28T17:56:27Z</time>
      </trkpt>
      <trkpt lat="42.8047430" lon="-1.6602150">
        <ele>435.8</ele>
        <time>2020-03-28T17:56:29Z</time>
      </trkpt>
      <trkpt lat="42.8045560" lon="-1.6604370">
        <ele>433.0</ele>
        <time>2020-03-28T17:56:31Z</time>
      </trkpt>
      <trkpt lat="42.8043700" lon="-1.6605430">
        <ele>432.2</ele>
        <time>2020-03-28T17:56:33Z</time>
      </trkpt>
      <trkpt lat="42.8042060" lon="-1.6606760">
        <ele>431.8</ele>
        <time>2020-03-28T17:56:35Z</time>
      </trkpt>
      <trkpt lat="42.8038760" lon="-1.6609440">
        <ele>431.2</ele>
        <time>2020-03-28T17:56:37Z</time>
      </trkpt>
      <trkpt lat="42.8037060" lon="-1.6610870">
        <ele>430.7</ele>
        <time>2020-03-28T17:56:39Z</time>
      </trkpt>
      <trkpt lat="42.8035580" lon="-1.6612140">
        <ele>430.6</ele>
        <time>2020-03-28T17:56:41Z</time>
      </trkpt>
      <trkpt lat="42.8034090" lon="-1.6613420">
        <ele>430.3</ele>
        <time>2020-03-28T17:56:43Z</time>
      </trkpt>
      <trkpt lat="42.8031170" lon="-1.6616030">
        <ele>428.1</ele>
        <time>2020-03-28T17:56:45Z</time>
      </trkpt>
      <trkpt lat="42.8029740" lon="-1.6617400">
        <ele>427.0</ele>
        <time>2020-03-28T17:56:47Z</time>
      </trkpt>
      <trkpt lat="42.8027240" lon="-1.6619880">
        <ele>424.5</ele>
        <time>2020-03-28T17:56:49Z</time>
      </trkpt>
      <trkpt lat="42.8024870" lon="-1.6622400">
        <ele>422.1</ele>
        <time>2020-03-28T17:56:51Z</time>
      </trkpt>
      <trkpt lat="42.8023130" lon="-1.6624720">
        <ele>419.8</ele>
        <time>2020-03-28T17:56:53Z</time>
      </trkpt>
      <trkpt lat="42.8021100" lon="-1.6627580">
        <ele>418.1</ele>
        <time>2020-03-28T17:56:55Z</time>
      </trkpt>
      <trkpt lat="42.8019770" lon="-1.6629540">
        <ele>418.1</ele>
        <time>2020-03-28T17:56:57Z</time>
      </trkpt>
      <trkpt lat="42.8018550" lon="-1.6631350">
        <ele>418.0</ele>
        <time>2020-03-28T17:56:59Z</time>
      </trkpt>
      <trkpt lat="42.8016640" lon="-1.6635450">
        <ele>417.2</ele>
        <time>2020-03-28T17:57:01Z</time>
      </trkpt>
      <trkpt lat="42.8014930" lon="-1.6635090">
        <ele>416.9</ele>
        <time>2020-03-28T17:57:03Z</time>
      </trkpt>
      <trkpt lat="42.8013190" lon="-1.6635830">
        <ele>416.5</ele>
        <time>2020-03-28T17:57:05Z</time>
      </trkpt>
      <trkpt lat="42.8011370" lon="-1.6637340">
        <ele>416.1</ele>
        <time>2020-03-28T17:57:07Z</time>
      </trkpt>
      <trkpt lat="42.8010810" lon="-1.6639370">
        <ele>416.0</ele>
        <time>2020-03-28T17:57:09Z</time>
      </trkpt>
      <trkpt lat="42.8010410" lon="-1.6641180">
        <ele>415.7</ele>
        <time>2020-03-28T17:57:11Z</time>
      </trkpt>
      <trkpt lat="42.8010010" lon="-1.6642990">
        <ele>415.5</ele>
        <time>2020-03-28T17:57:13Z</time>
      </trkpt>
      <trkpt lat="42.8009600" lon="-1.6644830">
        <ele>415.4</ele>
        <time>2020-03-28T17:57:15Z</time>
      </trkpt>
      <trkpt lat="42.8008390" lon="-1.6649720">
        <ele>414.7</ele>
        <time>2020-03-28T17:57:17Z</time>
      </trkpt>
      <trkpt lat="42.8007830" lon="-1.6652100">
        <ele>414.3</ele>
        <time>2020-03-28T17:57:19Z</time>
      </trkpt>
      <trkpt lat="42.8006490" lon="-1.6653390">
        <ele>414.2</ele>
        <time>2020-03-28T17:57:21Z</time>
      </trkpt>
      <trkpt lat="42.8005040" lon="-1.6653430">
        <ele>414.0</ele>
        <time>2020-03-28T17:57:23Z</time>
      </trkpt>
      <trkpt lat="42.8003270" lon="-1.6654590">
        <ele>413.7</ele>
        <time>2020-03-28T17:57:25Z</time>
      </trkpt>
      <trkpt lat="42.8001390" lon="-1.6655610">
        <ele>413.4</ele>
        <time>2020-03-28T17:57:27Z</time>
      </trkpt>
      <trkpt lat="42.8000060" lon="-1.6656320">
        <ele>413.3</ele>
        <time>2020-03-28T17:57:29Z</time>
      </trkpt>
      <trkpt lat="42.7998700" lon="-1.6657050">
        <ele>413.1</ele>
        <time>2020-03-28T17:57:31Z</time>
      </trkpt>
      <trkpt lat="42.7996010" lon="-1.6658520">
        <ele>412.9</ele>
        <time>2020-03-28T17:57:33Z</time>
      </trkpt>
      <trkpt lat="42.7994640" lon="-1.6659300">
        <ele>412.6</ele>
        <time>2020-03-28T17:57:35Z</time>
      </trkpt>
      <trkpt lat="42.7992120" lon="-1.6660730">
        <ele>412.1</ele>
        <time>2020-03-28T17:57:37Z</time>
      </trkpt>
      <trkpt lat="42.7990710" lon="-1.6661530">
        <ele>412.0</ele>
        <time>2020-03-28T17:57:39Z</time>
      </trkpt>
      <trkpt lat="42.7988220" lon="-1.6662920">
        <ele>411.6</ele>
        <time>2020-03-28T17:57:41Z</time>
      </trkpt>
      <trkpt lat="42.7986840" lon="-1.6663700">
        <ele>411.4</ele>
        <time>2020-03-28T17:57:43Z</time>
      </trkpt>
      <trkpt lat="42.7985530" lon="-1.6664440">
        <ele>411.3</ele>
        <time>2020-03-28T17:57:45Z</time>
      </trkpt>
      <trkpt lat="42.7984230" lon="-1.6665170">
        <ele>411.3</ele>
        <time>2020-03-28T17:57:47Z</time>
      </trkpt>
      <trkpt lat="42.7981020" lon="-1.6667020">
        <ele>411.4</ele>
        <time>2020-03-28T17:57:49Z</time>
      </trkpt>
      <trkpt lat="42.7979430" lon="-1.6668110">
        <ele>411.4</ele>
        <time>2020-03-28T17:57:51Z</time>
      </trkpt>
      <trkpt lat="42.7977640" lon="-1.6669710">
        <ele>411.5</ele>
        <time>2020-03-28T17:57:53Z</time>
      </trkpt>
      <trkpt lat="42.7976530" lon="-1.6670830">
        <ele>411.5</ele>
        <time>2020-03-28T17:57:55Z</time>
      </trkpt>
      <trkpt lat="42.7974760" lon="-1.6672880">
        <ele>411.9</ele>
        <time>2020-03-28T17:57:57Z</time>
      </trkpt>
      <trkpt lat="42.7973650" lon="-1.6674310">
        <ele>412.0</ele>
        <time>2020-03-28T17:57:59Z</time>
      </trkpt>
      <trkpt lat="42.7972840" lon="-1.6675370">
        <ele>412.1</ele>
        <time>2020-03-28T17:58:01Z</time>
      </trkpt>
      <trkpt lat="42.7972090" lon="-1.6676350">
        <ele>412.3</ele>
        <time>2020-03-28T17:58:03Z</time>
      </trkpt>
      <trkpt lat="42.7970650" lon="-1.6678240">
        <ele>412.4</ele>
        <time>2020-03-28T17:58:05Z</time>
      </trkpt>
      <trkpt lat="42.7970010" lon="-1.6679080">
        <ele>412.4</ele>
        <time>2020-03-28T17:58:07Z</time>
      </trkpt>
      <trkpt lat="42.7968830" lon="-1.6680650">
        <ele>412.2</ele>
        <time>2020-03-28T17:58:09Z</time>
      </trkpt>
      <trkpt lat="42.7968290" lon="-1.6681350">
        <ele>412.6</ele>
        <time>2020-03-28T17:58:11Z</time>
      </trkpt>
      <trkpt lat="42.7967770" lon="-1.6682020">
        <ele>413.0</ele>
        <time>2020-03-28T17:58:13Z</time>
      </trkpt>
      <trkpt lat="42.7967290" lon="-1.6682630">
        <ele>413.4</ele>
        <time>2020-03-28T17:58:15Z</time>
      </trkpt>
      <trkpt lat="42.7966160" lon="-1.6684110">
        <ele>414.2</ele>
        <time>2020-03-28T17:58:17Z</time>
      </trkpt>
      <trkpt lat="42.7965620" lon="-1.6684810">
        <ele>414.6</ele>
        <time>2020-03-28T17:58:19Z</time>
      </trkpt>
      <trkpt lat="42.7965090" lon="-1.6685490">
        <ele>414.9</ele>
        <time>2020-03-28T17:58:21Z</time>
      </trkpt>
      <trkpt lat="42.7964570" lon="-1.6686170">
        <ele>415.2</ele>
        <time>2020-03-28T17:58:23Z</time>
      </trkpt>
      <trkpt lat="42.7964050" lon="-1.6686840">
        <ele>415.4</ele>
        <time>2020-03-28T17:58:25Z</time>
      </trkpt>
      <trkpt lat="42.7963530" lon="-1.6687510">
        <ele>415.6</ele>
        <time>2020-03-28T17:58:27Z</time>
      </trkpt>
      <trkpt lat="42.7961780" lon="-1.6689780">
        <ele>416.0</ele>
        <time>2020-03-28T17:58:29Z</time>
      </trkpt>
      <trkpt lat="42.7961260" lon="-1.6690510">
        <ele>416.1</ele>
        <time>2020-03-28T17:58:31Z</time>
      </trkpt>
      <trkpt lat="42.7960680" lon="-1.6691310">
        <ele>416.1</ele>
        <time>2020-03-28T17:58:33Z</time>
      </trkpt>
      <trkpt lat="42.7959570" lon="-1.6692910">
        <ele>416.2</ele>
        <time>2020-03-28T17:58:35Z</time>
      </trkpt>
      <trkpt lat="42.7958950" lon="-1.6693890">
        <ele>416.1</ele>
        <time>2020-03-28T17:58:37Z</time>
      </trkpt>
      <trkpt lat="42.7957820" lon="-1.6695770">
        <ele>416.0</ele>
        <time>2020-03-28T17:58:39Z</time>
      </trkpt>
      <trkpt lat="42.7957030" lon="-1.6697440">
        <ele>415.7</ele>
        <time>2020-03-28T17:58:41Z</time>
      </trkpt>
      <trkpt lat="42.7956520" lon="-1.6698730">
        <ele>415.4</ele>
        <time>2020-03-28T17:58:43Z</time>
      </trkpt>
      <trkpt lat="42.7955800" lon="-1.6700820">
        <ele>414.8</ele>
        <time>2020-03-28T17:58:45Z</time>
      </trkpt>
      <trkpt lat="42.7955200" lon="-1.6702930">
        <ele>414.6</ele>
        <time>2020-03-28T17:58:47Z</time>
      </trkpt>
      <trkpt lat="42.7954810" lon="-1.6704400">
        <ele>414.8</ele>
        <time>2020-03-28T17:58:49Z</time>
      </trkpt>
      <trkpt lat="42.7954120" lon="-1.6706920">
        <ele>414.9</ele>
        <time>2020-03-28T17:58:51Z</time>
      </trkpt>
      <trkpt lat="42.7953670" lon="-1.6708400">
        <ele>414.8</ele>
        <time>2020-03-28T17:58:53Z</time>
      </trkpt>
      <trkpt lat="42.7952860" lon="-1.6710750">
        <ele>414.2</ele>
        <time>2020-03-28T17:58:55Z</time>
      </trkpt>
      <trkpt lat="42.7952020" lon="-1.6712680">
        <ele>414.1</ele>
        <time>2020-03-28T17:58:57Z</time>
      </trkpt>
      <trkpt lat="42.7951090" lon="-1.6714410">
        <ele>414.1</ele>
        <time>2020-03-28T17:58:59Z</time>
      </trkpt>
      <trkpt lat="42.7950000" lon="-1.6716150">
        <ele>414.3</ele>
        <time>2020-03-28T17:59:01Z</time>
      </trkpt>
      <trkpt lat="42.7948870" lon="-1.6717700">
        <ele>414.6</ele>
        <time>2020-03-28T17:59:03Z</time>
      </trkpt>
      <trkpt lat="42.7948060" lon="-1.6718650">
        <ele>414.9</ele>
        <time>2020-03-28T17:59:05Z</time>
      </trkpt>
      <trkpt lat="42.7947270" lon="-1.6719570">
        <ele>415.1</ele>
        <time>2020-03-28T17:59:07Z</time>
      </trkpt>
      <trkpt lat="42.7946510" lon="-1.6720460">
        <ele>415.2</ele>
        <time>2020-03-28T17:59:09Z</time>
      </trkpt>
      <trkpt lat="42.7945760" lon="-1.6721340">
        <ele>415.4</ele>
        <time>2020-03-28T17:59:11Z</time>
      </trkpt>
      <trkpt lat="42.7943710" lon="-1.6723710">
        <ele>416.0</ele>
        <time>2020-03-28T17:59:13Z</time>
      </trkpt>
      <trkpt lat="42.7942690" lon="-1.6724800">
        <ele>416.1</ele>
        <time>2020-03-28T17:59:15Z</time>
      </trkpt>
      <trkpt lat="42.7942000" lon="-1.6725550">
        <ele>416.8</ele>
        <time>2020-03-28T17:59:17Z</time>
      </trkpt>
      <trkpt lat="42.7941400" lon="-1.6726230">
        <ele>417.4</ele>
        <time>2020-03-28T17:59:19Z</time>
      </trkpt>
      <trkpt lat="42.7940820" lon="-1.6726860">
        <ele>418.0</ele>
        <time>2020-03-28T17:59:21Z</time>
      </trkpt>
      <trkpt lat="42.7939480" lon="-1.6728310">
        <ele>419.1</ele>
        <time>2020-03-28T17:59:23Z</time>
      </trkpt>
      <trkpt lat="42.7938690" lon="-1.6729090">
        <ele>419.4</ele>
        <time>2020-03-28T17:59:25Z</time>
      </trkpt>
      <trkpt lat="42.7938120" lon="-1.6729540">
        <ele>419.6</ele>
        <time>2020-03-28T17:59:27Z</time>
      </trkpt>
      <trkpt lat="42.7937230" lon="-1.6730260">
        <ele>419.9</ele>
        <time>2020-03-28T17:59:29Z</time>
      </trkpt>
      <trkpt lat="42.7936280" lon="-1.6731040">
        <ele>420.6</ele>
        <time>2020-03-28T17:59:31Z</time>
      </trkpt>
      <trkpt lat="42.7935660" lon="-1.6731430">
        <ele>421.0</ele>
        <time>2020-03-28T17:59:33Z</time>
      </trkpt>
      <trkpt lat="42.7934710" lon="-1.6732030">
        <ele>421.8</ele>
        <time>2020-03-28T17:59:35Z</time>
      </trkpt>
      <trkpt lat="42.7934140" lon="-1.6732360">
        <ele>422.2</ele>
        <time>2020-03-28T17:59:37Z</time>
      </trkpt>
      <trkpt lat="42.7933130" lon="-1.6732920">
        <ele>422.9</ele>
        <time>2020-03-28T17:59:39Z</time>
      </trkpt>
      <trkpt lat="42.7932530" lon="-1.6733180">
        <ele>423.3</ele>
        <time>2020-03-28T17:59:41Z</time>
      </trkpt>
      <trkpt lat="42.7931990" lon="-1.6733410">
        <ele>423.6</ele>
        <time>2020-03-28T17:59:43Z</time>
      </trkpt>
      <trkpt lat="42.7931460" lon="-1.6733640">
        <ele>424.0</ele>
        <time>2020-03-28T17:59:45Z</time>
      </trkpt>
      <trkpt lat="42.7930300" lon="-1.6734140">
        <ele>425.0</ele>
        <time>2020-03-28T17:59:47Z</time>
      </trkpt>
      <trkpt lat="42.7929800" lon="-1.6734370">
        <ele>425.3</ele>
        <time>2020-03-28T17:59:49Z</time>
      </trkpt>
      <trkpt lat="42.7929300" lon="-1.6734590">
        <ele>425.6</ele>
        <time>2020-03-28T17:59:51Z</time>
      </trkpt>
      <trkpt lat="42.7928810" lon="-1.6734810">
        <ele>425.9</ele>
        <time>2020-03-28T17:59:53Z</time>
      </trkpt>
      <trkpt lat="42.7928320" lon="-1.6735030">
        <ele>426.2</ele>
        <time>2020-03-28T17:59:55Z</time>
      </trkpt>
      <trkpt lat="42.7926930" lon="-1.6735650">
        <ele>427.3</ele>
        <time>2020-03-28T17:59:57Z</time>
      </trkpt>
      <trkpt lat="42.7926400" lon="-1.6735890">
        <ele>427.6</ele>
        <time>2020-03-28T17:59:59Z</time>
      </trkpt>
      <trkpt lat="42.7925860" lon="-1.6736130">
        <ele>427.8</ele>
        <time>2020-03-28T18:00:01Z</time>
      </trkpt>
      <trkpt lat="42.7925340" lon="-1.6736370">
        <ele>428.1</ele>
        <time>2020-03-28T18:00:03Z</time>
      </trkpt>
      <trkpt lat="42.7924840" lon="-1.6736600">
        <ele>428.3</ele>
        <time>2020-03-28T18:00:05Z</time>
      </trkpt>
      <trkpt lat="42.7924340" lon="-1.6736820">
        <ele>428.6</ele>
        <time>2020-03-28T18:00:07Z</time>
      </trkpt>
      <trkpt lat="42.7923860" lon="-1.6737040">
        <ele>428.8</ele>
        <time>2020-03-28T18:00:09Z</time>
      </trkpt>
      <trkpt lat="42.7923380" lon="-1.6737250">
        <ele>429.1</ele>
        <time>2020-03-28T18:00:11Z</time>
      </trkpt>
      <trkpt lat="42.7921350" lon="-1.6738180">
        <ele>430.3</ele>
        <time>2020-03-28T18:00:13Z</time>
      </trkpt>
      <trkpt lat="42.7920900" lon="-1.6738480">
        <ele>430.5</ele>
        <time>2020-03-28T18:00:15Z</time>
      </trkpt>
      <trkpt lat="42.7920450" lon="-1.6738780">
        <ele>430.7</ele>
        <time>2020-03-28T18:00:17Z</time>
      </trkpt>
      <trkpt lat="42.7920000" lon="-1.6739080">
        <ele>430.9</ele>
        <time>2020-03-28T18:00:19Z</time>
      </trkpt>
      <trkpt lat="42.7919560" lon="-1.6739370">
        <ele>431.3</ele>
        <time>2020-03-28T18:00:21Z</time>
      </trkpt>
      <trkpt lat="42.7919110" lon="-1.6739670">
        <ele>431.6</ele>
        <time>2020-03-28T18:00:23Z</time>
      </trkpt>
      <trkpt lat="42.7918670" lon="-1.6739960">
        <ele>431.9</ele>
        <time>2020-03-28T18:00:25Z</time>
      </trkpt>
      <trkpt lat="42.7917200" lon="-1.6740970">
        <ele>432.9</ele>
        <time>2020-03-28T18:00:27Z</time>
      </trkpt>
      <trkpt lat="42.7916750" lon="-1.6741300">
        <ele>433.2</ele>
        <time>2020-03-28T18:00:29Z</time>
      </trkpt>
      <trkpt lat="42.7916310" lon="-1.6741640">
        <ele>433.4</ele>
        <time>2020-03-28T18:00:31Z</time>
      </trkpt>
      <trkpt lat="42.7915870" lon="-1.6741970">
        <ele>433.7</ele>
        <time>2020-03-28T18:00:33Z</time>
      </trkpt>
      <trkpt lat="42.7915430" lon="-1.6742290">
        <ele>433.9</ele>
        <time>2020-03-28T18:00:35Z</time>
      </trkpt>
      <trkpt lat="42.7914460" lon="-1.6743410">
        <ele>434.5</ele>
        <time>2020-03-28T18:00:37Z</time>
      </trkpt>
      <trkpt lat="42.7914100" lon="-1.6743910">
        <ele>434.4</ele>
        <time>2020-03-28T18:00:39Z</time>
      </trkpt>
      <trkpt lat="42.7913530" lon="-1.6744290">
        <ele>434.9</ele>
        <time>2020-03-28T18:00:41Z</time>
      </trkpt>
      <trkpt lat="42.7913100" lon="-1.6744580">
        <ele>435.1</ele>
        <time>2020-03-28T18:00:43Z</time>
      </trkpt>
      <trkpt lat="42.7912660" lon="-1.6744880">
        <ele>435.2</ele>
        <time>2020-03-28T18:00:45Z</time>
      </trkpt>
      <trkpt lat="42.7912210" lon="-1.6745170">
        <ele>435.4</ele>
        <time>2020-03-28T18:00:47Z</time>
      </trkpt>
      <trkpt lat="42.7911040" lon="-1.6745910">
        <ele>436.0</ele>
        <time>2020-03-28T18:00:49Z</time>
      </trkpt>
      <trkpt lat="42.7910580" lon="-1.6746160">
        <ele>436.3</ele>
        <time>2020-03-28T18:00:51Z</time>
      </trkpt>
      <trkpt lat="42.7910120" lon="-1.6746420">
        <ele>436.6</ele>
        <time>2020-03-28T18:00:53Z</time>
      </trkpt>
      <trkpt lat="42.7909610" lon="-1.6746700">
        <ele>437.0</ele>
        <time>2020-03-28T18:00:55Z</time>
      </trkpt>
      <trkpt lat="42.7909090" lon="-1.6746990">
        <ele>437.4</ele>
        <time>2020-03-28T18:00:57Z</time>
      </trkpt>
      <trkpt lat="42.7907780" lon="-1.6747680">
        <ele>438.6</ele>
        <time>2020-03-28T18:00:59Z</time>
      </trkpt>
      <trkpt lat="42.7906880" lon="-1.6748090">
        <ele>439.3</ele>
        <time>2020-03-28T18:01:01Z</time>
      </trkpt>
      <trkpt lat="42.7906390" lon="-1.6748290">
        <ele>439.9</ele>
        <time>2020-03-28T18:01:03Z</time>
      </trkpt>
      <trkpt lat="42.7905960" lon="-1.6748460">
        <ele>440.3</ele>
        <time>2020-03-28T18:01:05Z</time>
      </trkpt>
      <trkpt lat="42.7905560" lon="-1.6748620">
        <ele>440.7</ele>
        <time>2020-03-28T18:01:07Z</time>
      </trkpt>
      <trkpt lat="42.7905180" lon="-1.6748770">
        <ele>441.1</ele>
        <time>2020-03-28T18:01:09Z</time>
      </trkpt>
      <trkpt lat="42.7904840" lon="-1.6748900">
        <ele>441.5</ele>
        <time>2020-03-28T18:01:11Z</time>
      </trkpt>
      <trkpt lat="42.7904500" lon="-1.6749040">
        <ele>441.9</ele>
        <time>2020-03-28T18:01:13Z</time>
      </trkpt>
      <trkpt lat="42.7904140" lon="-1.6749180">
        <ele>442.3</ele>
        <time>2020-03-28T18:01:15Z</time>
      </trkpt>
      <trkpt lat="42.7902700" lon="-1.6749720">
        <ele>443.8</ele>
        <time>2020-03-28T18:01:17Z</time>
      </trkpt>
      <trkpt lat="42.7902330" lon="-1.6749810">
        <ele>444.3</ele>
        <time>2020-03-28T18:01:19Z</time>
      </trkpt>
      <trkpt lat="42.7901960" lon="-1.6749900">
        <ele>444.8</ele>
        <time>2020-03-28T18:01:21Z</time>
      </trkpt>
      <trkpt lat="42.7901590" lon="-1.6750000">
        <ele>445.3</ele>
        <time>2020-03-28T18:01:23Z</time>
      </trkpt>
      <trkpt lat="42.7901210" lon="-1.6750090">
        <ele>445.8</ele>
        <time>2020-03-28T18:01:25Z</time>
      </trkpt>
      <trkpt lat="42.7900260" lon="-1.6750330">
        <ele>447.0</ele>
        <time>2020-03-28T18:01:27Z</time>
      </trkpt>
      <trkpt lat="42.7899880" lon="-1.6750420">
        <ele>447.6</ele>
        <time>2020-03-28T18:01:29Z</time>
      </trkpt>
      <trkpt lat="42.7899500" lon="-1.6750520">
        <ele>448.1</ele>
        <time>2020-03-28T18:01:31Z</time>
      </trkpt>
      <trkpt lat="42.7899130" lon="-1.6750610">
        <ele>448.6</ele>
        <time>2020-03-28T18:01:33Z</time>
      </trkpt>
      <trkpt lat="42.7898750" lon="-1.6750700">
        <ele>449.1</ele>
        <time>2020-03-28T18:01:35Z</time>
      </trkpt>
      <trkpt lat="42.7897660" lon="-1.6750910">
        <ele>450.6</ele>
        <time>2020-03-28T18:01:37Z</time>
      </trkpt>
      <trkpt lat="42.7897300" lon="-1.6750960">
        <ele>451.0</ele>
        <time>2020-03-28T18:01:39Z</time>
      </trkpt>
      <trkpt lat="42.7896940" lon="-1.6751000">
        <ele>451.4</ele>
        <time>2020-03-28T18:01:41Z</time>
      </trkpt>
      <trkpt lat="42.7896580" lon="-1.6751040">
        <ele>451.8</ele>
        <time>2020-03-28T18:01:43Z</time>
      </trkpt>
      <trkpt lat="42.7896210" lon="-1.6751080">
        <ele>452.3</ele>
        <time>2020-03-28T18:01:45Z</time>
      </trkpt>
      <trkpt lat="42.7895850" lon="-1.6751120">
        <ele>452.8</ele>
        <time>2020-03-28T18:01:47Z</time>
      </trkpt>
      <trkpt lat="42.7895480" lon="-1.6751160">
        <ele>453.2</ele>
        <time>2020-03-28T18:01:49Z</time>
      </trkpt>
      <trkpt lat="42.7895110" lon="-1.6751200">
        <ele>453.7</ele>
        <time>2020-03-28T18:01:51Z</time>
      </trkpt>
      <trkpt lat="42.7894740" lon="-1.6751250">
        <ele>454.2</ele>
        <time>2020-03-28T18:01:53Z</time>
      </trkpt>
      <trkpt lat="42.7893120" lon="-1.6751430">
        <ele>456.1</ele>
        <time>2020-03-28T18:01:55Z</time>
      </trkpt>
      <trkpt lat="42.7892750" lon="-1.6751440">
        <ele>456.6</ele>
        <time>2020-03-28T18:01:57Z</time>
      </trkpt>
      <trkpt lat="42.7892380" lon="-1.6751450">
        <ele>457.0</ele>
        <time>2020-03-28T18:01:59Z</time>
      </trkpt>
      <trkpt lat="42.7892010" lon="-1.6751460">
        <ele>457.4</ele>
        <time>2020-03-28T18:02:01Z</time>
      </trkpt>
      <trkpt lat="42.7891640" lon="-1.6751480">
        <ele>458.0</ele>
        <time>2020-03-28T18:02:03Z</time>
      </trkpt>
      <trkpt lat="42.7891280" lon="-1.6751490">
        <ele>458.5</ele>
        <time>2020-03-28T18:02:05Z</time>
      </trkpt>
      <trkpt lat="42.7890910" lon="-1.6751500">
        <ele>459.2</ele>
        <time>2020-03-28T18:02:07Z</time>
      </trkpt>
      <trkpt lat="42.7890550" lon="-1.6751510">
        <ele>459.8</ele>
        <time>2020-03-28T18:02:09Z</time>
      </trkpt>
      <trkpt lat="42.7890190" lon="-1.6751520">
        <ele>460.4</ele>
        <time>2020-03-28T18:02:11Z</time>
      </trkpt>
      <trkpt lat="42.7889830" lon="-1.6751530">
        <ele>461.0</ele>
        <time>2020-03-28T18:02:13Z</time>
      </trkpt>
      <trkpt lat="42.7888890" lon="-1.6751520">
        <ele>462.2</ele>
        <time>2020-03-28T18:02:15Z</time>
      </trkpt>
      <trkpt lat="42.7888290" lon="-1.6751480">
        <ele>462.9</ele>
        <time>2020-03-28T18:02:17Z</time>
      </trkpt>
      <trkpt lat="42.7887700" lon="-1.6751450">
        <ele>463.8</ele>
        <time>2020-03-28T18:02:19Z</time>
      </trkpt>
      <trkpt lat="42.7887100" lon="-1.6751410">
        <ele>464.6</ele>
        <time>2020-03-28T18:02:21Z</time>
      </trkpt>
      <trkpt lat="42.7886510" lon="-1.6751380">
        <ele>465.4</ele>
        <time>2020-03-28T18:02:23Z</time>
      </trkpt>
      <trkpt lat="42.7886180" lon="-1.6751040">
        <ele>465.9</ele>
        <time>2020-03-28T18:02:25Z</time>
      </trkpt>
      <trkpt lat="42.7885610" lon="-1.6751220">
        <ele>465.4</ele>
        <time>2020-03-28T18:02:27Z</time>
      </trkpt>
      <trkpt lat="42.7884580" lon="-1.6751540">
        <ele>465.3</ele>
        <time>2020-03-28T18:02:29Z</time>
      </trkpt>
      <trkpt lat="42.7883800" lon="-1.6751800">
        <ele>465.1</ele>
        <time>2020-03-28T18:02:31Z</time>
      </trkpt>
      <trkpt lat="42.7883520" lon="-1.6752420">
        <ele>465.2</ele>
        <time>2020-03-28T18:02:33Z</time>
      </trkpt>
      <trkpt lat="42.7882920" lon="-1.6752810">
        <ele>465.4</ele>
        <time>2020-03-28T18:02:35Z</time>
      </trkpt>
      <trkpt lat="42.7882520" lon="-1.6753420">
        <ele>465.5</ele>
        <time>2020-03-28T18:02:37Z</time>
      </trkpt>
      <trkpt lat="42.7882220" lon="-1.6754200">
        <ele>465.7</ele>
        <time>2020-03-28T18:02:39Z</time>
      </trkpt>
      <trkpt lat="42.7881810" lon="-1.6754900">
        <ele>465.9</ele>
        <time>2020-03-28T18:02:41Z</time>
      </trkpt>
      <trkpt lat="42.7881470" lon="-1.6755410">
        <ele>466.1</ele>
        <time>2020-03-28T18:02:43Z</time>
      </trkpt>
      <trkpt lat="42.7881130" lon="-1.6755910">
        <ele>466.3</ele>
        <time>2020-03-28T18:02:45Z</time>
      </trkpt>
      <trkpt lat="42.7880800" lon="-1.6756410">
        <ele>466.4</ele>
        <time>2020-03-28T18:02:47Z</time>
      </trkpt>
      <trkpt lat="42.7880020" lon="-1.6757620">
        <ele>466.5</ele>
        <time>2020-03-28T18:02:49Z</time>
      </trkpt>
      <trkpt lat="42.7879730" lon="-1.6758120">
        <ele>466.5</ele>
        <time>2020-03-28T18:02:51Z</time>
      </trkpt>
      <trkpt lat="42.7879420" lon="-1.6758630">
        <ele>466.6</ele>
        <time>2020-03-28T18:02:53Z</time>
      </trkpt>
      <trkpt lat="42.7878730" lon="-1.6759850">
        <ele>466.6</ele>
        <time>2020-03-28T18:02:55Z</time>
      </trkpt>
      <trkpt lat="42.7878640" lon="-1.6760660">
        <ele>466.7</ele>
        <time>2020-03-28T18:02:57Z</time>
      </trkpt>
      <trkpt lat="42.7878990" lon="-1.6761350">
        <ele>466.9</ele>
        <time>2020-03-28T18:02:59Z</time>
      </trkpt>
      <trkpt lat="42.7879360" lon="-1.6761870">
        <ele>467.0</ele>
        <time>2020-03-28T18:03:01Z</time>
      </trkpt>
      <trkpt lat="42.7880080" lon="-1.6762200">
        <ele>467.9</ele>
        <time>2020-03-28T18:03:03Z</time>
      </trkpt>
      <trkpt lat="42.7880520" lon="-1.6762460">
        <ele>468.3</ele>
        <time>2020-03-28T18:03:05Z</time>
      </trkpt>
      <trkpt lat="42.7880970" lon="-1.6762730">
        <ele>468.6</ele>
        <time>2020-03-28T18:03:07Z</time>
      </trkpt>
      <trkpt lat="42.7881760" lon="-1.6763200">
        <ele>469.0</ele>
        <time>2020-03-28T18:03:09Z</time>
      </trkpt>
      <trkpt lat="42.7882210" lon="-1.6763470">
        <ele>469.2</ele>
        <time>2020-03-28T18:03:11Z</time>
      </trkpt>
      <trkpt lat="42.7882660" lon="-1.6763740">
        <ele>469.4</ele>
        <time>2020-03-28T18:03:13Z</time>
      </trkpt>
      <trkpt lat="42.7883110" lon="-1.6764010">
        <ele>469.6</ele>
        <time>2020-03-28T18:03:15Z</time>
      </trkpt>
      <trkpt lat="42.7883560" lon="-1.6764280">
        <ele>469.8</ele>
        <time>2020-03-28T18:03:17Z</time>
      </trkpt>
      <trkpt lat="42.7884830" lon="-1.6765180">
        <ele>470.7</ele>
        <time>2020-03-28T18:03:19Z</time>
      </trkpt>
      <trkpt lat="42.7885340" lon="-1.6765670">
        <ele>471.2</ele>
        <time>2020-03-28T18:03:21Z</time>
      </trkpt>
      <trkpt lat="42.7886200" lon="-1.6766680">
        <ele>471.9</ele>
        <time>2020-03-28T18:03:23Z</time>
      </trkpt>
      <trkpt lat="42.7886570" lon="-1.6767380">
        <ele>472.1</ele>
        <time>2020-03-28T18:03:25Z</time>
      </trkpt>
      <trkpt lat="42.7886950" lon="-1.6768090">
        <ele>472.4</ele>
        <time>2020-03-28T18:03:27Z</time>
      </trkpt>
      <trkpt lat="42.7887640" lon="-1.6769590">
        <ele>472.8</ele>
        <time>2020-03-28T18:03:29Z</time>
      </trkpt>
      <trkpt lat="42.7888130" lon="-1.6770920">
        <ele>473.1</ele>
        <time>2020-03-28T18:03:31Z</time>
      </trkpt>
      <trkpt lat="42.7888460" lon="-1.6771800">
        <ele>473.3</ele>
        <time>2020-03-28T18:03:33Z</time>
      </trkpt>
      <trkpt lat="42.7888970" lon="-1.6773140">
        <ele>473.5</ele>
        <time>2020-03-28T18:03:35Z</time>
      </trkpt>
      <trkpt lat="42.7889320" lon="-1.6774050">
        <ele>473.6</ele>
        <time>2020-03-28T18:03:37Z</time>
      </trkpt>
      <trkpt lat="42.7889990" lon="-1.6775790">
        <ele>473.8</ele>
        <time>2020-03-28T18:03:39Z</time>
      </trkpt>
      <trkpt lat="42.7890530" lon="-1.6777220">
        <ele>473.7</ele>
        <time>2020-03-28T18:03:41Z</time>
      </trkpt>
      <trkpt lat="42.7891040" lon="-1.6778180">
        <ele>473.5</ele>
        <time>2020-03-28T18:03:43Z</time>
      </trkpt>
      <trkpt lat="42.7891930" lon="-1.6779590">
        <ele>473.2</ele>
        <time>2020-03-28T18:03:45Z</time>
      </trkpt>
      <trkpt lat="42.7893000" lon="-1.6780820">
        <ele>473.0</ele>
        <time>2020-03-28T18:03:47Z</time>
      </trkpt>
      <trkpt lat="42.7893900" lon="-1.6781870">
        <ele>473.0</ele>
        <time>2020-03-28T18:03:49Z</time>
      </trkpt>
      <trkpt lat="42.7894980" lon="-1.6783030">
        <ele>473.0</ele>
        <time>2020-03-28T18:03:51Z</time>
      </trkpt>
      <trkpt lat="42.7895930" lon="-1.6784190">
        <ele>472.8</ele>
        <time>2020-03-28T18:03:53Z</time>
      </trkpt>
      <trkpt lat="42.7896860" lon="-1.6785420">
        <ele>472.2</ele>
        <time>2020-03-28T18:03:55Z</time>
      </trkpt>
      <trkpt lat="42.7897950" lon="-1.6786950">
        <ele>471.5</ele>
        <time>2020-03-28T18:03:57Z</time>
      </trkpt>
      <trkpt lat="42.7898710" lon="-1.6788130">
        <ele>471.1</ele>
        <time>2020-03-28T18:03:59Z</time>
      </trkpt>
      <trkpt lat="42.7900050" lon="-1.6790230">
        <ele>470.3</ele>
        <time>2020-03-28T18:04:01Z</time>
      </trkpt>
      <trkpt lat="42.7901160" lon="-1.6791960">
        <ele>469.9</ele>
        <time>2020-03-28T18:04:03Z</time>
      </trkpt>
      <trkpt lat="42.7902010" lon="-1.6793290">
        <ele>469.5</ele>
        <time>2020-03-28T18:04:05Z</time>
      </trkpt>
      <trkpt lat="42.7903380" lon="-1.6795560">
        <ele>468.9</ele>
        <time>2020-03-28T18:04:07Z</time>
      </trkpt>
      <trkpt lat="42.7904140" lon="-1.6796910">
        <ele>468.6</ele>
        <time>2020-03-28T18:04:09Z</time>
      </trkpt>
      <trkpt lat="42.7905500" lon="-1.6799510">
        <ele>468.0</ele>
        <time>2020-03-28T18:04:11Z</time>
      </trkpt>
      <trkpt lat="42.7906190" lon="-1.6800960">
        <ele>467.9</ele>
        <time>2020-03-28T18:04:13Z</time>
      </trkpt>
      <trkpt lat="42.7907340" lon="-1.6803390">
        <ele>467.4</ele>
        <time>2020-03-28T18:04:15Z</time>
      </trkpt>
      <trkpt lat="42.7908190" lon="-1.6805350">
        <ele>467.2</ele>
        <time>2020-03-28T18:04:17Z</time>
      </trkpt>
      <trkpt lat="42.7908830" lon="-1.6806820">
        <ele>467.1</ele>
        <time>2020-03-28T18:04:19Z</time>
      </trkpt>
      <trkpt lat="42.7909470" lon="-1.6808310">
        <ele>466.9</ele>
        <time>2020-03-28T18:04:21Z</time>
      </trkpt>
      <trkpt lat="42.7910770" lon="-1.6811300">
        <ele>466.2</ele>
        <time>2020-03-28T18:04:23Z</time>
      </trkpt>
      <trkpt lat="42.7911770" lon="-1.6813640">
        <ele>466.1</ele>
        <time>2020-03-28T18:04:25Z</time>
      </trkpt>
      <trkpt lat="42.7912460" lon="-1.6815520">
        <ele>466.0</ele>
        <time>2020-03-28T18:04:27Z</time>
      </trkpt>
      <trkpt lat="42.7913040" lon="-1.6817690">
        <ele>465.5</ele>
        <time>2020-03-28T18:04:29Z</time>
      </trkpt>
      <trkpt lat="42.7913600" lon="-1.6819980">
        <ele>464.7</ele>
        <time>2020-03-28T18:04:31Z</time>
      </trkpt>
      <trkpt lat="42.7913950" lon="-1.6821690">
        <ele>464.0</ele>
        <time>2020-03-28T18:04:33Z</time>
      </trkpt>
      <trkpt lat="42.7914300" lon="-1.6823380">
        <ele>463.5</ele>
        <time>2020-03-28T18:04:35Z</time>
      </trkpt>
      <trkpt lat="42.7915020" lon="-1.6826810">
        <ele>462.8</ele>
        <time>2020-03-28T18:04:37Z</time>
      </trkpt>
      <trkpt lat="42.7915570" lon="-1.6829490">
        <ele>462.5</ele>
        <time>2020-03-28T18:04:39Z</time>
      </trkpt>
      <trkpt lat="42.7916040" lon="-1.6831930">
        <ele>462.6</ele>
        <time>2020-03-28T18:04:41Z</time>
      </trkpt>
      <trkpt lat="42.7916360" lon="-1.6833620">
        <ele>462.6</ele>
        <time>2020-03-28T18:04:43Z</time>
      </trkpt>
      <trkpt lat="42.7916690" lon="-1.6835300">
        <ele>462.6</ele>
        <time>2020-03-28T18:04:45Z</time>
      </trkpt>
      <trkpt lat="42.7917340" lon="-1.6838730">
        <ele>462.5</ele>
        <time>2020-03-28T18:04:47Z</time>
      </trkpt>
      <trkpt lat="42.7917630" lon="-1.6840470">
        <ele>462.2</ele>
        <time>2020-03-28T18:04:49Z</time>
      </trkpt>
      <trkpt lat="42.7917920" lon="-1.6842220">
        <ele>461.8</ele>
        <time>2020-03-28T18:04:51Z</time>
      </trkpt>
      <trkpt lat="42.7918210" lon="-1.6843960">
        <ele>461.4</ele>
        <time>2020-03-28T18:04:53Z</time>
      </trkpt>
      <trkpt lat="42.7918860" lon="-1.6847990">
        <ele>461.2</ele>
        <time>2020-03-28T18:04:55Z</time>
      </trkpt>
      <trkpt lat="42.7919130" lon="-1.6849800">
        <ele>461.2</ele>
        <time>2020-03-28T18:04:57Z</time>
      </trkpt>
      <trkpt lat="42.7919410" lon="-1.6851630">
        <ele>461.1</ele>
        <time>2020-03-28T18:04:59Z</time>
      </trkpt>
      <trkpt lat="42.7920010" lon="-1.6855610">
        <ele>460.7</ele>
        <time>2020-03-28T18:05:01Z</time>
      </trkpt>
      <trkpt lat="42.7920300" lon="-1.6857480">
        <ele>460.2</ele>
        <time>2020-03-28T18:05:03Z</time>
      </trkpt>
      <trkpt lat="42.7920760" lon="-1.6860660">
        <ele>460.0</ele>
        <time>2020-03-28T18:05:05Z</time>
      </trkpt>
      <trkpt lat="42.7921040" lon="-1.6863450">
        <ele>459.9</ele>
        <time>2020-03-28T18:05:07Z</time>
      </trkpt>
      <trkpt lat="42.7921050" lon="-1.6866070">
        <ele>459.7</ele>
        <time>2020-03-28T18:05:09Z</time>
      </trkpt>
      <trkpt lat="42.7920890" lon="-1.6868430">
        <ele>459.3</ele>
        <time>2020-03-28T18:05:11Z</time>
      </trkpt>
      <trkpt lat="42.7920590" lon="-1.6871650">
        <ele>458.8</ele>
        <time>2020-03-28T18:05:13Z</time>
      </trkpt>
      <trkpt lat="42.7920370" lon="-1.6874140">
        <ele>458.6</ele>
        <time>2020-03-28T18:05:15Z</time>
      </trkpt>
      <trkpt lat="42.7920120" lon="-1.6876720">
        <ele>458.7</ele>
        <time>2020-03-28T18:05:17Z</time>
      </trkpt>
      <trkpt lat="42.7920340" lon="-1.6879080">
        <ele>458.7</ele>
        <time>2020-03-28T18:05:19Z</time>
      </trkpt>
      <trkpt lat="42.7921190" lon="-1.6881400">
        <ele>458.5</ele>
        <time>2020-03-28T18:05:21Z</time>
      </trkpt>
      <trkpt lat="42.7921940" lon="-1.6882960">
        <ele>458.3</ele>
        <time>2020-03-28T18:05:23Z</time>
      </trkpt>
      <trkpt lat="42.7922670" lon="-1.6884490">
        <ele>458.2</ele>
        <time>2020-03-28T18:05:25Z</time>
      </trkpt>
      <trkpt lat="42.7924290" lon="-1.6888020">
        <ele>458.0</ele>
        <time>2020-03-28T18:05:27Z</time>
      </trkpt>
      <trkpt lat="42.7924410" lon="-1.6890320">
        <ele>457.9</ele>
        <time>2020-03-28T18:05:29Z</time>
      </trkpt>
      <trkpt lat="42.7924380" lon="-1.6892700">
        <ele>457.8</ele>
        <time>2020-03-28T18:05:31Z</time>
      </trkpt>
      <trkpt lat="42.7924610" lon="-1.6894370">
        <ele>457.7</ele>
        <time>2020-03-28T18:05:33Z</time>
      </trkpt>
      <trkpt lat="42.7924950" lon="-1.6896670">
        <ele>457.7</ele>
        <time>2020-03-28T18:05:35Z</time>
      </trkpt>
      <trkpt lat="42.7925190" lon="-1.6898210">
        <ele>457.7</ele>
        <time>2020-03-28T18:05:37Z</time>
      </trkpt>
      <trkpt lat="42.7925420" lon="-1.6899700">
        <ele>457.8</ele>
        <time>2020-03-28T18:05:39Z</time>
      </trkpt>
      <trkpt lat="42.7925930" lon="-1.6903060">
        <ele>458.7</ele>
        <time>2020-03-28T18:05:41Z</time>
      </trkpt>
      <trkpt lat="42.7926190" lon="-1.6904920">
        <ele>459.0</ele>
        <time>2020-03-28T18:05:43Z</time>
      </trkpt>
      <trkpt lat="42.7926470" lon="-1.6906910">
        <ele>459.4</ele>
        <time>2020-03-28T18:05:45Z</time>
      </trkpt>
      <trkpt lat="42.7926650" lon="-1.6908200">
        <ele>459.8</ele>
        <time>2020-03-28T18:05:47Z</time>
      </trkpt>
      <trkpt lat="42.7926940" lon="-1.6910300">
        <ele>460.7</ele>
        <time>2020-03-28T18:05:49Z</time>
      </trkpt>
      <trkpt lat="42.7927110" lon="-1.6911530">
        <ele>461.2</ele>
        <time>2020-03-28T18:05:51Z</time>
      </trkpt>
      <trkpt lat="42.7927280" lon="-1.6912750">
        <ele>461.6</ele>
        <time>2020-03-28T18:05:53Z</time>
      </trkpt>
      <trkpt lat="42.7927450" lon="-1.6913970">
        <ele>462.0</ele>
        <time>2020-03-28T18:05:55Z</time>
      </trkpt>
      <trkpt lat="42.7927880" lon="-1.6917030">
        <ele>463.2</ele>
        <time>2020-03-28T18:05:57Z</time>
      </trkpt>
      <trkpt lat="42.7928020" lon="-1.6918360">
        <ele>464.0</ele>
        <time>2020-03-28T18:05:59Z</time>
      </trkpt>
      <trkpt lat="42.7928110" lon="-1.6919580">
        <ele>464.7</ele>
        <time>2020-03-28T18:06:01Z</time>
      </trkpt>
      <trkpt lat="42.7928210" lon="-1.6920790">
        <ele>465.3</ele>
        <time>2020-03-28T18:06:03Z</time>
      </trkpt>
      <trkpt lat="42.7928390" lon="-1.6923360">
        <ele>466.5</ele>
        <time>2020-03-28T18:06:05Z</time>
      </trkpt>
      <trkpt lat="42.7928450" lon="-1.6924490">
        <ele>466.8</ele>
        <time>2020-03-28T18:06:07Z</time>
      </trkpt>
      <trkpt lat="42.7928510" lon="-1.6925540">
        <ele>467.1</ele>
        <time>2020-03-28T18:06:09Z</time>
      </trkpt>
      <trkpt lat="42.7928780" lon="-1.6930270">
        <ele>468.0</ele>
        <time>2020-03-28T18:06:17Z</time>
      </trkpt>
      <trkpt lat="42.7928860" lon="-1.6931890">
        <ele>468.2</ele>
        <time>2020-03-28T18:06:19Z</time>
      </trkpt>
      <trkpt lat="42.7928870" lon="-1.6932420">
        <ele>468.2</ele>
        <time>2020-03-28T18:06:21Z</time>
      </trkpt>
      <trkpt lat="42.7928870" lon="-1.6932520">
        <ele>468.2</ele>
        <time>2020-03-28T18:06:23Z</time>
      </trkpt>
      <trkpt lat="42.7928880" lon="-1.6932560">
        <ele>468.2</ele>
        <time>2020-03-28T18:06:25Z</time>
      </trkpt>
      <trkpt lat="42.7928880" lon="-1.6932570">
        <ele>468.2</ele>
        <time>2020-03-28T18:06:28Z</time>
      </trkpt>
      <trkpt lat="42.7928880" lon="-1.6932570">
        <ele>468.2</ele>
        <time>2020-03-28T18:06:30Z</time>
      </trkpt>
      <trkpt lat="42.7928880" lon="-1.6932570">
        <ele>468.2</ele>
        <time>2020-03-28T18:06:32Z</time>
      </trkpt>
      <trkpt lat="42.7928880" lon="-1.6932600">
        <ele>468.2</ele>
        <time>2020-03-28T18:06:34Z</time>
      </trkpt>
      <trkpt lat="42.7928890" lon="-1.6933070">
        <ele>468.2</ele>
        <time>2020-03-28T18:06:36Z</time>
      </trkpt>
      <trkpt lat="42.7928960" lon="-1.6934120">
        <ele>468.1</ele>
        <time>2020-03-28T18:06:38Z</time>
      </trkpt>
      <trkpt lat="42.7929020" lon="-1.6935000">
        <ele>468.0</ele>
        <time>2020-03-28T18:06:40Z</time>
      </trkpt>
      <trkpt lat="42.7929100" lon="-1.6935910">
        <ele>468.0</ele>
        <time>2020-03-28T18:06:42Z</time>
      </trkpt>
      <trkpt lat="42.7929240" lon="-1.6937810">
        <ele>467.8</ele>
        <time>2020-03-28T18:06:44Z</time>
      </trkpt>
      <trkpt lat="42.7929360" lon="-1.6939230">
        <ele>467.7</ele>
        <time>2020-03-28T18:06:46Z</time>
      </trkpt>
      <trkpt lat="42.7929410" lon="-1.6940220">
        <ele>467.6</ele>
        <time>2020-03-28T18:06:48Z</time>
      </trkpt>
      <trkpt lat="42.7929510" lon="-1.6941970">
        <ele>467.4</ele>
        <time>2020-03-28T18:06:50Z</time>
      </trkpt>
      <trkpt lat="42.7929580" lon="-1.6943170">
        <ele>467.1</ele>
        <time>2020-03-28T18:06:52Z</time>
      </trkpt>
      <trkpt lat="42.7929650" lon="-1.6944460">
        <ele>466.8</ele>
        <time>2020-03-28T18:06:54Z</time>
      </trkpt>
      <trkpt lat="42.7929790" lon="-1.6947320">
        <ele>466.2</ele>
        <time>2020-03-28T18:06:56Z</time>
      </trkpt>
      <trkpt lat="42.7929850" lon="-1.6949120">
        <ele>466.0</ele>
        <time>2020-03-28T18:06:58Z</time>
      </trkpt>
      <trkpt lat="42.7929890" lon="-1.6951160">
        <ele>465.9</ele>
        <time>2020-03-28T18:07:00Z</time>
      </trkpt>
      <trkpt lat="42.7929910" lon="-1.6952720">
        <ele>466.0</ele>
        <time>2020-03-28T18:07:02Z</time>
      </trkpt>
      <trkpt lat="42.7929890" lon="-1.6955590">
        <ele>466.1</ele>
        <time>2020-03-28T18:07:04Z</time>
      </trkpt>
      <trkpt lat="42.7929810" lon="-1.6957200">
        <ele>466.0</ele>
        <time>2020-03-28T18:07:06Z</time>
      </trkpt>
      <trkpt lat="42.7929670" lon="-1.6959630">
        <ele>465.9</ele>
        <time>2020-03-28T18:07:08Z</time>
      </trkpt>
      <trkpt lat="42.7929550" lon="-1.6961270">
        <ele>465.6</ele>
        <time>2020-03-28T18:07:10Z</time>
      </trkpt>
      <trkpt lat="42.7929320" lon="-1.6964470">
        <ele>465.2</ele>
        <time>2020-03-28T18:07:12Z</time>
      </trkpt>
      <trkpt lat="42.7929160" lon="-1.6966750">
        <ele>465.4</ele>
        <time>2020-03-28T18:07:14Z</time>
      </trkpt>
      <trkpt lat="42.7929040" lon="-1.6968510">
        <ele>465.7</ele>
        <time>2020-03-28T18:07:16Z</time>
      </trkpt>
      <trkpt lat="42.7928900" lon="-1.6970380">
        <ele>466.1</ele>
        <time>2020-03-28T18:07:18Z</time>
      </trkpt>
      <trkpt lat="42.7928650" lon="-1.6974110">
        <ele>465.8</ele>
        <time>2020-03-28T18:07:20Z</time>
      </trkpt>
      <trkpt lat="42.7928540" lon="-1.6976200">
        <ele>465.0</ele>
        <time>2020-03-28T18:07:22Z</time>
      </trkpt>
      <trkpt lat="42.7928420" lon="-1.6978360">
        <ele>464.3</ele>
        <time>2020-03-28T18:07:24Z</time>
      </trkpt>
      <trkpt lat="42.7928950" lon="-1.6982550">
        <ele>463.0</ele>
        <time>2020-03-28T18:07:26Z</time>
      </trkpt>
      <trkpt lat="42.7929160" lon="-1.6985210">
        <ele>462.6</ele>
        <time>2020-03-28T18:07:28Z</time>
      </trkpt>
      <trkpt lat="42.7927850" lon="-1.6987160">
        <ele>462.0</ele>
        <time>2020-03-28T18:07:30Z</time>
      </trkpt>
      <trkpt lat="42.7927690" lon="-1.6989820">
        <ele>461.6</ele>
        <time>2020-03-28T18:07:32Z</time>
      </trkpt>
      <trkpt lat="42.7927510" lon="-1.6993010">
        <ele>461.0</ele>
        <time>2020-03-28T18:07:34Z</time>
      </trkpt>
      <trkpt lat="42.7927360" lon="-1.6995430">
        <ele>459.6</ele>
        <time>2020-03-28T18:07:36Z</time>
      </trkpt>
      <trkpt lat="42.7927140" lon="-1.6998520">
        <ele>458.3</ele>
        <time>2020-03-28T18:07:38Z</time>
      </trkpt>
      <trkpt lat="42.7927010" lon="-1.7000510">
        <ele>458.4</ele>
        <time>2020-03-28T18:07:40Z</time>
      </trkpt>
      <trkpt lat="42.7926810" lon="-1.7003980">
        <ele>458.1</ele>
        <time>2020-03-28T18:07:42Z</time>
      </trkpt>
      <trkpt lat="42.7926660" lon="-1.7006300">
        <ele>458.1</ele>
        <time>2020-03-28T18:07:44Z</time>
      </trkpt>
      <trkpt lat="42.7926470" lon="-1.7009430">
        <ele>458.2</ele>
        <time>2020-03-28T18:07:46Z</time>
      </trkpt>
      <trkpt lat="42.7926350" lon="-1.7011320">
        <ele>458.4</ele>
        <time>2020-03-28T18:07:48Z</time>
      </trkpt>
      <trkpt lat="42.7926180" lon="-1.7014140">
        <ele>458.8</ele>
        <time>2020-03-28T18:07:50Z</time>
      </trkpt>
      <trkpt lat="42.7926020" lon="-1.7016770">
        <ele>459.2</ele>
        <time>2020-03-28T18:07:52Z</time>
      </trkpt>
      <trkpt lat="42.7925860" lon="-1.7019320">
        <ele>459.6</ele>
        <time>2020-03-28T18:07:54Z</time>
      </trkpt>
      <trkpt lat="42.7926690" lon="-1.7021190">
        <ele>459.9</ele>
        <time>2020-03-28T18:07:56Z</time>
      </trkpt>
      <trkpt lat="42.7926830" lon="-1.7023450">
        <ele>460.1</ele>
        <time>2020-03-28T18:07:58Z</time>
      </trkpt>
      <trkpt lat="42.7925480" lon="-1.7024610">
        <ele>459.9</ele>
        <time>2020-03-28T18:08:00Z</time>
      </trkpt>
      <trkpt lat="42.7925350" lon="-1.7026930">
        <ele>459.7</ele>
        <time>2020-03-28T18:08:02Z</time>
      </trkpt>
      <trkpt lat="42.7925250" lon="-1.7028750">
        <ele>459.5</ele>
        <time>2020-03-28T18:08:04Z</time>
      </trkpt>
      <trkpt lat="42.7925070" lon="-1.7032130">
        <ele>459.0</ele>
        <time>2020-03-28T18:08:06Z</time>
      </trkpt>
      <trkpt lat="42.7924940" lon="-1.7033910">
        <ele>458.9</ele>
        <time>2020-03-28T18:08:08Z</time>
      </trkpt>
      <trkpt lat="42.7924760" lon="-1.7036550">
        <ele>458.6</ele>
        <time>2020-03-28T18:08:10Z</time>
      </trkpt>
      <trkpt lat="42.7924660" lon="-1.7038150">
        <ele>458.4</ele>
        <time>2020-03-28T18:08:12Z</time>
      </trkpt>
      <trkpt lat="42.7924480" lon="-1.7040900">
        <ele>458.0</ele>
        <time>2020-03-28T18:08:14Z</time>
      </trkpt>
      <trkpt lat="42.7924370" lon="-1.7042690">
        <ele>458.0</ele>
        <time>2020-03-28T18:08:16Z</time>
      </trkpt>
      <trkpt lat="42.7924280" lon="-1.7044080">
        <ele>457.9</ele>
        <time>2020-03-28T18:08:18Z</time>
      </trkpt>
      <trkpt lat="42.7924200" lon="-1.7045420">
        <ele>457.9</ele>
        <time>2020-03-28T18:08:20Z</time>
      </trkpt>
      <trkpt lat="42.7924030" lon="-1.7048150">
        <ele>458.1</ele>
        <time>2020-03-28T18:08:22Z</time>
      </trkpt>
      <trkpt lat="42.7923950" lon="-1.7049450">
        <ele>458.3</ele>
        <time>2020-03-28T18:08:24Z</time>
      </trkpt>
      <trkpt lat="42.7923800" lon="-1.7051890">
        <ele>458.7</ele>
        <time>2020-03-28T18:08:26Z</time>
      </trkpt>
      <trkpt lat="42.7923710" lon="-1.7053180">
        <ele>458.9</ele>
        <time>2020-03-28T18:08:28Z</time>
      </trkpt>
      <trkpt lat="42.7923630" lon="-1.7054450">
        <ele>459.1</ele>
        <time>2020-03-28T18:08:30Z</time>
      </trkpt>
      <trkpt lat="42.7923460" lon="-1.7057000">
        <ele>459.6</ele>
        <time>2020-03-28T18:08:32Z</time>
      </trkpt>
      <trkpt lat="42.7924020" lon="-1.7058390">
        <ele>460.2</ele>
        <time>2020-03-28T18:08:34Z</time>
      </trkpt>
      <trkpt lat="42.7924930" lon="-1.7059540">
        <ele>460.7</ele>
        <time>2020-03-28T18:08:36Z</time>
      </trkpt>
      <trkpt lat="42.7925170" lon="-1.7061220">
        <ele>461.2</ele>
        <time>2020-03-28T18:08:38Z</time>
      </trkpt>
      <trkpt lat="42.7924690" lon="-1.7062700">
        <ele>461.4</ele>
        <time>2020-03-28T18:08:40Z</time>
      </trkpt>
      <trkpt lat="42.7923560" lon="-1.7063560">
        <ele>461.6</ele>
        <time>2020-03-28T18:08:42Z</time>
      </trkpt>
      <trkpt lat="42.7923010" lon="-1.7064380">
        <ele>461.7</ele>
        <time>2020-03-28T18:08:44Z</time>
      </trkpt>
      <trkpt lat="42.7922930" lon="-1.7065920">
        <ele>462.1</ele>
        <time>2020-03-28T18:08:46Z</time>
      </trkpt>
      <trkpt lat="42.7922850" lon="-1.7067170">
        <ele>462.3</ele>
        <time>2020-03-28T18:08:48Z</time>
      </trkpt>
      <trkpt lat="42.7922780" lon="-1.7068420">
        <ele>462.6</ele>
        <time>2020-03-28T18:08:50Z</time>
      </trkpt>
      <trkpt lat="42.7922700" lon="-1.7069660">
        <ele>462.9</ele>
        <time>2020-03-28T18:08:52Z</time>
      </trkpt>
      <trkpt lat="42.7922500" lon="-1.7072730">
        <ele>463.3</ele>
        <time>2020-03-28T18:08:54Z</time>
      </trkpt>
      <trkpt lat="42.7922350" lon="-1.7074890">
        <ele>463.2</ele>
        <time>2020-03-28T18:08:56Z</time>
      </trkpt>
      <trkpt lat="42.7922260" lon="-1.7076230">
        <ele>463.2</ele>
        <time>2020-03-28T18:08:58Z</time>
      </trkpt>
      <trkpt lat="42.7922170" lon="-1.7077610">
        <ele>463.2</ele>
        <time>2020-03-28T18:09:00Z</time>
      </trkpt>
      <trkpt lat="42.7921990" lon="-1.7080400">
        <ele>463.0</ele>
        <time>2020-03-28T18:09:02Z</time>
      </trkpt>
      <trkpt lat="42.7921900" lon="-1.7081840">
        <ele>462.8</ele>
        <time>2020-03-28T18:09:04Z</time>
      </trkpt>
      <trkpt lat="42.7921800" lon="-1.7083300">
        <ele>462.5</ele>
        <time>2020-03-28T18:09:06Z</time>
      </trkpt>
      <trkpt lat="42.7921600" lon="-1.7086330">
        <ele>462.1</ele>
        <time>2020-03-28T18:09:08Z</time>
      </trkpt>
      <trkpt lat="42.7921500" lon="-1.7087850">
        <ele>462.1</ele>
        <time>2020-03-28T18:09:10Z</time>
      </trkpt>
      <trkpt lat="42.7921400" lon="-1.7089400">
        <ele>462.1</ele>
        <time>2020-03-28T18:09:12Z</time>
      </trkpt>
      <trkpt lat="42.7921300" lon="-1.7090990">
        <ele>462.1</ele>
        <time>2020-03-28T18:09:14Z</time>
      </trkpt>
      <trkpt lat="42.7921190" lon="-1.7092590">
        <ele>462.0</ele>
        <time>2020-03-28T18:09:16Z</time>
      </trkpt>
      <trkpt lat="42.7920890" lon="-1.7097170">
        <ele>462.0</ele>
        <time>2020-03-28T18:09:18Z</time>
      </trkpt>
      <trkpt lat="42.7920780" lon="-1.7099000">
        <ele>462.0</ele>
        <time>2020-03-28T18:09:20Z</time>
      </trkpt>
      <trkpt lat="42.7920670" lon="-1.7100690">
        <ele>462.0</ele>
        <time>2020-03-28T18:09:22Z</time>
      </trkpt>
      <trkpt lat="42.7920560" lon="-1.7102390">
        <ele>462.0</ele>
        <time>2020-03-28T18:09:24Z</time>
      </trkpt>
      <trkpt lat="42.7920450" lon="-1.7104090">
        <ele>462.3</ele>
        <time>2020-03-28T18:09:26Z</time>
      </trkpt>
      <trkpt lat="42.7920160" lon="-1.7108570">
        <ele>462.8</ele>
        <time>2020-03-28T18:09:28Z</time>
      </trkpt>
      <trkpt lat="42.7920050" lon="-1.7110280">
        <ele>462.8</ele>
        <time>2020-03-28T18:09:30Z</time>
      </trkpt>
      <trkpt lat="42.7919940" lon="-1.7111970">
        <ele>462.8</ele>
        <time>2020-03-28T18:09:32Z</time>
      </trkpt>
      <trkpt lat="42.7919830" lon="-1.7113620">
        <ele>463.0</ele>
        <time>2020-03-28T18:09:34Z</time>
      </trkpt>
      <trkpt lat="42.7919570" lon="-1.7117690">
        <ele>463.6</ele>
        <time>2020-03-28T18:09:36Z</time>
      </trkpt>
      <trkpt lat="42.7919450" lon="-1.7119780">
        <ele>463.3</ele>
        <time>2020-03-28T18:09:38Z</time>
      </trkpt>
      <trkpt lat="42.7919340" lon="-1.7121770">
        <ele>463.2</ele>
        <time>2020-03-28T18:09:40Z</time>
      </trkpt>
      <trkpt lat="42.7919240" lon="-1.7123330">
        <ele>463.0</ele>
        <time>2020-03-28T18:09:42Z</time>
      </trkpt>
      <trkpt lat="42.7919050" lon="-1.7126080">
        <ele>462.8</ele>
        <time>2020-03-28T18:09:44Z</time>
      </trkpt>
      <trkpt lat="42.7918920" lon="-1.7127790">
        <ele>462.8</ele>
        <time>2020-03-28T18:09:46Z</time>
      </trkpt>
      <trkpt lat="42.7918650" lon="-1.7131200">
        <ele>463.0</ele>
        <time>2020-03-28T18:09:48Z</time>
      </trkpt>
      <trkpt lat="42.7918430" lon="-1.7133320">
        <ele>462.9</ele>
        <time>2020-03-28T18:09:50Z</time>
      </trkpt>
      <trkpt lat="42.7917870" lon="-1.7136220">
        <ele>462.5</ele>
        <time>2020-03-28T18:09:52Z</time>
      </trkpt>
      <trkpt lat="42.7917190" lon="-1.7138800">
        <ele>461.7</ele>
        <time>2020-03-28T18:09:54Z</time>
      </trkpt>
      <trkpt lat="42.7916380" lon="-1.7141210">
        <ele>460.6</ele>
        <time>2020-03-28T18:09:56Z</time>
      </trkpt>
      <trkpt lat="42.7915270" lon="-1.7143910">
        <ele>459.4</ele>
        <time>2020-03-28T18:09:58Z</time>
      </trkpt>
      <trkpt lat="42.7914180" lon="-1.7146010">
        <ele>458.3</ele>
        <time>2020-03-28T18:10:00Z</time>
      </trkpt>
      <trkpt lat="42.7912640" lon="-1.7148510">
        <ele>457.2</ele>
        <time>2020-03-28T18:10:02Z</time>
      </trkpt>
      <trkpt lat="42.7911440" lon="-1.7150230">
        <ele>457.0</ele>
        <time>2020-03-28T18:10:04Z</time>
      </trkpt>
      <trkpt lat="42.7909350" lon="-1.7153020">
        <ele>455.0</ele>
        <time>2020-03-28T18:10:06Z</time>
      </trkpt>
      <trkpt lat="42.7907290" lon="-1.7155630">
        <ele>452.8</ele>
        <time>2020-03-28T18:10:08Z</time>
      </trkpt>
      <trkpt lat="42.7904870" lon="-1.7158850">
        <ele>450.7</ele>
        <time>2020-03-28T18:10:10Z</time>
      </trkpt>
      <trkpt lat="42.7903130" lon="-1.7161910">
        <ele>449.0</ele>
        <time>2020-03-28T18:10:12Z</time>
      </trkpt>
      <trkpt lat="42.7901890" lon="-1.7165400">
        <ele>447.3</ele>
        <time>2020-03-28T18:10:14Z</time>
      </trkpt>
      <trkpt lat="42.7901260" lon="-1.7169290">
        <ele>445.9</ele>
        <time>2020-03-28T18:10:16Z</time>
      </trkpt>
      <trkpt lat="42.7901290" lon="-1.7172990">
        <ele>444.6</ele>
        <time>2020-03-28T18:10:18Z</time>
      </trkpt>
      <trkpt lat="42.7901890" lon="-1.7176320">
        <ele>442.6</ele>
        <time>2020-03-28T18:10:20Z</time>
      </trkpt>
      <trkpt lat="42.7903120" lon="-1.7180240">
        <ele>440.2</ele>
        <time>2020-03-28T18:10:22Z</time>
      </trkpt>
      <trkpt lat="42.7904330" lon="-1.7183440">
        <ele>438.8</ele>
        <time>2020-03-28T18:10:24Z</time>
      </trkpt>
      <trkpt lat="42.7905680" lon="-1.7186940">
        <ele>437.4</ele>
        <time>2020-03-28T18:10:26Z</time>
      </trkpt>
      <trkpt lat="42.7907140" lon="-1.7190730">
        <ele>435.7</ele>
        <time>2020-03-28T18:10:28Z</time>
      </trkpt>
      <trkpt lat="42.7908440" lon="-1.7194570">
        <ele>434.3</ele>
        <time>2020-03-28T18:10:30Z</time>
      </trkpt>
      <trkpt lat="42.7909320" lon="-1.7198030">
        <ele>433.1</ele>
        <time>2020-03-28T18:10:32Z</time>
      </trkpt>
      <trkpt lat="42.7909970" lon="-1.7202110">
        <ele>431.4</ele>
        <time>2020-03-28T18:10:34Z</time>
      </trkpt>
      <trkpt lat="42.7910280" lon="-1.7204650">
        <ele>430.1</ele>
        <time>2020-03-28T18:10:36Z</time>
      </trkpt>
      <trkpt lat="42.7910760" lon="-1.7208690">
        <ele>429.2</ele>
        <time>2020-03-28T18:10:38Z</time>
      </trkpt>
      <trkpt lat="42.7911040" lon="-1.7210950">
        <ele>429.7</ele>
        <time>2020-03-28T18:10:40Z</time>
      </trkpt>
      <trkpt lat="42.7911520" lon="-1.7214880">
        <ele>430.4</ele>
        <time>2020-03-28T18:10:42Z</time>
      </trkpt>
      <trkpt lat="42.7911800" lon="-1.7217380">
        <ele>430.8</ele>
        <time>2020-03-28T18:10:44Z</time>
      </trkpt>
      <trkpt lat="42.7912120" lon="-1.7219940">
        <ele>431.5</ele>
        <time>2020-03-28T18:10:46Z</time>
      </trkpt>
      <trkpt lat="42.7912410" lon="-1.7222350">
        <ele>432.5</ele>
        <time>2020-03-28T18:10:48Z</time>
      </trkpt>
      <trkpt lat="42.7912680" lon="-1.7224510">
        <ele>433.3</ele>
        <time>2020-03-28T18:10:50Z</time>
      </trkpt>
      <trkpt lat="42.7912810" lon="-1.7226750">
        <ele>434.1</ele>
        <time>2020-03-28T18:10:52Z</time>
      </trkpt>
      <trkpt lat="42.7912830" lon="-1.7228930">
        <ele>434.5</ele>
        <time>2020-03-28T18:10:54Z</time>
      </trkpt>
      <trkpt lat="42.7912760" lon="-1.7231510">
        <ele>434.7</ele>
        <time>2020-03-28T18:10:56Z</time>
      </trkpt>
      <trkpt lat="42.7912500" lon="-1.7233740">
        <ele>434.9</ele>
        <time>2020-03-28T18:10:58Z</time>
      </trkpt>
      <trkpt lat="42.7912040" lon="-1.7236180">
        <ele>434.2</ele>
        <time>2020-03-28T18:11:00Z</time>
      </trkpt>
      <trkpt lat="42.7911410" lon="-1.7238260">
        <ele>433.1</ele>
        <time>2020-03-28T18:11:02Z</time>
      </trkpt>
      <trkpt lat="42.7910600" lon="-1.7240330">
        <ele>432.0</ele>
        <time>2020-03-28T18:11:04Z</time>
      </trkpt>
      <trkpt lat="42.7909460" lon="-1.7243050">
        <ele>430.5</ele>
        <time>2020-03-28T18:11:06Z</time>
      </trkpt>
      <trkpt lat="42.7908690" lon="-1.7244800">
        <ele>429.5</ele>
        <time>2020-03-28T18:11:08Z</time>
      </trkpt>
      <trkpt lat="42.7907880" lon="-1.7246620">
        <ele>428.5</ele>
        <time>2020-03-28T18:11:10Z</time>
      </trkpt>
      <trkpt lat="42.7906310" lon="-1.7250160">
        <ele>426.7</ele>
        <time>2020-03-28T18:11:12Z</time>
      </trkpt>
      <trkpt lat="42.7905480" lon="-1.7252000">
        <ele>426.0</ele>
        <time>2020-03-28T18:11:14Z</time>
      </trkpt>
      <trkpt lat="42.7904650" lon="-1.7253820">
        <ele>425.3</ele>
        <time>2020-03-28T18:11:16Z</time>
      </trkpt>
      <trkpt lat="42.7903830" lon="-1.7255640">
        <ele>424.7</ele>
        <time>2020-03-28T18:11:18Z</time>
      </trkpt>
      <trkpt lat="42.7901750" lon="-1.7260240">
        <ele>423.4</ele>
        <time>2020-03-28T18:11:20Z</time>
      </trkpt>
      <trkpt lat="42.7900940" lon="-1.7262060">
        <ele>423.2</ele>
        <time>2020-03-28T18:11:22Z</time>
      </trkpt>
      <trkpt lat="42.7899740" lon="-1.7264860">
        <ele>423.1</ele>
        <time>2020-03-28T18:11:24Z</time>
      </trkpt>
      <trkpt lat="42.7898990" lon="-1.7266710">
        <ele>422.9</ele>
        <time>2020-03-28T18:11:26Z</time>
      </trkpt>
      <trkpt lat="42.7897830" lon="-1.7269830">
        <ele>422.4</ele>
        <time>2020-03-28T18:11:28Z</time>
      </trkpt>
      <trkpt lat="42.7896950" lon="-1.7272510">
        <ele>422.3</ele>
        <time>2020-03-28T18:11:30Z</time>
      </trkpt>
      <trkpt lat="42.7896420" lon="-1.7274260">
        <ele>422.3</ele>
        <time>2020-03-28T18:11:32Z</time>
      </trkpt>
      <trkpt lat="42.7895660" lon="-1.7277140">
        <ele>422.3</ele>
        <time>2020-03-28T18:11:34Z</time>
      </trkpt>
      <trkpt lat="42.7895250" lon="-1.7278870">
        <ele>422.3</ele>
        <time>2020-03-28T18:11:36Z</time>
      </trkpt>
      <trkpt lat="42.7894590" lon="-1.7281890">
        <ele>422.3</ele>
        <time>2020-03-28T18:11:38Z</time>
      </trkpt>
      <trkpt lat="42.7894120" lon="-1.7284420">
        <ele>422.3</ele>
        <time>2020-03-28T18:11:40Z</time>
      </trkpt>
      <trkpt lat="42.7893710" lon="-1.7286980">
        <ele>422.2</ele>
        <time>2020-03-28T18:11:42Z</time>
      </trkpt>
      <trkpt lat="42.7893320" lon="-1.7289680">
        <ele>421.9</ele>
        <time>2020-03-28T18:11:44Z</time>
      </trkpt>
      <trkpt lat="42.7893060" lon="-1.7291650">
        <ele>421.6</ele>
        <time>2020-03-28T18:11:46Z</time>
      </trkpt>
      <trkpt lat="42.7892600" lon="-1.7295100">
        <ele>421.1</ele>
        <time>2020-03-28T18:11:48Z</time>
      </trkpt>
      <trkpt lat="42.7892330" lon="-1.7297140">
        <ele>420.7</ele>
        <time>2020-03-28T18:11:50Z</time>
      </trkpt>
      <trkpt lat="42.7891850" lon="-1.7300670">
        <ele>420.1</ele>
        <time>2020-03-28T18:11:52Z</time>
      </trkpt>
      <trkpt lat="42.7891570" lon="-1.7302750">
        <ele>419.9</ele>
        <time>2020-03-28T18:11:54Z</time>
      </trkpt>
      <trkpt lat="42.7891060" lon="-1.7306500">
        <ele>419.4</ele>
        <time>2020-03-28T18:11:56Z</time>
      </trkpt>
      <trkpt lat="42.7890630" lon="-1.7309630">
        <ele>419.3</ele>
        <time>2020-03-28T18:11:58Z</time>
      </trkpt>
      <trkpt lat="42.7890360" lon="-1.7311660">
        <ele>419.2</ele>
        <time>2020-03-28T18:12:00Z</time>
      </trkpt>
      <trkpt lat="42.7890100" lon="-1.7313560">
        <ele>419.2</ele>
        <time>2020-03-28T18:12:02Z</time>
      </trkpt>
      <trkpt lat="42.7889570" lon="-1.7317460">
        <ele>419.3</ele>
        <time>2020-03-28T18:12:04Z</time>
      </trkpt>
      <trkpt lat="42.7889340" lon="-1.7319140">
        <ele>419.4</ele>
        <time>2020-03-28T18:12:06Z</time>
      </trkpt>
      <trkpt lat="42.7889130" lon="-1.7320720">
        <ele>419.5</ele>
        <time>2020-03-28T18:12:08Z</time>
      </trkpt>
      <trkpt lat="42.7888930" lon="-1.7322210">
        <ele>419.7</ele>
        <time>2020-03-28T18:12:10Z</time>
      </trkpt>
      <trkpt lat="42.7888730" lon="-1.7323640">
        <ele>419.8</ele>
        <time>2020-03-28T18:12:12Z</time>
      </trkpt>
      <trkpt lat="42.7888220" lon="-1.7327500">
        <ele>420.4</ele>
        <time>2020-03-28T18:12:14Z</time>
      </trkpt>
      <trkpt lat="42.7887960" lon="-1.7329450">
        <ele>421.0</ele>
        <time>2020-03-28T18:12:16Z</time>
      </trkpt>
      <trkpt lat="42.7887780" lon="-1.7330780">
        <ele>421.5</ele>
        <time>2020-03-28T18:12:18Z</time>
      </trkpt>
      <trkpt lat="42.7887600" lon="-1.7332140">
        <ele>421.7</ele>
        <time>2020-03-28T18:12:20Z</time>
      </trkpt>
      <trkpt lat="42.7887420" lon="-1.7333500">
        <ele>421.9</ele>
        <time>2020-03-28T18:12:22Z</time>
      </trkpt>
      <trkpt lat="42.7887240" lon="-1.7334890">
        <ele>421.9</ele>
        <time>2020-03-28T18:12:24Z</time>
      </trkpt>
      <trkpt lat="42.7887060" lon="-1.7336300">
        <ele>421.9</ele>
        <time>2020-03-28T18:12:26Z</time>
      </trkpt>
      <trkpt lat="42.7886470" lon="-1.7340890">
        <ele>421.9</ele>
        <time>2020-03-28T18:12:28Z</time>
      </trkpt>
      <trkpt lat="42.7886270" lon="-1.7342320">
        <ele>421.9</ele>
        <time>2020-03-28T18:12:30Z</time>
      </trkpt>
      <trkpt lat="42.7886070" lon="-1.7343770">
        <ele>421.9</ele>
        <time>2020-03-28T18:12:32Z</time>
      </trkpt>
      <trkpt lat="42.7885870" lon="-1.7345210">
        <ele>421.9</ele>
        <time>2020-03-28T18:12:34Z</time>
      </trkpt>
      <trkpt lat="42.7885450" lon="-1.7348350">
        <ele>421.9</ele>
        <time>2020-03-28T18:12:36Z</time>
      </trkpt>
      <trkpt lat="42.7885250" lon="-1.7349840">
        <ele>421.8</ele>
        <time>2020-03-28T18:12:38Z</time>
      </trkpt>
      <trkpt lat="42.7884840" lon="-1.7352750">
        <ele>421.8</ele>
        <time>2020-03-28T18:12:40Z</time>
      </trkpt>
      <trkpt lat="42.7884450" lon="-1.7354840">
        <ele>421.8</ele>
        <time>2020-03-28T18:12:42Z</time>
      </trkpt>
      <trkpt lat="42.7884140" lon="-1.7356310">
        <ele>421.7</ele>
        <time>2020-03-28T18:12:44Z</time>
      </trkpt>
      <trkpt lat="42.7883560" lon="-1.7358460">
        <ele>421.1</ele>
        <time>2020-03-28T18:12:46Z</time>
      </trkpt>
      <trkpt lat="42.7882920" lon="-1.7360420">
        <ele>420.2</ele>
        <time>2020-03-28T18:12:48Z</time>
      </trkpt>
      <trkpt lat="42.7882060" lon="-1.7362730">
        <ele>419.6</ele>
        <time>2020-03-28T18:12:50Z</time>
      </trkpt>
      <trkpt lat="42.7881460" lon="-1.7364240">
        <ele>419.9</ele>
        <time>2020-03-28T18:12:52Z</time>
      </trkpt>
      <trkpt lat="42.7880490" lon="-1.7366620">
        <ele>420.4</ele>
        <time>2020-03-28T18:12:54Z</time>
      </trkpt>
      <trkpt lat="42.7879830" lon="-1.7368210">
        <ele>420.7</ele>
        <time>2020-03-28T18:12:56Z</time>
      </trkpt>
      <trkpt lat="42.7878600" lon="-1.7371140">
        <ele>421.3</ele>
        <time>2020-03-28T18:12:58Z</time>
      </trkpt>
      <trkpt lat="42.7877950" lon="-1.7372670">
        <ele>421.6</ele>
        <time>2020-03-28T18:13:00Z</time>
      </trkpt>
      <trkpt lat="42.7877360" lon="-1.7374070">
        <ele>421.8</ele>
        <time>2020-03-28T18:13:02Z</time>
      </trkpt>
      <trkpt lat="42.7876810" lon="-1.7375360">
        <ele>422.1</ele>
        <time>2020-03-28T18:13:04Z</time>
      </trkpt>
      <trkpt lat="42.7875420" lon="-1.7378640">
        <ele>423.4</ele>
        <time>2020-03-28T18:13:06Z</time>
      </trkpt>
      <trkpt lat="42.7874860" lon="-1.7379940">
        <ele>423.9</ele>
        <time>2020-03-28T18:13:08Z</time>
      </trkpt>
      <trkpt lat="42.7874430" lon="-1.7380960">
        <ele>424.3</ele>
        <time>2020-03-28T18:13:10Z</time>
      </trkpt>
      <trkpt lat="42.7874020" lon="-1.7381930">
        <ele>424.6</ele>
        <time>2020-03-28T18:13:12Z</time>
      </trkpt>
      <trkpt lat="42.7873130" lon="-1.7384050">
        <ele>425.2</ele>
        <time>2020-03-28T18:13:14Z</time>
      </trkpt>
      <trkpt lat="42.7872780" lon="-1.7384900">
        <ele>425.4</ele>
        <time>2020-03-28T18:13:16Z</time>
      </trkpt>
      <trkpt lat="42.7872460" lon="-1.7385690">
        <ele>425.5</ele>
        <time>2020-03-28T18:13:18Z</time>
      </trkpt>
      <trkpt lat="42.7872150" lon="-1.7386440">
        <ele>425.7</ele>
        <time>2020-03-28T18:13:20Z</time>
      </trkpt>
      <trkpt lat="42.7871380" lon="-1.7388370">
        <ele>426.1</ele>
        <time>2020-03-28T18:13:22Z</time>
      </trkpt>
      <trkpt lat="42.7871040" lon="-1.7389300">
        <ele>426.2</ele>
        <time>2020-03-28T18:13:24Z</time>
      </trkpt>
      <trkpt lat="42.7870700" lon="-1.7390250">
        <ele>426.4</ele>
        <time>2020-03-28T18:13:26Z</time>
      </trkpt>
      <trkpt lat="42.7870350" lon="-1.7391220">
        <ele>426.6</ele>
        <time>2020-03-28T18:13:28Z</time>
      </trkpt>
      <trkpt lat="42.7869990" lon="-1.7392220">
        <ele>426.8</ele>
        <time>2020-03-28T18:13:30Z</time>
      </trkpt>
      <trkpt lat="42.7869120" lon="-1.7394730">
        <ele>427.5</ele>
        <time>2020-03-28T18:13:32Z</time>
      </trkpt>
      <trkpt lat="42.7868780" lon="-1.7395740">
        <ele>427.8</ele>
        <time>2020-03-28T18:13:34Z</time>
      </trkpt>
      <trkpt lat="42.7868110" lon="-1.7397800">
        <ele>428.5</ele>
        <time>2020-03-28T18:13:36Z</time>
      </trkpt>
      <trkpt lat="42.7867800" lon="-1.7398830">
        <ele>428.9</ele>
        <time>2020-03-28T18:13:38Z</time>
      </trkpt>
      <trkpt lat="42.7867490" lon="-1.7399860">
        <ele>429.3</ele>
        <time>2020-03-28T18:13:40Z</time>
      </trkpt>
      <trkpt lat="42.7867190" lon="-1.7400890">
        <ele>429.7</ele>
        <time>2020-03-28T18:13:42Z</time>
      </trkpt>
      <trkpt lat="42.7866440" lon="-1.7403390">
        <ele>431.0</ele>
        <time>2020-03-28T18:13:44Z</time>
      </trkpt>
      <trkpt lat="42.7866070" lon="-1.7404680">
        <ele>431.6</ele>
        <time>2020-03-28T18:13:46Z</time>
      </trkpt>
      <trkpt lat="42.7865750" lon="-1.7405780">
        <ele>432.2</ele>
        <time>2020-03-28T18:13:48Z</time>
      </trkpt>
      <trkpt lat="42.7865210" lon="-1.7407690">
        <ele>433.1</ele>
        <time>2020-03-28T18:13:50Z</time>
      </trkpt>
      <trkpt lat="42.7864740" lon="-1.7409310">
        <ele>433.9</ele>
        <time>2020-03-28T18:13:52Z</time>
      </trkpt>
      <trkpt lat="42.7864360" lon="-1.7410740">
        <ele>434.4</ele>
        <time>2020-03-28T18:13:54Z</time>
      </trkpt>
      <trkpt lat="42.7864130" lon="-1.7411860">
        <ele>434.7</ele>
        <time>2020-03-28T18:13:56Z</time>
      </trkpt>
      <trkpt lat="42.7863730" lon="-1.7413900">
        <ele>435.3</ele>
        <time>2020-03-28T18:13:58Z</time>
      </trkpt>
      <trkpt lat="42.7863610" lon="-1.7415260">
        <ele>435.8</ele>
        <time>2020-03-28T18:14:00Z</time>
      </trkpt>
      <trkpt lat="42.7863270" lon="-1.7416340">
        <ele>435.9</ele>
        <time>2020-03-28T18:14:02Z</time>
      </trkpt>
      <trkpt lat="42.7862190" lon="-1.7416580">
        <ele>436.0</ele>
        <time>2020-03-28T18:14:04Z</time>
      </trkpt>
      <trkpt lat="42.7861120" lon="-1.7416860">
        <ele>436.1</ele>
        <time>2020-03-28T18:14:06Z</time>
      </trkpt>
      <trkpt lat="42.7859940" lon="-1.7417130">
        <ele>436.3</ele>
        <time>2020-03-28T18:14:08Z</time>
      </trkpt>
      <trkpt lat="42.7859130" lon="-1.7417300">
        <ele>436.3</ele>
        <time>2020-03-28T18:14:10Z</time>
      </trkpt>
      <trkpt lat="42.7858320" lon="-1.7417470">
        <ele>436.3</ele>
        <time>2020-03-28T18:14:12Z</time>
      </trkpt>
      <trkpt lat="42.7857510" lon="-1.7417640">
        <ele>436.4</ele>
        <time>2020-03-28T18:14:14Z</time>
      </trkpt>
      <trkpt lat="42.7856690" lon="-1.7417810">
        <ele>436.5</ele>
        <time>2020-03-28T18:14:16Z</time>
      </trkpt>
      <trkpt lat="42.7854510" lon="-1.7418270">
        <ele>437.1</ele>
        <time>2020-03-28T18:14:18Z</time>
      </trkpt>
      <trkpt lat="42.7853650" lon="-1.7418450">
        <ele>437.3</ele>
        <time>2020-03-28T18:14:20Z</time>
      </trkpt>
      <trkpt lat="42.7852800" lon="-1.7418630">
        <ele>437.6</ele>
        <time>2020-03-28T18:14:22Z</time>
      </trkpt>
      <trkpt lat="42.7851950" lon="-1.7418810">
        <ele>437.9</ele>
        <time>2020-03-28T18:14:24Z</time>
      </trkpt>
      <trkpt lat="42.7851110" lon="-1.7418990">
        <ele>438.0</ele>
        <time>2020-03-28T18:14:26Z</time>
      </trkpt>
      <trkpt lat="42.7850280" lon="-1.7419160">
        <ele>438.2</ele>
        <time>2020-03-28T18:14:28Z</time>
      </trkpt>
      <trkpt lat="42.7849440" lon="-1.7419340">
        <ele>438.4</ele>
        <time>2020-03-28T18:14:30Z</time>
      </trkpt>
      <trkpt lat="42.7846280" lon="-1.7420010">
        <ele>439.0</ele>
        <time>2020-03-28T18:14:32Z</time>
      </trkpt>
      <trkpt lat="42.7845440" lon="-1.7420190">
        <ele>439.2</ele>
        <time>2020-03-28T18:14:34Z</time>
      </trkpt>
      <trkpt lat="42.7844610" lon="-1.7420360">
        <ele>439.4</ele>
        <time>2020-03-28T18:14:36Z</time>
      </trkpt>
      <trkpt lat="42.7843780" lon="-1.7420540">
        <ele>439.7</ele>
        <time>2020-03-28T18:14:38Z</time>
      </trkpt>
      <trkpt lat="42.7842950" lon="-1.7420710">
        <ele>440.1</ele>
        <time>2020-03-28T18:14:40Z</time>
      </trkpt>
      <trkpt lat="42.7842120" lon="-1.7420880">
        <ele>440.5</ele>
        <time>2020-03-28T18:14:42Z</time>
      </trkpt>
      <trkpt lat="42.7841300" lon="-1.7421060">
        <ele>440.8</ele>
        <time>2020-03-28T18:14:44Z</time>
      </trkpt>
      <trkpt lat="42.7840470" lon="-1.7421230">
        <ele>441.1</ele>
        <time>2020-03-28T18:14:46Z</time>
      </trkpt>
      <trkpt lat="42.7837480" lon="-1.7421830">
        <ele>442.4</ele>
        <time>2020-03-28T18:14:48Z</time>
      </trkpt>
      <trkpt lat="42.7836700" lon="-1.7421980">
        <ele>442.8</ele>
        <time>2020-03-28T18:14:50Z</time>
      </trkpt>
      <trkpt lat="42.7835920" lon="-1.7422120">
        <ele>443.1</ele>
        <time>2020-03-28T18:14:52Z</time>
      </trkpt>
      <trkpt lat="42.7835140" lon="-1.7422270">
        <ele>443.4</ele>
        <time>2020-03-28T18:14:54Z</time>
      </trkpt>
      <trkpt lat="42.7834350" lon="-1.7422410">
        <ele>443.8</ele>
        <time>2020-03-28T18:14:56Z</time>
      </trkpt>
      <trkpt lat="42.7833570" lon="-1.7422560">
        <ele>444.3</ele>
        <time>2020-03-28T18:14:58Z</time>
      </trkpt>
      <trkpt lat="42.7830870" lon="-1.7422940">
        <ele>446.8</ele>
        <time>2020-03-28T18:15:00Z</time>
      </trkpt>
      <trkpt lat="42.7830100" lon="-1.7422790">
        <ele>447.2</ele>
        <time>2020-03-28T18:15:02Z</time>
      </trkpt>
      <trkpt lat="42.7828880" lon="-1.7422480">
        <ele>447.8</ele>
        <time>2020-03-28T18:15:04Z</time>
      </trkpt>
      <trkpt lat="42.7828060" lon="-1.7422170">
        <ele>448.2</ele>
        <time>2020-03-28T18:15:06Z</time>
      </trkpt>
      <trkpt lat="42.7826510" lon="-1.7421580">
        <ele>448.9</ele>
        <time>2020-03-28T18:15:08Z</time>
      </trkpt>
      <trkpt lat="42.7825690" lon="-1.7421210">
        <ele>449.1</ele>
        <time>2020-03-28T18:15:10Z</time>
      </trkpt>
      <trkpt lat="42.7824880" lon="-1.7420840">
        <ele>449.5</ele>
        <time>2020-03-28T18:15:12Z</time>
      </trkpt>
      <trkpt lat="42.7824070" lon="-1.7420480">
        <ele>449.9</ele>
        <time>2020-03-28T18:15:14Z</time>
      </trkpt>
      <trkpt lat="42.7823280" lon="-1.7420120">
        <ele>450.2</ele>
        <time>2020-03-28T18:15:16Z</time>
      </trkpt>
      <trkpt lat="42.7822490" lon="-1.7419760">
        <ele>450.5</ele>
        <time>2020-03-28T18:15:18Z</time>
      </trkpt>
      <trkpt lat="42.7821700" lon="-1.7419410">
        <ele>450.7</ele>
        <time>2020-03-28T18:15:20Z</time>
      </trkpt>
      <trkpt lat="42.7820930" lon="-1.7419060">
        <ele>450.8</ele>
        <time>2020-03-28T18:15:22Z</time>
      </trkpt>
      <trkpt lat="42.7817980" lon="-1.7417710">
        <ele>451.6</ele>
        <time>2020-03-28T18:15:24Z</time>
      </trkpt>
      <trkpt lat="42.7817210" lon="-1.7417330">
        <ele>451.7</ele>
        <time>2020-03-28T18:15:26Z</time>
      </trkpt>
      <trkpt lat="42.7816450" lon="-1.7416950">
        <ele>451.8</ele>
        <time>2020-03-28T18:15:28Z</time>
      </trkpt>
      <trkpt lat="42.7814850" lon="-1.7416100">
        <ele>452.1</ele>
        <time>2020-03-28T18:15:30Z</time>
      </trkpt>
      <trkpt lat="42.7814140" lon="-1.7415610">
        <ele>452.3</ele>
        <time>2020-03-28T18:15:32Z</time>
      </trkpt>
      <trkpt lat="42.7813020" lon="-1.7414770">
        <ele>452.7</ele>
        <time>2020-03-28T18:15:34Z</time>
      </trkpt>
      <trkpt lat="42.7812060" lon="-1.7413920">
        <ele>453.0</ele>
        <time>2020-03-28T18:15:36Z</time>
      </trkpt>
      <trkpt lat="42.7811270" lon="-1.7412960">
        <ele>453.3</ele>
        <time>2020-03-28T18:15:38Z</time>
      </trkpt>
      <trkpt lat="42.7810740" lon="-1.7412150">
        <ele>453.6</ele>
        <time>2020-03-28T18:15:40Z</time>
      </trkpt>
      <trkpt lat="42.7809940" lon="-1.7410760">
        <ele>453.8</ele>
        <time>2020-03-28T18:15:42Z</time>
      </trkpt>
      <trkpt lat="42.7809500" lon="-1.7409870">
        <ele>453.9</ele>
        <time>2020-03-28T18:15:44Z</time>
      </trkpt>
      <trkpt lat="42.7809050" lon="-1.7408980">
        <ele>454.1</ele>
        <time>2020-03-28T18:15:46Z</time>
      </trkpt>
      <trkpt lat="42.7808110" lon="-1.7407070">
        <ele>454.7</ele>
        <time>2020-03-28T18:15:48Z</time>
      </trkpt>
      <trkpt lat="42.7807660" lon="-1.7406160">
        <ele>454.9</ele>
        <time>2020-03-28T18:15:50Z</time>
      </trkpt>
      <trkpt lat="42.7806820" lon="-1.7404420">
        <ele>455.3</ele>
        <time>2020-03-28T18:15:52Z</time>
      </trkpt>
      <trkpt lat="42.7806380" lon="-1.7403520">
        <ele>455.5</ele>
        <time>2020-03-28T18:15:54Z</time>
      </trkpt>
      <trkpt lat="42.7805940" lon="-1.7402610">
        <ele>455.7</ele>
        <time>2020-03-28T18:15:56Z</time>
      </trkpt>
      <trkpt lat="42.7805500" lon="-1.7401700">
        <ele>455.8</ele>
        <time>2020-03-28T18:15:58Z</time>
      </trkpt>
      <trkpt lat="42.7805060" lon="-1.7400780">
        <ele>455.8</ele>
        <time>2020-03-28T18:16:00Z</time>
      </trkpt>
      <trkpt lat="42.7803890" lon="-1.7398460">
        <ele>456.0</ele>
        <time>2020-03-28T18:16:02Z</time>
      </trkpt>
      <trkpt lat="42.7803140" lon="-1.7397260">
        <ele>456.3</ele>
        <time>2020-03-28T18:16:04Z</time>
      </trkpt>
      <trkpt lat="42.7802290" lon="-1.7396160">
        <ele>456.7</ele>
        <time>2020-03-28T18:16:06Z</time>
      </trkpt>
      <trkpt lat="42.7801420" lon="-1.7395200">
        <ele>457.1</ele>
        <time>2020-03-28T18:16:08Z</time>
      </trkpt>
      <trkpt lat="42.7800740" lon="-1.7394650">
        <ele>457.4</ele>
        <time>2020-03-28T18:16:10Z</time>
      </trkpt>
      <trkpt lat="42.7799660" lon="-1.7393920">
        <ele>458.2</ele>
        <time>2020-03-28T18:16:12Z</time>
      </trkpt>
      <trkpt lat="42.7798580" lon="-1.7393350">
        <ele>459.2</ele>
        <time>2020-03-28T18:16:14Z</time>
      </trkpt>
      <trkpt lat="42.7797820" lon="-1.7392990">
        <ele>459.7</ele>
        <time>2020-03-28T18:16:16Z</time>
      </trkpt>
      <trkpt lat="42.7797070" lon="-1.7392640">
        <ele>460.2</ele>
        <time>2020-03-28T18:16:18Z</time>
      </trkpt>
      <trkpt lat="42.7796320" lon="-1.7392280">
        <ele>460.6</ele>
        <time>2020-03-28T18:16:20Z</time>
      </trkpt>
      <trkpt lat="42.7794470" lon="-1.7391400">
        <ele>461.4</ele>
        <time>2020-03-28T18:16:22Z</time>
      </trkpt>
      <trkpt lat="42.7793770" lon="-1.7391070">
        <ele>461.7</ele>
        <time>2020-03-28T18:16:24Z</time>
      </trkpt>
      <trkpt lat="42.7793100" lon="-1.7390760">
        <ele>462.0</ele>
        <time>2020-03-28T18:16:26Z</time>
      </trkpt>
      <trkpt lat="42.7792460" lon="-1.7390460">
        <ele>462.3</ele>
        <time>2020-03-28T18:16:28Z</time>
      </trkpt>
      <trkpt lat="42.7791840" lon="-1.7390160">
        <ele>462.6</ele>
        <time>2020-03-28T18:16:30Z</time>
      </trkpt>
      <trkpt lat="42.7791220" lon="-1.7389870">
        <ele>462.7</ele>
        <time>2020-03-28T18:16:32Z</time>
      </trkpt>
      <trkpt lat="42.7789180" lon="-1.7388900">
        <ele>463.4</ele>
        <time>2020-03-28T18:16:34Z</time>
      </trkpt>
      <trkpt lat="42.7788590" lon="-1.7388610">
        <ele>464.2</ele>
        <time>2020-03-28T18:16:36Z</time>
      </trkpt>
      <trkpt lat="42.7787990" lon="-1.7388320">
        <ele>464.9</ele>
        <time>2020-03-28T18:16:38Z</time>
      </trkpt>
      <trkpt lat="42.7786850" lon="-1.7387820">
        <ele>466.1</ele>
        <time>2020-03-28T18:16:40Z</time>
      </trkpt>
      <trkpt lat="42.7786250" lon="-1.7387600">
        <ele>466.8</ele>
        <time>2020-03-28T18:16:42Z</time>
      </trkpt>
      <trkpt lat="42.7785130" lon="-1.7387230">
        <ele>467.8</ele>
        <time>2020-03-28T18:16:44Z</time>
      </trkpt>
      <trkpt lat="42.7784530" lon="-1.7387110">
        <ele>468.3</ele>
        <time>2020-03-28T18:16:46Z</time>
      </trkpt>
      <trkpt lat="42.7783470" lon="-1.7386980">
        <ele>469.1</ele>
        <time>2020-03-28T18:16:48Z</time>
      </trkpt>
      <trkpt lat="42.7782700" lon="-1.7386990">
        <ele>469.7</ele>
        <time>2020-03-28T18:16:50Z</time>
      </trkpt>
      <trkpt lat="42.7781390" lon="-1.7387040">
        <ele>470.2</ele>
        <time>2020-03-28T18:16:52Z</time>
      </trkpt>
      <trkpt lat="42.7780210" lon="-1.7387150">
        <ele>470.4</ele>
        <time>2020-03-28T18:16:54Z</time>
      </trkpt>
      <trkpt lat="42.7779450" lon="-1.7387230">
        <ele>470.6</ele>
        <time>2020-03-28T18:16:56Z</time>
      </trkpt>
      <trkpt lat="42.7778200" lon="-1.7387390">
        <ele>470.9</ele>
        <time>2020-03-28T18:16:58Z</time>
      </trkpt>
      <trkpt lat="42.7777480" lon="-1.7387530">
        <ele>471.0</ele>
        <time>2020-03-28T18:17:00Z</time>
      </trkpt>
      <trkpt lat="42.7776770" lon="-1.7387670">
        <ele>471.1</ele>
        <time>2020-03-28T18:17:02Z</time>
      </trkpt>
      <trkpt lat="42.7776060" lon="-1.7387810">
        <ele>471.1</ele>
        <time>2020-03-28T18:17:04Z</time>
      </trkpt>
      <trkpt lat="42.7775380" lon="-1.7387940">
        <ele>471.1</ele>
        <time>2020-03-28T18:17:06Z</time>
      </trkpt>
      <trkpt lat="42.7773320" lon="-1.7388350">
        <ele>471.0</ele>
        <time>2020-03-28T18:17:08Z</time>
      </trkpt>
      <trkpt lat="42.7772600" lon="-1.7388520">
        <ele>470.9</ele>
        <time>2020-03-28T18:17:10Z</time>
      </trkpt>
      <trkpt lat="42.7771800" lon="-1.7388700">
        <ele>470.7</ele>
        <time>2020-03-28T18:17:12Z</time>
      </trkpt>
      <trkpt lat="42.7770940" lon="-1.7388890">
        <ele>470.5</ele>
        <time>2020-03-28T18:17:14Z</time>
      </trkpt>
      <trkpt lat="42.7768910" lon="-1.7389390">
        <ele>469.7</ele>
        <time>2020-03-28T18:17:16Z</time>
      </trkpt>
      <trkpt lat="42.7768010" lon="-1.7389750">
        <ele>469.2</ele>
        <time>2020-03-28T18:17:18Z</time>
      </trkpt>
      <trkpt lat="42.7766580" lon="-1.7390370">
        <ele>468.5</ele>
        <time>2020-03-28T18:17:20Z</time>
      </trkpt>
      <trkpt lat="42.7765610" lon="-1.7390860">
        <ele>468.0</ele>
        <time>2020-03-28T18:17:22Z</time>
      </trkpt>
      <trkpt lat="42.7764610" lon="-1.7391360">
        <ele>467.5</ele>
        <time>2020-03-28T18:17:24Z</time>
      </trkpt>
      <trkpt lat="42.7763590" lon="-1.7391880">
        <ele>467.1</ele>
        <time>2020-03-28T18:17:26Z</time>
      </trkpt>
      <trkpt lat="42.7762540" lon="-1.7392400">
        <ele>466.7</ele>
        <time>2020-03-28T18:17:28Z</time>
      </trkpt>
      <trkpt lat="42.7759810" lon="-1.7393800">
        <ele>465.8</ele>
        <time>2020-03-28T18:17:30Z</time>
      </trkpt>
      <trkpt lat="42.7758330" lon="-1.7394580">
        <ele>465.5</ele>
        <time>2020-03-28T18:17:32Z</time>
      </trkpt>
      <trkpt lat="42.7757410" lon="-1.7395070">
        <ele>465.3</ele>
        <time>2020-03-28T18:17:34Z</time>
      </trkpt>
      <trkpt lat="42.7756510" lon="-1.7395540">
        <ele>465.2</ele>
        <time>2020-03-28T18:17:36Z</time>
      </trkpt>
      <trkpt lat="42.7755640" lon="-1.7396010">
        <ele>465.2</ele>
        <time>2020-03-28T18:17:38Z</time>
      </trkpt>
      <trkpt lat="42.7753570" lon="-1.7397090">
        <ele>465.3</ele>
        <time>2020-03-28T18:17:40Z</time>
      </trkpt>
      <trkpt lat="42.7752740" lon="-1.7397510">
        <ele>465.3</ele>
        <time>2020-03-28T18:17:42Z</time>
      </trkpt>
      <trkpt lat="42.7751910" lon="-1.7397920">
        <ele>465.5</ele>
        <time>2020-03-28T18:17:44Z</time>
      </trkpt>
      <trkpt lat="42.7750080" lon="-1.7398810">
        <ele>466.2</ele>
        <time>2020-03-28T18:17:46Z</time>
      </trkpt>
      <trkpt lat="42.7749230" lon="-1.7399180">
        <ele>466.5</ele>
        <time>2020-03-28T18:17:48Z</time>
      </trkpt>
      <trkpt lat="42.7748360" lon="-1.7399560">
        <ele>466.9</ele>
        <time>2020-03-28T18:17:50Z</time>
      </trkpt>
      <trkpt lat="42.7746610" lon="-1.7400300">
        <ele>467.7</ele>
        <time>2020-03-28T18:17:52Z</time>
      </trkpt>
      <trkpt lat="42.7745740" lon="-1.7400610">
        <ele>467.9</ele>
        <time>2020-03-28T18:17:54Z</time>
      </trkpt>
      <trkpt lat="42.7744890" lon="-1.7400910">
        <ele>468.1</ele>
        <time>2020-03-28T18:17:56Z</time>
      </trkpt>
      <trkpt lat="42.7744050" lon="-1.7401210">
        <ele>468.2</ele>
        <time>2020-03-28T18:17:58Z</time>
      </trkpt>
      <trkpt lat="42.7743210" lon="-1.7401510">
        <ele>468.3</ele>
        <time>2020-03-28T18:18:00Z</time>
      </trkpt>
      <trkpt lat="42.7742380" lon="-1.7401800">
        <ele>468.5</ele>
        <time>2020-03-28T18:18:02Z</time>
      </trkpt>
      <trkpt lat="42.7739760" lon="-1.7402730">
        <ele>468.9</ele>
        <time>2020-03-28T18:18:04Z</time>
      </trkpt>
      <trkpt lat="42.7738610" lon="-1.7403130">
        <ele>469.1</ele>
        <time>2020-03-28T18:18:06Z</time>
      </trkpt>
      <trkpt lat="42.7737740" lon="-1.7403430">
        <ele>469.1</ele>
        <time>2020-03-28T18:18:08Z</time>
      </trkpt>
      <trkpt lat="42.7736310" lon="-1.7403930">
        <ele>469.2</ele>
        <time>2020-03-28T18:18:10Z</time>
      </trkpt>
      <trkpt lat="42.7735450" lon="-1.7404240">
        <ele>469.3</ele>
        <time>2020-03-28T18:18:12Z</time>
      </trkpt>
      <trkpt lat="42.7733700" lon="-1.7404850">
        <ele>469.4</ele>
        <time>2020-03-28T18:18:14Z</time>
      </trkpt>
      <trkpt lat="42.7732840" lon="-1.7405140">
        <ele>469.5</ele>
        <time>2020-03-28T18:18:16Z</time>
      </trkpt>
      <trkpt lat="42.7731390" lon="-1.7405630">
        <ele>469.8</ele>
        <time>2020-03-28T18:18:18Z</time>
      </trkpt>
      <trkpt lat="42.7730560" lon="-1.7405920">
        <ele>469.9</ele>
        <time>2020-03-28T18:18:20Z</time>
      </trkpt>
      <trkpt lat="42.7729770" lon="-1.7406190">
        <ele>470.0</ele>
        <time>2020-03-28T18:18:22Z</time>
      </trkpt>
      <trkpt lat="42.7728960" lon="-1.7406470">
        <ele>470.1</ele>
        <time>2020-03-28T18:18:24Z</time>
      </trkpt>
      <trkpt lat="42.7728150" lon="-1.7406750">
        <ele>470.2</ele>
        <time>2020-03-28T18:18:26Z</time>
      </trkpt>
      <trkpt lat="42.7727330" lon="-1.7407020">
        <ele>470.2</ele>
        <time>2020-03-28T18:18:28Z</time>
      </trkpt>
      <trkpt lat="42.7726520" lon="-1.7407310">
        <ele>470.2</ele>
        <time>2020-03-28T18:18:30Z</time>
      </trkpt>
      <trkpt lat="42.7723640" lon="-1.7408290">
        <ele>470.2</ele>
        <time>2020-03-28T18:18:32Z</time>
      </trkpt>
      <trkpt lat="42.7722820" lon="-1.7408580">
        <ele>470.2</ele>
        <time>2020-03-28T18:18:34Z</time>
      </trkpt>
      <trkpt lat="42.7722000" lon="-1.7408860">
        <ele>470.3</ele>
        <time>2020-03-28T18:18:36Z</time>
      </trkpt>
      <trkpt lat="42.7720540" lon="-1.7409380">
        <ele>470.3</ele>
        <time>2020-03-28T18:18:38Z</time>
      </trkpt>
      <trkpt lat="42.7719710" lon="-1.7409680">
        <ele>470.4</ele>
        <time>2020-03-28T18:18:40Z</time>
      </trkpt>
      <trkpt lat="42.7718910" lon="-1.7409970">
        <ele>470.5</ele>
        <time>2020-03-28T18:18:42Z</time>
      </trkpt>
      <trkpt lat="42.7718090" lon="-1.7410260">
        <ele>470.7</ele>
        <time>2020-03-28T18:18:44Z</time>
      </trkpt>
      <trkpt lat="42.7715870" lon="-1.7411060">
        <ele>471.4</ele>
        <time>2020-03-28T18:18:46Z</time>
      </trkpt>
      <trkpt lat="42.7715060" lon="-1.7411360">
        <ele>471.7</ele>
        <time>2020-03-28T18:18:48Z</time>
      </trkpt>
      <trkpt lat="42.7713890" lon="-1.7411770">
        <ele>472.1</ele>
        <time>2020-03-28T18:18:50Z</time>
      </trkpt>
      <trkpt lat="42.7713070" lon="-1.7412050">
        <ele>472.4</ele>
        <time>2020-03-28T18:18:52Z</time>
      </trkpt>
      <trkpt lat="42.7712250" lon="-1.7412340">
        <ele>472.8</ele>
        <time>2020-03-28T18:18:54Z</time>
      </trkpt>
      <trkpt lat="42.7711430" lon="-1.7412620">
        <ele>473.2</ele>
        <time>2020-03-28T18:18:56Z</time>
      </trkpt>
      <trkpt lat="42.7710610" lon="-1.7412900">
        <ele>473.7</ele>
        <time>2020-03-28T18:18:58Z</time>
      </trkpt>
      <trkpt lat="42.7708080" lon="-1.7413750">
        <ele>474.9</ele>
        <time>2020-03-28T18:19:00Z</time>
      </trkpt>
      <trkpt lat="42.7707240" lon="-1.7414010">
        <ele>475.1</ele>
        <time>2020-03-28T18:19:02Z</time>
      </trkpt>
      <trkpt lat="42.7705820" lon="-1.7414380">
        <ele>475.4</ele>
        <time>2020-03-28T18:19:04Z</time>
      </trkpt>
      <trkpt lat="42.7704990" lon="-1.7414490">
        <ele>475.6</ele>
        <time>2020-03-28T18:19:06Z</time>
      </trkpt>
      <trkpt lat="42.7703670" lon="-1.7414540">
        <ele>476.0</ele>
        <time>2020-03-28T18:19:08Z</time>
      </trkpt>
      <trkpt lat="42.7702910" lon="-1.7414450">
        <ele>476.3</ele>
        <time>2020-03-28T18:19:10Z</time>
      </trkpt>
      <trkpt lat="42.7701620" lon="-1.7414260">
        <ele>476.9</ele>
        <time>2020-03-28T18:19:12Z</time>
      </trkpt>
      <trkpt lat="42.7700880" lon="-1.7414140">
        <ele>477.2</ele>
        <time>2020-03-28T18:19:14Z</time>
      </trkpt>
      <trkpt lat="42.7699620" lon="-1.7413910">
        <ele>477.7</ele>
        <time>2020-03-28T18:19:16Z</time>
      </trkpt>
      <trkpt lat="42.7698920" lon="-1.7413770">
        <ele>478.0</ele>
        <time>2020-03-28T18:19:18Z</time>
      </trkpt>
      <trkpt lat="42.7698230" lon="-1.7413620">
        <ele>478.3</ele>
        <time>2020-03-28T18:19:20Z</time>
      </trkpt>
      <trkpt lat="42.7697550" lon="-1.7413480">
        <ele>478.6</ele>
        <time>2020-03-28T18:19:22Z</time>
      </trkpt>
      <trkpt lat="42.7695750" lon="-1.7413110">
        <ele>479.3</ele>
        <time>2020-03-28T18:19:24Z</time>
      </trkpt>
      <trkpt lat="42.7695020" lon="-1.7412960">
        <ele>479.6</ele>
        <time>2020-03-28T18:19:26Z</time>
      </trkpt>
      <trkpt lat="42.7694250" lon="-1.7412810">
        <ele>479.9</ele>
        <time>2020-03-28T18:19:28Z</time>
      </trkpt>
      <trkpt lat="42.7693490" lon="-1.7412660">
        <ele>480.3</ele>
        <time>2020-03-28T18:19:30Z</time>
      </trkpt>
      <trkpt lat="42.7692740" lon="-1.7412510">
        <ele>480.5</ele>
        <time>2020-03-28T18:19:32Z</time>
      </trkpt>
      <trkpt lat="42.7692010" lon="-1.7412370">
        <ele>480.7</ele>
        <time>2020-03-28T18:19:34Z</time>
      </trkpt>
      <trkpt lat="42.7691280" lon="-1.7412220">
        <ele>480.9</ele>
        <time>2020-03-28T18:19:36Z</time>
      </trkpt>
      <trkpt lat="42.7688880" lon="-1.7411750">
        <ele>480.5</ele>
        <time>2020-03-28T18:19:38Z</time>
      </trkpt>
      <trkpt lat="42.7688160" lon="-1.7411600">
        <ele>480.2</ele>
        <time>2020-03-28T18:19:40Z</time>
      </trkpt>
      <trkpt lat="42.7687450" lon="-1.7411460">
        <ele>480.1</ele>
        <time>2020-03-28T18:19:42Z</time>
      </trkpt>
      <trkpt lat="42.7685800" lon="-1.7411140">
        <ele>480.0</ele>
        <time>2020-03-28T18:19:44Z</time>
      </trkpt>
      <trkpt lat="42.7685100" lon="-1.7411000">
        <ele>480.0</ele>
        <time>2020-03-28T18:19:46Z</time>
      </trkpt>
      <trkpt lat="42.7684400" lon="-1.7410870">
        <ele>479.9</ele>
        <time>2020-03-28T18:19:48Z</time>
      </trkpt>
      <trkpt lat="42.7682970" lon="-1.7410590">
        <ele>479.9</ele>
        <time>2020-03-28T18:19:50Z</time>
      </trkpt>
      <trkpt lat="42.7682000" lon="-1.7410410">
        <ele>479.9</ele>
        <time>2020-03-28T18:19:52Z</time>
      </trkpt>
      <trkpt lat="42.7681370" lon="-1.7410270">
        <ele>480.4</ele>
        <time>2020-03-28T18:19:54Z</time>
      </trkpt>
      <trkpt lat="42.7680730" lon="-1.7410140">
        <ele>480.9</ele>
        <time>2020-03-28T18:19:56Z</time>
      </trkpt>
      <trkpt lat="42.7680100" lon="-1.7410000">
        <ele>481.4</ele>
        <time>2020-03-28T18:19:58Z</time>
      </trkpt>
      <trkpt lat="42.7679460" lon="-1.7409860">
        <ele>481.9</ele>
        <time>2020-03-28T18:20:00Z</time>
      </trkpt>
      <trkpt lat="42.7678840" lon="-1.7409720">
        <ele>482.5</ele>
        <time>2020-03-28T18:20:02Z</time>
      </trkpt>
      <trkpt lat="42.7678230" lon="-1.7409590">
        <ele>482.9</ele>
        <time>2020-03-28T18:20:04Z</time>
      </trkpt>
      <trkpt lat="42.7676240" lon="-1.7409200">
        <ele>484.4</ele>
        <time>2020-03-28T18:20:06Z</time>
      </trkpt>
      <trkpt lat="42.7675630" lon="-1.7409120">
        <ele>484.9</ele>
        <time>2020-03-28T18:20:08Z</time>
      </trkpt>
      <trkpt lat="42.7675040" lon="-1.7409040">
        <ele>485.3</ele>
        <time>2020-03-28T18:20:10Z</time>
      </trkpt>
      <trkpt lat="42.7673710" lon="-1.7408890">
        <ele>486.3</ele>
        <time>2020-03-28T18:20:12Z</time>
      </trkpt>
      <trkpt lat="42.7673130" lon="-1.7408870">
        <ele>486.7</ele>
        <time>2020-03-28T18:20:14Z</time>
      </trkpt>
      <trkpt lat="42.7672540" lon="-1.7408840">
        <ele>487.2</ele>
        <time>2020-03-28T18:20:16Z</time>
      </trkpt>
      <trkpt lat="42.7671230" lon="-1.7408790">
        <ele>488.3</ele>
        <time>2020-03-28T18:20:18Z</time>
      </trkpt>
      <trkpt lat="42.7670650" lon="-1.7408810">
        <ele>488.8</ele>
        <time>2020-03-28T18:20:20Z</time>
      </trkpt>
      <trkpt lat="42.7670070" lon="-1.7408820">
        <ele>489.4</ele>
        <time>2020-03-28T18:20:22Z</time>
      </trkpt>
      <trkpt lat="42.7668880" lon="-1.7408850">
        <ele>490.8</ele>
        <time>2020-03-28T18:20:24Z</time>
      </trkpt>
      <trkpt lat="42.7668230" lon="-1.7408870">
        <ele>491.0</ele>
        <time>2020-03-28T18:20:26Z</time>
      </trkpt>
      <trkpt lat="42.7667100" lon="-1.7408900">
        <ele>491.4</ele>
        <time>2020-03-28T18:20:28Z</time>
      </trkpt>
      <trkpt lat="42.7666440" lon="-1.7408950">
        <ele>491.4</ele>
        <time>2020-03-28T18:20:30Z</time>
      </trkpt>
      <trkpt lat="42.7665440" lon="-1.7409020">
        <ele>491.4</ele>
        <time>2020-03-28T18:20:32Z</time>
      </trkpt>
      <trkpt lat="42.7664810" lon="-1.7409070">
        <ele>491.4</ele>
        <time>2020-03-28T18:20:34Z</time>
      </trkpt>
      <trkpt lat="42.7663620" lon="-1.7409180">
        <ele>491.3</ele>
        <time>2020-03-28T18:20:36Z</time>
      </trkpt>
      <trkpt lat="42.7662980" lon="-1.7409280">
        <ele>491.2</ele>
        <time>2020-03-28T18:20:38Z</time>
      </trkpt>
      <trkpt lat="42.7662380" lon="-1.7409370">
        <ele>491.1</ele>
        <time>2020-03-28T18:20:40Z</time>
      </trkpt>
      <trkpt lat="42.7661310" lon="-1.7409560">
        <ele>491.0</ele>
        <time>2020-03-28T18:20:42Z</time>
      </trkpt>
      <trkpt lat="42.7660420" lon="-1.7409780">
        <ele>491.0</ele>
        <time>2020-03-28T18:20:44Z</time>
      </trkpt>
      <trkpt lat="42.7659610" lon="-1.7410160">
        <ele>491.1</ele>
        <time>2020-03-28T18:20:46Z</time>
      </trkpt>
      <trkpt lat="42.7659010" lon="-1.7410500">
        <ele>491.4</ele>
        <time>2020-03-28T18:20:48Z</time>
      </trkpt>
      <trkpt lat="42.7658360" lon="-1.7410860">
        <ele>491.8</ele>
        <time>2020-03-28T18:20:50Z</time>
      </trkpt>
      <trkpt lat="42.7657220" lon="-1.7411580">
        <ele>492.4</ele>
        <time>2020-03-28T18:20:52Z</time>
      </trkpt>
      <trkpt lat="42.7656530" lon="-1.7412060">
        <ele>492.7</ele>
        <time>2020-03-28T18:20:54Z</time>
      </trkpt>
      <trkpt lat="42.7655210" lon="-1.7412960">
        <ele>493.2</ele>
        <time>2020-03-28T18:20:56Z</time>
      </trkpt>
      <trkpt lat="42.7654440" lon="-1.7413360">
        <ele>493.2</ele>
        <time>2020-03-28T18:20:58Z</time>
      </trkpt>
      <trkpt lat="42.7653000" lon="-1.7414110">
        <ele>493.2</ele>
        <time>2020-03-28T18:21:00Z</time>
      </trkpt>
      <trkpt lat="42.7652000" lon="-1.7414520">
        <ele>493.2</ele>
        <time>2020-03-28T18:21:02Z</time>
      </trkpt>
      <trkpt lat="42.7650900" lon="-1.7414870">
        <ele>493.2</ele>
        <time>2020-03-28T18:21:04Z</time>
      </trkpt>
      <trkpt lat="42.7649810" lon="-1.7415140">
        <ele>493.2</ele>
        <time>2020-03-28T18:21:06Z</time>
      </trkpt>
      <trkpt lat="42.7648790" lon="-1.7415320">
        <ele>493.1</ele>
        <time>2020-03-28T18:21:08Z</time>
      </trkpt>
      <trkpt lat="42.7647780" lon="-1.7415490">
        <ele>493.4</ele>
        <time>2020-03-28T18:21:10Z</time>
      </trkpt>
      <trkpt lat="42.7647000" lon="-1.7415620">
        <ele>493.8</ele>
        <time>2020-03-28T18:21:12Z</time>
      </trkpt>
      <trkpt lat="42.7645650" lon="-1.7415790">
        <ele>494.5</ele>
        <time>2020-03-28T18:21:14Z</time>
      </trkpt>
      <trkpt lat="42.7644860" lon="-1.7415890">
        <ele>495.0</ele>
        <time>2020-03-28T18:21:16Z</time>
      </trkpt>
      <trkpt lat="42.7643300" lon="-1.7416060">
        <ele>496.0</ele>
        <time>2020-03-28T18:21:18Z</time>
      </trkpt>
      <trkpt lat="42.7642210" lon="-1.7416150">
        <ele>496.6</ele>
        <time>2020-03-28T18:21:20Z</time>
      </trkpt>
      <trkpt lat="42.7641410" lon="-1.7416190">
        <ele>497.2</ele>
        <time>2020-03-28T18:21:22Z</time>
      </trkpt>
      <trkpt lat="42.7640110" lon="-1.7416240">
        <ele>498.0</ele>
        <time>2020-03-28T18:21:24Z</time>
      </trkpt>
      <trkpt lat="42.7639270" lon="-1.7416260">
        <ele>498.5</ele>
        <time>2020-03-28T18:21:26Z</time>
      </trkpt>
      <trkpt lat="42.7638410" lon="-1.7416280">
        <ele>499.0</ele>
        <time>2020-03-28T18:21:28Z</time>
      </trkpt>
      <trkpt lat="42.7637540" lon="-1.7416300">
        <ele>499.4</ele>
        <time>2020-03-28T18:21:30Z</time>
      </trkpt>
      <trkpt lat="42.7635420" lon="-1.7416350">
        <ele>500.5</ele>
        <time>2020-03-28T18:21:32Z</time>
      </trkpt>
      <trkpt lat="42.7634330" lon="-1.7416380">
        <ele>500.8</ele>
        <time>2020-03-28T18:21:34Z</time>
      </trkpt>
      <trkpt lat="42.7633470" lon="-1.7416400">
        <ele>501.2</ele>
        <time>2020-03-28T18:21:36Z</time>
      </trkpt>
      <trkpt lat="42.7632630" lon="-1.7416420">
        <ele>501.5</ele>
        <time>2020-03-28T18:21:38Z</time>
      </trkpt>
      <trkpt lat="42.7631790" lon="-1.7416440">
        <ele>501.8</ele>
        <time>2020-03-28T18:21:40Z</time>
      </trkpt>
      <trkpt lat="42.7630950" lon="-1.7416460">
        <ele>502.0</ele>
        <time>2020-03-28T18:21:42Z</time>
      </trkpt>
      <trkpt lat="42.7628610" lon="-1.7416510">
        <ele>502.9</ele>
        <time>2020-03-28T18:21:44Z</time>
      </trkpt>
      <trkpt lat="42.7627810" lon="-1.7416530">
        <ele>503.1</ele>
        <time>2020-03-28T18:21:46Z</time>
      </trkpt>
      <trkpt lat="42.7626280" lon="-1.7416570">
        <ele>503.7</ele>
        <time>2020-03-28T18:21:48Z</time>
      </trkpt>
      <trkpt lat="42.7625480" lon="-1.7416580">
        <ele>504.0</ele>
        <time>2020-03-28T18:21:50Z</time>
      </trkpt>
      <trkpt lat="42.7624680" lon="-1.7416600">
        <ele>504.4</ele>
        <time>2020-03-28T18:21:52Z</time>
      </trkpt>
      <trkpt lat="42.7623870" lon="-1.7416620">
        <ele>504.7</ele>
        <time>2020-03-28T18:21:54Z</time>
      </trkpt>
      <trkpt lat="42.7621930" lon="-1.7416660">
        <ele>505.5</ele>
        <time>2020-03-28T18:21:56Z</time>
      </trkpt>
      <trkpt lat="42.7620900" lon="-1.7416660">
        <ele>505.9</ele>
        <time>2020-03-28T18:21:58Z</time>
      </trkpt>
      <trkpt lat="42.7620090" lon="-1.7416670">
        <ele>506.2</ele>
        <time>2020-03-28T18:22:00Z</time>
      </trkpt>
      <trkpt lat="42.7619280" lon="-1.7416680">
        <ele>506.4</ele>
        <time>2020-03-28T18:22:02Z</time>
      </trkpt>
      <trkpt lat="42.7617500" lon="-1.7416690">
        <ele>506.7</ele>
        <time>2020-03-28T18:22:04Z</time>
      </trkpt>
      <trkpt lat="42.7616630" lon="-1.7416710">
        <ele>507.0</ele>
        <time>2020-03-28T18:22:06Z</time>
      </trkpt>
      <trkpt lat="42.7615730" lon="-1.7416730">
        <ele>507.2</ele>
        <time>2020-03-28T18:22:08Z</time>
      </trkpt>
      <trkpt lat="42.7614850" lon="-1.7416740">
        <ele>507.4</ele>
        <time>2020-03-28T18:22:10Z</time>
      </trkpt>
      <trkpt lat="42.7612860" lon="-1.7416760">
        <ele>507.9</ele>
        <time>2020-03-28T18:22:12Z</time>
      </trkpt>
      <trkpt lat="42.7612000" lon="-1.7416740">
        <ele>508.2</ele>
        <time>2020-03-28T18:22:14Z</time>
      </trkpt>
      <trkpt lat="42.7610450" lon="-1.7416670">
        <ele>508.9</ele>
        <time>2020-03-28T18:22:16Z</time>
      </trkpt>
      <trkpt lat="42.7609130" lon="-1.7416520">
        <ele>509.5</ele>
        <time>2020-03-28T18:22:18Z</time>
      </trkpt>
      <trkpt lat="42.7608300" lon="-1.7416320">
        <ele>510.0</ele>
        <time>2020-03-28T18:22:20Z</time>
      </trkpt>
      <trkpt lat="42.7607460" lon="-1.7416120">
        <ele>510.3</ele>
        <time>2020-03-28T18:22:22Z</time>
      </trkpt>
      <trkpt lat="42.7605930" lon="-1.7415740">
        <ele>510.9</ele>
        <time>2020-03-28T18:22:24Z</time>
      </trkpt>
      <trkpt lat="42.7605140" lon="-1.7415530">
        <ele>511.2</ele>
        <time>2020-03-28T18:22:26Z</time>
      </trkpt>
      <trkpt lat="42.7604340" lon="-1.7415320">
        <ele>511.4</ele>
        <time>2020-03-28T18:22:28Z</time>
      </trkpt>
      <trkpt lat="42.7603560" lon="-1.7415110">
        <ele>511.6</ele>
        <time>2020-03-28T18:22:30Z</time>
      </trkpt>
      <trkpt lat="42.7601600" lon="-1.7414580">
        <ele>512.2</ele>
        <time>2020-03-28T18:22:32Z</time>
      </trkpt>
      <trkpt lat="42.7600620" lon="-1.7414310">
        <ele>512.4</ele>
        <time>2020-03-28T18:22:34Z</time>
      </trkpt>
      <trkpt lat="42.7599880" lon="-1.7414100">
        <ele>512.5</ele>
        <time>2020-03-28T18:22:36Z</time>
      </trkpt>
      <trkpt lat="42.7599150" lon="-1.7413900">
        <ele>512.6</ele>
        <time>2020-03-28T18:22:38Z</time>
      </trkpt>
      <trkpt lat="42.7597610" lon="-1.7413490">
        <ele>513.0</ele>
        <time>2020-03-28T18:22:40Z</time>
      </trkpt>
      <trkpt lat="42.7596890" lon="-1.7413300">
        <ele>513.2</ele>
        <time>2020-03-28T18:22:42Z</time>
      </trkpt>
      <trkpt lat="42.7596160" lon="-1.7413120">
        <ele>513.4</ele>
        <time>2020-03-28T18:22:44Z</time>
      </trkpt>
      <trkpt lat="42.7594580" lon="-1.7412710">
        <ele>514.0</ele>
        <time>2020-03-28T18:22:46Z</time>
      </trkpt>
      <trkpt lat="42.7593910" lon="-1.7412520">
        <ele>514.2</ele>
        <time>2020-03-28T18:22:48Z</time>
      </trkpt>
      <trkpt lat="42.7592820" lon="-1.7412220">
        <ele>514.7</ele>
        <time>2020-03-28T18:22:50Z</time>
      </trkpt>
      <trkpt lat="42.7592180" lon="-1.7412040">
        <ele>514.9</ele>
        <time>2020-03-28T18:22:52Z</time>
      </trkpt>
      <trkpt lat="42.7591100" lon="-1.7411740">
        <ele>515.4</ele>
        <time>2020-03-28T18:22:54Z</time>
      </trkpt>
      <trkpt lat="42.7590470" lon="-1.7411580">
        <ele>515.7</ele>
        <time>2020-03-28T18:22:56Z</time>
      </trkpt>
      <trkpt lat="42.7589860" lon="-1.7411410">
        <ele>516.0</ele>
        <time>2020-03-28T18:22:58Z</time>
      </trkpt>
      <trkpt lat="42.7589240" lon="-1.7411250">
        <ele>516.3</ele>
        <time>2020-03-28T18:23:00Z</time>
      </trkpt>
      <trkpt lat="42.7588620" lon="-1.7411090">
        <ele>516.5</ele>
        <time>2020-03-28T18:23:02Z</time>
      </trkpt>
      <trkpt lat="42.7588010" lon="-1.7410930">
        <ele>516.8</ele>
        <time>2020-03-28T18:23:04Z</time>
      </trkpt>
      <trkpt lat="42.7587400" lon="-1.7410770">
        <ele>517.1</ele>
        <time>2020-03-28T18:23:06Z</time>
      </trkpt>
      <trkpt lat="42.7585110" lon="-1.7410180">
        <ele>518.2</ele>
        <time>2020-03-28T18:23:08Z</time>
      </trkpt>
      <trkpt lat="42.7584440" lon="-1.7410000">
        <ele>518.6</ele>
        <time>2020-03-28T18:23:10Z</time>
      </trkpt>
      <trkpt lat="42.7583710" lon="-1.7409820">
        <ele>519.0</ele>
        <time>2020-03-28T18:23:12Z</time>
      </trkpt>
      <trkpt lat="42.7582400" lon="-1.7409480">
        <ele>519.8</ele>
        <time>2020-03-28T18:23:14Z</time>
      </trkpt>
      <trkpt lat="42.7581690" lon="-1.7409280">
        <ele>520.3</ele>
        <time>2020-03-28T18:23:16Z</time>
      </trkpt>
      <trkpt lat="42.7580330" lon="-1.7408920">
        <ele>521.2</ele>
        <time>2020-03-28T18:23:18Z</time>
      </trkpt>
      <trkpt lat="42.7579640" lon="-1.7408740">
        <ele>521.4</ele>
        <time>2020-03-28T18:23:20Z</time>
      </trkpt>
      <trkpt lat="42.7578620" lon="-1.7408490">
        <ele>521.6</ele>
        <time>2020-03-28T18:23:22Z</time>
      </trkpt>
      <trkpt lat="42.7577950" lon="-1.7408330">
        <ele>521.7</ele>
        <time>2020-03-28T18:23:24Z</time>
      </trkpt>
      <trkpt lat="42.7576770" lon="-1.7408020">
        <ele>522.0</ele>
        <time>2020-03-28T18:23:26Z</time>
      </trkpt>
      <trkpt lat="42.7576120" lon="-1.7407810">
        <ele>522.1</ele>
        <time>2020-03-28T18:23:28Z</time>
      </trkpt>
      <trkpt lat="42.7575120" lon="-1.7407500">
        <ele>522.3</ele>
        <time>2020-03-28T18:23:30Z</time>
      </trkpt>
      <trkpt lat="42.7574120" lon="-1.7407200">
        <ele>522.5</ele>
        <time>2020-03-28T18:23:32Z</time>
      </trkpt>
      <trkpt lat="42.7573490" lon="-1.7407070">
        <ele>522.6</ele>
        <time>2020-03-28T18:23:34Z</time>
      </trkpt>
      <trkpt lat="42.7572420" lon="-1.7406850">
        <ele>522.7</ele>
        <time>2020-03-28T18:23:36Z</time>
      </trkpt>
      <trkpt lat="42.7571790" lon="-1.7406760">
        <ele>522.8</ele>
        <time>2020-03-28T18:23:38Z</time>
      </trkpt>
      <trkpt lat="42.7570830" lon="-1.7406700">
        <ele>523.1</ele>
        <time>2020-03-28T18:23:40Z</time>
      </trkpt>
      <trkpt lat="42.7570190" lon="-1.7406710">
        <ele>523.4</ele>
        <time>2020-03-28T18:23:42Z</time>
      </trkpt>
      <trkpt lat="42.7569090" lon="-1.7406850">
        <ele>523.9</ele>
        <time>2020-03-28T18:23:44Z</time>
      </trkpt>
      <trkpt lat="42.7568140" lon="-1.7407120">
        <ele>524.4</ele>
        <time>2020-03-28T18:23:46Z</time>
      </trkpt>
      <trkpt lat="42.7567260" lon="-1.7407430">
        <ele>524.8</ele>
        <time>2020-03-28T18:23:48Z</time>
      </trkpt>
      <trkpt lat="42.7566650" lon="-1.7407690">
        <ele>525.1</ele>
        <time>2020-03-28T18:23:50Z</time>
      </trkpt>
      <trkpt lat="42.7565670" lon="-1.7408100">
        <ele>525.6</ele>
        <time>2020-03-28T18:23:52Z</time>
      </trkpt>
      <trkpt lat="42.7564500" lon="-1.7408600">
        <ele>525.9</ele>
        <time>2020-03-28T18:23:54Z</time>
      </trkpt>
      <trkpt lat="42.7563670" lon="-1.7408950">
        <ele>526.0</ele>
        <time>2020-03-28T18:23:56Z</time>
      </trkpt>
      <trkpt lat="42.7562030" lon="-1.7409280">
        <ele>526.3</ele>
        <time>2020-03-28T18:23:58Z</time>
      </trkpt>
      <trkpt lat="42.7560780" lon="-1.7409230">
        <ele>526.2</ele>
        <time>2020-03-28T18:24:00Z</time>
      </trkpt>
      <trkpt lat="42.7559490" lon="-1.7409220">
        <ele>525.6</ele>
        <time>2020-03-28T18:24:02Z</time>
      </trkpt>
      <trkpt lat="42.7558130" lon="-1.7409370">
        <ele>525.2</ele>
        <time>2020-03-28T18:24:04Z</time>
      </trkpt>
      <trkpt lat="42.7556560" lon="-1.7409690">
        <ele>525.0</ele>
        <time>2020-03-28T18:24:06Z</time>
      </trkpt>
      <trkpt lat="42.7554870" lon="-1.7409990">
        <ele>524.8</ele>
        <time>2020-03-28T18:24:08Z</time>
      </trkpt>
      <trkpt lat="42.7553700" lon="-1.7410120">
        <ele>524.3</ele>
        <time>2020-03-28T18:24:10Z</time>
      </trkpt>
      <trkpt lat="42.7551790" lon="-1.7410330">
        <ele>523.6</ele>
        <time>2020-03-28T18:24:12Z</time>
      </trkpt>
      <trkpt lat="42.7550260" lon="-1.7410550">
        <ele>523.3</ele>
        <time>2020-03-28T18:24:14Z</time>
      </trkpt>
      <trkpt lat="42.7548600" lon="-1.7410830">
        <ele>523.3</ele>
        <time>2020-03-28T18:24:16Z</time>
      </trkpt>
      <trkpt lat="42.7546560" lon="-1.7411160">
        <ele>523.2</ele>
        <time>2020-03-28T18:24:18Z</time>
      </trkpt>
      <trkpt lat="42.7545140" lon="-1.7411840">
        <ele>523.2</ele>
        <time>2020-03-28T18:24:20Z</time>
      </trkpt>
      <trkpt lat="42.7544080" lon="-1.7412670">
        <ele>523.0</ele>
        <time>2020-03-28T18:24:22Z</time>
      </trkpt>
      <trkpt lat="42.7543010" lon="-1.7413500">
        <ele>522.7</ele>
        <time>2020-03-28T18:24:24Z</time>
      </trkpt>
      <trkpt lat="42.7541940" lon="-1.7414340">
        <ele>522.5</ele>
        <time>2020-03-28T18:24:26Z</time>
      </trkpt>
      <trkpt lat="42.7540860" lon="-1.7415180">
        <ele>522.0</ele>
        <time>2020-03-28T18:24:28Z</time>
      </trkpt>
      <trkpt lat="42.7537780" lon="-1.7417580">
        <ele>521.1</ele>
        <time>2020-03-28T18:24:30Z</time>
      </trkpt>
      <trkpt lat="42.7536660" lon="-1.7418460">
        <ele>520.6</ele>
        <time>2020-03-28T18:24:32Z</time>
      </trkpt>
      <trkpt lat="42.7535520" lon="-1.7419340">
        <ele>519.9</ele>
        <time>2020-03-28T18:24:34Z</time>
      </trkpt>
      <trkpt lat="42.7534370" lon="-1.7420240">
        <ele>519.4</ele>
        <time>2020-03-28T18:24:36Z</time>
      </trkpt>
      <trkpt lat="42.7533200" lon="-1.7421150">
        <ele>519.2</ele>
        <time>2020-03-28T18:24:38Z</time>
      </trkpt>
      <trkpt lat="42.7530040" lon="-1.7423620">
        <ele>518.6</ele>
        <time>2020-03-28T18:24:40Z</time>
      </trkpt>
      <trkpt lat="42.7528870" lon="-1.7424530">
        <ele>518.2</ele>
        <time>2020-03-28T18:24:42Z</time>
      </trkpt>
      <trkpt lat="42.7527680" lon="-1.7425460">
        <ele>517.8</ele>
        <time>2020-03-28T18:24:44Z</time>
      </trkpt>
      <trkpt lat="42.7526480" lon="-1.7426390">
        <ele>517.4</ele>
        <time>2020-03-28T18:24:46Z</time>
      </trkpt>
      <trkpt lat="42.7525270" lon="-1.7427340">
        <ele>517.2</ele>
        <time>2020-03-28T18:24:48Z</time>
      </trkpt>
      <trkpt lat="42.7522110" lon="-1.7429810">
        <ele>517.1</ele>
        <time>2020-03-28T18:24:50Z</time>
      </trkpt>
      <trkpt lat="42.7521010" lon="-1.7430660">
        <ele>517.1</ele>
        <time>2020-03-28T18:24:52Z</time>
      </trkpt>
      <trkpt lat="42.7519030" lon="-1.7432220">
        <ele>517.5</ele>
        <time>2020-03-28T18:24:54Z</time>
      </trkpt>
      <trkpt lat="42.7518010" lon="-1.7433010">
        <ele>517.9</ele>
        <time>2020-03-28T18:24:56Z</time>
      </trkpt>
      <trkpt lat="42.7517040" lon="-1.7433780">
        <ele>518.3</ele>
        <time>2020-03-28T18:24:58Z</time>
      </trkpt>
      <trkpt lat="42.7515080" lon="-1.7435440">
        <ele>518.7</ele>
        <time>2020-03-28T18:25:00Z</time>
      </trkpt>
      <trkpt lat="42.7514240" lon="-1.7436290">
        <ele>518.3</ele>
        <time>2020-03-28T18:25:02Z</time>
      </trkpt>
      <trkpt lat="42.7512930" lon="-1.7437670">
        <ele>517.7</ele>
        <time>2020-03-28T18:25:04Z</time>
      </trkpt>
      <trkpt lat="42.7512050" lon="-1.7438760">
        <ele>518.6</ele>
        <time>2020-03-28T18:25:06Z</time>
      </trkpt>
      <trkpt lat="42.7511570" lon="-1.7439420">
        <ele>519.8</ele>
        <time>2020-03-28T18:25:08Z</time>
      </trkpt>
      <trkpt lat="42.7510750" lon="-1.7440590">
        <ele>521.5</ele>
        <time>2020-03-28T18:25:10Z</time>
      </trkpt>
      <trkpt lat="42.7510420" lon="-1.7441170">
        <ele>522.2</ele>
        <time>2020-03-28T18:25:12Z</time>
      </trkpt>
      <trkpt lat="42.7510110" lon="-1.7441710">
        <ele>523.0</ele>
        <time>2020-03-28T18:25:14Z</time>
      </trkpt>
      <trkpt lat="42.7509820" lon="-1.7442220">
        <ele>523.6</ele>
        <time>2020-03-28T18:25:16Z</time>
      </trkpt>
      <trkpt lat="42.7509550" lon="-1.7442710">
        <ele>524.1</ele>
        <time>2020-03-28T18:25:18Z</time>
      </trkpt>
      <trkpt lat="42.7509280" lon="-1.7443190">
        <ele>524.5</ele>
        <time>2020-03-28T18:25:20Z</time>
      </trkpt>
      <trkpt lat="42.7508460" lon="-1.7444760">
        <ele>526.2</ele>
        <time>2020-03-28T18:25:22Z</time>
      </trkpt>
      <trkpt lat="42.7508260" lon="-1.7445280">
        <ele>526.7</ele>
        <time>2020-03-28T18:25:24Z</time>
      </trkpt>
      <trkpt lat="42.7508050" lon="-1.7445810">
        <ele>527.3</ele>
        <time>2020-03-28T18:25:26Z</time>
      </trkpt>
      <trkpt lat="42.7507840" lon="-1.7446340">
        <ele>528.0</ele>
        <time>2020-03-28T18:25:28Z</time>
      </trkpt>
      <trkpt lat="42.7507630" lon="-1.7446870">
        <ele>528.7</ele>
        <time>2020-03-28T18:25:30Z</time>
      </trkpt>
      <trkpt lat="42.7507120" lon="-1.7448340">
        <ele>530.0</ele>
        <time>2020-03-28T18:25:32Z</time>
      </trkpt>
      <trkpt lat="42.7506970" lon="-1.7448900">
        <ele>530.6</ele>
        <time>2020-03-28T18:25:34Z</time>
      </trkpt>
      <trkpt lat="42.7506820" lon="-1.7449470">
        <ele>531.3</ele>
        <time>2020-03-28T18:25:36Z</time>
      </trkpt>
      <trkpt lat="42.7506670" lon="-1.7450040">
        <ele>531.9</ele>
        <time>2020-03-28T18:25:38Z</time>
      </trkpt>
      <trkpt lat="42.7506280" lon="-1.7451560">
        <ele>533.5</ele>
        <time>2020-03-28T18:25:40Z</time>
      </trkpt>
      <trkpt lat="42.7506170" lon="-1.7452160">
        <ele>534.0</ele>
        <time>2020-03-28T18:25:42Z</time>
      </trkpt>
      <trkpt lat="42.7506080" lon="-1.7452730">
        <ele>534.4</ele>
        <time>2020-03-28T18:25:44Z</time>
      </trkpt>
      <trkpt lat="42.7505980" lon="-1.7453300">
        <ele>534.8</ele>
        <time>2020-03-28T18:25:46Z</time>
      </trkpt>
      <trkpt lat="42.7505760" lon="-1.7454650">
        <ele>535.7</ele>
        <time>2020-03-28T18:25:48Z</time>
      </trkpt>
      <trkpt lat="42.7505680" lon="-1.7455220">
        <ele>536.1</ele>
        <time>2020-03-28T18:25:50Z</time>
      </trkpt>
      <trkpt lat="42.7505590" lon="-1.7455790">
        <ele>536.5</ele>
        <time>2020-03-28T18:25:52Z</time>
      </trkpt>
      <trkpt lat="42.7505510" lon="-1.7456360">
        <ele>536.9</ele>
        <time>2020-03-28T18:25:54Z</time>
      </trkpt>
      <trkpt lat="42.7505430" lon="-1.7456920">
        <ele>537.3</ele>
        <time>2020-03-28T18:25:56Z</time>
      </trkpt>
      <trkpt lat="42.7505350" lon="-1.7457480">
        <ele>537.7</ele>
        <time>2020-03-28T18:25:58Z</time>
      </trkpt>
      <trkpt lat="42.7505270" lon="-1.7458030">
        <ele>538.1</ele>
        <time>2020-03-28T18:26:00Z</time>
      </trkpt>
      <trkpt lat="42.7505190" lon="-1.7458580">
        <ele>538.4</ele>
        <time>2020-03-28T18:26:02Z</time>
      </trkpt>
      <trkpt lat="42.7505110" lon="-1.7459130">
        <ele>538.7</ele>
        <time>2020-03-28T18:26:04Z</time>
      </trkpt>
      <trkpt lat="42.7505030" lon="-1.7459680">
        <ele>539.0</ele>
        <time>2020-03-28T18:26:06Z</time>
      </trkpt>
      <trkpt lat="42.7504640" lon="-1.7462240">
        <ele>540.6</ele>
        <time>2020-03-28T18:26:08Z</time>
      </trkpt>
      <trkpt lat="42.7504510" lon="-1.7462830">
        <ele>541.1</ele>
        <time>2020-03-28T18:26:10Z</time>
      </trkpt>
      <trkpt lat="42.7504380" lon="-1.7463450">
        <ele>541.6</ele>
        <time>2020-03-28T18:26:12Z</time>
      </trkpt>
      <trkpt lat="42.7504240" lon="-1.7464050">
        <ele>542.0</ele>
        <time>2020-03-28T18:26:14Z</time>
      </trkpt>
      <trkpt lat="42.7504110" lon="-1.7464650">
        <ele>542.4</ele>
        <time>2020-03-28T18:26:16Z</time>
      </trkpt>
      <trkpt lat="42.7503710" lon="-1.7466190">
        <ele>543.3</ele>
        <time>2020-03-28T18:26:18Z</time>
      </trkpt>
      <trkpt lat="42.7503510" lon="-1.7466740">
        <ele>543.7</ele>
        <time>2020-03-28T18:26:20Z</time>
      </trkpt>
      <trkpt lat="42.7503320" lon="-1.7467290">
        <ele>544.1</ele>
        <time>2020-03-28T18:26:22Z</time>
      </trkpt>
      <trkpt lat="42.7503120" lon="-1.7467850">
        <ele>544.4</ele>
        <time>2020-03-28T18:26:24Z</time>
      </trkpt>
      <trkpt lat="42.7502920" lon="-1.7468400">
        <ele>544.8</ele>
        <time>2020-03-28T18:26:26Z</time>
      </trkpt>
      <trkpt lat="42.7502340" lon="-1.7470040">
        <ele>546.0</ele>
        <time>2020-03-28T18:26:28Z</time>
      </trkpt>
      <trkpt lat="42.7502050" lon="-1.7470600">
        <ele>546.5</ele>
        <time>2020-03-28T18:26:30Z</time>
      </trkpt>
      <trkpt lat="42.7501810" lon="-1.7471110">
        <ele>546.8</ele>
        <time>2020-03-28T18:26:32Z</time>
      </trkpt>
      <trkpt lat="42.7501560" lon="-1.7471610">
        <ele>547.1</ele>
        <time>2020-03-28T18:26:34Z</time>
      </trkpt>
      <trkpt lat="42.7501310" lon="-1.7472120">
        <ele>547.4</ele>
        <time>2020-03-28T18:26:36Z</time>
      </trkpt>
      <trkpt lat="42.7501070" lon="-1.7472630">
        <ele>547.6</ele>
        <time>2020-03-28T18:26:38Z</time>
      </trkpt>
      <trkpt lat="42.7500820" lon="-1.7473130">
        <ele>547.9</ele>
        <time>2020-03-28T18:26:40Z</time>
      </trkpt>
      <trkpt lat="42.7500580" lon="-1.7473630">
        <ele>548.1</ele>
        <time>2020-03-28T18:26:42Z</time>
      </trkpt>
      <trkpt lat="42.7499660" lon="-1.7475510">
        <ele>548.9</ele>
        <time>2020-03-28T18:26:44Z</time>
      </trkpt>
      <trkpt lat="42.7499330" lon="-1.7476100">
        <ele>549.2</ele>
        <time>2020-03-28T18:26:46Z</time>
      </trkpt>
      <trkpt lat="42.7499010" lon="-1.7476670">
        <ele>549.4</ele>
        <time>2020-03-28T18:26:48Z</time>
      </trkpt>
      <trkpt lat="42.7498700" lon="-1.7477230">
        <ele>549.6</ele>
        <time>2020-03-28T18:26:50Z</time>
      </trkpt>
      <trkpt lat="42.7498390" lon="-1.7477800">
        <ele>549.9</ele>
        <time>2020-03-28T18:26:52Z</time>
      </trkpt>
      <trkpt lat="42.7497560" lon="-1.7479270">
        <ele>550.7</ele>
        <time>2020-03-28T18:26:54Z</time>
      </trkpt>
      <trkpt lat="42.7497230" lon="-1.7479810">
        <ele>551.1</ele>
        <time>2020-03-28T18:26:56Z</time>
      </trkpt>
      <trkpt lat="42.7496910" lon="-1.7480340">
        <ele>551.4</ele>
        <time>2020-03-28T18:26:58Z</time>
      </trkpt>
      <trkpt lat="42.7496220" lon="-1.7481400">
        <ele>551.9</ele>
        <time>2020-03-28T18:27:00Z</time>
      </trkpt>
      <trkpt lat="42.7495850" lon="-1.7481870">
        <ele>552.1</ele>
        <time>2020-03-28T18:27:02Z</time>
      </trkpt>
      <trkpt lat="42.7495490" lon="-1.7482350">
        <ele>552.3</ele>
        <time>2020-03-28T18:27:04Z</time>
      </trkpt>
      <trkpt lat="42.7494760" lon="-1.7483240">
        <ele>552.6</ele>
        <time>2020-03-28T18:27:06Z</time>
      </trkpt>
      <trkpt lat="42.7494370" lon="-1.7483690">
        <ele>552.7</ele>
        <time>2020-03-28T18:27:08Z</time>
      </trkpt>
      <trkpt lat="42.7493650" lon="-1.7484420">
        <ele>552.9</ele>
        <time>2020-03-28T18:27:10Z</time>
      </trkpt>
      <trkpt lat="42.7493220" lon="-1.7484780">
        <ele>553.0</ele>
        <time>2020-03-28T18:27:12Z</time>
      </trkpt>
      <trkpt lat="42.7492790" lon="-1.7485130">
        <ele>553.1</ele>
        <time>2020-03-28T18:27:14Z</time>
      </trkpt>
      <trkpt lat="42.7491790" lon="-1.7485950">
        <ele>553.3</ele>
        <time>2020-03-28T18:27:16Z</time>
      </trkpt>
      <trkpt lat="42.7491240" lon="-1.7486250">
        <ele>553.3</ele>
        <time>2020-03-28T18:27:18Z</time>
      </trkpt>
      <trkpt lat="42.7490670" lon="-1.7486570">
        <ele>553.4</ele>
        <time>2020-03-28T18:27:20Z</time>
      </trkpt>
      <trkpt lat="42.7490090" lon="-1.7486900">
        <ele>553.4</ele>
        <time>2020-03-28T18:27:22Z</time>
      </trkpt>
      <trkpt lat="42.7488850" lon="-1.7487530">
        <ele>553.5</ele>
        <time>2020-03-28T18:27:24Z</time>
      </trkpt>
      <trkpt lat="42.7488260" lon="-1.7487780">
        <ele>553.5</ele>
        <time>2020-03-28T18:27:26Z</time>
      </trkpt>
      <trkpt lat="42.7487680" lon="-1.7488030">
        <ele>553.6</ele>
        <time>2020-03-28T18:27:28Z</time>
      </trkpt>
      <trkpt lat="42.7486350" lon="-1.7488590">
        <ele>554.0</ele>
        <time>2020-03-28T18:27:30Z</time>
      </trkpt>
      <trkpt lat="42.7485770" lon="-1.7488840">
        <ele>554.1</ele>
        <time>2020-03-28T18:27:32Z</time>
      </trkpt>
      <trkpt lat="42.7485180" lon="-1.7489100">
        <ele>554.2</ele>
        <time>2020-03-28T18:27:34Z</time>
      </trkpt>
      <trkpt lat="42.7484600" lon="-1.7489360">
        <ele>554.4</ele>
        <time>2020-03-28T18:27:36Z</time>
      </trkpt>
      <trkpt lat="42.7483210" lon="-1.7489990">
        <ele>554.7</ele>
        <time>2020-03-28T18:27:38Z</time>
      </trkpt>
      <trkpt lat="42.7482650" lon="-1.7490320">
        <ele>555.0</ele>
        <time>2020-03-28T18:27:40Z</time>
      </trkpt>
      <trkpt lat="42.7481650" lon="-1.7490920">
        <ele>555.6</ele>
        <time>2020-03-28T18:27:42Z</time>
      </trkpt>
      <trkpt lat="42.7481180" lon="-1.7491300">
        <ele>556.0</ele>
        <time>2020-03-28T18:27:44Z</time>
      </trkpt>
      <trkpt lat="42.7480700" lon="-1.7491680">
        <ele>556.4</ele>
        <time>2020-03-28T18:27:46Z</time>
      </trkpt>
      <trkpt lat="42.7480220" lon="-1.7492080">
        <ele>556.9</ele>
        <time>2020-03-28T18:27:48Z</time>
      </trkpt>
      <trkpt lat="42.7479240" lon="-1.7493050">
        <ele>557.7</ele>
        <time>2020-03-28T18:27:50Z</time>
      </trkpt>
      <trkpt lat="42.7478820" lon="-1.7493600">
        <ele>558.1</ele>
        <time>2020-03-28T18:27:52Z</time>
      </trkpt>
      <trkpt lat="42.7478000" lon="-1.7494710">
        <ele>558.9</ele>
        <time>2020-03-28T18:27:54Z</time>
      </trkpt>
      <trkpt lat="42.7477620" lon="-1.7495320">
        <ele>559.4</ele>
        <time>2020-03-28T18:27:56Z</time>
      </trkpt>
      <trkpt lat="42.7477240" lon="-1.7495910">
        <ele>559.8</ele>
        <time>2020-03-28T18:27:58Z</time>
      </trkpt>
      <trkpt lat="42.7476580" lon="-1.7497100">
        <ele>560.8</ele>
        <time>2020-03-28T18:28:00Z</time>
      </trkpt>
      <trkpt lat="42.7476270" lon="-1.7497780">
        <ele>561.4</ele>
        <time>2020-03-28T18:28:02Z</time>
      </trkpt>
      <trkpt lat="42.7475760" lon="-1.7499030">
        <ele>562.4</ele>
        <time>2020-03-28T18:28:04Z</time>
      </trkpt>
      <trkpt lat="42.7475530" lon="-1.7499760">
        <ele>563.0</ele>
        <time>2020-03-28T18:28:06Z</time>
      </trkpt>
      <trkpt lat="42.7475170" lon="-1.7501050">
        <ele>563.7</ele>
        <time>2020-03-28T18:28:08Z</time>
      </trkpt>
      <trkpt lat="42.7475040" lon="-1.7501850">
        <ele>564.1</ele>
        <time>2020-03-28T18:28:10Z</time>
      </trkpt>
      <trkpt lat="42.7474920" lon="-1.7502640">
        <ele>564.5</ele>
        <time>2020-03-28T18:28:12Z</time>
      </trkpt>
      <trkpt lat="42.7474800" lon="-1.7503430">
        <ele>564.9</ele>
        <time>2020-03-28T18:28:14Z</time>
      </trkpt>
      <trkpt lat="42.7474590" lon="-1.7505290">
        <ele>566.1</ele>
        <time>2020-03-28T18:28:16Z</time>
      </trkpt>
      <trkpt lat="42.7474560" lon="-1.7506090">
        <ele>566.7</ele>
        <time>2020-03-28T18:28:18Z</time>
      </trkpt>
      <trkpt lat="42.7474540" lon="-1.7506890">
        <ele>567.1</ele>
        <time>2020-03-28T18:28:20Z</time>
      </trkpt>
      <trkpt lat="42.7474520" lon="-1.7507690">
        <ele>567.6</ele>
        <time>2020-03-28T18:28:22Z</time>
      </trkpt>
      <trkpt lat="42.7474540" lon="-1.7509620">
        <ele>568.3</ele>
        <time>2020-03-28T18:28:24Z</time>
      </trkpt>
      <trkpt lat="42.7474600" lon="-1.7510420">
        <ele>568.6</ele>
        <time>2020-03-28T18:28:26Z</time>
      </trkpt>
      <trkpt lat="42.7474660" lon="-1.7511220">
        <ele>568.8</ele>
        <time>2020-03-28T18:28:28Z</time>
      </trkpt>
      <trkpt lat="42.7474720" lon="-1.7512020">
        <ele>569.1</ele>
        <time>2020-03-28T18:28:30Z</time>
      </trkpt>
      <trkpt lat="42.7474880" lon="-1.7514150">
        <ele>569.8</ele>
        <time>2020-03-28T18:28:32Z</time>
      </trkpt>
      <trkpt lat="42.7474940" lon="-1.7514940">
        <ele>570.1</ele>
        <time>2020-03-28T18:28:34Z</time>
      </trkpt>
      <trkpt lat="42.7475010" lon="-1.7515730">
        <ele>570.3</ele>
        <time>2020-03-28T18:28:36Z</time>
      </trkpt>
      <trkpt lat="42.7475150" lon="-1.7517400">
        <ele>571.0</ele>
        <time>2020-03-28T18:28:38Z</time>
      </trkpt>
      <trkpt lat="42.7475310" lon="-1.7518160">
        <ele>571.3</ele>
        <time>2020-03-28T18:28:40Z</time>
      </trkpt>
      <trkpt lat="42.7475480" lon="-1.7518910">
        <ele>571.7</ele>
        <time>2020-03-28T18:28:42Z</time>
      </trkpt>
      <trkpt lat="42.7475830" lon="-1.7520480">
        <ele>572.6</ele>
        <time>2020-03-28T18:28:44Z</time>
      </trkpt>
      <trkpt lat="42.7476060" lon="-1.7521200">
        <ele>573.1</ele>
        <time>2020-03-28T18:28:46Z</time>
      </trkpt>
      <trkpt lat="42.7476280" lon="-1.7521920">
        <ele>573.5</ele>
        <time>2020-03-28T18:28:48Z</time>
      </trkpt>
      <trkpt lat="42.7476500" lon="-1.7522640">
        <ele>573.9</ele>
        <time>2020-03-28T18:28:50Z</time>
      </trkpt>
      <trkpt lat="42.7476720" lon="-1.7523360">
        <ele>574.2</ele>
        <time>2020-03-28T18:28:52Z</time>
      </trkpt>
      <trkpt lat="42.7477300" lon="-1.7525220">
        <ele>575.1</ele>
        <time>2020-03-28T18:28:54Z</time>
      </trkpt>
      <trkpt lat="42.7477520" lon="-1.7525940">
        <ele>575.4</ele>
        <time>2020-03-28T18:28:56Z</time>
      </trkpt>
      <trkpt lat="42.7477910" lon="-1.7527160">
        <ele>576.0</ele>
        <time>2020-03-28T18:28:58Z</time>
      </trkpt>
      <trkpt lat="42.7478240" lon="-1.7528240">
        <ele>576.7</ele>
        <time>2020-03-28T18:29:00Z</time>
      </trkpt>
      <trkpt lat="42.7478450" lon="-1.7528970">
        <ele>577.2</ele>
        <time>2020-03-28T18:29:02Z</time>
      </trkpt>
      <trkpt lat="42.7478670" lon="-1.7529700">
        <ele>577.7</ele>
        <time>2020-03-28T18:29:04Z</time>
      </trkpt>
      <trkpt lat="42.7478880" lon="-1.7530440">
        <ele>578.1</ele>
        <time>2020-03-28T18:29:06Z</time>
      </trkpt>
      <trkpt lat="42.7479090" lon="-1.7531180">
        <ele>578.6</ele>
        <time>2020-03-28T18:29:08Z</time>
      </trkpt>
      <trkpt lat="42.7479650" lon="-1.7533210">
        <ele>579.4</ele>
        <time>2020-03-28T18:29:10Z</time>
      </trkpt>
      <trkpt lat="42.7479800" lon="-1.7533960">
        <ele>579.7</ele>
        <time>2020-03-28T18:29:12Z</time>
      </trkpt>
      <trkpt lat="42.7479950" lon="-1.7534710">
        <ele>579.9</ele>
        <time>2020-03-28T18:29:14Z</time>
      </trkpt>
      <trkpt lat="42.7480190" lon="-1.7536210">
        <ele>580.6</ele>
        <time>2020-03-28T18:29:16Z</time>
      </trkpt>
      <trkpt lat="42.7480240" lon="-1.7536990">
        <ele>581.0</ele>
        <time>2020-03-28T18:29:18Z</time>
      </trkpt>
      <trkpt lat="42.7480300" lon="-1.7537770">
        <ele>581.4</ele>
        <time>2020-03-28T18:29:20Z</time>
      </trkpt>
      <trkpt lat="42.7480400" lon="-1.7539470">
        <ele>582.6</ele>
        <time>2020-03-28T18:29:22Z</time>
      </trkpt>
      <trkpt lat="42.7480420" lon="-1.7540260">
        <ele>583.2</ele>
        <time>2020-03-28T18:29:24Z</time>
      </trkpt>
      <trkpt lat="42.7480420" lon="-1.7541600">
        <ele>584.1</ele>
        <time>2020-03-28T18:29:26Z</time>
      </trkpt>
      <trkpt lat="42.7480360" lon="-1.7542380">
        <ele>584.6</ele>
        <time>2020-03-28T18:29:28Z</time>
      </trkpt>
      <trkpt lat="42.7480300" lon="-1.7543180">
        <ele>585.0</ele>
        <time>2020-03-28T18:29:30Z</time>
      </trkpt>
      <trkpt lat="42.7480130" lon="-1.7544780">
        <ele>585.7</ele>
        <time>2020-03-28T18:29:32Z</time>
      </trkpt>
      <trkpt lat="42.7480010" lon="-1.7545600">
        <ele>586.0</ele>
        <time>2020-03-28T18:29:34Z</time>
      </trkpt>
      <trkpt lat="42.7479750" lon="-1.7547120">
        <ele>586.4</ele>
        <time>2020-03-28T18:29:36Z</time>
      </trkpt>
      <trkpt lat="42.7479580" lon="-1.7547910">
        <ele>586.6</ele>
        <time>2020-03-28T18:29:38Z</time>
      </trkpt>
      <trkpt lat="42.7479260" lon="-1.7549300">
        <ele>586.9</ele>
        <time>2020-03-28T18:29:40Z</time>
      </trkpt>
      <trkpt lat="42.7479010" lon="-1.7550030">
        <ele>587.1</ele>
        <time>2020-03-28T18:29:42Z</time>
      </trkpt>
      <trkpt lat="42.7478760" lon="-1.7550770">
        <ele>587.3</ele>
        <time>2020-03-28T18:29:44Z</time>
      </trkpt>
      <trkpt lat="42.7478230" lon="-1.7552130">
        <ele>587.5</ele>
        <time>2020-03-28T18:29:46Z</time>
      </trkpt>
      <trkpt lat="42.7477930" lon="-1.7552810">
        <ele>587.5</ele>
        <time>2020-03-28T18:29:48Z</time>
      </trkpt>
      <trkpt lat="42.7477630" lon="-1.7553490">
        <ele>587.6</ele>
        <time>2020-03-28T18:29:50Z</time>
      </trkpt>
      <trkpt lat="42.7477320" lon="-1.7554170">
        <ele>587.7</ele>
        <time>2020-03-28T18:29:52Z</time>
      </trkpt>
      <trkpt lat="42.7476500" lon="-1.7555890">
        <ele>588.2</ele>
        <time>2020-03-28T18:29:54Z</time>
      </trkpt>
      <trkpt lat="42.7476120" lon="-1.7556450">
        <ele>588.5</ele>
        <time>2020-03-28T18:29:56Z</time>
      </trkpt>
      <trkpt lat="42.7475750" lon="-1.7557000">
        <ele>588.8</ele>
        <time>2020-03-28T18:29:58Z</time>
      </trkpt>
      <trkpt lat="42.7475370" lon="-1.7557560">
        <ele>589.2</ele>
        <time>2020-03-28T18:30:00Z</time>
      </trkpt>
      <trkpt lat="42.7474440" lon="-1.7558930">
        <ele>590.2</ele>
        <time>2020-03-28T18:30:02Z</time>
      </trkpt>
      <trkpt lat="42.7474000" lon="-1.7559470">
        <ele>590.6</ele>
        <time>2020-03-28T18:30:04Z</time>
      </trkpt>
      <trkpt lat="42.7473590" lon="-1.7559980">
        <ele>591.0</ele>
        <time>2020-03-28T18:30:06Z</time>
      </trkpt>
      <trkpt lat="42.7473180" lon="-1.7560500">
        <ele>591.3</ele>
        <time>2020-03-28T18:30:08Z</time>
      </trkpt>
      <trkpt lat="42.7472760" lon="-1.7561010">
        <ele>591.7</ele>
        <time>2020-03-28T18:30:10Z</time>
      </trkpt>
      <trkpt lat="42.7472350" lon="-1.7561520">
        <ele>592.0</ele>
        <time>2020-03-28T18:30:12Z</time>
      </trkpt>
      <trkpt lat="42.7471940" lon="-1.7562040">
        <ele>592.3</ele>
        <time>2020-03-28T18:30:14Z</time>
      </trkpt>
      <trkpt lat="42.7470550" lon="-1.7563680">
        <ele>593.4</ele>
        <time>2020-03-28T18:30:16Z</time>
      </trkpt>
      <trkpt lat="42.7470120" lon="-1.7564150">
        <ele>593.8</ele>
        <time>2020-03-28T18:30:18Z</time>
      </trkpt>
      <trkpt lat="42.7469690" lon="-1.7564620">
        <ele>594.1</ele>
        <time>2020-03-28T18:30:20Z</time>
      </trkpt>
      <trkpt lat="42.7469260" lon="-1.7565090">
        <ele>594.5</ele>
        <time>2020-03-28T18:30:22Z</time>
      </trkpt>
      <trkpt lat="42.7468120" lon="-1.7566300">
        <ele>595.4</ele>
        <time>2020-03-28T18:30:24Z</time>
      </trkpt>
      <trkpt lat="42.7467610" lon="-1.7566650">
        <ele>595.7</ele>
        <time>2020-03-28T18:30:26Z</time>
      </trkpt>
      <trkpt lat="42.7467120" lon="-1.7567000">
        <ele>596.2</ele>
        <time>2020-03-28T18:30:28Z</time>
      </trkpt>
      <trkpt lat="42.7466630" lon="-1.7567340">
        <ele>596.5</ele>
        <time>2020-03-28T18:30:30Z</time>
      </trkpt>
      <trkpt lat="42.7466140" lon="-1.7567680">
        <ele>596.9</ele>
        <time>2020-03-28T18:30:32Z</time>
      </trkpt>
      <trkpt lat="42.7464780" lon="-1.7568560">
        <ele>598.0</ele>
        <time>2020-03-28T18:30:34Z</time>
      </trkpt>
      <trkpt lat="42.7464260" lon="-1.7568740">
        <ele>598.4</ele>
        <time>2020-03-28T18:30:36Z</time>
      </trkpt>
      <trkpt lat="42.7463730" lon="-1.7568920">
        <ele>598.8</ele>
        <time>2020-03-28T18:30:38Z</time>
      </trkpt>
      <trkpt lat="42.7463190" lon="-1.7569100">
        <ele>599.2</ele>
        <time>2020-03-28T18:30:40Z</time>
      </trkpt>
      <trkpt lat="42.7461990" lon="-1.7569450">
        <ele>600.0</ele>
        <time>2020-03-28T18:30:42Z</time>
      </trkpt>
      <trkpt lat="42.7461440" lon="-1.7569550">
        <ele>600.4</ele>
        <time>2020-03-28T18:30:44Z</time>
      </trkpt>
      <trkpt lat="42.7460900" lon="-1.7569650">
        <ele>600.7</ele>
        <time>2020-03-28T18:30:46Z</time>
      </trkpt>
      <trkpt lat="42.7460360" lon="-1.7569750">
        <ele>601.0</ele>
        <time>2020-03-28T18:30:48Z</time>
      </trkpt>
      <trkpt lat="42.7459080" lon="-1.7569960">
        <ele>601.8</ele>
        <time>2020-03-28T18:30:50Z</time>
      </trkpt>
      <trkpt lat="42.7458590" lon="-1.7570030">
        <ele>602.1</ele>
        <time>2020-03-28T18:30:52Z</time>
      </trkpt>
      <trkpt lat="42.7458120" lon="-1.7570100">
        <ele>602.3</ele>
        <time>2020-03-28T18:30:54Z</time>
      </trkpt>
      <trkpt lat="42.7457660" lon="-1.7570160">
        <ele>602.7</ele>
        <time>2020-03-28T18:30:56Z</time>
      </trkpt>
      <trkpt lat="42.7456410" lon="-1.7570330">
        <ele>603.5</ele>
        <time>2020-03-28T18:30:58Z</time>
      </trkpt>
      <trkpt lat="42.7455970" lon="-1.7570420">
        <ele>603.8</ele>
        <time>2020-03-28T18:31:00Z</time>
      </trkpt>
      <trkpt lat="42.7455540" lon="-1.7570500">
        <ele>604.0</ele>
        <time>2020-03-28T18:31:02Z</time>
      </trkpt>
      <trkpt lat="42.7454650" lon="-1.7570700">
        <ele>604.5</ele>
        <time>2020-03-28T18:31:04Z</time>
      </trkpt>
      <trkpt lat="42.7454070" lon="-1.7570940">
        <ele>604.8</ele>
        <time>2020-03-28T18:31:06Z</time>
      </trkpt>
      <trkpt lat="42.7453650" lon="-1.7571080">
        <ele>605.0</ele>
        <time>2020-03-28T18:31:08Z</time>
      </trkpt>
      <trkpt lat="42.7453220" lon="-1.7571210">
        <ele>605.4</ele>
        <time>2020-03-28T18:31:10Z</time>
      </trkpt>
      <trkpt lat="42.7452410" lon="-1.7571520">
        <ele>606.1</ele>
        <time>2020-03-28T18:31:12Z</time>
      </trkpt>
      <trkpt lat="42.7452000" lon="-1.7571730">
        <ele>606.6</ele>
        <time>2020-03-28T18:31:14Z</time>
      </trkpt>
      <trkpt lat="42.7451290" lon="-1.7572130">
        <ele>607.5</ele>
        <time>2020-03-28T18:31:16Z</time>
      </trkpt>
      <trkpt lat="42.7450900" lon="-1.7572400">
        <ele>608.0</ele>
        <time>2020-03-28T18:31:18Z</time>
      </trkpt>
      <trkpt lat="42.7450310" lon="-1.7572850">
        <ele>608.7</ele>
        <time>2020-03-28T18:31:20Z</time>
      </trkpt>
      <trkpt lat="42.7449940" lon="-1.7573160">
        <ele>609.2</ele>
        <time>2020-03-28T18:31:22Z</time>
      </trkpt>
      <trkpt lat="42.7449570" lon="-1.7573460">
        <ele>609.6</ele>
        <time>2020-03-28T18:31:24Z</time>
      </trkpt>
      <trkpt lat="42.7448720" lon="-1.7574200">
        <ele>610.5</ele>
        <time>2020-03-28T18:31:26Z</time>
      </trkpt>
      <trkpt lat="42.7448410" lon="-1.7574560">
        <ele>610.8</ele>
        <time>2020-03-28T18:31:29Z</time>
      </trkpt>
      <trkpt lat="42.7448100" lon="-1.7574910">
        <ele>611.2</ele>
        <time>2020-03-28T18:31:31Z</time>
      </trkpt>
      <trkpt lat="42.7447480" lon="-1.7575630">
        <ele>612.1</ele>
        <time>2020-03-28T18:31:33Z</time>
      </trkpt>
      <trkpt lat="42.7447180" lon="-1.7576000">
        <ele>612.6</ele>
        <time>2020-03-28T18:31:35Z</time>
      </trkpt>
      <trkpt lat="42.7446640" lon="-1.7576680">
        <ele>613.5</ele>
        <time>2020-03-28T18:31:37Z</time>
      </trkpt>
      <trkpt lat="42.7446360" lon="-1.7577120">
        <ele>614.0</ele>
        <time>2020-03-28T18:31:39Z</time>
      </trkpt>
      <trkpt lat="42.7446110" lon="-1.7577530">
        <ele>614.5</ele>
        <time>2020-03-28T18:31:41Z</time>
      </trkpt>
      <trkpt lat="42.7445860" lon="-1.7577930">
        <ele>614.9</ele>
        <time>2020-03-28T18:31:43Z</time>
      </trkpt>
      <trkpt lat="42.7445260" lon="-1.7578910">
        <ele>616.1</ele>
        <time>2020-03-28T18:31:45Z</time>
      </trkpt>
      <trkpt lat="42.7445000" lon="-1.7579300">
        <ele>616.5</ele>
        <time>2020-03-28T18:31:47Z</time>
      </trkpt>
      <trkpt lat="42.7444750" lon="-1.7579700">
        <ele>616.9</ele>
        <time>2020-03-28T18:31:49Z</time>
      </trkpt>
      <trkpt lat="42.7444490" lon="-1.7580080">
        <ele>617.3</ele>
        <time>2020-03-28T18:31:51Z</time>
      </trkpt>
      <trkpt lat="42.7444240" lon="-1.7580470">
        <ele>617.8</ele>
        <time>2020-03-28T18:31:53Z</time>
      </trkpt>
      <trkpt lat="42.7443980" lon="-1.7580860">
        <ele>618.2</ele>
        <time>2020-03-28T18:31:55Z</time>
      </trkpt>
      <trkpt lat="42.7443160" lon="-1.7582070">
        <ele>619.4</ele>
        <time>2020-03-28T18:31:57Z</time>
      </trkpt>
      <trkpt lat="42.7442880" lon="-1.7582430">
        <ele>619.8</ele>
        <time>2020-03-28T18:31:59Z</time>
      </trkpt>
      <trkpt lat="42.7442600" lon="-1.7582780">
        <ele>620.2</ele>
        <time>2020-03-28T18:32:01Z</time>
      </trkpt>
      <trkpt lat="42.7442320" lon="-1.7583140">
        <ele>620.6</ele>
        <time>2020-03-28T18:32:03Z</time>
      </trkpt>
      <trkpt lat="42.7441650" lon="-1.7583980">
        <ele>621.4</ele>
        <time>2020-03-28T18:32:05Z</time>
      </trkpt>
      <trkpt lat="42.7441290" lon="-1.7584330">
        <ele>621.8</ele>
        <time>2020-03-28T18:32:07Z</time>
      </trkpt>
      <trkpt lat="42.7440960" lon="-1.7584660">
        <ele>622.1</ele>
        <time>2020-03-28T18:32:09Z</time>
      </trkpt>
      <trkpt lat="42.7440630" lon="-1.7584990">
        <ele>622.3</ele>
        <time>2020-03-28T18:32:11Z</time>
      </trkpt>
      <trkpt lat="42.7440300" lon="-1.7585310">
        <ele>622.6</ele>
        <time>2020-03-28T18:32:13Z</time>
      </trkpt>
      <trkpt lat="42.7439970" lon="-1.7585630">
        <ele>622.9</ele>
        <time>2020-03-28T18:32:15Z</time>
      </trkpt>
      <trkpt lat="42.7439040" lon="-1.7586560">
        <ele>623.9</ele>
        <time>2020-03-28T18:32:17Z</time>
      </trkpt>
      <trkpt lat="42.7438710" lon="-1.7586900">
        <ele>624.3</ele>
        <time>2020-03-28T18:32:19Z</time>
      </trkpt>
      <trkpt lat="42.7438390" lon="-1.7587230">
        <ele>624.7</ele>
        <time>2020-03-28T18:32:21Z</time>
      </trkpt>
      <trkpt lat="42.7438060" lon="-1.7587560">
        <ele>625.0</ele>
        <time>2020-03-28T18:32:23Z</time>
      </trkpt>
      <trkpt lat="42.7437740" lon="-1.7587880">
        <ele>625.4</ele>
        <time>2020-03-28T18:32:25Z</time>
      </trkpt>
      <trkpt lat="42.7437410" lon="-1.7588220">
        <ele>625.7</ele>
        <time>2020-03-28T18:32:27Z</time>
      </trkpt>
      <trkpt lat="42.7437080" lon="-1.7588550">
        <ele>626.0</ele>
        <time>2020-03-28T18:32:29Z</time>
      </trkpt>
      <trkpt lat="42.7436750" lon="-1.7588890">
        <ele>626.3</ele>
        <time>2020-03-28T18:32:31Z</time>
      </trkpt>
      <trkpt lat="42.7436420" lon="-1.7589230">
        <ele>626.5</ele>
        <time>2020-03-28T18:32:33Z</time>
      </trkpt>
      <trkpt lat="42.7434970" lon="-1.7590710">
        <ele>627.9</ele>
        <time>2020-03-28T18:32:35Z</time>
      </trkpt>
      <trkpt lat="42.7434670" lon="-1.7591090">
        <ele>628.2</ele>
        <time>2020-03-28T18:32:37Z</time>
      </trkpt>
      <trkpt lat="42.7434380" lon="-1.7591470">
        <ele>628.6</ele>
        <time>2020-03-28T18:32:39Z</time>
      </trkpt>
      <trkpt lat="42.7434090" lon="-1.7591850">
        <ele>628.9</ele>
        <time>2020-03-28T18:32:41Z</time>
      </trkpt>
      <trkpt lat="42.7433800" lon="-1.7592220">
        <ele>629.3</ele>
        <time>2020-03-28T18:32:43Z</time>
      </trkpt>
      <trkpt lat="42.7433070" lon="-1.7593250">
        <ele>630.2</ele>
        <time>2020-03-28T18:32:45Z</time>
      </trkpt>
      <trkpt lat="42.7432820" lon="-1.7593720">
        <ele>630.6</ele>
        <time>2020-03-28T18:32:47Z</time>
      </trkpt>
      <trkpt lat="42.7432580" lon="-1.7594190">
        <ele>630.9</ele>
        <time>2020-03-28T18:32:49Z</time>
      </trkpt>
      <trkpt lat="42.7432340" lon="-1.7594650">
        <ele>631.3</ele>
        <time>2020-03-28T18:32:51Z</time>
      </trkpt>
      <trkpt lat="42.7432100" lon="-1.7595100">
        <ele>631.6</ele>
        <time>2020-03-28T18:32:53Z</time>
      </trkpt>
      <trkpt lat="42.7431860" lon="-1.7595560">
        <ele>632.0</ele>
        <time>2020-03-28T18:32:55Z</time>
      </trkpt>
      <trkpt lat="42.7431150" lon="-1.7597020">
        <ele>633.4</ele>
        <time>2020-03-28T18:32:57Z</time>
      </trkpt>
      <trkpt lat="42.7430960" lon="-1.7597510">
        <ele>633.8</ele>
        <time>2020-03-28T18:32:59Z</time>
      </trkpt>
      <trkpt lat="42.7430610" lon="-1.7598440">
        <ele>634.7</ele>
        <time>2020-03-28T18:33:01Z</time>
      </trkpt>
      <trkpt lat="42.7430460" lon="-1.7598940">
        <ele>635.1</ele>
        <time>2020-03-28T18:33:03Z</time>
      </trkpt>
      <trkpt lat="42.7430310" lon="-1.7599440">
        <ele>635.4</ele>
        <time>2020-03-28T18:33:05Z</time>
      </trkpt>
      <trkpt lat="42.7430030" lon="-1.7600410">
        <ele>636.1</ele>
        <time>2020-03-28T18:33:07Z</time>
      </trkpt>
      <trkpt lat="42.7429910" lon="-1.7600930">
        <ele>636.5</ele>
        <time>2020-03-28T18:33:09Z</time>
      </trkpt>
      <trkpt lat="42.7429790" lon="-1.7601460">
        <ele>636.9</ele>
        <time>2020-03-28T18:33:11Z</time>
      </trkpt>
      <trkpt lat="42.7429580" lon="-1.7602530">
        <ele>637.7</ele>
        <time>2020-03-28T18:33:13Z</time>
      </trkpt>
      <trkpt lat="42.7429510" lon="-1.7603100">
        <ele>638.2</ele>
        <time>2020-03-28T18:33:15Z</time>
      </trkpt>
      <trkpt lat="42.7429370" lon="-1.7604180">
        <ele>639.0</ele>
        <time>2020-03-28T18:33:17Z</time>
      </trkpt>
      <trkpt lat="42.7429330" lon="-1.7604740">
        <ele>639.4</ele>
        <time>2020-03-28T18:33:19Z</time>
      </trkpt>
      <trkpt lat="42.7429290" lon="-1.7605280">
        <ele>639.8</ele>
        <time>2020-03-28T18:33:21Z</time>
      </trkpt>
      <trkpt lat="42.7429260" lon="-1.7605830">
        <ele>640.2</ele>
        <time>2020-03-28T18:33:23Z</time>
      </trkpt>
      <trkpt lat="42.7429220" lon="-1.7606370">
        <ele>640.5</ele>
        <time>2020-03-28T18:33:25Z</time>
      </trkpt>
      <trkpt lat="42.7429190" lon="-1.7606920">
        <ele>640.9</ele>
        <time>2020-03-28T18:33:27Z</time>
      </trkpt>
      <trkpt lat="42.7429150" lon="-1.7607470">
        <ele>641.3</ele>
        <time>2020-03-28T18:33:29Z</time>
      </trkpt>
      <trkpt lat="42.7429110" lon="-1.7608030">
        <ele>641.7</ele>
        <time>2020-03-28T18:33:31Z</time>
      </trkpt>
      <trkpt lat="42.7429080" lon="-1.7608600">
        <ele>642.1</ele>
        <time>2020-03-28T18:33:33Z</time>
      </trkpt>
      <trkpt lat="42.7428920" lon="-1.7610920">
        <ele>643.5</ele>
        <time>2020-03-28T18:33:35Z</time>
      </trkpt>
      <trkpt lat="42.7428880" lon="-1.7611480">
        <ele>643.8</ele>
        <time>2020-03-28T18:33:37Z</time>
      </trkpt>
      <trkpt lat="42.7428850" lon="-1.7612050">
        <ele>644.0</ele>
        <time>2020-03-28T18:33:39Z</time>
      </trkpt>
      <trkpt lat="42.7428810" lon="-1.7612610">
        <ele>644.3</ele>
        <time>2020-03-28T18:33:41Z</time>
      </trkpt>
      <trkpt lat="42.7428770" lon="-1.7613160">
        <ele>644.7</ele>
        <time>2020-03-28T18:33:43Z</time>
      </trkpt>
      <trkpt lat="42.7428740" lon="-1.7613710">
        <ele>645.0</ele>
        <time>2020-03-28T18:33:45Z</time>
      </trkpt>
      <trkpt lat="42.7428700" lon="-1.7614260">
        <ele>645.3</ele>
        <time>2020-03-28T18:33:47Z</time>
      </trkpt>
      <trkpt lat="42.7428670" lon="-1.7614810">
        <ele>645.7</ele>
        <time>2020-03-28T18:33:49Z</time>
      </trkpt>
      <trkpt lat="42.7428630" lon="-1.7615350">
        <ele>646.0</ele>
        <time>2020-03-28T18:33:51Z</time>
      </trkpt>
      <trkpt lat="42.7428440" lon="-1.7617620">
        <ele>647.5</ele>
        <time>2020-03-28T18:33:53Z</time>
      </trkpt>
      <trkpt lat="42.7428360" lon="-1.7618160">
        <ele>647.9</ele>
        <time>2020-03-28T18:33:55Z</time>
      </trkpt>
      <trkpt lat="42.7428270" lon="-1.7618720">
        <ele>648.3</ele>
        <time>2020-03-28T18:33:57Z</time>
      </trkpt>
      <trkpt lat="42.7428080" lon="-1.7619790">
        <ele>649.0</ele>
        <time>2020-03-28T18:33:59Z</time>
      </trkpt>
      <trkpt lat="42.7427950" lon="-1.7620340">
        <ele>649.3</ele>
        <time>2020-03-28T18:34:01Z</time>
      </trkpt>
      <trkpt lat="42.7427820" lon="-1.7620880">
        <ele>649.7</ele>
        <time>2020-03-28T18:34:03Z</time>
      </trkpt>
      <trkpt lat="42.7427560" lon="-1.7622040">
        <ele>650.5</ele>
        <time>2020-03-28T18:34:05Z</time>
      </trkpt>
      <trkpt lat="42.7427440" lon="-1.7622590">
        <ele>650.9</ele>
        <time>2020-03-28T18:34:07Z</time>
      </trkpt>
      <trkpt lat="42.7427320" lon="-1.7623140">
        <ele>651.3</ele>
        <time>2020-03-28T18:34:09Z</time>
      </trkpt>
      <trkpt lat="42.7427080" lon="-1.7624260">
        <ele>652.0</ele>
        <time>2020-03-28T18:34:11Z</time>
      </trkpt>
      <trkpt lat="42.7426970" lon="-1.7624800">
        <ele>652.4</ele>
        <time>2020-03-28T18:34:13Z</time>
      </trkpt>
      <trkpt lat="42.7426860" lon="-1.7625340">
        <ele>652.8</ele>
        <time>2020-03-28T18:34:15Z</time>
      </trkpt>
      <trkpt lat="42.7426740" lon="-1.7625880">
        <ele>653.1</ele>
        <time>2020-03-28T18:34:17Z</time>
      </trkpt>
      <trkpt lat="42.7426630" lon="-1.7626410">
        <ele>653.5</ele>
        <time>2020-03-28T18:34:19Z</time>
      </trkpt>
      <trkpt lat="42.7426520" lon="-1.7626940">
        <ele>653.8</ele>
        <time>2020-03-28T18:34:21Z</time>
      </trkpt>
      <trkpt lat="42.7426410" lon="-1.7627480">
        <ele>654.1</ele>
        <time>2020-03-28T18:34:23Z</time>
      </trkpt>
      <trkpt lat="42.7426300" lon="-1.7628010">
        <ele>654.3</ele>
        <time>2020-03-28T18:34:25Z</time>
      </trkpt>
      <trkpt lat="42.7425830" lon="-1.7630230">
        <ele>655.6</ele>
        <time>2020-03-28T18:34:27Z</time>
      </trkpt>
      <trkpt lat="42.7425680" lon="-1.7630780">
        <ele>656.0</ele>
        <time>2020-03-28T18:34:29Z</time>
      </trkpt>
      <trkpt lat="42.7425540" lon="-1.7631320">
        <ele>656.4</ele>
        <time>2020-03-28T18:34:31Z</time>
      </trkpt>
      <trkpt lat="42.7425400" lon="-1.7631880">
        <ele>656.7</ele>
        <time>2020-03-28T18:34:33Z</time>
      </trkpt>
      <trkpt lat="42.7425250" lon="-1.7632440">
        <ele>657.1</ele>
        <time>2020-03-28T18:34:35Z</time>
      </trkpt>
      <trkpt lat="42.7425110" lon="-1.7633000">
        <ele>657.5</ele>
        <time>2020-03-28T18:34:37Z</time>
      </trkpt>
      <trkpt lat="42.7424640" lon="-1.7634610">
        <ele>658.8</ele>
        <time>2020-03-28T18:34:39Z</time>
      </trkpt>
      <trkpt lat="42.7424440" lon="-1.7635140">
        <ele>659.2</ele>
        <time>2020-03-28T18:34:41Z</time>
      </trkpt>
      <trkpt lat="42.7424250" lon="-1.7635670">
        <ele>659.6</ele>
        <time>2020-03-28T18:34:43Z</time>
      </trkpt>
      <trkpt lat="42.7423800" lon="-1.7636780">
        <ele>660.4</ele>
        <time>2020-03-28T18:34:45Z</time>
      </trkpt>
      <trkpt lat="42.7423560" lon="-1.7637250">
        <ele>660.8</ele>
        <time>2020-03-28T18:34:47Z</time>
      </trkpt>
      <trkpt lat="42.7423320" lon="-1.7637710">
        <ele>661.1</ele>
        <time>2020-03-28T18:34:49Z</time>
      </trkpt>
      <trkpt lat="42.7422810" lon="-1.7638700">
        <ele>662.0</ele>
        <time>2020-03-28T18:34:51Z</time>
      </trkpt>
      <trkpt lat="42.7422540" lon="-1.7639130">
        <ele>662.4</ele>
        <time>2020-03-28T18:34:53Z</time>
      </trkpt>
      <trkpt lat="42.7422270" lon="-1.7639570">
        <ele>662.7</ele>
        <time>2020-03-28T18:34:55Z</time>
      </trkpt>
      <trkpt lat="42.7422000" lon="-1.7640000">
        <ele>663.1</ele>
        <time>2020-03-28T18:34:57Z</time>
      </trkpt>
      <trkpt lat="42.7421730" lon="-1.7640430">
        <ele>663.4</ele>
        <time>2020-03-28T18:34:59Z</time>
      </trkpt>
      <trkpt lat="42.7420990" lon="-1.7641550">
        <ele>664.2</ele>
        <time>2020-03-28T18:35:01Z</time>
      </trkpt>
      <trkpt lat="42.7420710" lon="-1.7641960">
        <ele>664.5</ele>
        <time>2020-03-28T18:35:03Z</time>
      </trkpt>
      <trkpt lat="42.7420420" lon="-1.7642370">
        <ele>664.9</ele>
        <time>2020-03-28T18:35:05Z</time>
      </trkpt>
      <trkpt lat="42.7420140" lon="-1.7642780">
        <ele>665.3</ele>
        <time>2020-03-28T18:35:07Z</time>
      </trkpt>
      <trkpt lat="42.7419470" lon="-1.7643700">
        <ele>666.2</ele>
        <time>2020-03-28T18:35:09Z</time>
      </trkpt>
      <trkpt lat="42.7419190" lon="-1.7644070">
        <ele>666.7</ele>
        <time>2020-03-28T18:35:11Z</time>
      </trkpt>
      <trkpt lat="42.7418900" lon="-1.7644450">
        <ele>667.2</ele>
        <time>2020-03-28T18:35:13Z</time>
      </trkpt>
      <trkpt lat="42.7418610" lon="-1.7644830">
        <ele>667.6</ele>
        <time>2020-03-28T18:35:15Z</time>
      </trkpt>
      <trkpt lat="42.7418320" lon="-1.7645210">
        <ele>668.1</ele>
        <time>2020-03-28T18:35:17Z</time>
      </trkpt>
      <trkpt lat="42.7418010" lon="-1.7645610">
        <ele>668.7</ele>
        <time>2020-03-28T18:35:19Z</time>
      </trkpt>
      <trkpt lat="42.7417030" lon="-1.7646860">
        <ele>670.2</ele>
        <time>2020-03-28T18:35:21Z</time>
      </trkpt>
      <trkpt lat="42.7416700" lon="-1.7647230">
        <ele>670.6</ele>
        <time>2020-03-28T18:35:23Z</time>
      </trkpt>
      <trkpt lat="42.7416380" lon="-1.7647600">
        <ele>671.0</ele>
        <time>2020-03-28T18:35:25Z</time>
      </trkpt>
      <trkpt lat="42.7416060" lon="-1.7647960">
        <ele>671.4</ele>
        <time>2020-03-28T18:35:27Z</time>
      </trkpt>
      <trkpt lat="42.7415740" lon="-1.7648330">
        <ele>671.8</ele>
        <time>2020-03-28T18:35:29Z</time>
      </trkpt>
      <trkpt lat="42.7415430" lon="-1.7648700">
        <ele>672.1</ele>
        <time>2020-03-28T18:35:31Z</time>
      </trkpt>
      <trkpt lat="42.7414370" lon="-1.7649900">
        <ele>673.2</ele>
        <time>2020-03-28T18:35:33Z</time>
      </trkpt>
      <trkpt lat="42.7414000" lon="-1.7650140">
        <ele>673.6</ele>
        <time>2020-03-28T18:35:35Z</time>
      </trkpt>
      <trkpt lat="42.7413630" lon="-1.7650380">
        <ele>673.8</ele>
        <time>2020-03-28T18:35:37Z</time>
      </trkpt>
      <trkpt lat="42.7413260" lon="-1.7650620">
        <ele>674.1</ele>
        <time>2020-03-28T18:35:39Z</time>
      </trkpt>
      <trkpt lat="42.7412900" lon="-1.7650850">
        <ele>674.4</ele>
        <time>2020-03-28T18:35:41Z</time>
      </trkpt>
      <trkpt lat="42.7412540" lon="-1.7651090">
        <ele>674.6</ele>
        <time>2020-03-28T18:35:43Z</time>
      </trkpt>
      <trkpt lat="42.7411360" lon="-1.7651810">
        <ele>675.4</ele>
        <time>2020-03-28T18:35:45Z</time>
      </trkpt>
      <trkpt lat="42.7410830" lon="-1.7651960">
        <ele>675.7</ele>
        <time>2020-03-28T18:35:47Z</time>
      </trkpt>
      <trkpt lat="42.7410150" lon="-1.7652160">
        <ele>676.1</ele>
        <time>2020-03-28T18:35:49Z</time>
      </trkpt>
      <trkpt lat="42.7408890" lon="-1.7652410">
        <ele>676.9</ele>
        <time>2020-03-28T18:35:51Z</time>
      </trkpt>
      <trkpt lat="42.7408180" lon="-1.7652430">
        <ele>677.2</ele>
        <time>2020-03-28T18:35:53Z</time>
      </trkpt>
      <trkpt lat="42.7406930" lon="-1.7652410">
        <ele>677.6</ele>
        <time>2020-03-28T18:35:55Z</time>
      </trkpt>
      <trkpt lat="42.7406410" lon="-1.7652350">
        <ele>677.8</ele>
        <time>2020-03-28T18:35:57Z</time>
      </trkpt>
      <trkpt lat="42.7406340" lon="-1.7652340">
        <ele>677.8</ele>
        <time>2020-03-28T18:35:59Z</time>
      </trkpt>
      <trkpt lat="42.7406330" lon="-1.7652340">
        <ele>677.8</ele>
        <time>2020-03-28T18:36:01Z</time>
      </trkpt>
      <trkpt lat="42.7406030" lon="-1.7652310">
        <ele>677.9</ele>
        <time>2020-03-28T18:36:03Z</time>
      </trkpt>
      <trkpt lat="42.7405500" lon="-1.7652240">
        <ele>678.1</ele>
        <time>2020-03-28T18:36:05Z</time>
      </trkpt>
      <trkpt lat="42.7403960" lon="-1.7652060">
        <ele>678.4</ele>
        <time>2020-03-28T18:36:07Z</time>
      </trkpt>
      <trkpt lat="42.7403110" lon="-1.7651910">
        <ele>678.6</ele>
        <time>2020-03-28T18:36:09Z</time>
      </trkpt>
      <trkpt lat="42.7402130" lon="-1.7651740">
        <ele>678.7</ele>
        <time>2020-03-28T18:36:11Z</time>
      </trkpt>
      <trkpt lat="42.7400090" lon="-1.7651390">
        <ele>678.6</ele>
        <time>2020-03-28T18:36:13Z</time>
      </trkpt>
      <trkpt lat="42.7398910" lon="-1.7651200">
        <ele>678.3</ele>
        <time>2020-03-28T18:36:15Z</time>
      </trkpt>
      <trkpt lat="42.7396940" lon="-1.7650870">
        <ele>677.7</ele>
        <time>2020-03-28T18:36:17Z</time>
      </trkpt>
      <trkpt lat="42.7395630" lon="-1.7650660">
        <ele>677.3</ele>
        <time>2020-03-28T18:36:19Z</time>
      </trkpt>
      <trkpt lat="42.7394270" lon="-1.7650440">
        <ele>676.9</ele>
        <time>2020-03-28T18:36:21Z</time>
      </trkpt>
      <trkpt lat="42.7391180" lon="-1.7649920">
        <ele>676.6</ele>
        <time>2020-03-28T18:36:23Z</time>
      </trkpt>
      <trkpt lat="42.7389730" lon="-1.7649630">
        <ele>676.5</ele>
        <time>2020-03-28T18:36:25Z</time>
      </trkpt>
      <trkpt lat="42.7388200" lon="-1.7649320">
        <ele>676.3</ele>
        <time>2020-03-28T18:36:27Z</time>
      </trkpt>
      <trkpt lat="42.7385120" lon="-1.7648670">
        <ele>675.2</ele>
        <time>2020-03-28T18:36:29Z</time>
      </trkpt>
      <trkpt lat="42.7382770" lon="-1.7648070">
        <ele>674.1</ele>
        <time>2020-03-28T18:36:31Z</time>
      </trkpt>
      <trkpt lat="42.7381160" lon="-1.7647340">
        <ele>673.2</ele>
        <time>2020-03-28T18:36:33Z</time>
      </trkpt>
      <trkpt lat="42.7378840" lon="-1.7646020">
        <ele>671.8</ele>
        <time>2020-03-28T18:36:35Z</time>
      </trkpt>
      <trkpt lat="42.7377210" lon="-1.7644890">
        <ele>670.7</ele>
        <time>2020-03-28T18:36:37Z</time>
      </trkpt>
      <trkpt lat="42.7374240" lon="-1.7642870">
        <ele>668.5</ele>
        <time>2020-03-28T18:36:39Z</time>
      </trkpt>
      <trkpt lat="42.7372450" lon="-1.7641690">
        <ele>667.0</ele>
        <time>2020-03-28T18:36:41Z</time>
      </trkpt>
      <trkpt lat="42.7369250" lon="-1.7639910">
        <ele>664.3</ele>
        <time>2020-03-28T18:36:43Z</time>
      </trkpt>
      <trkpt lat="42.7365960" lon="-1.7638630">
        <ele>661.5</ele>
        <time>2020-03-28T18:36:45Z</time>
      </trkpt>
      <trkpt lat="42.7363720" lon="-1.7637980">
        <ele>659.8</ele>
        <time>2020-03-28T18:36:47Z</time>
      </trkpt>
      <trkpt lat="42.7361410" lon="-1.7637320">
        <ele>658.0</ele>
        <time>2020-03-28T18:36:49Z</time>
      </trkpt>
      <trkpt lat="42.7357020" lon="-1.7636110">
        <ele>654.4</ele>
        <time>2020-03-28T18:36:51Z</time>
      </trkpt>
      <trkpt lat="42.7354600" lon="-1.7635520">
        <ele>652.4</ele>
        <time>2020-03-28T18:36:53Z</time>
      </trkpt>
      <trkpt lat="42.7349940" lon="-1.7634390">
        <ele>648.4</ele>
        <time>2020-03-28T18:36:55Z</time>
      </trkpt>
      <trkpt lat="42.7347490" lon="-1.7633920">
        <ele>646.1</ele>
        <time>2020-03-28T18:36:57Z</time>
      </trkpt>
      <trkpt lat="42.7343940" lon="-1.7633760">
        <ele>642.7</ele>
        <time>2020-03-28T18:36:59Z</time>
      </trkpt>
      <trkpt lat="42.7341430" lon="-1.7633910">
        <ele>640.1</ele>
        <time>2020-03-28T18:37:01Z</time>
      </trkpt>
      <trkpt lat="42.7336620" lon="-1.7634180">
        <ele>634.4</ele>
        <time>2020-03-28T18:37:03Z</time>
      </trkpt>
      <trkpt lat="42.7334030" lon="-1.7634280">
        <ele>631.5</ele>
        <time>2020-03-28T18:37:05Z</time>
      </trkpt>
      <trkpt lat="42.7329620" lon="-1.7634650">
        <ele>627.8</ele>
        <time>2020-03-28T18:37:07Z</time>
      </trkpt>
      <trkpt lat="42.7326180" lon="-1.7635470">
        <ele>625.5</ele>
        <time>2020-03-28T18:37:09Z</time>
      </trkpt>
      <trkpt lat="42.7322760" lon="-1.7636700">
        <ele>622.9</ele>
        <time>2020-03-28T18:37:11Z</time>
      </trkpt>
      <trkpt lat="42.7320620" lon="-1.7637920">
        <ele>621.2</ele>
        <time>2020-03-28T18:37:13Z</time>
      </trkpt>
      <trkpt lat="42.7317500" lon="-1.7639910">
        <ele>618.7</ele>
        <time>2020-03-28T18:37:15Z</time>
      </trkpt>
      <trkpt lat="42.7314580" lon="-1.7642230">
        <ele>616.3</ele>
        <time>2020-03-28T18:37:17Z</time>
      </trkpt>
      <trkpt lat="42.7312800" lon="-1.7644260">
        <ele>614.6</ele>
        <time>2020-03-28T18:37:19Z</time>
      </trkpt>
      <trkpt lat="42.7309690" lon="-1.7647850">
        <ele>611.5</ele>
        <time>2020-03-28T18:37:21Z</time>
      </trkpt>
      <trkpt lat="42.7307320" lon="-1.7650560">
        <ele>608.2</ele>
        <time>2020-03-28T18:37:23Z</time>
      </trkpt>
      <trkpt lat="42.7304480" lon="-1.7653430">
        <ele>604.3</ele>
        <time>2020-03-28T18:37:25Z</time>
      </trkpt>
      <trkpt lat="42.7301340" lon="-1.7655970">
        <ele>600.4</ele>
        <time>2020-03-28T18:37:27Z</time>
      </trkpt>
      <trkpt lat="42.7298120" lon="-1.7658660">
        <ele>594.9</ele>
        <time>2020-03-28T18:37:29Z</time>
      </trkpt>
      <trkpt lat="42.7294420" lon="-1.7660450">
        <ele>589.4</ele>
        <time>2020-03-28T18:37:31Z</time>
      </trkpt>
      <trkpt lat="42.7290460" lon="-1.7661630">
        <ele>583.5</ele>
        <time>2020-03-28T18:37:33Z</time>
      </trkpt>
      <trkpt lat="42.7287320" lon="-1.7662120">
        <ele>578.7</ele>
        <time>2020-03-28T18:37:35Z</time>
      </trkpt>
      <trkpt lat="42.7282850" lon="-1.7662380">
        <ele>571.9</ele>
        <time>2020-03-28T18:37:37Z</time>
      </trkpt>
      <trkpt lat="42.7278350" lon="-1.7662480">
        <ele>565.6</ele>
        <time>2020-03-28T18:37:39Z</time>
      </trkpt>
      <trkpt lat="42.7274060" lon="-1.7662860">
        <ele>559.6</ele>
        <time>2020-03-28T18:37:41Z</time>
      </trkpt>
      <trkpt lat="42.7269770" lon="-1.7663670">
        <ele>552.3</ele>
        <time>2020-03-28T18:37:43Z</time>
      </trkpt>
      <trkpt lat="42.7266420" lon="-1.7665130">
        <ele>548.8</ele>
        <time>2020-03-28T18:37:45Z</time>
      </trkpt>
      <trkpt lat="42.7263140" lon="-1.7667190">
        <ele>549.0</ele>
        <time>2020-03-28T18:37:47Z</time>
      </trkpt>
      <trkpt lat="42.7260980" lon="-1.7668460">
        <ele>549.5</ele>
        <time>2020-03-28T18:37:49Z</time>
      </trkpt>
      <trkpt lat="42.7257760" lon="-1.7670360">
        <ele>550.4</ele>
        <time>2020-03-28T18:37:51Z</time>
      </trkpt>
      <trkpt lat="42.7254650" lon="-1.7672160">
        <ele>550.9</ele>
        <time>2020-03-28T18:37:53Z</time>
      </trkpt>
      <trkpt lat="42.7252800" lon="-1.7672960">
        <ele>551.1</ele>
        <time>2020-03-28T18:37:55Z</time>
      </trkpt>
      <trkpt lat="42.7250150" lon="-1.7673930">
        <ele>550.8</ele>
        <time>2020-03-28T18:37:57Z</time>
      </trkpt>
      <trkpt lat="42.7247740" lon="-1.7674650">
        <ele>549.2</ele>
        <time>2020-03-28T18:37:59Z</time>
      </trkpt>
      <trkpt lat="42.7245580" lon="-1.7675260">
        <ele>547.5</ele>
        <time>2020-03-28T18:38:01Z</time>
      </trkpt>
      <trkpt lat="42.7243690" lon="-1.7675790">
        <ele>545.9</ele>
        <time>2020-03-28T18:38:03Z</time>
      </trkpt>
      <trkpt lat="42.7239810" lon="-1.7676870">
        <ele>542.5</ele>
        <time>2020-03-28T18:38:05Z</time>
      </trkpt>
      <trkpt lat="42.7237670" lon="-1.7677470">
        <ele>540.8</ele>
        <time>2020-03-28T18:38:07Z</time>
      </trkpt>
      <trkpt lat="42.7235420" lon="-1.7678090">
        <ele>539.3</ele>
        <time>2020-03-28T18:38:09Z</time>
      </trkpt>
      <trkpt lat="42.7230790" lon="-1.7679380">
        <ele>535.8</ele>
        <time>2020-03-28T18:38:11Z</time>
      </trkpt>
      <trkpt lat="42.7228430" lon="-1.7680040">
        <ele>534.0</ele>
        <time>2020-03-28T18:38:13Z</time>
      </trkpt>
      <trkpt lat="42.7226090" lon="-1.7680700">
        <ele>532.2</ele>
        <time>2020-03-28T18:38:15Z</time>
      </trkpt>
      <trkpt lat="42.7221440" lon="-1.7682000">
        <ele>528.8</ele>
        <time>2020-03-28T18:38:17Z</time>
      </trkpt>
      <trkpt lat="42.7219090" lon="-1.7682650">
        <ele>527.3</ele>
        <time>2020-03-28T18:38:19Z</time>
      </trkpt>
      <trkpt lat="42.7216730" lon="-1.7683310">
        <ele>525.6</ele>
        <time>2020-03-28T18:38:21Z</time>
      </trkpt>
      <trkpt lat="42.7212080" lon="-1.7684610">
        <ele>522.3</ele>
        <time>2020-03-28T18:38:23Z</time>
      </trkpt>
      <trkpt lat="42.7209730" lon="-1.7685270">
        <ele>520.5</ele>
        <time>2020-03-28T18:38:25Z</time>
      </trkpt>
      <trkpt lat="42.7205100" lon="-1.7686540">
        <ele>517.5</ele>
        <time>2020-03-28T18:38:27Z</time>
      </trkpt>
      <trkpt lat="42.7201800" lon="-1.7687430">
        <ele>515.3</ele>
        <time>2020-03-28T18:38:29Z</time>
      </trkpt>
      <trkpt lat="42.7199460" lon="-1.7688120">
        <ele>513.5</ele>
        <time>2020-03-28T18:38:31Z</time>
      </trkpt>
      <trkpt lat="42.7195890" lon="-1.7689610">
        <ele>510.0</ele>
        <time>2020-03-28T18:38:33Z</time>
      </trkpt>
      <trkpt lat="42.7192910" lon="-1.7692260">
        <ele>506.9</ele>
        <time>2020-03-28T18:38:35Z</time>
      </trkpt>
      <trkpt lat="42.7190160" lon="-1.7693920">
        <ele>505.1</ele>
        <time>2020-03-28T18:38:37Z</time>
      </trkpt>
      <trkpt lat="42.7187440" lon="-1.7694550">
        <ele>503.3</ele>
        <time>2020-03-28T18:38:39Z</time>
      </trkpt>
      <trkpt lat="42.7184670" lon="-1.7694600">
        <ele>501.6</ele>
        <time>2020-03-28T18:38:41Z</time>
      </trkpt>
      <trkpt lat="42.7182680" lon="-1.7694580">
        <ele>500.9</ele>
        <time>2020-03-28T18:38:43Z</time>
      </trkpt>
      <trkpt lat="42.7179300" lon="-1.7694480">
        <ele>499.5</ele>
        <time>2020-03-28T18:38:45Z</time>
      </trkpt>
      <trkpt lat="42.7176390" lon="-1.7695040">
        <ele>499.8</ele>
        <time>2020-03-28T18:38:47Z</time>
      </trkpt>
      <trkpt lat="42.7174780" lon="-1.7695500">
        <ele>500.1</ele>
        <time>2020-03-28T18:38:49Z</time>
      </trkpt>
      <trkpt lat="42.7172420" lon="-1.7696150">
        <ele>500.2</ele>
        <time>2020-03-28T18:38:51Z</time>
      </trkpt>
      <trkpt lat="42.7171020" lon="-1.7696550">
        <ele>500.2</ele>
        <time>2020-03-28T18:38:53Z</time>
      </trkpt>
      <trkpt lat="42.7168670" lon="-1.7697010">
        <ele>500.2</ele>
        <time>2020-03-28T18:38:55Z</time>
      </trkpt>
      <trkpt lat="42.7167360" lon="-1.7697140">
        <ele>500.2</ele>
        <time>2020-03-28T18:38:57Z</time>
      </trkpt>
      <trkpt lat="42.7165010" lon="-1.7697350">
        <ele>500.2</ele>
        <time>2020-03-28T18:38:59Z</time>
      </trkpt>
      <trkpt lat="42.7163770" lon="-1.7697440">
        <ele>500.2</ele>
        <time>2020-03-28T18:39:01Z</time>
      </trkpt>
      <trkpt lat="42.7161600" lon="-1.7697560">
        <ele>500.2</ele>
        <time>2020-03-28T18:39:03Z</time>
      </trkpt>
      <trkpt lat="42.7160370" lon="-1.7697520">
        <ele>500.2</ele>
        <time>2020-03-28T18:39:05Z</time>
      </trkpt>
      <trkpt lat="42.7158170" lon="-1.7697450">
        <ele>499.9</ele>
        <time>2020-03-28T18:39:07Z</time>
      </trkpt>
      <trkpt lat="42.7156950" lon="-1.7697490">
        <ele>499.6</ele>
        <time>2020-03-28T18:39:09Z</time>
      </trkpt>
      <trkpt lat="42.7155710" lon="-1.7697530">
        <ele>499.3</ele>
        <time>2020-03-28T18:39:11Z</time>
      </trkpt>
      <trkpt lat="42.7153460" lon="-1.7697830">
        <ele>498.6</ele>
        <time>2020-03-28T18:39:13Z</time>
      </trkpt>
      <trkpt lat="42.7152220" lon="-1.7698130">
        <ele>498.3</ele>
        <time>2020-03-28T18:39:15Z</time>
      </trkpt>
      <trkpt lat="42.7150140" lon="-1.7698750">
        <ele>497.6</ele>
        <time>2020-03-28T18:39:17Z</time>
      </trkpt>
      <trkpt lat="42.7148900" lon="-1.7699170">
        <ele>497.0</ele>
        <time>2020-03-28T18:39:19Z</time>
      </trkpt>
      <trkpt lat="42.7146690" lon="-1.7700180">
        <ele>495.9</ele>
        <time>2020-03-28T18:39:21Z</time>
      </trkpt>
      <trkpt lat="42.7145450" lon="-1.7701000">
        <ele>495.1</ele>
        <time>2020-03-28T18:39:23Z</time>
      </trkpt>
      <trkpt lat="42.7143440" lon="-1.7702680">
        <ele>493.9</ele>
        <time>2020-03-28T18:39:25Z</time>
      </trkpt>
      <trkpt lat="42.7142230" lon="-1.7703910">
        <ele>492.9</ele>
        <time>2020-03-28T18:39:27Z</time>
      </trkpt>
      <trkpt lat="42.7140980" lon="-1.7705180">
        <ele>491.7</ele>
        <time>2020-03-28T18:39:29Z</time>
      </trkpt>
      <trkpt lat="42.7139680" lon="-1.7706510">
        <ele>490.5</ele>
        <time>2020-03-28T18:39:31Z</time>
      </trkpt>
      <trkpt lat="42.7136450" lon="-1.7709800">
        <ele>487.7</ele>
        <time>2020-03-28T18:39:33Z</time>
      </trkpt>
      <trkpt lat="42.7135010" lon="-1.7711260">
        <ele>486.5</ele>
        <time>2020-03-28T18:39:35Z</time>
      </trkpt>
      <trkpt lat="42.7133490" lon="-1.7712820">
        <ele>484.9</ele>
        <time>2020-03-28T18:39:37Z</time>
      </trkpt>
      <trkpt lat="42.7130010" lon="-1.7716350">
        <ele>481.2</ele>
        <time>2020-03-28T18:39:39Z</time>
      </trkpt>
      <trkpt lat="42.7128250" lon="-1.7718150">
        <ele>479.8</ele>
        <time>2020-03-28T18:39:41Z</time>
      </trkpt>
      <trkpt lat="42.7126590" lon="-1.7719830">
        <ele>478.5</ele>
        <time>2020-03-28T18:39:43Z</time>
      </trkpt>
      <trkpt lat="42.7124920" lon="-1.7721540">
        <ele>477.1</ele>
        <time>2020-03-28T18:39:45Z</time>
      </trkpt>
      <trkpt lat="42.7121470" lon="-1.7725040">
        <ele>474.1</ele>
        <time>2020-03-28T18:39:47Z</time>
      </trkpt>
      <trkpt lat="42.7119100" lon="-1.7727460">
        <ele>472.2</ele>
        <time>2020-03-28T18:39:49Z</time>
      </trkpt>
      <trkpt lat="42.7117460" lon="-1.7729130">
        <ele>473.1</ele>
        <time>2020-03-28T18:39:51Z</time>
      </trkpt>
      <trkpt lat="42.7114680" lon="-1.7731970">
        <ele>474.4</ele>
        <time>2020-03-28T18:39:53Z</time>
      </trkpt>
      <trkpt lat="42.7112270" lon="-1.7734430">
        <ele>475.5</ele>
        <time>2020-03-28T18:39:55Z</time>
      </trkpt>
      <trkpt lat="42.7110120" lon="-1.7736610">
        <ele>473.7</ele>
        <time>2020-03-28T18:39:57Z</time>
      </trkpt>
      <trkpt lat="42.7107730" lon="-1.7739050">
        <ele>468.0</ele>
        <time>2020-03-28T18:39:59Z</time>
      </trkpt>
      <trkpt lat="42.7106040" lon="-1.7740770">
        <ele>464.2</ele>
        <time>2020-03-28T18:40:01Z</time>
      </trkpt>
      <trkpt lat="42.7103230" lon="-1.7743640">
        <ele>461.7</ele>
        <time>2020-03-28T18:40:03Z</time>
      </trkpt>
      <trkpt lat="42.7100890" lon="-1.7746000">
        <ele>458.6</ele>
        <time>2020-03-28T18:40:05Z</time>
      </trkpt>
      <trkpt lat="42.7099160" lon="-1.7747770">
        <ele>457.0</ele>
        <time>2020-03-28T18:40:07Z</time>
      </trkpt>
      <trkpt lat="42.7097510" lon="-1.7749440">
        <ele>455.4</ele>
        <time>2020-03-28T18:40:09Z</time>
      </trkpt>
      <trkpt lat="42.7094020" lon="-1.7753000">
        <ele>451.8</ele>
        <time>2020-03-28T18:40:11Z</time>
      </trkpt>
      <trkpt lat="42.7092190" lon="-1.7754870">
        <ele>451.1</ele>
        <time>2020-03-28T18:40:13Z</time>
      </trkpt>
      <trkpt lat="42.7090650" lon="-1.7756440">
        <ele>450.7</ele>
        <time>2020-03-28T18:40:15Z</time>
      </trkpt>
      <trkpt lat="42.7089130" lon="-1.7757980">
        <ele>449.8</ele>
        <time>2020-03-28T18:40:17Z</time>
      </trkpt>
      <trkpt lat="42.7086010" lon="-1.7761150">
        <ele>448.2</ele>
        <time>2020-03-28T18:40:19Z</time>
      </trkpt>
      <trkpt lat="42.7084580" lon="-1.7762610">
        <ele>447.8</ele>
        <time>2020-03-28T18:40:21Z</time>
      </trkpt>
      <trkpt lat="42.7083180" lon="-1.7764040">
        <ele>447.2</ele>
        <time>2020-03-28T18:40:23Z</time>
      </trkpt>
      <trkpt lat="42.7079930" lon="-1.7767350">
        <ele>445.8</ele>
        <time>2020-03-28T18:40:25Z</time>
      </trkpt>
      <trkpt lat="42.7078140" lon="-1.7769170">
        <ele>445.1</ele>
        <time>2020-03-28T18:40:27Z</time>
      </trkpt>
      <trkpt lat="42.7076900" lon="-1.7770420">
        <ele>444.8</ele>
        <time>2020-03-28T18:40:29Z</time>
      </trkpt>
      <trkpt lat="42.7075710" lon="-1.7771630">
        <ele>444.4</ele>
        <time>2020-03-28T18:40:31Z</time>
      </trkpt>
      <trkpt lat="42.7073140" lon="-1.7774230">
        <ele>443.1</ele>
        <time>2020-03-28T18:40:33Z</time>
      </trkpt>
      <trkpt lat="42.7071640" lon="-1.7775760">
        <ele>442.2</ele>
        <time>2020-03-28T18:40:35Z</time>
      </trkpt>
      <trkpt lat="42.7070360" lon="-1.7777060">
        <ele>441.4</ele>
        <time>2020-03-28T18:40:37Z</time>
      </trkpt>
      <trkpt lat="42.7069050" lon="-1.7778380">
        <ele>440.5</ele>
        <time>2020-03-28T18:40:39Z</time>
      </trkpt>
      <trkpt lat="42.7067710" lon="-1.7779740">
        <ele>439.8</ele>
        <time>2020-03-28T18:40:41Z</time>
      </trkpt>
      <trkpt lat="42.7064710" lon="-1.7782780">
        <ele>438.5</ele>
        <time>2020-03-28T18:40:43Z</time>
      </trkpt>
      <trkpt lat="42.7063310" lon="-1.7784190">
        <ele>438.0</ele>
        <time>2020-03-28T18:40:45Z</time>
      </trkpt>
      <trkpt lat="42.7061900" lon="-1.7785610">
        <ele>437.6</ele>
        <time>2020-03-28T18:40:47Z</time>
      </trkpt>
      <trkpt lat="42.7058580" lon="-1.7788970">
        <ele>436.2</ele>
        <time>2020-03-28T18:40:49Z</time>
      </trkpt>
      <trkpt lat="42.7057130" lon="-1.7790440">
        <ele>435.6</ele>
        <time>2020-03-28T18:40:51Z</time>
      </trkpt>
      <trkpt lat="42.7055670" lon="-1.7791920">
        <ele>434.8</ele>
        <time>2020-03-28T18:40:53Z</time>
      </trkpt>
      <trkpt lat="42.7054200" lon="-1.7793400">
        <ele>434.1</ele>
        <time>2020-03-28T18:40:55Z</time>
      </trkpt>
      <trkpt lat="42.7050830" lon="-1.7796820">
        <ele>432.3</ele>
        <time>2020-03-28T18:40:57Z</time>
      </trkpt>
      <trkpt lat="42.7049380" lon="-1.7798290">
        <ele>431.5</ele>
        <time>2020-03-28T18:40:59Z</time>
      </trkpt>
      <trkpt lat="42.7047960" lon="-1.7799720">
        <ele>430.8</ele>
        <time>2020-03-28T18:41:01Z</time>
      </trkpt>
      <trkpt lat="42.7046550" lon="-1.7801160">
        <ele>430.3</ele>
        <time>2020-03-28T18:41:03Z</time>
      </trkpt>
      <trkpt lat="42.7043260" lon="-1.7804490">
        <ele>428.9</ele>
        <time>2020-03-28T18:41:05Z</time>
      </trkpt>
      <trkpt lat="42.7041860" lon="-1.7805910">
        <ele>428.2</ele>
        <time>2020-03-28T18:41:07Z</time>
      </trkpt>
      <trkpt lat="42.7040470" lon="-1.7807310">
        <ele>427.5</ele>
        <time>2020-03-28T18:41:09Z</time>
      </trkpt>
      <trkpt lat="42.7037180" lon="-1.7810640">
        <ele>425.8</ele>
        <time>2020-03-28T18:41:11Z</time>
      </trkpt>
      <trkpt lat="42.7035790" lon="-1.7812050">
        <ele>425.4</ele>
        <time>2020-03-28T18:41:13Z</time>
      </trkpt>
      <trkpt lat="42.7034380" lon="-1.7813470">
        <ele>424.9</ele>
        <time>2020-03-28T18:41:15Z</time>
      </trkpt>
      <trkpt lat="42.7032960" lon="-1.7814910">
        <ele>424.3</ele>
        <time>2020-03-28T18:41:17Z</time>
      </trkpt>
      <trkpt lat="42.7029650" lon="-1.7818260">
        <ele>422.8</ele>
        <time>2020-03-28T18:41:19Z</time>
      </trkpt>
      <trkpt lat="42.7028220" lon="-1.7819710">
        <ele>422.1</ele>
        <time>2020-03-28T18:41:21Z</time>
      </trkpt>
      <trkpt lat="42.7026780" lon="-1.7821170">
        <ele>421.5</ele>
        <time>2020-03-28T18:41:23Z</time>
      </trkpt>
      <trkpt lat="42.7025350" lon="-1.7822620">
        <ele>421.0</ele>
        <time>2020-03-28T18:41:25Z</time>
      </trkpt>
      <trkpt lat="42.7022050" lon="-1.7825970">
        <ele>419.9</ele>
        <time>2020-03-28T18:41:27Z</time>
      </trkpt>
      <trkpt lat="42.7020710" lon="-1.7827320">
        <ele>419.5</ele>
        <time>2020-03-28T18:41:29Z</time>
      </trkpt>
      <trkpt lat="42.7019440" lon="-1.7828600">
        <ele>419.1</ele>
        <time>2020-03-28T18:41:31Z</time>
      </trkpt>
      <trkpt lat="42.7018230" lon="-1.7829820">
        <ele>418.8</ele>
        <time>2020-03-28T18:41:33Z</time>
      </trkpt>
      <trkpt lat="42.7015160" lon="-1.7832930">
        <ele>417.9</ele>
        <time>2020-03-28T18:41:35Z</time>
      </trkpt>
      <trkpt lat="42.7013990" lon="-1.7834110">
        <ele>417.5</ele>
        <time>2020-03-28T18:41:37Z</time>
      </trkpt>
      <trkpt lat="42.7012850" lon="-1.7835270">
        <ele>417.0</ele>
        <time>2020-03-28T18:41:39Z</time>
      </trkpt>
      <trkpt lat="42.7011710" lon="-1.7836420">
        <ele>416.5</ele>
        <time>2020-03-28T18:41:41Z</time>
      </trkpt>
      <trkpt lat="42.7008680" lon="-1.7839490">
        <ele>415.2</ele>
        <time>2020-03-28T18:41:43Z</time>
      </trkpt>
      <trkpt lat="42.7007530" lon="-1.7840640">
        <ele>414.9</ele>
        <time>2020-03-28T18:41:45Z</time>
      </trkpt>
      <trkpt lat="42.7006390" lon="-1.7841800">
        <ele>414.5</ele>
        <time>2020-03-28T18:41:47Z</time>
      </trkpt>
      <trkpt lat="42.7005230" lon="-1.7842980">
        <ele>414.1</ele>
        <time>2020-03-28T18:41:49Z</time>
      </trkpt>
      <trkpt lat="42.7004050" lon="-1.7844170">
        <ele>413.7</ele>
        <time>2020-03-28T18:41:51Z</time>
      </trkpt>
      <trkpt lat="42.7000990" lon="-1.7847270">
        <ele>413.6</ele>
        <time>2020-03-28T18:41:53Z</time>
      </trkpt>
      <trkpt lat="42.6999810" lon="-1.7848470">
        <ele>413.5</ele>
        <time>2020-03-28T18:41:55Z</time>
      </trkpt>
      <trkpt lat="42.6998630" lon="-1.7849670">
        <ele>413.2</ele>
        <time>2020-03-28T18:41:57Z</time>
      </trkpt>
      <trkpt lat="42.6996230" lon="-1.7852110">
        <ele>412.7</ele>
        <time>2020-03-28T18:41:59Z</time>
      </trkpt>
      <trkpt lat="42.6994480" lon="-1.7853880">
        <ele>412.6</ele>
        <time>2020-03-28T18:42:01Z</time>
      </trkpt>
      <trkpt lat="42.6993460" lon="-1.7854910">
        <ele>412.6</ele>
        <time>2020-03-28T18:42:03Z</time>
      </trkpt>
      <trkpt lat="42.6992490" lon="-1.7855890">
        <ele>412.6</ele>
        <time>2020-03-28T18:42:05Z</time>
      </trkpt>
      <trkpt lat="42.6991570" lon="-1.7856830">
        <ele>412.6</ele>
        <time>2020-03-28T18:42:07Z</time>
      </trkpt>
      <trkpt lat="42.6990660" lon="-1.7857750">
        <ele>412.6</ele>
        <time>2020-03-28T18:42:09Z</time>
      </trkpt>
      <trkpt lat="42.6989770" lon="-1.7858660">
        <ele>412.6</ele>
        <time>2020-03-28T18:42:11Z</time>
      </trkpt>
      <trkpt lat="42.6986980" lon="-1.7861490">
        <ele>412.2</ele>
        <time>2020-03-28T18:42:13Z</time>
      </trkpt>
      <trkpt lat="42.6986060" lon="-1.7862420">
        <ele>411.9</ele>
        <time>2020-03-28T18:42:15Z</time>
      </trkpt>
      <trkpt lat="42.6985130" lon="-1.7863360">
        <ele>411.7</ele>
        <time>2020-03-28T18:42:17Z</time>
      </trkpt>
      <trkpt lat="42.6984180" lon="-1.7864320">
        <ele>411.6</ele>
        <time>2020-03-28T18:42:19Z</time>
      </trkpt>
      <trkpt lat="42.6983220" lon="-1.7865300">
        <ele>411.5</ele>
        <time>2020-03-28T18:42:21Z</time>
      </trkpt>
      <trkpt lat="42.6980350" lon="-1.7868210">
        <ele>411.0</ele>
        <time>2020-03-28T18:42:23Z</time>
      </trkpt>
      <trkpt lat="42.6979360" lon="-1.7869220">
        <ele>410.7</ele>
        <time>2020-03-28T18:42:25Z</time>
      </trkpt>
      <trkpt lat="42.6978360" lon="-1.7870240">
        <ele>410.5</ele>
        <time>2020-03-28T18:42:27Z</time>
      </trkpt>
      <trkpt lat="42.6977350" lon="-1.7871260">
        <ele>410.3</ele>
        <time>2020-03-28T18:42:29Z</time>
      </trkpt>
      <trkpt lat="42.6976330" lon="-1.7872300">
        <ele>410.1</ele>
        <time>2020-03-28T18:42:31Z</time>
      </trkpt>
      <trkpt lat="42.6975300" lon="-1.7873350">
        <ele>409.8</ele>
        <time>2020-03-28T18:42:33Z</time>
      </trkpt>
      <trkpt lat="42.6972340" lon="-1.7876270">
        <ele>409.5</ele>
        <time>2020-03-28T18:42:35Z</time>
      </trkpt>
      <trkpt lat="42.6971270" lon="-1.7877270">
        <ele>409.5</ele>
        <time>2020-03-28T18:42:37Z</time>
      </trkpt>
      <trkpt lat="42.6970180" lon="-1.7878270">
        <ele>409.5</ele>
        <time>2020-03-28T18:42:39Z</time>
      </trkpt>
      <trkpt lat="42.6969100" lon="-1.7879280">
        <ele>409.5</ele>
        <time>2020-03-28T18:42:41Z</time>
      </trkpt>
      <trkpt lat="42.6966220" lon="-1.7881960">
        <ele>409.4</ele>
        <time>2020-03-28T18:42:43Z</time>
      </trkpt>
      <trkpt lat="42.6965130" lon="-1.7882990">
        <ele>409.3</ele>
        <time>2020-03-28T18:42:45Z</time>
      </trkpt>
      <trkpt lat="42.6964030" lon="-1.7884010">
        <ele>409.1</ele>
        <time>2020-03-28T18:42:47Z</time>
      </trkpt>
      <trkpt lat="42.6962920" lon="-1.7885050">
        <ele>408.8</ele>
        <time>2020-03-28T18:42:49Z</time>
      </trkpt>
      <trkpt lat="42.6961820" lon="-1.7886070">
        <ele>408.5</ele>
        <time>2020-03-28T18:42:51Z</time>
      </trkpt>
      <trkpt lat="42.6958910" lon="-1.7888790">
        <ele>407.6</ele>
        <time>2020-03-28T18:42:53Z</time>
      </trkpt>
      <trkpt lat="42.6957730" lon="-1.7889890">
        <ele>407.0</ele>
        <time>2020-03-28T18:42:55Z</time>
      </trkpt>
      <trkpt lat="42.6956520" lon="-1.7891030">
        <ele>406.4</ele>
        <time>2020-03-28T18:42:57Z</time>
      </trkpt>
      <trkpt lat="42.6955250" lon="-1.7892220">
        <ele>405.7</ele>
        <time>2020-03-28T18:42:59Z</time>
      </trkpt>
      <trkpt lat="42.6952150" lon="-1.7895110">
        <ele>404.4</ele>
        <time>2020-03-28T18:43:01Z</time>
      </trkpt>
      <trkpt lat="42.6950800" lon="-1.7896370">
        <ele>404.0</ele>
        <time>2020-03-28T18:43:03Z</time>
      </trkpt>
      <trkpt lat="42.6948350" lon="-1.7898700">
        <ele>403.2</ele>
        <time>2020-03-28T18:43:05Z</time>
      </trkpt>
      <trkpt lat="42.6946240" lon="-1.7900720">
        <ele>402.3</ele>
        <time>2020-03-28T18:43:07Z</time>
      </trkpt>
      <trkpt lat="42.6944020" lon="-1.7902190">
        <ele>400.8</ele>
        <time>2020-03-28T18:43:09Z</time>
      </trkpt>
      <trkpt lat="42.6941730" lon="-1.7903060">
        <ele>398.5</ele>
        <time>2020-03-28T18:43:11Z</time>
      </trkpt>
      <trkpt lat="42.6939360" lon="-1.7904160">
        <ele>396.1</ele>
        <time>2020-03-28T18:43:13Z</time>
      </trkpt>
      <trkpt lat="42.6940350" lon="-1.7906810">
        <ele>396.1</ele>
        <time>2020-03-28T18:43:15Z</time>
      </trkpt>
      <trkpt lat="42.6940020" lon="-1.7909930">
        <ele>395.8</ele>
        <time>2020-03-28T18:43:17Z</time>
      </trkpt>
      <trkpt lat="42.6937660" lon="-1.7910860">
        <ele>394.0</ele>
        <time>2020-03-28T18:43:19Z</time>
      </trkpt>
      <trkpt lat="42.6935770" lon="-1.7910070">
        <ele>393.2</ele>
        <time>2020-03-28T18:43:21Z</time>
      </trkpt>
      <trkpt lat="42.6933660" lon="-1.7911940">
        <ele>393.6</ele>
        <time>2020-03-28T18:43:23Z</time>
      </trkpt>
      <trkpt lat="42.6932320" lon="-1.7913160">
        <ele>394.0</ele>
        <time>2020-03-28T18:43:25Z</time>
      </trkpt>
      <trkpt lat="42.6931090" lon="-1.7914280">
        <ele>394.3</ele>
        <time>2020-03-28T18:43:27Z</time>
      </trkpt>
      <trkpt lat="42.6928760" lon="-1.7916400">
        <ele>394.8</ele>
        <time>2020-03-28T18:43:29Z</time>
      </trkpt>
      <trkpt lat="42.6927600" lon="-1.7917460">
        <ele>395.1</ele>
        <time>2020-03-28T18:43:31Z</time>
      </trkpt>
      <trkpt lat="42.6926460" lon="-1.7918510">
        <ele>395.2</ele>
        <time>2020-03-28T18:43:33Z</time>
      </trkpt>
      <trkpt lat="42.6925320" lon="-1.7919550">
        <ele>395.3</ele>
        <time>2020-03-28T18:43:35Z</time>
      </trkpt>
      <trkpt lat="42.6922380" lon="-1.7922240">
        <ele>395.3</ele>
        <time>2020-03-28T18:43:37Z</time>
      </trkpt>
      <trkpt lat="42.6921060" lon="-1.7923450">
        <ele>394.9</ele>
        <time>2020-03-28T18:43:39Z</time>
      </trkpt>
      <trkpt lat="42.6919300" lon="-1.7925070">
        <ele>394.4</ele>
        <time>2020-03-28T18:43:41Z</time>
      </trkpt>
      <trkpt lat="42.6918160" lon="-1.7926110">
        <ele>394.2</ele>
        <time>2020-03-28T18:43:43Z</time>
      </trkpt>
      <trkpt lat="42.6917030" lon="-1.7927150">
        <ele>393.8</ele>
        <time>2020-03-28T18:43:45Z</time>
      </trkpt>
      <trkpt lat="42.6914890" lon="-1.7929100">
        <ele>393.0</ele>
        <time>2020-03-28T18:43:47Z</time>
      </trkpt>
      <trkpt lat="42.6913760" lon="-1.7930140">
        <ele>392.6</ele>
        <time>2020-03-28T18:43:49Z</time>
      </trkpt>
      <trkpt lat="42.6912630" lon="-1.7931180">
        <ele>392.3</ele>
        <time>2020-03-28T18:43:51Z</time>
      </trkpt>
      <trkpt lat="42.6911500" lon="-1.7932220">
        <ele>391.9</ele>
        <time>2020-03-28T18:43:53Z</time>
      </trkpt>
      <trkpt lat="42.6908560" lon="-1.7934910">
        <ele>391.2</ele>
        <time>2020-03-28T18:43:55Z</time>
      </trkpt>
      <trkpt lat="42.6907430" lon="-1.7935950">
        <ele>390.9</ele>
        <time>2020-03-28T18:43:57Z</time>
      </trkpt>
      <trkpt lat="42.6906290" lon="-1.7937000">
        <ele>390.5</ele>
        <time>2020-03-28T18:43:59Z</time>
      </trkpt>
      <trkpt lat="42.6905140" lon="-1.7938060">
        <ele>390.3</ele>
        <time>2020-03-28T18:44:01Z</time>
      </trkpt>
      <trkpt lat="42.6902200" lon="-1.7940760">
        <ele>389.6</ele>
        <time>2020-03-28T18:44:03Z</time>
      </trkpt>
      <trkpt lat="42.6901040" lon="-1.7941820">
        <ele>389.3</ele>
        <time>2020-03-28T18:44:05Z</time>
      </trkpt>
      <trkpt lat="42.6899880" lon="-1.7942890">
        <ele>389.1</ele>
        <time>2020-03-28T18:44:07Z</time>
      </trkpt>
      <trkpt lat="42.6898720" lon="-1.7943950">
        <ele>388.9</ele>
        <time>2020-03-28T18:44:09Z</time>
      </trkpt>
      <trkpt lat="42.6897550" lon="-1.7945030">
        <ele>388.5</ele>
        <time>2020-03-28T18:44:11Z</time>
      </trkpt>
      <trkpt lat="42.6894580" lon="-1.7947750">
        <ele>388.1</ele>
        <time>2020-03-28T18:44:13Z</time>
      </trkpt>
      <trkpt lat="42.6893390" lon="-1.7948840">
        <ele>388.0</ele>
        <time>2020-03-28T18:44:15Z</time>
      </trkpt>
      <trkpt lat="42.6892190" lon="-1.7949950">
        <ele>388.0</ele>
        <time>2020-03-28T18:44:17Z</time>
      </trkpt>
      <trkpt lat="42.6890980" lon="-1.7951060">
        <ele>387.7</ele>
        <time>2020-03-28T18:44:19Z</time>
      </trkpt>
      <trkpt lat="42.6887950" lon="-1.7953850">
        <ele>386.4</ele>
        <time>2020-03-28T18:44:21Z</time>
      </trkpt>
      <trkpt lat="42.6886720" lon="-1.7954970">
        <ele>386.1</ele>
        <time>2020-03-28T18:44:23Z</time>
      </trkpt>
      <trkpt lat="42.6885470" lon="-1.7956120">
        <ele>385.9</ele>
        <time>2020-03-28T18:44:25Z</time>
      </trkpt>
      <trkpt lat="42.6884230" lon="-1.7957260">
        <ele>385.8</ele>
        <time>2020-03-28T18:44:27Z</time>
      </trkpt>
      <trkpt lat="42.6881160" lon="-1.7960070">
        <ele>384.8</ele>
        <time>2020-03-28T18:44:29Z</time>
      </trkpt>
      <trkpt lat="42.6879910" lon="-1.7961220">
        <ele>384.5</ele>
        <time>2020-03-28T18:44:31Z</time>
      </trkpt>
      <trkpt lat="42.6878670" lon="-1.7962360">
        <ele>384.0</ele>
        <time>2020-03-28T18:44:33Z</time>
      </trkpt>
      <trkpt lat="42.6877440" lon="-1.7963500">
        <ele>383.5</ele>
        <time>2020-03-28T18:44:35Z</time>
      </trkpt>
      <trkpt lat="42.6874420" lon="-1.7966270">
        <ele>382.2</ele>
        <time>2020-03-28T18:44:37Z</time>
      </trkpt>
      <trkpt lat="42.6873190" lon="-1.7967400">
        <ele>381.6</ele>
        <time>2020-03-28T18:44:39Z</time>
      </trkpt>
      <trkpt lat="42.6871970" lon="-1.7968530">
        <ele>381.1</ele>
        <time>2020-03-28T18:44:41Z</time>
      </trkpt>
      <trkpt lat="42.6870750" lon="-1.7969650">
        <ele>380.8</ele>
        <time>2020-03-28T18:44:43Z</time>
      </trkpt>
      <trkpt lat="42.6867740" lon="-1.7972420">
        <ele>380.7</ele>
        <time>2020-03-28T18:44:45Z</time>
      </trkpt>
      <trkpt lat="42.6866570" lon="-1.7973500">
        <ele>380.7</ele>
        <time>2020-03-28T18:44:47Z</time>
      </trkpt>
      <trkpt lat="42.6865430" lon="-1.7974550">
        <ele>380.7</ele>
        <time>2020-03-28T18:44:49Z</time>
      </trkpt>
      <trkpt lat="42.6864320" lon="-1.7975580">
        <ele>380.6</ele>
        <time>2020-03-28T18:44:51Z</time>
      </trkpt>
      <trkpt lat="42.6861510" lon="-1.7978170">
        <ele>380.0</ele>
        <time>2020-03-28T18:44:53Z</time>
      </trkpt>
      <trkpt lat="42.6860140" lon="-1.7979440">
        <ele>379.8</ele>
        <time>2020-03-28T18:44:55Z</time>
      </trkpt>
      <trkpt lat="42.6859020" lon="-1.7980470">
        <ele>379.6</ele>
        <time>2020-03-28T18:44:57Z</time>
      </trkpt>
      <trkpt lat="42.6857890" lon="-1.7981510">
        <ele>379.3</ele>
        <time>2020-03-28T18:44:59Z</time>
      </trkpt>
      <trkpt lat="42.6856730" lon="-1.7982580">
        <ele>379.0</ele>
        <time>2020-03-28T18:45:01Z</time>
      </trkpt>
      <trkpt lat="42.6855560" lon="-1.7983650">
        <ele>378.8</ele>
        <time>2020-03-28T18:45:03Z</time>
      </trkpt>
      <trkpt lat="42.6852410" lon="-1.7986560">
        <ele>378.6</ele>
        <time>2020-03-28T18:45:05Z</time>
      </trkpt>
      <trkpt lat="42.6851220" lon="-1.7987660">
        <ele>378.4</ele>
        <time>2020-03-28T18:45:07Z</time>
      </trkpt>
      <trkpt lat="42.6850010" lon="-1.7988770">
        <ele>378.1</ele>
        <time>2020-03-28T18:45:09Z</time>
      </trkpt>
      <trkpt lat="42.6848810" lon="-1.7989880">
        <ele>377.8</ele>
        <time>2020-03-28T18:45:11Z</time>
      </trkpt>
      <trkpt lat="42.6845610" lon="-1.7992830">
        <ele>377.1</ele>
        <time>2020-03-28T18:45:13Z</time>
      </trkpt>
      <trkpt lat="42.6844370" lon="-1.7993970">
        <ele>376.8</ele>
        <time>2020-03-28T18:45:15Z</time>
      </trkpt>
      <trkpt lat="42.6843120" lon="-1.7995130">
        <ele>376.5</ele>
        <time>2020-03-28T18:45:17Z</time>
      </trkpt>
      <trkpt lat="42.6841850" lon="-1.7996310">
        <ele>376.2</ele>
        <time>2020-03-28T18:45:19Z</time>
      </trkpt>
      <trkpt lat="42.6838590" lon="-1.7999310">
        <ele>375.0</ele>
        <time>2020-03-28T18:45:21Z</time>
      </trkpt>
      <trkpt lat="42.6837290" lon="-1.8000520">
        <ele>374.3</ele>
        <time>2020-03-28T18:45:23Z</time>
      </trkpt>
      <trkpt lat="42.6835980" lon="-1.8001730">
        <ele>373.6</ele>
        <time>2020-03-28T18:45:25Z</time>
      </trkpt>
      <trkpt lat="42.6834640" lon="-1.8002960">
        <ele>372.9</ele>
        <time>2020-03-28T18:45:27Z</time>
      </trkpt>
      <trkpt lat="42.6833300" lon="-1.8004200">
        <ele>372.1</ele>
        <time>2020-03-28T18:45:29Z</time>
      </trkpt>
      <trkpt lat="42.6829980" lon="-1.8007260">
        <ele>370.6</ele>
        <time>2020-03-28T18:45:31Z</time>
      </trkpt>
      <trkpt lat="42.6828590" lon="-1.8008530">
        <ele>370.2</ele>
        <time>2020-03-28T18:45:33Z</time>
      </trkpt>
      <trkpt lat="42.6827190" lon="-1.8009830">
        <ele>369.8</ele>
        <time>2020-03-28T18:45:35Z</time>
      </trkpt>
      <trkpt lat="42.6823800" lon="-1.8012950">
        <ele>368.6</ele>
        <time>2020-03-28T18:45:37Z</time>
      </trkpt>
      <trkpt lat="42.6822360" lon="-1.8014290">
        <ele>368.0</ele>
        <time>2020-03-28T18:45:39Z</time>
      </trkpt>
      <trkpt lat="42.6820910" lon="-1.8015630">
        <ele>367.5</ele>
        <time>2020-03-28T18:45:41Z</time>
      </trkpt>
      <trkpt lat="42.6818140" lon="-1.8018180">
        <ele>366.0</ele>
        <time>2020-03-28T18:45:43Z</time>
      </trkpt>
      <trkpt lat="42.6816100" lon="-1.8020020">
        <ele>364.6</ele>
        <time>2020-03-28T18:45:45Z</time>
      </trkpt>
      <trkpt lat="42.6814740" lon="-1.8021180">
        <ele>364.3</ele>
        <time>2020-03-28T18:45:47Z</time>
      </trkpt>
      <trkpt lat="42.6813430" lon="-1.8022300">
        <ele>363.8</ele>
        <time>2020-03-28T18:45:49Z</time>
      </trkpt>
      <trkpt lat="42.6812140" lon="-1.8023400">
        <ele>363.6</ele>
        <time>2020-03-28T18:45:51Z</time>
      </trkpt>
      <trkpt lat="42.6809160" lon="-1.8025990">
        <ele>363.4</ele>
        <time>2020-03-28T18:45:53Z</time>
      </trkpt>
      <trkpt lat="42.6808020" lon="-1.8027050">
        <ele>363.1</ele>
        <time>2020-03-28T18:45:55Z</time>
      </trkpt>
      <trkpt lat="42.6806940" lon="-1.8028060">
        <ele>362.9</ele>
        <time>2020-03-28T18:45:57Z</time>
      </trkpt>
      <trkpt lat="42.6804520" lon="-1.8030300">
        <ele>362.8</ele>
        <time>2020-03-28T18:45:59Z</time>
      </trkpt>
      <trkpt lat="42.6803520" lon="-1.8031240">
        <ele>362.8</ele>
        <time>2020-03-28T18:46:01Z</time>
      </trkpt>
      <trkpt lat="42.6802540" lon="-1.8032150">
        <ele>362.9</ele>
        <time>2020-03-28T18:46:03Z</time>
      </trkpt>
      <trkpt lat="42.6801580" lon="-1.8033050">
        <ele>362.9</ele>
        <time>2020-03-28T18:46:05Z</time>
      </trkpt>
      <trkpt lat="42.6799240" lon="-1.8035230">
        <ele>363.1</ele>
        <time>2020-03-28T18:46:07Z</time>
      </trkpt>
      <trkpt lat="42.6798300" lon="-1.8036100">
        <ele>363.3</ele>
        <time>2020-03-28T18:46:09Z</time>
      </trkpt>
      <trkpt lat="42.6797400" lon="-1.8036940">
        <ele>363.5</ele>
        <time>2020-03-28T18:46:11Z</time>
      </trkpt>
      <trkpt lat="42.6796520" lon="-1.8037760">
        <ele>363.8</ele>
        <time>2020-03-28T18:46:13Z</time>
      </trkpt>
      <trkpt lat="42.6794290" lon="-1.8039840">
        <ele>364.3</ele>
        <time>2020-03-28T18:46:15Z</time>
      </trkpt>
      <trkpt lat="42.6793480" lon="-1.8040630">
        <ele>364.2</ele>
        <time>2020-03-28T18:46:17Z</time>
      </trkpt>
      <trkpt lat="42.6792670" lon="-1.8041410">
        <ele>364.1</ele>
        <time>2020-03-28T18:46:19Z</time>
      </trkpt>
      <trkpt lat="42.6791890" lon="-1.8042170">
        <ele>364.0</ele>
        <time>2020-03-28T18:46:21Z</time>
      </trkpt>
      <trkpt lat="42.6791120" lon="-1.8042910">
        <ele>364.0</ele>
        <time>2020-03-28T18:46:23Z</time>
      </trkpt>
      <trkpt lat="42.6789060" lon="-1.8044910">
        <ele>364.1</ele>
        <time>2020-03-28T18:46:25Z</time>
      </trkpt>
      <trkpt lat="42.6788260" lon="-1.8045690">
        <ele>364.1</ele>
        <time>2020-03-28T18:46:27Z</time>
      </trkpt>
      <trkpt lat="42.6787390" lon="-1.8046530">
        <ele>364.0</ele>
        <time>2020-03-28T18:46:29Z</time>
      </trkpt>
      <trkpt lat="42.6786490" lon="-1.8047410">
        <ele>364.0</ele>
        <time>2020-03-28T18:46:31Z</time>
      </trkpt>
      <trkpt lat="42.6784230" lon="-1.8049570">
        <ele>364.0</ele>
        <time>2020-03-28T18:46:33Z</time>
      </trkpt>
      <trkpt lat="42.6783210" lon="-1.8050470">
        <ele>364.0</ele>
        <time>2020-03-28T18:46:35Z</time>
      </trkpt>
      <trkpt lat="42.6781320" lon="-1.8052160">
        <ele>364.2</ele>
        <time>2020-03-28T18:46:37Z</time>
      </trkpt>
      <trkpt lat="42.6780250" lon="-1.8053170">
        <ele>364.8</ele>
        <time>2020-03-28T18:46:39Z</time>
      </trkpt>
      <trkpt lat="42.6778610" lon="-1.8054730">
        <ele>365.6</ele>
        <time>2020-03-28T18:46:41Z</time>
      </trkpt>
      <trkpt lat="42.6777110" lon="-1.8056140">
        <ele>365.5</ele>
        <time>2020-03-28T18:46:43Z</time>
      </trkpt>
      <trkpt lat="42.6775940" lon="-1.8057230">
        <ele>364.5</ele>
        <time>2020-03-28T18:46:45Z</time>
      </trkpt>
      <trkpt lat="42.6773730" lon="-1.8059290">
        <ele>361.6</ele>
        <time>2020-03-28T18:46:47Z</time>
      </trkpt>
      <trkpt lat="42.6772510" lon="-1.8060440">
        <ele>359.8</ele>
        <time>2020-03-28T18:46:49Z</time>
      </trkpt>
      <trkpt lat="42.6771250" lon="-1.8061630">
        <ele>358.0</ele>
        <time>2020-03-28T18:46:51Z</time>
      </trkpt>
      <trkpt lat="42.6768580" lon="-1.8064100">
        <ele>355.8</ele>
        <time>2020-03-28T18:46:53Z</time>
      </trkpt>
      <trkpt lat="42.6766890" lon="-1.8065630">
        <ele>355.8</ele>
        <time>2020-03-28T18:46:55Z</time>
      </trkpt>
      <trkpt lat="42.6765390" lon="-1.8066990">
        <ele>356.2</ele>
        <time>2020-03-28T18:46:57Z</time>
      </trkpt>
      <trkpt lat="42.6763340" lon="-1.8068840">
        <ele>355.5</ele>
        <time>2020-03-28T18:46:59Z</time>
      </trkpt>
      <trkpt lat="42.6762170" lon="-1.8069910">
        <ele>355.2</ele>
        <time>2020-03-28T18:47:01Z</time>
      </trkpt>
      <trkpt lat="42.6761010" lon="-1.8070960">
        <ele>355.1</ele>
        <time>2020-03-28T18:47:03Z</time>
      </trkpt>
      <trkpt lat="42.6758820" lon="-1.8072900">
        <ele>355.1</ele>
        <time>2020-03-28T18:47:05Z</time>
      </trkpt>
      <trkpt lat="42.6757410" lon="-1.8074280">
        <ele>355.7</ele>
        <time>2020-03-28T18:47:07Z</time>
      </trkpt>
      <trkpt lat="42.6756490" lon="-1.8075350">
        <ele>356.6</ele>
        <time>2020-03-28T18:47:09Z</time>
      </trkpt>
      <trkpt lat="42.6755030" lon="-1.8077080">
        <ele>357.8</ele>
        <time>2020-03-28T18:47:11Z</time>
      </trkpt>
      <trkpt lat="42.6753970" lon="-1.8078530">
        <ele>358.5</ele>
        <time>2020-03-28T18:47:13Z</time>
      </trkpt>
      <trkpt lat="42.6753040" lon="-1.8079890">
        <ele>359.0</ele>
        <time>2020-03-28T18:47:15Z</time>
      </trkpt>
      <trkpt lat="42.6752020" lon="-1.8081270">
        <ele>359.3</ele>
        <time>2020-03-28T18:47:17Z</time>
      </trkpt>
      <trkpt lat="42.6751310" lon="-1.8082290">
        <ele>359.6</ele>
        <time>2020-03-28T18:47:19Z</time>
      </trkpt>
      <trkpt lat="42.6750140" lon="-1.8083970">
        <ele>360.3</ele>
        <time>2020-03-28T18:47:21Z</time>
      </trkpt>
      <trkpt lat="42.6749320" lon="-1.8085170">
        <ele>360.8</ele>
        <time>2020-03-28T18:47:23Z</time>
      </trkpt>
      <trkpt lat="42.6747840" lon="-1.8087320">
        <ele>361.8</ele>
        <time>2020-03-28T18:47:25Z</time>
      </trkpt>
      <trkpt lat="42.6746920" lon="-1.8088670">
        <ele>362.4</ele>
        <time>2020-03-28T18:47:27Z</time>
      </trkpt>
      <trkpt lat="42.6745130" lon="-1.8091210">
        <ele>358.8</ele>
        <time>2020-03-28T18:47:29Z</time>
      </trkpt>
      <trkpt lat="42.6744170" lon="-1.8092550">
        <ele>356.2</ele>
        <time>2020-03-28T18:47:31Z</time>
      </trkpt>
      <trkpt lat="42.6742450" lon="-1.8094950">
        <ele>352.0</ele>
        <time>2020-03-28T18:47:33Z</time>
      </trkpt>
      <trkpt lat="42.6741210" lon="-1.8096700">
        <ele>351.6</ele>
        <time>2020-03-28T18:47:35Z</time>
      </trkpt>
      <trkpt lat="42.6740340" lon="-1.8097990">
        <ele>351.5</ele>
        <time>2020-03-28T18:47:37Z</time>
      </trkpt>
      <trkpt lat="42.6739040" lon="-1.8099980">
        <ele>351.4</ele>
        <time>2020-03-28T18:47:39Z</time>
      </trkpt>
      <trkpt lat="42.6738030" lon="-1.8101900">
        <ele>351.4</ele>
        <time>2020-03-28T18:47:41Z</time>
      </trkpt>
      <trkpt lat="42.6737330" lon="-1.8104060">
        <ele>352.1</ele>
        <time>2020-03-28T18:47:43Z</time>
      </trkpt>
      <trkpt lat="42.6736920" lon="-1.8106170">
        <ele>352.6</ele>
        <time>2020-03-28T18:47:45Z</time>
      </trkpt>
      <trkpt lat="42.6736510" lon="-1.8108880">
        <ele>353.0</ele>
        <time>2020-03-28T18:47:47Z</time>
      </trkpt>
      <trkpt lat="42.6736240" lon="-1.8110610">
        <ele>353.6</ele>
        <time>2020-03-28T18:47:49Z</time>
      </trkpt>
      <trkpt lat="42.6735960" lon="-1.8112360">
        <ele>354.2</ele>
        <time>2020-03-28T18:47:51Z</time>
      </trkpt>
      <trkpt lat="42.6735670" lon="-1.8114140">
        <ele>355.1</ele>
        <time>2020-03-28T18:47:53Z</time>
      </trkpt>
      <trkpt lat="42.6735070" lon="-1.8117910">
        <ele>357.3</ele>
        <time>2020-03-28T18:47:55Z</time>
      </trkpt>
      <trkpt lat="42.6734590" lon="-1.8120880">
        <ele>358.0</ele>
        <time>2020-03-28T18:47:57Z</time>
      </trkpt>
      <trkpt lat="42.6734280" lon="-1.8122780">
        <ele>356.2</ele>
        <time>2020-03-28T18:47:59Z</time>
      </trkpt>
      <trkpt lat="42.6733960" lon="-1.8124700">
        <ele>354.2</ele>
        <time>2020-03-28T18:48:01Z</time>
      </trkpt>
      <trkpt lat="42.6733040" lon="-1.8128630">
        <ele>350.7</ele>
        <time>2020-03-28T18:48:03Z</time>
      </trkpt>
      <trkpt lat="42.6731270" lon="-1.8129700">
        <ele>349.4</ele>
        <time>2020-03-28T18:48:05Z</time>
      </trkpt>
      <trkpt lat="42.6729370" lon="-1.8129450">
        <ele>348.8</ele>
        <time>2020-03-28T18:48:07Z</time>
      </trkpt>
      <trkpt lat="42.6727890" lon="-1.8129040">
        <ele>348.6</ele>
        <time>2020-03-28T18:48:09Z</time>
      </trkpt>
      <trkpt lat="42.6726390" lon="-1.8128630">
        <ele>348.5</ele>
        <time>2020-03-28T18:48:11Z</time>
      </trkpt>
      <trkpt lat="42.6723490" lon="-1.8127740">
        <ele>348.0</ele>
        <time>2020-03-28T18:48:13Z</time>
      </trkpt>
      <trkpt lat="42.6722130" lon="-1.8127230">
        <ele>347.6</ele>
        <time>2020-03-28T18:48:15Z</time>
      </trkpt>
      <trkpt lat="42.6720840" lon="-1.8126740">
        <ele>347.2</ele>
        <time>2020-03-28T18:48:17Z</time>
      </trkpt>
      <trkpt lat="42.6719620" lon="-1.8126290">
        <ele>346.8</ele>
        <time>2020-03-28T18:48:19Z</time>
      </trkpt>
      <trkpt lat="42.6718430" lon="-1.8125840">
        <ele>346.7</ele>
        <time>2020-03-28T18:48:21Z</time>
      </trkpt>
      <trkpt lat="42.6714740" lon="-1.8125750">
        <ele>346.8</ele>
        <time>2020-03-28T18:48:23Z</time>
      </trkpt>
      <trkpt lat="42.6713950" lon="-1.8127400">
        <ele>346.8</ele>
        <time>2020-03-28T18:48:25Z</time>
      </trkpt>
      <trkpt lat="42.6713440" lon="-1.8129600">
        <ele>346.8</ele>
        <time>2020-03-28T18:48:27Z</time>
      </trkpt>
      <trkpt lat="42.6713020" lon="-1.8131570">
        <ele>346.7</ele>
        <time>2020-03-28T18:48:29Z</time>
      </trkpt>
      <trkpt lat="42.6712710" lon="-1.8133140">
        <ele>346.7</ele>
        <time>2020-03-28T18:48:31Z</time>
      </trkpt>
      <trkpt lat="42.6712400" lon="-1.8134740">
        <ele>346.6</ele>
        <time>2020-03-28T18:48:33Z</time>
      </trkpt>
      <trkpt lat="42.6711770" lon="-1.8137920">
        <ele>346.2</ele>
        <time>2020-03-28T18:48:35Z</time>
      </trkpt>
      <trkpt lat="42.6711320" lon="-1.8140080">
        <ele>345.8</ele>
        <time>2020-03-28T18:48:37Z</time>
      </trkpt>
      <trkpt lat="42.6710800" lon="-1.8142650">
        <ele>345.9</ele>
        <time>2020-03-28T18:48:39Z</time>
      </trkpt>
      <trkpt lat="42.6710440" lon="-1.8144350">
        <ele>346.0</ele>
        <time>2020-03-28T18:48:41Z</time>
      </trkpt>
      <trkpt lat="42.6710070" lon="-1.8146100">
        <ele>346.1</ele>
        <time>2020-03-28T18:48:43Z</time>
      </trkpt>
      <trkpt lat="42.6709690" lon="-1.8147900">
        <ele>346.3</ele>
        <time>2020-03-28T18:48:45Z</time>
      </trkpt>
      <trkpt lat="42.6708860" lon="-1.8151810">
        <ele>346.5</ele>
        <time>2020-03-28T18:48:47Z</time>
      </trkpt>
      <trkpt lat="42.6708300" lon="-1.8154720">
        <ele>346.7</ele>
        <time>2020-03-28T18:48:49Z</time>
      </trkpt>
      <trkpt lat="42.6707940" lon="-1.8156670">
        <ele>346.6</ele>
        <time>2020-03-28T18:48:51Z</time>
      </trkpt>
      <trkpt lat="42.6707310" lon="-1.8159940">
        <ele>345.7</ele>
        <time>2020-03-28T18:48:53Z</time>
      </trkpt>
      <trkpt lat="42.6706710" lon="-1.8162620">
        <ele>343.6</ele>
        <time>2020-03-28T18:48:55Z</time>
      </trkpt>
      <trkpt lat="42.6706250" lon="-1.8164710">
        <ele>341.9</ele>
        <time>2020-03-28T18:48:57Z</time>
      </trkpt>
      <trkpt lat="42.6705780" lon="-1.8166880">
        <ele>340.2</ele>
        <time>2020-03-28T18:48:59Z</time>
      </trkpt>
      <trkpt lat="42.6705280" lon="-1.8169140">
        <ele>338.4</ele>
        <time>2020-03-28T18:49:01Z</time>
      </trkpt>
      <trkpt lat="42.6703980" lon="-1.8174360">
        <ele>336.4</ele>
        <time>2020-03-28T18:49:03Z</time>
      </trkpt>
      <trkpt lat="42.6702900" lon="-1.8177590">
        <ele>337.2</ele>
        <time>2020-03-28T18:49:05Z</time>
      </trkpt>
      <trkpt lat="42.6702110" lon="-1.8179540">
        <ele>337.6</ele>
        <time>2020-03-28T18:49:07Z</time>
      </trkpt>
      <trkpt lat="42.6701410" lon="-1.8181270">
        <ele>337.9</ele>
        <time>2020-03-28T18:49:09Z</time>
      </trkpt>
      <trkpt lat="42.6700020" lon="-1.8184700">
        <ele>338.5</ele>
        <time>2020-03-28T18:49:11Z</time>
      </trkpt>
      <trkpt lat="42.6699470" lon="-1.8186070">
        <ele>338.7</ele>
        <time>2020-03-28T18:49:13Z</time>
      </trkpt>
      <trkpt lat="42.6698520" lon="-1.8188440">
        <ele>338.2</ele>
        <time>2020-03-28T18:49:15Z</time>
      </trkpt>
      <trkpt lat="42.6698150" lon="-1.8189360">
        <ele>339.2</ele>
        <time>2020-03-28T18:49:17Z</time>
      </trkpt>
      <trkpt lat="42.6697890" lon="-1.8190020">
        <ele>340.0</ele>
        <time>2020-03-28T18:49:19Z</time>
      </trkpt>
      <trkpt lat="42.6697370" lon="-1.8191330">
        <ele>341.6</ele>
        <time>2020-03-28T18:49:21Z</time>
      </trkpt>
      <trkpt lat="42.6697260" lon="-1.8191650">
        <ele>342.2</ele>
        <time>2020-03-28T18:49:23Z</time>
      </trkpt>
      <trkpt lat="42.6697170" lon="-1.8191910">
        <ele>342.8</ele>
        <time>2020-03-28T18:49:25Z</time>
      </trkpt>
      <trkpt lat="42.6697090" lon="-1.8192150">
        <ele>343.3</ele>
        <time>2020-03-28T18:49:27Z</time>
      </trkpt>
      <trkpt lat="42.6697000" lon="-1.8192390">
        <ele>343.8</ele>
        <time>2020-03-28T18:49:29Z</time>
      </trkpt>
      <trkpt lat="42.6696920" lon="-1.8192630">
        <ele>344.3</ele>
        <time>2020-03-28T18:49:31Z</time>
      </trkpt>
      <trkpt lat="42.6696830" lon="-1.8192870">
        <ele>344.8</ele>
        <time>2020-03-28T18:49:33Z</time>
      </trkpt>
      <trkpt lat="42.6696750" lon="-1.8193110">
        <ele>345.3</ele>
        <time>2020-03-28T18:49:35Z</time>
      </trkpt>
      <trkpt lat="42.6696660" lon="-1.8193360">
        <ele>345.9</ele>
        <time>2020-03-28T18:49:37Z</time>
      </trkpt>
      <trkpt lat="42.6696580" lon="-1.8193600">
        <ele>346.4</ele>
        <time>2020-03-28T18:49:39Z</time>
      </trkpt>
      <trkpt lat="42.6696500" lon="-1.8193830">
        <ele>346.9</ele>
        <time>2020-03-28T18:49:41Z</time>
      </trkpt>
      <trkpt lat="42.6696410" lon="-1.8194070">
        <ele>347.4</ele>
        <time>2020-03-28T18:49:43Z</time>
      </trkpt>
      <trkpt lat="42.6696330" lon="-1.8194310">
        <ele>347.9</ele>
        <time>2020-03-28T18:49:45Z</time>
      </trkpt>
      <trkpt lat="42.6696250" lon="-1.8194540">
        <ele>348.4</ele>
        <time>2020-03-28T18:49:47Z</time>
      </trkpt>
      <trkpt lat="42.6695750" lon="-1.8195960">
        <ele>351.0</ele>
        <time>2020-03-28T18:49:49Z</time>
      </trkpt>
      <trkpt lat="42.6695670" lon="-1.8196210">
        <ele>351.0</ele>
        <time>2020-03-28T18:49:51Z</time>
      </trkpt>
      <trkpt lat="42.6695590" lon="-1.8196450">
        <ele>351.0</ele>
        <time>2020-03-28T18:49:53Z</time>
      </trkpt>
      <trkpt lat="42.6695510" lon="-1.8196690">
        <ele>351.0</ele>
        <time>2020-03-28T18:49:55Z</time>
      </trkpt>
      <trkpt lat="42.6695430" lon="-1.8196920">
        <ele>351.0</ele>
        <time>2020-03-28T18:49:57Z</time>
      </trkpt>
      <trkpt lat="42.6695350" lon="-1.8197150">
        <ele>351.0</ele>
        <time>2020-03-28T18:49:59Z</time>
      </trkpt>
      <trkpt lat="42.6695260" lon="-1.8197400">
        <ele>351.0</ele>
        <time>2020-03-28T18:50:01Z</time>
      </trkpt>
      <trkpt lat="42.6695180" lon="-1.8197640">
        <ele>351.0</ele>
        <time>2020-03-28T18:50:03Z</time>
      </trkpt>
      <trkpt lat="42.6695100" lon="-1.8197870">
        <ele>351.0</ele>
        <time>2020-03-28T18:50:05Z</time>
      </trkpt>
      <trkpt lat="42.6695020" lon="-1.8198120">
        <ele>351.0</ele>
        <time>2020-03-28T18:50:07Z</time>
      </trkpt>
      <trkpt lat="42.6694940" lon="-1.8198350">
        <ele>351.0</ele>
        <time>2020-03-28T18:50:09Z</time>
      </trkpt>
      <trkpt lat="42.6694860" lon="-1.8198590">
        <ele>351.0</ele>
        <time>2020-03-28T18:50:11Z</time>
      </trkpt>
      <trkpt lat="42.6694780" lon="-1.8198820">
        <ele>351.0</ele>
        <time>2020-03-28T18:50:13Z</time>
      </trkpt>
      <trkpt lat="42.6694700" lon="-1.8199060">
        <ele>351.0</ele>
        <time>2020-03-28T18:50:15Z</time>
      </trkpt>
      <trkpt lat="42.6694190" lon="-1.8200530">
        <ele>351.0</ele>
        <time>2020-03-28T18:50:17Z</time>
      </trkpt>
      <trkpt lat="42.6694030" lon="-1.8200990">
        <ele>351.0</ele>
        <time>2020-03-28T18:50:19Z</time>
      </trkpt>
      <trkpt lat="42.6693820" lon="-1.8201630">
        <ele>351.1</ele>
        <time>2020-03-28T18:50:21Z</time>
      </trkpt>
      <trkpt lat="42.6693550" lon="-1.8202410">
        <ele>351.1</ele>
        <time>2020-03-28T18:50:23Z</time>
      </trkpt>
      <trkpt lat="42.6693250" lon="-1.8203300">
        <ele>351.1</ele>
        <time>2020-03-28T18:50:25Z</time>
      </trkpt>
      <trkpt lat="42.6692920" lon="-1.8204270">
        <ele>351.2</ele>
        <time>2020-03-28T18:50:27Z</time>
      </trkpt>
      <trkpt lat="42.6692560" lon="-1.8205330">
        <ele>351.4</ele>
        <time>2020-03-28T18:50:29Z</time>
      </trkpt>
      <trkpt lat="42.6692180" lon="-1.8206450">
        <ele>351.6</ele>
        <time>2020-03-28T18:50:31Z</time>
      </trkpt>
      <trkpt lat="42.6690950" lon="-1.8210060">
        <ele>351.7</ele>
        <time>2020-03-28T18:50:33Z</time>
      </trkpt>
      <trkpt lat="42.6690520" lon="-1.8211300">
        <ele>351.5</ele>
        <time>2020-03-28T18:50:35Z</time>
      </trkpt>
      <trkpt lat="42.6690090" lon="-1.8212590">
        <ele>351.2</ele>
        <time>2020-03-28T18:50:37Z</time>
      </trkpt>
      <trkpt lat="42.6689630" lon="-1.8213920">
        <ele>350.9</ele>
        <time>2020-03-28T18:50:39Z</time>
      </trkpt>
      <trkpt lat="42.6689160" lon="-1.8215300">
        <ele>350.6</ele>
        <time>2020-03-28T18:50:41Z</time>
      </trkpt>
      <trkpt lat="42.6687860" lon="-1.8219120">
        <ele>349.9</ele>
        <time>2020-03-28T18:50:43Z</time>
      </trkpt>
      <trkpt lat="42.6687360" lon="-1.8220570">
        <ele>349.6</ele>
        <time>2020-03-28T18:50:45Z</time>
      </trkpt>
      <trkpt lat="42.6686840" lon="-1.8222070">
        <ele>349.3</ele>
        <time>2020-03-28T18:50:47Z</time>
      </trkpt>
      <trkpt lat="42.6685750" lon="-1.8225270">
        <ele>348.7</ele>
        <time>2020-03-28T18:50:49Z</time>
      </trkpt>
      <trkpt lat="42.6685230" lon="-1.8226870">
        <ele>348.6</ele>
        <time>2020-03-28T18:50:51Z</time>
      </trkpt>
      <trkpt lat="42.6684430" lon="-1.8229280">
        <ele>348.0</ele>
        <time>2020-03-28T18:50:53Z</time>
      </trkpt>
      <trkpt lat="42.6683680" lon="-1.8231740">
        <ele>347.3</ele>
        <time>2020-03-28T18:50:55Z</time>
      </trkpt>
      <trkpt lat="42.6683200" lon="-1.8233470">
        <ele>346.8</ele>
        <time>2020-03-28T18:50:57Z</time>
      </trkpt>
      <trkpt lat="42.6682510" lon="-1.8236260">
        <ele>346.0</ele>
        <time>2020-03-28T18:50:59Z</time>
      </trkpt>
      <trkpt lat="42.6681830" lon="-1.8239250">
        <ele>344.9</ele>
        <time>2020-03-28T18:51:01Z</time>
      </trkpt>
      <trkpt lat="42.6681410" lon="-1.8241690">
        <ele>344.3</ele>
        <time>2020-03-28T18:51:03Z</time>
      </trkpt>
      <trkpt lat="42.6681070" lon="-1.8244210">
        <ele>344.1</ele>
        <time>2020-03-28T18:51:05Z</time>
      </trkpt>
      <trkpt lat="42.6680790" lon="-1.8246670">
        <ele>343.5</ele>
        <time>2020-03-28T18:51:07Z</time>
      </trkpt>
      <trkpt lat="42.6680490" lon="-1.8249510">
        <ele>343.4</ele>
        <time>2020-03-28T18:51:09Z</time>
      </trkpt>
      <trkpt lat="42.6680310" lon="-1.8251410">
        <ele>343.6</ele>
        <time>2020-03-28T18:51:11Z</time>
      </trkpt>
      <trkpt lat="42.6680140" lon="-1.8253210">
        <ele>343.8</ele>
        <time>2020-03-28T18:51:13Z</time>
      </trkpt>
      <trkpt lat="42.6679740" lon="-1.8257260">
        <ele>343.8</ele>
        <time>2020-03-28T18:51:15Z</time>
      </trkpt>
      <trkpt lat="42.6679570" lon="-1.8258900">
        <ele>343.9</ele>
        <time>2020-03-28T18:51:17Z</time>
      </trkpt>
      <trkpt lat="42.6679420" lon="-1.8260450">
        <ele>344.1</ele>
        <time>2020-03-28T18:51:19Z</time>
      </trkpt>
      <trkpt lat="42.6679110" lon="-1.8263410">
        <ele>345.0</ele>
        <time>2020-03-28T18:51:21Z</time>
      </trkpt>
      <trkpt lat="42.6678920" lon="-1.8265510">
        <ele>346.0</ele>
        <time>2020-03-28T18:51:23Z</time>
      </trkpt>
      <trkpt lat="42.6679960" lon="-1.8266310">
        <ele>346.5</ele>
        <time>2020-03-28T18:51:25Z</time>
      </trkpt>
      <trkpt lat="42.6680610" lon="-1.8267570">
        <ele>347.1</ele>
        <time>2020-03-28T18:51:27Z</time>
      </trkpt>
      <trkpt lat="42.6680800" lon="-1.8269080">
        <ele>347.6</ele>
        <time>2020-03-28T18:51:29Z</time>
      </trkpt>
      <trkpt lat="42.6680550" lon="-1.8270450">
        <ele>348.1</ele>
        <time>2020-03-28T18:51:31Z</time>
      </trkpt>
      <trkpt lat="42.6679770" lon="-1.8271760">
        <ele>347.9</ele>
        <time>2020-03-28T18:51:33Z</time>
      </trkpt>
      <trkpt lat="42.6678960" lon="-1.8272300">
        <ele>347.4</ele>
        <time>2020-03-28T18:51:35Z</time>
      </trkpt>
      <trkpt lat="42.6679140" lon="-1.8273440">
        <ele>348.4</ele>
        <time>2020-03-28T18:51:37Z</time>
      </trkpt>
      <trkpt lat="42.6679830" lon="-1.8274530">
        <ele>349.6</ele>
        <time>2020-03-28T18:51:39Z</time>
      </trkpt>
      <trkpt lat="42.6680680" lon="-1.8274960">
        <ele>349.8</ele>
        <time>2020-03-28T18:51:41Z</time>
      </trkpt>
      <trkpt lat="42.6681800" lon="-1.8275490">
        <ele>349.8</ele>
        <time>2020-03-28T18:51:43Z</time>
      </trkpt>
      <trkpt lat="42.6682530" lon="-1.8275960">
        <ele>349.8</ele>
        <time>2020-03-28T18:51:45Z</time>
      </trkpt>
      <trkpt lat="42.6683270" lon="-1.8276440">
        <ele>349.8</ele>
        <time>2020-03-28T18:51:47Z</time>
      </trkpt>
      <trkpt lat="42.6684690" lon="-1.8277550">
        <ele>349.9</ele>
        <time>2020-03-28T18:51:49Z</time>
      </trkpt>
      <trkpt lat="42.6685490" lon="-1.8278870">
        <ele>349.9</ele>
        <time>2020-03-28T18:51:51Z</time>
      </trkpt>
      <trkpt lat="42.6686090" lon="-1.8280100">
        <ele>349.9</ele>
        <time>2020-03-28T18:51:53Z</time>
      </trkpt>
      <trkpt lat="42.6686960" lon="-1.8280690">
        <ele>349.9</ele>
        <time>2020-03-28T18:51:55Z</time>
      </trkpt>
      <trkpt lat="42.6688050" lon="-1.8281150">
        <ele>349.9</ele>
        <time>2020-03-28T18:51:57Z</time>
      </trkpt>
      <trkpt lat="42.6688740" lon="-1.8281250">
        <ele>349.9</ele>
        <time>2020-03-28T18:51:59Z</time>
      </trkpt>
      <trkpt lat="42.6689410" lon="-1.8281340">
        <ele>349.9</ele>
        <time>2020-03-28T18:52:01Z</time>
      </trkpt>
      <trkpt lat="42.6690750" lon="-1.8281570">
        <ele>350.0</ele>
        <time>2020-03-28T18:52:03Z</time>
      </trkpt>
      <trkpt lat="42.6691320" lon="-1.8281760">
        <ele>350.2</ele>
        <time>2020-03-28T18:52:05Z</time>
      </trkpt>
      <trkpt lat="42.6691870" lon="-1.8281940">
        <ele>350.3</ele>
        <time>2020-03-28T18:52:07Z</time>
      </trkpt>
      <trkpt lat="42.6692400" lon="-1.8282120">
        <ele>350.6</ele>
        <time>2020-03-28T18:52:09Z</time>
      </trkpt>
      <trkpt lat="42.6693710" lon="-1.8282580">
        <ele>351.3</ele>
        <time>2020-03-28T18:52:11Z</time>
      </trkpt>
      <trkpt lat="42.6694190" lon="-1.8282850">
        <ele>351.5</ele>
        <time>2020-03-28T18:52:13Z</time>
      </trkpt>
      <trkpt lat="42.6694660" lon="-1.8283110">
        <ele>351.8</ele>
        <time>2020-03-28T18:52:15Z</time>
      </trkpt>
      <trkpt lat="42.6695550" lon="-1.8283660">
        <ele>352.5</ele>
        <time>2020-03-28T18:52:17Z</time>
      </trkpt>
      <trkpt lat="42.6695970" lon="-1.8283980">
        <ele>352.7</ele>
        <time>2020-03-28T18:52:19Z</time>
      </trkpt>
      <trkpt lat="42.6696390" lon="-1.8284300">
        <ele>353.0</ele>
        <time>2020-03-28T18:52:21Z</time>
      </trkpt>
      <trkpt lat="42.6697330" lon="-1.8285030">
        <ele>353.6</ele>
        <time>2020-03-28T18:52:23Z</time>
      </trkpt>
      <trkpt lat="42.6697750" lon="-1.8285360">
        <ele>353.8</ele>
        <time>2020-03-28T18:52:25Z</time>
      </trkpt>
      <trkpt lat="42.6698160" lon="-1.8285690">
        <ele>354.1</ele>
        <time>2020-03-28T18:52:27Z</time>
      </trkpt>
      <trkpt lat="42.6698580" lon="-1.8286020">
        <ele>354.4</ele>
        <time>2020-03-28T18:52:29Z</time>
      </trkpt>
      <trkpt lat="42.6699480" lon="-1.8286830">
        <ele>355.0</ele>
        <time>2020-03-28T18:52:31Z</time>
      </trkpt>
      <trkpt lat="42.6699860" lon="-1.8287230">
        <ele>355.3</ele>
        <time>2020-03-28T18:52:33Z</time>
      </trkpt>
      <trkpt lat="42.6700510" lon="-1.8288010">
        <ele>355.8</ele>
        <time>2020-03-28T18:52:35Z</time>
      </trkpt>
      <trkpt lat="42.6700840" lon="-1.8288480">
        <ele>356.1</ele>
        <time>2020-03-28T18:52:37Z</time>
      </trkpt>
      <trkpt lat="42.6701170" lon="-1.8288950">
        <ele>356.5</ele>
        <time>2020-03-28T18:52:39Z</time>
      </trkpt>
      <trkpt lat="42.6701860" lon="-1.8289990">
        <ele>357.2</ele>
        <time>2020-03-28T18:52:41Z</time>
      </trkpt>
      <trkpt lat="42.6702150" lon="-1.8290510">
        <ele>357.6</ele>
        <time>2020-03-28T18:52:43Z</time>
      </trkpt>
      <trkpt lat="42.6702440" lon="-1.8291040">
        <ele>358.0</ele>
        <time>2020-03-28T18:52:45Z</time>
      </trkpt>
      <trkpt lat="42.6703050" lon="-1.8292140">
        <ele>358.8</ele>
        <time>2020-03-28T18:52:47Z</time>
      </trkpt>
      <trkpt lat="42.6703300" lon="-1.8292650">
        <ele>359.2</ele>
        <time>2020-03-28T18:52:49Z</time>
      </trkpt>
      <trkpt lat="42.6703740" lon="-1.8293590">
        <ele>359.9</ele>
        <time>2020-03-28T18:52:51Z</time>
      </trkpt>
      <trkpt lat="42.6703870" lon="-1.8294180">
        <ele>360.3</ele>
        <time>2020-03-28T18:52:53Z</time>
      </trkpt>
      <trkpt lat="42.6704000" lon="-1.8294760">
        <ele>360.6</ele>
        <time>2020-03-28T18:52:55Z</time>
      </trkpt>
      <trkpt lat="42.6704180" lon="-1.8295810">
        <ele>361.2</ele>
        <time>2020-03-28T18:52:57Z</time>
      </trkpt>
      <trkpt lat="42.6704260" lon="-1.8296410">
        <ele>361.4</ele>
        <time>2020-03-28T18:52:59Z</time>
      </trkpt>
      <trkpt lat="42.6704300" lon="-1.8297470">
        <ele>361.9</ele>
        <time>2020-03-28T18:53:01Z</time>
      </trkpt>
      <trkpt lat="42.6704150" lon="-1.8298420">
        <ele>362.6</ele>
        <time>2020-03-28T18:53:03Z</time>
      </trkpt>
      <trkpt lat="42.6703960" lon="-1.8298990">
        <ele>363.0</ele>
        <time>2020-03-28T18:53:05Z</time>
      </trkpt>
      <trkpt lat="42.6703510" lon="-1.8299690">
        <ele>363.7</ele>
        <time>2020-03-28T18:53:07Z</time>
      </trkpt>
      <trkpt lat="42.6702960" lon="-1.8300200">
        <ele>364.3</ele>
        <time>2020-03-28T18:53:09Z</time>
      </trkpt>
      <trkpt lat="42.6702520" lon="-1.8300420">
        <ele>364.7</ele>
        <time>2020-03-28T18:53:11Z</time>
      </trkpt>
      <trkpt lat="42.6702090" lon="-1.8300640">
        <ele>365.1</ele>
        <time>2020-03-28T18:53:13Z</time>
      </trkpt>
      <trkpt lat="42.6701650" lon="-1.8300870">
        <ele>365.5</ele>
        <time>2020-03-28T18:53:15Z</time>
      </trkpt>
      <trkpt lat="42.6701220" lon="-1.8301080">
        <ele>365.9</ele>
        <time>2020-03-28T18:53:17Z</time>
      </trkpt>
      <trkpt lat="42.6700020" lon="-1.8301620">
        <ele>367.1</ele>
        <time>2020-03-28T18:53:19Z</time>
      </trkpt>
      <trkpt lat="42.6699540" lon="-1.8301780">
        <ele>367.7</ele>
        <time>2020-03-28T18:53:21Z</time>
      </trkpt>
      <trkpt lat="42.6699080" lon="-1.8301940">
        <ele>368.3</ele>
        <time>2020-03-28T18:53:23Z</time>
      </trkpt>
      <trkpt lat="42.6698640" lon="-1.8302100">
        <ele>368.7</ele>
        <time>2020-03-28T18:53:25Z</time>
      </trkpt>
      <trkpt lat="42.6698200" lon="-1.8302250">
        <ele>369.2</ele>
        <time>2020-03-28T18:53:27Z</time>
      </trkpt>
      <trkpt lat="42.6697770" lon="-1.8302400">
        <ele>369.7</ele>
        <time>2020-03-28T18:53:29Z</time>
      </trkpt>
      <trkpt lat="42.6697330" lon="-1.8302550">
        <ele>370.1</ele>
        <time>2020-03-28T18:53:31Z</time>
      </trkpt>
      <trkpt lat="42.6696910" lon="-1.8302690">
        <ele>370.5</ele>
        <time>2020-03-28T18:53:33Z</time>
      </trkpt>
      <trkpt lat="42.6695240" lon="-1.8303390">
        <ele>372.2</ele>
        <time>2020-03-28T18:53:35Z</time>
      </trkpt>
      <trkpt lat="42.6694840" lon="-1.8303670">
        <ele>372.6</ele>
        <time>2020-03-28T18:53:37Z</time>
      </trkpt>
      <trkpt lat="42.6694440" lon="-1.8303940">
        <ele>373.0</ele>
        <time>2020-03-28T18:53:39Z</time>
      </trkpt>
      <trkpt lat="42.6694040" lon="-1.8304220">
        <ele>373.4</ele>
        <time>2020-03-28T18:53:41Z</time>
      </trkpt>
      <trkpt lat="42.6693640" lon="-1.8304500">
        <ele>373.8</ele>
        <time>2020-03-28T18:53:43Z</time>
      </trkpt>
      <trkpt lat="42.6693240" lon="-1.8304770">
        <ele>374.2</ele>
        <time>2020-03-28T18:53:45Z</time>
      </trkpt>
      <trkpt lat="42.6691900" lon="-1.8305740">
        <ele>375.6</ele>
        <time>2020-03-28T18:53:47Z</time>
      </trkpt>
      <trkpt lat="42.6691530" lon="-1.8306130">
        <ele>376.1</ele>
        <time>2020-03-28T18:53:49Z</time>
      </trkpt>
      <trkpt lat="42.6691150" lon="-1.8306530">
        <ele>376.5</ele>
        <time>2020-03-28T18:53:51Z</time>
      </trkpt>
      <trkpt lat="42.6690780" lon="-1.8306930">
        <ele>376.8</ele>
        <time>2020-03-28T18:53:53Z</time>
      </trkpt>
      <trkpt lat="42.6690410" lon="-1.8307320">
        <ele>377.1</ele>
        <time>2020-03-28T18:53:55Z</time>
      </trkpt>
      <trkpt lat="42.6690040" lon="-1.8307700">
        <ele>377.4</ele>
        <time>2020-03-28T18:53:57Z</time>
      </trkpt>
      <trkpt lat="42.6689670" lon="-1.8308100">
        <ele>377.8</ele>
        <time>2020-03-28T18:53:59Z</time>
      </trkpt>
      <trkpt lat="42.6689290" lon="-1.8308500">
        <ele>378.3</ele>
        <time>2020-03-28T18:54:01Z</time>
      </trkpt>
      <trkpt lat="42.6688910" lon="-1.8308900">
        <ele>378.7</ele>
        <time>2020-03-28T18:54:03Z</time>
      </trkpt>
      <trkpt lat="42.6688540" lon="-1.8309290">
        <ele>379.1</ele>
        <time>2020-03-28T18:54:05Z</time>
      </trkpt>
      <trkpt lat="42.6686960" lon="-1.8311090">
        <ele>381.1</ele>
        <time>2020-03-28T18:54:07Z</time>
      </trkpt>
      <trkpt lat="42.6686640" lon="-1.8311560">
        <ele>381.5</ele>
        <time>2020-03-28T18:54:09Z</time>
      </trkpt>
      <trkpt lat="42.6686330" lon="-1.8312020">
        <ele>381.9</ele>
        <time>2020-03-28T18:54:11Z</time>
      </trkpt>
      <trkpt lat="42.6686020" lon="-1.8312490">
        <ele>382.3</ele>
        <time>2020-03-28T18:54:13Z</time>
      </trkpt>
      <trkpt lat="42.6685700" lon="-1.8312960">
        <ele>382.8</ele>
        <time>2020-03-28T18:54:15Z</time>
      </trkpt>
      <trkpt lat="42.6685390" lon="-1.8313430">
        <ele>383.2</ele>
        <time>2020-03-28T18:54:17Z</time>
      </trkpt>
      <trkpt lat="42.6685080" lon="-1.8313900">
        <ele>383.6</ele>
        <time>2020-03-28T18:54:19Z</time>
      </trkpt>
      <trkpt lat="42.6683980" lon="-1.8315570">
        <ele>384.9</ele>
        <time>2020-03-28T18:54:21Z</time>
      </trkpt>
      <trkpt lat="42.6683670" lon="-1.8316090">
        <ele>385.2</ele>
        <time>2020-03-28T18:54:23Z</time>
      </trkpt>
      <trkpt lat="42.6683370" lon="-1.8316610">
        <ele>385.5</ele>
        <time>2020-03-28T18:54:25Z</time>
      </trkpt>
      <trkpt lat="42.6683070" lon="-1.8317130">
        <ele>385.8</ele>
        <time>2020-03-28T18:54:27Z</time>
      </trkpt>
      <trkpt lat="42.6682750" lon="-1.8317690">
        <ele>386.2</ele>
        <time>2020-03-28T18:54:29Z</time>
      </trkpt>
      <trkpt lat="42.6682420" lon="-1.8318250">
        <ele>386.5</ele>
        <time>2020-03-28T18:54:31Z</time>
      </trkpt>
      <trkpt lat="42.6682090" lon="-1.8318820">
        <ele>386.8</ele>
        <time>2020-03-28T18:54:33Z</time>
      </trkpt>
      <trkpt lat="42.6681760" lon="-1.8319380">
        <ele>387.2</ele>
        <time>2020-03-28T18:54:35Z</time>
      </trkpt>
      <trkpt lat="42.6680510" lon="-1.8321580">
        <ele>388.4</ele>
        <time>2020-03-28T18:54:37Z</time>
      </trkpt>
      <trkpt lat="42.6680210" lon="-1.8322180">
        <ele>388.7</ele>
        <time>2020-03-28T18:54:39Z</time>
      </trkpt>
      <trkpt lat="42.6679900" lon="-1.8322800">
        <ele>388.9</ele>
        <time>2020-03-28T18:54:41Z</time>
      </trkpt>
      <trkpt lat="42.6679590" lon="-1.8323410">
        <ele>389.2</ele>
        <time>2020-03-28T18:54:43Z</time>
      </trkpt>
      <trkpt lat="42.6679290" lon="-1.8324010">
        <ele>389.5</ele>
        <time>2020-03-28T18:54:45Z</time>
      </trkpt>
      <trkpt lat="42.6678450" lon="-1.8325700">
        <ele>390.6</ele>
        <time>2020-03-28T18:54:47Z</time>
      </trkpt>
      <trkpt lat="42.6678110" lon="-1.8326370">
        <ele>391.0</ele>
        <time>2020-03-28T18:54:49Z</time>
      </trkpt>
      <trkpt lat="42.6677770" lon="-1.8327060">
        <ele>391.4</ele>
        <time>2020-03-28T18:54:51Z</time>
      </trkpt>
      <trkpt lat="42.6677430" lon="-1.8327740">
        <ele>391.7</ele>
        <time>2020-03-28T18:54:53Z</time>
      </trkpt>
      <trkpt lat="42.6676660" lon="-1.8329360">
        <ele>392.3</ele>
        <time>2020-03-28T18:54:55Z</time>
      </trkpt>
      <trkpt lat="42.6676390" lon="-1.8330040">
        <ele>392.5</ele>
        <time>2020-03-28T18:54:57Z</time>
      </trkpt>
      <trkpt lat="42.6676120" lon="-1.8330710">
        <ele>392.7</ele>
        <time>2020-03-28T18:54:59Z</time>
      </trkpt>
      <trkpt lat="42.6675860" lon="-1.8331360">
        <ele>392.9</ele>
        <time>2020-03-28T18:55:01Z</time>
      </trkpt>
      <trkpt lat="42.6675600" lon="-1.8332010">
        <ele>393.2</ele>
        <time>2020-03-28T18:55:03Z</time>
      </trkpt>
      <trkpt lat="42.6675350" lon="-1.8332660">
        <ele>393.4</ele>
        <time>2020-03-28T18:55:05Z</time>
      </trkpt>
      <trkpt lat="42.6675090" lon="-1.8333320">
        <ele>393.7</ele>
        <time>2020-03-28T18:55:07Z</time>
      </trkpt>
      <trkpt lat="42.6674830" lon="-1.8333950">
        <ele>393.9</ele>
        <time>2020-03-28T18:55:09Z</time>
      </trkpt>
      <trkpt lat="42.6674580" lon="-1.8334590">
        <ele>394.2</ele>
        <time>2020-03-28T18:55:11Z</time>
      </trkpt>
      <trkpt lat="42.6674330" lon="-1.8335220">
        <ele>394.5</ele>
        <time>2020-03-28T18:55:13Z</time>
      </trkpt>
      <trkpt lat="42.6674080" lon="-1.8335850">
        <ele>394.8</ele>
        <time>2020-03-28T18:55:15Z</time>
      </trkpt>
      <trkpt lat="42.6673830" lon="-1.8336480">
        <ele>395.1</ele>
        <time>2020-03-28T18:55:17Z</time>
      </trkpt>
      <trkpt lat="42.6672490" lon="-1.8339930">
        <ele>396.9</ele>
        <time>2020-03-28T18:55:19Z</time>
      </trkpt>
      <trkpt lat="42.6672270" lon="-1.8340630">
        <ele>397.3</ele>
        <time>2020-03-28T18:55:21Z</time>
      </trkpt>
      <trkpt lat="42.6672050" lon="-1.8341320">
        <ele>397.8</ele>
        <time>2020-03-28T18:55:23Z</time>
      </trkpt>
      <trkpt lat="42.6671830" lon="-1.8342000">
        <ele>398.1</ele>
        <time>2020-03-28T18:55:25Z</time>
      </trkpt>
      <trkpt lat="42.6671620" lon="-1.8342690">
        <ele>398.5</ele>
        <time>2020-03-28T18:55:27Z</time>
      </trkpt>
      <trkpt lat="42.6671410" lon="-1.8343350">
        <ele>398.9</ele>
        <time>2020-03-28T18:55:29Z</time>
      </trkpt>
      <trkpt lat="42.6671200" lon="-1.8344000">
        <ele>399.3</ele>
        <time>2020-03-28T18:55:31Z</time>
      </trkpt>
      <trkpt lat="42.6670990" lon="-1.8344660">
        <ele>399.6</ele>
        <time>2020-03-28T18:55:33Z</time>
      </trkpt>
      <trkpt lat="42.6670200" lon="-1.8347310">
        <ele>400.9</ele>
        <time>2020-03-28T18:55:35Z</time>
      </trkpt>
      <trkpt lat="42.6670050" lon="-1.8348000">
        <ele>401.2</ele>
        <time>2020-03-28T18:55:37Z</time>
      </trkpt>
      <trkpt lat="42.6669900" lon="-1.8348680">
        <ele>401.5</ele>
        <time>2020-03-28T18:55:39Z</time>
      </trkpt>
      <trkpt lat="42.6669740" lon="-1.8349370">
        <ele>401.7</ele>
        <time>2020-03-28T18:55:41Z</time>
      </trkpt>
      <trkpt lat="42.6669390" lon="-1.8351070">
        <ele>402.4</ele>
        <time>2020-03-28T18:55:43Z</time>
      </trkpt>
      <trkpt lat="42.6669310" lon="-1.8351780">
        <ele>402.7</ele>
        <time>2020-03-28T18:55:45Z</time>
      </trkpt>
      <trkpt lat="42.6669230" lon="-1.8352490">
        <ele>402.9</ele>
        <time>2020-03-28T18:55:47Z</time>
      </trkpt>
      <trkpt lat="42.6669160" lon="-1.8353200">
        <ele>403.2</ele>
        <time>2020-03-28T18:55:49Z</time>
      </trkpt>
      <trkpt lat="42.6668970" lon="-1.8354830">
        <ele>403.8</ele>
        <time>2020-03-28T18:55:51Z</time>
      </trkpt>
      <trkpt lat="42.6668870" lon="-1.8355520">
        <ele>404.1</ele>
        <time>2020-03-28T18:55:53Z</time>
      </trkpt>
      <trkpt lat="42.6668770" lon="-1.8356230">
        <ele>404.4</ele>
        <time>2020-03-28T18:55:55Z</time>
      </trkpt>
      <trkpt lat="42.6668670" lon="-1.8356930">
        <ele>404.7</ele>
        <time>2020-03-28T18:55:57Z</time>
      </trkpt>
      <trkpt lat="42.6668570" lon="-1.8357630">
        <ele>404.9</ele>
        <time>2020-03-28T18:55:59Z</time>
      </trkpt>
      <trkpt lat="42.6668470" lon="-1.8358340">
        <ele>405.2</ele>
        <time>2020-03-28T18:56:01Z</time>
      </trkpt>
      <trkpt lat="42.6668370" lon="-1.8359040">
        <ele>405.5</ele>
        <time>2020-03-28T18:56:03Z</time>
      </trkpt>
      <trkpt lat="42.6668010" lon="-1.8361630">
        <ele>406.3</ele>
        <time>2020-03-28T18:56:05Z</time>
      </trkpt>
      <trkpt lat="42.6668010" lon="-1.8362390">
        <ele>406.6</ele>
        <time>2020-03-28T18:56:07Z</time>
      </trkpt>
      <trkpt lat="42.6668000" lon="-1.8363110">
        <ele>406.8</ele>
        <time>2020-03-28T18:56:09Z</time>
      </trkpt>
      <trkpt lat="42.6668040" lon="-1.8364400">
        <ele>407.3</ele>
        <time>2020-03-28T18:56:11Z</time>
      </trkpt>
      <trkpt lat="42.6668090" lon="-1.8365120">
        <ele>407.5</ele>
        <time>2020-03-28T18:56:13Z</time>
      </trkpt>
      <trkpt lat="42.6668240" lon="-1.8366400">
        <ele>408.0</ele>
        <time>2020-03-28T18:56:15Z</time>
      </trkpt>
      <trkpt lat="42.6668360" lon="-1.8367100">
        <ele>408.3</ele>
        <time>2020-03-28T18:56:17Z</time>
      </trkpt>
      <trkpt lat="42.6668640" lon="-1.8368210">
        <ele>408.9</ele>
        <time>2020-03-28T18:56:19Z</time>
      </trkpt>
      <trkpt lat="42.6668850" lon="-1.8368870">
        <ele>409.2</ele>
        <time>2020-03-28T18:56:21Z</time>
      </trkpt>
      <trkpt lat="42.6669050" lon="-1.8369530">
        <ele>409.6</ele>
        <time>2020-03-28T18:56:23Z</time>
      </trkpt>
      <trkpt lat="42.6669610" lon="-1.8370800">
        <ele>410.3</ele>
        <time>2020-03-28T18:56:25Z</time>
      </trkpt>
      <trkpt lat="42.6669950" lon="-1.8371340">
        <ele>410.6</ele>
        <time>2020-03-28T18:56:27Z</time>
      </trkpt>
      <trkpt lat="42.6670300" lon="-1.8371880">
        <ele>410.9</ele>
        <time>2020-03-28T18:56:29Z</time>
      </trkpt>
      <trkpt lat="42.6671050" lon="-1.8373020">
        <ele>411.6</ele>
        <time>2020-03-28T18:56:31Z</time>
      </trkpt>
      <trkpt lat="42.6671410" lon="-1.8373540">
        <ele>411.9</ele>
        <time>2020-03-28T18:56:33Z</time>
      </trkpt>
      <trkpt lat="42.6671770" lon="-1.8374070">
        <ele>412.3</ele>
        <time>2020-03-28T18:56:35Z</time>
      </trkpt>
      <trkpt lat="42.6672130" lon="-1.8374610">
        <ele>412.6</ele>
        <time>2020-03-28T18:56:37Z</time>
      </trkpt>
      <trkpt lat="42.6672500" lon="-1.8375160">
        <ele>412.9</ele>
        <time>2020-03-28T18:56:39Z</time>
      </trkpt>
      <trkpt lat="42.6672870" lon="-1.8375700">
        <ele>413.2</ele>
        <time>2020-03-28T18:56:41Z</time>
      </trkpt>
      <trkpt lat="42.6674060" lon="-1.8377480">
        <ele>414.2</ele>
        <time>2020-03-28T18:56:43Z</time>
      </trkpt>
      <trkpt lat="42.6674430" lon="-1.8378070">
        <ele>414.5</ele>
        <time>2020-03-28T18:56:45Z</time>
      </trkpt>
      <trkpt lat="42.6674810" lon="-1.8378660">
        <ele>414.7</ele>
        <time>2020-03-28T18:56:47Z</time>
      </trkpt>
      <trkpt lat="42.6675170" lon="-1.8379240">
        <ele>415.0</ele>
        <time>2020-03-28T18:56:49Z</time>
      </trkpt>
      <trkpt lat="42.6675540" lon="-1.8379810">
        <ele>415.2</ele>
        <time>2020-03-28T18:56:51Z</time>
      </trkpt>
      <trkpt lat="42.6675890" lon="-1.8380370">
        <ele>415.5</ele>
        <time>2020-03-28T18:56:53Z</time>
      </trkpt>
      <trkpt lat="42.6676250" lon="-1.8380930">
        <ele>415.7</ele>
        <time>2020-03-28T18:56:55Z</time>
      </trkpt>
      <trkpt lat="42.6676620" lon="-1.8381530">
        <ele>416.0</ele>
        <time>2020-03-28T18:56:57Z</time>
      </trkpt>
      <trkpt lat="42.6677010" lon="-1.8382140">
        <ele>416.2</ele>
        <time>2020-03-28T18:56:59Z</time>
      </trkpt>
      <trkpt lat="42.6678590" lon="-1.8384640">
        <ele>417.3</ele>
        <time>2020-03-28T18:57:01Z</time>
      </trkpt>
      <trkpt lat="42.6678980" lon="-1.8385250">
        <ele>417.6</ele>
        <time>2020-03-28T18:57:03Z</time>
      </trkpt>
      <trkpt lat="42.6679370" lon="-1.8385860">
        <ele>417.9</ele>
        <time>2020-03-28T18:57:05Z</time>
      </trkpt>
      <trkpt lat="42.6679750" lon="-1.8386470">
        <ele>418.2</ele>
        <time>2020-03-28T18:57:07Z</time>
      </trkpt>
      <trkpt lat="42.6680140" lon="-1.8387080">
        <ele>418.5</ele>
        <time>2020-03-28T18:57:09Z</time>
      </trkpt>
      <trkpt lat="42.6680520" lon="-1.8387680">
        <ele>418.8</ele>
        <time>2020-03-28T18:57:11Z</time>
      </trkpt>
      <trkpt lat="42.6680910" lon="-1.8388290">
        <ele>419.1</ele>
        <time>2020-03-28T18:57:13Z</time>
      </trkpt>
      <trkpt lat="42.6681300" lon="-1.8388900">
        <ele>419.4</ele>
        <time>2020-03-28T18:57:15Z</time>
      </trkpt>
      <trkpt lat="42.6681680" lon="-1.8389510">
        <ele>419.7</ele>
        <time>2020-03-28T18:57:17Z</time>
      </trkpt>
      <trkpt lat="42.6683230" lon="-1.8392020">
        <ele>421.1</ele>
        <time>2020-03-28T18:57:19Z</time>
      </trkpt>
      <trkpt lat="42.6683570" lon="-1.8392640">
        <ele>421.4</ele>
        <time>2020-03-28T18:57:21Z</time>
      </trkpt>
      <trkpt lat="42.6683920" lon="-1.8393270">
        <ele>421.8</ele>
        <time>2020-03-28T18:57:23Z</time>
      </trkpt>
      <trkpt lat="42.6684270" lon="-1.8393910">
        <ele>422.1</ele>
        <time>2020-03-28T18:57:25Z</time>
      </trkpt>
      <trkpt lat="42.6684620" lon="-1.8394560">
        <ele>422.5</ele>
        <time>2020-03-28T18:57:27Z</time>
      </trkpt>
      <trkpt lat="42.6684970" lon="-1.8395210">
        <ele>422.9</ele>
        <time>2020-03-28T18:57:29Z</time>
      </trkpt>
      <trkpt lat="42.6685320" lon="-1.8395850">
        <ele>423.3</ele>
        <time>2020-03-28T18:57:31Z</time>
      </trkpt>
      <trkpt lat="42.6685680" lon="-1.8396500">
        <ele>423.7</ele>
        <time>2020-03-28T18:57:33Z</time>
      </trkpt>
      <trkpt lat="42.6686860" lon="-1.8399050">
        <ele>425.4</ele>
        <time>2020-03-28T18:57:35Z</time>
      </trkpt>
      <trkpt lat="42.6687050" lon="-1.8400230">
        <ele>426.1</ele>
        <time>2020-03-28T18:57:37Z</time>
      </trkpt>
      <trkpt lat="42.6687000" lon="-1.8401470">
        <ele>426.4</ele>
        <time>2020-03-28T18:57:39Z</time>
      </trkpt>
      <trkpt lat="42.6686670" lon="-1.8402510">
        <ele>426.7</ele>
        <time>2020-03-28T18:57:41Z</time>
      </trkpt>
      <trkpt lat="42.6686350" lon="-1.8403200">
        <ele>426.8</ele>
        <time>2020-03-28T18:57:43Z</time>
      </trkpt>
      <trkpt lat="42.6686030" lon="-1.8403890">
        <ele>427.0</ele>
        <time>2020-03-28T18:57:45Z</time>
      </trkpt>
      <trkpt lat="42.6685320" lon="-1.8405300">
        <ele>427.3</ele>
        <time>2020-03-28T18:57:47Z</time>
      </trkpt>
      <trkpt lat="42.6684900" lon="-1.8405900">
        <ele>427.5</ele>
        <time>2020-03-28T18:57:49Z</time>
      </trkpt>
      <trkpt lat="42.6684180" lon="-1.8406850">
        <ele>427.7</ele>
        <time>2020-03-28T18:57:51Z</time>
      </trkpt>
      <trkpt lat="42.6683630" lon="-1.8407240">
        <ele>427.8</ele>
        <time>2020-03-28T18:57:53Z</time>
      </trkpt>
      <trkpt lat="42.6683110" lon="-1.8407610">
        <ele>428.0</ele>
        <time>2020-03-28T18:57:55Z</time>
      </trkpt>
      <trkpt lat="42.6682590" lon="-1.8407980">
        <ele>428.1</ele>
        <time>2020-03-28T18:57:57Z</time>
      </trkpt>
      <trkpt lat="42.6682060" lon="-1.8408360">
        <ele>428.2</ele>
        <time>2020-03-28T18:57:59Z</time>
      </trkpt>
      <trkpt lat="42.6680780" lon="-1.8409300">
        <ele>428.4</ele>
        <time>2020-03-28T18:58:01Z</time>
      </trkpt>
      <trkpt lat="42.6680270" lon="-1.8409700">
        <ele>428.5</ele>
        <time>2020-03-28T18:58:03Z</time>
      </trkpt>
      <trkpt lat="42.6679770" lon="-1.8410100">
        <ele>428.6</ele>
        <time>2020-03-28T18:58:05Z</time>
      </trkpt>
      <trkpt lat="42.6679270" lon="-1.8410490">
        <ele>428.7</ele>
        <time>2020-03-28T18:58:07Z</time>
      </trkpt>
      <trkpt lat="42.6677970" lon="-1.8411570">
        <ele>429.0</ele>
        <time>2020-03-28T18:58:09Z</time>
      </trkpt>
      <trkpt lat="42.6677520" lon="-1.8412060">
        <ele>429.1</ele>
        <time>2020-03-28T18:58:11Z</time>
      </trkpt>
      <trkpt lat="42.6677060" lon="-1.8412550">
        <ele>429.2</ele>
        <time>2020-03-28T18:58:13Z</time>
      </trkpt>
      <trkpt lat="42.6676410" lon="-1.8413700">
        <ele>429.9</ele>
        <time>2020-03-28T18:58:15Z</time>
      </trkpt>
      <trkpt lat="42.6676200" lon="-1.8414440">
        <ele>430.5</ele>
        <time>2020-03-28T18:58:17Z</time>
      </trkpt>
      <trkpt lat="42.6675890" lon="-1.8415860">
        <ele>431.6</ele>
        <time>2020-03-28T18:58:19Z</time>
      </trkpt>
      <trkpt lat="42.6675860" lon="-1.8416620">
        <ele>432.2</ele>
        <time>2020-03-28T18:58:21Z</time>
      </trkpt>
      <trkpt lat="42.6675830" lon="-1.8417340">
        <ele>432.7</ele>
        <time>2020-03-28T18:58:23Z</time>
      </trkpt>
      <trkpt lat="42.6675800" lon="-1.8418050">
        <ele>433.1</ele>
        <time>2020-03-28T18:58:25Z</time>
      </trkpt>
      <trkpt lat="42.6675780" lon="-1.8418750">
        <ele>433.6</ele>
        <time>2020-03-28T18:58:27Z</time>
      </trkpt>
      <trkpt lat="42.6675750" lon="-1.8419450">
        <ele>434.0</ele>
        <time>2020-03-28T18:58:29Z</time>
      </trkpt>
      <trkpt lat="42.6675720" lon="-1.8420140">
        <ele>434.4</ele>
        <time>2020-03-28T18:58:31Z</time>
      </trkpt>
      <trkpt lat="42.6675620" lon="-1.8422700">
        <ele>436.1</ele>
        <time>2020-03-28T18:58:33Z</time>
      </trkpt>
      <trkpt lat="42.6675600" lon="-1.8423380">
        <ele>436.5</ele>
        <time>2020-03-28T18:58:35Z</time>
      </trkpt>
      <trkpt lat="42.6675590" lon="-1.8424060">
        <ele>437.0</ele>
        <time>2020-03-28T18:58:37Z</time>
      </trkpt>
      <trkpt lat="42.6675570" lon="-1.8424740">
        <ele>437.5</ele>
        <time>2020-03-28T18:58:39Z</time>
      </trkpt>
      <trkpt lat="42.6675550" lon="-1.8425420">
        <ele>437.9</ele>
        <time>2020-03-28T18:58:41Z</time>
      </trkpt>
      <trkpt lat="42.6675530" lon="-1.8426090">
        <ele>438.3</ele>
        <time>2020-03-28T18:58:43Z</time>
      </trkpt>
      <trkpt lat="42.6675520" lon="-1.8426770">
        <ele>438.7</ele>
        <time>2020-03-28T18:58:45Z</time>
      </trkpt>
      <trkpt lat="42.6675500" lon="-1.8427450">
        <ele>439.1</ele>
        <time>2020-03-28T18:58:47Z</time>
      </trkpt>
      <trkpt lat="42.6675510" lon="-1.8429980">
        <ele>440.5</ele>
        <time>2020-03-28T18:58:49Z</time>
      </trkpt>
      <trkpt lat="42.6675620" lon="-1.8430660">
        <ele>440.9</ele>
        <time>2020-03-28T18:58:51Z</time>
      </trkpt>
      <trkpt lat="42.6675720" lon="-1.8431340">
        <ele>441.3</ele>
        <time>2020-03-28T18:58:53Z</time>
      </trkpt>
      <trkpt lat="42.6675830" lon="-1.8432020">
        <ele>441.8</ele>
        <time>2020-03-28T18:58:55Z</time>
      </trkpt>
      <trkpt lat="42.6675930" lon="-1.8432710">
        <ele>442.1</ele>
        <time>2020-03-28T18:58:57Z</time>
      </trkpt>
      <trkpt lat="42.6676250" lon="-1.8434660">
        <ele>443.2</ele>
        <time>2020-03-28T18:58:59Z</time>
      </trkpt>
      <trkpt lat="42.6676430" lon="-1.8435320">
        <ele>443.6</ele>
        <time>2020-03-28T18:59:01Z</time>
      </trkpt>
      <trkpt lat="42.6676600" lon="-1.8435980">
        <ele>443.9</ele>
        <time>2020-03-28T18:59:03Z</time>
      </trkpt>
      <trkpt lat="42.6676780" lon="-1.8436630">
        <ele>444.3</ele>
        <time>2020-03-28T18:59:05Z</time>
      </trkpt>
      <trkpt lat="42.6676950" lon="-1.8437280">
        <ele>444.7</ele>
        <time>2020-03-28T18:59:07Z</time>
      </trkpt>
      <trkpt lat="42.6677450" lon="-1.8439080">
        <ele>445.7</ele>
        <time>2020-03-28T18:59:09Z</time>
      </trkpt>
      <trkpt lat="42.6677670" lon="-1.8439700">
        <ele>446.1</ele>
        <time>2020-03-28T18:59:11Z</time>
      </trkpt>
      <trkpt lat="42.6677900" lon="-1.8440330">
        <ele>446.5</ele>
        <time>2020-03-28T18:59:13Z</time>
      </trkpt>
      <trkpt lat="42.6678120" lon="-1.8440950">
        <ele>446.9</ele>
        <time>2020-03-28T18:59:15Z</time>
      </trkpt>
      <trkpt lat="42.6678350" lon="-1.8441580">
        <ele>447.3</ele>
        <time>2020-03-28T18:59:17Z</time>
      </trkpt>
      <trkpt lat="42.6678570" lon="-1.8442210">
        <ele>447.7</ele>
        <time>2020-03-28T18:59:19Z</time>
      </trkpt>
      <trkpt lat="42.6678800" lon="-1.8442830">
        <ele>448.0</ele>
        <time>2020-03-28T18:59:21Z</time>
      </trkpt>
      <trkpt lat="42.6679020" lon="-1.8443460">
        <ele>448.4</ele>
        <time>2020-03-28T18:59:23Z</time>
      </trkpt>
      <trkpt lat="42.6679920" lon="-1.8445710">
        <ele>449.5</ele>
        <time>2020-03-28T18:59:25Z</time>
      </trkpt>
      <trkpt lat="42.6680240" lon="-1.8446270">
        <ele>449.8</ele>
        <time>2020-03-28T18:59:27Z</time>
      </trkpt>
      <trkpt lat="42.6680550" lon="-1.8446820">
        <ele>450.1</ele>
        <time>2020-03-28T18:59:29Z</time>
      </trkpt>
      <trkpt lat="42.6680870" lon="-1.8447380">
        <ele>450.5</ele>
        <time>2020-03-28T18:59:31Z</time>
      </trkpt>
      <trkpt lat="42.6681710" lon="-1.8448770">
        <ele>451.3</ele>
        <time>2020-03-28T18:59:33Z</time>
      </trkpt>
      <trkpt lat="42.6682090" lon="-1.8449230">
        <ele>451.7</ele>
        <time>2020-03-28T18:59:35Z</time>
      </trkpt>
      <trkpt lat="42.6682480" lon="-1.8449690">
        <ele>452.0</ele>
        <time>2020-03-28T18:59:37Z</time>
      </trkpt>
      <trkpt lat="42.6682860" lon="-1.8450150">
        <ele>452.4</ele>
        <time>2020-03-28T18:59:39Z</time>
      </trkpt>
      <trkpt lat="42.6683240" lon="-1.8450610">
        <ele>452.7</ele>
        <time>2020-03-28T18:59:41Z</time>
      </trkpt>
      <trkpt lat="42.6684300" lon="-1.8451810">
        <ele>453.5</ele>
        <time>2020-03-28T18:59:43Z</time>
      </trkpt>
      <trkpt lat="42.6684710" lon="-1.8452220">
        <ele>453.8</ele>
        <time>2020-03-28T18:59:45Z</time>
      </trkpt>
      <trkpt lat="42.6685130" lon="-1.8452620">
        <ele>454.1</ele>
        <time>2020-03-28T18:59:47Z</time>
      </trkpt>
      <trkpt lat="42.6685550" lon="-1.8453030">
        <ele>454.5</ele>
        <time>2020-03-28T18:59:49Z</time>
      </trkpt>
      <trkpt lat="42.6685970" lon="-1.8453440">
        <ele>454.8</ele>
        <time>2020-03-28T18:59:51Z</time>
      </trkpt>
      <trkpt lat="42.6686380" lon="-1.8453840">
        <ele>455.1</ele>
        <time>2020-03-28T18:59:53Z</time>
      </trkpt>
      <trkpt lat="42.6686800" lon="-1.8454250">
        <ele>455.5</ele>
        <time>2020-03-28T18:59:55Z</time>
      </trkpt>
      <trkpt lat="42.6688300" lon="-1.8455750">
        <ele>456.8</ele>
        <time>2020-03-28T18:59:57Z</time>
      </trkpt>
      <trkpt lat="42.6688630" lon="-1.8456160">
        <ele>457.0</ele>
        <time>2020-03-28T18:59:59Z</time>
      </trkpt>
      <trkpt lat="42.6688940" lon="-1.8456550">
        <ele>457.3</ele>
        <time>2020-03-28T19:00:01Z</time>
      </trkpt>
      <trkpt lat="42.6689470" lon="-1.8457330">
        <ele>457.9</ele>
        <time>2020-03-28T19:00:03Z</time>
      </trkpt>
      <trkpt lat="42.6689710" lon="-1.8457760">
        <ele>458.2</ele>
        <time>2020-03-28T19:00:05Z</time>
      </trkpt>
      <trkpt lat="42.6689950" lon="-1.8458180">
        <ele>458.5</ele>
        <time>2020-03-28T19:00:07Z</time>
      </trkpt>
      <trkpt lat="42.6690380" lon="-1.8459180">
        <ele>459.2</ele>
        <time>2020-03-28T19:00:09Z</time>
      </trkpt>
      <trkpt lat="42.6690450" lon="-1.8459680">
        <ele>459.5</ele>
        <time>2020-03-28T19:00:11Z</time>
      </trkpt>
      <trkpt lat="42.6690520" lon="-1.8460180">
        <ele>459.9</ele>
        <time>2020-03-28T19:00:13Z</time>
      </trkpt>
      <trkpt lat="42.6690620" lon="-1.8461230">
        <ele>460.7</ele>
        <time>2020-03-28T19:00:15Z</time>
      </trkpt>
      <trkpt lat="42.6690560" lon="-1.8461730">
        <ele>461.1</ele>
        <time>2020-03-28T19:00:17Z</time>
      </trkpt>
      <trkpt lat="42.6690500" lon="-1.8462240">
        <ele>461.5</ele>
        <time>2020-03-28T19:00:19Z</time>
      </trkpt>
      <trkpt lat="42.6690340" lon="-1.8463280">
        <ele>462.2</ele>
        <time>2020-03-28T19:00:21Z</time>
      </trkpt>
      <trkpt lat="42.6690130" lon="-1.8463760">
        <ele>462.7</ele>
        <time>2020-03-28T19:00:23Z</time>
      </trkpt>
      <trkpt lat="42.6689940" lon="-1.8464200">
        <ele>463.1</ele>
        <time>2020-03-28T19:00:25Z</time>
      </trkpt>
      <trkpt lat="42.6689760" lon="-1.8464640">
        <ele>463.4</ele>
        <time>2020-03-28T19:00:27Z</time>
      </trkpt>
      <trkpt lat="42.6689310" lon="-1.8465600">
        <ele>464.0</ele>
        <time>2020-03-28T19:00:29Z</time>
      </trkpt>
      <trkpt lat="42.6689000" lon="-1.8465980">
        <ele>464.4</ele>
        <time>2020-03-28T19:00:31Z</time>
      </trkpt>
      <trkpt lat="42.6688730" lon="-1.8466330">
        <ele>464.7</ele>
        <time>2020-03-28T19:00:33Z</time>
      </trkpt>
      <trkpt lat="42.6688460" lon="-1.8466680">
        <ele>465.1</ele>
        <time>2020-03-28T19:00:35Z</time>
      </trkpt>
      <trkpt lat="42.6687850" lon="-1.8467360">
        <ele>465.8</ele>
        <time>2020-03-28T19:00:37Z</time>
      </trkpt>
      <trkpt lat="42.6687510" lon="-1.8467640">
        <ele>466.1</ele>
        <time>2020-03-28T19:00:39Z</time>
      </trkpt>
      <trkpt lat="42.6687170" lon="-1.8467930">
        <ele>466.5</ele>
        <time>2020-03-28T19:00:41Z</time>
      </trkpt>
      <trkpt lat="42.6686820" lon="-1.8468220">
        <ele>466.9</ele>
        <time>2020-03-28T19:00:43Z</time>
      </trkpt>
      <trkpt lat="42.6686480" lon="-1.8468500">
        <ele>467.3</ele>
        <time>2020-03-28T19:00:45Z</time>
      </trkpt>
      <trkpt lat="42.6686130" lon="-1.8468790">
        <ele>467.7</ele>
        <time>2020-03-28T19:00:47Z</time>
      </trkpt>
      <trkpt lat="42.6685790" lon="-1.8469080">
        <ele>468.1</ele>
        <time>2020-03-28T19:00:49Z</time>
      </trkpt>
      <trkpt lat="42.6685450" lon="-1.8469360">
        <ele>468.6</ele>
        <time>2020-03-28T19:00:51Z</time>
      </trkpt>
      <trkpt lat="42.6685110" lon="-1.8469650">
        <ele>468.9</ele>
        <time>2020-03-28T19:00:53Z</time>
      </trkpt>
      <trkpt lat="42.6684770" lon="-1.8469930">
        <ele>469.3</ele>
        <time>2020-03-28T19:00:55Z</time>
      </trkpt>
      <trkpt lat="42.6683180" lon="-1.8471260">
        <ele>471.1</ele>
        <time>2020-03-28T19:00:57Z</time>
      </trkpt>
      <trkpt lat="42.6682700" lon="-1.8471670">
        <ele>471.7</ele>
        <time>2020-03-28T19:00:59Z</time>
      </trkpt>
      <trkpt lat="42.6682380" lon="-1.8471960">
        <ele>472.0</ele>
        <time>2020-03-28T19:01:01Z</time>
      </trkpt>
      <trkpt lat="42.6682050" lon="-1.8472240">
        <ele>472.4</ele>
        <time>2020-03-28T19:01:03Z</time>
      </trkpt>
      <trkpt lat="42.6681730" lon="-1.8472530">
        <ele>472.8</ele>
        <time>2020-03-28T19:01:05Z</time>
      </trkpt>
      <trkpt lat="42.6681400" lon="-1.8472810">
        <ele>473.1</ele>
        <time>2020-03-28T19:01:07Z</time>
      </trkpt>
      <trkpt lat="42.6681080" lon="-1.8473100">
        <ele>473.5</ele>
        <time>2020-03-28T19:01:09Z</time>
      </trkpt>
      <trkpt lat="42.6680750" lon="-1.8473390">
        <ele>473.9</ele>
        <time>2020-03-28T19:01:11Z</time>
      </trkpt>
      <trkpt lat="42.6680430" lon="-1.8473670">
        <ele>474.3</ele>
        <time>2020-03-28T19:01:13Z</time>
      </trkpt>
      <trkpt lat="42.6680100" lon="-1.8473960">
        <ele>474.7</ele>
        <time>2020-03-28T19:01:15Z</time>
      </trkpt>
      <trkpt lat="42.6678720" lon="-1.8475230">
        <ele>476.5</ele>
        <time>2020-03-28T19:01:17Z</time>
      </trkpt>
      <trkpt lat="42.6678470" lon="-1.8475700">
        <ele>476.9</ele>
        <time>2020-03-28T19:01:19Z</time>
      </trkpt>
      <trkpt lat="42.6678220" lon="-1.8476190">
        <ele>477.4</ele>
        <time>2020-03-28T19:01:21Z</time>
      </trkpt>
      <trkpt lat="42.6677960" lon="-1.8476700">
        <ele>477.8</ele>
        <time>2020-03-28T19:01:23Z</time>
      </trkpt>
      <trkpt lat="42.6677440" lon="-1.8477880">
        <ele>478.9</ele>
        <time>2020-03-28T19:01:25Z</time>
      </trkpt>
      <trkpt lat="42.6677250" lon="-1.8478450">
        <ele>479.3</ele>
        <time>2020-03-28T19:01:27Z</time>
      </trkpt>
      <trkpt lat="42.6676910" lon="-1.8479490">
        <ele>480.1</ele>
        <time>2020-03-28T19:01:29Z</time>
      </trkpt>
      <trkpt lat="42.6676770" lon="-1.8480070">
        <ele>480.6</ele>
        <time>2020-03-28T19:01:31Z</time>
      </trkpt>
      <trkpt lat="42.6676540" lon="-1.8481090">
        <ele>481.3</ele>
        <time>2020-03-28T19:01:33Z</time>
      </trkpt>
      <trkpt lat="42.6676490" lon="-1.8481700">
        <ele>481.8</ele>
        <time>2020-03-28T19:01:35Z</time>
      </trkpt>
      <trkpt lat="42.6676480" lon="-1.8482570">
        <ele>482.5</ele>
        <time>2020-03-28T19:01:37Z</time>
      </trkpt>
      <trkpt lat="42.6676550" lon="-1.8483520">
        <ele>483.2</ele>
        <time>2020-03-28T19:01:39Z</time>
      </trkpt>
      <trkpt lat="42.6676650" lon="-1.8484090">
        <ele>483.6</ele>
        <time>2020-03-28T19:01:41Z</time>
      </trkpt>
      <trkpt lat="42.6676750" lon="-1.8484650">
        <ele>484.0</ele>
        <time>2020-03-28T19:01:43Z</time>
      </trkpt>
      <trkpt lat="42.6676980" lon="-1.8485800">
        <ele>484.9</ele>
        <time>2020-03-28T19:01:45Z</time>
      </trkpt>
      <trkpt lat="42.6677160" lon="-1.8486330">
        <ele>485.3</ele>
        <time>2020-03-28T19:01:47Z</time>
      </trkpt>
      <trkpt lat="42.6677330" lon="-1.8486850">
        <ele>485.7</ele>
        <time>2020-03-28T19:01:49Z</time>
      </trkpt>
      <trkpt lat="42.6677660" lon="-1.8487820">
        <ele>486.4</ele>
        <time>2020-03-28T19:01:51Z</time>
      </trkpt>
      <trkpt lat="42.6677820" lon="-1.8488310">
        <ele>486.8</ele>
        <time>2020-03-28T19:01:53Z</time>
      </trkpt>
      <trkpt lat="42.6677980" lon="-1.8488790">
        <ele>487.2</ele>
        <time>2020-03-28T19:01:55Z</time>
      </trkpt>
      <trkpt lat="42.6678140" lon="-1.8489260">
        <ele>487.5</ele>
        <time>2020-03-28T19:01:57Z</time>
      </trkpt>
      <trkpt lat="42.6678300" lon="-1.8489720">
        <ele>487.9</ele>
        <time>2020-03-28T19:01:59Z</time>
      </trkpt>
      <trkpt lat="42.6678460" lon="-1.8490190">
        <ele>488.3</ele>
        <time>2020-03-28T19:02:01Z</time>
      </trkpt>
      <trkpt lat="42.6678620" lon="-1.8490650">
        <ele>488.7</ele>
        <time>2020-03-28T19:02:03Z</time>
      </trkpt>
      <trkpt lat="42.6678770" lon="-1.8491110">
        <ele>489.0</ele>
        <time>2020-03-28T19:02:05Z</time>
      </trkpt>
      <trkpt lat="42.6678930" lon="-1.8491580">
        <ele>489.4</ele>
        <time>2020-03-28T19:02:07Z</time>
      </trkpt>
      <trkpt lat="42.6679090" lon="-1.8492040">
        <ele>489.8</ele>
        <time>2020-03-28T19:02:09Z</time>
      </trkpt>
      <trkpt lat="42.6679240" lon="-1.8492500">
        <ele>490.2</ele>
        <time>2020-03-28T19:02:11Z</time>
      </trkpt>
      <trkpt lat="42.6680060" lon="-1.8494920">
        <ele>492.5</ele>
        <time>2020-03-28T19:02:13Z</time>
      </trkpt>
      <trkpt lat="42.6680190" lon="-1.8495420">
        <ele>492.9</ele>
        <time>2020-03-28T19:02:15Z</time>
      </trkpt>
      <trkpt lat="42.6680320" lon="-1.8495910">
        <ele>493.4</ele>
        <time>2020-03-28T19:02:17Z</time>
      </trkpt>
      <trkpt lat="42.6680460" lon="-1.8496410">
        <ele>493.8</ele>
        <time>2020-03-28T19:02:19Z</time>
      </trkpt>
      <trkpt lat="42.6680590" lon="-1.8496900">
        <ele>494.3</ele>
        <time>2020-03-28T19:02:21Z</time>
      </trkpt>
      <trkpt lat="42.6680720" lon="-1.8497380">
        <ele>494.7</ele>
        <time>2020-03-28T19:02:23Z</time>
      </trkpt>
      <trkpt lat="42.6680850" lon="-1.8497860">
        <ele>495.1</ele>
        <time>2020-03-28T19:02:25Z</time>
      </trkpt>
      <trkpt lat="42.6680980" lon="-1.8498340">
        <ele>495.5</ele>
        <time>2020-03-28T19:02:27Z</time>
      </trkpt>
      <trkpt lat="42.6681460" lon="-1.8500180">
        <ele>497.1</ele>
        <time>2020-03-28T19:02:29Z</time>
      </trkpt>
      <trkpt lat="42.6681590" lon="-1.8500780">
        <ele>497.6</ele>
        <time>2020-03-28T19:02:31Z</time>
      </trkpt>
      <trkpt lat="42.6681730" lon="-1.8501400">
        <ele>498.0</ele>
        <time>2020-03-28T19:02:33Z</time>
      </trkpt>
      <trkpt lat="42.6681870" lon="-1.8502000">
        <ele>498.5</ele>
        <time>2020-03-28T19:02:35Z</time>
      </trkpt>
      <trkpt lat="42.6682000" lon="-1.8502610">
        <ele>499.0</ele>
        <time>2020-03-28T19:02:37Z</time>
      </trkpt>
      <trkpt lat="42.6682140" lon="-1.8503220">
        <ele>499.4</ele>
        <time>2020-03-28T19:02:39Z</time>
      </trkpt>
      <trkpt lat="42.6682560" lon="-1.8505140">
        <ele>500.8</ele>
        <time>2020-03-28T19:02:41Z</time>
      </trkpt>
      <trkpt lat="42.6682680" lon="-1.8505740">
        <ele>501.2</ele>
        <time>2020-03-28T19:02:43Z</time>
      </trkpt>
      <trkpt lat="42.6682790" lon="-1.8506330">
        <ele>501.6</ele>
        <time>2020-03-28T19:02:45Z</time>
      </trkpt>
      <trkpt lat="42.6682960" lon="-1.8507550">
        <ele>502.6</ele>
        <time>2020-03-28T19:02:47Z</time>
      </trkpt>
      <trkpt lat="42.6682980" lon="-1.8508160">
        <ele>503.0</ele>
        <time>2020-03-28T19:02:49Z</time>
      </trkpt>
      <trkpt lat="42.6683000" lon="-1.8508770">
        <ele>503.5</ele>
        <time>2020-03-28T19:02:51Z</time>
      </trkpt>
      <trkpt lat="42.6683010" lon="-1.8509940">
        <ele>504.3</ele>
        <time>2020-03-28T19:02:53Z</time>
      </trkpt>
      <trkpt lat="42.6682990" lon="-1.8510560">
        <ele>504.7</ele>
        <time>2020-03-28T19:02:55Z</time>
      </trkpt>
      <trkpt lat="42.6682940" lon="-1.8511620">
        <ele>505.4</ele>
        <time>2020-03-28T19:02:57Z</time>
      </trkpt>
      <trkpt lat="42.6682890" lon="-1.8512230">
        <ele>505.8</ele>
        <time>2020-03-28T19:02:59Z</time>
      </trkpt>
      <trkpt lat="42.6682770" lon="-1.8513330">
        <ele>506.7</ele>
        <time>2020-03-28T19:03:01Z</time>
      </trkpt>
      <trkpt lat="42.6682640" lon="-1.8513920">
        <ele>507.1</ele>
        <time>2020-03-28T19:03:03Z</time>
      </trkpt>
      <trkpt lat="42.6682420" lon="-1.8514930">
        <ele>507.5</ele>
        <time>2020-03-28T19:03:05Z</time>
      </trkpt>
      <trkpt lat="42.6682240" lon="-1.8515750">
        <ele>507.2</ele>
        <time>2020-03-28T19:03:07Z</time>
      </trkpt>
      <trkpt lat="42.6682020" lon="-1.8516750">
        <ele>506.8</ele>
        <time>2020-03-28T19:03:09Z</time>
      </trkpt>
      <trkpt lat="42.6681780" lon="-1.8517850">
        <ele>506.3</ele>
        <time>2020-03-28T19:03:11Z</time>
      </trkpt>
      <trkpt lat="42.6681540" lon="-1.8518960">
        <ele>505.6</ele>
        <time>2020-03-28T19:03:13Z</time>
      </trkpt>
      <trkpt lat="42.6681290" lon="-1.8520070">
        <ele>505.0</ele>
        <time>2020-03-28T19:03:15Z</time>
      </trkpt>
      <trkpt lat="42.6680620" lon="-1.8523290">
        <ele>503.1</ele>
        <time>2020-03-28T19:03:17Z</time>
      </trkpt>
      <trkpt lat="42.6680500" lon="-1.8524070">
        <ele>502.7</ele>
        <time>2020-03-28T19:03:19Z</time>
      </trkpt>
      <trkpt lat="42.6680480" lon="-1.8524200">
        <ele>502.6</ele>
        <time>2020-03-28T19:03:21Z</time>
      </trkpt>
      <trkpt lat="42.6680480" lon="-1.8524200">
        <ele>502.6</ele>
        <time>2020-03-28T19:03:23Z</time>
      </trkpt>
      <trkpt lat="42.6680470" lon="-1.8524260">
        <ele>502.6</ele>
        <time>2020-03-28T19:03:25Z</time>
      </trkpt>
      <trkpt lat="42.6680390" lon="-1.8524700">
        <ele>502.3</ele>
        <time>2020-03-28T19:03:27Z</time>
      </trkpt>
      <trkpt lat="42.6680160" lon="-1.8526270">
        <ele>501.4</ele>
        <time>2020-03-28T19:03:29Z</time>
      </trkpt>
      <trkpt lat="42.6680040" lon="-1.8527220">
        <ele>501.0</ele>
        <time>2020-03-28T19:03:31Z</time>
      </trkpt>
      <trkpt lat="42.6679820" lon="-1.8529220">
        <ele>500.3</ele>
        <time>2020-03-28T19:03:33Z</time>
      </trkpt>
      <trkpt lat="42.6679750" lon="-1.8530540">
        <ele>499.9</ele>
        <time>2020-03-28T19:03:35Z</time>
      </trkpt>
      <trkpt lat="42.6679720" lon="-1.8532540">
        <ele>499.2</ele>
        <time>2020-03-28T19:03:37Z</time>
      </trkpt>
      <trkpt lat="42.6679790" lon="-1.8534900">
        <ele>498.6</ele>
        <time>2020-03-28T19:03:39Z</time>
      </trkpt>
      <trkpt lat="42.6680030" lon="-1.8537130">
        <ele>498.1</ele>
        <time>2020-03-28T19:03:41Z</time>
      </trkpt>
      <trkpt lat="42.6680310" lon="-1.8538850">
        <ele>497.8</ele>
        <time>2020-03-28T19:03:43Z</time>
      </trkpt>
      <trkpt lat="42.6680870" lon="-1.8541630">
        <ele>497.3</ele>
        <time>2020-03-28T19:03:45Z</time>
      </trkpt>
      <trkpt lat="42.6681770" lon="-1.8543840">
        <ele>496.9</ele>
        <time>2020-03-28T19:03:47Z</time>
      </trkpt>
      <trkpt lat="42.6682620" lon="-1.8545470">
        <ele>496.6</ele>
        <time>2020-03-28T19:03:49Z</time>
      </trkpt>
      <trkpt lat="42.6684240" lon="-1.8548550">
        <ele>496.3</ele>
        <time>2020-03-28T19:03:51Z</time>
      </trkpt>
      <trkpt lat="42.6685350" lon="-1.8550700">
        <ele>496.0</ele>
        <time>2020-03-28T19:03:53Z</time>
      </trkpt>
      <trkpt lat="42.6686740" lon="-1.8553570">
        <ele>495.1</ele>
        <time>2020-03-28T19:03:55Z</time>
      </trkpt>
      <trkpt lat="42.6687230" lon="-1.8556640">
        <ele>492.8</ele>
        <time>2020-03-28T19:03:57Z</time>
      </trkpt>
      <trkpt lat="42.6687000" lon="-1.8559670">
        <ele>488.5</ele>
        <time>2020-03-28T19:03:59Z</time>
      </trkpt>
      <trkpt lat="42.6686670" lon="-1.8562380">
        <ele>484.7</ele>
        <time>2020-03-28T19:04:01Z</time>
      </trkpt>
      <trkpt lat="42.6686050" lon="-1.8567530">
        <ele>478.2</ele>
        <time>2020-03-28T19:04:03Z</time>
      </trkpt>
      <trkpt lat="42.6685620" lon="-1.8571240">
        <ele>475.4</ele>
        <time>2020-03-28T19:04:05Z</time>
      </trkpt>
      <trkpt lat="42.6685300" lon="-1.8575860">
        <ele>474.5</ele>
        <time>2020-03-28T19:04:07Z</time>
      </trkpt>
      <trkpt lat="42.6686080" lon="-1.8579670">
        <ele>473.9</ele>
        <time>2020-03-28T19:04:09Z</time>
      </trkpt>
      <trkpt lat="42.6687700" lon="-1.8582670">
        <ele>473.7</ele>
        <time>2020-03-28T19:04:11Z</time>
      </trkpt>
      <trkpt lat="42.6689260" lon="-1.8585060">
        <ele>473.9</ele>
        <time>2020-03-28T19:04:13Z</time>
      </trkpt>
      <trkpt lat="42.6691580" lon="-1.8586410">
        <ele>473.4</ele>
        <time>2020-03-28T19:04:15Z</time>
      </trkpt>
      <trkpt lat="42.6693680" lon="-1.8587920">
        <ele>472.3</ele>
        <time>2020-03-28T19:04:17Z</time>
      </trkpt>
      <trkpt lat="42.6695310" lon="-1.8590130">
        <ele>471.0</ele>
        <time>2020-03-28T19:04:19Z</time>
      </trkpt>
      <trkpt lat="42.6695620" lon="-1.8593190">
        <ele>469.7</ele>
        <time>2020-03-28T19:04:21Z</time>
      </trkpt>
      <trkpt lat="42.6696760" lon="-1.8595280">
        <ele>468.6</ele>
        <time>2020-03-28T19:04:23Z</time>
      </trkpt>
      <trkpt lat="42.6697860" lon="-1.8597100">
        <ele>467.7</ele>
        <time>2020-03-28T19:04:25Z</time>
      </trkpt>
      <trkpt lat="42.6699880" lon="-1.8600360">
        <ele>466.2</ele>
        <time>2020-03-28T19:04:27Z</time>
      </trkpt>
      <trkpt lat="42.6701360" lon="-1.8602700">
        <ele>465.2</ele>
        <time>2020-03-28T19:04:29Z</time>
      </trkpt>
      <trkpt lat="42.6702510" lon="-1.8604510">
        <ele>464.9</ele>
        <time>2020-03-28T19:04:31Z</time>
      </trkpt>
      <trkpt lat="42.6704450" lon="-1.8607590">
        <ele>464.9</ele>
        <time>2020-03-28T19:04:33Z</time>
      </trkpt>
      <trkpt lat="42.6705940" lon="-1.8609970">
        <ele>465.2</ele>
        <time>2020-03-28T19:04:35Z</time>
      </trkpt>
      <trkpt lat="42.6706950" lon="-1.8611600">
        <ele>465.5</ele>
        <time>2020-03-28T19:04:37Z</time>
      </trkpt>
      <trkpt lat="42.6707920" lon="-1.8613150">
        <ele>465.7</ele>
        <time>2020-03-28T19:04:39Z</time>
      </trkpt>
      <trkpt lat="42.6710080" lon="-1.8616650">
        <ele>466.2</ele>
        <time>2020-03-28T19:04:41Z</time>
      </trkpt>
      <trkpt lat="42.6710960" lon="-1.8618100">
        <ele>466.5</ele>
        <time>2020-03-28T19:04:43Z</time>
      </trkpt>
      <trkpt lat="42.6711800" lon="-1.8619480">
        <ele>466.7</ele>
        <time>2020-03-28T19:04:45Z</time>
      </trkpt>
      <trkpt lat="42.6712620" lon="-1.8620820">
        <ele>466.8</ele>
        <time>2020-03-28T19:04:47Z</time>
      </trkpt>
      <trkpt lat="42.6714620" lon="-1.8624170">
        <ele>466.8</ele>
        <time>2020-03-28T19:04:49Z</time>
      </trkpt>
      <trkpt lat="42.6715210" lon="-1.8625620">
        <ele>466.8</ele>
        <time>2020-03-28T19:04:51Z</time>
      </trkpt>
      <trkpt lat="42.6715910" lon="-1.8628080">
        <ele>466.6</ele>
        <time>2020-03-28T19:04:54Z</time>
      </trkpt>
      <trkpt lat="42.6716140" lon="-1.8630420">
        <ele>466.3</ele>
        <time>2020-03-28T19:04:56Z</time>
      </trkpt>
      <trkpt lat="42.6715990" lon="-1.8632680">
        <ele>466.0</ele>
        <time>2020-03-28T19:04:58Z</time>
      </trkpt>
      <trkpt lat="42.6715740" lon="-1.8634500">
        <ele>465.8</ele>
        <time>2020-03-28T19:05:00Z</time>
      </trkpt>
      <trkpt lat="42.6715310" lon="-1.8637380">
        <ele>464.9</ele>
        <time>2020-03-28T19:05:02Z</time>
      </trkpt>
      <trkpt lat="42.6715000" lon="-1.8639330">
        <ele>464.1</ele>
        <time>2020-03-28T19:05:04Z</time>
      </trkpt>
      <trkpt lat="42.6714470" lon="-1.8642660">
        <ele>463.1</ele>
        <time>2020-03-28T19:05:06Z</time>
      </trkpt>
      <trkpt lat="42.6714170" lon="-1.8644590">
        <ele>462.6</ele>
        <time>2020-03-28T19:05:08Z</time>
      </trkpt>
      <trkpt lat="42.6713670" lon="-1.8648080">
        <ele>462.2</ele>
        <time>2020-03-28T19:05:10Z</time>
      </trkpt>
      <trkpt lat="42.6713460" lon="-1.8650690">
        <ele>462.9</ele>
        <time>2020-03-28T19:05:12Z</time>
      </trkpt>
      <trkpt lat="42.6713430" lon="-1.8653350">
        <ele>463.6</ele>
        <time>2020-03-28T19:05:14Z</time>
      </trkpt>
      <trkpt lat="42.6713610" lon="-1.8655020">
        <ele>464.2</ele>
        <time>2020-03-28T19:05:16Z</time>
      </trkpt>
      <trkpt lat="42.6713980" lon="-1.8657250">
        <ele>465.0</ele>
        <time>2020-03-28T19:05:18Z</time>
      </trkpt>
      <trkpt lat="42.6714270" lon="-1.8658540">
        <ele>465.7</ele>
        <time>2020-03-28T19:05:20Z</time>
      </trkpt>
      <trkpt lat="42.6714530" lon="-1.8659700">
        <ele>466.4</ele>
        <time>2020-03-28T19:05:22Z</time>
      </trkpt>
      <trkpt lat="42.6715090" lon="-1.8662200">
        <ele>467.8</ele>
        <time>2020-03-28T19:05:24Z</time>
      </trkpt>
      <trkpt lat="42.6715290" lon="-1.8663140">
        <ele>468.2</ele>
        <time>2020-03-28T19:05:26Z</time>
      </trkpt>
      <trkpt lat="42.6715480" lon="-1.8663990">
        <ele>468.7</ele>
        <time>2020-03-28T19:05:28Z</time>
      </trkpt>
      <trkpt lat="42.6715640" lon="-1.8664750">
        <ele>469.1</ele>
        <time>2020-03-28T19:05:30Z</time>
      </trkpt>
      <trkpt lat="42.6715800" lon="-1.8665470">
        <ele>469.5</ele>
        <time>2020-03-28T19:05:32Z</time>
      </trkpt>
      <trkpt lat="42.6715940" lon="-1.8666140">
        <ele>469.8</ele>
        <time>2020-03-28T19:05:34Z</time>
      </trkpt>
      <trkpt lat="42.6716430" lon="-1.8668380">
        <ele>471.1</ele>
        <time>2020-03-28T19:05:36Z</time>
      </trkpt>
      <trkpt lat="42.6716570" lon="-1.8668990">
        <ele>471.5</ele>
        <time>2020-03-28T19:05:38Z</time>
      </trkpt>
      <trkpt lat="42.6716700" lon="-1.8669590">
        <ele>471.8</ele>
        <time>2020-03-28T19:05:40Z</time>
      </trkpt>
      <trkpt lat="42.6716820" lon="-1.8670160">
        <ele>472.2</ele>
        <time>2020-03-28T19:05:42Z</time>
      </trkpt>
      <trkpt lat="42.6716950" lon="-1.8670730">
        <ele>472.5</ele>
        <time>2020-03-28T19:05:44Z</time>
      </trkpt>
      <trkpt lat="42.6717070" lon="-1.8671290">
        <ele>472.9</ele>
        <time>2020-03-28T19:05:46Z</time>
      </trkpt>
      <trkpt lat="42.6717200" lon="-1.8671860">
        <ele>473.3</ele>
        <time>2020-03-28T19:05:48Z</time>
      </trkpt>
      <trkpt lat="42.6717320" lon="-1.8672420">
        <ele>473.6</ele>
        <time>2020-03-28T19:05:50Z</time>
      </trkpt>
      <trkpt lat="42.6717440" lon="-1.8672980">
        <ele>473.9</ele>
        <time>2020-03-28T19:05:52Z</time>
      </trkpt>
      <trkpt lat="42.6717560" lon="-1.8673530">
        <ele>474.3</ele>
        <time>2020-03-28T19:05:54Z</time>
      </trkpt>
      <trkpt lat="42.6717690" lon="-1.8674080">
        <ele>474.6</ele>
        <time>2020-03-28T19:05:56Z</time>
      </trkpt>
      <trkpt lat="42.6717800" lon="-1.8674620">
        <ele>474.9</ele>
        <time>2020-03-28T19:05:58Z</time>
      </trkpt>
      <trkpt lat="42.6717930" lon="-1.8675170">
        <ele>475.2</ele>
        <time>2020-03-28T19:06:00Z</time>
      </trkpt>
      <trkpt lat="42.6718050" lon="-1.8675720">
        <ele>475.5</ele>
        <time>2020-03-28T19:06:02Z</time>
      </trkpt>
      <trkpt lat="42.6718170" lon="-1.8676270">
        <ele>475.8</ele>
        <time>2020-03-28T19:06:04Z</time>
      </trkpt>
      <trkpt lat="42.6718990" lon="-1.8679990">
        <ele>478.6</ele>
        <time>2020-03-28T19:06:06Z</time>
      </trkpt>
      <trkpt lat="42.6719160" lon="-1.8680750">
        <ele>478.6</ele>
        <time>2020-03-28T19:06:08Z</time>
      </trkpt>
      <trkpt lat="42.6719370" lon="-1.8681640">
        <ele>478.8</ele>
        <time>2020-03-28T19:06:10Z</time>
      </trkpt>
      <trkpt lat="42.6719610" lon="-1.8682640">
        <ele>478.9</ele>
        <time>2020-03-28T19:06:12Z</time>
      </trkpt>
      <trkpt lat="42.6719850" lon="-1.8683680">
        <ele>479.0</ele>
        <time>2020-03-28T19:06:14Z</time>
      </trkpt>
      <trkpt lat="42.6720100" lon="-1.8684760">
        <ele>478.9</ele>
        <time>2020-03-28T19:06:16Z</time>
      </trkpt>
      <trkpt lat="42.6720360" lon="-1.8685860">
        <ele>478.8</ele>
        <time>2020-03-28T19:06:18Z</time>
      </trkpt>
      <trkpt lat="42.6720620" lon="-1.8686970">
        <ele>478.7</ele>
        <time>2020-03-28T19:06:20Z</time>
      </trkpt>
      <trkpt lat="42.6721580" lon="-1.8691100">
        <ele>478.6</ele>
        <time>2020-03-28T19:06:22Z</time>
      </trkpt>
      <trkpt lat="42.6721860" lon="-1.8692220">
        <ele>478.4</ele>
        <time>2020-03-28T19:06:24Z</time>
      </trkpt>
      <trkpt lat="42.6722140" lon="-1.8693340">
        <ele>478.2</ele>
        <time>2020-03-28T19:06:26Z</time>
      </trkpt>
      <trkpt lat="42.6722430" lon="-1.8694470">
        <ele>477.9</ele>
        <time>2020-03-28T19:06:28Z</time>
      </trkpt>
      <trkpt lat="42.6722720" lon="-1.8695610">
        <ele>477.8</ele>
        <time>2020-03-28T19:06:30Z</time>
      </trkpt>
      <trkpt lat="42.6723000" lon="-1.8696750">
        <ele>477.7</ele>
        <time>2020-03-28T19:06:32Z</time>
      </trkpt>
      <trkpt lat="42.6723290" lon="-1.8697890">
        <ele>477.6</ele>
        <time>2020-03-28T19:06:34Z</time>
      </trkpt>
      <trkpt lat="42.6723580" lon="-1.8699040">
        <ele>477.6</ele>
        <time>2020-03-28T19:06:36Z</time>
      </trkpt>
      <trkpt lat="42.6724640" lon="-1.8703240">
        <ele>477.6</ele>
        <time>2020-03-28T19:06:38Z</time>
      </trkpt>
      <trkpt lat="42.6724960" lon="-1.8704530">
        <ele>477.6</ele>
        <time>2020-03-28T19:06:40Z</time>
      </trkpt>
      <trkpt lat="42.6725320" lon="-1.8705960">
        <ele>477.4</ele>
        <time>2020-03-28T19:06:42Z</time>
      </trkpt>
      <trkpt lat="42.6725710" lon="-1.8707490">
        <ele>477.1</ele>
        <time>2020-03-28T19:06:44Z</time>
      </trkpt>
      <trkpt lat="42.6726130" lon="-1.8709130">
        <ele>476.8</ele>
        <time>2020-03-28T19:06:46Z</time>
      </trkpt>
      <trkpt lat="42.6726560" lon="-1.8710850">
        <ele>476.4</ele>
        <time>2020-03-28T19:06:48Z</time>
      </trkpt>
      <trkpt lat="42.6727780" lon="-1.8715700">
        <ele>475.1</ele>
        <time>2020-03-28T19:06:50Z</time>
      </trkpt>
      <trkpt lat="42.6728260" lon="-1.8717580">
        <ele>474.5</ele>
        <time>2020-03-28T19:06:52Z</time>
      </trkpt>
      <trkpt lat="42.6728740" lon="-1.8719520">
        <ele>473.8</ele>
        <time>2020-03-28T19:06:54Z</time>
      </trkpt>
      <trkpt lat="42.6729250" lon="-1.8721510">
        <ele>472.9</ele>
        <time>2020-03-28T19:06:56Z</time>
      </trkpt>
      <trkpt lat="42.6730530" lon="-1.8726590">
        <ele>470.8</ele>
        <time>2020-03-28T19:06:58Z</time>
      </trkpt>
      <trkpt lat="42.6731050" lon="-1.8728660">
        <ele>469.8</ele>
        <time>2020-03-28T19:07:00Z</time>
      </trkpt>
      <trkpt lat="42.6731570" lon="-1.8730740">
        <ele>468.8</ele>
        <time>2020-03-28T19:07:02Z</time>
      </trkpt>
      <trkpt lat="42.6732110" lon="-1.8732850">
        <ele>467.7</ele>
        <time>2020-03-28T19:07:04Z</time>
      </trkpt>
      <trkpt lat="42.6733410" lon="-1.8738030">
        <ele>465.7</ele>
        <time>2020-03-28T19:07:06Z</time>
      </trkpt>
      <trkpt lat="42.6733960" lon="-1.8740190">
        <ele>465.2</ele>
        <time>2020-03-28T19:07:08Z</time>
      </trkpt>
      <trkpt lat="42.6734510" lon="-1.8742390">
        <ele>464.7</ele>
        <time>2020-03-28T19:07:10Z</time>
      </trkpt>
      <trkpt lat="42.6735070" lon="-1.8744600">
        <ele>464.3</ele>
        <time>2020-03-28T19:07:12Z</time>
      </trkpt>
      <trkpt lat="42.6736390" lon="-1.8749850">
        <ele>463.2</ele>
        <time>2020-03-28T19:07:14Z</time>
      </trkpt>
      <trkpt lat="42.6736910" lon="-1.8751940">
        <ele>463.1</ele>
        <time>2020-03-28T19:07:16Z</time>
      </trkpt>
      <trkpt lat="42.6737400" lon="-1.8753890">
        <ele>463.4</ele>
        <time>2020-03-28T19:07:18Z</time>
      </trkpt>
      <trkpt lat="42.6737870" lon="-1.8755750">
        <ele>464.0</ele>
        <time>2020-03-28T19:07:20Z</time>
      </trkpt>
      <trkpt lat="42.6739080" lon="-1.8760550">
        <ele>465.8</ele>
        <time>2020-03-28T19:07:22Z</time>
      </trkpt>
      <trkpt lat="42.6739500" lon="-1.8762220">
        <ele>466.5</ele>
        <time>2020-03-28T19:07:24Z</time>
      </trkpt>
      <trkpt lat="42.6739910" lon="-1.8763810">
        <ele>467.3</ele>
        <time>2020-03-28T19:07:26Z</time>
      </trkpt>
      <trkpt lat="42.6740290" lon="-1.8765340">
        <ele>468.1</ele>
        <time>2020-03-28T19:07:28Z</time>
      </trkpt>
      <trkpt lat="42.6740660" lon="-1.8766820">
        <ele>468.8</ele>
        <time>2020-03-28T19:07:30Z</time>
      </trkpt>
      <trkpt lat="42.6741020" lon="-1.8768230">
        <ele>469.5</ele>
        <time>2020-03-28T19:07:32Z</time>
      </trkpt>
      <trkpt lat="42.6742150" lon="-1.8772650">
        <ele>471.2</ele>
        <time>2020-03-28T19:07:34Z</time>
      </trkpt>
      <trkpt lat="42.6742510" lon="-1.8774060">
        <ele>471.5</ele>
        <time>2020-03-28T19:07:36Z</time>
      </trkpt>
      <trkpt lat="42.6742880" lon="-1.8775480">
        <ele>471.7</ele>
        <time>2020-03-28T19:07:38Z</time>
      </trkpt>
      <trkpt lat="42.6743260" lon="-1.8776930">
        <ele>471.6</ele>
        <time>2020-03-28T19:07:40Z</time>
      </trkpt>
      <trkpt lat="42.6743640" lon="-1.8778380">
        <ele>471.3</ele>
        <time>2020-03-28T19:07:42Z</time>
      </trkpt>
      <trkpt lat="42.6744810" lon="-1.8782870">
        <ele>469.2</ele>
        <time>2020-03-28T19:07:44Z</time>
      </trkpt>
      <trkpt lat="42.6745220" lon="-1.8784430">
        <ele>468.3</ele>
        <time>2020-03-28T19:07:46Z</time>
      </trkpt>
      <trkpt lat="42.6745660" lon="-1.8786120">
        <ele>467.4</ele>
        <time>2020-03-28T19:07:48Z</time>
      </trkpt>
      <trkpt lat="42.6746130" lon="-1.8787930">
        <ele>466.4</ele>
        <time>2020-03-28T19:07:50Z</time>
      </trkpt>
      <trkpt lat="42.6746630" lon="-1.8789840">
        <ele>465.3</ele>
        <time>2020-03-28T19:07:52Z</time>
      </trkpt>
      <trkpt lat="42.6747890" lon="-1.8794880">
        <ele>462.6</ele>
        <time>2020-03-28T19:07:54Z</time>
      </trkpt>
      <trkpt lat="42.6748360" lon="-1.8797010">
        <ele>461.7</ele>
        <time>2020-03-28T19:07:56Z</time>
      </trkpt>
      <trkpt lat="42.6748830" lon="-1.8799210">
        <ele>461.0</ele>
        <time>2020-03-28T19:07:58Z</time>
      </trkpt>
      <trkpt lat="42.6749850" lon="-1.8803910">
        <ele>460.1</ele>
        <time>2020-03-28T19:08:00Z</time>
      </trkpt>
      <trkpt lat="42.6750290" lon="-1.8806460">
        <ele>461.1</ele>
        <time>2020-03-28T19:08:02Z</time>
      </trkpt>
      <trkpt lat="42.6750620" lon="-1.8808560">
        <ele>461.7</ele>
        <time>2020-03-28T19:08:04Z</time>
      </trkpt>
      <trkpt lat="42.6751210" lon="-1.8812250">
        <ele>462.6</ele>
        <time>2020-03-28T19:08:06Z</time>
      </trkpt>
      <trkpt lat="42.6751500" lon="-1.8814060">
        <ele>463.1</ele>
        <time>2020-03-28T19:08:08Z</time>
      </trkpt>
      <trkpt lat="42.6751770" lon="-1.8815750">
        <ele>463.7</ele>
        <time>2020-03-28T19:08:10Z</time>
      </trkpt>
      <trkpt lat="42.6752320" lon="-1.8819360">
        <ele>464.4</ele>
        <time>2020-03-28T19:08:12Z</time>
      </trkpt>
      <trkpt lat="42.6752500" lon="-1.8820920">
        <ele>464.6</ele>
        <time>2020-03-28T19:08:14Z</time>
      </trkpt>
      <trkpt lat="42.6752680" lon="-1.8822440">
        <ele>464.7</ele>
        <time>2020-03-28T19:08:16Z</time>
      </trkpt>
      <trkpt lat="42.6752850" lon="-1.8823950">
        <ele>464.9</ele>
        <time>2020-03-28T19:08:18Z</time>
      </trkpt>
      <trkpt lat="42.6753180" lon="-1.8827690">
        <ele>465.0</ele>
        <time>2020-03-28T19:08:20Z</time>
      </trkpt>
      <trkpt lat="42.6753180" lon="-1.8829170">
        <ele>465.1</ele>
        <time>2020-03-28T19:08:22Z</time>
      </trkpt>
      <trkpt lat="42.6753180" lon="-1.8831840">
        <ele>465.1</ele>
        <time>2020-03-28T19:08:24Z</time>
      </trkpt>
      <trkpt lat="42.6753270" lon="-1.8833820">
        <ele>465.1</ele>
        <time>2020-03-28T19:08:26Z</time>
      </trkpt>
      <trkpt lat="42.6754080" lon="-1.8834710">
        <ele>465.1</ele>
        <time>2020-03-28T19:08:28Z</time>
      </trkpt>
      <trkpt lat="42.6755470" lon="-1.8834790">
        <ele>465.6</ele>
        <time>2020-03-28T19:08:30Z</time>
      </trkpt>
      <trkpt lat="42.6756770" lon="-1.8834950">
        <ele>466.5</ele>
        <time>2020-03-28T19:08:32Z</time>
      </trkpt>
      <trkpt lat="42.6757650" lon="-1.8836220">
        <ele>467.3</ele>
        <time>2020-03-28T19:08:34Z</time>
      </trkpt>
      <trkpt lat="42.6757730" lon="-1.8837670">
        <ele>467.4</ele>
        <time>2020-03-28T19:08:36Z</time>
      </trkpt>
      <trkpt lat="42.6757100" lon="-1.8839090">
        <ele>466.7</ele>
        <time>2020-03-28T19:08:38Z</time>
      </trkpt>
      <trkpt lat="42.6756050" lon="-1.8839650">
        <ele>465.5</ele>
        <time>2020-03-28T19:08:40Z</time>
      </trkpt>
      <trkpt lat="42.6755770" lon="-1.8840650">
        <ele>465.8</ele>
        <time>2020-03-28T19:08:42Z</time>
      </trkpt>
      <trkpt lat="42.6756000" lon="-1.8842280">
        <ele>466.2</ele>
        <time>2020-03-28T19:08:44Z</time>
      </trkpt>
      <trkpt lat="42.6756750" lon="-1.8843380">
        <ele>466.6</ele>
        <time>2020-03-28T19:08:46Z</time>
      </trkpt>
      <trkpt lat="42.6757420" lon="-1.8844030">
        <ele>466.8</ele>
        <time>2020-03-28T19:08:48Z</time>
      </trkpt>
      <trkpt lat="42.6758100" lon="-1.8844690">
        <ele>467.2</ele>
        <time>2020-03-28T19:08:50Z</time>
      </trkpt>
      <trkpt lat="42.6759460" lon="-1.8846110">
        <ele>467.9</ele>
        <time>2020-03-28T19:08:52Z</time>
      </trkpt>
      <trkpt lat="42.6760050" lon="-1.8846880">
        <ele>468.2</ele>
        <time>2020-03-28T19:08:54Z</time>
      </trkpt>
      <trkpt lat="42.6760920" lon="-1.8848240">
        <ele>468.6</ele>
        <time>2020-03-28T19:08:56Z</time>
      </trkpt>
      <trkpt lat="42.6761610" lon="-1.8849660">
        <ele>468.8</ele>
        <time>2020-03-28T19:08:58Z</time>
      </trkpt>
      <trkpt lat="42.6761890" lon="-1.8850750">
        <ele>469.0</ele>
        <time>2020-03-28T19:09:00Z</time>
      </trkpt>
      <trkpt lat="42.6762160" lon="-1.8851790">
        <ele>469.1</ele>
        <time>2020-03-28T19:09:02Z</time>
      </trkpt>
      <trkpt lat="42.6762430" lon="-1.8852830">
        <ele>469.2</ele>
        <time>2020-03-28T19:09:04Z</time>
      </trkpt>
      <trkpt lat="42.6762690" lon="-1.8853860">
        <ele>469.3</ele>
        <time>2020-03-28T19:09:06Z</time>
      </trkpt>
      <trkpt lat="42.6762960" lon="-1.8854890">
        <ele>469.4</ele>
        <time>2020-03-28T19:09:08Z</time>
      </trkpt>
      <trkpt lat="42.6763230" lon="-1.8855930">
        <ele>469.6</ele>
        <time>2020-03-28T19:09:10Z</time>
      </trkpt>
      <trkpt lat="42.6764130" lon="-1.8859420">
        <ele>469.9</ele>
        <time>2020-03-28T19:09:12Z</time>
      </trkpt>
      <trkpt lat="42.6764400" lon="-1.8860450">
        <ele>470.1</ele>
        <time>2020-03-28T19:09:14Z</time>
      </trkpt>
      <trkpt lat="42.6764660" lon="-1.8861490">
        <ele>470.2</ele>
        <time>2020-03-28T19:09:16Z</time>
      </trkpt>
      <trkpt lat="42.6764930" lon="-1.8862520">
        <ele>470.4</ele>
        <time>2020-03-28T19:09:18Z</time>
      </trkpt>
      <trkpt lat="42.6765200" lon="-1.8863560">
        <ele>470.5</ele>
        <time>2020-03-28T19:09:20Z</time>
      </trkpt>
      <trkpt lat="42.6765470" lon="-1.8864590">
        <ele>470.6</ele>
        <time>2020-03-28T19:09:22Z</time>
      </trkpt>
      <trkpt lat="42.6765740" lon="-1.8865630">
        <ele>470.7</ele>
        <time>2020-03-28T19:09:24Z</time>
      </trkpt>
      <trkpt lat="42.6766650" lon="-1.8869180">
        <ele>470.6</ele>
        <time>2020-03-28T19:09:26Z</time>
      </trkpt>
      <trkpt lat="42.6767170" lon="-1.8871230">
        <ele>469.9</ele>
        <time>2020-03-28T19:09:28Z</time>
      </trkpt>
      <trkpt lat="42.6767540" lon="-1.8872680">
        <ele>469.3</ele>
        <time>2020-03-28T19:09:30Z</time>
      </trkpt>
      <trkpt lat="42.6767940" lon="-1.8874260">
        <ele>468.8</ele>
        <time>2020-03-28T19:09:32Z</time>
      </trkpt>
      <trkpt lat="42.6768740" lon="-1.8877090">
        <ele>468.1</ele>
        <time>2020-03-28T19:09:34Z</time>
      </trkpt>
      <trkpt lat="42.6769290" lon="-1.8878880">
        <ele>467.8</ele>
        <time>2020-03-28T19:09:36Z</time>
      </trkpt>
      <trkpt lat="42.6770390" lon="-1.8881970">
        <ele>467.3</ele>
        <time>2020-03-28T19:09:38Z</time>
      </trkpt>
      <trkpt lat="42.6771150" lon="-1.8883870">
        <ele>466.6</ele>
        <time>2020-03-28T19:09:40Z</time>
      </trkpt>
      <trkpt lat="42.6771940" lon="-1.8885860">
        <ele>465.4</ele>
        <time>2020-03-28T19:09:42Z</time>
      </trkpt>
      <trkpt lat="42.6773620" lon="-1.8890070">
        <ele>463.1</ele>
        <time>2020-03-28T19:09:44Z</time>
      </trkpt>
      <trkpt lat="42.6774460" lon="-1.8892180">
        <ele>461.8</ele>
        <time>2020-03-28T19:09:46Z</time>
      </trkpt>
      <trkpt lat="42.6775330" lon="-1.8894350">
        <ele>460.8</ele>
        <time>2020-03-28T19:09:48Z</time>
      </trkpt>
      <trkpt lat="42.6777870" lon="-1.8897890">
        <ele>459.4</ele>
        <time>2020-03-28T19:09:50Z</time>
      </trkpt>
      <trkpt lat="42.6777850" lon="-1.8900420">
        <ele>458.9</ele>
        <time>2020-03-28T19:09:52Z</time>
      </trkpt>
      <trkpt lat="42.6778710" lon="-1.8902700">
        <ele>458.0</ele>
        <time>2020-03-28T19:09:54Z</time>
      </trkpt>
      <trkpt lat="42.6780070" lon="-1.8906450">
        <ele>456.8</ele>
        <time>2020-03-28T19:09:56Z</time>
      </trkpt>
      <trkpt lat="42.6781040" lon="-1.8909810">
        <ele>456.3</ele>
        <time>2020-03-28T19:09:58Z</time>
      </trkpt>
      <trkpt lat="42.6781640" lon="-1.8913140">
        <ele>456.3</ele>
        <time>2020-03-28T19:10:00Z</time>
      </trkpt>
      <trkpt lat="42.6781900" lon="-1.8916430">
        <ele>456.2</ele>
        <time>2020-03-28T19:10:02Z</time>
      </trkpt>
      <trkpt lat="42.6781880" lon="-1.8919390">
        <ele>456.2</ele>
        <time>2020-03-28T19:10:04Z</time>
      </trkpt>
      <trkpt lat="42.6781720" lon="-1.8921340">
        <ele>456.0</ele>
        <time>2020-03-28T19:10:06Z</time>
      </trkpt>
      <trkpt lat="42.6781410" lon="-1.8924260">
        <ele>455.5</ele>
        <time>2020-03-28T19:10:08Z</time>
      </trkpt>
      <trkpt lat="42.6781170" lon="-1.8926050">
        <ele>455.1</ele>
        <time>2020-03-28T19:10:10Z</time>
      </trkpt>
      <trkpt lat="42.6780920" lon="-1.8927850">
        <ele>454.7</ele>
        <time>2020-03-28T19:10:12Z</time>
      </trkpt>
      <trkpt lat="42.6780680" lon="-1.8929620">
        <ele>454.4</ele>
        <time>2020-03-28T19:10:14Z</time>
      </trkpt>
      <trkpt lat="42.6780440" lon="-1.8931400">
        <ele>454.3</ele>
        <time>2020-03-28T19:10:16Z</time>
      </trkpt>
      <trkpt lat="42.6779800" lon="-1.8936150">
        <ele>454.2</ele>
        <time>2020-03-28T19:10:18Z</time>
      </trkpt>
      <trkpt lat="42.6779560" lon="-1.8937900">
        <ele>454.2</ele>
        <time>2020-03-28T19:10:20Z</time>
      </trkpt>
      <trkpt lat="42.6779320" lon="-1.8939660">
        <ele>454.2</ele>
        <time>2020-03-28T19:10:22Z</time>
      </trkpt>
      <trkpt lat="42.6779090" lon="-1.8941420">
        <ele>454.2</ele>
        <time>2020-03-28T19:10:24Z</time>
      </trkpt>
      <trkpt lat="42.6778450" lon="-1.8946160">
        <ele>454.3</ele>
        <time>2020-03-28T19:10:26Z</time>
      </trkpt>
      <trkpt lat="42.6778220" lon="-1.8947890">
        <ele>454.5</ele>
        <time>2020-03-28T19:10:28Z</time>
      </trkpt>
      <trkpt lat="42.6777990" lon="-1.8949570">
        <ele>454.9</ele>
        <time>2020-03-28T19:10:30Z</time>
      </trkpt>
      <trkpt lat="42.6777770" lon="-1.8951200">
        <ele>455.3</ele>
        <time>2020-03-28T19:10:32Z</time>
      </trkpt>
      <trkpt lat="42.6777550" lon="-1.8952810">
        <ele>455.7</ele>
        <time>2020-03-28T19:10:34Z</time>
      </trkpt>
      <trkpt lat="42.6776930" lon="-1.8957360">
        <ele>456.1</ele>
        <time>2020-03-28T19:10:36Z</time>
      </trkpt>
      <trkpt lat="42.6776740" lon="-1.8958890">
        <ele>456.4</ele>
        <time>2020-03-28T19:10:38Z</time>
      </trkpt>
      <trkpt lat="42.6776550" lon="-1.8960390">
        <ele>456.7</ele>
        <time>2020-03-28T19:10:40Z</time>
      </trkpt>
      <trkpt lat="42.6776360" lon="-1.8961880">
        <ele>457.0</ele>
        <time>2020-03-28T19:10:42Z</time>
      </trkpt>
      <trkpt lat="42.6776170" lon="-1.8963340">
        <ele>457.4</ele>
        <time>2020-03-28T19:10:44Z</time>
      </trkpt>
      <trkpt lat="42.6775670" lon="-1.8967070">
        <ele>458.1</ele>
        <time>2020-03-28T19:10:46Z</time>
      </trkpt>
      <trkpt lat="42.6775190" lon="-1.8969370">
        <ele>458.3</ele>
        <time>2020-03-28T19:10:48Z</time>
      </trkpt>
      <trkpt lat="42.6774760" lon="-1.8970980">
        <ele>458.2</ele>
        <time>2020-03-28T19:10:50Z</time>
      </trkpt>
      <trkpt lat="42.6774310" lon="-1.8972640">
        <ele>458.0</ele>
        <time>2020-03-28T19:10:52Z</time>
      </trkpt>
      <trkpt lat="42.6773840" lon="-1.8974360">
        <ele>457.6</ele>
        <time>2020-03-28T19:10:54Z</time>
      </trkpt>
      <trkpt lat="42.6772640" lon="-1.8978810">
        <ele>456.3</ele>
        <time>2020-03-28T19:10:56Z</time>
      </trkpt>
      <trkpt lat="42.6772130" lon="-1.8980680">
        <ele>455.0</ele>
        <time>2020-03-28T19:10:58Z</time>
      </trkpt>
      <trkpt lat="42.6771580" lon="-1.8982700">
        <ele>453.4</ele>
        <time>2020-03-28T19:11:00Z</time>
      </trkpt>
      <trkpt lat="42.6770570" lon="-1.8986420">
        <ele>450.8</ele>
        <time>2020-03-28T19:11:02Z</time>
      </trkpt>
      <trkpt lat="42.6769650" lon="-1.8989750">
        <ele>448.6</ele>
        <time>2020-03-28T19:11:04Z</time>
      </trkpt>
      <trkpt lat="42.6769020" lon="-1.8992100">
        <ele>447.1</ele>
        <time>2020-03-28T19:11:06Z</time>
      </trkpt>
      <trkpt lat="42.6767930" lon="-1.8996140">
        <ele>444.7</ele>
        <time>2020-03-28T19:11:08Z</time>
      </trkpt>
      <trkpt lat="42.6766890" lon="-1.8999690">
        <ele>442.9</ele>
        <time>2020-03-28T19:11:10Z</time>
      </trkpt>
      <trkpt lat="42.6766040" lon="-1.9002130">
        <ele>441.6</ele>
        <time>2020-03-28T19:11:12Z</time>
      </trkpt>
      <trkpt lat="42.6764670" lon="-1.9006010">
        <ele>439.9</ele>
        <time>2020-03-28T19:11:14Z</time>
      </trkpt>
      <trkpt lat="42.6763470" lon="-1.9009440">
        <ele>438.2</ele>
        <time>2020-03-28T19:11:16Z</time>
      </trkpt>
      <trkpt lat="42.6762580" lon="-1.9012010">
        <ele>436.9</ele>
        <time>2020-03-28T19:11:18Z</time>
      </trkpt>
      <trkpt lat="42.6760870" lon="-1.9016900">
        <ele>434.5</ele>
        <time>2020-03-28T19:11:20Z</time>
      </trkpt>
      <trkpt lat="42.6759960" lon="-1.9019520">
        <ele>433.2</ele>
        <time>2020-03-28T19:11:22Z</time>
      </trkpt>
      <trkpt lat="42.6759040" lon="-1.9022170">
        <ele>431.9</ele>
        <time>2020-03-28T19:11:24Z</time>
      </trkpt>
      <trkpt lat="42.6757200" lon="-1.9027500">
        <ele>429.2</ele>
        <time>2020-03-28T19:11:26Z</time>
      </trkpt>
      <trkpt lat="42.6756310" lon="-1.9030150">
        <ele>427.9</ele>
        <time>2020-03-28T19:11:28Z</time>
      </trkpt>
      <trkpt lat="42.6754680" lon="-1.9034620">
        <ele>425.7</ele>
        <time>2020-03-28T19:11:30Z</time>
      </trkpt>
      <trkpt lat="42.6753070" lon="-1.9038250">
        <ele>424.3</ele>
        <time>2020-03-28T19:11:32Z</time>
      </trkpt>
      <trkpt lat="42.6751820" lon="-1.9040480">
        <ele>423.1</ele>
        <time>2020-03-28T19:11:34Z</time>
      </trkpt>
      <trkpt lat="42.6750620" lon="-1.9042610">
        <ele>422.0</ele>
        <time>2020-03-28T19:11:36Z</time>
      </trkpt>
      <trkpt lat="42.6748190" lon="-1.9046870">
        <ele>419.5</ele>
        <time>2020-03-28T19:11:38Z</time>
      </trkpt>
      <trkpt lat="42.6746960" lon="-1.9048680">
        <ele>418.4</ele>
        <time>2020-03-28T19:11:40Z</time>
      </trkpt>
      <trkpt lat="42.6745760" lon="-1.9050450">
        <ele>417.6</ele>
        <time>2020-03-28T19:11:42Z</time>
      </trkpt>
      <trkpt lat="42.6743350" lon="-1.9054000">
        <ele>415.5</ele>
        <time>2020-03-28T19:11:44Z</time>
      </trkpt>
      <trkpt lat="42.6741860" lon="-1.9056210">
        <ele>414.2</ele>
        <time>2020-03-28T19:11:46Z</time>
      </trkpt>
      <trkpt lat="42.6740670" lon="-1.9058010">
        <ele>413.2</ele>
        <time>2020-03-28T19:11:48Z</time>
      </trkpt>
      <trkpt lat="42.6738670" lon="-1.9061290">
        <ele>411.4</ele>
        <time>2020-03-28T19:11:50Z</time>
      </trkpt>
      <trkpt lat="42.6737670" lon="-1.9063410">
        <ele>410.4</ele>
        <time>2020-03-28T19:11:52Z</time>
      </trkpt>
      <trkpt lat="42.6735930" lon="-1.9067230">
        <ele>408.6</ele>
        <time>2020-03-28T19:11:54Z</time>
      </trkpt>
      <trkpt lat="42.6735060" lon="-1.9069540">
        <ele>407.3</ele>
        <time>2020-03-28T19:11:56Z</time>
      </trkpt>
      <trkpt lat="42.6733700" lon="-1.9073580">
        <ele>405.5</ele>
        <time>2020-03-28T19:11:58Z</time>
      </trkpt>
      <trkpt lat="42.6733090" lon="-1.9076140">
        <ele>404.3</ele>
        <time>2020-03-28T19:12:00Z</time>
      </trkpt>
      <trkpt lat="42.6732020" lon="-1.9080760">
        <ele>402.6</ele>
        <time>2020-03-28T19:12:02Z</time>
      </trkpt>
      <trkpt lat="42.6731300" lon="-1.9084780">
        <ele>401.5</ele>
        <time>2020-03-28T19:12:04Z</time>
      </trkpt>
      <trkpt lat="42.6730800" lon="-1.9088430">
        <ele>400.4</ele>
        <time>2020-03-28T19:12:06Z</time>
      </trkpt>
      <trkpt lat="42.6730640" lon="-1.9091510">
        <ele>398.7</ele>
        <time>2020-03-28T19:12:08Z</time>
      </trkpt>
      <trkpt lat="42.6730470" lon="-1.9097050">
        <ele>395.3</ele>
        <time>2020-03-28T19:12:10Z</time>
      </trkpt>
      <trkpt lat="42.6730850" lon="-1.9101440">
        <ele>392.1</ele>
        <time>2020-03-28T19:12:12Z</time>
      </trkpt>
      <trkpt lat="42.6731590" lon="-1.9105940">
        <ele>387.5</ele>
        <time>2020-03-28T19:12:14Z</time>
      </trkpt>
      <trkpt lat="42.6732270" lon="-1.9110160">
        <ele>383.1</ele>
        <time>2020-03-28T19:12:16Z</time>
      </trkpt>
      <trkpt lat="42.6733120" lon="-1.9114010">
        <ele>380.9</ele>
        <time>2020-03-28T19:12:18Z</time>
      </trkpt>
      <trkpt lat="42.6733900" lon="-1.9117100">
        <ele>379.3</ele>
        <time>2020-03-28T19:12:20Z</time>
      </trkpt>
      <trkpt lat="42.6735190" lon="-1.9122210">
        <ele>377.2</ele>
        <time>2020-03-28T19:12:22Z</time>
      </trkpt>
      <trkpt lat="42.6736470" lon="-1.9127220">
        <ele>375.4</ele>
        <time>2020-03-28T19:12:24Z</time>
      </trkpt>
      <trkpt lat="42.6737340" lon="-1.9129940">
        <ele>374.5</ele>
        <time>2020-03-28T19:12:26Z</time>
      </trkpt>
      <trkpt lat="42.6738150" lon="-1.9132480">
        <ele>373.8</ele>
        <time>2020-03-28T19:12:28Z</time>
      </trkpt>
      <trkpt lat="42.6739550" lon="-1.9136860">
        <ele>373.1</ele>
        <time>2020-03-28T19:12:30Z</time>
      </trkpt>
      <trkpt lat="42.6740230" lon="-1.9139010">
        <ele>372.8</ele>
        <time>2020-03-28T19:12:32Z</time>
      </trkpt>
      <trkpt lat="42.6741530" lon="-1.9143060">
        <ele>372.3</ele>
        <time>2020-03-28T19:12:34Z</time>
      </trkpt>
      <trkpt lat="42.6742120" lon="-1.9144910">
        <ele>372.2</ele>
        <time>2020-03-28T19:12:36Z</time>
      </trkpt>
      <trkpt lat="42.6742680" lon="-1.9146660">
        <ele>372.2</ele>
        <time>2020-03-28T19:12:38Z</time>
      </trkpt>
      <trkpt lat="42.6743210" lon="-1.9148330">
        <ele>372.3</ele>
        <time>2020-03-28T19:12:40Z</time>
      </trkpt>
      <trkpt lat="42.6744400" lon="-1.9152020">
        <ele>372.1</ele>
        <time>2020-03-28T19:12:42Z</time>
      </trkpt>
      <trkpt lat="42.6744910" lon="-1.9153620">
        <ele>371.9</ele>
        <time>2020-03-28T19:12:44Z</time>
      </trkpt>
      <trkpt lat="42.6745960" lon="-1.9156910">
        <ele>371.4</ele>
        <time>2020-03-28T19:12:46Z</time>
      </trkpt>
      <trkpt lat="42.6746480" lon="-1.9158460">
        <ele>371.3</ele>
        <time>2020-03-28T19:12:48Z</time>
      </trkpt>
      <trkpt lat="42.6747330" lon="-1.9161030">
        <ele>371.2</ele>
        <time>2020-03-28T19:12:50Z</time>
      </trkpt>
      <trkpt lat="42.6747830" lon="-1.9162530">
        <ele>371.2</ele>
        <time>2020-03-28T19:12:52Z</time>
      </trkpt>
      <trkpt lat="42.6748290" lon="-1.9163940">
        <ele>371.2</ele>
        <time>2020-03-28T19:12:54Z</time>
      </trkpt>
      <trkpt lat="42.6748750" lon="-1.9165310">
        <ele>371.3</ele>
        <time>2020-03-28T19:12:56Z</time>
      </trkpt>
      <trkpt lat="42.6749180" lon="-1.9166610">
        <ele>371.4</ele>
        <time>2020-03-28T19:12:58Z</time>
      </trkpt>
      <trkpt lat="42.6749600" lon="-1.9167870">
        <ele>371.6</ele>
        <time>2020-03-28T19:13:00Z</time>
      </trkpt>
      <trkpt lat="42.6750890" lon="-1.9171780">
        <ele>372.1</ele>
        <time>2020-03-28T19:13:02Z</time>
      </trkpt>
      <trkpt lat="42.6751280" lon="-1.9172940">
        <ele>372.1</ele>
        <time>2020-03-28T19:13:04Z</time>
      </trkpt>
      <trkpt lat="42.6751650" lon="-1.9174080">
        <ele>372.1</ele>
        <time>2020-03-28T19:13:06Z</time>
      </trkpt>
      <trkpt lat="42.6752030" lon="-1.9175210">
        <ele>372.1</ele>
        <time>2020-03-28T19:13:08Z</time>
      </trkpt>
      <trkpt lat="42.6752400" lon="-1.9176330">
        <ele>372.1</ele>
        <time>2020-03-28T19:13:10Z</time>
      </trkpt>
      <trkpt lat="42.6752770" lon="-1.9177450">
        <ele>372.1</ele>
        <time>2020-03-28T19:13:12Z</time>
      </trkpt>
      <trkpt lat="42.6754040" lon="-1.9181270">
        <ele>372.4</ele>
        <time>2020-03-28T19:13:14Z</time>
      </trkpt>
      <trkpt lat="42.6754410" lon="-1.9182390">
        <ele>372.6</ele>
        <time>2020-03-28T19:13:16Z</time>
      </trkpt>
      <trkpt lat="42.6754780" lon="-1.9183500">
        <ele>372.8</ele>
        <time>2020-03-28T19:13:18Z</time>
      </trkpt>
      <trkpt lat="42.6755150" lon="-1.9184620">
        <ele>372.9</ele>
        <time>2020-03-28T19:13:20Z</time>
      </trkpt>
      <trkpt lat="42.6755520" lon="-1.9185730">
        <ele>373.0</ele>
        <time>2020-03-28T19:13:22Z</time>
      </trkpt>
      <trkpt lat="42.6755890" lon="-1.9186850">
        <ele>373.1</ele>
        <time>2020-03-28T19:13:24Z</time>
      </trkpt>
      <trkpt lat="42.6756260" lon="-1.9187970">
        <ele>373.2</ele>
        <time>2020-03-28T19:13:26Z</time>
      </trkpt>
      <trkpt lat="42.6757530" lon="-1.9191790">
        <ele>373.9</ele>
        <time>2020-03-28T19:13:28Z</time>
      </trkpt>
      <trkpt lat="42.6757900" lon="-1.9192910">
        <ele>374.1</ele>
        <time>2020-03-28T19:13:30Z</time>
      </trkpt>
      <trkpt lat="42.6758270" lon="-1.9194020">
        <ele>374.2</ele>
        <time>2020-03-28T19:13:32Z</time>
      </trkpt>
      <trkpt lat="42.6758640" lon="-1.9195140">
        <ele>374.5</ele>
        <time>2020-03-28T19:13:34Z</time>
      </trkpt>
      <trkpt lat="42.6759010" lon="-1.9196260">
        <ele>374.9</ele>
        <time>2020-03-28T19:13:36Z</time>
      </trkpt>
      <trkpt lat="42.6759380" lon="-1.9197360">
        <ele>375.3</ele>
        <time>2020-03-28T19:13:38Z</time>
      </trkpt>
      <trkpt lat="42.6759750" lon="-1.9198480">
        <ele>375.7</ele>
        <time>2020-03-28T19:13:40Z</time>
      </trkpt>
      <trkpt lat="42.6761000" lon="-1.9202250">
        <ele>377.0</ele>
        <time>2020-03-28T19:13:42Z</time>
      </trkpt>
      <trkpt lat="42.6761330" lon="-1.9203260">
        <ele>377.4</ele>
        <time>2020-03-28T19:13:44Z</time>
      </trkpt>
      <trkpt lat="42.6761650" lon="-1.9204190">
        <ele>377.8</ele>
        <time>2020-03-28T19:13:46Z</time>
      </trkpt>
      <trkpt lat="42.6761940" lon="-1.9205070">
        <ele>378.2</ele>
        <time>2020-03-28T19:13:48Z</time>
      </trkpt>
      <trkpt lat="42.6762210" lon="-1.9205900">
        <ele>378.5</ele>
        <time>2020-03-28T19:13:50Z</time>
      </trkpt>
      <trkpt lat="42.6762480" lon="-1.9206690">
        <ele>378.9</ele>
        <time>2020-03-28T19:13:52Z</time>
      </trkpt>
      <trkpt lat="42.6762730" lon="-1.9207450">
        <ele>379.2</ele>
        <time>2020-03-28T19:13:54Z</time>
      </trkpt>
      <trkpt lat="42.6762970" lon="-1.9208170">
        <ele>379.5</ele>
        <time>2020-03-28T19:13:56Z</time>
      </trkpt>
      <trkpt lat="42.6763200" lon="-1.9208880">
        <ele>379.8</ele>
        <time>2020-03-28T19:13:58Z</time>
      </trkpt>
      <trkpt lat="42.6764330" lon="-1.9212260">
        <ele>381.0</ele>
        <time>2020-03-28T19:14:00Z</time>
      </trkpt>
      <trkpt lat="42.6764550" lon="-1.9212950">
        <ele>381.2</ele>
        <time>2020-03-28T19:14:02Z</time>
      </trkpt>
      <trkpt lat="42.6764780" lon="-1.9213620">
        <ele>381.5</ele>
        <time>2020-03-28T19:14:04Z</time>
      </trkpt>
      <trkpt lat="42.6765000" lon="-1.9214290">
        <ele>381.7</ele>
        <time>2020-03-28T19:14:06Z</time>
      </trkpt>
      <trkpt lat="42.6765220" lon="-1.9214950">
        <ele>381.9</ele>
        <time>2020-03-28T19:14:08Z</time>
      </trkpt>
      <trkpt lat="42.6765430" lon="-1.9215590">
        <ele>382.1</ele>
        <time>2020-03-28T19:14:10Z</time>
      </trkpt>
      <trkpt lat="42.6765650" lon="-1.9216240">
        <ele>382.4</ele>
        <time>2020-03-28T19:14:12Z</time>
      </trkpt>
      <trkpt lat="42.6765860" lon="-1.9216890">
        <ele>382.6</ele>
        <time>2020-03-28T19:14:14Z</time>
      </trkpt>
      <trkpt lat="42.6766070" lon="-1.9217520">
        <ele>382.8</ele>
        <time>2020-03-28T19:14:16Z</time>
      </trkpt>
      <trkpt lat="42.6766280" lon="-1.9218150">
        <ele>382.9</ele>
        <time>2020-03-28T19:14:18Z</time>
      </trkpt>
      <trkpt lat="42.6766490" lon="-1.9218780">
        <ele>383.1</ele>
        <time>2020-03-28T19:14:20Z</time>
      </trkpt>
      <trkpt lat="42.6767610" lon="-1.9222100">
        <ele>383.9</ele>
        <time>2020-03-28T19:14:22Z</time>
      </trkpt>
      <trkpt lat="42.6767930" lon="-1.9222820">
        <ele>384.0</ele>
        <time>2020-03-28T19:14:24Z</time>
      </trkpt>
      <trkpt lat="42.6768290" lon="-1.9223630">
        <ele>384.1</ele>
        <time>2020-03-28T19:14:26Z</time>
      </trkpt>
      <trkpt lat="42.6768670" lon="-1.9224480">
        <ele>384.3</ele>
        <time>2020-03-28T19:14:28Z</time>
      </trkpt>
      <trkpt lat="42.6769060" lon="-1.9225370">
        <ele>384.4</ele>
        <time>2020-03-28T19:14:30Z</time>
      </trkpt>
      <trkpt lat="42.6770140" lon="-1.9227780">
        <ele>384.8</ele>
        <time>2020-03-28T19:14:32Z</time>
      </trkpt>
      <trkpt lat="42.6770590" lon="-1.9228650">
        <ele>385.1</ele>
        <time>2020-03-28T19:14:34Z</time>
      </trkpt>
      <trkpt lat="42.6771040" lon="-1.9229530">
        <ele>385.3</ele>
        <time>2020-03-28T19:14:36Z</time>
      </trkpt>
      <trkpt lat="42.6771500" lon="-1.9230400">
        <ele>385.7</ele>
        <time>2020-03-28T19:14:38Z</time>
      </trkpt>
      <trkpt lat="42.6772640" lon="-1.9232180">
        <ele>386.3</ele>
        <time>2020-03-28T19:14:40Z</time>
      </trkpt>
      <trkpt lat="42.6773740" lon="-1.9233170">
        <ele>385.9</ele>
        <time>2020-03-28T19:14:42Z</time>
      </trkpt>
      <trkpt lat="42.6774370" lon="-1.9234300">
        <ele>386.5</ele>
        <time>2020-03-28T19:14:44Z</time>
      </trkpt>
      <trkpt lat="42.6774730" lon="-1.9235550">
        <ele>385.9</ele>
        <time>2020-03-28T19:14:46Z</time>
      </trkpt>
      <trkpt lat="42.6775250" lon="-1.9236570">
        <ele>386.0</ele>
        <time>2020-03-28T19:14:48Z</time>
      </trkpt>
      <trkpt lat="42.6776230" lon="-1.9238160">
        <ele>385.9</ele>
        <time>2020-03-28T19:14:50Z</time>
      </trkpt>
      <trkpt lat="42.6776980" lon="-1.9239260">
        <ele>385.7</ele>
        <time>2020-03-28T19:14:52Z</time>
      </trkpt>
      <trkpt lat="42.6777800" lon="-1.9240440">
        <ele>385.1</ele>
        <time>2020-03-28T19:14:54Z</time>
      </trkpt>
      <trkpt lat="42.6779670" lon="-1.9243160">
        <ele>383.6</ele>
        <time>2020-03-28T19:14:56Z</time>
      </trkpt>
      <trkpt lat="42.6780930" lon="-1.9244960">
        <ele>383.2</ele>
        <time>2020-03-28T19:14:58Z</time>
      </trkpt>
      <trkpt lat="42.6781890" lon="-1.9246250">
        <ele>383.0</ele>
        <time>2020-03-28T19:15:00Z</time>
      </trkpt>
      <trkpt lat="42.6783510" lon="-1.9248500">
        <ele>382.3</ele>
        <time>2020-03-28T19:15:02Z</time>
      </trkpt>
      <trkpt lat="42.6784360" lon="-1.9249920">
        <ele>382.0</ele>
        <time>2020-03-28T19:15:04Z</time>
      </trkpt>
      <trkpt lat="42.6785810" lon="-1.9252390">
        <ele>381.0</ele>
        <time>2020-03-28T19:15:06Z</time>
      </trkpt>
      <trkpt lat="42.6786550" lon="-1.9253870">
        <ele>380.3</ele>
        <time>2020-03-28T19:15:08Z</time>
      </trkpt>
      <trkpt lat="42.6787730" lon="-1.9256290">
        <ele>379.6</ele>
        <time>2020-03-28T19:15:10Z</time>
      </trkpt>
      <trkpt lat="42.6788380" lon="-1.9257810">
        <ele>379.5</ele>
        <time>2020-03-28T19:15:12Z</time>
      </trkpt>
      <trkpt lat="42.6789330" lon="-1.9260100">
        <ele>379.6</ele>
        <time>2020-03-28T19:15:14Z</time>
      </trkpt>
      <trkpt lat="42.6790130" lon="-1.9262260">
        <ele>380.1</ele>
        <time>2020-03-28T19:15:16Z</time>
      </trkpt>
      <trkpt lat="42.6790710" lon="-1.9264220">
        <ele>380.8</ele>
        <time>2020-03-28T19:15:18Z</time>
      </trkpt>
      <trkpt lat="42.6791190" lon="-1.9266100">
        <ele>381.6</ele>
        <time>2020-03-28T19:15:20Z</time>
      </trkpt>
      <trkpt lat="42.6791590" lon="-1.9268090">
        <ele>382.3</ele>
        <time>2020-03-28T19:15:22Z</time>
      </trkpt>
      <trkpt lat="42.6791920" lon="-1.9270120">
        <ele>383.1</ele>
        <time>2020-03-28T19:15:24Z</time>
      </trkpt>
      <trkpt lat="42.6792090" lon="-1.9271450">
        <ele>383.4</ele>
        <time>2020-03-28T19:15:26Z</time>
      </trkpt>
      <trkpt lat="42.6792290" lon="-1.9273350">
        <ele>383.9</ele>
        <time>2020-03-28T19:15:28Z</time>
      </trkpt>
      <trkpt lat="42.6792410" lon="-1.9275140">
        <ele>384.3</ele>
        <time>2020-03-28T19:15:30Z</time>
      </trkpt>
      <trkpt lat="42.6792470" lon="-1.9276260">
        <ele>384.4</ele>
        <time>2020-03-28T19:15:32Z</time>
      </trkpt>
      <trkpt lat="42.6792510" lon="-1.9278060">
        <ele>384.5</ele>
        <time>2020-03-28T19:15:34Z</time>
      </trkpt>
      <trkpt lat="42.6792480" lon="-1.9279080">
        <ele>384.6</ele>
        <time>2020-03-28T19:15:36Z</time>
      </trkpt>
      <trkpt lat="42.6792430" lon="-1.9280900">
        <ele>384.8</ele>
        <time>2020-03-28T19:15:38Z</time>
      </trkpt>
      <trkpt lat="42.6792350" lon="-1.9281850">
        <ele>384.9</ele>
        <time>2020-03-28T19:15:40Z</time>
      </trkpt>
      <trkpt lat="42.6792270" lon="-1.9282820">
        <ele>385.1</ele>
        <time>2020-03-28T19:15:42Z</time>
      </trkpt>
      <trkpt lat="42.6792060" lon="-1.9284850">
        <ele>385.7</ele>
        <time>2020-03-28T19:15:44Z</time>
      </trkpt>
      <trkpt lat="42.6791900" lon="-1.9285830">
        <ele>386.0</ele>
        <time>2020-03-28T19:15:46Z</time>
      </trkpt>
      <trkpt lat="42.6791730" lon="-1.9286830">
        <ele>386.3</ele>
        <time>2020-03-28T19:15:48Z</time>
      </trkpt>
      <trkpt lat="42.6791570" lon="-1.9287810">
        <ele>386.5</ele>
        <time>2020-03-28T19:15:50Z</time>
      </trkpt>
      <trkpt lat="42.6791160" lon="-1.9290240">
        <ele>387.1</ele>
        <time>2020-03-28T19:15:52Z</time>
      </trkpt>
      <trkpt lat="42.6790970" lon="-1.9291210">
        <ele>387.3</ele>
        <time>2020-03-28T19:15:54Z</time>
      </trkpt>
      <trkpt lat="42.6790780" lon="-1.9292180">
        <ele>387.5</ele>
        <time>2020-03-28T19:15:56Z</time>
      </trkpt>
      <trkpt lat="42.6790400" lon="-1.9293920">
        <ele>388.0</ele>
        <time>2020-03-28T19:15:58Z</time>
      </trkpt>
      <trkpt lat="42.6790170" lon="-1.9294880">
        <ele>388.4</ele>
        <time>2020-03-28T19:16:00Z</time>
      </trkpt>
      <trkpt lat="42.6789950" lon="-1.9295840">
        <ele>388.8</ele>
        <time>2020-03-28T19:16:02Z</time>
      </trkpt>
      <trkpt lat="42.6789420" lon="-1.9298100">
        <ele>389.6</ele>
        <time>2020-03-28T19:16:04Z</time>
      </trkpt>
      <trkpt lat="42.6789210" lon="-1.9299090">
        <ele>390.0</ele>
        <time>2020-03-28T19:16:06Z</time>
      </trkpt>
      <trkpt lat="42.6788870" lon="-1.9300800">
        <ele>390.6</ele>
        <time>2020-03-28T19:16:08Z</time>
      </trkpt>
      <trkpt lat="42.6788700" lon="-1.9301830">
        <ele>390.6</ele>
        <time>2020-03-28T19:16:10Z</time>
      </trkpt>
      <trkpt lat="42.6788530" lon="-1.9302850">
        <ele>390.7</ele>
        <time>2020-03-28T19:16:12Z</time>
      </trkpt>
      <trkpt lat="42.6788360" lon="-1.9303890">
        <ele>391.1</ele>
        <time>2020-03-28T19:16:14Z</time>
      </trkpt>
      <trkpt lat="42.6787940" lon="-1.9306430">
        <ele>391.0</ele>
        <time>2020-03-28T19:16:16Z</time>
      </trkpt>
      <trkpt lat="42.6787810" lon="-1.9307430">
        <ele>390.8</ele>
        <time>2020-03-28T19:16:18Z</time>
      </trkpt>
      <trkpt lat="42.6787660" lon="-1.9309030">
        <ele>390.1</ele>
        <time>2020-03-28T19:16:20Z</time>
      </trkpt>
      <trkpt lat="42.6787620" lon="-1.9310060">
        <ele>389.8</ele>
        <time>2020-03-28T19:16:22Z</time>
      </trkpt>
      <trkpt lat="42.6787570" lon="-1.9311930">
        <ele>389.3</ele>
        <time>2020-03-28T19:16:24Z</time>
      </trkpt>
      <trkpt lat="42.6787570" lon="-1.9312970">
        <ele>388.5</ele>
        <time>2020-03-28T19:16:26Z</time>
      </trkpt>
      <trkpt lat="42.6787570" lon="-1.9314040">
        <ele>387.8</ele>
        <time>2020-03-28T19:16:28Z</time>
      </trkpt>
      <trkpt lat="42.6787620" lon="-1.9316230">
        <ele>386.6</ele>
        <time>2020-03-28T19:16:30Z</time>
      </trkpt>
      <trkpt lat="42.6787700" lon="-1.9317240">
        <ele>386.3</ele>
        <time>2020-03-28T19:16:32Z</time>
      </trkpt>
      <trkpt lat="42.6787770" lon="-1.9318180">
        <ele>385.9</ele>
        <time>2020-03-28T19:16:34Z</time>
      </trkpt>
      <trkpt lat="42.6787920" lon="-1.9319950">
        <ele>385.5</ele>
        <time>2020-03-28T19:16:36Z</time>
      </trkpt>
      <trkpt lat="42.6787940" lon="-1.9320170">
        <ele>385.5</ele>
        <time>2020-03-28T19:16:38Z</time>
      </trkpt>
      <trkpt lat="42.6787940" lon="-1.9320170">
        <ele>385.5</ele>
        <time>2020-03-28T19:16:40Z</time>
      </trkpt>
      <trkpt lat="42.6787940" lon="-1.9320170">
        <ele>385.5</ele>
        <time>2020-03-28T19:16:42Z</time>
      </trkpt>
      <trkpt lat="42.6787940" lon="-1.9320170">
        <ele>385.5</ele>
        <time>2020-03-28T19:16:44Z</time>
      </trkpt>
      <trkpt lat="42.6787940" lon="-1.9320170">
        <ele>385.5</ele>
        <time>2020-03-28T19:16:46Z</time>
      </trkpt>
      <trkpt lat="42.6787940" lon="-1.9320170">
        <ele>385.5</ele>
        <time>2020-03-28T19:16:48Z</time>
      </trkpt>
      <trkpt lat="42.6787940" lon="-1.9320170">
        <ele>385.5</ele>
        <time>2020-03-28T19:16:50Z</time>
      </trkpt>
      <trkpt lat="42.6787940" lon="-1.9320170">
        <ele>385.5</ele>
        <time>2020-03-28T19:16:52Z</time>
      </trkpt>
      <trkpt lat="42.6787940" lon="-1.9320170">
        <ele>385.5</ele>
        <time>2020-03-28T19:16:54Z</time>
      </trkpt>
      <trkpt lat="42.6787940" lon="-1.9320170">
        <ele>385.5</ele>
        <time>2020-03-28T19:16:56Z</time>
      </trkpt>
      <trkpt lat="42.6787940" lon="-1.9320170">
        <ele>385.5</ele>
        <time>2020-03-28T19:16:58Z</time>
      </trkpt>
      <trkpt lat="42.6787940" lon="-1.9320170">
        <ele>385.5</ele>
        <time>2020-03-28T19:17:00Z</time>
      </trkpt>
      <trkpt lat="42.6787940" lon="-1.9320170">
        <ele>385.5</ele>
        <time>2020-03-28T19:17:02Z</time>
      </trkpt>
      <trkpt lat="42.6787940" lon="-1.9320170">
        <ele>385.5</ele>
        <time>2020-03-28T19:17:04Z</time>
      </trkpt>
      <trkpt lat="42.6787940" lon="-1.9320170">
        <ele>385.5</ele>
        <time>2020-03-28T19:17:06Z</time>
      </trkpt>
      <trkpt lat="42.6787940" lon="-1.9320170">
        <ele>385.5</ele>
        <time>2020-03-28T19:17:08Z</time>
      </trkpt>
      <trkpt lat="42.6787940" lon="-1.9320170">
        <ele>385.5</ele>
        <time>2020-03-28T19:17:10Z</time>
      </trkpt>
      <trkpt lat="42.6787940" lon="-1.9320170">
        <ele>385.5</ele>
        <time>2020-03-28T19:17:12Z</time>
      </trkpt>
      <trkpt lat="42.6787940" lon="-1.9320170">
        <ele>385.5</ele>
        <time>2020-03-28T19:17:14Z</time>
      </trkpt>
      <trkpt lat="42.6787940" lon="-1.9320170">
        <ele>385.5</ele>
        <time>2020-03-28T19:17:16Z</time>
      </trkpt>
      <trkpt lat="42.6787940" lon="-1.9320170">
        <ele>385.5</ele>
        <time>2020-03-28T19:17:18Z</time>
      </trkpt>
      <trkpt lat="42.6787940" lon="-1.9320170">
        <ele>385.5</ele>
        <time>2020-03-28T19:17:20Z</time>
      </trkpt>
      <trkpt lat="42.6787940" lon="-1.9320170">
        <ele>385.5</ele>
        <time>2020-03-28T19:17:22Z</time>
      </trkpt>
      <trkpt lat="42.6787940" lon="-1.9320170">
        <ele>385.5</ele>
        <time>2020-03-28T19:17:24Z</time>
      </trkpt>
      <trkpt lat="42.6787940" lon="-1.9320170">
        <ele>385.5</ele>
        <time>2020-03-28T19:17:26Z</time>
      </trkpt>
      <trkpt lat="42.6787940" lon="-1.9320170">
        <ele>385.5</ele>
        <time>2020-03-28T19:17:28Z</time>
      </trkpt>
      <trkpt lat="42.6787940" lon="-1.9320170">
        <ele>385.5</ele>
        <time>2020-03-28T19:17:30Z</time>
      </trkpt>
      <trkpt lat="42.6787940" lon="-1.9320170">
        <ele>385.5</ele>
        <time>2020-03-28T19:17:32Z</time>
      </trkpt>
      <trkpt lat="42.6787940" lon="-1.9320170">
        <ele>385.5</ele>
        <time>2020-03-28T19:17:34Z</time>
      </trkpt>
      <trkpt lat="42.6787940" lon="-1.9320170">
        <ele>385.5</ele>
        <time>2020-03-28T19:17:36Z</time>
      </trkpt>
      <trkpt lat="42.6787940" lon="-1.9320170">
        <ele>385.5</ele>
        <time>2020-03-28T19:17:38Z</time>
      </trkpt>
      <trkpt lat="42.6787940" lon="-1.9320170">
        <ele>385.5</ele>
        <time>2020-03-28T19:17:40Z</time>
      </trkpt>
      <trkpt lat="42.6787940" lon="-1.9320170">
        <ele>385.5</ele>
        <time>2020-03-28T19:17:42Z</time>
      </trkpt>
      <trkpt lat="42.6787940" lon="-1.9320170">
        <ele>385.5</ele>
        <time>2020-03-28T19:17:44Z</time>
      </trkpt>
      <trkpt lat="42.6787940" lon="-1.9320170">
        <ele>385.5</ele>
        <time>2020-03-28T19:17:46Z</time>
      </trkpt>
      <trkpt lat="42.6787940" lon="-1.9320170">
        <ele>385.5</ele>
        <time>2020-03-28T19:17:48Z</time>
      </trkpt>
      <trkpt lat="42.6787940" lon="-1.9320170">
        <ele>385.5</ele>
        <time>2020-03-28T19:17:50Z</time>
      </trkpt>
      <trkpt lat="42.6787940" lon="-1.9320170">
        <ele>385.5</ele>
        <time>2020-03-28T19:17:52Z</time>
      </trkpt>
      <trkpt lat="42.6787940" lon="-1.9320170">
        <ele>385.5</ele>
        <time>2020-03-28T19:17:54Z</time>
      </trkpt>
      <trkpt lat="42.6787940" lon="-1.9320170">
        <ele>385.5</ele>
        <time>2020-03-28T19:17:56Z</time>
      </trkpt>
      <trkpt lat="42.6787940" lon="-1.9320170">
        <ele>385.5</ele>
        <time>2020-03-28T19:17:58Z</time>
      </trkpt>
      <trkpt lat="42.6787940" lon="-1.9320170">
        <ele>385.5</ele>
        <time>2020-03-28T19:18:00Z</time>
      </trkpt>
      <trkpt lat="42.6787940" lon="-1.9320170">
        <ele>385.5</ele>
        <time>2020-03-28T19:18:02Z</time>
      </trkpt>
      <trkpt lat="42.6787940" lon="-1.9320170">
        <ele>385.5</ele>
        <time>2020-03-28T19:18:04Z</time>
      </trkpt>
      <trkpt lat="42.6787940" lon="-1.9320170">
        <ele>385.5</ele>
        <time>2020-03-28T19:18:06Z</time>
      </trkpt>
      <trkpt lat="42.6787940" lon="-1.9320170">
        <ele>385.5</ele>
        <time>2020-03-28T19:18:08Z</time>
      </trkpt>
      <trkpt lat="42.6787940" lon="-1.9320170">
        <ele>385.5</ele>
        <time>2020-03-28T19:18:10Z</time>
      </trkpt>
      <trkpt lat="42.6787940" lon="-1.9320170">
        <ele>385.5</ele>
        <time>2020-03-28T19:18:12Z</time>
      </trkpt>
      <trkpt lat="42.6787940" lon="-1.9320170">
        <ele>385.5</ele>
        <time>2020-03-28T19:18:14Z</time>
      </trkpt>
      <trkpt lat="42.6787940" lon="-1.9320170">
        <ele>385.5</ele>
        <time>2020-03-28T19:18:16Z</time>
      </trkpt>
      <trkpt lat="42.6787940" lon="-1.9320170">
        <ele>385.5</ele>
        <time>2020-03-28T19:18:18Z</time>
      </trkpt>
      <trkpt lat="42.6787940" lon="-1.9320170">
        <ele>385.5</ele>
        <time>2020-03-28T19:18:20Z</time>
      </trkpt>
      <trkpt lat="42.6787940" lon="-1.9320170">
        <ele>385.5</ele>
        <time>2020-03-28T19:18:22Z</time>
      </trkpt>
      <trkpt lat="42.6787940" lon="-1.9320170">
        <ele>385.5</ele>
        <time>2020-03-28T19:18:24Z</time>
      </trkpt>
      <trkpt lat="42.6787940" lon="-1.9320170">
        <ele>385.5</ele>
        <time>2020-03-28T19:18:26Z</time>
      </trkpt>
      <trkpt lat="42.6787940" lon="-1.9320170">
        <ele>385.5</ele>
        <time>2020-03-28T19:18:28Z</time>
      </trkpt>
      <trkpt lat="42.6787940" lon="-1.9320170">
        <ele>385.5</ele>
        <time>2020-03-28T19:18:30Z</time>
      </trkpt>
      <trkpt lat="42.6787940" lon="-1.9320170">
        <ele>385.5</ele>
        <time>2020-03-28T19:18:32Z</time>
      </trkpt>
      <trkpt lat="42.6787940" lon="-1.9320170">
        <ele>385.5</ele>
        <time>2020-03-28T19:18:34Z</time>
      </trkpt>
      <trkpt lat="42.6787940" lon="-1.9320170">
        <ele>385.5</ele>
        <time>2020-03-28T19:18:36Z</time>
      </trkpt>
      <trkpt lat="42.6787940" lon="-1.9320170">
        <ele>385.5</ele>
        <time>2020-03-28T19:18:38Z</time>
      </trkpt>
      <trkpt lat="42.6787940" lon="-1.9320170">
        <ele>385.5</ele>
        <time>2020-03-28T19:18:40Z</time>
      </trkpt>
      <trkpt lat="42.6787940" lon="-1.9320170">
        <ele>385.5</ele>
        <time>2020-03-28T19:18:42Z</time>
      </trkpt>
      <trkpt lat="42.6787940" lon="-1.9320170">
        <ele>385.5</ele>
        <time>2020-03-28T19:18:44Z</time>
      </trkpt>
      <trkpt lat="42.6787940" lon="-1.9320170">
        <ele>385.5</ele>
        <time>2020-03-28T19:18:46Z</time>
      </trkpt>
      <trkpt lat="42.6787940" lon="-1.9320170">
        <ele>385.5</ele>
        <time>2020-03-28T19:18:48Z</time>
      </trkpt>
      <trkpt lat="42.6787940" lon="-1.9320170">
        <ele>385.5</ele>
        <time>2020-03-28T19:18:50Z</time>
      </trkpt>
      <trkpt lat="42.6787940" lon="-1.9320170">
        <ele>385.5</ele>
        <time>2020-03-28T19:18:52Z</time>
      </trkpt>
      <trkpt lat="42.6787940" lon="-1.9320170">
        <ele>385.5</ele>
        <time>2020-03-28T19:18:54Z</time>
      </trkpt>
      <trkpt lat="42.6787940" lon="-1.9320170">
        <ele>385.5</ele>
        <time>2020-03-28T19:18:56Z</time>
      </trkpt>
      <trkpt lat="42.6787940" lon="-1.9320170">
        <ele>385.5</ele>
        <time>2020-03-28T19:18:58Z</time>
      </trkpt>
      <trkpt lat="42.6787940" lon="-1.9320170">
        <ele>385.5</ele>
        <time>2020-03-28T19:19:00Z</time>
      </trkpt>
      <trkpt lat="42.6787940" lon="-1.9320170">
        <ele>385.5</ele>
        <time>2020-03-28T19:19:02Z</time>
      </trkpt>
      <trkpt lat="42.6787940" lon="-1.9320170">
        <ele>385.5</ele>
        <time>2020-03-28T19:19:04Z</time>
      </trkpt>
      <trkpt lat="42.6787940" lon="-1.9320170">
        <ele>385.5</ele>
        <time>2020-03-28T19:19:06Z</time>
      </trkpt>
      <trkpt lat="42.6787940" lon="-1.9320170">
        <ele>385.5</ele>
        <time>2020-03-28T19:19:08Z</time>
      </trkpt>
      <trkpt lat="42.6787960" lon="-1.9320380">
        <ele>385.5</ele>
        <time>2020-03-28T19:19:10Z</time>
      </trkpt>
      <trkpt lat="42.6788000" lon="-1.9320980">
        <ele>385.4</ele>
        <time>2020-03-28T19:19:12Z</time>
      </trkpt>
      <trkpt lat="42.6788060" lon="-1.9321790">
        <ele>385.3</ele>
        <time>2020-03-28T19:19:14Z</time>
      </trkpt>
      <trkpt lat="42.6788140" lon="-1.9322740">
        <ele>385.2</ele>
        <time>2020-03-28T19:19:16Z</time>
      </trkpt>
      <trkpt lat="42.6788310" lon="-1.9325040">
        <ele>385.6</ele>
        <time>2020-03-28T19:19:18Z</time>
      </trkpt>
      <trkpt lat="42.6788370" lon="-1.9325910">
        <ele>386.4</ele>
        <time>2020-03-28T19:19:20Z</time>
      </trkpt>
      <trkpt lat="42.6788420" lon="-1.9326580">
        <ele>386.9</ele>
        <time>2020-03-28T19:19:22Z</time>
      </trkpt>
      <trkpt lat="42.6788460" lon="-1.9327120">
        <ele>387.2</ele>
        <time>2020-03-28T19:19:24Z</time>
      </trkpt>
      <trkpt lat="42.6788490" lon="-1.9327620">
        <ele>387.4</ele>
        <time>2020-03-28T19:19:26Z</time>
      </trkpt>
      <trkpt lat="42.6788540" lon="-1.9328310">
        <ele>387.7</ele>
        <time>2020-03-28T19:19:28Z</time>
      </trkpt>
      <trkpt lat="42.6788590" lon="-1.9329050">
        <ele>387.9</ele>
        <time>2020-03-28T19:19:30Z</time>
      </trkpt>
      <trkpt lat="42.6788640" lon="-1.9329800">
        <ele>388.2</ele>
        <time>2020-03-28T19:19:32Z</time>
      </trkpt>
      <trkpt lat="42.6788840" lon="-1.9332700">
        <ele>389.4</ele>
        <time>2020-03-28T19:19:34Z</time>
      </trkpt>
      <trkpt lat="42.6788860" lon="-1.9333450">
        <ele>389.8</ele>
        <time>2020-03-28T19:19:36Z</time>
      </trkpt>
      <trkpt lat="42.6788880" lon="-1.9334170">
        <ele>390.0</ele>
        <time>2020-03-28T19:19:38Z</time>
      </trkpt>
      <trkpt lat="42.6788900" lon="-1.9335600">
        <ele>390.5</ele>
        <time>2020-03-28T19:19:40Z</time>
      </trkpt>
      <trkpt lat="42.6788890" lon="-1.9336230">
        <ele>390.8</ele>
        <time>2020-03-28T19:19:42Z</time>
      </trkpt>
      <trkpt lat="42.6788870" lon="-1.9336860">
        <ele>391.0</ele>
        <time>2020-03-28T19:19:44Z</time>
      </trkpt>
      <trkpt lat="42.6788860" lon="-1.9337470">
        <ele>391.2</ele>
        <time>2020-03-28T19:19:46Z</time>
      </trkpt>
      <trkpt lat="42.6788820" lon="-1.9338890">
        <ele>391.9</ele>
        <time>2020-03-28T19:19:48Z</time>
      </trkpt>
      <trkpt lat="42.6788780" lon="-1.9339470">
        <ele>392.2</ele>
        <time>2020-03-28T19:19:50Z</time>
      </trkpt>
      <trkpt lat="42.6788750" lon="-1.9340050">
        <ele>392.5</ele>
        <time>2020-03-28T19:19:52Z</time>
      </trkpt>
      <trkpt lat="42.6788710" lon="-1.9340630">
        <ele>392.9</ele>
        <time>2020-03-28T19:19:54Z</time>
      </trkpt>
      <trkpt lat="42.6788680" lon="-1.9341200">
        <ele>393.3</ele>
        <time>2020-03-28T19:19:56Z</time>
      </trkpt>
      <trkpt lat="42.6788640" lon="-1.9341780">
        <ele>393.8</ele>
        <time>2020-03-28T19:19:58Z</time>
      </trkpt>
      <trkpt lat="42.6788600" lon="-1.9342360">
        <ele>394.2</ele>
        <time>2020-03-28T19:20:00Z</time>
      </trkpt>
      <trkpt lat="42.6788570" lon="-1.9342940">
        <ele>394.7</ele>
        <time>2020-03-28T19:20:02Z</time>
      </trkpt>
      <trkpt lat="42.6788530" lon="-1.9343510">
        <ele>395.2</ele>
        <time>2020-03-28T19:20:04Z</time>
      </trkpt>
      <trkpt lat="42.6788380" lon="-1.9346050">
        <ele>397.7</ele>
        <time>2020-03-28T19:20:06Z</time>
      </trkpt>
      <trkpt lat="42.6788340" lon="-1.9346680">
        <ele>398.4</ele>
        <time>2020-03-28T19:20:08Z</time>
      </trkpt>
      <trkpt lat="42.6788300" lon="-1.9347250">
        <ele>399.1</ele>
        <time>2020-03-28T19:20:10Z</time>
      </trkpt>
      <trkpt lat="42.6788260" lon="-1.9347840">
        <ele>399.9</ele>
        <time>2020-03-28T19:20:12Z</time>
      </trkpt>
      <trkpt lat="42.6788220" lon="-1.9348420">
        <ele>400.7</ele>
        <time>2020-03-28T19:20:14Z</time>
      </trkpt>
      <trkpt lat="42.6788180" lon="-1.9349010">
        <ele>401.5</ele>
        <time>2020-03-28T19:20:16Z</time>
      </trkpt>
      <trkpt lat="42.6788140" lon="-1.9349600">
        <ele>402.3</ele>
        <time>2020-03-28T19:20:18Z</time>
      </trkpt>
      <trkpt lat="42.6788100" lon="-1.9350190">
        <ele>403.1</ele>
        <time>2020-03-28T19:20:20Z</time>
      </trkpt>
      <trkpt lat="42.6788060" lon="-1.9350780">
        <ele>403.9</ele>
        <time>2020-03-28T19:20:22Z</time>
      </trkpt>
      <trkpt lat="42.6788020" lon="-1.9351370">
        <ele>404.8</ele>
        <time>2020-03-28T19:20:24Z</time>
      </trkpt>
      <trkpt lat="42.6787980" lon="-1.9351960">
        <ele>405.7</ele>
        <time>2020-03-28T19:20:26Z</time>
      </trkpt>
      <trkpt lat="42.6787800" lon="-1.9354620">
        <ele>410.3</ele>
        <time>2020-03-28T19:20:28Z</time>
      </trkpt>
      <trkpt lat="42.6787770" lon="-1.9355180">
        <ele>410.6</ele>
        <time>2020-03-28T19:20:30Z</time>
      </trkpt>
      <trkpt lat="42.6787730" lon="-1.9355740">
        <ele>410.8</ele>
        <time>2020-03-28T19:20:32Z</time>
      </trkpt>
      <trkpt lat="42.6787650" lon="-1.9356930">
        <ele>411.3</ele>
        <time>2020-03-28T19:20:34Z</time>
      </trkpt>
      <trkpt lat="42.6787620" lon="-1.9357490">
        <ele>411.6</ele>
        <time>2020-03-28T19:20:36Z</time>
      </trkpt>
      <trkpt lat="42.6787590" lon="-1.9358070">
        <ele>411.8</ele>
        <time>2020-03-28T19:20:38Z</time>
      </trkpt>
      <trkpt lat="42.6787510" lon="-1.9359340">
        <ele>412.3</ele>
        <time>2020-03-28T19:20:40Z</time>
      </trkpt>
      <trkpt lat="42.6787480" lon="-1.9359900">
        <ele>412.6</ele>
        <time>2020-03-28T19:20:42Z</time>
      </trkpt>
      <trkpt lat="42.6787450" lon="-1.9360450">
        <ele>412.9</ele>
        <time>2020-03-28T19:20:44Z</time>
      </trkpt>
      <trkpt lat="42.6787420" lon="-1.9361010">
        <ele>413.2</ele>
        <time>2020-03-28T19:20:46Z</time>
      </trkpt>
      <trkpt lat="42.6787390" lon="-1.9361570">
        <ele>413.4</ele>
        <time>2020-03-28T19:20:48Z</time>
      </trkpt>
      <trkpt lat="42.6787360" lon="-1.9362120">
        <ele>413.7</ele>
        <time>2020-03-28T19:20:50Z</time>
      </trkpt>
      <trkpt lat="42.6787330" lon="-1.9362680">
        <ele>414.0</ele>
        <time>2020-03-28T19:20:52Z</time>
      </trkpt>
      <trkpt lat="42.6787300" lon="-1.9363230">
        <ele>414.2</ele>
        <time>2020-03-28T19:20:54Z</time>
      </trkpt>
      <trkpt lat="42.6787270" lon="-1.9363780">
        <ele>414.3</ele>
        <time>2020-03-28T19:20:56Z</time>
      </trkpt>
      <trkpt lat="42.6787240" lon="-1.9364320">
        <ele>414.5</ele>
        <time>2020-03-28T19:20:58Z</time>
      </trkpt>
      <trkpt lat="42.6787090" lon="-1.9366870">
        <ele>415.4</ele>
        <time>2020-03-28T19:21:00Z</time>
      </trkpt>
      <trkpt lat="42.6786980" lon="-1.9367540">
        <ele>415.6</ele>
        <time>2020-03-28T19:21:02Z</time>
      </trkpt>
      <trkpt lat="42.6786860" lon="-1.9368260">
        <ele>415.8</ele>
        <time>2020-03-28T19:21:04Z</time>
      </trkpt>
      <trkpt lat="42.6786750" lon="-1.9368970">
        <ele>416.0</ele>
        <time>2020-03-28T19:21:06Z</time>
      </trkpt>
      <trkpt lat="42.6786640" lon="-1.9369650">
        <ele>416.2</ele>
        <time>2020-03-28T19:21:08Z</time>
      </trkpt>
      <trkpt lat="42.6786530" lon="-1.9370310">
        <ele>416.3</ele>
        <time>2020-03-28T19:21:10Z</time>
      </trkpt>
      <trkpt lat="42.6786420" lon="-1.9370960">
        <ele>416.5</ele>
        <time>2020-03-28T19:21:12Z</time>
      </trkpt>
      <trkpt lat="42.6786320" lon="-1.9371590">
        <ele>416.6</ele>
        <time>2020-03-28T19:21:14Z</time>
      </trkpt>
      <trkpt lat="42.6786220" lon="-1.9372220">
        <ele>416.8</ele>
        <time>2020-03-28T19:21:16Z</time>
      </trkpt>
      <trkpt lat="42.6785790" lon="-1.9374740">
        <ele>417.6</ele>
        <time>2020-03-28T19:21:18Z</time>
      </trkpt>
      <trkpt lat="42.6785660" lon="-1.9375350">
        <ele>417.7</ele>
        <time>2020-03-28T19:21:20Z</time>
      </trkpt>
      <trkpt lat="42.6785540" lon="-1.9375960">
        <ele>417.9</ele>
        <time>2020-03-28T19:21:22Z</time>
      </trkpt>
      <trkpt lat="42.6785410" lon="-1.9376570">
        <ele>418.1</ele>
        <time>2020-03-28T19:21:24Z</time>
      </trkpt>
      <trkpt lat="42.6785290" lon="-1.9377180">
        <ele>418.3</ele>
        <time>2020-03-28T19:21:26Z</time>
      </trkpt>
      <trkpt lat="42.6785160" lon="-1.9377790">
        <ele>418.4</ele>
        <time>2020-03-28T19:21:28Z</time>
      </trkpt>
      <trkpt lat="42.6785040" lon="-1.9378400">
        <ele>418.6</ele>
        <time>2020-03-28T19:21:30Z</time>
      </trkpt>
      <trkpt lat="42.6784560" lon="-1.9380710">
        <ele>419.5</ele>
        <time>2020-03-28T19:21:32Z</time>
      </trkpt>
      <trkpt lat="42.6784440" lon="-1.9381330">
        <ele>419.8</ele>
        <time>2020-03-28T19:21:34Z</time>
      </trkpt>
      <trkpt lat="42.6784320" lon="-1.9381930">
        <ele>420.1</ele>
        <time>2020-03-28T19:21:36Z</time>
      </trkpt>
      <trkpt lat="42.6784080" lon="-1.9383040">
        <ele>420.7</ele>
        <time>2020-03-28T19:21:38Z</time>
      </trkpt>
      <trkpt lat="42.6783950" lon="-1.9383570">
        <ele>420.9</ele>
        <time>2020-03-28T19:21:40Z</time>
      </trkpt>
      <trkpt lat="42.6783830" lon="-1.9384080">
        <ele>421.2</ele>
        <time>2020-03-28T19:21:42Z</time>
      </trkpt>
      <trkpt lat="42.6783700" lon="-1.9384610">
        <ele>421.4</ele>
        <time>2020-03-28T19:21:44Z</time>
      </trkpt>
      <trkpt lat="42.6783570" lon="-1.9385140">
        <ele>421.7</ele>
        <time>2020-03-28T19:21:46Z</time>
      </trkpt>
      <trkpt lat="42.6783440" lon="-1.9385680">
        <ele>421.9</ele>
        <time>2020-03-28T19:21:48Z</time>
      </trkpt>
      <trkpt lat="42.6783000" lon="-1.9387330">
        <ele>422.9</ele>
        <time>2020-03-28T19:21:50Z</time>
      </trkpt>
      <trkpt lat="42.6782840" lon="-1.9387840">
        <ele>423.2</ele>
        <time>2020-03-28T19:21:52Z</time>
      </trkpt>
      <trkpt lat="42.6782680" lon="-1.9388360">
        <ele>423.5</ele>
        <time>2020-03-28T19:21:54Z</time>
      </trkpt>
      <trkpt lat="42.6782530" lon="-1.9388870">
        <ele>423.8</ele>
        <time>2020-03-28T19:21:56Z</time>
      </trkpt>
      <trkpt lat="42.6782130" lon="-1.9390090">
        <ele>424.5</ele>
        <time>2020-03-28T19:21:58Z</time>
      </trkpt>
      <trkpt lat="42.6781940" lon="-1.9390580">
        <ele>424.8</ele>
        <time>2020-03-28T19:22:00Z</time>
      </trkpt>
      <trkpt lat="42.6781760" lon="-1.9391060">
        <ele>425.1</ele>
        <time>2020-03-28T19:22:02Z</time>
      </trkpt>
      <trkpt lat="42.6781330" lon="-1.9392130">
        <ele>425.7</ele>
        <time>2020-03-28T19:22:04Z</time>
      </trkpt>
      <trkpt lat="42.6781110" lon="-1.9392590">
        <ele>425.9</ele>
        <time>2020-03-28T19:22:06Z</time>
      </trkpt>
      <trkpt lat="42.6780740" lon="-1.9393280">
        <ele>426.3</ele>
        <time>2020-03-28T19:22:08Z</time>
      </trkpt>
      <trkpt lat="42.6780470" lon="-1.9393670">
        <ele>426.5</ele>
        <time>2020-03-28T19:22:10Z</time>
      </trkpt>
      <trkpt lat="42.6780190" lon="-1.9394060">
        <ele>426.7</ele>
        <time>2020-03-28T19:22:12Z</time>
      </trkpt>
      <trkpt lat="42.6779580" lon="-1.9394910">
        <ele>427.2</ele>
        <time>2020-03-28T19:22:14Z</time>
      </trkpt>
      <trkpt lat="42.6779200" lon="-1.9395420">
        <ele>427.4</ele>
        <time>2020-03-28T19:22:16Z</time>
      </trkpt>
      <trkpt lat="42.6778770" lon="-1.9395980">
        <ele>427.7</ele>
        <time>2020-03-28T19:22:18Z</time>
      </trkpt>
      <trkpt lat="42.6778000" lon="-1.9396970">
        <ele>428.3</ele>
        <time>2020-03-28T19:22:20Z</time>
      </trkpt>
      <trkpt lat="42.6777330" lon="-1.9397730">
        <ele>428.7</ele>
        <time>2020-03-28T19:22:22Z</time>
      </trkpt>
      <trkpt lat="42.6776880" lon="-1.9398150">
        <ele>428.9</ele>
        <time>2020-03-28T19:22:24Z</time>
      </trkpt>
      <trkpt lat="42.6776140" lon="-1.9398850">
        <ele>429.3</ele>
        <time>2020-03-28T19:22:26Z</time>
      </trkpt>
      <trkpt lat="42.6775680" lon="-1.9399230">
        <ele>429.5</ele>
        <time>2020-03-28T19:22:28Z</time>
      </trkpt>
      <trkpt lat="42.6775230" lon="-1.9399600">
        <ele>429.8</ele>
        <time>2020-03-28T19:22:30Z</time>
      </trkpt>
      <trkpt lat="42.6774790" lon="-1.9399970">
        <ele>430.0</ele>
        <time>2020-03-28T19:22:32Z</time>
      </trkpt>
      <trkpt lat="42.6774340" lon="-1.9400340">
        <ele>430.2</ele>
        <time>2020-03-28T19:22:34Z</time>
      </trkpt>
      <trkpt lat="42.6773900" lon="-1.9400710">
        <ele>430.4</ele>
        <time>2020-03-28T19:22:36Z</time>
      </trkpt>
      <trkpt lat="42.6773450" lon="-1.9401080">
        <ele>430.7</ele>
        <time>2020-03-28T19:22:38Z</time>
      </trkpt>
      <trkpt lat="42.6771910" lon="-1.9402350">
        <ele>431.5</ele>
        <time>2020-03-28T19:22:40Z</time>
      </trkpt>
      <trkpt lat="42.6771410" lon="-1.9402770">
        <ele>431.8</ele>
        <time>2020-03-28T19:22:42Z</time>
      </trkpt>
      <trkpt lat="42.6770900" lon="-1.9403200">
        <ele>432.1</ele>
        <time>2020-03-28T19:22:44Z</time>
      </trkpt>
      <trkpt lat="42.6770390" lon="-1.9403630">
        <ele>432.4</ele>
        <time>2020-03-28T19:22:46Z</time>
      </trkpt>
      <trkpt lat="42.6769860" lon="-1.9404070">
        <ele>432.7</ele>
        <time>2020-03-28T19:22:48Z</time>
      </trkpt>
      <trkpt lat="42.6769280" lon="-1.9404550">
        <ele>433.0</ele>
        <time>2020-03-28T19:22:50Z</time>
      </trkpt>
      <trkpt lat="42.6768700" lon="-1.9405040">
        <ele>433.3</ele>
        <time>2020-03-28T19:22:52Z</time>
      </trkpt>
      <trkpt lat="42.6766720" lon="-1.9406710">
        <ele>434.4</ele>
        <time>2020-03-28T19:22:54Z</time>
      </trkpt>
      <trkpt lat="42.6766160" lon="-1.9407240">
        <ele>434.7</ele>
        <time>2020-03-28T19:22:56Z</time>
      </trkpt>
      <trkpt lat="42.6765610" lon="-1.9407770">
        <ele>435.1</ele>
        <time>2020-03-28T19:22:58Z</time>
      </trkpt>
      <trkpt lat="42.6765050" lon="-1.9408300">
        <ele>435.4</ele>
        <time>2020-03-28T19:23:00Z</time>
      </trkpt>
      <trkpt lat="42.6763750" lon="-1.9409590">
        <ele>436.3</ele>
        <time>2020-03-28T19:23:02Z</time>
      </trkpt>
      <trkpt lat="42.6763220" lon="-1.9410170">
        <ele>436.7</ele>
        <time>2020-03-28T19:23:04Z</time>
      </trkpt>
      <trkpt lat="42.6762210" lon="-1.9411280">
        <ele>437.4</ele>
        <time>2020-03-28T19:23:06Z</time>
      </trkpt>
      <trkpt lat="42.6761740" lon="-1.9411880">
        <ele>437.7</ele>
        <time>2020-03-28T19:23:08Z</time>
      </trkpt>
      <trkpt lat="42.6761280" lon="-1.9412480">
        <ele>438.1</ele>
        <time>2020-03-28T19:23:10Z</time>
      </trkpt>
      <trkpt lat="42.6760810" lon="-1.9413080">
        <ele>438.4</ele>
        <time>2020-03-28T19:23:12Z</time>
      </trkpt>
      <trkpt lat="42.6759840" lon="-1.9414400">
        <ele>439.0</ele>
        <time>2020-03-28T19:23:14Z</time>
      </trkpt>
      <trkpt lat="42.6759400" lon="-1.9415060">
        <ele>439.3</ele>
        <time>2020-03-28T19:23:16Z</time>
      </trkpt>
      <trkpt lat="42.6758590" lon="-1.9416340">
        <ele>439.8</ele>
        <time>2020-03-28T19:23:18Z</time>
      </trkpt>
      <trkpt lat="42.6758180" lon="-1.9417060">
        <ele>440.1</ele>
        <time>2020-03-28T19:23:20Z</time>
      </trkpt>
      <trkpt lat="42.6757510" lon="-1.9418300">
        <ele>440.8</ele>
        <time>2020-03-28T19:23:22Z</time>
      </trkpt>
      <trkpt lat="42.6757140" lon="-1.9419060">
        <ele>441.2</ele>
        <time>2020-03-28T19:23:24Z</time>
      </trkpt>
      <trkpt lat="42.6756760" lon="-1.9419830">
        <ele>441.6</ele>
        <time>2020-03-28T19:23:26Z</time>
      </trkpt>
      <trkpt lat="42.6756380" lon="-1.9420590">
        <ele>442.1</ele>
        <time>2020-03-28T19:23:28Z</time>
      </trkpt>
      <trkpt lat="42.6755490" lon="-1.9422530">
        <ele>443.0</ele>
        <time>2020-03-28T19:23:30Z</time>
      </trkpt>
      <trkpt lat="42.6755190" lon="-1.9423350">
        <ele>443.3</ele>
        <time>2020-03-28T19:23:32Z</time>
      </trkpt>
      <trkpt lat="42.6754890" lon="-1.9424170">
        <ele>443.7</ele>
        <time>2020-03-28T19:23:34Z</time>
      </trkpt>
      <trkpt lat="42.6754590" lon="-1.9425000">
        <ele>444.1</ele>
        <time>2020-03-28T19:23:36Z</time>
      </trkpt>
      <trkpt lat="42.6754290" lon="-1.9425820">
        <ele>444.5</ele>
        <time>2020-03-28T19:23:38Z</time>
      </trkpt>
      <trkpt lat="42.6753440" lon="-1.9428200">
        <ele>445.8</ele>
        <time>2020-03-28T19:23:40Z</time>
      </trkpt>
      <trkpt lat="42.6753200" lon="-1.9429060">
        <ele>446.1</ele>
        <time>2020-03-28T19:23:42Z</time>
      </trkpt>
      <trkpt lat="42.6752960" lon="-1.9429920">
        <ele>446.4</ele>
        <time>2020-03-28T19:23:44Z</time>
      </trkpt>
      <trkpt lat="42.6752720" lon="-1.9430770">
        <ele>446.8</ele>
        <time>2020-03-28T19:23:46Z</time>
      </trkpt>
      <trkpt lat="42.6752480" lon="-1.9431630">
        <ele>446.8</ele>
        <time>2020-03-28T19:23:48Z</time>
      </trkpt>
      <trkpt lat="42.6751840" lon="-1.9434010">
        <ele>447.0</ele>
        <time>2020-03-28T19:23:50Z</time>
      </trkpt>
      <trkpt lat="42.6751630" lon="-1.9435010">
        <ele>447.2</ele>
        <time>2020-03-28T19:23:52Z</time>
      </trkpt>
      <trkpt lat="42.6751420" lon="-1.9436040">
        <ele>447.5</ele>
        <time>2020-03-28T19:23:54Z</time>
      </trkpt>
      <trkpt lat="42.6751210" lon="-1.9437040">
        <ele>447.7</ele>
        <time>2020-03-28T19:23:56Z</time>
      </trkpt>
      <trkpt lat="42.6751000" lon="-1.9438050">
        <ele>448.0</ele>
        <time>2020-03-28T19:23:58Z</time>
      </trkpt>
      <trkpt lat="42.6750800" lon="-1.9439050">
        <ele>448.1</ele>
        <time>2020-03-28T19:24:00Z</time>
      </trkpt>
      <trkpt lat="42.6750590" lon="-1.9440040">
        <ele>448.2</ele>
        <time>2020-03-28T19:24:02Z</time>
      </trkpt>
      <trkpt lat="42.6750380" lon="-1.9441060">
        <ele>448.2</ele>
        <time>2020-03-28T19:24:04Z</time>
      </trkpt>
      <trkpt lat="42.6749560" lon="-1.9444740">
        <ele>448.4</ele>
        <time>2020-03-28T19:24:06Z</time>
      </trkpt>
      <trkpt lat="42.6749060" lon="-1.9446350">
        <ele>448.4</ele>
        <time>2020-03-28T19:24:08Z</time>
      </trkpt>
      <trkpt lat="42.6748490" lon="-1.9447120">
        <ele>448.4</ele>
        <time>2020-03-28T19:24:10Z</time>
      </trkpt>
      <trkpt lat="42.6747490" lon="-1.9448430">
        <ele>448.4</ele>
        <time>2020-03-28T19:24:12Z</time>
      </trkpt>
      <trkpt lat="42.6746620" lon="-1.9449190">
        <ele>448.7</ele>
        <time>2020-03-28T19:24:14Z</time>
      </trkpt>
      <trkpt lat="42.6745830" lon="-1.9449600">
        <ele>449.0</ele>
        <time>2020-03-28T19:24:16Z</time>
      </trkpt>
      <trkpt lat="42.6745050" lon="-1.9450000">
        <ele>449.3</ele>
        <time>2020-03-28T19:24:18Z</time>
      </trkpt>
      <trkpt lat="42.6744260" lon="-1.9450400">
        <ele>449.5</ele>
        <time>2020-03-28T19:24:20Z</time>
      </trkpt>
      <trkpt lat="42.6743450" lon="-1.9450820">
        <ele>449.5</ele>
        <time>2020-03-28T19:24:22Z</time>
      </trkpt>
      <trkpt lat="42.6742640" lon="-1.9451230">
        <ele>449.6</ele>
        <time>2020-03-28T19:24:24Z</time>
      </trkpt>
      <trkpt lat="42.6740160" lon="-1.9452500">
        <ele>449.7</ele>
        <time>2020-03-28T19:24:26Z</time>
      </trkpt>
      <trkpt lat="42.6739340" lon="-1.9452920">
        <ele>449.7</ele>
        <time>2020-03-28T19:24:28Z</time>
      </trkpt>
      <trkpt lat="42.6738530" lon="-1.9453330">
        <ele>449.8</ele>
        <time>2020-03-28T19:24:30Z</time>
      </trkpt>
      <trkpt lat="42.6737700" lon="-1.9453760">
        <ele>449.8</ele>
        <time>2020-03-28T19:24:32Z</time>
      </trkpt>
      <trkpt lat="42.6736850" lon="-1.9454190">
        <ele>449.8</ele>
        <time>2020-03-28T19:24:34Z</time>
      </trkpt>
      <trkpt lat="42.6736000" lon="-1.9454630">
        <ele>449.8</ele>
        <time>2020-03-28T19:24:36Z</time>
      </trkpt>
      <trkpt lat="42.6733490" lon="-1.9456060">
        <ele>449.2</ele>
        <time>2020-03-28T19:24:38Z</time>
      </trkpt>
      <trkpt lat="42.6732660" lon="-1.9456630">
        <ele>449.1</ele>
        <time>2020-03-28T19:24:40Z</time>
      </trkpt>
      <trkpt lat="42.6731080" lon="-1.9457770">
        <ele>449.1</ele>
        <time>2020-03-28T19:24:42Z</time>
      </trkpt>
      <trkpt lat="42.6729990" lon="-1.9458740">
        <ele>449.1</ele>
        <time>2020-03-28T19:24:44Z</time>
      </trkpt>
      <trkpt lat="42.6729270" lon="-1.9459560">
        <ele>449.2</ele>
        <time>2020-03-28T19:24:46Z</time>
      </trkpt>
      <trkpt lat="42.6728020" lon="-1.9461030">
        <ele>449.3</ele>
        <time>2020-03-28T19:24:48Z</time>
      </trkpt>
      <trkpt lat="42.6727400" lon="-1.9461990">
        <ele>449.3</ele>
        <time>2020-03-28T19:24:50Z</time>
      </trkpt>
      <trkpt lat="42.6726770" lon="-1.9462960">
        <ele>449.5</ele>
        <time>2020-03-28T19:24:52Z</time>
      </trkpt>
      <trkpt lat="42.6726140" lon="-1.9463940">
        <ele>449.8</ele>
        <time>2020-03-28T19:24:54Z</time>
      </trkpt>
      <trkpt lat="42.6725520" lon="-1.9464910">
        <ele>450.2</ele>
        <time>2020-03-28T19:24:56Z</time>
      </trkpt>
      <trkpt lat="42.6724890" lon="-1.9465900">
        <ele>450.6</ele>
        <time>2020-03-28T19:24:58Z</time>
      </trkpt>
      <trkpt lat="42.6724260" lon="-1.9466870">
        <ele>451.0</ele>
        <time>2020-03-28T19:25:00Z</time>
      </trkpt>
      <trkpt lat="42.6722140" lon="-1.9469990">
        <ele>451.6</ele>
        <time>2020-03-28T19:25:02Z</time>
      </trkpt>
      <trkpt lat="42.6721440" lon="-1.9470860">
        <ele>451.7</ele>
        <time>2020-03-28T19:25:04Z</time>
      </trkpt>
      <trkpt lat="42.6720730" lon="-1.9471740">
        <ele>451.8</ele>
        <time>2020-03-28T19:25:06Z</time>
      </trkpt>
      <trkpt lat="42.6720010" lon="-1.9472630">
        <ele>452.0</ele>
        <time>2020-03-28T19:25:08Z</time>
      </trkpt>
      <trkpt lat="42.6719310" lon="-1.9473510">
        <ele>452.3</ele>
        <time>2020-03-28T19:25:10Z</time>
      </trkpt>
      <trkpt lat="42.6718590" lon="-1.9474390">
        <ele>452.6</ele>
        <time>2020-03-28T19:25:12Z</time>
      </trkpt>
      <trkpt lat="42.6716400" lon="-1.9477110">
        <ele>453.9</ele>
        <time>2020-03-28T19:25:14Z</time>
      </trkpt>
      <trkpt lat="42.6715780" lon="-1.9477880">
        <ele>454.3</ele>
        <time>2020-03-28T19:25:16Z</time>
      </trkpt>
      <trkpt lat="42.6715210" lon="-1.9478580">
        <ele>454.7</ele>
        <time>2020-03-28T19:25:18Z</time>
      </trkpt>
      <trkpt lat="42.6714680" lon="-1.9479250">
        <ele>455.1</ele>
        <time>2020-03-28T19:25:20Z</time>
      </trkpt>
      <trkpt lat="42.6714170" lon="-1.9479870">
        <ele>455.6</ele>
        <time>2020-03-28T19:25:22Z</time>
      </trkpt>
      <trkpt lat="42.6713680" lon="-1.9480480">
        <ele>456.0</ele>
        <time>2020-03-28T19:25:24Z</time>
      </trkpt>
      <trkpt lat="42.6713200" lon="-1.9481070">
        <ele>456.4</ele>
        <time>2020-03-28T19:25:26Z</time>
      </trkpt>
      <trkpt lat="42.6711230" lon="-1.9483510">
        <ele>458.5</ele>
        <time>2020-03-28T19:25:28Z</time>
      </trkpt>
      <trkpt lat="42.6710780" lon="-1.9484080">
        <ele>459.0</ele>
        <time>2020-03-28T19:25:30Z</time>
      </trkpt>
      <trkpt lat="42.6710320" lon="-1.9484650">
        <ele>459.5</ele>
        <time>2020-03-28T19:25:32Z</time>
      </trkpt>
      <trkpt lat="42.6709870" lon="-1.9485210">
        <ele>460.0</ele>
        <time>2020-03-28T19:25:34Z</time>
      </trkpt>
      <trkpt lat="42.6709410" lon="-1.9485770">
        <ele>460.5</ele>
        <time>2020-03-28T19:25:36Z</time>
      </trkpt>
      <trkpt lat="42.6708970" lon="-1.9486320">
        <ele>460.9</ele>
        <time>2020-03-28T19:25:38Z</time>
      </trkpt>
      <trkpt lat="42.6708530" lon="-1.9486870">
        <ele>461.3</ele>
        <time>2020-03-28T19:25:40Z</time>
      </trkpt>
      <trkpt lat="42.6708090" lon="-1.9487420">
        <ele>461.7</ele>
        <time>2020-03-28T19:25:42Z</time>
      </trkpt>
      <trkpt lat="42.6707640" lon="-1.9487970">
        <ele>462.4</ele>
        <time>2020-03-28T19:25:44Z</time>
      </trkpt>
      <trkpt lat="42.6707200" lon="-1.9488510">
        <ele>462.9</ele>
        <time>2020-03-28T19:25:46Z</time>
      </trkpt>
      <trkpt lat="42.6705290" lon="-1.9491000">
        <ele>465.1</ele>
        <time>2020-03-28T19:25:48Z</time>
      </trkpt>
      <trkpt lat="42.6704870" lon="-1.9491680">
        <ele>465.6</ele>
        <time>2020-03-28T19:25:50Z</time>
      </trkpt>
      <trkpt lat="42.6704460" lon="-1.9492350">
        <ele>466.0</ele>
        <time>2020-03-28T19:25:52Z</time>
      </trkpt>
      <trkpt lat="42.6704050" lon="-1.9493020">
        <ele>466.4</ele>
        <time>2020-03-28T19:25:54Z</time>
      </trkpt>
      <trkpt lat="42.6703030" lon="-1.9494720">
        <ele>467.6</ele>
        <time>2020-03-28T19:25:56Z</time>
      </trkpt>
      <trkpt lat="42.6702650" lon="-1.9495400">
        <ele>468.1</ele>
        <time>2020-03-28T19:25:58Z</time>
      </trkpt>
      <trkpt lat="42.6702280" lon="-1.9496080">
        <ele>468.5</ele>
        <time>2020-03-28T19:26:00Z</time>
      </trkpt>
      <trkpt lat="42.6701910" lon="-1.9496750">
        <ele>468.9</ele>
        <time>2020-03-28T19:26:02Z</time>
      </trkpt>
      <trkpt lat="42.6701550" lon="-1.9497420">
        <ele>469.3</ele>
        <time>2020-03-28T19:26:04Z</time>
      </trkpt>
      <trkpt lat="42.6701180" lon="-1.9498090">
        <ele>469.8</ele>
        <time>2020-03-28T19:26:06Z</time>
      </trkpt>
      <trkpt lat="42.6700080" lon="-1.9500160">
        <ele>471.2</ele>
        <time>2020-03-28T19:26:08Z</time>
      </trkpt>
      <trkpt lat="42.6699750" lon="-1.9500840">
        <ele>471.4</ele>
        <time>2020-03-28T19:26:10Z</time>
      </trkpt>
      <trkpt lat="42.6699430" lon="-1.9501530">
        <ele>471.6</ele>
        <time>2020-03-28T19:26:12Z</time>
      </trkpt>
      <trkpt lat="42.6699100" lon="-1.9502210">
        <ele>471.8</ele>
        <time>2020-03-28T19:26:14Z</time>
      </trkpt>
      <trkpt lat="42.6698780" lon="-1.9502890">
        <ele>472.0</ele>
        <time>2020-03-28T19:26:16Z</time>
      </trkpt>
      <trkpt lat="42.6697950" lon="-1.9504830">
        <ele>472.7</ele>
        <time>2020-03-28T19:26:18Z</time>
      </trkpt>
      <trkpt lat="42.6697660" lon="-1.9505660">
        <ele>473.1</ele>
        <time>2020-03-28T19:26:20Z</time>
      </trkpt>
      <trkpt lat="42.6697370" lon="-1.9506470">
        <ele>473.4</ele>
        <time>2020-03-28T19:26:22Z</time>
      </trkpt>
      <trkpt lat="42.6697090" lon="-1.9507270">
        <ele>473.7</ele>
        <time>2020-03-28T19:26:24Z</time>
      </trkpt>
      <trkpt lat="42.6696820" lon="-1.9508040">
        <ele>473.9</ele>
        <time>2020-03-28T19:26:26Z</time>
      </trkpt>
      <trkpt lat="42.6696560" lon="-1.9508810">
        <ele>474.2</ele>
        <time>2020-03-28T19:26:28Z</time>
      </trkpt>
      <trkpt lat="42.6695660" lon="-1.9511290">
        <ele>475.0</ele>
        <time>2020-03-28T19:26:30Z</time>
      </trkpt>
      <trkpt lat="42.6695370" lon="-1.9512030">
        <ele>475.1</ele>
        <time>2020-03-28T19:26:32Z</time>
      </trkpt>
      <trkpt lat="42.6695070" lon="-1.9512750">
        <ele>475.1</ele>
        <time>2020-03-28T19:26:34Z</time>
      </trkpt>
      <trkpt lat="42.6694790" lon="-1.9513470">
        <ele>475.2</ele>
        <time>2020-03-28T19:26:36Z</time>
      </trkpt>
      <trkpt lat="42.6694500" lon="-1.9514180">
        <ele>475.3</ele>
        <time>2020-03-28T19:26:38Z</time>
      </trkpt>
      <trkpt lat="42.6694210" lon="-1.9514890">
        <ele>475.4</ele>
        <time>2020-03-28T19:26:40Z</time>
      </trkpt>
      <trkpt lat="42.6693920" lon="-1.9515620">
        <ele>475.4</ele>
        <time>2020-03-28T19:26:42Z</time>
      </trkpt>
      <trkpt lat="42.6693630" lon="-1.9516350">
        <ele>475.4</ele>
        <time>2020-03-28T19:26:44Z</time>
      </trkpt>
      <trkpt lat="42.6693340" lon="-1.9517060">
        <ele>475.4</ele>
        <time>2020-03-28T19:26:46Z</time>
      </trkpt>
      <trkpt lat="42.6692090" lon="-1.9520220">
        <ele>475.6</ele>
        <time>2020-03-28T19:26:48Z</time>
      </trkpt>
      <trkpt lat="42.6691820" lon="-1.9521010">
        <ele>475.7</ele>
        <time>2020-03-28T19:26:50Z</time>
      </trkpt>
      <trkpt lat="42.6691540" lon="-1.9521820">
        <ele>475.8</ele>
        <time>2020-03-28T19:26:52Z</time>
      </trkpt>
      <trkpt lat="42.6691240" lon="-1.9522670">
        <ele>475.8</ele>
        <time>2020-03-28T19:26:54Z</time>
      </trkpt>
      <trkpt lat="42.6690940" lon="-1.9523550">
        <ele>475.9</ele>
        <time>2020-03-28T19:26:56Z</time>
      </trkpt>
      <trkpt lat="42.6690630" lon="-1.9524470">
        <ele>475.9</ele>
        <time>2020-03-28T19:26:58Z</time>
      </trkpt>
      <trkpt lat="42.6690310" lon="-1.9525400">
        <ele>475.9</ele>
        <time>2020-03-28T19:27:00Z</time>
      </trkpt>
      <trkpt lat="42.6689980" lon="-1.9526350">
        <ele>475.9</ele>
        <time>2020-03-28T19:27:02Z</time>
      </trkpt>
      <trkpt lat="42.6688800" lon="-1.9529770">
        <ele>475.8</ele>
        <time>2020-03-28T19:27:04Z</time>
      </trkpt>
      <trkpt lat="42.6688470" lon="-1.9530730">
        <ele>475.8</ele>
        <time>2020-03-28T19:27:06Z</time>
      </trkpt>
      <trkpt lat="42.6688130" lon="-1.9531710">
        <ele>475.8</ele>
        <time>2020-03-28T19:27:08Z</time>
      </trkpt>
      <trkpt lat="42.6687790" lon="-1.9532710">
        <ele>475.7</ele>
        <time>2020-03-28T19:27:10Z</time>
      </trkpt>
      <trkpt lat="42.6687440" lon="-1.9533720">
        <ele>475.7</ele>
        <time>2020-03-28T19:27:12Z</time>
      </trkpt>
      <trkpt lat="42.6687100" lon="-1.9534730">
        <ele>475.6</ele>
        <time>2020-03-28T19:27:14Z</time>
      </trkpt>
      <trkpt lat="42.6686750" lon="-1.9535740">
        <ele>475.6</ele>
        <time>2020-03-28T19:27:16Z</time>
      </trkpt>
      <trkpt lat="42.6685570" lon="-1.9539270">
        <ele>475.5</ele>
        <time>2020-03-28T19:27:18Z</time>
      </trkpt>
      <trkpt lat="42.6685240" lon="-1.9540400">
        <ele>475.4</ele>
        <time>2020-03-28T19:27:20Z</time>
      </trkpt>
      <trkpt lat="42.6684890" lon="-1.9541560">
        <ele>475.4</ele>
        <time>2020-03-28T19:27:22Z</time>
      </trkpt>
      <trkpt lat="42.6684550" lon="-1.9542740">
        <ele>475.4</ele>
        <time>2020-03-28T19:27:24Z</time>
      </trkpt>
      <trkpt lat="42.6683660" lon="-1.9545850">
        <ele>475.2</ele>
        <time>2020-03-28T19:27:26Z</time>
      </trkpt>
      <trkpt lat="42.6683480" lon="-1.9547150">
        <ele>475.2</ele>
        <time>2020-03-28T19:27:28Z</time>
      </trkpt>
      <trkpt lat="42.6683020" lon="-1.9549280">
        <ele>475.1</ele>
        <time>2020-03-28T19:27:30Z</time>
      </trkpt>
      <trkpt lat="42.6682080" lon="-1.9550640">
        <ele>475.3</ele>
        <time>2020-03-28T19:27:32Z</time>
      </trkpt>
      <trkpt lat="42.6681960" lon="-1.9552380">
        <ele>475.0</ele>
        <time>2020-03-28T19:27:34Z</time>
      </trkpt>
      <trkpt lat="42.6681670" lon="-1.9554170">
        <ele>474.9</ele>
        <time>2020-03-28T19:27:36Z</time>
      </trkpt>
      <trkpt lat="42.6681000" lon="-1.9555810">
        <ele>475.1</ele>
        <time>2020-03-28T19:27:38Z</time>
      </trkpt>
      <trkpt lat="42.6680660" lon="-1.9557090">
        <ele>475.2</ele>
        <time>2020-03-28T19:27:40Z</time>
      </trkpt>
      <trkpt lat="42.6680320" lon="-1.9558400">
        <ele>475.3</ele>
        <time>2020-03-28T19:27:42Z</time>
      </trkpt>
      <trkpt lat="42.6679980" lon="-1.9559710">
        <ele>475.4</ele>
        <time>2020-03-28T19:27:44Z</time>
      </trkpt>
      <trkpt lat="42.6679640" lon="-1.9561030">
        <ele>475.7</ele>
        <time>2020-03-28T19:27:46Z</time>
      </trkpt>
      <trkpt lat="42.6679300" lon="-1.9562340">
        <ele>475.9</ele>
        <time>2020-03-28T19:27:48Z</time>
      </trkpt>
      <trkpt lat="42.6678960" lon="-1.9563660">
        <ele>476.2</ele>
        <time>2020-03-28T19:27:50Z</time>
      </trkpt>
      <trkpt lat="42.6677850" lon="-1.9567930">
        <ele>477.1</ele>
        <time>2020-03-28T19:27:52Z</time>
      </trkpt>
      <trkpt lat="42.6677510" lon="-1.9569200">
        <ele>477.5</ele>
        <time>2020-03-28T19:27:54Z</time>
      </trkpt>
      <trkpt lat="42.6677190" lon="-1.9570460">
        <ele>477.8</ele>
        <time>2020-03-28T19:27:56Z</time>
      </trkpt>
      <trkpt lat="42.6676860" lon="-1.9571700">
        <ele>478.2</ele>
        <time>2020-03-28T19:27:58Z</time>
      </trkpt>
      <trkpt lat="42.6676550" lon="-1.9572900">
        <ele>478.5</ele>
        <time>2020-03-28T19:28:00Z</time>
      </trkpt>
      <trkpt lat="42.6676240" lon="-1.9574090">
        <ele>478.8</ele>
        <time>2020-03-28T19:28:02Z</time>
      </trkpt>
      <trkpt lat="42.6675170" lon="-1.9578220">
        <ele>479.9</ele>
        <time>2020-03-28T19:28:04Z</time>
      </trkpt>
      <trkpt lat="42.6674880" lon="-1.9579380">
        <ele>479.9</ele>
        <time>2020-03-28T19:28:06Z</time>
      </trkpt>
      <trkpt lat="42.6674590" lon="-1.9580540">
        <ele>480.0</ele>
        <time>2020-03-28T19:28:08Z</time>
      </trkpt>
      <trkpt lat="42.6674310" lon="-1.9581690">
        <ele>480.1</ele>
        <time>2020-03-28T19:28:10Z</time>
      </trkpt>
      <trkpt lat="42.6674020" lon="-1.9582830">
        <ele>480.3</ele>
        <time>2020-03-28T19:28:12Z</time>
      </trkpt>
      <trkpt lat="42.6673750" lon="-1.9583950">
        <ele>480.6</ele>
        <time>2020-03-28T19:28:14Z</time>
      </trkpt>
      <trkpt lat="42.6673470" lon="-1.9585070">
        <ele>480.9</ele>
        <time>2020-03-28T19:28:16Z</time>
      </trkpt>
      <trkpt lat="42.6672530" lon="-1.9588820">
        <ele>481.9</ele>
        <time>2020-03-28T19:28:18Z</time>
      </trkpt>
      <trkpt lat="42.6672280" lon="-1.9589820">
        <ele>482.2</ele>
        <time>2020-03-28T19:28:20Z</time>
      </trkpt>
      <trkpt lat="42.6672050" lon="-1.9590750">
        <ele>482.6</ele>
        <time>2020-03-28T19:28:22Z</time>
      </trkpt>
      <trkpt lat="42.6671840" lon="-1.9591620">
        <ele>482.9</ele>
        <time>2020-03-28T19:28:24Z</time>
      </trkpt>
      <trkpt lat="42.6671640" lon="-1.9592430">
        <ele>483.2</ele>
        <time>2020-03-28T19:28:26Z</time>
      </trkpt>
      <trkpt lat="42.6671450" lon="-1.9593180">
        <ele>483.5</ele>
        <time>2020-03-28T19:28:28Z</time>
      </trkpt>
      <trkpt lat="42.6671270" lon="-1.9593890">
        <ele>483.8</ele>
        <time>2020-03-28T19:28:30Z</time>
      </trkpt>
      <trkpt lat="42.6671100" lon="-1.9594570">
        <ele>484.2</ele>
        <time>2020-03-28T19:28:32Z</time>
      </trkpt>
      <trkpt lat="42.6670940" lon="-1.9595220">
        <ele>484.6</ele>
        <time>2020-03-28T19:28:34Z</time>
      </trkpt>
      <trkpt lat="42.6670130" lon="-1.9598520">
        <ele>486.3</ele>
        <time>2020-03-28T19:28:36Z</time>
      </trkpt>
      <trkpt lat="42.6669980" lon="-1.9599180">
        <ele>486.5</ele>
        <time>2020-03-28T19:28:38Z</time>
      </trkpt>
      <trkpt lat="42.6669830" lon="-1.9599900">
        <ele>486.7</ele>
        <time>2020-03-28T19:28:40Z</time>
      </trkpt>
      <trkpt lat="42.6669670" lon="-1.9600610">
        <ele>486.9</ele>
        <time>2020-03-28T19:28:42Z</time>
      </trkpt>
      <trkpt lat="42.6669520" lon="-1.9601300">
        <ele>487.1</ele>
        <time>2020-03-28T19:28:44Z</time>
      </trkpt>
      <trkpt lat="42.6669370" lon="-1.9601970">
        <ele>487.3</ele>
        <time>2020-03-28T19:28:46Z</time>
      </trkpt>
      <trkpt lat="42.6669220" lon="-1.9602660">
        <ele>487.5</ele>
        <time>2020-03-28T19:28:48Z</time>
      </trkpt>
      <trkpt lat="42.6668680" lon="-1.9605130">
        <ele>488.4</ele>
        <time>2020-03-28T19:28:50Z</time>
      </trkpt>
      <trkpt lat="42.6668520" lon="-1.9605880">
        <ele>488.8</ele>
        <time>2020-03-28T19:28:52Z</time>
      </trkpt>
      <trkpt lat="42.6668350" lon="-1.9606660">
        <ele>489.1</ele>
        <time>2020-03-28T19:28:54Z</time>
      </trkpt>
      <trkpt lat="42.6668170" lon="-1.9607480">
        <ele>489.5</ele>
        <time>2020-03-28T19:28:56Z</time>
      </trkpt>
      <trkpt lat="42.6667980" lon="-1.9608320">
        <ele>489.8</ele>
        <time>2020-03-28T19:28:58Z</time>
      </trkpt>
      <trkpt lat="42.6667790" lon="-1.9609210">
        <ele>490.0</ele>
        <time>2020-03-28T19:29:00Z</time>
      </trkpt>
      <trkpt lat="42.6667190" lon="-1.9611940">
        <ele>490.3</ele>
        <time>2020-03-28T19:29:02Z</time>
      </trkpt>
      <trkpt lat="42.6667030" lon="-1.9612910">
        <ele>490.5</ele>
        <time>2020-03-28T19:29:04Z</time>
      </trkpt>
      <trkpt lat="42.6666850" lon="-1.9613950">
        <ele>490.7</ele>
        <time>2020-03-28T19:29:06Z</time>
      </trkpt>
      <trkpt lat="42.6666670" lon="-1.9615030">
        <ele>490.8</ele>
        <time>2020-03-28T19:29:08Z</time>
      </trkpt>
      <trkpt lat="42.6666470" lon="-1.9616180">
        <ele>491.1</ele>
        <time>2020-03-28T19:29:10Z</time>
      </trkpt>
      <trkpt lat="42.6666270" lon="-1.9617370">
        <ele>491.2</ele>
        <time>2020-03-28T19:29:12Z</time>
      </trkpt>
      <trkpt lat="42.6666060" lon="-1.9618600">
        <ele>491.3</ele>
        <time>2020-03-28T19:29:14Z</time>
      </trkpt>
      <trkpt lat="42.6665380" lon="-1.9622670">
        <ele>490.7</ele>
        <time>2020-03-28T19:29:16Z</time>
      </trkpt>
      <trkpt lat="42.6665220" lon="-1.9624000">
        <ele>490.7</ele>
        <time>2020-03-28T19:29:18Z</time>
      </trkpt>
      <trkpt lat="42.6665070" lon="-1.9625340">
        <ele>490.6</ele>
        <time>2020-03-28T19:29:20Z</time>
      </trkpt>
      <trkpt lat="42.6664910" lon="-1.9626710">
        <ele>490.6</ele>
        <time>2020-03-28T19:29:22Z</time>
      </trkpt>
      <trkpt lat="42.6664750" lon="-1.9628090">
        <ele>490.6</ele>
        <time>2020-03-28T19:29:24Z</time>
      </trkpt>
      <trkpt lat="42.6664330" lon="-1.9631660">
        <ele>490.6</ele>
        <time>2020-03-28T19:29:26Z</time>
      </trkpt>
      <trkpt lat="42.6664170" lon="-1.9633090">
        <ele>490.5</ele>
        <time>2020-03-28T19:29:28Z</time>
      </trkpt>
      <trkpt lat="42.6664000" lon="-1.9634500">
        <ele>490.3</ele>
        <time>2020-03-28T19:29:30Z</time>
      </trkpt>
      <trkpt lat="42.6663830" lon="-1.9635960">
        <ele>490.1</ele>
        <time>2020-03-28T19:29:32Z</time>
      </trkpt>
      <trkpt lat="42.6663480" lon="-1.9639600">
        <ele>489.7</ele>
        <time>2020-03-28T19:29:34Z</time>
      </trkpt>
      <trkpt lat="42.6663430" lon="-1.9641210">
        <ele>489.6</ele>
        <time>2020-03-28T19:29:36Z</time>
      </trkpt>
      <trkpt lat="42.6663390" lon="-1.9642920">
        <ele>489.5</ele>
        <time>2020-03-28T19:29:38Z</time>
      </trkpt>
      <trkpt lat="42.6663340" lon="-1.9644740">
        <ele>489.1</ele>
        <time>2020-03-28T19:29:40Z</time>
      </trkpt>
      <trkpt lat="42.6663280" lon="-1.9646650">
        <ele>488.6</ele>
        <time>2020-03-28T19:29:42Z</time>
      </trkpt>
      <trkpt lat="42.6663230" lon="-1.9651520">
        <ele>487.3</ele>
        <time>2020-03-28T19:29:44Z</time>
      </trkpt>
      <trkpt lat="42.6663270" lon="-1.9653570">
        <ele>486.7</ele>
        <time>2020-03-28T19:29:46Z</time>
      </trkpt>
      <trkpt lat="42.6663310" lon="-1.9655710">
        <ele>486.1</ele>
        <time>2020-03-28T19:29:48Z</time>
      </trkpt>
      <trkpt lat="42.6663350" lon="-1.9657880">
        <ele>485.4</ele>
        <time>2020-03-28T19:29:50Z</time>
      </trkpt>
      <trkpt lat="42.6663440" lon="-1.9663070">
        <ele>484.4</ele>
        <time>2020-03-28T19:29:52Z</time>
      </trkpt>
      <trkpt lat="42.6663480" lon="-1.9665360">
        <ele>483.9</ele>
        <time>2020-03-28T19:29:54Z</time>
      </trkpt>
      <trkpt lat="42.6663520" lon="-1.9667660">
        <ele>483.3</ele>
        <time>2020-03-28T19:29:56Z</time>
      </trkpt>
      <trkpt lat="42.6663640" lon="-1.9672960">
        <ele>481.3</ele>
        <time>2020-03-28T19:29:58Z</time>
      </trkpt>
      <trkpt lat="42.6663730" lon="-1.9675340">
        <ele>480.5</ele>
        <time>2020-03-28T19:30:00Z</time>
      </trkpt>
      <trkpt lat="42.6663830" lon="-1.9677750">
        <ele>479.8</ele>
        <time>2020-03-28T19:30:02Z</time>
      </trkpt>
      <trkpt lat="42.6664050" lon="-1.9682850">
        <ele>478.1</ele>
        <time>2020-03-28T19:30:04Z</time>
      </trkpt>
      <trkpt lat="42.6664250" lon="-1.9685310">
        <ele>477.4</ele>
        <time>2020-03-28T19:30:06Z</time>
      </trkpt>
      <trkpt lat="42.6664610" lon="-1.9689790">
        <ele>476.2</ele>
        <time>2020-03-28T19:30:08Z</time>
      </trkpt>
      <trkpt lat="42.6664930" lon="-1.9692320">
        <ele>475.6</ele>
        <time>2020-03-28T19:30:10Z</time>
      </trkpt>
      <trkpt lat="42.6665260" lon="-1.9694880">
        <ele>475.1</ele>
        <time>2020-03-28T19:30:12Z</time>
      </trkpt>
      <trkpt lat="42.6665590" lon="-1.9697460">
        <ele>474.6</ele>
        <time>2020-03-28T19:30:14Z</time>
      </trkpt>
      <trkpt lat="42.6666300" lon="-1.9703040">
        <ele>473.2</ele>
        <time>2020-03-28T19:30:16Z</time>
      </trkpt>
      <trkpt lat="42.6666620" lon="-1.9705520">
        <ele>472.5</ele>
        <time>2020-03-28T19:30:18Z</time>
      </trkpt>
      <trkpt lat="42.6666930" lon="-1.9707930">
        <ele>471.9</ele>
        <time>2020-03-28T19:30:20Z</time>
      </trkpt>
      <trkpt lat="42.6667520" lon="-1.9713290">
        <ele>470.1</ele>
        <time>2020-03-28T19:30:22Z</time>
      </trkpt>
      <trkpt lat="42.6667570" lon="-1.9715640">
        <ele>469.4</ele>
        <time>2020-03-28T19:30:24Z</time>
      </trkpt>
      <trkpt lat="42.6667610" lon="-1.9717960">
        <ele>468.7</ele>
        <time>2020-03-28T19:30:26Z</time>
      </trkpt>
      <trkpt lat="42.6667600" lon="-1.9722840">
        <ele>467.3</ele>
        <time>2020-03-28T19:30:28Z</time>
      </trkpt>
      <trkpt lat="42.6667220" lon="-1.9725130">
        <ele>466.8</ele>
        <time>2020-03-28T19:30:30Z</time>
      </trkpt>
      <trkpt lat="42.6666450" lon="-1.9728840">
        <ele>466.1</ele>
        <time>2020-03-28T19:30:32Z</time>
      </trkpt>
      <trkpt lat="42.6665760" lon="-1.9731060">
        <ele>465.8</ele>
        <time>2020-03-28T19:30:34Z</time>
      </trkpt>
      <trkpt lat="42.6664540" lon="-1.9734730">
        <ele>464.9</ele>
        <time>2020-03-28T19:30:36Z</time>
      </trkpt>
      <trkpt lat="42.6663220" lon="-1.9738200">
        <ele>463.6</ele>
        <time>2020-03-28T19:30:38Z</time>
      </trkpt>
      <trkpt lat="42.6662150" lon="-1.9740210">
        <ele>462.6</ele>
        <time>2020-03-28T19:30:40Z</time>
      </trkpt>
      <trkpt lat="42.6660430" lon="-1.9743390">
        <ele>461.0</ele>
        <time>2020-03-28T19:30:42Z</time>
      </trkpt>
      <trkpt lat="42.6658770" lon="-1.9746340">
        <ele>459.7</ele>
        <time>2020-03-28T19:30:44Z</time>
      </trkpt>
      <trkpt lat="42.6657080" lon="-1.9748530">
        <ele>458.7</ele>
        <time>2020-03-28T19:30:46Z</time>
      </trkpt>
      <trkpt lat="42.6654960" lon="-1.9750480">
        <ele>457.4</ele>
        <time>2020-03-28T19:30:48Z</time>
      </trkpt>
      <trkpt lat="42.6652790" lon="-1.9751720">
        <ele>456.3</ele>
        <time>2020-03-28T19:30:50Z</time>
      </trkpt>
      <trkpt lat="42.6650980" lon="-1.9752460">
        <ele>455.6</ele>
        <time>2020-03-28T19:30:52Z</time>
      </trkpt>
      <trkpt lat="42.6648070" lon="-1.9754380">
        <ele>454.3</ele>
        <time>2020-03-28T19:30:54Z</time>
      </trkpt>
      <trkpt lat="42.6647430" lon="-1.9757720">
        <ele>452.8</ele>
        <time>2020-03-28T19:30:56Z</time>
      </trkpt>
      <trkpt lat="42.6649790" lon="-1.9758250">
        <ele>452.9</ele>
        <time>2020-03-28T19:30:58Z</time>
      </trkpt>
      <trkpt lat="42.6650580" lon="-1.9761210">
        <ele>450.9</ele>
        <time>2020-03-28T19:31:00Z</time>
      </trkpt>
      <trkpt lat="42.6650610" lon="-1.9764240">
        <ele>450.8</ele>
        <time>2020-03-28T19:31:02Z</time>
      </trkpt>
      <trkpt lat="42.6651340" lon="-1.9766350">
        <ele>452.4</ele>
        <time>2020-03-28T19:31:04Z</time>
      </trkpt>
      <trkpt lat="42.6652490" lon="-1.9769610">
        <ele>453.6</ele>
        <time>2020-03-28T19:31:06Z</time>
      </trkpt>
      <trkpt lat="42.6653160" lon="-1.9771360">
        <ele>454.0</ele>
        <time>2020-03-28T19:31:08Z</time>
      </trkpt>
      <trkpt lat="42.6654260" lon="-1.9774160">
        <ele>454.5</ele>
        <time>2020-03-28T19:31:10Z</time>
      </trkpt>
      <trkpt lat="42.6654900" lon="-1.9775700">
        <ele>454.4</ele>
        <time>2020-03-28T19:31:12Z</time>
      </trkpt>
      <trkpt lat="42.6656040" lon="-1.9778400">
        <ele>454.2</ele>
        <time>2020-03-28T19:31:14Z</time>
      </trkpt>
      <trkpt lat="42.6657040" lon="-1.9780180">
        <ele>454.1</ele>
        <time>2020-03-28T19:31:16Z</time>
      </trkpt>
      <trkpt lat="42.6657980" lon="-1.9782080">
        <ele>454.0</ele>
        <time>2020-03-28T19:31:18Z</time>
      </trkpt>
      <trkpt lat="42.6657660" lon="-1.9783720">
        <ele>453.7</ele>
        <time>2020-03-28T19:31:20Z</time>
      </trkpt>
      <trkpt lat="42.6657140" lon="-1.9786420">
        <ele>453.3</ele>
        <time>2020-03-28T19:31:22Z</time>
      </trkpt>
      <trkpt lat="42.6656660" lon="-1.9788800">
        <ele>452.8</ele>
        <time>2020-03-28T19:31:24Z</time>
      </trkpt>
      <trkpt lat="42.6656210" lon="-1.9791210">
        <ele>452.3</ele>
        <time>2020-03-28T19:31:26Z</time>
      </trkpt>
      <trkpt lat="42.6655880" lon="-1.9793180">
        <ele>451.5</ele>
        <time>2020-03-28T19:31:28Z</time>
      </trkpt>
      <trkpt lat="42.6655360" lon="-1.9796390">
        <ele>450.3</ele>
        <time>2020-03-28T19:31:30Z</time>
      </trkpt>
      <trkpt lat="42.6654850" lon="-1.9799620">
        <ele>449.4</ele>
        <time>2020-03-28T19:31:32Z</time>
      </trkpt>
      <trkpt lat="42.6654490" lon="-1.9801820">
        <ele>449.3</ele>
        <time>2020-03-28T19:31:34Z</time>
      </trkpt>
      <trkpt lat="42.6654140" lon="-1.9804020">
        <ele>449.2</ele>
        <time>2020-03-28T19:31:36Z</time>
      </trkpt>
      <trkpt lat="42.6653450" lon="-1.9808250">
        <ele>449.1</ele>
        <time>2020-03-28T19:31:38Z</time>
      </trkpt>
      <trkpt lat="42.6652980" lon="-1.9811190">
        <ele>448.9</ele>
        <time>2020-03-28T19:31:40Z</time>
      </trkpt>
      <trkpt lat="42.6652620" lon="-1.9813440">
        <ele>448.4</ele>
        <time>2020-03-28T19:31:42Z</time>
      </trkpt>
      <trkpt lat="42.6652250" lon="-1.9815720">
        <ele>447.8</ele>
        <time>2020-03-28T19:31:44Z</time>
      </trkpt>
      <trkpt lat="42.6651500" lon="-1.9820450">
        <ele>445.4</ele>
        <time>2020-03-28T19:31:46Z</time>
      </trkpt>
      <trkpt lat="42.6651140" lon="-1.9822860">
        <ele>443.7</ele>
        <time>2020-03-28T19:31:48Z</time>
      </trkpt>
      <trkpt lat="42.6650760" lon="-1.9825350">
        <ele>442.7</ele>
        <time>2020-03-28T19:31:50Z</time>
      </trkpt>
      <trkpt lat="42.6649890" lon="-1.9831110">
        <ele>440.8</ele>
        <time>2020-03-28T19:31:52Z</time>
      </trkpt>
      <trkpt lat="42.6649480" lon="-1.9833700">
        <ele>440.0</ele>
        <time>2020-03-28T19:31:54Z</time>
      </trkpt>
      <trkpt lat="42.6648790" lon="-1.9838100">
        <ele>438.4</ele>
        <time>2020-03-28T19:31:56Z</time>
      </trkpt>
      <trkpt lat="42.6648380" lon="-1.9840800">
        <ele>437.1</ele>
        <time>2020-03-28T19:31:58Z</time>
      </trkpt>
      <trkpt lat="42.6647780" lon="-1.9844700">
        <ele>435.3</ele>
        <time>2020-03-28T19:32:00Z</time>
      </trkpt>
      <trkpt lat="42.6647390" lon="-1.9847220">
        <ele>434.4</ele>
        <time>2020-03-28T19:32:02Z</time>
      </trkpt>
      <trkpt lat="42.6647030" lon="-1.9849610">
        <ele>433.7</ele>
        <time>2020-03-28T19:32:04Z</time>
      </trkpt>
      <trkpt lat="42.6646200" lon="-1.9855040">
        <ele>432.7</ele>
        <time>2020-03-28T19:32:06Z</time>
      </trkpt>
      <trkpt lat="42.6645850" lon="-1.9857310">
        <ele>432.3</ele>
        <time>2020-03-28T19:32:08Z</time>
      </trkpt>
      <trkpt lat="42.6645260" lon="-1.9861160">
        <ele>431.7</ele>
        <time>2020-03-28T19:32:10Z</time>
      </trkpt>
      <trkpt lat="42.6644900" lon="-1.9863350">
        <ele>432.1</ele>
        <time>2020-03-28T19:32:12Z</time>
      </trkpt>
      <trkpt lat="42.6644320" lon="-1.9866950">
        <ele>432.6</ele>
        <time>2020-03-28T19:32:14Z</time>
      </trkpt>
      <trkpt lat="42.6643990" lon="-1.9869000">
        <ele>432.7</ele>
        <time>2020-03-28T19:32:16Z</time>
      </trkpt>
      <trkpt lat="42.6643680" lon="-1.9870920">
        <ele>432.7</ele>
        <time>2020-03-28T19:32:18Z</time>
      </trkpt>
      <trkpt lat="42.6643040" lon="-1.9874880">
        <ele>432.9</ele>
        <time>2020-03-28T19:32:20Z</time>
      </trkpt>
      <trkpt lat="42.6642610" lon="-1.9877650">
        <ele>433.2</ele>
        <time>2020-03-28T19:32:22Z</time>
      </trkpt>
      <trkpt lat="42.6642290" lon="-1.9879780">
        <ele>433.5</ele>
        <time>2020-03-28T19:32:24Z</time>
      </trkpt>
      <trkpt lat="42.6641910" lon="-1.9882210">
        <ele>433.8</ele>
        <time>2020-03-28T19:32:26Z</time>
      </trkpt>
      <trkpt lat="42.6641480" lon="-1.9885010">
        <ele>434.0</ele>
        <time>2020-03-28T19:32:28Z</time>
      </trkpt>
      <trkpt lat="42.6641180" lon="-1.9887400">
        <ele>434.0</ele>
        <time>2020-03-28T19:32:30Z</time>
      </trkpt>
      <trkpt lat="42.6640820" lon="-1.9890160">
        <ele>433.8</ele>
        <time>2020-03-28T19:32:32Z</time>
      </trkpt>
      <trkpt lat="42.6640430" lon="-1.9892790">
        <ele>432.1</ele>
        <time>2020-03-28T19:32:34Z</time>
      </trkpt>
      <trkpt lat="42.6640090" lon="-1.9894950">
        <ele>430.2</ele>
        <time>2020-03-28T19:32:36Z</time>
      </trkpt>
      <trkpt lat="42.6639490" lon="-1.9898760">
        <ele>428.5</ele>
        <time>2020-03-28T19:32:38Z</time>
      </trkpt>
      <trkpt lat="42.6639130" lon="-1.9901020">
        <ele>427.7</ele>
        <time>2020-03-28T19:32:40Z</time>
      </trkpt>
      <trkpt lat="42.6638430" lon="-1.9905440">
        <ele>427.0</ele>
        <time>2020-03-28T19:32:42Z</time>
      </trkpt>
      <trkpt lat="42.6637910" lon="-1.9908660">
        <ele>426.2</ele>
        <time>2020-03-28T19:32:44Z</time>
      </trkpt>
      <trkpt lat="42.6637240" lon="-1.9911730">
        <ele>426.3</ele>
        <time>2020-03-28T19:32:46Z</time>
      </trkpt>
      <trkpt lat="42.6636600" lon="-1.9913690">
        <ele>426.5</ele>
        <time>2020-03-28T19:32:48Z</time>
      </trkpt>
      <trkpt lat="42.6635550" lon="-1.9916710">
        <ele>426.9</ele>
        <time>2020-03-28T19:32:50Z</time>
      </trkpt>
      <trkpt lat="42.6634760" lon="-1.9918570">
        <ele>427.2</ele>
        <time>2020-03-28T19:32:53Z</time>
      </trkpt>
      <trkpt lat="42.6633610" lon="-1.9921030">
        <ele>427.7</ele>
        <time>2020-03-28T19:32:55Z</time>
      </trkpt>
      <trkpt lat="42.6632870" lon="-1.9922480">
        <ele>428.0</ele>
        <time>2020-03-28T19:32:57Z</time>
      </trkpt>
      <trkpt lat="42.6632220" lon="-1.9923630">
        <ele>428.2</ele>
        <time>2020-03-28T19:32:59Z</time>
      </trkpt>
      <trkpt lat="42.6631070" lon="-1.9925700">
        <ele>428.7</ele>
        <time>2020-03-28T19:33:01Z</time>
      </trkpt>
      <trkpt lat="42.6630370" lon="-1.9927100">
        <ele>428.9</ele>
        <time>2020-03-28T19:33:03Z</time>
      </trkpt>
      <trkpt lat="42.6629990" lon="-1.9928410">
        <ele>429.5</ele>
        <time>2020-03-28T19:33:05Z</time>
      </trkpt>
      <trkpt lat="42.6629720" lon="-1.9929820">
        <ele>430.1</ele>
        <time>2020-03-28T19:33:07Z</time>
      </trkpt>
      <trkpt lat="42.6629640" lon="-1.9931440">
        <ele>431.0</ele>
        <time>2020-03-28T19:33:09Z</time>
      </trkpt>
      <trkpt lat="42.6628700" lon="-1.9932320">
        <ele>431.6</ele>
        <time>2020-03-28T19:33:11Z</time>
      </trkpt>
      <trkpt lat="42.6627760" lon="-1.9932890">
        <ele>432.1</ele>
        <time>2020-03-28T19:33:13Z</time>
      </trkpt>
      <trkpt lat="42.6626870" lon="-1.9933930">
        <ele>432.7</ele>
        <time>2020-03-28T19:33:15Z</time>
      </trkpt>
      <trkpt lat="42.6626250" lon="-1.9934920">
        <ele>433.4</ele>
        <time>2020-03-28T19:33:17Z</time>
      </trkpt>
      <trkpt lat="42.6625850" lon="-1.9935780">
        <ele>434.1</ele>
        <time>2020-03-28T19:33:19Z</time>
      </trkpt>
      <trkpt lat="42.6625460" lon="-1.9936620">
        <ele>434.7</ele>
        <time>2020-03-28T19:33:21Z</time>
      </trkpt>
      <trkpt lat="42.6625080" lon="-1.9937440">
        <ele>435.4</ele>
        <time>2020-03-28T19:33:23Z</time>
      </trkpt>
      <trkpt lat="42.6624710" lon="-1.9938250">
        <ele>436.0</ele>
        <time>2020-03-28T19:33:25Z</time>
      </trkpt>
      <trkpt lat="42.6623620" lon="-1.9940600">
        <ele>437.8</ele>
        <time>2020-03-28T19:33:27Z</time>
      </trkpt>
      <trkpt lat="42.6623270" lon="-1.9941380">
        <ele>438.4</ele>
        <time>2020-03-28T19:33:29Z</time>
      </trkpt>
      <trkpt lat="42.6622910" lon="-1.9942160">
        <ele>439.0</ele>
        <time>2020-03-28T19:33:31Z</time>
      </trkpt>
      <trkpt lat="42.6622250" lon="-1.9943660">
        <ele>440.1</ele>
        <time>2020-03-28T19:33:33Z</time>
      </trkpt>
      <trkpt lat="42.6621920" lon="-1.9944450">
        <ele>440.4</ele>
        <time>2020-03-28T19:33:35Z</time>
      </trkpt>
      <trkpt lat="42.6621590" lon="-1.9945230">
        <ele>440.7</ele>
        <time>2020-03-28T19:33:37Z</time>
      </trkpt>
      <trkpt lat="42.6620960" lon="-1.9946960">
        <ele>441.6</ele>
        <time>2020-03-28T19:33:39Z</time>
      </trkpt>
      <trkpt lat="42.6620660" lon="-1.9947970">
        <ele>442.2</ele>
        <time>2020-03-28T19:33:41Z</time>
      </trkpt>
      <trkpt lat="42.6620250" lon="-1.9949850">
        <ele>443.2</ele>
        <time>2020-03-28T19:33:43Z</time>
      </trkpt>
      <trkpt lat="42.6620200" lon="-1.9951450">
        <ele>443.7</ele>
        <time>2020-03-28T19:33:45Z</time>
      </trkpt>
      <trkpt lat="42.6620640" lon="-1.9952800">
        <ele>444.0</ele>
        <time>2020-03-28T19:33:47Z</time>
      </trkpt>
      <trkpt lat="42.6620410" lon="-1.9954180">
        <ele>444.3</ele>
        <time>2020-03-28T19:33:49Z</time>
      </trkpt>
      <trkpt lat="42.6619710" lon="-1.9955330">
        <ele>444.5</ele>
        <time>2020-03-28T19:33:51Z</time>
      </trkpt>
      <trkpt lat="42.6619300" lon="-1.9956670">
        <ele>444.8</ele>
        <time>2020-03-28T19:33:53Z</time>
      </trkpt>
      <trkpt lat="42.6619020" lon="-1.9958120">
        <ele>445.0</ele>
        <time>2020-03-28T19:33:55Z</time>
      </trkpt>
      <trkpt lat="42.6618940" lon="-1.9959190">
        <ele>445.0</ele>
        <time>2020-03-28T19:33:57Z</time>
      </trkpt>
      <trkpt lat="42.6618860" lon="-1.9960310">
        <ele>445.0</ele>
        <time>2020-03-28T19:33:59Z</time>
      </trkpt>
      <trkpt lat="42.6618780" lon="-1.9961470">
        <ele>444.9</ele>
        <time>2020-03-28T19:34:01Z</time>
      </trkpt>
      <trkpt lat="42.6618700" lon="-1.9962660">
        <ele>444.9</ele>
        <time>2020-03-28T19:34:03Z</time>
      </trkpt>
      <trkpt lat="42.6618610" lon="-1.9963870">
        <ele>444.9</ele>
        <time>2020-03-28T19:34:05Z</time>
      </trkpt>
      <trkpt lat="42.6618530" lon="-1.9965090">
        <ele>444.9</ele>
        <time>2020-03-28T19:34:07Z</time>
      </trkpt>
      <trkpt lat="42.6618260" lon="-1.9969050">
        <ele>444.8</ele>
        <time>2020-03-28T19:34:09Z</time>
      </trkpt>
      <trkpt lat="42.6618140" lon="-1.9970630">
        <ele>445.0</ele>
        <time>2020-03-28T19:34:11Z</time>
      </trkpt>
      <trkpt lat="42.6618050" lon="-1.9971880">
        <ele>445.3</ele>
        <time>2020-03-28T19:34:13Z</time>
      </trkpt>
      <trkpt lat="42.6617880" lon="-1.9974080">
        <ele>445.6</ele>
        <time>2020-03-28T19:34:15Z</time>
      </trkpt>
      <trkpt lat="42.6617720" lon="-1.9976140">
        <ele>445.5</ele>
        <time>2020-03-28T19:34:17Z</time>
      </trkpt>
      <trkpt lat="42.6617620" lon="-1.9977380">
        <ele>445.3</ele>
        <time>2020-03-28T19:34:19Z</time>
      </trkpt>
      <trkpt lat="42.6617540" lon="-1.9979240">
        <ele>445.3</ele>
        <time>2020-03-28T19:34:21Z</time>
      </trkpt>
      <trkpt lat="42.6617580" lon="-1.9980430">
        <ele>445.7</ele>
        <time>2020-03-28T19:34:23Z</time>
      </trkpt>
      <trkpt lat="42.6617610" lon="-1.9981570">
        <ele>445.9</ele>
        <time>2020-03-28T19:34:25Z</time>
      </trkpt>
      <trkpt lat="42.6617640" lon="-1.9982690">
        <ele>446.2</ele>
        <time>2020-03-28T19:34:27Z</time>
      </trkpt>
      <trkpt lat="42.6617720" lon="-1.9985280">
        <ele>447.0</ele>
        <time>2020-03-28T19:34:29Z</time>
      </trkpt>
      <trkpt lat="42.6617750" lon="-1.9986350">
        <ele>447.5</ele>
        <time>2020-03-28T19:34:31Z</time>
      </trkpt>
      <trkpt lat="42.6617810" lon="-1.9988560">
        <ele>448.3</ele>
        <time>2020-03-28T19:34:33Z</time>
      </trkpt>
      <trkpt lat="42.6617840" lon="-1.9989580">
        <ele>448.4</ele>
        <time>2020-03-28T19:34:35Z</time>
      </trkpt>
      <trkpt lat="42.6617870" lon="-1.9990570">
        <ele>448.5</ele>
        <time>2020-03-28T19:34:37Z</time>
      </trkpt>
      <trkpt lat="42.6617900" lon="-1.9991540">
        <ele>448.7</ele>
        <time>2020-03-28T19:34:39Z</time>
      </trkpt>
      <trkpt lat="42.6617920" lon="-1.9992480">
        <ele>448.9</ele>
        <time>2020-03-28T19:34:41Z</time>
      </trkpt>
      <trkpt lat="42.6617950" lon="-1.9993390">
        <ele>449.0</ele>
        <time>2020-03-28T19:34:43Z</time>
      </trkpt>
      <trkpt lat="42.6618020" lon="-1.9996310">
        <ele>449.5</ele>
        <time>2020-03-28T19:34:45Z</time>
      </trkpt>
      <trkpt lat="42.6618010" lon="-1.9997250">
        <ele>449.6</ele>
        <time>2020-03-28T19:34:47Z</time>
      </trkpt>
      <trkpt lat="42.6618010" lon="-1.9998130">
        <ele>449.8</ele>
        <time>2020-03-28T19:34:49Z</time>
      </trkpt>
      <trkpt lat="42.6618000" lon="-1.9999000">
        <ele>449.9</ele>
        <time>2020-03-28T19:34:51Z</time>
      </trkpt>
      <trkpt lat="42.6618000" lon="-1.9999860">
        <ele>450.1</ele>
        <time>2020-03-28T19:34:53Z</time>
      </trkpt>
      <trkpt lat="42.6617990" lon="-2.0000710">
        <ele>450.2</ele>
        <time>2020-03-28T19:34:55Z</time>
      </trkpt>
      <trkpt lat="42.6617920" lon="-2.0003240">
        <ele>450.5</ele>
        <time>2020-03-28T19:34:57Z</time>
      </trkpt>
      <trkpt lat="42.6617860" lon="-2.0004210">
        <ele>450.6</ele>
        <time>2020-03-28T19:34:59Z</time>
      </trkpt>
      <trkpt lat="42.6617790" lon="-2.0005280">
        <ele>450.8</ele>
        <time>2020-03-28T19:35:01Z</time>
      </trkpt>
      <trkpt lat="42.6617720" lon="-2.0006430">
        <ele>451.0</ele>
        <time>2020-03-28T19:35:03Z</time>
      </trkpt>
      <trkpt lat="42.6617640" lon="-2.0007660">
        <ele>451.2</ele>
        <time>2020-03-28T19:35:05Z</time>
      </trkpt>
      <trkpt lat="42.6617370" lon="-2.0010760">
        <ele>451.5</ele>
        <time>2020-03-28T19:35:07Z</time>
      </trkpt>
      <trkpt lat="42.6617220" lon="-2.0012090">
        <ele>451.5</ele>
        <time>2020-03-28T19:35:09Z</time>
      </trkpt>
      <trkpt lat="42.6617050" lon="-2.0013480">
        <ele>451.5</ele>
        <time>2020-03-28T19:35:11Z</time>
      </trkpt>
      <trkpt lat="42.6616690" lon="-2.0016600">
        <ele>451.5</ele>
        <time>2020-03-28T19:35:13Z</time>
      </trkpt>
      <trkpt lat="42.6616520" lon="-2.0018050">
        <ele>451.6</ele>
        <time>2020-03-28T19:35:15Z</time>
      </trkpt>
      <trkpt lat="42.6616340" lon="-2.0019560">
        <ele>451.6</ele>
        <time>2020-03-28T19:35:17Z</time>
      </trkpt>
      <trkpt lat="42.6616010" lon="-2.0022470">
        <ele>451.4</ele>
        <time>2020-03-28T19:35:19Z</time>
      </trkpt>
      <trkpt lat="42.6615740" lon="-2.0024780">
        <ele>451.0</ele>
        <time>2020-03-28T19:35:21Z</time>
      </trkpt>
      <trkpt lat="42.6615540" lon="-2.0026370">
        <ele>450.7</ele>
        <time>2020-03-28T19:35:23Z</time>
      </trkpt>
      <trkpt lat="42.6615340" lon="-2.0027950">
        <ele>450.5</ele>
        <time>2020-03-28T19:35:25Z</time>
      </trkpt>
      <trkpt lat="42.6614900" lon="-2.0031510">
        <ele>449.8</ele>
        <time>2020-03-28T19:35:27Z</time>
      </trkpt>
      <trkpt lat="42.6614690" lon="-2.0033500">
        <ele>449.6</ele>
        <time>2020-03-28T19:35:29Z</time>
      </trkpt>
      <trkpt lat="42.6614480" lon="-2.0035700">
        <ele>449.2</ele>
        <time>2020-03-28T19:35:31Z</time>
      </trkpt>
      <trkpt lat="42.6614370" lon="-2.0037480">
        <ele>448.7</ele>
        <time>2020-03-28T19:35:33Z</time>
      </trkpt>
      <trkpt lat="42.6614270" lon="-2.0040480">
        <ele>447.9</ele>
        <time>2020-03-28T19:35:35Z</time>
      </trkpt>
      <trkpt lat="42.6614420" lon="-2.0043030">
        <ele>447.1</ele>
        <time>2020-03-28T19:35:37Z</time>
      </trkpt>
      <trkpt lat="42.6614750" lon="-2.0045800">
        <ele>446.1</ele>
        <time>2020-03-28T19:35:39Z</time>
      </trkpt>
      <trkpt lat="42.6615410" lon="-2.0049070">
        <ele>445.0</ele>
        <time>2020-03-28T19:35:41Z</time>
      </trkpt>
      <trkpt lat="42.6616120" lon="-2.0051720">
        <ele>443.7</ele>
        <time>2020-03-28T19:35:43Z</time>
      </trkpt>
      <trkpt lat="42.6617290" lon="-2.0055060">
        <ele>442.2</ele>
        <time>2020-03-28T19:35:45Z</time>
      </trkpt>
      <trkpt lat="42.6618810" lon="-2.0058170">
        <ele>439.6</ele>
        <time>2020-03-28T19:35:47Z</time>
      </trkpt>
      <trkpt lat="42.6620580" lon="-2.0060850">
        <ele>437.1</ele>
        <time>2020-03-28T19:35:49Z</time>
      </trkpt>
      <trkpt lat="42.6622850" lon="-2.0063770">
        <ele>434.0</ele>
        <time>2020-03-28T19:35:51Z</time>
      </trkpt>
      <trkpt lat="42.6625240" lon="-2.0066050">
        <ele>431.7</ele>
        <time>2020-03-28T19:35:53Z</time>
      </trkpt>
      <trkpt lat="42.6628300" lon="-2.0068100">
        <ele>428.9</ele>
        <time>2020-03-28T19:35:55Z</time>
      </trkpt>
      <trkpt lat="42.6630950" lon="-2.0069270">
        <ele>427.4</ele>
        <time>2020-03-28T19:35:57Z</time>
      </trkpt>
      <trkpt lat="42.6633770" lon="-2.0070320">
        <ele>425.9</ele>
        <time>2020-03-28T19:35:59Z</time>
      </trkpt>
      <trkpt lat="42.6637210" lon="-2.0071550">
        <ele>424.9</ele>
        <time>2020-03-28T19:36:01Z</time>
      </trkpt>
      <trkpt lat="42.6639160" lon="-2.0072240">
        <ele>424.5</ele>
        <time>2020-03-28T19:36:03Z</time>
      </trkpt>
      <trkpt lat="42.6640990" lon="-2.0072900">
        <ele>424.2</ele>
        <time>2020-03-28T19:36:05Z</time>
      </trkpt>
      <trkpt lat="42.6642730" lon="-2.0073520">
        <ele>424.1</ele>
        <time>2020-03-28T19:36:07Z</time>
      </trkpt>
      <trkpt lat="42.6646390" lon="-2.0075230">
        <ele>424.7</ele>
        <time>2020-03-28T19:36:09Z</time>
      </trkpt>
      <trkpt lat="42.6647820" lon="-2.0076240">
        <ele>425.0</ele>
        <time>2020-03-28T19:36:11Z</time>
      </trkpt>
      <trkpt lat="42.6650080" lon="-2.0078090">
        <ele>425.6</ele>
        <time>2020-03-28T19:36:13Z</time>
      </trkpt>
      <trkpt lat="42.6651840" lon="-2.0079770">
        <ele>426.0</ele>
        <time>2020-03-28T19:36:15Z</time>
      </trkpt>
      <trkpt lat="42.6653490" lon="-2.0081430">
        <ele>426.5</ele>
        <time>2020-03-28T19:36:17Z</time>
      </trkpt>
      <trkpt lat="42.6654480" lon="-2.0082520">
        <ele>427.1</ele>
        <time>2020-03-28T19:36:19Z</time>
      </trkpt>
      <trkpt lat="42.6655830" lon="-2.0084230">
        <ele>428.2</ele>
        <time>2020-03-28T19:36:21Z</time>
      </trkpt>
      <trkpt lat="42.6656590" lon="-2.0085340">
        <ele>428.9</ele>
        <time>2020-03-28T19:36:23Z</time>
      </trkpt>
      <trkpt lat="42.6657640" lon="-2.0087440">
        <ele>429.6</ele>
        <time>2020-03-28T19:36:25Z</time>
      </trkpt>
      <trkpt lat="42.6658120" lon="-2.0089230">
        <ele>429.7</ele>
        <time>2020-03-28T19:36:27Z</time>
      </trkpt>
      <trkpt lat="42.6658360" lon="-2.0090580">
        <ele>429.6</ele>
        <time>2020-03-28T19:36:29Z</time>
      </trkpt>
      <trkpt lat="42.6658520" lon="-2.0092840">
        <ele>429.4</ele>
        <time>2020-03-28T19:36:31Z</time>
      </trkpt>
      <trkpt lat="42.6658410" lon="-2.0095090">
        <ele>429.2</ele>
        <time>2020-03-28T19:36:33Z</time>
      </trkpt>
      <trkpt lat="42.6658280" lon="-2.0096510">
        <ele>429.1</ele>
        <time>2020-03-28T19:36:35Z</time>
      </trkpt>
      <trkpt lat="42.6658140" lon="-2.0097940">
        <ele>428.9</ele>
        <time>2020-03-28T19:36:37Z</time>
      </trkpt>
      <trkpt lat="42.6658000" lon="-2.0099360">
        <ele>428.8</ele>
        <time>2020-03-28T19:36:39Z</time>
      </trkpt>
      <trkpt lat="42.6657720" lon="-2.0102490">
        <ele>428.5</ele>
        <time>2020-03-28T19:36:41Z</time>
      </trkpt>
      <trkpt lat="42.6657550" lon="-2.0104540">
        <ele>428.3</ele>
        <time>2020-03-28T19:36:43Z</time>
      </trkpt>
      <trkpt lat="42.6657420" lon="-2.0106100">
        <ele>428.2</ele>
        <time>2020-03-28T19:36:45Z</time>
      </trkpt>
      <trkpt lat="42.6657290" lon="-2.0107710">
        <ele>428.1</ele>
        <time>2020-03-28T19:36:47Z</time>
      </trkpt>
      <trkpt lat="42.6657160" lon="-2.0109400">
        <ele>427.9</ele>
        <time>2020-03-28T19:36:49Z</time>
      </trkpt>
      <trkpt lat="42.6656770" lon="-2.0113380">
        <ele>427.5</ele>
        <time>2020-03-28T19:36:51Z</time>
      </trkpt>
      <trkpt lat="42.6656560" lon="-2.0115150">
        <ele>427.4</ele>
        <time>2020-03-28T19:36:53Z</time>
      </trkpt>
      <trkpt lat="42.6656340" lon="-2.0116960">
        <ele>427.2</ele>
        <time>2020-03-28T19:36:55Z</time>
      </trkpt>
      <trkpt lat="42.6656130" lon="-2.0118810">
        <ele>427.1</ele>
        <time>2020-03-28T19:36:57Z</time>
      </trkpt>
      <trkpt lat="42.6655540" lon="-2.0123750">
        <ele>426.6</ele>
        <time>2020-03-28T19:36:59Z</time>
      </trkpt>
      <trkpt lat="42.6655330" lon="-2.0125600">
        <ele>426.4</ele>
        <time>2020-03-28T19:37:01Z</time>
      </trkpt>
      <trkpt lat="42.6654990" lon="-2.0128480">
        <ele>426.2</ele>
        <time>2020-03-28T19:37:03Z</time>
      </trkpt>
      <trkpt lat="42.6654780" lon="-2.0130220">
        <ele>426.0</ele>
        <time>2020-03-28T19:37:05Z</time>
      </trkpt>
      <trkpt lat="42.6654580" lon="-2.0131900">
        <ele>425.9</ele>
        <time>2020-03-28T19:37:07Z</time>
      </trkpt>
      <trkpt lat="42.6654090" lon="-2.0135490">
        <ele>426.1</ele>
        <time>2020-03-28T19:37:09Z</time>
      </trkpt>
      <trkpt lat="42.6653670" lon="-2.0137660">
        <ele>426.5</ele>
        <time>2020-03-28T19:37:11Z</time>
      </trkpt>
      <trkpt lat="42.6653110" lon="-2.0139520">
        <ele>427.0</ele>
        <time>2020-03-28T19:37:13Z</time>
      </trkpt>
      <trkpt lat="42.6652270" lon="-2.0141660">
        <ele>427.3</ele>
        <time>2020-03-28T19:37:15Z</time>
      </trkpt>
      <trkpt lat="42.6651620" lon="-2.0142980">
        <ele>427.5</ele>
        <time>2020-03-28T19:37:17Z</time>
      </trkpt>
      <trkpt lat="42.6650520" lon="-2.0145190">
        <ele>427.9</ele>
        <time>2020-03-28T19:37:19Z</time>
      </trkpt>
      <trkpt lat="42.6649750" lon="-2.0146360">
        <ele>428.0</ele>
        <time>2020-03-28T19:37:21Z</time>
      </trkpt>
      <trkpt lat="42.6648980" lon="-2.0147550">
        <ele>428.1</ele>
        <time>2020-03-28T19:37:23Z</time>
      </trkpt>
      <trkpt lat="42.6647560" lon="-2.0149730">
        <ele>427.5</ele>
        <time>2020-03-28T19:37:25Z</time>
      </trkpt>
      <trkpt lat="42.6646550" lon="-2.0151500">
        <ele>426.4</ele>
        <time>2020-03-28T19:37:27Z</time>
      </trkpt>
      <trkpt lat="42.6645580" lon="-2.0153750">
        <ele>425.3</ele>
        <time>2020-03-28T19:37:29Z</time>
      </trkpt>
      <trkpt lat="42.6645000" lon="-2.0156220">
        <ele>424.4</ele>
        <time>2020-03-28T19:37:31Z</time>
      </trkpt>
      <trkpt lat="42.6644780" lon="-2.0158170">
        <ele>424.0</ele>
        <time>2020-03-28T19:37:33Z</time>
      </trkpt>
      <trkpt lat="42.6644430" lon="-2.0161560">
        <ele>424.0</ele>
        <time>2020-03-28T19:37:35Z</time>
      </trkpt>
      <trkpt lat="42.6644270" lon="-2.0163480">
        <ele>424.2</ele>
        <time>2020-03-28T19:37:37Z</time>
      </trkpt>
      <trkpt lat="42.6644120" lon="-2.0165310">
        <ele>424.2</ele>
        <time>2020-03-28T19:37:39Z</time>
      </trkpt>
      <trkpt lat="42.6643820" lon="-2.0168870">
        <ele>424.4</ele>
        <time>2020-03-28T19:37:41Z</time>
      </trkpt>
      <trkpt lat="42.6643670" lon="-2.0170580">
        <ele>424.6</ele>
        <time>2020-03-28T19:37:43Z</time>
      </trkpt>
      <trkpt lat="42.6643410" lon="-2.0173960">
        <ele>424.3</ele>
        <time>2020-03-28T19:37:45Z</time>
      </trkpt>
      <trkpt lat="42.6643560" lon="-2.0175620">
        <ele>423.9</ele>
        <time>2020-03-28T19:37:47Z</time>
      </trkpt>
      <trkpt lat="42.6643700" lon="-2.0177160">
        <ele>423.5</ele>
        <time>2020-03-28T19:37:49Z</time>
      </trkpt>
      <trkpt lat="42.6644140" lon="-2.0179780">
        <ele>424.2</ele>
        <time>2020-03-28T19:37:51Z</time>
      </trkpt>
      <trkpt lat="42.6644480" lon="-2.0181120">
        <ele>425.2</ele>
        <time>2020-03-28T19:37:53Z</time>
      </trkpt>
      <trkpt lat="42.6645150" lon="-2.0183340">
        <ele>427.2</ele>
        <time>2020-03-28T19:37:55Z</time>
      </trkpt>
      <trkpt lat="42.6645570" lon="-2.0184500">
        <ele>428.4</ele>
        <time>2020-03-28T19:37:57Z</time>
      </trkpt>
      <trkpt lat="42.6646390" lon="-2.0186620">
        <ele>430.4</ele>
        <time>2020-03-28T19:37:59Z</time>
      </trkpt>
      <trkpt lat="42.6646930" lon="-2.0187570">
        <ele>430.8</ele>
        <time>2020-03-28T19:38:01Z</time>
      </trkpt>
      <trkpt lat="42.6647450" lon="-2.0188480">
        <ele>431.2</ele>
        <time>2020-03-28T19:38:03Z</time>
      </trkpt>
      <trkpt lat="42.6647960" lon="-2.0189380">
        <ele>431.6</ele>
        <time>2020-03-28T19:38:05Z</time>
      </trkpt>
      <trkpt lat="42.6649150" lon="-2.0191470">
        <ele>432.0</ele>
        <time>2020-03-28T19:38:07Z</time>
      </trkpt>
      <trkpt lat="42.6649910" lon="-2.0192550">
        <ele>431.2</ele>
        <time>2020-03-28T19:38:09Z</time>
      </trkpt>
      <trkpt lat="42.6650610" lon="-2.0193450">
        <ele>430.6</ele>
        <time>2020-03-28T19:38:11Z</time>
      </trkpt>
      <trkpt lat="42.6652030" lon="-2.0195320">
        <ele>429.3</ele>
        <time>2020-03-28T19:38:13Z</time>
      </trkpt>
      <trkpt lat="42.6652990" lon="-2.0196570">
        <ele>428.3</ele>
        <time>2020-03-28T19:38:15Z</time>
      </trkpt>
      <trkpt lat="42.6653770" lon="-2.0197630">
        <ele>427.7</ele>
        <time>2020-03-28T19:38:17Z</time>
      </trkpt>
      <trkpt lat="42.6654590" lon="-2.0198750">
        <ele>427.1</ele>
        <time>2020-03-28T19:38:19Z</time>
      </trkpt>
      <trkpt lat="42.6656210" lon="-2.0200960">
        <ele>426.8</ele>
        <time>2020-03-28T19:38:21Z</time>
      </trkpt>
      <trkpt lat="42.6657070" lon="-2.0202120">
        <ele>426.8</ele>
        <time>2020-03-28T19:38:23Z</time>
      </trkpt>
      <trkpt lat="42.6657930" lon="-2.0203290">
        <ele>426.8</ele>
        <time>2020-03-28T19:38:25Z</time>
      </trkpt>
      <trkpt lat="42.6659800" lon="-2.0205740">
        <ele>426.9</ele>
        <time>2020-03-28T19:38:27Z</time>
      </trkpt>
      <trkpt lat="42.6661100" lon="-2.0207250">
        <ele>427.0</ele>
        <time>2020-03-28T19:38:29Z</time>
      </trkpt>
      <trkpt lat="42.6662090" lon="-2.0208290">
        <ele>427.0</ele>
        <time>2020-03-28T19:38:31Z</time>
      </trkpt>
      <trkpt lat="42.6663810" lon="-2.0209670">
        <ele>427.0</ele>
        <time>2020-03-28T19:38:33Z</time>
      </trkpt>
      <trkpt lat="42.6664970" lon="-2.0210370">
        <ele>427.0</ele>
        <time>2020-03-28T19:38:35Z</time>
      </trkpt>
      <trkpt lat="42.6667060" lon="-2.0211500">
        <ele>426.0</ele>
        <time>2020-03-28T19:38:37Z</time>
      </trkpt>
      <trkpt lat="42.6668270" lon="-2.0212050">
        <ele>425.2</ele>
        <time>2020-03-28T19:38:39Z</time>
      </trkpt>
      <trkpt lat="42.6669470" lon="-2.0212590">
        <ele>424.6</ele>
        <time>2020-03-28T19:38:41Z</time>
      </trkpt>
      <trkpt lat="42.6670640" lon="-2.0213120">
        <ele>424.4</ele>
        <time>2020-03-28T19:38:43Z</time>
      </trkpt>
      <trkpt lat="42.6671820" lon="-2.0213650">
        <ele>424.3</ele>
        <time>2020-03-28T19:38:45Z</time>
      </trkpt>
      <trkpt lat="42.6675140" lon="-2.0215150">
        <ele>424.4</ele>
        <time>2020-03-28T19:38:47Z</time>
      </trkpt>
      <trkpt lat="42.6676630" lon="-2.0215840">
        <ele>424.5</ele>
        <time>2020-03-28T19:38:49Z</time>
      </trkpt>
      <trkpt lat="42.6677780" lon="-2.0216380">
        <ele>424.5</ele>
        <time>2020-03-28T19:38:51Z</time>
      </trkpt>
      <trkpt lat="42.6678920" lon="-2.0216910">
        <ele>424.5</ele>
        <time>2020-03-28T19:38:53Z</time>
      </trkpt>
      <trkpt lat="42.6681500" lon="-2.0218150">
        <ele>424.6</ele>
        <time>2020-03-28T19:38:55Z</time>
      </trkpt>
      <trkpt lat="42.6682990" lon="-2.0218950">
        <ele>424.7</ele>
        <time>2020-03-28T19:38:57Z</time>
      </trkpt>
      <trkpt lat="42.6684090" lon="-2.0219530">
        <ele>424.9</ele>
        <time>2020-03-28T19:38:59Z</time>
      </trkpt>
      <trkpt lat="42.6685160" lon="-2.0220100">
        <ele>425.1</ele>
        <time>2020-03-28T19:39:01Z</time>
      </trkpt>
      <trkpt lat="42.6686200" lon="-2.0220660">
        <ele>425.3</ele>
        <time>2020-03-28T19:39:03Z</time>
      </trkpt>
      <trkpt lat="42.6688950" lon="-2.0222120">
        <ele>425.8</ele>
        <time>2020-03-28T19:39:05Z</time>
      </trkpt>
      <trkpt lat="42.6689950" lon="-2.0222660">
        <ele>426.0</ele>
        <time>2020-03-28T19:39:07Z</time>
      </trkpt>
      <trkpt lat="42.6690930" lon="-2.0223180">
        <ele>426.2</ele>
        <time>2020-03-28T19:39:09Z</time>
      </trkpt>
      <trkpt lat="42.6692850" lon="-2.0224220">
        <ele>426.5</ele>
        <time>2020-03-28T19:39:11Z</time>
      </trkpt>
      <trkpt lat="42.6693800" lon="-2.0224760">
        <ele>426.7</ele>
        <time>2020-03-28T19:39:13Z</time>
      </trkpt>
      <trkpt lat="42.6695520" lon="-2.0225740">
        <ele>427.1</ele>
        <time>2020-03-28T19:39:15Z</time>
      </trkpt>
      <trkpt lat="42.6696770" lon="-2.0226460">
        <ele>427.3</ele>
        <time>2020-03-28T19:39:17Z</time>
      </trkpt>
      <trkpt lat="42.6697690" lon="-2.0227000">
        <ele>427.5</ele>
        <time>2020-03-28T19:39:19Z</time>
      </trkpt>
      <trkpt lat="42.6698600" lon="-2.0227540">
        <ele>427.6</ele>
        <time>2020-03-28T19:39:21Z</time>
      </trkpt>
      <trkpt lat="42.6699490" lon="-2.0228070">
        <ele>427.8</ele>
        <time>2020-03-28T19:39:23Z</time>
      </trkpt>
      <trkpt lat="42.6700380" lon="-2.0228590">
        <ele>428.0</ele>
        <time>2020-03-28T19:39:25Z</time>
      </trkpt>
      <trkpt lat="42.6702530" lon="-2.0230280">
        <ele>428.2</ele>
        <time>2020-03-28T19:39:27Z</time>
      </trkpt>
      <trkpt lat="42.6703600" lon="-2.0231770">
        <ele>427.9</ele>
        <time>2020-03-28T19:39:29Z</time>
      </trkpt>
      <trkpt lat="42.6704300" lon="-2.0232980">
        <ele>427.4</ele>
        <time>2020-03-28T19:39:31Z</time>
      </trkpt>
      <trkpt lat="42.6705280" lon="-2.0235110">
        <ele>426.5</ele>
        <time>2020-03-28T19:39:33Z</time>
      </trkpt>
      <trkpt lat="42.6706100" lon="-2.0237510">
        <ele>425.9</ele>
        <time>2020-03-28T19:39:35Z</time>
      </trkpt>
      <trkpt lat="42.6706480" lon="-2.0239750">
        <ele>425.4</ele>
        <time>2020-03-28T19:39:37Z</time>
      </trkpt>
      <trkpt lat="42.6706530" lon="-2.0242150">
        <ele>424.5</ele>
        <time>2020-03-28T19:39:39Z</time>
      </trkpt>
      <trkpt lat="42.6706450" lon="-2.0244360">
        <ele>423.8</ele>
        <time>2020-03-28T19:39:41Z</time>
      </trkpt>
      <trkpt lat="42.6706340" lon="-2.0246090">
        <ele>423.5</ele>
        <time>2020-03-28T19:39:43Z</time>
      </trkpt>
      <trkpt lat="42.6706150" lon="-2.0249220">
        <ele>423.3</ele>
        <time>2020-03-28T19:39:45Z</time>
      </trkpt>
      <trkpt lat="42.6705890" lon="-2.0251330">
        <ele>423.5</ele>
        <time>2020-03-28T19:39:47Z</time>
      </trkpt>
      <trkpt lat="42.6705430" lon="-2.0253640">
        <ele>423.5</ele>
        <time>2020-03-28T19:39:49Z</time>
      </trkpt>
      <trkpt lat="42.6704630" lon="-2.0256120">
        <ele>423.2</ele>
        <time>2020-03-28T19:39:51Z</time>
      </trkpt>
      <trkpt lat="42.6704070" lon="-2.0257720">
        <ele>423.1</ele>
        <time>2020-03-28T19:39:53Z</time>
      </trkpt>
      <trkpt lat="42.6703030" lon="-2.0259710">
        <ele>423.2</ele>
        <time>2020-03-28T19:39:55Z</time>
      </trkpt>
      <trkpt lat="42.6702200" lon="-2.0261060">
        <ele>423.3</ele>
        <time>2020-03-28T19:39:57Z</time>
      </trkpt>
      <trkpt lat="42.6701380" lon="-2.0262380">
        <ele>423.4</ele>
        <time>2020-03-28T19:39:59Z</time>
      </trkpt>
      <trkpt lat="42.6699560" lon="-2.0265340">
        <ele>424.0</ele>
        <time>2020-03-28T19:40:01Z</time>
      </trkpt>
      <trkpt lat="42.6698400" lon="-2.0267230">
        <ele>424.4</ele>
        <time>2020-03-28T19:40:03Z</time>
      </trkpt>
      <trkpt lat="42.6697320" lon="-2.0269030">
        <ele>425.2</ele>
        <time>2020-03-28T19:40:05Z</time>
      </trkpt>
      <trkpt lat="42.6696640" lon="-2.0270140">
        <ele>426.1</ele>
        <time>2020-03-28T19:40:07Z</time>
      </trkpt>
      <trkpt lat="42.6696090" lon="-2.0271060">
        <ele>426.6</ele>
        <time>2020-03-28T19:40:09Z</time>
      </trkpt>
      <trkpt lat="42.6695640" lon="-2.0271810">
        <ele>427.1</ele>
        <time>2020-03-28T19:40:11Z</time>
      </trkpt>
      <trkpt lat="42.6695270" lon="-2.0272410">
        <ele>427.6</ele>
        <time>2020-03-28T19:40:13Z</time>
      </trkpt>
      <trkpt lat="42.6694970" lon="-2.0272920">
        <ele>428.0</ele>
        <time>2020-03-28T19:40:15Z</time>
      </trkpt>
      <trkpt lat="42.6694690" lon="-2.0273370">
        <ele>428.5</ele>
        <time>2020-03-28T19:40:17Z</time>
      </trkpt>
      <trkpt lat="42.6694390" lon="-2.0273860">
        <ele>429.0</ele>
        <time>2020-03-28T19:40:19Z</time>
      </trkpt>
      <trkpt lat="42.6694090" lon="-2.0274370">
        <ele>429.5</ele>
        <time>2020-03-28T19:40:21Z</time>
      </trkpt>
      <trkpt lat="42.6692550" lon="-2.0276900">
        <ele>432.2</ele>
        <time>2020-03-28T19:40:23Z</time>
      </trkpt>
      <trkpt lat="42.6692230" lon="-2.0277410">
        <ele>433.0</ele>
        <time>2020-03-28T19:40:25Z</time>
      </trkpt>
      <trkpt lat="42.6691920" lon="-2.0277920">
        <ele>433.8</ele>
        <time>2020-03-28T19:40:27Z</time>
      </trkpt>
      <trkpt lat="42.6691620" lon="-2.0278400">
        <ele>434.5</ele>
        <time>2020-03-28T19:40:29Z</time>
      </trkpt>
      <trkpt lat="42.6691340" lon="-2.0278850">
        <ele>435.2</ele>
        <time>2020-03-28T19:40:31Z</time>
      </trkpt>
      <trkpt lat="42.6691080" lon="-2.0279280">
        <ele>436.0</ele>
        <time>2020-03-28T19:40:33Z</time>
      </trkpt>
      <trkpt lat="42.6690830" lon="-2.0279680">
        <ele>436.9</ele>
        <time>2020-03-28T19:40:35Z</time>
      </trkpt>
      <trkpt lat="42.6690600" lon="-2.0280050">
        <ele>437.7</ele>
        <time>2020-03-28T19:40:37Z</time>
      </trkpt>
      <trkpt lat="42.6689570" lon="-2.0281710">
        <ele>441.0</ele>
        <time>2020-03-28T19:40:39Z</time>
      </trkpt>
      <trkpt lat="42.6689330" lon="-2.0282080">
        <ele>441.6</ele>
        <time>2020-03-28T19:40:41Z</time>
      </trkpt>
      <trkpt lat="42.6688890" lon="-2.0282780">
        <ele>442.6</ele>
        <time>2020-03-28T19:40:43Z</time>
      </trkpt>
      <trkpt lat="42.6688470" lon="-2.0283440">
        <ele>443.5</ele>
        <time>2020-03-28T19:40:45Z</time>
      </trkpt>
      <trkpt lat="42.6687920" lon="-2.0284320">
        <ele>444.7</ele>
        <time>2020-03-28T19:40:47Z</time>
      </trkpt>
      <trkpt lat="42.6687270" lon="-2.0285360">
        <ele>446.0</ele>
        <time>2020-03-28T19:40:49Z</time>
      </trkpt>
      <trkpt lat="42.6686540" lon="-2.0286500">
        <ele>447.0</ele>
        <time>2020-03-28T19:40:51Z</time>
      </trkpt>
      <trkpt lat="42.6684830" lon="-2.0289270">
        <ele>447.3</ele>
        <time>2020-03-28T19:40:53Z</time>
      </trkpt>
      <trkpt lat="42.6683790" lon="-2.0291090">
        <ele>444.4</ele>
        <time>2020-03-28T19:40:55Z</time>
      </trkpt>
      <trkpt lat="42.6683090" lon="-2.0292290">
        <ele>443.9</ele>
        <time>2020-03-28T19:40:57Z</time>
      </trkpt>
      <trkpt lat="42.6682360" lon="-2.0293550">
        <ele>443.2</ele>
        <time>2020-03-28T19:40:59Z</time>
      </trkpt>
      <trkpt lat="42.6680940" lon="-2.0295950">
        <ele>441.9</ele>
        <time>2020-03-28T19:41:01Z</time>
      </trkpt>
      <trkpt lat="42.6680170" lon="-2.0297240">
        <ele>441.3</ele>
        <time>2020-03-28T19:41:03Z</time>
      </trkpt>
      <trkpt lat="42.6678940" lon="-2.0299280">
        <ele>440.2</ele>
        <time>2020-03-28T19:41:05Z</time>
      </trkpt>
      <trkpt lat="42.6678180" lon="-2.0300550">
        <ele>439.5</ele>
        <time>2020-03-28T19:41:07Z</time>
      </trkpt>
      <trkpt lat="42.6676660" lon="-2.0303080">
        <ele>438.0</ele>
        <time>2020-03-28T19:41:09Z</time>
      </trkpt>
      <trkpt lat="42.6675880" lon="-2.0304350">
        <ele>437.3</ele>
        <time>2020-03-28T19:41:11Z</time>
      </trkpt>
      <trkpt lat="42.6675100" lon="-2.0305620">
        <ele>436.6</ele>
        <time>2020-03-28T19:41:13Z</time>
      </trkpt>
      <trkpt lat="42.6673930" lon="-2.0307540">
        <ele>433.2</ele>
        <time>2020-03-28T19:41:14Z</time>
      </trkpt>
      <trkpt lat="42.6673930" lon="-2.0307540">
        <ele>433.2</ele>
        <time>2020-03-28T19:41:14Z</time>
      </trkpt>
      <trkpt lat="42.6673930" lon="-2.0307540">
        <ele>433.2</ele>
        <time>2020-03-28T19:41:16Z</time>
      </trkpt>
      <trkpt lat="42.6673930" lon="-2.0307540">
        <ele>433.2</ele>
        <time>2020-03-28T19:41:18Z</time>
      </trkpt>
      <trkpt lat="42.6673930" lon="-2.0307540">
        <ele>433.2</ele>
        <time>2020-03-28T19:41:21Z</time>
      </trkpt>
      <trkpt lat="42.6668680" lon="-2.0315220">
        <ele>433.3</ele>
        <time>2020-03-29T17:04:34Z</time>
      </trkpt>
      <trkpt lat="42.6668680" lon="-2.0315220">
        <ele>433.3</ele>
        <time>2020-03-29T17:04:36Z</time>
      </trkpt>
      <trkpt lat="42.6668680" lon="-2.0315220">
        <ele>433.3</ele>
        <time>2020-03-29T17:04:38Z</time>
      </trkpt>
      <trkpt lat="42.6668680" lon="-2.0315220">
        <ele>433.3</ele>
        <time>2020-03-29T17:04:40Z</time>
      </trkpt>
      <trkpt lat="42.6668680" lon="-2.0315220">
        <ele>433.3</ele>
        <time>2020-03-29T17:04:43Z</time>
      </trkpt>
      <trkpt lat="42.6668680" lon="-2.0315220">
        <ele>433.3</ele>
        <time>2020-03-29T17:04:45Z</time>
      </trkpt>
      <trkpt lat="42.6668680" lon="-2.0315220">
        <ele>433.3</ele>
        <time>2020-03-29T17:04:47Z</time>
      </trkpt>
      <trkpt lat="42.6668680" lon="-2.0315220">
        <ele>433.3</ele>
        <time>2020-03-29T17:04:49Z</time>
      </trkpt>
      <trkpt lat="42.6668680" lon="-2.0315220">
        <ele>433.3</ele>
        <time>2020-03-29T17:04:51Z</time>
      </trkpt>
      <trkpt lat="42.6668680" lon="-2.0315220">
        <ele>433.3</ele>
        <time>2020-03-29T17:04:53Z</time>
      </trkpt>
      <trkpt lat="42.6668680" lon="-2.0315220">
        <ele>433.3</ele>
        <time>2020-03-29T17:04:55Z</time>
      </trkpt>
      <trkpt lat="42.6668680" lon="-2.0315220">
        <ele>433.3</ele>
        <time>2020-03-29T17:04:57Z</time>
      </trkpt>
      <trkpt lat="42.6668680" lon="-2.0315220">
        <ele>433.3</ele>
        <time>2020-03-29T17:04:59Z</time>
      </trkpt>
      <trkpt lat="42.6668680" lon="-2.0315220">
        <ele>433.3</ele>
        <time>2020-03-29T17:05:01Z</time>
      </trkpt>
      <trkpt lat="42.6668680" lon="-2.0315220">
        <ele>433.3</ele>
        <time>2020-03-29T17:05:03Z</time>
      </trkpt>
      <trkpt lat="42.6668680" lon="-2.0315220">
        <ele>433.3</ele>
        <time>2020-03-29T17:05:05Z</time>
      </trkpt>
      <trkpt lat="42.6668680" lon="-2.0315220">
        <ele>433.3</ele>
        <time>2020-03-29T17:05:07Z</time>
      </trkpt>
      <trkpt lat="42.6668680" lon="-2.0315220">
        <ele>433.3</ele>
        <time>2020-03-29T17:05:09Z</time>
      </trkpt>
      <trkpt lat="42.6668680" lon="-2.0315220">
        <ele>433.3</ele>
        <time>2020-03-29T17:05:11Z</time>
      </trkpt>
      <trkpt lat="42.6668680" lon="-2.0315220">
        <ele>433.3</ele>
        <time>2020-03-29T17:05:13Z</time>
      </trkpt>
      <trkpt lat="42.6668680" lon="-2.0315220">
        <ele>433.3</ele>
        <time>2020-03-29T17:05:15Z</time>
      </trkpt>
      <trkpt lat="42.6668680" lon="-2.0315220">
        <ele>433.3</ele>
        <time>2020-03-29T17:05:17Z</time>
      </trkpt>
      <trkpt lat="42.6668680" lon="-2.0315220">
        <ele>433.3</ele>
        <time>2020-03-29T17:05:19Z</time>
      </trkpt>
      <trkpt lat="42.6668680" lon="-2.0315220">
        <ele>433.3</ele>
        <time>2020-03-29T17:05:21Z</time>
      </trkpt>
      <trkpt lat="42.6668680" lon="-2.0315220">
        <ele>433.3</ele>
        <time>2020-03-29T17:05:23Z</time>
      </trkpt>
      <trkpt lat="42.6668680" lon="-2.0315220">
        <ele>433.3</ele>
        <time>2020-03-29T17:05:25Z</time>
      </trkpt>
      <trkpt lat="42.6668680" lon="-2.0315220">
        <ele>433.3</ele>
        <time>2020-03-29T17:05:27Z</time>
      </trkpt>
      <trkpt lat="42.6668680" lon="-2.0315220">
        <ele>433.3</ele>
        <time>2020-03-29T17:05:29Z</time>
      </trkpt>
      <trkpt lat="42.6668680" lon="-2.0315220">
        <ele>433.3</ele>
        <time>2020-03-29T17:05:31Z</time>
      </trkpt>
      <trkpt lat="42.6668680" lon="-2.0315220">
        <ele>433.3</ele>
        <time>2020-03-29T17:05:33Z</time>
      </trkpt>
      <trkpt lat="42.6668680" lon="-2.0315220">
        <ele>433.3</ele>
        <time>2020-03-29T17:05:35Z</time>
      </trkpt>
      <trkpt lat="42.6668680" lon="-2.0315220">
        <ele>433.3</ele>
        <time>2020-03-29T17:05:37Z</time>
      </trkpt>
      <trkpt lat="42.6668680" lon="-2.0315220">
        <ele>433.3</ele>
        <time>2020-03-29T17:05:39Z</time>
      </trkpt>
      <trkpt lat="42.6668680" lon="-2.0315220">
        <ele>433.3</ele>
        <time>2020-03-29T17:05:41Z</time>
      </trkpt>
      <trkpt lat="42.6668680" lon="-2.0315220">
        <ele>433.3</ele>
        <time>2020-03-29T17:05:43Z</time>
      </trkpt>
      <trkpt lat="42.6668680" lon="-2.0315220">
        <ele>433.3</ele>
        <time>2020-03-29T17:05:45Z</time>
      </trkpt>
      <trkpt lat="42.6668680" lon="-2.0315220">
        <ele>433.3</ele>
        <time>2020-03-29T17:05:47Z</time>
      </trkpt>
      <trkpt lat="42.6668680" lon="-2.0315220">
        <ele>433.3</ele>
        <time>2020-03-29T17:05:49Z</time>
      </trkpt>
      <trkpt lat="42.6668680" lon="-2.0315220">
        <ele>433.3</ele>
        <time>2020-03-29T17:05:51Z</time>
      </trkpt>
      <trkpt lat="42.6668680" lon="-2.0315220">
        <ele>433.3</ele>
        <time>2020-03-29T17:05:53Z</time>
      </trkpt>
      <trkpt lat="42.6668680" lon="-2.0315220">
        <ele>433.3</ele>
        <time>2020-03-29T17:05:55Z</time>
      </trkpt>
      <trkpt lat="42.6668680" lon="-2.0315220">
        <ele>433.3</ele>
        <time>2020-03-29T17:05:57Z</time>
      </trkpt>
      <trkpt lat="42.6668680" lon="-2.0315220">
        <ele>433.3</ele>
        <time>2020-03-29T17:05:59Z</time>
      </trkpt>
      <trkpt lat="42.6668680" lon="-2.0315220">
        <ele>433.3</ele>
        <time>2020-03-29T17:06:01Z</time>
      </trkpt>
      <trkpt lat="42.6668680" lon="-2.0315220">
        <ele>433.3</ele>
        <time>2020-03-29T17:06:03Z</time>
      </trkpt>
      <trkpt lat="42.6668680" lon="-2.0315220">
        <ele>433.3</ele>
        <time>2020-03-29T17:06:05Z</time>
      </trkpt>
      <trkpt lat="42.6668680" lon="-2.0315220">
        <ele>433.3</ele>
        <time>2020-03-29T17:06:07Z</time>
      </trkpt>
      <trkpt lat="42.6668680" lon="-2.0315220">
        <ele>433.3</ele>
        <time>2020-03-29T17:06:09Z</time>
      </trkpt>
      <trkpt lat="42.6668680" lon="-2.0315220">
        <ele>433.3</ele>
        <time>2020-03-29T17:06:11Z</time>
      </trkpt>
      <trkpt lat="42.6668680" lon="-2.0315220">
        <ele>433.3</ele>
        <time>2020-03-29T17:06:13Z</time>
      </trkpt>
      <trkpt lat="42.6668680" lon="-2.0315220">
        <ele>433.3</ele>
        <time>2020-03-29T17:06:15Z</time>
      </trkpt>
      <trkpt lat="42.6668680" lon="-2.0315220">
        <ele>433.3</ele>
        <time>2020-03-29T17:06:17Z</time>
      </trkpt>
      <trkpt lat="42.6668680" lon="-2.0315220">
        <ele>433.3</ele>
        <time>2020-03-29T17:06:19Z</time>
      </trkpt>
      <trkpt lat="42.6668680" lon="-2.0315220">
        <ele>433.3</ele>
        <time>2020-03-29T17:06:21Z</time>
      </trkpt>
      <trkpt lat="42.6668680" lon="-2.0315220">
        <ele>433.3</ele>
        <time>2020-03-29T17:06:23Z</time>
      </trkpt>
      <trkpt lat="42.6668680" lon="-2.0315220">
        <ele>433.3</ele>
        <time>2020-03-29T17:06:25Z</time>
      </trkpt>
      <trkpt lat="42.6668680" lon="-2.0315220">
        <ele>433.3</ele>
        <time>2020-03-29T17:06:27Z</time>
      </trkpt>
      <trkpt lat="42.6668680" lon="-2.0315220">
        <ele>433.3</ele>
        <time>2020-03-29T17:06:29Z</time>
      </trkpt>
      <trkpt lat="42.6668680" lon="-2.0315220">
        <ele>433.3</ele>
        <time>2020-03-29T17:06:31Z</time>
      </trkpt>
      <trkpt lat="42.6668680" lon="-2.0315220">
        <ele>433.3</ele>
        <time>2020-03-29T17:06:33Z</time>
      </trkpt>
      <trkpt lat="42.6668680" lon="-2.0315220">
        <ele>433.3</ele>
        <time>2020-03-29T17:06:35Z</time>
      </trkpt>
      <trkpt lat="42.6668680" lon="-2.0315220">
        <ele>433.3</ele>
        <time>2020-03-29T17:06:37Z</time>
      </trkpt>
      <trkpt lat="42.6668680" lon="-2.0315220">
        <ele>433.3</ele>
        <time>2020-03-29T17:06:39Z</time>
      </trkpt>
      <trkpt lat="42.6668680" lon="-2.0315220">
        <ele>433.3</ele>
        <time>2020-03-29T17:06:41Z</time>
      </trkpt>
      <trkpt lat="42.6668680" lon="-2.0315220">
        <ele>433.3</ele>
        <time>2020-03-29T17:06:43Z</time>
      </trkpt>
      <trkpt lat="42.6668680" lon="-2.0315220">
        <ele>433.3</ele>
        <time>2020-03-29T17:06:45Z</time>
      </trkpt>
      <trkpt lat="42.6668680" lon="-2.0315220">
        <ele>433.3</ele>
        <time>2020-03-29T17:06:47Z</time>
      </trkpt>
      <trkpt lat="42.6668680" lon="-2.0315220">
        <ele>433.3</ele>
        <time>2020-03-29T17:06:49Z</time>
      </trkpt>
      <trkpt lat="42.6668680" lon="-2.0315220">
        <ele>433.3</ele>
        <time>2020-03-29T17:06:51Z</time>
      </trkpt>
      <trkpt lat="42.6668680" lon="-2.0315220">
        <ele>433.3</ele>
        <time>2020-03-29T17:06:53Z</time>
      </trkpt>
      <trkpt lat="42.6668680" lon="-2.0315220">
        <ele>433.3</ele>
        <time>2020-03-29T17:06:55Z</time>
      </trkpt>
      <trkpt lat="42.6668680" lon="-2.0315220">
        <ele>433.3</ele>
        <time>2020-03-29T17:06:57Z</time>
      </trkpt>
      <trkpt lat="42.6668680" lon="-2.0315220">
        <ele>433.3</ele>
        <time>2020-03-29T17:06:59Z</time>
      </trkpt>
      <trkpt lat="42.6668680" lon="-2.0315220">
        <ele>433.3</ele>
        <time>2020-03-29T17:07:01Z</time>
      </trkpt>
      <trkpt lat="42.6668680" lon="-2.0315220">
        <ele>433.3</ele>
        <time>2020-03-29T17:07:03Z</time>
      </trkpt>
      <trkpt lat="42.6668680" lon="-2.0315220">
        <ele>433.3</ele>
        <time>2020-03-29T17:07:05Z</time>
      </trkpt>
      <trkpt lat="42.6668680" lon="-2.0315220">
        <ele>433.3</ele>
        <time>2020-03-29T17:07:07Z</time>
      </trkpt>
      <trkpt lat="42.6668680" lon="-2.0315220">
        <ele>433.3</ele>
        <time>2020-03-29T17:07:09Z</time>
      </trkpt>
      <trkpt lat="42.6668680" lon="-2.0315220">
        <ele>433.3</ele>
        <time>2020-03-29T17:07:11Z</time>
      </trkpt>
      <trkpt lat="42.6668680" lon="-2.0315220">
        <ele>433.3</ele>
        <time>2020-03-29T17:07:13Z</time>
      </trkpt>
      <trkpt lat="42.6668680" lon="-2.0315220">
        <ele>433.3</ele>
        <time>2020-03-29T17:07:15Z</time>
      </trkpt>
      <trkpt lat="42.6668680" lon="-2.0315220">
        <ele>433.3</ele>
        <time>2020-03-29T17:07:17Z</time>
      </trkpt>
      <trkpt lat="42.6668680" lon="-2.0315220">
        <ele>433.3</ele>
        <time>2020-03-29T17:07:19Z</time>
      </trkpt>
      <trkpt lat="42.6668680" lon="-2.0315220">
        <ele>433.3</ele>
        <time>2020-03-29T17:07:21Z</time>
      </trkpt>
      <trkpt lat="42.6668680" lon="-2.0315220">
        <ele>433.3</ele>
        <time>2020-03-29T17:07:23Z</time>
      </trkpt>
      <trkpt lat="42.6668680" lon="-2.0315220">
        <ele>433.3</ele>
        <time>2020-03-29T17:07:25Z</time>
      </trkpt>
      <trkpt lat="42.6668680" lon="-2.0315220">
        <ele>433.3</ele>
        <time>2020-03-29T17:07:26Z</time>
      </trkpt>
      <trkpt lat="42.6668680" lon="-2.0315220">
        <ele>433.3</ele>
        <time>2020-03-29T17:07:26Z</time>
      </trkpt>
      <trkpt lat="42.6668670" lon="-2.0315240">
        <ele>433.3</ele>
        <time>2020-03-29T17:07:28Z</time>
      </trkpt>
      <trkpt lat="42.6668510" lon="-2.0315420">
        <ele>433.3</ele>
        <time>2020-03-29T17:07:30Z</time>
      </trkpt>
      <trkpt lat="42.6668220" lon="-2.0315740">
        <ele>433.3</ele>
        <time>2020-03-29T17:07:32Z</time>
      </trkpt>
      <trkpt lat="42.6667540" lon="-2.0316410">
        <ele>433.4</ele>
        <time>2020-03-29T17:07:34Z</time>
      </trkpt>
      <trkpt lat="42.6666950" lon="-2.0316850">
        <ele>433.6</ele>
        <time>2020-03-29T17:07:36Z</time>
      </trkpt>
      <trkpt lat="42.6666020" lon="-2.0317620">
        <ele>433.9</ele>
        <time>2020-03-29T17:07:38Z</time>
      </trkpt>
      <trkpt lat="42.6665700" lon="-2.0318600">
        <ele>434.2</ele>
        <time>2020-03-29T17:07:40Z</time>
      </trkpt>
      <trkpt lat="42.6666130" lon="-2.0319730">
        <ele>433.9</ele>
        <time>2020-03-29T17:07:42Z</time>
      </trkpt>
      <trkpt lat="42.6665700" lon="-2.0321060">
        <ele>434.0</ele>
        <time>2020-03-29T17:07:44Z</time>
      </trkpt>
      <trkpt lat="42.6664720" lon="-2.0321320">
        <ele>434.5</ele>
        <time>2020-03-29T17:07:46Z</time>
      </trkpt>
      <trkpt lat="42.6664010" lon="-2.0320560">
        <ele>434.9</ele>
        <time>2020-03-29T17:07:48Z</time>
      </trkpt>
      <trkpt lat="42.6663390" lon="-2.0319950">
        <ele>435.2</ele>
        <time>2020-03-29T17:07:50Z</time>
      </trkpt>
      <trkpt lat="42.6662680" lon="-2.0319890">
        <ele>435.4</ele>
        <time>2020-03-29T17:07:52Z</time>
      </trkpt>
      <trkpt lat="42.6661440" lon="-2.0319820">
        <ele>435.8</ele>
        <time>2020-03-29T17:07:54Z</time>
      </trkpt>
      <trkpt lat="42.6660770" lon="-2.0319850">
        <ele>435.9</ele>
        <time>2020-03-29T17:07:56Z</time>
      </trkpt>
      <trkpt lat="42.6659580" lon="-2.0319900">
        <ele>436.3</ele>
        <time>2020-03-29T17:07:58Z</time>
      </trkpt>
      <trkpt lat="42.6658910" lon="-2.0319920">
        <ele>436.5</ele>
        <time>2020-03-29T17:08:00Z</time>
      </trkpt>
      <trkpt lat="42.6658270" lon="-2.0319930">
        <ele>436.7</ele>
        <time>2020-03-29T17:08:02Z</time>
      </trkpt>
      <trkpt lat="42.6657620" lon="-2.0319950">
        <ele>436.9</ele>
        <time>2020-03-29T17:08:04Z</time>
      </trkpt>
      <trkpt lat="42.6656040" lon="-2.0319980">
        <ele>437.8</ele>
        <time>2020-03-29T17:08:06Z</time>
      </trkpt>
      <trkpt lat="42.6655410" lon="-2.0319990">
        <ele>438.2</ele>
        <time>2020-03-29T17:08:08Z</time>
      </trkpt>
      <trkpt lat="42.6654380" lon="-2.0320070">
        <ele>438.6</ele>
        <time>2020-03-29T17:08:10Z</time>
      </trkpt>
      <trkpt lat="42.6653750" lon="-2.0320160">
        <ele>438.8</ele>
        <time>2020-03-29T17:08:12Z</time>
      </trkpt>
      <trkpt lat="42.6653120" lon="-2.0320250">
        <ele>439.1</ele>
        <time>2020-03-29T17:08:14Z</time>
      </trkpt>
      <trkpt lat="42.6652490" lon="-2.0320340">
        <ele>439.4</ele>
        <time>2020-03-29T17:08:16Z</time>
      </trkpt>
      <trkpt lat="42.6651000" lon="-2.0320640">
        <ele>440.0</ele>
        <time>2020-03-29T17:08:18Z</time>
      </trkpt>
      <trkpt lat="42.6650360" lon="-2.0320840">
        <ele>440.3</ele>
        <time>2020-03-29T17:08:20Z</time>
      </trkpt>
      <trkpt lat="42.6649720" lon="-2.0321040">
        <ele>440.6</ele>
        <time>2020-03-29T17:08:22Z</time>
      </trkpt>
      <trkpt lat="42.6648320" lon="-2.0321490">
        <ele>441.3</ele>
        <time>2020-03-29T17:08:24Z</time>
      </trkpt>
      <trkpt lat="42.6647580" lon="-2.0321750">
        <ele>441.3</ele>
        <time>2020-03-29T17:08:26Z</time>
      </trkpt>
      <trkpt lat="42.6646960" lon="-2.0321970">
        <ele>441.4</ele>
        <time>2020-03-29T17:08:28Z</time>
      </trkpt>
      <trkpt lat="42.6646350" lon="-2.0322180">
        <ele>441.4</ele>
        <time>2020-03-29T17:08:30Z</time>
      </trkpt>
      <trkpt lat="42.6644940" lon="-2.0322710">
        <ele>441.4</ele>
        <time>2020-03-29T17:08:32Z</time>
      </trkpt>
      <trkpt lat="42.6644280" lon="-2.0323040">
        <ele>441.2</ele>
        <time>2020-03-29T17:08:34Z</time>
      </trkpt>
      <trkpt lat="42.6643040" lon="-2.0323700">
        <ele>440.9</ele>
        <time>2020-03-29T17:08:36Z</time>
      </trkpt>
      <trkpt lat="42.6642240" lon="-2.0324210">
        <ele>441.0</ele>
        <time>2020-03-29T17:08:38Z</time>
      </trkpt>
      <trkpt lat="42.6641380" lon="-2.0324880">
        <ele>441.1</ele>
        <time>2020-03-29T17:08:40Z</time>
      </trkpt>
      <trkpt lat="42.6641070" lon="-2.0325830">
        <ele>441.2</ele>
        <time>2020-03-29T17:08:42Z</time>
      </trkpt>
      <trkpt lat="42.6641010" lon="-2.0327070">
        <ele>442.1</ele>
        <time>2020-03-29T17:08:44Z</time>
      </trkpt>
      <trkpt lat="42.6640610" lon="-2.0327910">
        <ele>442.5</ele>
        <time>2020-03-29T17:08:46Z</time>
      </trkpt>
      <trkpt lat="42.6639890" lon="-2.0328430">
        <ele>443.0</ele>
        <time>2020-03-29T17:08:48Z</time>
      </trkpt>
      <trkpt lat="42.6639060" lon="-2.0328420">
        <ele>442.7</ele>
        <time>2020-03-29T17:08:50Z</time>
      </trkpt>
      <trkpt lat="42.6638410" lon="-2.0327880">
        <ele>442.4</ele>
        <time>2020-03-29T17:08:52Z</time>
      </trkpt>
      <trkpt lat="42.6637830" lon="-2.0327000">
        <ele>442.2</ele>
        <time>2020-03-29T17:08:54Z</time>
      </trkpt>
      <trkpt lat="42.6637220" lon="-2.0327150">
        <ele>442.6</ele>
        <time>2020-03-29T17:08:56Z</time>
      </trkpt>
      <trkpt lat="42.6636620" lon="-2.0327290">
        <ele>442.9</ele>
        <time>2020-03-29T17:08:58Z</time>
      </trkpt>
      <trkpt lat="42.6636000" lon="-2.0327430">
        <ele>443.3</ele>
        <time>2020-03-29T17:09:00Z</time>
      </trkpt>
      <trkpt lat="42.6635370" lon="-2.0327580">
        <ele>443.6</ele>
        <time>2020-03-29T17:09:02Z</time>
      </trkpt>
      <trkpt lat="42.6634730" lon="-2.0327730">
        <ele>444.0</ele>
        <time>2020-03-29T17:09:04Z</time>
      </trkpt>
      <trkpt lat="42.6632810" lon="-2.0328230">
        <ele>444.9</ele>
        <time>2020-03-29T17:09:06Z</time>
      </trkpt>
      <trkpt lat="42.6632200" lon="-2.0328540">
        <ele>445.2</ele>
        <time>2020-03-29T17:09:08Z</time>
      </trkpt>
      <trkpt lat="42.6631590" lon="-2.0328850">
        <ele>445.5</ele>
        <time>2020-03-29T17:09:10Z</time>
      </trkpt>
      <trkpt lat="42.6630970" lon="-2.0329160">
        <ele>445.7</ele>
        <time>2020-03-29T17:09:12Z</time>
      </trkpt>
      <trkpt lat="42.6630360" lon="-2.0329470">
        <ele>445.8</ele>
        <time>2020-03-29T17:09:14Z</time>
      </trkpt>
      <trkpt lat="42.6628740" lon="-2.0330240">
        <ele>446.2</ele>
        <time>2020-03-29T17:09:16Z</time>
      </trkpt>
      <trkpt lat="42.6627870" lon="-2.0330600">
        <ele>446.5</ele>
        <time>2020-03-29T17:09:18Z</time>
      </trkpt>
      <trkpt lat="42.6627240" lon="-2.0330870">
        <ele>446.7</ele>
        <time>2020-03-29T17:09:20Z</time>
      </trkpt>
      <trkpt lat="42.6626610" lon="-2.0331140">
        <ele>447.0</ele>
        <time>2020-03-29T17:09:22Z</time>
      </trkpt>
      <trkpt lat="42.6625310" lon="-2.0331710">
        <ele>447.5</ele>
        <time>2020-03-29T17:09:24Z</time>
      </trkpt>
      <trkpt lat="42.6624690" lon="-2.0332000">
        <ele>447.8</ele>
        <time>2020-03-29T17:09:27Z</time>
      </trkpt>
      <trkpt lat="42.6623510" lon="-2.0332560">
        <ele>448.3</ele>
        <time>2020-03-29T17:09:29Z</time>
      </trkpt>
      <trkpt lat="42.6622780" lon="-2.0332880">
        <ele>448.6</ele>
        <time>2020-03-29T17:09:31Z</time>
      </trkpt>
      <trkpt lat="42.6621850" lon="-2.0333230">
        <ele>448.9</ele>
        <time>2020-03-29T17:09:33Z</time>
      </trkpt>
      <trkpt lat="42.6621260" lon="-2.0333520">
        <ele>449.1</ele>
        <time>2020-03-29T17:09:35Z</time>
      </trkpt>
      <trkpt lat="42.6620660" lon="-2.0333800">
        <ele>449.3</ele>
        <time>2020-03-29T17:09:37Z</time>
      </trkpt>
      <trkpt lat="42.6619470" lon="-2.0334370">
        <ele>449.8</ele>
        <time>2020-03-29T17:09:39Z</time>
      </trkpt>
      <trkpt lat="42.6618950" lon="-2.0334630">
        <ele>450.1</ele>
        <time>2020-03-29T17:09:41Z</time>
      </trkpt>
      <trkpt lat="42.6618130" lon="-2.0335030">
        <ele>450.5</ele>
        <time>2020-03-29T17:09:43Z</time>
      </trkpt>
      <trkpt lat="42.6617370" lon="-2.0335420">
        <ele>451.1</ele>
        <time>2020-03-29T17:09:45Z</time>
      </trkpt>
      <trkpt lat="42.6617650" lon="-2.0336360">
        <ele>451.8</ele>
        <time>2020-03-29T17:09:47Z</time>
      </trkpt>
      <trkpt lat="42.6617340" lon="-2.0336950">
        <ele>452.2</ele>
        <time>2020-03-29T17:09:49Z</time>
      </trkpt>
      <trkpt lat="42.6616630" lon="-2.0337500">
        <ele>452.9</ele>
        <time>2020-03-29T17:09:51Z</time>
      </trkpt>
      <trkpt lat="42.6615930" lon="-2.0337930">
        <ele>453.3</ele>
        <time>2020-03-29T17:09:53Z</time>
      </trkpt>
      <trkpt lat="42.6615430" lon="-2.0338170">
        <ele>453.6</ele>
        <time>2020-03-29T17:09:55Z</time>
      </trkpt>
      <trkpt lat="42.6614950" lon="-2.0338390">
        <ele>453.9</ele>
        <time>2020-03-29T17:09:57Z</time>
      </trkpt>
      <trkpt lat="42.6614490" lon="-2.0338610">
        <ele>454.2</ele>
        <time>2020-03-29T17:09:59Z</time>
      </trkpt>
      <trkpt lat="42.6614030" lon="-2.0338830">
        <ele>454.5</ele>
        <time>2020-03-29T17:10:01Z</time>
      </trkpt>
      <trkpt lat="42.6613580" lon="-2.0339040">
        <ele>454.7</ele>
        <time>2020-03-29T17:10:03Z</time>
      </trkpt>
      <trkpt lat="42.6612090" lon="-2.0339690">
        <ele>455.9</ele>
        <time>2020-03-29T17:10:05Z</time>
      </trkpt>
      <trkpt lat="42.6611660" lon="-2.0339790">
        <ele>456.1</ele>
        <time>2020-03-29T17:10:07Z</time>
      </trkpt>
      <trkpt lat="42.6611230" lon="-2.0339880">
        <ele>456.7</ele>
        <time>2020-03-29T17:10:09Z</time>
      </trkpt>
      <trkpt lat="42.6610800" lon="-2.0339980">
        <ele>457.2</ele>
        <time>2020-03-29T17:10:11Z</time>
      </trkpt>
      <trkpt lat="42.6609750" lon="-2.0340190">
        <ele>458.3</ele>
        <time>2020-03-29T17:10:13Z</time>
      </trkpt>
      <trkpt lat="42.6609010" lon="-2.0340270">
        <ele>459.0</ele>
        <time>2020-03-29T17:10:15Z</time>
      </trkpt>
      <trkpt lat="42.6608530" lon="-2.0340210">
        <ele>459.5</ele>
        <time>2020-03-29T17:10:17Z</time>
      </trkpt>
      <trkpt lat="42.6607940" lon="-2.0339940">
        <ele>460.3</ele>
        <time>2020-03-29T17:10:19Z</time>
      </trkpt>
      <trkpt lat="42.6607370" lon="-2.0339610">
        <ele>461.4</ele>
        <time>2020-03-29T17:10:21Z</time>
      </trkpt>
      <trkpt lat="42.6606760" lon="-2.0339280">
        <ele>462.5</ele>
        <time>2020-03-29T17:10:23Z</time>
      </trkpt>
      <trkpt lat="42.6606070" lon="-2.0339010">
        <ele>463.4</ele>
        <time>2020-03-29T17:10:25Z</time>
      </trkpt>
      <trkpt lat="42.6605610" lon="-2.0339100">
        <ele>464.0</ele>
        <time>2020-03-29T17:10:27Z</time>
      </trkpt>
      <trkpt lat="42.6605160" lon="-2.0339190">
        <ele>464.5</ele>
        <time>2020-03-29T17:10:29Z</time>
      </trkpt>
      <trkpt lat="42.6604710" lon="-2.0339270">
        <ele>464.9</ele>
        <time>2020-03-29T17:10:31Z</time>
      </trkpt>
      <trkpt lat="42.6604260" lon="-2.0339360">
        <ele>465.3</ele>
        <time>2020-03-29T17:10:33Z</time>
      </trkpt>
      <trkpt lat="42.6603010" lon="-2.0339600">
        <ele>466.3</ele>
        <time>2020-03-29T17:10:35Z</time>
      </trkpt>
      <trkpt lat="42.6602490" lon="-2.0339760">
        <ele>466.7</ele>
        <time>2020-03-29T17:10:37Z</time>
      </trkpt>
      <trkpt lat="42.6601540" lon="-2.0339960">
        <ele>467.4</ele>
        <time>2020-03-29T17:10:39Z</time>
      </trkpt>
      <trkpt lat="42.6600940" lon="-2.0339970">
        <ele>467.9</ele>
        <time>2020-03-29T17:10:41Z</time>
      </trkpt>
      <trkpt lat="42.6600020" lon="-2.0340120">
        <ele>468.6</ele>
        <time>2020-03-29T17:10:43Z</time>
      </trkpt>
      <trkpt lat="42.6599310" lon="-2.0340480">
        <ele>469.1</ele>
        <time>2020-03-29T17:10:45Z</time>
      </trkpt>
      <trkpt lat="42.6598860" lon="-2.0340810">
        <ele>469.5</ele>
        <time>2020-03-29T17:10:47Z</time>
      </trkpt>
      <trkpt lat="42.6598180" lon="-2.0341370">
        <ele>470.3</ele>
        <time>2020-03-29T17:10:49Z</time>
      </trkpt>
      <trkpt lat="42.6597550" lon="-2.0341960">
        <ele>470.5</ele>
        <time>2020-03-29T17:10:51Z</time>
      </trkpt>
      <trkpt lat="42.6597120" lon="-2.0342470">
        <ele>470.7</ele>
        <time>2020-03-29T17:10:53Z</time>
      </trkpt>
      <trkpt lat="42.6596800" lon="-2.0342940">
        <ele>470.9</ele>
        <time>2020-03-29T17:10:55Z</time>
      </trkpt>
      <trkpt lat="42.6596490" lon="-2.0343400">
        <ele>471.0</ele>
        <time>2020-03-29T17:10:57Z</time>
      </trkpt>
      <trkpt lat="42.6595820" lon="-2.0344420">
        <ele>471.3</ele>
        <time>2020-03-29T17:10:59Z</time>
      </trkpt>
      <trkpt lat="42.6595550" lon="-2.0344910">
        <ele>471.4</ele>
        <time>2020-03-29T17:11:01Z</time>
      </trkpt>
      <trkpt lat="42.6595270" lon="-2.0345420">
        <ele>471.5</ele>
        <time>2020-03-29T17:11:03Z</time>
      </trkpt>
      <trkpt lat="42.6594740" lon="-2.0346450">
        <ele>471.6</ele>
        <time>2020-03-29T17:11:05Z</time>
      </trkpt>
      <trkpt lat="42.6594450" lon="-2.0347100">
        <ele>471.6</ele>
        <time>2020-03-29T17:11:07Z</time>
      </trkpt>
      <trkpt lat="42.6594160" lon="-2.0347760">
        <ele>471.7</ele>
        <time>2020-03-29T17:11:09Z</time>
      </trkpt>
      <trkpt lat="42.6593880" lon="-2.0348420">
        <ele>471.7</ele>
        <time>2020-03-29T17:11:11Z</time>
      </trkpt>
      <trkpt lat="42.6593210" lon="-2.0349930">
        <ele>472.0</ele>
        <time>2020-03-29T17:11:13Z</time>
      </trkpt>
      <trkpt lat="42.6592930" lon="-2.0350560">
        <ele>472.2</ele>
        <time>2020-03-29T17:11:15Z</time>
      </trkpt>
      <trkpt lat="42.6592650" lon="-2.0351170">
        <ele>472.4</ele>
        <time>2020-03-29T17:11:17Z</time>
      </trkpt>
      <trkpt lat="42.6592370" lon="-2.0351790">
        <ele>472.6</ele>
        <time>2020-03-29T17:11:19Z</time>
      </trkpt>
      <trkpt lat="42.6591660" lon="-2.0353340">
        <ele>473.1</ele>
        <time>2020-03-29T17:11:21Z</time>
      </trkpt>
      <trkpt lat="42.6591200" lon="-2.0354170">
        <ele>473.7</ele>
        <time>2020-03-29T17:11:23Z</time>
      </trkpt>
      <trkpt lat="42.6590800" lon="-2.0354630">
        <ele>474.1</ele>
        <time>2020-03-29T17:11:25Z</time>
      </trkpt>
      <trkpt lat="42.6590150" lon="-2.0355450">
        <ele>474.8</ele>
        <time>2020-03-29T17:11:27Z</time>
      </trkpt>
      <trkpt lat="42.6589830" lon="-2.0356210">
        <ele>475.3</ele>
        <time>2020-03-29T17:11:29Z</time>
      </trkpt>
      <trkpt lat="42.6589180" lon="-2.0356630">
        <ele>476.0</ele>
        <time>2020-03-29T17:11:31Z</time>
      </trkpt>
      <trkpt lat="42.6588650" lon="-2.0356960">
        <ele>476.4</ele>
        <time>2020-03-29T17:11:33Z</time>
      </trkpt>
      <trkpt lat="42.6588050" lon="-2.0357570">
        <ele>477.0</ele>
        <time>2020-03-29T17:11:35Z</time>
      </trkpt>
      <trkpt lat="42.6587710" lon="-2.0357970">
        <ele>477.4</ele>
        <time>2020-03-29T17:11:37Z</time>
      </trkpt>
      <trkpt lat="42.6587120" lon="-2.0358660">
        <ele>478.0</ele>
        <time>2020-03-29T17:11:39Z</time>
      </trkpt>
      <trkpt lat="42.6586780" lon="-2.0359040">
        <ele>478.4</ele>
        <time>2020-03-29T17:11:41Z</time>
      </trkpt>
      <trkpt lat="42.6586220" lon="-2.0359640">
        <ele>478.9</ele>
        <time>2020-03-29T17:11:43Z</time>
      </trkpt>
      <trkpt lat="42.6585840" lon="-2.0360020">
        <ele>479.3</ele>
        <time>2020-03-29T17:11:45Z</time>
      </trkpt>
      <trkpt lat="42.6585200" lon="-2.0360640">
        <ele>479.9</ele>
        <time>2020-03-29T17:11:47Z</time>
      </trkpt>
      <trkpt lat="42.6584800" lon="-2.0361000">
        <ele>480.3</ele>
        <time>2020-03-29T17:11:49Z</time>
      </trkpt>
      <trkpt lat="42.6584410" lon="-2.0361370">
        <ele>480.7</ele>
        <time>2020-03-29T17:11:51Z</time>
      </trkpt>
      <trkpt lat="42.6584020" lon="-2.0361720">
        <ele>481.1</ele>
        <time>2020-03-29T17:11:53Z</time>
      </trkpt>
      <trkpt lat="42.6583630" lon="-2.0362090">
        <ele>481.4</ele>
        <time>2020-03-29T17:11:55Z</time>
      </trkpt>
      <trkpt lat="42.6583250" lon="-2.0362440">
        <ele>481.7</ele>
        <time>2020-03-29T17:11:57Z</time>
      </trkpt>
      <trkpt lat="42.6582860" lon="-2.0362800">
        <ele>481.9</ele>
        <time>2020-03-29T17:11:59Z</time>
      </trkpt>
      <trkpt lat="42.6582470" lon="-2.0363170">
        <ele>482.2</ele>
        <time>2020-03-29T17:12:01Z</time>
      </trkpt>
      <trkpt lat="42.6580860" lon="-2.0364650">
        <ele>483.4</ele>
        <time>2020-03-29T17:12:03Z</time>
      </trkpt>
      <trkpt lat="42.6580410" lon="-2.0365100">
        <ele>483.5</ele>
        <time>2020-03-29T17:12:05Z</time>
      </trkpt>
      <trkpt lat="42.6579890" lon="-2.0365610">
        <ele>483.6</ele>
        <time>2020-03-29T17:12:07Z</time>
      </trkpt>
      <trkpt lat="42.6579380" lon="-2.0366120">
        <ele>483.7</ele>
        <time>2020-03-29T17:12:09Z</time>
      </trkpt>
      <trkpt lat="42.6578890" lon="-2.0366610">
        <ele>483.8</ele>
        <time>2020-03-29T17:12:11Z</time>
      </trkpt>
      <trkpt lat="42.6578420" lon="-2.0367070">
        <ele>483.9</ele>
        <time>2020-03-29T17:12:13Z</time>
      </trkpt>
      <trkpt lat="42.6577970" lon="-2.0367520">
        <ele>484.0</ele>
        <time>2020-03-29T17:12:15Z</time>
      </trkpt>
      <trkpt lat="42.6577530" lon="-2.0367960">
        <ele>484.0</ele>
        <time>2020-03-29T17:12:17Z</time>
      </trkpt>
      <trkpt lat="42.6575800" lon="-2.0369680">
        <ele>484.6</ele>
        <time>2020-03-29T17:12:19Z</time>
      </trkpt>
      <trkpt lat="42.6575170" lon="-2.0370310">
        <ele>484.9</ele>
        <time>2020-03-29T17:12:21Z</time>
      </trkpt>
      <trkpt lat="42.6574740" lon="-2.0370730">
        <ele>485.1</ele>
        <time>2020-03-29T17:12:23Z</time>
      </trkpt>
      <trkpt lat="42.6574320" lon="-2.0371150">
        <ele>485.3</ele>
        <time>2020-03-29T17:12:25Z</time>
      </trkpt>
      <trkpt lat="42.6573460" lon="-2.0371990">
        <ele>485.7</ele>
        <time>2020-03-29T17:12:27Z</time>
      </trkpt>
      <trkpt lat="42.6573040" lon="-2.0372400">
        <ele>486.1</ele>
        <time>2020-03-29T17:12:29Z</time>
      </trkpt>
      <trkpt lat="42.6572610" lon="-2.0372810">
        <ele>486.5</ele>
        <time>2020-03-29T17:12:31Z</time>
      </trkpt>
      <trkpt lat="42.6571860" lon="-2.0373510">
        <ele>487.0</ele>
        <time>2020-03-29T17:12:33Z</time>
      </trkpt>
      <trkpt lat="42.6571450" lon="-2.0373890">
        <ele>487.2</ele>
        <time>2020-03-29T17:12:35Z</time>
      </trkpt>
      <trkpt lat="42.6570690" lon="-2.0374590">
        <ele>487.6</ele>
        <time>2020-03-29T17:12:37Z</time>
      </trkpt>
      <trkpt lat="42.6570040" lon="-2.0375200">
        <ele>487.9</ele>
        <time>2020-03-29T17:12:39Z</time>
      </trkpt>
      <trkpt lat="42.6569630" lon="-2.0375610">
        <ele>488.1</ele>
        <time>2020-03-29T17:12:41Z</time>
      </trkpt>
      <trkpt lat="42.6569210" lon="-2.0376030">
        <ele>488.2</ele>
        <time>2020-03-29T17:12:43Z</time>
      </trkpt>
      <trkpt lat="42.6568780" lon="-2.0376460">
        <ele>488.4</ele>
        <time>2020-03-29T17:12:45Z</time>
      </trkpt>
      <trkpt lat="42.6567800" lon="-2.0377440">
        <ele>488.8</ele>
        <time>2020-03-29T17:12:47Z</time>
      </trkpt>
      <trkpt lat="42.6567210" lon="-2.0378010">
        <ele>489.2</ele>
        <time>2020-03-29T17:12:49Z</time>
      </trkpt>
      <trkpt lat="42.6566780" lon="-2.0378430">
        <ele>489.4</ele>
        <time>2020-03-29T17:12:51Z</time>
      </trkpt>
      <trkpt lat="42.6566110" lon="-2.0379200">
        <ele>491.0</ele>
        <time>2020-03-29T17:12:53Z</time>
      </trkpt>
      <trkpt lat="42.6566160" lon="-2.0380170">
        <ele>490.9</ele>
        <time>2020-03-29T17:12:55Z</time>
      </trkpt>
      <trkpt lat="42.6565610" lon="-2.0380720">
        <ele>490.9</ele>
        <time>2020-03-29T17:12:57Z</time>
      </trkpt>
      <trkpt lat="42.6564960" lon="-2.0380480">
        <ele>490.8</ele>
        <time>2020-03-29T17:12:59Z</time>
      </trkpt>
      <trkpt lat="42.6564450" lon="-2.0380750">
        <ele>490.8</ele>
        <time>2020-03-29T17:13:01Z</time>
      </trkpt>
      <trkpt lat="42.6563910" lon="-2.0381260">
        <ele>490.9</ele>
        <time>2020-03-29T17:13:03Z</time>
      </trkpt>
      <trkpt lat="42.6563330" lon="-2.0381810">
        <ele>490.9</ele>
        <time>2020-03-29T17:13:05Z</time>
      </trkpt>
      <trkpt lat="42.6562720" lon="-2.0382400">
        <ele>491.0</ele>
        <time>2020-03-29T17:13:07Z</time>
      </trkpt>
      <trkpt lat="42.6562090" lon="-2.0383010">
        <ele>491.1</ele>
        <time>2020-03-29T17:13:09Z</time>
      </trkpt>
      <trkpt lat="42.6561440" lon="-2.0383620">
        <ele>491.3</ele>
        <time>2020-03-29T17:13:11Z</time>
      </trkpt>
      <trkpt lat="42.6559500" lon="-2.0385490">
        <ele>491.8</ele>
        <time>2020-03-29T17:13:13Z</time>
      </trkpt>
      <trkpt lat="42.6558850" lon="-2.0386120">
        <ele>491.9</ele>
        <time>2020-03-29T17:13:15Z</time>
      </trkpt>
      <trkpt lat="42.6558190" lon="-2.0386750">
        <ele>491.9</ele>
        <time>2020-03-29T17:13:17Z</time>
      </trkpt>
      <trkpt lat="42.6557520" lon="-2.0387390">
        <ele>492.0</ele>
        <time>2020-03-29T17:13:19Z</time>
      </trkpt>
      <trkpt lat="42.6555880" lon="-2.0389030">
        <ele>492.2</ele>
        <time>2020-03-29T17:13:21Z</time>
      </trkpt>
      <trkpt lat="42.6555120" lon="-2.0390070">
        <ele>492.3</ele>
        <time>2020-03-29T17:13:23Z</time>
      </trkpt>
      <trkpt lat="42.6554380" lon="-2.0391280">
        <ele>492.3</ele>
        <time>2020-03-29T17:13:25Z</time>
      </trkpt>
      <trkpt lat="42.6553840" lon="-2.0392150">
        <ele>492.3</ele>
        <time>2020-03-29T17:13:27Z</time>
      </trkpt>
      <trkpt lat="42.6553290" lon="-2.0393010">
        <ele>492.4</ele>
        <time>2020-03-29T17:13:29Z</time>
      </trkpt>
      <trkpt lat="42.6552740" lon="-2.0393880">
        <ele>492.4</ele>
        <time>2020-03-29T17:13:31Z</time>
      </trkpt>
      <trkpt lat="42.6552190" lon="-2.0394760">
        <ele>492.4</ele>
        <time>2020-03-29T17:13:33Z</time>
      </trkpt>
      <trkpt lat="42.6551640" lon="-2.0395640">
        <ele>492.3</ele>
        <time>2020-03-29T17:13:35Z</time>
      </trkpt>
      <trkpt lat="42.6549810" lon="-2.0398560">
        <ele>492.7</ele>
        <time>2020-03-29T17:13:37Z</time>
      </trkpt>
      <trkpt lat="42.6549210" lon="-2.0399490">
        <ele>492.7</ele>
        <time>2020-03-29T17:13:39Z</time>
      </trkpt>
      <trkpt lat="42.6548580" lon="-2.0400480">
        <ele>492.8</ele>
        <time>2020-03-29T17:13:41Z</time>
      </trkpt>
      <trkpt lat="42.6547910" lon="-2.0401510">
        <ele>492.8</ele>
        <time>2020-03-29T17:13:43Z</time>
      </trkpt>
      <trkpt lat="42.6547230" lon="-2.0402570">
        <ele>492.9</ele>
        <time>2020-03-29T17:13:45Z</time>
      </trkpt>
      <trkpt lat="42.6546540" lon="-2.0403640">
        <ele>492.9</ele>
        <time>2020-03-29T17:13:47Z</time>
      </trkpt>
      <trkpt lat="42.6544460" lon="-2.0406880">
        <ele>492.5</ele>
        <time>2020-03-29T17:13:49Z</time>
      </trkpt>
      <trkpt lat="42.6543750" lon="-2.0408020">
        <ele>491.6</ele>
        <time>2020-03-29T17:13:51Z</time>
      </trkpt>
      <trkpt lat="42.6543030" lon="-2.0409170">
        <ele>490.8</ele>
        <time>2020-03-29T17:13:53Z</time>
      </trkpt>
      <trkpt lat="42.6542290" lon="-2.0410340">
        <ele>490.0</ele>
        <time>2020-03-29T17:13:55Z</time>
      </trkpt>
      <trkpt lat="42.6540730" lon="-2.0412830">
        <ele>488.8</ele>
        <time>2020-03-29T17:13:57Z</time>
      </trkpt>
      <trkpt lat="42.6540090" lon="-2.0413860">
        <ele>488.7</ele>
        <time>2020-03-29T17:13:59Z</time>
      </trkpt>
      <trkpt lat="42.6538830" lon="-2.0415890">
        <ele>488.2</ele>
        <time>2020-03-29T17:14:01Z</time>
      </trkpt>
      <trkpt lat="42.6538260" lon="-2.0416820">
        <ele>488.4</ele>
        <time>2020-03-29T17:14:03Z</time>
      </trkpt>
      <trkpt lat="42.6537710" lon="-2.0417700">
        <ele>488.5</ele>
        <time>2020-03-29T17:14:05Z</time>
      </trkpt>
      <trkpt lat="42.6537180" lon="-2.0418560">
        <ele>488.7</ele>
        <time>2020-03-29T17:14:07Z</time>
      </trkpt>
      <trkpt lat="42.6535960" lon="-2.0420530">
        <ele>489.0</ele>
        <time>2020-03-29T17:14:09Z</time>
      </trkpt>
      <trkpt lat="42.6535460" lon="-2.0421340">
        <ele>489.1</ele>
        <time>2020-03-29T17:14:11Z</time>
      </trkpt>
      <trkpt lat="42.6534970" lon="-2.0422130">
        <ele>489.2</ele>
        <time>2020-03-29T17:14:13Z</time>
      </trkpt>
      <trkpt lat="42.6533900" lon="-2.0423880">
        <ele>489.8</ele>
        <time>2020-03-29T17:14:15Z</time>
      </trkpt>
      <trkpt lat="42.6533470" lon="-2.0424670">
        <ele>490.2</ele>
        <time>2020-03-29T17:14:17Z</time>
      </trkpt>
      <trkpt lat="42.6533050" lon="-2.0425450">
        <ele>490.6</ele>
        <time>2020-03-29T17:14:19Z</time>
      </trkpt>
      <trkpt lat="42.6532630" lon="-2.0426210">
        <ele>490.9</ele>
        <time>2020-03-29T17:14:21Z</time>
      </trkpt>
      <trkpt lat="42.6532210" lon="-2.0426980">
        <ele>491.2</ele>
        <time>2020-03-29T17:14:23Z</time>
      </trkpt>
      <trkpt lat="42.6531790" lon="-2.0427750">
        <ele>491.6</ele>
        <time>2020-03-29T17:14:25Z</time>
      </trkpt>
      <trkpt lat="42.6531370" lon="-2.0428520">
        <ele>491.9</ele>
        <time>2020-03-29T17:14:27Z</time>
      </trkpt>
      <trkpt lat="42.6530960" lon="-2.0429280">
        <ele>492.3</ele>
        <time>2020-03-29T17:14:29Z</time>
      </trkpt>
      <trkpt lat="42.6530540" lon="-2.0430040">
        <ele>492.6</ele>
        <time>2020-03-29T17:14:31Z</time>
      </trkpt>
      <trkpt lat="42.6528760" lon="-2.0433300">
        <ele>494.5</ele>
        <time>2020-03-29T17:14:33Z</time>
      </trkpt>
      <trkpt lat="42.6528350" lon="-2.0434060">
        <ele>495.1</ele>
        <time>2020-03-29T17:14:35Z</time>
      </trkpt>
      <trkpt lat="42.6527930" lon="-2.0434820">
        <ele>495.6</ele>
        <time>2020-03-29T17:14:37Z</time>
      </trkpt>
      <trkpt lat="42.6527520" lon="-2.0435580">
        <ele>496.0</ele>
        <time>2020-03-29T17:14:39Z</time>
      </trkpt>
      <trkpt lat="42.6527100" lon="-2.0436340">
        <ele>496.5</ele>
        <time>2020-03-29T17:14:41Z</time>
      </trkpt>
      <trkpt lat="42.6526690" lon="-2.0437090">
        <ele>496.9</ele>
        <time>2020-03-29T17:14:43Z</time>
      </trkpt>
      <trkpt lat="42.6526270" lon="-2.0437850">
        <ele>497.4</ele>
        <time>2020-03-29T17:14:45Z</time>
      </trkpt>
      <trkpt lat="42.6525860" lon="-2.0438610">
        <ele>497.9</ele>
        <time>2020-03-29T17:14:47Z</time>
      </trkpt>
      <trkpt lat="42.6525450" lon="-2.0439360">
        <ele>498.4</ele>
        <time>2020-03-29T17:14:49Z</time>
      </trkpt>
      <trkpt lat="42.6525030" lon="-2.0440120">
        <ele>498.9</ele>
        <time>2020-03-29T17:14:51Z</time>
      </trkpt>
      <trkpt lat="42.6523270" lon="-2.0443350">
        <ele>501.0</ele>
        <time>2020-03-29T17:14:53Z</time>
      </trkpt>
      <trkpt lat="42.6522900" lon="-2.0444030">
        <ele>501.5</ele>
        <time>2020-03-29T17:14:55Z</time>
      </trkpt>
      <trkpt lat="42.6522550" lon="-2.0444680">
        <ele>501.9</ele>
        <time>2020-03-29T17:14:57Z</time>
      </trkpt>
      <trkpt lat="42.6522210" lon="-2.0445300">
        <ele>502.3</ele>
        <time>2020-03-29T17:14:59Z</time>
      </trkpt>
      <trkpt lat="42.6521880" lon="-2.0445910">
        <ele>502.7</ele>
        <time>2020-03-29T17:15:01Z</time>
      </trkpt>
      <trkpt lat="42.6520900" lon="-2.0447690">
        <ele>504.0</ele>
        <time>2020-03-29T17:15:03Z</time>
      </trkpt>
      <trkpt lat="42.6520580" lon="-2.0448280">
        <ele>504.6</ele>
        <time>2020-03-29T17:15:05Z</time>
      </trkpt>
      <trkpt lat="42.6520250" lon="-2.0448860">
        <ele>505.1</ele>
        <time>2020-03-29T17:15:07Z</time>
      </trkpt>
      <trkpt lat="42.6519920" lon="-2.0449440">
        <ele>505.7</ele>
        <time>2020-03-29T17:15:09Z</time>
      </trkpt>
      <trkpt lat="42.6519600" lon="-2.0450020">
        <ele>506.3</ele>
        <time>2020-03-29T17:15:11Z</time>
      </trkpt>
      <trkpt lat="42.6519270" lon="-2.0450600">
        <ele>506.8</ele>
        <time>2020-03-29T17:15:13Z</time>
      </trkpt>
      <trkpt lat="42.6518220" lon="-2.0452480">
        <ele>508.8</ele>
        <time>2020-03-29T17:15:15Z</time>
      </trkpt>
      <trkpt lat="42.6517900" lon="-2.0453060">
        <ele>509.5</ele>
        <time>2020-03-29T17:15:17Z</time>
      </trkpt>
      <trkpt lat="42.6517580" lon="-2.0453630">
        <ele>510.3</ele>
        <time>2020-03-29T17:15:19Z</time>
      </trkpt>
      <trkpt lat="42.6517260" lon="-2.0454210">
        <ele>511.1</ele>
        <time>2020-03-29T17:15:21Z</time>
      </trkpt>
      <trkpt lat="42.6516940" lon="-2.0454790">
        <ele>511.8</ele>
        <time>2020-03-29T17:15:23Z</time>
      </trkpt>
      <trkpt lat="42.6516050" lon="-2.0456390">
        <ele>513.4</ele>
        <time>2020-03-29T17:15:25Z</time>
      </trkpt>
      <trkpt lat="42.6515750" lon="-2.0456950">
        <ele>513.2</ele>
        <time>2020-03-29T17:15:27Z</time>
      </trkpt>
      <trkpt lat="42.6515450" lon="-2.0457510">
        <ele>513.2</ele>
        <time>2020-03-29T17:15:29Z</time>
      </trkpt>
      <trkpt lat="42.6515140" lon="-2.0458070">
        <ele>513.1</ele>
        <time>2020-03-29T17:15:31Z</time>
      </trkpt>
      <trkpt lat="42.6514840" lon="-2.0458640">
        <ele>513.1</ele>
        <time>2020-03-29T17:15:33Z</time>
      </trkpt>
      <trkpt lat="42.6514530" lon="-2.0459200">
        <ele>513.0</ele>
        <time>2020-03-29T17:15:35Z</time>
      </trkpt>
      <trkpt lat="42.6514220" lon="-2.0459780">
        <ele>513.1</ele>
        <time>2020-03-29T17:15:37Z</time>
      </trkpt>
      <trkpt lat="42.6513070" lon="-2.0461790">
        <ele>513.7</ele>
        <time>2020-03-29T17:15:39Z</time>
      </trkpt>
      <trkpt lat="42.6512730" lon="-2.0462320">
        <ele>513.9</ele>
        <time>2020-03-29T17:15:41Z</time>
      </trkpt>
      <trkpt lat="42.6512380" lon="-2.0462860">
        <ele>514.2</ele>
        <time>2020-03-29T17:15:43Z</time>
      </trkpt>
      <trkpt lat="42.6512040" lon="-2.0463400">
        <ele>514.4</ele>
        <time>2020-03-29T17:15:45Z</time>
      </trkpt>
      <trkpt lat="42.6511700" lon="-2.0463930">
        <ele>514.8</ele>
        <time>2020-03-29T17:15:47Z</time>
      </trkpt>
      <trkpt lat="42.6511350" lon="-2.0464470">
        <ele>515.1</ele>
        <time>2020-03-29T17:15:49Z</time>
      </trkpt>
      <trkpt lat="42.6510240" lon="-2.0466200">
        <ele>516.5</ele>
        <time>2020-03-29T17:15:51Z</time>
      </trkpt>
      <trkpt lat="42.6509810" lon="-2.0466840">
        <ele>517.0</ele>
        <time>2020-03-29T17:15:53Z</time>
      </trkpt>
      <trkpt lat="42.6509350" lon="-2.0467530">
        <ele>517.4</ele>
        <time>2020-03-29T17:15:55Z</time>
      </trkpt>
      <trkpt lat="42.6508910" lon="-2.0468200">
        <ele>517.9</ele>
        <time>2020-03-29T17:15:57Z</time>
      </trkpt>
      <trkpt lat="42.6507910" lon="-2.0469700">
        <ele>518.9</ele>
        <time>2020-03-29T17:15:59Z</time>
      </trkpt>
      <trkpt lat="42.6507500" lon="-2.0470320">
        <ele>519.4</ele>
        <time>2020-03-29T17:16:01Z</time>
      </trkpt>
      <trkpt lat="42.6507100" lon="-2.0470910">
        <ele>519.8</ele>
        <time>2020-03-29T17:16:03Z</time>
      </trkpt>
      <trkpt lat="42.6506710" lon="-2.0471490">
        <ele>520.1</ele>
        <time>2020-03-29T17:16:05Z</time>
      </trkpt>
      <trkpt lat="42.6506340" lon="-2.0472060">
        <ele>520.5</ele>
        <time>2020-03-29T17:16:07Z</time>
      </trkpt>
      <trkpt lat="42.6505960" lon="-2.0472630">
        <ele>520.8</ele>
        <time>2020-03-29T17:16:09Z</time>
      </trkpt>
      <trkpt lat="42.6505590" lon="-2.0473180">
        <ele>521.1</ele>
        <time>2020-03-29T17:16:11Z</time>
      </trkpt>
      <trkpt lat="42.6505230" lon="-2.0473730">
        <ele>521.4</ele>
        <time>2020-03-29T17:16:13Z</time>
      </trkpt>
      <trkpt lat="42.6504860" lon="-2.0474280">
        <ele>521.7</ele>
        <time>2020-03-29T17:16:15Z</time>
      </trkpt>
      <trkpt lat="42.6504500" lon="-2.0474820">
        <ele>522.0</ele>
        <time>2020-03-29T17:16:17Z</time>
      </trkpt>
      <trkpt lat="42.6502800" lon="-2.0477380">
        <ele>523.4</ele>
        <time>2020-03-29T17:16:19Z</time>
      </trkpt>
      <trkpt lat="42.6502450" lon="-2.0477900">
        <ele>523.8</ele>
        <time>2020-03-29T17:16:21Z</time>
      </trkpt>
      <trkpt lat="42.6502110" lon="-2.0478420">
        <ele>524.1</ele>
        <time>2020-03-29T17:16:23Z</time>
      </trkpt>
      <trkpt lat="42.6501760" lon="-2.0478940">
        <ele>524.3</ele>
        <time>2020-03-29T17:16:25Z</time>
      </trkpt>
      <trkpt lat="42.6501410" lon="-2.0479480">
        <ele>524.5</ele>
        <time>2020-03-29T17:16:27Z</time>
      </trkpt>
      <trkpt lat="42.6501050" lon="-2.0480020">
        <ele>524.7</ele>
        <time>2020-03-29T17:16:29Z</time>
      </trkpt>
      <trkpt lat="42.6500690" lon="-2.0480560">
        <ele>525.1</ele>
        <time>2020-03-29T17:16:31Z</time>
      </trkpt>
      <trkpt lat="42.6500330" lon="-2.0481100">
        <ele>525.4</ele>
        <time>2020-03-29T17:16:33Z</time>
      </trkpt>
      <trkpt lat="42.6499970" lon="-2.0481640">
        <ele>525.7</ele>
        <time>2020-03-29T17:16:35Z</time>
      </trkpt>
      <trkpt lat="42.6499610" lon="-2.0482180">
        <ele>526.0</ele>
        <time>2020-03-29T17:16:37Z</time>
      </trkpt>
      <trkpt lat="42.6497900" lon="-2.0484760">
        <ele>527.2</ele>
        <time>2020-03-29T17:16:39Z</time>
      </trkpt>
      <trkpt lat="42.6497540" lon="-2.0485310">
        <ele>527.4</ele>
        <time>2020-03-29T17:16:41Z</time>
      </trkpt>
      <trkpt lat="42.6496930" lon="-2.0486230">
        <ele>527.8</ele>
        <time>2020-03-29T17:16:43Z</time>
      </trkpt>
      <trkpt lat="42.6496570" lon="-2.0486770">
        <ele>527.9</ele>
        <time>2020-03-29T17:16:45Z</time>
      </trkpt>
      <trkpt lat="42.6496210" lon="-2.0487310">
        <ele>528.0</ele>
        <time>2020-03-29T17:16:47Z</time>
      </trkpt>
      <trkpt lat="42.6495850" lon="-2.0487850">
        <ele>528.1</ele>
        <time>2020-03-29T17:16:49Z</time>
      </trkpt>
      <trkpt lat="42.6495490" lon="-2.0488390">
        <ele>528.2</ele>
        <time>2020-03-29T17:16:51Z</time>
      </trkpt>
      <trkpt lat="42.6495140" lon="-2.0488920">
        <ele>528.4</ele>
        <time>2020-03-29T17:16:53Z</time>
      </trkpt>
      <trkpt lat="42.6494780" lon="-2.0489460">
        <ele>528.7</ele>
        <time>2020-03-29T17:16:55Z</time>
      </trkpt>
      <trkpt lat="42.6494430" lon="-2.0489990">
        <ele>529.0</ele>
        <time>2020-03-29T17:16:57Z</time>
      </trkpt>
      <trkpt lat="42.6494070" lon="-2.0490530">
        <ele>529.4</ele>
        <time>2020-03-29T17:16:59Z</time>
      </trkpt>
      <trkpt lat="42.6492630" lon="-2.0492690">
        <ele>530.9</ele>
        <time>2020-03-29T17:17:01Z</time>
      </trkpt>
      <trkpt lat="42.6492320" lon="-2.0493160">
        <ele>531.2</ele>
        <time>2020-03-29T17:17:03Z</time>
      </trkpt>
      <trkpt lat="42.6492020" lon="-2.0493620">
        <ele>531.4</ele>
        <time>2020-03-29T17:17:05Z</time>
      </trkpt>
      <trkpt lat="42.6491710" lon="-2.0494080">
        <ele>531.7</ele>
        <time>2020-03-29T17:17:07Z</time>
      </trkpt>
      <trkpt lat="42.6491400" lon="-2.0494550">
        <ele>532.0</ele>
        <time>2020-03-29T17:17:09Z</time>
      </trkpt>
      <trkpt lat="42.6491080" lon="-2.0495030">
        <ele>532.2</ele>
        <time>2020-03-29T17:17:11Z</time>
      </trkpt>
      <trkpt lat="42.6490760" lon="-2.0495520">
        <ele>532.5</ele>
        <time>2020-03-29T17:17:13Z</time>
      </trkpt>
      <trkpt lat="42.6490440" lon="-2.0496000">
        <ele>532.8</ele>
        <time>2020-03-29T17:17:15Z</time>
      </trkpt>
      <trkpt lat="42.6490120" lon="-2.0496480">
        <ele>533.1</ele>
        <time>2020-03-29T17:17:17Z</time>
      </trkpt>
      <trkpt lat="42.6489800" lon="-2.0496960">
        <ele>533.4</ele>
        <time>2020-03-29T17:17:19Z</time>
      </trkpt>
      <trkpt lat="42.6489480" lon="-2.0497440">
        <ele>533.7</ele>
        <time>2020-03-29T17:17:21Z</time>
      </trkpt>
      <trkpt lat="42.6489160" lon="-2.0497920">
        <ele>533.9</ele>
        <time>2020-03-29T17:17:23Z</time>
      </trkpt>
      <trkpt lat="42.6487500" lon="-2.0500420">
        <ele>535.9</ele>
        <time>2020-03-29T17:17:25Z</time>
      </trkpt>
      <trkpt lat="42.6487180" lon="-2.0500900">
        <ele>536.2</ele>
        <time>2020-03-29T17:17:27Z</time>
      </trkpt>
      <trkpt lat="42.6486870" lon="-2.0501380">
        <ele>536.5</ele>
        <time>2020-03-29T17:17:29Z</time>
      </trkpt>
      <trkpt lat="42.6486550" lon="-2.0501860">
        <ele>536.9</ele>
        <time>2020-03-29T17:17:31Z</time>
      </trkpt>
      <trkpt lat="42.6486230" lon="-2.0502340">
        <ele>537.2</ele>
        <time>2020-03-29T17:17:33Z</time>
      </trkpt>
      <trkpt lat="42.6485910" lon="-2.0502820">
        <ele>537.6</ele>
        <time>2020-03-29T17:17:35Z</time>
      </trkpt>
      <trkpt lat="42.6485590" lon="-2.0503300">
        <ele>537.9</ele>
        <time>2020-03-29T17:17:37Z</time>
      </trkpt>
      <trkpt lat="42.6485270" lon="-2.0503790">
        <ele>538.1</ele>
        <time>2020-03-29T17:17:39Z</time>
      </trkpt>
      <trkpt lat="42.6484950" lon="-2.0504270">
        <ele>538.5</ele>
        <time>2020-03-29T17:17:41Z</time>
      </trkpt>
      <trkpt lat="42.6484630" lon="-2.0504750">
        <ele>538.9</ele>
        <time>2020-03-29T17:17:43Z</time>
      </trkpt>
      <trkpt lat="42.6484310" lon="-2.0505230">
        <ele>539.4</ele>
        <time>2020-03-29T17:17:45Z</time>
      </trkpt>
      <trkpt lat="42.6482660" lon="-2.0507750">
        <ele>541.6</ele>
        <time>2020-03-29T17:17:47Z</time>
      </trkpt>
      <trkpt lat="42.6482380" lon="-2.0508250">
        <ele>541.9</ele>
        <time>2020-03-29T17:17:49Z</time>
      </trkpt>
      <trkpt lat="42.6482110" lon="-2.0508750">
        <ele>542.2</ele>
        <time>2020-03-29T17:17:51Z</time>
      </trkpt>
      <trkpt lat="42.6481830" lon="-2.0509240">
        <ele>542.5</ele>
        <time>2020-03-29T17:17:53Z</time>
      </trkpt>
      <trkpt lat="42.6481550" lon="-2.0509740">
        <ele>542.8</ele>
        <time>2020-03-29T17:17:55Z</time>
      </trkpt>
      <trkpt lat="42.6481270" lon="-2.0510250">
        <ele>543.2</ele>
        <time>2020-03-29T17:17:57Z</time>
      </trkpt>
      <trkpt lat="42.6480990" lon="-2.0510750">
        <ele>543.6</ele>
        <time>2020-03-29T17:17:59Z</time>
      </trkpt>
      <trkpt lat="42.6480710" lon="-2.0511250">
        <ele>544.2</ele>
        <time>2020-03-29T17:18:01Z</time>
      </trkpt>
      <trkpt lat="42.6479630" lon="-2.0513190">
        <ele>546.9</ele>
        <time>2020-03-29T17:18:03Z</time>
      </trkpt>
      <trkpt lat="42.6479240" lon="-2.0513910">
        <ele>547.8</ele>
        <time>2020-03-29T17:18:05Z</time>
      </trkpt>
      <trkpt lat="42.6478970" lon="-2.0514420">
        <ele>548.3</ele>
        <time>2020-03-29T17:18:07Z</time>
      </trkpt>
      <trkpt lat="42.6478700" lon="-2.0514940">
        <ele>548.8</ele>
        <time>2020-03-29T17:18:09Z</time>
      </trkpt>
      <trkpt lat="42.6478430" lon="-2.0515460">
        <ele>549.2</ele>
        <time>2020-03-29T17:18:11Z</time>
      </trkpt>
      <trkpt lat="42.6478160" lon="-2.0515980">
        <ele>549.5</ele>
        <time>2020-03-29T17:18:13Z</time>
      </trkpt>
      <trkpt lat="42.6477900" lon="-2.0516500">
        <ele>549.8</ele>
        <time>2020-03-29T17:18:15Z</time>
      </trkpt>
      <trkpt lat="42.6477630" lon="-2.0517020">
        <ele>550.1</ele>
        <time>2020-03-29T17:18:17Z</time>
      </trkpt>
      <trkpt lat="42.6476720" lon="-2.0518800">
        <ele>551.4</ele>
        <time>2020-03-29T17:18:19Z</time>
      </trkpt>
      <trkpt lat="42.6476420" lon="-2.0519490">
        <ele>551.9</ele>
        <time>2020-03-29T17:18:21Z</time>
      </trkpt>
      <trkpt lat="42.6476080" lon="-2.0520250">
        <ele>552.4</ele>
        <time>2020-03-29T17:18:23Z</time>
      </trkpt>
      <trkpt lat="42.6475750" lon="-2.0521000">
        <ele>552.8</ele>
        <time>2020-03-29T17:18:25Z</time>
      </trkpt>
      <trkpt lat="42.6475440" lon="-2.0521710">
        <ele>553.1</ele>
        <time>2020-03-29T17:18:27Z</time>
      </trkpt>
      <trkpt lat="42.6475150" lon="-2.0522380">
        <ele>553.4</ele>
        <time>2020-03-29T17:18:29Z</time>
      </trkpt>
      <trkpt lat="42.6474870" lon="-2.0523020">
        <ele>553.6</ele>
        <time>2020-03-29T17:18:31Z</time>
      </trkpt>
      <trkpt lat="42.6473860" lon="-2.0525310">
        <ele>554.5</ele>
        <time>2020-03-29T17:18:33Z</time>
      </trkpt>
      <trkpt lat="42.6473600" lon="-2.0525900">
        <ele>554.7</ele>
        <time>2020-03-29T17:18:35Z</time>
      </trkpt>
      <trkpt lat="42.6473340" lon="-2.0526490">
        <ele>554.9</ele>
        <time>2020-03-29T17:18:37Z</time>
      </trkpt>
      <trkpt lat="42.6473090" lon="-2.0527070">
        <ele>555.1</ele>
        <time>2020-03-29T17:18:39Z</time>
      </trkpt>
      <trkpt lat="42.6472840" lon="-2.0527640">
        <ele>555.4</ele>
        <time>2020-03-29T17:18:41Z</time>
      </trkpt>
      <trkpt lat="42.6472120" lon="-2.0529270">
        <ele>556.0</ele>
        <time>2020-03-29T17:18:43Z</time>
      </trkpt>
      <trkpt lat="42.6471870" lon="-2.0529830">
        <ele>556.3</ele>
        <time>2020-03-29T17:18:45Z</time>
      </trkpt>
      <trkpt lat="42.6471620" lon="-2.0530380">
        <ele>556.5</ele>
        <time>2020-03-29T17:18:47Z</time>
      </trkpt>
      <trkpt lat="42.6471110" lon="-2.0531530">
        <ele>557.0</ele>
        <time>2020-03-29T17:18:49Z</time>
      </trkpt>
      <trkpt lat="42.6470870" lon="-2.0532100">
        <ele>557.4</ele>
        <time>2020-03-29T17:18:51Z</time>
      </trkpt>
      <trkpt lat="42.6470640" lon="-2.0532650">
        <ele>557.7</ele>
        <time>2020-03-29T17:18:53Z</time>
      </trkpt>
      <trkpt lat="42.6470400" lon="-2.0533200">
        <ele>558.0</ele>
        <time>2020-03-29T17:18:55Z</time>
      </trkpt>
      <trkpt lat="42.6470170" lon="-2.0533760">
        <ele>558.3</ele>
        <time>2020-03-29T17:18:57Z</time>
      </trkpt>
      <trkpt lat="42.6469500" lon="-2.0535330">
        <ele>559.1</ele>
        <time>2020-03-29T17:18:59Z</time>
      </trkpt>
      <trkpt lat="42.6469250" lon="-2.0535960">
        <ele>559.4</ele>
        <time>2020-03-29T17:19:01Z</time>
      </trkpt>
      <trkpt lat="42.6468990" lon="-2.0536590">
        <ele>559.7</ele>
        <time>2020-03-29T17:19:03Z</time>
      </trkpt>
      <trkpt lat="42.6468740" lon="-2.0537210">
        <ele>560.1</ele>
        <time>2020-03-29T17:19:05Z</time>
      </trkpt>
      <trkpt lat="42.6468490" lon="-2.0537830">
        <ele>560.4</ele>
        <time>2020-03-29T17:19:07Z</time>
      </trkpt>
      <trkpt lat="42.6468250" lon="-2.0538430">
        <ele>560.6</ele>
        <time>2020-03-29T17:19:09Z</time>
      </trkpt>
      <trkpt lat="42.6468010" lon="-2.0539020">
        <ele>560.9</ele>
        <time>2020-03-29T17:19:11Z</time>
      </trkpt>
      <trkpt lat="42.6467190" lon="-2.0541060">
        <ele>561.6</ele>
        <time>2020-03-29T17:19:13Z</time>
      </trkpt>
      <trkpt lat="42.6466950" lon="-2.0541640">
        <ele>561.8</ele>
        <time>2020-03-29T17:19:15Z</time>
      </trkpt>
      <trkpt lat="42.6466720" lon="-2.0542230">
        <ele>562.0</ele>
        <time>2020-03-29T17:19:17Z</time>
      </trkpt>
      <trkpt lat="42.6466480" lon="-2.0542810">
        <ele>562.2</ele>
        <time>2020-03-29T17:19:19Z</time>
      </trkpt>
      <trkpt lat="42.6466250" lon="-2.0543400">
        <ele>562.4</ele>
        <time>2020-03-29T17:19:21Z</time>
      </trkpt>
      <trkpt lat="42.6466010" lon="-2.0543980">
        <ele>562.5</ele>
        <time>2020-03-29T17:19:23Z</time>
      </trkpt>
      <trkpt lat="42.6465780" lon="-2.0544570">
        <ele>562.7</ele>
        <time>2020-03-29T17:19:25Z</time>
      </trkpt>
      <trkpt lat="42.6465540" lon="-2.0545150">
        <ele>562.8</ele>
        <time>2020-03-29T17:19:27Z</time>
      </trkpt>
      <trkpt lat="42.6465310" lon="-2.0545730">
        <ele>563.0</ele>
        <time>2020-03-29T17:19:29Z</time>
      </trkpt>
      <trkpt lat="42.6465070" lon="-2.0546310">
        <ele>563.1</ele>
        <time>2020-03-29T17:19:31Z</time>
      </trkpt>
      <trkpt lat="42.6464840" lon="-2.0546890">
        <ele>563.3</ele>
        <time>2020-03-29T17:19:33Z</time>
      </trkpt>
      <trkpt lat="42.6463610" lon="-2.0549950">
        <ele>564.3</ele>
        <time>2020-03-29T17:19:35Z</time>
      </trkpt>
      <trkpt lat="42.6463370" lon="-2.0550540">
        <ele>564.6</ele>
        <time>2020-03-29T17:19:37Z</time>
      </trkpt>
      <trkpt lat="42.6463140" lon="-2.0551120">
        <ele>564.8</ele>
        <time>2020-03-29T17:19:39Z</time>
      </trkpt>
      <trkpt lat="42.6462910" lon="-2.0551700">
        <ele>565.0</ele>
        <time>2020-03-29T17:19:41Z</time>
      </trkpt>
      <trkpt lat="42.6462670" lon="-2.0552280">
        <ele>565.3</ele>
        <time>2020-03-29T17:19:43Z</time>
      </trkpt>
      <trkpt lat="42.6462440" lon="-2.0552860">
        <ele>565.5</ele>
        <time>2020-03-29T17:19:45Z</time>
      </trkpt>
      <trkpt lat="42.6462210" lon="-2.0553450">
        <ele>565.7</ele>
        <time>2020-03-29T17:19:47Z</time>
      </trkpt>
      <trkpt lat="42.6461970" lon="-2.0554030">
        <ele>566.0</ele>
        <time>2020-03-29T17:19:49Z</time>
      </trkpt>
      <trkpt lat="42.6461740" lon="-2.0554620">
        <ele>566.2</ele>
        <time>2020-03-29T17:19:51Z</time>
      </trkpt>
      <trkpt lat="42.6461510" lon="-2.0555200">
        <ele>566.4</ele>
        <time>2020-03-29T17:19:53Z</time>
      </trkpt>
      <trkpt lat="42.6461270" lon="-2.0555770">
        <ele>566.6</ele>
        <time>2020-03-29T17:19:55Z</time>
      </trkpt>
      <trkpt lat="42.6461040" lon="-2.0556360">
        <ele>566.9</ele>
        <time>2020-03-29T17:19:57Z</time>
      </trkpt>
      <trkpt lat="42.6459810" lon="-2.0559430">
        <ele>568.1</ele>
        <time>2020-03-29T17:19:59Z</time>
      </trkpt>
      <trkpt lat="42.6459590" lon="-2.0560030">
        <ele>568.1</ele>
        <time>2020-03-29T17:20:01Z</time>
      </trkpt>
      <trkpt lat="42.6459360" lon="-2.0560640">
        <ele>568.1</ele>
        <time>2020-03-29T17:20:03Z</time>
      </trkpt>
      <trkpt lat="42.6459130" lon="-2.0561260">
        <ele>568.1</ele>
        <time>2020-03-29T17:20:05Z</time>
      </trkpt>
      <trkpt lat="42.6458890" lon="-2.0561900">
        <ele>568.2</ele>
        <time>2020-03-29T17:20:07Z</time>
      </trkpt>
      <trkpt lat="42.6458210" lon="-2.0563720">
        <ele>568.2</ele>
        <time>2020-03-29T17:20:09Z</time>
      </trkpt>
      <trkpt lat="42.6457940" lon="-2.0564410">
        <ele>568.4</ele>
        <time>2020-03-29T17:20:11Z</time>
      </trkpt>
      <trkpt lat="42.6457650" lon="-2.0565140">
        <ele>568.6</ele>
        <time>2020-03-29T17:20:13Z</time>
      </trkpt>
      <trkpt lat="42.6457370" lon="-2.0565860">
        <ele>568.8</ele>
        <time>2020-03-29T17:20:15Z</time>
      </trkpt>
      <trkpt lat="42.6457090" lon="-2.0566570">
        <ele>569.0</ele>
        <time>2020-03-29T17:20:17Z</time>
      </trkpt>
      <trkpt lat="42.6456370" lon="-2.0568430">
        <ele>569.5</ele>
        <time>2020-03-29T17:20:19Z</time>
      </trkpt>
      <trkpt lat="42.6456100" lon="-2.0569120">
        <ele>569.6</ele>
        <time>2020-03-29T17:20:21Z</time>
      </trkpt>
      <trkpt lat="42.6455830" lon="-2.0569800">
        <ele>569.8</ele>
        <time>2020-03-29T17:20:23Z</time>
      </trkpt>
      <trkpt lat="42.6455570" lon="-2.0570470">
        <ele>570.0</ele>
        <time>2020-03-29T17:20:25Z</time>
      </trkpt>
      <trkpt lat="42.6455310" lon="-2.0571140">
        <ele>570.3</ele>
        <time>2020-03-29T17:20:27Z</time>
      </trkpt>
      <trkpt lat="42.6455050" lon="-2.0571800">
        <ele>570.4</ele>
        <time>2020-03-29T17:20:29Z</time>
      </trkpt>
      <trkpt lat="42.6454790" lon="-2.0572470">
        <ele>570.5</ele>
        <time>2020-03-29T17:20:31Z</time>
      </trkpt>
      <trkpt lat="42.6454540" lon="-2.0573130">
        <ele>570.6</ele>
        <time>2020-03-29T17:20:33Z</time>
      </trkpt>
      <trkpt lat="42.6454280" lon="-2.0573790">
        <ele>570.8</ele>
        <time>2020-03-29T17:20:35Z</time>
      </trkpt>
      <trkpt lat="42.6454030" lon="-2.0574440">
        <ele>570.9</ele>
        <time>2020-03-29T17:20:37Z</time>
      </trkpt>
      <trkpt lat="42.6452870" lon="-2.0577410">
        <ele>571.7</ele>
        <time>2020-03-29T17:20:39Z</time>
      </trkpt>
      <trkpt lat="42.6452620" lon="-2.0578050">
        <ele>571.9</ele>
        <time>2020-03-29T17:20:41Z</time>
      </trkpt>
      <trkpt lat="42.6452380" lon="-2.0578670">
        <ele>572.0</ele>
        <time>2020-03-29T17:20:43Z</time>
      </trkpt>
      <trkpt lat="42.6452140" lon="-2.0579290">
        <ele>572.2</ele>
        <time>2020-03-29T17:20:45Z</time>
      </trkpt>
      <trkpt lat="42.6451900" lon="-2.0579910">
        <ele>572.3</ele>
        <time>2020-03-29T17:20:47Z</time>
      </trkpt>
      <trkpt lat="42.6451220" lon="-2.0581650">
        <ele>572.7</ele>
        <time>2020-03-29T17:20:49Z</time>
      </trkpt>
      <trkpt lat="42.6450970" lon="-2.0582270">
        <ele>572.8</ele>
        <time>2020-03-29T17:20:51Z</time>
      </trkpt>
      <trkpt lat="42.6450720" lon="-2.0582900">
        <ele>573.0</ele>
        <time>2020-03-29T17:20:53Z</time>
      </trkpt>
      <trkpt lat="42.6450460" lon="-2.0583540">
        <ele>573.3</ele>
        <time>2020-03-29T17:20:55Z</time>
      </trkpt>
      <trkpt lat="42.6450210" lon="-2.0584170">
        <ele>573.5</ele>
        <time>2020-03-29T17:20:57Z</time>
      </trkpt>
      <trkpt lat="42.6449450" lon="-2.0586000">
        <ele>573.9</ele>
        <time>2020-03-29T17:20:59Z</time>
      </trkpt>
      <trkpt lat="42.6449180" lon="-2.0586610">
        <ele>573.9</ele>
        <time>2020-03-29T17:21:01Z</time>
      </trkpt>
      <trkpt lat="42.6448910" lon="-2.0587230">
        <ele>573.9</ele>
        <time>2020-03-29T17:21:03Z</time>
      </trkpt>
      <trkpt lat="42.6448630" lon="-2.0587850">
        <ele>573.9</ele>
        <time>2020-03-29T17:21:05Z</time>
      </trkpt>
      <trkpt lat="42.6447980" lon="-2.0589360">
        <ele>574.1</ele>
        <time>2020-03-29T17:21:07Z</time>
      </trkpt>
      <trkpt lat="42.6447670" lon="-2.0590100">
        <ele>574.5</ele>
        <time>2020-03-29T17:21:09Z</time>
      </trkpt>
      <trkpt lat="42.6447320" lon="-2.0590920">
        <ele>574.9</ele>
        <time>2020-03-29T17:21:11Z</time>
      </trkpt>
      <trkpt lat="42.6446970" lon="-2.0591760">
        <ele>575.3</ele>
        <time>2020-03-29T17:21:13Z</time>
      </trkpt>
      <trkpt lat="42.6446150" lon="-2.0593750">
        <ele>576.1</ele>
        <time>2020-03-29T17:21:15Z</time>
      </trkpt>
      <trkpt lat="42.6445810" lon="-2.0594610">
        <ele>576.3</ele>
        <time>2020-03-29T17:21:17Z</time>
      </trkpt>
      <trkpt lat="42.6445480" lon="-2.0595470">
        <ele>576.6</ele>
        <time>2020-03-29T17:21:19Z</time>
      </trkpt>
      <trkpt lat="42.6444770" lon="-2.0597280">
        <ele>577.0</ele>
        <time>2020-03-29T17:21:21Z</time>
      </trkpt>
      <trkpt lat="42.6444430" lon="-2.0598140">
        <ele>577.0</ele>
        <time>2020-03-29T17:21:23Z</time>
      </trkpt>
      <trkpt lat="42.6444090" lon="-2.0598980">
        <ele>577.1</ele>
        <time>2020-03-29T17:21:25Z</time>
      </trkpt>
      <trkpt lat="42.6443750" lon="-2.0599830">
        <ele>577.1</ele>
        <time>2020-03-29T17:21:27Z</time>
      </trkpt>
      <trkpt lat="42.6443420" lon="-2.0600670">
        <ele>577.1</ele>
        <time>2020-03-29T17:21:29Z</time>
      </trkpt>
      <trkpt lat="42.6442420" lon="-2.0603170">
        <ele>577.5</ele>
        <time>2020-03-29T17:21:31Z</time>
      </trkpt>
      <trkpt lat="42.6442080" lon="-2.0604030">
        <ele>577.7</ele>
        <time>2020-03-29T17:21:33Z</time>
      </trkpt>
      <trkpt lat="42.6441750" lon="-2.0604880">
        <ele>578.0</ele>
        <time>2020-03-29T17:21:35Z</time>
      </trkpt>
      <trkpt lat="42.6441410" lon="-2.0605730">
        <ele>578.2</ele>
        <time>2020-03-29T17:21:37Z</time>
      </trkpt>
      <trkpt lat="42.6441060" lon="-2.0606600">
        <ele>578.5</ele>
        <time>2020-03-29T17:21:39Z</time>
      </trkpt>
      <trkpt lat="42.6440710" lon="-2.0607490">
        <ele>578.8</ele>
        <time>2020-03-29T17:21:41Z</time>
      </trkpt>
      <trkpt lat="42.6440350" lon="-2.0608380">
        <ele>579.1</ele>
        <time>2020-03-29T17:21:43Z</time>
      </trkpt>
      <trkpt lat="42.6439990" lon="-2.0609300">
        <ele>579.3</ele>
        <time>2020-03-29T17:21:45Z</time>
      </trkpt>
      <trkpt lat="42.6438580" lon="-2.0612760">
        <ele>580.7</ele>
        <time>2020-03-29T17:21:47Z</time>
      </trkpt>
      <trkpt lat="42.6438150" lon="-2.0613640">
        <ele>581.1</ele>
        <time>2020-03-29T17:21:49Z</time>
      </trkpt>
      <trkpt lat="42.6437910" lon="-2.0614970">
        <ele>581.4</ele>
        <time>2020-03-29T17:21:51Z</time>
      </trkpt>
      <trkpt lat="42.6438520" lon="-2.0616270">
        <ele>581.0</ele>
        <time>2020-03-29T17:21:53Z</time>
      </trkpt>
      <trkpt lat="42.6438440" lon="-2.0617620">
        <ele>580.9</ele>
        <time>2020-03-29T17:21:55Z</time>
      </trkpt>
      <trkpt lat="42.6437820" lon="-2.0618670">
        <ele>581.0</ele>
        <time>2020-03-29T17:21:57Z</time>
      </trkpt>
      <trkpt lat="42.6436830" lon="-2.0619040">
        <ele>581.5</ele>
        <time>2020-03-29T17:21:59Z</time>
      </trkpt>
      <trkpt lat="42.6435910" lon="-2.0618990">
        <ele>582.1</ele>
        <time>2020-03-29T17:22:01Z</time>
      </trkpt>
      <trkpt lat="42.6435470" lon="-2.0619850">
        <ele>582.2</ele>
        <time>2020-03-29T17:22:03Z</time>
      </trkpt>
      <trkpt lat="42.6434750" lon="-2.0621230">
        <ele>582.4</ele>
        <time>2020-03-29T17:22:05Z</time>
      </trkpt>
      <trkpt lat="42.6434320" lon="-2.0622100">
        <ele>582.6</ele>
        <time>2020-03-29T17:22:07Z</time>
      </trkpt>
      <trkpt lat="42.6433890" lon="-2.0622960">
        <ele>582.8</ele>
        <time>2020-03-29T17:22:09Z</time>
      </trkpt>
      <trkpt lat="42.6433450" lon="-2.0623820">
        <ele>583.1</ele>
        <time>2020-03-29T17:22:11Z</time>
      </trkpt>
      <trkpt lat="42.6433010" lon="-2.0624690">
        <ele>583.3</ele>
        <time>2020-03-29T17:22:13Z</time>
      </trkpt>
      <trkpt lat="42.6431850" lon="-2.0627000">
        <ele>583.8</ele>
        <time>2020-03-29T17:22:15Z</time>
      </trkpt>
      <trkpt lat="42.6431370" lon="-2.0627970">
        <ele>584.0</ele>
        <time>2020-03-29T17:22:17Z</time>
      </trkpt>
      <trkpt lat="42.6430890" lon="-2.0628930">
        <ele>584.3</ele>
        <time>2020-03-29T17:22:19Z</time>
      </trkpt>
      <trkpt lat="42.6430410" lon="-2.0629900">
        <ele>584.5</ele>
        <time>2020-03-29T17:22:21Z</time>
      </trkpt>
      <trkpt lat="42.6429210" lon="-2.0632310">
        <ele>585.0</ele>
        <time>2020-03-29T17:22:23Z</time>
      </trkpt>
      <trkpt lat="42.6428480" lon="-2.0633750">
        <ele>585.2</ele>
        <time>2020-03-29T17:22:25Z</time>
      </trkpt>
      <trkpt lat="42.6428010" lon="-2.0634710">
        <ele>585.5</ele>
        <time>2020-03-29T17:22:27Z</time>
      </trkpt>
      <trkpt lat="42.6427550" lon="-2.0635660">
        <ele>585.7</ele>
        <time>2020-03-29T17:22:29Z</time>
      </trkpt>
      <trkpt lat="42.6427080" lon="-2.0636600">
        <ele>585.8</ele>
        <time>2020-03-29T17:22:31Z</time>
      </trkpt>
      <trkpt lat="42.6426620" lon="-2.0637530">
        <ele>585.9</ele>
        <time>2020-03-29T17:22:33Z</time>
      </trkpt>
      <trkpt lat="42.6426170" lon="-2.0638460">
        <ele>585.9</ele>
        <time>2020-03-29T17:22:35Z</time>
      </trkpt>
      <trkpt lat="42.6424750" lon="-2.0641330">
        <ele>585.9</ele>
        <time>2020-03-29T17:22:37Z</time>
      </trkpt>
      <trkpt lat="42.6424320" lon="-2.0642210">
        <ele>585.9</ele>
        <time>2020-03-29T17:22:39Z</time>
      </trkpt>
      <trkpt lat="42.6423890" lon="-2.0643080">
        <ele>585.9</ele>
        <time>2020-03-29T17:22:41Z</time>
      </trkpt>
      <trkpt lat="42.6423460" lon="-2.0643940">
        <ele>586.0</ele>
        <time>2020-03-29T17:22:43Z</time>
      </trkpt>
      <trkpt lat="42.6423030" lon="-2.0644810">
        <ele>586.1</ele>
        <time>2020-03-29T17:22:45Z</time>
      </trkpt>
      <trkpt lat="42.6422600" lon="-2.0645680">
        <ele>586.2</ele>
        <time>2020-03-29T17:22:47Z</time>
      </trkpt>
      <trkpt lat="42.6422170" lon="-2.0646540">
        <ele>586.4</ele>
        <time>2020-03-29T17:22:49Z</time>
      </trkpt>
      <trkpt lat="42.6420680" lon="-2.0649560">
        <ele>587.2</ele>
        <time>2020-03-29T17:22:51Z</time>
      </trkpt>
      <trkpt lat="42.6420260" lon="-2.0650440">
        <ele>587.4</ele>
        <time>2020-03-29T17:22:53Z</time>
      </trkpt>
      <trkpt lat="42.6419510" lon="-2.0651990">
        <ele>587.9</ele>
        <time>2020-03-29T17:22:55Z</time>
      </trkpt>
      <trkpt lat="42.6419050" lon="-2.0652950">
        <ele>588.3</ele>
        <time>2020-03-29T17:22:57Z</time>
      </trkpt>
      <trkpt lat="42.6418570" lon="-2.0653940">
        <ele>588.6</ele>
        <time>2020-03-29T17:22:59Z</time>
      </trkpt>
      <trkpt lat="42.6418090" lon="-2.0654950">
        <ele>588.8</ele>
        <time>2020-03-29T17:23:01Z</time>
      </trkpt>
      <trkpt lat="42.6416870" lon="-2.0657450">
        <ele>589.4</ele>
        <time>2020-03-29T17:23:03Z</time>
      </trkpt>
      <trkpt lat="42.6416360" lon="-2.0658440">
        <ele>590.3</ele>
        <time>2020-03-29T17:23:05Z</time>
      </trkpt>
      <trkpt lat="42.6415860" lon="-2.0659420">
        <ele>590.9</ele>
        <time>2020-03-29T17:23:07Z</time>
      </trkpt>
      <trkpt lat="42.6415350" lon="-2.0660400">
        <ele>591.4</ele>
        <time>2020-03-29T17:23:09Z</time>
      </trkpt>
      <trkpt lat="42.6414850" lon="-2.0661370">
        <ele>591.7</ele>
        <time>2020-03-29T17:23:11Z</time>
      </trkpt>
      <trkpt lat="42.6414350" lon="-2.0662350">
        <ele>591.8</ele>
        <time>2020-03-29T17:23:13Z</time>
      </trkpt>
      <trkpt lat="42.6413850" lon="-2.0663320">
        <ele>591.9</ele>
        <time>2020-03-29T17:23:15Z</time>
      </trkpt>
      <trkpt lat="42.6412100" lon="-2.0666710">
        <ele>591.9</ele>
        <time>2020-03-29T17:23:17Z</time>
      </trkpt>
      <trkpt lat="42.6411610" lon="-2.0667660">
        <ele>591.9</ele>
        <time>2020-03-29T17:23:19Z</time>
      </trkpt>
      <trkpt lat="42.6411130" lon="-2.0668600">
        <ele>592.0</ele>
        <time>2020-03-29T17:23:21Z</time>
      </trkpt>
      <trkpt lat="42.6410650" lon="-2.0669540">
        <ele>592.1</ele>
        <time>2020-03-29T17:23:23Z</time>
      </trkpt>
      <trkpt lat="42.6410170" lon="-2.0670470">
        <ele>592.2</ele>
        <time>2020-03-29T17:23:25Z</time>
      </trkpt>
      <trkpt lat="42.6409690" lon="-2.0671420">
        <ele>592.4</ele>
        <time>2020-03-29T17:23:27Z</time>
      </trkpt>
      <trkpt lat="42.6409210" lon="-2.0672350">
        <ele>592.5</ele>
        <time>2020-03-29T17:23:29Z</time>
      </trkpt>
      <trkpt lat="42.6407470" lon="-2.0675730">
        <ele>592.7</ele>
        <time>2020-03-29T17:23:31Z</time>
      </trkpt>
      <trkpt lat="42.6406980" lon="-2.0676680">
        <ele>592.9</ele>
        <time>2020-03-29T17:23:33Z</time>
      </trkpt>
      <trkpt lat="42.6406500" lon="-2.0677630">
        <ele>593.1</ele>
        <time>2020-03-29T17:23:35Z</time>
      </trkpt>
      <trkpt lat="42.6406010" lon="-2.0678580">
        <ele>593.5</ele>
        <time>2020-03-29T17:23:37Z</time>
      </trkpt>
      <trkpt lat="42.6405520" lon="-2.0679530">
        <ele>593.8</ele>
        <time>2020-03-29T17:23:39Z</time>
      </trkpt>
      <trkpt lat="42.6405030" lon="-2.0680480">
        <ele>594.1</ele>
        <time>2020-03-29T17:23:41Z</time>
      </trkpt>
      <trkpt lat="42.6404540" lon="-2.0681440">
        <ele>594.3</ele>
        <time>2020-03-29T17:23:43Z</time>
      </trkpt>
      <trkpt lat="42.6402790" lon="-2.0684860">
        <ele>594.5</ele>
        <time>2020-03-29T17:23:45Z</time>
      </trkpt>
      <trkpt lat="42.6402270" lon="-2.0685880">
        <ele>594.5</ele>
        <time>2020-03-29T17:23:47Z</time>
      </trkpt>
      <trkpt lat="42.6401750" lon="-2.0686900">
        <ele>594.5</ele>
        <time>2020-03-29T17:23:49Z</time>
      </trkpt>
      <trkpt lat="42.6401230" lon="-2.0687930">
        <ele>594.5</ele>
        <time>2020-03-29T17:23:51Z</time>
      </trkpt>
      <trkpt lat="42.6400710" lon="-2.0688950">
        <ele>594.5</ele>
        <time>2020-03-29T17:23:53Z</time>
      </trkpt>
      <trkpt lat="42.6400190" lon="-2.0689970">
        <ele>594.4</ele>
        <time>2020-03-29T17:23:55Z</time>
      </trkpt>
      <trkpt lat="42.6399680" lon="-2.0690980">
        <ele>594.2</ele>
        <time>2020-03-29T17:23:57Z</time>
      </trkpt>
      <trkpt lat="42.6397930" lon="-2.0694420">
        <ele>593.3</ele>
        <time>2020-03-29T17:23:59Z</time>
      </trkpt>
      <trkpt lat="42.6397400" lon="-2.0695460">
        <ele>593.0</ele>
        <time>2020-03-29T17:24:01Z</time>
      </trkpt>
      <trkpt lat="42.6396870" lon="-2.0696500">
        <ele>592.8</ele>
        <time>2020-03-29T17:24:03Z</time>
      </trkpt>
      <trkpt lat="42.6396340" lon="-2.0697570">
        <ele>592.8</ele>
        <time>2020-03-29T17:24:05Z</time>
      </trkpt>
      <trkpt lat="42.6395800" lon="-2.0698630">
        <ele>592.8</ele>
        <time>2020-03-29T17:24:07Z</time>
      </trkpt>
      <trkpt lat="42.6394340" lon="-2.0701480">
        <ele>592.5</ele>
        <time>2020-03-29T17:24:09Z</time>
      </trkpt>
      <trkpt lat="42.6393410" lon="-2.0703240">
        <ele>592.0</ele>
        <time>2020-03-29T17:24:11Z</time>
      </trkpt>
      <trkpt lat="42.6392830" lon="-2.0704340">
        <ele>591.7</ele>
        <time>2020-03-29T17:24:13Z</time>
      </trkpt>
      <trkpt lat="42.6391990" lon="-2.0705960">
        <ele>591.3</ele>
        <time>2020-03-29T17:24:15Z</time>
      </trkpt>
      <trkpt lat="42.6391110" lon="-2.0707680">
        <ele>590.9</ele>
        <time>2020-03-29T17:24:17Z</time>
      </trkpt>
      <trkpt lat="42.6390550" lon="-2.0708760">
        <ele>590.7</ele>
        <time>2020-03-29T17:24:19Z</time>
      </trkpt>
      <trkpt lat="42.6390000" lon="-2.0709820">
        <ele>590.7</ele>
        <time>2020-03-29T17:24:21Z</time>
      </trkpt>
      <trkpt lat="42.6389460" lon="-2.0710860">
        <ele>590.8</ele>
        <time>2020-03-29T17:24:23Z</time>
      </trkpt>
      <trkpt lat="42.6388280" lon="-2.0713240">
        <ele>591.2</ele>
        <time>2020-03-29T17:24:25Z</time>
      </trkpt>
      <trkpt lat="42.6387800" lon="-2.0714280">
        <ele>591.4</ele>
        <time>2020-03-29T17:24:27Z</time>
      </trkpt>
      <trkpt lat="42.6387330" lon="-2.0715280">
        <ele>591.7</ele>
        <time>2020-03-29T17:24:29Z</time>
      </trkpt>
      <trkpt lat="42.6386470" lon="-2.0717440">
        <ele>592.4</ele>
        <time>2020-03-29T17:24:31Z</time>
      </trkpt>
      <trkpt lat="42.6386150" lon="-2.0718470">
        <ele>593.0</ele>
        <time>2020-03-29T17:24:33Z</time>
      </trkpt>
      <trkpt lat="42.6385510" lon="-2.0720520">
        <ele>594.0</ele>
        <time>2020-03-29T17:24:35Z</time>
      </trkpt>
      <trkpt lat="42.6385370" lon="-2.0721560">
        <ele>594.7</ele>
        <time>2020-03-29T17:24:37Z</time>
      </trkpt>
      <trkpt lat="42.6385240" lon="-2.0722500">
        <ele>595.3</ele>
        <time>2020-03-29T17:24:39Z</time>
      </trkpt>
      <trkpt lat="42.6385120" lon="-2.0723400">
        <ele>595.8</ele>
        <time>2020-03-29T17:24:41Z</time>
      </trkpt>
      <trkpt lat="42.6384920" lon="-2.0725380">
        <ele>596.7</ele>
        <time>2020-03-29T17:24:43Z</time>
      </trkpt>
      <trkpt lat="42.6384900" lon="-2.0726490">
        <ele>597.2</ele>
        <time>2020-03-29T17:24:45Z</time>
      </trkpt>
      <trkpt lat="42.6384890" lon="-2.0727340">
        <ele>597.4</ele>
        <time>2020-03-29T17:24:47Z</time>
      </trkpt>
      <trkpt lat="42.6384870" lon="-2.0728160">
        <ele>597.6</ele>
        <time>2020-03-29T17:24:49Z</time>
      </trkpt>
      <trkpt lat="42.6384850" lon="-2.0730050">
        <ele>598.0</ele>
        <time>2020-03-29T17:24:51Z</time>
      </trkpt>
      <trkpt lat="42.6384850" lon="-2.0730880">
        <ele>598.2</ele>
        <time>2020-03-29T17:24:53Z</time>
      </trkpt>
      <trkpt lat="42.6384850" lon="-2.0731710">
        <ele>598.4</ele>
        <time>2020-03-29T17:24:55Z</time>
      </trkpt>
      <trkpt lat="42.6384860" lon="-2.0732540">
        <ele>598.6</ele>
        <time>2020-03-29T17:24:57Z</time>
      </trkpt>
      <trkpt lat="42.6384800" lon="-2.0734510">
        <ele>599.1</ele>
        <time>2020-03-29T17:24:59Z</time>
      </trkpt>
      <trkpt lat="42.6384700" lon="-2.0735510">
        <ele>599.3</ele>
        <time>2020-03-29T17:25:01Z</time>
      </trkpt>
      <trkpt lat="42.6384590" lon="-2.0736610">
        <ele>599.5</ele>
        <time>2020-03-29T17:25:03Z</time>
      </trkpt>
      <trkpt lat="42.6384470" lon="-2.0737760">
        <ele>599.8</ele>
        <time>2020-03-29T17:25:05Z</time>
      </trkpt>
      <trkpt lat="42.6384090" lon="-2.0740220">
        <ele>600.2</ele>
        <time>2020-03-29T17:25:07Z</time>
      </trkpt>
      <trkpt lat="42.6383830" lon="-2.0741390">
        <ele>600.3</ele>
        <time>2020-03-29T17:25:09Z</time>
      </trkpt>
      <trkpt lat="42.6383570" lon="-2.0742590">
        <ele>600.3</ele>
        <time>2020-03-29T17:25:11Z</time>
      </trkpt>
      <trkpt lat="42.6383300" lon="-2.0743810">
        <ele>600.1</ele>
        <time>2020-03-29T17:25:13Z</time>
      </trkpt>
      <trkpt lat="42.6382540" lon="-2.0747190">
        <ele>599.3</ele>
        <time>2020-03-29T17:25:15Z</time>
      </trkpt>
      <trkpt lat="42.6382200" lon="-2.0748460">
        <ele>598.8</ele>
        <time>2020-03-29T17:25:17Z</time>
      </trkpt>
      <trkpt lat="42.6381840" lon="-2.0749790">
        <ele>598.3</ele>
        <time>2020-03-29T17:25:19Z</time>
      </trkpt>
      <trkpt lat="42.6381470" lon="-2.0751170">
        <ele>597.7</ele>
        <time>2020-03-29T17:25:21Z</time>
      </trkpt>
      <trkpt lat="42.6381090" lon="-2.0752580">
        <ele>597.2</ele>
        <time>2020-03-29T17:25:23Z</time>
      </trkpt>
      <trkpt lat="42.6380080" lon="-2.0756360">
        <ele>596.0</ele>
        <time>2020-03-29T17:25:26Z</time>
      </trkpt>
      <trkpt lat="42.6379680" lon="-2.0757840">
        <ele>595.7</ele>
        <time>2020-03-29T17:25:28Z</time>
      </trkpt>
      <trkpt lat="42.6379280" lon="-2.0759340">
        <ele>595.3</ele>
        <time>2020-03-29T17:25:30Z</time>
      </trkpt>
      <trkpt lat="42.6378860" lon="-2.0760870">
        <ele>594.7</ele>
        <time>2020-03-29T17:25:32Z</time>
      </trkpt>
      <trkpt lat="42.6378450" lon="-2.0762420">
        <ele>594.2</ele>
        <time>2020-03-29T17:25:34Z</time>
      </trkpt>
      <trkpt lat="42.6377420" lon="-2.0766370">
        <ele>593.0</ele>
        <time>2020-03-29T17:25:36Z</time>
      </trkpt>
      <trkpt lat="42.6376990" lon="-2.0768080">
        <ele>592.6</ele>
        <time>2020-03-29T17:25:38Z</time>
      </trkpt>
      <trkpt lat="42.6376550" lon="-2.0769880">
        <ele>592.0</ele>
        <time>2020-03-29T17:25:40Z</time>
      </trkpt>
      <trkpt lat="42.6376080" lon="-2.0771750">
        <ele>591.1</ele>
        <time>2020-03-29T17:25:42Z</time>
      </trkpt>
      <trkpt lat="42.6374820" lon="-2.0776830">
        <ele>588.9</ele>
        <time>2020-03-29T17:25:44Z</time>
      </trkpt>
      <trkpt lat="42.6374330" lon="-2.0778820">
        <ele>588.2</ele>
        <time>2020-03-29T17:25:46Z</time>
      </trkpt>
      <trkpt lat="42.6373680" lon="-2.0781700">
        <ele>587.2</ele>
        <time>2020-03-29T17:25:48Z</time>
      </trkpt>
      <trkpt lat="42.6372960" lon="-2.0785150">
        <ele>584.9</ele>
        <time>2020-03-29T17:25:50Z</time>
      </trkpt>
      <trkpt lat="42.6372690" lon="-2.0787420">
        <ele>583.9</ele>
        <time>2020-03-29T17:25:52Z</time>
      </trkpt>
      <trkpt lat="42.6372310" lon="-2.0790680">
        <ele>582.2</ele>
        <time>2020-03-29T17:25:54Z</time>
      </trkpt>
      <trkpt lat="42.6371850" lon="-2.0794510">
        <ele>580.3</ele>
        <time>2020-03-29T17:25:56Z</time>
      </trkpt>
      <trkpt lat="42.6371520" lon="-2.0797300">
        <ele>578.2</ele>
        <time>2020-03-29T17:25:58Z</time>
      </trkpt>
      <trkpt lat="42.6371240" lon="-2.0799620">
        <ele>576.5</ele>
        <time>2020-03-29T17:26:00Z</time>
      </trkpt>
      <trkpt lat="42.6370970" lon="-2.0801830">
        <ele>575.1</ele>
        <time>2020-03-29T17:26:02Z</time>
      </trkpt>
      <trkpt lat="42.6370410" lon="-2.0806450">
        <ele>573.2</ele>
        <time>2020-03-29T17:26:04Z</time>
      </trkpt>
      <trkpt lat="42.6370180" lon="-2.0808420">
        <ele>572.8</ele>
        <time>2020-03-29T17:26:06Z</time>
      </trkpt>
      <trkpt lat="42.6369950" lon="-2.0810330">
        <ele>572.3</ele>
        <time>2020-03-29T17:26:08Z</time>
      </trkpt>
      <trkpt lat="42.6369720" lon="-2.0812190">
        <ele>572.0</ele>
        <time>2020-03-29T17:26:10Z</time>
      </trkpt>
      <trkpt lat="42.6369170" lon="-2.0816860">
        <ele>572.5</ele>
        <time>2020-03-29T17:26:12Z</time>
      </trkpt>
      <trkpt lat="42.6368960" lon="-2.0818590">
        <ele>573.0</ele>
        <time>2020-03-29T17:26:14Z</time>
      </trkpt>
      <trkpt lat="42.6368550" lon="-2.0821960">
        <ele>573.9</ele>
        <time>2020-03-29T17:26:16Z</time>
      </trkpt>
      <trkpt lat="42.6368310" lon="-2.0823610">
        <ele>574.1</ele>
        <time>2020-03-29T17:26:18Z</time>
      </trkpt>
      <trkpt lat="42.6367830" lon="-2.0826370">
        <ele>573.9</ele>
        <time>2020-03-29T17:26:20Z</time>
      </trkpt>
      <trkpt lat="42.6367400" lon="-2.0827900">
        <ele>573.6</ele>
        <time>2020-03-29T17:26:22Z</time>
      </trkpt>
      <trkpt lat="42.6366570" lon="-2.0830080">
        <ele>573.5</ele>
        <time>2020-03-29T17:26:24Z</time>
      </trkpt>
      <trkpt lat="42.6365570" lon="-2.0832060">
        <ele>573.7</ele>
        <time>2020-03-29T17:26:26Z</time>
      </trkpt>
      <trkpt lat="42.6364820" lon="-2.0833270">
        <ele>574.1</ele>
        <time>2020-03-29T17:26:28Z</time>
      </trkpt>
      <trkpt lat="42.6364080" lon="-2.0834460">
        <ele>574.5</ele>
        <time>2020-03-29T17:26:30Z</time>
      </trkpt>
      <trkpt lat="42.6362640" lon="-2.0836730">
        <ele>574.8</ele>
        <time>2020-03-29T17:26:32Z</time>
      </trkpt>
      <trkpt lat="42.6361660" lon="-2.0838250">
        <ele>574.9</ele>
        <time>2020-03-29T17:26:34Z</time>
      </trkpt>
      <trkpt lat="42.6360930" lon="-2.0839400">
        <ele>575.0</ele>
        <time>2020-03-29T17:26:36Z</time>
      </trkpt>
      <trkpt lat="42.6360190" lon="-2.0840550">
        <ele>575.1</ele>
        <time>2020-03-29T17:26:38Z</time>
      </trkpt>
      <trkpt lat="42.6358480" lon="-2.0843080">
        <ele>575.9</ele>
        <time>2020-03-29T17:26:40Z</time>
      </trkpt>
      <trkpt lat="42.6357280" lon="-2.0844590">
        <ele>576.6</ele>
        <time>2020-03-29T17:26:42Z</time>
      </trkpt>
      <trkpt lat="42.6356470" lon="-2.0845530">
        <ele>577.0</ele>
        <time>2020-03-29T17:26:44Z</time>
      </trkpt>
      <trkpt lat="42.6355710" lon="-2.0846410">
        <ele>577.4</ele>
        <time>2020-03-29T17:26:46Z</time>
      </trkpt>
      <trkpt lat="42.6354980" lon="-2.0847250">
        <ele>577.8</ele>
        <time>2020-03-29T17:26:48Z</time>
      </trkpt>
      <trkpt lat="42.6354280" lon="-2.0848060">
        <ele>578.1</ele>
        <time>2020-03-29T17:26:50Z</time>
      </trkpt>
      <trkpt lat="42.6352430" lon="-2.0850270">
        <ele>578.5</ele>
        <time>2020-03-29T17:26:52Z</time>
      </trkpt>
      <trkpt lat="42.6351590" lon="-2.0851450">
        <ele>578.6</ele>
        <time>2020-03-29T17:26:54Z</time>
      </trkpt>
      <trkpt lat="42.6350790" lon="-2.0852730">
        <ele>578.7</ele>
        <time>2020-03-29T17:26:56Z</time>
      </trkpt>
      <trkpt lat="42.6350390" lon="-2.0853680">
        <ele>579.1</ele>
        <time>2020-03-29T17:26:58Z</time>
      </trkpt>
      <trkpt lat="42.6349850" lon="-2.0855050">
        <ele>579.7</ele>
        <time>2020-03-29T17:27:00Z</time>
      </trkpt>
      <trkpt lat="42.6349360" lon="-2.0856490">
        <ele>580.3</ele>
        <time>2020-03-29T17:27:02Z</time>
      </trkpt>
      <trkpt lat="42.6349110" lon="-2.0857480">
        <ele>580.8</ele>
        <time>2020-03-29T17:27:04Z</time>
      </trkpt>
      <trkpt lat="42.6348660" lon="-2.0859260">
        <ele>581.8</ele>
        <time>2020-03-29T17:27:06Z</time>
      </trkpt>
      <trkpt lat="42.6348350" lon="-2.0860350">
        <ele>581.6</ele>
        <time>2020-03-29T17:27:08Z</time>
      </trkpt>
      <trkpt lat="42.6347990" lon="-2.0861650">
        <ele>581.5</ele>
        <time>2020-03-29T17:27:10Z</time>
      </trkpt>
      <trkpt lat="42.6347590" lon="-2.0863100">
        <ele>581.4</ele>
        <time>2020-03-29T17:27:12Z</time>
      </trkpt>
      <trkpt lat="42.6346720" lon="-2.0866210">
        <ele>580.7</ele>
        <time>2020-03-29T17:27:14Z</time>
      </trkpt>
      <trkpt lat="42.6346010" lon="-2.0868730">
        <ele>579.9</ele>
        <time>2020-03-29T17:27:16Z</time>
      </trkpt>
      <trkpt lat="42.6345530" lon="-2.0870290">
        <ele>579.2</ele>
        <time>2020-03-29T17:27:18Z</time>
      </trkpt>
      <trkpt lat="42.6344500" lon="-2.0872770">
        <ele>577.6</ele>
        <time>2020-03-29T17:27:20Z</time>
      </trkpt>
      <trkpt lat="42.6343650" lon="-2.0873980">
        <ele>576.0</ele>
        <time>2020-03-29T17:27:22Z</time>
      </trkpt>
      <trkpt lat="42.6343130" lon="-2.0874720">
        <ele>575.0</ele>
        <time>2020-03-29T17:27:24Z</time>
      </trkpt>
      <trkpt lat="42.6342330" lon="-2.0875700">
        <ele>574.0</ele>
        <time>2020-03-29T17:27:26Z</time>
      </trkpt>
      <trkpt lat="42.6341950" lon="-2.0876040">
        <ele>574.0</ele>
        <time>2020-03-29T17:27:28Z</time>
      </trkpt>
      <trkpt lat="42.6341470" lon="-2.0876480">
        <ele>573.9</ele>
        <time>2020-03-29T17:27:30Z</time>
      </trkpt>
      <trkpt lat="42.6340900" lon="-2.0876990">
        <ele>573.8</ele>
        <time>2020-03-29T17:27:32Z</time>
      </trkpt>
      <trkpt lat="42.6340250" lon="-2.0877580">
        <ele>573.8</ele>
        <time>2020-03-29T17:27:34Z</time>
      </trkpt>
      <trkpt lat="42.6339510" lon="-2.0878250">
        <ele>573.7</ele>
        <time>2020-03-29T17:27:36Z</time>
      </trkpt>
      <trkpt lat="42.6337390" lon="-2.0880130">
        <ele>573.7</ele>
        <time>2020-03-29T17:27:38Z</time>
      </trkpt>
      <trkpt lat="42.6336640" lon="-2.0880750">
        <ele>574.1</ele>
        <time>2020-03-29T17:27:40Z</time>
      </trkpt>
      <trkpt lat="42.6335990" lon="-2.0881300">
        <ele>574.4</ele>
        <time>2020-03-29T17:27:42Z</time>
      </trkpt>
      <trkpt lat="42.6335370" lon="-2.0881810">
        <ele>574.7</ele>
        <time>2020-03-29T17:27:44Z</time>
      </trkpt>
      <trkpt lat="42.6334740" lon="-2.0882330">
        <ele>575.1</ele>
        <time>2020-03-29T17:27:46Z</time>
      </trkpt>
      <trkpt lat="42.6334100" lon="-2.0882870">
        <ele>575.4</ele>
        <time>2020-03-29T17:27:48Z</time>
      </trkpt>
      <trkpt lat="42.6333460" lon="-2.0883400">
        <ele>575.7</ele>
        <time>2020-03-29T17:27:50Z</time>
      </trkpt>
      <trkpt lat="42.6331190" lon="-2.0885300">
        <ele>577.2</ele>
        <time>2020-03-29T17:27:52Z</time>
      </trkpt>
      <trkpt lat="42.6330560" lon="-2.0885810">
        <ele>577.7</ele>
        <time>2020-03-29T17:27:54Z</time>
      </trkpt>
      <trkpt lat="42.6329940" lon="-2.0886320">
        <ele>578.2</ele>
        <time>2020-03-29T17:27:56Z</time>
      </trkpt>
      <trkpt lat="42.6329320" lon="-2.0886830">
        <ele>578.8</ele>
        <time>2020-03-29T17:27:58Z</time>
      </trkpt>
      <trkpt lat="42.6328710" lon="-2.0887330">
        <ele>579.3</ele>
        <time>2020-03-29T17:28:00Z</time>
      </trkpt>
      <trkpt lat="42.6328100" lon="-2.0887830">
        <ele>579.8</ele>
        <time>2020-03-29T17:28:02Z</time>
      </trkpt>
      <trkpt lat="42.6327500" lon="-2.0888320">
        <ele>580.3</ele>
        <time>2020-03-29T17:28:04Z</time>
      </trkpt>
      <trkpt lat="42.6325410" lon="-2.0889880">
        <ele>581.9</ele>
        <time>2020-03-29T17:28:06Z</time>
      </trkpt>
      <trkpt lat="42.6324650" lon="-2.0890350">
        <ele>582.5</ele>
        <time>2020-03-29T17:28:08Z</time>
      </trkpt>
      <trkpt lat="42.6323870" lon="-2.0890820">
        <ele>583.0</ele>
        <time>2020-03-29T17:28:10Z</time>
      </trkpt>
      <trkpt lat="42.6323100" lon="-2.0891280">
        <ele>583.4</ele>
        <time>2020-03-29T17:28:12Z</time>
      </trkpt>
      <trkpt lat="42.6322350" lon="-2.0891730">
        <ele>583.7</ele>
        <time>2020-03-29T17:28:14Z</time>
      </trkpt>
      <trkpt lat="42.6320210" lon="-2.0892920">
        <ele>584.4</ele>
        <time>2020-03-29T17:28:16Z</time>
      </trkpt>
      <trkpt lat="42.6319460" lon="-2.0893270">
        <ele>584.5</ele>
        <time>2020-03-29T17:28:18Z</time>
      </trkpt>
      <trkpt lat="42.6318740" lon="-2.0893610">
        <ele>584.7</ele>
        <time>2020-03-29T17:28:20Z</time>
      </trkpt>
      <trkpt lat="42.6318020" lon="-2.0893950">
        <ele>584.8</ele>
        <time>2020-03-29T17:28:22Z</time>
      </trkpt>
      <trkpt lat="42.6317300" lon="-2.0894290">
        <ele>584.9</ele>
        <time>2020-03-29T17:28:24Z</time>
      </trkpt>
      <trkpt lat="42.6315220" lon="-2.0895250">
        <ele>585.1</ele>
        <time>2020-03-29T17:28:26Z</time>
      </trkpt>
      <trkpt lat="42.6314500" lon="-2.0895570">
        <ele>585.1</ele>
        <time>2020-03-29T17:28:28Z</time>
      </trkpt>
      <trkpt lat="42.6313780" lon="-2.0895880">
        <ele>585.2</ele>
        <time>2020-03-29T17:28:30Z</time>
      </trkpt>
      <trkpt lat="42.6312290" lon="-2.0896560">
        <ele>585.2</ele>
        <time>2020-03-29T17:28:32Z</time>
      </trkpt>
      <trkpt lat="42.6311610" lon="-2.0896900">
        <ele>585.1</ele>
        <time>2020-03-29T17:28:34Z</time>
      </trkpt>
      <trkpt lat="42.6310940" lon="-2.0897230">
        <ele>584.9</ele>
        <time>2020-03-29T17:28:36Z</time>
      </trkpt>
      <trkpt lat="42.6310250" lon="-2.0897570">
        <ele>584.9</ele>
        <time>2020-03-29T17:28:38Z</time>
      </trkpt>
      <trkpt lat="42.6309560" lon="-2.0897920">
        <ele>584.9</ele>
        <time>2020-03-29T17:28:40Z</time>
      </trkpt>
      <trkpt lat="42.6307650" lon="-2.0898860">
        <ele>585.0</ele>
        <time>2020-03-29T17:28:42Z</time>
      </trkpt>
      <trkpt lat="42.6306940" lon="-2.0899220">
        <ele>585.1</ele>
        <time>2020-03-29T17:28:44Z</time>
      </trkpt>
      <trkpt lat="42.6306220" lon="-2.0899580">
        <ele>585.3</ele>
        <time>2020-03-29T17:28:46Z</time>
      </trkpt>
      <trkpt lat="42.6305500" lon="-2.0899940">
        <ele>585.5</ele>
        <time>2020-03-29T17:28:48Z</time>
      </trkpt>
      <trkpt lat="42.6303600" lon="-2.0900900">
        <ele>586.0</ele>
        <time>2020-03-29T17:28:50Z</time>
      </trkpt>
      <trkpt lat="42.6302880" lon="-2.0901300">
        <ele>586.0</ele>
        <time>2020-03-29T17:28:52Z</time>
      </trkpt>
      <trkpt lat="42.6301850" lon="-2.0901950">
        <ele>586.0</ele>
        <time>2020-03-29T17:28:54Z</time>
      </trkpt>
      <trkpt lat="42.6300760" lon="-2.0902730">
        <ele>586.1</ele>
        <time>2020-03-29T17:28:56Z</time>
      </trkpt>
      <trkpt lat="42.6300140" lon="-2.0903420">
        <ele>586.2</ele>
        <time>2020-03-29T17:28:58Z</time>
      </trkpt>
      <trkpt lat="42.6299300" lon="-2.0904500">
        <ele>586.5</ele>
        <time>2020-03-29T17:29:00Z</time>
      </trkpt>
      <trkpt lat="42.6298800" lon="-2.0905270">
        <ele>586.8</ele>
        <time>2020-03-29T17:29:02Z</time>
      </trkpt>
      <trkpt lat="42.6298300" lon="-2.0906040">
        <ele>587.2</ele>
        <time>2020-03-29T17:29:04Z</time>
      </trkpt>
      <trkpt lat="42.6297800" lon="-2.0906810">
        <ele>587.7</ele>
        <time>2020-03-29T17:29:06Z</time>
      </trkpt>
      <trkpt lat="42.6296590" lon="-2.0908670">
        <ele>588.9</ele>
        <time>2020-03-29T17:29:08Z</time>
      </trkpt>
      <trkpt lat="42.6296090" lon="-2.0909440">
        <ele>589.3</ele>
        <time>2020-03-29T17:29:10Z</time>
      </trkpt>
      <trkpt lat="42.6295590" lon="-2.0910210">
        <ele>589.7</ele>
        <time>2020-03-29T17:29:12Z</time>
      </trkpt>
      <trkpt lat="42.6294480" lon="-2.0911940">
        <ele>590.6</ele>
        <time>2020-03-29T17:29:14Z</time>
      </trkpt>
      <trkpt lat="42.6293990" lon="-2.0912710">
        <ele>591.0</ele>
        <time>2020-03-29T17:29:16Z</time>
      </trkpt>
      <trkpt lat="42.6293500" lon="-2.0913460">
        <ele>591.4</ele>
        <time>2020-03-29T17:29:18Z</time>
      </trkpt>
      <trkpt lat="42.6293020" lon="-2.0914210">
        <ele>591.7</ele>
        <time>2020-03-29T17:29:20Z</time>
      </trkpt>
      <trkpt lat="42.6292530" lon="-2.0914970">
        <ele>592.0</ele>
        <time>2020-03-29T17:29:22Z</time>
      </trkpt>
      <trkpt lat="42.6292040" lon="-2.0915730">
        <ele>592.3</ele>
        <time>2020-03-29T17:29:24Z</time>
      </trkpt>
      <trkpt lat="42.6291540" lon="-2.0916500">
        <ele>592.5</ele>
        <time>2020-03-29T17:29:26Z</time>
      </trkpt>
      <trkpt lat="42.6291050" lon="-2.0917270">
        <ele>592.7</ele>
        <time>2020-03-29T17:29:28Z</time>
      </trkpt>
      <trkpt lat="42.6289230" lon="-2.0920090">
        <ele>593.1</ele>
        <time>2020-03-29T17:29:30Z</time>
      </trkpt>
      <trkpt lat="42.6288730" lon="-2.0920870">
        <ele>593.2</ele>
        <time>2020-03-29T17:29:32Z</time>
      </trkpt>
      <trkpt lat="42.6287930" lon="-2.0922110">
        <ele>593.4</ele>
        <time>2020-03-29T17:29:34Z</time>
      </trkpt>
      <trkpt lat="42.6287420" lon="-2.0922880">
        <ele>593.6</ele>
        <time>2020-03-29T17:29:36Z</time>
      </trkpt>
      <trkpt lat="42.6286910" lon="-2.0923650">
        <ele>593.8</ele>
        <time>2020-03-29T17:29:38Z</time>
      </trkpt>
      <trkpt lat="42.6286410" lon="-2.0924420">
        <ele>594.0</ele>
        <time>2020-03-29T17:29:40Z</time>
      </trkpt>
      <trkpt lat="42.6285910" lon="-2.0925190">
        <ele>594.3</ele>
        <time>2020-03-29T17:29:42Z</time>
      </trkpt>
      <trkpt lat="42.6284380" lon="-2.0927520">
        <ele>595.0</ele>
        <time>2020-03-29T17:29:44Z</time>
      </trkpt>
      <trkpt lat="42.6283850" lon="-2.0928320">
        <ele>595.3</ele>
        <time>2020-03-29T17:29:46Z</time>
      </trkpt>
      <trkpt lat="42.6283300" lon="-2.0929160">
        <ele>595.7</ele>
        <time>2020-03-29T17:29:48Z</time>
      </trkpt>
      <trkpt lat="42.6282750" lon="-2.0930010">
        <ele>596.1</ele>
        <time>2020-03-29T17:29:50Z</time>
      </trkpt>
      <trkpt lat="42.6282210" lon="-2.0930840">
        <ele>596.7</ele>
        <time>2020-03-29T17:29:52Z</time>
      </trkpt>
      <trkpt lat="42.6281680" lon="-2.0931650">
        <ele>597.2</ele>
        <time>2020-03-29T17:29:54Z</time>
      </trkpt>
      <trkpt lat="42.6281150" lon="-2.0932460">
        <ele>597.6</ele>
        <time>2020-03-29T17:29:56Z</time>
      </trkpt>
      <trkpt lat="42.6279300" lon="-2.0935290">
        <ele>599.2</ele>
        <time>2020-03-29T17:29:58Z</time>
      </trkpt>
      <trkpt lat="42.6278780" lon="-2.0936080">
        <ele>599.7</ele>
        <time>2020-03-29T17:30:00Z</time>
      </trkpt>
      <trkpt lat="42.6278270" lon="-2.0936860">
        <ele>600.1</ele>
        <time>2020-03-29T17:30:02Z</time>
      </trkpt>
      <trkpt lat="42.6277760" lon="-2.0937640">
        <ele>600.5</ele>
        <time>2020-03-29T17:30:04Z</time>
      </trkpt>
      <trkpt lat="42.6277250" lon="-2.0938420">
        <ele>601.0</ele>
        <time>2020-03-29T17:30:06Z</time>
      </trkpt>
      <trkpt lat="42.6276740" lon="-2.0939190">
        <ele>601.3</ele>
        <time>2020-03-29T17:30:08Z</time>
      </trkpt>
      <trkpt lat="42.6276230" lon="-2.0939970">
        <ele>601.6</ele>
        <time>2020-03-29T17:30:10Z</time>
      </trkpt>
      <trkpt lat="42.6275730" lon="-2.0940730">
        <ele>601.8</ele>
        <time>2020-03-29T17:30:12Z</time>
      </trkpt>
      <trkpt lat="42.6273910" lon="-2.0943510">
        <ele>602.5</ele>
        <time>2020-03-29T17:30:14Z</time>
      </trkpt>
      <trkpt lat="42.6273460" lon="-2.0944200">
        <ele>602.6</ele>
        <time>2020-03-29T17:30:16Z</time>
      </trkpt>
      <trkpt lat="42.6273030" lon="-2.0944860">
        <ele>602.9</ele>
        <time>2020-03-29T17:30:18Z</time>
      </trkpt>
      <trkpt lat="42.6272610" lon="-2.0945510">
        <ele>603.1</ele>
        <time>2020-03-29T17:30:20Z</time>
      </trkpt>
      <trkpt lat="42.6272200" lon="-2.0946140">
        <ele>603.3</ele>
        <time>2020-03-29T17:30:22Z</time>
      </trkpt>
      <trkpt lat="42.6271790" lon="-2.0946770">
        <ele>603.5</ele>
        <time>2020-03-29T17:30:24Z</time>
      </trkpt>
      <trkpt lat="42.6271380" lon="-2.0947390">
        <ele>603.7</ele>
        <time>2020-03-29T17:30:26Z</time>
      </trkpt>
      <trkpt lat="42.6270980" lon="-2.0948010">
        <ele>603.9</ele>
        <time>2020-03-29T17:30:28Z</time>
      </trkpt>
      <trkpt lat="42.6269250" lon="-2.0950670">
        <ele>605.0</ele>
        <time>2020-03-29T17:30:30Z</time>
      </trkpt>
      <trkpt lat="42.6268890" lon="-2.0951320">
        <ele>605.3</ele>
        <time>2020-03-29T17:30:32Z</time>
      </trkpt>
      <trkpt lat="42.6268520" lon="-2.0951970">
        <ele>605.5</ele>
        <time>2020-03-29T17:30:34Z</time>
      </trkpt>
      <trkpt lat="42.6268160" lon="-2.0952620">
        <ele>605.7</ele>
        <time>2020-03-29T17:30:36Z</time>
      </trkpt>
      <trkpt lat="42.6267790" lon="-2.0953270">
        <ele>605.9</ele>
        <time>2020-03-29T17:30:38Z</time>
      </trkpt>
      <trkpt lat="42.6267430" lon="-2.0953920">
        <ele>606.2</ele>
        <time>2020-03-29T17:30:40Z</time>
      </trkpt>
      <trkpt lat="42.6266260" lon="-2.0956010">
        <ele>607.1</ele>
        <time>2020-03-29T17:30:42Z</time>
      </trkpt>
      <trkpt lat="42.6265870" lon="-2.0956700">
        <ele>607.4</ele>
        <time>2020-03-29T17:30:44Z</time>
      </trkpt>
      <trkpt lat="42.6265450" lon="-2.0957460">
        <ele>607.7</ele>
        <time>2020-03-29T17:30:46Z</time>
      </trkpt>
      <trkpt lat="42.6264650" lon="-2.0958870">
        <ele>608.2</ele>
        <time>2020-03-29T17:30:48Z</time>
      </trkpt>
      <trkpt lat="42.6264220" lon="-2.0959590">
        <ele>608.4</ele>
        <time>2020-03-29T17:30:50Z</time>
      </trkpt>
      <trkpt lat="42.6263810" lon="-2.0960290">
        <ele>608.7</ele>
        <time>2020-03-29T17:30:52Z</time>
      </trkpt>
      <trkpt lat="42.6262970" lon="-2.0961760">
        <ele>609.1</ele>
        <time>2020-03-29T17:30:54Z</time>
      </trkpt>
      <trkpt lat="42.6262620" lon="-2.0962480">
        <ele>609.3</ele>
        <time>2020-03-29T17:30:56Z</time>
      </trkpt>
      <trkpt lat="42.6262280" lon="-2.0963190">
        <ele>609.4</ele>
        <time>2020-03-29T17:30:58Z</time>
      </trkpt>
      <trkpt lat="42.6261530" lon="-2.0964760">
        <ele>609.8</ele>
        <time>2020-03-29T17:31:00Z</time>
      </trkpt>
      <trkpt lat="42.6261210" lon="-2.0965480">
        <ele>610.1</ele>
        <time>2020-03-29T17:31:02Z</time>
      </trkpt>
      <trkpt lat="42.6260900" lon="-2.0966200">
        <ele>610.4</ele>
        <time>2020-03-29T17:31:04Z</time>
      </trkpt>
      <trkpt lat="42.6260580" lon="-2.0966920">
        <ele>610.7</ele>
        <time>2020-03-29T17:31:06Z</time>
      </trkpt>
      <trkpt lat="42.6259830" lon="-2.0968640">
        <ele>611.3</ele>
        <time>2020-03-29T17:31:08Z</time>
      </trkpt>
      <trkpt lat="42.6259520" lon="-2.0969520">
        <ele>611.5</ele>
        <time>2020-03-29T17:31:10Z</time>
      </trkpt>
      <trkpt lat="42.6259200" lon="-2.0970470">
        <ele>611.8</ele>
        <time>2020-03-29T17:31:12Z</time>
      </trkpt>
      <trkpt lat="42.6258850" lon="-2.0971470">
        <ele>612.0</ele>
        <time>2020-03-29T17:31:14Z</time>
      </trkpt>
      <trkpt lat="42.6258080" lon="-2.0973800">
        <ele>612.3</ele>
        <time>2020-03-29T17:31:16Z</time>
      </trkpt>
      <trkpt lat="42.6257810" lon="-2.0974920">
        <ele>612.4</ele>
        <time>2020-03-29T17:31:18Z</time>
      </trkpt>
      <trkpt lat="42.6257340" lon="-2.0976940">
        <ele>612.7</ele>
        <time>2020-03-29T17:31:20Z</time>
      </trkpt>
      <trkpt lat="42.6257170" lon="-2.0978140">
        <ele>612.9</ele>
        <time>2020-03-29T17:31:22Z</time>
      </trkpt>
      <trkpt lat="42.6256880" lon="-2.0980230">
        <ele>613.2</ele>
        <time>2020-03-29T17:31:24Z</time>
      </trkpt>
      <trkpt lat="42.6256760" lon="-2.0981460">
        <ele>613.3</ele>
        <time>2020-03-29T17:31:26Z</time>
      </trkpt>
      <trkpt lat="42.6256470" lon="-2.0983600">
        <ele>613.5</ele>
        <time>2020-03-29T17:31:28Z</time>
      </trkpt>
      <trkpt lat="42.6255930" lon="-2.0985080">
        <ele>613.6</ele>
        <time>2020-03-29T17:31:30Z</time>
      </trkpt>
      <trkpt lat="42.6254730" lon="-2.0985980">
        <ele>613.9</ele>
        <time>2020-03-29T17:31:32Z</time>
      </trkpt>
      <trkpt lat="42.6253500" lon="-2.0986230">
        <ele>614.2</ele>
        <time>2020-03-29T17:31:34Z</time>
      </trkpt>
      <trkpt lat="42.6252270" lon="-2.0986630">
        <ele>614.6</ele>
        <time>2020-03-29T17:31:36Z</time>
      </trkpt>
      <trkpt lat="42.6251810" lon="-2.0988370">
        <ele>615.0</ele>
        <time>2020-03-29T17:31:38Z</time>
      </trkpt>
      <trkpt lat="42.6250740" lon="-2.0989350">
        <ele>614.5</ele>
        <time>2020-03-29T17:31:40Z</time>
      </trkpt>
      <trkpt lat="42.6249440" lon="-2.0989310">
        <ele>613.5</ele>
        <time>2020-03-29T17:31:42Z</time>
      </trkpt>
      <trkpt lat="42.6248400" lon="-2.0988210">
        <ele>612.5</ele>
        <time>2020-03-29T17:31:44Z</time>
      </trkpt>
      <trkpt lat="42.6248030" lon="-2.0986240">
        <ele>612.3</ele>
        <time>2020-03-29T17:31:46Z</time>
      </trkpt>
      <trkpt lat="42.6248630" lon="-2.0984600">
        <ele>612.1</ele>
        <time>2020-03-29T17:31:48Z</time>
      </trkpt>
      <trkpt lat="42.6248500" lon="-2.0983370">
        <ele>611.7</ele>
        <time>2020-03-29T17:31:50Z</time>
      </trkpt>
      <trkpt lat="42.6247490" lon="-2.0981610">
        <ele>611.0</ele>
        <time>2020-03-29T17:31:52Z</time>
      </trkpt>
      <trkpt lat="42.6246720" lon="-2.0980100">
        <ele>610.4</ele>
        <time>2020-03-29T17:31:54Z</time>
      </trkpt>
      <trkpt lat="42.6246170" lon="-2.0979060">
        <ele>610.2</ele>
        <time>2020-03-29T17:31:56Z</time>
      </trkpt>
      <trkpt lat="42.6245660" lon="-2.0978090">
        <ele>610.2</ele>
        <time>2020-03-29T17:31:58Z</time>
      </trkpt>
      <trkpt lat="42.6244700" lon="-2.0976270">
        <ele>610.4</ele>
        <time>2020-03-29T17:32:00Z</time>
      </trkpt>
      <trkpt lat="42.6244180" lon="-2.0975290">
        <ele>610.6</ele>
        <time>2020-03-29T17:32:02Z</time>
      </trkpt>
      <trkpt lat="42.6243650" lon="-2.0974290">
        <ele>610.8</ele>
        <time>2020-03-29T17:32:04Z</time>
      </trkpt>
      <trkpt lat="42.6242520" lon="-2.0972200">
        <ele>611.1</ele>
        <time>2020-03-29T17:32:06Z</time>
      </trkpt>
      <trkpt lat="42.6241960" lon="-2.0971220">
        <ele>611.3</ele>
        <time>2020-03-29T17:32:08Z</time>
      </trkpt>
      <trkpt lat="42.6240570" lon="-2.0970550">
        <ele>611.5</ele>
        <time>2020-03-29T17:32:10Z</time>
      </trkpt>
      <trkpt lat="42.6239490" lon="-2.0970470">
        <ele>611.6</ele>
        <time>2020-03-29T17:32:12Z</time>
      </trkpt>
      <trkpt lat="42.6238380" lon="-2.0969450">
        <ele>611.8</ele>
        <time>2020-03-29T17:32:14Z</time>
      </trkpt>
      <trkpt lat="42.6237900" lon="-2.0967680">
        <ele>612.2</ele>
        <time>2020-03-29T17:32:16Z</time>
      </trkpt>
      <trkpt lat="42.6237350" lon="-2.0966500">
        <ele>612.4</ele>
        <time>2020-03-29T17:32:18Z</time>
      </trkpt>
      <trkpt lat="42.6235770" lon="-2.0966590">
        <ele>612.3</ele>
        <time>2020-03-29T17:32:20Z</time>
      </trkpt>
      <trkpt lat="42.6234340" lon="-2.0967240">
        <ele>611.9</ele>
        <time>2020-03-29T17:32:22Z</time>
      </trkpt>
      <trkpt lat="42.6232990" lon="-2.0968340">
        <ele>611.3</ele>
        <time>2020-03-29T17:32:24Z</time>
      </trkpt>
      <trkpt lat="42.6231910" lon="-2.0969760">
        <ele>610.4</ele>
        <time>2020-03-29T17:32:26Z</time>
      </trkpt>
      <trkpt lat="42.6230840" lon="-2.0971510">
        <ele>609.4</ele>
        <time>2020-03-29T17:32:28Z</time>
      </trkpt>
      <trkpt lat="42.6230100" lon="-2.0972930">
        <ele>608.7</ele>
        <time>2020-03-29T17:32:30Z</time>
      </trkpt>
      <trkpt lat="42.6228760" lon="-2.0975400">
        <ele>607.6</ele>
        <time>2020-03-29T17:32:32Z</time>
      </trkpt>
      <trkpt lat="42.6227480" lon="-2.0977670">
        <ele>606.6</ele>
        <time>2020-03-29T17:32:34Z</time>
      </trkpt>
      <trkpt lat="42.6226250" lon="-2.0979760">
        <ele>605.6</ele>
        <time>2020-03-29T17:32:36Z</time>
      </trkpt>
      <trkpt lat="42.6224820" lon="-2.0981670">
        <ele>604.4</ele>
        <time>2020-03-29T17:32:38Z</time>
      </trkpt>
      <trkpt lat="42.6223190" lon="-2.0983550">
        <ele>603.0</ele>
        <time>2020-03-29T17:32:40Z</time>
      </trkpt>
      <trkpt lat="42.6221850" lon="-2.0984770">
        <ele>601.9</ele>
        <time>2020-03-29T17:32:42Z</time>
      </trkpt>
      <trkpt lat="42.6219760" lon="-2.0986440">
        <ele>600.6</ele>
        <time>2020-03-29T17:32:44Z</time>
      </trkpt>
      <trkpt lat="42.6217440" lon="-2.0988020">
        <ele>599.2</ele>
        <time>2020-03-29T17:32:46Z</time>
      </trkpt>
      <trkpt lat="42.6215870" lon="-2.0988980">
        <ele>598.0</ele>
        <time>2020-03-29T17:32:48Z</time>
      </trkpt>
      <trkpt lat="42.6214310" lon="-2.0989950">
        <ele>596.7</ele>
        <time>2020-03-29T17:32:50Z</time>
      </trkpt>
      <trkpt lat="42.6212740" lon="-2.0990910">
        <ele>595.5</ele>
        <time>2020-03-29T17:32:52Z</time>
      </trkpt>
      <trkpt lat="42.6209160" lon="-2.0993110">
        <ele>593.4</ele>
        <time>2020-03-29T17:32:54Z</time>
      </trkpt>
      <trkpt lat="42.6206830" lon="-2.0994560">
        <ele>592.3</ele>
        <time>2020-03-29T17:32:56Z</time>
      </trkpt>
      <trkpt lat="42.6205360" lon="-2.0995480">
        <ele>592.4</ele>
        <time>2020-03-29T17:32:58Z</time>
      </trkpt>
      <trkpt lat="42.6203980" lon="-2.0996350">
        <ele>592.6</ele>
        <time>2020-03-29T17:33:00Z</time>
      </trkpt>
      <trkpt lat="42.6201430" lon="-2.0997940">
        <ele>593.4</ele>
        <time>2020-03-29T17:33:02Z</time>
      </trkpt>
      <trkpt lat="42.6200190" lon="-2.0998730">
        <ele>594.0</ele>
        <time>2020-03-29T17:33:04Z</time>
      </trkpt>
      <trkpt lat="42.6197720" lon="-2.1000280">
        <ele>595.9</ele>
        <time>2020-03-29T17:33:06Z</time>
      </trkpt>
      <trkpt lat="42.6196500" lon="-2.1001040">
        <ele>597.2</ele>
        <time>2020-03-29T17:33:08Z</time>
      </trkpt>
      <trkpt lat="42.6194570" lon="-2.1002240">
        <ele>598.9</ele>
        <time>2020-03-29T17:33:10Z</time>
      </trkpt>
      <trkpt lat="42.6193410" lon="-2.1002960">
        <ele>600.1</ele>
        <time>2020-03-29T17:33:12Z</time>
      </trkpt>
      <trkpt lat="42.6192280" lon="-2.1003670">
        <ele>601.2</ele>
        <time>2020-03-29T17:33:14Z</time>
      </trkpt>
      <trkpt lat="42.6191220" lon="-2.1004330">
        <ele>602.1</ele>
        <time>2020-03-29T17:33:16Z</time>
      </trkpt>
      <trkpt lat="42.6190210" lon="-2.1004960">
        <ele>602.9</ele>
        <time>2020-03-29T17:33:18Z</time>
      </trkpt>
      <trkpt lat="42.6187260" lon="-2.1006800">
        <ele>604.6</ele>
        <time>2020-03-29T17:33:20Z</time>
      </trkpt>
      <trkpt lat="42.6186350" lon="-2.1007370">
        <ele>605.0</ele>
        <time>2020-03-29T17:33:22Z</time>
      </trkpt>
      <trkpt lat="42.6185480" lon="-2.1007920">
        <ele>605.3</ele>
        <time>2020-03-29T17:33:24Z</time>
      </trkpt>
      <trkpt lat="42.6183870" lon="-2.1008920">
        <ele>605.8</ele>
        <time>2020-03-29T17:33:26Z</time>
      </trkpt>
      <trkpt lat="42.6183060" lon="-2.1009430">
        <ele>606.0</ele>
        <time>2020-03-29T17:33:28Z</time>
      </trkpt>
      <trkpt lat="42.6182260" lon="-2.1009920">
        <ele>606.1</ele>
        <time>2020-03-29T17:33:30Z</time>
      </trkpt>
      <trkpt lat="42.6181500" lon="-2.1010390">
        <ele>606.1</ele>
        <time>2020-03-29T17:33:32Z</time>
      </trkpt>
      <trkpt lat="42.6179500" lon="-2.1011690">
        <ele>606.0</ele>
        <time>2020-03-29T17:33:34Z</time>
      </trkpt>
      <trkpt lat="42.6178610" lon="-2.1012360">
        <ele>605.6</ele>
        <time>2020-03-29T17:33:36Z</time>
      </trkpt>
      <trkpt lat="42.6177590" lon="-2.1013120">
        <ele>604.9</ele>
        <time>2020-03-29T17:33:38Z</time>
      </trkpt>
      <trkpt lat="42.6175410" lon="-2.1014750">
        <ele>603.3</ele>
        <time>2020-03-29T17:33:40Z</time>
      </trkpt>
      <trkpt lat="42.6174280" lon="-2.1015600">
        <ele>602.6</ele>
        <time>2020-03-29T17:33:42Z</time>
      </trkpt>
      <trkpt lat="42.6173120" lon="-2.1016470">
        <ele>601.7</ele>
        <time>2020-03-29T17:33:44Z</time>
      </trkpt>
      <trkpt lat="42.6170910" lon="-2.1018170">
        <ele>600.2</ele>
        <time>2020-03-29T17:33:46Z</time>
      </trkpt>
      <trkpt lat="42.6169940" lon="-2.1018950">
        <ele>599.5</ele>
        <time>2020-03-29T17:33:48Z</time>
      </trkpt>
      <trkpt lat="42.6169440" lon="-2.1019350">
        <ele>599.2</ele>
        <time>2020-03-29T17:33:50Z</time>
      </trkpt>
      <trkpt lat="42.6169390" lon="-2.1019390">
        <ele>599.2</ele>
        <time>2020-03-29T17:33:52Z</time>
      </trkpt>
      <trkpt lat="42.6169390" lon="-2.1019390">
        <ele>599.2</ele>
        <time>2020-03-29T17:33:54Z</time>
      </trkpt>
      <trkpt lat="42.6169390" lon="-2.1019390">
        <ele>599.2</ele>
        <time>2020-03-29T17:33:56Z</time>
      </trkpt>
      <trkpt lat="42.6169390" lon="-2.1019390">
        <ele>599.2</ele>
        <time>2020-03-29T17:33:58Z</time>
      </trkpt>
      <trkpt lat="42.6169390" lon="-2.1019390">
        <ele>599.2</ele>
        <time>2020-03-29T17:34:00Z</time>
      </trkpt>
      <trkpt lat="42.6169390" lon="-2.1019390">
        <ele>599.2</ele>
        <time>2020-03-29T17:34:02Z</time>
      </trkpt>
      <trkpt lat="42.6169390" lon="-2.1019390">
        <ele>599.2</ele>
        <time>2020-03-29T17:34:04Z</time>
      </trkpt>
      <trkpt lat="42.6169390" lon="-2.1019390">
        <ele>599.2</ele>
        <time>2020-03-29T17:34:06Z</time>
      </trkpt>
      <trkpt lat="42.6169390" lon="-2.1019390">
        <ele>599.2</ele>
        <time>2020-03-29T17:34:08Z</time>
      </trkpt>
      <trkpt lat="42.6169390" lon="-2.1019390">
        <ele>599.2</ele>
        <time>2020-03-29T17:34:10Z</time>
      </trkpt>
      <trkpt lat="42.6169390" lon="-2.1019390">
        <ele>599.2</ele>
        <time>2020-03-29T17:34:12Z</time>
      </trkpt>
      <trkpt lat="42.6169390" lon="-2.1019390">
        <ele>599.2</ele>
        <time>2020-03-29T17:34:14Z</time>
      </trkpt>
      <trkpt lat="42.6169390" lon="-2.1019390">
        <ele>599.2</ele>
        <time>2020-03-29T17:34:16Z</time>
      </trkpt>
      <trkpt lat="42.6169390" lon="-2.1019390">
        <ele>599.2</ele>
        <time>2020-03-29T17:34:18Z</time>
      </trkpt>
      <trkpt lat="42.6169390" lon="-2.1019390">
        <ele>599.2</ele>
        <time>2020-03-29T17:34:20Z</time>
      </trkpt>
      <trkpt lat="42.6169390" lon="-2.1019390">
        <ele>599.2</ele>
        <time>2020-03-29T17:34:22Z</time>
      </trkpt>
      <trkpt lat="42.6169390" lon="-2.1019390">
        <ele>599.2</ele>
        <time>2020-03-29T17:34:24Z</time>
      </trkpt>
      <trkpt lat="42.6169390" lon="-2.1019390">
        <ele>599.2</ele>
        <time>2020-03-29T17:34:26Z</time>
      </trkpt>
      <trkpt lat="42.6169390" lon="-2.1019390">
        <ele>599.2</ele>
        <time>2020-03-29T17:34:28Z</time>
      </trkpt>
      <trkpt lat="42.6169340" lon="-2.1019430">
        <ele>599.1</ele>
        <time>2020-03-29T17:34:30Z</time>
      </trkpt>
      <trkpt lat="42.6169120" lon="-2.1019600">
        <ele>599.0</ele>
        <time>2020-03-29T17:34:32Z</time>
      </trkpt>
      <trkpt lat="42.6168740" lon="-2.1019910">
        <ele>598.7</ele>
        <time>2020-03-29T17:34:34Z</time>
      </trkpt>
      <trkpt lat="42.6168220" lon="-2.1020330">
        <ele>598.5</ele>
        <time>2020-03-29T17:34:36Z</time>
      </trkpt>
      <trkpt lat="42.6167580" lon="-2.1020840">
        <ele>598.2</ele>
        <time>2020-03-29T17:34:38Z</time>
      </trkpt>
      <trkpt lat="42.6166840" lon="-2.1021440">
        <ele>597.8</ele>
        <time>2020-03-29T17:34:40Z</time>
      </trkpt>
      <trkpt lat="42.6164060" lon="-2.1023680">
        <ele>596.4</ele>
        <time>2020-03-29T17:34:42Z</time>
      </trkpt>
      <trkpt lat="42.6163120" lon="-2.1024440">
        <ele>595.6</ele>
        <time>2020-03-29T17:34:44Z</time>
      </trkpt>
      <trkpt lat="42.6161580" lon="-2.1025670">
        <ele>593.6</ele>
        <time>2020-03-29T17:34:46Z</time>
      </trkpt>
      <trkpt lat="42.6160350" lon="-2.1026650">
        <ele>592.4</ele>
        <time>2020-03-29T17:34:48Z</time>
      </trkpt>
      <trkpt lat="42.6158980" lon="-2.1027740">
        <ele>591.1</ele>
        <time>2020-03-29T17:34:50Z</time>
      </trkpt>
      <trkpt lat="42.6156040" lon="-2.1030080">
        <ele>587.6</ele>
        <time>2020-03-29T17:34:52Z</time>
      </trkpt>
      <trkpt lat="42.6154420" lon="-2.1031370">
        <ele>585.8</ele>
        <time>2020-03-29T17:34:54Z</time>
      </trkpt>
      <trkpt lat="42.6152700" lon="-2.1032750">
        <ele>584.5</ele>
        <time>2020-03-29T17:34:56Z</time>
      </trkpt>
      <trkpt lat="42.6148980" lon="-2.1035720">
        <ele>581.5</ele>
        <time>2020-03-29T17:34:58Z</time>
      </trkpt>
      <trkpt lat="42.6147260" lon="-2.1037090">
        <ele>580.4</ele>
        <time>2020-03-29T17:35:00Z</time>
      </trkpt>
      <trkpt lat="42.6145660" lon="-2.1038370">
        <ele>579.3</ele>
        <time>2020-03-29T17:35:02Z</time>
      </trkpt>
      <trkpt lat="42.6142230" lon="-2.1041100">
        <ele>577.5</ele>
        <time>2020-03-29T17:35:04Z</time>
      </trkpt>
      <trkpt lat="42.6140860" lon="-2.1042190">
        <ele>577.0</ele>
        <time>2020-03-29T17:35:06Z</time>
      </trkpt>
      <trkpt lat="42.6139580" lon="-2.1043220">
        <ele>576.6</ele>
        <time>2020-03-29T17:35:08Z</time>
      </trkpt>
      <trkpt lat="42.6137000" lon="-2.1045280">
        <ele>576.1</ele>
        <time>2020-03-29T17:35:10Z</time>
      </trkpt>
      <trkpt lat="42.6135760" lon="-2.1046270">
        <ele>576.1</ele>
        <time>2020-03-29T17:35:12Z</time>
      </trkpt>
      <trkpt lat="42.6133920" lon="-2.1047730">
        <ele>576.1</ele>
        <time>2020-03-29T17:35:14Z</time>
      </trkpt>
      <trkpt lat="42.6132730" lon="-2.1048680">
        <ele>576.1</ele>
        <time>2020-03-29T17:35:16Z</time>
      </trkpt>
      <trkpt lat="42.6131570" lon="-2.1049620">
        <ele>576.2</ele>
        <time>2020-03-29T17:35:18Z</time>
      </trkpt>
      <trkpt lat="42.6130440" lon="-2.1050520">
        <ele>576.5</ele>
        <time>2020-03-29T17:35:20Z</time>
      </trkpt>
      <trkpt lat="42.6127380" lon="-2.1052970">
        <ele>577.9</ele>
        <time>2020-03-29T17:35:22Z</time>
      </trkpt>
      <trkpt lat="42.6126200" lon="-2.1053920">
        <ele>578.1</ele>
        <time>2020-03-29T17:35:24Z</time>
      </trkpt>
      <trkpt lat="42.6124920" lon="-2.1054940">
        <ele>578.1</ele>
        <time>2020-03-29T17:35:26Z</time>
      </trkpt>
      <trkpt lat="42.6123560" lon="-2.1056030">
        <ele>578.0</ele>
        <time>2020-03-29T17:35:28Z</time>
      </trkpt>
      <trkpt lat="42.6120190" lon="-2.1058730">
        <ele>576.7</ele>
        <time>2020-03-29T17:35:30Z</time>
      </trkpt>
      <trkpt lat="42.6118690" lon="-2.1059940">
        <ele>575.9</ele>
        <time>2020-03-29T17:35:32Z</time>
      </trkpt>
      <trkpt lat="42.6117110" lon="-2.1061210">
        <ele>574.8</ele>
        <time>2020-03-29T17:35:34Z</time>
      </trkpt>
      <trkpt lat="42.6114080" lon="-2.1063620">
        <ele>572.6</ele>
        <time>2020-03-29T17:35:36Z</time>
      </trkpt>
      <trkpt lat="42.6111820" lon="-2.1065400">
        <ele>570.6</ele>
        <time>2020-03-29T17:35:38Z</time>
      </trkpt>
      <trkpt lat="42.6110050" lon="-2.1066790">
        <ele>569.0</ele>
        <time>2020-03-29T17:35:40Z</time>
      </trkpt>
      <trkpt lat="42.6108230" lon="-2.1068230">
        <ele>567.4</ele>
        <time>2020-03-29T17:35:42Z</time>
      </trkpt>
      <trkpt lat="42.6104450" lon="-2.1071220">
        <ele>564.6</ele>
        <time>2020-03-29T17:35:44Z</time>
      </trkpt>
      <trkpt lat="42.6102540" lon="-2.1072720">
        <ele>563.1</ele>
        <time>2020-03-29T17:35:46Z</time>
      </trkpt>
      <trkpt lat="42.6100590" lon="-2.1074260">
        <ele>561.7</ele>
        <time>2020-03-29T17:35:48Z</time>
      </trkpt>
      <trkpt lat="42.6096720" lon="-2.1077300">
        <ele>558.5</ele>
        <time>2020-03-29T17:35:50Z</time>
      </trkpt>
      <trkpt lat="42.6094870" lon="-2.1078770">
        <ele>557.1</ele>
        <time>2020-03-29T17:35:52Z</time>
      </trkpt>
      <trkpt lat="42.6093100" lon="-2.1080160">
        <ele>555.7</ele>
        <time>2020-03-29T17:35:54Z</time>
      </trkpt>
      <trkpt lat="42.6089450" lon="-2.1083040">
        <ele>553.2</ele>
        <time>2020-03-29T17:35:56Z</time>
      </trkpt>
      <trkpt lat="42.6087090" lon="-2.1084910">
        <ele>552.3</ele>
        <time>2020-03-29T17:35:58Z</time>
      </trkpt>
      <trkpt lat="42.6085450" lon="-2.1086210">
        <ele>551.8</ele>
        <time>2020-03-29T17:36:00Z</time>
      </trkpt>
      <trkpt lat="42.6082550" lon="-2.1088510">
        <ele>550.8</ele>
        <time>2020-03-29T17:36:02Z</time>
      </trkpt>
      <trkpt lat="42.6080870" lon="-2.1089840">
        <ele>550.1</ele>
        <time>2020-03-29T17:36:04Z</time>
      </trkpt>
      <trkpt lat="42.6077860" lon="-2.1092270">
        <ele>548.6</ele>
        <time>2020-03-29T17:36:06Z</time>
      </trkpt>
      <trkpt lat="42.6075640" lon="-2.1094320">
        <ele>548.0</ele>
        <time>2020-03-29T17:36:08Z</time>
      </trkpt>
      <trkpt lat="42.6073630" lon="-2.1096720">
        <ele>547.3</ele>
        <time>2020-03-29T17:36:10Z</time>
      </trkpt>
      <trkpt lat="42.6071590" lon="-2.1099510">
        <ele>546.6</ele>
        <time>2020-03-29T17:36:12Z</time>
      </trkpt>
      <trkpt lat="42.6069580" lon="-2.1102060">
        <ele>545.5</ele>
        <time>2020-03-29T17:36:14Z</time>
      </trkpt>
      <trkpt lat="42.6067250" lon="-2.1104050">
        <ele>544.3</ele>
        <time>2020-03-29T17:36:16Z</time>
      </trkpt>
      <trkpt lat="42.6065430" lon="-2.1105240">
        <ele>543.4</ele>
        <time>2020-03-29T17:36:18Z</time>
      </trkpt>
      <trkpt lat="42.6062250" lon="-2.1107300">
        <ele>541.6</ele>
        <time>2020-03-29T17:36:20Z</time>
      </trkpt>
      <trkpt lat="42.6060200" lon="-2.1108600">
        <ele>540.3</ele>
        <time>2020-03-29T17:36:22Z</time>
      </trkpt>
      <trkpt lat="42.6058330" lon="-2.1109800">
        <ele>538.9</ele>
        <time>2020-03-29T17:36:24Z</time>
      </trkpt>
      <trkpt lat="42.6054900" lon="-2.1111980">
        <ele>536.2</ele>
        <time>2020-03-29T17:36:26Z</time>
      </trkpt>
      <trkpt lat="42.6052330" lon="-2.1113650">
        <ele>534.2</ele>
        <time>2020-03-29T17:36:28Z</time>
      </trkpt>
      <trkpt lat="42.6049850" lon="-2.1115450">
        <ele>532.2</ele>
        <time>2020-03-29T17:36:30Z</time>
      </trkpt>
      <trkpt lat="42.6047860" lon="-2.1117880">
        <ele>530.3</ele>
        <time>2020-03-29T17:36:32Z</time>
      </trkpt>
      <trkpt lat="42.6046570" lon="-2.1119820">
        <ele>529.0</ele>
        <time>2020-03-29T17:36:34Z</time>
      </trkpt>
      <trkpt lat="42.6045280" lon="-2.1121770">
        <ele>527.9</ele>
        <time>2020-03-29T17:36:36Z</time>
      </trkpt>
      <trkpt lat="42.6043970" lon="-2.1123740">
        <ele>526.9</ele>
        <time>2020-03-29T17:36:38Z</time>
      </trkpt>
      <trkpt lat="42.6041140" lon="-2.1128010">
        <ele>524.6</ele>
        <time>2020-03-29T17:36:40Z</time>
      </trkpt>
      <trkpt lat="42.6039820" lon="-2.1130000">
        <ele>523.6</ele>
        <time>2020-03-29T17:36:42Z</time>
      </trkpt>
      <trkpt lat="42.6038490" lon="-2.1132000">
        <ele>522.7</ele>
        <time>2020-03-29T17:36:44Z</time>
      </trkpt>
      <trkpt lat="42.6035660" lon="-2.1136280">
        <ele>521.5</ele>
        <time>2020-03-29T17:36:46Z</time>
      </trkpt>
      <trkpt lat="42.6034400" lon="-2.1138170">
        <ele>521.0</ele>
        <time>2020-03-29T17:36:48Z</time>
      </trkpt>
      <trkpt lat="42.6033230" lon="-2.1139950">
        <ele>520.8</ele>
        <time>2020-03-29T17:36:50Z</time>
      </trkpt>
      <trkpt lat="42.6030600" lon="-2.1143910">
        <ele>520.7</ele>
        <time>2020-03-29T17:36:52Z</time>
      </trkpt>
      <trkpt lat="42.6029540" lon="-2.1145510">
        <ele>520.7</ele>
        <time>2020-03-29T17:36:54Z</time>
      </trkpt>
      <trkpt lat="42.6028520" lon="-2.1147070">
        <ele>520.7</ele>
        <time>2020-03-29T17:36:56Z</time>
      </trkpt>
      <trkpt lat="42.6027510" lon="-2.1148590">
        <ele>520.7</ele>
        <time>2020-03-29T17:36:58Z</time>
      </trkpt>
      <trkpt lat="42.6026520" lon="-2.1150080">
        <ele>520.5</ele>
        <time>2020-03-29T17:37:00Z</time>
      </trkpt>
      <trkpt lat="42.6024050" lon="-2.1153860">
        <ele>519.0</ele>
        <time>2020-03-29T17:37:02Z</time>
      </trkpt>
      <trkpt lat="42.6023130" lon="-2.1155280">
        <ele>518.5</ele>
        <time>2020-03-29T17:37:04Z</time>
      </trkpt>
      <trkpt lat="42.6022230" lon="-2.1156680">
        <ele>518.1</ele>
        <time>2020-03-29T17:37:06Z</time>
      </trkpt>
      <trkpt lat="42.6020340" lon="-2.1159630">
        <ele>517.9</ele>
        <time>2020-03-29T17:37:08Z</time>
      </trkpt>
      <trkpt lat="42.6019500" lon="-2.1160940">
        <ele>517.9</ele>
        <time>2020-03-29T17:37:10Z</time>
      </trkpt>
      <trkpt lat="42.6018680" lon="-2.1162230">
        <ele>517.9</ele>
        <time>2020-03-29T17:37:12Z</time>
      </trkpt>
      <trkpt lat="42.6016840" lon="-2.1165060">
        <ele>517.9</ele>
        <time>2020-03-29T17:37:14Z</time>
      </trkpt>
      <trkpt lat="42.6016030" lon="-2.1166280">
        <ele>518.0</ele>
        <time>2020-03-29T17:37:16Z</time>
      </trkpt>
      <trkpt lat="42.6015230" lon="-2.1167480">
        <ele>518.1</ele>
        <time>2020-03-29T17:37:18Z</time>
      </trkpt>
      <trkpt lat="42.6014440" lon="-2.1168670">
        <ele>518.4</ele>
        <time>2020-03-29T17:37:20Z</time>
      </trkpt>
      <trkpt lat="42.6013650" lon="-2.1169850">
        <ele>518.8</ele>
        <time>2020-03-29T17:37:22Z</time>
      </trkpt>
      <trkpt lat="42.6011380" lon="-2.1173280">
        <ele>520.5</ele>
        <time>2020-03-29T17:37:24Z</time>
      </trkpt>
      <trkpt lat="42.6010610" lon="-2.1174440">
        <ele>521.1</ele>
        <time>2020-03-29T17:37:26Z</time>
      </trkpt>
      <trkpt lat="42.6009840" lon="-2.1175590">
        <ele>521.5</ele>
        <time>2020-03-29T17:37:28Z</time>
      </trkpt>
      <trkpt lat="42.6009090" lon="-2.1176720">
        <ele>521.8</ele>
        <time>2020-03-29T17:37:30Z</time>
      </trkpt>
      <trkpt lat="42.6008340" lon="-2.1177850">
        <ele>521.9</ele>
        <time>2020-03-29T17:37:32Z</time>
      </trkpt>
      <trkpt lat="42.6007590" lon="-2.1178980">
        <ele>522.0</ele>
        <time>2020-03-29T17:37:34Z</time>
      </trkpt>
      <trkpt lat="42.6005350" lon="-2.1182350">
        <ele>522.1</ele>
        <time>2020-03-29T17:37:36Z</time>
      </trkpt>
      <trkpt lat="42.6004610" lon="-2.1183470">
        <ele>522.0</ele>
        <time>2020-03-29T17:37:38Z</time>
      </trkpt>
      <trkpt lat="42.6003880" lon="-2.1184570">
        <ele>522.0</ele>
        <time>2020-03-29T17:37:40Z</time>
      </trkpt>
      <trkpt lat="42.6003140" lon="-2.1185680">
        <ele>521.8</ele>
        <time>2020-03-29T17:37:42Z</time>
      </trkpt>
      <trkpt lat="42.6002410" lon="-2.1186780">
        <ele>521.5</ele>
        <time>2020-03-29T17:37:44Z</time>
      </trkpt>
      <trkpt lat="42.6000210" lon="-2.1190120">
        <ele>520.2</ele>
        <time>2020-03-29T17:37:46Z</time>
      </trkpt>
      <trkpt lat="42.6000890" lon="-2.1191800">
        <ele>520.4</ele>
        <time>2020-03-29T17:37:48Z</time>
      </trkpt>
      <trkpt lat="42.6000660" lon="-2.1193740">
        <ele>520.4</ele>
        <time>2020-03-29T17:37:50Z</time>
      </trkpt>
      <trkpt lat="42.5999630" lon="-2.1195030">
        <ele>520.4</ele>
        <time>2020-03-29T17:37:52Z</time>
      </trkpt>
      <trkpt lat="42.5998250" lon="-2.1195200">
        <ele>520.1</ele>
        <time>2020-03-29T17:37:54Z</time>
      </trkpt>
      <trkpt lat="42.5996980" lon="-2.1194400">
        <ele>519.7</ele>
        <time>2020-03-29T17:37:56Z</time>
      </trkpt>
      <trkpt lat="42.5996260" lon="-2.1195460">
        <ele>519.9</ele>
        <time>2020-03-29T17:37:58Z</time>
      </trkpt>
      <trkpt lat="42.5995570" lon="-2.1196490">
        <ele>520.1</ele>
        <time>2020-03-29T17:38:00Z</time>
      </trkpt>
      <trkpt lat="42.5994900" lon="-2.1197490">
        <ele>520.3</ele>
        <time>2020-03-29T17:38:02Z</time>
      </trkpt>
      <trkpt lat="42.5994250" lon="-2.1198450">
        <ele>520.5</ele>
        <time>2020-03-29T17:38:04Z</time>
      </trkpt>
      <trkpt lat="42.5993610" lon="-2.1199390">
        <ele>520.7</ele>
        <time>2020-03-29T17:38:06Z</time>
      </trkpt>
      <trkpt lat="42.5991610" lon="-2.1202360">
        <ele>521.6</ele>
        <time>2020-03-29T17:38:08Z</time>
      </trkpt>
      <trkpt lat="42.5990990" lon="-2.1203270">
        <ele>521.9</ele>
        <time>2020-03-29T17:38:10Z</time>
      </trkpt>
      <trkpt lat="42.5990400" lon="-2.1204150">
        <ele>522.2</ele>
        <time>2020-03-29T17:38:12Z</time>
      </trkpt>
      <trkpt lat="42.5989810" lon="-2.1205030">
        <ele>522.5</ele>
        <time>2020-03-29T17:38:14Z</time>
      </trkpt>
      <trkpt lat="42.5989230" lon="-2.1205890">
        <ele>522.8</ele>
        <time>2020-03-29T17:38:16Z</time>
      </trkpt>
      <trkpt lat="42.5988650" lon="-2.1206750">
        <ele>523.0</ele>
        <time>2020-03-29T17:38:18Z</time>
      </trkpt>
      <trkpt lat="42.5988080" lon="-2.1207590">
        <ele>523.3</ele>
        <time>2020-03-29T17:38:20Z</time>
      </trkpt>
      <trkpt lat="42.5986180" lon="-2.1210560">
        <ele>523.9</ele>
        <time>2020-03-29T17:38:22Z</time>
      </trkpt>
      <trkpt lat="42.5985630" lon="-2.1211540">
        <ele>524.1</ele>
        <time>2020-03-29T17:38:24Z</time>
      </trkpt>
      <trkpt lat="42.5985050" lon="-2.1212580">
        <ele>524.3</ele>
        <time>2020-03-29T17:38:26Z</time>
      </trkpt>
      <trkpt lat="42.5984440" lon="-2.1213670">
        <ele>524.5</ele>
        <time>2020-03-29T17:38:28Z</time>
      </trkpt>
      <trkpt lat="42.5982870" lon="-2.1216450">
        <ele>524.6</ele>
        <time>2020-03-29T17:38:30Z</time>
      </trkpt>
      <trkpt lat="42.5982030" lon="-2.1217990">
        <ele>524.4</ele>
        <time>2020-03-29T17:38:32Z</time>
      </trkpt>
      <trkpt lat="42.5981370" lon="-2.1219180">
        <ele>524.2</ele>
        <time>2020-03-29T17:38:34Z</time>
      </trkpt>
      <trkpt lat="42.5980690" lon="-2.1220420">
        <ele>523.8</ele>
        <time>2020-03-29T17:38:36Z</time>
      </trkpt>
      <trkpt lat="42.5979320" lon="-2.1223020">
        <ele>523.1</ele>
        <time>2020-03-29T17:38:38Z</time>
      </trkpt>
      <trkpt lat="42.5978650" lon="-2.1224430">
        <ele>522.7</ele>
        <time>2020-03-29T17:38:40Z</time>
      </trkpt>
      <trkpt lat="42.5977930" lon="-2.1225950">
        <ele>522.3</ele>
        <time>2020-03-29T17:38:42Z</time>
      </trkpt>
      <trkpt lat="42.5976490" lon="-2.1229180">
        <ele>521.6</ele>
        <time>2020-03-29T17:38:44Z</time>
      </trkpt>
      <trkpt lat="42.5975870" lon="-2.1231030">
        <ele>521.1</ele>
        <time>2020-03-29T17:38:46Z</time>
      </trkpt>
      <trkpt lat="42.5975220" lon="-2.1232920">
        <ele>520.6</ele>
        <time>2020-03-29T17:38:48Z</time>
      </trkpt>
      <trkpt lat="42.5974560" lon="-2.1234870">
        <ele>520.0</ele>
        <time>2020-03-29T17:38:50Z</time>
      </trkpt>
      <trkpt lat="42.5973020" lon="-2.1239390">
        <ele>518.8</ele>
        <time>2020-03-29T17:38:52Z</time>
      </trkpt>
      <trkpt lat="42.5972330" lon="-2.1241400">
        <ele>518.3</ele>
        <time>2020-03-29T17:38:54Z</time>
      </trkpt>
      <trkpt lat="42.5971640" lon="-2.1243430">
        <ele>517.8</ele>
        <time>2020-03-29T17:38:56Z</time>
      </trkpt>
      <trkpt lat="42.5970080" lon="-2.1248000">
        <ele>516.2</ele>
        <time>2020-03-29T17:38:58Z</time>
      </trkpt>
      <trkpt lat="42.5969390" lon="-2.1250030">
        <ele>515.3</ele>
        <time>2020-03-29T17:39:00Z</time>
      </trkpt>
      <trkpt lat="42.5968690" lon="-2.1252090">
        <ele>514.4</ele>
        <time>2020-03-29T17:39:02Z</time>
      </trkpt>
      <trkpt lat="42.5967990" lon="-2.1254160">
        <ele>513.6</ele>
        <time>2020-03-29T17:39:04Z</time>
      </trkpt>
      <trkpt lat="42.5966440" lon="-2.1258710">
        <ele>512.5</ele>
        <time>2020-03-29T17:39:06Z</time>
      </trkpt>
      <trkpt lat="42.5965770" lon="-2.1260660">
        <ele>512.1</ele>
        <time>2020-03-29T17:39:08Z</time>
      </trkpt>
      <trkpt lat="42.5965130" lon="-2.1262550">
        <ele>511.6</ele>
        <time>2020-03-29T17:39:10Z</time>
      </trkpt>
      <trkpt lat="42.5963640" lon="-2.1266930">
        <ele>510.8</ele>
        <time>2020-03-29T17:39:12Z</time>
      </trkpt>
      <trkpt lat="42.5963020" lon="-2.1268740">
        <ele>510.6</ele>
        <time>2020-03-29T17:39:14Z</time>
      </trkpt>
      <trkpt lat="42.5962400" lon="-2.1270560">
        <ele>510.6</ele>
        <time>2020-03-29T17:39:16Z</time>
      </trkpt>
      <trkpt lat="42.5961790" lon="-2.1272370">
        <ele>510.5</ele>
        <time>2020-03-29T17:39:18Z</time>
      </trkpt>
      <trkpt lat="42.5960300" lon="-2.1276700">
        <ele>510.2</ele>
        <time>2020-03-29T17:39:20Z</time>
      </trkpt>
      <trkpt lat="42.5959670" lon="-2.1278520">
        <ele>509.8</ele>
        <time>2020-03-29T17:39:22Z</time>
      </trkpt>
      <trkpt lat="42.5959030" lon="-2.1280390">
        <ele>509.4</ele>
        <time>2020-03-29T17:39:24Z</time>
      </trkpt>
      <trkpt lat="42.5958380" lon="-2.1282300">
        <ele>508.8</ele>
        <time>2020-03-29T17:39:26Z</time>
      </trkpt>
      <trkpt lat="42.5956850" lon="-2.1286760">
        <ele>507.4</ele>
        <time>2020-03-29T17:39:28Z</time>
      </trkpt>
      <trkpt lat="42.5956190" lon="-2.1288760">
        <ele>507.1</ele>
        <time>2020-03-29T17:39:30Z</time>
      </trkpt>
      <trkpt lat="42.5955530" lon="-2.1290780">
        <ele>506.8</ele>
        <time>2020-03-29T17:39:32Z</time>
      </trkpt>
      <trkpt lat="42.5954850" lon="-2.1292820">
        <ele>506.5</ele>
        <time>2020-03-29T17:39:34Z</time>
      </trkpt>
      <trkpt lat="42.5953370" lon="-2.1297320">
        <ele>505.8</ele>
        <time>2020-03-29T17:39:36Z</time>
      </trkpt>
      <trkpt lat="42.5952750" lon="-2.1299200">
        <ele>505.5</ele>
        <time>2020-03-29T17:39:38Z</time>
      </trkpt>
      <trkpt lat="42.5952160" lon="-2.1300990">
        <ele>505.3</ele>
        <time>2020-03-29T17:39:40Z</time>
      </trkpt>
      <trkpt lat="42.5950760" lon="-2.1305200">
        <ele>505.2</ele>
        <time>2020-03-29T17:39:42Z</time>
      </trkpt>
      <trkpt lat="42.5950210" lon="-2.1306890">
        <ele>505.2</ele>
        <time>2020-03-29T17:39:44Z</time>
      </trkpt>
      <trkpt lat="42.5949650" lon="-2.1308570">
        <ele>505.2</ele>
        <time>2020-03-29T17:39:46Z</time>
      </trkpt>
      <trkpt lat="42.5949110" lon="-2.1310210">
        <ele>505.2</ele>
        <time>2020-03-29T17:39:48Z</time>
      </trkpt>
      <trkpt lat="42.5948560" lon="-2.1311870">
        <ele>505.2</ele>
        <time>2020-03-29T17:39:50Z</time>
      </trkpt>
      <trkpt lat="42.5947190" lon="-2.1316040">
        <ele>504.8</ele>
        <time>2020-03-29T17:39:52Z</time>
      </trkpt>
      <trkpt lat="42.5946640" lon="-2.1317690">
        <ele>504.7</ele>
        <time>2020-03-29T17:39:54Z</time>
      </trkpt>
      <trkpt lat="42.5946100" lon="-2.1319360">
        <ele>504.6</ele>
        <time>2020-03-29T17:39:56Z</time>
      </trkpt>
      <trkpt lat="42.5945550" lon="-2.1321020">
        <ele>504.6</ele>
        <time>2020-03-29T17:39:58Z</time>
      </trkpt>
      <trkpt lat="42.5944130" lon="-2.1325160">
        <ele>504.7</ele>
        <time>2020-03-29T17:40:00Z</time>
      </trkpt>
      <trkpt lat="42.5943540" lon="-2.1326820">
        <ele>504.6</ele>
        <time>2020-03-29T17:40:02Z</time>
      </trkpt>
      <trkpt lat="42.5942410" lon="-2.1329990">
        <ele>504.2</ele>
        <time>2020-03-29T17:40:04Z</time>
      </trkpt>
      <trkpt lat="42.5941820" lon="-2.1331670">
        <ele>504.1</ele>
        <time>2020-03-29T17:40:06Z</time>
      </trkpt>
      <trkpt lat="42.5941210" lon="-2.1333350">
        <ele>504.0</ele>
        <time>2020-03-29T17:40:08Z</time>
      </trkpt>
      <trkpt lat="42.5940090" lon="-2.1336600">
        <ele>504.1</ele>
        <time>2020-03-29T17:40:10Z</time>
      </trkpt>
      <trkpt lat="42.5939510" lon="-2.1338370">
        <ele>504.1</ele>
        <time>2020-03-29T17:40:12Z</time>
      </trkpt>
      <trkpt lat="42.5938930" lon="-2.1340150">
        <ele>504.2</ele>
        <time>2020-03-29T17:40:14Z</time>
      </trkpt>
      <trkpt lat="42.5938340" lon="-2.1341960">
        <ele>504.1</ele>
        <time>2020-03-29T17:40:16Z</time>
      </trkpt>
      <trkpt lat="42.5936930" lon="-2.1346230">
        <ele>503.6</ele>
        <time>2020-03-29T17:40:18Z</time>
      </trkpt>
      <trkpt lat="42.5936360" lon="-2.1347910">
        <ele>503.5</ele>
        <time>2020-03-29T17:40:20Z</time>
      </trkpt>
      <trkpt lat="42.5935830" lon="-2.1349510">
        <ele>503.5</ele>
        <time>2020-03-29T17:40:22Z</time>
      </trkpt>
      <trkpt lat="42.5935310" lon="-2.1351080">
        <ele>503.5</ele>
        <time>2020-03-29T17:40:24Z</time>
      </trkpt>
      <trkpt lat="42.5933910" lon="-2.1355070">
        <ele>503.1</ele>
        <time>2020-03-29T17:40:26Z</time>
      </trkpt>
      <trkpt lat="42.5933340" lon="-2.1356550">
        <ele>503.0</ele>
        <time>2020-03-29T17:40:28Z</time>
      </trkpt>
      <trkpt lat="42.5932770" lon="-2.1358010">
        <ele>502.9</ele>
        <time>2020-03-29T17:40:30Z</time>
      </trkpt>
      <trkpt lat="42.5931510" lon="-2.1360760">
        <ele>502.9</ele>
        <time>2020-03-29T17:40:32Z</time>
      </trkpt>
      <trkpt lat="42.5930350" lon="-2.1362830">
        <ele>502.9</ele>
        <time>2020-03-29T17:40:34Z</time>
      </trkpt>
      <trkpt lat="42.5929480" lon="-2.1364010">
        <ele>502.8</ele>
        <time>2020-03-29T17:40:36Z</time>
      </trkpt>
      <trkpt lat="42.5927970" lon="-2.1365830">
        <ele>502.6</ele>
        <time>2020-03-29T17:40:38Z</time>
      </trkpt>
      <trkpt lat="42.5926920" lon="-2.1366870">
        <ele>502.4</ele>
        <time>2020-03-29T17:40:40Z</time>
      </trkpt>
      <trkpt lat="42.5925160" lon="-2.1368310">
        <ele>502.3</ele>
        <time>2020-03-29T17:40:42Z</time>
      </trkpt>
      <trkpt lat="42.5923370" lon="-2.1369400">
        <ele>502.1</ele>
        <time>2020-03-29T17:40:44Z</time>
      </trkpt>
      <trkpt lat="42.5922080" lon="-2.1370020">
        <ele>501.9</ele>
        <time>2020-03-29T17:40:46Z</time>
      </trkpt>
      <trkpt lat="42.5919920" lon="-2.1370690">
        <ele>501.6</ele>
        <time>2020-03-29T17:40:48Z</time>
      </trkpt>
      <trkpt lat="42.5917650" lon="-2.1371150">
        <ele>501.4</ele>
        <time>2020-03-29T17:40:50Z</time>
      </trkpt>
      <trkpt lat="42.5916180" lon="-2.1371320">
        <ele>501.2</ele>
        <time>2020-03-29T17:40:52Z</time>
      </trkpt>
      <trkpt lat="42.5914710" lon="-2.1371490">
        <ele>501.0</ele>
        <time>2020-03-29T17:40:54Z</time>
      </trkpt>
      <trkpt lat="42.5913200" lon="-2.1371660">
        <ele>500.8</ele>
        <time>2020-03-29T17:40:56Z</time>
      </trkpt>
      <trkpt lat="42.5909710" lon="-2.1372050">
        <ele>500.4</ele>
        <time>2020-03-29T17:40:58Z</time>
      </trkpt>
      <trkpt lat="42.5908170" lon="-2.1372190">
        <ele>499.5</ele>
        <time>2020-03-29T17:41:00Z</time>
      </trkpt>
      <trkpt lat="42.5906610" lon="-2.1372330">
        <ele>498.8</ele>
        <time>2020-03-29T17:41:02Z</time>
      </trkpt>
      <trkpt lat="42.5903400" lon="-2.1372630">
        <ele>497.7</ele>
        <time>2020-03-29T17:41:04Z</time>
      </trkpt>
      <trkpt lat="42.5901830" lon="-2.1372780">
        <ele>496.9</ele>
        <time>2020-03-29T17:41:06Z</time>
      </trkpt>
      <trkpt lat="42.5898910" lon="-2.1373050">
        <ele>495.7</ele>
        <time>2020-03-29T17:41:08Z</time>
      </trkpt>
      <trkpt lat="42.5896850" lon="-2.1373200">
        <ele>496.3</ele>
        <time>2020-03-29T17:41:10Z</time>
      </trkpt>
      <trkpt lat="42.5895360" lon="-2.1373310">
        <ele>496.3</ele>
        <time>2020-03-29T17:41:12Z</time>
      </trkpt>
      <trkpt lat="42.5893940" lon="-2.1373420">
        <ele>496.4</ele>
        <time>2020-03-29T17:41:14Z</time>
      </trkpt>
      <trkpt lat="42.5890960" lon="-2.1373660">
        <ele>496.9</ele>
        <time>2020-03-29T17:41:16Z</time>
      </trkpt>
      <trkpt lat="42.5889350" lon="-2.1373950">
        <ele>497.3</ele>
        <time>2020-03-29T17:41:18Z</time>
      </trkpt>
      <trkpt lat="42.5887950" lon="-2.1374540">
        <ele>497.6</ele>
        <time>2020-03-29T17:41:20Z</time>
      </trkpt>
      <trkpt lat="42.5886590" lon="-2.1375460">
        <ele>498.1</ele>
        <time>2020-03-29T17:41:22Z</time>
      </trkpt>
      <trkpt lat="42.5885660" lon="-2.1376180">
        <ele>498.6</ele>
        <time>2020-03-29T17:41:24Z</time>
      </trkpt>
      <trkpt lat="42.5884770" lon="-2.1376890">
        <ele>499.2</ele>
        <time>2020-03-29T17:41:26Z</time>
      </trkpt>
      <trkpt lat="42.5882810" lon="-2.1378430">
        <ele>500.3</ele>
        <time>2020-03-29T17:41:28Z</time>
      </trkpt>
      <trkpt lat="42.5881990" lon="-2.1379070">
        <ele>500.6</ele>
        <time>2020-03-29T17:41:30Z</time>
      </trkpt>
      <trkpt lat="42.5881220" lon="-2.1379680">
        <ele>500.9</ele>
        <time>2020-03-29T17:41:32Z</time>
      </trkpt>
      <trkpt lat="42.5880480" lon="-2.1380260">
        <ele>501.1</ele>
        <time>2020-03-29T17:41:34Z</time>
      </trkpt>
      <trkpt lat="42.5878680" lon="-2.1381740">
        <ele>501.4</ele>
        <time>2020-03-29T17:41:36Z</time>
      </trkpt>
      <trkpt lat="42.5878050" lon="-2.1382390">
        <ele>501.6</ele>
        <time>2020-03-29T17:41:38Z</time>
      </trkpt>
      <trkpt lat="42.5877430" lon="-2.1383030">
        <ele>501.8</ele>
        <time>2020-03-29T17:41:40Z</time>
      </trkpt>
      <trkpt lat="42.5876830" lon="-2.1383650">
        <ele>502.0</ele>
        <time>2020-03-29T17:41:42Z</time>
      </trkpt>
      <trkpt lat="42.5876240" lon="-2.1384260">
        <ele>502.2</ele>
        <time>2020-03-29T17:41:44Z</time>
      </trkpt>
      <trkpt lat="42.5874610" lon="-2.1385950">
        <ele>502.8</ele>
        <time>2020-03-29T17:41:46Z</time>
      </trkpt>
      <trkpt lat="42.5873980" lon="-2.1386600">
        <ele>503.0</ele>
        <time>2020-03-29T17:41:48Z</time>
      </trkpt>
      <trkpt lat="42.5873320" lon="-2.1387290">
        <ele>503.1</ele>
        <time>2020-03-29T17:41:50Z</time>
      </trkpt>
      <trkpt lat="42.5872630" lon="-2.1388000">
        <ele>503.2</ele>
        <time>2020-03-29T17:41:52Z</time>
      </trkpt>
      <trkpt lat="42.5870880" lon="-2.1389850">
        <ele>503.3</ele>
        <time>2020-03-29T17:41:54Z</time>
      </trkpt>
      <trkpt lat="42.5870280" lon="-2.1390750">
        <ele>503.3</ele>
        <time>2020-03-29T17:41:56Z</time>
      </trkpt>
      <trkpt lat="42.5869660" lon="-2.1391660">
        <ele>503.3</ele>
        <time>2020-03-29T17:41:58Z</time>
      </trkpt>
      <trkpt lat="42.5869050" lon="-2.1392570">
        <ele>503.3</ele>
        <time>2020-03-29T17:42:00Z</time>
      </trkpt>
      <trkpt lat="42.5868430" lon="-2.1393500">
        <ele>503.3</ele>
        <time>2020-03-29T17:42:02Z</time>
      </trkpt>
      <trkpt lat="42.5867810" lon="-2.1394430">
        <ele>503.3</ele>
        <time>2020-03-29T17:42:04Z</time>
      </trkpt>
      <trkpt lat="42.5867190" lon="-2.1395340">
        <ele>503.2</ele>
        <time>2020-03-29T17:42:06Z</time>
      </trkpt>
      <trkpt lat="42.5865040" lon="-2.1398540">
        <ele>502.7</ele>
        <time>2020-03-29T17:42:08Z</time>
      </trkpt>
      <trkpt lat="42.5864390" lon="-2.1399500">
        <ele>502.5</ele>
        <time>2020-03-29T17:42:10Z</time>
      </trkpt>
      <trkpt lat="42.5863720" lon="-2.1400500">
        <ele>502.4</ele>
        <time>2020-03-29T17:42:12Z</time>
      </trkpt>
      <trkpt lat="42.5863030" lon="-2.1401520">
        <ele>502.3</ele>
        <time>2020-03-29T17:42:14Z</time>
      </trkpt>
      <trkpt lat="42.5862310" lon="-2.1402580">
        <ele>502.3</ele>
        <time>2020-03-29T17:42:16Z</time>
      </trkpt>
      <trkpt lat="42.5861580" lon="-2.1403670">
        <ele>502.4</ele>
        <time>2020-03-29T17:42:18Z</time>
      </trkpt>
      <trkpt lat="42.5860830" lon="-2.1404780">
        <ele>502.5</ele>
        <time>2020-03-29T17:42:20Z</time>
      </trkpt>
      <trkpt lat="42.5858540" lon="-2.1408200">
        <ele>503.2</ele>
        <time>2020-03-29T17:42:22Z</time>
      </trkpt>
      <trkpt lat="42.5857760" lon="-2.1409350">
        <ele>503.4</ele>
        <time>2020-03-29T17:42:24Z</time>
      </trkpt>
      <trkpt lat="42.5856970" lon="-2.1410520">
        <ele>503.7</ele>
        <time>2020-03-29T17:42:26Z</time>
      </trkpt>
      <trkpt lat="42.5856190" lon="-2.1411690">
        <ele>504.0</ele>
        <time>2020-03-29T17:42:28Z</time>
      </trkpt>
      <trkpt lat="42.5855380" lon="-2.1412880">
        <ele>504.3</ele>
        <time>2020-03-29T17:42:30Z</time>
      </trkpt>
      <trkpt lat="42.5853050" lon="-2.1416360">
        <ele>505.2</ele>
        <time>2020-03-29T17:42:32Z</time>
      </trkpt>
      <trkpt lat="42.5852270" lon="-2.1417520">
        <ele>505.2</ele>
        <time>2020-03-29T17:42:34Z</time>
      </trkpt>
      <trkpt lat="42.5851520" lon="-2.1418640">
        <ele>505.3</ele>
        <time>2020-03-29T17:42:36Z</time>
      </trkpt>
      <trkpt lat="42.5850780" lon="-2.1419730">
        <ele>505.3</ele>
        <time>2020-03-29T17:42:38Z</time>
      </trkpt>
      <trkpt lat="42.5850070" lon="-2.1420790">
        <ele>505.3</ele>
        <time>2020-03-29T17:42:40Z</time>
      </trkpt>
      <trkpt lat="42.5849380" lon="-2.1421830">
        <ele>505.2</ele>
        <time>2020-03-29T17:42:42Z</time>
      </trkpt>
      <trkpt lat="42.5847170" lon="-2.1425110">
        <ele>504.6</ele>
        <time>2020-03-29T17:42:44Z</time>
      </trkpt>
      <trkpt lat="42.5846510" lon="-2.1426100">
        <ele>504.4</ele>
        <time>2020-03-29T17:42:46Z</time>
      </trkpt>
      <trkpt lat="42.5845350" lon="-2.1427830">
        <ele>504.3</ele>
        <time>2020-03-29T17:42:48Z</time>
      </trkpt>
      <trkpt lat="42.5844460" lon="-2.1429140">
        <ele>504.2</ele>
        <time>2020-03-29T17:42:50Z</time>
      </trkpt>
      <trkpt lat="42.5843510" lon="-2.1430590">
        <ele>503.8</ele>
        <time>2020-03-29T17:42:52Z</time>
      </trkpt>
      <trkpt lat="42.5842880" lon="-2.1431510">
        <ele>503.5</ele>
        <time>2020-03-29T17:42:54Z</time>
      </trkpt>
      <trkpt lat="42.5841810" lon="-2.1433090">
        <ele>503.4</ele>
        <time>2020-03-29T17:42:56Z</time>
      </trkpt>
      <trkpt lat="42.5841200" lon="-2.1434000">
        <ele>503.5</ele>
        <time>2020-03-29T17:42:58Z</time>
      </trkpt>
      <trkpt lat="42.5840580" lon="-2.1434910">
        <ele>503.7</ele>
        <time>2020-03-29T17:43:00Z</time>
      </trkpt>
      <trkpt lat="42.5839970" lon="-2.1435820">
        <ele>503.9</ele>
        <time>2020-03-29T17:43:02Z</time>
      </trkpt>
      <trkpt lat="42.5839360" lon="-2.1436720">
        <ele>504.3</ele>
        <time>2020-03-29T17:43:04Z</time>
      </trkpt>
      <trkpt lat="42.5838760" lon="-2.1437620">
        <ele>504.7</ele>
        <time>2020-03-29T17:43:06Z</time>
      </trkpt>
      <trkpt lat="42.5838140" lon="-2.1438530">
        <ele>505.0</ele>
        <time>2020-03-29T17:43:08Z</time>
      </trkpt>
      <trkpt lat="42.5836000" lon="-2.1441710">
        <ele>506.5</ele>
        <time>2020-03-29T17:43:10Z</time>
      </trkpt>
      <trkpt lat="42.5835390" lon="-2.1442610">
        <ele>507.0</ele>
        <time>2020-03-29T17:43:12Z</time>
      </trkpt>
      <trkpt lat="42.5834790" lon="-2.1443510">
        <ele>507.3</ele>
        <time>2020-03-29T17:43:14Z</time>
      </trkpt>
      <trkpt lat="42.5834180" lon="-2.1444410">
        <ele>507.7</ele>
        <time>2020-03-29T17:43:16Z</time>
      </trkpt>
      <trkpt lat="42.5833570" lon="-2.1445310">
        <ele>508.0</ele>
        <time>2020-03-29T17:43:18Z</time>
      </trkpt>
      <trkpt lat="42.5832960" lon="-2.1446220">
        <ele>508.3</ele>
        <time>2020-03-29T17:43:20Z</time>
      </trkpt>
      <trkpt lat="42.5832350" lon="-2.1447130">
        <ele>508.6</ele>
        <time>2020-03-29T17:43:22Z</time>
      </trkpt>
      <trkpt lat="42.5830210" lon="-2.1450320">
        <ele>508.7</ele>
        <time>2020-03-29T17:43:24Z</time>
      </trkpt>
      <trkpt lat="42.5829550" lon="-2.1451290">
        <ele>508.5</ele>
        <time>2020-03-29T17:43:26Z</time>
      </trkpt>
      <trkpt lat="42.5828810" lon="-2.1452390">
        <ele>508.2</ele>
        <time>2020-03-29T17:43:28Z</time>
      </trkpt>
      <trkpt lat="42.5827990" lon="-2.1453600">
        <ele>507.9</ele>
        <time>2020-03-29T17:43:30Z</time>
      </trkpt>
      <trkpt lat="42.5827110" lon="-2.1454920">
        <ele>507.3</ele>
        <time>2020-03-29T17:43:32Z</time>
      </trkpt>
      <trkpt lat="42.5826160" lon="-2.1456320">
        <ele>506.8</ele>
        <time>2020-03-29T17:43:34Z</time>
      </trkpt>
      <trkpt lat="42.5823510" lon="-2.1460270">
        <ele>505.1</ele>
        <time>2020-03-29T17:43:36Z</time>
      </trkpt>
      <trkpt lat="42.5822470" lon="-2.1461830">
        <ele>504.2</ele>
        <time>2020-03-29T17:43:38Z</time>
      </trkpt>
      <trkpt lat="42.5821380" lon="-2.1463450">
        <ele>503.2</ele>
        <time>2020-03-29T17:43:40Z</time>
      </trkpt>
      <trkpt lat="42.5820250" lon="-2.1465110">
        <ele>502.2</ele>
        <time>2020-03-29T17:43:42Z</time>
      </trkpt>
      <trkpt lat="42.5817690" lon="-2.1468920">
        <ele>500.2</ele>
        <time>2020-03-29T17:43:44Z</time>
      </trkpt>
      <trkpt lat="42.5816520" lon="-2.1470670">
        <ele>499.3</ele>
        <time>2020-03-29T17:43:46Z</time>
      </trkpt>
      <trkpt lat="42.5815330" lon="-2.1472450">
        <ele>498.5</ele>
        <time>2020-03-29T17:43:48Z</time>
      </trkpt>
      <trkpt lat="42.5812600" lon="-2.1476500">
        <ele>495.9</ele>
        <time>2020-03-29T17:43:50Z</time>
      </trkpt>
      <trkpt lat="42.5811380" lon="-2.1478320">
        <ele>495.1</ele>
        <time>2020-03-29T17:43:52Z</time>
      </trkpt>
      <trkpt lat="42.5810160" lon="-2.1480150">
        <ele>494.2</ele>
        <time>2020-03-29T17:43:54Z</time>
      </trkpt>
      <trkpt lat="42.5808920" lon="-2.1481990">
        <ele>493.7</ele>
        <time>2020-03-29T17:43:56Z</time>
      </trkpt>
      <trkpt lat="42.5806150" lon="-2.1486110">
        <ele>493.8</ele>
        <time>2020-03-29T17:43:58Z</time>
      </trkpt>
      <trkpt lat="42.5804940" lon="-2.1487910">
        <ele>494.3</ele>
        <time>2020-03-29T17:44:00Z</time>
      </trkpt>
      <trkpt lat="42.5803750" lon="-2.1489680">
        <ele>494.8</ele>
        <time>2020-03-29T17:44:02Z</time>
      </trkpt>
      <trkpt lat="42.5801050" lon="-2.1493700">
        <ele>494.8</ele>
        <time>2020-03-29T17:44:04Z</time>
      </trkpt>
      <trkpt lat="42.5799880" lon="-2.1495440">
        <ele>494.4</ele>
        <time>2020-03-29T17:44:06Z</time>
      </trkpt>
      <trkpt lat="42.5798720" lon="-2.1497170">
        <ele>493.6</ele>
        <time>2020-03-29T17:44:08Z</time>
      </trkpt>
      <trkpt lat="42.5797570" lon="-2.1498890">
        <ele>492.8</ele>
        <time>2020-03-29T17:44:10Z</time>
      </trkpt>
      <trkpt lat="42.5794890" lon="-2.1502890">
        <ele>490.5</ele>
        <time>2020-03-29T17:44:12Z</time>
      </trkpt>
      <trkpt lat="42.5793790" lon="-2.1504530">
        <ele>489.7</ele>
        <time>2020-03-29T17:44:14Z</time>
      </trkpt>
      <trkpt lat="42.5792770" lon="-2.1506050">
        <ele>489.2</ele>
        <time>2020-03-29T17:44:16Z</time>
      </trkpt>
      <trkpt lat="42.5790690" lon="-2.1509110">
        <ele>488.0</ele>
        <time>2020-03-29T17:44:18Z</time>
      </trkpt>
      <trkpt lat="42.5789440" lon="-2.1511150">
        <ele>487.4</ele>
        <time>2020-03-29T17:44:20Z</time>
      </trkpt>
      <trkpt lat="42.5788990" lon="-2.1513170">
        <ele>487.6</ele>
        <time>2020-03-29T17:44:22Z</time>
      </trkpt>
      <trkpt lat="42.5789060" lon="-2.1515880">
        <ele>488.4</ele>
        <time>2020-03-29T17:44:24Z</time>
      </trkpt>
      <trkpt lat="42.5789390" lon="-2.1517440">
        <ele>488.9</ele>
        <time>2020-03-29T17:44:26Z</time>
      </trkpt>
      <trkpt lat="42.5789700" lon="-2.1518860">
        <ele>489.4</ele>
        <time>2020-03-29T17:44:28Z</time>
      </trkpt>
      <trkpt lat="42.5789970" lon="-2.1520140">
        <ele>489.7</ele>
        <time>2020-03-29T17:44:30Z</time>
      </trkpt>
      <trkpt lat="42.5790370" lon="-2.1523000">
        <ele>490.8</ele>
        <time>2020-03-29T17:44:32Z</time>
      </trkpt>
      <trkpt lat="42.5790260" lon="-2.1524560">
        <ele>491.3</ele>
        <time>2020-03-29T17:44:34Z</time>
      </trkpt>
      <trkpt lat="42.5789820" lon="-2.1525870">
        <ele>491.7</ele>
        <time>2020-03-29T17:44:36Z</time>
      </trkpt>
      <trkpt lat="42.5789170" lon="-2.1526920">
        <ele>492.0</ele>
        <time>2020-03-29T17:44:38Z</time>
      </trkpt>
      <trkpt lat="42.5788690" lon="-2.1527550">
        <ele>492.2</ele>
        <time>2020-03-29T17:44:40Z</time>
      </trkpt>
      <trkpt lat="42.5787910" lon="-2.1528470">
        <ele>492.3</ele>
        <time>2020-03-29T17:44:42Z</time>
      </trkpt>
      <trkpt lat="42.5787450" lon="-2.1528990">
        <ele>492.4</ele>
        <time>2020-03-29T17:44:44Z</time>
      </trkpt>
      <trkpt lat="42.5787000" lon="-2.1529490">
        <ele>492.5</ele>
        <time>2020-03-29T17:44:46Z</time>
      </trkpt>
      <trkpt lat="42.5786560" lon="-2.1529970">
        <ele>492.5</ele>
        <time>2020-03-29T17:44:48Z</time>
      </trkpt>
      <trkpt lat="42.5785430" lon="-2.1531250">
        <ele>492.7</ele>
        <time>2020-03-29T17:44:50Z</time>
      </trkpt>
      <trkpt lat="42.5784910" lon="-2.1531820">
        <ele>492.9</ele>
        <time>2020-03-29T17:44:52Z</time>
      </trkpt>
      <trkpt lat="42.5784340" lon="-2.1532470">
        <ele>493.1</ele>
        <time>2020-03-29T17:44:54Z</time>
      </trkpt>
      <trkpt lat="42.5783720" lon="-2.1533160">
        <ele>493.2</ele>
        <time>2020-03-29T17:44:56Z</time>
      </trkpt>
      <trkpt lat="42.5783060" lon="-2.1533900">
        <ele>493.3</ele>
        <time>2020-03-29T17:44:58Z</time>
      </trkpt>
      <trkpt lat="42.5781380" lon="-2.1535840">
        <ele>493.4</ele>
        <time>2020-03-29T17:45:00Z</time>
      </trkpt>
      <trkpt lat="42.5780670" lon="-2.1536690">
        <ele>493.4</ele>
        <time>2020-03-29T17:45:02Z</time>
      </trkpt>
      <trkpt lat="42.5779930" lon="-2.1537570">
        <ele>493.4</ele>
        <time>2020-03-29T17:45:04Z</time>
      </trkpt>
      <trkpt lat="42.5778250" lon="-2.1539610">
        <ele>493.3</ele>
        <time>2020-03-29T17:45:06Z</time>
      </trkpt>
      <trkpt lat="42.5777440" lon="-2.1540650">
        <ele>493.2</ele>
        <time>2020-03-29T17:45:08Z</time>
      </trkpt>
      <trkpt lat="42.5776540" lon="-2.1541800">
        <ele>492.8</ele>
        <time>2020-03-29T17:45:10Z</time>
      </trkpt>
      <trkpt lat="42.5775560" lon="-2.1543050">
        <ele>492.3</ele>
        <time>2020-03-29T17:45:12Z</time>
      </trkpt>
      <trkpt lat="42.5774510" lon="-2.1544390">
        <ele>491.6</ele>
        <time>2020-03-29T17:45:14Z</time>
      </trkpt>
      <trkpt lat="42.5771910" lon="-2.1547720">
        <ele>489.0</ele>
        <time>2020-03-29T17:45:16Z</time>
      </trkpt>
      <trkpt lat="42.5770350" lon="-2.1549810">
        <ele>487.0</ele>
        <time>2020-03-29T17:45:18Z</time>
      </trkpt>
      <trkpt lat="42.5769120" lon="-2.1551520">
        <ele>485.6</ele>
        <time>2020-03-29T17:45:20Z</time>
      </trkpt>
      <trkpt lat="42.5766810" lon="-2.1554840">
        <ele>483.4</ele>
        <time>2020-03-29T17:45:22Z</time>
      </trkpt>
      <trkpt lat="42.5765030" lon="-2.1557970">
        <ele>481.8</ele>
        <time>2020-03-29T17:45:24Z</time>
      </trkpt>
      <trkpt lat="42.5764060" lon="-2.1561280">
        <ele>480.6</ele>
        <time>2020-03-29T17:45:26Z</time>
      </trkpt>
      <trkpt lat="42.5763530" lon="-2.1564080">
        <ele>480.2</ele>
        <time>2020-03-29T17:45:28Z</time>
      </trkpt>
      <trkpt lat="42.5763010" lon="-2.1566860">
        <ele>479.4</ele>
        <time>2020-03-29T17:45:30Z</time>
      </trkpt>
      <trkpt lat="42.5761910" lon="-2.1572740">
        <ele>477.4</ele>
        <time>2020-03-29T17:45:32Z</time>
      </trkpt>
      <trkpt lat="42.5761400" lon="-2.1575450">
        <ele>476.6</ele>
        <time>2020-03-29T17:45:34Z</time>
      </trkpt>
      <trkpt lat="42.5760890" lon="-2.1578150">
        <ele>475.7</ele>
        <time>2020-03-29T17:45:36Z</time>
      </trkpt>
      <trkpt lat="42.5760400" lon="-2.1580800">
        <ele>474.7</ele>
        <time>2020-03-29T17:45:38Z</time>
      </trkpt>
      <trkpt lat="42.5759310" lon="-2.1586590">
        <ele>472.5</ele>
        <time>2020-03-29T17:45:40Z</time>
      </trkpt>
      <trkpt lat="42.5758810" lon="-2.1589260">
        <ele>472.0</ele>
        <time>2020-03-29T17:45:42Z</time>
      </trkpt>
      <trkpt lat="42.5758310" lon="-2.1591930">
        <ele>471.4</ele>
        <time>2020-03-29T17:45:44Z</time>
      </trkpt>
      <trkpt lat="42.5757240" lon="-2.1597660">
        <ele>470.1</ele>
        <time>2020-03-29T17:45:46Z</time>
      </trkpt>
      <trkpt lat="42.5756770" lon="-2.1600150">
        <ele>469.5</ele>
        <time>2020-03-29T17:45:48Z</time>
      </trkpt>
      <trkpt lat="42.5756330" lon="-2.1602490">
        <ele>469.4</ele>
        <time>2020-03-29T17:45:50Z</time>
      </trkpt>
      <trkpt lat="42.5755330" lon="-2.1607860">
        <ele>468.5</ele>
        <time>2020-03-29T17:45:52Z</time>
      </trkpt>
      <trkpt lat="42.5754920" lon="-2.1610060">
        <ele>467.9</ele>
        <time>2020-03-29T17:45:54Z</time>
      </trkpt>
      <trkpt lat="42.5754520" lon="-2.1612200">
        <ele>467.3</ele>
        <time>2020-03-29T17:45:56Z</time>
      </trkpt>
      <trkpt lat="42.5754120" lon="-2.1614320">
        <ele>466.8</ele>
        <time>2020-03-29T17:45:58Z</time>
      </trkpt>
      <trkpt lat="42.5753140" lon="-2.1619530">
        <ele>465.9</ele>
        <time>2020-03-29T17:46:00Z</time>
      </trkpt>
      <trkpt lat="42.5752750" lon="-2.1621630">
        <ele>465.5</ele>
        <time>2020-03-29T17:46:02Z</time>
      </trkpt>
      <trkpt lat="42.5752360" lon="-2.1623750">
        <ele>465.2</ele>
        <time>2020-03-29T17:46:04Z</time>
      </trkpt>
      <trkpt lat="42.5751960" lon="-2.1625880">
        <ele>464.8</ele>
        <time>2020-03-29T17:46:06Z</time>
      </trkpt>
      <trkpt lat="42.5751560" lon="-2.1627990">
        <ele>464.4</ele>
        <time>2020-03-29T17:46:08Z</time>
      </trkpt>
      <trkpt lat="42.5750470" lon="-2.1633870">
        <ele>463.2</ele>
        <time>2020-03-29T17:46:10Z</time>
      </trkpt>
      <trkpt lat="42.5750070" lon="-2.1636020">
        <ele>462.6</ele>
        <time>2020-03-29T17:46:12Z</time>
      </trkpt>
      <trkpt lat="42.5749430" lon="-2.1639430">
        <ele>462.3</ele>
        <time>2020-03-29T17:46:14Z</time>
      </trkpt>
      <trkpt lat="42.5749040" lon="-2.1641470">
        <ele>462.3</ele>
        <time>2020-03-29T17:46:16Z</time>
      </trkpt>
      <trkpt lat="42.5748440" lon="-2.1644650">
        <ele>462.0</ele>
        <time>2020-03-29T17:46:18Z</time>
      </trkpt>
      <trkpt lat="42.5748090" lon="-2.1646540">
        <ele>461.6</ele>
        <time>2020-03-29T17:46:20Z</time>
      </trkpt>
      <trkpt lat="42.5747750" lon="-2.1648350">
        <ele>461.4</ele>
        <time>2020-03-29T17:46:22Z</time>
      </trkpt>
      <trkpt lat="42.5747420" lon="-2.1650080">
        <ele>461.3</ele>
        <time>2020-03-29T17:46:24Z</time>
      </trkpt>
      <trkpt lat="42.5746520" lon="-2.1654880">
        <ele>461.3</ele>
        <time>2020-03-29T17:46:26Z</time>
      </trkpt>
      <trkpt lat="42.5746210" lon="-2.1656550">
        <ele>461.2</ele>
        <time>2020-03-29T17:46:28Z</time>
      </trkpt>
      <trkpt lat="42.5745890" lon="-2.1658240">
        <ele>461.0</ele>
        <time>2020-03-29T17:46:30Z</time>
      </trkpt>
      <trkpt lat="42.5745560" lon="-2.1659970">
        <ele>460.7</ele>
        <time>2020-03-29T17:46:32Z</time>
      </trkpt>
      <trkpt lat="42.5745230" lon="-2.1661730">
        <ele>460.4</ele>
        <time>2020-03-29T17:46:34Z</time>
      </trkpt>
      <trkpt lat="42.5744310" lon="-2.1666610">
        <ele>460.3</ele>
        <time>2020-03-29T17:46:36Z</time>
      </trkpt>
      <trkpt lat="42.5743980" lon="-2.1668410">
        <ele>460.1</ele>
        <time>2020-03-29T17:46:38Z</time>
      </trkpt>
      <trkpt lat="42.5743450" lon="-2.1671290">
        <ele>459.7</ele>
        <time>2020-03-29T17:46:40Z</time>
      </trkpt>
      <trkpt lat="42.5743120" lon="-2.1673140">
        <ele>459.3</ele>
        <time>2020-03-29T17:46:42Z</time>
      </trkpt>
      <trkpt lat="42.5742790" lon="-2.1675000">
        <ele>458.9</ele>
        <time>2020-03-29T17:46:44Z</time>
      </trkpt>
      <trkpt lat="42.5742040" lon="-2.1678910">
        <ele>458.3</ele>
        <time>2020-03-29T17:46:46Z</time>
      </trkpt>
      <trkpt lat="42.5741550" lon="-2.1680750">
        <ele>457.9</ele>
        <time>2020-03-29T17:46:48Z</time>
      </trkpt>
      <trkpt lat="42.5741060" lon="-2.1682610">
        <ele>457.5</ele>
        <time>2020-03-29T17:46:50Z</time>
      </trkpt>
      <trkpt lat="42.5740000" lon="-2.1686040">
        <ele>456.7</ele>
        <time>2020-03-29T17:46:52Z</time>
      </trkpt>
      <trkpt lat="42.5739360" lon="-2.1687850">
        <ele>456.4</ele>
        <time>2020-03-29T17:46:54Z</time>
      </trkpt>
      <trkpt lat="42.5738070" lon="-2.1691480">
        <ele>456.3</ele>
        <time>2020-03-29T17:46:56Z</time>
      </trkpt>
      <trkpt lat="42.5737260" lon="-2.1693170">
        <ele>456.3</ele>
        <time>2020-03-29T17:46:58Z</time>
      </trkpt>
      <trkpt lat="42.5736500" lon="-2.1694780">
        <ele>456.4</ele>
        <time>2020-03-29T17:47:00Z</time>
      </trkpt>
      <trkpt lat="42.5734900" lon="-2.1698120">
        <ele>456.8</ele>
        <time>2020-03-29T17:47:02Z</time>
      </trkpt>
      <trkpt lat="42.5734010" lon="-2.1699480">
        <ele>457.0</ele>
        <time>2020-03-29T17:47:04Z</time>
      </trkpt>
      <trkpt lat="42.5733150" lon="-2.1700800">
        <ele>457.2</ele>
        <time>2020-03-29T17:47:06Z</time>
      </trkpt>
      <trkpt lat="42.5732320" lon="-2.1702080">
        <ele>457.3</ele>
        <time>2020-03-29T17:47:08Z</time>
      </trkpt>
      <trkpt lat="42.5730350" lon="-2.1705130">
        <ele>457.4</ele>
        <time>2020-03-29T17:47:10Z</time>
      </trkpt>
      <trkpt lat="42.5729630" lon="-2.1706390">
        <ele>457.7</ele>
        <time>2020-03-29T17:47:12Z</time>
      </trkpt>
      <trkpt lat="42.5728940" lon="-2.1707590">
        <ele>458.0</ele>
        <time>2020-03-29T17:47:14Z</time>
      </trkpt>
      <trkpt lat="42.5727540" lon="-2.1709960">
        <ele>458.4</ele>
        <time>2020-03-29T17:47:16Z</time>
      </trkpt>
      <trkpt lat="42.5726860" lon="-2.1711020">
        <ele>458.5</ele>
        <time>2020-03-29T17:47:18Z</time>
      </trkpt>
      <trkpt lat="42.5726210" lon="-2.1712040">
        <ele>458.8</ele>
        <time>2020-03-29T17:47:20Z</time>
      </trkpt>
      <trkpt lat="42.5725570" lon="-2.1713040">
        <ele>459.2</ele>
        <time>2020-03-29T17:47:22Z</time>
      </trkpt>
      <trkpt lat="42.5724070" lon="-2.1715450">
        <ele>460.1</ele>
        <time>2020-03-29T17:47:24Z</time>
      </trkpt>
      <trkpt lat="42.5723560" lon="-2.1716380">
        <ele>460.4</ele>
        <time>2020-03-29T17:47:26Z</time>
      </trkpt>
      <trkpt lat="42.5723080" lon="-2.1717260">
        <ele>460.7</ele>
        <time>2020-03-29T17:47:28Z</time>
      </trkpt>
      <trkpt lat="42.5722610" lon="-2.1718110">
        <ele>460.9</ele>
        <time>2020-03-29T17:47:30Z</time>
      </trkpt>
      <trkpt lat="42.5722160" lon="-2.1718940">
        <ele>461.1</ele>
        <time>2020-03-29T17:47:32Z</time>
      </trkpt>
      <trkpt lat="42.5721720" lon="-2.1719760">
        <ele>461.2</ele>
        <time>2020-03-29T17:47:34Z</time>
      </trkpt>
      <trkpt lat="42.5721280" lon="-2.1720560">
        <ele>461.5</ele>
        <time>2020-03-29T17:47:36Z</time>
      </trkpt>
      <trkpt lat="42.5719720" lon="-2.1723470">
        <ele>462.5</ele>
        <time>2020-03-29T17:47:38Z</time>
      </trkpt>
      <trkpt lat="42.5719320" lon="-2.1724280">
        <ele>462.8</ele>
        <time>2020-03-29T17:47:40Z</time>
      </trkpt>
      <trkpt lat="42.5718920" lon="-2.1725080">
        <ele>463.2</ele>
        <time>2020-03-29T17:47:42Z</time>
      </trkpt>
      <trkpt lat="42.5718530" lon="-2.1725870">
        <ele>463.7</ele>
        <time>2020-03-29T17:47:44Z</time>
      </trkpt>
      <trkpt lat="42.5718130" lon="-2.1726670">
        <ele>464.1</ele>
        <time>2020-03-29T17:47:46Z</time>
      </trkpt>
      <trkpt lat="42.5717000" lon="-2.1728940">
        <ele>465.0</ele>
        <time>2020-03-29T17:47:48Z</time>
      </trkpt>
      <trkpt lat="42.5716610" lon="-2.1729730">
        <ele>465.4</ele>
        <time>2020-03-29T17:47:50Z</time>
      </trkpt>
      <trkpt lat="42.5716220" lon="-2.1730530">
        <ele>465.7</ele>
        <time>2020-03-29T17:47:52Z</time>
      </trkpt>
      <trkpt lat="42.5715830" lon="-2.1731310">
        <ele>466.1</ele>
        <time>2020-03-29T17:47:54Z</time>
      </trkpt>
      <trkpt lat="42.5715440" lon="-2.1732110">
        <ele>466.5</ele>
        <time>2020-03-29T17:47:56Z</time>
      </trkpt>
      <trkpt lat="42.5714390" lon="-2.1734440">
        <ele>467.3</ele>
        <time>2020-03-29T17:47:58Z</time>
      </trkpt>
      <trkpt lat="42.5714230" lon="-2.1735370">
        <ele>467.5</ele>
        <time>2020-03-29T17:48:00Z</time>
      </trkpt>
      <trkpt lat="42.5714080" lon="-2.1736310">
        <ele>467.7</ele>
        <time>2020-03-29T17:48:02Z</time>
      </trkpt>
      <trkpt lat="42.5713920" lon="-2.1737230">
        <ele>467.8</ele>
        <time>2020-03-29T17:48:04Z</time>
      </trkpt>
      <trkpt lat="42.5713760" lon="-2.1738170">
        <ele>467.8</ele>
        <time>2020-03-29T17:48:06Z</time>
      </trkpt>
      <trkpt lat="42.5713600" lon="-2.1739100">
        <ele>467.9</ele>
        <time>2020-03-29T17:48:08Z</time>
      </trkpt>
      <trkpt lat="42.5713450" lon="-2.1740020">
        <ele>468.0</ele>
        <time>2020-03-29T17:48:10Z</time>
      </trkpt>
      <trkpt lat="42.5713290" lon="-2.1740940">
        <ele>468.1</ele>
        <time>2020-03-29T17:48:12Z</time>
      </trkpt>
      <trkpt lat="42.5713140" lon="-2.1741860">
        <ele>468.3</ele>
        <time>2020-03-29T17:48:14Z</time>
      </trkpt>
      <trkpt lat="42.5712480" lon="-2.1745770">
        <ele>468.8</ele>
        <time>2020-03-29T17:48:16Z</time>
      </trkpt>
      <trkpt lat="42.5712300" lon="-2.1746790">
        <ele>468.9</ele>
        <time>2020-03-29T17:48:18Z</time>
      </trkpt>
      <trkpt lat="42.5712110" lon="-2.1747920">
        <ele>469.0</ele>
        <time>2020-03-29T17:48:20Z</time>
      </trkpt>
      <trkpt lat="42.5711910" lon="-2.1749130">
        <ele>469.3</ele>
        <time>2020-03-29T17:48:22Z</time>
      </trkpt>
      <trkpt lat="42.5711690" lon="-2.1750370">
        <ele>469.5</ele>
        <time>2020-03-29T17:48:24Z</time>
      </trkpt>
      <trkpt lat="42.5711470" lon="-2.1751670">
        <ele>469.8</ele>
        <time>2020-03-29T17:48:26Z</time>
      </trkpt>
      <trkpt lat="42.5711250" lon="-2.1753000">
        <ele>470.0</ele>
        <time>2020-03-29T17:48:28Z</time>
      </trkpt>
      <trkpt lat="42.5710510" lon="-2.1757370">
        <ele>470.7</ele>
        <time>2020-03-29T17:48:30Z</time>
      </trkpt>
      <trkpt lat="42.5710280" lon="-2.1758760">
        <ele>471.0</ele>
        <time>2020-03-29T17:48:32Z</time>
      </trkpt>
      <trkpt lat="42.5709860" lon="-2.1761260">
        <ele>471.5</ele>
        <time>2020-03-29T17:48:34Z</time>
      </trkpt>
      <trkpt lat="42.5709620" lon="-2.1762700">
        <ele>471.2</ele>
        <time>2020-03-29T17:48:36Z</time>
      </trkpt>
      <trkpt lat="42.5709380" lon="-2.1764150">
        <ele>470.9</ele>
        <time>2020-03-29T17:48:38Z</time>
      </trkpt>
      <trkpt lat="42.5709130" lon="-2.1765610">
        <ele>470.7</ele>
        <time>2020-03-29T17:48:40Z</time>
      </trkpt>
      <trkpt lat="42.5708560" lon="-2.1769010">
        <ele>470.8</ele>
        <time>2020-03-29T17:48:42Z</time>
      </trkpt>
      <trkpt lat="42.5708310" lon="-2.1770530">
        <ele>470.9</ele>
        <time>2020-03-29T17:48:44Z</time>
      </trkpt>
      <trkpt lat="42.5708050" lon="-2.1772080">
        <ele>470.8</ele>
        <time>2020-03-29T17:48:46Z</time>
      </trkpt>
      <trkpt lat="42.5707790" lon="-2.1773660">
        <ele>470.6</ele>
        <time>2020-03-29T17:48:48Z</time>
      </trkpt>
      <trkpt lat="42.5707520" lon="-2.1775280">
        <ele>470.2</ele>
        <time>2020-03-29T17:48:50Z</time>
      </trkpt>
      <trkpt lat="42.5706750" lon="-2.1779910">
        <ele>469.5</ele>
        <time>2020-03-29T17:48:52Z</time>
      </trkpt>
      <trkpt lat="42.5706480" lon="-2.1781550">
        <ele>469.5</ele>
        <time>2020-03-29T17:48:54Z</time>
      </trkpt>
      <trkpt lat="42.5706200" lon="-2.1783240">
        <ele>469.4</ele>
        <time>2020-03-29T17:48:56Z</time>
      </trkpt>
      <trkpt lat="42.5705920" lon="-2.1784920">
        <ele>469.2</ele>
        <time>2020-03-29T17:48:58Z</time>
      </trkpt>
      <trkpt lat="42.5705640" lon="-2.1786620">
        <ele>468.9</ele>
        <time>2020-03-29T17:49:00Z</time>
      </trkpt>
      <trkpt lat="42.5704860" lon="-2.1791340">
        <ele>468.3</ele>
        <time>2020-03-29T17:49:02Z</time>
      </trkpt>
      <trkpt lat="42.5704570" lon="-2.1793060">
        <ele>468.1</ele>
        <time>2020-03-29T17:49:04Z</time>
      </trkpt>
      <trkpt lat="42.5704280" lon="-2.1794820">
        <ele>467.8</ele>
        <time>2020-03-29T17:49:06Z</time>
      </trkpt>
      <trkpt lat="42.5703980" lon="-2.1796600">
        <ele>467.5</ele>
        <time>2020-03-29T17:49:08Z</time>
      </trkpt>
      <trkpt lat="42.5703690" lon="-2.1798380">
        <ele>467.2</ele>
        <time>2020-03-29T17:49:10Z</time>
      </trkpt>
      <trkpt lat="42.5702890" lon="-2.1803180">
        <ele>466.0</ele>
        <time>2020-03-29T17:49:12Z</time>
      </trkpt>
      <trkpt lat="42.5702590" lon="-2.1804970">
        <ele>465.3</ele>
        <time>2020-03-29T17:49:14Z</time>
      </trkpt>
      <trkpt lat="42.5702300" lon="-2.1806750">
        <ele>464.5</ele>
        <time>2020-03-29T17:49:16Z</time>
      </trkpt>
      <trkpt lat="42.5702000" lon="-2.1808520">
        <ele>463.8</ele>
        <time>2020-03-29T17:49:18Z</time>
      </trkpt>
      <trkpt lat="42.5701710" lon="-2.1810310">
        <ele>463.6</ele>
        <time>2020-03-29T17:49:20Z</time>
      </trkpt>
      <trkpt lat="42.5700910" lon="-2.1815090">
        <ele>464.2</ele>
        <time>2020-03-29T17:49:22Z</time>
      </trkpt>
      <trkpt lat="42.5700610" lon="-2.1816900">
        <ele>464.0</ele>
        <time>2020-03-29T17:49:24Z</time>
      </trkpt>
      <trkpt lat="42.5700310" lon="-2.1818730">
        <ele>463.5</ele>
        <time>2020-03-29T17:49:26Z</time>
      </trkpt>
      <trkpt lat="42.5700000" lon="-2.1820570">
        <ele>463.2</ele>
        <time>2020-03-29T17:49:28Z</time>
      </trkpt>
      <trkpt lat="42.5699200" lon="-2.1825430">
        <ele>463.9</ele>
        <time>2020-03-29T17:49:30Z</time>
      </trkpt>
      <trkpt lat="42.5698840" lon="-2.1827600">
        <ele>464.2</ele>
        <time>2020-03-29T17:49:32Z</time>
      </trkpt>
      <trkpt lat="42.5698530" lon="-2.1829490">
        <ele>464.2</ele>
        <time>2020-03-29T17:49:34Z</time>
      </trkpt>
      <trkpt lat="42.5698220" lon="-2.1831380">
        <ele>464.2</ele>
        <time>2020-03-29T17:49:36Z</time>
      </trkpt>
      <trkpt lat="42.5697900" lon="-2.1833290">
        <ele>464.2</ele>
        <time>2020-03-29T17:49:38Z</time>
      </trkpt>
      <trkpt lat="42.5697130" lon="-2.1837890">
        <ele>463.9</ele>
        <time>2020-03-29T17:49:40Z</time>
      </trkpt>
      <trkpt lat="42.5696830" lon="-2.1839740">
        <ele>463.6</ele>
        <time>2020-03-29T17:49:42Z</time>
      </trkpt>
      <trkpt lat="42.5696530" lon="-2.1841560">
        <ele>463.2</ele>
        <time>2020-03-29T17:49:44Z</time>
      </trkpt>
      <trkpt lat="42.5696230" lon="-2.1843330">
        <ele>463.1</ele>
        <time>2020-03-29T17:49:46Z</time>
      </trkpt>
      <trkpt lat="42.5695440" lon="-2.1848070">
        <ele>463.0</ele>
        <time>2020-03-29T17:49:48Z</time>
      </trkpt>
      <trkpt lat="42.5695160" lon="-2.1849770">
        <ele>462.9</ele>
        <time>2020-03-29T17:49:50Z</time>
      </trkpt>
      <trkpt lat="42.5694880" lon="-2.1851460">
        <ele>462.9</ele>
        <time>2020-03-29T17:49:52Z</time>
      </trkpt>
      <trkpt lat="42.5694610" lon="-2.1853110">
        <ele>463.0</ele>
        <time>2020-03-29T17:49:54Z</time>
      </trkpt>
      <trkpt lat="42.5694340" lon="-2.1854740">
        <ele>463.0</ele>
        <time>2020-03-29T17:49:56Z</time>
      </trkpt>
      <trkpt lat="42.5693570" lon="-2.1859350">
        <ele>462.9</ele>
        <time>2020-03-29T17:49:58Z</time>
      </trkpt>
      <trkpt lat="42.5693310" lon="-2.1860930">
        <ele>462.9</ele>
        <time>2020-03-29T17:50:00Z</time>
      </trkpt>
      <trkpt lat="42.5693050" lon="-2.1862510">
        <ele>462.9</ele>
        <time>2020-03-29T17:50:02Z</time>
      </trkpt>
      <trkpt lat="42.5692790" lon="-2.1864040">
        <ele>463.2</ele>
        <time>2020-03-29T17:50:04Z</time>
      </trkpt>
      <trkpt lat="42.5692540" lon="-2.1865570">
        <ele>463.3</ele>
        <time>2020-03-29T17:50:06Z</time>
      </trkpt>
      <trkpt lat="42.5692290" lon="-2.1867080">
        <ele>463.4</ele>
        <time>2020-03-29T17:50:08Z</time>
      </trkpt>
      <trkpt lat="42.5691550" lon="-2.1871570">
        <ele>462.8</ele>
        <time>2020-03-29T17:50:10Z</time>
      </trkpt>
      <trkpt lat="42.5691210" lon="-2.1873600">
        <ele>462.1</ele>
        <time>2020-03-29T17:50:12Z</time>
      </trkpt>
      <trkpt lat="42.5690940" lon="-2.1875230">
        <ele>461.5</ele>
        <time>2020-03-29T17:50:14Z</time>
      </trkpt>
      <trkpt lat="42.5690650" lon="-2.1876980">
        <ele>460.7</ele>
        <time>2020-03-29T17:50:16Z</time>
      </trkpt>
      <trkpt lat="42.5690330" lon="-2.1878860">
        <ele>460.1</ele>
        <time>2020-03-29T17:50:18Z</time>
      </trkpt>
      <trkpt lat="42.5689580" lon="-2.1883320">
        <ele>458.8</ele>
        <time>2020-03-29T17:50:20Z</time>
      </trkpt>
      <trkpt lat="42.5689230" lon="-2.1885400">
        <ele>458.0</ele>
        <time>2020-03-29T17:50:22Z</time>
      </trkpt>
      <trkpt lat="42.5688870" lon="-2.1887550">
        <ele>457.3</ele>
        <time>2020-03-29T17:50:24Z</time>
      </trkpt>
      <trkpt lat="42.5688190" lon="-2.1891930">
        <ele>455.3</ele>
        <time>2020-03-29T17:50:26Z</time>
      </trkpt>
      <trkpt lat="42.5687680" lon="-2.1895140">
        <ele>454.1</ele>
        <time>2020-03-29T17:50:28Z</time>
      </trkpt>
      <trkpt lat="42.5687250" lon="-2.1897540">
        <ele>453.5</ele>
        <time>2020-03-29T17:50:30Z</time>
      </trkpt>
      <trkpt lat="42.5686800" lon="-2.1900020">
        <ele>453.0</ele>
        <time>2020-03-29T17:50:32Z</time>
      </trkpt>
      <trkpt lat="42.5685800" lon="-2.1905460">
        <ele>451.5</ele>
        <time>2020-03-29T17:50:34Z</time>
      </trkpt>
      <trkpt lat="42.5685340" lon="-2.1907890">
        <ele>450.8</ele>
        <time>2020-03-29T17:50:36Z</time>
      </trkpt>
      <trkpt lat="42.5684590" lon="-2.1911850">
        <ele>449.9</ele>
        <time>2020-03-29T17:50:38Z</time>
      </trkpt>
      <trkpt lat="42.5684190" lon="-2.1914110">
        <ele>449.2</ele>
        <time>2020-03-29T17:50:40Z</time>
      </trkpt>
      <trkpt lat="42.5683560" lon="-2.1917750">
        <ele>448.3</ele>
        <time>2020-03-29T17:50:42Z</time>
      </trkpt>
      <trkpt lat="42.5683000" lon="-2.1921030">
        <ele>447.5</ele>
        <time>2020-03-29T17:50:44Z</time>
      </trkpt>
      <trkpt lat="42.5682640" lon="-2.1923170">
        <ele>446.8</ele>
        <time>2020-03-29T17:50:46Z</time>
      </trkpt>
      <trkpt lat="42.5682280" lon="-2.1926730">
        <ele>445.6</ele>
        <time>2020-03-29T17:50:48Z</time>
      </trkpt>
      <trkpt lat="42.5684090" lon="-2.1928160">
        <ele>445.9</ele>
        <time>2020-03-29T17:50:50Z</time>
      </trkpt>
      <trkpt lat="42.5685510" lon="-2.1928990">
        <ele>446.3</ele>
        <time>2020-03-29T17:50:52Z</time>
      </trkpt>
      <trkpt lat="42.5686880" lon="-2.1929780">
        <ele>447.0</ele>
        <time>2020-03-29T17:50:54Z</time>
      </trkpt>
      <trkpt lat="42.5689390" lon="-2.1931630">
        <ele>448.2</ele>
        <time>2020-03-29T17:50:56Z</time>
      </trkpt>
      <trkpt lat="42.5688900" lon="-2.1933980">
        <ele>447.6</ele>
        <time>2020-03-29T17:50:58Z</time>
      </trkpt>
      <trkpt lat="42.5688250" lon="-2.1936010">
        <ele>447.7</ele>
        <time>2020-03-29T17:51:00Z</time>
      </trkpt>
      <trkpt lat="42.5687400" lon="-2.1938590">
        <ele>447.9</ele>
        <time>2020-03-29T17:51:02Z</time>
      </trkpt>
      <trkpt lat="42.5686720" lon="-2.1940710">
        <ele>447.9</ele>
        <time>2020-03-29T17:51:04Z</time>
      </trkpt>
      <trkpt lat="42.5686230" lon="-2.1942250">
        <ele>447.8</ele>
        <time>2020-03-29T17:51:06Z</time>
      </trkpt>
      <trkpt lat="42.5685530" lon="-2.1944680">
        <ele>447.8</ele>
        <time>2020-03-29T17:51:08Z</time>
      </trkpt>
      <trkpt lat="42.5685000" lon="-2.1946900">
        <ele>447.8</ele>
        <time>2020-03-29T17:51:10Z</time>
      </trkpt>
      <trkpt lat="42.5684670" lon="-2.1948290">
        <ele>447.9</ele>
        <time>2020-03-29T17:51:12Z</time>
      </trkpt>
      <trkpt lat="42.5684350" lon="-2.1949620">
        <ele>447.9</ele>
        <time>2020-03-29T17:51:14Z</time>
      </trkpt>
      <trkpt lat="42.5683720" lon="-2.1952220">
        <ele>448.1</ele>
        <time>2020-03-29T17:51:16Z</time>
      </trkpt>
      <trkpt lat="42.5683440" lon="-2.1953410">
        <ele>448.2</ele>
        <time>2020-03-29T17:51:18Z</time>
      </trkpt>
      <trkpt lat="42.5683180" lon="-2.1954490">
        <ele>448.3</ele>
        <time>2020-03-29T17:51:20Z</time>
      </trkpt>
      <trkpt lat="42.5682940" lon="-2.1955510">
        <ele>448.7</ele>
        <time>2020-03-29T17:51:22Z</time>
      </trkpt>
      <trkpt lat="42.5682710" lon="-2.1956460">
        <ele>449.0</ele>
        <time>2020-03-29T17:51:24Z</time>
      </trkpt>
      <trkpt lat="42.5682500" lon="-2.1957360">
        <ele>449.3</ele>
        <time>2020-03-29T17:51:26Z</time>
      </trkpt>
      <trkpt lat="42.5681770" lon="-2.1960270">
        <ele>450.8</ele>
        <time>2020-03-29T17:51:28Z</time>
      </trkpt>
      <trkpt lat="42.5681540" lon="-2.1961070">
        <ele>451.2</ele>
        <time>2020-03-29T17:51:30Z</time>
      </trkpt>
      <trkpt lat="42.5681320" lon="-2.1961850">
        <ele>451.6</ele>
        <time>2020-03-29T17:51:32Z</time>
      </trkpt>
      <trkpt lat="42.5681100" lon="-2.1962590">
        <ele>451.9</ele>
        <time>2020-03-29T17:51:34Z</time>
      </trkpt>
      <trkpt lat="42.5680900" lon="-2.1963320">
        <ele>452.3</ele>
        <time>2020-03-29T17:51:36Z</time>
      </trkpt>
      <trkpt lat="42.5680690" lon="-2.1964020">
        <ele>452.6</ele>
        <time>2020-03-29T17:51:38Z</time>
      </trkpt>
      <trkpt lat="42.5680490" lon="-2.1964720">
        <ele>453.0</ele>
        <time>2020-03-29T17:51:40Z</time>
      </trkpt>
      <trkpt lat="42.5680290" lon="-2.1965420">
        <ele>453.3</ele>
        <time>2020-03-29T17:51:42Z</time>
      </trkpt>
      <trkpt lat="42.5680090" lon="-2.1966110">
        <ele>453.6</ele>
        <time>2020-03-29T17:51:44Z</time>
      </trkpt>
      <trkpt lat="42.5679900" lon="-2.1966800">
        <ele>453.9</ele>
        <time>2020-03-29T17:51:46Z</time>
      </trkpt>
      <trkpt lat="42.5678960" lon="-2.1970060">
        <ele>455.2</ele>
        <time>2020-03-29T17:51:48Z</time>
      </trkpt>
      <trkpt lat="42.5678780" lon="-2.1970700">
        <ele>455.5</ele>
        <time>2020-03-29T17:51:50Z</time>
      </trkpt>
      <trkpt lat="42.5678600" lon="-2.1971330">
        <ele>455.7</ele>
        <time>2020-03-29T17:51:52Z</time>
      </trkpt>
      <trkpt lat="42.5678430" lon="-2.1971950">
        <ele>455.9</ele>
        <time>2020-03-29T17:51:54Z</time>
      </trkpt>
      <trkpt lat="42.5678250" lon="-2.1972560">
        <ele>456.1</ele>
        <time>2020-03-29T17:51:56Z</time>
      </trkpt>
      <trkpt lat="42.5678080" lon="-2.1973180">
        <ele>456.3</ele>
        <time>2020-03-29T17:51:58Z</time>
      </trkpt>
      <trkpt lat="42.5677470" lon="-2.1975300">
        <ele>457.5</ele>
        <time>2020-03-29T17:52:00Z</time>
      </trkpt>
      <trkpt lat="42.5677290" lon="-2.1975900">
        <ele>457.8</ele>
        <time>2020-03-29T17:52:02Z</time>
      </trkpt>
      <trkpt lat="42.5677120" lon="-2.1976490">
        <ele>458.1</ele>
        <time>2020-03-29T17:52:04Z</time>
      </trkpt>
      <trkpt lat="42.5676950" lon="-2.1977080">
        <ele>458.4</ele>
        <time>2020-03-29T17:52:06Z</time>
      </trkpt>
      <trkpt lat="42.5676780" lon="-2.1977670">
        <ele>458.7</ele>
        <time>2020-03-29T17:52:08Z</time>
      </trkpt>
      <trkpt lat="42.5676250" lon="-2.1979260">
        <ele>459.6</ele>
        <time>2020-03-29T17:52:10Z</time>
      </trkpt>
      <trkpt lat="42.5675720" lon="-2.1979840">
        <ele>460.2</ele>
        <time>2020-03-29T17:52:12Z</time>
      </trkpt>
      <trkpt lat="42.5675310" lon="-2.1980460">
        <ele>461.0</ele>
        <time>2020-03-29T17:52:14Z</time>
      </trkpt>
      <trkpt lat="42.5675120" lon="-2.1981110">
        <ele>461.6</ele>
        <time>2020-03-29T17:52:16Z</time>
      </trkpt>
      <trkpt lat="42.5674950" lon="-2.1981710">
        <ele>462.1</ele>
        <time>2020-03-29T17:52:18Z</time>
      </trkpt>
      <trkpt lat="42.5674600" lon="-2.1982880">
        <ele>463.1</ele>
        <time>2020-03-29T17:52:20Z</time>
      </trkpt>
      <trkpt lat="42.5674360" lon="-2.1983590">
        <ele>463.4</ele>
        <time>2020-03-29T17:52:22Z</time>
      </trkpt>
      <trkpt lat="42.5674060" lon="-2.1984450">
        <ele>463.8</ele>
        <time>2020-03-29T17:52:24Z</time>
      </trkpt>
      <trkpt lat="42.5673730" lon="-2.1985420">
        <ele>464.1</ele>
        <time>2020-03-29T17:52:26Z</time>
      </trkpt>
      <trkpt lat="42.5673380" lon="-2.1986430">
        <ele>464.4</ele>
        <time>2020-03-29T17:52:28Z</time>
      </trkpt>
      <trkpt lat="42.5672530" lon="-2.1989030">
        <ele>464.3</ele>
        <time>2020-03-29T17:52:30Z</time>
      </trkpt>
      <trkpt lat="42.5672210" lon="-2.1990580">
        <ele>464.3</ele>
        <time>2020-03-29T17:52:32Z</time>
      </trkpt>
      <trkpt lat="42.5672070" lon="-2.1991760">
        <ele>464.3</ele>
        <time>2020-03-29T17:52:34Z</time>
      </trkpt>
      <trkpt lat="42.5671930" lon="-2.1992950">
        <ele>464.4</ele>
        <time>2020-03-29T17:52:36Z</time>
      </trkpt>
      <trkpt lat="42.5671790" lon="-2.1994160">
        <ele>464.6</ele>
        <time>2020-03-29T17:52:38Z</time>
      </trkpt>
      <trkpt lat="42.5671570" lon="-2.1996850">
        <ele>465.2</ele>
        <time>2020-03-29T17:52:40Z</time>
      </trkpt>
      <trkpt lat="42.5671520" lon="-2.1998790">
        <ele>465.6</ele>
        <time>2020-03-29T17:52:42Z</time>
      </trkpt>
      <trkpt lat="42.5671490" lon="-2.1999990">
        <ele>465.8</ele>
        <time>2020-03-29T17:52:44Z</time>
      </trkpt>
      <trkpt lat="42.5671420" lon="-2.2001800">
        <ele>466.1</ele>
        <time>2020-03-29T17:52:46Z</time>
      </trkpt>
      <trkpt lat="42.5671310" lon="-2.2003640">
        <ele>466.1</ele>
        <time>2020-03-29T17:52:48Z</time>
      </trkpt>
      <trkpt lat="42.5671180" lon="-2.2004830">
        <ele>466.2</ele>
        <time>2020-03-29T17:52:50Z</time>
      </trkpt>
      <trkpt lat="42.5671050" lon="-2.2005930">
        <ele>466.3</ele>
        <time>2020-03-29T17:52:52Z</time>
      </trkpt>
      <trkpt lat="42.5670810" lon="-2.2008100">
        <ele>466.8</ele>
        <time>2020-03-29T17:52:54Z</time>
      </trkpt>
      <trkpt lat="42.5670660" lon="-2.2009150">
        <ele>467.3</ele>
        <time>2020-03-29T17:52:56Z</time>
      </trkpt>
      <trkpt lat="42.5670510" lon="-2.2010190">
        <ele>467.9</ele>
        <time>2020-03-29T17:52:58Z</time>
      </trkpt>
      <trkpt lat="42.5670210" lon="-2.2012120">
        <ele>468.7</ele>
        <time>2020-03-29T17:53:00Z</time>
      </trkpt>
      <trkpt lat="42.5670020" lon="-2.2013290">
        <ele>468.9</ele>
        <time>2020-03-29T17:53:02Z</time>
      </trkpt>
      <trkpt lat="42.5669820" lon="-2.2014540">
        <ele>468.9</ele>
        <time>2020-03-29T17:53:04Z</time>
      </trkpt>
      <trkpt lat="42.5669370" lon="-2.2017320">
        <ele>468.8</ele>
        <time>2020-03-29T17:53:06Z</time>
      </trkpt>
      <trkpt lat="42.5669140" lon="-2.2018710">
        <ele>468.6</ele>
        <time>2020-03-29T17:53:08Z</time>
      </trkpt>
      <trkpt lat="42.5668910" lon="-2.2020160">
        <ele>468.3</ele>
        <time>2020-03-29T17:53:10Z</time>
      </trkpt>
      <trkpt lat="42.5668670" lon="-2.2021660">
        <ele>467.8</ele>
        <time>2020-03-29T17:53:12Z</time>
      </trkpt>
      <trkpt lat="42.5667920" lon="-2.2025440">
        <ele>466.8</ele>
        <time>2020-03-29T17:53:14Z</time>
      </trkpt>
      <trkpt lat="42.5667330" lon="-2.2027360">
        <ele>466.0</ele>
        <time>2020-03-29T17:53:16Z</time>
      </trkpt>
      <trkpt lat="42.5666970" lon="-2.2028990">
        <ele>466.0</ele>
        <time>2020-03-29T17:53:18Z</time>
      </trkpt>
      <trkpt lat="42.5666280" lon="-2.2032050">
        <ele>466.1</ele>
        <time>2020-03-29T17:53:20Z</time>
      </trkpt>
      <trkpt lat="42.5666010" lon="-2.2033890">
        <ele>466.0</ele>
        <time>2020-03-29T17:53:22Z</time>
      </trkpt>
      <trkpt lat="42.5665730" lon="-2.2036890">
        <ele>465.8</ele>
        <time>2020-03-29T17:53:24Z</time>
      </trkpt>
      <trkpt lat="42.5665640" lon="-2.2038750">
        <ele>465.5</ele>
        <time>2020-03-29T17:53:26Z</time>
      </trkpt>
      <trkpt lat="42.5665560" lon="-2.2040640">
        <ele>465.0</ele>
        <time>2020-03-29T17:53:28Z</time>
      </trkpt>
      <trkpt lat="42.5665360" lon="-2.2044510">
        <ele>463.9</ele>
        <time>2020-03-29T17:53:30Z</time>
      </trkpt>
      <trkpt lat="42.5665250" lon="-2.2046410">
        <ele>463.5</ele>
        <time>2020-03-29T17:53:32Z</time>
      </trkpt>
      <trkpt lat="42.5665140" lon="-2.2048330">
        <ele>463.0</ele>
        <time>2020-03-29T17:53:34Z</time>
      </trkpt>
      <trkpt lat="42.5665030" lon="-2.2050270">
        <ele>462.8</ele>
        <time>2020-03-29T17:53:36Z</time>
      </trkpt>
      <trkpt lat="42.5664700" lon="-2.2054590">
        <ele>462.8</ele>
        <time>2020-03-29T17:53:38Z</time>
      </trkpt>
      <trkpt lat="42.5664340" lon="-2.2057410">
        <ele>462.7</ele>
        <time>2020-03-29T17:53:40Z</time>
      </trkpt>
      <trkpt lat="42.5663970" lon="-2.2059710">
        <ele>462.7</ele>
        <time>2020-03-29T17:53:42Z</time>
      </trkpt>
      <trkpt lat="42.5663730" lon="-2.2061460">
        <ele>462.5</ele>
        <time>2020-03-29T17:53:44Z</time>
      </trkpt>
      <trkpt lat="42.5663490" lon="-2.2063170">
        <ele>462.3</ele>
        <time>2020-03-29T17:53:46Z</time>
      </trkpt>
      <trkpt lat="42.5662980" lon="-2.2066680">
        <ele>462.4</ele>
        <time>2020-03-29T17:53:48Z</time>
      </trkpt>
      <trkpt lat="42.5662670" lon="-2.2068670">
        <ele>462.6</ele>
        <time>2020-03-29T17:53:50Z</time>
      </trkpt>
      <trkpt lat="42.5662410" lon="-2.2070270">
        <ele>462.7</ele>
        <time>2020-03-29T17:53:52Z</time>
      </trkpt>
      <trkpt lat="42.5662170" lon="-2.2071850">
        <ele>462.8</ele>
        <time>2020-03-29T17:53:54Z</time>
      </trkpt>
      <trkpt lat="42.5661600" lon="-2.2075490">
        <ele>463.3</ele>
        <time>2020-03-29T17:53:56Z</time>
      </trkpt>
      <trkpt lat="42.5661420" lon="-2.2076990">
        <ele>463.5</ele>
        <time>2020-03-29T17:53:58Z</time>
      </trkpt>
      <trkpt lat="42.5661140" lon="-2.2079370">
        <ele>463.7</ele>
        <time>2020-03-29T17:54:00Z</time>
      </trkpt>
      <trkpt lat="42.5660920" lon="-2.2081650">
        <ele>463.9</ele>
        <time>2020-03-29T17:54:02Z</time>
      </trkpt>
      <trkpt lat="42.5660830" lon="-2.2083110">
        <ele>464.0</ele>
        <time>2020-03-29T17:54:04Z</time>
      </trkpt>
      <trkpt lat="42.5660760" lon="-2.2084530">
        <ele>464.1</ele>
        <time>2020-03-29T17:54:06Z</time>
      </trkpt>
      <trkpt lat="42.5660690" lon="-2.2085930">
        <ele>464.2</ele>
        <time>2020-03-29T17:54:08Z</time>
      </trkpt>
      <trkpt lat="42.5660610" lon="-2.2087300">
        <ele>464.2</ele>
        <time>2020-03-29T17:54:10Z</time>
      </trkpt>
      <trkpt lat="42.5660540" lon="-2.2088670">
        <ele>464.2</ele>
        <time>2020-03-29T17:54:12Z</time>
      </trkpt>
      <trkpt lat="42.5660470" lon="-2.2090020">
        <ele>464.2</ele>
        <time>2020-03-29T17:54:14Z</time>
      </trkpt>
      <trkpt lat="42.5660220" lon="-2.2094680">
        <ele>464.4</ele>
        <time>2020-03-29T17:54:16Z</time>
      </trkpt>
      <trkpt lat="42.5660140" lon="-2.2096040">
        <ele>464.4</ele>
        <time>2020-03-29T17:54:18Z</time>
      </trkpt>
      <trkpt lat="42.5660060" lon="-2.2097410">
        <ele>464.4</ele>
        <time>2020-03-29T17:54:20Z</time>
      </trkpt>
      <trkpt lat="42.5659970" lon="-2.2098820">
        <ele>464.5</ele>
        <time>2020-03-29T17:54:22Z</time>
      </trkpt>
      <trkpt lat="42.5659890" lon="-2.2100250">
        <ele>464.5</ele>
        <time>2020-03-29T17:54:24Z</time>
      </trkpt>
      <trkpt lat="42.5659800" lon="-2.2101700">
        <ele>464.6</ele>
        <time>2020-03-29T17:54:26Z</time>
      </trkpt>
      <trkpt lat="42.5659550" lon="-2.2105870">
        <ele>464.7</ele>
        <time>2020-03-29T17:54:28Z</time>
      </trkpt>
      <trkpt lat="42.5659460" lon="-2.2107340">
        <ele>464.7</ele>
        <time>2020-03-29T17:54:30Z</time>
      </trkpt>
      <trkpt lat="42.5659280" lon="-2.2110240">
        <ele>464.8</ele>
        <time>2020-03-29T17:54:32Z</time>
      </trkpt>
      <trkpt lat="42.5659180" lon="-2.2111740">
        <ele>464.9</ele>
        <time>2020-03-29T17:54:34Z</time>
      </trkpt>
      <trkpt lat="42.5659090" lon="-2.2113230">
        <ele>465.0</ele>
        <time>2020-03-29T17:54:36Z</time>
      </trkpt>
      <trkpt lat="42.5658880" lon="-2.2116320">
        <ele>465.3</ele>
        <time>2020-03-29T17:54:38Z</time>
      </trkpt>
      <trkpt lat="42.5658780" lon="-2.2117810">
        <ele>465.4</ele>
        <time>2020-03-29T17:54:40Z</time>
      </trkpt>
      <trkpt lat="42.5658690" lon="-2.2119310">
        <ele>465.4</ele>
        <time>2020-03-29T17:54:42Z</time>
      </trkpt>
      <trkpt lat="42.5658590" lon="-2.2120800">
        <ele>465.3</ele>
        <time>2020-03-29T17:54:44Z</time>
      </trkpt>
      <trkpt lat="42.5658490" lon="-2.2122280">
        <ele>465.2</ele>
        <time>2020-03-29T17:54:46Z</time>
      </trkpt>
      <trkpt lat="42.5658250" lon="-2.2126160">
        <ele>465.5</ele>
        <time>2020-03-29T17:54:48Z</time>
      </trkpt>
      <trkpt lat="42.5658130" lon="-2.2128250">
        <ele>465.4</ele>
        <time>2020-03-29T17:54:50Z</time>
      </trkpt>
      <trkpt lat="42.5658040" lon="-2.2129760">
        <ele>465.2</ele>
        <time>2020-03-29T17:54:52Z</time>
      </trkpt>
      <trkpt lat="42.5657960" lon="-2.2131280">
        <ele>465.0</ele>
        <time>2020-03-29T17:54:54Z</time>
      </trkpt>
      <trkpt lat="42.5657870" lon="-2.2132820">
        <ele>464.8</ele>
        <time>2020-03-29T17:54:56Z</time>
      </trkpt>
      <trkpt lat="42.5657790" lon="-2.2134350">
        <ele>464.6</ele>
        <time>2020-03-29T17:54:58Z</time>
      </trkpt>
      <trkpt lat="42.5657520" lon="-2.2138910">
        <ele>464.1</ele>
        <time>2020-03-29T17:55:00Z</time>
      </trkpt>
      <trkpt lat="42.5657410" lon="-2.2140470">
        <ele>464.0</ele>
        <time>2020-03-29T17:55:02Z</time>
      </trkpt>
      <trkpt lat="42.5657290" lon="-2.2142050">
        <ele>464.0</ele>
        <time>2020-03-29T17:55:04Z</time>
      </trkpt>
      <trkpt lat="42.5657180" lon="-2.2143640">
        <ele>464.0</ele>
        <time>2020-03-29T17:55:06Z</time>
      </trkpt>
      <trkpt lat="42.5657060" lon="-2.2145250">
        <ele>464.1</ele>
        <time>2020-03-29T17:55:08Z</time>
      </trkpt>
      <trkpt lat="42.5656700" lon="-2.2149660">
        <ele>464.4</ele>
        <time>2020-03-29T17:55:10Z</time>
      </trkpt>
      <trkpt lat="42.5656530" lon="-2.2151270">
        <ele>464.5</ele>
        <time>2020-03-29T17:55:12Z</time>
      </trkpt>
      <trkpt lat="42.5656350" lon="-2.2152900">
        <ele>464.6</ele>
        <time>2020-03-29T17:55:14Z</time>
      </trkpt>
      <trkpt lat="42.5656170" lon="-2.2154550">
        <ele>464.7</ele>
        <time>2020-03-29T17:55:16Z</time>
      </trkpt>
      <trkpt lat="42.5655730" lon="-2.2158610">
        <ele>465.1</ele>
        <time>2020-03-29T17:55:18Z</time>
      </trkpt>
      <trkpt lat="42.5655520" lon="-2.2160580">
        <ele>465.3</ele>
        <time>2020-03-29T17:55:20Z</time>
      </trkpt>
      <trkpt lat="42.5655340" lon="-2.2162220">
        <ele>465.4</ele>
        <time>2020-03-29T17:55:22Z</time>
      </trkpt>
      <trkpt lat="42.5655170" lon="-2.2163830">
        <ele>465.5</ele>
        <time>2020-03-29T17:55:24Z</time>
      </trkpt>
      <trkpt lat="42.5654780" lon="-2.2167450">
        <ele>465.7</ele>
        <time>2020-03-29T17:55:26Z</time>
      </trkpt>
      <trkpt lat="42.5654650" lon="-2.2169100">
        <ele>465.8</ele>
        <time>2020-03-29T17:55:28Z</time>
      </trkpt>
      <trkpt lat="42.5654540" lon="-2.2170660">
        <ele>465.9</ele>
        <time>2020-03-29T17:55:30Z</time>
      </trkpt>
      <trkpt lat="42.5654410" lon="-2.2172220">
        <ele>466.0</ele>
        <time>2020-03-29T17:55:32Z</time>
      </trkpt>
      <trkpt lat="42.5654300" lon="-2.2173760">
        <ele>466.0</ele>
        <time>2020-03-29T17:55:34Z</time>
      </trkpt>
      <trkpt lat="42.5653990" lon="-2.2177760">
        <ele>465.8</ele>
        <time>2020-03-29T17:55:36Z</time>
      </trkpt>
      <trkpt lat="42.5653840" lon="-2.2179710">
        <ele>465.7</ele>
        <time>2020-03-29T17:55:38Z</time>
      </trkpt>
      <trkpt lat="42.5653730" lon="-2.2181280">
        <ele>465.6</ele>
        <time>2020-03-29T17:55:40Z</time>
      </trkpt>
      <trkpt lat="42.5653620" lon="-2.2182860">
        <ele>465.6</ele>
        <time>2020-03-29T17:55:42Z</time>
      </trkpt>
      <trkpt lat="42.5653500" lon="-2.2184470">
        <ele>465.5</ele>
        <time>2020-03-29T17:55:44Z</time>
      </trkpt>
      <trkpt lat="42.5653390" lon="-2.2186110">
        <ele>465.5</ele>
        <time>2020-03-29T17:55:46Z</time>
      </trkpt>
      <trkpt lat="42.5653060" lon="-2.2190640">
        <ele>465.4</ele>
        <time>2020-03-29T17:55:48Z</time>
      </trkpt>
      <trkpt lat="42.5652950" lon="-2.2192300">
        <ele>465.4</ele>
        <time>2020-03-29T17:55:50Z</time>
      </trkpt>
      <trkpt lat="42.5652740" lon="-2.2195220">
        <ele>465.2</ele>
        <time>2020-03-29T17:55:52Z</time>
      </trkpt>
      <trkpt lat="42.5652620" lon="-2.2196920">
        <ele>465.0</ele>
        <time>2020-03-29T17:55:54Z</time>
      </trkpt>
      <trkpt lat="42.5652500" lon="-2.2198630">
        <ele>464.9</ele>
        <time>2020-03-29T17:55:56Z</time>
      </trkpt>
      <trkpt lat="42.5652260" lon="-2.2201940">
        <ele>464.8</ele>
        <time>2020-03-29T17:55:58Z</time>
      </trkpt>
      <trkpt lat="42.5652150" lon="-2.2203610">
        <ele>464.7</ele>
        <time>2020-03-29T17:56:00Z</time>
      </trkpt>
      <trkpt lat="42.5652030" lon="-2.2205240">
        <ele>464.8</ele>
        <time>2020-03-29T17:56:02Z</time>
      </trkpt>
      <trkpt lat="42.5651920" lon="-2.2206860">
        <ele>464.8</ele>
        <time>2020-03-29T17:56:04Z</time>
      </trkpt>
      <trkpt lat="42.5651600" lon="-2.2211320">
        <ele>465.0</ele>
        <time>2020-03-29T17:56:06Z</time>
      </trkpt>
      <trkpt lat="42.5651490" lon="-2.2212890">
        <ele>465.1</ele>
        <time>2020-03-29T17:56:08Z</time>
      </trkpt>
      <trkpt lat="42.5651330" lon="-2.2215080">
        <ele>465.3</ele>
        <time>2020-03-29T17:56:10Z</time>
      </trkpt>
      <trkpt lat="42.5651220" lon="-2.2216630">
        <ele>465.5</ele>
        <time>2020-03-29T17:56:12Z</time>
      </trkpt>
      <trkpt lat="42.5651110" lon="-2.2218150">
        <ele>465.7</ele>
        <time>2020-03-29T17:56:14Z</time>
      </trkpt>
      <trkpt lat="42.5651000" lon="-2.2219670">
        <ele>466.0</ele>
        <time>2020-03-29T17:56:16Z</time>
      </trkpt>
      <trkpt lat="42.5650720" lon="-2.2223440">
        <ele>466.4</ele>
        <time>2020-03-29T17:56:18Z</time>
      </trkpt>
      <trkpt lat="42.5650610" lon="-2.2224990">
        <ele>466.4</ele>
        <time>2020-03-29T17:56:20Z</time>
      </trkpt>
      <trkpt lat="42.5650500" lon="-2.2226600">
        <ele>466.3</ele>
        <time>2020-03-29T17:56:22Z</time>
      </trkpt>
      <trkpt lat="42.5650380" lon="-2.2228240">
        <ele>466.2</ele>
        <time>2020-03-29T17:56:24Z</time>
      </trkpt>
      <trkpt lat="42.5650260" lon="-2.2229900">
        <ele>466.0</ele>
        <time>2020-03-29T17:56:26Z</time>
      </trkpt>
      <trkpt lat="42.5649870" lon="-2.2234450">
        <ele>465.6</ele>
        <time>2020-03-29T17:56:28Z</time>
      </trkpt>
      <trkpt lat="42.5649560" lon="-2.2236950">
        <ele>465.5</ele>
        <time>2020-03-29T17:56:30Z</time>
      </trkpt>
      <trkpt lat="42.5649300" lon="-2.2238660">
        <ele>465.5</ele>
        <time>2020-03-29T17:56:32Z</time>
      </trkpt>
      <trkpt lat="42.5648840" lon="-2.2241520">
        <ele>465.4</ele>
        <time>2020-03-29T17:56:34Z</time>
      </trkpt>
      <trkpt lat="42.5648540" lon="-2.2243250">
        <ele>465.4</ele>
        <time>2020-03-29T17:56:36Z</time>
      </trkpt>
      <trkpt lat="42.5648240" lon="-2.2245000">
        <ele>465.4</ele>
        <time>2020-03-29T17:56:38Z</time>
      </trkpt>
      <trkpt lat="42.5647930" lon="-2.2246760">
        <ele>465.2</ele>
        <time>2020-03-29T17:56:40Z</time>
      </trkpt>
      <trkpt lat="42.5647620" lon="-2.2248540">
        <ele>465.0</ele>
        <time>2020-03-29T17:56:42Z</time>
      </trkpt>
      <trkpt lat="42.5646780" lon="-2.2253360">
        <ele>464.5</ele>
        <time>2020-03-29T17:56:44Z</time>
      </trkpt>
      <trkpt lat="42.5646470" lon="-2.2255170">
        <ele>464.4</ele>
        <time>2020-03-29T17:56:46Z</time>
      </trkpt>
      <trkpt lat="42.5646150" lon="-2.2256980">
        <ele>464.3</ele>
        <time>2020-03-29T17:56:48Z</time>
      </trkpt>
      <trkpt lat="42.5645830" lon="-2.2258820">
        <ele>464.1</ele>
        <time>2020-03-29T17:56:50Z</time>
      </trkpt>
      <trkpt lat="42.5644980" lon="-2.2263680">
        <ele>463.4</ele>
        <time>2020-03-29T17:56:52Z</time>
      </trkpt>
      <trkpt lat="42.5644660" lon="-2.2265530">
        <ele>463.2</ele>
        <time>2020-03-29T17:56:54Z</time>
      </trkpt>
      <trkpt lat="42.5644340" lon="-2.2267380">
        <ele>462.8</ele>
        <time>2020-03-29T17:56:56Z</time>
      </trkpt>
      <trkpt lat="42.5644010" lon="-2.2269240">
        <ele>462.5</ele>
        <time>2020-03-29T17:56:58Z</time>
      </trkpt>
      <trkpt lat="42.5643690" lon="-2.2271110">
        <ele>462.2</ele>
        <time>2020-03-29T17:57:00Z</time>
      </trkpt>
      <trkpt lat="42.5642840" lon="-2.2275990">
        <ele>461.3</ele>
        <time>2020-03-29T17:57:02Z</time>
      </trkpt>
      <trkpt lat="42.5642520" lon="-2.2277870">
        <ele>460.9</ele>
        <time>2020-03-29T17:57:04Z</time>
      </trkpt>
      <trkpt lat="42.5641900" lon="-2.2281440">
        <ele>460.4</ele>
        <time>2020-03-29T17:57:06Z</time>
      </trkpt>
      <trkpt lat="42.5641560" lon="-2.2283400">
        <ele>460.1</ele>
        <time>2020-03-29T17:57:08Z</time>
      </trkpt>
      <trkpt lat="42.5640990" lon="-2.2286780">
        <ele>459.3</ele>
        <time>2020-03-29T17:57:10Z</time>
      </trkpt>
      <trkpt lat="42.5640630" lon="-2.2288950">
        <ele>458.5</ele>
        <time>2020-03-29T17:57:12Z</time>
      </trkpt>
      <trkpt lat="42.5640250" lon="-2.2291180">
        <ele>457.6</ele>
        <time>2020-03-29T17:57:14Z</time>
      </trkpt>
      <trkpt lat="42.5639860" lon="-2.2293510">
        <ele>456.6</ele>
        <time>2020-03-29T17:57:16Z</time>
      </trkpt>
      <trkpt lat="42.5638950" lon="-2.2298890">
        <ele>454.1</ele>
        <time>2020-03-29T17:57:18Z</time>
      </trkpt>
      <trkpt lat="42.5638570" lon="-2.2301140">
        <ele>452.7</ele>
        <time>2020-03-29T17:57:20Z</time>
      </trkpt>
      <trkpt lat="42.5638210" lon="-2.2303310">
        <ele>451.4</ele>
        <time>2020-03-29T17:57:22Z</time>
      </trkpt>
      <trkpt lat="42.5637860" lon="-2.2305390">
        <ele>450.5</ele>
        <time>2020-03-29T17:57:24Z</time>
      </trkpt>
      <trkpt lat="42.5637020" lon="-2.2310400">
        <ele>449.9</ele>
        <time>2020-03-29T17:57:26Z</time>
      </trkpt>
      <trkpt lat="42.5636540" lon="-2.2313220">
        <ele>451.0</ele>
        <time>2020-03-29T17:57:28Z</time>
      </trkpt>
      <trkpt lat="42.5636200" lon="-2.2315010">
        <ele>451.9</ele>
        <time>2020-03-29T17:57:30Z</time>
      </trkpt>
      <trkpt lat="42.5635880" lon="-2.2316700">
        <ele>452.8</ele>
        <time>2020-03-29T17:57:32Z</time>
      </trkpt>
      <trkpt lat="42.5635580" lon="-2.2318320">
        <ele>453.5</ele>
        <time>2020-03-29T17:57:34Z</time>
      </trkpt>
      <trkpt lat="42.5634920" lon="-2.2321980">
        <ele>455.2</ele>
        <time>2020-03-29T17:57:36Z</time>
      </trkpt>
      <trkpt lat="42.5634650" lon="-2.2323540">
        <ele>455.8</ele>
        <time>2020-03-29T17:57:38Z</time>
      </trkpt>
      <trkpt lat="42.5634400" lon="-2.2325080">
        <ele>456.1</ele>
        <time>2020-03-29T17:57:40Z</time>
      </trkpt>
      <trkpt lat="42.5634140" lon="-2.2326600">
        <ele>456.2</ele>
        <time>2020-03-29T17:57:42Z</time>
      </trkpt>
      <trkpt lat="42.5633890" lon="-2.2328090">
        <ele>456.1</ele>
        <time>2020-03-29T17:57:44Z</time>
      </trkpt>
      <trkpt lat="42.5633120" lon="-2.2332630">
        <ele>455.1</ele>
        <time>2020-03-29T17:57:46Z</time>
      </trkpt>
      <trkpt lat="42.5632850" lon="-2.2334210">
        <ele>454.6</ele>
        <time>2020-03-29T17:57:48Z</time>
      </trkpt>
      <trkpt lat="42.5632570" lon="-2.2335880">
        <ele>454.0</ele>
        <time>2020-03-29T17:57:50Z</time>
      </trkpt>
      <trkpt lat="42.5632280" lon="-2.2337610">
        <ele>453.4</ele>
        <time>2020-03-29T17:57:52Z</time>
      </trkpt>
      <trkpt lat="42.5631980" lon="-2.2339400">
        <ele>452.8</ele>
        <time>2020-03-29T17:57:54Z</time>
      </trkpt>
      <trkpt lat="42.5631140" lon="-2.2344290">
        <ele>451.2</ele>
        <time>2020-03-29T17:57:56Z</time>
      </trkpt>
      <trkpt lat="42.5630760" lon="-2.2346180">
        <ele>450.8</ele>
        <time>2020-03-29T17:57:58Z</time>
      </trkpt>
      <trkpt lat="42.5630370" lon="-2.2348120">
        <ele>450.7</ele>
        <time>2020-03-29T17:58:00Z</time>
      </trkpt>
      <trkpt lat="42.5629630" lon="-2.2351810">
        <ele>450.5</ele>
        <time>2020-03-29T17:58:02Z</time>
      </trkpt>
      <trkpt lat="42.5629280" lon="-2.2353610">
        <ele>450.5</ele>
        <time>2020-03-29T17:58:04Z</time>
      </trkpt>
      <trkpt lat="42.5628660" lon="-2.2356750">
        <ele>450.5</ele>
        <time>2020-03-29T17:58:06Z</time>
      </trkpt>
      <trkpt lat="42.5629980" lon="-2.2357690">
        <ele>450.9</ele>
        <time>2020-03-29T17:58:08Z</time>
      </trkpt>
      <trkpt lat="42.5630340" lon="-2.2359260">
        <ele>451.3</ele>
        <time>2020-03-29T17:58:10Z</time>
      </trkpt>
      <trkpt lat="42.5630670" lon="-2.2361190">
        <ele>451.9</ele>
        <time>2020-03-29T17:58:12Z</time>
      </trkpt>
      <trkpt lat="42.5631240" lon="-2.2362770">
        <ele>452.4</ele>
        <time>2020-03-29T17:58:14Z</time>
      </trkpt>
      <trkpt lat="42.5632110" lon="-2.2364030">
        <ele>452.8</ele>
        <time>2020-03-29T17:58:16Z</time>
      </trkpt>
      <trkpt lat="42.5632800" lon="-2.2364680">
        <ele>453.1</ele>
        <time>2020-03-29T17:58:18Z</time>
      </trkpt>
      <trkpt lat="42.5633490" lon="-2.2365320">
        <ele>453.6</ele>
        <time>2020-03-29T17:58:20Z</time>
      </trkpt>
      <trkpt lat="42.5634800" lon="-2.2366690">
        <ele>454.5</ele>
        <time>2020-03-29T17:58:22Z</time>
      </trkpt>
      <trkpt lat="42.5635330" lon="-2.2367820">
        <ele>454.9</ele>
        <time>2020-03-29T17:58:24Z</time>
      </trkpt>
      <trkpt lat="42.5635630" lon="-2.2369320">
        <ele>455.6</ele>
        <time>2020-03-29T17:58:26Z</time>
      </trkpt>
      <trkpt lat="42.5635740" lon="-2.2370840">
        <ele>456.4</ele>
        <time>2020-03-29T17:58:28Z</time>
      </trkpt>
      <trkpt lat="42.5635700" lon="-2.2371900">
        <ele>456.9</ele>
        <time>2020-03-29T17:58:30Z</time>
      </trkpt>
      <trkpt lat="42.5635730" lon="-2.2373590">
        <ele>457.8</ele>
        <time>2020-03-29T17:58:32Z</time>
      </trkpt>
      <trkpt lat="42.5635810" lon="-2.2374630">
        <ele>458.1</ele>
        <time>2020-03-29T17:58:34Z</time>
      </trkpt>
      <trkpt lat="42.5635900" lon="-2.2375660">
        <ele>458.3</ele>
        <time>2020-03-29T17:58:36Z</time>
      </trkpt>
      <trkpt lat="42.5636060" lon="-2.2377960">
        <ele>458.4</ele>
        <time>2020-03-29T17:58:38Z</time>
      </trkpt>
      <trkpt lat="42.5636090" lon="-2.2378930">
        <ele>458.4</ele>
        <time>2020-03-29T17:58:40Z</time>
      </trkpt>
      <trkpt lat="42.5636110" lon="-2.2379820">
        <ele>458.4</ele>
        <time>2020-03-29T17:58:42Z</time>
      </trkpt>
      <trkpt lat="42.5636140" lon="-2.2380650">
        <ele>458.5</ele>
        <time>2020-03-29T17:58:44Z</time>
      </trkpt>
      <trkpt lat="42.5636160" lon="-2.2381420">
        <ele>458.5</ele>
        <time>2020-03-29T17:58:46Z</time>
      </trkpt>
      <trkpt lat="42.5636180" lon="-2.2382150">
        <ele>458.6</ele>
        <time>2020-03-29T17:58:48Z</time>
      </trkpt>
      <trkpt lat="42.5636200" lon="-2.2382850">
        <ele>458.7</ele>
        <time>2020-03-29T17:58:50Z</time>
      </trkpt>
      <trkpt lat="42.5636210" lon="-2.2383520">
        <ele>458.9</ele>
        <time>2020-03-29T17:58:52Z</time>
      </trkpt>
      <trkpt lat="42.5636300" lon="-2.2386380">
        <ele>459.4</ele>
        <time>2020-03-29T17:58:54Z</time>
      </trkpt>
      <trkpt lat="42.5636350" lon="-2.2387010">
        <ele>459.3</ele>
        <time>2020-03-29T17:58:56Z</time>
      </trkpt>
      <trkpt lat="42.5636410" lon="-2.2387650">
        <ele>459.2</ele>
        <time>2020-03-29T17:58:58Z</time>
      </trkpt>
      <trkpt lat="42.5636460" lon="-2.2388280">
        <ele>459.1</ele>
        <time>2020-03-29T17:59:00Z</time>
      </trkpt>
      <trkpt lat="42.5636520" lon="-2.2388910">
        <ele>459.0</ele>
        <time>2020-03-29T17:59:02Z</time>
      </trkpt>
      <trkpt lat="42.5636620" lon="-2.2390490">
        <ele>459.0</ele>
        <time>2020-03-29T17:59:04Z</time>
      </trkpt>
      <trkpt lat="42.5636640" lon="-2.2391110">
        <ele>459.1</ele>
        <time>2020-03-29T17:59:06Z</time>
      </trkpt>
      <trkpt lat="42.5636660" lon="-2.2392360">
        <ele>459.3</ele>
        <time>2020-03-29T17:59:08Z</time>
      </trkpt>
      <trkpt lat="42.5636640" lon="-2.2393060">
        <ele>459.5</ele>
        <time>2020-03-29T17:59:10Z</time>
      </trkpt>
      <trkpt lat="42.5636630" lon="-2.2393800">
        <ele>459.7</ele>
        <time>2020-03-29T17:59:12Z</time>
      </trkpt>
      <trkpt lat="42.5636610" lon="-2.2394580">
        <ele>460.0</ele>
        <time>2020-03-29T17:59:14Z</time>
      </trkpt>
      <trkpt lat="42.5636600" lon="-2.2396270">
        <ele>460.6</ele>
        <time>2020-03-29T17:59:16Z</time>
      </trkpt>
      <trkpt lat="42.5636610" lon="-2.2397070">
        <ele>460.9</ele>
        <time>2020-03-29T17:59:18Z</time>
      </trkpt>
      <trkpt lat="42.5636670" lon="-2.2398570">
        <ele>461.5</ele>
        <time>2020-03-29T17:59:20Z</time>
      </trkpt>
      <trkpt lat="42.5636770" lon="-2.2399370">
        <ele>461.7</ele>
        <time>2020-03-29T17:59:22Z</time>
      </trkpt>
      <trkpt lat="42.5636870" lon="-2.2400160">
        <ele>461.9</ele>
        <time>2020-03-29T17:59:24Z</time>
      </trkpt>
      <trkpt lat="42.5636970" lon="-2.2400960">
        <ele>462.1</ele>
        <time>2020-03-29T17:59:26Z</time>
      </trkpt>
      <trkpt lat="42.5637060" lon="-2.2401760">
        <ele>462.3</ele>
        <time>2020-03-29T17:59:28Z</time>
      </trkpt>
      <trkpt lat="42.5637160" lon="-2.2402560">
        <ele>462.4</ele>
        <time>2020-03-29T17:59:30Z</time>
      </trkpt>
      <trkpt lat="42.5637450" lon="-2.2404960">
        <ele>462.5</ele>
        <time>2020-03-29T17:59:32Z</time>
      </trkpt>
      <trkpt lat="42.5637560" lon="-2.2405820">
        <ele>462.6</ele>
        <time>2020-03-29T17:59:34Z</time>
      </trkpt>
      <trkpt lat="42.5637730" lon="-2.2407330">
        <ele>462.7</ele>
        <time>2020-03-29T17:59:36Z</time>
      </trkpt>
      <trkpt lat="42.5637810" lon="-2.2408230">
        <ele>462.9</ele>
        <time>2020-03-29T17:59:38Z</time>
      </trkpt>
      <trkpt lat="42.5637900" lon="-2.2409140">
        <ele>463.0</ele>
        <time>2020-03-29T17:59:40Z</time>
      </trkpt>
      <trkpt lat="42.5638030" lon="-2.2411050">
        <ele>463.4</ele>
        <time>2020-03-29T17:59:42Z</time>
      </trkpt>
      <trkpt lat="42.5638060" lon="-2.2411980">
        <ele>463.6</ele>
        <time>2020-03-29T17:59:44Z</time>
      </trkpt>
      <trkpt lat="42.5638100" lon="-2.2412910">
        <ele>463.8</ele>
        <time>2020-03-29T17:59:46Z</time>
      </trkpt>
      <trkpt lat="42.5638130" lon="-2.2413840">
        <ele>464.0</ele>
        <time>2020-03-29T17:59:48Z</time>
      </trkpt>
      <trkpt lat="42.5638220" lon="-2.2416290">
        <ele>464.6</ele>
        <time>2020-03-29T17:59:50Z</time>
      </trkpt>
      <trkpt lat="42.5638200" lon="-2.2417330">
        <ele>464.9</ele>
        <time>2020-03-29T17:59:52Z</time>
      </trkpt>
      <trkpt lat="42.5638190" lon="-2.2418360">
        <ele>465.4</ele>
        <time>2020-03-29T17:59:54Z</time>
      </trkpt>
      <trkpt lat="42.5638180" lon="-2.2419410">
        <ele>466.0</ele>
        <time>2020-03-29T17:59:56Z</time>
      </trkpt>
      <trkpt lat="42.5638150" lon="-2.2421880">
        <ele>467.1</ele>
        <time>2020-03-29T17:59:58Z</time>
      </trkpt>
      <trkpt lat="42.5638090" lon="-2.2423290">
        <ele>467.4</ele>
        <time>2020-03-29T18:00:00Z</time>
      </trkpt>
      <trkpt lat="42.5638050" lon="-2.2424390">
        <ele>467.6</ele>
        <time>2020-03-29T18:00:02Z</time>
      </trkpt>
      <trkpt lat="42.5638010" lon="-2.2425500">
        <ele>467.7</ele>
        <time>2020-03-29T18:00:04Z</time>
      </trkpt>
      <trkpt lat="42.5637970" lon="-2.2426620">
        <ele>467.8</ele>
        <time>2020-03-29T18:00:06Z</time>
      </trkpt>
      <trkpt lat="42.5637850" lon="-2.2429440">
        <ele>468.2</ele>
        <time>2020-03-29T18:00:08Z</time>
      </trkpt>
      <trkpt lat="42.5637720" lon="-2.2430600">
        <ele>468.3</ele>
        <time>2020-03-29T18:00:10Z</time>
      </trkpt>
      <trkpt lat="42.5637590" lon="-2.2431800">
        <ele>468.4</ele>
        <time>2020-03-29T18:00:12Z</time>
      </trkpt>
      <trkpt lat="42.5637450" lon="-2.2433050">
        <ele>468.5</ele>
        <time>2020-03-29T18:00:14Z</time>
      </trkpt>
      <trkpt lat="42.5637310" lon="-2.2434330">
        <ele>468.5</ele>
        <time>2020-03-29T18:00:16Z</time>
      </trkpt>
      <trkpt lat="42.5636920" lon="-2.2437440">
        <ele>468.5</ele>
        <time>2020-03-29T18:00:18Z</time>
      </trkpt>
      <trkpt lat="42.5636730" lon="-2.2438750">
        <ele>468.5</ele>
        <time>2020-03-29T18:00:20Z</time>
      </trkpt>
      <trkpt lat="42.5636540" lon="-2.2440090">
        <ele>468.5</ele>
        <time>2020-03-29T18:00:22Z</time>
      </trkpt>
      <trkpt lat="42.5636120" lon="-2.2443120">
        <ele>468.5</ele>
        <time>2020-03-29T18:00:24Z</time>
      </trkpt>
      <trkpt lat="42.5635990" lon="-2.2444480">
        <ele>468.6</ele>
        <time>2020-03-29T18:00:26Z</time>
      </trkpt>
      <trkpt lat="42.5635870" lon="-2.2445850">
        <ele>468.6</ele>
        <time>2020-03-29T18:00:28Z</time>
      </trkpt>
      <trkpt lat="42.5635540" lon="-2.2448450">
        <ele>468.6</ele>
        <time>2020-03-29T18:00:30Z</time>
      </trkpt>
      <trkpt lat="42.5635180" lon="-2.2450560">
        <ele>468.5</ele>
        <time>2020-03-29T18:00:32Z</time>
      </trkpt>
      <trkpt lat="42.5634790" lon="-2.2452540">
        <ele>468.4</ele>
        <time>2020-03-29T18:00:34Z</time>
      </trkpt>
      <trkpt lat="42.5634570" lon="-2.2454370">
        <ele>468.1</ele>
        <time>2020-03-29T18:00:36Z</time>
      </trkpt>
      <trkpt lat="42.5634580" lon="-2.2455810">
        <ele>467.8</ele>
        <time>2020-03-29T18:00:38Z</time>
      </trkpt>
      <trkpt lat="42.5634700" lon="-2.2457700">
        <ele>467.6</ele>
        <time>2020-03-29T18:00:40Z</time>
      </trkpt>
      <trkpt lat="42.5634960" lon="-2.2459450">
        <ele>467.6</ele>
        <time>2020-03-29T18:00:42Z</time>
      </trkpt>
      <trkpt lat="42.5635180" lon="-2.2460670">
        <ele>467.6</ele>
        <time>2020-03-29T18:00:44Z</time>
      </trkpt>
      <trkpt lat="42.5635490" lon="-2.2462640">
        <ele>467.6</ele>
        <time>2020-03-29T18:00:46Z</time>
      </trkpt>
      <trkpt lat="42.5635650" lon="-2.2463820">
        <ele>467.6</ele>
        <time>2020-03-29T18:00:48Z</time>
      </trkpt>
      <trkpt lat="42.5635800" lon="-2.2464970">
        <ele>467.6</ele>
        <time>2020-03-29T18:00:50Z</time>
      </trkpt>
      <trkpt lat="42.5635960" lon="-2.2466100">
        <ele>467.6</ele>
        <time>2020-03-29T18:00:52Z</time>
      </trkpt>
      <trkpt lat="42.5636280" lon="-2.2468980">
        <ele>467.6</ele>
        <time>2020-03-29T18:00:54Z</time>
      </trkpt>
      <trkpt lat="42.5636340" lon="-2.2470240">
        <ele>467.6</ele>
        <time>2020-03-29T18:00:56Z</time>
      </trkpt>
      <trkpt lat="42.5636410" lon="-2.2471600">
        <ele>467.6</ele>
        <time>2020-03-29T18:00:58Z</time>
      </trkpt>
      <trkpt lat="42.5636510" lon="-2.2474340">
        <ele>467.6</ele>
        <time>2020-03-29T18:01:00Z</time>
      </trkpt>
      <trkpt lat="42.5636830" lon="-2.2476320">
        <ele>467.6</ele>
        <time>2020-03-29T18:01:02Z</time>
      </trkpt>
      <trkpt lat="42.5637370" lon="-2.2478650">
        <ele>467.1</ele>
        <time>2020-03-29T18:01:04Z</time>
      </trkpt>
      <trkpt lat="42.5637800" lon="-2.2480810">
        <ele>465.8</ele>
        <time>2020-03-29T18:01:06Z</time>
      </trkpt>
      <trkpt lat="42.5638300" lon="-2.2482930">
        <ele>464.8</ele>
        <time>2020-03-29T18:01:08Z</time>
      </trkpt>
      <trkpt lat="42.5639070" lon="-2.2484900">
        <ele>464.7</ele>
        <time>2020-03-29T18:01:10Z</time>
      </trkpt>
      <trkpt lat="42.5640170" lon="-2.2486960">
        <ele>464.7</ele>
        <time>2020-03-29T18:01:12Z</time>
      </trkpt>
      <trkpt lat="42.5641350" lon="-2.2488710">
        <ele>464.7</ele>
        <time>2020-03-29T18:01:14Z</time>
      </trkpt>
      <trkpt lat="42.5642550" lon="-2.2491200">
        <ele>464.7</ele>
        <time>2020-03-29T18:01:16Z</time>
      </trkpt>
      <trkpt lat="42.5643200" lon="-2.2493700">
        <ele>464.7</ele>
        <time>2020-03-29T18:01:18Z</time>
      </trkpt>
      <trkpt lat="42.5643310" lon="-2.2496110">
        <ele>464.7</ele>
        <time>2020-03-29T18:01:20Z</time>
      </trkpt>
      <trkpt lat="42.5643000" lon="-2.2498400">
        <ele>464.4</ele>
        <time>2020-03-29T18:01:22Z</time>
      </trkpt>
      <trkpt lat="42.5642720" lon="-2.2500170">
        <ele>464.0</ele>
        <time>2020-03-29T18:01:24Z</time>
      </trkpt>
      <trkpt lat="42.5642080" lon="-2.2503540">
        <ele>463.0</ele>
        <time>2020-03-29T18:01:26Z</time>
      </trkpt>
      <trkpt lat="42.5641440" lon="-2.2505650">
        <ele>462.8</ele>
        <time>2020-03-29T18:01:28Z</time>
      </trkpt>
      <trkpt lat="42.5640950" lon="-2.2507710">
        <ele>462.7</ele>
        <time>2020-03-29T18:01:30Z</time>
      </trkpt>
      <trkpt lat="42.5640680" lon="-2.2509760">
        <ele>462.8</ele>
        <time>2020-03-29T18:01:32Z</time>
      </trkpt>
      <trkpt lat="42.5640650" lon="-2.2511310">
        <ele>463.0</ele>
        <time>2020-03-29T18:01:34Z</time>
      </trkpt>
      <trkpt lat="42.5640540" lon="-2.2513730">
        <ele>463.2</ele>
        <time>2020-03-29T18:01:36Z</time>
      </trkpt>
      <trkpt lat="42.5640340" lon="-2.2516120">
        <ele>463.3</ele>
        <time>2020-03-29T18:01:38Z</time>
      </trkpt>
      <trkpt lat="42.5640190" lon="-2.2518400">
        <ele>463.2</ele>
        <time>2020-03-29T18:01:40Z</time>
      </trkpt>
      <trkpt lat="42.5640120" lon="-2.2520230">
        <ele>462.8</ele>
        <time>2020-03-29T18:01:42Z</time>
      </trkpt>
      <trkpt lat="42.5639730" lon="-2.2523550">
        <ele>461.8</ele>
        <time>2020-03-29T18:01:44Z</time>
      </trkpt>
      <trkpt lat="42.5639090" lon="-2.2525960">
        <ele>461.7</ele>
        <time>2020-03-29T18:01:46Z</time>
      </trkpt>
      <trkpt lat="42.5638480" lon="-2.2528410">
        <ele>461.5</ele>
        <time>2020-03-29T18:01:48Z</time>
      </trkpt>
      <trkpt lat="42.5638020" lon="-2.2531140">
        <ele>460.9</ele>
        <time>2020-03-29T18:01:50Z</time>
      </trkpt>
      <trkpt lat="42.5637380" lon="-2.2533980">
        <ele>460.2</ele>
        <time>2020-03-29T18:01:52Z</time>
      </trkpt>
      <trkpt lat="42.5636470" lon="-2.2536990">
        <ele>459.4</ele>
        <time>2020-03-29T18:01:54Z</time>
      </trkpt>
      <trkpt lat="42.5635940" lon="-2.2539070">
        <ele>459.1</ele>
        <time>2020-03-29T18:01:56Z</time>
      </trkpt>
      <trkpt lat="42.5635750" lon="-2.2542410">
        <ele>458.6</ele>
        <time>2020-03-29T18:01:58Z</time>
      </trkpt>
      <trkpt lat="42.5636670" lon="-2.2544560">
        <ele>458.3</ele>
        <time>2020-03-29T18:02:00Z</time>
      </trkpt>
      <trkpt lat="42.5637910" lon="-2.2547530">
        <ele>457.7</ele>
        <time>2020-03-29T18:02:02Z</time>
      </trkpt>
      <trkpt lat="42.5637460" lon="-2.2550230">
        <ele>456.6</ele>
        <time>2020-03-29T18:02:04Z</time>
      </trkpt>
      <trkpt lat="42.5636310" lon="-2.2552740">
        <ele>455.5</ele>
        <time>2020-03-29T18:02:06Z</time>
      </trkpt>
      <trkpt lat="42.5634900" lon="-2.2555190">
        <ele>454.9</ele>
        <time>2020-03-29T18:02:08Z</time>
      </trkpt>
      <trkpt lat="42.5633650" lon="-2.2557060">
        <ele>454.9</ele>
        <time>2020-03-29T18:02:10Z</time>
      </trkpt>
      <trkpt lat="42.5632060" lon="-2.2558720">
        <ele>454.9</ele>
        <time>2020-03-29T18:02:12Z</time>
      </trkpt>
      <trkpt lat="42.5630890" lon="-2.2559590">
        <ele>454.9</ele>
        <time>2020-03-29T18:02:14Z</time>
      </trkpt>
      <trkpt lat="42.5629300" lon="-2.2561450">
        <ele>455.0</ele>
        <time>2020-03-29T18:02:16Z</time>
      </trkpt>
      <trkpt lat="42.5628440" lon="-2.2563030">
        <ele>455.5</ele>
        <time>2020-03-29T18:02:18Z</time>
      </trkpt>
      <trkpt lat="42.5627970" lon="-2.2565050">
        <ele>456.4</ele>
        <time>2020-03-29T18:02:20Z</time>
      </trkpt>
      <trkpt lat="42.5627970" lon="-2.2566510">
        <ele>457.4</ele>
        <time>2020-03-29T18:02:22Z</time>
      </trkpt>
      <trkpt lat="42.5628270" lon="-2.2567840">
        <ele>458.6</ele>
        <time>2020-03-29T18:02:24Z</time>
      </trkpt>
      <trkpt lat="42.5628680" lon="-2.2569080">
        <ele>459.8</ele>
        <time>2020-03-29T18:02:26Z</time>
      </trkpt>
      <trkpt lat="42.5628920" lon="-2.2570200">
        <ele>460.8</ele>
        <time>2020-03-29T18:02:28Z</time>
      </trkpt>
      <trkpt lat="42.5629060" lon="-2.2571280">
        <ele>461.9</ele>
        <time>2020-03-29T18:02:30Z</time>
      </trkpt>
      <trkpt lat="42.5629160" lon="-2.2572280">
        <ele>463.8</ele>
        <time>2020-03-29T18:02:32Z</time>
      </trkpt>
      <trkpt lat="42.5629130" lon="-2.2572960">
        <ele>463.8</ele>
        <time>2020-03-29T18:02:34Z</time>
      </trkpt>
      <trkpt lat="42.5628610" lon="-2.2573430">
        <ele>463.7</ele>
        <time>2020-03-29T18:02:36Z</time>
      </trkpt>
      <trkpt lat="42.5628120" lon="-2.2573870">
        <ele>463.7</ele>
        <time>2020-03-29T18:02:38Z</time>
      </trkpt>
      <trkpt lat="42.5627620" lon="-2.2574330">
        <ele>463.6</ele>
        <time>2020-03-29T18:02:40Z</time>
      </trkpt>
      <trkpt lat="42.5627090" lon="-2.2574810">
        <ele>463.6</ele>
        <time>2020-03-29T18:02:42Z</time>
      </trkpt>
      <trkpt lat="42.5626540" lon="-2.2575310">
        <ele>463.5</ele>
        <time>2020-03-29T18:02:44Z</time>
      </trkpt>
      <trkpt lat="42.5625980" lon="-2.2575810">
        <ele>463.5</ele>
        <time>2020-03-29T18:02:46Z</time>
      </trkpt>
      <trkpt lat="42.5625410" lon="-2.2576330">
        <ele>463.4</ele>
        <time>2020-03-29T18:02:49Z</time>
      </trkpt>
      <trkpt lat="42.5624820" lon="-2.2576860">
        <ele>463.4</ele>
        <time>2020-03-29T18:02:51Z</time>
      </trkpt>
      <trkpt lat="42.5624240" lon="-2.2577390">
        <ele>463.4</ele>
        <time>2020-03-29T18:02:53Z</time>
      </trkpt>
      <trkpt lat="42.5621790" lon="-2.2579610">
        <ele>463.7</ele>
        <time>2020-03-29T18:02:55Z</time>
      </trkpt>
      <trkpt lat="42.5621210" lon="-2.2580140">
        <ele>463.8</ele>
        <time>2020-03-29T18:02:57Z</time>
      </trkpt>
      <trkpt lat="42.5620630" lon="-2.2580670">
        <ele>463.9</ele>
        <time>2020-03-29T18:02:59Z</time>
      </trkpt>
      <trkpt lat="42.5620050" lon="-2.2581190">
        <ele>464.0</ele>
        <time>2020-03-29T18:03:01Z</time>
      </trkpt>
      <trkpt lat="42.5618570" lon="-2.2582530">
        <ele>464.0</ele>
        <time>2020-03-29T18:03:03Z</time>
      </trkpt>
      <trkpt lat="42.5617930" lon="-2.2583080">
        <ele>464.1</ele>
        <time>2020-03-29T18:03:05Z</time>
      </trkpt>
      <trkpt lat="42.5617290" lon="-2.2583620">
        <ele>464.2</ele>
        <time>2020-03-29T18:03:07Z</time>
      </trkpt>
      <trkpt lat="42.5616080" lon="-2.2584680">
        <ele>464.5</ele>
        <time>2020-03-29T18:03:09Z</time>
      </trkpt>
      <trkpt lat="42.5615450" lon="-2.2585240">
        <ele>464.8</ele>
        <time>2020-03-29T18:03:11Z</time>
      </trkpt>
      <trkpt lat="42.5614390" lon="-2.2586190">
        <ele>465.3</ele>
        <time>2020-03-29T18:03:13Z</time>
      </trkpt>
      <trkpt lat="42.5613770" lon="-2.2586750">
        <ele>465.7</ele>
        <time>2020-03-29T18:03:15Z</time>
      </trkpt>
      <trkpt lat="42.5613140" lon="-2.2587320">
        <ele>466.0</ele>
        <time>2020-03-29T18:03:17Z</time>
      </trkpt>
      <trkpt lat="42.5612520" lon="-2.2587880">
        <ele>466.4</ele>
        <time>2020-03-29T18:03:19Z</time>
      </trkpt>
      <trkpt lat="42.5611890" lon="-2.2588450">
        <ele>466.7</ele>
        <time>2020-03-29T18:03:21Z</time>
      </trkpt>
      <trkpt lat="42.5611270" lon="-2.2589020">
        <ele>466.9</ele>
        <time>2020-03-29T18:03:23Z</time>
      </trkpt>
      <trkpt lat="42.5609340" lon="-2.2590790">
        <ele>467.7</ele>
        <time>2020-03-29T18:03:25Z</time>
      </trkpt>
      <trkpt lat="42.5608730" lon="-2.2591370">
        <ele>467.7</ele>
        <time>2020-03-29T18:03:27Z</time>
      </trkpt>
      <trkpt lat="42.5607610" lon="-2.2592500">
        <ele>467.8</ele>
        <time>2020-03-29T18:03:29Z</time>
      </trkpt>
      <trkpt lat="42.5607010" lon="-2.2593230">
        <ele>467.7</ele>
        <time>2020-03-29T18:03:31Z</time>
      </trkpt>
      <trkpt lat="42.5606370" lon="-2.2594020">
        <ele>467.7</ele>
        <time>2020-03-29T18:03:33Z</time>
      </trkpt>
      <trkpt lat="42.5605710" lon="-2.2594830">
        <ele>467.6</ele>
        <time>2020-03-29T18:03:35Z</time>
      </trkpt>
      <trkpt lat="42.5604270" lon="-2.2596690">
        <ele>467.2</ele>
        <time>2020-03-29T18:03:37Z</time>
      </trkpt>
      <trkpt lat="42.5603640" lon="-2.2597580">
        <ele>467.1</ele>
        <time>2020-03-29T18:03:39Z</time>
      </trkpt>
      <trkpt lat="42.5602990" lon="-2.2598490">
        <ele>466.9</ele>
        <time>2020-03-29T18:03:41Z</time>
      </trkpt>
      <trkpt lat="42.5602320" lon="-2.2599410">
        <ele>466.8</ele>
        <time>2020-03-29T18:03:43Z</time>
      </trkpt>
      <trkpt lat="42.5600520" lon="-2.2601930">
        <ele>466.5</ele>
        <time>2020-03-29T18:03:45Z</time>
      </trkpt>
      <trkpt lat="42.5599820" lon="-2.2602910">
        <ele>466.4</ele>
        <time>2020-03-29T18:03:47Z</time>
      </trkpt>
      <trkpt lat="42.5599070" lon="-2.2603950">
        <ele>466.4</ele>
        <time>2020-03-29T18:03:49Z</time>
      </trkpt>
      <trkpt lat="42.5598300" lon="-2.2605030">
        <ele>466.3</ele>
        <time>2020-03-29T18:03:51Z</time>
      </trkpt>
      <trkpt lat="42.5597500" lon="-2.2606140">
        <ele>466.3</ele>
        <time>2020-03-29T18:03:53Z</time>
      </trkpt>
      <trkpt lat="42.5595580" lon="-2.2608840">
        <ele>466.0</ele>
        <time>2020-03-29T18:03:55Z</time>
      </trkpt>
      <trkpt lat="42.5594210" lon="-2.2610760">
        <ele>465.7</ele>
        <time>2020-03-29T18:03:57Z</time>
      </trkpt>
      <trkpt lat="42.5593430" lon="-2.2611910">
        <ele>465.6</ele>
        <time>2020-03-29T18:03:59Z</time>
      </trkpt>
      <trkpt lat="42.5592190" lon="-2.2613770">
        <ele>465.5</ele>
        <time>2020-03-29T18:04:01Z</time>
      </trkpt>
      <trkpt lat="42.5591530" lon="-2.2614960">
        <ele>465.4</ele>
        <time>2020-03-29T18:04:03Z</time>
      </trkpt>
      <trkpt lat="42.5590920" lon="-2.2616060">
        <ele>465.4</ele>
        <time>2020-03-29T18:04:05Z</time>
      </trkpt>
      <trkpt lat="42.5589880" lon="-2.2618090">
        <ele>465.3</ele>
        <time>2020-03-29T18:04:07Z</time>
      </trkpt>
      <trkpt lat="42.5589360" lon="-2.2619230">
        <ele>465.2</ele>
        <time>2020-03-29T18:04:09Z</time>
      </trkpt>
      <trkpt lat="42.5588840" lon="-2.2620350">
        <ele>465.2</ele>
        <time>2020-03-29T18:04:11Z</time>
      </trkpt>
      <trkpt lat="42.5587650" lon="-2.2622950">
        <ele>465.1</ele>
        <time>2020-03-29T18:04:13Z</time>
      </trkpt>
      <trkpt lat="42.5587110" lon="-2.2624160">
        <ele>465.1</ele>
        <time>2020-03-29T18:04:15Z</time>
      </trkpt>
      <trkpt lat="42.5586600" lon="-2.2625320">
        <ele>465.1</ele>
        <time>2020-03-29T18:04:17Z</time>
      </trkpt>
      <trkpt lat="42.5586090" lon="-2.2626510">
        <ele>465.1</ele>
        <time>2020-03-29T18:04:19Z</time>
      </trkpt>
      <trkpt lat="42.5585570" lon="-2.2627690">
        <ele>465.2</ele>
        <time>2020-03-29T18:04:21Z</time>
      </trkpt>
      <trkpt lat="42.5585050" lon="-2.2628870">
        <ele>465.3</ele>
        <time>2020-03-29T18:04:23Z</time>
      </trkpt>
      <trkpt lat="42.5583540" lon="-2.2632310">
        <ele>465.7</ele>
        <time>2020-03-29T18:04:25Z</time>
      </trkpt>
      <trkpt lat="42.5583030" lon="-2.2633480">
        <ele>465.9</ele>
        <time>2020-03-29T18:04:27Z</time>
      </trkpt>
      <trkpt lat="42.5582530" lon="-2.2634640">
        <ele>466.1</ele>
        <time>2020-03-29T18:04:29Z</time>
      </trkpt>
      <trkpt lat="42.5582020" lon="-2.2635790">
        <ele>466.3</ele>
        <time>2020-03-29T18:04:31Z</time>
      </trkpt>
      <trkpt lat="42.5580720" lon="-2.2638770">
        <ele>466.8</ele>
        <time>2020-03-29T18:04:33Z</time>
      </trkpt>
      <trkpt lat="42.5580250" lon="-2.2639810">
        <ele>467.0</ele>
        <time>2020-03-29T18:04:35Z</time>
      </trkpt>
      <trkpt lat="42.5579640" lon="-2.2641190">
        <ele>467.4</ele>
        <time>2020-03-29T18:04:37Z</time>
      </trkpt>
      <trkpt lat="42.5579250" lon="-2.2642080">
        <ele>467.6</ele>
        <time>2020-03-29T18:04:39Z</time>
      </trkpt>
      <trkpt lat="42.5578870" lon="-2.2642930">
        <ele>467.8</ele>
        <time>2020-03-29T18:04:41Z</time>
      </trkpt>
      <trkpt lat="42.5578500" lon="-2.2643760">
        <ele>468.0</ele>
        <time>2020-03-29T18:04:43Z</time>
      </trkpt>
      <trkpt lat="42.5578150" lon="-2.2644560">
        <ele>468.3</ele>
        <time>2020-03-29T18:04:45Z</time>
      </trkpt>
      <trkpt lat="42.5577810" lon="-2.2645320">
        <ele>468.5</ele>
        <time>2020-03-29T18:04:47Z</time>
      </trkpt>
      <trkpt lat="42.5576600" lon="-2.2647950">
        <ele>469.4</ele>
        <time>2020-03-29T18:04:49Z</time>
      </trkpt>
      <trkpt lat="42.5575990" lon="-2.2648840">
        <ele>470.0</ele>
        <time>2020-03-29T18:04:51Z</time>
      </trkpt>
      <trkpt lat="42.5575330" lon="-2.2649490">
        <ele>470.4</ele>
        <time>2020-03-29T18:04:53Z</time>
      </trkpt>
      <trkpt lat="42.5574630" lon="-2.2649880">
        <ele>470.9</ele>
        <time>2020-03-29T18:04:55Z</time>
      </trkpt>
      <trkpt lat="42.5573810" lon="-2.2650000">
        <ele>471.4</ele>
        <time>2020-03-29T18:04:57Z</time>
      </trkpt>
      <trkpt lat="42.5573070" lon="-2.2649940">
        <ele>471.8</ele>
        <time>2020-03-29T18:04:59Z</time>
      </trkpt>
      <trkpt lat="42.5572520" lon="-2.2649820">
        <ele>472.2</ele>
        <time>2020-03-29T18:05:01Z</time>
      </trkpt>
      <trkpt lat="42.5571970" lon="-2.2649710">
        <ele>472.5</ele>
        <time>2020-03-29T18:05:03Z</time>
      </trkpt>
      <trkpt lat="42.5571440" lon="-2.2649600">
        <ele>472.8</ele>
        <time>2020-03-29T18:05:05Z</time>
      </trkpt>
      <trkpt lat="42.5570150" lon="-2.2649340">
        <ele>473.5</ele>
        <time>2020-03-29T18:05:07Z</time>
      </trkpt>
      <trkpt lat="42.5569660" lon="-2.2649240">
        <ele>473.8</ele>
        <time>2020-03-29T18:05:09Z</time>
      </trkpt>
      <trkpt lat="42.5569190" lon="-2.2649150">
        <ele>474.1</ele>
        <time>2020-03-29T18:05:11Z</time>
      </trkpt>
      <trkpt lat="42.5568730" lon="-2.2649060">
        <ele>474.4</ele>
        <time>2020-03-29T18:05:13Z</time>
      </trkpt>
      <trkpt lat="42.5567610" lon="-2.2648880">
        <ele>475.0</ele>
        <time>2020-03-29T18:05:15Z</time>
      </trkpt>
      <trkpt lat="42.5567150" lon="-2.2648870">
        <ele>475.3</ele>
        <time>2020-03-29T18:05:17Z</time>
      </trkpt>
      <trkpt lat="42.5566420" lon="-2.2648900">
        <ele>475.7</ele>
        <time>2020-03-29T18:05:19Z</time>
      </trkpt>
      <trkpt lat="42.5565780" lon="-2.2649020">
        <ele>476.2</ele>
        <time>2020-03-29T18:05:21Z</time>
      </trkpt>
      <trkpt lat="42.5565060" lon="-2.2649230">
        <ele>476.7</ele>
        <time>2020-03-29T18:05:23Z</time>
      </trkpt>
      <trkpt lat="42.5564580" lon="-2.2649470">
        <ele>477.1</ele>
        <time>2020-03-29T18:05:25Z</time>
      </trkpt>
      <trkpt lat="42.5563950" lon="-2.2649840">
        <ele>477.5</ele>
        <time>2020-03-29T18:05:27Z</time>
      </trkpt>
      <trkpt lat="42.5563300" lon="-2.2650330">
        <ele>478.1</ele>
        <time>2020-03-29T18:05:29Z</time>
      </trkpt>
      <trkpt lat="42.5562890" lon="-2.2650740">
        <ele>478.4</ele>
        <time>2020-03-29T18:05:31Z</time>
      </trkpt>
      <trkpt lat="42.5562240" lon="-2.2651440">
        <ele>478.9</ele>
        <time>2020-03-29T18:05:33Z</time>
      </trkpt>
      <trkpt lat="42.5561860" lon="-2.2651910">
        <ele>479.2</ele>
        <time>2020-03-29T18:05:35Z</time>
      </trkpt>
      <trkpt lat="42.5561490" lon="-2.2652370">
        <ele>479.5</ele>
        <time>2020-03-29T18:05:37Z</time>
      </trkpt>
      <trkpt lat="42.5561110" lon="-2.2652850">
        <ele>479.8</ele>
        <time>2020-03-29T18:05:39Z</time>
      </trkpt>
      <trkpt lat="42.5560730" lon="-2.2653320">
        <ele>480.1</ele>
        <time>2020-03-29T18:05:41Z</time>
      </trkpt>
      <trkpt lat="42.5560340" lon="-2.2653800">
        <ele>480.4</ele>
        <time>2020-03-29T18:05:43Z</time>
      </trkpt>
      <trkpt lat="42.5559950" lon="-2.2654280">
        <ele>480.7</ele>
        <time>2020-03-29T18:05:45Z</time>
      </trkpt>
      <trkpt lat="42.5558540" lon="-2.2656020">
        <ele>481.8</ele>
        <time>2020-03-29T18:05:47Z</time>
      </trkpt>
      <trkpt lat="42.5558110" lon="-2.2656550">
        <ele>482.1</ele>
        <time>2020-03-29T18:05:49Z</time>
      </trkpt>
      <trkpt lat="42.5557660" lon="-2.2657110">
        <ele>482.5</ele>
        <time>2020-03-29T18:05:51Z</time>
      </trkpt>
      <trkpt lat="42.5557220" lon="-2.2657660">
        <ele>482.8</ele>
        <time>2020-03-29T18:05:53Z</time>
      </trkpt>
      <trkpt lat="42.5556770" lon="-2.2658210">
        <ele>483.0</ele>
        <time>2020-03-29T18:05:55Z</time>
      </trkpt>
      <trkpt lat="42.5556330" lon="-2.2658760">
        <ele>483.3</ele>
        <time>2020-03-29T18:05:57Z</time>
      </trkpt>
      <trkpt lat="42.5555890" lon="-2.2659310">
        <ele>483.7</ele>
        <time>2020-03-29T18:05:59Z</time>
      </trkpt>
      <trkpt lat="42.5554420" lon="-2.2661110">
        <ele>484.9</ele>
        <time>2020-03-29T18:06:01Z</time>
      </trkpt>
      <trkpt lat="42.5553780" lon="-2.2661820">
        <ele>485.6</ele>
        <time>2020-03-29T18:06:03Z</time>
      </trkpt>
      <trkpt lat="42.5553100" lon="-2.2662390">
        <ele>485.8</ele>
        <time>2020-03-29T18:06:05Z</time>
      </trkpt>
      <trkpt lat="42.5552390" lon="-2.2662880">
        <ele>486.1</ele>
        <time>2020-03-29T18:06:07Z</time>
      </trkpt>
      <trkpt lat="42.5551610" lon="-2.2663280">
        <ele>486.3</ele>
        <time>2020-03-29T18:06:09Z</time>
      </trkpt>
      <trkpt lat="42.5550850" lon="-2.2663590">
        <ele>486.6</ele>
        <time>2020-03-29T18:06:11Z</time>
      </trkpt>
      <trkpt lat="42.5550280" lon="-2.2663780">
        <ele>486.8</ele>
        <time>2020-03-29T18:06:13Z</time>
      </trkpt>
      <trkpt lat="42.5549390" lon="-2.2664070">
        <ele>487.2</ele>
        <time>2020-03-29T18:06:15Z</time>
      </trkpt>
      <trkpt lat="42.5548590" lon="-2.2664250">
        <ele>487.7</ele>
        <time>2020-03-29T18:06:17Z</time>
      </trkpt>
      <trkpt lat="42.5547910" lon="-2.2664400">
        <ele>488.2</ele>
        <time>2020-03-29T18:06:19Z</time>
      </trkpt>
      <trkpt lat="42.5547180" lon="-2.2664550">
        <ele>488.6</ele>
        <time>2020-03-29T18:06:21Z</time>
      </trkpt>
      <trkpt lat="42.5545670" lon="-2.2664870">
        <ele>489.5</ele>
        <time>2020-03-29T18:06:23Z</time>
      </trkpt>
      <trkpt lat="42.5544470" lon="-2.2665060">
        <ele>489.8</ele>
        <time>2020-03-29T18:06:25Z</time>
      </trkpt>
      <trkpt lat="42.5543420" lon="-2.2665010">
        <ele>489.8</ele>
        <time>2020-03-29T18:06:27Z</time>
      </trkpt>
      <trkpt lat="42.5542040" lon="-2.2664530">
        <ele>490.2</ele>
        <time>2020-03-29T18:06:29Z</time>
      </trkpt>
      <trkpt lat="42.5541180" lon="-2.2663840">
        <ele>490.6</ele>
        <time>2020-03-29T18:06:31Z</time>
      </trkpt>
      <trkpt lat="42.5540370" lon="-2.2663190">
        <ele>490.7</ele>
        <time>2020-03-29T18:06:33Z</time>
      </trkpt>
      <trkpt lat="42.5539540" lon="-2.2662530">
        <ele>490.5</ele>
        <time>2020-03-29T18:06:35Z</time>
      </trkpt>
      <trkpt lat="42.5537710" lon="-2.2661090">
        <ele>489.9</ele>
        <time>2020-03-29T18:06:37Z</time>
      </trkpt>
      <trkpt lat="42.5536060" lon="-2.2660050">
        <ele>488.9</ele>
        <time>2020-03-29T18:06:39Z</time>
      </trkpt>
      <trkpt lat="42.5534280" lon="-2.2659730">
        <ele>487.9</ele>
        <time>2020-03-29T18:06:41Z</time>
      </trkpt>
      <trkpt lat="42.5532690" lon="-2.2659580">
        <ele>487.0</ele>
        <time>2020-03-29T18:06:43Z</time>
      </trkpt>
      <trkpt lat="42.5529710" lon="-2.2659300">
        <ele>485.2</ele>
        <time>2020-03-29T18:06:45Z</time>
      </trkpt>
      <trkpt lat="42.5528020" lon="-2.2660610">
        <ele>483.5</ele>
        <time>2020-03-29T18:06:47Z</time>
      </trkpt>
      <trkpt lat="42.5526480" lon="-2.2662120">
        <ele>481.7</ele>
        <time>2020-03-29T18:06:49Z</time>
      </trkpt>
      <trkpt lat="42.5523500" lon="-2.2665400">
        <ele>477.7</ele>
        <time>2020-03-29T18:06:51Z</time>
      </trkpt>
      <trkpt lat="42.5522350" lon="-2.2668550">
        <ele>473.9</ele>
        <time>2020-03-29T18:06:53Z</time>
      </trkpt>
      <trkpt lat="42.5523260" lon="-2.2671850">
        <ele>471.6</ele>
        <time>2020-03-29T18:06:55Z</time>
      </trkpt>
      <trkpt lat="42.5524920" lon="-2.2674480">
        <ele>470.9</ele>
        <time>2020-03-29T18:06:57Z</time>
      </trkpt>
      <trkpt lat="42.5526230" lon="-2.2676440">
        <ele>470.2</ele>
        <time>2020-03-29T18:06:59Z</time>
      </trkpt>
      <trkpt lat="42.5528550" lon="-2.2679900">
        <ele>468.9</ele>
        <time>2020-03-29T18:07:01Z</time>
      </trkpt>
      <trkpt lat="42.5529770" lon="-2.2681730">
        <ele>468.1</ele>
        <time>2020-03-29T18:07:03Z</time>
      </trkpt>
      <trkpt lat="42.5530970" lon="-2.2683510">
        <ele>467.3</ele>
        <time>2020-03-29T18:07:05Z</time>
      </trkpt>
      <trkpt lat="42.5532150" lon="-2.2685270">
        <ele>466.4</ele>
        <time>2020-03-29T18:07:07Z</time>
      </trkpt>
      <trkpt lat="42.5534780" lon="-2.2689190">
        <ele>464.7</ele>
        <time>2020-03-29T18:07:09Z</time>
      </trkpt>
      <trkpt lat="42.5535990" lon="-2.2691000">
        <ele>464.0</ele>
        <time>2020-03-29T18:07:11Z</time>
      </trkpt>
      <trkpt lat="42.5537230" lon="-2.2692850">
        <ele>463.3</ele>
        <time>2020-03-29T18:07:13Z</time>
      </trkpt>
      <trkpt lat="42.5540090" lon="-2.2697020">
        <ele>461.1</ele>
        <time>2020-03-29T18:07:15Z</time>
      </trkpt>
      <trkpt lat="42.5541900" lon="-2.2699520">
        <ele>458.5</ele>
        <time>2020-03-29T18:07:17Z</time>
      </trkpt>
      <trkpt lat="42.5543160" lon="-2.2702450">
        <ele>456.9</ele>
        <time>2020-03-29T18:07:19Z</time>
      </trkpt>
      <trkpt lat="42.5543580" lon="-2.2705370">
        <ele>455.5</ele>
        <time>2020-03-29T18:07:21Z</time>
      </trkpt>
      <trkpt lat="42.5543120" lon="-2.2708900">
        <ele>453.9</ele>
        <time>2020-03-29T18:07:23Z</time>
      </trkpt>
      <trkpt lat="42.5541990" lon="-2.2711750">
        <ele>452.5</ele>
        <time>2020-03-29T18:07:25Z</time>
      </trkpt>
      <trkpt lat="42.5540960" lon="-2.2713520">
        <ele>451.9</ele>
        <time>2020-03-29T18:07:27Z</time>
      </trkpt>
      <trkpt lat="42.5540000" lon="-2.2715200">
        <ele>451.6</ele>
        <time>2020-03-29T18:07:29Z</time>
      </trkpt>
      <trkpt lat="42.5538210" lon="-2.2718330">
        <ele>451.4</ele>
        <time>2020-03-29T18:07:31Z</time>
      </trkpt>
      <trkpt lat="42.5537320" lon="-2.2719900">
        <ele>451.3</ele>
        <time>2020-03-29T18:07:33Z</time>
      </trkpt>
      <trkpt lat="42.5535710" lon="-2.2722750">
        <ele>451.3</ele>
        <time>2020-03-29T18:07:35Z</time>
      </trkpt>
      <trkpt lat="42.5534700" lon="-2.2724920">
        <ele>451.4</ele>
        <time>2020-03-29T18:07:37Z</time>
      </trkpt>
      <trkpt lat="42.5534170" lon="-2.2726730">
        <ele>451.4</ele>
        <time>2020-03-29T18:07:39Z</time>
      </trkpt>
      <trkpt lat="42.5533590" lon="-2.2729070">
        <ele>451.4</ele>
        <time>2020-03-29T18:07:41Z</time>
      </trkpt>
      <trkpt lat="42.5533250" lon="-2.2730940">
        <ele>451.5</ele>
        <time>2020-03-29T18:07:43Z</time>
      </trkpt>
      <trkpt lat="42.5532990" lon="-2.2732370">
        <ele>451.5</ele>
        <time>2020-03-29T18:07:45Z</time>
      </trkpt>
      <trkpt lat="42.5532730" lon="-2.2733740">
        <ele>451.7</ele>
        <time>2020-03-29T18:07:47Z</time>
      </trkpt>
      <trkpt lat="42.5532490" lon="-2.2735050">
        <ele>451.9</ele>
        <time>2020-03-29T18:07:49Z</time>
      </trkpt>
      <trkpt lat="42.5531850" lon="-2.2738500">
        <ele>452.4</ele>
        <time>2020-03-29T18:07:51Z</time>
      </trkpt>
      <trkpt lat="42.5531620" lon="-2.2739750">
        <ele>452.5</ele>
        <time>2020-03-29T18:07:53Z</time>
      </trkpt>
      <trkpt lat="42.5531400" lon="-2.2740960">
        <ele>452.7</ele>
        <time>2020-03-29T18:07:55Z</time>
      </trkpt>
      <trkpt lat="42.5531180" lon="-2.2742160">
        <ele>452.9</ele>
        <time>2020-03-29T18:07:57Z</time>
      </trkpt>
      <trkpt lat="42.5530680" lon="-2.2744880">
        <ele>453.5</ele>
        <time>2020-03-29T18:07:59Z</time>
      </trkpt>
      <trkpt lat="42.5530470" lon="-2.2746020">
        <ele>453.8</ele>
        <time>2020-03-29T18:08:01Z</time>
      </trkpt>
      <trkpt lat="42.5530080" lon="-2.2748110">
        <ele>454.3</ele>
        <time>2020-03-29T18:08:03Z</time>
      </trkpt>
      <trkpt lat="42.5529880" lon="-2.2749220">
        <ele>454.4</ele>
        <time>2020-03-29T18:08:05Z</time>
      </trkpt>
      <trkpt lat="42.5529520" lon="-2.2751180">
        <ele>454.5</ele>
        <time>2020-03-29T18:08:07Z</time>
      </trkpt>
      <trkpt lat="42.5529330" lon="-2.2752230">
        <ele>454.6</ele>
        <time>2020-03-29T18:08:09Z</time>
      </trkpt>
      <trkpt lat="42.5529140" lon="-2.2753270">
        <ele>454.7</ele>
        <time>2020-03-29T18:08:11Z</time>
      </trkpt>
      <trkpt lat="42.5528950" lon="-2.2754280">
        <ele>454.9</ele>
        <time>2020-03-29T18:08:13Z</time>
      </trkpt>
      <trkpt lat="42.5528760" lon="-2.2755300">
        <ele>455.1</ele>
        <time>2020-03-29T18:08:15Z</time>
      </trkpt>
      <trkpt lat="42.5528240" lon="-2.2757940">
        <ele>455.9</ele>
        <time>2020-03-29T18:08:17Z</time>
      </trkpt>
      <trkpt lat="42.5528020" lon="-2.2758930">
        <ele>456.2</ele>
        <time>2020-03-29T18:08:19Z</time>
      </trkpt>
      <trkpt lat="42.5527560" lon="-2.2760720">
        <ele>456.7</ele>
        <time>2020-03-29T18:08:21Z</time>
      </trkpt>
      <trkpt lat="42.5527050" lon="-2.2762060">
        <ele>457.0</ele>
        <time>2020-03-29T18:08:23Z</time>
      </trkpt>
      <trkpt lat="42.5526570" lon="-2.2762940">
        <ele>457.3</ele>
        <time>2020-03-29T18:08:25Z</time>
      </trkpt>
      <trkpt lat="42.5525780" lon="-2.2764290">
        <ele>457.6</ele>
        <time>2020-03-29T18:08:27Z</time>
      </trkpt>
      <trkpt lat="42.5525260" lon="-2.2765050">
        <ele>457.7</ele>
        <time>2020-03-29T18:08:29Z</time>
      </trkpt>
      <trkpt lat="42.5524750" lon="-2.2765800">
        <ele>457.9</ele>
        <time>2020-03-29T18:08:31Z</time>
      </trkpt>
      <trkpt lat="42.5524240" lon="-2.2766560">
        <ele>458.2</ele>
        <time>2020-03-29T18:08:33Z</time>
      </trkpt>
      <trkpt lat="42.5523730" lon="-2.2767320">
        <ele>458.4</ele>
        <time>2020-03-29T18:08:35Z</time>
      </trkpt>
      <trkpt lat="42.5522300" lon="-2.2769450">
        <ele>458.9</ele>
        <time>2020-03-29T18:08:37Z</time>
      </trkpt>
      <trkpt lat="42.5521800" lon="-2.2770220">
        <ele>459.2</ele>
        <time>2020-03-29T18:08:39Z</time>
      </trkpt>
      <trkpt lat="42.5521300" lon="-2.2770990">
        <ele>459.4</ele>
        <time>2020-03-29T18:08:41Z</time>
      </trkpt>
      <trkpt lat="42.5520810" lon="-2.2771740">
        <ele>459.7</ele>
        <time>2020-03-29T18:08:43Z</time>
      </trkpt>
      <trkpt lat="42.5519750" lon="-2.2773440">
        <ele>460.3</ele>
        <time>2020-03-29T18:08:45Z</time>
      </trkpt>
      <trkpt lat="42.5519040" lon="-2.2774670">
        <ele>460.6</ele>
        <time>2020-03-29T18:08:47Z</time>
      </trkpt>
      <trkpt lat="42.5518710" lon="-2.2775560">
        <ele>460.8</ele>
        <time>2020-03-29T18:08:49Z</time>
      </trkpt>
      <trkpt lat="42.5518390" lon="-2.2776420">
        <ele>461.1</ele>
        <time>2020-03-29T18:08:51Z</time>
      </trkpt>
      <trkpt lat="42.5517900" lon="-2.2777940">
        <ele>461.5</ele>
        <time>2020-03-29T18:08:53Z</time>
      </trkpt>
      <trkpt lat="42.5517680" lon="-2.2778780">
        <ele>461.8</ele>
        <time>2020-03-29T18:08:55Z</time>
      </trkpt>
      <trkpt lat="42.5517450" lon="-2.2779610">
        <ele>462.0</ele>
        <time>2020-03-29T18:08:57Z</time>
      </trkpt>
      <trkpt lat="42.5516920" lon="-2.2781570">
        <ele>462.6</ele>
        <time>2020-03-29T18:08:59Z</time>
      </trkpt>
      <trkpt lat="42.5516710" lon="-2.2782360">
        <ele>462.8</ele>
        <time>2020-03-29T18:09:01Z</time>
      </trkpt>
      <trkpt lat="42.5516490" lon="-2.2783160">
        <ele>463.1</ele>
        <time>2020-03-29T18:09:03Z</time>
      </trkpt>
      <trkpt lat="42.5516270" lon="-2.2783940">
        <ele>463.3</ele>
        <time>2020-03-29T18:09:05Z</time>
      </trkpt>
      <trkpt lat="42.5516060" lon="-2.2784710">
        <ele>463.6</ele>
        <time>2020-03-29T18:09:07Z</time>
      </trkpt>
      <trkpt lat="42.5515590" lon="-2.2786710">
        <ele>464.3</ele>
        <time>2020-03-29T18:09:09Z</time>
      </trkpt>
      <trkpt lat="42.5515450" lon="-2.2787510">
        <ele>464.6</ele>
        <time>2020-03-29T18:09:11Z</time>
      </trkpt>
      <trkpt lat="42.5515270" lon="-2.2788830">
        <ele>465.1</ele>
        <time>2020-03-29T18:09:13Z</time>
      </trkpt>
      <trkpt lat="42.5515190" lon="-2.2789630">
        <ele>465.5</ele>
        <time>2020-03-29T18:09:15Z</time>
      </trkpt>
      <trkpt lat="42.5515020" lon="-2.2791240">
        <ele>466.2</ele>
        <time>2020-03-29T18:09:17Z</time>
      </trkpt>
      <trkpt lat="42.5514970" lon="-2.2792090">
        <ele>466.5</ele>
        <time>2020-03-29T18:09:19Z</time>
      </trkpt>
      <trkpt lat="42.5514930" lon="-2.2792840">
        <ele>466.9</ele>
        <time>2020-03-29T18:09:21Z</time>
      </trkpt>
      <trkpt lat="42.5514890" lon="-2.2793580">
        <ele>467.2</ele>
        <time>2020-03-29T18:09:23Z</time>
      </trkpt>
      <trkpt lat="42.5514860" lon="-2.2794300">
        <ele>467.6</ele>
        <time>2020-03-29T18:09:25Z</time>
      </trkpt>
      <trkpt lat="42.5514820" lon="-2.2795010">
        <ele>467.9</ele>
        <time>2020-03-29T18:09:27Z</time>
      </trkpt>
      <trkpt lat="42.5514730" lon="-2.2797000">
        <ele>468.9</ele>
        <time>2020-03-29T18:09:29Z</time>
      </trkpt>
      <trkpt lat="42.5514700" lon="-2.2797690">
        <ele>469.2</ele>
        <time>2020-03-29T18:09:31Z</time>
      </trkpt>
      <trkpt lat="42.5514680" lon="-2.2798390">
        <ele>469.6</ele>
        <time>2020-03-29T18:09:33Z</time>
      </trkpt>
      <trkpt lat="42.5514650" lon="-2.2799090">
        <ele>470.0</ele>
        <time>2020-03-29T18:09:35Z</time>
      </trkpt>
      <trkpt lat="42.5514620" lon="-2.2800840">
        <ele>470.8</ele>
        <time>2020-03-29T18:09:37Z</time>
      </trkpt>
      <trkpt lat="42.5514650" lon="-2.2801540">
        <ele>471.2</ele>
        <time>2020-03-29T18:09:39Z</time>
      </trkpt>
      <trkpt lat="42.5514670" lon="-2.2802240">
        <ele>471.5</ele>
        <time>2020-03-29T18:09:41Z</time>
      </trkpt>
      <trkpt lat="42.5514770" lon="-2.2803610">
        <ele>472.2</ele>
        <time>2020-03-29T18:09:43Z</time>
      </trkpt>
      <trkpt lat="42.5514860" lon="-2.2804300">
        <ele>472.6</ele>
        <time>2020-03-29T18:09:45Z</time>
      </trkpt>
      <trkpt lat="42.5515060" lon="-2.2805590">
        <ele>473.4</ele>
        <time>2020-03-29T18:09:47Z</time>
      </trkpt>
      <trkpt lat="42.5515220" lon="-2.2806260">
        <ele>473.7</ele>
        <time>2020-03-29T18:09:49Z</time>
      </trkpt>
      <trkpt lat="42.5515380" lon="-2.2806940">
        <ele>474.1</ele>
        <time>2020-03-29T18:09:51Z</time>
      </trkpt>
      <trkpt lat="42.5515720" lon="-2.2808280">
        <ele>474.8</ele>
        <time>2020-03-29T18:09:53Z</time>
      </trkpt>
      <trkpt lat="42.5515930" lon="-2.2808960">
        <ele>475.2</ele>
        <time>2020-03-29T18:09:55Z</time>
      </trkpt>
      <trkpt lat="42.5516130" lon="-2.2809650">
        <ele>475.7</ele>
        <time>2020-03-29T18:09:57Z</time>
      </trkpt>
      <trkpt lat="42.5516330" lon="-2.2810330">
        <ele>476.2</ele>
        <time>2020-03-29T18:09:59Z</time>
      </trkpt>
      <trkpt lat="42.5516530" lon="-2.2811000">
        <ele>476.6</ele>
        <time>2020-03-29T18:10:01Z</time>
      </trkpt>
      <trkpt lat="42.5517110" lon="-2.2812960">
        <ele>477.8</ele>
        <time>2020-03-29T18:10:03Z</time>
      </trkpt>
      <trkpt lat="42.5517290" lon="-2.2813610">
        <ele>478.2</ele>
        <time>2020-03-29T18:10:05Z</time>
      </trkpt>
      <trkpt lat="42.5517490" lon="-2.2814260">
        <ele>478.7</ele>
        <time>2020-03-29T18:10:07Z</time>
      </trkpt>
      <trkpt lat="42.5517790" lon="-2.2815580">
        <ele>479.5</ele>
        <time>2020-03-29T18:10:09Z</time>
      </trkpt>
      <trkpt lat="42.5517880" lon="-2.2816270">
        <ele>480.0</ele>
        <time>2020-03-29T18:10:11Z</time>
      </trkpt>
      <trkpt lat="42.5518000" lon="-2.2817540">
        <ele>480.8</ele>
        <time>2020-03-29T18:10:13Z</time>
      </trkpt>
      <trkpt lat="42.5517990" lon="-2.2818240">
        <ele>481.2</ele>
        <time>2020-03-29T18:10:15Z</time>
      </trkpt>
      <trkpt lat="42.5517960" lon="-2.2819400">
        <ele>481.7</ele>
        <time>2020-03-29T18:10:17Z</time>
      </trkpt>
      <trkpt lat="42.5517870" lon="-2.2820090">
        <ele>482.1</ele>
        <time>2020-03-29T18:10:19Z</time>
      </trkpt>
      <trkpt lat="42.5517710" lon="-2.2821320">
        <ele>482.7</ele>
        <time>2020-03-29T18:10:21Z</time>
      </trkpt>
      <trkpt lat="42.5517550" lon="-2.2821990">
        <ele>483.0</ele>
        <time>2020-03-29T18:10:23Z</time>
      </trkpt>
      <trkpt lat="42.5517400" lon="-2.2822650">
        <ele>483.4</ele>
        <time>2020-03-29T18:10:25Z</time>
      </trkpt>
      <trkpt lat="42.5517060" lon="-2.2823850">
        <ele>484.0</ele>
        <time>2020-03-29T18:10:27Z</time>
      </trkpt>
      <trkpt lat="42.5516850" lon="-2.2824500">
        <ele>484.4</ele>
        <time>2020-03-29T18:10:29Z</time>
      </trkpt>
      <trkpt lat="42.5516630" lon="-2.2825160">
        <ele>484.8</ele>
        <time>2020-03-29T18:10:31Z</time>
      </trkpt>
      <trkpt lat="42.5516410" lon="-2.2825820">
        <ele>485.1</ele>
        <time>2020-03-29T18:10:33Z</time>
      </trkpt>
      <trkpt lat="42.5516200" lon="-2.2826480">
        <ele>485.5</ele>
        <time>2020-03-29T18:10:35Z</time>
      </trkpt>
      <trkpt lat="42.5515980" lon="-2.2827130">
        <ele>485.8</ele>
        <time>2020-03-29T18:10:37Z</time>
      </trkpt>
      <trkpt lat="42.5515770" lon="-2.2827790">
        <ele>486.1</ele>
        <time>2020-03-29T18:10:39Z</time>
      </trkpt>
      <trkpt lat="42.5515560" lon="-2.2828430">
        <ele>486.5</ele>
        <time>2020-03-29T18:10:41Z</time>
      </trkpt>
      <trkpt lat="42.5514690" lon="-2.2831070">
        <ele>487.8</ele>
        <time>2020-03-29T18:10:43Z</time>
      </trkpt>
      <trkpt lat="42.5514490" lon="-2.2831710">
        <ele>488.2</ele>
        <time>2020-03-29T18:10:45Z</time>
      </trkpt>
      <trkpt lat="42.5514280" lon="-2.2832350">
        <ele>488.5</ele>
        <time>2020-03-29T18:10:47Z</time>
      </trkpt>
      <trkpt lat="42.5513850" lon="-2.2833620">
        <ele>489.4</ele>
        <time>2020-03-29T18:10:49Z</time>
      </trkpt>
      <trkpt lat="42.5513560" lon="-2.2834190">
        <ele>489.8</ele>
        <time>2020-03-29T18:10:51Z</time>
      </trkpt>
      <trkpt lat="42.5513030" lon="-2.2835080">
        <ele>490.5</ele>
        <time>2020-03-29T18:10:53Z</time>
      </trkpt>
      <trkpt lat="42.5512500" lon="-2.2835810">
        <ele>491.1</ele>
        <time>2020-03-29T18:10:55Z</time>
      </trkpt>
      <trkpt lat="42.5512150" lon="-2.2836170">
        <ele>491.4</ele>
        <time>2020-03-29T18:10:57Z</time>
      </trkpt>
      <trkpt lat="42.5511610" lon="-2.2836710">
        <ele>491.9</ele>
        <time>2020-03-29T18:10:59Z</time>
      </trkpt>
      <trkpt lat="42.5511280" lon="-2.2837010">
        <ele>492.6</ele>
        <time>2020-03-29T18:11:01Z</time>
      </trkpt>
      <trkpt lat="42.5510930" lon="-2.2837310">
        <ele>493.3</ele>
        <time>2020-03-29T18:11:03Z</time>
      </trkpt>
      <trkpt lat="42.5510290" lon="-2.2837920">
        <ele>494.6</ele>
        <time>2020-03-29T18:11:05Z</time>
      </trkpt>
      <trkpt lat="42.5509950" lon="-2.2838280">
        <ele>495.2</ele>
        <time>2020-03-29T18:11:07Z</time>
      </trkpt>
      <trkpt lat="42.5509600" lon="-2.2838640">
        <ele>495.9</ele>
        <time>2020-03-29T18:11:09Z</time>
      </trkpt>
      <trkpt lat="42.5508900" lon="-2.2839410">
        <ele>497.3</ele>
        <time>2020-03-29T18:11:11Z</time>
      </trkpt>
      <trkpt lat="42.5508570" lon="-2.2839810">
        <ele>497.9</ele>
        <time>2020-03-29T18:11:13Z</time>
      </trkpt>
      <trkpt lat="42.5507960" lon="-2.2840560">
        <ele>499.1</ele>
        <time>2020-03-29T18:11:15Z</time>
      </trkpt>
      <trkpt lat="42.5507660" lon="-2.2841000">
        <ele>499.4</ele>
        <time>2020-03-29T18:11:17Z</time>
      </trkpt>
      <trkpt lat="42.5507370" lon="-2.2841450">
        <ele>499.7</ele>
        <time>2020-03-29T18:11:19Z</time>
      </trkpt>
      <trkpt lat="42.5506770" lon="-2.2842360">
        <ele>500.3</ele>
        <time>2020-03-29T18:11:21Z</time>
      </trkpt>
      <trkpt lat="42.5506500" lon="-2.2842820">
        <ele>500.5</ele>
        <time>2020-03-29T18:11:23Z</time>
      </trkpt>
      <trkpt lat="42.5506230" lon="-2.2843280">
        <ele>500.8</ele>
        <time>2020-03-29T18:11:25Z</time>
      </trkpt>
      <trkpt lat="42.5505970" lon="-2.2843750">
        <ele>501.1</ele>
        <time>2020-03-29T18:11:27Z</time>
      </trkpt>
      <trkpt lat="42.5505350" lon="-2.2844860">
        <ele>501.7</ele>
        <time>2020-03-29T18:11:29Z</time>
      </trkpt>
      <trkpt lat="42.5504980" lon="-2.2845570">
        <ele>502.0</ele>
        <time>2020-03-29T18:11:31Z</time>
      </trkpt>
      <trkpt lat="42.5504210" lon="-2.2846930">
        <ele>502.6</ele>
        <time>2020-03-29T18:11:33Z</time>
      </trkpt>
      <trkpt lat="42.5503470" lon="-2.2847860">
        <ele>503.2</ele>
        <time>2020-03-29T18:11:35Z</time>
      </trkpt>
      <trkpt lat="42.5502720" lon="-2.2848450">
        <ele>503.6</ele>
        <time>2020-03-29T18:11:37Z</time>
      </trkpt>
      <trkpt lat="42.5501880" lon="-2.2848890">
        <ele>503.7</ele>
        <time>2020-03-29T18:11:39Z</time>
      </trkpt>
      <trkpt lat="42.5501190" lon="-2.2849240">
        <ele>503.8</ele>
        <time>2020-03-29T18:11:41Z</time>
      </trkpt>
      <trkpt lat="42.5499870" lon="-2.2849880">
        <ele>504.0</ele>
        <time>2020-03-29T18:11:43Z</time>
      </trkpt>
      <trkpt lat="42.5499180" lon="-2.2850180">
        <ele>504.0</ele>
        <time>2020-03-29T18:11:45Z</time>
      </trkpt>
      <trkpt lat="42.5498080" lon="-2.2850660">
        <ele>504.1</ele>
        <time>2020-03-29T18:11:47Z</time>
      </trkpt>
      <trkpt lat="42.5497360" lon="-2.2851000">
        <ele>504.3</ele>
        <time>2020-03-29T18:11:49Z</time>
      </trkpt>
      <trkpt lat="42.5496060" lon="-2.2851570">
        <ele>504.6</ele>
        <time>2020-03-29T18:11:51Z</time>
      </trkpt>
      <trkpt lat="42.5494940" lon="-2.2851990">
        <ele>504.8</ele>
        <time>2020-03-29T18:11:53Z</time>
      </trkpt>
      <trkpt lat="42.5494180" lon="-2.2852110">
        <ele>505.0</ele>
        <time>2020-03-29T18:11:55Z</time>
      </trkpt>
      <trkpt lat="42.5493070" lon="-2.2852170">
        <ele>505.2</ele>
        <time>2020-03-29T18:11:57Z</time>
      </trkpt>
      <trkpt lat="42.5491970" lon="-2.2852070">
        <ele>505.5</ele>
        <time>2020-03-29T18:11:59Z</time>
      </trkpt>
      <trkpt lat="42.5491190" lon="-2.2851940">
        <ele>505.6</ele>
        <time>2020-03-29T18:12:01Z</time>
      </trkpt>
      <trkpt lat="42.5490410" lon="-2.2851820">
        <ele>505.7</ele>
        <time>2020-03-29T18:12:03Z</time>
      </trkpt>
      <trkpt lat="42.5488850" lon="-2.2851570">
        <ele>505.9</ele>
        <time>2020-03-29T18:12:05Z</time>
      </trkpt>
      <trkpt lat="42.5488060" lon="-2.2851440">
        <ele>505.9</ele>
        <time>2020-03-29T18:12:07Z</time>
      </trkpt>
      <trkpt lat="42.5487250" lon="-2.2851300">
        <ele>505.9</ele>
        <time>2020-03-29T18:12:09Z</time>
      </trkpt>
      <trkpt lat="42.5485570" lon="-2.2851030">
        <ele>505.9</ele>
        <time>2020-03-29T18:12:11Z</time>
      </trkpt>
      <trkpt lat="42.5484660" lon="-2.2850880">
        <ele>505.9</ele>
        <time>2020-03-29T18:12:13Z</time>
      </trkpt>
      <trkpt lat="42.5483700" lon="-2.2850720">
        <ele>505.9</ele>
        <time>2020-03-29T18:12:15Z</time>
      </trkpt>
      <trkpt lat="42.5481410" lon="-2.2850350">
        <ele>505.8</ele>
        <time>2020-03-29T18:12:17Z</time>
      </trkpt>
      <trkpt lat="42.5480080" lon="-2.2850310">
        <ele>505.6</ele>
        <time>2020-03-29T18:12:19Z</time>
      </trkpt>
      <trkpt lat="42.5478840" lon="-2.2850740">
        <ele>505.3</ele>
        <time>2020-03-29T18:12:21Z</time>
      </trkpt>
      <trkpt lat="42.5477670" lon="-2.2852150">
        <ele>504.9</ele>
        <time>2020-03-29T18:12:23Z</time>
      </trkpt>
      <trkpt lat="42.5477230" lon="-2.2854120">
        <ele>504.5</ele>
        <time>2020-03-29T18:12:25Z</time>
      </trkpt>
      <trkpt lat="42.5477220" lon="-2.2856160">
        <ele>504.0</ele>
        <time>2020-03-29T18:12:27Z</time>
      </trkpt>
      <trkpt lat="42.5477290" lon="-2.2858140">
        <ele>503.7</ele>
        <time>2020-03-29T18:12:29Z</time>
      </trkpt>
      <trkpt lat="42.5477360" lon="-2.2859620">
        <ele>503.4</ele>
        <time>2020-03-29T18:12:31Z</time>
      </trkpt>
      <trkpt lat="42.5477420" lon="-2.2861040">
        <ele>503.2</ele>
        <time>2020-03-29T18:12:33Z</time>
      </trkpt>
      <trkpt lat="42.5477550" lon="-2.2863780">
        <ele>502.9</ele>
        <time>2020-03-29T18:12:35Z</time>
      </trkpt>
      <trkpt lat="42.5477650" lon="-2.2865790">
        <ele>502.8</ele>
        <time>2020-03-29T18:12:37Z</time>
      </trkpt>
      <trkpt lat="42.5477770" lon="-2.2867750">
        <ele>502.8</ele>
        <time>2020-03-29T18:12:39Z</time>
      </trkpt>
      <trkpt lat="42.5477950" lon="-2.2869640">
        <ele>502.8</ele>
        <time>2020-03-29T18:12:41Z</time>
      </trkpt>
      <trkpt lat="42.5478250" lon="-2.2871220">
        <ele>502.8</ele>
        <time>2020-03-29T18:12:43Z</time>
      </trkpt>
      <trkpt lat="42.5478680" lon="-2.2872900">
        <ele>502.8</ele>
        <time>2020-03-29T18:12:45Z</time>
      </trkpt>
      <trkpt lat="42.5479160" lon="-2.2874490">
        <ele>502.9</ele>
        <time>2020-03-29T18:12:47Z</time>
      </trkpt>
      <trkpt lat="42.5479550" lon="-2.2875690">
        <ele>503.0</ele>
        <time>2020-03-29T18:12:49Z</time>
      </trkpt>
      <trkpt lat="42.5479930" lon="-2.2876900">
        <ele>503.2</ele>
        <time>2020-03-29T18:12:51Z</time>
      </trkpt>
      <trkpt lat="42.5480740" lon="-2.2879510">
        <ele>503.8</ele>
        <time>2020-03-29T18:12:53Z</time>
      </trkpt>
      <trkpt lat="42.5481120" lon="-2.2881170">
        <ele>504.2</ele>
        <time>2020-03-29T18:12:55Z</time>
      </trkpt>
      <trkpt lat="42.5481190" lon="-2.2882780">
        <ele>504.7</ele>
        <time>2020-03-29T18:12:57Z</time>
      </trkpt>
      <trkpt lat="42.5480840" lon="-2.2884740">
        <ele>505.2</ele>
        <time>2020-03-29T18:12:59Z</time>
      </trkpt>
      <trkpt lat="42.5480420" lon="-2.2885860">
        <ele>505.6</ele>
        <time>2020-03-29T18:13:01Z</time>
      </trkpt>
      <trkpt lat="42.5479700" lon="-2.2887590">
        <ele>506.1</ele>
        <time>2020-03-29T18:13:03Z</time>
      </trkpt>
      <trkpt lat="42.5479210" lon="-2.2888610">
        <ele>506.4</ele>
        <time>2020-03-29T18:13:05Z</time>
      </trkpt>
      <trkpt lat="42.5478460" lon="-2.2890350">
        <ele>506.9</ele>
        <time>2020-03-29T18:13:07Z</time>
      </trkpt>
      <trkpt lat="42.5477900" lon="-2.2891970">
        <ele>507.3</ele>
        <time>2020-03-29T18:13:09Z</time>
      </trkpt>
      <trkpt lat="42.5477670" lon="-2.2893100">
        <ele>507.5</ele>
        <time>2020-03-29T18:13:11Z</time>
      </trkpt>
      <trkpt lat="42.5477420" lon="-2.2894740">
        <ele>507.8</ele>
        <time>2020-03-29T18:13:13Z</time>
      </trkpt>
      <trkpt lat="42.5477350" lon="-2.2896420">
        <ele>508.2</ele>
        <time>2020-03-29T18:13:15Z</time>
      </trkpt>
      <trkpt lat="42.5477360" lon="-2.2897650">
        <ele>508.4</ele>
        <time>2020-03-29T18:13:17Z</time>
      </trkpt>
      <trkpt lat="42.5477380" lon="-2.2899790">
        <ele>509.0</ele>
        <time>2020-03-29T18:13:19Z</time>
      </trkpt>
      <trkpt lat="42.5477390" lon="-2.2901070">
        <ele>509.3</ele>
        <time>2020-03-29T18:13:21Z</time>
      </trkpt>
      <trkpt lat="42.5477340" lon="-2.2903370">
        <ele>509.1</ele>
        <time>2020-03-29T18:13:23Z</time>
      </trkpt>
      <trkpt lat="42.5476950" lon="-2.2905010">
        <ele>508.2</ele>
        <time>2020-03-29T18:13:25Z</time>
      </trkpt>
      <trkpt lat="42.5476190" lon="-2.2906370">
        <ele>507.5</ele>
        <time>2020-03-29T18:13:27Z</time>
      </trkpt>
      <trkpt lat="42.5475140" lon="-2.2907350">
        <ele>507.0</ele>
        <time>2020-03-29T18:13:29Z</time>
      </trkpt>
      <trkpt lat="42.5474000" lon="-2.2907650">
        <ele>506.7</ele>
        <time>2020-03-29T18:13:31Z</time>
      </trkpt>
      <trkpt lat="42.5472820" lon="-2.2907380">
        <ele>506.6</ele>
        <time>2020-03-29T18:13:33Z</time>
      </trkpt>
      <trkpt lat="42.5471750" lon="-2.2906590">
        <ele>506.6</ele>
        <time>2020-03-29T18:13:35Z</time>
      </trkpt>
      <trkpt lat="42.5471040" lon="-2.2905900">
        <ele>506.7</ele>
        <time>2020-03-29T18:13:37Z</time>
      </trkpt>
      <trkpt lat="42.5469800" lon="-2.2904620">
        <ele>506.5</ele>
        <time>2020-03-29T18:13:39Z</time>
      </trkpt>
      <trkpt lat="42.5469130" lon="-2.2903880">
        <ele>506.2</ele>
        <time>2020-03-29T18:13:41Z</time>
      </trkpt>
      <trkpt lat="42.5468480" lon="-2.2903150">
        <ele>505.9</ele>
        <time>2020-03-29T18:13:43Z</time>
      </trkpt>
      <trkpt lat="42.5466970" lon="-2.2901470">
        <ele>506.0</ele>
        <time>2020-03-29T18:13:45Z</time>
      </trkpt>
      <trkpt lat="42.5466350" lon="-2.2900780">
        <ele>506.1</ele>
        <time>2020-03-29T18:13:47Z</time>
      </trkpt>
      <trkpt lat="42.5465780" lon="-2.2900150">
        <ele>506.3</ele>
        <time>2020-03-29T18:13:49Z</time>
      </trkpt>
      <trkpt lat="42.5465240" lon="-2.2899540">
        <ele>506.6</ele>
        <time>2020-03-29T18:13:51Z</time>
      </trkpt>
      <trkpt lat="42.5464720" lon="-2.2898970">
        <ele>506.9</ele>
        <time>2020-03-29T18:13:53Z</time>
      </trkpt>
      <trkpt lat="42.5464210" lon="-2.2898410">
        <ele>507.2</ele>
        <time>2020-03-29T18:13:55Z</time>
      </trkpt>
      <trkpt lat="42.5463710" lon="-2.2897850">
        <ele>507.5</ele>
        <time>2020-03-29T18:13:57Z</time>
      </trkpt>
      <trkpt lat="42.5463220" lon="-2.2897300">
        <ele>507.8</ele>
        <time>2020-03-29T18:13:59Z</time>
      </trkpt>
      <trkpt lat="42.5461330" lon="-2.2895200">
        <ele>509.0</ele>
        <time>2020-03-29T18:14:01Z</time>
      </trkpt>
      <trkpt lat="42.5460870" lon="-2.2894680">
        <ele>509.3</ele>
        <time>2020-03-29T18:14:03Z</time>
      </trkpt>
      <trkpt lat="42.5460410" lon="-2.2894170">
        <ele>509.6</ele>
        <time>2020-03-29T18:14:05Z</time>
      </trkpt>
      <trkpt lat="42.5459960" lon="-2.2893670">
        <ele>509.9</ele>
        <time>2020-03-29T18:14:07Z</time>
      </trkpt>
      <trkpt lat="42.5459510" lon="-2.2893170">
        <ele>510.2</ele>
        <time>2020-03-29T18:14:09Z</time>
      </trkpt>
      <trkpt lat="42.5459060" lon="-2.2892670">
        <ele>510.5</ele>
        <time>2020-03-29T18:14:11Z</time>
      </trkpt>
      <trkpt lat="42.5458610" lon="-2.2892170">
        <ele>510.8</ele>
        <time>2020-03-29T18:14:13Z</time>
      </trkpt>
      <trkpt lat="42.5458160" lon="-2.2891660">
        <ele>511.0</ele>
        <time>2020-03-29T18:14:15Z</time>
      </trkpt>
      <trkpt lat="42.5456300" lon="-2.2889590">
        <ele>512.5</ele>
        <time>2020-03-29T18:14:17Z</time>
      </trkpt>
      <trkpt lat="42.5455860" lon="-2.2889080">
        <ele>512.9</ele>
        <time>2020-03-29T18:14:19Z</time>
      </trkpt>
      <trkpt lat="42.5455440" lon="-2.2888580">
        <ele>513.2</ele>
        <time>2020-03-29T18:14:21Z</time>
      </trkpt>
      <trkpt lat="42.5455020" lon="-2.2888100">
        <ele>513.5</ele>
        <time>2020-03-29T18:14:23Z</time>
      </trkpt>
      <trkpt lat="42.5454610" lon="-2.2887620">
        <ele>513.9</ele>
        <time>2020-03-29T18:14:25Z</time>
      </trkpt>
      <trkpt lat="42.5454210" lon="-2.2887150">
        <ele>514.3</ele>
        <time>2020-03-29T18:14:27Z</time>
      </trkpt>
      <trkpt lat="42.5453810" lon="-2.2886690">
        <ele>514.6</ele>
        <time>2020-03-29T18:14:29Z</time>
      </trkpt>
      <trkpt lat="42.5453400" lon="-2.2886220">
        <ele>514.9</ele>
        <time>2020-03-29T18:14:31Z</time>
      </trkpt>
      <trkpt lat="42.5451870" lon="-2.2884430">
        <ele>516.2</ele>
        <time>2020-03-29T18:14:33Z</time>
      </trkpt>
      <trkpt lat="42.5451460" lon="-2.2883980">
        <ele>516.5</ele>
        <time>2020-03-29T18:14:35Z</time>
      </trkpt>
      <trkpt lat="42.5450720" lon="-2.2883160">
        <ele>517.1</ele>
        <time>2020-03-29T18:14:37Z</time>
      </trkpt>
      <trkpt lat="42.5450290" lon="-2.2882770">
        <ele>517.5</ele>
        <time>2020-03-29T18:14:39Z</time>
      </trkpt>
      <trkpt lat="42.5449570" lon="-2.2882500">
        <ele>518.1</ele>
        <time>2020-03-29T18:14:41Z</time>
      </trkpt>
      <trkpt lat="42.5448760" lon="-2.2882630">
        <ele>519.5</ele>
        <time>2020-03-29T18:14:43Z</time>
      </trkpt>
      <trkpt lat="42.5448170" lon="-2.2882980">
        <ele>520.3</ele>
        <time>2020-03-29T18:14:45Z</time>
      </trkpt>
      <trkpt lat="42.5447850" lon="-2.2883640">
        <ele>520.8</ele>
        <time>2020-03-29T18:14:47Z</time>
      </trkpt>
      <trkpt lat="42.5447670" lon="-2.2884530">
        <ele>521.4</ele>
        <time>2020-03-29T18:14:49Z</time>
      </trkpt>
      <trkpt lat="42.5447600" lon="-2.2885210">
        <ele>521.8</ele>
        <time>2020-03-29T18:14:51Z</time>
      </trkpt>
      <trkpt lat="42.5447530" lon="-2.2885900">
        <ele>522.2</ele>
        <time>2020-03-29T18:14:53Z</time>
      </trkpt>
      <trkpt lat="42.5447380" lon="-2.2887280">
        <ele>523.0</ele>
        <time>2020-03-29T18:14:55Z</time>
      </trkpt>
      <trkpt lat="42.5447310" lon="-2.2887990">
        <ele>523.4</ele>
        <time>2020-03-29T18:14:57Z</time>
      </trkpt>
      <trkpt lat="42.5447230" lon="-2.2888690">
        <ele>523.8</ele>
        <time>2020-03-29T18:14:59Z</time>
      </trkpt>
      <trkpt lat="42.5447150" lon="-2.2889380">
        <ele>524.2</ele>
        <time>2020-03-29T18:15:01Z</time>
      </trkpt>
      <trkpt lat="42.5447080" lon="-2.2890070">
        <ele>524.6</ele>
        <time>2020-03-29T18:15:03Z</time>
      </trkpt>
      <trkpt lat="42.5447010" lon="-2.2890760">
        <ele>525.0</ele>
        <time>2020-03-29T18:15:05Z</time>
      </trkpt>
      <trkpt lat="42.5446930" lon="-2.2891430">
        <ele>525.4</ele>
        <time>2020-03-29T18:15:07Z</time>
      </trkpt>
      <trkpt lat="42.5446860" lon="-2.2892090">
        <ele>525.8</ele>
        <time>2020-03-29T18:15:09Z</time>
      </trkpt>
      <trkpt lat="42.5446560" lon="-2.2894720">
        <ele>527.3</ele>
        <time>2020-03-29T18:15:11Z</time>
      </trkpt>
      <trkpt lat="42.5446470" lon="-2.2895410">
        <ele>527.7</ele>
        <time>2020-03-29T18:15:13Z</time>
      </trkpt>
      <trkpt lat="42.5446380" lon="-2.2896100">
        <ele>528.1</ele>
        <time>2020-03-29T18:15:15Z</time>
      </trkpt>
      <trkpt lat="42.5446290" lon="-2.2896790">
        <ele>528.6</ele>
        <time>2020-03-29T18:15:17Z</time>
      </trkpt>
      <trkpt lat="42.5446200" lon="-2.2897450">
        <ele>529.1</ele>
        <time>2020-03-29T18:15:19Z</time>
      </trkpt>
      <trkpt lat="42.5446110" lon="-2.2898120">
        <ele>529.5</ele>
        <time>2020-03-29T18:15:21Z</time>
      </trkpt>
      <trkpt lat="42.5446030" lon="-2.2898770">
        <ele>529.9</ele>
        <time>2020-03-29T18:15:23Z</time>
      </trkpt>
      <trkpt lat="42.5445950" lon="-2.2899410">
        <ele>530.3</ele>
        <time>2020-03-29T18:15:25Z</time>
      </trkpt>
      <trkpt lat="42.5445860" lon="-2.2900050">
        <ele>530.7</ele>
        <time>2020-03-29T18:15:27Z</time>
      </trkpt>
      <trkpt lat="42.5445780" lon="-2.2900670">
        <ele>531.1</ele>
        <time>2020-03-29T18:15:29Z</time>
      </trkpt>
      <trkpt lat="42.5445700" lon="-2.2901300">
        <ele>531.5</ele>
        <time>2020-03-29T18:15:31Z</time>
      </trkpt>
      <trkpt lat="42.5445280" lon="-2.2904520">
        <ele>533.4</ele>
        <time>2020-03-29T18:15:33Z</time>
      </trkpt>
      <trkpt lat="42.5445200" lon="-2.2905140">
        <ele>533.8</ele>
        <time>2020-03-29T18:15:35Z</time>
      </trkpt>
      <trkpt lat="42.5445120" lon="-2.2905770">
        <ele>534.1</ele>
        <time>2020-03-29T18:15:37Z</time>
      </trkpt>
      <trkpt lat="42.5445040" lon="-2.2906390">
        <ele>534.4</ele>
        <time>2020-03-29T18:15:39Z</time>
      </trkpt>
      <trkpt lat="42.5444860" lon="-2.2907780">
        <ele>535.2</ele>
        <time>2020-03-29T18:15:41Z</time>
      </trkpt>
      <trkpt lat="42.5444790" lon="-2.2908390">
        <ele>535.5</ele>
        <time>2020-03-29T18:15:43Z</time>
      </trkpt>
      <trkpt lat="42.5444710" lon="-2.2909020">
        <ele>535.7</ele>
        <time>2020-03-29T18:15:45Z</time>
      </trkpt>
      <trkpt lat="42.5444630" lon="-2.2909640">
        <ele>536.0</ele>
        <time>2020-03-29T18:15:47Z</time>
      </trkpt>
      <trkpt lat="42.5444560" lon="-2.2910280">
        <ele>536.3</ele>
        <time>2020-03-29T18:15:49Z</time>
      </trkpt>
      <trkpt lat="42.5444330" lon="-2.2912140">
        <ele>537.2</ele>
        <time>2020-03-29T18:15:51Z</time>
      </trkpt>
      <trkpt lat="42.5444260" lon="-2.2912770">
        <ele>537.6</ele>
        <time>2020-03-29T18:15:53Z</time>
      </trkpt>
      <trkpt lat="42.5444190" lon="-2.2913410">
        <ele>537.9</ele>
        <time>2020-03-29T18:15:55Z</time>
      </trkpt>
      <trkpt lat="42.5443990" lon="-2.2914620">
        <ele>538.8</ele>
        <time>2020-03-29T18:15:57Z</time>
      </trkpt>
      <trkpt lat="42.5443840" lon="-2.2915230">
        <ele>539.2</ele>
        <time>2020-03-29T18:15:59Z</time>
      </trkpt>
      <trkpt lat="42.5443530" lon="-2.2916280">
        <ele>539.9</ele>
        <time>2020-03-29T18:16:01Z</time>
      </trkpt>
      <trkpt lat="42.5443320" lon="-2.2916860">
        <ele>540.4</ele>
        <time>2020-03-29T18:16:03Z</time>
      </trkpt>
      <trkpt lat="42.5442900" lon="-2.2917850">
        <ele>541.1</ele>
        <time>2020-03-29T18:16:05Z</time>
      </trkpt>
      <trkpt lat="42.5442620" lon="-2.2918400">
        <ele>541.5</ele>
        <time>2020-03-29T18:16:07Z</time>
      </trkpt>
      <trkpt lat="42.5442350" lon="-2.2918940">
        <ele>541.9</ele>
        <time>2020-03-29T18:16:09Z</time>
      </trkpt>
      <trkpt lat="42.5442080" lon="-2.2919480">
        <ele>542.2</ele>
        <time>2020-03-29T18:16:11Z</time>
      </trkpt>
      <trkpt lat="42.5441430" lon="-2.2920730">
        <ele>543.0</ele>
        <time>2020-03-29T18:16:13Z</time>
      </trkpt>
      <trkpt lat="42.5441090" lon="-2.2921350">
        <ele>543.4</ele>
        <time>2020-03-29T18:16:15Z</time>
      </trkpt>
      <trkpt lat="42.5440750" lon="-2.2921960">
        <ele>543.8</ele>
        <time>2020-03-29T18:16:17Z</time>
      </trkpt>
      <trkpt lat="42.5440420" lon="-2.2922560">
        <ele>544.2</ele>
        <time>2020-03-29T18:16:19Z</time>
      </trkpt>
      <trkpt lat="42.5440090" lon="-2.2923140">
        <ele>544.6</ele>
        <time>2020-03-29T18:16:21Z</time>
      </trkpt>
      <trkpt lat="42.5439140" lon="-2.2924870">
        <ele>545.7</ele>
        <time>2020-03-29T18:16:23Z</time>
      </trkpt>
      <trkpt lat="42.5438830" lon="-2.2925430">
        <ele>546.0</ele>
        <time>2020-03-29T18:16:25Z</time>
      </trkpt>
      <trkpt lat="42.5438530" lon="-2.2925980">
        <ele>546.4</ele>
        <time>2020-03-29T18:16:27Z</time>
      </trkpt>
      <trkpt lat="42.5438230" lon="-2.2926520">
        <ele>546.7</ele>
        <time>2020-03-29T18:16:29Z</time>
      </trkpt>
      <trkpt lat="42.5437930" lon="-2.2927060">
        <ele>547.1</ele>
        <time>2020-03-29T18:16:31Z</time>
      </trkpt>
      <trkpt lat="42.5437640" lon="-2.2927600">
        <ele>547.4</ele>
        <time>2020-03-29T18:16:33Z</time>
      </trkpt>
      <trkpt lat="42.5437340" lon="-2.2928130">
        <ele>547.7</ele>
        <time>2020-03-29T18:16:35Z</time>
      </trkpt>
      <trkpt lat="42.5437060" lon="-2.2928660">
        <ele>548.0</ele>
        <time>2020-03-29T18:16:37Z</time>
      </trkpt>
      <trkpt lat="42.5436770" lon="-2.2929180">
        <ele>548.4</ele>
        <time>2020-03-29T18:16:39Z</time>
      </trkpt>
      <trkpt lat="42.5436480" lon="-2.2929710">
        <ele>548.7</ele>
        <time>2020-03-29T18:16:41Z</time>
      </trkpt>
      <trkpt lat="42.5435160" lon="-2.2932140">
        <ele>550.1</ele>
        <time>2020-03-29T18:16:43Z</time>
      </trkpt>
      <trkpt lat="42.5434790" lon="-2.2932890">
        <ele>550.4</ele>
        <time>2020-03-29T18:16:45Z</time>
      </trkpt>
      <trkpt lat="42.5434390" lon="-2.2933680">
        <ele>550.7</ele>
        <time>2020-03-29T18:16:47Z</time>
      </trkpt>
      <trkpt lat="42.5434000" lon="-2.2934470">
        <ele>551.0</ele>
        <time>2020-03-29T18:16:49Z</time>
      </trkpt>
      <trkpt lat="42.5433600" lon="-2.2935260">
        <ele>551.3</ele>
        <time>2020-03-29T18:16:51Z</time>
      </trkpt>
      <trkpt lat="42.5433220" lon="-2.2936040">
        <ele>551.5</ele>
        <time>2020-03-29T18:16:53Z</time>
      </trkpt>
      <trkpt lat="42.5432830" lon="-2.2936800">
        <ele>551.7</ele>
        <time>2020-03-29T18:16:55Z</time>
      </trkpt>
      <trkpt lat="42.5431410" lon="-2.2939650">
        <ele>552.1</ele>
        <time>2020-03-29T18:16:57Z</time>
      </trkpt>
      <trkpt lat="42.5431050" lon="-2.2940400">
        <ele>552.2</ele>
        <time>2020-03-29T18:16:59Z</time>
      </trkpt>
      <trkpt lat="42.5430700" lon="-2.2941130">
        <ele>552.3</ele>
        <time>2020-03-29T18:17:01Z</time>
      </trkpt>
      <trkpt lat="42.5430340" lon="-2.2941870">
        <ele>552.4</ele>
        <time>2020-03-29T18:17:03Z</time>
      </trkpt>
      <trkpt lat="42.5429990" lon="-2.2942600">
        <ele>552.5</ele>
        <time>2020-03-29T18:17:05Z</time>
      </trkpt>
      <trkpt lat="42.5429640" lon="-2.2943330">
        <ele>552.6</ele>
        <time>2020-03-29T18:17:07Z</time>
      </trkpt>
      <trkpt lat="42.5429290" lon="-2.2944040">
        <ele>552.7</ele>
        <time>2020-03-29T18:17:09Z</time>
      </trkpt>
      <trkpt lat="42.5428950" lon="-2.2944740">
        <ele>552.8</ele>
        <time>2020-03-29T18:17:11Z</time>
      </trkpt>
      <trkpt lat="42.5427620" lon="-2.2947520">
        <ele>553.1</ele>
        <time>2020-03-29T18:17:13Z</time>
      </trkpt>
      <trkpt lat="42.5427290" lon="-2.2948180">
        <ele>553.2</ele>
        <time>2020-03-29T18:17:15Z</time>
      </trkpt>
      <trkpt lat="42.5426990" lon="-2.2948820">
        <ele>553.2</ele>
        <time>2020-03-29T18:17:17Z</time>
      </trkpt>
      <trkpt lat="42.5426670" lon="-2.2949490">
        <ele>553.3</ele>
        <time>2020-03-29T18:17:19Z</time>
      </trkpt>
      <trkpt lat="42.5426320" lon="-2.2950210">
        <ele>553.4</ele>
        <time>2020-03-29T18:17:21Z</time>
      </trkpt>
      <trkpt lat="42.5425960" lon="-2.2950950">
        <ele>553.5</ele>
        <time>2020-03-29T18:17:23Z</time>
      </trkpt>
      <trkpt lat="42.5425600" lon="-2.2951710">
        <ele>553.7</ele>
        <time>2020-03-29T18:17:25Z</time>
      </trkpt>
      <trkpt lat="42.5425230" lon="-2.2952480">
        <ele>553.8</ele>
        <time>2020-03-29T18:17:27Z</time>
      </trkpt>
      <trkpt lat="42.5424850" lon="-2.2953260">
        <ele>553.9</ele>
        <time>2020-03-29T18:17:29Z</time>
      </trkpt>
      <trkpt lat="42.5423480" lon="-2.2956100">
        <ele>554.4</ele>
        <time>2020-03-29T18:17:31Z</time>
      </trkpt>
      <trkpt lat="42.5423100" lon="-2.2956890">
        <ele>554.5</ele>
        <time>2020-03-29T18:17:33Z</time>
      </trkpt>
      <trkpt lat="42.5422720" lon="-2.2957690">
        <ele>554.7</ele>
        <time>2020-03-29T18:17:35Z</time>
      </trkpt>
      <trkpt lat="42.5422330" lon="-2.2958480">
        <ele>554.8</ele>
        <time>2020-03-29T18:17:37Z</time>
      </trkpt>
      <trkpt lat="42.5421950" lon="-2.2959270">
        <ele>554.9</ele>
        <time>2020-03-29T18:17:39Z</time>
      </trkpt>
      <trkpt lat="42.5421570" lon="-2.2960060">
        <ele>555.1</ele>
        <time>2020-03-29T18:17:41Z</time>
      </trkpt>
      <trkpt lat="42.5420300" lon="-2.2962710">
        <ele>556.0</ele>
        <time>2020-03-29T18:17:43Z</time>
      </trkpt>
      <trkpt lat="42.5419810" lon="-2.2963760">
        <ele>556.4</ele>
        <time>2020-03-29T18:17:45Z</time>
      </trkpt>
      <trkpt lat="42.5419300" lon="-2.2964850">
        <ele>557.0</ele>
        <time>2020-03-29T18:17:47Z</time>
      </trkpt>
      <trkpt lat="42.5418690" lon="-2.2966160">
        <ele>557.5</ele>
        <time>2020-03-29T18:17:49Z</time>
      </trkpt>
      <trkpt lat="42.5417320" lon="-2.2969040">
        <ele>556.6</ele>
        <time>2020-03-29T18:17:51Z</time>
      </trkpt>
      <trkpt lat="42.5416310" lon="-2.2971250">
        <ele>554.8</ele>
        <time>2020-03-29T18:17:53Z</time>
      </trkpt>
      <trkpt lat="42.5415580" lon="-2.2973880">
        <ele>552.6</ele>
        <time>2020-03-29T18:17:55Z</time>
      </trkpt>
      <trkpt lat="42.5415550" lon="-2.2976540">
        <ele>551.5</ele>
        <time>2020-03-29T18:17:57Z</time>
      </trkpt>
      <trkpt lat="42.5416150" lon="-2.2979620">
        <ele>550.0</ele>
        <time>2020-03-29T18:17:59Z</time>
      </trkpt>
      <trkpt lat="42.5417480" lon="-2.2982370">
        <ele>548.4</ele>
        <time>2020-03-29T18:18:01Z</time>
      </trkpt>
      <trkpt lat="42.5418660" lon="-2.2984150">
        <ele>547.4</ele>
        <time>2020-03-29T18:18:03Z</time>
      </trkpt>
      <trkpt lat="42.5420570" lon="-2.2987160">
        <ele>545.4</ele>
        <time>2020-03-29T18:18:05Z</time>
      </trkpt>
      <trkpt lat="42.5421880" lon="-2.2989350">
        <ele>544.0</ele>
        <time>2020-03-29T18:18:07Z</time>
      </trkpt>
      <trkpt lat="42.5423720" lon="-2.2992380">
        <ele>542.4</ele>
        <time>2020-03-29T18:18:09Z</time>
      </trkpt>
      <trkpt lat="42.5424620" lon="-2.2994750">
        <ele>541.4</ele>
        <time>2020-03-29T18:18:11Z</time>
      </trkpt>
      <trkpt lat="42.5424580" lon="-2.2997760">
        <ele>540.9</ele>
        <time>2020-03-29T18:18:13Z</time>
      </trkpt>
      <trkpt lat="42.5423460" lon="-2.2999930">
        <ele>540.7</ele>
        <time>2020-03-29T18:18:15Z</time>
      </trkpt>
      <trkpt lat="42.5421860" lon="-2.3000970">
        <ele>540.5</ele>
        <time>2020-03-29T18:18:17Z</time>
      </trkpt>
      <trkpt lat="42.5420410" lon="-2.3001110">
        <ele>540.4</ele>
        <time>2020-03-29T18:18:19Z</time>
      </trkpt>
      <trkpt lat="42.5419290" lon="-2.3001090">
        <ele>540.5</ele>
        <time>2020-03-29T18:18:21Z</time>
      </trkpt>
      <trkpt lat="42.5417480" lon="-2.3001000">
        <ele>540.9</ele>
        <time>2020-03-29T18:18:23Z</time>
      </trkpt>
      <trkpt lat="42.5416520" lon="-2.3000900">
        <ele>541.5</ele>
        <time>2020-03-29T18:18:25Z</time>
      </trkpt>
      <trkpt lat="42.5414930" lon="-2.3000720">
        <ele>542.3</ele>
        <time>2020-03-29T18:18:27Z</time>
      </trkpt>
      <trkpt lat="42.5414040" lon="-2.3000610">
        <ele>542.8</ele>
        <time>2020-03-29T18:18:29Z</time>
      </trkpt>
      <trkpt lat="42.5413160" lon="-2.3000500">
        <ele>543.3</ele>
        <time>2020-03-29T18:18:31Z</time>
      </trkpt>
      <trkpt lat="42.5411430" lon="-2.3000290">
        <ele>544.4</ele>
        <time>2020-03-29T18:18:33Z</time>
      </trkpt>
      <trkpt lat="42.5410620" lon="-2.3000190">
        <ele>544.7</ele>
        <time>2020-03-29T18:18:35Z</time>
      </trkpt>
      <trkpt lat="42.5409830" lon="-2.3000090">
        <ele>545.1</ele>
        <time>2020-03-29T18:18:37Z</time>
      </trkpt>
      <trkpt lat="42.5409060" lon="-2.3000000">
        <ele>545.5</ele>
        <time>2020-03-29T18:18:39Z</time>
      </trkpt>
      <trkpt lat="42.5407180" lon="-2.2999770">
        <ele>546.4</ele>
        <time>2020-03-29T18:18:41Z</time>
      </trkpt>
      <trkpt lat="42.5405980" lon="-2.2999630">
        <ele>547.0</ele>
        <time>2020-03-29T18:18:43Z</time>
      </trkpt>
      <trkpt lat="42.5405170" lon="-2.2999660">
        <ele>547.3</ele>
        <time>2020-03-29T18:18:45Z</time>
      </trkpt>
      <trkpt lat="42.5403870" lon="-2.2999900">
        <ele>547.7</ele>
        <time>2020-03-29T18:18:47Z</time>
      </trkpt>
      <trkpt lat="42.5402700" lon="-2.3000600">
        <ele>548.0</ele>
        <time>2020-03-29T18:18:49Z</time>
      </trkpt>
      <trkpt lat="42.5401570" lon="-2.3001930">
        <ele>548.0</ele>
        <time>2020-03-29T18:18:51Z</time>
      </trkpt>
      <trkpt lat="42.5401080" lon="-2.3003420">
        <ele>547.8</ele>
        <time>2020-03-29T18:18:53Z</time>
      </trkpt>
      <trkpt lat="42.5400880" lon="-2.3005180">
        <ele>547.5</ele>
        <time>2020-03-29T18:18:55Z</time>
      </trkpt>
      <trkpt lat="42.5401010" lon="-2.3006940">
        <ele>547.0</ele>
        <time>2020-03-29T18:18:57Z</time>
      </trkpt>
      <trkpt lat="42.5401300" lon="-2.3008940">
        <ele>546.5</ele>
        <time>2020-03-29T18:18:59Z</time>
      </trkpt>
      <trkpt lat="42.5401560" lon="-2.3010330">
        <ele>546.1</ele>
        <time>2020-03-29T18:19:01Z</time>
      </trkpt>
      <trkpt lat="42.5402040" lon="-2.3012890">
        <ele>545.2</ele>
        <time>2020-03-29T18:19:03Z</time>
      </trkpt>
      <trkpt lat="42.5402310" lon="-2.3014300">
        <ele>544.7</ele>
        <time>2020-03-29T18:19:05Z</time>
      </trkpt>
      <trkpt lat="42.5402590" lon="-2.3015740">
        <ele>544.1</ele>
        <time>2020-03-29T18:19:07Z</time>
      </trkpt>
      <trkpt lat="42.5403090" lon="-2.3018890">
        <ele>542.5</ele>
        <time>2020-03-29T18:19:09Z</time>
      </trkpt>
      <trkpt lat="42.5402920" lon="-2.3020890">
        <ele>541.9</ele>
        <time>2020-03-29T18:19:11Z</time>
      </trkpt>
      <trkpt lat="42.5402260" lon="-2.3022440">
        <ele>541.2</ele>
        <time>2020-03-29T18:19:13Z</time>
      </trkpt>
      <trkpt lat="42.5401260" lon="-2.3023410">
        <ele>540.9</ele>
        <time>2020-03-29T18:19:15Z</time>
      </trkpt>
      <trkpt lat="42.5400200" lon="-2.3023790">
        <ele>540.7</ele>
        <time>2020-03-29T18:19:17Z</time>
      </trkpt>
      <trkpt lat="42.5399150" lon="-2.3023890">
        <ele>540.6</ele>
        <time>2020-03-29T18:19:19Z</time>
      </trkpt>
      <trkpt lat="42.5398500" lon="-2.3023860">
        <ele>540.5</ele>
        <time>2020-03-29T18:19:21Z</time>
      </trkpt>
      <trkpt lat="42.5397480" lon="-2.3023730">
        <ele>540.6</ele>
        <time>2020-03-29T18:19:23Z</time>
      </trkpt>
      <trkpt lat="42.5396950" lon="-2.3023620">
        <ele>540.7</ele>
        <time>2020-03-29T18:19:25Z</time>
      </trkpt>
      <trkpt lat="42.5396050" lon="-2.3023390">
        <ele>541.0</ele>
        <time>2020-03-29T18:19:27Z</time>
      </trkpt>
      <trkpt lat="42.5395580" lon="-2.3023210">
        <ele>541.1</ele>
        <time>2020-03-29T18:19:29Z</time>
      </trkpt>
      <trkpt lat="42.5394810" lon="-2.3022860">
        <ele>541.5</ele>
        <time>2020-03-29T18:19:31Z</time>
      </trkpt>
      <trkpt lat="42.5394390" lon="-2.3022570">
        <ele>541.8</ele>
        <time>2020-03-29T18:19:33Z</time>
      </trkpt>
      <trkpt lat="42.5393640" lon="-2.3022020">
        <ele>542.2</ele>
        <time>2020-03-29T18:19:35Z</time>
      </trkpt>
      <trkpt lat="42.5393280" lon="-2.3021660">
        <ele>542.4</ele>
        <time>2020-03-29T18:19:37Z</time>
      </trkpt>
      <trkpt lat="42.5392630" lon="-2.3021020">
        <ele>542.8</ele>
        <time>2020-03-29T18:19:39Z</time>
      </trkpt>
      <trkpt lat="42.5392300" lon="-2.3020610">
        <ele>543.1</ele>
        <time>2020-03-29T18:19:41Z</time>
      </trkpt>
      <trkpt lat="42.5391960" lon="-2.3020180">
        <ele>543.4</ele>
        <time>2020-03-29T18:19:43Z</time>
      </trkpt>
      <trkpt lat="42.5391610" lon="-2.3019740">
        <ele>543.7</ele>
        <time>2020-03-29T18:19:45Z</time>
      </trkpt>
      <trkpt lat="42.5391260" lon="-2.3019300">
        <ele>544.1</ele>
        <time>2020-03-29T18:19:47Z</time>
      </trkpt>
      <trkpt lat="42.5390300" lon="-2.3018100">
        <ele>545.3</ele>
        <time>2020-03-29T18:19:49Z</time>
      </trkpt>
      <trkpt lat="42.5389920" lon="-2.3017700">
        <ele>545.8</ele>
        <time>2020-03-29T18:19:51Z</time>
      </trkpt>
      <trkpt lat="42.5389540" lon="-2.3017300">
        <ele>546.2</ele>
        <time>2020-03-29T18:19:53Z</time>
      </trkpt>
      <trkpt lat="42.5388810" lon="-2.3016670">
        <ele>546.9</ele>
        <time>2020-03-29T18:19:55Z</time>
      </trkpt>
      <trkpt lat="42.5388390" lon="-2.3016370">
        <ele>547.2</ele>
        <time>2020-03-29T18:19:57Z</time>
      </trkpt>
      <trkpt lat="42.5387630" lon="-2.3015930">
        <ele>548.0</ele>
        <time>2020-03-29T18:19:59Z</time>
      </trkpt>
      <trkpt lat="42.5387190" lon="-2.3015730">
        <ele>548.5</ele>
        <time>2020-03-29T18:20:01Z</time>
      </trkpt>
      <trkpt lat="42.5386430" lon="-2.3015460">
        <ele>549.3</ele>
        <time>2020-03-29T18:20:03Z</time>
      </trkpt>
      <trkpt lat="42.5385960" lon="-2.3015350">
        <ele>549.8</ele>
        <time>2020-03-29T18:20:05Z</time>
      </trkpt>
      <trkpt lat="42.5385120" lon="-2.3015220">
        <ele>550.6</ele>
        <time>2020-03-29T18:20:07Z</time>
      </trkpt>
      <trkpt lat="42.5384520" lon="-2.3015200">
        <ele>551.0</ele>
        <time>2020-03-29T18:20:09Z</time>
      </trkpt>
      <trkpt lat="42.5383550" lon="-2.3015320">
        <ele>551.7</ele>
        <time>2020-03-29T18:20:11Z</time>
      </trkpt>
      <trkpt lat="42.5382630" lon="-2.3015570">
        <ele>552.4</ele>
        <time>2020-03-29T18:20:13Z</time>
      </trkpt>
      <trkpt lat="42.5382090" lon="-2.3015790">
        <ele>552.9</ele>
        <time>2020-03-29T18:20:15Z</time>
      </trkpt>
      <trkpt lat="42.5381280" lon="-2.3016220">
        <ele>553.5</ele>
        <time>2020-03-29T18:20:17Z</time>
      </trkpt>
      <trkpt lat="42.5380800" lon="-2.3016540">
        <ele>553.9</ele>
        <time>2020-03-29T18:20:19Z</time>
      </trkpt>
      <trkpt lat="42.5380050" lon="-2.3017190">
        <ele>554.5</ele>
        <time>2020-03-29T18:20:21Z</time>
      </trkpt>
      <trkpt lat="42.5379650" lon="-2.3017600">
        <ele>554.8</ele>
        <time>2020-03-29T18:20:23Z</time>
      </trkpt>
      <trkpt lat="42.5378950" lon="-2.3018430">
        <ele>555.4</ele>
        <time>2020-03-29T18:20:25Z</time>
      </trkpt>
      <trkpt lat="42.5378630" lon="-2.3018930">
        <ele>555.7</ele>
        <time>2020-03-29T18:20:27Z</time>
      </trkpt>
      <trkpt lat="42.5378090" lon="-2.3019820">
        <ele>556.3</ele>
        <time>2020-03-29T18:20:29Z</time>
      </trkpt>
      <trkpt lat="42.5377810" lon="-2.3020410">
        <ele>556.7</ele>
        <time>2020-03-29T18:20:31Z</time>
      </trkpt>
      <trkpt lat="42.5377530" lon="-2.3021020">
        <ele>557.0</ele>
        <time>2020-03-29T18:20:33Z</time>
      </trkpt>
      <trkpt lat="42.5377080" lon="-2.3022230">
        <ele>557.6</ele>
        <time>2020-03-29T18:20:35Z</time>
      </trkpt>
      <trkpt lat="42.5376910" lon="-2.3022890">
        <ele>557.9</ele>
        <time>2020-03-29T18:20:37Z</time>
      </trkpt>
      <trkpt lat="42.5376740" lon="-2.3023540">
        <ele>558.2</ele>
        <time>2020-03-29T18:20:39Z</time>
      </trkpt>
      <trkpt lat="42.5376580" lon="-2.3024160">
        <ele>558.4</ele>
        <time>2020-03-29T18:20:41Z</time>
      </trkpt>
      <trkpt lat="42.5376420" lon="-2.3024770">
        <ele>558.6</ele>
        <time>2020-03-29T18:20:43Z</time>
      </trkpt>
      <trkpt lat="42.5375950" lon="-2.3026580">
        <ele>559.4</ele>
        <time>2020-03-29T18:20:45Z</time>
      </trkpt>
      <trkpt lat="42.5375750" lon="-2.3027240">
        <ele>559.6</ele>
        <time>2020-03-29T18:20:47Z</time>
      </trkpt>
      <trkpt lat="42.5375540" lon="-2.3027920">
        <ele>559.8</ele>
        <time>2020-03-29T18:20:49Z</time>
      </trkpt>
      <trkpt lat="42.5375050" lon="-2.3029160">
        <ele>560.3</ele>
        <time>2020-03-29T18:20:51Z</time>
      </trkpt>
      <trkpt lat="42.5374750" lon="-2.3029800">
        <ele>560.5</ele>
        <time>2020-03-29T18:20:53Z</time>
      </trkpt>
      <trkpt lat="42.5374100" lon="-2.3030800">
        <ele>560.8</ele>
        <time>2020-03-29T18:20:55Z</time>
      </trkpt>
      <trkpt lat="42.5373440" lon="-2.3031570">
        <ele>561.3</ele>
        <time>2020-03-29T18:20:57Z</time>
      </trkpt>
      <trkpt lat="42.5372960" lon="-2.3032020">
        <ele>561.6</ele>
        <time>2020-03-29T18:20:59Z</time>
      </trkpt>
      <trkpt lat="42.5372100" lon="-2.3032690">
        <ele>562.0</ele>
        <time>2020-03-29T18:21:01Z</time>
      </trkpt>
      <trkpt lat="42.5371450" lon="-2.3033010">
        <ele>562.3</ele>
        <time>2020-03-29T18:21:03Z</time>
      </trkpt>
      <trkpt lat="42.5370690" lon="-2.3033370">
        <ele>562.5</ele>
        <time>2020-03-29T18:21:05Z</time>
      </trkpt>
      <trkpt lat="42.5369890" lon="-2.3033760">
        <ele>562.8</ele>
        <time>2020-03-29T18:21:07Z</time>
      </trkpt>
      <trkpt lat="42.5368220" lon="-2.3034640">
        <ele>563.5</ele>
        <time>2020-03-29T18:21:09Z</time>
      </trkpt>
      <trkpt lat="42.5367160" lon="-2.3035360">
        <ele>564.0</ele>
        <time>2020-03-29T18:21:11Z</time>
      </trkpt>
      <trkpt lat="42.5366090" lon="-2.3036330">
        <ele>564.5</ele>
        <time>2020-03-29T18:21:13Z</time>
      </trkpt>
      <trkpt lat="42.5365280" lon="-2.3037450">
        <ele>565.0</ele>
        <time>2020-03-29T18:21:15Z</time>
      </trkpt>
      <trkpt lat="42.5364570" lon="-2.3038820">
        <ele>565.5</ele>
        <time>2020-03-29T18:21:17Z</time>
      </trkpt>
      <trkpt lat="42.5364250" lon="-2.3039930">
        <ele>565.8</ele>
        <time>2020-03-29T18:21:19Z</time>
      </trkpt>
      <trkpt lat="42.5363930" lon="-2.3041580">
        <ele>566.2</ele>
        <time>2020-03-29T18:21:21Z</time>
      </trkpt>
      <trkpt lat="42.5363760" lon="-2.3043290">
        <ele>566.5</ele>
        <time>2020-03-29T18:21:23Z</time>
      </trkpt>
      <trkpt lat="42.5363700" lon="-2.3044490">
        <ele>566.7</ele>
        <time>2020-03-29T18:21:25Z</time>
      </trkpt>
      <trkpt lat="42.5363640" lon="-2.3045760">
        <ele>566.8</ele>
        <time>2020-03-29T18:21:27Z</time>
      </trkpt>
      <trkpt lat="42.5363580" lon="-2.3047120">
        <ele>566.7</ele>
        <time>2020-03-29T18:21:29Z</time>
      </trkpt>
      <trkpt lat="42.5363510" lon="-2.3048570">
        <ele>566.6</ele>
        <time>2020-03-29T18:21:31Z</time>
      </trkpt>
      <trkpt lat="42.5363450" lon="-2.3050090">
        <ele>566.5</ele>
        <time>2020-03-29T18:21:33Z</time>
      </trkpt>
      <trkpt lat="42.5363250" lon="-2.3054350">
        <ele>565.3</ele>
        <time>2020-03-29T18:21:35Z</time>
      </trkpt>
      <trkpt lat="42.5363160" lon="-2.3056580">
        <ele>564.6</ele>
        <time>2020-03-29T18:21:37Z</time>
      </trkpt>
      <trkpt lat="42.5363090" lon="-2.3058310">
        <ele>564.1</ele>
        <time>2020-03-29T18:21:39Z</time>
      </trkpt>
      <trkpt lat="42.5363020" lon="-2.3060110">
        <ele>563.7</ele>
        <time>2020-03-29T18:21:41Z</time>
      </trkpt>
      <trkpt lat="42.5362830" lon="-2.3063750">
        <ele>562.7</ele>
        <time>2020-03-29T18:21:43Z</time>
      </trkpt>
      <trkpt lat="42.5362620" lon="-2.3067030">
        <ele>561.9</ele>
        <time>2020-03-29T18:21:45Z</time>
      </trkpt>
      <trkpt lat="42.5362180" lon="-2.3069680">
        <ele>561.0</ele>
        <time>2020-03-29T18:21:47Z</time>
      </trkpt>
      <trkpt lat="42.5361490" lon="-2.3072340">
        <ele>560.0</ele>
        <time>2020-03-29T18:21:49Z</time>
      </trkpt>
      <trkpt lat="42.5360820" lon="-2.3074290">
        <ele>559.4</ele>
        <time>2020-03-29T18:21:51Z</time>
      </trkpt>
      <trkpt lat="42.5359810" lon="-2.3077190">
        <ele>558.6</ele>
        <time>2020-03-29T18:21:53Z</time>
      </trkpt>
      <trkpt lat="42.5359090" lon="-2.3079210">
        <ele>557.8</ele>
        <time>2020-03-29T18:21:55Z</time>
      </trkpt>
      <trkpt lat="42.5358350" lon="-2.3081270">
        <ele>556.8</ele>
        <time>2020-03-29T18:21:57Z</time>
      </trkpt>
      <trkpt lat="42.5357600" lon="-2.3083360">
        <ele>555.8</ele>
        <time>2020-03-29T18:21:59Z</time>
      </trkpt>
      <trkpt lat="42.5355820" lon="-2.3088350">
        <ele>553.3</ele>
        <time>2020-03-29T18:22:01Z</time>
      </trkpt>
      <trkpt lat="42.5354580" lon="-2.3091840">
        <ele>551.2</ele>
        <time>2020-03-29T18:22:03Z</time>
      </trkpt>
      <trkpt lat="42.5353820" lon="-2.3094020">
        <ele>551.4</ele>
        <time>2020-03-29T18:22:05Z</time>
      </trkpt>
      <trkpt lat="42.5352520" lon="-2.3097760">
        <ele>551.8</ele>
        <time>2020-03-29T18:22:07Z</time>
      </trkpt>
      <trkpt lat="42.5351760" lon="-2.3099980">
        <ele>551.4</ele>
        <time>2020-03-29T18:22:09Z</time>
      </trkpt>
      <trkpt lat="42.5351000" lon="-2.3102200">
        <ele>551.1</ele>
        <time>2020-03-29T18:22:11Z</time>
      </trkpt>
      <trkpt lat="42.5350240" lon="-2.3104410">
        <ele>550.6</ele>
        <time>2020-03-29T18:22:13Z</time>
      </trkpt>
      <trkpt lat="42.5348530" lon="-2.3109560">
        <ele>548.5</ele>
        <time>2020-03-29T18:22:15Z</time>
      </trkpt>
      <trkpt lat="42.5347730" lon="-2.3112790">
        <ele>547.0</ele>
        <time>2020-03-29T18:22:17Z</time>
      </trkpt>
      <trkpt lat="42.5347180" lon="-2.3116250">
        <ele>544.4</ele>
        <time>2020-03-29T18:22:19Z</time>
      </trkpt>
      <trkpt lat="42.5347030" lon="-2.3119660">
        <ele>542.0</ele>
        <time>2020-03-29T18:22:21Z</time>
      </trkpt>
      <trkpt lat="42.5347790" lon="-2.3123720">
        <ele>539.6</ele>
        <time>2020-03-29T18:22:23Z</time>
      </trkpt>
      <trkpt lat="42.5349010" lon="-2.3127270">
        <ele>537.5</ele>
        <time>2020-03-29T18:22:25Z</time>
      </trkpt>
      <trkpt lat="42.5350570" lon="-2.3130340">
        <ele>535.6</ele>
        <time>2020-03-29T18:22:27Z</time>
      </trkpt>
      <trkpt lat="42.5351960" lon="-2.3132850">
        <ele>534.2</ele>
        <time>2020-03-29T18:22:29Z</time>
      </trkpt>
      <trkpt lat="42.5354530" lon="-2.3137500">
        <ele>531.1</ele>
        <time>2020-03-29T18:22:31Z</time>
      </trkpt>
      <trkpt lat="42.5355960" lon="-2.3140080">
        <ele>529.1</ele>
        <time>2020-03-29T18:22:33Z</time>
      </trkpt>
      <trkpt lat="42.5358440" lon="-2.3144990">
        <ele>524.8</ele>
        <time>2020-03-29T18:22:35Z</time>
      </trkpt>
      <trkpt lat="42.5357260" lon="-2.3148550">
        <ele>522.5</ele>
        <time>2020-03-29T18:22:37Z</time>
      </trkpt>
      <trkpt lat="42.5354820" lon="-2.3149090">
        <ele>521.5</ele>
        <time>2020-03-29T18:22:39Z</time>
      </trkpt>
      <trkpt lat="42.5352440" lon="-2.3149610">
        <ele>520.7</ele>
        <time>2020-03-29T18:22:41Z</time>
      </trkpt>
      <trkpt lat="42.5347830" lon="-2.3149220">
        <ele>517.7</ele>
        <time>2020-03-29T18:22:43Z</time>
      </trkpt>
      <trkpt lat="42.5345620" lon="-2.3147170">
        <ele>515.8</ele>
        <time>2020-03-29T18:22:45Z</time>
      </trkpt>
      <trkpt lat="42.5342730" lon="-2.3144030">
        <ele>513.4</ele>
        <time>2020-03-29T18:22:47Z</time>
      </trkpt>
      <trkpt lat="42.5340170" lon="-2.3144320">
        <ele>511.5</ele>
        <time>2020-03-29T18:22:49Z</time>
      </trkpt>
      <trkpt lat="42.5339810" lon="-2.3147840">
        <ele>509.1</ele>
        <time>2020-03-29T18:22:51Z</time>
      </trkpt>
      <trkpt lat="42.5340160" lon="-2.3150640">
        <ele>507.4</ele>
        <time>2020-03-29T18:22:53Z</time>
      </trkpt>
      <trkpt lat="42.5341200" lon="-2.3155160">
        <ele>505.2</ele>
        <time>2020-03-29T18:22:55Z</time>
      </trkpt>
      <trkpt lat="42.5342810" lon="-2.3158720">
        <ele>503.6</ele>
        <time>2020-03-29T18:22:57Z</time>
      </trkpt>
      <trkpt lat="42.5344190" lon="-2.3161140">
        <ele>502.0</ele>
        <time>2020-03-29T18:22:59Z</time>
      </trkpt>
      <trkpt lat="42.5346240" lon="-2.3164710">
        <ele>498.6</ele>
        <time>2020-03-29T18:23:01Z</time>
      </trkpt>
      <trkpt lat="42.5348420" lon="-2.3169270">
        <ele>494.9</ele>
        <time>2020-03-29T18:23:03Z</time>
      </trkpt>
      <trkpt lat="42.5347960" lon="-2.3173390">
        <ele>492.8</ele>
        <time>2020-03-29T18:23:05Z</time>
      </trkpt>
      <trkpt lat="42.5347360" lon="-2.3176660">
        <ele>491.4</ele>
        <time>2020-03-29T18:23:07Z</time>
      </trkpt>
      <trkpt lat="42.5346740" lon="-2.3180020">
        <ele>489.8</ele>
        <time>2020-03-29T18:23:09Z</time>
      </trkpt>
      <trkpt lat="42.5344680" lon="-2.3186880">
        <ele>485.5</ele>
        <time>2020-03-29T18:23:11Z</time>
      </trkpt>
      <trkpt lat="42.5342480" lon="-2.3189550">
        <ele>483.4</ele>
        <time>2020-03-29T18:23:13Z</time>
      </trkpt>
      <trkpt lat="42.5340550" lon="-2.3191830">
        <ele>481.6</ele>
        <time>2020-03-29T18:23:15Z</time>
      </trkpt>
      <trkpt lat="42.5336990" lon="-2.3196410">
        <ele>477.4</ele>
        <time>2020-03-29T18:23:17Z</time>
      </trkpt>
      <trkpt lat="42.5335140" lon="-2.3200010">
        <ele>475.0</ele>
        <time>2020-03-29T18:23:19Z</time>
      </trkpt>
      <trkpt lat="42.5333070" lon="-2.3203890">
        <ele>471.8</ele>
        <time>2020-03-29T18:23:21Z</time>
      </trkpt>
      <trkpt lat="42.5330060" lon="-2.3207020">
        <ele>468.6</ele>
        <time>2020-03-29T18:23:23Z</time>
      </trkpt>
      <trkpt lat="42.5326850" lon="-2.3208770">
        <ele>465.5</ele>
        <time>2020-03-29T18:23:25Z</time>
      </trkpt>
      <trkpt lat="42.5323690" lon="-2.3209920">
        <ele>463.0</ele>
        <time>2020-03-29T18:23:27Z</time>
      </trkpt>
      <trkpt lat="42.5320430" lon="-2.3209950">
        <ele>461.0</ele>
        <time>2020-03-29T18:23:29Z</time>
      </trkpt>
      <trkpt lat="42.5317490" lon="-2.3209790">
        <ele>459.7</ele>
        <time>2020-03-29T18:23:31Z</time>
      </trkpt>
      <trkpt lat="42.5314680" lon="-2.3210560">
        <ele>458.7</ele>
        <time>2020-03-29T18:23:33Z</time>
      </trkpt>
      <trkpt lat="42.5312150" lon="-2.3211660">
        <ele>457.9</ele>
        <time>2020-03-29T18:23:35Z</time>
      </trkpt>
      <trkpt lat="42.5310270" lon="-2.3212510">
        <ele>457.4</ele>
        <time>2020-03-29T18:23:37Z</time>
      </trkpt>
      <trkpt lat="42.5306980" lon="-2.3214010">
        <ele>456.0</ele>
        <time>2020-03-29T18:23:39Z</time>
      </trkpt>
      <trkpt lat="42.5305190" lon="-2.3214830">
        <ele>454.9</ele>
        <time>2020-03-29T18:23:41Z</time>
      </trkpt>
      <trkpt lat="42.5302090" lon="-2.3216230">
        <ele>452.9</ele>
        <time>2020-03-29T18:23:43Z</time>
      </trkpt>
      <trkpt lat="42.5299660" lon="-2.3217320">
        <ele>451.5</ele>
        <time>2020-03-29T18:23:45Z</time>
      </trkpt>
      <trkpt lat="42.5297990" lon="-2.3218060">
        <ele>450.9</ele>
        <time>2020-03-29T18:23:47Z</time>
      </trkpt>
      <trkpt lat="42.5296320" lon="-2.3218800">
        <ele>450.4</ele>
        <time>2020-03-29T18:23:49Z</time>
      </trkpt>
      <trkpt lat="42.5294680" lon="-2.3219540">
        <ele>449.9</ele>
        <time>2020-03-29T18:23:51Z</time>
      </trkpt>
      <trkpt lat="42.5291020" lon="-2.3221170">
        <ele>449.1</ele>
        <time>2020-03-29T18:23:53Z</time>
      </trkpt>
      <trkpt lat="42.5289520" lon="-2.3221840">
        <ele>448.9</ele>
        <time>2020-03-29T18:23:55Z</time>
      </trkpt>
      <trkpt lat="42.5288130" lon="-2.3222460">
        <ele>448.9</ele>
        <time>2020-03-29T18:23:57Z</time>
      </trkpt>
      <trkpt lat="42.5286830" lon="-2.3223040">
        <ele>449.0</ele>
        <time>2020-03-29T18:23:59Z</time>
      </trkpt>
      <trkpt lat="42.5283550" lon="-2.3224500">
        <ele>449.7</ele>
        <time>2020-03-29T18:24:01Z</time>
      </trkpt>
      <trkpt lat="42.5282390" lon="-2.3225030">
        <ele>450.1</ele>
        <time>2020-03-29T18:24:03Z</time>
      </trkpt>
      <trkpt lat="42.5281240" lon="-2.3225540">
        <ele>450.6</ele>
        <time>2020-03-29T18:24:05Z</time>
      </trkpt>
      <trkpt lat="42.5278820" lon="-2.3226630">
        <ele>452.2</ele>
        <time>2020-03-29T18:24:07Z</time>
      </trkpt>
      <trkpt lat="42.5277650" lon="-2.3227150">
        <ele>453.1</ele>
        <time>2020-03-29T18:24:09Z</time>
      </trkpt>
      <trkpt lat="42.5275500" lon="-2.3228210">
        <ele>452.7</ele>
        <time>2020-03-29T18:24:11Z</time>
      </trkpt>
      <trkpt lat="42.5274030" lon="-2.3229530">
        <ele>451.4</ele>
        <time>2020-03-29T18:24:13Z</time>
      </trkpt>
      <trkpt lat="42.5272990" lon="-2.3231110">
        <ele>450.3</ele>
        <time>2020-03-29T18:24:15Z</time>
      </trkpt>
      <trkpt lat="42.5271780" lon="-2.3233180">
        <ele>449.4</ele>
        <time>2020-03-29T18:24:17Z</time>
      </trkpt>
      <trkpt lat="42.5271040" lon="-2.3234520">
        <ele>449.4</ele>
        <time>2020-03-29T18:24:19Z</time>
      </trkpt>
      <trkpt lat="42.5270360" lon="-2.3235760">
        <ele>449.5</ele>
        <time>2020-03-29T18:24:21Z</time>
      </trkpt>
      <trkpt lat="42.5269750" lon="-2.3236880">
        <ele>449.5</ele>
        <time>2020-03-29T18:24:23Z</time>
      </trkpt>
      <trkpt lat="42.5269170" lon="-2.3237930">
        <ele>449.5</ele>
        <time>2020-03-29T18:24:25Z</time>
      </trkpt>
      <trkpt lat="42.5268630" lon="-2.3238920">
        <ele>449.6</ele>
        <time>2020-03-29T18:24:27Z</time>
      </trkpt>
      <trkpt lat="42.5266780" lon="-2.3242280">
        <ele>450.3</ele>
        <time>2020-03-29T18:24:29Z</time>
      </trkpt>
      <trkpt lat="42.5266300" lon="-2.3243180">
        <ele>450.7</ele>
        <time>2020-03-29T18:24:31Z</time>
      </trkpt>
      <trkpt lat="42.5265830" lon="-2.3244040">
        <ele>451.0</ele>
        <time>2020-03-29T18:24:33Z</time>
      </trkpt>
      <trkpt lat="42.5265390" lon="-2.3244850">
        <ele>451.3</ele>
        <time>2020-03-29T18:24:35Z</time>
      </trkpt>
      <trkpt lat="42.5264950" lon="-2.3245650">
        <ele>451.8</ele>
        <time>2020-03-29T18:24:37Z</time>
      </trkpt>
      <trkpt lat="42.5264540" lon="-2.3246420">
        <ele>452.2</ele>
        <time>2020-03-29T18:24:39Z</time>
      </trkpt>
      <trkpt lat="42.5263250" lon="-2.3248800">
        <ele>454.0</ele>
        <time>2020-03-29T18:24:41Z</time>
      </trkpt>
      <trkpt lat="42.5262960" lon="-2.3249360">
        <ele>454.4</ele>
        <time>2020-03-29T18:24:43Z</time>
      </trkpt>
      <trkpt lat="42.5262700" lon="-2.3249860">
        <ele>454.7</ele>
        <time>2020-03-29T18:24:45Z</time>
      </trkpt>
      <trkpt lat="42.5262080" lon="-2.3251080">
        <ele>455.5</ele>
        <time>2020-03-29T18:24:47Z</time>
      </trkpt>
      <trkpt lat="42.5261920" lon="-2.3251630">
        <ele>455.8</ele>
        <time>2020-03-29T18:24:49Z</time>
      </trkpt>
      <trkpt lat="42.5261660" lon="-2.3252540">
        <ele>456.4</ele>
        <time>2020-03-29T18:24:51Z</time>
      </trkpt>
      <trkpt lat="42.5261570" lon="-2.3253050">
        <ele>456.8</ele>
        <time>2020-03-29T18:24:53Z</time>
      </trkpt>
      <trkpt lat="42.5261480" lon="-2.3253550">
        <ele>457.1</ele>
        <time>2020-03-29T18:24:55Z</time>
      </trkpt>
      <trkpt lat="42.5261400" lon="-2.3254030">
        <ele>457.5</ele>
        <time>2020-03-29T18:24:57Z</time>
      </trkpt>
      <trkpt lat="42.5261220" lon="-2.3255080">
        <ele>458.3</ele>
        <time>2020-03-29T18:24:59Z</time>
      </trkpt>
      <trkpt lat="42.5261150" lon="-2.3255550">
        <ele>458.7</ele>
        <time>2020-03-29T18:25:01Z</time>
      </trkpt>
      <trkpt lat="42.5261080" lon="-2.3256030">
        <ele>459.1</ele>
        <time>2020-03-29T18:25:03Z</time>
      </trkpt>
      <trkpt lat="42.5261010" lon="-2.3256510">
        <ele>459.5</ele>
        <time>2020-03-29T18:25:05Z</time>
      </trkpt>
      <trkpt lat="42.5260940" lon="-2.3257000">
        <ele>459.8</ele>
        <time>2020-03-29T18:25:07Z</time>
      </trkpt>
      <trkpt lat="42.5260860" lon="-2.3257500">
        <ele>460.1</ele>
        <time>2020-03-29T18:25:09Z</time>
      </trkpt>
      <trkpt lat="42.5260790" lon="-2.3258000">
        <ele>460.5</ele>
        <time>2020-03-29T18:25:11Z</time>
      </trkpt>
      <trkpt lat="42.5260520" lon="-2.3259810">
        <ele>461.9</ele>
        <time>2020-03-29T18:25:13Z</time>
      </trkpt>
      <trkpt lat="42.5260440" lon="-2.3260380">
        <ele>462.4</ele>
        <time>2020-03-29T18:25:15Z</time>
      </trkpt>
      <trkpt lat="42.5260370" lon="-2.3260970">
        <ele>462.8</ele>
        <time>2020-03-29T18:25:17Z</time>
      </trkpt>
      <trkpt lat="42.5260300" lon="-2.3261560">
        <ele>463.3</ele>
        <time>2020-03-29T18:25:19Z</time>
      </trkpt>
      <trkpt lat="42.5260230" lon="-2.3262160">
        <ele>463.9</ele>
        <time>2020-03-29T18:25:21Z</time>
      </trkpt>
      <trkpt lat="42.5260160" lon="-2.3262750">
        <ele>464.4</ele>
        <time>2020-03-29T18:25:23Z</time>
      </trkpt>
      <trkpt lat="42.5260090" lon="-2.3263340">
        <ele>464.9</ele>
        <time>2020-03-29T18:25:25Z</time>
      </trkpt>
      <trkpt lat="42.5260020" lon="-2.3263910">
        <ele>465.4</ele>
        <time>2020-03-29T18:25:27Z</time>
      </trkpt>
      <trkpt lat="42.5259770" lon="-2.3266010">
        <ele>467.1</ele>
        <time>2020-03-29T18:25:29Z</time>
      </trkpt>
      <trkpt lat="42.5259710" lon="-2.3266580">
        <ele>467.6</ele>
        <time>2020-03-29T18:25:31Z</time>
      </trkpt>
      <trkpt lat="42.5259660" lon="-2.3267160">
        <ele>468.0</ele>
        <time>2020-03-29T18:25:33Z</time>
      </trkpt>
      <trkpt lat="42.5259540" lon="-2.3268420">
        <ele>469.0</ele>
        <time>2020-03-29T18:25:35Z</time>
      </trkpt>
      <trkpt lat="42.5259550" lon="-2.3269070">
        <ele>469.5</ele>
        <time>2020-03-29T18:25:37Z</time>
      </trkpt>
      <trkpt lat="42.5259560" lon="-2.3269650">
        <ele>469.9</ele>
        <time>2020-03-29T18:25:39Z</time>
      </trkpt>
      <trkpt lat="42.5259630" lon="-2.3270700">
        <ele>470.8</ele>
        <time>2020-03-29T18:25:41Z</time>
      </trkpt>
      <trkpt lat="42.5259700" lon="-2.3271250">
        <ele>471.3</ele>
        <time>2020-03-29T18:25:43Z</time>
      </trkpt>
      <trkpt lat="42.5259840" lon="-2.3272240">
        <ele>472.0</ele>
        <time>2020-03-29T18:25:45Z</time>
      </trkpt>
      <trkpt lat="42.5259990" lon="-2.3272770">
        <ele>472.5</ele>
        <time>2020-03-29T18:25:47Z</time>
      </trkpt>
      <trkpt lat="42.5260140" lon="-2.3273300">
        <ele>473.0</ele>
        <time>2020-03-29T18:25:49Z</time>
      </trkpt>
      <trkpt lat="42.5260450" lon="-2.3274440">
        <ele>474.3</ele>
        <time>2020-03-29T18:25:51Z</time>
      </trkpt>
      <trkpt lat="42.5260680" lon="-2.3274980">
        <ele>475.1</ele>
        <time>2020-03-29T18:25:53Z</time>
      </trkpt>
      <trkpt lat="42.5261020" lon="-2.3275770">
        <ele>476.4</ele>
        <time>2020-03-29T18:25:55Z</time>
      </trkpt>
      <trkpt lat="42.5261240" lon="-2.3276270">
        <ele>477.3</ele>
        <time>2020-03-29T18:25:57Z</time>
      </trkpt>
      <trkpt lat="42.5261620" lon="-2.3277080">
        <ele>478.5</ele>
        <time>2020-03-29T18:25:59Z</time>
      </trkpt>
      <trkpt lat="42.5261900" lon="-2.3277590">
        <ele>478.7</ele>
        <time>2020-03-29T18:26:01Z</time>
      </trkpt>
      <trkpt lat="42.5262180" lon="-2.3278130">
        <ele>479.0</ele>
        <time>2020-03-29T18:26:03Z</time>
      </trkpt>
      <trkpt lat="42.5262710" lon="-2.3279160">
        <ele>479.7</ele>
        <time>2020-03-29T18:26:05Z</time>
      </trkpt>
      <trkpt lat="42.5262950" lon="-2.3279710">
        <ele>480.0</ele>
        <time>2020-03-29T18:26:07Z</time>
      </trkpt>
      <trkpt lat="42.5263300" lon="-2.3280680">
        <ele>480.6</ele>
        <time>2020-03-29T18:26:09Z</time>
      </trkpt>
      <trkpt lat="42.5263420" lon="-2.3281280">
        <ele>480.8</ele>
        <time>2020-03-29T18:26:11Z</time>
      </trkpt>
      <trkpt lat="42.5263500" lon="-2.3282260">
        <ele>481.1</ele>
        <time>2020-03-29T18:26:13Z</time>
      </trkpt>
      <trkpt lat="42.5263470" lon="-2.3283210">
        <ele>481.4</ele>
        <time>2020-03-29T18:26:15Z</time>
      </trkpt>
      <trkpt lat="42.5263390" lon="-2.3283800">
        <ele>481.7</ele>
        <time>2020-03-29T18:26:17Z</time>
      </trkpt>
      <trkpt lat="42.5263240" lon="-2.3284700">
        <ele>482.0</ele>
        <time>2020-03-29T18:26:19Z</time>
      </trkpt>
      <trkpt lat="42.5263120" lon="-2.3285280">
        <ele>482.3</ele>
        <time>2020-03-29T18:26:21Z</time>
      </trkpt>
      <trkpt lat="42.5263010" lon="-2.3285860">
        <ele>482.5</ele>
        <time>2020-03-29T18:26:23Z</time>
      </trkpt>
      <trkpt lat="42.5262800" lon="-2.3287080">
        <ele>483.2</ele>
        <time>2020-03-29T18:26:25Z</time>
      </trkpt>
      <trkpt lat="42.5262720" lon="-2.3287670">
        <ele>483.5</ele>
        <time>2020-03-29T18:26:27Z</time>
      </trkpt>
      <trkpt lat="42.5262640" lon="-2.3288270">
        <ele>483.9</ele>
        <time>2020-03-29T18:26:29Z</time>
      </trkpt>
      <trkpt lat="42.5262570" lon="-2.3288850">
        <ele>484.4</ele>
        <time>2020-03-29T18:26:31Z</time>
      </trkpt>
      <trkpt lat="42.5262500" lon="-2.3289430">
        <ele>484.9</ele>
        <time>2020-03-29T18:26:33Z</time>
      </trkpt>
      <trkpt lat="42.5262340" lon="-2.3291030">
        <ele>486.2</ele>
        <time>2020-03-29T18:26:35Z</time>
      </trkpt>
      <trkpt lat="42.5262320" lon="-2.3291620">
        <ele>486.6</ele>
        <time>2020-03-29T18:26:37Z</time>
      </trkpt>
      <trkpt lat="42.5262280" lon="-2.3292790">
        <ele>487.3</ele>
        <time>2020-03-29T18:26:39Z</time>
      </trkpt>
      <trkpt lat="42.5262320" lon="-2.3293370">
        <ele>487.6</ele>
        <time>2020-03-29T18:26:41Z</time>
      </trkpt>
      <trkpt lat="42.5262360" lon="-2.3293950">
        <ele>487.9</ele>
        <time>2020-03-29T18:26:43Z</time>
      </trkpt>
      <trkpt lat="42.5262500" lon="-2.3294960">
        <ele>488.5</ele>
        <time>2020-03-29T18:26:45Z</time>
      </trkpt>
      <trkpt lat="42.5262610" lon="-2.3295530">
        <ele>488.8</ele>
        <time>2020-03-29T18:26:47Z</time>
      </trkpt>
      <trkpt lat="42.5262870" lon="-2.3296580">
        <ele>489.4</ele>
        <time>2020-03-29T18:26:49Z</time>
      </trkpt>
      <trkpt lat="42.5263060" lon="-2.3297100">
        <ele>489.7</ele>
        <time>2020-03-29T18:26:51Z</time>
      </trkpt>
      <trkpt lat="42.5263410" lon="-2.3298060">
        <ele>490.3</ele>
        <time>2020-03-29T18:26:53Z</time>
      </trkpt>
      <trkpt lat="42.5263670" lon="-2.3298610">
        <ele>490.6</ele>
        <time>2020-03-29T18:26:55Z</time>
      </trkpt>
      <trkpt lat="42.5263900" lon="-2.3299120">
        <ele>490.8</ele>
        <time>2020-03-29T18:26:57Z</time>
      </trkpt>
      <trkpt lat="42.5264150" lon="-2.3299650">
        <ele>491.1</ele>
        <time>2020-03-29T18:26:59Z</time>
      </trkpt>
      <trkpt lat="42.5264390" lon="-2.3300180">
        <ele>491.4</ele>
        <time>2020-03-29T18:27:01Z</time>
      </trkpt>
      <trkpt lat="42.5264630" lon="-2.3300700">
        <ele>491.7</ele>
        <time>2020-03-29T18:27:03Z</time>
      </trkpt>
      <trkpt lat="42.5265380" lon="-2.3302170">
        <ele>492.6</ele>
        <time>2020-03-29T18:27:05Z</time>
      </trkpt>
      <trkpt lat="42.5265710" lon="-2.3302600">
        <ele>493.0</ele>
        <time>2020-03-29T18:27:07Z</time>
      </trkpt>
      <trkpt lat="42.5266050" lon="-2.3303020">
        <ele>493.4</ele>
        <time>2020-03-29T18:27:09Z</time>
      </trkpt>
      <trkpt lat="42.5266380" lon="-2.3303450">
        <ele>493.7</ele>
        <time>2020-03-29T18:27:11Z</time>
      </trkpt>
      <trkpt lat="42.5266710" lon="-2.3303880">
        <ele>494.2</ele>
        <time>2020-03-29T18:27:13Z</time>
      </trkpt>
      <trkpt lat="42.5267040" lon="-2.3304300">
        <ele>494.6</ele>
        <time>2020-03-29T18:27:15Z</time>
      </trkpt>
      <trkpt lat="42.5267380" lon="-2.3304730">
        <ele>495.0</ele>
        <time>2020-03-29T18:27:17Z</time>
      </trkpt>
      <trkpt lat="42.5267710" lon="-2.3305160">
        <ele>495.5</ele>
        <time>2020-03-29T18:27:19Z</time>
      </trkpt>
      <trkpt lat="42.5268920" lon="-2.3306880">
        <ele>497.1</ele>
        <time>2020-03-29T18:27:21Z</time>
      </trkpt>
      <trkpt lat="42.5269150" lon="-2.3307420">
        <ele>497.5</ele>
        <time>2020-03-29T18:27:23Z</time>
      </trkpt>
      <trkpt lat="42.5269380" lon="-2.3307950">
        <ele>497.8</ele>
        <time>2020-03-29T18:27:25Z</time>
      </trkpt>
      <trkpt lat="42.5269770" lon="-2.3309040">
        <ele>498.3</ele>
        <time>2020-03-29T18:27:27Z</time>
      </trkpt>
      <trkpt lat="42.5269940" lon="-2.3309600">
        <ele>498.6</ele>
        <time>2020-03-29T18:27:29Z</time>
      </trkpt>
      <trkpt lat="42.5270100" lon="-2.3310150">
        <ele>498.8</ele>
        <time>2020-03-29T18:27:31Z</time>
      </trkpt>
      <trkpt lat="42.5270350" lon="-2.3311410">
        <ele>499.5</ele>
        <time>2020-03-29T18:27:33Z</time>
      </trkpt>
      <trkpt lat="42.5270370" lon="-2.3312020">
        <ele>499.8</ele>
        <time>2020-03-29T18:27:35Z</time>
      </trkpt>
      <trkpt lat="42.5270340" lon="-2.3313060">
        <ele>500.5</ele>
        <time>2020-03-29T18:27:37Z</time>
      </trkpt>
      <trkpt lat="42.5270100" lon="-2.3313620">
        <ele>500.9</ele>
        <time>2020-03-29T18:27:39Z</time>
      </trkpt>
      <trkpt lat="42.5269890" lon="-2.3314140">
        <ele>501.4</ele>
        <time>2020-03-29T18:27:41Z</time>
      </trkpt>
      <trkpt lat="42.5269670" lon="-2.3314650">
        <ele>501.7</ele>
        <time>2020-03-29T18:27:43Z</time>
      </trkpt>
      <trkpt lat="42.5269140" lon="-2.3315760">
        <ele>502.5</ele>
        <time>2020-03-29T18:27:45Z</time>
      </trkpt>
      <trkpt lat="42.5268830" lon="-2.3316180">
        <ele>502.7</ele>
        <time>2020-03-29T18:27:47Z</time>
      </trkpt>
      <trkpt lat="42.5268190" lon="-2.3316680">
        <ele>503.1</ele>
        <time>2020-03-29T18:27:49Z</time>
      </trkpt>
      <trkpt lat="42.5267600" lon="-2.3316950">
        <ele>503.4</ele>
        <time>2020-03-29T18:27:51Z</time>
      </trkpt>
      <trkpt lat="42.5266560" lon="-2.3317150">
        <ele>503.8</ele>
        <time>2020-03-29T18:27:53Z</time>
      </trkpt>
      <trkpt lat="42.5265550" lon="-2.3317100">
        <ele>504.2</ele>
        <time>2020-03-29T18:27:55Z</time>
      </trkpt>
      <trkpt lat="42.5264880" lon="-2.3316960">
        <ele>504.6</ele>
        <time>2020-03-29T18:27:57Z</time>
      </trkpt>
      <trkpt lat="42.5263910" lon="-2.3316580">
        <ele>505.0</ele>
        <time>2020-03-29T18:27:59Z</time>
      </trkpt>
      <trkpt lat="42.5263320" lon="-2.3316290">
        <ele>505.2</ele>
        <time>2020-03-29T18:28:01Z</time>
      </trkpt>
      <trkpt lat="42.5262750" lon="-2.3315990">
        <ele>505.4</ele>
        <time>2020-03-29T18:28:03Z</time>
      </trkpt>
      <trkpt lat="42.5262200" lon="-2.3315710">
        <ele>505.6</ele>
        <time>2020-03-29T18:28:05Z</time>
      </trkpt>
      <trkpt lat="42.5261660" lon="-2.3315430">
        <ele>505.8</ele>
        <time>2020-03-29T18:28:07Z</time>
      </trkpt>
      <trkpt lat="42.5261120" lon="-2.3315160">
        <ele>505.9</ele>
        <time>2020-03-29T18:28:09Z</time>
      </trkpt>
      <trkpt lat="42.5259280" lon="-2.3314220">
        <ele>506.4</ele>
        <time>2020-03-29T18:28:11Z</time>
      </trkpt>
      <trkpt lat="42.5258690" lon="-2.3313920">
        <ele>506.5</ele>
        <time>2020-03-29T18:28:13Z</time>
      </trkpt>
      <trkpt lat="42.5258050" lon="-2.3313600">
        <ele>506.6</ele>
        <time>2020-03-29T18:28:15Z</time>
      </trkpt>
      <trkpt lat="42.5257390" lon="-2.3313260">
        <ele>506.7</ele>
        <time>2020-03-29T18:28:17Z</time>
      </trkpt>
      <trkpt lat="42.5256730" lon="-2.3312920">
        <ele>506.8</ele>
        <time>2020-03-29T18:28:19Z</time>
      </trkpt>
      <trkpt lat="42.5256030" lon="-2.3312560">
        <ele>506.8</ele>
        <time>2020-03-29T18:28:21Z</time>
      </trkpt>
      <trkpt lat="42.5253970" lon="-2.3311550">
        <ele>506.7</ele>
        <time>2020-03-29T18:28:23Z</time>
      </trkpt>
      <trkpt lat="42.5253180" lon="-2.3311210">
        <ele>506.6</ele>
        <time>2020-03-29T18:28:25Z</time>
      </trkpt>
      <trkpt lat="42.5251850" lon="-2.3310750">
        <ele>506.4</ele>
        <time>2020-03-29T18:28:27Z</time>
      </trkpt>
      <trkpt lat="42.5250440" lon="-2.3310570">
        <ele>506.1</ele>
        <time>2020-03-29T18:28:29Z</time>
      </trkpt>
      <trkpt lat="42.5249210" lon="-2.3310810">
        <ele>505.7</ele>
        <time>2020-03-29T18:28:31Z</time>
      </trkpt>
      <trkpt lat="42.5247920" lon="-2.3311680">
        <ele>505.1</ele>
        <time>2020-03-29T18:28:33Z</time>
      </trkpt>
      <trkpt lat="42.5246920" lon="-2.3312940">
        <ele>504.9</ele>
        <time>2020-03-29T18:28:35Z</time>
      </trkpt>
      <trkpt lat="42.5246180" lon="-2.3314650">
        <ele>505.4</ele>
        <time>2020-03-29T18:28:37Z</time>
      </trkpt>
      <trkpt lat="42.5245660" lon="-2.3316660">
        <ele>505.7</ele>
        <time>2020-03-29T18:28:39Z</time>
      </trkpt>
      <trkpt lat="42.5245070" lon="-2.3319340">
        <ele>505.8</ele>
        <time>2020-03-29T18:28:41Z</time>
      </trkpt>
      <trkpt lat="42.5244690" lon="-2.3321160">
        <ele>505.8</ele>
        <time>2020-03-29T18:28:43Z</time>
      </trkpt>
      <trkpt lat="42.5244070" lon="-2.3324150">
        <ele>505.3</ele>
        <time>2020-03-29T18:28:45Z</time>
      </trkpt>
      <trkpt lat="42.5243650" lon="-2.3326170">
        <ele>504.4</ele>
        <time>2020-03-29T18:28:47Z</time>
      </trkpt>
      <trkpt lat="42.5243200" lon="-2.3328290">
        <ele>503.4</ele>
        <time>2020-03-29T18:28:49Z</time>
      </trkpt>
      <trkpt lat="42.5242350" lon="-2.3332600">
        <ele>501.4</ele>
        <time>2020-03-29T18:28:51Z</time>
      </trkpt>
      <trkpt lat="42.5241940" lon="-2.3334960">
        <ele>500.3</ele>
        <time>2020-03-29T18:28:53Z</time>
      </trkpt>
      <trkpt lat="42.5241360" lon="-2.3338790">
        <ele>498.6</ele>
        <time>2020-03-29T18:28:55Z</time>
      </trkpt>
      <trkpt lat="42.5240840" lon="-2.3343020">
        <ele>496.0</ele>
        <time>2020-03-29T18:28:57Z</time>
      </trkpt>
      <trkpt lat="42.5240570" lon="-2.3345720">
        <ele>494.5</ele>
        <time>2020-03-29T18:28:59Z</time>
      </trkpt>
      <trkpt lat="42.5240290" lon="-2.3348540">
        <ele>492.9</ele>
        <time>2020-03-29T18:29:01Z</time>
      </trkpt>
      <trkpt lat="42.5239780" lon="-2.3353530">
        <ele>489.9</ele>
        <time>2020-03-29T18:29:03Z</time>
      </trkpt>
      <trkpt lat="42.5239370" lon="-2.3357590">
        <ele>487.7</ele>
        <time>2020-03-29T18:29:05Z</time>
      </trkpt>
      <trkpt lat="42.5238890" lon="-2.3362150">
        <ele>485.5</ele>
        <time>2020-03-29T18:29:07Z</time>
      </trkpt>
      <trkpt lat="42.5238340" lon="-2.3366670">
        <ele>482.5</ele>
        <time>2020-03-29T18:29:09Z</time>
      </trkpt>
      <trkpt lat="42.5236960" lon="-2.3369870">
        <ele>480.0</ele>
        <time>2020-03-29T18:29:11Z</time>
      </trkpt>
      <trkpt lat="42.5235150" lon="-2.3372750">
        <ele>478.6</ele>
        <time>2020-03-29T18:29:13Z</time>
      </trkpt>
      <trkpt lat="42.5233690" lon="-2.3374720">
        <ele>478.1</ele>
        <time>2020-03-29T18:29:15Z</time>
      </trkpt>
      <trkpt lat="42.5231390" lon="-2.3377780">
        <ele>477.6</ele>
        <time>2020-03-29T18:29:17Z</time>
      </trkpt>
      <trkpt lat="42.5229360" lon="-2.3380480">
        <ele>477.0</ele>
        <time>2020-03-29T18:29:19Z</time>
      </trkpt>
      <trkpt lat="42.5228090" lon="-2.3382170">
        <ele>476.8</ele>
        <time>2020-03-29T18:29:21Z</time>
      </trkpt>
      <trkpt lat="42.5226910" lon="-2.3383750">
        <ele>476.8</ele>
        <time>2020-03-29T18:29:23Z</time>
      </trkpt>
      <trkpt lat="42.5224250" lon="-2.3387290">
        <ele>476.8</ele>
        <time>2020-03-29T18:29:25Z</time>
      </trkpt>
      <trkpt lat="42.5223200" lon="-2.3388690">
        <ele>477.1</ele>
        <time>2020-03-29T18:29:27Z</time>
      </trkpt>
      <trkpt lat="42.5221680" lon="-2.3390730">
        <ele>478.1</ele>
        <time>2020-03-29T18:29:29Z</time>
      </trkpt>
      <trkpt lat="42.5220750" lon="-2.3391980">
        <ele>479.0</ele>
        <time>2020-03-29T18:29:31Z</time>
      </trkpt>
      <trkpt lat="42.5219240" lon="-2.3393990">
        <ele>480.1</ele>
        <time>2020-03-29T18:29:33Z</time>
      </trkpt>
      <trkpt lat="42.5218010" lon="-2.3395640">
        <ele>480.6</ele>
        <time>2020-03-29T18:29:35Z</time>
      </trkpt>
      <trkpt lat="42.5217190" lon="-2.3396740">
        <ele>480.6</ele>
        <time>2020-03-29T18:29:37Z</time>
      </trkpt>
      <trkpt lat="42.5216380" lon="-2.3397820">
        <ele>480.6</ele>
        <time>2020-03-29T18:29:39Z</time>
      </trkpt>
      <trkpt lat="42.5214630" lon="-2.3400170">
        <ele>480.5</ele>
        <time>2020-03-29T18:29:41Z</time>
      </trkpt>
      <trkpt lat="42.5213590" lon="-2.3401590">
        <ele>480.5</ele>
        <time>2020-03-29T18:29:43Z</time>
      </trkpt>
      <trkpt lat="42.5212860" lon="-2.3402630">
        <ele>480.5</ele>
        <time>2020-03-29T18:29:45Z</time>
      </trkpt>
      <trkpt lat="42.5211850" lon="-2.3404170">
        <ele>480.4</ele>
        <time>2020-03-29T18:29:47Z</time>
      </trkpt>
      <trkpt lat="42.5210930" lon="-2.3405840">
        <ele>480.2</ele>
        <time>2020-03-29T18:29:49Z</time>
      </trkpt>
      <trkpt lat="42.5210140" lon="-2.3407640">
        <ele>479.8</ele>
        <time>2020-03-29T18:29:51Z</time>
      </trkpt>
      <trkpt lat="42.5209600" lon="-2.3408940">
        <ele>479.5</ele>
        <time>2020-03-29T18:29:53Z</time>
      </trkpt>
      <trkpt lat="42.5209070" lon="-2.3410240">
        <ele>479.3</ele>
        <time>2020-03-29T18:29:55Z</time>
      </trkpt>
      <trkpt lat="42.5208500" lon="-2.3411620">
        <ele>479.0</ele>
        <time>2020-03-29T18:29:57Z</time>
      </trkpt>
      <trkpt lat="42.5207910" lon="-2.3413050">
        <ele>478.6</ele>
        <time>2020-03-29T18:29:59Z</time>
      </trkpt>
      <trkpt lat="42.5207310" lon="-2.3414520">
        <ele>478.3</ele>
        <time>2020-03-29T18:30:01Z</time>
      </trkpt>
      <trkpt lat="42.5205640" lon="-2.3418590">
        <ele>477.5</ele>
        <time>2020-03-29T18:30:03Z</time>
      </trkpt>
      <trkpt lat="42.5204760" lon="-2.3420740">
        <ele>477.1</ele>
        <time>2020-03-29T18:30:05Z</time>
      </trkpt>
      <trkpt lat="42.5204100" lon="-2.3422350">
        <ele>476.9</ele>
        <time>2020-03-29T18:30:07Z</time>
      </trkpt>
      <trkpt lat="42.5203430" lon="-2.3423990">
        <ele>476.7</ele>
        <time>2020-03-29T18:30:09Z</time>
      </trkpt>
      <trkpt lat="42.5201940" lon="-2.3427610">
        <ele>476.3</ele>
        <time>2020-03-29T18:30:11Z</time>
      </trkpt>
      <trkpt lat="42.5201250" lon="-2.3429300">
        <ele>476.1</ele>
        <time>2020-03-29T18:30:13Z</time>
      </trkpt>
      <trkpt lat="42.5200550" lon="-2.3430990">
        <ele>475.9</ele>
        <time>2020-03-29T18:30:15Z</time>
      </trkpt>
      <trkpt lat="42.5199850" lon="-2.3432700">
        <ele>475.6</ele>
        <time>2020-03-29T18:30:17Z</time>
      </trkpt>
      <trkpt lat="42.5198130" lon="-2.3436970">
        <ele>474.7</ele>
        <time>2020-03-29T18:30:19Z</time>
      </trkpt>
      <trkpt lat="42.5197520" lon="-2.3438760">
        <ele>474.3</ele>
        <time>2020-03-29T18:30:21Z</time>
      </trkpt>
      <trkpt lat="42.5196760" lon="-2.3441540">
        <ele>473.5</ele>
        <time>2020-03-29T18:30:23Z</time>
      </trkpt>
      <trkpt lat="42.5196130" lon="-2.3444340">
        <ele>473.1</ele>
        <time>2020-03-29T18:30:25Z</time>
      </trkpt>
      <trkpt lat="42.5195730" lon="-2.3446150">
        <ele>472.8</ele>
        <time>2020-03-29T18:30:27Z</time>
      </trkpt>
      <trkpt lat="42.5195340" lon="-2.3447910">
        <ele>472.5</ele>
        <time>2020-03-29T18:30:29Z</time>
      </trkpt>
      <trkpt lat="42.5194510" lon="-2.3451630">
        <ele>471.8</ele>
        <time>2020-03-29T18:30:31Z</time>
      </trkpt>
      <trkpt lat="42.5194150" lon="-2.3453290">
        <ele>471.5</ele>
        <time>2020-03-29T18:30:33Z</time>
      </trkpt>
      <trkpt lat="42.5193780" lon="-2.3454960">
        <ele>471.1</ele>
        <time>2020-03-29T18:30:35Z</time>
      </trkpt>
      <trkpt lat="42.5193410" lon="-2.3456620">
        <ele>470.8</ele>
        <time>2020-03-29T18:30:37Z</time>
      </trkpt>
      <trkpt lat="42.5193060" lon="-2.3458240">
        <ele>470.5</ele>
        <time>2020-03-29T18:30:39Z</time>
      </trkpt>
      <trkpt lat="42.5192050" lon="-2.3462790">
        <ele>470.0</ele>
        <time>2020-03-29T18:30:41Z</time>
      </trkpt>
      <trkpt lat="42.5191680" lon="-2.3464480">
        <ele>469.7</ele>
        <time>2020-03-29T18:30:43Z</time>
      </trkpt>
      <trkpt lat="42.5191300" lon="-2.3466210">
        <ele>469.4</ele>
        <time>2020-03-29T18:30:45Z</time>
      </trkpt>
      <trkpt lat="42.5190900" lon="-2.3468000">
        <ele>469.1</ele>
        <time>2020-03-29T18:30:47Z</time>
      </trkpt>
      <trkpt lat="42.5190500" lon="-2.3469840">
        <ele>468.7</ele>
        <time>2020-03-29T18:30:49Z</time>
      </trkpt>
      <trkpt lat="42.5189430" lon="-2.3474600">
        <ele>468.2</ele>
        <time>2020-03-29T18:30:51Z</time>
      </trkpt>
      <trkpt lat="42.5188990" lon="-2.3476510">
        <ele>467.9</ele>
        <time>2020-03-29T18:30:53Z</time>
      </trkpt>
      <trkpt lat="42.5188550" lon="-2.3478450">
        <ele>467.6</ele>
        <time>2020-03-29T18:30:55Z</time>
      </trkpt>
      <trkpt lat="42.5188090" lon="-2.3480410">
        <ele>467.3</ele>
        <time>2020-03-29T18:30:57Z</time>
      </trkpt>
      <trkpt lat="42.5186980" lon="-2.3485290">
        <ele>466.6</ele>
        <time>2020-03-29T18:30:59Z</time>
      </trkpt>
      <trkpt lat="42.5186510" lon="-2.3487310">
        <ele>466.5</ele>
        <time>2020-03-29T18:31:01Z</time>
      </trkpt>
      <trkpt lat="42.5186050" lon="-2.3489340">
        <ele>466.5</ele>
        <time>2020-03-29T18:31:03Z</time>
      </trkpt>
      <trkpt lat="42.5185580" lon="-2.3491400">
        <ele>466.5</ele>
        <time>2020-03-29T18:31:05Z</time>
      </trkpt>
      <trkpt lat="42.5184450" lon="-2.3496370">
        <ele>466.1</ele>
        <time>2020-03-29T18:31:07Z</time>
      </trkpt>
      <trkpt lat="42.5183750" lon="-2.3499450">
        <ele>465.5</ele>
        <time>2020-03-29T18:31:09Z</time>
      </trkpt>
      <trkpt lat="42.5183280" lon="-2.3501550">
        <ele>465.0</ele>
        <time>2020-03-29T18:31:11Z</time>
      </trkpt>
      <trkpt lat="42.5182810" lon="-2.3503670">
        <ele>464.3</ele>
        <time>2020-03-29T18:31:13Z</time>
      </trkpt>
      <trkpt lat="42.5181930" lon="-2.3507710">
        <ele>462.9</ele>
        <time>2020-03-29T18:31:15Z</time>
      </trkpt>
      <trkpt lat="42.5181460" lon="-2.3509850">
        <ele>462.2</ele>
        <time>2020-03-29T18:31:17Z</time>
      </trkpt>
      <trkpt lat="42.5180640" lon="-2.3513520">
        <ele>461.2</ele>
        <time>2020-03-29T18:31:19Z</time>
      </trkpt>
      <trkpt lat="42.5179990" lon="-2.3516570">
        <ele>460.6</ele>
        <time>2020-03-29T18:31:21Z</time>
      </trkpt>
      <trkpt lat="42.5179840" lon="-2.3519880">
        <ele>460.2</ele>
        <time>2020-03-29T18:31:23Z</time>
      </trkpt>
      <trkpt lat="42.5180080" lon="-2.3522700">
        <ele>459.7</ele>
        <time>2020-03-29T18:31:25Z</time>
      </trkpt>
      <trkpt lat="42.5180280" lon="-2.3525040">
        <ele>459.3</ele>
        <time>2020-03-29T18:31:27Z</time>
      </trkpt>
      <trkpt lat="42.5180650" lon="-2.3529480">
        <ele>458.2</ele>
        <time>2020-03-29T18:31:29Z</time>
      </trkpt>
      <trkpt lat="42.5180860" lon="-2.3531930">
        <ele>457.6</ele>
        <time>2020-03-29T18:31:31Z</time>
      </trkpt>
      <trkpt lat="42.5180970" lon="-2.3536150">
        <ele>455.9</ele>
        <time>2020-03-29T18:31:33Z</time>
      </trkpt>
      <trkpt lat="42.5180700" lon="-2.3539460">
        <ele>454.3</ele>
        <time>2020-03-29T18:31:35Z</time>
      </trkpt>
      <trkpt lat="42.5180010" lon="-2.3542650">
        <ele>452.4</ele>
        <time>2020-03-29T18:31:37Z</time>
      </trkpt>
      <trkpt lat="42.5179430" lon="-2.3545020">
        <ele>450.9</ele>
        <time>2020-03-29T18:31:39Z</time>
      </trkpt>
      <trkpt lat="42.5178870" lon="-2.3547270">
        <ele>449.5</ele>
        <time>2020-03-29T18:31:41Z</time>
      </trkpt>
      <trkpt lat="42.5177650" lon="-2.3552230">
        <ele>447.1</ele>
        <time>2020-03-29T18:31:43Z</time>
      </trkpt>
      <trkpt lat="42.5177130" lon="-2.3554350">
        <ele>446.6</ele>
        <time>2020-03-29T18:31:45Z</time>
      </trkpt>
      <trkpt lat="42.5176610" lon="-2.3556460">
        <ele>446.3</ele>
        <time>2020-03-29T18:31:47Z</time>
      </trkpt>
      <trkpt lat="42.5176090" lon="-2.3558560">
        <ele>446.2</ele>
        <time>2020-03-29T18:31:49Z</time>
      </trkpt>
      <trkpt lat="42.5174910" lon="-2.3563390">
        <ele>446.4</ele>
        <time>2020-03-29T18:31:51Z</time>
      </trkpt>
      <trkpt lat="42.5174430" lon="-2.3565360">
        <ele>446.2</ele>
        <time>2020-03-29T18:31:53Z</time>
      </trkpt>
      <trkpt lat="42.5173980" lon="-2.3567190">
        <ele>446.0</ele>
        <time>2020-03-29T18:31:55Z</time>
      </trkpt>
      <trkpt lat="42.5173570" lon="-2.3568900">
        <ele>445.7</ele>
        <time>2020-03-29T18:31:57Z</time>
      </trkpt>
      <trkpt lat="42.5172500" lon="-2.3573290">
        <ele>445.2</ele>
        <time>2020-03-29T18:31:59Z</time>
      </trkpt>
      <trkpt lat="42.5172120" lon="-2.3574860">
        <ele>445.1</ele>
        <time>2020-03-29T18:32:01Z</time>
      </trkpt>
      <trkpt lat="42.5171750" lon="-2.3576390">
        <ele>445.1</ele>
        <time>2020-03-29T18:32:03Z</time>
      </trkpt>
      <trkpt lat="42.5171380" lon="-2.3577890">
        <ele>445.0</ele>
        <time>2020-03-29T18:32:05Z</time>
      </trkpt>
      <trkpt lat="42.5170540" lon="-2.3581370">
        <ele>444.9</ele>
        <time>2020-03-29T18:32:07Z</time>
      </trkpt>
      <trkpt lat="42.5170030" lon="-2.3583640">
        <ele>444.8</ele>
        <time>2020-03-29T18:32:09Z</time>
      </trkpt>
      <trkpt lat="42.5169810" lon="-2.3585150">
        <ele>444.8</ele>
        <time>2020-03-29T18:32:11Z</time>
      </trkpt>
      <trkpt lat="42.5169730" lon="-2.3587650">
        <ele>444.7</ele>
        <time>2020-03-29T18:32:13Z</time>
      </trkpt>
      <trkpt lat="42.5170170" lon="-2.3589670">
        <ele>444.6</ele>
        <time>2020-03-29T18:32:15Z</time>
      </trkpt>
      <trkpt lat="42.5169610" lon="-2.3591440">
        <ele>444.7</ele>
        <time>2020-03-29T18:32:17Z</time>
      </trkpt>
      <trkpt lat="42.5168460" lon="-2.3592340">
        <ele>444.8</ele>
        <time>2020-03-29T18:32:19Z</time>
      </trkpt>
      <trkpt lat="42.5167570" lon="-2.3593900">
        <ele>445.1</ele>
        <time>2020-03-29T18:32:21Z</time>
      </trkpt>
      <trkpt lat="42.5167190" lon="-2.3595200">
        <ele>445.4</ele>
        <time>2020-03-29T18:32:23Z</time>
      </trkpt>
      <trkpt lat="42.5166610" lon="-2.3597280">
        <ele>445.7</ele>
        <time>2020-03-29T18:32:25Z</time>
      </trkpt>
      <trkpt lat="42.5166280" lon="-2.3598610">
        <ele>445.8</ele>
        <time>2020-03-29T18:32:27Z</time>
      </trkpt>
      <trkpt lat="42.5165960" lon="-2.3599890">
        <ele>445.8</ele>
        <time>2020-03-29T18:32:29Z</time>
      </trkpt>
      <trkpt lat="42.5165650" lon="-2.3601170">
        <ele>445.9</ele>
        <time>2020-03-29T18:32:31Z</time>
      </trkpt>
      <trkpt lat="42.5165330" lon="-2.3602450">
        <ele>446.0</ele>
        <time>2020-03-29T18:32:33Z</time>
      </trkpt>
      <trkpt lat="42.5165020" lon="-2.3603730">
        <ele>446.2</ele>
        <time>2020-03-29T18:32:35Z</time>
      </trkpt>
      <trkpt lat="42.5164050" lon="-2.3607640">
        <ele>446.5</ele>
        <time>2020-03-29T18:32:37Z</time>
      </trkpt>
      <trkpt lat="42.5163720" lon="-2.3608940">
        <ele>446.6</ele>
        <time>2020-03-29T18:32:39Z</time>
      </trkpt>
      <trkpt lat="42.5163390" lon="-2.3610270">
        <ele>446.7</ele>
        <time>2020-03-29T18:32:41Z</time>
      </trkpt>
      <trkpt lat="42.5163050" lon="-2.3611630">
        <ele>446.8</ele>
        <time>2020-03-29T18:32:43Z</time>
      </trkpt>
      <trkpt lat="42.5162710" lon="-2.3613030">
        <ele>446.9</ele>
        <time>2020-03-29T18:32:45Z</time>
      </trkpt>
      <trkpt lat="42.5161700" lon="-2.3617090">
        <ele>446.5</ele>
        <time>2020-03-29T18:32:47Z</time>
      </trkpt>
      <trkpt lat="42.5161350" lon="-2.3618530">
        <ele>446.4</ele>
        <time>2020-03-29T18:32:49Z</time>
      </trkpt>
      <trkpt lat="42.5160780" lon="-2.3620860">
        <ele>446.4</ele>
        <time>2020-03-29T18:32:51Z</time>
      </trkpt>
      <trkpt lat="42.5160410" lon="-2.3622350">
        <ele>446.3</ele>
        <time>2020-03-29T18:32:53Z</time>
      </trkpt>
      <trkpt lat="42.5160050" lon="-2.3623820">
        <ele>446.2</ele>
        <time>2020-03-29T18:32:55Z</time>
      </trkpt>
      <trkpt lat="42.5159250" lon="-2.3627090">
        <ele>445.9</ele>
        <time>2020-03-29T18:32:57Z</time>
      </trkpt>
      <trkpt lat="42.5158880" lon="-2.3628590">
        <ele>445.7</ele>
        <time>2020-03-29T18:32:59Z</time>
      </trkpt>
      <trkpt lat="42.5158520" lon="-2.3630060">
        <ele>445.6</ele>
        <time>2020-03-29T18:33:01Z</time>
      </trkpt>
      <trkpt lat="42.5158150" lon="-2.3631550">
        <ele>445.6</ele>
        <time>2020-03-29T18:33:03Z</time>
      </trkpt>
      <trkpt lat="42.5157800" lon="-2.3633010">
        <ele>445.6</ele>
        <time>2020-03-29T18:33:05Z</time>
      </trkpt>
      <trkpt lat="42.5157440" lon="-2.3634450">
        <ele>445.8</ele>
        <time>2020-03-29T18:33:07Z</time>
      </trkpt>
      <trkpt lat="42.5156350" lon="-2.3638940">
        <ele>446.3</ele>
        <time>2020-03-29T18:33:09Z</time>
      </trkpt>
      <trkpt lat="42.5155990" lon="-2.3640380">
        <ele>446.0</ele>
        <time>2020-03-29T18:33:11Z</time>
      </trkpt>
      <trkpt lat="42.5155410" lon="-2.3642740">
        <ele>445.8</ele>
        <time>2020-03-29T18:33:13Z</time>
      </trkpt>
      <trkpt lat="42.5155060" lon="-2.3644130">
        <ele>445.7</ele>
        <time>2020-03-29T18:33:15Z</time>
      </trkpt>
      <trkpt lat="42.5154410" lon="-2.3646710">
        <ele>445.8</ele>
        <time>2020-03-29T18:33:17Z</time>
      </trkpt>
      <trkpt lat="42.5154030" lon="-2.3648260">
        <ele>445.8</ele>
        <time>2020-03-29T18:33:19Z</time>
      </trkpt>
      <trkpt lat="42.5153710" lon="-2.3649630">
        <ele>445.9</ele>
        <time>2020-03-29T18:33:21Z</time>
      </trkpt>
      <trkpt lat="42.5153380" lon="-2.3651010">
        <ele>446.0</ele>
        <time>2020-03-29T18:33:23Z</time>
      </trkpt>
      <trkpt lat="42.5153060" lon="-2.3652370">
        <ele>446.0</ele>
        <time>2020-03-29T18:33:25Z</time>
      </trkpt>
      <trkpt lat="42.5152280" lon="-2.3655600">
        <ele>446.4</ele>
        <time>2020-03-29T18:33:27Z</time>
      </trkpt>
      <trkpt lat="42.5151750" lon="-2.3657780">
        <ele>446.6</ele>
        <time>2020-03-29T18:33:29Z</time>
      </trkpt>
      <trkpt lat="42.5151410" lon="-2.3659180">
        <ele>446.7</ele>
        <time>2020-03-29T18:33:31Z</time>
      </trkpt>
      <trkpt lat="42.5150760" lon="-2.3661750">
        <ele>446.9</ele>
        <time>2020-03-29T18:33:33Z</time>
      </trkpt>
      <trkpt lat="42.5150450" lon="-2.3663240">
        <ele>446.8</ele>
        <time>2020-03-29T18:33:35Z</time>
      </trkpt>
      <trkpt lat="42.5149940" lon="-2.3665510">
        <ele>446.8</ele>
        <time>2020-03-29T18:33:37Z</time>
      </trkpt>
      <trkpt lat="42.5149280" lon="-2.3667770">
        <ele>446.8</ele>
        <time>2020-03-29T18:33:39Z</time>
      </trkpt>
      <trkpt lat="42.5148580" lon="-2.3669710">
        <ele>446.6</ele>
        <time>2020-03-29T18:33:41Z</time>
      </trkpt>
      <trkpt lat="42.5147820" lon="-2.3671580">
        <ele>446.2</ele>
        <time>2020-03-29T18:33:43Z</time>
      </trkpt>
      <trkpt lat="42.5146800" lon="-2.3673650">
        <ele>445.9</ele>
        <time>2020-03-29T18:33:45Z</time>
      </trkpt>
      <trkpt lat="42.5146090" lon="-2.3675840">
        <ele>445.7</ele>
        <time>2020-03-29T18:33:47Z</time>
      </trkpt>
      <trkpt lat="42.5145610" lon="-2.3678290">
        <ele>446.1</ele>
        <time>2020-03-29T18:33:49Z</time>
      </trkpt>
      <trkpt lat="42.5143880" lon="-2.3679070">
        <ele>444.7</ele>
        <time>2020-03-29T18:33:51Z</time>
      </trkpt>
      <trkpt lat="42.5142370" lon="-2.3680790">
        <ele>444.3</ele>
        <time>2020-03-29T18:33:53Z</time>
      </trkpt>
      <trkpt lat="42.5140880" lon="-2.3683180">
        <ele>443.1</ele>
        <time>2020-03-29T18:33:55Z</time>
      </trkpt>
      <trkpt lat="42.5139520" lon="-2.3685290">
        <ele>441.9</ele>
        <time>2020-03-29T18:33:57Z</time>
      </trkpt>
      <trkpt lat="42.5138010" lon="-2.3687690">
        <ele>440.9</ele>
        <time>2020-03-29T18:33:59Z</time>
      </trkpt>
      <trkpt lat="42.5136470" lon="-2.3690410">
        <ele>440.0</ele>
        <time>2020-03-29T18:34:01Z</time>
      </trkpt>
      <trkpt lat="42.5135140" lon="-2.3693200">
        <ele>439.0</ele>
        <time>2020-03-29T18:34:03Z</time>
      </trkpt>
      <trkpt lat="42.5134000" lon="-2.3695980">
        <ele>438.5</ele>
        <time>2020-03-29T18:34:05Z</time>
      </trkpt>
      <trkpt lat="42.5133060" lon="-2.3698980">
        <ele>437.9</ele>
        <time>2020-03-29T18:34:07Z</time>
      </trkpt>
      <trkpt lat="42.5132270" lon="-2.3702170">
        <ele>437.1</ele>
        <time>2020-03-29T18:34:09Z</time>
      </trkpt>
      <trkpt lat="42.5131750" lon="-2.3704440">
        <ele>436.7</ele>
        <time>2020-03-29T18:34:11Z</time>
      </trkpt>
      <trkpt lat="42.5130800" lon="-2.3708660">
        <ele>436.0</ele>
        <time>2020-03-29T18:34:13Z</time>
      </trkpt>
      <trkpt lat="42.5130200" lon="-2.3711340">
        <ele>435.3</ele>
        <time>2020-03-29T18:34:15Z</time>
      </trkpt>
      <trkpt lat="42.5129630" lon="-2.3714230">
        <ele>434.9</ele>
        <time>2020-03-29T18:34:17Z</time>
      </trkpt>
      <trkpt lat="42.5129140" lon="-2.3717300">
        <ele>434.6</ele>
        <time>2020-03-29T18:34:19Z</time>
      </trkpt>
      <trkpt lat="42.5128720" lon="-2.3720450">
        <ele>434.1</ele>
        <time>2020-03-29T18:34:22Z</time>
      </trkpt>
      <trkpt lat="42.5128410" lon="-2.3723170">
        <ele>433.9</ele>
        <time>2020-03-29T18:34:24Z</time>
      </trkpt>
      <trkpt lat="42.5128050" lon="-2.3726360">
        <ele>433.8</ele>
        <time>2020-03-29T18:34:26Z</time>
      </trkpt>
      <trkpt lat="42.5127770" lon="-2.3728900">
        <ele>433.9</ele>
        <time>2020-03-29T18:34:28Z</time>
      </trkpt>
      <trkpt lat="42.5127540" lon="-2.3730930">
        <ele>434.1</ele>
        <time>2020-03-29T18:34:30Z</time>
      </trkpt>
      <trkpt lat="42.5127160" lon="-2.3734290">
        <ele>434.1</ele>
        <time>2020-03-29T18:34:32Z</time>
      </trkpt>
      <trkpt lat="42.5126920" lon="-2.3736290">
        <ele>434.0</ele>
        <time>2020-03-29T18:34:34Z</time>
      </trkpt>
      <trkpt lat="42.5126480" lon="-2.3739940">
        <ele>433.5</ele>
        <time>2020-03-29T18:34:36Z</time>
      </trkpt>
      <trkpt lat="42.5126200" lon="-2.3742420">
        <ele>432.2</ele>
        <time>2020-03-29T18:34:38Z</time>
      </trkpt>
      <trkpt lat="42.5125950" lon="-2.3744560">
        <ele>430.9</ele>
        <time>2020-03-29T18:34:40Z</time>
      </trkpt>
      <trkpt lat="42.5125490" lon="-2.3748420">
        <ele>429.1</ele>
        <time>2020-03-29T18:34:42Z</time>
      </trkpt>
      <trkpt lat="42.5125430" lon="-2.3751970">
        <ele>427.9</ele>
        <time>2020-03-29T18:34:44Z</time>
      </trkpt>
      <trkpt lat="42.5126090" lon="-2.3754860">
        <ele>427.8</ele>
        <time>2020-03-29T18:34:46Z</time>
      </trkpt>
      <trkpt lat="42.5124320" lon="-2.3757340">
        <ele>426.8</ele>
        <time>2020-03-29T18:34:48Z</time>
      </trkpt>
      <trkpt lat="42.5123160" lon="-2.3759920">
        <ele>426.1</ele>
        <time>2020-03-29T18:34:50Z</time>
      </trkpt>
      <trkpt lat="42.5121810" lon="-2.3762440">
        <ele>425.4</ele>
        <time>2020-03-29T18:34:52Z</time>
      </trkpt>
      <trkpt lat="42.5120390" lon="-2.3764410">
        <ele>424.8</ele>
        <time>2020-03-29T18:34:54Z</time>
      </trkpt>
      <trkpt lat="42.5119110" lon="-2.3766420">
        <ele>424.3</ele>
        <time>2020-03-29T18:34:56Z</time>
      </trkpt>
      <trkpt lat="42.5118070" lon="-2.3768050">
        <ele>423.8</ele>
        <time>2020-03-29T18:34:58Z</time>
      </trkpt>
      <trkpt lat="42.5117000" lon="-2.3769730">
        <ele>423.3</ele>
        <time>2020-03-29T18:35:00Z</time>
      </trkpt>
      <trkpt lat="42.5114820" lon="-2.3773140">
        <ele>422.6</ele>
        <time>2020-03-29T18:35:02Z</time>
      </trkpt>
      <trkpt lat="42.5113080" lon="-2.3775830">
        <ele>422.2</ele>
        <time>2020-03-29T18:35:04Z</time>
      </trkpt>
      <trkpt lat="42.5112030" lon="-2.3777510">
        <ele>422.1</ele>
        <time>2020-03-29T18:35:06Z</time>
      </trkpt>
      <trkpt lat="42.5110300" lon="-2.3780260">
        <ele>422.2</ele>
        <time>2020-03-29T18:35:08Z</time>
      </trkpt>
      <trkpt lat="42.5109290" lon="-2.3781810">
        <ele>422.7</ele>
        <time>2020-03-29T18:35:10Z</time>
      </trkpt>
      <trkpt lat="42.5108330" lon="-2.3783290">
        <ele>422.8</ele>
        <time>2020-03-29T18:35:12Z</time>
      </trkpt>
      <trkpt lat="42.5107390" lon="-2.3784730">
        <ele>422.9</ele>
        <time>2020-03-29T18:35:14Z</time>
      </trkpt>
      <trkpt lat="42.5105080" lon="-2.3788290">
        <ele>422.9</ele>
        <time>2020-03-29T18:35:16Z</time>
      </trkpt>
      <trkpt lat="42.5104180" lon="-2.3789680">
        <ele>422.9</ele>
        <time>2020-03-29T18:35:18Z</time>
      </trkpt>
      <trkpt lat="42.5103280" lon="-2.3791070">
        <ele>422.9</ele>
        <time>2020-03-29T18:35:20Z</time>
      </trkpt>
      <trkpt lat="42.5102370" lon="-2.3792470">
        <ele>422.9</ele>
        <time>2020-03-29T18:35:22Z</time>
      </trkpt>
      <trkpt lat="42.5101450" lon="-2.3793880">
        <ele>422.9</ele>
        <time>2020-03-29T18:35:24Z</time>
      </trkpt>
      <trkpt lat="42.5098980" lon="-2.3797710">
        <ele>422.9</ele>
        <time>2020-03-29T18:35:26Z</time>
      </trkpt>
      <trkpt lat="42.5098010" lon="-2.3799200">
        <ele>422.8</ele>
        <time>2020-03-29T18:35:28Z</time>
      </trkpt>
      <trkpt lat="42.5097010" lon="-2.3800750">
        <ele>422.8</ele>
        <time>2020-03-29T18:35:30Z</time>
      </trkpt>
      <trkpt lat="42.5094740" lon="-2.3804240">
        <ele>422.8</ele>
        <time>2020-03-29T18:35:32Z</time>
      </trkpt>
      <trkpt lat="42.5093660" lon="-2.3805910">
        <ele>422.6</ele>
        <time>2020-03-29T18:35:34Z</time>
      </trkpt>
      <trkpt lat="42.5092550" lon="-2.3807620">
        <ele>422.2</ele>
        <time>2020-03-29T18:35:36Z</time>
      </trkpt>
      <trkpt lat="42.5091410" lon="-2.3809370">
        <ele>421.5</ele>
        <time>2020-03-29T18:35:38Z</time>
      </trkpt>
      <trkpt lat="42.5088860" lon="-2.3813310">
        <ele>419.5</ele>
        <time>2020-03-29T18:35:40Z</time>
      </trkpt>
      <trkpt lat="42.5087710" lon="-2.3815090">
        <ele>418.7</ele>
        <time>2020-03-29T18:35:42Z</time>
      </trkpt>
      <trkpt lat="42.5086580" lon="-2.3816840">
        <ele>418.0</ele>
        <time>2020-03-29T18:35:44Z</time>
      </trkpt>
      <trkpt lat="42.5084050" lon="-2.3820750">
        <ele>416.9</ele>
        <time>2020-03-29T18:35:46Z</time>
      </trkpt>
      <trkpt lat="42.5082920" lon="-2.3822490">
        <ele>416.7</ele>
        <time>2020-03-29T18:35:48Z</time>
      </trkpt>
      <trkpt lat="42.5081830" lon="-2.3824180">
        <ele>416.7</ele>
        <time>2020-03-29T18:35:50Z</time>
      </trkpt>
      <trkpt lat="42.5080750" lon="-2.3825840">
        <ele>416.7</ele>
        <time>2020-03-29T18:35:52Z</time>
      </trkpt>
      <trkpt lat="42.5078290" lon="-2.3829640">
        <ele>416.5</ele>
        <time>2020-03-29T18:35:54Z</time>
      </trkpt>
      <trkpt lat="42.5077210" lon="-2.3831300">
        <ele>416.2</ele>
        <time>2020-03-29T18:35:56Z</time>
      </trkpt>
      <trkpt lat="42.5076140" lon="-2.3832970">
        <ele>415.7</ele>
        <time>2020-03-29T18:35:58Z</time>
      </trkpt>
      <trkpt lat="42.5075060" lon="-2.3834630">
        <ele>415.2</ele>
        <time>2020-03-29T18:36:00Z</time>
      </trkpt>
      <trkpt lat="42.5072600" lon="-2.3838440">
        <ele>413.9</ele>
        <time>2020-03-29T18:36:02Z</time>
      </trkpt>
      <trkpt lat="42.5071530" lon="-2.3840110">
        <ele>413.0</ele>
        <time>2020-03-29T18:36:04Z</time>
      </trkpt>
      <trkpt lat="42.5070450" lon="-2.3841780">
        <ele>412.3</ele>
        <time>2020-03-29T18:36:06Z</time>
      </trkpt>
      <trkpt lat="42.5069370" lon="-2.3843470">
        <ele>411.8</ele>
        <time>2020-03-29T18:36:08Z</time>
      </trkpt>
      <trkpt lat="42.5066770" lon="-2.3847510">
        <ele>410.9</ele>
        <time>2020-03-29T18:36:10Z</time>
      </trkpt>
      <trkpt lat="42.5065740" lon="-2.3849120">
        <ele>410.6</ele>
        <time>2020-03-29T18:36:12Z</time>
      </trkpt>
      <trkpt lat="42.5064730" lon="-2.3850690">
        <ele>410.2</ele>
        <time>2020-03-29T18:36:14Z</time>
      </trkpt>
      <trkpt lat="42.5063750" lon="-2.3852200">
        <ele>409.9</ele>
        <time>2020-03-29T18:36:16Z</time>
      </trkpt>
      <trkpt lat="42.5061320" lon="-2.3855990">
        <ele>409.2</ele>
        <time>2020-03-29T18:36:18Z</time>
      </trkpt>
      <trkpt lat="42.5060470" lon="-2.3857300">
        <ele>408.9</ele>
        <time>2020-03-29T18:36:20Z</time>
      </trkpt>
      <trkpt lat="42.5059700" lon="-2.3858510">
        <ele>408.7</ele>
        <time>2020-03-29T18:36:22Z</time>
      </trkpt>
      <trkpt lat="42.5058980" lon="-2.3859620">
        <ele>408.6</ele>
        <time>2020-03-29T18:36:24Z</time>
      </trkpt>
      <trkpt lat="42.5058330" lon="-2.3860640">
        <ele>408.6</ele>
        <time>2020-03-29T18:36:26Z</time>
      </trkpt>
      <trkpt lat="42.5057720" lon="-2.3861580">
        <ele>408.5</ele>
        <time>2020-03-29T18:36:28Z</time>
      </trkpt>
      <trkpt lat="42.5055650" lon="-2.3864810">
        <ele>408.0</ele>
        <time>2020-03-29T18:36:30Z</time>
      </trkpt>
      <trkpt lat="42.5055320" lon="-2.3865320">
        <ele>407.9</ele>
        <time>2020-03-29T18:36:32Z</time>
      </trkpt>
      <trkpt lat="42.5055290" lon="-2.3865360">
        <ele>407.9</ele>
        <time>2020-03-29T18:36:34Z</time>
      </trkpt>
      <trkpt lat="42.5055290" lon="-2.3865360">
        <ele>407.9</ele>
        <time>2020-03-29T18:36:36Z</time>
      </trkpt>
      <trkpt lat="42.5055290" lon="-2.3865360">
        <ele>407.9</ele>
        <time>2020-03-29T18:36:38Z</time>
      </trkpt>
      <trkpt lat="42.5055290" lon="-2.3865360">
        <ele>407.9</ele>
        <time>2020-03-29T18:36:40Z</time>
      </trkpt>
      <trkpt lat="42.5055290" lon="-2.3865360">
        <ele>407.9</ele>
        <time>2020-03-29T18:36:42Z</time>
      </trkpt>
      <trkpt lat="42.5055290" lon="-2.3865360">
        <ele>407.9</ele>
        <time>2020-03-29T18:36:44Z</time>
      </trkpt>
      <trkpt lat="42.5055290" lon="-2.3865360">
        <ele>407.9</ele>
        <time>2020-03-29T18:36:46Z</time>
      </trkpt>
      <trkpt lat="42.5055290" lon="-2.3865360">
        <ele>407.9</ele>
        <time>2020-03-29T18:36:48Z</time>
      </trkpt>
      <trkpt lat="42.5055290" lon="-2.3865360">
        <ele>407.9</ele>
        <time>2020-03-29T18:36:50Z</time>
      </trkpt>
      <trkpt lat="42.5055290" lon="-2.3865360">
        <ele>407.9</ele>
        <time>2020-03-29T18:36:52Z</time>
      </trkpt>
      <trkpt lat="42.5055290" lon="-2.3865360">
        <ele>407.9</ele>
        <time>2020-03-29T18:36:54Z</time>
      </trkpt>
      <trkpt lat="42.5055290" lon="-2.3865360">
        <ele>407.9</ele>
        <time>2020-03-29T18:36:56Z</time>
      </trkpt>
      <trkpt lat="42.5055290" lon="-2.3865360">
        <ele>407.9</ele>
        <time>2020-03-29T18:36:58Z</time>
      </trkpt>
      <trkpt lat="42.5055290" lon="-2.3865360">
        <ele>407.9</ele>
        <time>2020-03-29T18:37:00Z</time>
      </trkpt>
      <trkpt lat="42.5055290" lon="-2.3865360">
        <ele>407.9</ele>
        <time>2020-03-29T18:37:02Z</time>
      </trkpt>
      <trkpt lat="42.5055220" lon="-2.3865470">
        <ele>407.9</ele>
        <time>2020-03-29T18:37:04Z</time>
      </trkpt>
      <trkpt lat="42.5054990" lon="-2.3865820">
        <ele>407.8</ele>
        <time>2020-03-29T18:37:06Z</time>
      </trkpt>
      <trkpt lat="42.5054650" lon="-2.3866370">
        <ele>407.7</ele>
        <time>2020-03-29T18:37:08Z</time>
      </trkpt>
      <trkpt lat="42.5054210" lon="-2.3867040">
        <ele>407.5</ele>
        <time>2020-03-29T18:37:10Z</time>
      </trkpt>
      <trkpt lat="42.5053720" lon="-2.3867810">
        <ele>407.4</ele>
        <time>2020-03-29T18:37:12Z</time>
      </trkpt>
      <trkpt lat="42.5053170" lon="-2.3868670">
        <ele>407.2</ele>
        <time>2020-03-29T18:37:14Z</time>
      </trkpt>
      <trkpt lat="42.5051370" lon="-2.3871480">
        <ele>406.5</ele>
        <time>2020-03-29T18:37:16Z</time>
      </trkpt>
      <trkpt lat="42.5050740" lon="-2.3872440">
        <ele>406.4</ele>
        <time>2020-03-29T18:37:18Z</time>
      </trkpt>
      <trkpt lat="42.5049770" lon="-2.3873940">
        <ele>406.3</ele>
        <time>2020-03-29T18:37:20Z</time>
      </trkpt>
      <trkpt lat="42.5048720" lon="-2.3875570">
        <ele>406.1</ele>
        <time>2020-03-29T18:37:22Z</time>
      </trkpt>
      <trkpt lat="42.5048020" lon="-2.3876670">
        <ele>406.0</ele>
        <time>2020-03-29T18:37:24Z</time>
      </trkpt>
      <trkpt lat="42.5047300" lon="-2.3877770">
        <ele>405.9</ele>
        <time>2020-03-29T18:37:26Z</time>
      </trkpt>
      <trkpt lat="42.5046570" lon="-2.3878920">
        <ele>405.8</ele>
        <time>2020-03-29T18:37:28Z</time>
      </trkpt>
      <trkpt lat="42.5045830" lon="-2.3880060">
        <ele>405.6</ele>
        <time>2020-03-29T18:37:30Z</time>
      </trkpt>
      <trkpt lat="42.5043910" lon="-2.3883040">
        <ele>405.3</ele>
        <time>2020-03-29T18:37:32Z</time>
      </trkpt>
      <trkpt lat="42.5043160" lon="-2.3884220">
        <ele>405.2</ele>
        <time>2020-03-29T18:37:34Z</time>
      </trkpt>
      <trkpt lat="42.5042390" lon="-2.3885410">
        <ele>405.1</ele>
        <time>2020-03-29T18:37:36Z</time>
      </trkpt>
      <trkpt lat="42.5041620" lon="-2.3886610">
        <ele>405.1</ele>
        <time>2020-03-29T18:37:38Z</time>
      </trkpt>
      <trkpt lat="42.5040840" lon="-2.3887830">
        <ele>405.2</ele>
        <time>2020-03-29T18:37:40Z</time>
      </trkpt>
      <trkpt lat="42.5038530" lon="-2.3891420">
        <ele>405.5</ele>
        <time>2020-03-29T18:37:42Z</time>
      </trkpt>
      <trkpt lat="42.5037720" lon="-2.3892680">
        <ele>405.7</ele>
        <time>2020-03-29T18:37:44Z</time>
      </trkpt>
      <trkpt lat="42.5036890" lon="-2.3893980">
        <ele>405.9</ele>
        <time>2020-03-29T18:37:46Z</time>
      </trkpt>
      <trkpt lat="42.5036030" lon="-2.3895320">
        <ele>406.0</ele>
        <time>2020-03-29T18:37:48Z</time>
      </trkpt>
      <trkpt lat="42.5035140" lon="-2.3896700">
        <ele>406.0</ele>
        <time>2020-03-29T18:37:50Z</time>
      </trkpt>
      <trkpt lat="42.5032700" lon="-2.3900490">
        <ele>406.0</ele>
        <time>2020-03-29T18:37:52Z</time>
      </trkpt>
      <trkpt lat="42.5031780" lon="-2.3901930">
        <ele>406.0</ele>
        <time>2020-03-29T18:37:54Z</time>
      </trkpt>
      <trkpt lat="42.5030830" lon="-2.3903400">
        <ele>405.9</ele>
        <time>2020-03-29T18:37:56Z</time>
      </trkpt>
      <trkpt lat="42.5029880" lon="-2.3904870">
        <ele>405.8</ele>
        <time>2020-03-29T18:37:58Z</time>
      </trkpt>
      <trkpt lat="42.5028910" lon="-2.3906380">
        <ele>405.7</ele>
        <time>2020-03-29T18:38:00Z</time>
      </trkpt>
      <trkpt lat="42.5026390" lon="-2.3910300">
        <ele>404.4</ele>
        <time>2020-03-29T18:38:02Z</time>
      </trkpt>
      <trkpt lat="42.5025390" lon="-2.3911870">
        <ele>403.9</ele>
        <time>2020-03-29T18:38:04Z</time>
      </trkpt>
      <trkpt lat="42.5024350" lon="-2.3913480">
        <ele>403.1</ele>
        <time>2020-03-29T18:38:06Z</time>
      </trkpt>
      <trkpt lat="42.5023300" lon="-2.3915130">
        <ele>402.4</ele>
        <time>2020-03-29T18:38:08Z</time>
      </trkpt>
      <trkpt lat="42.5020690" lon="-2.3919180">
        <ele>401.1</ele>
        <time>2020-03-29T18:38:10Z</time>
      </trkpt>
      <trkpt lat="42.5019600" lon="-2.3920890">
        <ele>400.6</ele>
        <time>2020-03-29T18:38:12Z</time>
      </trkpt>
      <trkpt lat="42.5018490" lon="-2.3922610">
        <ele>400.0</ele>
        <time>2020-03-29T18:38:14Z</time>
      </trkpt>
      <trkpt lat="42.5017370" lon="-2.3924360">
        <ele>399.4</ele>
        <time>2020-03-29T18:38:16Z</time>
      </trkpt>
      <trkpt lat="42.5014690" lon="-2.3928510">
        <ele>398.9</ele>
        <time>2020-03-29T18:38:18Z</time>
      </trkpt>
      <trkpt lat="42.5013590" lon="-2.3930220">
        <ele>398.9</ele>
        <time>2020-03-29T18:38:20Z</time>
      </trkpt>
      <trkpt lat="42.5012530" lon="-2.3931870">
        <ele>398.9</ele>
        <time>2020-03-29T18:38:22Z</time>
      </trkpt>
      <trkpt lat="42.5011480" lon="-2.3933490">
        <ele>398.9</ele>
        <time>2020-03-29T18:38:24Z</time>
      </trkpt>
      <trkpt lat="42.5008940" lon="-2.3937440">
        <ele>398.8</ele>
        <time>2020-03-29T18:38:26Z</time>
      </trkpt>
      <trkpt lat="42.5007950" lon="-2.3938990">
        <ele>398.8</ele>
        <time>2020-03-29T18:38:28Z</time>
      </trkpt>
      <trkpt lat="42.5006970" lon="-2.3940500">
        <ele>398.8</ele>
        <time>2020-03-29T18:38:30Z</time>
      </trkpt>
      <trkpt lat="42.5006020" lon="-2.3941990">
        <ele>398.8</ele>
        <time>2020-03-29T18:38:32Z</time>
      </trkpt>
      <trkpt lat="42.5003550" lon="-2.3945830">
        <ele>398.4</ele>
        <time>2020-03-29T18:38:34Z</time>
      </trkpt>
      <trkpt lat="42.5002600" lon="-2.3947290">
        <ele>397.8</ele>
        <time>2020-03-29T18:38:36Z</time>
      </trkpt>
      <trkpt lat="42.5001630" lon="-2.3948800">
        <ele>397.2</ele>
        <time>2020-03-29T18:38:38Z</time>
      </trkpt>
      <trkpt lat="42.5000630" lon="-2.3950360">
        <ele>396.9</ele>
        <time>2020-03-29T18:38:40Z</time>
      </trkpt>
      <trkpt lat="42.4999610" lon="-2.3951950">
        <ele>396.8</ele>
        <time>2020-03-29T18:38:42Z</time>
      </trkpt>
      <trkpt lat="42.4997030" lon="-2.3955960">
        <ele>396.6</ele>
        <time>2020-03-29T18:38:44Z</time>
      </trkpt>
      <trkpt lat="42.4995960" lon="-2.3957620">
        <ele>396.1</ele>
        <time>2020-03-29T18:38:46Z</time>
      </trkpt>
      <trkpt lat="42.4994880" lon="-2.3959300">
        <ele>395.2</ele>
        <time>2020-03-29T18:38:48Z</time>
      </trkpt>
      <trkpt lat="42.4993780" lon="-2.3961010">
        <ele>394.8</ele>
        <time>2020-03-29T18:38:50Z</time>
      </trkpt>
      <trkpt lat="42.4991160" lon="-2.3965090">
        <ele>394.7</ele>
        <time>2020-03-29T18:38:52Z</time>
      </trkpt>
      <trkpt lat="42.4990130" lon="-2.3966690">
        <ele>394.7</ele>
        <time>2020-03-29T18:38:54Z</time>
      </trkpt>
      <trkpt lat="42.4989150" lon="-2.3968210">
        <ele>394.7</ele>
        <time>2020-03-29T18:38:56Z</time>
      </trkpt>
      <trkpt lat="42.4988210" lon="-2.3969670">
        <ele>394.7</ele>
        <time>2020-03-29T18:38:58Z</time>
      </trkpt>
      <trkpt lat="42.4985770" lon="-2.3973470">
        <ele>394.6</ele>
        <time>2020-03-29T18:39:00Z</time>
      </trkpt>
      <trkpt lat="42.4984730" lon="-2.3975090">
        <ele>394.6</ele>
        <time>2020-03-29T18:39:02Z</time>
      </trkpt>
      <trkpt lat="42.4983840" lon="-2.3976480">
        <ele>394.6</ele>
        <time>2020-03-29T18:39:04Z</time>
      </trkpt>
      <trkpt lat="42.4982950" lon="-2.3977860">
        <ele>394.6</ele>
        <time>2020-03-29T18:39:06Z</time>
      </trkpt>
      <trkpt lat="42.4982070" lon="-2.3979230">
        <ele>394.6</ele>
        <time>2020-03-29T18:39:08Z</time>
      </trkpt>
      <trkpt lat="42.4979790" lon="-2.3982770">
        <ele>394.9</ele>
        <time>2020-03-29T18:39:10Z</time>
      </trkpt>
      <trkpt lat="42.4978930" lon="-2.3984100">
        <ele>395.1</ele>
        <time>2020-03-29T18:39:12Z</time>
      </trkpt>
      <trkpt lat="42.4978100" lon="-2.3985380">
        <ele>395.3</ele>
        <time>2020-03-29T18:39:14Z</time>
      </trkpt>
      <trkpt lat="42.4977290" lon="-2.3986640">
        <ele>395.4</ele>
        <time>2020-03-29T18:39:16Z</time>
      </trkpt>
      <trkpt lat="42.4976500" lon="-2.3987880">
        <ele>395.4</ele>
        <time>2020-03-29T18:39:18Z</time>
      </trkpt>
      <trkpt lat="42.4974190" lon="-2.3991460">
        <ele>396.1</ele>
        <time>2020-03-29T18:39:20Z</time>
      </trkpt>
      <trkpt lat="42.4973440" lon="-2.3992640">
        <ele>396.6</ele>
        <time>2020-03-29T18:39:22Z</time>
      </trkpt>
      <trkpt lat="42.4972240" lon="-2.3994500">
        <ele>397.5</ele>
        <time>2020-03-29T18:39:24Z</time>
      </trkpt>
      <trkpt lat="42.4971530" lon="-2.3995600">
        <ele>397.8</ele>
        <time>2020-03-29T18:39:26Z</time>
      </trkpt>
      <trkpt lat="42.4970850" lon="-2.3996640">
        <ele>398.1</ele>
        <time>2020-03-29T18:39:28Z</time>
      </trkpt>
      <trkpt lat="42.4970200" lon="-2.3997650">
        <ele>398.3</ele>
        <time>2020-03-29T18:39:30Z</time>
      </trkpt>
      <trkpt lat="42.4968500" lon="-2.4000270">
        <ele>399.1</ele>
        <time>2020-03-29T18:39:32Z</time>
      </trkpt>
      <trkpt lat="42.4967890" lon="-2.4001210">
        <ele>399.3</ele>
        <time>2020-03-29T18:39:34Z</time>
      </trkpt>
      <trkpt lat="42.4967310" lon="-2.4002110">
        <ele>399.5</ele>
        <time>2020-03-29T18:39:36Z</time>
      </trkpt>
      <trkpt lat="42.4966740" lon="-2.4002990">
        <ele>399.8</ele>
        <time>2020-03-29T18:39:38Z</time>
      </trkpt>
      <trkpt lat="42.4966190" lon="-2.4003850">
        <ele>400.1</ele>
        <time>2020-03-29T18:39:40Z</time>
      </trkpt>
      <trkpt lat="42.4965640" lon="-2.4004690">
        <ele>400.3</ele>
        <time>2020-03-29T18:39:42Z</time>
      </trkpt>
      <trkpt lat="42.4965110" lon="-2.4005520">
        <ele>400.5</ele>
        <time>2020-03-29T18:39:44Z</time>
      </trkpt>
      <trkpt lat="42.4964580" lon="-2.4006340">
        <ele>400.7</ele>
        <time>2020-03-29T18:39:46Z</time>
      </trkpt>
      <trkpt lat="42.4962530" lon="-2.4009520">
        <ele>401.5</ele>
        <time>2020-03-29T18:39:48Z</time>
      </trkpt>
      <trkpt lat="42.4962000" lon="-2.4010340">
        <ele>401.8</ele>
        <time>2020-03-29T18:39:50Z</time>
      </trkpt>
      <trkpt lat="42.4961460" lon="-2.4011170">
        <ele>402.0</ele>
        <time>2020-03-29T18:39:52Z</time>
      </trkpt>
      <trkpt lat="42.4960910" lon="-2.4012010">
        <ele>402.2</ele>
        <time>2020-03-29T18:39:54Z</time>
      </trkpt>
      <trkpt lat="42.4960360" lon="-2.4012860">
        <ele>402.4</ele>
        <time>2020-03-29T18:39:56Z</time>
      </trkpt>
      <trkpt lat="42.4959810" lon="-2.4013720">
        <ele>402.6</ele>
        <time>2020-03-29T18:39:58Z</time>
      </trkpt>
      <trkpt lat="42.4959250" lon="-2.4014580">
        <ele>402.9</ele>
        <time>2020-03-29T18:40:00Z</time>
      </trkpt>
      <trkpt lat="42.4958700" lon="-2.4015440">
        <ele>403.1</ele>
        <time>2020-03-29T18:40:02Z</time>
      </trkpt>
      <trkpt lat="42.4956610" lon="-2.4018670">
        <ele>403.7</ele>
        <time>2020-03-29T18:40:04Z</time>
      </trkpt>
      <trkpt lat="42.4956050" lon="-2.4019530">
        <ele>403.9</ele>
        <time>2020-03-29T18:40:06Z</time>
      </trkpt>
      <trkpt lat="42.4955500" lon="-2.4020390">
        <ele>404.1</ele>
        <time>2020-03-29T18:40:08Z</time>
      </trkpt>
      <trkpt lat="42.4954950" lon="-2.4021240">
        <ele>404.3</ele>
        <time>2020-03-29T18:40:10Z</time>
      </trkpt>
      <trkpt lat="42.4954390" lon="-2.4022100">
        <ele>404.4</ele>
        <time>2020-03-29T18:40:12Z</time>
      </trkpt>
      <trkpt lat="42.4953840" lon="-2.4022960">
        <ele>404.5</ele>
        <time>2020-03-29T18:40:14Z</time>
      </trkpt>
      <trkpt lat="42.4953280" lon="-2.4023820">
        <ele>404.7</ele>
        <time>2020-03-29T18:40:16Z</time>
      </trkpt>
      <trkpt lat="42.4952730" lon="-2.4024680">
        <ele>404.9</ele>
        <time>2020-03-29T18:40:18Z</time>
      </trkpt>
      <trkpt lat="42.4950630" lon="-2.4027920">
        <ele>405.3</ele>
        <time>2020-03-29T18:40:20Z</time>
      </trkpt>
      <trkpt lat="42.4950040" lon="-2.4028840">
        <ele>405.4</ele>
        <time>2020-03-29T18:40:22Z</time>
      </trkpt>
      <trkpt lat="42.4949440" lon="-2.4029760">
        <ele>405.5</ele>
        <time>2020-03-29T18:40:24Z</time>
      </trkpt>
      <trkpt lat="42.4948820" lon="-2.4030720">
        <ele>405.7</ele>
        <time>2020-03-29T18:40:26Z</time>
      </trkpt>
      <trkpt lat="42.4948200" lon="-2.4031690">
        <ele>406.0</ele>
        <time>2020-03-29T18:40:28Z</time>
      </trkpt>
      <trkpt lat="42.4947560" lon="-2.4032680">
        <ele>406.2</ele>
        <time>2020-03-29T18:40:30Z</time>
      </trkpt>
      <trkpt lat="42.4946930" lon="-2.4033660">
        <ele>406.3</ele>
        <time>2020-03-29T18:40:32Z</time>
      </trkpt>
      <trkpt lat="42.4944650" lon="-2.4037190">
        <ele>406.4</ele>
        <time>2020-03-29T18:40:34Z</time>
      </trkpt>
      <trkpt lat="42.4944000" lon="-2.4038210">
        <ele>406.4</ele>
        <time>2020-03-29T18:40:36Z</time>
      </trkpt>
      <trkpt lat="42.4943350" lon="-2.4039230">
        <ele>406.6</ele>
        <time>2020-03-29T18:40:38Z</time>
      </trkpt>
      <trkpt lat="42.4942690" lon="-2.4040260">
        <ele>406.9</ele>
        <time>2020-03-29T18:40:40Z</time>
      </trkpt>
      <trkpt lat="42.4942000" lon="-2.4041340">
        <ele>407.1</ele>
        <time>2020-03-29T18:40:42Z</time>
      </trkpt>
      <trkpt lat="42.4940080" lon="-2.4044350">
        <ele>407.3</ele>
        <time>2020-03-29T18:40:44Z</time>
      </trkpt>
      <trkpt lat="42.4939180" lon="-2.4045750">
        <ele>407.1</ele>
        <time>2020-03-29T18:40:46Z</time>
      </trkpt>
      <trkpt lat="42.4938390" lon="-2.4047000">
        <ele>406.8</ele>
        <time>2020-03-29T18:40:48Z</time>
      </trkpt>
      <trkpt lat="42.4936920" lon="-2.4049250">
        <ele>406.3</ele>
        <time>2020-03-29T18:40:50Z</time>
      </trkpt>
      <trkpt lat="42.4935620" lon="-2.4051090">
        <ele>406.0</ele>
        <time>2020-03-29T18:40:52Z</time>
      </trkpt>
      <trkpt lat="42.4934680" lon="-2.4052660">
        <ele>405.5</ele>
        <time>2020-03-29T18:40:54Z</time>
      </trkpt>
      <trkpt lat="42.4933190" lon="-2.4055360">
        <ele>404.5</ele>
        <time>2020-03-29T18:40:56Z</time>
      </trkpt>
      <trkpt lat="42.4931970" lon="-2.4058010">
        <ele>403.8</ele>
        <time>2020-03-29T18:40:58Z</time>
      </trkpt>
      <trkpt lat="42.4931300" lon="-2.4059910">
        <ele>403.4</ele>
        <time>2020-03-29T18:41:00Z</time>
      </trkpt>
      <trkpt lat="42.4930130" lon="-2.4063230">
        <ele>403.0</ele>
        <time>2020-03-29T18:41:02Z</time>
      </trkpt>
      <trkpt lat="42.4929300" lon="-2.4065730">
        <ele>403.5</ele>
        <time>2020-03-29T18:41:04Z</time>
      </trkpt>
      <trkpt lat="42.4928780" lon="-2.4067700">
        <ele>403.5</ele>
        <time>2020-03-29T18:41:06Z</time>
      </trkpt>
      <trkpt lat="42.4928250" lon="-2.4069700">
        <ele>403.4</ele>
        <time>2020-03-29T18:41:08Z</time>
      </trkpt>
      <trkpt lat="42.4927150" lon="-2.4073890">
        <ele>403.3</ele>
        <time>2020-03-29T18:41:10Z</time>
      </trkpt>
      <trkpt lat="42.4926620" lon="-2.4075900">
        <ele>403.3</ele>
        <time>2020-03-29T18:41:12Z</time>
      </trkpt>
      <trkpt lat="42.4926090" lon="-2.4077920">
        <ele>403.1</ele>
        <time>2020-03-29T18:41:14Z</time>
      </trkpt>
      <trkpt lat="42.4925560" lon="-2.4079940">
        <ele>402.7</ele>
        <time>2020-03-29T18:41:16Z</time>
      </trkpt>
      <trkpt lat="42.4924300" lon="-2.4084770">
        <ele>401.6</ele>
        <time>2020-03-29T18:41:18Z</time>
      </trkpt>
      <trkpt lat="42.4923750" lon="-2.4086850">
        <ele>400.9</ele>
        <time>2020-03-29T18:41:20Z</time>
      </trkpt>
      <trkpt lat="42.4923200" lon="-2.4088970">
        <ele>400.2</ele>
        <time>2020-03-29T18:41:22Z</time>
      </trkpt>
      <trkpt lat="42.4922620" lon="-2.4091160">
        <ele>399.6</ele>
        <time>2020-03-29T18:41:24Z</time>
      </trkpt>
      <trkpt lat="42.4921310" lon="-2.4096170">
        <ele>398.9</ele>
        <time>2020-03-29T18:41:26Z</time>
      </trkpt>
      <trkpt lat="42.4920710" lon="-2.4098450">
        <ele>398.4</ele>
        <time>2020-03-29T18:41:28Z</time>
      </trkpt>
      <trkpt lat="42.4919640" lon="-2.4102490">
        <ele>397.2</ele>
        <time>2020-03-29T18:41:30Z</time>
      </trkpt>
      <trkpt lat="42.4918720" lon="-2.4105870">
        <ele>396.7</ele>
        <time>2020-03-29T18:41:32Z</time>
      </trkpt>
      <trkpt lat="42.4918080" lon="-2.4108230">
        <ele>396.5</ele>
        <time>2020-03-29T18:41:34Z</time>
      </trkpt>
      <trkpt lat="42.4917440" lon="-2.4110600">
        <ele>396.0</ele>
        <time>2020-03-29T18:41:36Z</time>
      </trkpt>
      <trkpt lat="42.4916790" lon="-2.4113020">
        <ele>395.0</ele>
        <time>2020-03-29T18:41:38Z</time>
      </trkpt>
      <trkpt lat="42.4915390" lon="-2.4118230">
        <ele>392.7</ele>
        <time>2020-03-29T18:41:40Z</time>
      </trkpt>
      <trkpt lat="42.4914720" lon="-2.4120670">
        <ele>391.6</ele>
        <time>2020-03-29T18:41:42Z</time>
      </trkpt>
      <trkpt lat="42.4914060" lon="-2.4123140">
        <ele>390.9</ele>
        <time>2020-03-29T18:41:44Z</time>
      </trkpt>
      <trkpt lat="42.4912650" lon="-2.4128340">
        <ele>388.8</ele>
        <time>2020-03-29T18:41:46Z</time>
      </trkpt>
      <trkpt lat="42.4912050" lon="-2.4130640">
        <ele>387.6</ele>
        <time>2020-03-29T18:41:48Z</time>
      </trkpt>
      <trkpt lat="42.4911050" lon="-2.4134400">
        <ele>387.2</ele>
        <time>2020-03-29T18:41:50Z</time>
      </trkpt>
      <trkpt lat="42.4910190" lon="-2.4137590">
        <ele>387.5</ele>
        <time>2020-03-29T18:41:52Z</time>
      </trkpt>
      <trkpt lat="42.4909710" lon="-2.4139500">
        <ele>387.7</ele>
        <time>2020-03-29T18:41:54Z</time>
      </trkpt>
      <trkpt lat="42.4908990" lon="-2.4142290">
        <ele>387.6</ele>
        <time>2020-03-29T18:41:56Z</time>
      </trkpt>
      <trkpt lat="42.4908510" lon="-2.4144050">
        <ele>387.4</ele>
        <time>2020-03-29T18:41:58Z</time>
      </trkpt>
      <trkpt lat="42.4908040" lon="-2.4145750">
        <ele>387.1</ele>
        <time>2020-03-29T18:42:00Z</time>
      </trkpt>
      <trkpt lat="42.4907090" lon="-2.4149230">
        <ele>386.9</ele>
        <time>2020-03-29T18:42:02Z</time>
      </trkpt>
      <trkpt lat="42.4906650" lon="-2.4150870">
        <ele>386.8</ele>
        <time>2020-03-29T18:42:04Z</time>
      </trkpt>
      <trkpt lat="42.4905850" lon="-2.4153800">
        <ele>387.0</ele>
        <time>2020-03-29T18:42:06Z</time>
      </trkpt>
      <trkpt lat="42.4905230" lon="-2.4156060">
        <ele>387.8</ele>
        <time>2020-03-29T18:42:08Z</time>
      </trkpt>
      <trkpt lat="42.4904800" lon="-2.4157590">
        <ele>388.4</ele>
        <time>2020-03-29T18:42:10Z</time>
      </trkpt>
      <trkpt lat="42.4904270" lon="-2.4159870">
        <ele>388.9</ele>
        <time>2020-03-29T18:42:12Z</time>
      </trkpt>
      <trkpt lat="42.4903980" lon="-2.4161320">
        <ele>389.1</ele>
        <time>2020-03-29T18:42:14Z</time>
      </trkpt>
      <trkpt lat="42.4903400" lon="-2.4163950">
        <ele>389.5</ele>
        <time>2020-03-29T18:42:16Z</time>
      </trkpt>
      <trkpt lat="42.4903060" lon="-2.4165280">
        <ele>389.6</ele>
        <time>2020-03-29T18:42:18Z</time>
      </trkpt>
      <trkpt lat="42.4902460" lon="-2.4167550">
        <ele>390.0</ele>
        <time>2020-03-29T18:42:20Z</time>
      </trkpt>
      <trkpt lat="42.4901920" lon="-2.4169300">
        <ele>390.5</ele>
        <time>2020-03-29T18:42:22Z</time>
      </trkpt>
      <trkpt lat="42.4901530" lon="-2.4170460">
        <ele>390.8</ele>
        <time>2020-03-29T18:42:24Z</time>
      </trkpt>
      <trkpt lat="42.4901160" lon="-2.4171560">
        <ele>391.1</ele>
        <time>2020-03-29T18:42:26Z</time>
      </trkpt>
      <trkpt lat="42.4900810" lon="-2.4172610">
        <ele>391.3</ele>
        <time>2020-03-29T18:42:28Z</time>
      </trkpt>
      <trkpt lat="42.4899970" lon="-2.4175120">
        <ele>391.5</ele>
        <time>2020-03-29T18:42:30Z</time>
      </trkpt>
      <trkpt lat="42.4899560" lon="-2.4176310">
        <ele>391.5</ele>
        <time>2020-03-29T18:42:32Z</time>
      </trkpt>
      <trkpt lat="42.4899230" lon="-2.4177230">
        <ele>391.6</ele>
        <time>2020-03-29T18:42:34Z</time>
      </trkpt>
      <trkpt lat="42.4898720" lon="-2.4178720">
        <ele>391.9</ele>
        <time>2020-03-29T18:42:36Z</time>
      </trkpt>
      <trkpt lat="42.4898270" lon="-2.4180150">
        <ele>392.4</ele>
        <time>2020-03-29T18:42:38Z</time>
      </trkpt>
      <trkpt lat="42.4898020" lon="-2.4181030">
        <ele>392.8</ele>
        <time>2020-03-29T18:42:40Z</time>
      </trkpt>
      <trkpt lat="42.4897640" lon="-2.4182540">
        <ele>393.8</ele>
        <time>2020-03-29T18:42:42Z</time>
      </trkpt>
      <trkpt lat="42.4897480" lon="-2.4183440">
        <ele>394.4</ele>
        <time>2020-03-29T18:42:44Z</time>
      </trkpt>
      <trkpt lat="42.4897310" lon="-2.4184350">
        <ele>395.0</ele>
        <time>2020-03-29T18:42:46Z</time>
      </trkpt>
      <trkpt lat="42.4897140" lon="-2.4185270">
        <ele>395.6</ele>
        <time>2020-03-29T18:42:48Z</time>
      </trkpt>
      <trkpt lat="42.4896960" lon="-2.4186210">
        <ele>396.1</ele>
        <time>2020-03-29T18:42:50Z</time>
      </trkpt>
      <trkpt lat="42.4896790" lon="-2.4187150">
        <ele>396.5</ele>
        <time>2020-03-29T18:42:52Z</time>
      </trkpt>
      <trkpt lat="42.4896230" lon="-2.4190030">
        <ele>397.6</ele>
        <time>2020-03-29T18:42:54Z</time>
      </trkpt>
      <trkpt lat="42.4896020" lon="-2.4190960">
        <ele>397.8</ele>
        <time>2020-03-29T18:42:56Z</time>
      </trkpt>
      <trkpt lat="42.4895800" lon="-2.4191870">
        <ele>398.0</ele>
        <time>2020-03-29T18:42:58Z</time>
      </trkpt>
      <trkpt lat="42.4895380" lon="-2.4193600">
        <ele>398.2</ele>
        <time>2020-03-29T18:43:00Z</time>
      </trkpt>
      <trkpt lat="42.4895150" lon="-2.4194510">
        <ele>398.3</ele>
        <time>2020-03-29T18:43:02Z</time>
      </trkpt>
      <trkpt lat="42.4894910" lon="-2.4195420">
        <ele>398.3</ele>
        <time>2020-03-29T18:43:04Z</time>
      </trkpt>
      <trkpt lat="42.4894410" lon="-2.4197320">
        <ele>398.3</ele>
        <time>2020-03-29T18:43:06Z</time>
      </trkpt>
      <trkpt lat="42.4894160" lon="-2.4198230">
        <ele>398.3</ele>
        <time>2020-03-29T18:43:08Z</time>
      </trkpt>
      <trkpt lat="42.4893650" lon="-2.4200050">
        <ele>398.3</ele>
        <time>2020-03-29T18:43:10Z</time>
      </trkpt>
      <trkpt lat="42.4893380" lon="-2.4201070">
        <ele>398.3</ele>
        <time>2020-03-29T18:43:12Z</time>
      </trkpt>
      <trkpt lat="42.4893070" lon="-2.4202180">
        <ele>398.3</ele>
        <time>2020-03-29T18:43:14Z</time>
      </trkpt>
      <trkpt lat="42.4892770" lon="-2.4203290">
        <ele>398.3</ele>
        <time>2020-03-29T18:43:16Z</time>
      </trkpt>
      <trkpt lat="42.4892130" lon="-2.4205670">
        <ele>398.6</ele>
        <time>2020-03-29T18:43:18Z</time>
      </trkpt>
      <trkpt lat="42.4891820" lon="-2.4206820">
        <ele>399.1</ele>
        <time>2020-03-29T18:43:20Z</time>
      </trkpt>
      <trkpt lat="42.4891520" lon="-2.4207980">
        <ele>399.5</ele>
        <time>2020-03-29T18:43:22Z</time>
      </trkpt>
      <trkpt lat="42.4890840" lon="-2.4210570">
        <ele>400.5</ele>
        <time>2020-03-29T18:43:24Z</time>
      </trkpt>
      <trkpt lat="42.4890560" lon="-2.4211780">
        <ele>400.8</ele>
        <time>2020-03-29T18:43:26Z</time>
      </trkpt>
      <trkpt lat="42.4890110" lon="-2.4213740">
        <ele>401.4</ele>
        <time>2020-03-29T18:43:28Z</time>
      </trkpt>
      <trkpt lat="42.4889850" lon="-2.4214960">
        <ele>401.8</ele>
        <time>2020-03-29T18:43:30Z</time>
      </trkpt>
      <trkpt lat="42.4889510" lon="-2.4216930">
        <ele>402.5</ele>
        <time>2020-03-29T18:43:32Z</time>
      </trkpt>
      <trkpt lat="42.4889340" lon="-2.4218140">
        <ele>403.0</ele>
        <time>2020-03-29T18:43:34Z</time>
      </trkpt>
      <trkpt lat="42.4889050" lon="-2.4220140">
        <ele>403.5</ele>
        <time>2020-03-29T18:43:36Z</time>
      </trkpt>
      <trkpt lat="42.4888790" lon="-2.4222090">
        <ele>403.5</ele>
        <time>2020-03-29T18:43:38Z</time>
      </trkpt>
      <trkpt lat="42.4888640" lon="-2.4223650">
        <ele>403.6</ele>
        <time>2020-03-29T18:43:40Z</time>
      </trkpt>
      <trkpt lat="42.4888510" lon="-2.4224780">
        <ele>403.6</ele>
        <time>2020-03-29T18:43:42Z</time>
      </trkpt>
      <trkpt lat="42.4888380" lon="-2.4225910">
        <ele>403.8</ele>
        <time>2020-03-29T18:43:44Z</time>
      </trkpt>
      <trkpt lat="42.4888110" lon="-2.4228280">
        <ele>404.2</ele>
        <time>2020-03-29T18:43:46Z</time>
      </trkpt>
      <trkpt lat="42.4887970" lon="-2.4229460">
        <ele>404.4</ele>
        <time>2020-03-29T18:43:48Z</time>
      </trkpt>
      <trkpt lat="42.4887830" lon="-2.4230690">
        <ele>404.5</ele>
        <time>2020-03-29T18:43:50Z</time>
      </trkpt>
      <trkpt lat="42.4887680" lon="-2.4232000">
        <ele>404.8</ele>
        <time>2020-03-29T18:43:52Z</time>
      </trkpt>
      <trkpt lat="42.4887530" lon="-2.4233350">
        <ele>405.1</ele>
        <time>2020-03-29T18:43:54Z</time>
      </trkpt>
      <trkpt lat="42.4887370" lon="-2.4234740">
        <ele>405.3</ele>
        <time>2020-03-29T18:43:56Z</time>
      </trkpt>
      <trkpt lat="42.4886940" lon="-2.4238590">
        <ele>405.3</ele>
        <time>2020-03-29T18:43:58Z</time>
      </trkpt>
      <trkpt lat="42.4886730" lon="-2.4240500">
        <ele>404.8</ele>
        <time>2020-03-29T18:44:00Z</time>
      </trkpt>
      <trkpt lat="42.4886570" lon="-2.4241980">
        <ele>404.4</ele>
        <time>2020-03-29T18:44:02Z</time>
      </trkpt>
      <trkpt lat="42.4886400" lon="-2.4243490">
        <ele>404.3</ele>
        <time>2020-03-29T18:44:04Z</time>
      </trkpt>
      <trkpt lat="42.4886020" lon="-2.4247010">
        <ele>404.7</ele>
        <time>2020-03-29T18:44:06Z</time>
      </trkpt>
      <trkpt lat="42.4885860" lon="-2.4248550">
        <ele>405.0</ele>
        <time>2020-03-29T18:44:08Z</time>
      </trkpt>
      <trkpt lat="42.4885690" lon="-2.4250100">
        <ele>405.3</ele>
        <time>2020-03-29T18:44:10Z</time>
      </trkpt>
      <trkpt lat="42.4885520" lon="-2.4251650">
        <ele>405.7</ele>
        <time>2020-03-29T18:44:12Z</time>
      </trkpt>
      <trkpt lat="42.4885130" lon="-2.4255270">
        <ele>406.7</ele>
        <time>2020-03-29T18:44:14Z</time>
      </trkpt>
      <trkpt lat="42.4885260" lon="-2.4257390">
        <ele>407.1</ele>
        <time>2020-03-29T18:44:16Z</time>
      </trkpt>
      <trkpt lat="42.4885940" lon="-2.4259350">
        <ele>407.3</ele>
        <time>2020-03-29T18:44:18Z</time>
      </trkpt>
      <trkpt lat="42.4887000" lon="-2.4260880">
        <ele>407.4</ele>
        <time>2020-03-29T18:44:20Z</time>
      </trkpt>
      <trkpt lat="42.4887970" lon="-2.4262290">
        <ele>407.2</ele>
        <time>2020-03-29T18:44:22Z</time>
      </trkpt>
      <trkpt lat="42.4888550" lon="-2.4264110">
        <ele>407.4</ele>
        <time>2020-03-29T18:44:24Z</time>
      </trkpt>
      <trkpt lat="42.4888760" lon="-2.4266230">
        <ele>407.8</ele>
        <time>2020-03-29T18:44:26Z</time>
      </trkpt>
      <trkpt lat="42.4888550" lon="-2.4267880">
        <ele>407.9</ele>
        <time>2020-03-29T18:44:28Z</time>
      </trkpt>
      <trkpt lat="42.4887870" lon="-2.4269720">
        <ele>408.0</ele>
        <time>2020-03-29T18:44:30Z</time>
      </trkpt>
      <trkpt lat="42.4887020" lon="-2.4270920">
        <ele>408.1</ele>
        <time>2020-03-29T18:44:32Z</time>
      </trkpt>
      <trkpt lat="42.4885790" lon="-2.4271900">
        <ele>408.3</ele>
        <time>2020-03-29T18:44:34Z</time>
      </trkpt>
      <trkpt lat="42.4884500" lon="-2.4272360">
        <ele>408.4</ele>
        <time>2020-03-29T18:44:36Z</time>
      </trkpt>
      <trkpt lat="42.4883290" lon="-2.4272660">
        <ele>408.4</ele>
        <time>2020-03-29T18:44:38Z</time>
      </trkpt>
      <trkpt lat="42.4881750" lon="-2.4273260">
        <ele>408.4</ele>
        <time>2020-03-29T18:44:40Z</time>
      </trkpt>
      <trkpt lat="42.4880590" lon="-2.4274550">
        <ele>408.4</ele>
        <time>2020-03-29T18:44:42Z</time>
      </trkpt>
      <trkpt lat="42.4879960" lon="-2.4276470">
        <ele>408.5</ele>
        <time>2020-03-29T18:44:44Z</time>
      </trkpt>
      <trkpt lat="42.4879790" lon="-2.4278150">
        <ele>408.7</ele>
        <time>2020-03-29T18:44:46Z</time>
      </trkpt>
      <trkpt lat="42.4879660" lon="-2.4279570">
        <ele>409.0</ele>
        <time>2020-03-29T18:44:48Z</time>
      </trkpt>
      <trkpt lat="42.4879430" lon="-2.4282000">
        <ele>409.3</ele>
        <time>2020-03-29T18:44:50Z</time>
      </trkpt>
      <trkpt lat="42.4879220" lon="-2.4284070">
        <ele>409.4</ele>
        <time>2020-03-29T18:44:52Z</time>
      </trkpt>
      <trkpt lat="42.4879040" lon="-2.4285400">
        <ele>409.5</ele>
        <time>2020-03-29T18:44:54Z</time>
      </trkpt>
      <trkpt lat="42.4878860" lon="-2.4286730">
        <ele>409.7</ele>
        <time>2020-03-29T18:44:56Z</time>
      </trkpt>
      <trkpt lat="42.4878500" lon="-2.4289270">
        <ele>410.1</ele>
        <time>2020-03-29T18:44:58Z</time>
      </trkpt>
      <trkpt lat="42.4878250" lon="-2.4290540">
        <ele>410.3</ele>
        <time>2020-03-29T18:45:00Z</time>
      </trkpt>
      <trkpt lat="42.4877990" lon="-2.4291810">
        <ele>410.3</ele>
        <time>2020-03-29T18:45:02Z</time>
      </trkpt>
      <trkpt lat="42.4877480" lon="-2.4294250">
        <ele>410.4</ele>
        <time>2020-03-29T18:45:04Z</time>
      </trkpt>
      <trkpt lat="42.4877180" lon="-2.4295500">
        <ele>410.4</ele>
        <time>2020-03-29T18:45:06Z</time>
      </trkpt>
      <trkpt lat="42.4876640" lon="-2.4297720">
        <ele>410.7</ele>
        <time>2020-03-29T18:45:08Z</time>
      </trkpt>
      <trkpt lat="42.4876310" lon="-2.4298940">
        <ele>411.0</ele>
        <time>2020-03-29T18:45:10Z</time>
      </trkpt>
      <trkpt lat="42.4875990" lon="-2.4300180">
        <ele>411.2</ele>
        <time>2020-03-29T18:45:12Z</time>
      </trkpt>
      <trkpt lat="42.4875660" lon="-2.4301420">
        <ele>411.5</ele>
        <time>2020-03-29T18:45:14Z</time>
      </trkpt>
      <trkpt lat="42.4874800" lon="-2.4304510">
        <ele>412.1</ele>
        <time>2020-03-29T18:45:16Z</time>
      </trkpt>
      <trkpt lat="42.4874370" lon="-2.4305730">
        <ele>412.2</ele>
        <time>2020-03-29T18:45:18Z</time>
      </trkpt>
      <trkpt lat="42.4873930" lon="-2.4306970">
        <ele>412.3</ele>
        <time>2020-03-29T18:45:20Z</time>
      </trkpt>
      <trkpt lat="42.4873490" lon="-2.4308220">
        <ele>412.4</ele>
        <time>2020-03-29T18:45:22Z</time>
      </trkpt>
      <trkpt lat="42.4873030" lon="-2.4309520">
        <ele>412.5</ele>
        <time>2020-03-29T18:45:24Z</time>
      </trkpt>
      <trkpt lat="42.4871810" lon="-2.4312730">
        <ele>413.1</ele>
        <time>2020-03-29T18:45:26Z</time>
      </trkpt>
      <trkpt lat="42.4871270" lon="-2.4314010">
        <ele>413.4</ele>
        <time>2020-03-29T18:45:28Z</time>
      </trkpt>
      <trkpt lat="42.4870730" lon="-2.4315300">
        <ele>413.7</ele>
        <time>2020-03-29T18:45:30Z</time>
      </trkpt>
      <trkpt lat="42.4869450" lon="-2.4318340">
        <ele>414.2</ele>
        <time>2020-03-29T18:45:32Z</time>
      </trkpt>
      <trkpt lat="42.4868760" lon="-2.4319660">
        <ele>414.1</ele>
        <time>2020-03-29T18:45:34Z</time>
      </trkpt>
      <trkpt lat="42.4868090" lon="-2.4320980">
        <ele>413.9</ele>
        <time>2020-03-29T18:45:36Z</time>
      </trkpt>
      <trkpt lat="42.4867380" lon="-2.4322360">
        <ele>413.6</ele>
        <time>2020-03-29T18:45:38Z</time>
      </trkpt>
      <trkpt lat="42.4865700" lon="-2.4325500">
        <ele>413.4</ele>
        <time>2020-03-29T18:45:40Z</time>
      </trkpt>
      <trkpt lat="42.4864870" lon="-2.4326860">
        <ele>413.4</ele>
        <time>2020-03-29T18:45:42Z</time>
      </trkpt>
      <trkpt lat="42.4864020" lon="-2.4328250">
        <ele>413.4</ele>
        <time>2020-03-29T18:45:44Z</time>
      </trkpt>
      <trkpt lat="42.4862510" lon="-2.4330720">
        <ele>413.1</ele>
        <time>2020-03-29T18:45:46Z</time>
      </trkpt>
      <trkpt lat="42.4861030" lon="-2.4333120">
        <ele>412.3</ele>
        <time>2020-03-29T18:45:48Z</time>
      </trkpt>
      <trkpt lat="42.4860110" lon="-2.4334520">
        <ele>411.9</ele>
        <time>2020-03-29T18:45:50Z</time>
      </trkpt>
      <trkpt lat="42.4859170" lon="-2.4335940">
        <ele>411.8</ele>
        <time>2020-03-29T18:45:52Z</time>
      </trkpt>
      <trkpt lat="42.4857350" lon="-2.4338630">
        <ele>411.9</ele>
        <time>2020-03-29T18:45:54Z</time>
      </trkpt>
      <trkpt lat="42.4856360" lon="-2.4340020">
        <ele>411.9</ele>
        <time>2020-03-29T18:45:56Z</time>
      </trkpt>
      <trkpt lat="42.4855390" lon="-2.4341410">
        <ele>412.0</ele>
        <time>2020-03-29T18:45:58Z</time>
      </trkpt>
      <trkpt lat="42.4853320" lon="-2.4344290">
        <ele>412.2</ele>
        <time>2020-03-29T18:46:00Z</time>
      </trkpt>
      <trkpt lat="42.4852270" lon="-2.4345680">
        <ele>412.2</ele>
        <time>2020-03-29T18:46:02Z</time>
      </trkpt>
      <trkpt lat="42.4850780" lon="-2.4348740">
        <ele>412.3</ele>
        <time>2020-03-29T18:46:04Z</time>
      </trkpt>
      <trkpt lat="42.4850540" lon="-2.4351410">
        <ele>411.7</ele>
        <time>2020-03-29T18:46:06Z</time>
      </trkpt>
      <trkpt lat="42.4848940" lon="-2.4353010">
        <ele>411.4</ele>
        <time>2020-03-29T18:46:08Z</time>
      </trkpt>
      <trkpt lat="42.4846800" lon="-2.4353360">
        <ele>410.8</ele>
        <time>2020-03-29T18:46:10Z</time>
      </trkpt>
      <trkpt lat="42.4845290" lon="-2.4354950">
        <ele>409.6</ele>
        <time>2020-03-29T18:46:12Z</time>
      </trkpt>
      <trkpt lat="42.4844270" lon="-2.4356380">
        <ele>408.9</ele>
        <time>2020-03-29T18:46:14Z</time>
      </trkpt>
      <trkpt lat="42.4842720" lon="-2.4358450">
        <ele>408.5</ele>
        <time>2020-03-29T18:46:16Z</time>
      </trkpt>
      <trkpt lat="42.4841730" lon="-2.4359730">
        <ele>408.6</ele>
        <time>2020-03-29T18:46:18Z</time>
      </trkpt>
      <trkpt lat="42.4839850" lon="-2.4362060">
        <ele>409.2</ele>
        <time>2020-03-29T18:46:20Z</time>
      </trkpt>
      <trkpt lat="42.4838840" lon="-2.4363300">
        <ele>409.5</ele>
        <time>2020-03-29T18:46:22Z</time>
      </trkpt>
      <trkpt lat="42.4837310" lon="-2.4365240">
        <ele>409.5</ele>
        <time>2020-03-29T18:46:24Z</time>
      </trkpt>
      <trkpt lat="42.4836300" lon="-2.4366540">
        <ele>409.5</ele>
        <time>2020-03-29T18:46:26Z</time>
      </trkpt>
      <trkpt lat="42.4834360" lon="-2.4368970">
        <ele>409.0</ele>
        <time>2020-03-29T18:46:28Z</time>
      </trkpt>
      <trkpt lat="42.4833070" lon="-2.4370440">
        <ele>409.2</ele>
        <time>2020-03-29T18:46:30Z</time>
      </trkpt>
      <trkpt lat="42.4831570" lon="-2.4372300">
        <ele>409.2</ele>
        <time>2020-03-29T18:46:32Z</time>
      </trkpt>
      <trkpt lat="42.4830510" lon="-2.4373710">
        <ele>408.8</ele>
        <time>2020-03-29T18:46:34Z</time>
      </trkpt>
      <trkpt lat="42.4829420" lon="-2.4375160">
        <ele>408.3</ele>
        <time>2020-03-29T18:46:36Z</time>
      </trkpt>
      <trkpt lat="42.4827060" lon="-2.4378260">
        <ele>407.5</ele>
        <time>2020-03-29T18:46:38Z</time>
      </trkpt>
      <trkpt lat="42.4825450" lon="-2.4380370">
        <ele>406.4</ele>
        <time>2020-03-29T18:46:40Z</time>
      </trkpt>
      <trkpt lat="42.4824270" lon="-2.4381920">
        <ele>405.8</ele>
        <time>2020-03-29T18:46:42Z</time>
      </trkpt>
      <trkpt lat="42.4823070" lon="-2.4383500">
        <ele>405.0</ele>
        <time>2020-03-29T18:46:44Z</time>
      </trkpt>
      <trkpt lat="42.4821840" lon="-2.4385130">
        <ele>404.3</ele>
        <time>2020-03-29T18:46:46Z</time>
      </trkpt>
      <trkpt lat="42.4818740" lon="-2.4389230">
        <ele>402.6</ele>
        <time>2020-03-29T18:46:48Z</time>
      </trkpt>
      <trkpt lat="42.4817230" lon="-2.4391240">
        <ele>402.3</ele>
        <time>2020-03-29T18:46:50Z</time>
      </trkpt>
      <trkpt lat="42.4815990" lon="-2.4392900">
        <ele>401.9</ele>
        <time>2020-03-29T18:46:52Z</time>
      </trkpt>
      <trkpt lat="42.4813760" lon="-2.4395880">
        <ele>401.1</ele>
        <time>2020-03-29T18:46:54Z</time>
      </trkpt>
      <trkpt lat="42.4812020" lon="-2.4398210">
        <ele>400.5</ele>
        <time>2020-03-29T18:46:56Z</time>
      </trkpt>
      <trkpt lat="42.4810800" lon="-2.4399820">
        <ele>400.4</ele>
        <time>2020-03-29T18:46:58Z</time>
      </trkpt>
      <trkpt lat="42.4809610" lon="-2.4401390">
        <ele>400.3</ele>
        <time>2020-03-29T18:47:00Z</time>
      </trkpt>
      <trkpt lat="42.4807320" lon="-2.4404390">
        <ele>399.8</ele>
        <time>2020-03-29T18:47:02Z</time>
      </trkpt>
      <trkpt lat="42.4806150" lon="-2.4405930">
        <ele>399.4</ele>
        <time>2020-03-29T18:47:04Z</time>
      </trkpt>
      <trkpt lat="42.4804990" lon="-2.4407460">
        <ele>399.0</ele>
        <time>2020-03-29T18:47:06Z</time>
      </trkpt>
      <trkpt lat="42.4802680" lon="-2.4410510">
        <ele>398.3</ele>
        <time>2020-03-29T18:47:08Z</time>
      </trkpt>
      <trkpt lat="42.4801080" lon="-2.4412630">
        <ele>398.2</ele>
        <time>2020-03-29T18:47:10Z</time>
      </trkpt>
      <trkpt lat="42.4799870" lon="-2.4414220">
        <ele>397.9</ele>
        <time>2020-03-29T18:47:12Z</time>
      </trkpt>
      <trkpt lat="42.4797480" lon="-2.4417380">
        <ele>397.2</ele>
        <time>2020-03-29T18:47:14Z</time>
      </trkpt>
      <trkpt lat="42.4796290" lon="-2.4419290">
        <ele>396.8</ele>
        <time>2020-03-29T18:47:16Z</time>
      </trkpt>
      <trkpt lat="42.4794350" lon="-2.4422450">
        <ele>395.8</ele>
        <time>2020-03-29T18:47:18Z</time>
      </trkpt>
      <trkpt lat="42.4793290" lon="-2.4424550">
        <ele>395.0</ele>
        <time>2020-03-29T18:47:20Z</time>
      </trkpt>
      <trkpt lat="42.4791790" lon="-2.4427580">
        <ele>393.9</ele>
        <time>2020-03-29T18:47:22Z</time>
      </trkpt>
      <trkpt lat="42.4790730" lon="-2.4429780">
        <ele>393.1</ele>
        <time>2020-03-29T18:47:24Z</time>
      </trkpt>
      <trkpt lat="42.4788770" lon="-2.4433610">
        <ele>391.9</ele>
        <time>2020-03-29T18:47:26Z</time>
      </trkpt>
      <trkpt lat="42.4786890" lon="-2.4436740">
        <ele>390.4</ele>
        <time>2020-03-29T18:47:28Z</time>
      </trkpt>
      <trkpt lat="42.4784820" lon="-2.4438950">
        <ele>389.1</ele>
        <time>2020-03-29T18:47:30Z</time>
      </trkpt>
      <trkpt lat="42.4782690" lon="-2.4440640">
        <ele>388.1</ele>
        <time>2020-03-29T18:47:32Z</time>
      </trkpt>
      <trkpt lat="42.4780430" lon="-2.4441850">
        <ele>387.3</ele>
        <time>2020-03-29T18:47:34Z</time>
      </trkpt>
      <trkpt lat="42.4777910" lon="-2.4442540">
        <ele>386.2</ele>
        <time>2020-03-29T18:47:36Z</time>
      </trkpt>
      <trkpt lat="42.4776160" lon="-2.4442800">
        <ele>385.2</ele>
        <time>2020-03-29T18:47:38Z</time>
      </trkpt>
      <trkpt lat="42.4774360" lon="-2.4443060">
        <ele>384.2</ele>
        <time>2020-03-29T18:47:40Z</time>
      </trkpt>
      <trkpt lat="42.4770660" lon="-2.4443610">
        <ele>382.7</ele>
        <time>2020-03-29T18:47:42Z</time>
      </trkpt>
      <trkpt lat="42.4768800" lon="-2.4443880">
        <ele>382.1</ele>
        <time>2020-03-29T18:47:44Z</time>
      </trkpt>
      <trkpt lat="42.4766920" lon="-2.4444160">
        <ele>381.5</ele>
        <time>2020-03-29T18:47:46Z</time>
      </trkpt>
      <trkpt lat="42.4763170" lon="-2.4444830">
        <ele>379.8</ele>
        <time>2020-03-29T18:47:48Z</time>
      </trkpt>
      <trkpt lat="42.4760920" lon="-2.4445980">
        <ele>378.1</ele>
        <time>2020-03-29T18:47:50Z</time>
      </trkpt>
      <trkpt lat="42.4758800" lon="-2.4447760">
        <ele>376.8</ele>
        <time>2020-03-29T18:47:52Z</time>
      </trkpt>
      <trkpt lat="42.4756860" lon="-2.4446490">
        <ele>376.2</ele>
        <time>2020-03-29T18:47:54Z</time>
      </trkpt>
      <trkpt lat="42.4754810" lon="-2.4445940">
        <ele>375.8</ele>
        <time>2020-03-29T18:47:56Z</time>
      </trkpt>
      <trkpt lat="42.4752780" lon="-2.4446000">
        <ele>375.6</ele>
        <time>2020-03-29T18:47:58Z</time>
      </trkpt>
      <trkpt lat="42.4751250" lon="-2.4446210">
        <ele>375.5</ele>
        <time>2020-03-29T18:48:00Z</time>
      </trkpt>
      <trkpt lat="42.4749790" lon="-2.4446420">
        <ele>375.2</ele>
        <time>2020-03-29T18:48:02Z</time>
      </trkpt>
      <trkpt lat="42.4746430" lon="-2.4446880">
        <ele>374.6</ele>
        <time>2020-03-29T18:48:04Z</time>
      </trkpt>
      <trkpt lat="42.4745040" lon="-2.4447080">
        <ele>374.5</ele>
        <time>2020-03-29T18:48:06Z</time>
      </trkpt>
      <trkpt lat="42.4743670" lon="-2.4447270">
        <ele>374.4</ele>
        <time>2020-03-29T18:48:08Z</time>
      </trkpt>
      <trkpt lat="42.4742320" lon="-2.4447450">
        <ele>374.4</ele>
        <time>2020-03-29T18:48:10Z</time>
      </trkpt>
      <trkpt lat="42.4739380" lon="-2.4447870">
        <ele>374.3</ele>
        <time>2020-03-29T18:48:12Z</time>
      </trkpt>
      <trkpt lat="42.4738980" lon="-2.4447920">
        <ele>374.3</ele>
        <time>2020-03-29T18:48:14Z</time>
      </trkpt>
      <trkpt lat="42.4737670" lon="-2.4448100">
        <ele>374.4</ele>
        <time>2020-03-29T18:48:16Z</time>
      </trkpt>
      <trkpt lat="42.4736360" lon="-2.4448280">
        <ele>374.4</ele>
        <time>2020-03-29T18:48:18Z</time>
      </trkpt>
      <trkpt lat="42.4735040" lon="-2.4448460">
        <ele>374.5</ele>
        <time>2020-03-29T18:48:20Z</time>
      </trkpt>
      <trkpt lat="42.4731760" lon="-2.4448640">
        <ele>374.5</ele>
        <time>2020-03-29T18:48:22Z</time>
      </trkpt>
      <trkpt lat="42.4730100" lon="-2.4448940">
        <ele>374.2</ele>
        <time>2020-03-29T18:48:24Z</time>
      </trkpt>
      <trkpt lat="42.4728630" lon="-2.4450450">
        <ele>373.8</ele>
        <time>2020-03-29T18:48:26Z</time>
      </trkpt>
      <trkpt lat="42.4727010" lon="-2.4450470">
        <ele>373.4</ele>
        <time>2020-03-29T18:48:28Z</time>
      </trkpt>
      <trkpt lat="42.4726050" lon="-2.4448840">
        <ele>373.1</ele>
        <time>2020-03-29T18:48:30Z</time>
      </trkpt>
      <trkpt lat="42.4724770" lon="-2.4447580">
        <ele>372.9</ele>
        <time>2020-03-29T18:48:32Z</time>
      </trkpt>
      <trkpt lat="42.4723420" lon="-2.4446760">
        <ele>372.8</ele>
        <time>2020-03-29T18:48:34Z</time>
      </trkpt>
      <trkpt lat="42.4722040" lon="-2.4446280">
        <ele>372.8</ele>
        <time>2020-03-29T18:48:36Z</time>
      </trkpt>
      <trkpt lat="42.4720980" lon="-2.4445910">
        <ele>372.9</ele>
        <time>2020-03-29T18:48:38Z</time>
      </trkpt>
      <trkpt lat="42.4719930" lon="-2.4445530">
        <ele>372.9</ele>
        <time>2020-03-29T18:48:40Z</time>
      </trkpt>
      <trkpt lat="42.4717910" lon="-2.4444830">
        <ele>373.1</ele>
        <time>2020-03-29T18:48:42Z</time>
      </trkpt>
      <trkpt lat="42.4716890" lon="-2.4444470">
        <ele>373.2</ele>
        <time>2020-03-29T18:48:44Z</time>
      </trkpt>
      <trkpt lat="42.4714820" lon="-2.4443740">
        <ele>373.3</ele>
        <time>2020-03-29T18:48:46Z</time>
      </trkpt>
      <trkpt lat="42.4713550" lon="-2.4443410">
        <ele>373.3</ele>
        <time>2020-03-29T18:48:48Z</time>
      </trkpt>
      <trkpt lat="42.4712130" lon="-2.4443880">
        <ele>373.4</ele>
        <time>2020-03-29T18:48:50Z</time>
      </trkpt>
      <trkpt lat="42.4710930" lon="-2.4443140">
        <ele>373.2</ele>
        <time>2020-03-29T18:48:52Z</time>
      </trkpt>
      <trkpt lat="42.4709850" lon="-2.4442250">
        <ele>373.3</ele>
        <time>2020-03-29T18:48:54Z</time>
      </trkpt>
      <trkpt lat="42.4708460" lon="-2.4441500">
        <ele>373.6</ele>
        <time>2020-03-29T18:48:56Z</time>
      </trkpt>
      <trkpt lat="42.4707220" lon="-2.4440890">
        <ele>373.5</ele>
        <time>2020-03-29T18:48:58Z</time>
      </trkpt>
      <trkpt lat="42.4706190" lon="-2.4440390">
        <ele>373.4</ele>
        <time>2020-03-29T18:49:00Z</time>
      </trkpt>
      <trkpt lat="42.4705150" lon="-2.4439890">
        <ele>373.4</ele>
        <time>2020-03-29T18:49:02Z</time>
      </trkpt>
      <trkpt lat="42.4704090" lon="-2.4439380">
        <ele>373.3</ele>
        <time>2020-03-29T18:49:04Z</time>
      </trkpt>
      <trkpt lat="42.4701630" lon="-2.4438190">
        <ele>373.2</ele>
        <time>2020-03-29T18:49:06Z</time>
      </trkpt>
      <trkpt lat="42.4700620" lon="-2.4437710">
        <ele>373.2</ele>
        <time>2020-03-29T18:49:08Z</time>
      </trkpt>
      <trkpt lat="42.4699660" lon="-2.4437250">
        <ele>373.2</ele>
        <time>2020-03-29T18:49:10Z</time>
      </trkpt>
      <trkpt lat="42.4698740" lon="-2.4436800">
        <ele>373.2</ele>
        <time>2020-03-29T18:49:12Z</time>
      </trkpt>
      <trkpt lat="42.4696220" lon="-2.4435590">
        <ele>373.3</ele>
        <time>2020-03-29T18:49:14Z</time>
      </trkpt>
      <trkpt lat="42.4695350" lon="-2.4435170">
        <ele>373.3</ele>
        <time>2020-03-29T18:49:16Z</time>
      </trkpt>
      <trkpt lat="42.4694500" lon="-2.4434760">
        <ele>373.4</ele>
        <time>2020-03-29T18:49:18Z</time>
      </trkpt>
      <trkpt lat="42.4693650" lon="-2.4434350">
        <ele>373.5</ele>
        <time>2020-03-29T18:49:20Z</time>
      </trkpt>
      <trkpt lat="42.4692800" lon="-2.4433940">
        <ele>373.6</ele>
        <time>2020-03-29T18:49:22Z</time>
      </trkpt>
      <trkpt lat="42.4691950" lon="-2.4433540">
        <ele>373.7</ele>
        <time>2020-03-29T18:49:24Z</time>
      </trkpt>
      <trkpt lat="42.4689320" lon="-2.4432840">
        <ele>376.0</ele>
        <time>2020-03-29T18:49:26Z</time>
      </trkpt>
      <trkpt lat="42.4688230" lon="-2.4433280">
        <ele>377.0</ele>
        <time>2020-03-29T18:49:28Z</time>
      </trkpt>
      <trkpt lat="42.4688120" lon="-2.4434610">
        <ele>376.7</ele>
        <time>2020-03-29T18:49:30Z</time>
      </trkpt>
      <trkpt lat="42.4687590" lon="-2.4435900">
        <ele>377.3</ele>
        <time>2020-03-29T18:49:32Z</time>
      </trkpt>
      <trkpt lat="42.4687200" lon="-2.4436810">
        <ele>377.7</ele>
        <time>2020-03-29T18:49:34Z</time>
      </trkpt>
      <trkpt lat="42.4686830" lon="-2.4437690">
        <ele>378.0</ele>
        <time>2020-03-29T18:49:36Z</time>
      </trkpt>
      <trkpt lat="42.4686460" lon="-2.4438540">
        <ele>378.3</ele>
        <time>2020-03-29T18:49:38Z</time>
      </trkpt>
      <trkpt lat="42.4686100" lon="-2.4439370">
        <ele>378.5</ele>
        <time>2020-03-29T18:49:40Z</time>
      </trkpt>
      <trkpt lat="42.4685750" lon="-2.4440190">
        <ele>378.8</ele>
        <time>2020-03-29T18:49:42Z</time>
      </trkpt>
      <trkpt lat="42.4684700" lon="-2.4442820">
        <ele>379.8</ele>
        <time>2020-03-29T18:49:44Z</time>
      </trkpt>
      <trkpt lat="42.4684460" lon="-2.4443790">
        <ele>380.2</ele>
        <time>2020-03-29T18:49:46Z</time>
      </trkpt>
      <trkpt lat="42.4684190" lon="-2.4444860">
        <ele>380.7</ele>
        <time>2020-03-29T18:49:48Z</time>
      </trkpt>
      <trkpt lat="42.4683660" lon="-2.4447070">
        <ele>381.8</ele>
        <time>2020-03-29T18:49:50Z</time>
      </trkpt>
      <trkpt lat="42.4683420" lon="-2.4448260">
        <ele>381.8</ele>
        <time>2020-03-29T18:49:52Z</time>
      </trkpt>
      <trkpt lat="42.4683180" lon="-2.4449490">
        <ele>381.9</ele>
        <time>2020-03-29T18:49:54Z</time>
      </trkpt>
      <trkpt lat="42.4682940" lon="-2.4450710">
        <ele>381.9</ele>
        <time>2020-03-29T18:49:56Z</time>
      </trkpt>
      <trkpt lat="42.4682080" lon="-2.4453310">
        <ele>382.5</ele>
        <time>2020-03-29T18:49:58Z</time>
      </trkpt>
      <trkpt lat="42.4681490" lon="-2.4454350">
        <ele>382.7</ele>
        <time>2020-03-29T18:50:00Z</time>
      </trkpt>
      <trkpt lat="42.4680900" lon="-2.4455400">
        <ele>382.8</ele>
        <time>2020-03-29T18:50:02Z</time>
      </trkpt>
      <trkpt lat="42.4679690" lon="-2.4457680">
        <ele>382.9</ele>
        <time>2020-03-29T18:50:04Z</time>
      </trkpt>
      <trkpt lat="42.4679180" lon="-2.4458840">
        <ele>382.9</ele>
        <time>2020-03-29T18:50:06Z</time>
      </trkpt>
      <trkpt lat="42.4678310" lon="-2.4460920">
        <ele>383.0</ele>
        <time>2020-03-29T18:50:08Z</time>
      </trkpt>
      <trkpt lat="42.4677880" lon="-2.4462160">
        <ele>383.1</ele>
        <time>2020-03-29T18:50:10Z</time>
      </trkpt>
      <trkpt lat="42.4677080" lon="-2.4464440">
        <ele>383.4</ele>
        <time>2020-03-29T18:50:12Z</time>
      </trkpt>
      <trkpt lat="42.4676660" lon="-2.4465700">
        <ele>383.6</ele>
        <time>2020-03-29T18:50:14Z</time>
      </trkpt>
      <trkpt lat="42.4676130" lon="-2.4467800">
        <ele>383.9</ele>
        <time>2020-03-29T18:50:16Z</time>
      </trkpt>
      <trkpt lat="42.4676060" lon="-2.4469200">
        <ele>384.0</ele>
        <time>2020-03-29T18:50:18Z</time>
      </trkpt>
      <trkpt lat="42.4675950" lon="-2.4471330">
        <ele>384.2</ele>
        <time>2020-03-29T18:50:20Z</time>
      </trkpt>
      <trkpt lat="42.4676720" lon="-2.4472340">
        <ele>383.8</ele>
        <time>2020-03-29T18:50:22Z</time>
      </trkpt>
      <trkpt lat="42.4676710" lon="-2.4473860">
        <ele>383.4</ele>
        <time>2020-03-29T18:50:24Z</time>
      </trkpt>
      <trkpt lat="42.4676680" lon="-2.4475000">
        <ele>383.1</ele>
        <time>2020-03-29T18:50:26Z</time>
      </trkpt>
      <trkpt lat="42.4676500" lon="-2.4476790">
        <ele>383.1</ele>
        <time>2020-03-29T18:50:28Z</time>
      </trkpt>
      <trkpt lat="42.4676230" lon="-2.4477780">
        <ele>383.3</ele>
        <time>2020-03-29T18:50:30Z</time>
      </trkpt>
      <trkpt lat="42.4675980" lon="-2.4478740">
        <ele>383.5</ele>
        <time>2020-03-29T18:50:32Z</time>
      </trkpt>
      <trkpt lat="42.4675390" lon="-2.4480850">
        <ele>383.9</ele>
        <time>2020-03-29T18:50:34Z</time>
      </trkpt>
      <trkpt lat="42.4675080" lon="-2.4481720">
        <ele>384.3</ele>
        <time>2020-03-29T18:50:36Z</time>
      </trkpt>
      <trkpt lat="42.4674630" lon="-2.4482970">
        <ele>384.9</ele>
        <time>2020-03-29T18:50:38Z</time>
      </trkpt>
      <trkpt lat="42.4674320" lon="-2.4483890">
        <ele>385.4</ele>
        <time>2020-03-29T18:50:40Z</time>
      </trkpt>
      <trkpt lat="42.4674000" lon="-2.4484820">
        <ele>386.0</ele>
        <time>2020-03-29T18:50:42Z</time>
      </trkpt>
      <trkpt lat="42.4673680" lon="-2.4485760">
        <ele>387.0</ele>
        <time>2020-03-29T18:50:44Z</time>
      </trkpt>
      <trkpt lat="42.4673360" lon="-2.4486680">
        <ele>387.5</ele>
        <time>2020-03-29T18:50:46Z</time>
      </trkpt>
      <trkpt lat="42.4673050" lon="-2.4487600">
        <ele>388.0</ele>
        <time>2020-03-29T18:50:48Z</time>
      </trkpt>
      <trkpt lat="42.4672740" lon="-2.4488500">
        <ele>388.5</ele>
        <time>2020-03-29T18:50:50Z</time>
      </trkpt>
      <trkpt lat="42.4671540" lon="-2.4491800">
        <ele>390.9</ele>
        <time>2020-03-29T18:50:52Z</time>
      </trkpt>
      <trkpt lat="42.4671130" lon="-2.4492820">
        <ele>391.2</ele>
        <time>2020-03-29T18:50:54Z</time>
      </trkpt>
      <trkpt lat="42.4670760" lon="-2.4494150">
        <ele>391.4</ele>
        <time>2020-03-29T18:50:56Z</time>
      </trkpt>
      <trkpt lat="42.4670460" lon="-2.4495180">
        <ele>391.0</ele>
        <time>2020-03-29T18:50:58Z</time>
      </trkpt>
      <trkpt lat="42.4669810" lon="-2.4495770">
        <ele>391.0</ele>
        <time>2020-03-29T18:51:00Z</time>
      </trkpt>
      <trkpt lat="42.4669080" lon="-2.4495610">
        <ele>391.0</ele>
        <time>2020-03-29T18:51:02Z</time>
      </trkpt>
      <trkpt lat="42.4668340" lon="-2.4495460">
        <ele>391.1</ele>
        <time>2020-03-29T18:51:04Z</time>
      </trkpt>
      <trkpt lat="42.4666790" lon="-2.4495340">
        <ele>391.2</ele>
        <time>2020-03-29T18:51:06Z</time>
      </trkpt>
      <trkpt lat="42.4666660" lon="-2.4496380">
        <ele>391.2</ele>
        <time>2020-03-29T18:51:08Z</time>
      </trkpt>
      <trkpt lat="42.4666460" lon="-2.4498200">
        <ele>390.6</ele>
        <time>2020-03-29T18:51:10Z</time>
      </trkpt>
      <trkpt lat="42.4666390" lon="-2.4499540">
        <ele>390.8</ele>
        <time>2020-03-29T18:51:12Z</time>
      </trkpt>
      <trkpt lat="42.4666330" lon="-2.4500630">
        <ele>391.2</ele>
        <time>2020-03-29T18:51:14Z</time>
      </trkpt>
      <trkpt lat="42.4665490" lon="-2.4501170">
        <ele>392.1</ele>
        <time>2020-03-29T18:51:16Z</time>
      </trkpt>
      <trkpt lat="42.4664680" lon="-2.4501170">
        <ele>392.8</ele>
        <time>2020-03-29T18:51:18Z</time>
      </trkpt>
      <trkpt lat="42.4663880" lon="-2.4501160">
        <ele>393.5</ele>
        <time>2020-03-29T18:51:20Z</time>
      </trkpt>
      <trkpt lat="42.4662280" lon="-2.4501480">
        <ele>394.9</ele>
        <time>2020-03-29T18:51:22Z</time>
      </trkpt>
      <trkpt lat="42.4662210" lon="-2.4502500">
        <ele>395.5</ele>
        <time>2020-03-29T18:51:24Z</time>
      </trkpt>
      <trkpt lat="42.4662150" lon="-2.4503450">
        <ele>395.8</ele>
        <time>2020-03-29T18:51:26Z</time>
      </trkpt>
      <trkpt lat="42.4662090" lon="-2.4504360">
        <ele>396.1</ele>
        <time>2020-03-29T18:51:28Z</time>
      </trkpt>
      <trkpt lat="42.4662030" lon="-2.4505230">
        <ele>396.5</ele>
        <time>2020-03-29T18:51:30Z</time>
      </trkpt>
      <trkpt lat="42.4661890" lon="-2.4507600">
        <ele>397.3</ele>
        <time>2020-03-29T18:51:32Z</time>
      </trkpt>
      <trkpt lat="42.4661880" lon="-2.4508900">
        <ele>398.1</ele>
        <time>2020-03-29T18:51:34Z</time>
      </trkpt>
      <trkpt lat="42.4662520" lon="-2.4509310">
        <ele>398.0</ele>
        <time>2020-03-29T18:51:36Z</time>
      </trkpt>
      <trkpt lat="42.4663120" lon="-2.4509970">
        <ele>397.9</ele>
        <time>2020-03-29T18:51:38Z</time>
      </trkpt>
      <trkpt lat="42.4663470" lon="-2.4510880">
        <ele>397.8</ele>
        <time>2020-03-29T18:51:40Z</time>
      </trkpt>
      <trkpt lat="42.4663510" lon="-2.4511870">
        <ele>398.7</ele>
        <time>2020-03-29T18:51:42Z</time>
      </trkpt>
      <trkpt lat="42.4663290" lon="-2.4512750">
        <ele>398.7</ele>
        <time>2020-03-29T18:51:44Z</time>
      </trkpt>
      <trkpt lat="42.4662810" lon="-2.4513520">
        <ele>400.8</ele>
        <time>2020-03-29T18:51:46Z</time>
      </trkpt>
      <trkpt lat="42.4662100" lon="-2.4513990">
        <ele>401.1</ele>
        <time>2020-03-29T18:51:48Z</time>
      </trkpt>
      <trkpt lat="42.4661410" lon="-2.4514110">
        <ele>401.8</ele>
        <time>2020-03-29T18:51:50Z</time>
      </trkpt>
      <trkpt lat="42.4660670" lon="-2.4514550">
        <ele>402.6</ele>
        <time>2020-03-29T18:51:52Z</time>
      </trkpt>
      <trkpt lat="42.4660070" lon="-2.4515400">
        <ele>403.8</ele>
        <time>2020-03-29T18:51:54Z</time>
      </trkpt>
      <trkpt lat="42.4659830" lon="-2.4516270">
        <ele>403.6</ele>
        <time>2020-03-29T18:51:56Z</time>
      </trkpt>
      <trkpt lat="42.4659580" lon="-2.4517170">
        <ele>403.4</ele>
        <time>2020-03-29T18:51:58Z</time>
      </trkpt>
      <trkpt lat="42.4659340" lon="-2.4518070">
        <ele>403.3</ele>
        <time>2020-03-29T18:52:00Z</time>
      </trkpt>
      <trkpt lat="42.4659080" lon="-2.4518980">
        <ele>403.2</ele>
        <time>2020-03-29T18:52:02Z</time>
      </trkpt>
      <trkpt lat="42.4658830" lon="-2.4519890">
        <ele>403.1</ele>
        <time>2020-03-29T18:52:04Z</time>
      </trkpt>
      <trkpt lat="42.4658580" lon="-2.4520810">
        <ele>403.0</ele>
        <time>2020-03-29T18:52:06Z</time>
      </trkpt>
      <trkpt lat="42.4657700" lon="-2.4524000">
        <ele>402.8</ele>
        <time>2020-03-29T18:52:08Z</time>
      </trkpt>
      <trkpt lat="42.4657370" lon="-2.4525240">
        <ele>401.9</ele>
        <time>2020-03-29T18:52:10Z</time>
      </trkpt>
      <trkpt lat="42.4657070" lon="-2.4526590">
        <ele>402.9</ele>
        <time>2020-03-29T18:52:12Z</time>
      </trkpt>
      <trkpt lat="42.4656780" lon="-2.4527780">
        <ele>402.2</ele>
        <time>2020-03-29T18:52:14Z</time>
      </trkpt>
      <trkpt lat="42.4656210" lon="-2.4530050">
        <ele>401.0</ele>
        <time>2020-03-29T18:52:16Z</time>
      </trkpt>
      <trkpt lat="42.4655720" lon="-2.4532040">
        <ele>400.0</ele>
        <time>2020-03-29T18:52:18Z</time>
      </trkpt>
      <trkpt lat="42.4655280" lon="-2.4533810">
        <ele>399.1</ele>
        <time>2020-03-29T18:52:20Z</time>
      </trkpt>
      <trkpt lat="42.4654760" lon="-2.4536020">
        <ele>398.9</ele>
        <time>2020-03-29T18:52:22Z</time>
      </trkpt>
      <trkpt lat="42.4654180" lon="-2.4538390">
        <ele>399.5</ele>
        <time>2020-03-29T18:52:24Z</time>
      </trkpt>
      <trkpt lat="42.4653750" lon="-2.4540130">
        <ele>399.5</ele>
        <time>2020-03-29T18:52:26Z</time>
      </trkpt>
      <trkpt lat="42.4653360" lon="-2.4543030">
        <ele>399.4</ele>
        <time>2020-03-29T18:52:28Z</time>
      </trkpt>
      <trkpt lat="42.4653710" lon="-2.4545790">
        <ele>399.0</ele>
        <time>2020-03-29T18:52:30Z</time>
      </trkpt>
      <trkpt lat="42.4653330" lon="-2.4548090">
        <ele>398.3</ele>
        <time>2020-03-29T18:52:32Z</time>
      </trkpt>
      <trkpt lat="42.4652040" lon="-2.4549380">
        <ele>397.8</ele>
        <time>2020-03-29T18:52:34Z</time>
      </trkpt>
      <trkpt lat="42.4651290" lon="-2.4551660">
        <ele>397.7</ele>
        <time>2020-03-29T18:52:36Z</time>
      </trkpt>
      <trkpt lat="42.4650870" lon="-2.4553380">
        <ele>397.8</ele>
        <time>2020-03-29T18:52:38Z</time>
      </trkpt>
      <trkpt lat="42.4650450" lon="-2.4555110">
        <ele>398.0</ele>
        <time>2020-03-29T18:52:40Z</time>
      </trkpt>
      <trkpt lat="42.4649710" lon="-2.4558260">
        <ele>398.3</ele>
        <time>2020-03-29T18:52:42Z</time>
      </trkpt>
      <trkpt lat="42.4649080" lon="-2.4561010">
        <ele>398.6</ele>
        <time>2020-03-29T18:52:44Z</time>
      </trkpt>
      <trkpt lat="42.4648490" lon="-2.4563400">
        <ele>398.8</ele>
        <time>2020-03-29T18:52:46Z</time>
      </trkpt>
      <trkpt lat="42.4647950" lon="-2.4565680">
        <ele>398.4</ele>
        <time>2020-03-29T18:52:48Z</time>
      </trkpt>
      <trkpt lat="42.4647460" lon="-2.4567690">
        <ele>397.9</ele>
        <time>2020-03-29T18:52:50Z</time>
      </trkpt>
      <trkpt lat="42.4646950" lon="-2.4569790">
        <ele>397.2</ele>
        <time>2020-03-29T18:52:52Z</time>
      </trkpt>
      <trkpt lat="42.4645770" lon="-2.4574610">
        <ele>395.7</ele>
        <time>2020-03-29T18:52:54Z</time>
      </trkpt>
      <trkpt lat="42.4645160" lon="-2.4577130">
        <ele>395.4</ele>
        <time>2020-03-29T18:52:56Z</time>
      </trkpt>
      <trkpt lat="42.4644410" lon="-2.4580030">
        <ele>395.1</ele>
        <time>2020-03-29T18:52:58Z</time>
      </trkpt>
      <trkpt lat="42.4643930" lon="-2.4582040">
        <ele>395.2</ele>
        <time>2020-03-29T18:53:00Z</time>
      </trkpt>
      <trkpt lat="42.4643060" lon="-2.4585670">
        <ele>395.2</ele>
        <time>2020-03-29T18:53:02Z</time>
      </trkpt>
      <trkpt lat="42.4642570" lon="-2.4587750">
        <ele>395.4</ele>
        <time>2020-03-29T18:53:04Z</time>
      </trkpt>
      <trkpt lat="42.4642120" lon="-2.4589640">
        <ele>395.5</ele>
        <time>2020-03-29T18:53:06Z</time>
      </trkpt>
      <trkpt lat="42.4641240" lon="-2.4593380">
        <ele>396.3</ele>
        <time>2020-03-29T18:53:08Z</time>
      </trkpt>
      <trkpt lat="42.4640820" lon="-2.4595170">
        <ele>395.6</ele>
        <time>2020-03-29T18:53:10Z</time>
      </trkpt>
      <trkpt lat="42.4640060" lon="-2.4598170">
        <ele>394.7</ele>
        <time>2020-03-29T18:53:12Z</time>
      </trkpt>
      <trkpt lat="42.4639520" lon="-2.4600430">
        <ele>394.5</ele>
        <time>2020-03-29T18:53:14Z</time>
      </trkpt>
      <trkpt lat="42.4639020" lon="-2.4602470">
        <ele>394.3</ele>
        <time>2020-03-29T18:53:16Z</time>
      </trkpt>
      <trkpt lat="42.4638520" lon="-2.4604530">
        <ele>394.0</ele>
        <time>2020-03-29T18:53:18Z</time>
      </trkpt>
      <trkpt lat="42.4637930" lon="-2.4606970">
        <ele>393.6</ele>
        <time>2020-03-29T18:53:20Z</time>
      </trkpt>
      <trkpt lat="42.4637420" lon="-2.4608990">
        <ele>393.8</ele>
        <time>2020-03-29T18:53:22Z</time>
      </trkpt>
      <trkpt lat="42.4637080" lon="-2.4610400">
        <ele>394.0</ele>
        <time>2020-03-29T18:53:24Z</time>
      </trkpt>
      <trkpt lat="42.4636560" lon="-2.4612530">
        <ele>394.5</ele>
        <time>2020-03-29T18:53:26Z</time>
      </trkpt>
      <trkpt lat="42.4636250" lon="-2.4613820">
        <ele>395.0</ele>
        <time>2020-03-29T18:53:28Z</time>
      </trkpt>
      <trkpt lat="42.4635940" lon="-2.4615050">
        <ele>395.4</ele>
        <time>2020-03-29T18:53:30Z</time>
      </trkpt>
      <trkpt lat="42.4635330" lon="-2.4617560">
        <ele>396.5</ele>
        <time>2020-03-29T18:53:32Z</time>
      </trkpt>
      <trkpt lat="42.4634920" lon="-2.4619230">
        <ele>397.2</ele>
        <time>2020-03-29T18:53:34Z</time>
      </trkpt>
      <trkpt lat="42.4635210" lon="-2.4620920">
        <ele>397.9</ele>
        <time>2020-03-29T18:53:36Z</time>
      </trkpt>
      <trkpt lat="42.4635260" lon="-2.4622790">
        <ele>398.1</ele>
        <time>2020-03-29T18:53:38Z</time>
      </trkpt>
      <trkpt lat="42.4633880" lon="-2.4623460">
        <ele>398.0</ele>
        <time>2020-03-29T18:53:40Z</time>
      </trkpt>
      <trkpt lat="42.4632830" lon="-2.4621930">
        <ele>397.5</ele>
        <time>2020-03-29T18:53:42Z</time>
      </trkpt>
      <trkpt lat="42.4631360" lon="-2.4621210">
        <ele>397.2</ele>
        <time>2020-03-29T18:53:44Z</time>
      </trkpt>
      <trkpt lat="42.4630170" lon="-2.4620700">
        <ele>396.7</ele>
        <time>2020-03-29T18:53:46Z</time>
      </trkpt>
      <trkpt lat="42.4628990" lon="-2.4620200">
        <ele>396.3</ele>
        <time>2020-03-29T18:53:48Z</time>
      </trkpt>
      <trkpt lat="42.4626570" lon="-2.4619180">
        <ele>395.5</ele>
        <time>2020-03-29T18:53:50Z</time>
      </trkpt>
      <trkpt lat="42.4624960" lon="-2.4618490">
        <ele>395.1</ele>
        <time>2020-03-29T18:53:52Z</time>
      </trkpt>
      <trkpt lat="42.4623800" lon="-2.4617980">
        <ele>395.0</ele>
        <time>2020-03-29T18:53:54Z</time>
      </trkpt>
      <trkpt lat="42.4622640" lon="-2.4617460">
        <ele>394.9</ele>
        <time>2020-03-29T18:53:56Z</time>
      </trkpt>
      <trkpt lat="42.4620310" lon="-2.4616440">
        <ele>394.9</ele>
        <time>2020-03-29T18:53:58Z</time>
      </trkpt>
      <trkpt lat="42.4618900" lon="-2.4615810">
        <ele>395.1</ele>
        <time>2020-03-29T18:54:00Z</time>
      </trkpt>
      <trkpt lat="42.4617750" lon="-2.4615300">
        <ele>395.3</ele>
        <time>2020-03-29T18:54:02Z</time>
      </trkpt>
      <trkpt lat="42.4616610" lon="-2.4614790">
        <ele>395.6</ele>
        <time>2020-03-29T18:54:04Z</time>
      </trkpt>
      <trkpt lat="42.4614280" lon="-2.4613650">
        <ele>395.8</ele>
        <time>2020-03-29T18:54:06Z</time>
      </trkpt>
      <trkpt lat="42.4612480" lon="-2.4612650">
        <ele>395.7</ele>
        <time>2020-03-29T18:54:08Z</time>
      </trkpt>
      <trkpt lat="42.4611460" lon="-2.4611800">
        <ele>395.8</ele>
        <time>2020-03-29T18:54:10Z</time>
      </trkpt>
      <trkpt lat="42.4609890" lon="-2.4610370">
        <ele>395.9</ele>
        <time>2020-03-29T18:54:12Z</time>
      </trkpt>
      <trkpt lat="42.4608610" lon="-2.4608820">
        <ele>396.4</ele>
        <time>2020-03-29T18:54:14Z</time>
      </trkpt>
      <trkpt lat="42.4607870" lon="-2.4607670">
        <ele>396.7</ele>
        <time>2020-03-29T18:54:16Z</time>
      </trkpt>
      <trkpt lat="42.4606990" lon="-2.4606000">
        <ele>396.9</ele>
        <time>2020-03-29T18:54:18Z</time>
      </trkpt>
      <trkpt lat="42.4606170" lon="-2.4604130">
        <ele>397.1</ele>
        <time>2020-03-29T18:54:20Z</time>
      </trkpt>
      <trkpt lat="42.4605750" lon="-2.4602870">
        <ele>397.3</ele>
        <time>2020-03-29T18:54:22Z</time>
      </trkpt>
      <trkpt lat="42.4605010" lon="-2.4600620">
        <ele>397.8</ele>
        <time>2020-03-29T18:54:24Z</time>
      </trkpt>
      <trkpt lat="42.4604500" lon="-2.4599210">
        <ele>398.5</ele>
        <time>2020-03-29T18:54:26Z</time>
      </trkpt>
      <trkpt lat="42.4603640" lon="-2.4597660">
        <ele>399.4</ele>
        <time>2020-03-29T18:54:28Z</time>
      </trkpt>
      <trkpt lat="42.4602650" lon="-2.4596710">
        <ele>400.0</ele>
        <time>2020-03-29T18:54:30Z</time>
      </trkpt>
      <trkpt lat="42.4602210" lon="-2.4595070">
        <ele>400.7</ele>
        <time>2020-03-29T18:54:32Z</time>
      </trkpt>
      <trkpt lat="42.4602520" lon="-2.4593500">
        <ele>400.9</ele>
        <time>2020-03-29T18:54:34Z</time>
      </trkpt>
      <trkpt lat="42.4602610" lon="-2.4591850">
        <ele>401.0</ele>
        <time>2020-03-29T18:54:36Z</time>
      </trkpt>
      <trkpt lat="42.4602500" lon="-2.4590610">
        <ele>401.1</ele>
        <time>2020-03-29T18:54:38Z</time>
      </trkpt>
      <trkpt lat="42.4602210" lon="-2.4588690">
        <ele>401.0</ele>
        <time>2020-03-29T18:54:40Z</time>
      </trkpt>
      <trkpt lat="42.4601900" lon="-2.4587350">
        <ele>400.8</ele>
        <time>2020-03-29T18:54:42Z</time>
      </trkpt>
      <trkpt lat="42.4601550" lon="-2.4585900">
        <ele>400.5</ele>
        <time>2020-03-29T18:54:44Z</time>
      </trkpt>
      <trkpt lat="42.4600780" lon="-2.4582640">
        <ele>400.0</ele>
        <time>2020-03-29T18:54:46Z</time>
      </trkpt>
      <trkpt lat="42.4600400" lon="-2.4581000">
        <ele>399.6</ele>
        <time>2020-03-29T18:54:48Z</time>
      </trkpt>
      <trkpt lat="42.4599990" lon="-2.4579270">
        <ele>399.3</ele>
        <time>2020-03-29T18:54:50Z</time>
      </trkpt>
      <trkpt lat="42.4599190" lon="-2.4575760">
        <ele>398.1</ele>
        <time>2020-03-29T18:54:52Z</time>
      </trkpt>
      <trkpt lat="42.4598730" lon="-2.4573630">
        <ele>398.8</ele>
        <time>2020-03-29T18:54:54Z</time>
      </trkpt>
      <trkpt lat="42.4598350" lon="-2.4571920">
        <ele>399.7</ele>
        <time>2020-03-29T18:54:56Z</time>
      </trkpt>
      <trkpt lat="42.4597990" lon="-2.4570310">
        <ele>400.1</ele>
        <time>2020-03-29T18:54:58Z</time>
      </trkpt>
      <trkpt lat="42.4597660" lon="-2.4568770">
        <ele>400.5</ele>
        <time>2020-03-29T18:55:00Z</time>
      </trkpt>
      <trkpt lat="42.4596740" lon="-2.4564690">
        <ele>401.5</ele>
        <time>2020-03-29T18:55:02Z</time>
      </trkpt>
      <trkpt lat="42.4596070" lon="-2.4562810">
        <ele>401.3</ele>
        <time>2020-03-29T18:55:04Z</time>
      </trkpt>
      <trkpt lat="42.4595120" lon="-2.4561620">
        <ele>401.1</ele>
        <time>2020-03-29T18:55:06Z</time>
      </trkpt>
      <trkpt lat="42.4595120" lon="-2.4561620">
        <ele>401.1</ele>
        <time>2020-03-29T18:55:06Z</time>
      </trkpt>
      <trkpt lat="42.4595120" lon="-2.4561620">
        <ele>401.1</ele>
        <time>2020-03-29T18:55:08Z</time>
      </trkpt>
      <trkpt lat="42.4595120" lon="-2.4561620">
        <ele>401.1</ele>
        <time>2020-03-29T18:55:10Z</time>
      </trkpt>
      <trkpt lat="42.4595120" lon="-2.4561620">
        <ele>401.1</ele>
        <time>2020-03-29T18:55:12Z</time>
      </trkpt>
      <trkpt lat="42.4595120" lon="-2.4561620">
        <ele>401.1</ele>
        <time>2020-03-29T18:55:14Z</time>
      </trkpt>
      <trkpt lat="42.4595120" lon="-2.4561620">
        <ele>401.1</ele>
        <time>2020-03-29T18:55:16Z</time>
      </trkpt>
      <trkpt lat="42.4595120" lon="-2.4561620">
        <ele>401.1</ele>
        <time>2020-03-29T18:55:18Z</time>
      </trkpt>
      <trkpt lat="42.4595120" lon="-2.4561620">
        <ele>401.1</ele>
        <time>2020-03-29T18:55:20Z</time>
      </trkpt>
      <trkpt lat="42.4595120" lon="-2.4561620">
        <ele>401.1</ele>
        <time>2020-03-29T18:55:22Z</time>
      </trkpt>
      <trkpt lat="42.4595120" lon="-2.4561620">
        <ele>401.1</ele>
        <time>2020-03-29T18:55:24Z</time>
      </trkpt>
      <trkpt lat="42.4595120" lon="-2.4561620">
        <ele>401.1</ele>
        <time>2020-03-29T18:55:25Z</time>
      </trkpt>
      <trkpt lat="42.4594600" lon="-2.4561300">
        <ele>400.9</ele>
        <time>2020-03-31T17:18:02Z</time>
      </trkpt>
      <trkpt lat="42.4594600" lon="-2.4561300">
        <ele>400.9</ele>
        <time>2020-03-31T17:18:04Z</time>
      </trkpt>
      <trkpt lat="42.4594600" lon="-2.4561300">
        <ele>400.9</ele>
        <time>2020-03-31T17:18:06Z</time>
      </trkpt>
      <trkpt lat="42.4594600" lon="-2.4561300">
        <ele>400.9</ele>
        <time>2020-03-31T17:18:08Z</time>
      </trkpt>
      <trkpt lat="42.4594600" lon="-2.4561300">
        <ele>400.9</ele>
        <time>2020-03-31T17:18:10Z</time>
      </trkpt>
      <trkpt lat="42.4594600" lon="-2.4561300">
        <ele>400.9</ele>
        <time>2020-03-31T17:18:12Z</time>
      </trkpt>
      <trkpt lat="42.4594600" lon="-2.4561300">
        <ele>400.9</ele>
        <time>2020-03-31T17:18:14Z</time>
      </trkpt>
      <trkpt lat="42.4594600" lon="-2.4561300">
        <ele>400.9</ele>
        <time>2020-03-31T17:18:16Z</time>
      </trkpt>
      <trkpt lat="42.4594600" lon="-2.4561300">
        <ele>400.9</ele>
        <time>2020-03-31T17:18:18Z</time>
      </trkpt>
      <trkpt lat="42.4594600" lon="-2.4561300">
        <ele>400.9</ele>
        <time>2020-03-31T17:18:20Z</time>
      </trkpt>
      <trkpt lat="42.4594600" lon="-2.4561300">
        <ele>400.9</ele>
        <time>2020-03-31T17:18:22Z</time>
      </trkpt>
      <trkpt lat="42.4594600" lon="-2.4561300">
        <ele>400.9</ele>
        <time>2020-03-31T17:18:24Z</time>
      </trkpt>
      <trkpt lat="42.4594600" lon="-2.4561300">
        <ele>400.9</ele>
        <time>2020-03-31T17:18:26Z</time>
      </trkpt>
      <trkpt lat="42.4594600" lon="-2.4561300">
        <ele>400.9</ele>
        <time>2020-03-31T17:18:28Z</time>
      </trkpt>
      <trkpt lat="42.4594600" lon="-2.4561300">
        <ele>400.9</ele>
        <time>2020-03-31T17:18:30Z</time>
      </trkpt>
      <trkpt lat="42.4594600" lon="-2.4561300">
        <ele>400.9</ele>
        <time>2020-03-31T17:18:32Z</time>
      </trkpt>
      <trkpt lat="42.4594600" lon="-2.4561300">
        <ele>400.9</ele>
        <time>2020-03-31T17:18:34Z</time>
      </trkpt>
      <trkpt lat="42.4594600" lon="-2.4561300">
        <ele>400.9</ele>
        <time>2020-03-31T17:18:36Z</time>
      </trkpt>
      <trkpt lat="42.4594600" lon="-2.4561300">
        <ele>400.9</ele>
        <time>2020-03-31T17:18:38Z</time>
      </trkpt>
      <trkpt lat="42.4594600" lon="-2.4561300">
        <ele>400.9</ele>
        <time>2020-03-31T17:18:40Z</time>
      </trkpt>
      <trkpt lat="42.4594600" lon="-2.4561300">
        <ele>400.9</ele>
        <time>2020-03-31T17:18:42Z</time>
      </trkpt>
      <trkpt lat="42.4594600" lon="-2.4561300">
        <ele>400.9</ele>
        <time>2020-03-31T17:18:44Z</time>
      </trkpt>
      <trkpt lat="42.4594600" lon="-2.4561300">
        <ele>400.9</ele>
        <time>2020-03-31T17:18:46Z</time>
      </trkpt>
      <trkpt lat="42.4594600" lon="-2.4561300">
        <ele>400.9</ele>
        <time>2020-03-31T17:18:48Z</time>
      </trkpt>
      <trkpt lat="42.4594600" lon="-2.4561300">
        <ele>400.9</ele>
        <time>2020-03-31T17:18:50Z</time>
      </trkpt>
      <trkpt lat="42.4594600" lon="-2.4561300">
        <ele>400.9</ele>
        <time>2020-03-31T17:18:52Z</time>
      </trkpt>
      <trkpt lat="42.4594600" lon="-2.4561300">
        <ele>400.9</ele>
        <time>2020-03-31T17:18:54Z</time>
      </trkpt>
      <trkpt lat="42.4594600" lon="-2.4561300">
        <ele>400.9</ele>
        <time>2020-03-31T17:18:56Z</time>
      </trkpt>
      <trkpt lat="42.4594600" lon="-2.4561300">
        <ele>400.9</ele>
        <time>2020-03-31T17:18:58Z</time>
      </trkpt>
      <trkpt lat="42.4594600" lon="-2.4561300">
        <ele>400.9</ele>
        <time>2020-03-31T17:19:00Z</time>
      </trkpt>
      <trkpt lat="42.4594600" lon="-2.4561300">
        <ele>400.9</ele>
        <time>2020-03-31T17:19:02Z</time>
      </trkpt>
      <trkpt lat="42.4594600" lon="-2.4561300">
        <ele>400.9</ele>
        <time>2020-03-31T17:19:04Z</time>
      </trkpt>
      <trkpt lat="42.4594600" lon="-2.4561300">
        <ele>400.9</ele>
        <time>2020-03-31T17:19:06Z</time>
      </trkpt>
      <trkpt lat="42.4594600" lon="-2.4561300">
        <ele>400.9</ele>
        <time>2020-03-31T17:19:08Z</time>
      </trkpt>
      <trkpt lat="42.4594600" lon="-2.4561300">
        <ele>400.9</ele>
        <time>2020-03-31T17:19:10Z</time>
      </trkpt>
      <trkpt lat="42.4594600" lon="-2.4561300">
        <ele>400.9</ele>
        <time>2020-03-31T17:19:12Z</time>
      </trkpt>
      <trkpt lat="42.4594600" lon="-2.4561300">
        <ele>400.9</ele>
        <time>2020-03-31T17:19:14Z</time>
      </trkpt>
      <trkpt lat="42.4594600" lon="-2.4561300">
        <ele>400.9</ele>
        <time>2020-03-31T17:19:16Z</time>
      </trkpt>
      <trkpt lat="42.4594600" lon="-2.4561300">
        <ele>400.9</ele>
        <time>2020-03-31T17:19:18Z</time>
      </trkpt>
      <trkpt lat="42.4594600" lon="-2.4561300">
        <ele>400.9</ele>
        <time>2020-03-31T17:19:20Z</time>
      </trkpt>
      <trkpt lat="42.4594600" lon="-2.4561300">
        <ele>400.9</ele>
        <time>2020-03-31T17:19:22Z</time>
      </trkpt>
      <trkpt lat="42.4594600" lon="-2.4561300">
        <ele>400.9</ele>
        <time>2020-03-31T17:19:24Z</time>
      </trkpt>
      <trkpt lat="42.4594600" lon="-2.4561300">
        <ele>400.9</ele>
        <time>2020-03-31T17:19:26Z</time>
      </trkpt>
      <trkpt lat="42.4594600" lon="-2.4561300">
        <ele>400.9</ele>
        <time>2020-03-31T17:19:28Z</time>
      </trkpt>
      <trkpt lat="42.4594600" lon="-2.4561300">
        <ele>400.9</ele>
        <time>2020-03-31T17:19:30Z</time>
      </trkpt>
      <trkpt lat="42.4594600" lon="-2.4561300">
        <ele>400.9</ele>
        <time>2020-03-31T17:19:32Z</time>
      </trkpt>
      <trkpt lat="42.4594600" lon="-2.4561300">
        <ele>400.9</ele>
        <time>2020-03-31T17:19:34Z</time>
      </trkpt>
      <trkpt lat="42.4594600" lon="-2.4561300">
        <ele>400.9</ele>
        <time>2020-03-31T17:19:36Z</time>
      </trkpt>
      <trkpt lat="42.4594600" lon="-2.4561300">
        <ele>400.9</ele>
        <time>2020-03-31T17:19:38Z</time>
      </trkpt>
      <trkpt lat="42.4594600" lon="-2.4561300">
        <ele>400.9</ele>
        <time>2020-03-31T17:19:40Z</time>
      </trkpt>
      <trkpt lat="42.4594600" lon="-2.4561300">
        <ele>400.9</ele>
        <time>2020-03-31T17:19:42Z</time>
      </trkpt>
      <trkpt lat="42.4594600" lon="-2.4561300">
        <ele>400.9</ele>
        <time>2020-03-31T17:19:44Z</time>
      </trkpt>
      <trkpt lat="42.4594600" lon="-2.4561300">
        <ele>400.9</ele>
        <time>2020-03-31T17:19:46Z</time>
      </trkpt>
      <trkpt lat="42.4594600" lon="-2.4561300">
        <ele>400.9</ele>
        <time>2020-03-31T17:19:48Z</time>
      </trkpt>
      <trkpt lat="42.4594600" lon="-2.4561300">
        <ele>400.9</ele>
        <time>2020-03-31T17:19:50Z</time>
      </trkpt>
      <trkpt lat="42.4594600" lon="-2.4561300">
        <ele>400.9</ele>
        <time>2020-03-31T17:19:52Z</time>
      </trkpt>
      <trkpt lat="42.4594600" lon="-2.4561300">
        <ele>400.9</ele>
        <time>2020-03-31T17:19:54Z</time>
      </trkpt>
      <trkpt lat="42.4594600" lon="-2.4561300">
        <ele>400.9</ele>
        <time>2020-03-31T17:19:56Z</time>
      </trkpt>
      <trkpt lat="42.4594600" lon="-2.4561300">
        <ele>400.9</ele>
        <time>2020-03-31T17:19:58Z</time>
      </trkpt>
      <trkpt lat="42.4594600" lon="-2.4561300">
        <ele>400.9</ele>
        <time>2020-03-31T17:20:00Z</time>
      </trkpt>
      <trkpt lat="42.4594600" lon="-2.4561300">
        <ele>400.9</ele>
        <time>2020-03-31T17:20:02Z</time>
      </trkpt>
      <trkpt lat="42.4594600" lon="-2.4561300">
        <ele>400.9</ele>
        <time>2020-03-31T17:20:04Z</time>
      </trkpt>
      <trkpt lat="42.4594600" lon="-2.4561300">
        <ele>400.9</ele>
        <time>2020-03-31T17:20:06Z</time>
      </trkpt>
      <trkpt lat="42.4594600" lon="-2.4561300">
        <ele>400.9</ele>
        <time>2020-03-31T17:20:08Z</time>
      </trkpt>
      <trkpt lat="42.4594600" lon="-2.4561300">
        <ele>400.9</ele>
        <time>2020-03-31T17:20:10Z</time>
      </trkpt>
      <trkpt lat="42.4594600" lon="-2.4561300">
        <ele>400.9</ele>
        <time>2020-03-31T17:20:12Z</time>
      </trkpt>
      <trkpt lat="42.4594600" lon="-2.4561300">
        <ele>400.9</ele>
        <time>2020-03-31T17:20:14Z</time>
      </trkpt>
      <trkpt lat="42.4594600" lon="-2.4561300">
        <ele>400.9</ele>
        <time>2020-03-31T17:20:16Z</time>
      </trkpt>
      <trkpt lat="42.4594600" lon="-2.4561300">
        <ele>400.9</ele>
        <time>2020-03-31T17:20:18Z</time>
      </trkpt>
      <trkpt lat="42.4594600" lon="-2.4561300">
        <ele>400.9</ele>
        <time>2020-03-31T17:20:20Z</time>
      </trkpt>
      <trkpt lat="42.4594600" lon="-2.4561300">
        <ele>400.9</ele>
        <time>2020-03-31T17:20:22Z</time>
      </trkpt>
      <trkpt lat="42.4594600" lon="-2.4561300">
        <ele>400.9</ele>
        <time>2020-03-31T17:20:24Z</time>
      </trkpt>
      <trkpt lat="42.4594600" lon="-2.4561300">
        <ele>400.9</ele>
        <time>2020-03-31T17:20:26Z</time>
      </trkpt>
      <trkpt lat="42.4594600" lon="-2.4561300">
        <ele>400.9</ele>
        <time>2020-03-31T17:20:28Z</time>
      </trkpt>
      <trkpt lat="42.4594600" lon="-2.4561300">
        <ele>400.9</ele>
        <time>2020-03-31T17:20:30Z</time>
      </trkpt>
      <trkpt lat="42.4594600" lon="-2.4561300">
        <ele>400.9</ele>
        <time>2020-03-31T17:20:32Z</time>
      </trkpt>
      <trkpt lat="42.4594600" lon="-2.4561300">
        <ele>400.9</ele>
        <time>2020-03-31T17:20:34Z</time>
      </trkpt>
      <trkpt lat="42.4594600" lon="-2.4561300">
        <ele>400.9</ele>
        <time>2020-03-31T17:20:36Z</time>
      </trkpt>
      <trkpt lat="42.4594600" lon="-2.4561300">
        <ele>400.9</ele>
        <time>2020-03-31T17:20:38Z</time>
      </trkpt>
      <trkpt lat="42.4594600" lon="-2.4561300">
        <ele>400.9</ele>
        <time>2020-03-31T17:20:40Z</time>
      </trkpt>
      <trkpt lat="42.4594600" lon="-2.4561300">
        <ele>400.9</ele>
        <time>2020-03-31T17:20:42Z</time>
      </trkpt>
      <trkpt lat="42.4594600" lon="-2.4561300">
        <ele>400.9</ele>
        <time>2020-03-31T17:20:44Z</time>
      </trkpt>
      <trkpt lat="42.4594600" lon="-2.4561300">
        <ele>400.9</ele>
        <time>2020-03-31T17:20:46Z</time>
      </trkpt>
      <trkpt lat="42.4594600" lon="-2.4561300">
        <ele>400.9</ele>
        <time>2020-03-31T17:20:48Z</time>
      </trkpt>
      <trkpt lat="42.4594600" lon="-2.4561300">
        <ele>400.9</ele>
        <time>2020-03-31T17:20:50Z</time>
      </trkpt>
      <trkpt lat="42.4594600" lon="-2.4561300">
        <ele>400.9</ele>
        <time>2020-03-31T17:20:52Z</time>
      </trkpt>
      <trkpt lat="42.4594600" lon="-2.4561300">
        <ele>400.9</ele>
        <time>2020-03-31T17:20:54Z</time>
      </trkpt>
      <trkpt lat="42.4594600" lon="-2.4561300">
        <ele>400.9</ele>
        <time>2020-03-31T17:20:56Z</time>
      </trkpt>
      <trkpt lat="42.4594600" lon="-2.4561300">
        <ele>400.9</ele>
        <time>2020-03-31T17:20:58Z</time>
      </trkpt>
      <trkpt lat="42.4594600" lon="-2.4561300">
        <ele>400.9</ele>
        <time>2020-03-31T17:21:00Z</time>
      </trkpt>
      <trkpt lat="42.4594600" lon="-2.4561300">
        <ele>400.9</ele>
        <time>2020-03-31T17:21:02Z</time>
      </trkpt>
      <trkpt lat="42.4594600" lon="-2.4561300">
        <ele>400.9</ele>
        <time>2020-03-31T17:21:04Z</time>
      </trkpt>
      <trkpt lat="42.4594600" lon="-2.4561300">
        <ele>400.9</ele>
        <time>2020-03-31T17:21:06Z</time>
      </trkpt>
      <trkpt lat="42.4594600" lon="-2.4561300">
        <ele>400.9</ele>
        <time>2020-03-31T17:21:08Z</time>
      </trkpt>
      <trkpt lat="42.4594600" lon="-2.4561300">
        <ele>400.9</ele>
        <time>2020-03-31T17:21:10Z</time>
      </trkpt>
      <trkpt lat="42.4594600" lon="-2.4561300">
        <ele>400.9</ele>
        <time>2020-03-31T17:21:12Z</time>
      </trkpt>
      <trkpt lat="42.4594600" lon="-2.4561300">
        <ele>400.9</ele>
        <time>2020-03-31T17:21:14Z</time>
      </trkpt>
      <trkpt lat="42.4594600" lon="-2.4561300">
        <ele>400.9</ele>
        <time>2020-03-31T17:21:14Z</time>
      </trkpt>
      <trkpt lat="42.4594580" lon="-2.4561270">
        <ele>400.9</ele>
        <time>2020-03-31T17:21:16Z</time>
      </trkpt>
      <trkpt lat="42.4594320" lon="-2.4560930">
        <ele>400.9</ele>
        <time>2020-03-31T17:21:18Z</time>
      </trkpt>
      <trkpt lat="42.4593680" lon="-2.4559970">
        <ele>400.6</ele>
        <time>2020-03-31T17:21:20Z</time>
      </trkpt>
      <trkpt lat="42.4593480" lon="-2.4558920">
        <ele>400.4</ele>
        <time>2020-03-31T17:21:22Z</time>
      </trkpt>
      <trkpt lat="42.4593750" lon="-2.4557100">
        <ele>400.3</ele>
        <time>2020-03-31T17:21:24Z</time>
      </trkpt>
      <trkpt lat="42.4594710" lon="-2.4555910">
        <ele>400.3</ele>
        <time>2020-03-31T17:21:26Z</time>
      </trkpt>
      <trkpt lat="42.4595790" lon="-2.4555400">
        <ele>400.4</ele>
        <time>2020-03-31T17:21:28Z</time>
      </trkpt>
      <trkpt lat="42.4597180" lon="-2.4555940">
        <ele>400.7</ele>
        <time>2020-03-31T17:21:30Z</time>
      </trkpt>
      <trkpt lat="42.4598010" lon="-2.4557490">
        <ele>401.1</ele>
        <time>2020-03-31T17:21:32Z</time>
      </trkpt>
      <trkpt lat="42.4598130" lon="-2.4559270">
        <ele>401.4</ele>
        <time>2020-03-31T17:21:34Z</time>
      </trkpt>
      <trkpt lat="42.4597870" lon="-2.4560730">
        <ele>401.5</ele>
        <time>2020-03-31T17:21:36Z</time>
      </trkpt>
      <trkpt lat="42.4597670" lon="-2.4563150">
        <ele>401.6</ele>
        <time>2020-03-31T17:21:38Z</time>
      </trkpt>
      <trkpt lat="42.4597930" lon="-2.4565400">
        <ele>401.5</ele>
        <time>2020-03-31T17:21:40Z</time>
      </trkpt>
      <trkpt lat="42.4598280" lon="-2.4566950">
        <ele>401.2</ele>
        <time>2020-03-31T17:21:42Z</time>
      </trkpt>
      <trkpt lat="42.4598620" lon="-2.4568510">
        <ele>401.0</ele>
        <time>2020-03-31T17:21:44Z</time>
      </trkpt>
      <trkpt lat="42.4598970" lon="-2.4570070">
        <ele>400.5</ele>
        <time>2020-03-31T17:21:46Z</time>
      </trkpt>
      <trkpt lat="42.4599320" lon="-2.4571630">
        <ele>399.9</ele>
        <time>2020-03-31T17:21:48Z</time>
      </trkpt>
      <trkpt lat="42.4600260" lon="-2.4575880">
        <ele>398.2</ele>
        <time>2020-03-31T17:21:50Z</time>
      </trkpt>
      <trkpt lat="42.4600580" lon="-2.4577300">
        <ele>398.7</ele>
        <time>2020-03-31T17:21:52Z</time>
      </trkpt>
      <trkpt lat="42.4600870" lon="-2.4578600">
        <ele>399.1</ele>
        <time>2020-03-31T17:21:54Z</time>
      </trkpt>
      <trkpt lat="42.4601150" lon="-2.4579860">
        <ele>399.4</ele>
        <time>2020-03-31T17:21:56Z</time>
      </trkpt>
      <trkpt lat="42.4601420" lon="-2.4581110">
        <ele>399.7</ele>
        <time>2020-03-31T17:21:58Z</time>
      </trkpt>
      <trkpt lat="42.4601700" lon="-2.4582370">
        <ele>399.9</ele>
        <time>2020-03-31T17:22:00Z</time>
      </trkpt>
      <trkpt lat="42.4602620" lon="-2.4586340">
        <ele>400.8</ele>
        <time>2020-03-31T17:22:02Z</time>
      </trkpt>
      <trkpt lat="42.4602940" lon="-2.4587610">
        <ele>400.9</ele>
        <time>2020-03-31T17:22:04Z</time>
      </trkpt>
      <trkpt lat="42.4603600" lon="-2.4589800">
        <ele>400.9</ele>
        <time>2020-03-31T17:22:06Z</time>
      </trkpt>
      <trkpt lat="42.4604120" lon="-2.4591180">
        <ele>400.9</ele>
        <time>2020-03-31T17:22:08Z</time>
      </trkpt>
      <trkpt lat="42.4605740" lon="-2.4593180">
        <ele>400.1</ele>
        <time>2020-03-31T17:22:10Z</time>
      </trkpt>
      <trkpt lat="42.4606280" lon="-2.4595460">
        <ele>399.0</ele>
        <time>2020-03-31T17:22:12Z</time>
      </trkpt>
      <trkpt lat="42.4605900" lon="-2.4597650">
        <ele>398.3</ele>
        <time>2020-03-31T17:22:14Z</time>
      </trkpt>
      <trkpt lat="42.4606040" lon="-2.4600600">
        <ele>397.2</ele>
        <time>2020-03-31T17:22:16Z</time>
      </trkpt>
      <trkpt lat="42.4606660" lon="-2.4602390">
        <ele>397.0</ele>
        <time>2020-03-31T17:22:18Z</time>
      </trkpt>
      <trkpt lat="42.4607760" lon="-2.4605000">
        <ele>396.8</ele>
        <time>2020-03-31T17:22:20Z</time>
      </trkpt>
      <trkpt lat="42.4608620" lon="-2.4606520">
        <ele>396.8</ele>
        <time>2020-03-31T17:22:22Z</time>
      </trkpt>
      <trkpt lat="42.4610250" lon="-2.4608930">
        <ele>396.8</ele>
        <time>2020-03-31T17:22:24Z</time>
      </trkpt>
      <trkpt lat="42.4611390" lon="-2.4610040">
        <ele>396.7</ele>
        <time>2020-03-31T17:22:26Z</time>
      </trkpt>
      <trkpt lat="42.4613460" lon="-2.4611890">
        <ele>396.4</ele>
        <time>2020-03-31T17:22:28Z</time>
      </trkpt>
      <trkpt lat="42.4614770" lon="-2.4612570">
        <ele>396.0</ele>
        <time>2020-03-31T17:22:30Z</time>
      </trkpt>
      <trkpt lat="42.4614720" lon="-2.4614910">
        <ele>395.9</ele>
        <time>2020-03-31T17:22:32Z</time>
      </trkpt>
      <trkpt lat="42.4613410" lon="-2.4614210">
        <ele>395.7</ele>
        <time>2020-03-31T17:22:34Z</time>
      </trkpt>
      <trkpt lat="42.4611170" lon="-2.4613320">
        <ele>395.4</ele>
        <time>2020-03-31T17:22:36Z</time>
      </trkpt>
      <trkpt lat="42.4609630" lon="-2.4614690">
        <ele>394.9</ele>
        <time>2020-03-31T17:22:38Z</time>
      </trkpt>
      <trkpt lat="42.4608800" lon="-2.4616210">
        <ele>394.7</ele>
        <time>2020-03-31T17:22:40Z</time>
      </trkpt>
      <trkpt lat="42.4607230" lon="-2.4617990">
        <ele>394.0</ele>
        <time>2020-03-31T17:22:42Z</time>
      </trkpt>
      <trkpt lat="42.4605580" lon="-2.4618810">
        <ele>393.6</ele>
        <time>2020-03-31T17:22:44Z</time>
      </trkpt>
      <trkpt lat="42.4604360" lon="-2.4619360">
        <ele>393.5</ele>
        <time>2020-03-31T17:22:46Z</time>
      </trkpt>
      <trkpt lat="42.4602760" lon="-2.4621670">
        <ele>395.2</ele>
        <time>2020-03-31T17:22:48Z</time>
      </trkpt>
      <trkpt lat="42.4601850" lon="-2.4623410">
        <ele>396.4</ele>
        <time>2020-03-31T17:22:50Z</time>
      </trkpt>
      <trkpt lat="42.4601480" lon="-2.4624860">
        <ele>397.6</ele>
        <time>2020-03-31T17:22:52Z</time>
      </trkpt>
      <trkpt lat="42.4601130" lon="-2.4626250">
        <ele>398.5</ele>
        <time>2020-03-31T17:22:54Z</time>
      </trkpt>
      <trkpt lat="42.4600800" lon="-2.4627560">
        <ele>398.9</ele>
        <time>2020-03-31T17:22:56Z</time>
      </trkpt>
      <trkpt lat="42.4600480" lon="-2.4628840">
        <ele>399.1</ele>
        <time>2020-03-31T17:22:58Z</time>
      </trkpt>
      <trkpt lat="42.4599580" lon="-2.4632420">
        <ele>400.3</ele>
        <time>2020-03-31T17:23:00Z</time>
      </trkpt>
      <trkpt lat="42.4599280" lon="-2.4633630">
        <ele>400.9</ele>
        <time>2020-03-31T17:23:02Z</time>
      </trkpt>
      <trkpt lat="42.4598980" lon="-2.4634820">
        <ele>401.1</ele>
        <time>2020-03-31T17:23:04Z</time>
      </trkpt>
      <trkpt lat="42.4598690" lon="-2.4635990">
        <ele>401.4</ele>
        <time>2020-03-31T17:23:06Z</time>
      </trkpt>
      <trkpt lat="42.4598390" lon="-2.4637140">
        <ele>401.7</ele>
        <time>2020-03-31T17:23:08Z</time>
      </trkpt>
      <trkpt lat="42.4598110" lon="-2.4638280">
        <ele>402.0</ele>
        <time>2020-03-31T17:23:10Z</time>
      </trkpt>
      <trkpt lat="42.4597250" lon="-2.4641800">
        <ele>402.9</ele>
        <time>2020-03-31T17:23:12Z</time>
      </trkpt>
      <trkpt lat="42.4596980" lon="-2.4643090">
        <ele>402.9</ele>
        <time>2020-03-31T17:23:14Z</time>
      </trkpt>
      <trkpt lat="42.4596690" lon="-2.4644480">
        <ele>402.9</ele>
        <time>2020-03-31T17:23:16Z</time>
      </trkpt>
      <trkpt lat="42.4596370" lon="-2.4645960">
        <ele>402.8</ele>
        <time>2020-03-31T17:23:18Z</time>
      </trkpt>
      <trkpt lat="42.4595610" lon="-2.4649340">
        <ele>402.6</ele>
        <time>2020-03-31T17:23:20Z</time>
      </trkpt>
      <trkpt lat="42.4595210" lon="-2.4650890">
        <ele>402.5</ele>
        <time>2020-03-31T17:23:22Z</time>
      </trkpt>
      <trkpt lat="42.4594800" lon="-2.4652480">
        <ele>402.4</ele>
        <time>2020-03-31T17:23:24Z</time>
      </trkpt>
      <trkpt lat="42.4593960" lon="-2.4655950">
        <ele>402.2</ele>
        <time>2020-03-31T17:23:26Z</time>
      </trkpt>
      <trkpt lat="42.4593650" lon="-2.4657570">
        <ele>402.3</ele>
        <time>2020-03-31T17:23:28Z</time>
      </trkpt>
      <trkpt lat="42.4593360" lon="-2.4659150">
        <ele>402.5</ele>
        <time>2020-03-31T17:23:30Z</time>
      </trkpt>
      <trkpt lat="42.4592670" lon="-2.4662470">
        <ele>402.8</ele>
        <time>2020-03-31T17:23:32Z</time>
      </trkpt>
      <trkpt lat="42.4591980" lon="-2.4664470">
        <ele>403.3</ele>
        <time>2020-03-31T17:23:34Z</time>
      </trkpt>
      <trkpt lat="42.4591790" lon="-2.4666000">
        <ele>403.9</ele>
        <time>2020-03-31T17:23:36Z</time>
      </trkpt>
      <trkpt lat="42.4591610" lon="-2.4667500">
        <ele>404.4</ele>
        <time>2020-03-31T17:23:38Z</time>
      </trkpt>
      <trkpt lat="42.4591360" lon="-2.4670300">
        <ele>405.1</ele>
        <time>2020-03-31T17:23:40Z</time>
      </trkpt>
      <trkpt lat="42.4591290" lon="-2.4671830">
        <ele>405.4</ele>
        <time>2020-03-31T17:23:42Z</time>
      </trkpt>
      <trkpt lat="42.4591230" lon="-2.4673370">
        <ele>405.4</ele>
        <time>2020-03-31T17:23:44Z</time>
      </trkpt>
      <trkpt lat="42.4591070" lon="-2.4676870">
        <ele>405.4</ele>
        <time>2020-03-31T17:23:46Z</time>
      </trkpt>
      <trkpt lat="42.4590510" lon="-2.4678520">
        <ele>405.5</ele>
        <time>2020-03-31T17:23:48Z</time>
      </trkpt>
      <trkpt lat="42.4589290" lon="-2.4679300">
        <ele>405.6</ele>
        <time>2020-03-31T17:23:50Z</time>
      </trkpt>
      <trkpt lat="42.4587530" lon="-2.4680100">
        <ele>405.9</ele>
        <time>2020-03-31T17:23:52Z</time>
      </trkpt>
      <trkpt lat="42.4586370" lon="-2.4680100">
        <ele>406.2</ele>
        <time>2020-03-31T17:23:54Z</time>
      </trkpt>
      <trkpt lat="42.4585200" lon="-2.4680100">
        <ele>406.5</ele>
        <time>2020-03-31T17:23:56Z</time>
      </trkpt>
      <trkpt lat="42.4583100" lon="-2.4680520">
        <ele>407.1</ele>
        <time>2020-03-31T17:23:58Z</time>
      </trkpt>
      <trkpt lat="42.4582230" lon="-2.4682480">
        <ele>407.3</ele>
        <time>2020-03-31T17:24:00Z</time>
      </trkpt>
      <trkpt lat="42.4582360" lon="-2.4684100">
        <ele>407.4</ele>
        <time>2020-03-31T17:24:02Z</time>
      </trkpt>
      <trkpt lat="42.4582500" lon="-2.4685730">
        <ele>407.6</ele>
        <time>2020-03-31T17:24:04Z</time>
      </trkpt>
      <trkpt lat="42.4582760" lon="-2.4688980">
        <ele>408.1</ele>
        <time>2020-03-31T17:24:06Z</time>
      </trkpt>
      <trkpt lat="42.4582900" lon="-2.4690620">
        <ele>408.1</ele>
        <time>2020-03-31T17:24:08Z</time>
      </trkpt>
      <trkpt lat="42.4583030" lon="-2.4692270">
        <ele>407.9</ele>
        <time>2020-03-31T17:24:10Z</time>
      </trkpt>
      <trkpt lat="42.4583180" lon="-2.4695520">
        <ele>406.9</ele>
        <time>2020-03-31T17:24:12Z</time>
      </trkpt>
      <trkpt lat="42.4583150" lon="-2.4697190">
        <ele>406.5</ele>
        <time>2020-03-31T17:24:14Z</time>
      </trkpt>
      <trkpt lat="42.4583130" lon="-2.4698850">
        <ele>406.3</ele>
        <time>2020-03-31T17:24:16Z</time>
      </trkpt>
      <trkpt lat="42.4582760" lon="-2.4702630">
        <ele>407.2</ele>
        <time>2020-03-31T17:24:18Z</time>
      </trkpt>
      <trkpt lat="42.4582330" lon="-2.4704180">
        <ele>407.2</ele>
        <time>2020-03-31T17:24:20Z</time>
      </trkpt>
      <trkpt lat="42.4581270" lon="-2.4706640">
        <ele>407.3</ele>
        <time>2020-03-31T17:24:22Z</time>
      </trkpt>
      <trkpt lat="42.4580530" lon="-2.4707930">
        <ele>407.3</ele>
        <time>2020-03-31T17:24:24Z</time>
      </trkpt>
      <trkpt lat="42.4579330" lon="-2.4710070">
        <ele>407.4</ele>
        <time>2020-03-31T17:24:26Z</time>
      </trkpt>
      <trkpt lat="42.4578770" lon="-2.4711460">
        <ele>407.5</ele>
        <time>2020-03-31T17:24:28Z</time>
      </trkpt>
      <trkpt lat="42.4577800" lon="-2.4713900">
        <ele>407.7</ele>
        <time>2020-03-31T17:24:30Z</time>
      </trkpt>
      <trkpt lat="42.4577320" lon="-2.4715330">
        <ele>407.9</ele>
        <time>2020-03-31T17:24:32Z</time>
      </trkpt>
      <trkpt lat="42.4576850" lon="-2.4716750">
        <ele>408.2</ele>
        <time>2020-03-31T17:24:34Z</time>
      </trkpt>
      <trkpt lat="42.4575840" lon="-2.4719330">
        <ele>409.1</ele>
        <time>2020-03-31T17:24:36Z</time>
      </trkpt>
      <trkpt lat="42.4574710" lon="-2.4720790">
        <ele>410.1</ele>
        <time>2020-03-31T17:24:38Z</time>
      </trkpt>
      <trkpt lat="42.4573400" lon="-2.4720890">
        <ele>410.2</ele>
        <time>2020-03-31T17:24:40Z</time>
      </trkpt>
      <trkpt lat="42.4573040" lon="-2.4722340">
        <ele>410.3</ele>
        <time>2020-03-31T17:24:42Z</time>
      </trkpt>
      <trkpt lat="42.4572680" lon="-2.4723800">
        <ele>410.5</ele>
        <time>2020-03-31T17:24:44Z</time>
      </trkpt>
      <trkpt lat="42.4572610" lon="-2.4726470">
        <ele>410.9</ele>
        <time>2020-03-31T17:24:46Z</time>
      </trkpt>
      <trkpt lat="42.4572570" lon="-2.4728470">
        <ele>411.0</ele>
        <time>2020-03-31T17:24:48Z</time>
      </trkpt>
      <trkpt lat="42.4571190" lon="-2.4729060">
        <ele>410.9</ele>
        <time>2020-03-31T17:24:50Z</time>
      </trkpt>
      <trkpt lat="42.4570630" lon="-2.4730600">
        <ele>411.1</ele>
        <time>2020-03-31T17:24:52Z</time>
      </trkpt>
      <trkpt lat="42.4569480" lon="-2.4730150">
        <ele>411.0</ele>
        <time>2020-03-31T17:24:54Z</time>
      </trkpt>
      <trkpt lat="42.4567520" lon="-2.4730340">
        <ele>410.7</ele>
        <time>2020-03-31T17:24:56Z</time>
      </trkpt>
      <trkpt lat="42.4566730" lon="-2.4731640">
        <ele>410.8</ele>
        <time>2020-03-31T17:24:58Z</time>
      </trkpt>
      <trkpt lat="42.4565750" lon="-2.4733780">
        <ele>410.9</ele>
        <time>2020-03-31T17:25:00Z</time>
      </trkpt>
      <trkpt lat="42.4565240" lon="-2.4735350">
        <ele>410.8</ele>
        <time>2020-03-31T17:25:02Z</time>
      </trkpt>
      <trkpt lat="42.4564560" lon="-2.4738130">
        <ele>410.8</ele>
        <time>2020-03-31T17:25:04Z</time>
      </trkpt>
      <trkpt lat="42.4564360" lon="-2.4739830">
        <ele>411.1</ele>
        <time>2020-03-31T17:25:06Z</time>
      </trkpt>
      <trkpt lat="42.4564130" lon="-2.4742650">
        <ele>411.1</ele>
        <time>2020-03-31T17:25:08Z</time>
      </trkpt>
      <trkpt lat="42.4564040" lon="-2.4744380">
        <ele>411.0</ele>
        <time>2020-03-31T17:25:10Z</time>
      </trkpt>
      <trkpt lat="42.4563800" lon="-2.4747680">
        <ele>410.9</ele>
        <time>2020-03-31T17:25:12Z</time>
      </trkpt>
      <trkpt lat="42.4563200" lon="-2.4749630">
        <ele>411.0</ele>
        <time>2020-03-31T17:25:14Z</time>
      </trkpt>
      <trkpt lat="42.4562610" lon="-2.4751160">
        <ele>411.1</ele>
        <time>2020-03-31T17:25:16Z</time>
      </trkpt>
      <trkpt lat="42.4562020" lon="-2.4752680">
        <ele>411.2</ele>
        <time>2020-03-31T17:25:18Z</time>
      </trkpt>
      <trkpt lat="42.4560920" lon="-2.4756020">
        <ele>411.8</ele>
        <time>2020-03-31T17:25:20Z</time>
      </trkpt>
      <trkpt lat="42.4560730" lon="-2.4757690">
        <ele>411.9</ele>
        <time>2020-03-31T17:25:22Z</time>
      </trkpt>
      <trkpt lat="42.4560550" lon="-2.4759370">
        <ele>412.0</ele>
        <time>2020-03-31T17:25:24Z</time>
      </trkpt>
      <trkpt lat="42.4560360" lon="-2.4761050">
        <ele>412.0</ele>
        <time>2020-03-31T17:25:26Z</time>
      </trkpt>
      <trkpt lat="42.4559800" lon="-2.4764840">
        <ele>411.9</ele>
        <time>2020-03-31T17:25:28Z</time>
      </trkpt>
      <trkpt lat="42.4559440" lon="-2.4766570">
        <ele>411.8</ele>
        <time>2020-03-31T17:25:30Z</time>
      </trkpt>
      <trkpt lat="42.4558730" lon="-2.4769590">
        <ele>411.6</ele>
        <time>2020-03-31T17:25:32Z</time>
      </trkpt>
      <trkpt lat="42.4558260" lon="-2.4771400">
        <ele>411.3</ele>
        <time>2020-03-31T17:25:34Z</time>
      </trkpt>
      <trkpt lat="42.4557070" lon="-2.4774790">
        <ele>410.1</ele>
        <time>2020-03-31T17:25:36Z</time>
      </trkpt>
      <trkpt lat="42.4555640" lon="-2.4774460">
        <ele>409.1</ele>
        <time>2020-03-31T17:25:38Z</time>
      </trkpt>
      <trkpt lat="42.4553530" lon="-2.4774530">
        <ele>408.6</ele>
        <time>2020-03-31T17:25:40Z</time>
      </trkpt>
      <trkpt lat="42.4553040" lon="-2.4776550">
        <ele>409.5</ele>
        <time>2020-03-31T17:25:42Z</time>
      </trkpt>
      <trkpt lat="42.4552600" lon="-2.4779710">
        <ele>409.4</ele>
        <time>2020-03-31T17:25:44Z</time>
      </trkpt>
      <trkpt lat="42.4552240" lon="-2.4781540">
        <ele>409.1</ele>
        <time>2020-03-31T17:25:46Z</time>
      </trkpt>
      <trkpt lat="42.4551890" lon="-2.4783370">
        <ele>409.0</ele>
        <time>2020-03-31T17:25:48Z</time>
      </trkpt>
      <trkpt lat="42.4551540" lon="-2.4785200">
        <ele>408.9</ele>
        <time>2020-03-31T17:25:50Z</time>
      </trkpt>
      <trkpt lat="42.4550790" lon="-2.4789320">
        <ele>408.9</ele>
        <time>2020-03-31T17:25:52Z</time>
      </trkpt>
      <trkpt lat="42.4550540" lon="-2.4791170">
        <ele>408.9</ele>
        <time>2020-03-31T17:25:54Z</time>
      </trkpt>
      <trkpt lat="42.4550290" lon="-2.4793010">
        <ele>408.8</ele>
        <time>2020-03-31T17:25:56Z</time>
      </trkpt>
      <trkpt lat="42.4549650" lon="-2.4796910">
        <ele>408.8</ele>
        <time>2020-03-31T17:25:58Z</time>
      </trkpt>
      <trkpt lat="42.4548890" lon="-2.4798460">
        <ele>408.5</ele>
        <time>2020-03-31T17:26:00Z</time>
      </trkpt>
      <trkpt lat="42.4548150" lon="-2.4799980">
        <ele>408.4</ele>
        <time>2020-03-31T17:26:02Z</time>
      </trkpt>
      <trkpt lat="42.4547410" lon="-2.4801500">
        <ele>408.3</ele>
        <time>2020-03-31T17:26:04Z</time>
      </trkpt>
      <trkpt lat="42.4545660" lon="-2.4805100">
        <ele>408.4</ele>
        <time>2020-03-31T17:26:06Z</time>
      </trkpt>
      <trkpt lat="42.4544920" lon="-2.4806620">
        <ele>408.6</ele>
        <time>2020-03-31T17:26:08Z</time>
      </trkpt>
      <trkpt lat="42.4544180" lon="-2.4808130">
        <ele>408.7</ele>
        <time>2020-03-31T17:26:10Z</time>
      </trkpt>
      <trkpt lat="42.4543450" lon="-2.4809630">
        <ele>408.8</ele>
        <time>2020-03-31T17:26:12Z</time>
      </trkpt>
      <trkpt lat="42.4541730" lon="-2.4813280">
        <ele>408.7</ele>
        <time>2020-03-31T17:26:14Z</time>
      </trkpt>
      <trkpt lat="42.4541100" lon="-2.4814870">
        <ele>408.7</ele>
        <time>2020-03-31T17:26:16Z</time>
      </trkpt>
      <trkpt lat="42.4540470" lon="-2.4816460">
        <ele>408.7</ele>
        <time>2020-03-31T17:26:18Z</time>
      </trkpt>
      <trkpt lat="42.4539840" lon="-2.4818030">
        <ele>408.7</ele>
        <time>2020-03-31T17:26:20Z</time>
      </trkpt>
      <trkpt lat="42.4538450" lon="-2.4821700">
        <ele>408.7</ele>
        <time>2020-03-31T17:26:22Z</time>
      </trkpt>
      <trkpt lat="42.4537880" lon="-2.4823310">
        <ele>408.7</ele>
        <time>2020-03-31T17:26:24Z</time>
      </trkpt>
      <trkpt lat="42.4537330" lon="-2.4824910">
        <ele>408.8</ele>
        <time>2020-03-31T17:26:26Z</time>
      </trkpt>
      <trkpt lat="42.4536780" lon="-2.4826490">
        <ele>409.2</ele>
        <time>2020-03-31T17:26:28Z</time>
      </trkpt>
      <trkpt lat="42.4535500" lon="-2.4830460">
        <ele>409.7</ele>
        <time>2020-03-31T17:26:30Z</time>
      </trkpt>
      <trkpt lat="42.4534920" lon="-2.4832930">
        <ele>409.7</ele>
        <time>2020-03-31T17:26:32Z</time>
      </trkpt>
      <trkpt lat="42.4534660" lon="-2.4834640">
        <ele>409.7</ele>
        <time>2020-03-31T17:26:34Z</time>
      </trkpt>
      <trkpt lat="42.4534410" lon="-2.4836320">
        <ele>409.7</ele>
        <time>2020-03-31T17:26:36Z</time>
      </trkpt>
      <trkpt lat="42.4534150" lon="-2.4838010">
        <ele>409.7</ele>
        <time>2020-03-31T17:26:38Z</time>
      </trkpt>
      <trkpt lat="42.4533900" lon="-2.4839700">
        <ele>409.7</ele>
        <time>2020-03-31T17:26:40Z</time>
      </trkpt>
      <trkpt lat="42.4533220" lon="-2.4844170">
        <ele>410.1</ele>
        <time>2020-03-31T17:26:42Z</time>
      </trkpt>
      <trkpt lat="42.4532970" lon="-2.4845840">
        <ele>410.5</ele>
        <time>2020-03-31T17:26:44Z</time>
      </trkpt>
      <trkpt lat="42.4532720" lon="-2.4847520">
        <ele>410.6</ele>
        <time>2020-03-31T17:26:46Z</time>
      </trkpt>
      <trkpt lat="42.4532460" lon="-2.4849210">
        <ele>410.6</ele>
        <time>2020-03-31T17:26:48Z</time>
      </trkpt>
      <trkpt lat="42.4531790" lon="-2.4853680">
        <ele>410.6</ele>
        <time>2020-03-31T17:26:50Z</time>
      </trkpt>
      <trkpt lat="42.4531610" lon="-2.4855380">
        <ele>410.6</ele>
        <time>2020-03-31T17:26:52Z</time>
      </trkpt>
      <trkpt lat="42.4531430" lon="-2.4857080">
        <ele>410.6</ele>
        <time>2020-03-31T17:26:54Z</time>
      </trkpt>
      <trkpt lat="42.4531240" lon="-2.4858780">
        <ele>410.6</ele>
        <time>2020-03-31T17:26:56Z</time>
      </trkpt>
      <trkpt lat="42.4530850" lon="-2.4862410">
        <ele>410.8</ele>
        <time>2020-03-31T17:26:58Z</time>
      </trkpt>
      <trkpt lat="42.4530670" lon="-2.4864090">
        <ele>411.1</ele>
        <time>2020-03-31T17:27:00Z</time>
      </trkpt>
      <trkpt lat="42.4530500" lon="-2.4865740">
        <ele>411.4</ele>
        <time>2020-03-31T17:27:02Z</time>
      </trkpt>
      <trkpt lat="42.4529900" lon="-2.4869240">
        <ele>411.6</ele>
        <time>2020-03-31T17:27:04Z</time>
      </trkpt>
      <trkpt lat="42.4529300" lon="-2.4870680">
        <ele>411.6</ele>
        <time>2020-03-31T17:27:06Z</time>
      </trkpt>
      <trkpt lat="42.4528720" lon="-2.4872110">
        <ele>411.6</ele>
        <time>2020-03-31T17:27:08Z</time>
      </trkpt>
      <trkpt lat="42.4528130" lon="-2.4873540">
        <ele>411.8</ele>
        <time>2020-03-31T17:27:10Z</time>
      </trkpt>
      <trkpt lat="42.4526690" lon="-2.4877060">
        <ele>412.4</ele>
        <time>2020-03-31T17:27:12Z</time>
      </trkpt>
      <trkpt lat="42.4526100" lon="-2.4878500">
        <ele>412.5</ele>
        <time>2020-03-31T17:27:14Z</time>
      </trkpt>
      <trkpt lat="42.4525510" lon="-2.4879940">
        <ele>412.6</ele>
        <time>2020-03-31T17:27:16Z</time>
      </trkpt>
      <trkpt lat="42.4524920" lon="-2.4881390">
        <ele>412.8</ele>
        <time>2020-03-31T17:27:18Z</time>
      </trkpt>
      <trkpt lat="42.4523460" lon="-2.4884960">
        <ele>413.5</ele>
        <time>2020-03-31T17:27:20Z</time>
      </trkpt>
      <trkpt lat="42.4522900" lon="-2.4886450">
        <ele>413.5</ele>
        <time>2020-03-31T17:27:22Z</time>
      </trkpt>
      <trkpt lat="42.4522330" lon="-2.4887940">
        <ele>413.5</ele>
        <time>2020-03-31T17:27:24Z</time>
      </trkpt>
      <trkpt lat="42.4521770" lon="-2.4889430">
        <ele>413.5</ele>
        <time>2020-03-31T17:27:26Z</time>
      </trkpt>
      <trkpt lat="42.4521200" lon="-2.4890930">
        <ele>413.6</ele>
        <time>2020-03-31T17:27:28Z</time>
      </trkpt>
      <trkpt lat="42.4519750" lon="-2.4894760">
        <ele>413.6</ele>
        <time>2020-03-31T17:27:30Z</time>
      </trkpt>
      <trkpt lat="42.4519190" lon="-2.4896260">
        <ele>413.6</ele>
        <time>2020-03-31T17:27:32Z</time>
      </trkpt>
      <trkpt lat="42.4518620" lon="-2.4897770">
        <ele>413.6</ele>
        <time>2020-03-31T17:27:34Z</time>
      </trkpt>
      <trkpt lat="42.4518040" lon="-2.4899280">
        <ele>413.7</ele>
        <time>2020-03-31T17:27:36Z</time>
      </trkpt>
      <trkpt lat="42.4516700" lon="-2.4903160">
        <ele>414.3</ele>
        <time>2020-03-31T17:27:38Z</time>
      </trkpt>
      <trkpt lat="42.4516330" lon="-2.4904770">
        <ele>414.5</ele>
        <time>2020-03-31T17:27:40Z</time>
      </trkpt>
      <trkpt lat="42.4515960" lon="-2.4906390">
        <ele>414.6</ele>
        <time>2020-03-31T17:27:42Z</time>
      </trkpt>
      <trkpt lat="42.4515590" lon="-2.4908000">
        <ele>414.6</ele>
        <time>2020-03-31T17:27:44Z</time>
      </trkpt>
      <trkpt lat="42.4514660" lon="-2.4911870">
        <ele>414.7</ele>
        <time>2020-03-31T17:27:46Z</time>
      </trkpt>
      <trkpt lat="42.4514220" lon="-2.4913450">
        <ele>414.7</ele>
        <time>2020-03-31T17:27:48Z</time>
      </trkpt>
      <trkpt lat="42.4513790" lon="-2.4915030">
        <ele>414.9</ele>
        <time>2020-03-31T17:27:50Z</time>
      </trkpt>
      <trkpt lat="42.4512810" lon="-2.4918580">
        <ele>415.5</ele>
        <time>2020-03-31T17:27:52Z</time>
      </trkpt>
      <trkpt lat="42.4512380" lon="-2.4920150">
        <ele>415.6</ele>
        <time>2020-03-31T17:27:54Z</time>
      </trkpt>
      <trkpt lat="42.4511940" lon="-2.4921740">
        <ele>415.7</ele>
        <time>2020-03-31T17:27:56Z</time>
      </trkpt>
      <trkpt lat="42.4511510" lon="-2.4923330">
        <ele>415.7</ele>
        <time>2020-03-31T17:27:58Z</time>
      </trkpt>
      <trkpt lat="42.4510570" lon="-2.4926880">
        <ele>415.9</ele>
        <time>2020-03-31T17:28:00Z</time>
      </trkpt>
      <trkpt lat="42.4510200" lon="-2.4928460">
        <ele>416.1</ele>
        <time>2020-03-31T17:28:02Z</time>
      </trkpt>
      <trkpt lat="42.4509830" lon="-2.4930040">
        <ele>416.4</ele>
        <time>2020-03-31T17:28:04Z</time>
      </trkpt>
      <trkpt lat="42.4508990" lon="-2.4933640">
        <ele>416.7</ele>
        <time>2020-03-31T17:28:06Z</time>
      </trkpt>
      <trkpt lat="42.4508510" lon="-2.4935140">
        <ele>416.8</ele>
        <time>2020-03-31T17:28:08Z</time>
      </trkpt>
      <trkpt lat="42.4508020" lon="-2.4936660">
        <ele>416.8</ele>
        <time>2020-03-31T17:28:10Z</time>
      </trkpt>
      <trkpt lat="42.4507540" lon="-2.4938170">
        <ele>416.9</ele>
        <time>2020-03-31T17:28:12Z</time>
      </trkpt>
      <trkpt lat="42.4506380" lon="-2.4941800">
        <ele>417.6</ele>
        <time>2020-03-31T17:28:14Z</time>
      </trkpt>
      <trkpt lat="42.4505900" lon="-2.4943310">
        <ele>417.7</ele>
        <time>2020-03-31T17:28:16Z</time>
      </trkpt>
      <trkpt lat="42.4505420" lon="-2.4944810">
        <ele>417.8</ele>
        <time>2020-03-31T17:28:18Z</time>
      </trkpt>
      <trkpt lat="42.4504950" lon="-2.4946300">
        <ele>417.9</ele>
        <time>2020-03-31T17:28:20Z</time>
      </trkpt>
      <trkpt lat="42.4503780" lon="-2.4949930">
        <ele>418.3</ele>
        <time>2020-03-31T17:28:22Z</time>
      </trkpt>
      <trkpt lat="42.4502540" lon="-2.4950210">
        <ele>418.5</ele>
        <time>2020-03-31T17:28:24Z</time>
      </trkpt>
      <trkpt lat="42.4501220" lon="-2.4949200">
        <ele>418.8</ele>
        <time>2020-03-31T17:28:26Z</time>
      </trkpt>
      <trkpt lat="42.4499960" lon="-2.4950140">
        <ele>419.0</ele>
        <time>2020-03-31T17:28:28Z</time>
      </trkpt>
      <trkpt lat="42.4499490" lon="-2.4952230">
        <ele>419.4</ele>
        <time>2020-03-31T17:28:30Z</time>
      </trkpt>
      <trkpt lat="42.4499440" lon="-2.4953760">
        <ele>419.6</ele>
        <time>2020-03-31T17:28:32Z</time>
      </trkpt>
      <trkpt lat="42.4499480" lon="-2.4956130">
        <ele>420.0</ele>
        <time>2020-03-31T17:28:34Z</time>
      </trkpt>
      <trkpt lat="42.4499600" lon="-2.4957640">
        <ele>420.2</ele>
        <time>2020-03-31T17:28:36Z</time>
      </trkpt>
      <trkpt lat="42.4499800" lon="-2.4960420">
        <ele>420.7</ele>
        <time>2020-03-31T17:28:38Z</time>
      </trkpt>
      <trkpt lat="42.4499800" lon="-2.4961910">
        <ele>421.0</ele>
        <time>2020-03-31T17:28:40Z</time>
      </trkpt>
      <trkpt lat="42.4499670" lon="-2.4964180">
        <ele>421.5</ele>
        <time>2020-03-31T17:28:42Z</time>
      </trkpt>
      <trkpt lat="42.4499460" lon="-2.4965600">
        <ele>421.8</ele>
        <time>2020-03-31T17:28:44Z</time>
      </trkpt>
      <trkpt lat="42.4499200" lon="-2.4968100">
        <ele>422.4</ele>
        <time>2020-03-31T17:28:46Z</time>
      </trkpt>
      <trkpt lat="42.4499200" lon="-2.4969520">
        <ele>422.7</ele>
        <time>2020-03-31T17:28:48Z</time>
      </trkpt>
      <trkpt lat="42.4499200" lon="-2.4970940">
        <ele>423.0</ele>
        <time>2020-03-31T17:28:50Z</time>
      </trkpt>
      <trkpt lat="42.4499090" lon="-2.4973910">
        <ele>423.7</ele>
        <time>2020-03-31T17:28:52Z</time>
      </trkpt>
      <trkpt lat="42.4498650" lon="-2.4975930">
        <ele>424.2</ele>
        <time>2020-03-31T17:28:54Z</time>
      </trkpt>
      <trkpt lat="42.4497910" lon="-2.4977470">
        <ele>424.7</ele>
        <time>2020-03-31T17:28:56Z</time>
      </trkpt>
      <trkpt lat="42.4496740" lon="-2.4978780">
        <ele>425.1</ele>
        <time>2020-03-31T17:28:58Z</time>
      </trkpt>
      <trkpt lat="42.4495740" lon="-2.4979560">
        <ele>425.4</ele>
        <time>2020-03-31T17:29:00Z</time>
      </trkpt>
      <trkpt lat="42.4494040" lon="-2.4980960">
        <ele>425.7</ele>
        <time>2020-03-31T17:29:02Z</time>
      </trkpt>
      <trkpt lat="42.4492720" lon="-2.4982120">
        <ele>425.4</ele>
        <time>2020-03-31T17:29:04Z</time>
      </trkpt>
      <trkpt lat="42.4491270" lon="-2.4982400">
        <ele>425.0</ele>
        <time>2020-03-31T17:29:06Z</time>
      </trkpt>
      <trkpt lat="42.4490000" lon="-2.4982400">
        <ele>424.8</ele>
        <time>2020-03-31T17:29:08Z</time>
      </trkpt>
      <trkpt lat="42.4487740" lon="-2.4983190">
        <ele>424.7</ele>
        <time>2020-03-31T17:29:10Z</time>
      </trkpt>
      <trkpt lat="42.4487600" lon="-2.4985120">
        <ele>424.7</ele>
        <time>2020-03-31T17:29:12Z</time>
      </trkpt>
      <trkpt lat="42.4487040" lon="-2.4987430">
        <ele>424.7</ele>
        <time>2020-03-31T17:29:14Z</time>
      </trkpt>
      <trkpt lat="42.4485790" lon="-2.4989910">
        <ele>424.8</ele>
        <time>2020-03-31T17:29:16Z</time>
      </trkpt>
      <trkpt lat="42.4484590" lon="-2.4990650">
        <ele>425.1</ele>
        <time>2020-03-31T17:29:18Z</time>
      </trkpt>
      <trkpt lat="42.4482980" lon="-2.4992460">
        <ele>425.9</ele>
        <time>2020-03-31T17:29:20Z</time>
      </trkpt>
      <trkpt lat="42.4482540" lon="-2.4993970">
        <ele>426.6</ele>
        <time>2020-03-31T17:29:22Z</time>
      </trkpt>
      <trkpt lat="42.4482120" lon="-2.4995420">
        <ele>427.3</ele>
        <time>2020-03-31T17:29:24Z</time>
      </trkpt>
      <trkpt lat="42.4480850" lon="-2.4997920">
        <ele>428.9</ele>
        <time>2020-03-31T17:29:26Z</time>
      </trkpt>
      <trkpt lat="42.4479590" lon="-2.4998890">
        <ele>430.2</ele>
        <time>2020-03-31T17:29:28Z</time>
      </trkpt>
      <trkpt lat="42.4478290" lon="-2.4999160">
        <ele>431.3</ele>
        <time>2020-03-31T17:29:30Z</time>
      </trkpt>
      <trkpt lat="42.4477000" lon="-2.4998700">
        <ele>432.2</ele>
        <time>2020-03-31T17:29:32Z</time>
      </trkpt>
      <trkpt lat="42.4476040" lon="-2.4999680">
        <ele>432.3</ele>
        <time>2020-03-31T17:29:34Z</time>
      </trkpt>
      <trkpt lat="42.4475490" lon="-2.5000710">
        <ele>432.5</ele>
        <time>2020-03-31T17:29:36Z</time>
      </trkpt>
      <trkpt lat="42.4474950" lon="-2.5001710">
        <ele>432.7</ele>
        <time>2020-03-31T17:29:38Z</time>
      </trkpt>
      <trkpt lat="42.4473700" lon="-2.5003480">
        <ele>433.3</ele>
        <time>2020-03-31T17:29:40Z</time>
      </trkpt>
      <trkpt lat="42.4472450" lon="-2.5004070">
        <ele>433.9</ele>
        <time>2020-03-31T17:29:42Z</time>
      </trkpt>
      <trkpt lat="42.4471840" lon="-2.5005030">
        <ele>433.7</ele>
        <time>2020-03-31T17:29:44Z</time>
      </trkpt>
      <trkpt lat="42.4471480" lon="-2.5006910">
        <ele>433.7</ele>
        <time>2020-03-31T17:29:46Z</time>
      </trkpt>
      <trkpt lat="42.4471930" lon="-2.5008190">
        <ele>434.0</ele>
        <time>2020-03-31T17:29:48Z</time>
      </trkpt>
      <trkpt lat="42.4472410" lon="-2.5009530">
        <ele>434.3</ele>
        <time>2020-03-31T17:29:50Z</time>
      </trkpt>
      <trkpt lat="42.4472890" lon="-2.5010910">
        <ele>434.5</ele>
        <time>2020-03-31T17:29:52Z</time>
      </trkpt>
      <trkpt lat="42.4473390" lon="-2.5012310">
        <ele>434.7</ele>
        <time>2020-03-31T17:29:54Z</time>
      </trkpt>
      <trkpt lat="42.4474780" lon="-2.5016240">
        <ele>435.3</ele>
        <time>2020-03-31T17:29:56Z</time>
      </trkpt>
      <trkpt lat="42.4475280" lon="-2.5017680">
        <ele>435.6</ele>
        <time>2020-03-31T17:29:58Z</time>
      </trkpt>
      <trkpt lat="42.4475790" lon="-2.5019120">
        <ele>435.8</ele>
        <time>2020-03-31T17:30:00Z</time>
      </trkpt>
      <trkpt lat="42.4476300" lon="-2.5020540">
        <ele>436.0</ele>
        <time>2020-03-31T17:30:02Z</time>
      </trkpt>
      <trkpt lat="42.4476800" lon="-2.5021980">
        <ele>436.2</ele>
        <time>2020-03-31T17:30:04Z</time>
      </trkpt>
      <trkpt lat="42.4478190" lon="-2.5025910">
        <ele>437.1</ele>
        <time>2020-03-31T17:30:06Z</time>
      </trkpt>
      <trkpt lat="42.4478700" lon="-2.5027350">
        <ele>437.4</ele>
        <time>2020-03-31T17:30:08Z</time>
      </trkpt>
      <trkpt lat="42.4479210" lon="-2.5028790">
        <ele>437.7</ele>
        <time>2020-03-31T17:30:10Z</time>
      </trkpt>
      <trkpt lat="42.4479710" lon="-2.5030220">
        <ele>438.0</ele>
        <time>2020-03-31T17:30:12Z</time>
      </trkpt>
      <trkpt lat="42.4480220" lon="-2.5031650">
        <ele>438.1</ele>
        <time>2020-03-31T17:30:14Z</time>
      </trkpt>
      <trkpt lat="42.4481050" lon="-2.5035450">
        <ele>438.5</ele>
        <time>2020-03-31T17:30:16Z</time>
      </trkpt>
      <trkpt lat="42.4479810" lon="-2.5036980">
        <ele>439.3</ele>
        <time>2020-03-31T17:30:18Z</time>
      </trkpt>
      <trkpt lat="42.4478460" lon="-2.5038080">
        <ele>440.4</ele>
        <time>2020-03-31T17:30:20Z</time>
      </trkpt>
      <trkpt lat="42.4477290" lon="-2.5037950">
        <ele>441.4</ele>
        <time>2020-03-31T17:30:22Z</time>
      </trkpt>
      <trkpt lat="42.4475460" lon="-2.5037940">
        <ele>441.8</ele>
        <time>2020-03-31T17:30:24Z</time>
      </trkpt>
      <trkpt lat="42.4473980" lon="-2.5039120">
        <ele>441.3</ele>
        <time>2020-03-31T17:30:26Z</time>
      </trkpt>
      <trkpt lat="42.4472800" lon="-2.5039740">
        <ele>440.9</ele>
        <time>2020-03-31T17:30:28Z</time>
      </trkpt>
      <trkpt lat="42.4472570" lon="-2.5041850">
        <ele>440.9</ele>
        <time>2020-03-31T17:30:30Z</time>
      </trkpt>
      <trkpt lat="42.4472190" lon="-2.5043590">
        <ele>441.0</ele>
        <time>2020-03-31T17:30:32Z</time>
      </trkpt>
      <trkpt lat="42.4471860" lon="-2.5046100">
        <ele>441.4</ele>
        <time>2020-03-31T17:30:34Z</time>
      </trkpt>
      <trkpt lat="42.4471300" lon="-2.5048720">
        <ele>441.9</ele>
        <time>2020-03-31T17:30:36Z</time>
      </trkpt>
      <trkpt lat="42.4469990" lon="-2.5050700">
        <ele>441.0</ele>
        <time>2020-03-31T17:30:38Z</time>
      </trkpt>
      <trkpt lat="42.4468260" lon="-2.5051980">
        <ele>438.9</ele>
        <time>2020-03-31T17:30:40Z</time>
      </trkpt>
      <trkpt lat="42.4467320" lon="-2.5054000">
        <ele>438.0</ele>
        <time>2020-03-31T17:30:42Z</time>
      </trkpt>
      <trkpt lat="42.4467050" lon="-2.5056490">
        <ele>438.0</ele>
        <time>2020-03-31T17:30:44Z</time>
      </trkpt>
      <trkpt lat="42.4467050" lon="-2.5059330">
        <ele>437.7</ele>
        <time>2020-03-31T17:30:46Z</time>
      </trkpt>
      <trkpt lat="42.4467130" lon="-2.5061610">
        <ele>437.5</ele>
        <time>2020-03-31T17:30:48Z</time>
      </trkpt>
      <trkpt lat="42.4467160" lon="-2.5063530">
        <ele>437.3</ele>
        <time>2020-03-31T17:30:50Z</time>
      </trkpt>
      <trkpt lat="42.4467540" lon="-2.5066930">
        <ele>437.8</ele>
        <time>2020-03-31T17:30:52Z</time>
      </trkpt>
      <trkpt lat="42.4468060" lon="-2.5068630">
        <ele>438.2</ele>
        <time>2020-03-31T17:30:54Z</time>
      </trkpt>
      <trkpt lat="42.4468550" lon="-2.5070260">
        <ele>438.4</ele>
        <time>2020-03-31T17:30:56Z</time>
      </trkpt>
      <trkpt lat="42.4469520" lon="-2.5073450">
        <ele>438.7</ele>
        <time>2020-03-31T17:30:58Z</time>
      </trkpt>
      <trkpt lat="42.4469990" lon="-2.5075020">
        <ele>439.0</ele>
        <time>2020-03-31T17:31:00Z</time>
      </trkpt>
      <trkpt lat="42.4470930" lon="-2.5078160">
        <ele>439.8</ele>
        <time>2020-03-31T17:31:02Z</time>
      </trkpt>
      <trkpt lat="42.4471200" lon="-2.5080160">
        <ele>440.1</ele>
        <time>2020-03-31T17:31:04Z</time>
      </trkpt>
      <trkpt lat="42.4470920" lon="-2.5082180">
        <ele>440.2</ele>
        <time>2020-03-31T17:31:06Z</time>
      </trkpt>
      <trkpt lat="42.4470590" lon="-2.5083880">
        <ele>440.2</ele>
        <time>2020-03-31T17:31:08Z</time>
      </trkpt>
      <trkpt lat="42.4469630" lon="-2.5087030">
        <ele>440.1</ele>
        <time>2020-03-31T17:31:10Z</time>
      </trkpt>
      <trkpt lat="42.4468880" lon="-2.5088540">
        <ele>439.9</ele>
        <time>2020-03-31T17:31:12Z</time>
      </trkpt>
      <trkpt lat="42.4468120" lon="-2.5090060">
        <ele>439.7</ele>
        <time>2020-03-31T17:31:14Z</time>
      </trkpt>
      <trkpt lat="42.4466630" lon="-2.5092610">
        <ele>439.7</ele>
        <time>2020-03-31T17:31:16Z</time>
      </trkpt>
      <trkpt lat="42.4465380" lon="-2.5094760">
        <ele>440.5</ele>
        <time>2020-03-31T17:31:18Z</time>
      </trkpt>
      <trkpt lat="42.4464780" lon="-2.5097040">
        <ele>441.2</ele>
        <time>2020-03-31T17:31:20Z</time>
      </trkpt>
      <trkpt lat="42.4464180" lon="-2.5098450">
        <ele>441.7</ele>
        <time>2020-03-31T17:31:22Z</time>
      </trkpt>
      <trkpt lat="42.4463240" lon="-2.5100520">
        <ele>442.6</ele>
        <time>2020-03-31T17:31:24Z</time>
      </trkpt>
      <trkpt lat="42.4462590" lon="-2.5101810">
        <ele>442.8</ele>
        <time>2020-03-31T17:31:26Z</time>
      </trkpt>
      <trkpt lat="42.4461470" lon="-2.5104170">
        <ele>443.0</ele>
        <time>2020-03-31T17:31:28Z</time>
      </trkpt>
      <trkpt lat="42.4460990" lon="-2.5105630">
        <ele>443.0</ele>
        <time>2020-03-31T17:31:30Z</time>
      </trkpt>
      <trkpt lat="42.4460480" lon="-2.5107150">
        <ele>443.0</ele>
        <time>2020-03-31T17:31:32Z</time>
      </trkpt>
      <trkpt lat="42.4459150" lon="-2.5109590">
        <ele>442.8</ele>
        <time>2020-03-31T17:31:34Z</time>
      </trkpt>
      <trkpt lat="42.4457590" lon="-2.5111490">
        <ele>442.6</ele>
        <time>2020-03-31T17:31:36Z</time>
      </trkpt>
      <trkpt lat="42.4456500" lon="-2.5113440">
        <ele>442.4</ele>
        <time>2020-03-31T17:31:38Z</time>
      </trkpt>
      <trkpt lat="42.4455830" lon="-2.5115040">
        <ele>442.2</ele>
        <time>2020-03-31T17:31:40Z</time>
      </trkpt>
      <trkpt lat="42.4455160" lon="-2.5116670">
        <ele>442.1</ele>
        <time>2020-03-31T17:31:42Z</time>
      </trkpt>
      <trkpt lat="42.4454480" lon="-2.5118310">
        <ele>442.0</ele>
        <time>2020-03-31T17:31:44Z</time>
      </trkpt>
      <trkpt lat="42.4452860" lon="-2.5122060">
        <ele>442.1</ele>
        <time>2020-03-31T17:31:46Z</time>
      </trkpt>
      <trkpt lat="42.4452080" lon="-2.5123610">
        <ele>442.2</ele>
        <time>2020-03-31T17:31:48Z</time>
      </trkpt>
      <trkpt lat="42.4451300" lon="-2.5125130">
        <ele>442.4</ele>
        <time>2020-03-31T17:31:50Z</time>
      </trkpt>
      <trkpt lat="42.4449820" lon="-2.5128240">
        <ele>442.6</ele>
        <time>2020-03-31T17:31:52Z</time>
      </trkpt>
      <trkpt lat="42.4449290" lon="-2.5130370">
        <ele>442.8</ele>
        <time>2020-03-31T17:31:54Z</time>
      </trkpt>
      <trkpt lat="42.4448300" lon="-2.5132370">
        <ele>442.8</ele>
        <time>2020-03-31T17:31:56Z</time>
      </trkpt>
      <trkpt lat="42.4446790" lon="-2.5133580">
        <ele>442.7</ele>
        <time>2020-03-31T17:31:58Z</time>
      </trkpt>
      <trkpt lat="42.4444780" lon="-2.5133840">
        <ele>442.6</ele>
        <time>2020-03-31T17:32:00Z</time>
      </trkpt>
      <trkpt lat="42.4443870" lon="-2.5131740">
        <ele>442.3</ele>
        <time>2020-03-31T17:32:02Z</time>
      </trkpt>
      <trkpt lat="42.4443440" lon="-2.5129940">
        <ele>442.1</ele>
        <time>2020-03-31T17:32:04Z</time>
      </trkpt>
      <trkpt lat="42.4442690" lon="-2.5127050">
        <ele>441.8</ele>
        <time>2020-03-31T17:32:06Z</time>
      </trkpt>
      <trkpt lat="42.4442160" lon="-2.5125270">
        <ele>441.8</ele>
        <time>2020-03-31T17:32:08Z</time>
      </trkpt>
      <trkpt lat="42.4441120" lon="-2.5121940">
        <ele>441.9</ele>
        <time>2020-03-31T17:32:10Z</time>
      </trkpt>
      <trkpt lat="42.4439490" lon="-2.5121200">
        <ele>442.1</ele>
        <time>2020-03-31T17:32:12Z</time>
      </trkpt>
      <trkpt lat="42.4438360" lon="-2.5122500">
        <ele>442.2</ele>
        <time>2020-03-31T17:32:14Z</time>
      </trkpt>
      <trkpt lat="42.4437490" lon="-2.5123870">
        <ele>442.3</ele>
        <time>2020-03-31T17:32:16Z</time>
      </trkpt>
      <trkpt lat="42.4435970" lon="-2.5126380">
        <ele>442.5</ele>
        <time>2020-03-31T17:32:18Z</time>
      </trkpt>
      <trkpt lat="42.4435200" lon="-2.5127800">
        <ele>442.6</ele>
        <time>2020-03-31T17:32:20Z</time>
      </trkpt>
      <trkpt lat="42.4434440" lon="-2.5129200">
        <ele>442.9</ele>
        <time>2020-03-31T17:32:22Z</time>
      </trkpt>
      <trkpt lat="42.4432660" lon="-2.5131970">
        <ele>443.5</ele>
        <time>2020-03-31T17:32:24Z</time>
      </trkpt>
      <trkpt lat="42.4431190" lon="-2.5132420">
        <ele>444.0</ele>
        <time>2020-03-31T17:32:26Z</time>
      </trkpt>
      <trkpt lat="42.4429920" lon="-2.5132640">
        <ele>444.4</ele>
        <time>2020-03-31T17:32:28Z</time>
      </trkpt>
      <trkpt lat="42.4427380" lon="-2.5132860">
        <ele>444.7</ele>
        <time>2020-03-31T17:32:30Z</time>
      </trkpt>
      <trkpt lat="42.4426090" lon="-2.5132660">
        <ele>444.7</ele>
        <time>2020-03-31T17:32:32Z</time>
      </trkpt>
      <trkpt lat="42.4424810" lon="-2.5132460">
        <ele>444.6</ele>
        <time>2020-03-31T17:32:34Z</time>
      </trkpt>
      <trkpt lat="42.4422370" lon="-2.5132200">
        <ele>444.5</ele>
        <time>2020-03-31T17:32:36Z</time>
      </trkpt>
      <trkpt lat="42.4420660" lon="-2.5132490">
        <ele>444.5</ele>
        <time>2020-03-31T17:32:38Z</time>
      </trkpt>
      <trkpt lat="42.4418990" lon="-2.5133260">
        <ele>444.6</ele>
        <time>2020-03-31T17:32:40Z</time>
      </trkpt>
      <trkpt lat="42.4417040" lon="-2.5134130">
        <ele>444.5</ele>
        <time>2020-03-31T17:32:42Z</time>
      </trkpt>
      <trkpt lat="42.4415250" lon="-2.5133970">
        <ele>444.4</ele>
        <time>2020-03-31T17:32:44Z</time>
      </trkpt>
      <trkpt lat="42.4413530" lon="-2.5134150">
        <ele>444.1</ele>
        <time>2020-03-31T17:32:46Z</time>
      </trkpt>
      <trkpt lat="42.4413100" lon="-2.5136850">
        <ele>443.6</ele>
        <time>2020-03-31T17:32:48Z</time>
      </trkpt>
      <trkpt lat="42.4413540" lon="-2.5138820">
        <ele>443.5</ele>
        <time>2020-03-31T17:32:50Z</time>
      </trkpt>
      <trkpt lat="42.4414280" lon="-2.5141190">
        <ele>443.8</ele>
        <time>2020-03-31T17:32:52Z</time>
      </trkpt>
      <trkpt lat="42.4414710" lon="-2.5142890">
        <ele>444.4</ele>
        <time>2020-03-31T17:32:54Z</time>
      </trkpt>
      <trkpt lat="42.4415130" lon="-2.5144560">
        <ele>445.3</ele>
        <time>2020-03-31T17:32:56Z</time>
      </trkpt>
      <trkpt lat="42.4415020" lon="-2.5147680">
        <ele>446.6</ele>
        <time>2020-03-31T17:32:58Z</time>
      </trkpt>
      <trkpt lat="42.4413760" lon="-2.5147900">
        <ele>446.4</ele>
        <time>2020-03-31T17:33:00Z</time>
      </trkpt>
      <trkpt lat="42.4411470" lon="-2.5148300">
        <ele>446.1</ele>
        <time>2020-03-31T17:33:02Z</time>
      </trkpt>
      <trkpt lat="42.4410220" lon="-2.5148320">
        <ele>445.9</ele>
        <time>2020-03-31T17:33:04Z</time>
      </trkpt>
      <trkpt lat="42.4408910" lon="-2.5148350">
        <ele>445.7</ele>
        <time>2020-03-31T17:33:06Z</time>
      </trkpt>
      <trkpt lat="42.4407580" lon="-2.5148370">
        <ele>445.6</ele>
        <time>2020-03-31T17:33:08Z</time>
      </trkpt>
      <trkpt lat="42.4404800" lon="-2.5148620">
        <ele>445.3</ele>
        <time>2020-03-31T17:33:10Z</time>
      </trkpt>
      <trkpt lat="42.4403430" lon="-2.5148860">
        <ele>445.2</ele>
        <time>2020-03-31T17:33:12Z</time>
      </trkpt>
      <trkpt lat="42.4401020" lon="-2.5149140">
        <ele>445.1</ele>
        <time>2020-03-31T17:33:14Z</time>
      </trkpt>
      <trkpt lat="42.4399000" lon="-2.5149390">
        <ele>444.8</ele>
        <time>2020-03-31T17:33:16Z</time>
      </trkpt>
      <trkpt lat="42.4397180" lon="-2.5150040">
        <ele>444.6</ele>
        <time>2020-03-31T17:33:18Z</time>
      </trkpt>
      <trkpt lat="42.4395330" lon="-2.5151070">
        <ele>444.4</ele>
        <time>2020-03-31T17:33:20Z</time>
      </trkpt>
      <trkpt lat="42.4394100" lon="-2.5152060">
        <ele>444.4</ele>
        <time>2020-03-31T17:33:22Z</time>
      </trkpt>
      <trkpt lat="42.4391730" lon="-2.5153210">
        <ele>444.4</ele>
        <time>2020-03-31T17:33:24Z</time>
      </trkpt>
      <trkpt lat="42.4390100" lon="-2.5153250">
        <ele>444.7</ele>
        <time>2020-03-31T17:33:26Z</time>
      </trkpt>
      <trkpt lat="42.4388540" lon="-2.5152630">
        <ele>445.2</ele>
        <time>2020-03-31T17:33:28Z</time>
      </trkpt>
      <trkpt lat="42.4386930" lon="-2.5151000">
        <ele>446.2</ele>
        <time>2020-03-31T17:33:30Z</time>
      </trkpt>
      <trkpt lat="42.4386080" lon="-2.5149830">
        <ele>446.7</ele>
        <time>2020-03-31T17:33:32Z</time>
      </trkpt>
      <trkpt lat="42.4384660" lon="-2.5147940">
        <ele>447.5</ele>
        <time>2020-03-31T17:33:34Z</time>
      </trkpt>
      <trkpt lat="42.4383500" lon="-2.5146830">
        <ele>448.1</ele>
        <time>2020-03-31T17:33:36Z</time>
      </trkpt>
      <trkpt lat="42.4382620" lon="-2.5146250">
        <ele>448.5</ele>
        <time>2020-03-31T17:33:38Z</time>
      </trkpt>
      <trkpt lat="42.4381840" lon="-2.5145720">
        <ele>449.0</ele>
        <time>2020-03-31T17:33:40Z</time>
      </trkpt>
      <trkpt lat="42.4381100" lon="-2.5145230">
        <ele>449.4</ele>
        <time>2020-03-31T17:33:42Z</time>
      </trkpt>
      <trkpt lat="42.4380410" lon="-2.5144770">
        <ele>449.9</ele>
        <time>2020-03-31T17:33:44Z</time>
      </trkpt>
      <trkpt lat="42.4378430" lon="-2.5143840">
        <ele>451.4</ele>
        <time>2020-03-31T17:33:46Z</time>
      </trkpt>
      <trkpt lat="42.4377390" lon="-2.5144410">
        <ele>452.2</ele>
        <time>2020-03-31T17:33:48Z</time>
      </trkpt>
      <trkpt lat="42.4377010" lon="-2.5145210">
        <ele>452.6</ele>
        <time>2020-03-31T17:33:50Z</time>
      </trkpt>
      <trkpt lat="42.4376640" lon="-2.5146000">
        <ele>453.0</ele>
        <time>2020-03-31T17:33:52Z</time>
      </trkpt>
      <trkpt lat="42.4376260" lon="-2.5146790">
        <ele>453.4</ele>
        <time>2020-03-31T17:33:54Z</time>
      </trkpt>
      <trkpt lat="42.4375870" lon="-2.5147610">
        <ele>453.8</ele>
        <time>2020-03-31T17:33:56Z</time>
      </trkpt>
      <trkpt lat="42.4375470" lon="-2.5148440">
        <ele>454.3</ele>
        <time>2020-03-31T17:33:58Z</time>
      </trkpt>
      <trkpt lat="42.4375060" lon="-2.5149290">
        <ele>454.9</ele>
        <time>2020-03-31T17:34:00Z</time>
      </trkpt>
      <trkpt lat="42.4374650" lon="-2.5150150">
        <ele>456.2</ele>
        <time>2020-03-31T17:34:02Z</time>
      </trkpt>
      <trkpt lat="42.4373130" lon="-2.5153310">
        <ele>460.2</ele>
        <time>2020-03-31T17:34:04Z</time>
      </trkpt>
      <trkpt lat="42.4372630" lon="-2.5154030">
        <ele>461.1</ele>
        <time>2020-03-31T17:34:06Z</time>
      </trkpt>
      <trkpt lat="42.4371810" lon="-2.5155170">
        <ele>462.6</ele>
        <time>2020-03-31T17:34:08Z</time>
      </trkpt>
      <trkpt lat="42.4371260" lon="-2.5155630">
        <ele>463.4</ele>
        <time>2020-03-31T17:34:10Z</time>
      </trkpt>
      <trkpt lat="42.4370720" lon="-2.5156080">
        <ele>464.3</ele>
        <time>2020-03-31T17:34:12Z</time>
      </trkpt>
      <trkpt lat="42.4370200" lon="-2.5156510">
        <ele>465.2</ele>
        <time>2020-03-31T17:34:14Z</time>
      </trkpt>
      <trkpt lat="42.4369680" lon="-2.5156940">
        <ele>466.0</ele>
        <time>2020-03-31T17:34:16Z</time>
      </trkpt>
      <trkpt lat="42.4369170" lon="-2.5157360">
        <ele>466.8</ele>
        <time>2020-03-31T17:34:18Z</time>
      </trkpt>
      <trkpt lat="42.4367640" lon="-2.5158760">
        <ele>469.1</ele>
        <time>2020-03-31T17:34:20Z</time>
      </trkpt>
      <trkpt lat="42.4367260" lon="-2.5159400">
        <ele>469.8</ele>
        <time>2020-03-31T17:34:22Z</time>
      </trkpt>
      <trkpt lat="42.4366870" lon="-2.5160040">
        <ele>470.5</ele>
        <time>2020-03-31T17:34:24Z</time>
      </trkpt>
      <trkpt lat="42.4366480" lon="-2.5160670">
        <ele>471.2</ele>
        <time>2020-03-31T17:34:26Z</time>
      </trkpt>
      <trkpt lat="42.4365610" lon="-2.5162230">
        <ele>473.2</ele>
        <time>2020-03-31T17:34:28Z</time>
      </trkpt>
      <trkpt lat="42.4365470" lon="-2.5163570">
        <ele>474.4</ele>
        <time>2020-03-31T17:34:30Z</time>
      </trkpt>
      <trkpt lat="42.4366060" lon="-2.5164550">
        <ele>475.7</ele>
        <time>2020-03-31T17:34:32Z</time>
      </trkpt>
      <trkpt lat="42.4366660" lon="-2.5165290">
        <ele>476.6</ele>
        <time>2020-03-31T17:34:34Z</time>
      </trkpt>
      <trkpt lat="42.4367650" lon="-2.5166670">
        <ele>478.0</ele>
        <time>2020-03-31T17:34:36Z</time>
      </trkpt>
      <trkpt lat="42.4368370" lon="-2.5167870">
        <ele>478.7</ele>
        <time>2020-03-31T17:34:38Z</time>
      </trkpt>
      <trkpt lat="42.4368970" lon="-2.5168670">
        <ele>479.3</ele>
        <time>2020-03-31T17:34:40Z</time>
      </trkpt>
      <trkpt lat="42.4369560" lon="-2.5169480">
        <ele>479.8</ele>
        <time>2020-03-31T17:34:42Z</time>
      </trkpt>
      <trkpt lat="42.4370150" lon="-2.5170280">
        <ele>480.2</ele>
        <time>2020-03-31T17:34:44Z</time>
      </trkpt>
      <trkpt lat="42.4370750" lon="-2.5171090">
        <ele>480.6</ele>
        <time>2020-03-31T17:34:46Z</time>
      </trkpt>
      <trkpt lat="42.4371340" lon="-2.5171900">
        <ele>480.9</ele>
        <time>2020-03-31T17:34:48Z</time>
      </trkpt>
      <trkpt lat="42.4373110" lon="-2.5174380">
        <ele>481.8</ele>
        <time>2020-03-31T17:34:50Z</time>
      </trkpt>
      <trkpt lat="42.4373750" lon="-2.5175370">
        <ele>482.0</ele>
        <time>2020-03-31T17:34:52Z</time>
      </trkpt>
      <trkpt lat="42.4374420" lon="-2.5176410">
        <ele>482.2</ele>
        <time>2020-03-31T17:34:54Z</time>
      </trkpt>
      <trkpt lat="42.4375130" lon="-2.5177500">
        <ele>482.4</ele>
        <time>2020-03-31T17:34:56Z</time>
      </trkpt>
      <trkpt lat="42.4376550" lon="-2.5180230">
        <ele>483.0</ele>
        <time>2020-03-31T17:34:58Z</time>
      </trkpt>
      <trkpt lat="42.4377060" lon="-2.5181590">
        <ele>483.3</ele>
        <time>2020-03-31T17:35:00Z</time>
      </trkpt>
      <trkpt lat="42.4377570" lon="-2.5182980">
        <ele>483.6</ele>
        <time>2020-03-31T17:35:02Z</time>
      </trkpt>
      <trkpt lat="42.4378530" lon="-2.5185790">
        <ele>484.7</ele>
        <time>2020-03-31T17:35:04Z</time>
      </trkpt>
      <trkpt lat="42.4378930" lon="-2.5187080">
        <ele>485.4</ele>
        <time>2020-03-31T17:35:06Z</time>
      </trkpt>
      <trkpt lat="42.4379320" lon="-2.5188300">
        <ele>486.1</ele>
        <time>2020-03-31T17:35:08Z</time>
      </trkpt>
      <trkpt lat="42.4380250" lon="-2.5191020">
        <ele>487.6</ele>
        <time>2020-03-31T17:35:10Z</time>
      </trkpt>
      <trkpt lat="42.4380740" lon="-2.5192050">
        <ele>488.2</ele>
        <time>2020-03-31T17:35:12Z</time>
      </trkpt>
      <trkpt lat="42.4381220" lon="-2.5193070">
        <ele>488.9</ele>
        <time>2020-03-31T17:35:14Z</time>
      </trkpt>
      <trkpt lat="42.4381700" lon="-2.5194070">
        <ele>489.5</ele>
        <time>2020-03-31T17:35:16Z</time>
      </trkpt>
      <trkpt lat="42.4382930" lon="-2.5196640">
        <ele>491.2</ele>
        <time>2020-03-31T17:35:18Z</time>
      </trkpt>
      <trkpt lat="42.4383560" lon="-2.5197460">
        <ele>492.1</ele>
        <time>2020-03-31T17:35:20Z</time>
      </trkpt>
      <trkpt lat="42.4384200" lon="-2.5198310">
        <ele>492.9</ele>
        <time>2020-03-31T17:35:22Z</time>
      </trkpt>
      <trkpt lat="42.4385270" lon="-2.5199900">
        <ele>494.3</ele>
        <time>2020-03-31T17:35:24Z</time>
      </trkpt>
      <trkpt lat="42.4386020" lon="-2.5201380">
        <ele>495.3</ele>
        <time>2020-03-31T17:35:26Z</time>
      </trkpt>
      <trkpt lat="42.4386430" lon="-2.5202490">
        <ele>495.9</ele>
        <time>2020-03-31T17:35:28Z</time>
      </trkpt>
      <trkpt lat="42.4386850" lon="-2.5203600">
        <ele>496.5</ele>
        <time>2020-03-31T17:35:30Z</time>
      </trkpt>
      <trkpt lat="42.4387270" lon="-2.5204720">
        <ele>497.1</ele>
        <time>2020-03-31T17:35:32Z</time>
      </trkpt>
      <trkpt lat="42.4387690" lon="-2.5205830">
        <ele>497.6</ele>
        <time>2020-03-31T17:35:34Z</time>
      </trkpt>
      <trkpt lat="42.4388920" lon="-2.5209030">
        <ele>499.0</ele>
        <time>2020-03-31T17:35:36Z</time>
      </trkpt>
      <trkpt lat="42.4389440" lon="-2.5210080">
        <ele>499.7</ele>
        <time>2020-03-31T17:35:38Z</time>
      </trkpt>
      <trkpt lat="42.4390310" lon="-2.5211430">
        <ele>500.6</ele>
        <time>2020-03-31T17:35:40Z</time>
      </trkpt>
      <trkpt lat="42.4390940" lon="-2.5212280">
        <ele>501.4</ele>
        <time>2020-03-31T17:35:42Z</time>
      </trkpt>
      <trkpt lat="42.4391710" lon="-2.5213960">
        <ele>502.8</ele>
        <time>2020-03-31T17:35:44Z</time>
      </trkpt>
      <trkpt lat="42.4392030" lon="-2.5215020">
        <ele>503.7</ele>
        <time>2020-03-31T17:35:46Z</time>
      </trkpt>
      <trkpt lat="42.4392340" lon="-2.5216070">
        <ele>504.6</ele>
        <time>2020-03-31T17:35:48Z</time>
      </trkpt>
      <trkpt lat="42.4393060" lon="-2.5218530">
        <ele>506.3</ele>
        <time>2020-03-31T17:35:50Z</time>
      </trkpt>
      <trkpt lat="42.4393330" lon="-2.5219590">
        <ele>506.9</ele>
        <time>2020-03-31T17:35:52Z</time>
      </trkpt>
      <trkpt lat="42.4393600" lon="-2.5220650">
        <ele>507.6</ele>
        <time>2020-03-31T17:35:54Z</time>
      </trkpt>
      <trkpt lat="42.4393870" lon="-2.5221690">
        <ele>508.2</ele>
        <time>2020-03-31T17:35:56Z</time>
      </trkpt>
      <trkpt lat="42.4394550" lon="-2.5223910">
        <ele>509.5</ele>
        <time>2020-03-31T17:35:58Z</time>
      </trkpt>
      <trkpt lat="42.4394920" lon="-2.5224900">
        <ele>510.0</ele>
        <time>2020-03-31T17:36:00Z</time>
      </trkpt>
      <trkpt lat="42.4395300" lon="-2.5225870">
        <ele>510.6</ele>
        <time>2020-03-31T17:36:02Z</time>
      </trkpt>
      <trkpt lat="42.4395670" lon="-2.5226850">
        <ele>511.0</ele>
        <time>2020-03-31T17:36:04Z</time>
      </trkpt>
      <trkpt lat="42.4396720" lon="-2.5229130">
        <ele>512.2</ele>
        <time>2020-03-31T17:36:06Z</time>
      </trkpt>
      <trkpt lat="42.4397270" lon="-2.5229930">
        <ele>512.9</ele>
        <time>2020-03-31T17:36:08Z</time>
      </trkpt>
      <trkpt lat="42.4397820" lon="-2.5230740">
        <ele>513.4</ele>
        <time>2020-03-31T17:36:10Z</time>
      </trkpt>
      <trkpt lat="42.4398890" lon="-2.5232580">
        <ele>514.6</ele>
        <time>2020-03-31T17:36:12Z</time>
      </trkpt>
      <trkpt lat="42.4399360" lon="-2.5233680">
        <ele>515.1</ele>
        <time>2020-03-31T17:36:14Z</time>
      </trkpt>
      <trkpt lat="42.4400300" lon="-2.5235910">
        <ele>515.9</ele>
        <time>2020-03-31T17:36:16Z</time>
      </trkpt>
      <trkpt lat="42.4400550" lon="-2.5237320">
        <ele>516.2</ele>
        <time>2020-03-31T17:36:18Z</time>
      </trkpt>
      <trkpt lat="42.4400830" lon="-2.5239650">
        <ele>516.9</ele>
        <time>2020-03-31T17:36:20Z</time>
      </trkpt>
      <trkpt lat="42.4400520" lon="-2.5241130">
        <ele>517.2</ele>
        <time>2020-03-31T17:36:22Z</time>
      </trkpt>
      <trkpt lat="42.4400200" lon="-2.5242620">
        <ele>517.4</ele>
        <time>2020-03-31T17:36:24Z</time>
      </trkpt>
      <trkpt lat="42.4399560" lon="-2.5245770">
        <ele>517.9</ele>
        <time>2020-03-31T17:36:26Z</time>
      </trkpt>
      <trkpt lat="42.4399340" lon="-2.5247390">
        <ele>518.2</ele>
        <time>2020-03-31T17:36:28Z</time>
      </trkpt>
      <trkpt lat="42.4398970" lon="-2.5250190">
        <ele>519.0</ele>
        <time>2020-03-31T17:36:30Z</time>
      </trkpt>
      <trkpt lat="42.4398850" lon="-2.5251940">
        <ele>519.0</ele>
        <time>2020-03-31T17:36:32Z</time>
      </trkpt>
      <trkpt lat="42.4398730" lon="-2.5253700">
        <ele>518.9</ele>
        <time>2020-03-31T17:36:34Z</time>
      </trkpt>
      <trkpt lat="42.4398620" lon="-2.5255450">
        <ele>518.8</ele>
        <time>2020-03-31T17:36:36Z</time>
      </trkpt>
      <trkpt lat="42.4398340" lon="-2.5259530">
        <ele>518.4</ele>
        <time>2020-03-31T17:36:38Z</time>
      </trkpt>
      <trkpt lat="42.4398220" lon="-2.5261360">
        <ele>518.2</ele>
        <time>2020-03-31T17:36:40Z</time>
      </trkpt>
      <trkpt lat="42.4398090" lon="-2.5263250">
        <ele>518.0</ele>
        <time>2020-03-31T17:36:42Z</time>
      </trkpt>
      <trkpt lat="42.4397960" lon="-2.5265170">
        <ele>517.7</ele>
        <time>2020-03-31T17:36:44Z</time>
      </trkpt>
      <trkpt lat="42.4397760" lon="-2.5269480">
        <ele>516.5</ele>
        <time>2020-03-31T17:36:46Z</time>
      </trkpt>
      <trkpt lat="42.4397630" lon="-2.5272670">
        <ele>515.6</ele>
        <time>2020-03-31T17:36:48Z</time>
      </trkpt>
      <trkpt lat="42.4397430" lon="-2.5274690">
        <ele>515.2</ele>
        <time>2020-03-31T17:36:50Z</time>
      </trkpt>
      <trkpt lat="42.4397060" lon="-2.5278280">
        <ele>514.5</ele>
        <time>2020-03-31T17:36:52Z</time>
      </trkpt>
      <trkpt lat="42.4396750" lon="-2.5280320">
        <ele>514.1</ele>
        <time>2020-03-31T17:36:54Z</time>
      </trkpt>
      <trkpt lat="42.4396450" lon="-2.5282350">
        <ele>513.7</ele>
        <time>2020-03-31T17:36:56Z</time>
      </trkpt>
      <trkpt lat="42.4396140" lon="-2.5284410">
        <ele>513.4</ele>
        <time>2020-03-31T17:36:58Z</time>
      </trkpt>
      <trkpt lat="42.4395620" lon="-2.5288990">
        <ele>512.9</ele>
        <time>2020-03-31T17:37:00Z</time>
      </trkpt>
      <trkpt lat="42.4395340" lon="-2.5292210">
        <ele>511.5</ele>
        <time>2020-03-31T17:37:02Z</time>
      </trkpt>
      <trkpt lat="42.4394860" lon="-2.5294370">
        <ele>510.4</ele>
        <time>2020-03-31T17:37:04Z</time>
      </trkpt>
      <trkpt lat="42.4394370" lon="-2.5296560">
        <ele>509.4</ele>
        <time>2020-03-31T17:37:06Z</time>
      </trkpt>
      <trkpt lat="42.4393510" lon="-2.5300800">
        <ele>508.0</ele>
        <time>2020-03-31T17:37:08Z</time>
      </trkpt>
      <trkpt lat="42.4393110" lon="-2.5303100">
        <ele>507.1</ele>
        <time>2020-03-31T17:37:10Z</time>
      </trkpt>
      <trkpt lat="42.4392720" lon="-2.5305420">
        <ele>506.3</ele>
        <time>2020-03-31T17:37:12Z</time>
      </trkpt>
      <trkpt lat="42.4391780" lon="-2.5310300">
        <ele>504.6</ele>
        <time>2020-03-31T17:37:14Z</time>
      </trkpt>
      <trkpt lat="42.4391250" lon="-2.5312460">
        <ele>503.9</ele>
        <time>2020-03-31T17:37:16Z</time>
      </trkpt>
      <trkpt lat="42.4390290" lon="-2.5315800">
        <ele>503.1</ele>
        <time>2020-03-31T17:37:18Z</time>
      </trkpt>
      <trkpt lat="42.4389640" lon="-2.5317820">
        <ele>502.9</ele>
        <time>2020-03-31T17:37:20Z</time>
      </trkpt>
      <trkpt lat="42.4388760" lon="-2.5321480">
        <ele>502.8</ele>
        <time>2020-03-31T17:37:22Z</time>
      </trkpt>
      <trkpt lat="42.4388480" lon="-2.5324350">
        <ele>502.6</ele>
        <time>2020-03-31T17:37:24Z</time>
      </trkpt>
      <trkpt lat="42.4388340" lon="-2.5326420">
        <ele>502.4</ele>
        <time>2020-03-31T17:37:26Z</time>
      </trkpt>
      <trkpt lat="42.4388200" lon="-2.5328450">
        <ele>502.1</ele>
        <time>2020-03-31T17:37:28Z</time>
      </trkpt>
      <trkpt lat="42.4388060" lon="-2.5330440">
        <ele>501.9</ele>
        <time>2020-03-31T17:37:30Z</time>
      </trkpt>
      <trkpt lat="42.4387600" lon="-2.5335480">
        <ele>501.4</ele>
        <time>2020-03-31T17:37:32Z</time>
      </trkpt>
      <trkpt lat="42.4387260" lon="-2.5337430">
        <ele>501.1</ele>
        <time>2020-03-31T17:37:34Z</time>
      </trkpt>
      <trkpt lat="42.4386930" lon="-2.5339380">
        <ele>501.0</ele>
        <time>2020-03-31T17:37:36Z</time>
      </trkpt>
      <trkpt lat="42.4386190" lon="-2.5343760">
        <ele>500.8</ele>
        <time>2020-03-31T17:37:38Z</time>
      </trkpt>
      <trkpt lat="42.4386070" lon="-2.5345760">
        <ele>500.6</ele>
        <time>2020-03-31T17:37:40Z</time>
      </trkpt>
      <trkpt lat="42.4385730" lon="-2.5348620">
        <ele>500.1</ele>
        <time>2020-03-31T17:37:42Z</time>
      </trkpt>
      <trkpt lat="42.4385420" lon="-2.5350610">
        <ele>499.9</ele>
        <time>2020-03-31T17:37:44Z</time>
      </trkpt>
      <trkpt lat="42.4385110" lon="-2.5352640">
        <ele>499.6</ele>
        <time>2020-03-31T17:37:46Z</time>
      </trkpt>
      <trkpt lat="42.4384230" lon="-2.5356950">
        <ele>498.5</ele>
        <time>2020-03-31T17:37:48Z</time>
      </trkpt>
      <trkpt lat="42.4383550" lon="-2.5358850">
        <ele>497.8</ele>
        <time>2020-03-31T17:37:50Z</time>
      </trkpt>
      <trkpt lat="42.4382330" lon="-2.5362320">
        <ele>496.6</ele>
        <time>2020-03-31T17:37:52Z</time>
      </trkpt>
      <trkpt lat="42.4381710" lon="-2.5364290">
        <ele>496.2</ele>
        <time>2020-03-31T17:37:54Z</time>
      </trkpt>
      <trkpt lat="42.4381080" lon="-2.5366270">
        <ele>495.9</ele>
        <time>2020-03-31T17:37:56Z</time>
      </trkpt>
      <trkpt lat="42.4380460" lon="-2.5368240">
        <ele>495.5</ele>
        <time>2020-03-31T17:37:58Z</time>
      </trkpt>
      <trkpt lat="42.4379540" lon="-2.5372890">
        <ele>494.6</ele>
        <time>2020-03-31T17:38:00Z</time>
      </trkpt>
      <trkpt lat="42.4379060" lon="-2.5375340">
        <ele>494.4</ele>
        <time>2020-03-31T17:38:02Z</time>
      </trkpt>
      <trkpt lat="42.4378500" lon="-2.5377230">
        <ele>494.4</ele>
        <time>2020-03-31T17:38:04Z</time>
      </trkpt>
      <trkpt lat="42.4377950" lon="-2.5379080">
        <ele>494.4</ele>
        <time>2020-03-31T17:38:06Z</time>
      </trkpt>
      <trkpt lat="42.4376670" lon="-2.5383470">
        <ele>495.0</ele>
        <time>2020-03-31T17:38:08Z</time>
      </trkpt>
      <trkpt lat="42.4376290" lon="-2.5385350">
        <ele>494.9</ele>
        <time>2020-03-31T17:38:10Z</time>
      </trkpt>
      <trkpt lat="42.4375910" lon="-2.5387240">
        <ele>494.8</ele>
        <time>2020-03-31T17:38:12Z</time>
      </trkpt>
      <trkpt lat="42.4375530" lon="-2.5389170">
        <ele>494.7</ele>
        <time>2020-03-31T17:38:14Z</time>
      </trkpt>
      <trkpt lat="42.4374570" lon="-2.5393860">
        <ele>493.9</ele>
        <time>2020-03-31T17:38:16Z</time>
      </trkpt>
      <trkpt lat="42.4373780" lon="-2.5395570">
        <ele>493.4</ele>
        <time>2020-03-31T17:38:18Z</time>
      </trkpt>
      <trkpt lat="42.4372460" lon="-2.5397880">
        <ele>492.6</ele>
        <time>2020-03-31T17:38:20Z</time>
      </trkpt>
      <trkpt lat="42.4371380" lon="-2.5399510">
        <ele>492.1</ele>
        <time>2020-03-31T17:38:22Z</time>
      </trkpt>
      <trkpt lat="42.4370210" lon="-2.5403160">
        <ele>490.8</ele>
        <time>2020-03-31T17:38:24Z</time>
      </trkpt>
      <trkpt lat="42.4369590" lon="-2.5405330">
        <ele>489.3</ele>
        <time>2020-03-31T17:38:26Z</time>
      </trkpt>
      <trkpt lat="42.4368530" lon="-2.5409230">
        <ele>487.5</ele>
        <time>2020-03-31T17:38:28Z</time>
      </trkpt>
      <trkpt lat="42.4368120" lon="-2.5411620">
        <ele>486.5</ele>
        <time>2020-03-31T17:38:30Z</time>
      </trkpt>
      <trkpt lat="42.4367320" lon="-2.5415560">
        <ele>484.2</ele>
        <time>2020-03-31T17:38:32Z</time>
      </trkpt>
      <trkpt lat="42.4366550" lon="-2.5417890">
        <ele>482.7</ele>
        <time>2020-03-31T17:38:34Z</time>
      </trkpt>
      <trkpt lat="42.4365200" lon="-2.5422110">
        <ele>480.4</ele>
        <time>2020-03-31T17:38:36Z</time>
      </trkpt>
      <trkpt lat="42.4364590" lon="-2.5424600">
        <ele>478.1</ele>
        <time>2020-03-31T17:38:38Z</time>
      </trkpt>
      <trkpt lat="42.4363310" lon="-2.5428540">
        <ele>475.4</ele>
        <time>2020-03-31T17:38:40Z</time>
      </trkpt>
      <trkpt lat="42.4362910" lon="-2.5431490">
        <ele>474.1</ele>
        <time>2020-03-31T17:38:42Z</time>
      </trkpt>
      <trkpt lat="42.4362600" lon="-2.5434120">
        <ele>473.1</ele>
        <time>2020-03-31T17:38:44Z</time>
      </trkpt>
      <trkpt lat="42.4362290" lon="-2.5436740">
        <ele>472.2</ele>
        <time>2020-03-31T17:38:46Z</time>
      </trkpt>
      <trkpt lat="42.4361640" lon="-2.5442320">
        <ele>471.1</ele>
        <time>2020-03-31T17:38:48Z</time>
      </trkpt>
      <trkpt lat="42.4361360" lon="-2.5444710">
        <ele>471.0</ele>
        <time>2020-03-31T17:38:50Z</time>
      </trkpt>
      <trkpt lat="42.4361100" lon="-2.5446940">
        <ele>471.0</ele>
        <time>2020-03-31T17:38:52Z</time>
      </trkpt>
      <trkpt lat="42.4360850" lon="-2.5449060">
        <ele>471.0</ele>
        <time>2020-03-31T17:38:54Z</time>
      </trkpt>
      <trkpt lat="42.4360140" lon="-2.5454100">
        <ele>470.5</ele>
        <time>2020-03-31T17:38:56Z</time>
      </trkpt>
      <trkpt lat="42.4359780" lon="-2.5456100">
        <ele>470.0</ele>
        <time>2020-03-31T17:38:58Z</time>
      </trkpt>
      <trkpt lat="42.4359150" lon="-2.5459670">
        <ele>469.2</ele>
        <time>2020-03-31T17:39:00Z</time>
      </trkpt>
      <trkpt lat="42.4358810" lon="-2.5461570">
        <ele>469.1</ele>
        <time>2020-03-31T17:39:02Z</time>
      </trkpt>
      <trkpt lat="42.4358210" lon="-2.5465080">
        <ele>469.0</ele>
        <time>2020-03-31T17:39:04Z</time>
      </trkpt>
      <trkpt lat="42.4357940" lon="-2.5466980">
        <ele>468.9</ele>
        <time>2020-03-31T17:39:06Z</time>
      </trkpt>
      <trkpt lat="42.4357690" lon="-2.5468860">
        <ele>468.9</ele>
        <time>2020-03-31T17:39:08Z</time>
      </trkpt>
      <trkpt lat="42.4357430" lon="-2.5470750">
        <ele>468.9</ele>
        <time>2020-03-31T17:39:10Z</time>
      </trkpt>
      <trkpt lat="42.4356760" lon="-2.5475480">
        <ele>468.5</ele>
        <time>2020-03-31T17:39:12Z</time>
      </trkpt>
      <trkpt lat="42.4356300" lon="-2.5477310">
        <ele>468.1</ele>
        <time>2020-03-31T17:39:14Z</time>
      </trkpt>
      <trkpt lat="42.4355850" lon="-2.5479160">
        <ele>467.6</ele>
        <time>2020-03-31T17:39:16Z</time>
      </trkpt>
      <trkpt lat="42.4355400" lon="-2.5482630">
        <ele>467.1</ele>
        <time>2020-03-31T17:39:18Z</time>
      </trkpt>
      <trkpt lat="42.4355820" lon="-2.5485780">
        <ele>466.8</ele>
        <time>2020-03-31T17:39:20Z</time>
      </trkpt>
      <trkpt lat="42.4356200" lon="-2.5488420">
        <ele>466.5</ele>
        <time>2020-03-31T17:39:22Z</time>
      </trkpt>
      <trkpt lat="42.4357020" lon="-2.5490680">
        <ele>466.4</ele>
        <time>2020-03-31T17:39:24Z</time>
      </trkpt>
      <trkpt lat="42.4357810" lon="-2.5492320">
        <ele>466.3</ele>
        <time>2020-03-31T17:39:26Z</time>
      </trkpt>
      <trkpt lat="42.4359100" lon="-2.5495280">
        <ele>466.2</ele>
        <time>2020-03-31T17:39:28Z</time>
      </trkpt>
      <trkpt lat="42.4358830" lon="-2.5497790">
        <ele>466.5</ele>
        <time>2020-03-31T17:39:30Z</time>
      </trkpt>
      <trkpt lat="42.4357820" lon="-2.5499070">
        <ele>466.7</ele>
        <time>2020-03-31T17:39:32Z</time>
      </trkpt>
      <trkpt lat="42.4356830" lon="-2.5500340">
        <ele>466.7</ele>
        <time>2020-03-31T17:39:34Z</time>
      </trkpt>
      <trkpt lat="42.4355830" lon="-2.5501600">
        <ele>466.7</ele>
        <time>2020-03-31T17:39:36Z</time>
      </trkpt>
      <trkpt lat="42.4353750" lon="-2.5504260">
        <ele>466.6</ele>
        <time>2020-03-31T17:39:38Z</time>
      </trkpt>
      <trkpt lat="42.4352770" lon="-2.5505510">
        <ele>466.7</ele>
        <time>2020-03-31T17:39:40Z</time>
      </trkpt>
      <trkpt lat="42.4351790" lon="-2.5506750">
        <ele>466.7</ele>
        <time>2020-03-31T17:39:42Z</time>
      </trkpt>
      <trkpt lat="42.4349750" lon="-2.5509800">
        <ele>467.0</ele>
        <time>2020-03-31T17:39:44Z</time>
      </trkpt>
      <trkpt lat="42.4349280" lon="-2.5511460">
        <ele>467.2</ele>
        <time>2020-03-31T17:39:46Z</time>
      </trkpt>
      <trkpt lat="42.4348810" lon="-2.5513090">
        <ele>467.5</ele>
        <time>2020-03-31T17:39:48Z</time>
      </trkpt>
      <trkpt lat="42.4348340" lon="-2.5514700">
        <ele>467.8</ele>
        <time>2020-03-31T17:39:50Z</time>
      </trkpt>
      <trkpt lat="42.4347880" lon="-2.5516290">
        <ele>468.0</ele>
        <time>2020-03-31T17:39:52Z</time>
      </trkpt>
      <trkpt lat="42.4346750" lon="-2.5520450">
        <ele>468.4</ele>
        <time>2020-03-31T17:39:54Z</time>
      </trkpt>
      <trkpt lat="42.4346370" lon="-2.5522060">
        <ele>468.4</ele>
        <time>2020-03-31T17:39:56Z</time>
      </trkpt>
      <trkpt lat="42.4345980" lon="-2.5523650">
        <ele>468.4</ele>
        <time>2020-03-31T17:39:58Z</time>
      </trkpt>
      <trkpt lat="42.4345070" lon="-2.5527180">
        <ele>468.4</ele>
        <time>2020-03-31T17:40:00Z</time>
      </trkpt>
      <trkpt lat="42.4344570" lon="-2.5528710">
        <ele>468.5</ele>
        <time>2020-03-31T17:40:02Z</time>
      </trkpt>
      <trkpt lat="42.4344070" lon="-2.5530230">
        <ele>468.7</ele>
        <time>2020-03-31T17:40:04Z</time>
      </trkpt>
      <trkpt lat="42.4343570" lon="-2.5531740">
        <ele>469.0</ele>
        <time>2020-03-31T17:40:06Z</time>
      </trkpt>
      <trkpt lat="42.4343070" lon="-2.5533250">
        <ele>469.2</ele>
        <time>2020-03-31T17:40:08Z</time>
      </trkpt>
      <trkpt lat="42.4341790" lon="-2.5537330">
        <ele>469.5</ele>
        <time>2020-03-31T17:40:10Z</time>
      </trkpt>
      <trkpt lat="42.4341370" lon="-2.5538880">
        <ele>469.5</ele>
        <time>2020-03-31T17:40:12Z</time>
      </trkpt>
      <trkpt lat="42.4340950" lon="-2.5540430">
        <ele>469.6</ele>
        <time>2020-03-31T17:40:14Z</time>
      </trkpt>
      <trkpt lat="42.4340000" lon="-2.5543680">
        <ele>470.0</ele>
        <time>2020-03-31T17:40:16Z</time>
      </trkpt>
      <trkpt lat="42.4339490" lon="-2.5545190">
        <ele>470.2</ele>
        <time>2020-03-31T17:40:18Z</time>
      </trkpt>
      <trkpt lat="42.4338990" lon="-2.5546680">
        <ele>470.3</ele>
        <time>2020-03-31T17:40:20Z</time>
      </trkpt>
      <trkpt lat="42.4337950" lon="-2.5549920">
        <ele>470.6</ele>
        <time>2020-03-31T17:40:22Z</time>
      </trkpt>
      <trkpt lat="42.4337580" lon="-2.5551510">
        <ele>470.8</ele>
        <time>2020-03-31T17:40:24Z</time>
      </trkpt>
      <trkpt lat="42.4336890" lon="-2.5554440">
        <ele>471.2</ele>
        <time>2020-03-31T17:40:26Z</time>
      </trkpt>
      <trkpt lat="42.4336450" lon="-2.5556000">
        <ele>471.4</ele>
        <time>2020-03-31T17:40:28Z</time>
      </trkpt>
      <trkpt lat="42.4336000" lon="-2.5557580">
        <ele>471.5</ele>
        <time>2020-03-31T17:40:30Z</time>
      </trkpt>
      <trkpt lat="42.4335550" lon="-2.5559160">
        <ele>471.5</ele>
        <time>2020-03-31T17:40:32Z</time>
      </trkpt>
      <trkpt lat="42.4335110" lon="-2.5560730">
        <ele>471.5</ele>
        <time>2020-03-31T17:40:34Z</time>
      </trkpt>
      <trkpt lat="42.4333930" lon="-2.5564890">
        <ele>471.6</ele>
        <time>2020-03-31T17:40:36Z</time>
      </trkpt>
      <trkpt lat="42.4333520" lon="-2.5566350">
        <ele>471.6</ele>
        <time>2020-03-31T17:40:38Z</time>
      </trkpt>
      <trkpt lat="42.4333130" lon="-2.5567720">
        <ele>471.7</ele>
        <time>2020-03-31T17:40:40Z</time>
      </trkpt>
      <trkpt lat="42.4332770" lon="-2.5569000">
        <ele>471.9</ele>
        <time>2020-03-31T17:40:42Z</time>
      </trkpt>
      <trkpt lat="42.4332420" lon="-2.5570240">
        <ele>472.2</ele>
        <time>2020-03-31T17:40:44Z</time>
      </trkpt>
      <trkpt lat="42.4332080" lon="-2.5571450">
        <ele>472.6</ele>
        <time>2020-03-31T17:40:46Z</time>
      </trkpt>
      <trkpt lat="42.4331000" lon="-2.5575250">
        <ele>474.3</ele>
        <time>2020-03-31T17:40:48Z</time>
      </trkpt>
      <trkpt lat="42.4330660" lon="-2.5576460">
        <ele>474.9</ele>
        <time>2020-03-31T17:40:50Z</time>
      </trkpt>
      <trkpt lat="42.4330310" lon="-2.5577690">
        <ele>475.6</ele>
        <time>2020-03-31T17:40:52Z</time>
      </trkpt>
      <trkpt lat="42.4329970" lon="-2.5578900">
        <ele>476.7</ele>
        <time>2020-03-31T17:40:54Z</time>
      </trkpt>
      <trkpt lat="42.4329620" lon="-2.5580120">
        <ele>477.6</ele>
        <time>2020-03-31T17:40:56Z</time>
      </trkpt>
      <trkpt lat="42.4329280" lon="-2.5581350">
        <ele>478.3</ele>
        <time>2020-03-31T17:40:58Z</time>
      </trkpt>
      <trkpt lat="42.4328160" lon="-2.5585120">
        <ele>481.8</ele>
        <time>2020-03-31T17:41:00Z</time>
      </trkpt>
      <trkpt lat="42.4327780" lon="-2.5586250">
        <ele>482.9</ele>
        <time>2020-03-31T17:41:02Z</time>
      </trkpt>
      <trkpt lat="42.4327000" lon="-2.5588040">
        <ele>485.2</ele>
        <time>2020-03-31T17:41:04Z</time>
      </trkpt>
      <trkpt lat="42.4326480" lon="-2.5589020">
        <ele>486.5</ele>
        <time>2020-03-31T17:41:06Z</time>
      </trkpt>
      <trkpt lat="42.4325660" lon="-2.5590950">
        <ele>488.8</ele>
        <time>2020-03-31T17:41:08Z</time>
      </trkpt>
      <trkpt lat="42.4325850" lon="-2.5592370">
        <ele>490.1</ele>
        <time>2020-03-31T17:41:10Z</time>
      </trkpt>
      <trkpt lat="42.4326890" lon="-2.5593250">
        <ele>490.0</ele>
        <time>2020-03-31T17:41:12Z</time>
      </trkpt>
      <trkpt lat="42.4327720" lon="-2.5593470">
        <ele>489.7</ele>
        <time>2020-03-31T17:41:14Z</time>
      </trkpt>
      <trkpt lat="42.4329050" lon="-2.5594000">
        <ele>489.2</ele>
        <time>2020-03-31T17:41:16Z</time>
      </trkpt>
      <trkpt lat="42.4328690" lon="-2.5594870">
        <ele>488.9</ele>
        <time>2020-03-31T17:41:18Z</time>
      </trkpt>
      <trkpt lat="42.4327500" lon="-2.5594960">
        <ele>490.4</ele>
        <time>2020-03-31T17:41:20Z</time>
      </trkpt>
      <trkpt lat="42.4326600" lon="-2.5594700">
        <ele>491.2</ele>
        <time>2020-03-31T17:41:22Z</time>
      </trkpt>
      <trkpt lat="42.4324970" lon="-2.5594170">
        <ele>492.1</ele>
        <time>2020-03-31T17:41:24Z</time>
      </trkpt>
      <trkpt lat="42.4324110" lon="-2.5593690">
        <ele>492.4</ele>
        <time>2020-03-31T17:41:26Z</time>
      </trkpt>
      <trkpt lat="42.4322740" lon="-2.5593070">
        <ele>492.9</ele>
        <time>2020-03-31T17:41:28Z</time>
      </trkpt>
      <trkpt lat="42.4321310" lon="-2.5592580">
        <ele>493.4</ele>
        <time>2020-03-31T17:41:30Z</time>
      </trkpt>
      <trkpt lat="42.4320380" lon="-2.5592400">
        <ele>493.9</ele>
        <time>2020-03-31T17:41:32Z</time>
      </trkpt>
      <trkpt lat="42.4318820" lon="-2.5592180">
        <ele>494.9</ele>
        <time>2020-03-31T17:41:34Z</time>
      </trkpt>
      <trkpt lat="42.4318140" lon="-2.5592860">
        <ele>496.0</ele>
        <time>2020-03-31T17:41:36Z</time>
      </trkpt>
      <trkpt lat="42.4317120" lon="-2.5593770">
        <ele>497.4</ele>
        <time>2020-03-31T17:41:38Z</time>
      </trkpt>
      <trkpt lat="42.4316500" lon="-2.5594020">
        <ele>498.4</ele>
        <time>2020-03-31T17:41:40Z</time>
      </trkpt>
      <trkpt lat="42.4315920" lon="-2.5594250">
        <ele>499.2</ele>
        <time>2020-03-31T17:41:42Z</time>
      </trkpt>
      <trkpt lat="42.4314710" lon="-2.5594690">
        <ele>501.0</ele>
        <time>2020-03-31T17:41:44Z</time>
      </trkpt>
      <trkpt lat="42.4314140" lon="-2.5594660">
        <ele>501.8</ele>
        <time>2020-03-31T17:41:46Z</time>
      </trkpt>
      <trkpt lat="42.4313580" lon="-2.5594630">
        <ele>502.6</ele>
        <time>2020-03-31T17:41:48Z</time>
      </trkpt>
      <trkpt lat="42.4313030" lon="-2.5594590">
        <ele>503.4</ele>
        <time>2020-03-31T17:41:50Z</time>
      </trkpt>
      <trkpt lat="42.4312470" lon="-2.5594560">
        <ele>504.2</ele>
        <time>2020-03-31T17:41:52Z</time>
      </trkpt>
      <trkpt lat="42.4311920" lon="-2.5594530">
        <ele>505.1</ele>
        <time>2020-03-31T17:41:54Z</time>
      </trkpt>
      <trkpt lat="42.4311370" lon="-2.5594490">
        <ele>505.9</ele>
        <time>2020-03-31T17:41:56Z</time>
      </trkpt>
      <trkpt lat="42.4309480" lon="-2.5594480">
        <ele>508.7</ele>
        <time>2020-03-31T17:41:58Z</time>
      </trkpt>
      <trkpt lat="42.4308730" lon="-2.5594660">
        <ele>509.3</ele>
        <time>2020-03-31T17:42:00Z</time>
      </trkpt>
      <trkpt lat="42.4307870" lon="-2.5594880">
        <ele>510.3</ele>
        <time>2020-03-31T17:42:02Z</time>
      </trkpt>
      <trkpt lat="42.4306950" lon="-2.5595100">
        <ele>511.3</ele>
        <time>2020-03-31T17:42:04Z</time>
      </trkpt>
      <trkpt lat="42.4305990" lon="-2.5595340">
        <ele>512.0</ele>
        <time>2020-03-31T17:42:06Z</time>
      </trkpt>
      <trkpt lat="42.4305010" lon="-2.5595580">
        <ele>512.6</ele>
        <time>2020-03-31T17:42:08Z</time>
      </trkpt>
      <trkpt lat="42.4304010" lon="-2.5595830">
        <ele>512.9</ele>
        <time>2020-03-31T17:42:10Z</time>
      </trkpt>
      <trkpt lat="42.4301030" lon="-2.5597070">
        <ele>512.8</ele>
        <time>2020-03-31T17:42:12Z</time>
      </trkpt>
      <trkpt lat="42.4300190" lon="-2.5597910">
        <ele>513.5</ele>
        <time>2020-03-31T17:42:14Z</time>
      </trkpt>
      <trkpt lat="42.4298840" lon="-2.5599510">
        <ele>514.5</ele>
        <time>2020-03-31T17:42:16Z</time>
      </trkpt>
      <trkpt lat="42.4297860" lon="-2.5601180">
        <ele>515.1</ele>
        <time>2020-03-31T17:42:18Z</time>
      </trkpt>
      <trkpt lat="42.4297160" lon="-2.5602570">
        <ele>515.3</ele>
        <time>2020-03-31T17:42:20Z</time>
      </trkpt>
      <trkpt lat="42.4296110" lon="-2.5605150">
        <ele>515.8</ele>
        <time>2020-03-31T17:42:22Z</time>
      </trkpt>
      <trkpt lat="42.4295340" lon="-2.5607730">
        <ele>515.9</ele>
        <time>2020-03-31T17:42:24Z</time>
      </trkpt>
      <trkpt lat="42.4294970" lon="-2.5610060">
        <ele>515.6</ele>
        <time>2020-03-31T17:42:26Z</time>
      </trkpt>
      <trkpt lat="42.4294860" lon="-2.5611850">
        <ele>515.5</ele>
        <time>2020-03-31T17:42:28Z</time>
      </trkpt>
      <trkpt lat="42.4294760" lon="-2.5613640">
        <ele>515.2</ele>
        <time>2020-03-31T17:42:30Z</time>
      </trkpt>
      <trkpt lat="42.4294650" lon="-2.5615420">
        <ele>514.9</ele>
        <time>2020-03-31T17:42:32Z</time>
      </trkpt>
      <trkpt lat="42.4294470" lon="-2.5619810">
        <ele>514.8</ele>
        <time>2020-03-31T17:42:34Z</time>
      </trkpt>
      <trkpt lat="42.4295220" lon="-2.5621700">
        <ele>515.2</ele>
        <time>2020-03-31T17:42:36Z</time>
      </trkpt>
      <trkpt lat="42.4296380" lon="-2.5622970">
        <ele>515.5</ele>
        <time>2020-03-31T17:42:38Z</time>
      </trkpt>
      <trkpt lat="42.4297390" lon="-2.5623710">
        <ele>516.2</ele>
        <time>2020-03-31T17:42:40Z</time>
      </trkpt>
      <trkpt lat="42.4298390" lon="-2.5624430">
        <ele>516.8</ele>
        <time>2020-03-31T17:42:42Z</time>
      </trkpt>
      <trkpt lat="42.4300410" lon="-2.5625910">
        <ele>517.6</ele>
        <time>2020-03-31T17:42:44Z</time>
      </trkpt>
      <trkpt lat="42.4301360" lon="-2.5626590">
        <ele>517.9</ele>
        <time>2020-03-31T17:42:46Z</time>
      </trkpt>
      <trkpt lat="42.4302280" lon="-2.5627270">
        <ele>518.1</ele>
        <time>2020-03-31T17:42:48Z</time>
      </trkpt>
      <trkpt lat="42.4304330" lon="-2.5628640">
        <ele>518.5</ele>
        <time>2020-03-31T17:42:50Z</time>
      </trkpt>
      <trkpt lat="42.4305540" lon="-2.5629310">
        <ele>518.4</ele>
        <time>2020-03-31T17:42:52Z</time>
      </trkpt>
      <trkpt lat="42.4306920" lon="-2.5630060">
        <ele>518.2</ele>
        <time>2020-03-31T17:42:54Z</time>
      </trkpt>
      <trkpt lat="42.4307980" lon="-2.5632890">
        <ele>515.3</ele>
        <time>2020-03-31T17:42:56Z</time>
      </trkpt>
      <trkpt lat="42.4307750" lon="-2.5636910">
        <ele>510.4</ele>
        <time>2020-03-31T17:42:58Z</time>
      </trkpt>
      <trkpt lat="42.4307610" lon="-2.5639410">
        <ele>509.5</ele>
        <time>2020-03-31T17:43:00Z</time>
      </trkpt>
      <trkpt lat="42.4307330" lon="-2.5643530">
        <ele>507.1</ele>
        <time>2020-03-31T17:43:02Z</time>
      </trkpt>
      <trkpt lat="42.4306900" lon="-2.5646050">
        <ele>505.4</ele>
        <time>2020-03-31T17:43:04Z</time>
      </trkpt>
      <trkpt lat="42.4306470" lon="-2.5648570">
        <ele>504.1</ele>
        <time>2020-03-31T17:43:06Z</time>
      </trkpt>
      <trkpt lat="42.4305650" lon="-2.5653450">
        <ele>502.4</ele>
        <time>2020-03-31T17:43:08Z</time>
      </trkpt>
      <trkpt lat="42.4305250" lon="-2.5655810">
        <ele>502.1</ele>
        <time>2020-03-31T17:43:10Z</time>
      </trkpt>
      <trkpt lat="42.4304880" lon="-2.5658030">
        <ele>502.1</ele>
        <time>2020-03-31T17:43:12Z</time>
      </trkpt>
      <trkpt lat="42.4304130" lon="-2.5662480">
        <ele>502.2</ele>
        <time>2020-03-31T17:43:14Z</time>
      </trkpt>
      <trkpt lat="42.4303790" lon="-2.5664490">
        <ele>502.3</ele>
        <time>2020-03-31T17:43:16Z</time>
      </trkpt>
      <trkpt lat="42.4303460" lon="-2.5666420">
        <ele>502.5</ele>
        <time>2020-03-31T17:43:18Z</time>
      </trkpt>
      <trkpt lat="42.4302740" lon="-2.5670660">
        <ele>503.1</ele>
        <time>2020-03-31T17:43:20Z</time>
      </trkpt>
      <trkpt lat="42.4302440" lon="-2.5672480">
        <ele>503.4</ele>
        <time>2020-03-31T17:43:22Z</time>
      </trkpt>
      <trkpt lat="42.4302130" lon="-2.5674280">
        <ele>503.7</ele>
        <time>2020-03-31T17:43:24Z</time>
      </trkpt>
      <trkpt lat="42.4301830" lon="-2.5676040">
        <ele>504.0</ele>
        <time>2020-03-31T17:43:26Z</time>
      </trkpt>
      <trkpt lat="42.4301050" lon="-2.5680090">
        <ele>504.2</ele>
        <time>2020-03-31T17:43:28Z</time>
      </trkpt>
      <trkpt lat="42.4300340" lon="-2.5682350">
        <ele>504.3</ele>
        <time>2020-03-31T17:43:30Z</time>
      </trkpt>
      <trkpt lat="42.4299720" lon="-2.5683880">
        <ele>504.3</ele>
        <time>2020-03-31T17:43:32Z</time>
      </trkpt>
      <trkpt lat="42.4299110" lon="-2.5685390">
        <ele>504.3</ele>
        <time>2020-03-31T17:43:34Z</time>
      </trkpt>
      <trkpt lat="42.4297850" lon="-2.5688340">
        <ele>504.3</ele>
        <time>2020-03-31T17:43:36Z</time>
      </trkpt>
      <trkpt lat="42.4297170" lon="-2.5689780">
        <ele>504.4</ele>
        <time>2020-03-31T17:43:38Z</time>
      </trkpt>
      <trkpt lat="42.4296490" lon="-2.5691220">
        <ele>504.4</ele>
        <time>2020-03-31T17:43:40Z</time>
      </trkpt>
      <trkpt lat="42.4295820" lon="-2.5692640">
        <ele>504.4</ele>
        <time>2020-03-31T17:43:42Z</time>
      </trkpt>
      <trkpt lat="42.4294210" lon="-2.5696030">
        <ele>505.0</ele>
        <time>2020-03-31T17:43:44Z</time>
      </trkpt>
      <trkpt lat="42.4293540" lon="-2.5697460">
        <ele>505.3</ele>
        <time>2020-03-31T17:43:46Z</time>
      </trkpt>
      <trkpt lat="42.4292870" lon="-2.5698880">
        <ele>505.4</ele>
        <time>2020-03-31T17:43:48Z</time>
      </trkpt>
      <trkpt lat="42.4292200" lon="-2.5700280">
        <ele>505.5</ele>
        <time>2020-03-31T17:43:50Z</time>
      </trkpt>
      <trkpt lat="42.4290600" lon="-2.5703660">
        <ele>505.6</ele>
        <time>2020-03-31T17:43:52Z</time>
      </trkpt>
      <trkpt lat="42.4289920" lon="-2.5705070">
        <ele>505.9</ele>
        <time>2020-03-31T17:43:54Z</time>
      </trkpt>
      <trkpt lat="42.4289240" lon="-2.5706480">
        <ele>506.1</ele>
        <time>2020-03-31T17:43:56Z</time>
      </trkpt>
      <trkpt lat="42.4288570" lon="-2.5707890">
        <ele>506.3</ele>
        <time>2020-03-31T17:43:58Z</time>
      </trkpt>
      <trkpt lat="42.4286770" lon="-2.5711660">
        <ele>506.5</ele>
        <time>2020-03-31T17:44:00Z</time>
      </trkpt>
      <trkpt lat="42.4286080" lon="-2.5713080">
        <ele>506.5</ele>
        <time>2020-03-31T17:44:02Z</time>
      </trkpt>
      <trkpt lat="42.4285390" lon="-2.5714530">
        <ele>506.5</ele>
        <time>2020-03-31T17:44:04Z</time>
      </trkpt>
      <trkpt lat="42.4284690" lon="-2.5715990">
        <ele>506.5</ele>
        <time>2020-03-31T17:44:06Z</time>
      </trkpt>
      <trkpt lat="42.4283990" lon="-2.5717460">
        <ele>506.5</ele>
        <time>2020-03-31T17:44:08Z</time>
      </trkpt>
      <trkpt lat="42.4282160" lon="-2.5721270">
        <ele>506.4</ele>
        <time>2020-03-31T17:44:10Z</time>
      </trkpt>
      <trkpt lat="42.4281440" lon="-2.5722760">
        <ele>506.4</ele>
        <time>2020-03-31T17:44:12Z</time>
      </trkpt>
      <trkpt lat="42.4280730" lon="-2.5724250">
        <ele>506.4</ele>
        <time>2020-03-31T17:44:14Z</time>
      </trkpt>
      <trkpt lat="42.4280020" lon="-2.5725730">
        <ele>506.4</ele>
        <time>2020-03-31T17:44:16Z</time>
      </trkpt>
      <trkpt lat="42.4278180" lon="-2.5729580">
        <ele>506.4</ele>
        <time>2020-03-31T17:44:18Z</time>
      </trkpt>
      <trkpt lat="42.4277490" lon="-2.5731020">
        <ele>506.4</ele>
        <time>2020-03-31T17:44:20Z</time>
      </trkpt>
      <trkpt lat="42.4276840" lon="-2.5732360">
        <ele>506.4</ele>
        <time>2020-03-31T17:44:22Z</time>
      </trkpt>
      <trkpt lat="42.4276240" lon="-2.5733630">
        <ele>507.1</ele>
        <time>2020-03-31T17:44:24Z</time>
      </trkpt>
      <trkpt lat="42.4275660" lon="-2.5734840">
        <ele>507.8</ele>
        <time>2020-03-31T17:44:26Z</time>
      </trkpt>
      <trkpt lat="42.4273940" lon="-2.5738290">
        <ele>509.1</ele>
        <time>2020-03-31T17:44:28Z</time>
      </trkpt>
      <trkpt lat="42.4272790" lon="-2.5738830">
        <ele>509.8</ele>
        <time>2020-03-31T17:44:30Z</time>
      </trkpt>
      <trkpt lat="42.4272260" lon="-2.5739960">
        <ele>510.3</ele>
        <time>2020-03-31T17:44:32Z</time>
      </trkpt>
      <trkpt lat="42.4271720" lon="-2.5741120">
        <ele>510.8</ele>
        <time>2020-03-31T17:44:34Z</time>
      </trkpt>
      <trkpt lat="42.4271170" lon="-2.5742290">
        <ele>511.3</ele>
        <time>2020-03-31T17:44:36Z</time>
      </trkpt>
      <trkpt lat="42.4270630" lon="-2.5743470">
        <ele>511.6</ele>
        <time>2020-03-31T17:44:38Z</time>
      </trkpt>
      <trkpt lat="42.4269200" lon="-2.5746540">
        <ele>512.1</ele>
        <time>2020-03-31T17:44:40Z</time>
      </trkpt>
      <trkpt lat="42.4268650" lon="-2.5747730">
        <ele>512.3</ele>
        <time>2020-03-31T17:44:42Z</time>
      </trkpt>
      <trkpt lat="42.4268090" lon="-2.5748920">
        <ele>512.5</ele>
        <time>2020-03-31T17:44:44Z</time>
      </trkpt>
      <trkpt lat="42.4267540" lon="-2.5750110">
        <ele>512.7</ele>
        <time>2020-03-31T17:44:46Z</time>
      </trkpt>
      <trkpt lat="42.4266980" lon="-2.5751310">
        <ele>512.8</ele>
        <time>2020-03-31T17:44:48Z</time>
      </trkpt>
      <trkpt lat="42.4265570" lon="-2.5754420">
        <ele>513.7</ele>
        <time>2020-03-31T17:44:50Z</time>
      </trkpt>
      <trkpt lat="42.4265040" lon="-2.5755630">
        <ele>514.4</ele>
        <time>2020-03-31T17:44:52Z</time>
      </trkpt>
      <trkpt lat="42.4264500" lon="-2.5756860">
        <ele>515.1</ele>
        <time>2020-03-31T17:44:54Z</time>
      </trkpt>
      <trkpt lat="42.4263960" lon="-2.5758100">
        <ele>515.5</ele>
        <time>2020-03-31T17:44:56Z</time>
      </trkpt>
      <trkpt lat="42.4263410" lon="-2.5759350">
        <ele>515.9</ele>
        <time>2020-03-31T17:44:58Z</time>
      </trkpt>
      <trkpt lat="42.4261870" lon="-2.5762880">
        <ele>517.1</ele>
        <time>2020-03-31T17:45:00Z</time>
      </trkpt>
      <trkpt lat="42.4261320" lon="-2.5764140">
        <ele>517.6</ele>
        <time>2020-03-31T17:45:02Z</time>
      </trkpt>
      <trkpt lat="42.4260760" lon="-2.5765420">
        <ele>518.1</ele>
        <time>2020-03-31T17:45:04Z</time>
      </trkpt>
      <trkpt lat="42.4260210" lon="-2.5766690">
        <ele>518.6</ele>
        <time>2020-03-31T17:45:06Z</time>
      </trkpt>
      <trkpt lat="42.4259650" lon="-2.5767970">
        <ele>518.9</ele>
        <time>2020-03-31T17:45:08Z</time>
      </trkpt>
      <trkpt lat="42.4257520" lon="-2.5771020">
        <ele>519.3</ele>
        <time>2020-03-31T17:45:10Z</time>
      </trkpt>
      <trkpt lat="42.4256770" lon="-2.5772140">
        <ele>519.5</ele>
        <time>2020-03-31T17:45:12Z</time>
      </trkpt>
      <trkpt lat="42.4255520" lon="-2.5773950">
        <ele>520.2</ele>
        <time>2020-03-31T17:45:14Z</time>
      </trkpt>
      <trkpt lat="42.4254320" lon="-2.5775330">
        <ele>520.8</ele>
        <time>2020-03-31T17:45:16Z</time>
      </trkpt>
      <trkpt lat="42.4253340" lon="-2.5776170">
        <ele>521.0</ele>
        <time>2020-03-31T17:45:18Z</time>
      </trkpt>
      <trkpt lat="42.4252350" lon="-2.5777000">
        <ele>521.3</ele>
        <time>2020-03-31T17:45:20Z</time>
      </trkpt>
      <trkpt lat="42.4250370" lon="-2.5778760">
        <ele>521.9</ele>
        <time>2020-03-31T17:45:22Z</time>
      </trkpt>
      <trkpt lat="42.4249470" lon="-2.5779750">
        <ele>522.2</ele>
        <time>2020-03-31T17:45:24Z</time>
      </trkpt>
      <trkpt lat="42.4248050" lon="-2.5781400">
        <ele>522.8</ele>
        <time>2020-03-31T17:45:26Z</time>
      </trkpt>
      <trkpt lat="42.4246740" lon="-2.5783050">
        <ele>523.4</ele>
        <time>2020-03-31T17:45:28Z</time>
      </trkpt>
      <trkpt lat="42.4245520" lon="-2.5783950">
        <ele>523.9</ele>
        <time>2020-03-31T17:45:30Z</time>
      </trkpt>
      <trkpt lat="42.4244450" lon="-2.5784510">
        <ele>524.3</ele>
        <time>2020-03-31T17:45:32Z</time>
      </trkpt>
      <trkpt lat="42.4243390" lon="-2.5785070">
        <ele>524.7</ele>
        <time>2020-03-31T17:45:34Z</time>
      </trkpt>
      <trkpt lat="42.4241380" lon="-2.5786250">
        <ele>525.5</ele>
        <time>2020-03-31T17:45:36Z</time>
      </trkpt>
      <trkpt lat="42.4240390" lon="-2.5786920">
        <ele>525.9</ele>
        <time>2020-03-31T17:45:38Z</time>
      </trkpt>
      <trkpt lat="42.4239430" lon="-2.5787570">
        <ele>526.4</ele>
        <time>2020-03-31T17:45:40Z</time>
      </trkpt>
      <trkpt lat="42.4238480" lon="-2.5788210">
        <ele>526.8</ele>
        <time>2020-03-31T17:45:42Z</time>
      </trkpt>
      <trkpt lat="42.4237540" lon="-2.5788840">
        <ele>527.4</ele>
        <time>2020-03-31T17:45:44Z</time>
      </trkpt>
      <trkpt lat="42.4236600" lon="-2.5789480">
        <ele>527.9</ele>
        <time>2020-03-31T17:45:46Z</time>
      </trkpt>
      <trkpt lat="42.4233600" lon="-2.5791580">
        <ele>529.4</ele>
        <time>2020-03-31T17:45:49Z</time>
      </trkpt>
      <trkpt lat="42.4232700" lon="-2.5792300">
        <ele>529.8</ele>
        <time>2020-03-31T17:45:51Z</time>
      </trkpt>
      <trkpt lat="42.4231190" lon="-2.5793610">
        <ele>530.5</ele>
        <time>2020-03-31T17:45:53Z</time>
      </trkpt>
      <trkpt lat="42.4230360" lon="-2.5794440">
        <ele>530.8</ele>
        <time>2020-03-31T17:45:55Z</time>
      </trkpt>
      <trkpt lat="42.4228850" lon="-2.5795740">
        <ele>531.8</ele>
        <time>2020-03-31T17:45:57Z</time>
      </trkpt>
      <trkpt lat="42.4227900" lon="-2.5796250">
        <ele>532.4</ele>
        <time>2020-03-31T17:45:59Z</time>
      </trkpt>
      <trkpt lat="42.4226950" lon="-2.5796750">
        <ele>533.0</ele>
        <time>2020-03-31T17:46:01Z</time>
      </trkpt>
      <trkpt lat="42.4226010" lon="-2.5797260">
        <ele>533.5</ele>
        <time>2020-03-31T17:46:03Z</time>
      </trkpt>
      <trkpt lat="42.4223910" lon="-2.5798480">
        <ele>534.6</ele>
        <time>2020-03-31T17:46:05Z</time>
      </trkpt>
      <trkpt lat="42.4222410" lon="-2.5799500">
        <ele>535.1</ele>
        <time>2020-03-31T17:46:07Z</time>
      </trkpt>
      <trkpt lat="42.4221600" lon="-2.5800370">
        <ele>535.5</ele>
        <time>2020-03-31T17:46:09Z</time>
      </trkpt>
      <trkpt lat="42.4220770" lon="-2.5801250">
        <ele>535.8</ele>
        <time>2020-03-31T17:46:11Z</time>
      </trkpt>
      <trkpt lat="42.4219940" lon="-2.5802140">
        <ele>536.2</ele>
        <time>2020-03-31T17:46:13Z</time>
      </trkpt>
      <trkpt lat="42.4217990" lon="-2.5804280">
        <ele>536.7</ele>
        <time>2020-03-31T17:46:15Z</time>
      </trkpt>
      <trkpt lat="42.4217210" lon="-2.5805310">
        <ele>536.8</ele>
        <time>2020-03-31T17:46:17Z</time>
      </trkpt>
      <trkpt lat="42.4216430" lon="-2.5806340">
        <ele>536.9</ele>
        <time>2020-03-31T17:46:19Z</time>
      </trkpt>
      <trkpt lat="42.4215650" lon="-2.5807380">
        <ele>537.4</ele>
        <time>2020-03-31T17:46:21Z</time>
      </trkpt>
      <trkpt lat="42.4214100" lon="-2.5809930">
        <ele>538.8</ele>
        <time>2020-03-31T17:46:23Z</time>
      </trkpt>
      <trkpt lat="42.4213240" lon="-2.5811750">
        <ele>539.6</ele>
        <time>2020-03-31T17:46:25Z</time>
      </trkpt>
      <trkpt lat="42.4212480" lon="-2.5812890">
        <ele>540.0</ele>
        <time>2020-03-31T17:46:27Z</time>
      </trkpt>
      <trkpt lat="42.4211730" lon="-2.5814030">
        <ele>540.2</ele>
        <time>2020-03-31T17:46:29Z</time>
      </trkpt>
      <trkpt lat="42.4210080" lon="-2.5816460">
        <ele>541.0</ele>
        <time>2020-03-31T17:46:31Z</time>
      </trkpt>
      <trkpt lat="42.4209220" lon="-2.5817440">
        <ele>541.4</ele>
        <time>2020-03-31T17:46:33Z</time>
      </trkpt>
      <trkpt lat="42.4208350" lon="-2.5818440">
        <ele>541.8</ele>
        <time>2020-03-31T17:46:35Z</time>
      </trkpt>
      <trkpt lat="42.4207470" lon="-2.5819450">
        <ele>542.3</ele>
        <time>2020-03-31T17:46:37Z</time>
      </trkpt>
      <trkpt lat="42.4205340" lon="-2.5821800">
        <ele>543.3</ele>
        <time>2020-03-31T17:46:39Z</time>
      </trkpt>
      <trkpt lat="42.4204330" lon="-2.5822590">
        <ele>543.6</ele>
        <time>2020-03-31T17:46:41Z</time>
      </trkpt>
      <trkpt lat="42.4203310" lon="-2.5823380">
        <ele>543.8</ele>
        <time>2020-03-31T17:46:43Z</time>
      </trkpt>
      <trkpt lat="42.4202270" lon="-2.5824180">
        <ele>544.0</ele>
        <time>2020-03-31T17:46:45Z</time>
      </trkpt>
      <trkpt lat="42.4201240" lon="-2.5824980">
        <ele>544.2</ele>
        <time>2020-03-31T17:46:47Z</time>
      </trkpt>
      <trkpt lat="42.4200190" lon="-2.5825800">
        <ele>544.5</ele>
        <time>2020-03-31T17:46:49Z</time>
      </trkpt>
      <trkpt lat="42.4197190" lon="-2.5828250">
        <ele>545.6</ele>
        <time>2020-03-31T17:46:51Z</time>
      </trkpt>
      <trkpt lat="42.4195760" lon="-2.5829970">
        <ele>546.1</ele>
        <time>2020-03-31T17:46:53Z</time>
      </trkpt>
      <trkpt lat="42.4195390" lon="-2.5831530">
        <ele>546.3</ele>
        <time>2020-03-31T17:46:55Z</time>
      </trkpt>
      <trkpt lat="42.4194700" lon="-2.5833910">
        <ele>546.6</ele>
        <time>2020-03-31T17:46:57Z</time>
      </trkpt>
      <trkpt lat="42.4193730" lon="-2.5835450">
        <ele>547.0</ele>
        <time>2020-03-31T17:46:59Z</time>
      </trkpt>
      <trkpt lat="42.4192860" lon="-2.5836560">
        <ele>547.3</ele>
        <time>2020-03-31T17:47:01Z</time>
      </trkpt>
      <trkpt lat="42.4191380" lon="-2.5838630">
        <ele>548.0</ele>
        <time>2020-03-31T17:47:03Z</time>
      </trkpt>
      <trkpt lat="42.4190460" lon="-2.5840490">
        <ele>548.5</ele>
        <time>2020-03-31T17:47:05Z</time>
      </trkpt>
      <trkpt lat="42.4189660" lon="-2.5842320">
        <ele>549.1</ele>
        <time>2020-03-31T17:47:07Z</time>
      </trkpt>
      <trkpt lat="42.4188910" lon="-2.5843460">
        <ele>549.5</ele>
        <time>2020-03-31T17:47:09Z</time>
      </trkpt>
      <trkpt lat="42.4187530" lon="-2.5845450">
        <ele>550.6</ele>
        <time>2020-03-31T17:47:11Z</time>
      </trkpt>
      <trkpt lat="42.4186620" lon="-2.5846270">
        <ele>551.2</ele>
        <time>2020-03-31T17:47:13Z</time>
      </trkpt>
      <trkpt lat="42.4185720" lon="-2.5847080">
        <ele>551.6</ele>
        <time>2020-03-31T17:47:15Z</time>
      </trkpt>
      <trkpt lat="42.4184830" lon="-2.5847890">
        <ele>552.0</ele>
        <time>2020-03-31T17:47:17Z</time>
      </trkpt>
      <trkpt lat="42.4183940" lon="-2.5848690">
        <ele>552.4</ele>
        <time>2020-03-31T17:47:19Z</time>
      </trkpt>
      <trkpt lat="42.4183060" lon="-2.5849490">
        <ele>552.8</ele>
        <time>2020-03-31T17:47:21Z</time>
      </trkpt>
      <trkpt lat="42.4180340" lon="-2.5851970">
        <ele>554.5</ele>
        <time>2020-03-31T17:47:23Z</time>
      </trkpt>
      <trkpt lat="42.4179510" lon="-2.5852820">
        <ele>555.2</ele>
        <time>2020-03-31T17:47:25Z</time>
      </trkpt>
      <trkpt lat="42.4178700" lon="-2.5853670">
        <ele>555.8</ele>
        <time>2020-03-31T17:47:27Z</time>
      </trkpt>
      <trkpt lat="42.4177890" lon="-2.5854500">
        <ele>556.3</ele>
        <time>2020-03-31T17:47:29Z</time>
      </trkpt>
      <trkpt lat="42.4177090" lon="-2.5855330">
        <ele>556.9</ele>
        <time>2020-03-31T17:47:31Z</time>
      </trkpt>
      <trkpt lat="42.4174780" lon="-2.5857720">
        <ele>558.0</ele>
        <time>2020-03-31T17:47:33Z</time>
      </trkpt>
      <trkpt lat="42.4173970" lon="-2.5858490">
        <ele>558.6</ele>
        <time>2020-03-31T17:47:35Z</time>
      </trkpt>
      <trkpt lat="42.4173160" lon="-2.5859260">
        <ele>559.1</ele>
        <time>2020-03-31T17:47:37Z</time>
      </trkpt>
      <trkpt lat="42.4172350" lon="-2.5860030">
        <ele>559.6</ele>
        <time>2020-03-31T17:47:39Z</time>
      </trkpt>
      <trkpt lat="42.4171540" lon="-2.5860800">
        <ele>560.2</ele>
        <time>2020-03-31T17:47:41Z</time>
      </trkpt>
      <trkpt lat="42.4170740" lon="-2.5861560">
        <ele>560.7</ele>
        <time>2020-03-31T17:47:43Z</time>
      </trkpt>
      <trkpt lat="42.4168320" lon="-2.5863950">
        <ele>561.9</ele>
        <time>2020-03-31T17:47:45Z</time>
      </trkpt>
      <trkpt lat="42.4167650" lon="-2.5864910">
        <ele>562.6</ele>
        <time>2020-03-31T17:47:47Z</time>
      </trkpt>
      <trkpt lat="42.4166970" lon="-2.5865880">
        <ele>563.1</ele>
        <time>2020-03-31T17:47:49Z</time>
      </trkpt>
      <trkpt lat="42.4165560" lon="-2.5867860">
        <ele>564.1</ele>
        <time>2020-03-31T17:47:51Z</time>
      </trkpt>
      <trkpt lat="42.4164800" lon="-2.5868740">
        <ele>564.6</ele>
        <time>2020-03-31T17:47:53Z</time>
      </trkpt>
      <trkpt lat="42.4163610" lon="-2.5869910">
        <ele>565.2</ele>
        <time>2020-03-31T17:47:55Z</time>
      </trkpt>
      <trkpt lat="42.4162190" lon="-2.5871170">
        <ele>565.9</ele>
        <time>2020-03-31T17:47:57Z</time>
      </trkpt>
      <trkpt lat="42.4161220" lon="-2.5871770">
        <ele>566.2</ele>
        <time>2020-03-31T17:47:59Z</time>
      </trkpt>
      <trkpt lat="42.4160250" lon="-2.5872370">
        <ele>566.6</ele>
        <time>2020-03-31T17:48:01Z</time>
      </trkpt>
      <trkpt lat="42.4158350" lon="-2.5873450">
        <ele>567.4</ele>
        <time>2020-03-31T17:48:03Z</time>
      </trkpt>
      <trkpt lat="42.4157320" lon="-2.5873920">
        <ele>567.8</ele>
        <time>2020-03-31T17:48:05Z</time>
      </trkpt>
      <trkpt lat="42.4156280" lon="-2.5874400">
        <ele>568.2</ele>
        <time>2020-03-31T17:48:07Z</time>
      </trkpt>
      <trkpt lat="42.4155230" lon="-2.5874880">
        <ele>568.6</ele>
        <time>2020-03-31T17:48:09Z</time>
      </trkpt>
      <trkpt lat="42.4154190" lon="-2.5875360">
        <ele>569.0</ele>
        <time>2020-03-31T17:48:11Z</time>
      </trkpt>
      <trkpt lat="42.4153150" lon="-2.5875830">
        <ele>569.5</ele>
        <time>2020-03-31T17:48:13Z</time>
      </trkpt>
      <trkpt lat="42.4150700" lon="-2.5877940">
        <ele>570.6</ele>
        <time>2020-03-31T17:48:15Z</time>
      </trkpt>
      <trkpt lat="42.4150850" lon="-2.5879450">
        <ele>570.6</ele>
        <time>2020-03-31T17:48:17Z</time>
      </trkpt>
      <trkpt lat="42.4151010" lon="-2.5880990">
        <ele>570.7</ele>
        <time>2020-03-31T17:48:19Z</time>
      </trkpt>
      <trkpt lat="42.4151170" lon="-2.5882540">
        <ele>570.7</ele>
        <time>2020-03-31T17:48:21Z</time>
      </trkpt>
      <trkpt lat="42.4151330" lon="-2.5884100">
        <ele>570.9</ele>
        <time>2020-03-31T17:48:23Z</time>
      </trkpt>
      <trkpt lat="42.4151790" lon="-2.5888740">
        <ele>571.5</ele>
        <time>2020-03-31T17:48:25Z</time>
      </trkpt>
      <trkpt lat="42.4151580" lon="-2.5890290">
        <ele>571.8</ele>
        <time>2020-03-31T17:48:27Z</time>
      </trkpt>
      <trkpt lat="42.4151360" lon="-2.5891870">
        <ele>572.3</ele>
        <time>2020-03-31T17:48:29Z</time>
      </trkpt>
      <trkpt lat="42.4151140" lon="-2.5893450">
        <ele>572.8</ele>
        <time>2020-03-31T17:48:31Z</time>
      </trkpt>
      <trkpt lat="42.4150920" lon="-2.5895040">
        <ele>573.1</ele>
        <time>2020-03-31T17:48:33Z</time>
      </trkpt>
      <trkpt lat="42.4150520" lon="-2.5898930">
        <ele>574.2</ele>
        <time>2020-03-31T17:48:35Z</time>
      </trkpt>
      <trkpt lat="42.4150440" lon="-2.5900540">
        <ele>574.5</ele>
        <time>2020-03-31T17:48:37Z</time>
      </trkpt>
      <trkpt lat="42.4150360" lon="-2.5902150">
        <ele>574.9</ele>
        <time>2020-03-31T17:48:39Z</time>
      </trkpt>
      <trkpt lat="42.4150160" lon="-2.5905820">
        <ele>575.7</ele>
        <time>2020-03-31T17:48:41Z</time>
      </trkpt>
      <trkpt lat="42.4150020" lon="-2.5907400">
        <ele>576.1</ele>
        <time>2020-03-31T17:48:43Z</time>
      </trkpt>
      <trkpt lat="42.4149880" lon="-2.5908980">
        <ele>576.4</ele>
        <time>2020-03-31T17:48:45Z</time>
      </trkpt>
      <trkpt lat="42.4149750" lon="-2.5910540">
        <ele>576.5</ele>
        <time>2020-03-31T17:48:47Z</time>
      </trkpt>
      <trkpt lat="42.4149430" lon="-2.5914180">
        <ele>576.8</ele>
        <time>2020-03-31T17:48:49Z</time>
      </trkpt>
      <trkpt lat="42.4149290" lon="-2.5915720">
        <ele>576.9</ele>
        <time>2020-03-31T17:48:51Z</time>
      </trkpt>
      <trkpt lat="42.4149150" lon="-2.5917270">
        <ele>577.1</ele>
        <time>2020-03-31T17:48:53Z</time>
      </trkpt>
      <trkpt lat="42.4149020" lon="-2.5918800">
        <ele>577.4</ele>
        <time>2020-03-31T17:48:55Z</time>
      </trkpt>
      <trkpt lat="42.4148540" lon="-2.5922400">
        <ele>578.1</ele>
        <time>2020-03-31T17:48:57Z</time>
      </trkpt>
      <trkpt lat="42.4148150" lon="-2.5924020">
        <ele>578.5</ele>
        <time>2020-03-31T17:48:59Z</time>
      </trkpt>
      <trkpt lat="42.4147740" lon="-2.5925720">
        <ele>578.1</ele>
        <time>2020-03-31T17:49:01Z</time>
      </trkpt>
      <trkpt lat="42.4147320" lon="-2.5927510">
        <ele>577.7</ele>
        <time>2020-03-31T17:49:03Z</time>
      </trkpt>
      <trkpt lat="42.4146650" lon="-2.5931700">
        <ele>576.8</ele>
        <time>2020-03-31T17:49:05Z</time>
      </trkpt>
      <trkpt lat="42.4146580" lon="-2.5933670">
        <ele>576.6</ele>
        <time>2020-03-31T17:49:07Z</time>
      </trkpt>
      <trkpt lat="42.4146520" lon="-2.5935670">
        <ele>576.3</ele>
        <time>2020-03-31T17:49:09Z</time>
      </trkpt>
      <trkpt lat="42.4146460" lon="-2.5940100">
        <ele>575.1</ele>
        <time>2020-03-31T17:49:11Z</time>
      </trkpt>
      <trkpt lat="42.4147110" lon="-2.5942420">
        <ele>574.5</ele>
        <time>2020-03-31T17:49:13Z</time>
      </trkpt>
      <trkpt lat="42.4147830" lon="-2.5944430">
        <ele>573.9</ele>
        <time>2020-03-31T17:49:15Z</time>
      </trkpt>
      <trkpt lat="42.4149450" lon="-2.5947660">
        <ele>571.4</ele>
        <time>2020-03-31T17:49:17Z</time>
      </trkpt>
      <trkpt lat="42.4150640" lon="-2.5949370">
        <ele>570.5</ele>
        <time>2020-03-31T17:49:19Z</time>
      </trkpt>
      <trkpt lat="42.4152570" lon="-2.5952260">
        <ele>568.1</ele>
        <time>2020-03-31T17:49:21Z</time>
      </trkpt>
      <trkpt lat="42.4154310" lon="-2.5954890">
        <ele>565.8</ele>
        <time>2020-03-31T17:49:23Z</time>
      </trkpt>
      <trkpt lat="42.4155460" lon="-2.5956290">
        <ele>564.9</ele>
        <time>2020-03-31T17:49:25Z</time>
      </trkpt>
      <trkpt lat="42.4157300" lon="-2.5958740">
        <ele>564.5</ele>
        <time>2020-03-31T17:49:27Z</time>
      </trkpt>
      <trkpt lat="42.4158080" lon="-2.5960450">
        <ele>564.7</ele>
        <time>2020-03-31T17:49:29Z</time>
      </trkpt>
      <trkpt lat="42.4158850" lon="-2.5962160">
        <ele>565.1</ele>
        <time>2020-03-31T17:49:31Z</time>
      </trkpt>
      <trkpt lat="42.4160420" lon="-2.5965580">
        <ele>566.3</ele>
        <time>2020-03-31T17:49:33Z</time>
      </trkpt>
      <trkpt lat="42.4161250" lon="-2.5967770">
        <ele>567.9</ele>
        <time>2020-03-31T17:49:35Z</time>
      </trkpt>
      <trkpt lat="42.4161790" lon="-2.5969540">
        <ele>568.7</ele>
        <time>2020-03-31T17:49:37Z</time>
      </trkpt>
      <trkpt lat="42.4162310" lon="-2.5971300">
        <ele>569.2</ele>
        <time>2020-03-31T17:49:39Z</time>
      </trkpt>
      <trkpt lat="42.4162830" lon="-2.5973030">
        <ele>569.3</ele>
        <time>2020-03-31T17:49:41Z</time>
      </trkpt>
      <trkpt lat="42.4164130" lon="-2.5977480">
        <ele>568.0</ele>
        <time>2020-03-31T17:49:43Z</time>
      </trkpt>
      <trkpt lat="42.4164570" lon="-2.5979320">
        <ele>566.4</ele>
        <time>2020-03-31T17:49:45Z</time>
      </trkpt>
      <trkpt lat="42.4165750" lon="-2.5981350">
        <ele>564.3</ele>
        <time>2020-03-31T17:49:47Z</time>
      </trkpt>
      <trkpt lat="42.4167210" lon="-2.5980800">
        <ele>565.3</ele>
        <time>2020-03-31T17:49:49Z</time>
      </trkpt>
      <trkpt lat="42.4169810" lon="-2.5980910">
        <ele>563.9</ele>
        <time>2020-03-31T17:49:51Z</time>
      </trkpt>
      <trkpt lat="42.4171160" lon="-2.5982730">
        <ele>563.1</ele>
        <time>2020-03-31T17:49:53Z</time>
      </trkpt>
      <trkpt lat="42.4170380" lon="-2.5984480">
        <ele>563.2</ele>
        <time>2020-03-31T17:49:55Z</time>
      </trkpt>
      <trkpt lat="42.4169650" lon="-2.5986140">
        <ele>563.4</ele>
        <time>2020-03-31T17:49:57Z</time>
      </trkpt>
      <trkpt lat="42.4168950" lon="-2.5987710">
        <ele>563.7</ele>
        <time>2020-03-31T17:49:59Z</time>
      </trkpt>
      <trkpt lat="42.4168290" lon="-2.5989210">
        <ele>564.2</ele>
        <time>2020-03-31T17:50:01Z</time>
      </trkpt>
      <trkpt lat="42.4166520" lon="-2.5993130">
        <ele>565.4</ele>
        <time>2020-03-31T17:50:03Z</time>
      </trkpt>
      <trkpt lat="42.4165860" lon="-2.5994520">
        <ele>565.8</ele>
        <time>2020-03-31T17:50:05Z</time>
      </trkpt>
      <trkpt lat="42.4165230" lon="-2.5995860">
        <ele>566.0</ele>
        <time>2020-03-31T17:50:07Z</time>
      </trkpt>
      <trkpt lat="42.4163830" lon="-2.5998820">
        <ele>566.4</ele>
        <time>2020-03-31T17:50:09Z</time>
      </trkpt>
      <trkpt lat="42.4163230" lon="-2.6000100">
        <ele>566.8</ele>
        <time>2020-03-31T17:50:11Z</time>
      </trkpt>
      <trkpt lat="42.4162640" lon="-2.6001340">
        <ele>567.2</ele>
        <time>2020-03-31T17:50:13Z</time>
      </trkpt>
      <trkpt lat="42.4162070" lon="-2.6002550">
        <ele>567.4</ele>
        <time>2020-03-31T17:50:15Z</time>
      </trkpt>
      <trkpt lat="42.4160800" lon="-2.6005430">
        <ele>568.1</ele>
        <time>2020-03-31T17:50:17Z</time>
      </trkpt>
      <trkpt lat="42.4160310" lon="-2.6006660">
        <ele>568.5</ele>
        <time>2020-03-31T17:50:19Z</time>
      </trkpt>
      <trkpt lat="42.4159830" lon="-2.6007880">
        <ele>569.1</ele>
        <time>2020-03-31T17:50:21Z</time>
      </trkpt>
      <trkpt lat="42.4159350" lon="-2.6009110">
        <ele>569.6</ele>
        <time>2020-03-31T17:50:23Z</time>
      </trkpt>
      <trkpt lat="42.4158860" lon="-2.6010360">
        <ele>570.1</ele>
        <time>2020-03-31T17:50:25Z</time>
      </trkpt>
      <trkpt lat="42.4157530" lon="-2.6013860">
        <ele>570.9</ele>
        <time>2020-03-31T17:50:27Z</time>
      </trkpt>
      <trkpt lat="42.4157060" lon="-2.6015210">
        <ele>571.0</ele>
        <time>2020-03-31T17:50:29Z</time>
      </trkpt>
      <trkpt lat="42.4156560" lon="-2.6016600">
        <ele>571.1</ele>
        <time>2020-03-31T17:50:31Z</time>
      </trkpt>
      <trkpt lat="42.4156060" lon="-2.6018030">
        <ele>571.3</ele>
        <time>2020-03-31T17:50:33Z</time>
      </trkpt>
      <trkpt lat="42.4155550" lon="-2.6019480">
        <ele>571.4</ele>
        <time>2020-03-31T17:50:35Z</time>
      </trkpt>
      <trkpt lat="42.4154150" lon="-2.6023400">
        <ele>572.5</ele>
        <time>2020-03-31T17:50:37Z</time>
      </trkpt>
      <trkpt lat="42.4153600" lon="-2.6024870">
        <ele>572.9</ele>
        <time>2020-03-31T17:50:39Z</time>
      </trkpt>
      <trkpt lat="42.4153050" lon="-2.6026330">
        <ele>573.3</ele>
        <time>2020-03-31T17:50:41Z</time>
      </trkpt>
      <trkpt lat="42.4151760" lon="-2.6029760">
        <ele>573.9</ele>
        <time>2020-03-31T17:50:43Z</time>
      </trkpt>
      <trkpt lat="42.4151200" lon="-2.6031250">
        <ele>573.9</ele>
        <time>2020-03-31T17:50:45Z</time>
      </trkpt>
      <trkpt lat="42.4150630" lon="-2.6032750">
        <ele>573.9</ele>
        <time>2020-03-31T17:50:47Z</time>
      </trkpt>
      <trkpt lat="42.4150050" lon="-2.6034290">
        <ele>573.9</ele>
        <time>2020-03-31T17:50:49Z</time>
      </trkpt>
      <trkpt lat="42.4148760" lon="-2.6037810">
        <ele>574.0</ele>
        <time>2020-03-31T17:50:51Z</time>
      </trkpt>
      <trkpt lat="42.4148210" lon="-2.6039400">
        <ele>574.3</ele>
        <time>2020-03-31T17:50:53Z</time>
      </trkpt>
      <trkpt lat="42.4147670" lon="-2.6040980">
        <ele>574.5</ele>
        <time>2020-03-31T17:50:55Z</time>
      </trkpt>
      <trkpt lat="42.4146600" lon="-2.6044120">
        <ele>574.9</ele>
        <time>2020-03-31T17:50:57Z</time>
      </trkpt>
      <trkpt lat="42.4146050" lon="-2.6045730">
        <ele>575.1</ele>
        <time>2020-03-31T17:50:59Z</time>
      </trkpt>
      <trkpt lat="42.4144980" lon="-2.6048850">
        <ele>575.5</ele>
        <time>2020-03-31T17:51:01Z</time>
      </trkpt>
      <trkpt lat="42.4144410" lon="-2.6050440">
        <ele>575.8</ele>
        <time>2020-03-31T17:51:03Z</time>
      </trkpt>
      <trkpt lat="42.4143840" lon="-2.6052030">
        <ele>576.2</ele>
        <time>2020-03-31T17:51:05Z</time>
      </trkpt>
      <trkpt lat="42.4143280" lon="-2.6053610">
        <ele>576.5</ele>
        <time>2020-03-31T17:51:07Z</time>
      </trkpt>
      <trkpt lat="42.4142720" lon="-2.6055170">
        <ele>576.9</ele>
        <time>2020-03-31T17:51:09Z</time>
      </trkpt>
      <trkpt lat="42.4141250" lon="-2.6059250">
        <ele>577.8</ele>
        <time>2020-03-31T17:51:11Z</time>
      </trkpt>
      <trkpt lat="42.4140690" lon="-2.6060820">
        <ele>578.2</ele>
        <time>2020-03-31T17:51:13Z</time>
      </trkpt>
      <trkpt lat="42.4140130" lon="-2.6062390">
        <ele>578.4</ele>
        <time>2020-03-31T17:51:15Z</time>
      </trkpt>
      <trkpt lat="42.4139570" lon="-2.6063950">
        <ele>578.6</ele>
        <time>2020-03-31T17:51:17Z</time>
      </trkpt>
      <trkpt lat="42.4139010" lon="-2.6065510">
        <ele>578.7</ele>
        <time>2020-03-31T17:51:19Z</time>
      </trkpt>
      <trkpt lat="42.4137560" lon="-2.6069560">
        <ele>579.4</ele>
        <time>2020-03-31T17:51:21Z</time>
      </trkpt>
      <trkpt lat="42.4137030" lon="-2.6071030">
        <ele>579.7</ele>
        <time>2020-03-31T17:51:23Z</time>
      </trkpt>
      <trkpt lat="42.4136520" lon="-2.6072460">
        <ele>580.1</ele>
        <time>2020-03-31T17:51:25Z</time>
      </trkpt>
      <trkpt lat="42.4136020" lon="-2.6073850">
        <ele>580.6</ele>
        <time>2020-03-31T17:51:27Z</time>
      </trkpt>
      <trkpt lat="42.4134630" lon="-2.6077720">
        <ele>582.0</ele>
        <time>2020-03-31T17:51:29Z</time>
      </trkpt>
      <trkpt lat="42.4134150" lon="-2.6079060">
        <ele>582.4</ele>
        <time>2020-03-31T17:51:31Z</time>
      </trkpt>
      <trkpt lat="42.4133680" lon="-2.6080390">
        <ele>582.8</ele>
        <time>2020-03-31T17:51:33Z</time>
      </trkpt>
      <trkpt lat="42.4133210" lon="-2.6081690">
        <ele>583.2</ele>
        <time>2020-03-31T17:51:35Z</time>
      </trkpt>
      <trkpt lat="42.4132740" lon="-2.6083000">
        <ele>583.8</ele>
        <time>2020-03-31T17:51:37Z</time>
      </trkpt>
      <trkpt lat="42.4132270" lon="-2.6084320">
        <ele>584.3</ele>
        <time>2020-03-31T17:51:39Z</time>
      </trkpt>
      <trkpt lat="42.4130940" lon="-2.6088170">
        <ele>585.6</ele>
        <time>2020-03-31T17:51:41Z</time>
      </trkpt>
      <trkpt lat="42.4130510" lon="-2.6089550">
        <ele>585.9</ele>
        <time>2020-03-31T17:51:43Z</time>
      </trkpt>
      <trkpt lat="42.4130080" lon="-2.6090980">
        <ele>586.4</ele>
        <time>2020-03-31T17:51:45Z</time>
      </trkpt>
      <trkpt lat="42.4129630" lon="-2.6092440">
        <ele>586.9</ele>
        <time>2020-03-31T17:51:47Z</time>
      </trkpt>
      <trkpt lat="42.4128550" lon="-2.6096080">
        <ele>587.8</ele>
        <time>2020-03-31T17:51:49Z</time>
      </trkpt>
      <trkpt lat="42.4128150" lon="-2.6097620">
        <ele>587.9</ele>
        <time>2020-03-31T17:51:51Z</time>
      </trkpt>
      <trkpt lat="42.4127760" lon="-2.6099160">
        <ele>588.1</ele>
        <time>2020-03-31T17:51:53Z</time>
      </trkpt>
      <trkpt lat="42.4127020" lon="-2.6102370">
        <ele>588.7</ele>
        <time>2020-03-31T17:51:55Z</time>
      </trkpt>
      <trkpt lat="42.4126720" lon="-2.6104650">
        <ele>589.1</ele>
        <time>2020-03-31T17:51:57Z</time>
      </trkpt>
      <trkpt lat="42.4126350" lon="-2.6106230">
        <ele>589.3</ele>
        <time>2020-03-31T17:51:59Z</time>
      </trkpt>
      <trkpt lat="42.4125970" lon="-2.6107820">
        <ele>589.6</ele>
        <time>2020-03-31T17:52:01Z</time>
      </trkpt>
      <trkpt lat="42.4125600" lon="-2.6109410">
        <ele>590.0</ele>
        <time>2020-03-31T17:52:03Z</time>
      </trkpt>
      <trkpt lat="42.4124780" lon="-2.6113140">
        <ele>590.6</ele>
        <time>2020-03-31T17:52:05Z</time>
      </trkpt>
      <trkpt lat="42.4124530" lon="-2.6114780">
        <ele>590.8</ele>
        <time>2020-03-31T17:52:07Z</time>
      </trkpt>
      <trkpt lat="42.4124270" lon="-2.6116420">
        <ele>590.9</ele>
        <time>2020-03-31T17:52:09Z</time>
      </trkpt>
      <trkpt lat="42.4123740" lon="-2.6119800">
        <ele>591.5</ele>
        <time>2020-03-31T17:52:11Z</time>
      </trkpt>
      <trkpt lat="42.4123490" lon="-2.6121420">
        <ele>591.7</ele>
        <time>2020-03-31T17:52:13Z</time>
      </trkpt>
      <trkpt lat="42.4123240" lon="-2.6123020">
        <ele>591.8</ele>
        <time>2020-03-31T17:52:15Z</time>
      </trkpt>
      <trkpt lat="42.4122750" lon="-2.6126360">
        <ele>592.0</ele>
        <time>2020-03-31T17:52:17Z</time>
      </trkpt>
      <trkpt lat="42.4122610" lon="-2.6127930">
        <ele>592.3</ele>
        <time>2020-03-31T17:52:19Z</time>
      </trkpt>
      <trkpt lat="42.4122470" lon="-2.6129510">
        <ele>592.6</ele>
        <time>2020-03-31T17:52:21Z</time>
      </trkpt>
      <trkpt lat="42.4122250" lon="-2.6132550">
        <ele>593.5</ele>
        <time>2020-03-31T17:52:23Z</time>
      </trkpt>
      <trkpt lat="42.4122190" lon="-2.6134100">
        <ele>594.0</ele>
        <time>2020-03-31T17:52:25Z</time>
      </trkpt>
      <trkpt lat="42.4122130" lon="-2.6135660">
        <ele>594.4</ele>
        <time>2020-03-31T17:52:27Z</time>
      </trkpt>
      <trkpt lat="42.4122070" lon="-2.6137230">
        <ele>594.9</ele>
        <time>2020-03-31T17:52:29Z</time>
      </trkpt>
      <trkpt lat="42.4122010" lon="-2.6138790">
        <ele>595.4</ele>
        <time>2020-03-31T17:52:31Z</time>
      </trkpt>
      <trkpt lat="42.4121880" lon="-2.6143010">
        <ele>597.1</ele>
        <time>2020-03-31T17:52:33Z</time>
      </trkpt>
      <trkpt lat="42.4121850" lon="-2.6144650">
        <ele>597.4</ele>
        <time>2020-03-31T17:52:35Z</time>
      </trkpt>
      <trkpt lat="42.4121830" lon="-2.6146330">
        <ele>597.7</ele>
        <time>2020-03-31T17:52:37Z</time>
      </trkpt>
      <trkpt lat="42.4121800" lon="-2.6148060">
        <ele>597.9</ele>
        <time>2020-03-31T17:52:39Z</time>
      </trkpt>
      <trkpt lat="42.4121780" lon="-2.6149810">
        <ele>598.0</ele>
        <time>2020-03-31T17:52:41Z</time>
      </trkpt>
      <trkpt lat="42.4121700" lon="-2.6154720">
        <ele>598.5</ele>
        <time>2020-03-31T17:52:43Z</time>
      </trkpt>
      <trkpt lat="42.4121670" lon="-2.6156500">
        <ele>598.6</ele>
        <time>2020-03-31T17:52:45Z</time>
      </trkpt>
      <trkpt lat="42.4121650" lon="-2.6158300">
        <ele>598.6</ele>
        <time>2020-03-31T17:52:47Z</time>
      </trkpt>
      <trkpt lat="42.4121620" lon="-2.6160110">
        <ele>598.7</ele>
        <time>2020-03-31T17:52:49Z</time>
      </trkpt>
      <trkpt lat="42.4121590" lon="-2.6161920">
        <ele>598.8</ele>
        <time>2020-03-31T17:52:51Z</time>
      </trkpt>
      <trkpt lat="42.4121520" lon="-2.6166890">
        <ele>599.1</ele>
        <time>2020-03-31T17:52:53Z</time>
      </trkpt>
      <trkpt lat="42.4121490" lon="-2.6168720">
        <ele>599.3</ele>
        <time>2020-03-31T17:52:55Z</time>
      </trkpt>
      <trkpt lat="42.4121460" lon="-2.6170560">
        <ele>599.4</ele>
        <time>2020-03-31T17:52:57Z</time>
      </trkpt>
      <trkpt lat="42.4121440" lon="-2.6172390">
        <ele>599.4</ele>
        <time>2020-03-31T17:52:59Z</time>
      </trkpt>
      <trkpt lat="42.4121410" lon="-2.6174230">
        <ele>599.5</ele>
        <time>2020-03-31T17:53:01Z</time>
      </trkpt>
      <trkpt lat="42.4121330" lon="-2.6179160">
        <ele>599.8</ele>
        <time>2020-03-31T17:53:03Z</time>
      </trkpt>
      <trkpt lat="42.4121310" lon="-2.6180850">
        <ele>600.0</ele>
        <time>2020-03-31T17:53:05Z</time>
      </trkpt>
      <trkpt lat="42.4121280" lon="-2.6182460">
        <ele>600.4</ele>
        <time>2020-03-31T17:53:07Z</time>
      </trkpt>
      <trkpt lat="42.4121260" lon="-2.6184030">
        <ele>600.8</ele>
        <time>2020-03-31T17:53:09Z</time>
      </trkpt>
      <trkpt lat="42.4121240" lon="-2.6185570">
        <ele>601.0</ele>
        <time>2020-03-31T17:53:11Z</time>
      </trkpt>
      <trkpt lat="42.4121170" lon="-2.6190190">
        <ele>602.1</ele>
        <time>2020-03-31T17:53:13Z</time>
      </trkpt>
      <trkpt lat="42.4121150" lon="-2.6191660">
        <ele>602.5</ele>
        <time>2020-03-31T17:53:15Z</time>
      </trkpt>
      <trkpt lat="42.4121120" lon="-2.6193120">
        <ele>603.1</ele>
        <time>2020-03-31T17:53:17Z</time>
      </trkpt>
      <trkpt lat="42.4121100" lon="-2.6194560">
        <ele>603.7</ele>
        <time>2020-03-31T17:53:19Z</time>
      </trkpt>
      <trkpt lat="42.4121080" lon="-2.6195980">
        <ele>604.4</ele>
        <time>2020-03-31T17:53:21Z</time>
      </trkpt>
      <trkpt lat="42.4121060" lon="-2.6197400">
        <ele>605.0</ele>
        <time>2020-03-31T17:53:23Z</time>
      </trkpt>
      <trkpt lat="42.4120950" lon="-2.6201950">
        <ele>607.2</ele>
        <time>2020-03-31T17:53:25Z</time>
      </trkpt>
      <trkpt lat="42.4120830" lon="-2.6203380">
        <ele>607.9</ele>
        <time>2020-03-31T17:53:27Z</time>
      </trkpt>
      <trkpt lat="42.4120600" lon="-2.6206050">
        <ele>609.3</ele>
        <time>2020-03-31T17:53:29Z</time>
      </trkpt>
      <trkpt lat="42.4120530" lon="-2.6207550">
        <ele>610.4</ele>
        <time>2020-03-31T17:53:31Z</time>
      </trkpt>
      <trkpt lat="42.4120470" lon="-2.6209070">
        <ele>611.3</ele>
        <time>2020-03-31T17:53:33Z</time>
      </trkpt>
      <trkpt lat="42.4120420" lon="-2.6211810">
        <ele>612.3</ele>
        <time>2020-03-31T17:53:35Z</time>
      </trkpt>
      <trkpt lat="42.4120440" lon="-2.6213350">
        <ele>612.5</ele>
        <time>2020-03-31T17:53:37Z</time>
      </trkpt>
      <trkpt lat="42.4120470" lon="-2.6214890">
        <ele>612.5</ele>
        <time>2020-03-31T17:53:39Z</time>
      </trkpt>
      <trkpt lat="42.4120610" lon="-2.6218100">
        <ele>611.5</ele>
        <time>2020-03-31T17:53:41Z</time>
      </trkpt>
      <trkpt lat="42.4120770" lon="-2.6219920">
        <ele>610.5</ele>
        <time>2020-03-31T17:53:43Z</time>
      </trkpt>
      <trkpt lat="42.4120940" lon="-2.6221890">
        <ele>609.5</ele>
        <time>2020-03-31T17:53:45Z</time>
      </trkpt>
      <trkpt lat="42.4120070" lon="-2.6225860">
        <ele>607.1</ele>
        <time>2020-03-31T17:53:47Z</time>
      </trkpt>
      <trkpt lat="42.4119750" lon="-2.6228310">
        <ele>606.6</ele>
        <time>2020-03-31T17:53:49Z</time>
      </trkpt>
      <trkpt lat="42.4119840" lon="-2.6230510">
        <ele>606.4</ele>
        <time>2020-03-31T17:53:51Z</time>
      </trkpt>
      <trkpt lat="42.4119810" lon="-2.6233970">
        <ele>606.3</ele>
        <time>2020-03-31T17:53:53Z</time>
      </trkpt>
      <trkpt lat="42.4119720" lon="-2.6236000">
        <ele>606.4</ele>
        <time>2020-03-31T17:53:55Z</time>
      </trkpt>
      <trkpt lat="42.4119510" lon="-2.6239670">
        <ele>606.7</ele>
        <time>2020-03-31T17:53:57Z</time>
      </trkpt>
      <trkpt lat="42.4119350" lon="-2.6241510">
        <ele>606.9</ele>
        <time>2020-03-31T17:53:59Z</time>
      </trkpt>
      <trkpt lat="42.4119190" lon="-2.6243280">
        <ele>607.1</ele>
        <time>2020-03-31T17:54:01Z</time>
      </trkpt>
      <trkpt lat="42.4119040" lon="-2.6244980">
        <ele>607.3</ele>
        <time>2020-03-31T17:54:03Z</time>
      </trkpt>
      <trkpt lat="42.4118900" lon="-2.6246650">
        <ele>607.6</ele>
        <time>2020-03-31T17:54:05Z</time>
      </trkpt>
      <trkpt lat="42.4118540" lon="-2.6251220">
        <ele>608.3</ele>
        <time>2020-03-31T17:54:07Z</time>
      </trkpt>
      <trkpt lat="42.4118460" lon="-2.6252790">
        <ele>608.6</ele>
        <time>2020-03-31T17:54:09Z</time>
      </trkpt>
      <trkpt lat="42.4118390" lon="-2.6254320">
        <ele>608.9</ele>
        <time>2020-03-31T17:54:11Z</time>
      </trkpt>
      <trkpt lat="42.4118310" lon="-2.6255810">
        <ele>609.2</ele>
        <time>2020-03-31T17:54:13Z</time>
      </trkpt>
      <trkpt lat="42.4118130" lon="-2.6259550">
        <ele>610.0</ele>
        <time>2020-03-31T17:54:15Z</time>
      </trkpt>
      <trkpt lat="42.4118050" lon="-2.6261000">
        <ele>610.4</ele>
        <time>2020-03-31T17:54:17Z</time>
      </trkpt>
      <trkpt lat="42.4117980" lon="-2.6262410">
        <ele>610.7</ele>
        <time>2020-03-31T17:54:19Z</time>
      </trkpt>
      <trkpt lat="42.4117910" lon="-2.6263820">
        <ele>610.9</ele>
        <time>2020-03-31T17:54:21Z</time>
      </trkpt>
      <trkpt lat="42.4117730" lon="-2.6267500">
        <ele>611.8</ele>
        <time>2020-03-31T17:54:23Z</time>
      </trkpt>
      <trkpt lat="42.4117660" lon="-2.6268910">
        <ele>612.1</ele>
        <time>2020-03-31T17:54:25Z</time>
      </trkpt>
      <trkpt lat="42.4117590" lon="-2.6270350">
        <ele>612.3</ele>
        <time>2020-03-31T17:54:27Z</time>
      </trkpt>
      <trkpt lat="42.4117520" lon="-2.6271810">
        <ele>612.5</ele>
        <time>2020-03-31T17:54:29Z</time>
      </trkpt>
      <trkpt lat="42.4117440" lon="-2.6273300">
        <ele>612.6</ele>
        <time>2020-03-31T17:54:31Z</time>
      </trkpt>
      <trkpt lat="42.4117390" lon="-2.6277070">
        <ele>613.0</ele>
        <time>2020-03-31T17:54:33Z</time>
      </trkpt>
      <trkpt lat="42.4117560" lon="-2.6279360">
        <ele>613.3</ele>
        <time>2020-03-31T17:54:35Z</time>
      </trkpt>
      <trkpt lat="42.4117760" lon="-2.6280600">
        <ele>613.4</ele>
        <time>2020-03-31T17:54:37Z</time>
      </trkpt>
      <trkpt lat="42.4119080" lon="-2.6280260">
        <ele>613.3</ele>
        <time>2020-03-31T17:54:39Z</time>
      </trkpt>
      <trkpt lat="42.4120810" lon="-2.6279190">
        <ele>613.2</ele>
        <time>2020-03-31T17:54:41Z</time>
      </trkpt>
      <trkpt lat="42.4121480" lon="-2.6277830">
        <ele>613.2</ele>
        <time>2020-03-31T17:54:43Z</time>
      </trkpt>
      <trkpt lat="42.4123010" lon="-2.6276440">
        <ele>613.5</ele>
        <time>2020-03-31T17:54:45Z</time>
      </trkpt>
      <trkpt lat="42.4124570" lon="-2.6276960">
        <ele>613.6</ele>
        <time>2020-03-31T17:54:47Z</time>
      </trkpt>
      <trkpt lat="42.4125400" lon="-2.6278940">
        <ele>613.2</ele>
        <time>2020-03-31T17:54:49Z</time>
      </trkpt>
      <trkpt lat="42.4124920" lon="-2.6281150">
        <ele>612.9</ele>
        <time>2020-03-31T17:54:51Z</time>
      </trkpt>
      <trkpt lat="42.4124010" lon="-2.6282440">
        <ele>612.6</ele>
        <time>2020-03-31T17:54:53Z</time>
      </trkpt>
      <trkpt lat="42.4123110" lon="-2.6284770">
        <ele>612.1</ele>
        <time>2020-03-31T17:54:55Z</time>
      </trkpt>
      <trkpt lat="42.4123360" lon="-2.6287450">
        <ele>611.5</ele>
        <time>2020-03-31T17:54:57Z</time>
      </trkpt>
      <trkpt lat="42.4124360" lon="-2.6289580">
        <ele>611.0</ele>
        <time>2020-03-31T17:54:59Z</time>
      </trkpt>
      <trkpt lat="42.4125900" lon="-2.6291440">
        <ele>610.9</ele>
        <time>2020-03-31T17:55:01Z</time>
      </trkpt>
      <trkpt lat="42.4127210" lon="-2.6291970">
        <ele>611.0</ele>
        <time>2020-03-31T17:55:03Z</time>
      </trkpt>
      <trkpt lat="42.4128470" lon="-2.6292480">
        <ele>611.3</ele>
        <time>2020-03-31T17:55:05Z</time>
      </trkpt>
      <trkpt lat="42.4130680" lon="-2.6293640">
        <ele>611.9</ele>
        <time>2020-03-31T17:55:07Z</time>
      </trkpt>
      <trkpt lat="42.4131960" lon="-2.6294990">
        <ele>612.3</ele>
        <time>2020-03-31T17:55:09Z</time>
      </trkpt>
      <trkpt lat="42.4132780" lon="-2.6296130">
        <ele>612.7</ele>
        <time>2020-03-31T17:55:11Z</time>
      </trkpt>
      <trkpt lat="42.4133920" lon="-2.6298170">
        <ele>613.2</ele>
        <time>2020-03-31T17:55:13Z</time>
      </trkpt>
      <trkpt lat="42.4134500" lon="-2.6299480">
        <ele>613.5</ele>
        <time>2020-03-31T17:55:15Z</time>
      </trkpt>
      <trkpt lat="42.4135070" lon="-2.6300770">
        <ele>613.7</ele>
        <time>2020-03-31T17:55:17Z</time>
      </trkpt>
      <trkpt lat="42.4135630" lon="-2.6302050">
        <ele>614.0</ele>
        <time>2020-03-31T17:55:19Z</time>
      </trkpt>
      <trkpt lat="42.4136190" lon="-2.6303320">
        <ele>614.2</ele>
        <time>2020-03-31T17:55:21Z</time>
      </trkpt>
      <trkpt lat="42.4137800" lon="-2.6306950">
        <ele>614.9</ele>
        <time>2020-03-31T17:55:23Z</time>
      </trkpt>
      <trkpt lat="42.4138350" lon="-2.6308190">
        <ele>615.1</ele>
        <time>2020-03-31T17:55:25Z</time>
      </trkpt>
      <trkpt lat="42.4138900" lon="-2.6309440">
        <ele>615.3</ele>
        <time>2020-03-31T17:55:27Z</time>
      </trkpt>
      <trkpt lat="42.4139450" lon="-2.6310680">
        <ele>615.5</ele>
        <time>2020-03-31T17:55:29Z</time>
      </trkpt>
      <trkpt lat="42.4140000" lon="-2.6311920">
        <ele>615.7</ele>
        <time>2020-03-31T17:55:31Z</time>
      </trkpt>
      <trkpt lat="42.4141620" lon="-2.6315590">
        <ele>616.3</ele>
        <time>2020-03-31T17:55:33Z</time>
      </trkpt>
      <trkpt lat="42.4142200" lon="-2.6316890">
        <ele>616.5</ele>
        <time>2020-03-31T17:55:35Z</time>
      </trkpt>
      <trkpt lat="42.4142790" lon="-2.6318220">
        <ele>616.8</ele>
        <time>2020-03-31T17:55:37Z</time>
      </trkpt>
      <trkpt lat="42.4143380" lon="-2.6319560">
        <ele>617.1</ele>
        <time>2020-03-31T17:55:39Z</time>
      </trkpt>
      <trkpt lat="42.4143980" lon="-2.6320910">
        <ele>617.5</ele>
        <time>2020-03-31T17:55:41Z</time>
      </trkpt>
      <trkpt lat="42.4145630" lon="-2.6324660">
        <ele>618.7</ele>
        <time>2020-03-31T17:55:43Z</time>
      </trkpt>
      <trkpt lat="42.4146240" lon="-2.6326030">
        <ele>619.1</ele>
        <time>2020-03-31T17:55:45Z</time>
      </trkpt>
      <trkpt lat="42.4146840" lon="-2.6327390">
        <ele>619.5</ele>
        <time>2020-03-31T17:55:47Z</time>
      </trkpt>
      <trkpt lat="42.4147450" lon="-2.6328770">
        <ele>619.8</ele>
        <time>2020-03-31T17:55:49Z</time>
      </trkpt>
      <trkpt lat="42.4148070" lon="-2.6330160">
        <ele>620.1</ele>
        <time>2020-03-31T17:55:51Z</time>
      </trkpt>
      <trkpt lat="42.4149730" lon="-2.6333920">
        <ele>620.7</ele>
        <time>2020-03-31T17:55:53Z</time>
      </trkpt>
      <trkpt lat="42.4150330" lon="-2.6335320">
        <ele>620.9</ele>
        <time>2020-03-31T17:55:55Z</time>
      </trkpt>
      <trkpt lat="42.4150940" lon="-2.6336720">
        <ele>621.3</ele>
        <time>2020-03-31T17:55:57Z</time>
      </trkpt>
      <trkpt lat="42.4151560" lon="-2.6338120">
        <ele>621.7</ele>
        <time>2020-03-31T17:55:59Z</time>
      </trkpt>
      <trkpt lat="42.4152170" lon="-2.6339540">
        <ele>622.2</ele>
        <time>2020-03-31T17:56:01Z</time>
      </trkpt>
      <trkpt lat="42.4153940" lon="-2.6343600">
        <ele>623.6</ele>
        <time>2020-03-31T17:56:03Z</time>
      </trkpt>
      <trkpt lat="42.4154560" lon="-2.6345020">
        <ele>624.0</ele>
        <time>2020-03-31T17:56:05Z</time>
      </trkpt>
      <trkpt lat="42.4155180" lon="-2.6346450">
        <ele>624.2</ele>
        <time>2020-03-31T17:56:07Z</time>
      </trkpt>
      <trkpt lat="42.4155800" lon="-2.6347870">
        <ele>624.4</ele>
        <time>2020-03-31T17:56:09Z</time>
      </trkpt>
      <trkpt lat="42.4156420" lon="-2.6349300">
        <ele>624.6</ele>
        <time>2020-03-31T17:56:11Z</time>
      </trkpt>
      <trkpt lat="42.4157040" lon="-2.6350710">
        <ele>624.6</ele>
        <time>2020-03-31T17:56:13Z</time>
      </trkpt>
      <trkpt lat="42.4158790" lon="-2.6354750">
        <ele>625.1</ele>
        <time>2020-03-31T17:56:15Z</time>
      </trkpt>
      <trkpt lat="42.4159390" lon="-2.6356120">
        <ele>625.5</ele>
        <time>2020-03-31T17:56:17Z</time>
      </trkpt>
      <trkpt lat="42.4159980" lon="-2.6357460">
        <ele>625.9</ele>
        <time>2020-03-31T17:56:19Z</time>
      </trkpt>
      <trkpt lat="42.4160550" lon="-2.6358770">
        <ele>626.4</ele>
        <time>2020-03-31T17:56:21Z</time>
      </trkpt>
      <trkpt lat="42.4161110" lon="-2.6360080">
        <ele>626.9</ele>
        <time>2020-03-31T17:56:23Z</time>
      </trkpt>
      <trkpt lat="42.4162820" lon="-2.6364000">
        <ele>628.0</ele>
        <time>2020-03-31T17:56:25Z</time>
      </trkpt>
      <trkpt lat="42.4163380" lon="-2.6365280">
        <ele>628.3</ele>
        <time>2020-03-31T17:56:27Z</time>
      </trkpt>
      <trkpt lat="42.4163930" lon="-2.6366560">
        <ele>628.7</ele>
        <time>2020-03-31T17:56:29Z</time>
      </trkpt>
      <trkpt lat="42.4164490" lon="-2.6367830">
        <ele>629.1</ele>
        <time>2020-03-31T17:56:31Z</time>
      </trkpt>
      <trkpt lat="42.4165050" lon="-2.6369110">
        <ele>629.6</ele>
        <time>2020-03-31T17:56:33Z</time>
      </trkpt>
      <trkpt lat="42.4165600" lon="-2.6370370">
        <ele>630.1</ele>
        <time>2020-03-31T17:56:35Z</time>
      </trkpt>
      <trkpt lat="42.4167250" lon="-2.6374300">
        <ele>631.7</ele>
        <time>2020-03-31T17:56:37Z</time>
      </trkpt>
      <trkpt lat="42.4167720" lon="-2.6375610">
        <ele>632.2</ele>
        <time>2020-03-31T17:56:39Z</time>
      </trkpt>
      <trkpt lat="42.4168180" lon="-2.6376930">
        <ele>632.7</ele>
        <time>2020-03-31T17:56:41Z</time>
      </trkpt>
      <trkpt lat="42.4168650" lon="-2.6378240">
        <ele>633.2</ele>
        <time>2020-03-31T17:56:43Z</time>
      </trkpt>
      <trkpt lat="42.4169120" lon="-2.6379550">
        <ele>633.7</ele>
        <time>2020-03-31T17:56:45Z</time>
      </trkpt>
      <trkpt lat="42.4169580" lon="-2.6380870">
        <ele>634.3</ele>
        <time>2020-03-31T17:56:47Z</time>
      </trkpt>
      <trkpt lat="42.4170960" lon="-2.6384750">
        <ele>635.8</ele>
        <time>2020-03-31T17:56:49Z</time>
      </trkpt>
      <trkpt lat="42.4171430" lon="-2.6386070">
        <ele>636.4</ele>
        <time>2020-03-31T17:56:51Z</time>
      </trkpt>
      <trkpt lat="42.4171900" lon="-2.6387390">
        <ele>636.9</ele>
        <time>2020-03-31T17:56:53Z</time>
      </trkpt>
      <trkpt lat="42.4172360" lon="-2.6388700">
        <ele>637.4</ele>
        <time>2020-03-31T17:56:55Z</time>
      </trkpt>
      <trkpt lat="42.4172820" lon="-2.6389980">
        <ele>637.9</ele>
        <time>2020-03-31T17:56:57Z</time>
      </trkpt>
      <trkpt lat="42.4174160" lon="-2.6393880">
        <ele>639.0</ele>
        <time>2020-03-31T17:56:59Z</time>
      </trkpt>
      <trkpt lat="42.4174520" lon="-2.6395230">
        <ele>639.4</ele>
        <time>2020-03-31T17:57:01Z</time>
      </trkpt>
      <trkpt lat="42.4174880" lon="-2.6396560">
        <ele>639.7</ele>
        <time>2020-03-31T17:57:03Z</time>
      </trkpt>
      <trkpt lat="42.4175230" lon="-2.6397890">
        <ele>640.2</ele>
        <time>2020-03-31T17:57:05Z</time>
      </trkpt>
      <trkpt lat="42.4175940" lon="-2.6401000">
        <ele>641.5</ele>
        <time>2020-03-31T17:57:07Z</time>
      </trkpt>
      <trkpt lat="42.4176140" lon="-2.6402370">
        <ele>642.0</ele>
        <time>2020-03-31T17:57:09Z</time>
      </trkpt>
      <trkpt lat="42.4176340" lon="-2.6403730">
        <ele>642.6</ele>
        <time>2020-03-31T17:57:11Z</time>
      </trkpt>
      <trkpt lat="42.4176800" lon="-2.6406920">
        <ele>643.8</ele>
        <time>2020-03-31T17:57:13Z</time>
      </trkpt>
      <trkpt lat="42.4176810" lon="-2.6408360">
        <ele>644.2</ele>
        <time>2020-03-31T17:57:15Z</time>
      </trkpt>
      <trkpt lat="42.4176830" lon="-2.6409840">
        <ele>644.5</ele>
        <time>2020-03-31T17:57:17Z</time>
      </trkpt>
      <trkpt lat="42.4176850" lon="-2.6411340">
        <ele>644.8</ele>
        <time>2020-03-31T17:57:19Z</time>
      </trkpt>
      <trkpt lat="42.4176860" lon="-2.6412870">
        <ele>645.2</ele>
        <time>2020-03-31T17:57:21Z</time>
      </trkpt>
      <trkpt lat="42.4176830" lon="-2.6416890">
        <ele>646.7</ele>
        <time>2020-03-31T17:57:23Z</time>
      </trkpt>
      <trkpt lat="42.4176620" lon="-2.6418420">
        <ele>647.3</ele>
        <time>2020-03-31T17:57:25Z</time>
      </trkpt>
      <trkpt lat="42.4176400" lon="-2.6419980">
        <ele>647.6</ele>
        <time>2020-03-31T17:57:27Z</time>
      </trkpt>
      <trkpt lat="42.4176180" lon="-2.6421540">
        <ele>647.8</ele>
        <time>2020-03-31T17:57:29Z</time>
      </trkpt>
      <trkpt lat="42.4175960" lon="-2.6423110">
        <ele>647.9</ele>
        <time>2020-03-31T17:57:31Z</time>
      </trkpt>
      <trkpt lat="42.4175250" lon="-2.6427240">
        <ele>648.5</ele>
        <time>2020-03-31T17:57:33Z</time>
      </trkpt>
      <trkpt lat="42.4174770" lon="-2.6428820">
        <ele>648.7</ele>
        <time>2020-03-31T17:57:35Z</time>
      </trkpt>
      <trkpt lat="42.4174280" lon="-2.6430460">
        <ele>648.7</ele>
        <time>2020-03-31T17:57:37Z</time>
      </trkpt>
      <trkpt lat="42.4173180" lon="-2.6433930">
        <ele>648.4</ele>
        <time>2020-03-31T17:57:39Z</time>
      </trkpt>
      <trkpt lat="42.4172540" lon="-2.6435520">
        <ele>648.0</ele>
        <time>2020-03-31T17:57:41Z</time>
      </trkpt>
      <trkpt lat="42.4171890" lon="-2.6437140">
        <ele>647.8</ele>
        <time>2020-03-31T17:57:43Z</time>
      </trkpt>
      <trkpt lat="42.4170580" lon="-2.6440360">
        <ele>647.3</ele>
        <time>2020-03-31T17:57:45Z</time>
      </trkpt>
      <trkpt lat="42.4169900" lon="-2.6442040">
        <ele>646.8</ele>
        <time>2020-03-31T17:57:47Z</time>
      </trkpt>
      <trkpt lat="42.4169190" lon="-2.6443780">
        <ele>646.4</ele>
        <time>2020-03-31T17:57:49Z</time>
      </trkpt>
      <trkpt lat="42.4167740" lon="-2.6447070">
        <ele>645.4</ele>
        <time>2020-03-31T17:57:51Z</time>
      </trkpt>
      <trkpt lat="42.4166920" lon="-2.6448790">
        <ele>644.9</ele>
        <time>2020-03-31T17:57:53Z</time>
      </trkpt>
      <trkpt lat="42.4165410" lon="-2.6451920">
        <ele>644.1</ele>
        <time>2020-03-31T17:57:55Z</time>
      </trkpt>
      <trkpt lat="42.4164560" lon="-2.6453680">
        <ele>643.6</ele>
        <time>2020-03-31T17:57:57Z</time>
      </trkpt>
      <trkpt lat="42.4163040" lon="-2.6456880">
        <ele>642.6</ele>
        <time>2020-03-31T17:57:59Z</time>
      </trkpt>
      <trkpt lat="42.4162210" lon="-2.6458700">
        <ele>642.0</ele>
        <time>2020-03-31T17:58:01Z</time>
      </trkpt>
      <trkpt lat="42.4161380" lon="-2.6460530">
        <ele>641.5</ele>
        <time>2020-03-31T17:58:03Z</time>
      </trkpt>
      <trkpt lat="42.4159790" lon="-2.6464040">
        <ele>640.4</ele>
        <time>2020-03-31T17:58:05Z</time>
      </trkpt>
      <trkpt lat="42.4158960" lon="-2.6465880">
        <ele>639.8</ele>
        <time>2020-03-31T17:58:07Z</time>
      </trkpt>
      <trkpt lat="42.4157350" lon="-2.6469410">
        <ele>638.6</ele>
        <time>2020-03-31T17:58:09Z</time>
      </trkpt>
      <trkpt lat="42.4156480" lon="-2.6471230">
        <ele>638.0</ele>
        <time>2020-03-31T17:58:11Z</time>
      </trkpt>
      <trkpt lat="42.4155600" lon="-2.6473070">
        <ele>637.4</ele>
        <time>2020-03-31T17:58:13Z</time>
      </trkpt>
      <trkpt lat="42.4154720" lon="-2.6474890">
        <ele>636.8</ele>
        <time>2020-03-31T17:58:15Z</time>
      </trkpt>
      <trkpt lat="42.4152540" lon="-2.6479340">
        <ele>635.6</ele>
        <time>2020-03-31T17:58:17Z</time>
      </trkpt>
      <trkpt lat="42.4151460" lon="-2.6480980">
        <ele>634.5</ele>
        <time>2020-03-31T17:58:19Z</time>
      </trkpt>
      <trkpt lat="42.4149580" lon="-2.6483740">
        <ele>633.2</ele>
        <time>2020-03-31T17:58:21Z</time>
      </trkpt>
      <trkpt lat="42.4148300" lon="-2.6485120">
        <ele>632.6</ele>
        <time>2020-03-31T17:58:23Z</time>
      </trkpt>
      <trkpt lat="42.4147070" lon="-2.6486460">
        <ele>632.1</ele>
        <time>2020-03-31T17:58:25Z</time>
      </trkpt>
      <trkpt lat="42.4144530" lon="-2.6489050">
        <ele>631.1</ele>
        <time>2020-03-31T17:58:27Z</time>
      </trkpt>
      <trkpt lat="42.4143150" lon="-2.6490080">
        <ele>630.7</ele>
        <time>2020-03-31T17:58:29Z</time>
      </trkpt>
      <trkpt lat="42.4141780" lon="-2.6491110">
        <ele>630.1</ele>
        <time>2020-03-31T17:58:31Z</time>
      </trkpt>
      <trkpt lat="42.4140420" lon="-2.6492130">
        <ele>629.5</ele>
        <time>2020-03-31T17:58:33Z</time>
      </trkpt>
      <trkpt lat="42.4137110" lon="-2.6494370">
        <ele>628.5</ele>
        <time>2020-03-31T17:58:35Z</time>
      </trkpt>
      <trkpt lat="42.4135610" lon="-2.6494950">
        <ele>627.8</ele>
        <time>2020-03-31T17:58:37Z</time>
      </trkpt>
      <trkpt lat="42.4134110" lon="-2.6495540">
        <ele>627.1</ele>
        <time>2020-03-31T17:58:39Z</time>
      </trkpt>
      <trkpt lat="42.4132610" lon="-2.6496120">
        <ele>626.7</ele>
        <time>2020-03-31T17:58:41Z</time>
      </trkpt>
      <trkpt lat="42.4129070" lon="-2.6497350">
        <ele>625.7</ele>
        <time>2020-03-31T17:58:43Z</time>
      </trkpt>
      <trkpt lat="42.4127520" lon="-2.6497720">
        <ele>625.5</ele>
        <time>2020-03-31T17:58:45Z</time>
      </trkpt>
      <trkpt lat="42.4125980" lon="-2.6498080">
        <ele>625.3</ele>
        <time>2020-03-31T17:58:47Z</time>
      </trkpt>
      <trkpt lat="42.4122670" lon="-2.6498940">
        <ele>624.1</ele>
        <time>2020-03-31T17:58:49Z</time>
      </trkpt>
      <trkpt lat="42.4121120" lon="-2.6499460">
        <ele>623.3</ele>
        <time>2020-03-31T17:58:51Z</time>
      </trkpt>
      <trkpt lat="42.4118720" lon="-2.6500410">
        <ele>622.3</ele>
        <time>2020-03-31T17:58:53Z</time>
      </trkpt>
      <trkpt lat="42.4116650" lon="-2.6501660">
        <ele>621.6</ele>
        <time>2020-03-31T17:58:55Z</time>
      </trkpt>
      <trkpt lat="42.4114620" lon="-2.6503370">
        <ele>620.8</ele>
        <time>2020-03-31T17:58:57Z</time>
      </trkpt>
      <trkpt lat="42.4112810" lon="-2.6505260">
        <ele>619.9</ele>
        <time>2020-03-31T17:58:59Z</time>
      </trkpt>
      <trkpt lat="42.4111230" lon="-2.6507320">
        <ele>619.0</ele>
        <time>2020-03-31T17:59:01Z</time>
      </trkpt>
      <trkpt lat="42.4110200" lon="-2.6508940">
        <ele>618.1</ele>
        <time>2020-03-31T17:59:03Z</time>
      </trkpt>
      <trkpt lat="42.4108860" lon="-2.6511530">
        <ele>617.6</ele>
        <time>2020-03-31T17:59:05Z</time>
      </trkpt>
      <trkpt lat="42.4108160" lon="-2.6513260">
        <ele>617.9</ele>
        <time>2020-03-31T17:59:07Z</time>
      </trkpt>
      <trkpt lat="42.4107200" lon="-2.6516110">
        <ele>618.1</ele>
        <time>2020-03-31T17:59:09Z</time>
      </trkpt>
      <trkpt lat="42.4106530" lon="-2.6518760">
        <ele>618.2</ele>
        <time>2020-03-31T17:59:11Z</time>
      </trkpt>
      <trkpt lat="42.4106160" lon="-2.6521270">
        <ele>618.2</ele>
        <time>2020-03-31T17:59:13Z</time>
      </trkpt>
      <trkpt lat="42.4106050" lon="-2.6523030">
        <ele>618.4</ele>
        <time>2020-03-31T17:59:15Z</time>
      </trkpt>
      <trkpt lat="42.4105940" lon="-2.6524760">
        <ele>618.5</ele>
        <time>2020-03-31T17:59:17Z</time>
      </trkpt>
      <trkpt lat="42.4105830" lon="-2.6526450">
        <ele>618.7</ele>
        <time>2020-03-31T17:59:19Z</time>
      </trkpt>
      <trkpt lat="42.4105660" lon="-2.6530220">
        <ele>618.9</ele>
        <time>2020-03-31T17:59:21Z</time>
      </trkpt>
      <trkpt lat="42.4105610" lon="-2.6531870">
        <ele>618.9</ele>
        <time>2020-03-31T17:59:23Z</time>
      </trkpt>
      <trkpt lat="42.4105570" lon="-2.6533510">
        <ele>618.9</ele>
        <time>2020-03-31T17:59:25Z</time>
      </trkpt>
      <trkpt lat="42.4105530" lon="-2.6535140">
        <ele>618.9</ele>
        <time>2020-03-31T17:59:27Z</time>
      </trkpt>
      <trkpt lat="42.4105490" lon="-2.6536770">
        <ele>618.9</ele>
        <time>2020-03-31T17:59:29Z</time>
      </trkpt>
      <trkpt lat="42.4105430" lon="-2.6541430">
        <ele>619.0</ele>
        <time>2020-03-31T17:59:31Z</time>
      </trkpt>
      <trkpt lat="42.4105460" lon="-2.6543100">
        <ele>619.2</ele>
        <time>2020-03-31T17:59:33Z</time>
      </trkpt>
      <trkpt lat="42.4105500" lon="-2.6544790">
        <ele>619.4</ele>
        <time>2020-03-31T17:59:35Z</time>
      </trkpt>
      <trkpt lat="42.4105530" lon="-2.6546490">
        <ele>619.7</ele>
        <time>2020-03-31T17:59:37Z</time>
      </trkpt>
      <trkpt lat="42.4105710" lon="-2.6550710">
        <ele>618.8</ele>
        <time>2020-03-31T17:59:39Z</time>
      </trkpt>
      <trkpt lat="42.4105900" lon="-2.6552450">
        <ele>618.3</ele>
        <time>2020-03-31T17:59:41Z</time>
      </trkpt>
      <trkpt lat="42.4106090" lon="-2.6554200">
        <ele>617.9</ele>
        <time>2020-03-31T17:59:43Z</time>
      </trkpt>
      <trkpt lat="42.4106290" lon="-2.6555960">
        <ele>617.7</ele>
        <time>2020-03-31T17:59:45Z</time>
      </trkpt>
      <trkpt lat="42.4106480" lon="-2.6557750">
        <ele>617.6</ele>
        <time>2020-03-31T17:59:47Z</time>
      </trkpt>
      <trkpt lat="42.4107020" lon="-2.6562650">
        <ele>617.4</ele>
        <time>2020-03-31T17:59:49Z</time>
      </trkpt>
      <trkpt lat="42.4107220" lon="-2.6564450">
        <ele>617.1</ele>
        <time>2020-03-31T17:59:51Z</time>
      </trkpt>
      <trkpt lat="42.4107420" lon="-2.6566290">
        <ele>616.7</ele>
        <time>2020-03-31T17:59:53Z</time>
      </trkpt>
      <trkpt lat="42.4107620" lon="-2.6568130">
        <ele>616.5</ele>
        <time>2020-03-31T17:59:55Z</time>
      </trkpt>
      <trkpt lat="42.4107830" lon="-2.6569990">
        <ele>616.3</ele>
        <time>2020-03-31T17:59:57Z</time>
      </trkpt>
      <trkpt lat="42.4108370" lon="-2.6574940">
        <ele>615.6</ele>
        <time>2020-03-31T17:59:59Z</time>
      </trkpt>
      <trkpt lat="42.4108570" lon="-2.6576810">
        <ele>615.5</ele>
        <time>2020-03-31T18:00:01Z</time>
      </trkpt>
      <trkpt lat="42.4108780" lon="-2.6578680">
        <ele>615.4</ele>
        <time>2020-03-31T18:00:03Z</time>
      </trkpt>
      <trkpt lat="42.4108990" lon="-2.6580560">
        <ele>615.2</ele>
        <time>2020-03-31T18:00:05Z</time>
      </trkpt>
      <trkpt lat="42.4109530" lon="-2.6585550">
        <ele>614.8</ele>
        <time>2020-03-31T18:00:07Z</time>
      </trkpt>
      <trkpt lat="42.4109740" lon="-2.6587450">
        <ele>614.5</ele>
        <time>2020-03-31T18:00:09Z</time>
      </trkpt>
      <trkpt lat="42.4109950" lon="-2.6589350">
        <ele>614.1</ele>
        <time>2020-03-31T18:00:11Z</time>
      </trkpt>
      <trkpt lat="42.4110160" lon="-2.6591270">
        <ele>613.8</ele>
        <time>2020-03-31T18:00:13Z</time>
      </trkpt>
      <trkpt lat="42.4110370" lon="-2.6593200">
        <ele>613.4</ele>
        <time>2020-03-31T18:00:15Z</time>
      </trkpt>
      <trkpt lat="42.4110860" lon="-2.6598250">
        <ele>612.8</ele>
        <time>2020-03-31T18:00:17Z</time>
      </trkpt>
      <trkpt lat="42.4110970" lon="-2.6600200">
        <ele>612.4</ele>
        <time>2020-03-31T18:00:19Z</time>
      </trkpt>
      <trkpt lat="42.4111080" lon="-2.6602160">
        <ele>612.2</ele>
        <time>2020-03-31T18:00:21Z</time>
      </trkpt>
      <trkpt lat="42.4111250" lon="-2.6606000">
        <ele>611.5</ele>
        <time>2020-03-31T18:00:23Z</time>
      </trkpt>
      <trkpt lat="42.4111320" lon="-2.6607990">
        <ele>611.4</ele>
        <time>2020-03-31T18:00:25Z</time>
      </trkpt>
      <trkpt lat="42.4111380" lon="-2.6609980">
        <ele>610.8</ele>
        <time>2020-03-31T18:00:27Z</time>
      </trkpt>
      <trkpt lat="42.4111500" lon="-2.6614140">
        <ele>608.9</ele>
        <time>2020-03-31T18:00:29Z</time>
      </trkpt>
      <trkpt lat="42.4111560" lon="-2.6616160">
        <ele>608.6</ele>
        <time>2020-03-31T18:00:31Z</time>
      </trkpt>
      <trkpt lat="42.4111630" lon="-2.6618170">
        <ele>608.4</ele>
        <time>2020-03-31T18:00:33Z</time>
      </trkpt>
      <trkpt lat="42.4111750" lon="-2.6622330">
        <ele>608.3</ele>
        <time>2020-03-31T18:00:35Z</time>
      </trkpt>
      <trkpt lat="42.4111810" lon="-2.6624290">
        <ele>608.4</ele>
        <time>2020-03-31T18:00:37Z</time>
      </trkpt>
      <trkpt lat="42.4111870" lon="-2.6626240">
        <ele>608.4</ele>
        <time>2020-03-31T18:00:39Z</time>
      </trkpt>
      <trkpt lat="42.4112010" lon="-2.6630770">
        <ele>608.4</ele>
        <time>2020-03-31T18:00:41Z</time>
      </trkpt>
      <trkpt lat="42.4112070" lon="-2.6632710">
        <ele>608.3</ele>
        <time>2020-03-31T18:00:43Z</time>
      </trkpt>
      <trkpt lat="42.4112120" lon="-2.6634650">
        <ele>608.2</ele>
        <time>2020-03-31T18:00:45Z</time>
      </trkpt>
      <trkpt lat="42.4112180" lon="-2.6636600">
        <ele>608.0</ele>
        <time>2020-03-31T18:00:47Z</time>
      </trkpt>
      <trkpt lat="42.4112320" lon="-2.6641160">
        <ele>606.9</ele>
        <time>2020-03-31T18:00:49Z</time>
      </trkpt>
      <trkpt lat="42.4112380" lon="-2.6643230">
        <ele>606.1</ele>
        <time>2020-03-31T18:00:51Z</time>
      </trkpt>
      <trkpt lat="42.4112450" lon="-2.6645420">
        <ele>605.2</ele>
        <time>2020-03-31T18:00:53Z</time>
      </trkpt>
      <trkpt lat="42.4112520" lon="-2.6647700">
        <ele>604.3</ele>
        <time>2020-03-31T18:00:55Z</time>
      </trkpt>
      <trkpt lat="42.4112670" lon="-2.6652670">
        <ele>601.7</ele>
        <time>2020-03-31T18:00:57Z</time>
      </trkpt>
      <trkpt lat="42.4112740" lon="-2.6655100">
        <ele>600.4</ele>
        <time>2020-03-31T18:00:59Z</time>
      </trkpt>
      <trkpt lat="42.4112820" lon="-2.6657570">
        <ele>599.2</ele>
        <time>2020-03-31T18:01:01Z</time>
      </trkpt>
      <trkpt lat="42.4112970" lon="-2.6662660">
        <ele>596.6</ele>
        <time>2020-03-31T18:01:03Z</time>
      </trkpt>
      <trkpt lat="42.4113040" lon="-2.6665140">
        <ele>595.5</ele>
        <time>2020-03-31T18:01:05Z</time>
      </trkpt>
      <trkpt lat="42.4113120" lon="-2.6667610">
        <ele>594.5</ele>
        <time>2020-03-31T18:01:07Z</time>
      </trkpt>
      <trkpt lat="42.4113370" lon="-2.6672640">
        <ele>592.8</ele>
        <time>2020-03-31T18:01:09Z</time>
      </trkpt>
      <trkpt lat="42.4113540" lon="-2.6674960">
        <ele>592.0</ele>
        <time>2020-03-31T18:01:11Z</time>
      </trkpt>
      <trkpt lat="42.4113860" lon="-2.6679350">
        <ele>590.4</ele>
        <time>2020-03-31T18:01:13Z</time>
      </trkpt>
      <trkpt lat="42.4114040" lon="-2.6681740">
        <ele>589.3</ele>
        <time>2020-03-31T18:01:15Z</time>
      </trkpt>
      <trkpt lat="42.4114370" lon="-2.6686020">
        <ele>587.4</ele>
        <time>2020-03-31T18:01:17Z</time>
      </trkpt>
      <trkpt lat="42.4114610" lon="-2.6688310">
        <ele>586.7</ele>
        <time>2020-03-31T18:01:19Z</time>
      </trkpt>
      <trkpt lat="42.4114840" lon="-2.6690610">
        <ele>586.0</ele>
        <time>2020-03-31T18:01:21Z</time>
      </trkpt>
      <trkpt lat="42.4115350" lon="-2.6695230">
        <ele>584.9</ele>
        <time>2020-03-31T18:01:23Z</time>
      </trkpt>
      <trkpt lat="42.4115640" lon="-2.6697490">
        <ele>584.3</ele>
        <time>2020-03-31T18:01:25Z</time>
      </trkpt>
      <trkpt lat="42.4115930" lon="-2.6699700">
        <ele>583.8</ele>
        <time>2020-03-31T18:01:27Z</time>
      </trkpt>
      <trkpt lat="42.4116220" lon="-2.6701910">
        <ele>583.3</ele>
        <time>2020-03-31T18:01:29Z</time>
      </trkpt>
      <trkpt lat="42.4116880" lon="-2.6706970">
        <ele>582.2</ele>
        <time>2020-03-31T18:01:31Z</time>
      </trkpt>
      <trkpt lat="42.4117170" lon="-2.6709150">
        <ele>581.7</ele>
        <time>2020-03-31T18:01:33Z</time>
      </trkpt>
      <trkpt lat="42.4117450" lon="-2.6711350">
        <ele>581.3</ele>
        <time>2020-03-31T18:01:35Z</time>
      </trkpt>
      <trkpt lat="42.4118120" lon="-2.6716450">
        <ele>580.1</ele>
        <time>2020-03-31T18:01:37Z</time>
      </trkpt>
      <trkpt lat="42.4118410" lon="-2.6718650">
        <ele>579.6</ele>
        <time>2020-03-31T18:01:39Z</time>
      </trkpt>
      <trkpt lat="42.4118690" lon="-2.6720800">
        <ele>579.0</ele>
        <time>2020-03-31T18:01:41Z</time>
      </trkpt>
      <trkpt lat="42.4118970" lon="-2.6722920">
        <ele>578.5</ele>
        <time>2020-03-31T18:01:43Z</time>
      </trkpt>
      <trkpt lat="42.4119610" lon="-2.6727900">
        <ele>577.4</ele>
        <time>2020-03-31T18:01:45Z</time>
      </trkpt>
      <trkpt lat="42.4119870" lon="-2.6730000">
        <ele>577.3</ele>
        <time>2020-03-31T18:01:47Z</time>
      </trkpt>
      <trkpt lat="42.4120130" lon="-2.6732080">
        <ele>577.2</ele>
        <time>2020-03-31T18:01:49Z</time>
      </trkpt>
      <trkpt lat="42.4120640" lon="-2.6736180">
        <ele>576.8</ele>
        <time>2020-03-31T18:01:51Z</time>
      </trkpt>
      <trkpt lat="42.4120900" lon="-2.6738290">
        <ele>576.3</ele>
        <time>2020-03-31T18:01:53Z</time>
      </trkpt>
      <trkpt lat="42.4121390" lon="-2.6742410">
        <ele>575.5</ele>
        <time>2020-03-31T18:01:55Z</time>
      </trkpt>
      <trkpt lat="42.4121190" lon="-2.6744570">
        <ele>575.1</ele>
        <time>2020-03-31T18:01:57Z</time>
      </trkpt>
      <trkpt lat="42.4120990" lon="-2.6746740">
        <ele>574.6</ele>
        <time>2020-03-31T18:01:59Z</time>
      </trkpt>
      <trkpt lat="42.4120510" lon="-2.6750890">
        <ele>573.3</ele>
        <time>2020-03-31T18:02:01Z</time>
      </trkpt>
      <trkpt lat="42.4120080" lon="-2.6753060">
        <ele>572.6</ele>
        <time>2020-03-31T18:02:03Z</time>
      </trkpt>
      <trkpt lat="42.4119640" lon="-2.6755280">
        <ele>572.0</ele>
        <time>2020-03-31T18:02:05Z</time>
      </trkpt>
      <trkpt lat="42.4119200" lon="-2.6757530">
        <ele>571.4</ele>
        <time>2020-03-31T18:02:07Z</time>
      </trkpt>
      <trkpt lat="42.4118190" lon="-2.6762670">
        <ele>569.4</ele>
        <time>2020-03-31T18:02:09Z</time>
      </trkpt>
      <trkpt lat="42.4117740" lon="-2.6764960">
        <ele>568.4</ele>
        <time>2020-03-31T18:02:11Z</time>
      </trkpt>
      <trkpt lat="42.4117280" lon="-2.6767280">
        <ele>567.4</ele>
        <time>2020-03-31T18:02:13Z</time>
      </trkpt>
      <trkpt lat="42.4116260" lon="-2.6772480">
        <ele>565.1</ele>
        <time>2020-03-31T18:02:15Z</time>
      </trkpt>
      <trkpt lat="42.4115810" lon="-2.6774780">
        <ele>564.2</ele>
        <time>2020-03-31T18:02:17Z</time>
      </trkpt>
      <trkpt lat="42.4115360" lon="-2.6777060">
        <ele>563.3</ele>
        <time>2020-03-31T18:02:19Z</time>
      </trkpt>
      <trkpt lat="42.4114920" lon="-2.6779330">
        <ele>562.3</ele>
        <time>2020-03-31T18:02:21Z</time>
      </trkpt>
      <trkpt lat="42.4113910" lon="-2.6784450">
        <ele>560.6</ele>
        <time>2020-03-31T18:02:23Z</time>
      </trkpt>
      <trkpt lat="42.4113470" lon="-2.6786710">
        <ele>559.9</ele>
        <time>2020-03-31T18:02:25Z</time>
      </trkpt>
      <trkpt lat="42.4113020" lon="-2.6788960">
        <ele>559.3</ele>
        <time>2020-03-31T18:02:27Z</time>
      </trkpt>
      <trkpt lat="42.4112010" lon="-2.6794100">
        <ele>557.9</ele>
        <time>2020-03-31T18:02:29Z</time>
      </trkpt>
      <trkpt lat="42.4111580" lon="-2.6796290">
        <ele>557.4</ele>
        <time>2020-03-31T18:02:31Z</time>
      </trkpt>
      <trkpt lat="42.4111180" lon="-2.6798340">
        <ele>556.9</ele>
        <time>2020-03-31T18:02:33Z</time>
      </trkpt>
      <trkpt lat="42.4110790" lon="-2.6800300">
        <ele>556.5</ele>
        <time>2020-03-31T18:02:35Z</time>
      </trkpt>
      <trkpt lat="42.4109850" lon="-2.6805090">
        <ele>556.2</ele>
        <time>2020-03-31T18:02:37Z</time>
      </trkpt>
      <trkpt lat="42.4109480" lon="-2.6806990">
        <ele>556.2</ele>
        <time>2020-03-31T18:02:39Z</time>
      </trkpt>
      <trkpt lat="42.4109110" lon="-2.6808880">
        <ele>556.1</ele>
        <time>2020-03-31T18:02:41Z</time>
      </trkpt>
      <trkpt lat="42.4108740" lon="-2.6810760">
        <ele>556.1</ele>
        <time>2020-03-31T18:02:43Z</time>
      </trkpt>
      <trkpt lat="42.4108370" lon="-2.6812630">
        <ele>555.9</ele>
        <time>2020-03-31T18:02:45Z</time>
      </trkpt>
      <trkpt lat="42.4107440" lon="-2.6817380">
        <ele>555.3</ele>
        <time>2020-03-31T18:02:47Z</time>
      </trkpt>
      <trkpt lat="42.4107070" lon="-2.6819250">
        <ele>555.2</ele>
        <time>2020-03-31T18:02:49Z</time>
      </trkpt>
      <trkpt lat="42.4106700" lon="-2.6821130">
        <ele>555.1</ele>
        <time>2020-03-31T18:02:51Z</time>
      </trkpt>
      <trkpt lat="42.4106330" lon="-2.6823000">
        <ele>555.0</ele>
        <time>2020-03-31T18:02:53Z</time>
      </trkpt>
      <trkpt lat="42.4105400" lon="-2.6827750">
        <ele>554.4</ele>
        <time>2020-03-31T18:02:55Z</time>
      </trkpt>
      <trkpt lat="42.4105030" lon="-2.6829600">
        <ele>554.3</ele>
        <time>2020-03-31T18:02:57Z</time>
      </trkpt>
      <trkpt lat="42.4104680" lon="-2.6831390">
        <ele>554.2</ele>
        <time>2020-03-31T18:02:59Z</time>
      </trkpt>
      <trkpt lat="42.4104330" lon="-2.6833190">
        <ele>554.2</ele>
        <time>2020-03-31T18:03:01Z</time>
      </trkpt>
      <trkpt lat="42.4103980" lon="-2.6834980">
        <ele>554.2</ele>
        <time>2020-03-31T18:03:03Z</time>
      </trkpt>
      <trkpt lat="42.4103060" lon="-2.6839630">
        <ele>554.2</ele>
        <time>2020-03-31T18:03:05Z</time>
      </trkpt>
      <trkpt lat="42.4102710" lon="-2.6841410">
        <ele>554.2</ele>
        <time>2020-03-31T18:03:07Z</time>
      </trkpt>
      <trkpt lat="42.4102360" lon="-2.6843180">
        <ele>554.2</ele>
        <time>2020-03-31T18:03:09Z</time>
      </trkpt>
      <trkpt lat="42.4102020" lon="-2.6844950">
        <ele>554.1</ele>
        <time>2020-03-31T18:03:11Z</time>
      </trkpt>
      <trkpt lat="42.4101100" lon="-2.6849580">
        <ele>553.3</ele>
        <time>2020-03-31T18:03:13Z</time>
      </trkpt>
      <trkpt lat="42.4100720" lon="-2.6851320">
        <ele>553.3</ele>
        <time>2020-03-31T18:03:15Z</time>
      </trkpt>
      <trkpt lat="42.4100350" lon="-2.6853040">
        <ele>553.5</ele>
        <time>2020-03-31T18:03:17Z</time>
      </trkpt>
      <trkpt lat="42.4099990" lon="-2.6854720">
        <ele>553.6</ele>
        <time>2020-03-31T18:03:19Z</time>
      </trkpt>
      <trkpt lat="42.4099620" lon="-2.6856410">
        <ele>553.7</ele>
        <time>2020-03-31T18:03:21Z</time>
      </trkpt>
      <trkpt lat="42.4098660" lon="-2.6860870">
        <ele>553.5</ele>
        <time>2020-03-31T18:03:23Z</time>
      </trkpt>
      <trkpt lat="42.4098300" lon="-2.6862530">
        <ele>553.6</ele>
        <time>2020-03-31T18:03:25Z</time>
      </trkpt>
      <trkpt lat="42.4097950" lon="-2.6864180">
        <ele>553.8</ele>
        <time>2020-03-31T18:03:27Z</time>
      </trkpt>
      <trkpt lat="42.4097590" lon="-2.6865830">
        <ele>554.1</ele>
        <time>2020-03-31T18:03:29Z</time>
      </trkpt>
      <trkpt lat="42.4097240" lon="-2.6867480">
        <ele>554.3</ele>
        <time>2020-03-31T18:03:31Z</time>
      </trkpt>
      <trkpt lat="42.4096280" lon="-2.6871910">
        <ele>554.2</ele>
        <time>2020-03-31T18:03:33Z</time>
      </trkpt>
      <trkpt lat="42.4095930" lon="-2.6873540">
        <ele>553.8</ele>
        <time>2020-03-31T18:03:35Z</time>
      </trkpt>
      <trkpt lat="42.4095580" lon="-2.6875160">
        <ele>553.1</ele>
        <time>2020-03-31T18:03:37Z</time>
      </trkpt>
      <trkpt lat="42.4095240" lon="-2.6876760">
        <ele>552.4</ele>
        <time>2020-03-31T18:03:39Z</time>
      </trkpt>
      <trkpt lat="42.4094290" lon="-2.6881130">
        <ele>551.2</ele>
        <time>2020-03-31T18:03:41Z</time>
      </trkpt>
      <trkpt lat="42.4093980" lon="-2.6882730">
        <ele>551.4</ele>
        <time>2020-03-31T18:03:43Z</time>
      </trkpt>
      <trkpt lat="42.4093670" lon="-2.6884330">
        <ele>551.8</ele>
        <time>2020-03-31T18:03:45Z</time>
      </trkpt>
      <trkpt lat="42.4093350" lon="-2.6885930">
        <ele>552.4</ele>
        <time>2020-03-31T18:03:47Z</time>
      </trkpt>
      <trkpt lat="42.4093040" lon="-2.6887520">
        <ele>553.0</ele>
        <time>2020-03-31T18:03:49Z</time>
      </trkpt>
      <trkpt lat="42.4092230" lon="-2.6891790">
        <ele>554.7</ele>
        <time>2020-03-31T18:03:51Z</time>
      </trkpt>
      <trkpt lat="42.4092010" lon="-2.6893450">
        <ele>555.1</ele>
        <time>2020-03-31T18:03:53Z</time>
      </trkpt>
      <trkpt lat="42.4091770" lon="-2.6895140">
        <ele>555.4</ele>
        <time>2020-03-31T18:03:55Z</time>
      </trkpt>
      <trkpt lat="42.4091530" lon="-2.6896880">
        <ele>555.3</ele>
        <time>2020-03-31T18:03:57Z</time>
      </trkpt>
      <trkpt lat="42.4091290" lon="-2.6898660">
        <ele>555.1</ele>
        <time>2020-03-31T18:03:59Z</time>
      </trkpt>
      <trkpt lat="42.4090850" lon="-2.6903140">
        <ele>554.5</ele>
        <time>2020-03-31T18:04:01Z</time>
      </trkpt>
      <trkpt lat="42.4090790" lon="-2.6904990">
        <ele>554.4</ele>
        <time>2020-03-31T18:04:03Z</time>
      </trkpt>
      <trkpt lat="42.4090710" lon="-2.6908450">
        <ele>553.9</ele>
        <time>2020-03-31T18:04:05Z</time>
      </trkpt>
      <trkpt lat="42.4090740" lon="-2.6910300">
        <ele>553.7</ele>
        <time>2020-03-31T18:04:07Z</time>
      </trkpt>
      <trkpt lat="42.4090810" lon="-2.6913690">
        <ele>553.2</ele>
        <time>2020-03-31T18:04:09Z</time>
      </trkpt>
      <trkpt lat="42.4090920" lon="-2.6915490">
        <ele>553.4</ele>
        <time>2020-03-31T18:04:11Z</time>
      </trkpt>
      <trkpt lat="42.4091040" lon="-2.6917270">
        <ele>553.6</ele>
        <time>2020-03-31T18:04:13Z</time>
      </trkpt>
      <trkpt lat="42.4091160" lon="-2.6919050">
        <ele>553.7</ele>
        <time>2020-03-31T18:04:15Z</time>
      </trkpt>
      <trkpt lat="42.4091270" lon="-2.6920820">
        <ele>553.7</ele>
        <time>2020-03-31T18:04:17Z</time>
      </trkpt>
      <trkpt lat="42.4091560" lon="-2.6925170">
        <ele>553.7</ele>
        <time>2020-03-31T18:04:19Z</time>
      </trkpt>
      <trkpt lat="42.4091670" lon="-2.6926860">
        <ele>553.8</ele>
        <time>2020-03-31T18:04:21Z</time>
      </trkpt>
      <trkpt lat="42.4091780" lon="-2.6928540">
        <ele>554.0</ele>
        <time>2020-03-31T18:04:23Z</time>
      </trkpt>
      <trkpt lat="42.4091880" lon="-2.6930190">
        <ele>554.3</ele>
        <time>2020-03-31T18:04:25Z</time>
      </trkpt>
      <trkpt lat="42.4092340" lon="-2.6934370">
        <ele>554.8</ele>
        <time>2020-03-31T18:04:27Z</time>
      </trkpt>
      <trkpt lat="42.4092770" lon="-2.6935890">
        <ele>554.9</ele>
        <time>2020-03-31T18:04:29Z</time>
      </trkpt>
      <trkpt lat="42.4093200" lon="-2.6937400">
        <ele>555.1</ele>
        <time>2020-03-31T18:04:31Z</time>
      </trkpt>
      <trkpt lat="42.4093620" lon="-2.6938900">
        <ele>555.4</ele>
        <time>2020-03-31T18:04:33Z</time>
      </trkpt>
      <trkpt lat="42.4094040" lon="-2.6940380">
        <ele>555.6</ele>
        <time>2020-03-31T18:04:35Z</time>
      </trkpt>
      <trkpt lat="42.4095260" lon="-2.6944690">
        <ele>555.8</ele>
        <time>2020-03-31T18:04:37Z</time>
      </trkpt>
      <trkpt lat="42.4095690" lon="-2.6946220">
        <ele>555.8</ele>
        <time>2020-03-31T18:04:39Z</time>
      </trkpt>
      <trkpt lat="42.4096140" lon="-2.6947820">
        <ele>555.8</ele>
        <time>2020-03-31T18:04:41Z</time>
      </trkpt>
      <trkpt lat="42.4096600" lon="-2.6949450">
        <ele>555.8</ele>
        <time>2020-03-31T18:04:43Z</time>
      </trkpt>
      <trkpt lat="42.4097070" lon="-2.6951130">
        <ele>555.8</ele>
        <time>2020-03-31T18:04:45Z</time>
      </trkpt>
      <trkpt lat="42.4098350" lon="-2.6955640">
        <ele>555.8</ele>
        <time>2020-03-31T18:04:47Z</time>
      </trkpt>
      <trkpt lat="42.4098820" lon="-2.6957340">
        <ele>555.8</ele>
        <time>2020-03-31T18:04:49Z</time>
      </trkpt>
      <trkpt lat="42.4099310" lon="-2.6959070">
        <ele>555.3</ele>
        <time>2020-03-31T18:04:51Z</time>
      </trkpt>
      <trkpt lat="42.4099800" lon="-2.6960820">
        <ele>554.8</ele>
        <time>2020-03-31T18:04:53Z</time>
      </trkpt>
      <trkpt lat="42.4100300" lon="-2.6962570">
        <ele>554.5</ele>
        <time>2020-03-31T18:04:55Z</time>
      </trkpt>
      <trkpt lat="42.4101600" lon="-2.6967180">
        <ele>553.8</ele>
        <time>2020-03-31T18:04:57Z</time>
      </trkpt>
      <trkpt lat="42.4102120" lon="-2.6969010">
        <ele>553.5</ele>
        <time>2020-03-31T18:04:59Z</time>
      </trkpt>
      <trkpt lat="42.4102650" lon="-2.6970890">
        <ele>553.0</ele>
        <time>2020-03-31T18:05:01Z</time>
      </trkpt>
      <trkpt lat="42.4103180" lon="-2.6972790">
        <ele>552.4</ele>
        <time>2020-03-31T18:05:03Z</time>
      </trkpt>
      <trkpt lat="42.4104520" lon="-2.6977550">
        <ele>551.1</ele>
        <time>2020-03-31T18:05:05Z</time>
      </trkpt>
      <trkpt lat="42.4105080" lon="-2.6979510">
        <ele>550.9</ele>
        <time>2020-03-31T18:05:07Z</time>
      </trkpt>
      <trkpt lat="42.4105640" lon="-2.6981490">
        <ele>550.7</ele>
        <time>2020-03-31T18:05:09Z</time>
      </trkpt>
      <trkpt lat="42.4106200" lon="-2.6983490">
        <ele>550.2</ele>
        <time>2020-03-31T18:05:11Z</time>
      </trkpt>
      <trkpt lat="42.4107560" lon="-2.6988310">
        <ele>549.2</ele>
        <time>2020-03-31T18:05:13Z</time>
      </trkpt>
      <trkpt lat="42.4108110" lon="-2.6990270">
        <ele>548.4</ele>
        <time>2020-03-31T18:05:15Z</time>
      </trkpt>
      <trkpt lat="42.4108650" lon="-2.6992190">
        <ele>548.0</ele>
        <time>2020-03-31T18:05:17Z</time>
      </trkpt>
      <trkpt lat="42.4109190" lon="-2.6994100">
        <ele>548.0</ele>
        <time>2020-03-31T18:05:19Z</time>
      </trkpt>
      <trkpt lat="42.4110520" lon="-2.6998820">
        <ele>547.4</ele>
        <time>2020-03-31T18:05:21Z</time>
      </trkpt>
      <trkpt lat="42.4111060" lon="-2.7000720">
        <ele>547.0</ele>
        <time>2020-03-31T18:05:23Z</time>
      </trkpt>
      <trkpt lat="42.4111590" lon="-2.7002610">
        <ele>546.6</ele>
        <time>2020-03-31T18:05:25Z</time>
      </trkpt>
      <trkpt lat="42.4112130" lon="-2.7004510">
        <ele>546.2</ele>
        <time>2020-03-31T18:05:27Z</time>
      </trkpt>
      <trkpt lat="42.4113460" lon="-2.7009230">
        <ele>545.6</ele>
        <time>2020-03-31T18:05:29Z</time>
      </trkpt>
      <trkpt lat="42.4113990" lon="-2.7011120">
        <ele>545.2</ele>
        <time>2020-03-31T18:05:31Z</time>
      </trkpt>
      <trkpt lat="42.4114530" lon="-2.7013020">
        <ele>545.1</ele>
        <time>2020-03-31T18:05:33Z</time>
      </trkpt>
      <trkpt lat="42.4115060" lon="-2.7014920">
        <ele>545.1</ele>
        <time>2020-03-31T18:05:35Z</time>
      </trkpt>
      <trkpt lat="42.4115600" lon="-2.7016820">
        <ele>545.0</ele>
        <time>2020-03-31T18:05:37Z</time>
      </trkpt>
      <trkpt lat="42.4116920" lon="-2.7021520">
        <ele>544.1</ele>
        <time>2020-03-31T18:05:39Z</time>
      </trkpt>
      <trkpt lat="42.4117460" lon="-2.7023420">
        <ele>543.7</ele>
        <time>2020-03-31T18:05:41Z</time>
      </trkpt>
      <trkpt lat="42.4117990" lon="-2.7025310">
        <ele>543.3</ele>
        <time>2020-03-31T18:05:43Z</time>
      </trkpt>
      <trkpt lat="42.4118520" lon="-2.7027190">
        <ele>543.2</ele>
        <time>2020-03-31T18:05:45Z</time>
      </trkpt>
      <trkpt lat="42.4119850" lon="-2.7031910">
        <ele>542.4</ele>
        <time>2020-03-31T18:05:47Z</time>
      </trkpt>
      <trkpt lat="42.4120410" lon="-2.7033890">
        <ele>541.7</ele>
        <time>2020-03-31T18:05:49Z</time>
      </trkpt>
      <trkpt lat="42.4120980" lon="-2.7035910">
        <ele>541.2</ele>
        <time>2020-03-31T18:05:51Z</time>
      </trkpt>
      <trkpt lat="42.4121560" lon="-2.7037970">
        <ele>541.0</ele>
        <time>2020-03-31T18:05:53Z</time>
      </trkpt>
      <trkpt lat="42.4123270" lon="-2.7042650">
        <ele>539.4</ele>
        <time>2020-03-31T18:05:55Z</time>
      </trkpt>
      <trkpt lat="42.4125170" lon="-2.7045070">
        <ele>537.7</ele>
        <time>2020-03-31T18:05:57Z</time>
      </trkpt>
      <trkpt lat="42.4127170" lon="-2.7045200">
        <ele>536.6</ele>
        <time>2020-03-31T18:05:59Z</time>
      </trkpt>
      <trkpt lat="42.4128360" lon="-2.7047010">
        <ele>535.7</ele>
        <time>2020-03-31T18:06:01Z</time>
      </trkpt>
      <trkpt lat="42.4128460" lon="-2.7049500">
        <ele>535.5</ele>
        <time>2020-03-31T18:06:03Z</time>
      </trkpt>
      <trkpt lat="42.4127070" lon="-2.7051470">
        <ele>536.2</ele>
        <time>2020-03-31T18:06:05Z</time>
      </trkpt>
      <trkpt lat="42.4126540" lon="-2.7052960">
        <ele>536.4</ele>
        <time>2020-03-31T18:06:07Z</time>
      </trkpt>
      <trkpt lat="42.4126980" lon="-2.7054840">
        <ele>536.0</ele>
        <time>2020-03-31T18:06:09Z</time>
      </trkpt>
      <trkpt lat="42.4127820" lon="-2.7058470">
        <ele>535.3</ele>
        <time>2020-03-31T18:06:11Z</time>
      </trkpt>
      <trkpt lat="42.4128360" lon="-2.7060390">
        <ele>534.8</ele>
        <time>2020-03-31T18:06:13Z</time>
      </trkpt>
      <trkpt lat="42.4128900" lon="-2.7062330">
        <ele>534.1</ele>
        <time>2020-03-31T18:06:15Z</time>
      </trkpt>
      <trkpt lat="42.4129460" lon="-2.7064310">
        <ele>533.6</ele>
        <time>2020-03-31T18:06:17Z</time>
      </trkpt>
      <trkpt lat="42.4130760" lon="-2.7068940">
        <ele>532.4</ele>
        <time>2020-03-31T18:06:19Z</time>
      </trkpt>
      <trkpt lat="42.4131290" lon="-2.7070840">
        <ele>531.9</ele>
        <time>2020-03-31T18:06:21Z</time>
      </trkpt>
      <trkpt lat="42.4131800" lon="-2.7072670">
        <ele>531.6</ele>
        <time>2020-03-31T18:06:23Z</time>
      </trkpt>
      <trkpt lat="42.4132300" lon="-2.7074440">
        <ele>531.3</ele>
        <time>2020-03-31T18:06:25Z</time>
      </trkpt>
      <trkpt lat="42.4133530" lon="-2.7078820">
        <ele>531.4</ele>
        <time>2020-03-31T18:06:27Z</time>
      </trkpt>
      <trkpt lat="42.4134010" lon="-2.7080540">
        <ele>531.5</ele>
        <time>2020-03-31T18:06:29Z</time>
      </trkpt>
      <trkpt lat="42.4134490" lon="-2.7082260">
        <ele>531.6</ele>
        <time>2020-03-31T18:06:31Z</time>
      </trkpt>
      <trkpt lat="42.4134970" lon="-2.7083990">
        <ele>531.6</ele>
        <time>2020-03-31T18:06:33Z</time>
      </trkpt>
      <trkpt lat="42.4135460" lon="-2.7085700">
        <ele>531.4</ele>
        <time>2020-03-31T18:06:35Z</time>
      </trkpt>
      <trkpt lat="42.4136680" lon="-2.7090080">
        <ele>530.9</ele>
        <time>2020-03-31T18:06:37Z</time>
      </trkpt>
      <trkpt lat="42.4137190" lon="-2.7091900">
        <ele>530.8</ele>
        <time>2020-03-31T18:06:39Z</time>
      </trkpt>
      <trkpt lat="42.4137710" lon="-2.7093750">
        <ele>530.8</ele>
        <time>2020-03-31T18:06:41Z</time>
      </trkpt>
      <trkpt lat="42.4138250" lon="-2.7095670">
        <ele>530.8</ele>
        <time>2020-03-31T18:06:43Z</time>
      </trkpt>
      <trkpt lat="42.4139570" lon="-2.7100220">
        <ele>530.3</ele>
        <time>2020-03-31T18:06:45Z</time>
      </trkpt>
      <trkpt lat="42.4140180" lon="-2.7102170">
        <ele>529.6</ele>
        <time>2020-03-31T18:06:47Z</time>
      </trkpt>
      <trkpt lat="42.4141250" lon="-2.7105640">
        <ele>528.4</ele>
        <time>2020-03-31T18:06:49Z</time>
      </trkpt>
      <trkpt lat="42.4141870" lon="-2.7107630">
        <ele>527.5</ele>
        <time>2020-03-31T18:06:51Z</time>
      </trkpt>
      <trkpt lat="42.4143060" lon="-2.7111110">
        <ele>526.1</ele>
        <time>2020-03-31T18:06:53Z</time>
      </trkpt>
      <trkpt lat="42.4143900" lon="-2.7113010">
        <ele>525.3</ele>
        <time>2020-03-31T18:06:55Z</time>
      </trkpt>
      <trkpt lat="42.4144760" lon="-2.7114970">
        <ele>524.3</ele>
        <time>2020-03-31T18:06:57Z</time>
      </trkpt>
      <trkpt lat="42.4145640" lon="-2.7116960">
        <ele>523.1</ele>
        <time>2020-03-31T18:06:59Z</time>
      </trkpt>
      <trkpt lat="42.4147690" lon="-2.7121330">
        <ele>521.1</ele>
        <time>2020-03-31T18:07:01Z</time>
      </trkpt>
      <trkpt lat="42.4149230" lon="-2.7124150">
        <ele>519.8</ele>
        <time>2020-03-31T18:07:03Z</time>
      </trkpt>
      <trkpt lat="42.4150300" lon="-2.7125870">
        <ele>519.3</ele>
        <time>2020-03-31T18:07:05Z</time>
      </trkpt>
      <trkpt lat="42.4152150" lon="-2.7128830">
        <ele>519.3</ele>
        <time>2020-03-31T18:07:07Z</time>
      </trkpt>
      <trkpt lat="42.4153150" lon="-2.7130430">
        <ele>519.0</ele>
        <time>2020-03-31T18:07:09Z</time>
      </trkpt>
      <trkpt lat="42.4154130" lon="-2.7132010">
        <ele>518.4</ele>
        <time>2020-03-31T18:07:11Z</time>
      </trkpt>
      <trkpt lat="42.4156080" lon="-2.7134670">
        <ele>517.6</ele>
        <time>2020-03-31T18:07:13Z</time>
      </trkpt>
      <trkpt lat="42.4157190" lon="-2.7135970">
        <ele>517.5</ele>
        <time>2020-03-31T18:07:15Z</time>
      </trkpt>
      <trkpt lat="42.4158270" lon="-2.7137250">
        <ele>517.5</ele>
        <time>2020-03-31T18:07:17Z</time>
      </trkpt>
      <trkpt lat="42.4159360" lon="-2.7138520">
        <ele>517.5</ele>
        <time>2020-03-31T18:07:19Z</time>
      </trkpt>
      <trkpt lat="42.4162150" lon="-2.7141630">
        <ele>517.5</ele>
        <time>2020-03-31T18:07:21Z</time>
      </trkpt>
      <trkpt lat="42.4163300" lon="-2.7142760">
        <ele>517.4</ele>
        <time>2020-03-31T18:07:23Z</time>
      </trkpt>
      <trkpt lat="42.4164460" lon="-2.7143900">
        <ele>517.1</ele>
        <time>2020-03-31T18:07:25Z</time>
      </trkpt>
      <trkpt lat="42.4166940" lon="-2.7146320">
        <ele>516.2</ele>
        <time>2020-03-31T18:07:27Z</time>
      </trkpt>
      <trkpt lat="42.4168050" lon="-2.7147420">
        <ele>515.9</ele>
        <time>2020-03-31T18:07:29Z</time>
      </trkpt>
      <trkpt lat="42.4169140" lon="-2.7148480">
        <ele>515.7</ele>
        <time>2020-03-31T18:07:31Z</time>
      </trkpt>
      <trkpt lat="42.4171550" lon="-2.7150840">
        <ele>515.6</ele>
        <time>2020-03-31T18:07:33Z</time>
      </trkpt>
      <trkpt lat="42.4172620" lon="-2.7151890">
        <ele>515.5</ele>
        <time>2020-03-31T18:07:35Z</time>
      </trkpt>
      <trkpt lat="42.4173680" lon="-2.7152930">
        <ele>515.3</ele>
        <time>2020-03-31T18:07:37Z</time>
      </trkpt>
      <trkpt lat="42.4174740" lon="-2.7153980">
        <ele>514.8</ele>
        <time>2020-03-31T18:07:39Z</time>
      </trkpt>
      <trkpt lat="42.4176250" lon="-2.7156720">
        <ele>514.6</ele>
        <time>2020-03-31T18:07:41Z</time>
      </trkpt>
      <trkpt lat="42.4175720" lon="-2.7159400">
        <ele>515.6</ele>
        <time>2020-03-31T18:07:43Z</time>
      </trkpt>
      <trkpt lat="42.4176160" lon="-2.7161700">
        <ele>515.5</ele>
        <time>2020-03-31T18:07:45Z</time>
      </trkpt>
      <trkpt lat="42.4176830" lon="-2.7163540">
        <ele>515.3</ele>
        <time>2020-03-31T18:07:47Z</time>
      </trkpt>
      <trkpt lat="42.4178000" lon="-2.7166900">
        <ele>514.5</ele>
        <time>2020-03-31T18:07:49Z</time>
      </trkpt>
      <trkpt lat="42.4178770" lon="-2.7169730">
        <ele>513.2</ele>
        <time>2020-03-31T18:07:51Z</time>
      </trkpt>
      <trkpt lat="42.4179120" lon="-2.7171850">
        <ele>511.9</ele>
        <time>2020-03-31T18:07:53Z</time>
      </trkpt>
      <trkpt lat="42.4179520" lon="-2.7174960">
        <ele>510.1</ele>
        <time>2020-03-31T18:07:55Z</time>
      </trkpt>
      <trkpt lat="42.4179960" lon="-2.7178550">
        <ele>508.2</ele>
        <time>2020-03-31T18:07:57Z</time>
      </trkpt>
      <trkpt lat="42.4180740" lon="-2.7180460">
        <ele>507.5</ele>
        <time>2020-03-31T18:07:59Z</time>
      </trkpt>
      <trkpt lat="42.4181520" lon="-2.7182390">
        <ele>507.1</ele>
        <time>2020-03-31T18:08:01Z</time>
      </trkpt>
      <trkpt lat="42.4182310" lon="-2.7184320">
        <ele>506.9</ele>
        <time>2020-03-31T18:08:03Z</time>
      </trkpt>
      <trkpt lat="42.4183710" lon="-2.7188460">
        <ele>506.5</ele>
        <time>2020-03-31T18:08:05Z</time>
      </trkpt>
      <trkpt lat="42.4184200" lon="-2.7190350">
        <ele>506.7</ele>
        <time>2020-03-31T18:08:07Z</time>
      </trkpt>
      <trkpt lat="42.4184740" lon="-2.7193670">
        <ele>507.4</ele>
        <time>2020-03-31T18:08:09Z</time>
      </trkpt>
      <trkpt lat="42.4184880" lon="-2.7195500">
        <ele>508.0</ele>
        <time>2020-03-31T18:08:11Z</time>
      </trkpt>
      <trkpt lat="42.4185020" lon="-2.7197240">
        <ele>508.7</ele>
        <time>2020-03-31T18:08:13Z</time>
      </trkpt>
      <trkpt lat="42.4185330" lon="-2.7201110">
        <ele>508.8</ele>
        <time>2020-03-31T18:08:15Z</time>
      </trkpt>
      <trkpt lat="42.4185470" lon="-2.7202840">
        <ele>508.4</ele>
        <time>2020-03-31T18:08:17Z</time>
      </trkpt>
      <trkpt lat="42.4185610" lon="-2.7204600">
        <ele>508.1</ele>
        <time>2020-03-31T18:08:19Z</time>
      </trkpt>
      <trkpt lat="42.4185900" lon="-2.7208500">
        <ele>507.8</ele>
        <time>2020-03-31T18:08:21Z</time>
      </trkpt>
      <trkpt lat="42.4185940" lon="-2.7210300">
        <ele>507.7</ele>
        <time>2020-03-31T18:08:23Z</time>
      </trkpt>
      <trkpt lat="42.4185970" lon="-2.7213330">
        <ele>507.7</ele>
        <time>2020-03-31T18:08:25Z</time>
      </trkpt>
      <trkpt lat="42.4185830" lon="-2.7215120">
        <ele>507.7</ele>
        <time>2020-03-31T18:08:27Z</time>
      </trkpt>
      <trkpt lat="42.4185690" lon="-2.7216900">
        <ele>507.8</ele>
        <time>2020-03-31T18:08:29Z</time>
      </trkpt>
      <trkpt lat="42.4185550" lon="-2.7218690">
        <ele>508.5</ele>
        <time>2020-03-31T18:08:31Z</time>
      </trkpt>
      <trkpt lat="42.4185410" lon="-2.7220460">
        <ele>509.0</ele>
        <time>2020-03-31T18:08:33Z</time>
      </trkpt>
      <trkpt lat="42.4185040" lon="-2.7225210">
        <ele>509.1</ele>
        <time>2020-03-31T18:08:35Z</time>
      </trkpt>
      <trkpt lat="42.4184900" lon="-2.7226990">
        <ele>508.4</ele>
        <time>2020-03-31T18:08:37Z</time>
      </trkpt>
      <trkpt lat="42.4184760" lon="-2.7228760">
        <ele>508.4</ele>
        <time>2020-03-31T18:08:39Z</time>
      </trkpt>
      <trkpt lat="42.4184610" lon="-2.7230540">
        <ele>508.4</ele>
        <time>2020-03-31T18:08:41Z</time>
      </trkpt>
      <trkpt lat="42.4184480" lon="-2.7232310">
        <ele>508.4</ele>
        <time>2020-03-31T18:08:43Z</time>
      </trkpt>
      <trkpt lat="42.4184100" lon="-2.7237090">
        <ele>507.7</ele>
        <time>2020-03-31T18:08:45Z</time>
      </trkpt>
      <trkpt lat="42.4183950" lon="-2.7238930">
        <ele>507.4</ele>
        <time>2020-03-31T18:08:47Z</time>
      </trkpt>
      <trkpt lat="42.4183810" lon="-2.7240800">
        <ele>507.3</ele>
        <time>2020-03-31T18:08:49Z</time>
      </trkpt>
      <trkpt lat="42.4183650" lon="-2.7242710">
        <ele>507.1</ele>
        <time>2020-03-31T18:08:51Z</time>
      </trkpt>
      <trkpt lat="42.4183180" lon="-2.7247610">
        <ele>506.4</ele>
        <time>2020-03-31T18:08:53Z</time>
      </trkpt>
      <trkpt lat="42.4182180" lon="-2.7249730">
        <ele>505.8</ele>
        <time>2020-03-31T18:08:55Z</time>
      </trkpt>
      <trkpt lat="42.4183090" lon="-2.7252010">
        <ele>505.4</ele>
        <time>2020-03-31T18:08:57Z</time>
      </trkpt>
      <trkpt lat="42.4184550" lon="-2.7253610">
        <ele>505.3</ele>
        <time>2020-03-31T18:08:59Z</time>
      </trkpt>
      <trkpt lat="42.4185150" lon="-2.7255580">
        <ele>504.8</ele>
        <time>2020-03-31T18:09:01Z</time>
      </trkpt>
      <trkpt lat="42.4183950" lon="-2.7257670">
        <ele>504.3</ele>
        <time>2020-03-31T18:09:03Z</time>
      </trkpt>
      <trkpt lat="42.4183350" lon="-2.7259960">
        <ele>504.1</ele>
        <time>2020-03-31T18:09:05Z</time>
      </trkpt>
      <trkpt lat="42.4182980" lon="-2.7261930">
        <ele>504.0</ele>
        <time>2020-03-31T18:09:07Z</time>
      </trkpt>
      <trkpt lat="42.4182600" lon="-2.7263950">
        <ele>503.9</ele>
        <time>2020-03-31T18:09:09Z</time>
      </trkpt>
      <trkpt lat="42.4181780" lon="-2.7268310">
        <ele>502.9</ele>
        <time>2020-03-31T18:09:11Z</time>
      </trkpt>
      <trkpt lat="42.4181390" lon="-2.7270420">
        <ele>502.5</ele>
        <time>2020-03-31T18:09:13Z</time>
      </trkpt>
      <trkpt lat="42.4180990" lon="-2.7272540">
        <ele>502.2</ele>
        <time>2020-03-31T18:09:15Z</time>
      </trkpt>
      <trkpt lat="42.4180160" lon="-2.7276990">
        <ele>500.2</ele>
        <time>2020-03-31T18:09:17Z</time>
      </trkpt>
      <trkpt lat="42.4179750" lon="-2.7279200">
        <ele>498.8</ele>
        <time>2020-03-31T18:09:19Z</time>
      </trkpt>
      <trkpt lat="42.4179330" lon="-2.7281450">
        <ele>497.4</ele>
        <time>2020-03-31T18:09:21Z</time>
      </trkpt>
      <trkpt lat="42.4178310" lon="-2.7285900">
        <ele>495.6</ele>
        <time>2020-03-31T18:09:23Z</time>
      </trkpt>
      <trkpt lat="42.4177550" lon="-2.7288030">
        <ele>495.2</ele>
        <time>2020-03-31T18:09:25Z</time>
      </trkpt>
      <trkpt lat="42.4176210" lon="-2.7291680">
        <ele>494.1</ele>
        <time>2020-03-31T18:09:27Z</time>
      </trkpt>
      <trkpt lat="42.4175430" lon="-2.7293630">
        <ele>493.5</ele>
        <time>2020-03-31T18:09:29Z</time>
      </trkpt>
      <trkpt lat="42.4174690" lon="-2.7295480">
        <ele>492.8</ele>
        <time>2020-03-31T18:09:31Z</time>
      </trkpt>
      <trkpt lat="42.4173970" lon="-2.7297280">
        <ele>492.2</ele>
        <time>2020-03-31T18:09:33Z</time>
      </trkpt>
      <trkpt lat="42.4172200" lon="-2.7301290">
        <ele>491.8</ele>
        <time>2020-03-31T18:09:35Z</time>
      </trkpt>
      <trkpt lat="42.4171390" lon="-2.7302920">
        <ele>491.7</ele>
        <time>2020-03-31T18:09:37Z</time>
      </trkpt>
      <trkpt lat="42.4170240" lon="-2.7306030">
        <ele>491.6</ele>
        <time>2020-03-31T18:09:39Z</time>
      </trkpt>
      <trkpt lat="42.4169770" lon="-2.7307990">
        <ele>491.5</ele>
        <time>2020-03-31T18:09:41Z</time>
      </trkpt>
      <trkpt lat="42.4168790" lon="-2.7311600">
        <ele>490.6</ele>
        <time>2020-03-31T18:09:43Z</time>
      </trkpt>
      <trkpt lat="42.4169720" lon="-2.7313750">
        <ele>489.9</ele>
        <time>2020-03-31T18:09:45Z</time>
      </trkpt>
      <trkpt lat="42.4170730" lon="-2.7315490">
        <ele>489.5</ele>
        <time>2020-03-31T18:09:47Z</time>
      </trkpt>
      <trkpt lat="42.4172540" lon="-2.7318800">
        <ele>488.0</ele>
        <time>2020-03-31T18:09:49Z</time>
      </trkpt>
      <trkpt lat="42.4173250" lon="-2.7321300">
        <ele>486.5</ele>
        <time>2020-03-31T18:09:51Z</time>
      </trkpt>
      <trkpt lat="42.4173500" lon="-2.7323250">
        <ele>486.4</ele>
        <time>2020-03-31T18:09:53Z</time>
      </trkpt>
      <trkpt lat="42.4173960" lon="-2.7326700">
        <ele>486.0</ele>
        <time>2020-03-31T18:09:55Z</time>
      </trkpt>
      <trkpt lat="42.4174200" lon="-2.7328500">
        <ele>486.0</ele>
        <time>2020-03-31T18:09:57Z</time>
      </trkpt>
      <trkpt lat="42.4174440" lon="-2.7330310">
        <ele>486.1</ele>
        <time>2020-03-31T18:09:59Z</time>
      </trkpt>
      <trkpt lat="42.4175530" lon="-2.7333080">
        <ele>486.3</ele>
        <time>2020-03-31T18:10:01Z</time>
      </trkpt>
      <trkpt lat="42.4177440" lon="-2.7334000">
        <ele>485.9</ele>
        <time>2020-03-31T18:10:03Z</time>
      </trkpt>
      <trkpt lat="42.4178690" lon="-2.7334000">
        <ele>485.5</ele>
        <time>2020-03-31T18:10:05Z</time>
      </trkpt>
      <trkpt lat="42.4179870" lon="-2.7335200">
        <ele>485.4</ele>
        <time>2020-03-31T18:10:07Z</time>
      </trkpt>
      <trkpt lat="42.4180330" lon="-2.7336710">
        <ele>485.7</ele>
        <time>2020-03-31T18:10:09Z</time>
      </trkpt>
      <trkpt lat="42.4181850" lon="-2.7338790">
        <ele>486.6</ele>
        <time>2020-03-31T18:10:11Z</time>
      </trkpt>
      <trkpt lat="42.4182500" lon="-2.7340050">
        <ele>487.1</ele>
        <time>2020-03-31T18:10:13Z</time>
      </trkpt>
      <trkpt lat="42.4183500" lon="-2.7342090">
        <ele>488.0</ele>
        <time>2020-03-31T18:10:15Z</time>
      </trkpt>
      <trkpt lat="42.4183920" lon="-2.7343360">
        <ele>488.4</ele>
        <time>2020-03-31T18:10:17Z</time>
      </trkpt>
      <trkpt lat="42.4184330" lon="-2.7344590">
        <ele>488.8</ele>
        <time>2020-03-31T18:10:19Z</time>
      </trkpt>
      <trkpt lat="42.4184910" lon="-2.7346930">
        <ele>489.2</ele>
        <time>2020-03-31T18:10:21Z</time>
      </trkpt>
      <trkpt lat="42.4183660" lon="-2.7347210">
        <ele>489.8</ele>
        <time>2020-03-31T18:10:23Z</time>
      </trkpt>
      <trkpt lat="42.4182490" lon="-2.7347770">
        <ele>490.4</ele>
        <time>2020-03-31T18:10:25Z</time>
      </trkpt>
      <trkpt lat="42.4181640" lon="-2.7348220">
        <ele>491.1</ele>
        <time>2020-03-31T18:10:27Z</time>
      </trkpt>
      <trkpt lat="42.4180140" lon="-2.7349010">
        <ele>492.1</ele>
        <time>2020-03-31T18:10:29Z</time>
      </trkpt>
      <trkpt lat="42.4179290" lon="-2.7349210">
        <ele>492.6</ele>
        <time>2020-03-31T18:10:31Z</time>
      </trkpt>
      <trkpt lat="42.4178450" lon="-2.7349400">
        <ele>493.1</ele>
        <time>2020-03-31T18:10:33Z</time>
      </trkpt>
      <trkpt lat="42.4176800" lon="-2.7349780">
        <ele>494.0</ele>
        <time>2020-03-31T18:10:35Z</time>
      </trkpt>
      <trkpt lat="42.4175690" lon="-2.7350230">
        <ele>494.4</ele>
        <time>2020-03-31T18:10:37Z</time>
      </trkpt>
      <trkpt lat="42.4174880" lon="-2.7350820">
        <ele>495.0</ele>
        <time>2020-03-31T18:10:39Z</time>
      </trkpt>
      <trkpt lat="42.4174040" lon="-2.7351440">
        <ele>495.8</ele>
        <time>2020-03-31T18:10:41Z</time>
      </trkpt>
      <trkpt lat="42.4172340" lon="-2.7352600">
        <ele>497.2</ele>
        <time>2020-03-31T18:10:43Z</time>
      </trkpt>
      <trkpt lat="42.4170820" lon="-2.7353350">
        <ele>497.0</ele>
        <time>2020-03-31T18:10:45Z</time>
      </trkpt>
      <trkpt lat="42.4169630" lon="-2.7353500">
        <ele>497.0</ele>
        <time>2020-03-31T18:10:47Z</time>
      </trkpt>
      <trkpt lat="42.4167630" lon="-2.7353360">
        <ele>497.0</ele>
        <time>2020-03-31T18:10:49Z</time>
      </trkpt>
      <trkpt lat="42.4166030" lon="-2.7352670">
        <ele>497.1</ele>
        <time>2020-03-31T18:10:51Z</time>
      </trkpt>
      <trkpt lat="42.4164700" lon="-2.7352840">
        <ele>497.2</ele>
        <time>2020-03-31T18:10:53Z</time>
      </trkpt>
      <trkpt lat="42.4162550" lon="-2.7353190">
        <ele>497.4</ele>
        <time>2020-03-31T18:10:55Z</time>
      </trkpt>
      <trkpt lat="42.4160670" lon="-2.7353630">
        <ele>497.7</ele>
        <time>2020-03-31T18:10:57Z</time>
      </trkpt>
      <trkpt lat="42.4159510" lon="-2.7354520">
        <ele>498.0</ele>
        <time>2020-03-31T18:10:59Z</time>
      </trkpt>
      <trkpt lat="42.4158090" lon="-2.7354650">
        <ele>498.5</ele>
        <time>2020-03-31T18:11:01Z</time>
      </trkpt>
      <trkpt lat="42.4157890" lon="-2.7355910">
        <ele>499.9</ele>
        <time>2020-03-31T18:11:03Z</time>
      </trkpt>
      <trkpt lat="42.4157700" lon="-2.7357110">
        <ele>501.3</ele>
        <time>2020-03-31T18:11:05Z</time>
      </trkpt>
      <trkpt lat="42.4157500" lon="-2.7359290">
        <ele>503.7</ele>
        <time>2020-03-31T18:11:07Z</time>
      </trkpt>
      <trkpt lat="42.4157500" lon="-2.7360450">
        <ele>504.5</ele>
        <time>2020-03-31T18:11:09Z</time>
      </trkpt>
      <trkpt lat="42.4157500" lon="-2.7361590">
        <ele>505.3</ele>
        <time>2020-03-31T18:11:11Z</time>
      </trkpt>
      <trkpt lat="42.4157530" lon="-2.7364160">
        <ele>507.2</ele>
        <time>2020-03-31T18:11:13Z</time>
      </trkpt>
      <trkpt lat="42.4157700" lon="-2.7365240">
        <ele>508.0</ele>
        <time>2020-03-31T18:11:15Z</time>
      </trkpt>
      <trkpt lat="42.4157870" lon="-2.7366310">
        <ele>508.8</ele>
        <time>2020-03-31T18:11:17Z</time>
      </trkpt>
      <trkpt lat="42.4158040" lon="-2.7367360">
        <ele>509.6</ele>
        <time>2020-03-31T18:11:19Z</time>
      </trkpt>
      <trkpt lat="42.4158210" lon="-2.7368410">
        <ele>510.4</ele>
        <time>2020-03-31T18:11:21Z</time>
      </trkpt>
      <trkpt lat="42.4158380" lon="-2.7369460">
        <ele>511.2</ele>
        <time>2020-03-31T18:11:23Z</time>
      </trkpt>
      <trkpt lat="42.4158550" lon="-2.7370490">
        <ele>511.9</ele>
        <time>2020-03-31T18:11:25Z</time>
      </trkpt>
      <trkpt lat="42.4158710" lon="-2.7371540">
        <ele>512.7</ele>
        <time>2020-03-31T18:11:27Z</time>
      </trkpt>
      <trkpt lat="42.4158880" lon="-2.7372580">
        <ele>513.4</ele>
        <time>2020-03-31T18:11:29Z</time>
      </trkpt>
      <trkpt lat="42.4159140" lon="-2.7376640">
        <ele>515.8</ele>
        <time>2020-03-31T18:11:31Z</time>
      </trkpt>
      <trkpt lat="42.4158660" lon="-2.7377960">
        <ele>516.3</ele>
        <time>2020-03-31T18:11:33Z</time>
      </trkpt>
      <trkpt lat="42.4158240" lon="-2.7379020">
        <ele>516.8</ele>
        <time>2020-03-31T18:11:35Z</time>
      </trkpt>
      <trkpt lat="42.4157800" lon="-2.7380130">
        <ele>517.4</ele>
        <time>2020-03-31T18:11:37Z</time>
      </trkpt>
      <trkpt lat="42.4157360" lon="-2.7381260">
        <ele>518.0</ele>
        <time>2020-03-31T18:11:39Z</time>
      </trkpt>
      <trkpt lat="42.4156900" lon="-2.7382420">
        <ele>518.7</ele>
        <time>2020-03-31T18:11:41Z</time>
      </trkpt>
      <trkpt lat="42.4156430" lon="-2.7383590">
        <ele>519.4</ele>
        <time>2020-03-31T18:11:43Z</time>
      </trkpt>
      <trkpt lat="42.4155270" lon="-2.7387260">
        <ele>521.3</ele>
        <time>2020-03-31T18:11:45Z</time>
      </trkpt>
      <trkpt lat="42.4155100" lon="-2.7388590">
        <ele>521.9</ele>
        <time>2020-03-31T18:11:47Z</time>
      </trkpt>
      <trkpt lat="42.4154940" lon="-2.7389930">
        <ele>522.3</ele>
        <time>2020-03-31T18:11:49Z</time>
      </trkpt>
      <trkpt lat="42.4154770" lon="-2.7391260">
        <ele>522.7</ele>
        <time>2020-03-31T18:11:51Z</time>
      </trkpt>
      <trkpt lat="42.4154610" lon="-2.7392600">
        <ele>523.2</ele>
        <time>2020-03-31T18:11:53Z</time>
      </trkpt>
      <trkpt lat="42.4153850" lon="-2.7396040">
        <ele>524.7</ele>
        <time>2020-03-31T18:11:55Z</time>
      </trkpt>
      <trkpt lat="42.4153100" lon="-2.7397540">
        <ele>525.6</ele>
        <time>2020-03-31T18:11:57Z</time>
      </trkpt>
      <trkpt lat="42.4152610" lon="-2.7398380">
        <ele>525.8</ele>
        <time>2020-03-31T18:11:59Z</time>
      </trkpt>
      <trkpt lat="42.4152140" lon="-2.7399170">
        <ele>526.2</ele>
        <time>2020-03-31T18:12:01Z</time>
      </trkpt>
      <trkpt lat="42.4151690" lon="-2.7399920">
        <ele>526.6</ele>
        <time>2020-03-31T18:12:03Z</time>
      </trkpt>
      <trkpt lat="42.4151260" lon="-2.7400660">
        <ele>527.0</ele>
        <time>2020-03-31T18:12:05Z</time>
      </trkpt>
      <trkpt lat="42.4150840" lon="-2.7401380">
        <ele>527.4</ele>
        <time>2020-03-31T18:12:07Z</time>
      </trkpt>
      <trkpt lat="42.4150420" lon="-2.7402100">
        <ele>528.1</ele>
        <time>2020-03-31T18:12:09Z</time>
      </trkpt>
      <trkpt lat="42.4148860" lon="-2.7404690">
        <ele>531.2</ele>
        <time>2020-03-31T18:12:11Z</time>
      </trkpt>
      <trkpt lat="42.4148390" lon="-2.7405350">
        <ele>532.1</ele>
        <time>2020-03-31T18:12:13Z</time>
      </trkpt>
      <trkpt lat="42.4147600" lon="-2.7406500">
        <ele>534.2</ele>
        <time>2020-03-31T18:12:15Z</time>
      </trkpt>
      <trkpt lat="42.4147180" lon="-2.7407340">
        <ele>535.0</ele>
        <time>2020-03-31T18:12:17Z</time>
      </trkpt>
      <trkpt lat="42.4146450" lon="-2.7408820">
        <ele>536.4</ele>
        <time>2020-03-31T18:12:19Z</time>
      </trkpt>
      <trkpt lat="42.4145990" lon="-2.7409770">
        <ele>537.3</ele>
        <time>2020-03-31T18:12:21Z</time>
      </trkpt>
      <trkpt lat="42.4145320" lon="-2.7411400">
        <ele>538.9</ele>
        <time>2020-03-31T18:12:23Z</time>
      </trkpt>
      <trkpt lat="42.4145000" lon="-2.7412500">
        <ele>539.9</ele>
        <time>2020-03-31T18:12:25Z</time>
      </trkpt>
      <trkpt lat="42.4144680" lon="-2.7413600">
        <ele>540.5</ele>
        <time>2020-03-31T18:12:27Z</time>
      </trkpt>
      <trkpt lat="42.4144360" lon="-2.7414700">
        <ele>541.1</ele>
        <time>2020-03-31T18:12:29Z</time>
      </trkpt>
      <trkpt lat="42.4144040" lon="-2.7415800">
        <ele>541.8</ele>
        <time>2020-03-31T18:12:31Z</time>
      </trkpt>
      <trkpt lat="42.4143070" lon="-2.7418720">
        <ele>543.4</ele>
        <time>2020-03-31T18:12:33Z</time>
      </trkpt>
      <trkpt lat="42.4142580" lon="-2.7419760">
        <ele>544.2</ele>
        <time>2020-03-31T18:12:35Z</time>
      </trkpt>
      <trkpt lat="42.4141810" lon="-2.7421610">
        <ele>545.6</ele>
        <time>2020-03-31T18:12:37Z</time>
      </trkpt>
      <trkpt lat="42.4141400" lon="-2.7422760">
        <ele>546.2</ele>
        <time>2020-03-31T18:12:39Z</time>
      </trkpt>
      <trkpt lat="42.4140900" lon="-2.7424740">
        <ele>547.4</ele>
        <time>2020-03-31T18:12:41Z</time>
      </trkpt>
      <trkpt lat="42.4140680" lon="-2.7426000">
        <ele>548.2</ele>
        <time>2020-03-31T18:12:43Z</time>
      </trkpt>
      <trkpt lat="42.4140330" lon="-2.7428460">
        <ele>549.7</ele>
        <time>2020-03-31T18:12:45Z</time>
      </trkpt>
      <trkpt lat="42.4140460" lon="-2.7429750">
        <ele>550.2</ele>
        <time>2020-03-31T18:12:47Z</time>
      </trkpt>
      <trkpt lat="42.4140910" lon="-2.7431680">
        <ele>550.9</ele>
        <time>2020-03-31T18:12:49Z</time>
      </trkpt>
      <trkpt lat="42.4141500" lon="-2.7432790">
        <ele>551.3</ele>
        <time>2020-03-31T18:12:51Z</time>
      </trkpt>
      <trkpt lat="42.4142400" lon="-2.7434840">
        <ele>552.1</ele>
        <time>2020-03-31T18:12:53Z</time>
      </trkpt>
      <trkpt lat="42.4142740" lon="-2.7436720">
        <ele>552.6</ele>
        <time>2020-03-31T18:12:55Z</time>
      </trkpt>
      <trkpt lat="42.4142920" lon="-2.7438050">
        <ele>553.0</ele>
        <time>2020-03-31T18:12:57Z</time>
      </trkpt>
      <trkpt lat="42.4143000" lon="-2.7440010">
        <ele>553.5</ele>
        <time>2020-03-31T18:12:59Z</time>
      </trkpt>
      <trkpt lat="42.4143000" lon="-2.7441340">
        <ele>553.9</ele>
        <time>2020-03-31T18:13:01Z</time>
      </trkpt>
      <trkpt lat="42.4143000" lon="-2.7442660">
        <ele>554.3</ele>
        <time>2020-03-31T18:13:03Z</time>
      </trkpt>
      <trkpt lat="42.4143060" lon="-2.7445670">
        <ele>554.9</ele>
        <time>2020-03-31T18:13:05Z</time>
      </trkpt>
      <trkpt lat="42.4143220" lon="-2.7447220">
        <ele>555.3</ele>
        <time>2020-03-31T18:13:07Z</time>
      </trkpt>
      <trkpt lat="42.4143770" lon="-2.7449620">
        <ele>555.6</ele>
        <time>2020-03-31T18:13:09Z</time>
      </trkpt>
      <trkpt lat="42.4144290" lon="-2.7451450">
        <ele>555.0</ele>
        <time>2020-03-31T18:13:11Z</time>
      </trkpt>
      <trkpt lat="42.4144580" lon="-2.7454850">
        <ele>552.2</ele>
        <time>2020-03-31T18:13:13Z</time>
      </trkpt>
      <trkpt lat="42.4144930" lon="-2.7457680">
        <ele>550.8</ele>
        <time>2020-03-31T18:13:15Z</time>
      </trkpt>
      <trkpt lat="42.4145660" lon="-2.7459750">
        <ele>549.9</ele>
        <time>2020-03-31T18:13:17Z</time>
      </trkpt>
      <trkpt lat="42.4146420" lon="-2.7461900">
        <ele>548.8</ele>
        <time>2020-03-31T18:13:19Z</time>
      </trkpt>
      <trkpt lat="42.4147800" lon="-2.7466610">
        <ele>546.6</ele>
        <time>2020-03-31T18:13:21Z</time>
      </trkpt>
      <trkpt lat="42.4148340" lon="-2.7469380">
        <ele>545.6</ele>
        <time>2020-03-31T18:13:23Z</time>
      </trkpt>
      <trkpt lat="42.4148890" lon="-2.7471360">
        <ele>544.9</ele>
        <time>2020-03-31T18:13:25Z</time>
      </trkpt>
      <trkpt lat="42.4149910" lon="-2.7474910">
        <ele>544.0</ele>
        <time>2020-03-31T18:13:27Z</time>
      </trkpt>
      <trkpt lat="42.4150850" lon="-2.7477070">
        <ele>543.5</ele>
        <time>2020-03-31T18:13:29Z</time>
      </trkpt>
      <trkpt lat="42.4152010" lon="-2.7479260">
        <ele>543.2</ele>
        <time>2020-03-31T18:13:31Z</time>
      </trkpt>
      <trkpt lat="42.4152760" lon="-2.7481610">
        <ele>543.3</ele>
        <time>2020-03-31T18:13:33Z</time>
      </trkpt>
      <trkpt lat="42.4152970" lon="-2.7483460">
        <ele>543.3</ele>
        <time>2020-03-31T18:13:35Z</time>
      </trkpt>
      <trkpt lat="42.4153190" lon="-2.7485290">
        <ele>543.4</ele>
        <time>2020-03-31T18:13:37Z</time>
      </trkpt>
      <trkpt lat="42.4153480" lon="-2.7488770">
        <ele>543.7</ele>
        <time>2020-03-31T18:13:39Z</time>
      </trkpt>
      <trkpt lat="42.4153580" lon="-2.7490760">
        <ele>543.5</ele>
        <time>2020-03-31T18:13:41Z</time>
      </trkpt>
      <trkpt lat="42.4153940" lon="-2.7494430">
        <ele>542.4</ele>
        <time>2020-03-31T18:13:43Z</time>
      </trkpt>
      <trkpt lat="42.4154350" lon="-2.7496540">
        <ele>541.7</ele>
        <time>2020-03-31T18:13:45Z</time>
      </trkpt>
      <trkpt lat="42.4155090" lon="-2.7500310">
        <ele>540.2</ele>
        <time>2020-03-31T18:13:47Z</time>
      </trkpt>
      <trkpt lat="42.4155550" lon="-2.7502670">
        <ele>538.6</ele>
        <time>2020-03-31T18:13:49Z</time>
      </trkpt>
      <trkpt lat="42.4156640" lon="-2.7507020">
        <ele>535.4</ele>
        <time>2020-03-31T18:13:51Z</time>
      </trkpt>
      <trkpt lat="42.4157960" lon="-2.7509110">
        <ele>533.7</ele>
        <time>2020-03-31T18:13:53Z</time>
      </trkpt>
      <trkpt lat="42.4160210" lon="-2.7512440">
        <ele>530.0</ele>
        <time>2020-03-31T18:13:55Z</time>
      </trkpt>
      <trkpt lat="42.4161780" lon="-2.7514340">
        <ele>526.9</ele>
        <time>2020-03-31T18:13:57Z</time>
      </trkpt>
      <trkpt lat="42.4163370" lon="-2.7518610">
        <ele>522.6</ele>
        <time>2020-03-31T18:13:59Z</time>
      </trkpt>
      <trkpt lat="42.4163270" lon="-2.7521460">
        <ele>521.1</ele>
        <time>2020-03-31T18:14:01Z</time>
      </trkpt>
      <trkpt lat="42.4163080" lon="-2.7526480">
        <ele>518.0</ele>
        <time>2020-03-31T18:14:03Z</time>
      </trkpt>
      <trkpt lat="42.4162980" lon="-2.7529220">
        <ele>517.1</ele>
        <time>2020-03-31T18:14:05Z</time>
      </trkpt>
      <trkpt lat="42.4162890" lon="-2.7531750">
        <ele>516.3</ele>
        <time>2020-03-31T18:14:07Z</time>
      </trkpt>
      <trkpt lat="42.4162520" lon="-2.7536210">
        <ele>515.8</ele>
        <time>2020-03-31T18:14:09Z</time>
      </trkpt>
      <trkpt lat="42.4162210" lon="-2.7538410">
        <ele>515.2</ele>
        <time>2020-03-31T18:14:11Z</time>
      </trkpt>
      <trkpt lat="42.4161690" lon="-2.7542100">
        <ele>514.3</ele>
        <time>2020-03-31T18:14:13Z</time>
      </trkpt>
      <trkpt lat="42.4161420" lon="-2.7544050">
        <ele>514.2</ele>
        <time>2020-03-31T18:14:15Z</time>
      </trkpt>
      <trkpt lat="42.4161350" lon="-2.7547420">
        <ele>514.3</ele>
        <time>2020-03-31T18:14:17Z</time>
      </trkpt>
      <trkpt lat="42.4161690" lon="-2.7549820">
        <ele>514.8</ele>
        <time>2020-03-31T18:14:19Z</time>
      </trkpt>
      <trkpt lat="42.4161670" lon="-2.7551510">
        <ele>515.1</ele>
        <time>2020-03-31T18:14:21Z</time>
      </trkpt>
      <trkpt lat="42.4161650" lon="-2.7553130">
        <ele>515.5</ele>
        <time>2020-03-31T18:14:23Z</time>
      </trkpt>
      <trkpt lat="42.4161640" lon="-2.7554690">
        <ele>515.8</ele>
        <time>2020-03-31T18:14:25Z</time>
      </trkpt>
      <trkpt lat="42.4161540" lon="-2.7558500">
        <ele>516.8</ele>
        <time>2020-03-31T18:14:27Z</time>
      </trkpt>
      <trkpt lat="42.4161420" lon="-2.7559950">
        <ele>517.3</ele>
        <time>2020-03-31T18:14:29Z</time>
      </trkpt>
      <trkpt lat="42.4161300" lon="-2.7561360">
        <ele>518.1</ele>
        <time>2020-03-31T18:14:31Z</time>
      </trkpt>
      <trkpt lat="42.4161190" lon="-2.7562720">
        <ele>518.7</ele>
        <time>2020-03-31T18:14:33Z</time>
      </trkpt>
      <trkpt lat="42.4160900" lon="-2.7566090">
        <ele>520.5</ele>
        <time>2020-03-31T18:14:35Z</time>
      </trkpt>
      <trkpt lat="42.4160790" lon="-2.7567410">
        <ele>520.8</ele>
        <time>2020-03-31T18:14:37Z</time>
      </trkpt>
      <trkpt lat="42.4160680" lon="-2.7568700">
        <ele>521.0</ele>
        <time>2020-03-31T18:14:39Z</time>
      </trkpt>
      <trkpt lat="42.4160580" lon="-2.7570010">
        <ele>521.1</ele>
        <time>2020-03-31T18:14:41Z</time>
      </trkpt>
      <trkpt lat="42.4160300" lon="-2.7573320">
        <ele>521.6</ele>
        <time>2020-03-31T18:14:43Z</time>
      </trkpt>
      <trkpt lat="42.4160260" lon="-2.7574560">
        <ele>521.7</ele>
        <time>2020-03-31T18:14:45Z</time>
      </trkpt>
      <trkpt lat="42.4160220" lon="-2.7575710">
        <ele>522.0</ele>
        <time>2020-03-31T18:14:47Z</time>
      </trkpt>
      <trkpt lat="42.4160180" lon="-2.7576820">
        <ele>522.2</ele>
        <time>2020-03-31T18:14:49Z</time>
      </trkpt>
      <trkpt lat="42.4160150" lon="-2.7577880">
        <ele>522.5</ele>
        <time>2020-03-31T18:14:51Z</time>
      </trkpt>
      <trkpt lat="42.4160110" lon="-2.7578910">
        <ele>522.8</ele>
        <time>2020-03-31T18:14:53Z</time>
      </trkpt>
      <trkpt lat="42.4160080" lon="-2.7579910">
        <ele>523.1</ele>
        <time>2020-03-31T18:14:55Z</time>
      </trkpt>
      <trkpt lat="42.4159970" lon="-2.7583240">
        <ele>524.2</ele>
        <time>2020-03-31T18:14:57Z</time>
      </trkpt>
      <trkpt lat="42.4159940" lon="-2.7584200">
        <ele>524.6</ele>
        <time>2020-03-31T18:14:59Z</time>
      </trkpt>
      <trkpt lat="42.4159910" lon="-2.7585140">
        <ele>525.1</ele>
        <time>2020-03-31T18:15:01Z</time>
      </trkpt>
      <trkpt lat="42.4159870" lon="-2.7586080">
        <ele>525.6</ele>
        <time>2020-03-31T18:15:03Z</time>
      </trkpt>
      <trkpt lat="42.4159840" lon="-2.7587020">
        <ele>526.3</ele>
        <time>2020-03-31T18:15:05Z</time>
      </trkpt>
      <trkpt lat="42.4159810" lon="-2.7587970">
        <ele>526.7</ele>
        <time>2020-03-31T18:15:07Z</time>
      </trkpt>
      <trkpt lat="42.4159780" lon="-2.7588920">
        <ele>527.0</ele>
        <time>2020-03-31T18:15:09Z</time>
      </trkpt>
      <trkpt lat="42.4160040" lon="-2.7592150">
        <ele>528.8</ele>
        <time>2020-03-31T18:15:11Z</time>
      </trkpt>
      <trkpt lat="42.4160410" lon="-2.7593070">
        <ele>529.6</ele>
        <time>2020-03-31T18:15:13Z</time>
      </trkpt>
      <trkpt lat="42.4160790" lon="-2.7594040">
        <ele>530.5</ele>
        <time>2020-03-31T18:15:15Z</time>
      </trkpt>
      <trkpt lat="42.4161190" lon="-2.7595030">
        <ele>531.1</ele>
        <time>2020-03-31T18:15:17Z</time>
      </trkpt>
      <trkpt lat="42.4161600" lon="-2.7596040">
        <ele>531.5</ele>
        <time>2020-03-31T18:15:19Z</time>
      </trkpt>
      <trkpt lat="42.4162770" lon="-2.7598680">
        <ele>531.9</ele>
        <time>2020-03-31T18:15:21Z</time>
      </trkpt>
      <trkpt lat="42.4163400" lon="-2.7600160">
        <ele>532.3</ele>
        <time>2020-03-31T18:15:23Z</time>
      </trkpt>
      <trkpt lat="42.4163740" lon="-2.7601240">
        <ele>533.0</ele>
        <time>2020-03-31T18:15:25Z</time>
      </trkpt>
      <trkpt lat="42.4164210" lon="-2.7603140">
        <ele>533.9</ele>
        <time>2020-03-31T18:15:27Z</time>
      </trkpt>
      <trkpt lat="42.4164380" lon="-2.7604350">
        <ele>534.5</ele>
        <time>2020-03-31T18:15:29Z</time>
      </trkpt>
      <trkpt lat="42.4164570" lon="-2.7605610">
        <ele>535.0</ele>
        <time>2020-03-31T18:15:31Z</time>
      </trkpt>
      <trkpt lat="42.4164750" lon="-2.7606880">
        <ele>535.5</ele>
        <time>2020-03-31T18:15:33Z</time>
      </trkpt>
      <trkpt lat="42.4165310" lon="-2.7609740">
        <ele>536.4</ele>
        <time>2020-03-31T18:15:35Z</time>
      </trkpt>
      <trkpt lat="42.4165660" lon="-2.7610980">
        <ele>536.8</ele>
        <time>2020-03-31T18:15:37Z</time>
      </trkpt>
      <trkpt lat="42.4166330" lon="-2.7613470">
        <ele>537.7</ele>
        <time>2020-03-31T18:15:39Z</time>
      </trkpt>
      <trkpt lat="42.4166600" lon="-2.7614760">
        <ele>538.1</ele>
        <time>2020-03-31T18:15:41Z</time>
      </trkpt>
      <trkpt lat="42.4166870" lon="-2.7616050">
        <ele>538.4</ele>
        <time>2020-03-31T18:15:43Z</time>
      </trkpt>
      <trkpt lat="42.4167140" lon="-2.7617360">
        <ele>538.7</ele>
        <time>2020-03-31T18:15:45Z</time>
      </trkpt>
      <trkpt lat="42.4167780" lon="-2.7620430">
        <ele>539.3</ele>
        <time>2020-03-31T18:15:47Z</time>
      </trkpt>
      <trkpt lat="42.4168060" lon="-2.7621770">
        <ele>539.5</ele>
        <time>2020-03-31T18:15:50Z</time>
      </trkpt>
      <trkpt lat="42.4168340" lon="-2.7623140">
        <ele>539.6</ele>
        <time>2020-03-31T18:15:52Z</time>
      </trkpt>
      <trkpt lat="42.4168630" lon="-2.7624540">
        <ele>539.8</ele>
        <time>2020-03-31T18:15:54Z</time>
      </trkpt>
      <trkpt lat="42.4169260" lon="-2.7627740">
        <ele>540.2</ele>
        <time>2020-03-31T18:15:56Z</time>
      </trkpt>
      <trkpt lat="42.4169510" lon="-2.7629180">
        <ele>540.5</ele>
        <time>2020-03-31T18:15:58Z</time>
      </trkpt>
      <trkpt lat="42.4169770" lon="-2.7630640">
        <ele>540.8</ele>
        <time>2020-03-31T18:16:00Z</time>
      </trkpt>
      <trkpt lat="42.4170360" lon="-2.7633990">
        <ele>541.3</ele>
        <time>2020-03-31T18:16:02Z</time>
      </trkpt>
      <trkpt lat="42.4170610" lon="-2.7635460">
        <ele>541.5</ele>
        <time>2020-03-31T18:16:04Z</time>
      </trkpt>
      <trkpt lat="42.4170870" lon="-2.7636900">
        <ele>541.7</ele>
        <time>2020-03-31T18:16:06Z</time>
      </trkpt>
      <trkpt lat="42.4171120" lon="-2.7638350">
        <ele>542.0</ele>
        <time>2020-03-31T18:16:08Z</time>
      </trkpt>
      <trkpt lat="42.4171730" lon="-2.7641630">
        <ele>542.4</ele>
        <time>2020-03-31T18:16:10Z</time>
      </trkpt>
      <trkpt lat="42.4172050" lon="-2.7643000">
        <ele>542.5</ele>
        <time>2020-03-31T18:16:12Z</time>
      </trkpt>
      <trkpt lat="42.4172380" lon="-2.7644360">
        <ele>542.6</ele>
        <time>2020-03-31T18:16:14Z</time>
      </trkpt>
      <trkpt lat="42.4172710" lon="-2.7645740">
        <ele>542.8</ele>
        <time>2020-03-31T18:16:16Z</time>
      </trkpt>
      <trkpt lat="42.4173470" lon="-2.7649080">
        <ele>543.6</ele>
        <time>2020-03-31T18:16:18Z</time>
      </trkpt>
      <trkpt lat="42.4173660" lon="-2.7650500">
        <ele>544.3</ele>
        <time>2020-03-31T18:16:20Z</time>
      </trkpt>
      <trkpt lat="42.4173860" lon="-2.7651940">
        <ele>545.0</ele>
        <time>2020-03-31T18:16:22Z</time>
      </trkpt>
      <trkpt lat="42.4174050" lon="-2.7653370">
        <ele>545.5</ele>
        <time>2020-03-31T18:16:24Z</time>
      </trkpt>
      <trkpt lat="42.4174250" lon="-2.7654800">
        <ele>546.0</ele>
        <time>2020-03-31T18:16:26Z</time>
      </trkpt>
      <trkpt lat="42.4174740" lon="-2.7658730">
        <ele>546.9</ele>
        <time>2020-03-31T18:16:28Z</time>
      </trkpt>
      <trkpt lat="42.4174830" lon="-2.7660190">
        <ele>547.3</ele>
        <time>2020-03-31T18:16:30Z</time>
      </trkpt>
      <trkpt lat="42.4174920" lon="-2.7661660">
        <ele>547.7</ele>
        <time>2020-03-31T18:16:32Z</time>
      </trkpt>
      <trkpt lat="42.4175010" lon="-2.7663140">
        <ele>548.0</ele>
        <time>2020-03-31T18:16:34Z</time>
      </trkpt>
      <trkpt lat="42.4175310" lon="-2.7666690">
        <ele>548.6</ele>
        <time>2020-03-31T18:16:36Z</time>
      </trkpt>
      <trkpt lat="42.4175600" lon="-2.7668170">
        <ele>548.9</ele>
        <time>2020-03-31T18:16:38Z</time>
      </trkpt>
      <trkpt lat="42.4176080" lon="-2.7670760">
        <ele>549.5</ele>
        <time>2020-03-31T18:16:40Z</time>
      </trkpt>
      <trkpt lat="42.4176320" lon="-2.7672320">
        <ele>549.8</ele>
        <time>2020-03-31T18:16:42Z</time>
      </trkpt>
      <trkpt lat="42.4176570" lon="-2.7673910">
        <ele>550.1</ele>
        <time>2020-03-31T18:16:44Z</time>
      </trkpt>
      <trkpt lat="42.4176810" lon="-2.7675520">
        <ele>550.3</ele>
        <time>2020-03-31T18:16:46Z</time>
      </trkpt>
      <trkpt lat="42.4177060" lon="-2.7677130">
        <ele>550.4</ele>
        <time>2020-03-31T18:16:48Z</time>
      </trkpt>
      <trkpt lat="42.4177640" lon="-2.7681540">
        <ele>550.5</ele>
        <time>2020-03-31T18:16:50Z</time>
      </trkpt>
      <trkpt lat="42.4177730" lon="-2.7683300">
        <ele>550.5</ele>
        <time>2020-03-31T18:16:52Z</time>
      </trkpt>
      <trkpt lat="42.4177820" lon="-2.7685140">
        <ele>550.4</ele>
        <time>2020-03-31T18:16:54Z</time>
      </trkpt>
      <trkpt lat="42.4178010" lon="-2.7688850">
        <ele>550.1</ele>
        <time>2020-03-31T18:16:56Z</time>
      </trkpt>
      <trkpt lat="42.4178100" lon="-2.7690790">
        <ele>549.8</ele>
        <time>2020-03-31T18:16:58Z</time>
      </trkpt>
      <trkpt lat="42.4178200" lon="-2.7692770">
        <ele>549.5</ele>
        <time>2020-03-31T18:17:00Z</time>
      </trkpt>
      <trkpt lat="42.4178540" lon="-2.7696610">
        <ele>549.0</ele>
        <time>2020-03-31T18:17:02Z</time>
      </trkpt>
      <trkpt lat="42.4178800" lon="-2.7698680">
        <ele>548.6</ele>
        <time>2020-03-31T18:17:04Z</time>
      </trkpt>
      <trkpt lat="42.4179070" lon="-2.7700830">
        <ele>547.9</ele>
        <time>2020-03-31T18:17:06Z</time>
      </trkpt>
      <trkpt lat="42.4179790" lon="-2.7705270">
        <ele>546.3</ele>
        <time>2020-03-31T18:17:08Z</time>
      </trkpt>
      <trkpt lat="42.4180260" lon="-2.7707430">
        <ele>545.4</ele>
        <time>2020-03-31T18:17:10Z</time>
      </trkpt>
      <trkpt lat="42.4180750" lon="-2.7709630">
        <ele>544.7</ele>
        <time>2020-03-31T18:17:12Z</time>
      </trkpt>
      <trkpt lat="42.4181880" lon="-2.7714700">
        <ele>543.3</ele>
        <time>2020-03-31T18:17:14Z</time>
      </trkpt>
      <trkpt lat="42.4182480" lon="-2.7716810">
        <ele>542.8</ele>
        <time>2020-03-31T18:17:16Z</time>
      </trkpt>
      <trkpt lat="42.4183050" lon="-2.7718800">
        <ele>542.4</ele>
        <time>2020-03-31T18:17:18Z</time>
      </trkpt>
      <trkpt lat="42.4184190" lon="-2.7722890">
        <ele>541.9</ele>
        <time>2020-03-31T18:17:20Z</time>
      </trkpt>
      <trkpt lat="42.4184650" lon="-2.7724870">
        <ele>541.9</ele>
        <time>2020-03-31T18:17:22Z</time>
      </trkpt>
      <trkpt lat="42.4185110" lon="-2.7726820">
        <ele>541.9</ele>
        <time>2020-03-31T18:17:24Z</time>
      </trkpt>
      <trkpt lat="42.4185560" lon="-2.7728750">
        <ele>541.8</ele>
        <time>2020-03-31T18:17:26Z</time>
      </trkpt>
      <trkpt lat="42.4186610" lon="-2.7733010">
        <ele>541.1</ele>
        <time>2020-03-31T18:17:28Z</time>
      </trkpt>
      <trkpt lat="42.4187120" lon="-2.7734860">
        <ele>541.0</ele>
        <time>2020-03-31T18:17:30Z</time>
      </trkpt>
      <trkpt lat="42.4187610" lon="-2.7736660">
        <ele>540.9</ele>
        <time>2020-03-31T18:17:32Z</time>
      </trkpt>
      <trkpt lat="42.4188740" lon="-2.7740800">
        <ele>541.1</ele>
        <time>2020-03-31T18:17:34Z</time>
      </trkpt>
      <trkpt lat="42.4189210" lon="-2.7742540">
        <ele>541.2</ele>
        <time>2020-03-31T18:17:36Z</time>
      </trkpt>
      <trkpt lat="42.4189680" lon="-2.7744260">
        <ele>541.4</ele>
        <time>2020-03-31T18:17:38Z</time>
      </trkpt>
      <trkpt lat="42.4190140" lon="-2.7745950">
        <ele>541.6</ele>
        <time>2020-03-31T18:17:40Z</time>
      </trkpt>
      <trkpt lat="42.4191250" lon="-2.7750000">
        <ele>541.8</ele>
        <time>2020-03-31T18:17:42Z</time>
      </trkpt>
      <trkpt lat="42.4191710" lon="-2.7751670">
        <ele>541.9</ele>
        <time>2020-03-31T18:17:44Z</time>
      </trkpt>
      <trkpt lat="42.4192150" lon="-2.7753300">
        <ele>542.1</ele>
        <time>2020-03-31T18:17:46Z</time>
      </trkpt>
      <trkpt lat="42.4192590" lon="-2.7754890">
        <ele>542.3</ele>
        <time>2020-03-31T18:17:48Z</time>
      </trkpt>
      <trkpt lat="42.4193650" lon="-2.7758840">
        <ele>543.1</ele>
        <time>2020-03-31T18:17:50Z</time>
      </trkpt>
      <trkpt lat="42.4193960" lon="-2.7760450">
        <ele>543.5</ele>
        <time>2020-03-31T18:17:52Z</time>
      </trkpt>
      <trkpt lat="42.4194260" lon="-2.7762040">
        <ele>543.9</ele>
        <time>2020-03-31T18:17:54Z</time>
      </trkpt>
      <trkpt lat="42.4194570" lon="-2.7763630">
        <ele>544.3</ele>
        <time>2020-03-31T18:17:56Z</time>
      </trkpt>
      <trkpt lat="42.4194870" lon="-2.7765210">
        <ele>544.6</ele>
        <time>2020-03-31T18:17:58Z</time>
      </trkpt>
      <trkpt lat="42.4195180" lon="-2.7766780">
        <ele>544.9</ele>
        <time>2020-03-31T18:18:00Z</time>
      </trkpt>
      <trkpt lat="42.4196050" lon="-2.7771280">
        <ele>545.4</ele>
        <time>2020-03-31T18:18:02Z</time>
      </trkpt>
      <trkpt lat="42.4196360" lon="-2.7772940">
        <ele>545.3</ele>
        <time>2020-03-31T18:18:04Z</time>
      </trkpt>
      <trkpt lat="42.4196690" lon="-2.7774630">
        <ele>545.3</ele>
        <time>2020-03-31T18:18:06Z</time>
      </trkpt>
      <trkpt lat="42.4197020" lon="-2.7776350">
        <ele>545.2</ele>
        <time>2020-03-31T18:18:08Z</time>
      </trkpt>
      <trkpt lat="42.4197910" lon="-2.7781030">
        <ele>544.9</ele>
        <time>2020-03-31T18:18:10Z</time>
      </trkpt>
      <trkpt lat="42.4198030" lon="-2.7782860">
        <ele>544.9</ele>
        <time>2020-03-31T18:18:12Z</time>
      </trkpt>
      <trkpt lat="42.4198160" lon="-2.7784710">
        <ele>544.8</ele>
        <time>2020-03-31T18:18:14Z</time>
      </trkpt>
      <trkpt lat="42.4198420" lon="-2.7788500">
        <ele>544.8</ele>
        <time>2020-03-31T18:18:16Z</time>
      </trkpt>
      <trkpt lat="42.4198610" lon="-2.7790380">
        <ele>544.8</ele>
        <time>2020-03-31T18:18:18Z</time>
      </trkpt>
      <trkpt lat="42.4198800" lon="-2.7792270">
        <ele>544.6</ele>
        <time>2020-03-31T18:18:20Z</time>
      </trkpt>
      <trkpt lat="42.4199210" lon="-2.7796240">
        <ele>544.0</ele>
        <time>2020-03-31T18:18:22Z</time>
      </trkpt>
      <trkpt lat="42.4199630" lon="-2.7798090">
        <ele>543.9</ele>
        <time>2020-03-31T18:18:24Z</time>
      </trkpt>
      <trkpt lat="42.4200050" lon="-2.7799950">
        <ele>543.9</ele>
        <time>2020-03-31T18:18:26Z</time>
      </trkpt>
      <trkpt lat="42.4200840" lon="-2.7803420">
        <ele>543.9</ele>
        <time>2020-03-31T18:18:28Z</time>
      </trkpt>
      <trkpt lat="42.4201270" lon="-2.7805280">
        <ele>543.8</ele>
        <time>2020-03-31T18:18:30Z</time>
      </trkpt>
      <trkpt lat="42.4202000" lon="-2.7808780">
        <ele>543.8</ele>
        <time>2020-03-31T18:18:32Z</time>
      </trkpt>
      <trkpt lat="42.4201980" lon="-2.7810750">
        <ele>543.8</ele>
        <time>2020-03-31T18:18:34Z</time>
      </trkpt>
      <trkpt lat="42.4201960" lon="-2.7812730">
        <ele>543.6</ele>
        <time>2020-03-31T18:18:36Z</time>
      </trkpt>
      <trkpt lat="42.4201940" lon="-2.7814720">
        <ele>543.3</ele>
        <time>2020-03-31T18:18:38Z</time>
      </trkpt>
      <trkpt lat="42.4201930" lon="-2.7816720">
        <ele>543.0</ele>
        <time>2020-03-31T18:18:40Z</time>
      </trkpt>
      <trkpt lat="42.4201950" lon="-2.7821650">
        <ele>542.8</ele>
        <time>2020-03-31T18:18:42Z</time>
      </trkpt>
      <trkpt lat="42.4202000" lon="-2.7823700">
        <ele>542.5</ele>
        <time>2020-03-31T18:18:44Z</time>
      </trkpt>
      <trkpt lat="42.4202090" lon="-2.7827370">
        <ele>542.0</ele>
        <time>2020-03-31T18:18:46Z</time>
      </trkpt>
      <trkpt lat="42.4202140" lon="-2.7829450">
        <ele>541.6</ele>
        <time>2020-03-31T18:18:48Z</time>
      </trkpt>
      <trkpt lat="42.4202370" lon="-2.7833120">
        <ele>540.9</ele>
        <time>2020-03-31T18:18:50Z</time>
      </trkpt>
      <trkpt lat="42.4202640" lon="-2.7835110">
        <ele>540.3</ele>
        <time>2020-03-31T18:18:52Z</time>
      </trkpt>
      <trkpt lat="42.4203070" lon="-2.7838390">
        <ele>540.4</ele>
        <time>2020-03-31T18:18:54Z</time>
      </trkpt>
      <trkpt lat="42.4203310" lon="-2.7840290">
        <ele>540.4</ele>
        <time>2020-03-31T18:18:56Z</time>
      </trkpt>
      <trkpt lat="42.4203550" lon="-2.7842190">
        <ele>539.9</ele>
        <time>2020-03-31T18:18:58Z</time>
      </trkpt>
      <trkpt lat="42.4204090" lon="-2.7846470">
        <ele>539.3</ele>
        <time>2020-03-31T18:19:00Z</time>
      </trkpt>
      <trkpt lat="42.4204320" lon="-2.7848300">
        <ele>539.8</ele>
        <time>2020-03-31T18:19:02Z</time>
      </trkpt>
      <trkpt lat="42.4204540" lon="-2.7850080">
        <ele>540.2</ele>
        <time>2020-03-31T18:19:04Z</time>
      </trkpt>
      <trkpt lat="42.4204760" lon="-2.7851810">
        <ele>540.2</ele>
        <time>2020-03-31T18:19:06Z</time>
      </trkpt>
      <trkpt lat="42.4205250" lon="-2.7855900">
        <ele>540.5</ele>
        <time>2020-03-31T18:19:08Z</time>
      </trkpt>
      <trkpt lat="42.4205380" lon="-2.7857570">
        <ele>540.8</ele>
        <time>2020-03-31T18:19:10Z</time>
      </trkpt>
      <trkpt lat="42.4205520" lon="-2.7859230">
        <ele>541.1</ele>
        <time>2020-03-31T18:19:12Z</time>
      </trkpt>
      <trkpt lat="42.4205810" lon="-2.7862830">
        <ele>541.8</ele>
        <time>2020-03-31T18:19:14Z</time>
      </trkpt>
      <trkpt lat="42.4205940" lon="-2.7864440">
        <ele>542.2</ele>
        <time>2020-03-31T18:19:16Z</time>
      </trkpt>
      <trkpt lat="42.4206060" lon="-2.7866010">
        <ele>542.5</ele>
        <time>2020-03-31T18:19:18Z</time>
      </trkpt>
      <trkpt lat="42.4206190" lon="-2.7867560">
        <ele>542.8</ele>
        <time>2020-03-31T18:19:20Z</time>
      </trkpt>
      <trkpt lat="42.4206440" lon="-2.7871040">
        <ele>543.6</ele>
        <time>2020-03-31T18:19:22Z</time>
      </trkpt>
      <trkpt lat="42.4206520" lon="-2.7872550">
        <ele>543.8</ele>
        <time>2020-03-31T18:19:24Z</time>
      </trkpt>
      <trkpt lat="42.4206590" lon="-2.7874040">
        <ele>544.1</ele>
        <time>2020-03-31T18:19:26Z</time>
      </trkpt>
      <trkpt lat="42.4206660" lon="-2.7875530">
        <ele>544.6</ele>
        <time>2020-03-31T18:19:28Z</time>
      </trkpt>
      <trkpt lat="42.4206730" lon="-2.7877000">
        <ele>545.1</ele>
        <time>2020-03-31T18:19:30Z</time>
      </trkpt>
      <trkpt lat="42.4206940" lon="-2.7881120">
        <ele>546.2</ele>
        <time>2020-03-31T18:19:32Z</time>
      </trkpt>
      <trkpt lat="42.4207010" lon="-2.7882670">
        <ele>546.6</ele>
        <time>2020-03-31T18:19:34Z</time>
      </trkpt>
      <trkpt lat="42.4207090" lon="-2.7884310">
        <ele>546.9</ele>
        <time>2020-03-31T18:19:36Z</time>
      </trkpt>
      <trkpt lat="42.4207180" lon="-2.7886000">
        <ele>547.2</ele>
        <time>2020-03-31T18:19:38Z</time>
      </trkpt>
      <trkpt lat="42.4207260" lon="-2.7887750">
        <ele>547.9</ele>
        <time>2020-03-31T18:19:40Z</time>
      </trkpt>
      <trkpt lat="42.4207940" lon="-2.7892030">
        <ele>549.0</ele>
        <time>2020-03-31T18:19:42Z</time>
      </trkpt>
      <trkpt lat="42.4208510" lon="-2.7893670">
        <ele>549.0</ele>
        <time>2020-03-31T18:19:44Z</time>
      </trkpt>
      <trkpt lat="42.4209670" lon="-2.7896960">
        <ele>548.3</ele>
        <time>2020-03-31T18:19:46Z</time>
      </trkpt>
      <trkpt lat="42.4210350" lon="-2.7898560">
        <ele>548.1</ele>
        <time>2020-03-31T18:19:48Z</time>
      </trkpt>
      <trkpt lat="42.4211040" lon="-2.7900180">
        <ele>547.6</ele>
        <time>2020-03-31T18:19:50Z</time>
      </trkpt>
      <trkpt lat="42.4212400" lon="-2.7903380">
        <ele>546.6</ele>
        <time>2020-03-31T18:19:52Z</time>
      </trkpt>
      <trkpt lat="42.4213100" lon="-2.7905040">
        <ele>546.3</ele>
        <time>2020-03-31T18:19:54Z</time>
      </trkpt>
      <trkpt lat="42.4213820" lon="-2.7906740">
        <ele>546.1</ele>
        <time>2020-03-31T18:19:56Z</time>
      </trkpt>
      <trkpt lat="42.4215130" lon="-2.7910100">
        <ele>545.7</ele>
        <time>2020-03-31T18:19:58Z</time>
      </trkpt>
      <trkpt lat="42.4215740" lon="-2.7911930">
        <ele>545.3</ele>
        <time>2020-03-31T18:20:00Z</time>
      </trkpt>
      <trkpt lat="42.4216350" lon="-2.7913790">
        <ele>544.9</ele>
        <time>2020-03-31T18:20:02Z</time>
      </trkpt>
      <trkpt lat="42.4217710" lon="-2.7917870">
        <ele>544.2</ele>
        <time>2020-03-31T18:20:04Z</time>
      </trkpt>
      <trkpt lat="42.4218330" lon="-2.7919740">
        <ele>544.0</ele>
        <time>2020-03-31T18:20:06Z</time>
      </trkpt>
      <trkpt lat="42.4218940" lon="-2.7921590">
        <ele>544.0</ele>
        <time>2020-03-31T18:20:08Z</time>
      </trkpt>
      <trkpt lat="42.4219550" lon="-2.7923430">
        <ele>543.9</ele>
        <time>2020-03-31T18:20:10Z</time>
      </trkpt>
      <trkpt lat="42.4220970" lon="-2.7927430">
        <ele>543.7</ele>
        <time>2020-03-31T18:20:12Z</time>
      </trkpt>
      <trkpt lat="42.4221670" lon="-2.7929220">
        <ele>543.4</ele>
        <time>2020-03-31T18:20:14Z</time>
      </trkpt>
      <trkpt lat="42.4222750" lon="-2.7932540">
        <ele>542.6</ele>
        <time>2020-03-31T18:20:16Z</time>
      </trkpt>
      <trkpt lat="42.4223210" lon="-2.7934450">
        <ele>542.3</ele>
        <time>2020-03-31T18:20:18Z</time>
      </trkpt>
      <trkpt lat="42.4223970" lon="-2.7937870">
        <ele>542.0</ele>
        <time>2020-03-31T18:20:20Z</time>
      </trkpt>
      <trkpt lat="42.4224300" lon="-2.7939780">
        <ele>541.8</ele>
        <time>2020-03-31T18:20:22Z</time>
      </trkpt>
      <trkpt lat="42.4224630" lon="-2.7941680">
        <ele>541.7</ele>
        <time>2020-03-31T18:20:24Z</time>
      </trkpt>
      <trkpt lat="42.4224960" lon="-2.7943590">
        <ele>541.5</ele>
        <time>2020-03-31T18:20:26Z</time>
      </trkpt>
      <trkpt lat="42.4225710" lon="-2.7947930">
        <ele>541.4</ele>
        <time>2020-03-31T18:20:28Z</time>
      </trkpt>
      <trkpt lat="42.4226020" lon="-2.7949690">
        <ele>541.5</ele>
        <time>2020-03-31T18:20:30Z</time>
      </trkpt>
      <trkpt lat="42.4226310" lon="-2.7951370">
        <ele>541.5</ele>
        <time>2020-03-31T18:20:32Z</time>
      </trkpt>
      <trkpt lat="42.4226590" lon="-2.7952990">
        <ele>541.5</ele>
        <time>2020-03-31T18:20:34Z</time>
      </trkpt>
      <trkpt lat="42.4227290" lon="-2.7957030">
        <ele>541.8</ele>
        <time>2020-03-31T18:20:36Z</time>
      </trkpt>
      <trkpt lat="42.4227550" lon="-2.7958560">
        <ele>541.9</ele>
        <time>2020-03-31T18:20:38Z</time>
      </trkpt>
      <trkpt lat="42.4227810" lon="-2.7960050">
        <ele>542.2</ele>
        <time>2020-03-31T18:20:40Z</time>
      </trkpt>
      <trkpt lat="42.4228070" lon="-2.7961530">
        <ele>542.7</ele>
        <time>2020-03-31T18:20:42Z</time>
      </trkpt>
      <trkpt lat="42.4228320" lon="-2.7962980">
        <ele>543.2</ele>
        <time>2020-03-31T18:20:44Z</time>
      </trkpt>
      <trkpt lat="42.4229000" lon="-2.7966910">
        <ele>544.7</ele>
        <time>2020-03-31T18:20:46Z</time>
      </trkpt>
      <trkpt lat="42.4229250" lon="-2.7968340">
        <ele>545.2</ele>
        <time>2020-03-31T18:20:48Z</time>
      </trkpt>
      <trkpt lat="42.4229490" lon="-2.7969770">
        <ele>545.8</ele>
        <time>2020-03-31T18:20:50Z</time>
      </trkpt>
      <trkpt lat="42.4229750" lon="-2.7971220">
        <ele>546.4</ele>
        <time>2020-03-31T18:20:52Z</time>
      </trkpt>
      <trkpt lat="42.4230440" lon="-2.7975190">
        <ele>547.9</ele>
        <time>2020-03-31T18:20:54Z</time>
      </trkpt>
      <trkpt lat="42.4230740" lon="-2.7976610">
        <ele>548.5</ele>
        <time>2020-03-31T18:20:56Z</time>
      </trkpt>
      <trkpt lat="42.4231040" lon="-2.7977970">
        <ele>549.0</ele>
        <time>2020-03-31T18:20:58Z</time>
      </trkpt>
      <trkpt lat="42.4231320" lon="-2.7979300">
        <ele>549.5</ele>
        <time>2020-03-31T18:21:00Z</time>
      </trkpt>
      <trkpt lat="42.4231600" lon="-2.7980590">
        <ele>550.0</ele>
        <time>2020-03-31T18:21:02Z</time>
      </trkpt>
      <trkpt lat="42.4231870" lon="-2.7981860">
        <ele>550.6</ele>
        <time>2020-03-31T18:21:04Z</time>
      </trkpt>
      <trkpt lat="42.4232770" lon="-2.7985890">
        <ele>552.2</ele>
        <time>2020-03-31T18:21:06Z</time>
      </trkpt>
      <trkpt lat="42.4233330" lon="-2.7987430">
        <ele>552.8</ele>
        <time>2020-03-31T18:21:08Z</time>
      </trkpt>
      <trkpt lat="42.4233840" lon="-2.7988660">
        <ele>553.2</ele>
        <time>2020-03-31T18:21:10Z</time>
      </trkpt>
      <trkpt lat="42.4234400" lon="-2.7990020">
        <ele>553.4</ele>
        <time>2020-03-31T18:21:12Z</time>
      </trkpt>
      <trkpt lat="42.4235570" lon="-2.7992870">
        <ele>553.5</ele>
        <time>2020-03-31T18:21:14Z</time>
      </trkpt>
      <trkpt lat="42.4236200" lon="-2.7994400">
        <ele>553.4</ele>
        <time>2020-03-31T18:21:16Z</time>
      </trkpt>
      <trkpt lat="42.4236850" lon="-2.7995980">
        <ele>553.3</ele>
        <time>2020-03-31T18:21:18Z</time>
      </trkpt>
      <trkpt lat="42.4238040" lon="-2.7999090">
        <ele>553.0</ele>
        <time>2020-03-31T18:21:20Z</time>
      </trkpt>
      <trkpt lat="42.4238700" lon="-2.8001010">
        <ele>552.5</ele>
        <time>2020-03-31T18:21:22Z</time>
      </trkpt>
      <trkpt lat="42.4239410" lon="-2.8003080">
        <ele>552.0</ele>
        <time>2020-03-31T18:21:24Z</time>
      </trkpt>
      <trkpt lat="42.4241050" lon="-2.8007740">
        <ele>550.3</ele>
        <time>2020-03-31T18:21:26Z</time>
      </trkpt>
      <trkpt lat="42.4242000" lon="-2.8009900">
        <ele>548.9</ele>
        <time>2020-03-31T18:21:28Z</time>
      </trkpt>
      <trkpt lat="42.4243450" lon="-2.8013500">
        <ele>545.9</ele>
        <time>2020-03-31T18:21:30Z</time>
      </trkpt>
      <trkpt lat="42.4244210" lon="-2.8015880">
        <ele>543.5</ele>
        <time>2020-03-31T18:21:32Z</time>
      </trkpt>
      <trkpt lat="42.4245440" lon="-2.8020100">
        <ele>540.9</ele>
        <time>2020-03-31T18:21:34Z</time>
      </trkpt>
      <trkpt lat="42.4246190" lon="-2.8023410">
        <ele>539.6</ele>
        <time>2020-03-31T18:21:36Z</time>
      </trkpt>
      <trkpt lat="42.4247510" lon="-2.8026220">
        <ele>538.4</ele>
        <time>2020-03-31T18:21:38Z</time>
      </trkpt>
      <trkpt lat="42.4249240" lon="-2.8028180">
        <ele>537.5</ele>
        <time>2020-03-31T18:21:40Z</time>
      </trkpt>
      <trkpt lat="42.4250580" lon="-2.8029440">
        <ele>537.1</ele>
        <time>2020-03-31T18:21:42Z</time>
      </trkpt>
      <trkpt lat="42.4251860" lon="-2.8030640">
        <ele>536.9</ele>
        <time>2020-03-31T18:21:44Z</time>
      </trkpt>
      <trkpt lat="42.4254370" lon="-2.8032990">
        <ele>536.5</ele>
        <time>2020-03-31T18:21:46Z</time>
      </trkpt>
      <trkpt lat="42.4255580" lon="-2.8034130">
        <ele>536.4</ele>
        <time>2020-03-31T18:21:48Z</time>
      </trkpt>
      <trkpt lat="42.4258010" lon="-2.8036470">
        <ele>536.3</ele>
        <time>2020-03-31T18:21:50Z</time>
      </trkpt>
      <trkpt lat="42.4258220" lon="-2.8038360">
        <ele>536.7</ele>
        <time>2020-03-31T18:21:52Z</time>
      </trkpt>
      <trkpt lat="42.4258410" lon="-2.8040160">
        <ele>536.9</ele>
        <time>2020-03-31T18:21:54Z</time>
      </trkpt>
      <trkpt lat="42.4258610" lon="-2.8041910">
        <ele>537.1</ele>
        <time>2020-03-31T18:21:56Z</time>
      </trkpt>
      <trkpt lat="42.4258800" lon="-2.8043620">
        <ele>537.4</ele>
        <time>2020-03-31T18:21:58Z</time>
      </trkpt>
      <trkpt lat="42.4259300" lon="-2.8048130">
        <ele>538.2</ele>
        <time>2020-03-31T18:22:00Z</time>
      </trkpt>
      <trkpt lat="42.4259470" lon="-2.8049750">
        <ele>538.4</ele>
        <time>2020-03-31T18:22:02Z</time>
      </trkpt>
      <trkpt lat="42.4259650" lon="-2.8051360">
        <ele>538.6</ele>
        <time>2020-03-31T18:22:04Z</time>
      </trkpt>
      <trkpt lat="42.4259830" lon="-2.8052960">
        <ele>538.8</ele>
        <time>2020-03-31T18:22:06Z</time>
      </trkpt>
      <trkpt lat="42.4260000" lon="-2.8054520">
        <ele>539.1</ele>
        <time>2020-03-31T18:22:08Z</time>
      </trkpt>
      <trkpt lat="42.4260490" lon="-2.8058940">
        <ele>540.1</ele>
        <time>2020-03-31T18:22:10Z</time>
      </trkpt>
      <trkpt lat="42.4260660" lon="-2.8060530">
        <ele>540.4</ele>
        <time>2020-03-31T18:22:12Z</time>
      </trkpt>
      <trkpt lat="42.4260840" lon="-2.8062140">
        <ele>540.6</ele>
        <time>2020-03-31T18:22:14Z</time>
      </trkpt>
      <trkpt lat="42.4261020" lon="-2.8063750">
        <ele>540.7</ele>
        <time>2020-03-31T18:22:16Z</time>
      </trkpt>
      <trkpt lat="42.4261200" lon="-2.8065380">
        <ele>540.8</ele>
        <time>2020-03-31T18:22:18Z</time>
      </trkpt>
      <trkpt lat="42.4261730" lon="-2.8069860">
        <ele>541.0</ele>
        <time>2020-03-31T18:22:20Z</time>
      </trkpt>
      <trkpt lat="42.4261980" lon="-2.8071490">
        <ele>541.4</ele>
        <time>2020-03-31T18:22:22Z</time>
      </trkpt>
      <trkpt lat="42.4262230" lon="-2.8073110">
        <ele>541.6</ele>
        <time>2020-03-31T18:22:24Z</time>
      </trkpt>
      <trkpt lat="42.4262840" lon="-2.8076220">
        <ele>541.9</ele>
        <time>2020-03-31T18:22:26Z</time>
      </trkpt>
      <trkpt lat="42.4263220" lon="-2.8077720">
        <ele>542.1</ele>
        <time>2020-03-31T18:22:28Z</time>
      </trkpt>
      <trkpt lat="42.4263590" lon="-2.8079170">
        <ele>542.3</ele>
        <time>2020-03-31T18:22:30Z</time>
      </trkpt>
      <trkpt lat="42.4264390" lon="-2.8082290">
        <ele>542.8</ele>
        <time>2020-03-31T18:22:32Z</time>
      </trkpt>
      <trkpt lat="42.4264750" lon="-2.8083680">
        <ele>543.1</ele>
        <time>2020-03-31T18:22:34Z</time>
      </trkpt>
      <trkpt lat="42.4265100" lon="-2.8085060">
        <ele>543.4</ele>
        <time>2020-03-31T18:22:36Z</time>
      </trkpt>
      <trkpt lat="42.4265890" lon="-2.8088100">
        <ele>544.1</ele>
        <time>2020-03-31T18:22:38Z</time>
      </trkpt>
      <trkpt lat="42.4266280" lon="-2.8089430">
        <ele>544.7</ele>
        <time>2020-03-31T18:22:40Z</time>
      </trkpt>
      <trkpt lat="42.4266670" lon="-2.8090740">
        <ele>545.2</ele>
        <time>2020-03-31T18:22:42Z</time>
      </trkpt>
      <trkpt lat="42.4267050" lon="-2.8092030">
        <ele>545.7</ele>
        <time>2020-03-31T18:22:44Z</time>
      </trkpt>
      <trkpt lat="42.4267440" lon="-2.8093340">
        <ele>546.2</ele>
        <time>2020-03-31T18:22:46Z</time>
      </trkpt>
      <trkpt lat="42.4267820" lon="-2.8094640">
        <ele>546.7</ele>
        <time>2020-03-31T18:22:48Z</time>
      </trkpt>
      <trkpt lat="42.4268990" lon="-2.8098610">
        <ele>548.0</ele>
        <time>2020-03-31T18:22:50Z</time>
      </trkpt>
      <trkpt lat="42.4269380" lon="-2.8099910">
        <ele>548.5</ele>
        <time>2020-03-31T18:22:52Z</time>
      </trkpt>
      <trkpt lat="42.4269780" lon="-2.8101250">
        <ele>548.8</ele>
        <time>2020-03-31T18:22:54Z</time>
      </trkpt>
      <trkpt lat="42.4270170" lon="-2.8102600">
        <ele>549.1</ele>
        <time>2020-03-31T18:22:56Z</time>
      </trkpt>
      <trkpt lat="42.4270580" lon="-2.8103970">
        <ele>549.4</ele>
        <time>2020-03-31T18:22:58Z</time>
      </trkpt>
      <trkpt lat="42.4270990" lon="-2.8105350">
        <ele>549.8</ele>
        <time>2020-03-31T18:23:00Z</time>
      </trkpt>
      <trkpt lat="42.4272350" lon="-2.8109280">
        <ele>550.8</ele>
        <time>2020-03-31T18:23:02Z</time>
      </trkpt>
      <trkpt lat="42.4272930" lon="-2.8110540">
        <ele>551.0</ele>
        <time>2020-03-31T18:23:04Z</time>
      </trkpt>
      <trkpt lat="42.4273520" lon="-2.8111800">
        <ele>551.3</ele>
        <time>2020-03-31T18:23:06Z</time>
      </trkpt>
      <trkpt lat="42.4274110" lon="-2.8113090">
        <ele>551.5</ele>
        <time>2020-03-31T18:23:08Z</time>
      </trkpt>
      <trkpt lat="42.4274710" lon="-2.8114370">
        <ele>551.8</ele>
        <time>2020-03-31T18:23:10Z</time>
      </trkpt>
      <trkpt lat="42.4276380" lon="-2.8117990">
        <ele>552.7</ele>
        <time>2020-03-31T18:23:12Z</time>
      </trkpt>
      <trkpt lat="42.4276970" lon="-2.8119240">
        <ele>553.0</ele>
        <time>2020-03-31T18:23:14Z</time>
      </trkpt>
      <trkpt lat="42.4277540" lon="-2.8120480">
        <ele>553.3</ele>
        <time>2020-03-31T18:23:16Z</time>
      </trkpt>
      <trkpt lat="42.4278100" lon="-2.8121700">
        <ele>553.4</ele>
        <time>2020-03-31T18:23:18Z</time>
      </trkpt>
      <trkpt lat="42.4278670" lon="-2.8122920">
        <ele>553.6</ele>
        <time>2020-03-31T18:23:20Z</time>
      </trkpt>
      <trkpt lat="42.4280290" lon="-2.8126520">
        <ele>554.4</ele>
        <time>2020-03-31T18:23:22Z</time>
      </trkpt>
      <trkpt lat="42.4280770" lon="-2.8127790">
        <ele>554.9</ele>
        <time>2020-03-31T18:23:24Z</time>
      </trkpt>
      <trkpt lat="42.4281250" lon="-2.8129070">
        <ele>555.6</ele>
        <time>2020-03-31T18:23:26Z</time>
      </trkpt>
      <trkpt lat="42.4281720" lon="-2.8130340">
        <ele>556.2</ele>
        <time>2020-03-31T18:23:28Z</time>
      </trkpt>
      <trkpt lat="42.4282930" lon="-2.8133590">
        <ele>557.9</ele>
        <time>2020-03-31T18:23:30Z</time>
      </trkpt>
      <trkpt lat="42.4283340" lon="-2.8134910">
        <ele>558.0</ele>
        <time>2020-03-31T18:23:32Z</time>
      </trkpt>
      <trkpt lat="42.4283750" lon="-2.8136240">
        <ele>558.2</ele>
        <time>2020-03-31T18:23:34Z</time>
      </trkpt>
      <trkpt lat="42.4284170" lon="-2.8137600">
        <ele>558.4</ele>
        <time>2020-03-31T18:23:36Z</time>
      </trkpt>
      <trkpt lat="42.4284590" lon="-2.8138960">
        <ele>558.7</ele>
        <time>2020-03-31T18:23:38Z</time>
      </trkpt>
      <trkpt lat="42.4285670" lon="-2.8142620">
        <ele>559.5</ele>
        <time>2020-03-31T18:23:40Z</time>
      </trkpt>
      <trkpt lat="42.4285930" lon="-2.8144050">
        <ele>559.8</ele>
        <time>2020-03-31T18:23:42Z</time>
      </trkpt>
      <trkpt lat="42.4286190" lon="-2.8145500">
        <ele>560.1</ele>
        <time>2020-03-31T18:23:44Z</time>
      </trkpt>
      <trkpt lat="42.4286760" lon="-2.8148080">
        <ele>560.6</ele>
        <time>2020-03-31T18:23:46Z</time>
      </trkpt>
      <trkpt lat="42.4287120" lon="-2.8149480">
        <ele>560.8</ele>
        <time>2020-03-31T18:23:48Z</time>
      </trkpt>
      <trkpt lat="42.4287870" lon="-2.8152290">
        <ele>561.3</ele>
        <time>2020-03-31T18:23:50Z</time>
      </trkpt>
      <trkpt lat="42.4288380" lon="-2.8153620">
        <ele>561.6</ele>
        <time>2020-03-31T18:23:52Z</time>
      </trkpt>
      <trkpt lat="42.4288900" lon="-2.8154950">
        <ele>561.8</ele>
        <time>2020-03-31T18:23:54Z</time>
      </trkpt>
      <trkpt lat="42.4289410" lon="-2.8156290">
        <ele>562.1</ele>
        <time>2020-03-31T18:23:56Z</time>
      </trkpt>
      <trkpt lat="42.4290530" lon="-2.8159370">
        <ele>562.6</ele>
        <time>2020-03-31T18:23:58Z</time>
      </trkpt>
      <trkpt lat="42.4290940" lon="-2.8160780">
        <ele>562.9</ele>
        <time>2020-03-31T18:24:00Z</time>
      </trkpt>
      <trkpt lat="42.4291350" lon="-2.8162170">
        <ele>563.2</ele>
        <time>2020-03-31T18:24:02Z</time>
      </trkpt>
      <trkpt lat="42.4291750" lon="-2.8163550">
        <ele>563.4</ele>
        <time>2020-03-31T18:24:04Z</time>
      </trkpt>
      <trkpt lat="42.4292820" lon="-2.8167150">
        <ele>564.3</ele>
        <time>2020-03-31T18:24:06Z</time>
      </trkpt>
      <trkpt lat="42.4293300" lon="-2.8168480">
        <ele>564.6</ele>
        <time>2020-03-31T18:24:08Z</time>
      </trkpt>
      <trkpt lat="42.4293780" lon="-2.8169810">
        <ele>565.0</ele>
        <time>2020-03-31T18:24:10Z</time>
      </trkpt>
      <trkpt lat="42.4294250" lon="-2.8171110">
        <ele>565.4</ele>
        <time>2020-03-31T18:24:12Z</time>
      </trkpt>
      <trkpt lat="42.4295390" lon="-2.8174180">
        <ele>566.7</ele>
        <time>2020-03-31T18:24:14Z</time>
      </trkpt>
      <trkpt lat="42.4296250" lon="-2.8175550">
        <ele>567.7</ele>
        <time>2020-03-31T18:24:16Z</time>
      </trkpt>
      <trkpt lat="42.4296900" lon="-2.8176990">
        <ele>568.6</ele>
        <time>2020-03-31T18:24:18Z</time>
      </trkpt>
      <trkpt lat="42.4297570" lon="-2.8178390">
        <ele>569.0</ele>
        <time>2020-03-31T18:24:20Z</time>
      </trkpt>
      <trkpt lat="42.4298690" lon="-2.8180130">
        <ele>569.3</ele>
        <time>2020-03-31T18:24:22Z</time>
      </trkpt>
      <trkpt lat="42.4299580" lon="-2.8181240">
        <ele>569.2</ele>
        <time>2020-03-31T18:24:24Z</time>
      </trkpt>
      <trkpt lat="42.4300610" lon="-2.8182520">
        <ele>568.9</ele>
        <time>2020-03-31T18:24:26Z</time>
      </trkpt>
      <trkpt lat="42.4301740" lon="-2.8183920">
        <ele>568.6</ele>
        <time>2020-03-31T18:24:28Z</time>
      </trkpt>
      <trkpt lat="42.4304400" lon="-2.8186810">
        <ele>567.1</ele>
        <time>2020-03-31T18:24:30Z</time>
      </trkpt>
      <trkpt lat="42.4305920" lon="-2.8188000">
        <ele>566.1</ele>
        <time>2020-03-31T18:24:32Z</time>
      </trkpt>
      <trkpt lat="42.4307510" lon="-2.8189240">
        <ele>564.8</ele>
        <time>2020-03-31T18:24:34Z</time>
      </trkpt>
      <trkpt lat="42.4311050" lon="-2.8192050">
        <ele>561.0</ele>
        <time>2020-03-31T18:24:36Z</time>
      </trkpt>
      <trkpt lat="42.4312600" lon="-2.8193600">
        <ele>559.3</ele>
        <time>2020-03-31T18:24:38Z</time>
      </trkpt>
      <trkpt lat="42.4315130" lon="-2.8196240">
        <ele>556.0</ele>
        <time>2020-03-31T18:24:40Z</time>
      </trkpt>
      <trkpt lat="42.4316590" lon="-2.8198080">
        <ele>553.3</ele>
        <time>2020-03-31T18:24:42Z</time>
      </trkpt>
      <trkpt lat="42.4318070" lon="-2.8199950">
        <ele>551.1</ele>
        <time>2020-03-31T18:24:44Z</time>
      </trkpt>
      <trkpt lat="42.4320780" lon="-2.8203520">
        <ele>549.5</ele>
        <time>2020-03-31T18:24:46Z</time>
      </trkpt>
      <trkpt lat="42.4322340" lon="-2.8206320">
        <ele>549.4</ele>
        <time>2020-03-31T18:24:48Z</time>
      </trkpt>
      <trkpt lat="42.4323390" lon="-2.8208500">
        <ele>549.0</ele>
        <time>2020-03-31T18:24:50Z</time>
      </trkpt>
      <trkpt lat="42.4325630" lon="-2.8211390">
        <ele>546.1</ele>
        <time>2020-03-31T18:24:52Z</time>
      </trkpt>
      <trkpt lat="42.4327220" lon="-2.8210370">
        <ele>545.3</ele>
        <time>2020-03-31T18:24:54Z</time>
      </trkpt>
      <trkpt lat="42.4328710" lon="-2.8209410">
        <ele>544.9</ele>
        <time>2020-03-31T18:24:56Z</time>
      </trkpt>
      <trkpt lat="42.4330090" lon="-2.8208510">
        <ele>544.4</ele>
        <time>2020-03-31T18:24:58Z</time>
      </trkpt>
      <trkpt lat="42.4333030" lon="-2.8207570">
        <ele>543.8</ele>
        <time>2020-03-31T18:25:00Z</time>
      </trkpt>
      <trkpt lat="42.4333310" lon="-2.8209480">
        <ele>543.8</ele>
        <time>2020-03-31T18:25:02Z</time>
      </trkpt>
      <trkpt lat="42.4333590" lon="-2.8211370">
        <ele>543.8</ele>
        <time>2020-03-31T18:25:04Z</time>
      </trkpt>
      <trkpt lat="42.4334190" lon="-2.8215480">
        <ele>544.0</ele>
        <time>2020-03-31T18:25:06Z</time>
      </trkpt>
      <trkpt lat="42.4334460" lon="-2.8217320">
        <ele>544.3</ele>
        <time>2020-03-31T18:25:08Z</time>
      </trkpt>
      <trkpt lat="42.4334730" lon="-2.8219110">
        <ele>544.6</ele>
        <time>2020-03-31T18:25:10Z</time>
      </trkpt>
      <trkpt lat="42.4334990" lon="-2.8220860">
        <ele>544.9</ele>
        <time>2020-03-31T18:25:12Z</time>
      </trkpt>
      <trkpt lat="42.4335570" lon="-2.8224830">
        <ele>545.7</ele>
        <time>2020-03-31T18:25:14Z</time>
      </trkpt>
      <trkpt lat="42.4335820" lon="-2.8226530">
        <ele>545.9</ele>
        <time>2020-03-31T18:25:16Z</time>
      </trkpt>
      <trkpt lat="42.4336070" lon="-2.8228210">
        <ele>546.2</ele>
        <time>2020-03-31T18:25:18Z</time>
      </trkpt>
      <trkpt lat="42.4336310" lon="-2.8229880">
        <ele>546.4</ele>
        <time>2020-03-31T18:25:20Z</time>
      </trkpt>
      <trkpt lat="42.4336790" lon="-2.8233790">
        <ele>546.7</ele>
        <time>2020-03-31T18:25:22Z</time>
      </trkpt>
      <trkpt lat="42.4336910" lon="-2.8235430">
        <ele>546.7</ele>
        <time>2020-03-31T18:25:24Z</time>
      </trkpt>
      <trkpt lat="42.4337030" lon="-2.8237070">
        <ele>546.7</ele>
        <time>2020-03-31T18:25:26Z</time>
      </trkpt>
      <trkpt lat="42.4337150" lon="-2.8238660">
        <ele>546.8</ele>
        <time>2020-03-31T18:25:28Z</time>
      </trkpt>
      <trkpt lat="42.4337270" lon="-2.8240260">
        <ele>547.0</ele>
        <time>2020-03-31T18:25:30Z</time>
      </trkpt>
      <trkpt lat="42.4337600" lon="-2.8244810">
        <ele>547.7</ele>
        <time>2020-03-31T18:25:32Z</time>
      </trkpt>
      <trkpt lat="42.4337720" lon="-2.8246410">
        <ele>548.0</ele>
        <time>2020-03-31T18:25:34Z</time>
      </trkpt>
      <trkpt lat="42.4337830" lon="-2.8247970">
        <ele>548.3</ele>
        <time>2020-03-31T18:25:36Z</time>
      </trkpt>
      <trkpt lat="42.4337950" lon="-2.8249530">
        <ele>548.6</ele>
        <time>2020-03-31T18:25:38Z</time>
      </trkpt>
      <trkpt lat="42.4338060" lon="-2.8251090">
        <ele>548.8</ele>
        <time>2020-03-31T18:25:40Z</time>
      </trkpt>
      <trkpt lat="42.4338390" lon="-2.8255600">
        <ele>549.6</ele>
        <time>2020-03-31T18:25:42Z</time>
      </trkpt>
      <trkpt lat="42.4338510" lon="-2.8257200">
        <ele>549.9</ele>
        <time>2020-03-31T18:25:44Z</time>
      </trkpt>
      <trkpt lat="42.4338630" lon="-2.8258850">
        <ele>550.1</ele>
        <time>2020-03-31T18:25:46Z</time>
      </trkpt>
      <trkpt lat="42.4338760" lon="-2.8260530">
        <ele>550.3</ele>
        <time>2020-03-31T18:25:48Z</time>
      </trkpt>
      <trkpt lat="42.4338880" lon="-2.8262220">
        <ele>550.5</ele>
        <time>2020-03-31T18:25:50Z</time>
      </trkpt>
      <trkpt lat="42.4339220" lon="-2.8266900">
        <ele>551.2</ele>
        <time>2020-03-31T18:25:52Z</time>
      </trkpt>
      <trkpt lat="42.4339350" lon="-2.8268640">
        <ele>551.4</ele>
        <time>2020-03-31T18:25:54Z</time>
      </trkpt>
      <trkpt lat="42.4339480" lon="-2.8270390">
        <ele>551.5</ele>
        <time>2020-03-31T18:25:56Z</time>
      </trkpt>
      <trkpt lat="42.4339610" lon="-2.8272150">
        <ele>551.5</ele>
        <time>2020-03-31T18:25:58Z</time>
      </trkpt>
      <trkpt lat="42.4339740" lon="-2.8273920">
        <ele>551.4</ele>
        <time>2020-03-31T18:26:00Z</time>
      </trkpt>
      <trkpt lat="42.4340120" lon="-2.8278630">
        <ele>551.4</ele>
        <time>2020-03-31T18:26:02Z</time>
      </trkpt>
      <trkpt lat="42.4340410" lon="-2.8281390">
        <ele>551.4</ele>
        <time>2020-03-31T18:26:04Z</time>
      </trkpt>
      <trkpt lat="42.4340720" lon="-2.8283120">
        <ele>551.3</ele>
        <time>2020-03-31T18:26:06Z</time>
      </trkpt>
      <trkpt lat="42.4341210" lon="-2.8286040">
        <ele>551.3</ele>
        <time>2020-03-31T18:26:08Z</time>
      </trkpt>
      <trkpt lat="42.4341300" lon="-2.8287780">
        <ele>551.4</ele>
        <time>2020-03-31T18:26:10Z</time>
      </trkpt>
      <trkpt lat="42.4341370" lon="-2.8290490">
        <ele>551.7</ele>
        <time>2020-03-31T18:26:12Z</time>
      </trkpt>
      <trkpt lat="42.4341310" lon="-2.8292220">
        <ele>551.9</ele>
        <time>2020-03-31T18:26:14Z</time>
      </trkpt>
      <trkpt lat="42.4341260" lon="-2.8293940">
        <ele>552.2</ele>
        <time>2020-03-31T18:26:16Z</time>
      </trkpt>
      <trkpt lat="42.4341250" lon="-2.8297210">
        <ele>552.5</ele>
        <time>2020-03-31T18:26:18Z</time>
      </trkpt>
      <trkpt lat="42.4341310" lon="-2.8298930">
        <ele>552.6</ele>
        <time>2020-03-31T18:26:20Z</time>
      </trkpt>
      <trkpt lat="42.4341360" lon="-2.8300640">
        <ele>552.8</ele>
        <time>2020-03-31T18:26:22Z</time>
      </trkpt>
      <trkpt lat="42.4341420" lon="-2.8302330">
        <ele>553.0</ele>
        <time>2020-03-31T18:26:24Z</time>
      </trkpt>
      <trkpt lat="42.4341690" lon="-2.8306430">
        <ele>553.4</ele>
        <time>2020-03-31T18:26:26Z</time>
      </trkpt>
      <trkpt lat="42.4341890" lon="-2.8308100">
        <ele>553.5</ele>
        <time>2020-03-31T18:26:28Z</time>
      </trkpt>
      <trkpt lat="42.4342300" lon="-2.8311500">
        <ele>553.8</ele>
        <time>2020-03-31T18:26:30Z</time>
      </trkpt>
      <trkpt lat="42.4342390" lon="-2.8313750">
        <ele>554.1</ele>
        <time>2020-03-31T18:26:32Z</time>
      </trkpt>
      <trkpt lat="42.4342330" lon="-2.8315440">
        <ele>554.2</ele>
        <time>2020-03-31T18:26:34Z</time>
      </trkpt>
      <trkpt lat="42.4342270" lon="-2.8317130">
        <ele>554.3</ele>
        <time>2020-03-31T18:26:36Z</time>
      </trkpt>
      <trkpt lat="42.4342140" lon="-2.8320600">
        <ele>554.4</ele>
        <time>2020-03-31T18:26:38Z</time>
      </trkpt>
      <trkpt lat="42.4342080" lon="-2.8322270">
        <ele>554.4</ele>
        <time>2020-03-31T18:26:40Z</time>
      </trkpt>
      <trkpt lat="42.4342020" lon="-2.8323970">
        <ele>554.4</ele>
        <time>2020-03-31T18:26:42Z</time>
      </trkpt>
      <trkpt lat="42.4341800" lon="-2.8327400">
        <ele>554.5</ele>
        <time>2020-03-31T18:26:44Z</time>
      </trkpt>
      <trkpt lat="42.4341290" lon="-2.8328940">
        <ele>554.8</ele>
        <time>2020-03-31T18:26:46Z</time>
      </trkpt>
      <trkpt lat="42.4340360" lon="-2.8330990">
        <ele>555.5</ele>
        <time>2020-03-31T18:26:48Z</time>
      </trkpt>
      <trkpt lat="42.4339640" lon="-2.8332320">
        <ele>555.9</ele>
        <time>2020-03-31T18:26:50Z</time>
      </trkpt>
      <trkpt lat="42.4338930" lon="-2.8333630">
        <ele>556.4</ele>
        <time>2020-03-31T18:26:52Z</time>
      </trkpt>
      <trkpt lat="42.4338230" lon="-2.8334920">
        <ele>556.7</ele>
        <time>2020-03-31T18:26:54Z</time>
      </trkpt>
      <trkpt lat="42.4336300" lon="-2.8338500">
        <ele>557.4</ele>
        <time>2020-03-31T18:26:56Z</time>
      </trkpt>
      <trkpt lat="42.4335970" lon="-2.8340310">
        <ele>557.7</ele>
        <time>2020-03-31T18:26:58Z</time>
      </trkpt>
      <trkpt lat="42.4335900" lon="-2.8342000">
        <ele>557.7</ele>
        <time>2020-03-31T18:27:00Z</time>
      </trkpt>
      <trkpt lat="42.4335840" lon="-2.8343720">
        <ele>557.7</ele>
        <time>2020-03-31T18:27:02Z</time>
      </trkpt>
      <trkpt lat="42.4335780" lon="-2.8345470">
        <ele>557.7</ele>
        <time>2020-03-31T18:27:04Z</time>
      </trkpt>
      <trkpt lat="42.4335620" lon="-2.8349730">
        <ele>557.6</ele>
        <time>2020-03-31T18:27:06Z</time>
      </trkpt>
      <trkpt lat="42.4335550" lon="-2.8351510">
        <ele>557.6</ele>
        <time>2020-03-31T18:27:08Z</time>
      </trkpt>
      <trkpt lat="42.4335480" lon="-2.8353320">
        <ele>557.6</ele>
        <time>2020-03-31T18:27:10Z</time>
      </trkpt>
      <trkpt lat="42.4335420" lon="-2.8355150">
        <ele>557.6</ele>
        <time>2020-03-31T18:27:12Z</time>
      </trkpt>
      <trkpt lat="42.4335350" lon="-2.8359450">
        <ele>557.6</ele>
        <time>2020-03-31T18:27:14Z</time>
      </trkpt>
      <trkpt lat="42.4335420" lon="-2.8361290">
        <ele>557.6</ele>
        <time>2020-03-31T18:27:16Z</time>
      </trkpt>
      <trkpt lat="42.4335490" lon="-2.8363140">
        <ele>557.6</ele>
        <time>2020-03-31T18:27:18Z</time>
      </trkpt>
      <trkpt lat="42.4335560" lon="-2.8364990">
        <ele>557.6</ele>
        <time>2020-03-31T18:27:20Z</time>
      </trkpt>
      <trkpt lat="42.4335740" lon="-2.8369470">
        <ele>557.6</ele>
        <time>2020-03-31T18:27:22Z</time>
      </trkpt>
      <trkpt lat="42.4335810" lon="-2.8371270">
        <ele>557.6</ele>
        <time>2020-03-31T18:27:24Z</time>
      </trkpt>
      <trkpt lat="42.4335880" lon="-2.8373020">
        <ele>557.6</ele>
        <time>2020-03-31T18:27:26Z</time>
      </trkpt>
      <trkpt lat="42.4335950" lon="-2.8374750">
        <ele>557.7</ele>
        <time>2020-03-31T18:27:28Z</time>
      </trkpt>
      <trkpt lat="42.4336120" lon="-2.8379080">
        <ele>558.3</ele>
        <time>2020-03-31T18:27:30Z</time>
      </trkpt>
      <trkpt lat="42.4336190" lon="-2.8380750">
        <ele>558.5</ele>
        <time>2020-03-31T18:27:32Z</time>
      </trkpt>
      <trkpt lat="42.4336250" lon="-2.8382400">
        <ele>558.7</ele>
        <time>2020-03-31T18:27:34Z</time>
      </trkpt>
      <trkpt lat="42.4336320" lon="-2.8384060">
        <ele>558.9</ele>
        <time>2020-03-31T18:27:36Z</time>
      </trkpt>
      <trkpt lat="42.4336380" lon="-2.8385700">
        <ele>559.3</ele>
        <time>2020-03-31T18:27:38Z</time>
      </trkpt>
      <trkpt lat="42.4336850" lon="-2.8389920">
        <ele>560.3</ele>
        <time>2020-03-31T18:27:40Z</time>
      </trkpt>
      <trkpt lat="42.4337310" lon="-2.8391490">
        <ele>560.4</ele>
        <time>2020-03-31T18:27:42Z</time>
      </trkpt>
      <trkpt lat="42.4338220" lon="-2.8394300">
        <ele>560.5</ele>
        <time>2020-03-31T18:27:44Z</time>
      </trkpt>
      <trkpt lat="42.4338840" lon="-2.8395840">
        <ele>560.5</ele>
        <time>2020-03-31T18:27:46Z</time>
      </trkpt>
      <trkpt lat="42.4339470" lon="-2.8397400">
        <ele>560.5</ele>
        <time>2020-03-31T18:27:48Z</time>
      </trkpt>
      <trkpt lat="42.4340340" lon="-2.8400620">
        <ele>560.5</ele>
        <time>2020-03-31T18:27:50Z</time>
      </trkpt>
      <trkpt lat="42.4340390" lon="-2.8403220">
        <ele>560.5</ele>
        <time>2020-03-31T18:27:52Z</time>
      </trkpt>
      <trkpt lat="42.4340190" lon="-2.8404980">
        <ele>560.5</ele>
        <time>2020-03-31T18:27:54Z</time>
      </trkpt>
      <trkpt lat="42.4339990" lon="-2.8406740">
        <ele>560.5</ele>
        <time>2020-03-31T18:27:56Z</time>
      </trkpt>
      <trkpt lat="42.4339930" lon="-2.8410090">
        <ele>560.8</ele>
        <time>2020-03-31T18:27:58Z</time>
      </trkpt>
      <trkpt lat="42.4339640" lon="-2.8412310">
        <ele>561.4</ele>
        <time>2020-03-31T18:28:00Z</time>
      </trkpt>
      <trkpt lat="42.4338360" lon="-2.8412600">
        <ele>561.4</ele>
        <time>2020-03-31T18:28:02Z</time>
      </trkpt>
      <trkpt lat="42.4336650" lon="-2.8414230">
        <ele>561.4</ele>
        <time>2020-03-31T18:28:04Z</time>
      </trkpt>
      <trkpt lat="42.4336090" lon="-2.8415780">
        <ele>561.4</ele>
        <time>2020-03-31T18:28:06Z</time>
      </trkpt>
      <trkpt lat="42.4335530" lon="-2.8417340">
        <ele>561.5</ele>
        <time>2020-03-31T18:28:08Z</time>
      </trkpt>
      <trkpt lat="42.4334970" lon="-2.8418900">
        <ele>561.5</ele>
        <time>2020-03-31T18:28:10Z</time>
      </trkpt>
      <trkpt lat="42.4333760" lon="-2.8422630">
        <ele>562.0</ele>
        <time>2020-03-31T18:28:12Z</time>
      </trkpt>
      <trkpt lat="42.4333440" lon="-2.8424310">
        <ele>562.2</ele>
        <time>2020-03-31T18:28:14Z</time>
      </trkpt>
      <trkpt lat="42.4333110" lon="-2.8425990">
        <ele>562.4</ele>
        <time>2020-03-31T18:28:16Z</time>
      </trkpt>
      <trkpt lat="42.4332790" lon="-2.8427670">
        <ele>562.4</ele>
        <time>2020-03-31T18:28:18Z</time>
      </trkpt>
      <trkpt lat="42.4332470" lon="-2.8429340">
        <ele>562.6</ele>
        <time>2020-03-31T18:28:20Z</time>
      </trkpt>
      <trkpt lat="42.4331600" lon="-2.8433730">
        <ele>563.2</ele>
        <time>2020-03-31T18:28:22Z</time>
      </trkpt>
      <trkpt lat="42.4331250" lon="-2.8435400">
        <ele>563.3</ele>
        <time>2020-03-31T18:28:24Z</time>
      </trkpt>
      <trkpt lat="42.4330910" lon="-2.8437040">
        <ele>563.4</ele>
        <time>2020-03-31T18:28:26Z</time>
      </trkpt>
      <trkpt lat="42.4330570" lon="-2.8438660">
        <ele>563.4</ele>
        <time>2020-03-31T18:28:28Z</time>
      </trkpt>
      <trkpt lat="42.4330240" lon="-2.8440260">
        <ele>563.5</ele>
        <time>2020-03-31T18:28:30Z</time>
      </trkpt>
      <trkpt lat="42.4329290" lon="-2.8444800">
        <ele>564.2</ele>
        <time>2020-03-31T18:28:32Z</time>
      </trkpt>
      <trkpt lat="42.4328960" lon="-2.8446380">
        <ele>564.5</ele>
        <time>2020-03-31T18:28:34Z</time>
      </trkpt>
      <trkpt lat="42.4328620" lon="-2.8447980">
        <ele>564.7</ele>
        <time>2020-03-31T18:28:36Z</time>
      </trkpt>
      <trkpt lat="42.4328280" lon="-2.8449610">
        <ele>565.0</ele>
        <time>2020-03-31T18:28:38Z</time>
      </trkpt>
      <trkpt lat="42.4327940" lon="-2.8451240">
        <ele>565.2</ele>
        <time>2020-03-31T18:28:40Z</time>
      </trkpt>
      <trkpt lat="42.4327090" lon="-2.8455840">
        <ele>565.4</ele>
        <time>2020-03-31T18:28:42Z</time>
      </trkpt>
      <trkpt lat="42.4326900" lon="-2.8457500">
        <ele>565.4</ele>
        <time>2020-03-31T18:28:44Z</time>
      </trkpt>
      <trkpt lat="42.4326600" lon="-2.8460590">
        <ele>565.6</ele>
        <time>2020-03-31T18:28:46Z</time>
      </trkpt>
      <trkpt lat="42.4326610" lon="-2.8462880">
        <ele>565.9</ele>
        <time>2020-03-31T18:28:48Z</time>
      </trkpt>
      <trkpt lat="42.4326860" lon="-2.8464500">
        <ele>566.1</ele>
        <time>2020-03-31T18:28:50Z</time>
      </trkpt>
      <trkpt lat="42.4327290" lon="-2.8466770">
        <ele>566.3</ele>
        <time>2020-03-31T18:28:52Z</time>
      </trkpt>
      <trkpt lat="42.4327630" lon="-2.8468360">
        <ele>566.5</ele>
        <time>2020-03-31T18:28:54Z</time>
      </trkpt>
      <trkpt lat="42.4327970" lon="-2.8469950">
        <ele>566.7</ele>
        <time>2020-03-31T18:28:56Z</time>
      </trkpt>
      <trkpt lat="42.4328310" lon="-2.8471540">
        <ele>566.9</ele>
        <time>2020-03-31T18:28:58Z</time>
      </trkpt>
      <trkpt lat="42.4328640" lon="-2.8473120">
        <ele>567.2</ele>
        <time>2020-03-31T18:29:00Z</time>
      </trkpt>
      <trkpt lat="42.4329430" lon="-2.8477570">
        <ele>567.6</ele>
        <time>2020-03-31T18:29:02Z</time>
      </trkpt>
      <trkpt lat="42.4329580" lon="-2.8479230">
        <ele>567.9</ele>
        <time>2020-03-31T18:29:04Z</time>
      </trkpt>
      <trkpt lat="42.4329760" lon="-2.8482330">
        <ele>568.3</ele>
        <time>2020-03-31T18:29:06Z</time>
      </trkpt>
      <trkpt lat="42.4329400" lon="-2.8484450">
        <ele>568.5</ele>
        <time>2020-03-31T18:29:08Z</time>
      </trkpt>
      <trkpt lat="42.4328650" lon="-2.8486810">
        <ele>568.8</ele>
        <time>2020-03-31T18:29:10Z</time>
      </trkpt>
      <trkpt lat="42.4327500" lon="-2.8488350">
        <ele>569.1</ele>
        <time>2020-03-31T18:29:12Z</time>
      </trkpt>
      <trkpt lat="42.4326480" lon="-2.8489450">
        <ele>569.2</ele>
        <time>2020-03-31T18:29:14Z</time>
      </trkpt>
      <trkpt lat="42.4325460" lon="-2.8490540">
        <ele>569.3</ele>
        <time>2020-03-31T18:29:16Z</time>
      </trkpt>
      <trkpt lat="42.4323690" lon="-2.8493260">
        <ele>569.4</ele>
        <time>2020-03-31T18:29:18Z</time>
      </trkpt>
      <trkpt lat="42.4323230" lon="-2.8494870">
        <ele>569.4</ele>
        <time>2020-03-31T18:29:20Z</time>
      </trkpt>
      <trkpt lat="42.4322410" lon="-2.8497760">
        <ele>569.7</ele>
        <time>2020-03-31T18:29:22Z</time>
      </trkpt>
      <trkpt lat="42.4321910" lon="-2.8499260">
        <ele>569.9</ele>
        <time>2020-03-31T18:29:24Z</time>
      </trkpt>
      <trkpt lat="42.4321410" lon="-2.8500760">
        <ele>570.2</ele>
        <time>2020-03-31T18:29:26Z</time>
      </trkpt>
      <trkpt lat="42.4320910" lon="-2.8502250">
        <ele>570.6</ele>
        <time>2020-03-31T18:29:28Z</time>
      </trkpt>
      <trkpt lat="42.4319840" lon="-2.8505620">
        <ele>571.2</ele>
        <time>2020-03-31T18:29:30Z</time>
      </trkpt>
      <trkpt lat="42.4319430" lon="-2.8507100">
        <ele>571.5</ele>
        <time>2020-03-31T18:29:32Z</time>
      </trkpt>
      <trkpt lat="42.4319020" lon="-2.8508580">
        <ele>571.8</ele>
        <time>2020-03-31T18:29:34Z</time>
      </trkpt>
      <trkpt lat="42.4318610" lon="-2.8510040">
        <ele>572.2</ele>
        <time>2020-03-31T18:29:36Z</time>
      </trkpt>
      <trkpt lat="42.4317620" lon="-2.8513590">
        <ele>573.0</ele>
        <time>2020-03-31T18:29:38Z</time>
      </trkpt>
      <trkpt lat="42.4317220" lon="-2.8515020">
        <ele>573.4</ele>
        <time>2020-03-31T18:29:40Z</time>
      </trkpt>
      <trkpt lat="42.4316830" lon="-2.8516450">
        <ele>573.7</ele>
        <time>2020-03-31T18:29:42Z</time>
      </trkpt>
      <trkpt lat="42.4316440" lon="-2.8517850">
        <ele>574.0</ele>
        <time>2020-03-31T18:29:44Z</time>
      </trkpt>
      <trkpt lat="42.4315450" lon="-2.8521370">
        <ele>574.8</ele>
        <time>2020-03-31T18:29:46Z</time>
      </trkpt>
      <trkpt lat="42.4315060" lon="-2.8522780">
        <ele>575.0</ele>
        <time>2020-03-31T18:29:48Z</time>
      </trkpt>
      <trkpt lat="42.4314660" lon="-2.8524220">
        <ele>575.3</ele>
        <time>2020-03-31T18:29:50Z</time>
      </trkpt>
      <trkpt lat="42.4314250" lon="-2.8525680">
        <ele>575.5</ele>
        <time>2020-03-31T18:29:52Z</time>
      </trkpt>
      <trkpt lat="42.4313240" lon="-2.8529280">
        <ele>575.9</ele>
        <time>2020-03-31T18:29:54Z</time>
      </trkpt>
      <trkpt lat="42.4312740" lon="-2.8530700">
        <ele>576.1</ele>
        <time>2020-03-31T18:29:56Z</time>
      </trkpt>
      <trkpt lat="42.4311850" lon="-2.8533190">
        <ele>576.6</ele>
        <time>2020-03-31T18:29:58Z</time>
      </trkpt>
      <trkpt lat="42.4311180" lon="-2.8534480">
        <ele>576.9</ele>
        <time>2020-03-31T18:30:00Z</time>
      </trkpt>
      <trkpt lat="42.4310520" lon="-2.8535750">
        <ele>577.1</ele>
        <time>2020-03-31T18:30:02Z</time>
      </trkpt>
      <trkpt lat="42.4309860" lon="-2.8537020">
        <ele>577.3</ele>
        <time>2020-03-31T18:30:04Z</time>
      </trkpt>
      <trkpt lat="42.4309210" lon="-2.8538270">
        <ele>577.6</ele>
        <time>2020-03-31T18:30:06Z</time>
      </trkpt>
      <trkpt lat="42.4308560" lon="-2.8539510">
        <ele>577.9</ele>
        <time>2020-03-31T18:30:08Z</time>
      </trkpt>
      <trkpt lat="42.4306590" lon="-2.8543300">
        <ele>578.9</ele>
        <time>2020-03-31T18:30:10Z</time>
      </trkpt>
      <trkpt lat="42.4305940" lon="-2.8544540">
        <ele>579.1</ele>
        <time>2020-03-31T18:30:12Z</time>
      </trkpt>
      <trkpt lat="42.4305300" lon="-2.8545770">
        <ele>579.4</ele>
        <time>2020-03-31T18:30:14Z</time>
      </trkpt>
      <trkpt lat="42.4304670" lon="-2.8546980">
        <ele>579.7</ele>
        <time>2020-03-31T18:30:16Z</time>
      </trkpt>
      <trkpt lat="42.4304050" lon="-2.8548190">
        <ele>580.0</ele>
        <time>2020-03-31T18:30:18Z</time>
      </trkpt>
      <trkpt lat="42.4303420" lon="-2.8549400">
        <ele>580.3</ele>
        <time>2020-03-31T18:30:20Z</time>
      </trkpt>
      <trkpt lat="42.4301460" lon="-2.8553160">
        <ele>581.6</ele>
        <time>2020-03-31T18:30:22Z</time>
      </trkpt>
      <trkpt lat="42.4300810" lon="-2.8554400">
        <ele>581.9</ele>
        <time>2020-03-31T18:30:24Z</time>
      </trkpt>
      <trkpt lat="42.4300160" lon="-2.8555640">
        <ele>582.2</ele>
        <time>2020-03-31T18:30:26Z</time>
      </trkpt>
      <trkpt lat="42.4299510" lon="-2.8556890">
        <ele>582.5</ele>
        <time>2020-03-31T18:30:28Z</time>
      </trkpt>
      <trkpt lat="42.4298870" lon="-2.8558140">
        <ele>582.8</ele>
        <time>2020-03-31T18:30:30Z</time>
      </trkpt>
      <trkpt lat="42.4298220" lon="-2.8559370">
        <ele>583.0</ele>
        <time>2020-03-31T18:30:32Z</time>
      </trkpt>
      <trkpt lat="42.4296220" lon="-2.8563140">
        <ele>583.7</ele>
        <time>2020-03-31T18:30:34Z</time>
      </trkpt>
      <trkpt lat="42.4295530" lon="-2.8564340">
        <ele>584.0</ele>
        <time>2020-03-31T18:30:36Z</time>
      </trkpt>
      <trkpt lat="42.4294840" lon="-2.8565550">
        <ele>584.3</ele>
        <time>2020-03-31T18:30:38Z</time>
      </trkpt>
      <trkpt lat="42.4294150" lon="-2.8566760">
        <ele>584.6</ele>
        <time>2020-03-31T18:30:40Z</time>
      </trkpt>
      <trkpt lat="42.4293450" lon="-2.8567990">
        <ele>584.8</ele>
        <time>2020-03-31T18:30:42Z</time>
      </trkpt>
      <trkpt lat="42.4291530" lon="-2.8571340">
        <ele>585.4</ele>
        <time>2020-03-31T18:30:44Z</time>
      </trkpt>
      <trkpt lat="42.4290830" lon="-2.8572560">
        <ele>585.7</ele>
        <time>2020-03-31T18:30:46Z</time>
      </trkpt>
      <trkpt lat="42.4290130" lon="-2.8573790">
        <ele>586.0</ele>
        <time>2020-03-31T18:30:48Z</time>
      </trkpt>
      <trkpt lat="42.4289430" lon="-2.8575010">
        <ele>586.2</ele>
        <time>2020-03-31T18:30:50Z</time>
      </trkpt>
      <trkpt lat="42.4288730" lon="-2.8576250">
        <ele>586.5</ele>
        <time>2020-03-31T18:30:52Z</time>
      </trkpt>
      <trkpt lat="42.4286810" lon="-2.8579600">
        <ele>587.2</ele>
        <time>2020-03-31T18:30:54Z</time>
      </trkpt>
      <trkpt lat="42.4286090" lon="-2.8580850">
        <ele>587.5</ele>
        <time>2020-03-31T18:30:56Z</time>
      </trkpt>
      <trkpt lat="42.4285360" lon="-2.8582130">
        <ele>587.7</ele>
        <time>2020-03-31T18:30:58Z</time>
      </trkpt>
      <trkpt lat="42.4284630" lon="-2.8583410">
        <ele>588.0</ele>
        <time>2020-03-31T18:31:00Z</time>
      </trkpt>
      <trkpt lat="42.4282680" lon="-2.8586820">
        <ele>588.6</ele>
        <time>2020-03-31T18:31:02Z</time>
      </trkpt>
      <trkpt lat="42.4281940" lon="-2.8588120">
        <ele>588.8</ele>
        <time>2020-03-31T18:31:04Z</time>
      </trkpt>
      <trkpt lat="42.4281190" lon="-2.8589420">
        <ele>589.1</ele>
        <time>2020-03-31T18:31:06Z</time>
      </trkpt>
      <trkpt lat="42.4280440" lon="-2.8590730">
        <ele>589.3</ele>
        <time>2020-03-31T18:31:08Z</time>
      </trkpt>
      <trkpt lat="42.4279700" lon="-2.8592040">
        <ele>589.5</ele>
        <time>2020-03-31T18:31:10Z</time>
      </trkpt>
      <trkpt lat="42.4277740" lon="-2.8595450">
        <ele>589.8</ele>
        <time>2020-03-31T18:31:12Z</time>
      </trkpt>
      <trkpt lat="42.4277000" lon="-2.8596750">
        <ele>589.8</ele>
        <time>2020-03-31T18:31:14Z</time>
      </trkpt>
      <trkpt lat="42.4276270" lon="-2.8598020">
        <ele>589.8</ele>
        <time>2020-03-31T18:31:16Z</time>
      </trkpt>
      <trkpt lat="42.4275560" lon="-2.8599270">
        <ele>589.9</ele>
        <time>2020-03-31T18:31:18Z</time>
      </trkpt>
      <trkpt lat="42.4274850" lon="-2.8600510">
        <ele>590.1</ele>
        <time>2020-03-31T18:31:20Z</time>
      </trkpt>
      <trkpt lat="42.4273950" lon="-2.8604100">
        <ele>591.1</ele>
        <time>2020-03-31T18:31:22Z</time>
      </trkpt>
      <trkpt lat="42.4273990" lon="-2.8606130">
        <ele>591.3</ele>
        <time>2020-03-31T18:31:24Z</time>
      </trkpt>
      <trkpt lat="42.4273860" lon="-2.8607650">
        <ele>591.6</ele>
        <time>2020-03-31T18:31:26Z</time>
      </trkpt>
      <trkpt lat="42.4273750" lon="-2.8609130">
        <ele>592.0</ele>
        <time>2020-03-31T18:31:28Z</time>
      </trkpt>
      <trkpt lat="42.4273630" lon="-2.8610600">
        <ele>592.3</ele>
        <time>2020-03-31T18:31:30Z</time>
      </trkpt>
      <trkpt lat="42.4273510" lon="-2.8612080">
        <ele>592.8</ele>
        <time>2020-03-31T18:31:32Z</time>
      </trkpt>
      <trkpt lat="42.4273170" lon="-2.8616330">
        <ele>593.8</ele>
        <time>2020-03-31T18:31:34Z</time>
      </trkpt>
      <trkpt lat="42.4273050" lon="-2.8617810">
        <ele>594.1</ele>
        <time>2020-03-31T18:31:36Z</time>
      </trkpt>
      <trkpt lat="42.4272930" lon="-2.8619270">
        <ele>594.3</ele>
        <time>2020-03-31T18:31:38Z</time>
      </trkpt>
      <trkpt lat="42.4272820" lon="-2.8620730">
        <ele>594.5</ele>
        <time>2020-03-31T18:31:40Z</time>
      </trkpt>
      <trkpt lat="42.4272700" lon="-2.8622200">
        <ele>594.9</ele>
        <time>2020-03-31T18:31:42Z</time>
      </trkpt>
      <trkpt lat="42.4272360" lon="-2.8626440">
        <ele>595.7</ele>
        <time>2020-03-31T18:31:44Z</time>
      </trkpt>
      <trkpt lat="42.4272240" lon="-2.8627910">
        <ele>596.1</ele>
        <time>2020-03-31T18:31:46Z</time>
      </trkpt>
      <trkpt lat="42.4272130" lon="-2.8629380">
        <ele>596.5</ele>
        <time>2020-03-31T18:31:48Z</time>
      </trkpt>
      <trkpt lat="42.4272010" lon="-2.8630860">
        <ele>597.0</ele>
        <time>2020-03-31T18:31:50Z</time>
      </trkpt>
      <trkpt lat="42.4271890" lon="-2.8632330">
        <ele>597.4</ele>
        <time>2020-03-31T18:31:52Z</time>
      </trkpt>
      <trkpt lat="42.4271550" lon="-2.8636630">
        <ele>598.7</ele>
        <time>2020-03-31T18:31:54Z</time>
      </trkpt>
      <trkpt lat="42.4271420" lon="-2.8638190">
        <ele>599.1</ele>
        <time>2020-03-31T18:31:56Z</time>
      </trkpt>
      <trkpt lat="42.4271290" lon="-2.8639760">
        <ele>599.4</ele>
        <time>2020-03-31T18:31:58Z</time>
      </trkpt>
      <trkpt lat="42.4271170" lon="-2.8641360">
        <ele>599.7</ele>
        <time>2020-03-31T18:32:00Z</time>
      </trkpt>
      <trkpt lat="42.4271040" lon="-2.8642960">
        <ele>600.1</ele>
        <time>2020-03-31T18:32:02Z</time>
      </trkpt>
      <trkpt lat="42.4270680" lon="-2.8647340">
        <ele>600.8</ele>
        <time>2020-03-31T18:32:04Z</time>
      </trkpt>
      <trkpt lat="42.4270400" lon="-2.8648920">
        <ele>601.1</ele>
        <time>2020-03-31T18:32:06Z</time>
      </trkpt>
      <trkpt lat="42.4269890" lon="-2.8651410">
        <ele>601.7</ele>
        <time>2020-03-31T18:32:08Z</time>
      </trkpt>
      <trkpt lat="42.4269450" lon="-2.8652950">
        <ele>602.0</ele>
        <time>2020-03-31T18:32:10Z</time>
      </trkpt>
      <trkpt lat="42.4269010" lon="-2.8654480">
        <ele>602.4</ele>
        <time>2020-03-31T18:32:12Z</time>
      </trkpt>
      <trkpt lat="42.4268570" lon="-2.8656020">
        <ele>602.9</ele>
        <time>2020-03-31T18:32:14Z</time>
      </trkpt>
      <trkpt lat="42.4268130" lon="-2.8657560">
        <ele>603.3</ele>
        <time>2020-03-31T18:32:16Z</time>
      </trkpt>
      <trkpt lat="42.4266890" lon="-2.8661890">
        <ele>604.6</ele>
        <time>2020-03-31T18:32:18Z</time>
      </trkpt>
      <trkpt lat="42.4266450" lon="-2.8663390">
        <ele>605.0</ele>
        <time>2020-03-31T18:32:20Z</time>
      </trkpt>
      <trkpt lat="42.4266030" lon="-2.8664870">
        <ele>605.5</ele>
        <time>2020-03-31T18:32:22Z</time>
      </trkpt>
      <trkpt lat="42.4265610" lon="-2.8666340">
        <ele>605.8</ele>
        <time>2020-03-31T18:32:24Z</time>
      </trkpt>
      <trkpt lat="42.4265190" lon="-2.8667780">
        <ele>606.4</ele>
        <time>2020-03-31T18:32:26Z</time>
      </trkpt>
      <trkpt lat="42.4264780" lon="-2.8669220">
        <ele>606.8</ele>
        <time>2020-03-31T18:32:28Z</time>
      </trkpt>
      <trkpt lat="42.4263560" lon="-2.8673440">
        <ele>608.2</ele>
        <time>2020-03-31T18:32:30Z</time>
      </trkpt>
      <trkpt lat="42.4263160" lon="-2.8674850">
        <ele>608.6</ele>
        <time>2020-03-31T18:32:32Z</time>
      </trkpt>
      <trkpt lat="42.4262750" lon="-2.8676270">
        <ele>608.9</ele>
        <time>2020-03-31T18:32:34Z</time>
      </trkpt>
      <trkpt lat="42.4262340" lon="-2.8677690">
        <ele>609.3</ele>
        <time>2020-03-31T18:32:36Z</time>
      </trkpt>
      <trkpt lat="42.4261930" lon="-2.8679110">
        <ele>609.8</ele>
        <time>2020-03-31T18:32:38Z</time>
      </trkpt>
      <trkpt lat="42.4260730" lon="-2.8683310">
        <ele>611.1</ele>
        <time>2020-03-31T18:32:40Z</time>
      </trkpt>
      <trkpt lat="42.4260360" lon="-2.8684600">
        <ele>611.7</ele>
        <time>2020-03-31T18:32:42Z</time>
      </trkpt>
      <trkpt lat="42.4260010" lon="-2.8685800">
        <ele>612.2</ele>
        <time>2020-03-31T18:32:44Z</time>
      </trkpt>
      <trkpt lat="42.4259690" lon="-2.8686930">
        <ele>612.7</ele>
        <time>2020-03-31T18:32:46Z</time>
      </trkpt>
      <trkpt lat="42.4259380" lon="-2.8688000">
        <ele>613.1</ele>
        <time>2020-03-31T18:32:48Z</time>
      </trkpt>
      <trkpt lat="42.4259080" lon="-2.8689040">
        <ele>613.7</ele>
        <time>2020-03-31T18:32:50Z</time>
      </trkpt>
      <trkpt lat="42.4258790" lon="-2.8690070">
        <ele>614.2</ele>
        <time>2020-03-31T18:32:52Z</time>
      </trkpt>
      <trkpt lat="42.4257700" lon="-2.8693850">
        <ele>616.4</ele>
        <time>2020-03-31T18:32:54Z</time>
      </trkpt>
      <trkpt lat="42.4257400" lon="-2.8694830">
        <ele>617.0</ele>
        <time>2020-03-31T18:32:56Z</time>
      </trkpt>
      <trkpt lat="42.4257110" lon="-2.8695810">
        <ele>617.6</ele>
        <time>2020-03-31T18:32:58Z</time>
      </trkpt>
      <trkpt lat="42.4256820" lon="-2.8696790">
        <ele>618.3</ele>
        <time>2020-03-31T18:33:00Z</time>
      </trkpt>
      <trkpt lat="42.4256530" lon="-2.8697770">
        <ele>619.2</ele>
        <time>2020-03-31T18:33:02Z</time>
      </trkpt>
      <trkpt lat="42.4256240" lon="-2.8698750">
        <ele>619.9</ele>
        <time>2020-03-31T18:33:04Z</time>
      </trkpt>
      <trkpt lat="42.4255950" lon="-2.8699720">
        <ele>620.7</ele>
        <time>2020-03-31T18:33:06Z</time>
      </trkpt>
      <trkpt lat="42.4255660" lon="-2.8700690">
        <ele>621.5</ele>
        <time>2020-03-31T18:33:08Z</time>
      </trkpt>
      <trkpt lat="42.4254610" lon="-2.8704300">
        <ele>624.7</ele>
        <time>2020-03-31T18:33:10Z</time>
      </trkpt>
      <trkpt lat="42.4254350" lon="-2.8705270">
        <ele>625.6</ele>
        <time>2020-03-31T18:33:12Z</time>
      </trkpt>
      <trkpt lat="42.4254100" lon="-2.8706230">
        <ele>626.5</ele>
        <time>2020-03-31T18:33:14Z</time>
      </trkpt>
      <trkpt lat="42.4253840" lon="-2.8707190">
        <ele>627.4</ele>
        <time>2020-03-31T18:33:16Z</time>
      </trkpt>
      <trkpt lat="42.4253580" lon="-2.8708160">
        <ele>628.3</ele>
        <time>2020-03-31T18:33:18Z</time>
      </trkpt>
      <trkpt lat="42.4252870" lon="-2.8710990">
        <ele>630.7</ele>
        <time>2020-03-31T18:33:20Z</time>
      </trkpt>
      <trkpt lat="42.4252750" lon="-2.8711990">
        <ele>631.6</ele>
        <time>2020-03-31T18:33:22Z</time>
      </trkpt>
      <trkpt lat="42.4252630" lon="-2.8713000">
        <ele>632.6</ele>
        <time>2020-03-31T18:33:24Z</time>
      </trkpt>
      <trkpt lat="42.4252520" lon="-2.8714010">
        <ele>633.3</ele>
        <time>2020-03-31T18:33:26Z</time>
      </trkpt>
      <trkpt lat="42.4252400" lon="-2.8715010">
        <ele>634.1</ele>
        <time>2020-03-31T18:33:28Z</time>
      </trkpt>
      <trkpt lat="42.4252280" lon="-2.8716010">
        <ele>634.8</ele>
        <time>2020-03-31T18:33:30Z</time>
      </trkpt>
      <trkpt lat="42.4252170" lon="-2.8717020">
        <ele>635.4</ele>
        <time>2020-03-31T18:33:32Z</time>
      </trkpt>
      <trkpt lat="42.4252050" lon="-2.8718030">
        <ele>636.1</ele>
        <time>2020-03-31T18:33:34Z</time>
      </trkpt>
      <trkpt lat="42.4251590" lon="-2.8721950">
        <ele>638.8</ele>
        <time>2020-03-31T18:33:36Z</time>
      </trkpt>
      <trkpt lat="42.4251470" lon="-2.8722990">
        <ele>639.5</ele>
        <time>2020-03-31T18:33:38Z</time>
      </trkpt>
      <trkpt lat="42.4251350" lon="-2.8724050">
        <ele>640.3</ele>
        <time>2020-03-31T18:33:40Z</time>
      </trkpt>
      <trkpt lat="42.4251230" lon="-2.8725120">
        <ele>641.0</ele>
        <time>2020-03-31T18:33:42Z</time>
      </trkpt>
      <trkpt lat="42.4251100" lon="-2.8726210">
        <ele>641.7</ele>
        <time>2020-03-31T18:33:44Z</time>
      </trkpt>
      <trkpt lat="42.4250970" lon="-2.8727300">
        <ele>642.4</ele>
        <time>2020-03-31T18:33:46Z</time>
      </trkpt>
      <trkpt lat="42.4250850" lon="-2.8728380">
        <ele>643.3</ele>
        <time>2020-03-31T18:33:48Z</time>
      </trkpt>
      <trkpt lat="42.4250720" lon="-2.8729470">
        <ele>644.1</ele>
        <time>2020-03-31T18:33:50Z</time>
      </trkpt>
      <trkpt lat="42.4250220" lon="-2.8733460">
        <ele>647.0</ele>
        <time>2020-03-31T18:33:52Z</time>
      </trkpt>
      <trkpt lat="42.4249970" lon="-2.8734520">
        <ele>647.8</ele>
        <time>2020-03-31T18:33:54Z</time>
      </trkpt>
      <trkpt lat="42.4249730" lon="-2.8735570">
        <ele>648.8</ele>
        <time>2020-03-31T18:33:56Z</time>
      </trkpt>
      <trkpt lat="42.4249480" lon="-2.8736630">
        <ele>649.7</ele>
        <time>2020-03-31T18:33:58Z</time>
      </trkpt>
      <trkpt lat="42.4249230" lon="-2.8737700">
        <ele>650.6</ele>
        <time>2020-03-31T18:34:00Z</time>
      </trkpt>
      <trkpt lat="42.4248990" lon="-2.8738770">
        <ele>651.3</ele>
        <time>2020-03-31T18:34:02Z</time>
      </trkpt>
      <trkpt lat="42.4248740" lon="-2.8739830">
        <ele>652.0</ele>
        <time>2020-03-31T18:34:04Z</time>
      </trkpt>
      <trkpt lat="42.4247920" lon="-2.8743370">
        <ele>654.1</ele>
        <time>2020-03-31T18:34:06Z</time>
      </trkpt>
      <trkpt lat="42.4247670" lon="-2.8744450">
        <ele>654.7</ele>
        <time>2020-03-31T18:34:08Z</time>
      </trkpt>
      <trkpt lat="42.4247420" lon="-2.8745530">
        <ele>655.4</ele>
        <time>2020-03-31T18:34:10Z</time>
      </trkpt>
      <trkpt lat="42.4247170" lon="-2.8746630">
        <ele>656.0</ele>
        <time>2020-03-31T18:34:12Z</time>
      </trkpt>
      <trkpt lat="42.4246910" lon="-2.8747730">
        <ele>656.5</ele>
        <time>2020-03-31T18:34:14Z</time>
      </trkpt>
      <trkpt lat="42.4246650" lon="-2.8748840">
        <ele>657.0</ele>
        <time>2020-03-31T18:34:16Z</time>
      </trkpt>
      <trkpt lat="42.4245820" lon="-2.8752430">
        <ele>659.1</ele>
        <time>2020-03-31T18:34:18Z</time>
      </trkpt>
      <trkpt lat="42.4245530" lon="-2.8753540">
        <ele>659.7</ele>
        <time>2020-03-31T18:34:20Z</time>
      </trkpt>
      <trkpt lat="42.4245250" lon="-2.8754650">
        <ele>660.4</ele>
        <time>2020-03-31T18:34:22Z</time>
      </trkpt>
      <trkpt lat="42.4244970" lon="-2.8755750">
        <ele>661.1</ele>
        <time>2020-03-31T18:34:24Z</time>
      </trkpt>
      <trkpt lat="42.4244690" lon="-2.8756860">
        <ele>661.7</ele>
        <time>2020-03-31T18:34:26Z</time>
      </trkpt>
      <trkpt lat="42.4244400" lon="-2.8757980">
        <ele>662.4</ele>
        <time>2020-03-31T18:34:28Z</time>
      </trkpt>
      <trkpt lat="42.4244120" lon="-2.8759090">
        <ele>663.0</ele>
        <time>2020-03-31T18:34:30Z</time>
      </trkpt>
      <trkpt lat="42.4243120" lon="-2.8762820">
        <ele>665.5</ele>
        <time>2020-03-31T18:34:32Z</time>
      </trkpt>
      <trkpt lat="42.4242780" lon="-2.8763780">
        <ele>666.1</ele>
        <time>2020-03-31T18:34:34Z</time>
      </trkpt>
      <trkpt lat="42.4242470" lon="-2.8764670">
        <ele>666.6</ele>
        <time>2020-03-31T18:34:36Z</time>
      </trkpt>
      <trkpt lat="42.4242170" lon="-2.8765510">
        <ele>667.1</ele>
        <time>2020-03-31T18:34:38Z</time>
      </trkpt>
      <trkpt lat="42.4241380" lon="-2.8767740">
        <ele>668.7</ele>
        <time>2020-03-31T18:34:40Z</time>
      </trkpt>
      <trkpt lat="42.4241000" lon="-2.8768500">
        <ele>669.3</ele>
        <time>2020-03-31T18:34:42Z</time>
      </trkpt>
      <trkpt lat="42.4240630" lon="-2.8769240">
        <ele>670.0</ele>
        <time>2020-03-31T18:34:44Z</time>
      </trkpt>
      <trkpt lat="42.4239950" lon="-2.8770510">
        <ele>671.3</ele>
        <time>2020-03-31T18:34:46Z</time>
      </trkpt>
      <trkpt lat="42.4239550" lon="-2.8771210">
        <ele>672.0</ele>
        <time>2020-03-31T18:34:48Z</time>
      </trkpt>
      <trkpt lat="42.4239150" lon="-2.8771910">
        <ele>672.9</ele>
        <time>2020-03-31T18:34:50Z</time>
      </trkpt>
      <trkpt lat="42.4238760" lon="-2.8772610">
        <ele>673.6</ele>
        <time>2020-03-31T18:34:52Z</time>
      </trkpt>
      <trkpt lat="42.4238360" lon="-2.8773310">
        <ele>674.4</ele>
        <time>2020-03-31T18:34:54Z</time>
      </trkpt>
      <trkpt lat="42.4237150" lon="-2.8775430">
        <ele>676.8</ele>
        <time>2020-03-31T18:34:56Z</time>
      </trkpt>
      <trkpt lat="42.4236720" lon="-2.8776200">
        <ele>677.6</ele>
        <time>2020-03-31T18:34:58Z</time>
      </trkpt>
      <trkpt lat="42.4236250" lon="-2.8777020">
        <ele>678.5</ele>
        <time>2020-03-31T18:35:00Z</time>
      </trkpt>
      <trkpt lat="42.4235770" lon="-2.8777860">
        <ele>679.5</ele>
        <time>2020-03-31T18:35:02Z</time>
      </trkpt>
      <trkpt lat="42.4235280" lon="-2.8778730">
        <ele>680.7</ele>
        <time>2020-03-31T18:35:04Z</time>
      </trkpt>
      <trkpt lat="42.4233970" lon="-2.8781010">
        <ele>683.3</ele>
        <time>2020-03-31T18:35:06Z</time>
      </trkpt>
      <trkpt lat="42.4233460" lon="-2.8781870">
        <ele>684.3</ele>
        <time>2020-03-31T18:35:08Z</time>
      </trkpt>
      <trkpt lat="42.4232550" lon="-2.8783370">
        <ele>685.7</ele>
        <time>2020-03-31T18:35:10Z</time>
      </trkpt>
      <trkpt lat="42.4231970" lon="-2.8784120">
        <ele>686.7</ele>
        <time>2020-03-31T18:35:12Z</time>
      </trkpt>
      <trkpt lat="42.4231380" lon="-2.8784890">
        <ele>687.5</ele>
        <time>2020-03-31T18:35:14Z</time>
      </trkpt>
      <trkpt lat="42.4230800" lon="-2.8785650">
        <ele>688.3</ele>
        <time>2020-03-31T18:35:16Z</time>
      </trkpt>
      <trkpt lat="42.4230210" lon="-2.8786420">
        <ele>689.1</ele>
        <time>2020-03-31T18:35:18Z</time>
      </trkpt>
      <trkpt lat="42.4229630" lon="-2.8787180">
        <ele>689.8</ele>
        <time>2020-03-31T18:35:20Z</time>
      </trkpt>
      <trkpt lat="42.4229040" lon="-2.8787950">
        <ele>690.6</ele>
        <time>2020-03-31T18:35:22Z</time>
      </trkpt>
      <trkpt lat="42.4227210" lon="-2.8790520">
        <ele>692.8</ele>
        <time>2020-03-31T18:35:24Z</time>
      </trkpt>
      <trkpt lat="42.4226640" lon="-2.8791490">
        <ele>693.4</ele>
        <time>2020-03-31T18:35:26Z</time>
      </trkpt>
      <trkpt lat="42.4226030" lon="-2.8792520">
        <ele>693.8</ele>
        <time>2020-03-31T18:35:28Z</time>
      </trkpt>
      <trkpt lat="42.4225410" lon="-2.8793560">
        <ele>694.4</ele>
        <time>2020-03-31T18:35:30Z</time>
      </trkpt>
      <trkpt lat="42.4224790" lon="-2.8794610">
        <ele>694.7</ele>
        <time>2020-03-31T18:35:32Z</time>
      </trkpt>
      <trkpt lat="42.4224160" lon="-2.8795680">
        <ele>695.1</ele>
        <time>2020-03-31T18:35:34Z</time>
      </trkpt>
      <trkpt lat="42.4222060" lon="-2.8799220">
        <ele>696.8</ele>
        <time>2020-03-31T18:35:36Z</time>
      </trkpt>
      <trkpt lat="42.4221410" lon="-2.8800310">
        <ele>697.3</ele>
        <time>2020-03-31T18:35:38Z</time>
      </trkpt>
      <trkpt lat="42.4220770" lon="-2.8801390">
        <ele>697.6</ele>
        <time>2020-03-31T18:35:40Z</time>
      </trkpt>
      <trkpt lat="42.4220120" lon="-2.8802480">
        <ele>697.9</ele>
        <time>2020-03-31T18:35:42Z</time>
      </trkpt>
      <trkpt lat="42.4219480" lon="-2.8803570">
        <ele>698.3</ele>
        <time>2020-03-31T18:35:44Z</time>
      </trkpt>
      <trkpt lat="42.4218810" lon="-2.8804690">
        <ele>698.7</ele>
        <time>2020-03-31T18:35:46Z</time>
      </trkpt>
      <trkpt lat="42.4218150" lon="-2.8805800">
        <ele>699.1</ele>
        <time>2020-03-31T18:35:48Z</time>
      </trkpt>
      <trkpt lat="42.4216030" lon="-2.8809380">
        <ele>700.3</ele>
        <time>2020-03-31T18:35:50Z</time>
      </trkpt>
      <trkpt lat="42.4215370" lon="-2.8810500">
        <ele>700.6</ele>
        <time>2020-03-31T18:35:52Z</time>
      </trkpt>
      <trkpt lat="42.4214710" lon="-2.8811610">
        <ele>700.9</ele>
        <time>2020-03-31T18:35:54Z</time>
      </trkpt>
      <trkpt lat="42.4214040" lon="-2.8812730">
        <ele>701.2</ele>
        <time>2020-03-31T18:35:56Z</time>
      </trkpt>
      <trkpt lat="42.4213370" lon="-2.8813860">
        <ele>701.5</ele>
        <time>2020-03-31T18:35:58Z</time>
      </trkpt>
      <trkpt lat="42.4212710" lon="-2.8814980">
        <ele>701.8</ele>
        <time>2020-03-31T18:36:00Z</time>
      </trkpt>
      <trkpt lat="42.4210600" lon="-2.8818550">
        <ele>702.7</ele>
        <time>2020-03-31T18:36:02Z</time>
      </trkpt>
      <trkpt lat="42.4209930" lon="-2.8819670">
        <ele>703.0</ele>
        <time>2020-03-31T18:36:04Z</time>
      </trkpt>
      <trkpt lat="42.4209250" lon="-2.8820810">
        <ele>703.3</ele>
        <time>2020-03-31T18:36:06Z</time>
      </trkpt>
      <trkpt lat="42.4208570" lon="-2.8821970">
        <ele>703.6</ele>
        <time>2020-03-31T18:36:08Z</time>
      </trkpt>
      <trkpt lat="42.4207890" lon="-2.8823110">
        <ele>703.8</ele>
        <time>2020-03-31T18:36:10Z</time>
      </trkpt>
      <trkpt lat="42.4207200" lon="-2.8824270">
        <ele>704.1</ele>
        <time>2020-03-31T18:36:12Z</time>
      </trkpt>
      <trkpt lat="42.4205060" lon="-2.8827880">
        <ele>705.1</ele>
        <time>2020-03-31T18:36:14Z</time>
      </trkpt>
      <trkpt lat="42.4204370" lon="-2.8829050">
        <ele>705.4</ele>
        <time>2020-03-31T18:36:16Z</time>
      </trkpt>
      <trkpt lat="42.4203660" lon="-2.8830240">
        <ele>705.8</ele>
        <time>2020-03-31T18:36:18Z</time>
      </trkpt>
      <trkpt lat="42.4202960" lon="-2.8831430">
        <ele>706.2</ele>
        <time>2020-03-31T18:36:20Z</time>
      </trkpt>
      <trkpt lat="42.4202250" lon="-2.8832620">
        <ele>706.6</ele>
        <time>2020-03-31T18:36:22Z</time>
      </trkpt>
      <trkpt lat="42.4201550" lon="-2.8833800">
        <ele>706.8</ele>
        <time>2020-03-31T18:36:24Z</time>
      </trkpt>
      <trkpt lat="42.4199410" lon="-2.8837410">
        <ele>707.8</ele>
        <time>2020-03-31T18:36:26Z</time>
      </trkpt>
      <trkpt lat="42.4198730" lon="-2.8838560">
        <ele>708.1</ele>
        <time>2020-03-31T18:36:28Z</time>
      </trkpt>
      <trkpt lat="42.4198060" lon="-2.8839680">
        <ele>708.4</ele>
        <time>2020-03-31T18:36:30Z</time>
      </trkpt>
      <trkpt lat="42.4197390" lon="-2.8840810">
        <ele>708.7</ele>
        <time>2020-03-31T18:36:32Z</time>
      </trkpt>
      <trkpt lat="42.4196740" lon="-2.8841910">
        <ele>709.1</ele>
        <time>2020-03-31T18:36:34Z</time>
      </trkpt>
      <trkpt lat="42.4196100" lon="-2.8842990">
        <ele>709.5</ele>
        <time>2020-03-31T18:36:36Z</time>
      </trkpt>
      <trkpt lat="42.4194000" lon="-2.8846530">
        <ele>711.0</ele>
        <time>2020-03-31T18:36:38Z</time>
      </trkpt>
      <trkpt lat="42.4193360" lon="-2.8847610">
        <ele>711.4</ele>
        <time>2020-03-31T18:36:40Z</time>
      </trkpt>
      <trkpt lat="42.4192730" lon="-2.8848670">
        <ele>711.8</ele>
        <time>2020-03-31T18:36:42Z</time>
      </trkpt>
      <trkpt lat="42.4192100" lon="-2.8849730">
        <ele>712.2</ele>
        <time>2020-03-31T18:36:44Z</time>
      </trkpt>
      <trkpt lat="42.4191460" lon="-2.8850810">
        <ele>712.7</ele>
        <time>2020-03-31T18:36:46Z</time>
      </trkpt>
      <trkpt lat="42.4190830" lon="-2.8851880">
        <ele>713.1</ele>
        <time>2020-03-31T18:36:48Z</time>
      </trkpt>
      <trkpt lat="42.4188740" lon="-2.8855400">
        <ele>714.4</ele>
        <time>2020-03-31T18:36:50Z</time>
      </trkpt>
      <trkpt lat="42.4188080" lon="-2.8856470">
        <ele>714.9</ele>
        <time>2020-03-31T18:36:52Z</time>
      </trkpt>
      <trkpt lat="42.4186880" lon="-2.8858080">
        <ele>715.8</ele>
        <time>2020-03-31T18:36:54Z</time>
      </trkpt>
      <trkpt lat="42.4185430" lon="-2.8858440">
        <ele>716.2</ele>
        <time>2020-03-31T18:36:56Z</time>
      </trkpt>
      <trkpt lat="42.4184340" lon="-2.8858190">
        <ele>716.4</ele>
        <time>2020-03-31T18:36:58Z</time>
      </trkpt>
      <trkpt lat="42.4182970" lon="-2.8858900">
        <ele>716.8</ele>
        <time>2020-03-31T18:37:00Z</time>
      </trkpt>
      <trkpt lat="42.4182270" lon="-2.8860100">
        <ele>716.9</ele>
        <time>2020-03-31T18:37:02Z</time>
      </trkpt>
      <trkpt lat="42.4181550" lon="-2.8861320">
        <ele>717.2</ele>
        <time>2020-03-31T18:37:04Z</time>
      </trkpt>
      <trkpt lat="42.4179860" lon="-2.8863270">
        <ele>717.9</ele>
        <time>2020-03-31T18:37:06Z</time>
      </trkpt>
      <trkpt lat="42.4178440" lon="-2.8864520">
        <ele>718.7</ele>
        <time>2020-03-31T18:37:08Z</time>
      </trkpt>
      <trkpt lat="42.4177730" lon="-2.8865630">
        <ele>719.3</ele>
        <time>2020-03-31T18:37:10Z</time>
      </trkpt>
      <trkpt lat="42.4177040" lon="-2.8866720">
        <ele>719.9</ele>
        <time>2020-03-31T18:37:12Z</time>
      </trkpt>
      <trkpt lat="42.4176350" lon="-2.8867800">
        <ele>720.4</ele>
        <time>2020-03-31T18:37:14Z</time>
      </trkpt>
      <trkpt lat="42.4175680" lon="-2.8868860">
        <ele>721.0</ele>
        <time>2020-03-31T18:37:16Z</time>
      </trkpt>
      <trkpt lat="42.4175010" lon="-2.8869920">
        <ele>721.4</ele>
        <time>2020-03-31T18:37:18Z</time>
      </trkpt>
      <trkpt lat="42.4173970" lon="-2.8873300">
        <ele>722.7</ele>
        <time>2020-03-31T18:37:20Z</time>
      </trkpt>
      <trkpt lat="42.4173280" lon="-2.8874410">
        <ele>722.9</ele>
        <time>2020-03-31T18:37:22Z</time>
      </trkpt>
      <trkpt lat="42.4172560" lon="-2.8875540">
        <ele>723.2</ele>
        <time>2020-03-31T18:37:24Z</time>
      </trkpt>
      <trkpt lat="42.4171840" lon="-2.8876690">
        <ele>723.3</ele>
        <time>2020-03-31T18:37:26Z</time>
      </trkpt>
      <trkpt lat="42.4171090" lon="-2.8877880">
        <ele>723.3</ele>
        <time>2020-03-31T18:37:28Z</time>
      </trkpt>
      <trkpt lat="42.4170340" lon="-2.8879070">
        <ele>723.2</ele>
        <time>2020-03-31T18:37:30Z</time>
      </trkpt>
      <trkpt lat="42.4168080" lon="-2.8882660">
        <ele>723.5</ele>
        <time>2020-03-31T18:37:32Z</time>
      </trkpt>
      <trkpt lat="42.4167300" lon="-2.8883890">
        <ele>723.8</ele>
        <time>2020-03-31T18:37:34Z</time>
      </trkpt>
      <trkpt lat="42.4166530" lon="-2.8885110">
        <ele>724.1</ele>
        <time>2020-03-31T18:37:36Z</time>
      </trkpt>
      <trkpt lat="42.4165760" lon="-2.8886340">
        <ele>724.6</ele>
        <time>2020-03-31T18:37:38Z</time>
      </trkpt>
      <trkpt lat="42.4164990" lon="-2.8887560">
        <ele>724.8</ele>
        <time>2020-03-31T18:37:40Z</time>
      </trkpt>
      <trkpt lat="42.4164210" lon="-2.8888800">
        <ele>725.2</ele>
        <time>2020-03-31T18:37:42Z</time>
      </trkpt>
      <trkpt lat="42.4161920" lon="-2.8892440">
        <ele>726.7</ele>
        <time>2020-03-31T18:37:44Z</time>
      </trkpt>
      <trkpt lat="42.4161120" lon="-2.8893690">
        <ele>727.2</ele>
        <time>2020-03-31T18:37:46Z</time>
      </trkpt>
      <trkpt lat="42.4160330" lon="-2.8894950">
        <ele>727.5</ele>
        <time>2020-03-31T18:37:48Z</time>
      </trkpt>
      <trkpt lat="42.4159540" lon="-2.8896200">
        <ele>727.6</ele>
        <time>2020-03-31T18:37:50Z</time>
      </trkpt>
      <trkpt lat="42.4158750" lon="-2.8897460">
        <ele>727.7</ele>
        <time>2020-03-31T18:37:52Z</time>
      </trkpt>
      <trkpt lat="42.4156930" lon="-2.8901320">
        <ele>727.8</ele>
        <time>2020-03-31T18:37:54Z</time>
      </trkpt>
      <trkpt lat="42.4157000" lon="-2.8903050">
        <ele>727.8</ele>
        <time>2020-03-31T18:37:56Z</time>
      </trkpt>
      <trkpt lat="42.4157060" lon="-2.8904860">
        <ele>727.7</ele>
        <time>2020-03-31T18:37:58Z</time>
      </trkpt>
      <trkpt lat="42.4157210" lon="-2.8908870">
        <ele>727.4</ele>
        <time>2020-03-31T18:38:00Z</time>
      </trkpt>
      <trkpt lat="42.4157280" lon="-2.8910790">
        <ele>727.1</ele>
        <time>2020-03-31T18:38:02Z</time>
      </trkpt>
      <trkpt lat="42.4157350" lon="-2.8912730">
        <ele>726.6</ele>
        <time>2020-03-31T18:38:04Z</time>
      </trkpt>
      <trkpt lat="42.4157500" lon="-2.8916850">
        <ele>726.1</ele>
        <time>2020-03-31T18:38:06Z</time>
      </trkpt>
      <trkpt lat="42.4157570" lon="-2.8918750">
        <ele>726.0</ele>
        <time>2020-03-31T18:38:08Z</time>
      </trkpt>
      <trkpt lat="42.4157640" lon="-2.8920550">
        <ele>725.9</ele>
        <time>2020-03-31T18:38:10Z</time>
      </trkpt>
      <trkpt lat="42.4157700" lon="-2.8922260">
        <ele>725.9</ele>
        <time>2020-03-31T18:38:12Z</time>
      </trkpt>
      <trkpt lat="42.4156960" lon="-2.8924950">
        <ele>726.0</ele>
        <time>2020-03-31T18:38:14Z</time>
      </trkpt>
      <trkpt lat="42.4155810" lon="-2.8925030">
        <ele>726.7</ele>
        <time>2020-03-31T18:38:16Z</time>
      </trkpt>
      <trkpt lat="42.4154670" lon="-2.8925100">
        <ele>727.2</ele>
        <time>2020-03-31T18:38:18Z</time>
      </trkpt>
      <trkpt lat="42.4153560" lon="-2.8925180">
        <ele>727.6</ele>
        <time>2020-03-31T18:38:20Z</time>
      </trkpt>
      <trkpt lat="42.4150680" lon="-2.8925370">
        <ele>728.9</ele>
        <time>2020-03-31T18:38:22Z</time>
      </trkpt>
      <trkpt lat="42.4149620" lon="-2.8925440">
        <ele>729.6</ele>
        <time>2020-03-31T18:38:24Z</time>
      </trkpt>
      <trkpt lat="42.4148590" lon="-2.8925500">
        <ele>730.3</ele>
        <time>2020-03-31T18:38:26Z</time>
      </trkpt>
      <trkpt lat="42.4147590" lon="-2.8925570">
        <ele>731.2</ele>
        <time>2020-03-31T18:38:28Z</time>
      </trkpt>
      <trkpt lat="42.4146610" lon="-2.8925630">
        <ele>732.1</ele>
        <time>2020-03-31T18:38:30Z</time>
      </trkpt>
      <trkpt lat="42.4144110" lon="-2.8926130">
        <ele>734.3</ele>
        <time>2020-03-31T18:38:32Z</time>
      </trkpt>
      <trkpt lat="42.4144140" lon="-2.8927440">
        <ele>734.8</ele>
        <time>2020-03-31T18:38:34Z</time>
      </trkpt>
      <trkpt lat="42.4144170" lon="-2.8928710">
        <ele>735.1</ele>
        <time>2020-03-31T18:38:36Z</time>
      </trkpt>
      <trkpt lat="42.4144200" lon="-2.8929980">
        <ele>735.3</ele>
        <time>2020-03-31T18:38:38Z</time>
      </trkpt>
      <trkpt lat="42.4144230" lon="-2.8931250">
        <ele>735.5</ele>
        <time>2020-03-31T18:38:40Z</time>
      </trkpt>
      <trkpt lat="42.4144200" lon="-2.8934760">
        <ele>736.2</ele>
        <time>2020-03-31T18:38:42Z</time>
      </trkpt>
      <trkpt lat="42.4143750" lon="-2.8935950">
        <ele>736.4</ele>
        <time>2020-03-31T18:38:44Z</time>
      </trkpt>
      <trkpt lat="42.4142920" lon="-2.8937920">
        <ele>737.0</ele>
        <time>2020-03-31T18:38:46Z</time>
      </trkpt>
      <trkpt lat="42.4142040" lon="-2.8939400">
        <ele>737.5</ele>
        <time>2020-03-31T18:38:48Z</time>
      </trkpt>
      <trkpt lat="42.4141290" lon="-2.8940530">
        <ele>737.9</ele>
        <time>2020-03-31T18:38:50Z</time>
      </trkpt>
      <trkpt lat="42.4140520" lon="-2.8941700">
        <ele>738.3</ele>
        <time>2020-03-31T18:38:52Z</time>
      </trkpt>
      <trkpt lat="42.4138820" lon="-2.8944270">
        <ele>739.0</ele>
        <time>2020-03-31T18:38:54Z</time>
      </trkpt>
      <trkpt lat="42.4138040" lon="-2.8945460">
        <ele>739.4</ele>
        <time>2020-03-31T18:38:56Z</time>
      </trkpt>
      <trkpt lat="42.4137240" lon="-2.8946670">
        <ele>739.9</ele>
        <time>2020-03-31T18:38:58Z</time>
      </trkpt>
      <trkpt lat="42.4136420" lon="-2.8947900">
        <ele>740.3</ele>
        <time>2020-03-31T18:39:00Z</time>
      </trkpt>
      <trkpt lat="42.4134550" lon="-2.8950310">
        <ele>740.3</ele>
        <time>2020-03-31T18:39:02Z</time>
      </trkpt>
      <trkpt lat="42.4133090" lon="-2.8951400">
        <ele>739.9</ele>
        <time>2020-03-31T18:39:04Z</time>
      </trkpt>
      <trkpt lat="42.4131970" lon="-2.8952050">
        <ele>740.1</ele>
        <time>2020-03-31T18:39:06Z</time>
      </trkpt>
      <trkpt lat="42.4130320" lon="-2.8953740">
        <ele>741.1</ele>
        <time>2020-03-31T18:39:08Z</time>
      </trkpt>
      <trkpt lat="42.4129540" lon="-2.8955730">
        <ele>742.0</ele>
        <time>2020-03-31T18:39:10Z</time>
      </trkpt>
      <trkpt lat="42.4129040" lon="-2.8957150">
        <ele>742.9</ele>
        <time>2020-03-31T18:39:12Z</time>
      </trkpt>
      <trkpt lat="42.4128550" lon="-2.8958540">
        <ele>743.7</ele>
        <time>2020-03-31T18:39:14Z</time>
      </trkpt>
      <trkpt lat="42.4127720" lon="-2.8961620">
        <ele>745.0</ele>
        <time>2020-03-31T18:39:16Z</time>
      </trkpt>
      <trkpt lat="42.4128130" lon="-2.8963460">
        <ele>744.7</ele>
        <time>2020-03-31T18:39:18Z</time>
      </trkpt>
      <trkpt lat="42.4129520" lon="-2.8963280">
        <ele>743.5</ele>
        <time>2020-03-31T18:39:20Z</time>
      </trkpt>
      <trkpt lat="42.4131810" lon="-2.8963080">
        <ele>741.1</ele>
        <time>2020-03-31T18:39:22Z</time>
      </trkpt>
      <trkpt lat="42.4133370" lon="-2.8963040">
        <ele>739.7</ele>
        <time>2020-03-31T18:39:24Z</time>
      </trkpt>
      <trkpt lat="42.4135990" lon="-2.8964240">
        <ele>737.5</ele>
        <time>2020-03-31T18:39:26Z</time>
      </trkpt>
      <trkpt lat="42.4137790" lon="-2.8965270">
        <ele>736.9</ele>
        <time>2020-03-31T18:39:28Z</time>
      </trkpt>
      <trkpt lat="42.4139000" lon="-2.8968320">
        <ele>736.6</ele>
        <time>2020-03-31T18:39:30Z</time>
      </trkpt>
      <trkpt lat="42.4140790" lon="-2.8970000">
        <ele>736.5</ele>
        <time>2020-03-31T18:39:32Z</time>
      </trkpt>
      <trkpt lat="42.4142900" lon="-2.8971680">
        <ele>734.4</ele>
        <time>2020-03-31T18:39:34Z</time>
      </trkpt>
      <trkpt lat="42.4143750" lon="-2.8974160">
        <ele>731.9</ele>
        <time>2020-03-31T18:39:36Z</time>
      </trkpt>
      <trkpt lat="42.4144420" lon="-2.8976300">
        <ele>730.4</ele>
        <time>2020-03-31T18:39:38Z</time>
      </trkpt>
      <trkpt lat="42.4145790" lon="-2.8980000">
        <ele>728.8</ele>
        <time>2020-03-31T18:39:40Z</time>
      </trkpt>
      <trkpt lat="42.4146770" lon="-2.8981790">
        <ele>728.5</ele>
        <time>2020-03-31T18:39:42Z</time>
      </trkpt>
      <trkpt lat="42.4148900" lon="-2.8984680">
        <ele>727.1</ele>
        <time>2020-03-31T18:39:44Z</time>
      </trkpt>
      <trkpt lat="42.4150210" lon="-2.8985700">
        <ele>726.5</ele>
        <time>2020-03-31T18:39:46Z</time>
      </trkpt>
      <trkpt lat="42.4152410" lon="-2.8987470">
        <ele>725.4</ele>
        <time>2020-03-31T18:39:48Z</time>
      </trkpt>
      <trkpt lat="42.4152670" lon="-2.8989410">
        <ele>725.2</ele>
        <time>2020-03-31T18:39:50Z</time>
      </trkpt>
      <trkpt lat="42.4152910" lon="-2.8991290">
        <ele>725.1</ele>
        <time>2020-03-31T18:39:52Z</time>
      </trkpt>
      <trkpt lat="42.4153150" lon="-2.8993110">
        <ele>725.2</ele>
        <time>2020-03-31T18:39:54Z</time>
      </trkpt>
      <trkpt lat="42.4153390" lon="-2.8994910">
        <ele>725.2</ele>
        <time>2020-03-31T18:39:56Z</time>
      </trkpt>
      <trkpt lat="42.4153980" lon="-2.8999340">
        <ele>725.3</ele>
        <time>2020-03-31T18:39:58Z</time>
      </trkpt>
      <trkpt lat="42.4154200" lon="-2.9001020">
        <ele>725.3</ele>
        <time>2020-03-31T18:40:00Z</time>
      </trkpt>
      <trkpt lat="42.4154420" lon="-2.9002660">
        <ele>725.1</ele>
        <time>2020-03-31T18:40:02Z</time>
      </trkpt>
      <trkpt lat="42.4154630" lon="-2.9004250">
        <ele>725.0</ele>
        <time>2020-03-31T18:40:04Z</time>
      </trkpt>
      <trkpt lat="42.4155180" lon="-2.9008470">
        <ele>724.7</ele>
        <time>2020-03-31T18:40:06Z</time>
      </trkpt>
      <trkpt lat="42.4155380" lon="-2.9009970">
        <ele>724.7</ele>
        <time>2020-03-31T18:40:08Z</time>
      </trkpt>
      <trkpt lat="42.4155580" lon="-2.9011450">
        <ele>724.9</ele>
        <time>2020-03-31T18:40:10Z</time>
      </trkpt>
      <trkpt lat="42.4155770" lon="-2.9012900">
        <ele>725.2</ele>
        <time>2020-03-31T18:40:12Z</time>
      </trkpt>
      <trkpt lat="42.4155960" lon="-2.9014340">
        <ele>725.5</ele>
        <time>2020-03-31T18:40:14Z</time>
      </trkpt>
      <trkpt lat="42.4156500" lon="-2.9018440">
        <ele>726.7</ele>
        <time>2020-03-31T18:40:16Z</time>
      </trkpt>
      <trkpt lat="42.4156690" lon="-2.9019880">
        <ele>727.1</ele>
        <time>2020-03-31T18:40:18Z</time>
      </trkpt>
      <trkpt lat="42.4156890" lon="-2.9021340">
        <ele>727.5</ele>
        <time>2020-03-31T18:40:20Z</time>
      </trkpt>
      <trkpt lat="42.4157080" lon="-2.9022800">
        <ele>727.8</ele>
        <time>2020-03-31T18:40:22Z</time>
      </trkpt>
      <trkpt lat="42.4157270" lon="-2.9024280">
        <ele>728.1</ele>
        <time>2020-03-31T18:40:24Z</time>
      </trkpt>
      <trkpt lat="42.4157820" lon="-2.9028440">
        <ele>728.8</ele>
        <time>2020-03-31T18:40:26Z</time>
      </trkpt>
      <trkpt lat="42.4158020" lon="-2.9029940">
        <ele>729.1</ele>
        <time>2020-03-31T18:40:28Z</time>
      </trkpt>
      <trkpt lat="42.4158220" lon="-2.9031440">
        <ele>729.3</ele>
        <time>2020-03-31T18:40:30Z</time>
      </trkpt>
      <trkpt lat="42.4158420" lon="-2.9032950">
        <ele>729.5</ele>
        <time>2020-03-31T18:40:32Z</time>
      </trkpt>
      <trkpt lat="42.4158620" lon="-2.9034430">
        <ele>729.6</ele>
        <time>2020-03-31T18:40:34Z</time>
      </trkpt>
      <trkpt lat="42.4159170" lon="-2.9038610">
        <ele>729.7</ele>
        <time>2020-03-31T18:40:36Z</time>
      </trkpt>
      <trkpt lat="42.4159390" lon="-2.9040280">
        <ele>729.7</ele>
        <time>2020-03-31T18:40:38Z</time>
      </trkpt>
      <trkpt lat="42.4159640" lon="-2.9042180">
        <ele>729.7</ele>
        <time>2020-03-31T18:40:40Z</time>
      </trkpt>
      <trkpt lat="42.4159920" lon="-2.9044290">
        <ele>729.6</ele>
        <time>2020-03-31T18:40:42Z</time>
      </trkpt>
      <trkpt lat="42.4160590" lon="-2.9049220">
        <ele>728.3</ele>
        <time>2020-03-31T18:40:44Z</time>
      </trkpt>
      <trkpt lat="42.4161190" lon="-2.9052350">
        <ele>725.7</ele>
        <time>2020-03-31T18:40:46Z</time>
      </trkpt>
      <trkpt lat="42.4161870" lon="-2.9054690">
        <ele>723.5</ele>
        <time>2020-03-31T18:40:48Z</time>
      </trkpt>
      <trkpt lat="42.4163030" lon="-2.9058320">
        <ele>719.9</ele>
        <time>2020-03-31T18:40:50Z</time>
      </trkpt>
      <trkpt lat="42.4163870" lon="-2.9060730">
        <ele>717.4</ele>
        <time>2020-03-31T18:40:52Z</time>
      </trkpt>
      <trkpt lat="42.4164720" lon="-2.9063190">
        <ele>714.6</ele>
        <time>2020-03-31T18:40:54Z</time>
      </trkpt>
      <trkpt lat="42.4166470" lon="-2.9068240">
        <ele>711.0</ele>
        <time>2020-03-31T18:40:56Z</time>
      </trkpt>
      <trkpt lat="42.4167240" lon="-2.9070460">
        <ele>710.7</ele>
        <time>2020-03-31T18:40:58Z</time>
      </trkpt>
      <trkpt lat="42.4167950" lon="-2.9072500">
        <ele>710.7</ele>
        <time>2020-03-31T18:41:00Z</time>
      </trkpt>
      <trkpt lat="42.4169520" lon="-2.9077040">
        <ele>710.7</ele>
        <time>2020-03-31T18:41:02Z</time>
      </trkpt>
      <trkpt lat="42.4170140" lon="-2.9078830">
        <ele>710.8</ele>
        <time>2020-03-31T18:41:04Z</time>
      </trkpt>
      <trkpt lat="42.4170740" lon="-2.9080560">
        <ele>711.1</ele>
        <time>2020-03-31T18:41:06Z</time>
      </trkpt>
      <trkpt lat="42.4171320" lon="-2.9082230">
        <ele>711.6</ele>
        <time>2020-03-31T18:41:08Z</time>
      </trkpt>
      <trkpt lat="42.4171880" lon="-2.9083860">
        <ele>712.0</ele>
        <time>2020-03-31T18:41:10Z</time>
      </trkpt>
      <trkpt lat="42.4173360" lon="-2.9088120">
        <ele>713.0</ele>
        <time>2020-03-31T18:41:12Z</time>
      </trkpt>
      <trkpt lat="42.4173920" lon="-2.9089730">
        <ele>713.3</ele>
        <time>2020-03-31T18:41:14Z</time>
      </trkpt>
      <trkpt lat="42.4174470" lon="-2.9091330">
        <ele>713.7</ele>
        <time>2020-03-31T18:41:16Z</time>
      </trkpt>
      <trkpt lat="42.4175030" lon="-2.9092940">
        <ele>714.0</ele>
        <time>2020-03-31T18:41:18Z</time>
      </trkpt>
      <trkpt lat="42.4176500" lon="-2.9097190">
        <ele>714.6</ele>
        <time>2020-03-31T18:41:20Z</time>
      </trkpt>
      <trkpt lat="42.4177060" lon="-2.9098800">
        <ele>714.7</ele>
        <time>2020-03-31T18:41:22Z</time>
      </trkpt>
      <trkpt lat="42.4177620" lon="-2.9100410">
        <ele>714.7</ele>
        <time>2020-03-31T18:41:24Z</time>
      </trkpt>
      <trkpt lat="42.4178180" lon="-2.9102020">
        <ele>714.7</ele>
        <time>2020-03-31T18:41:26Z</time>
      </trkpt>
      <trkpt lat="42.4178730" lon="-2.9103630">
        <ele>714.7</ele>
        <time>2020-03-31T18:41:28Z</time>
      </trkpt>
      <trkpt lat="42.4180080" lon="-2.9107940">
        <ele>714.9</ele>
        <time>2020-03-31T18:41:30Z</time>
      </trkpt>
      <trkpt lat="42.4180950" lon="-2.9109840">
        <ele>715.1</ele>
        <time>2020-03-31T18:41:32Z</time>
      </trkpt>
      <trkpt lat="42.4181840" lon="-2.9111330">
        <ele>715.0</ele>
        <time>2020-03-31T18:41:34Z</time>
      </trkpt>
      <trkpt lat="42.4182750" lon="-2.9112840">
        <ele>714.9</ele>
        <time>2020-03-31T18:41:36Z</time>
      </trkpt>
      <trkpt lat="42.4183680" lon="-2.9114390">
        <ele>714.6</ele>
        <time>2020-03-31T18:41:38Z</time>
      </trkpt>
      <trkpt lat="42.4186000" lon="-2.9118260">
        <ele>713.7</ele>
        <time>2020-03-31T18:41:40Z</time>
      </trkpt>
      <trkpt lat="42.4186900" lon="-2.9119760">
        <ele>713.5</ele>
        <time>2020-03-31T18:41:42Z</time>
      </trkpt>
      <trkpt lat="42.4187760" lon="-2.9121190">
        <ele>713.4</ele>
        <time>2020-03-31T18:41:44Z</time>
      </trkpt>
      <trkpt lat="42.4188600" lon="-2.9122590">
        <ele>713.3</ele>
        <time>2020-03-31T18:41:46Z</time>
      </trkpt>
      <trkpt lat="42.4189430" lon="-2.9123960">
        <ele>713.3</ele>
        <time>2020-03-31T18:41:48Z</time>
      </trkpt>
      <trkpt lat="42.4191630" lon="-2.9127630">
        <ele>713.3</ele>
        <time>2020-03-31T18:41:50Z</time>
      </trkpt>
      <trkpt lat="42.4192420" lon="-2.9128950">
        <ele>713.4</ele>
        <time>2020-03-31T18:41:52Z</time>
      </trkpt>
      <trkpt lat="42.4193210" lon="-2.9130260">
        <ele>713.4</ele>
        <time>2020-03-31T18:41:54Z</time>
      </trkpt>
      <trkpt lat="42.4193990" lon="-2.9131550">
        <ele>713.6</ele>
        <time>2020-03-31T18:41:56Z</time>
      </trkpt>
      <trkpt lat="42.4194750" lon="-2.9132830">
        <ele>713.9</ele>
        <time>2020-03-31T18:41:58Z</time>
      </trkpt>
      <trkpt lat="42.4196890" lon="-2.9136380">
        <ele>714.8</ele>
        <time>2020-03-31T18:42:00Z</time>
      </trkpt>
      <trkpt lat="42.4197580" lon="-2.9137530">
        <ele>715.4</ele>
        <time>2020-03-31T18:42:02Z</time>
      </trkpt>
      <trkpt lat="42.4198220" lon="-2.9138610">
        <ele>716.1</ele>
        <time>2020-03-31T18:42:04Z</time>
      </trkpt>
      <trkpt lat="42.4198840" lon="-2.9139640">
        <ele>716.6</ele>
        <time>2020-03-31T18:42:06Z</time>
      </trkpt>
      <trkpt lat="42.4199440" lon="-2.9140630">
        <ele>717.1</ele>
        <time>2020-03-31T18:42:08Z</time>
      </trkpt>
      <trkpt lat="42.4200020" lon="-2.9141600">
        <ele>717.7</ele>
        <time>2020-03-31T18:42:10Z</time>
      </trkpt>
      <trkpt lat="42.4201980" lon="-2.9144860">
        <ele>719.9</ele>
        <time>2020-03-31T18:42:12Z</time>
      </trkpt>
      <trkpt lat="42.4202540" lon="-2.9145800">
        <ele>720.8</ele>
        <time>2020-03-31T18:42:14Z</time>
      </trkpt>
      <trkpt lat="42.4203100" lon="-2.9146720">
        <ele>721.5</ele>
        <time>2020-03-31T18:42:16Z</time>
      </trkpt>
      <trkpt lat="42.4203640" lon="-2.9147630">
        <ele>722.1</ele>
        <time>2020-03-31T18:42:18Z</time>
      </trkpt>
      <trkpt lat="42.4204190" lon="-2.9148530">
        <ele>722.7</ele>
        <time>2020-03-31T18:42:20Z</time>
      </trkpt>
      <trkpt lat="42.4204730" lon="-2.9149430">
        <ele>723.2</ele>
        <time>2020-03-31T18:42:22Z</time>
      </trkpt>
      <trkpt lat="42.4205270" lon="-2.9150340">
        <ele>723.8</ele>
        <time>2020-03-31T18:42:24Z</time>
      </trkpt>
      <trkpt lat="42.4207220" lon="-2.9153590">
        <ele>725.3</ele>
        <time>2020-03-31T18:42:26Z</time>
      </trkpt>
      <trkpt lat="42.4207830" lon="-2.9154600">
        <ele>725.8</ele>
        <time>2020-03-31T18:42:28Z</time>
      </trkpt>
      <trkpt lat="42.4208490" lon="-2.9155690">
        <ele>726.2</ele>
        <time>2020-03-31T18:42:30Z</time>
      </trkpt>
      <trkpt lat="42.4209170" lon="-2.9156830">
        <ele>726.7</ele>
        <time>2020-03-31T18:42:32Z</time>
      </trkpt>
      <trkpt lat="42.4209880" lon="-2.9158010">
        <ele>727.3</ele>
        <time>2020-03-31T18:42:34Z</time>
      </trkpt>
      <trkpt lat="42.4210600" lon="-2.9159220">
        <ele>727.9</ele>
        <time>2020-03-31T18:42:36Z</time>
      </trkpt>
      <trkpt lat="42.4212750" lon="-2.9162780">
        <ele>730.1</ele>
        <time>2020-03-31T18:42:38Z</time>
      </trkpt>
      <trkpt lat="42.4213500" lon="-2.9164040">
        <ele>731.0</ele>
        <time>2020-03-31T18:42:40Z</time>
      </trkpt>
      <trkpt lat="42.4214270" lon="-2.9165320">
        <ele>731.9</ele>
        <time>2020-03-31T18:42:42Z</time>
      </trkpt>
      <trkpt lat="42.4215040" lon="-2.9166600">
        <ele>732.0</ele>
        <time>2020-03-31T18:42:44Z</time>
      </trkpt>
      <trkpt lat="42.4215800" lon="-2.9167870">
        <ele>731.9</ele>
        <time>2020-03-31T18:42:46Z</time>
      </trkpt>
      <trkpt lat="42.4217990" lon="-2.9171520">
        <ele>731.3</ele>
        <time>2020-03-31T18:42:48Z</time>
      </trkpt>
      <trkpt lat="42.4218850" lon="-2.9172970">
        <ele>730.7</ele>
        <time>2020-03-31T18:42:50Z</time>
      </trkpt>
      <trkpt lat="42.4219790" lon="-2.9174540">
        <ele>730.0</ele>
        <time>2020-03-31T18:42:52Z</time>
      </trkpt>
      <trkpt lat="42.4221840" lon="-2.9177970">
        <ele>728.2</ele>
        <time>2020-03-31T18:42:54Z</time>
      </trkpt>
      <trkpt lat="42.4222870" lon="-2.9179710">
        <ele>727.3</ele>
        <time>2020-03-31T18:42:56Z</time>
      </trkpt>
      <trkpt lat="42.4223940" lon="-2.9181510">
        <ele>726.5</ele>
        <time>2020-03-31T18:42:58Z</time>
      </trkpt>
      <trkpt lat="42.4226100" lon="-2.9185130">
        <ele>724.9</ele>
        <time>2020-03-31T18:43:00Z</time>
      </trkpt>
      <trkpt lat="42.4227300" lon="-2.9187140">
        <ele>724.1</ele>
        <time>2020-03-31T18:43:02Z</time>
      </trkpt>
      <trkpt lat="42.4229620" lon="-2.9191030">
        <ele>721.8</ele>
        <time>2020-03-31T18:43:04Z</time>
      </trkpt>
      <trkpt lat="42.4231390" lon="-2.9193490">
        <ele>719.3</ele>
        <time>2020-03-31T18:43:06Z</time>
      </trkpt>
      <trkpt lat="42.4233070" lon="-2.9195400">
        <ele>716.9</ele>
        <time>2020-03-31T18:43:08Z</time>
      </trkpt>
      <trkpt lat="42.4234800" lon="-2.9197360">
        <ele>714.2</ele>
        <time>2020-03-31T18:43:10Z</time>
      </trkpt>
      <trkpt lat="42.4238300" lon="-2.9201360">
        <ele>708.0</ele>
        <time>2020-03-31T18:43:12Z</time>
      </trkpt>
      <trkpt lat="42.4240060" lon="-2.9203360">
        <ele>704.9</ele>
        <time>2020-03-31T18:43:14Z</time>
      </trkpt>
      <trkpt lat="42.4241850" lon="-2.9205400">
        <ele>701.6</ele>
        <time>2020-03-31T18:43:16Z</time>
      </trkpt>
      <trkpt lat="42.4245420" lon="-2.9209460">
        <ele>695.3</ele>
        <time>2020-03-31T18:43:18Z</time>
      </trkpt>
      <trkpt lat="42.4247220" lon="-2.9211520">
        <ele>692.1</ele>
        <time>2020-03-31T18:43:20Z</time>
      </trkpt>
      <trkpt lat="42.4249060" lon="-2.9213600">
        <ele>688.9</ele>
        <time>2020-03-31T18:43:22Z</time>
      </trkpt>
      <trkpt lat="42.4252580" lon="-2.9217620">
        <ele>684.5</ele>
        <time>2020-03-31T18:43:24Z</time>
      </trkpt>
      <trkpt lat="42.4254220" lon="-2.9219490">
        <ele>683.1</ele>
        <time>2020-03-31T18:43:26Z</time>
      </trkpt>
      <trkpt lat="42.4255750" lon="-2.9221230">
        <ele>682.1</ele>
        <time>2020-03-31T18:43:28Z</time>
      </trkpt>
      <trkpt lat="42.4258980" lon="-2.9224900">
        <ele>680.1</ele>
        <time>2020-03-31T18:43:30Z</time>
      </trkpt>
      <trkpt lat="42.4260400" lon="-2.9226520">
        <ele>679.1</ele>
        <time>2020-03-31T18:43:32Z</time>
      </trkpt>
      <trkpt lat="42.4261800" lon="-2.9228120">
        <ele>678.2</ele>
        <time>2020-03-31T18:43:34Z</time>
      </trkpt>
      <trkpt lat="42.4264940" lon="-2.9231690">
        <ele>676.2</ele>
        <time>2020-03-31T18:43:36Z</time>
      </trkpt>
      <trkpt lat="42.4266250" lon="-2.9233190">
        <ele>675.5</ele>
        <time>2020-03-31T18:43:38Z</time>
      </trkpt>
      <trkpt lat="42.4267510" lon="-2.9234630">
        <ele>674.9</ele>
        <time>2020-03-31T18:43:40Z</time>
      </trkpt>
      <trkpt lat="42.4268730" lon="-2.9236010">
        <ele>674.4</ele>
        <time>2020-03-31T18:43:42Z</time>
      </trkpt>
      <trkpt lat="42.4271710" lon="-2.9239400">
        <ele>673.4</ele>
        <time>2020-03-31T18:43:44Z</time>
      </trkpt>
      <trkpt lat="42.4272900" lon="-2.9240760">
        <ele>672.9</ele>
        <time>2020-03-31T18:43:46Z</time>
      </trkpt>
      <trkpt lat="42.4274090" lon="-2.9242120">
        <ele>672.6</ele>
        <time>2020-03-31T18:43:48Z</time>
      </trkpt>
      <trkpt lat="42.4275270" lon="-2.9243460">
        <ele>672.3</ele>
        <time>2020-03-31T18:43:50Z</time>
      </trkpt>
      <trkpt lat="42.4278230" lon="-2.9246830">
        <ele>671.0</ele>
        <time>2020-03-31T18:43:52Z</time>
      </trkpt>
      <trkpt lat="42.4279370" lon="-2.9248130">
        <ele>670.5</ele>
        <time>2020-03-31T18:43:54Z</time>
      </trkpt>
      <trkpt lat="42.4280470" lon="-2.9249390">
        <ele>670.4</ele>
        <time>2020-03-31T18:43:56Z</time>
      </trkpt>
      <trkpt lat="42.4281550" lon="-2.9250610">
        <ele>670.4</ele>
        <time>2020-03-31T18:43:58Z</time>
      </trkpt>
      <trkpt lat="42.4282590" lon="-2.9251800">
        <ele>670.5</ele>
        <time>2020-03-31T18:44:00Z</time>
      </trkpt>
      <trkpt lat="42.4285380" lon="-2.9254980">
        <ele>671.0</ele>
        <time>2020-03-31T18:44:02Z</time>
      </trkpt>
      <trkpt lat="42.4286380" lon="-2.9256110">
        <ele>671.3</ele>
        <time>2020-03-31T18:44:04Z</time>
      </trkpt>
      <trkpt lat="42.4287370" lon="-2.9257240">
        <ele>671.6</ele>
        <time>2020-03-31T18:44:06Z</time>
      </trkpt>
      <trkpt lat="42.4288340" lon="-2.9258350">
        <ele>671.8</ele>
        <time>2020-03-31T18:44:08Z</time>
      </trkpt>
      <trkpt lat="42.4289310" lon="-2.9259450">
        <ele>671.9</ele>
        <time>2020-03-31T18:44:10Z</time>
      </trkpt>
      <trkpt lat="42.4292060" lon="-2.9262580">
        <ele>672.1</ele>
        <time>2020-03-31T18:44:12Z</time>
      </trkpt>
      <trkpt lat="42.4293120" lon="-2.9263790">
        <ele>672.1</ele>
        <time>2020-03-31T18:44:14Z</time>
      </trkpt>
      <trkpt lat="42.4294260" lon="-2.9265090">
        <ele>671.8</ele>
        <time>2020-03-31T18:44:16Z</time>
      </trkpt>
      <trkpt lat="42.4295440" lon="-2.9266440">
        <ele>671.6</ele>
        <time>2020-03-31T18:44:18Z</time>
      </trkpt>
      <trkpt lat="42.4298440" lon="-2.9269850">
        <ele>670.9</ele>
        <time>2020-03-31T18:44:20Z</time>
      </trkpt>
      <trkpt lat="42.4299720" lon="-2.9271300">
        <ele>670.7</ele>
        <time>2020-03-31T18:44:22Z</time>
      </trkpt>
      <trkpt lat="42.4301010" lon="-2.9272780">
        <ele>670.4</ele>
        <time>2020-03-31T18:44:24Z</time>
      </trkpt>
      <trkpt lat="42.4302340" lon="-2.9274290">
        <ele>669.5</ele>
        <time>2020-03-31T18:44:26Z</time>
      </trkpt>
      <trkpt lat="42.4305450" lon="-2.9277840">
        <ele>666.4</ele>
        <time>2020-03-31T18:44:28Z</time>
      </trkpt>
      <trkpt lat="42.4306850" lon="-2.9279430">
        <ele>664.7</ele>
        <time>2020-03-31T18:44:30Z</time>
      </trkpt>
      <trkpt lat="42.4308320" lon="-2.9281100">
        <ele>663.0</ele>
        <time>2020-03-31T18:44:32Z</time>
      </trkpt>
      <trkpt lat="42.4309830" lon="-2.9282830">
        <ele>661.3</ele>
        <time>2020-03-31T18:44:34Z</time>
      </trkpt>
      <trkpt lat="42.4313130" lon="-2.9286590">
        <ele>656.7</ele>
        <time>2020-03-31T18:44:36Z</time>
      </trkpt>
      <trkpt lat="42.4314710" lon="-2.9288390">
        <ele>654.5</ele>
        <time>2020-03-31T18:44:38Z</time>
      </trkpt>
      <trkpt lat="42.4316320" lon="-2.9290210">
        <ele>652.0</ele>
        <time>2020-03-31T18:44:40Z</time>
      </trkpt>
      <trkpt lat="42.4319640" lon="-2.9294000">
        <ele>647.6</ele>
        <time>2020-03-31T18:44:42Z</time>
      </trkpt>
      <trkpt lat="42.4321080" lon="-2.9295650">
        <ele>647.0</ele>
        <time>2020-03-31T18:44:44Z</time>
      </trkpt>
      <trkpt lat="42.4322460" lon="-2.9297210">
        <ele>646.6</ele>
        <time>2020-03-31T18:44:46Z</time>
      </trkpt>
      <trkpt lat="42.4325550" lon="-2.9300730">
        <ele>645.6</ele>
        <time>2020-03-31T18:44:48Z</time>
      </trkpt>
      <trkpt lat="42.4326870" lon="-2.9302230">
        <ele>645.2</ele>
        <time>2020-03-31T18:44:50Z</time>
      </trkpt>
      <trkpt lat="42.4328160" lon="-2.9303710">
        <ele>645.0</ele>
        <time>2020-03-31T18:44:52Z</time>
      </trkpt>
      <trkpt lat="42.4329460" lon="-2.9305180">
        <ele>644.8</ele>
        <time>2020-03-31T18:44:54Z</time>
      </trkpt>
      <trkpt lat="42.4332510" lon="-2.9308660">
        <ele>643.6</ele>
        <time>2020-03-31T18:44:56Z</time>
      </trkpt>
      <trkpt lat="42.4333790" lon="-2.9310120">
        <ele>642.8</ele>
        <time>2020-03-31T18:44:58Z</time>
      </trkpt>
      <trkpt lat="42.4335080" lon="-2.9311590">
        <ele>641.5</ele>
        <time>2020-03-31T18:45:00Z</time>
      </trkpt>
      <trkpt lat="42.4336380" lon="-2.9313070">
        <ele>639.9</ele>
        <time>2020-03-31T18:45:02Z</time>
      </trkpt>
      <trkpt lat="42.4339480" lon="-2.9316500">
        <ele>636.2</ele>
        <time>2020-03-31T18:45:04Z</time>
      </trkpt>
      <trkpt lat="42.4340820" lon="-2.9317880">
        <ele>635.8</ele>
        <time>2020-03-31T18:45:06Z</time>
      </trkpt>
      <trkpt lat="42.4342170" lon="-2.9319280">
        <ele>635.7</ele>
        <time>2020-03-31T18:45:08Z</time>
      </trkpt>
      <trkpt lat="42.4344910" lon="-2.9322100">
        <ele>635.5</ele>
        <time>2020-03-31T18:45:10Z</time>
      </trkpt>
      <trkpt lat="42.4346160" lon="-2.9323390">
        <ele>635.4</ele>
        <time>2020-03-31T18:45:12Z</time>
      </trkpt>
      <trkpt lat="42.4347340" lon="-2.9324610">
        <ele>635.3</ele>
        <time>2020-03-31T18:45:14Z</time>
      </trkpt>
      <trkpt lat="42.4349900" lon="-2.9327250">
        <ele>635.3</ele>
        <time>2020-03-31T18:45:16Z</time>
      </trkpt>
      <trkpt lat="42.4351030" lon="-2.9328410">
        <ele>635.3</ele>
        <time>2020-03-31T18:45:18Z</time>
      </trkpt>
      <trkpt lat="42.4352140" lon="-2.9329560">
        <ele>635.2</ele>
        <time>2020-03-31T18:45:20Z</time>
      </trkpt>
      <trkpt lat="42.4353250" lon="-2.9330700">
        <ele>634.8</ele>
        <time>2020-03-31T18:45:22Z</time>
      </trkpt>
      <trkpt lat="42.4355720" lon="-2.9333360">
        <ele>634.4</ele>
        <time>2020-03-31T18:45:24Z</time>
      </trkpt>
      <trkpt lat="42.4356770" lon="-2.9334570">
        <ele>634.4</ele>
        <time>2020-03-31T18:45:26Z</time>
      </trkpt>
      <trkpt lat="42.4357800" lon="-2.9335750">
        <ele>634.4</ele>
        <time>2020-03-31T18:45:28Z</time>
      </trkpt>
      <trkpt lat="42.4358820" lon="-2.9336930">
        <ele>634.4</ele>
        <time>2020-03-31T18:45:30Z</time>
      </trkpt>
      <trkpt lat="42.4361300" lon="-2.9340020">
        <ele>634.4</ele>
        <time>2020-03-31T18:45:32Z</time>
      </trkpt>
      <trkpt lat="42.4362190" lon="-2.9341370">
        <ele>634.4</ele>
        <time>2020-03-31T18:45:34Z</time>
      </trkpt>
      <trkpt lat="42.4363560" lon="-2.9343770">
        <ele>634.3</ele>
        <time>2020-03-31T18:45:36Z</time>
      </trkpt>
      <trkpt lat="42.4364290" lon="-2.9345300">
        <ele>634.2</ele>
        <time>2020-03-31T18:45:38Z</time>
      </trkpt>
      <trkpt lat="42.4365570" lon="-2.9348140">
        <ele>633.9</ele>
        <time>2020-03-31T18:45:40Z</time>
      </trkpt>
      <trkpt lat="42.4366150" lon="-2.9349760">
        <ele>633.7</ele>
        <time>2020-03-31T18:45:42Z</time>
      </trkpt>
      <trkpt lat="42.4367150" lon="-2.9352650">
        <ele>633.8</ele>
        <time>2020-03-31T18:45:44Z</time>
      </trkpt>
      <trkpt lat="42.4367630" lon="-2.9354350">
        <ele>633.8</ele>
        <time>2020-03-31T18:45:46Z</time>
      </trkpt>
      <trkpt lat="42.4368100" lon="-2.9356060">
        <ele>633.9</ele>
        <time>2020-03-31T18:45:48Z</time>
      </trkpt>
      <trkpt lat="42.4368570" lon="-2.9357750">
        <ele>634.0</ele>
        <time>2020-03-31T18:45:50Z</time>
      </trkpt>
      <trkpt lat="42.4369720" lon="-2.9361870">
        <ele>633.6</ele>
        <time>2020-03-31T18:45:52Z</time>
      </trkpt>
      <trkpt lat="42.4370190" lon="-2.9363570">
        <ele>633.5</ele>
        <time>2020-03-31T18:45:54Z</time>
      </trkpt>
      <trkpt lat="42.4370660" lon="-2.9365260">
        <ele>633.4</ele>
        <time>2020-03-31T18:45:56Z</time>
      </trkpt>
      <trkpt lat="42.4371120" lon="-2.9366930">
        <ele>633.4</ele>
        <time>2020-03-31T18:45:58Z</time>
      </trkpt>
      <trkpt lat="42.4372260" lon="-2.9371020">
        <ele>633.4</ele>
        <time>2020-03-31T18:46:00Z</time>
      </trkpt>
      <trkpt lat="42.4372720" lon="-2.9372690">
        <ele>633.4</ele>
        <time>2020-03-31T18:46:02Z</time>
      </trkpt>
      <trkpt lat="42.4373180" lon="-2.9374340">
        <ele>633.4</ele>
        <time>2020-03-31T18:46:04Z</time>
      </trkpt>
      <trkpt lat="42.4373640" lon="-2.9376000">
        <ele>633.4</ele>
        <time>2020-03-31T18:46:06Z</time>
      </trkpt>
      <trkpt lat="42.4374760" lon="-2.9380080">
        <ele>633.5</ele>
        <time>2020-03-31T18:46:08Z</time>
      </trkpt>
      <trkpt lat="42.4375140" lon="-2.9381780">
        <ele>633.5</ele>
        <time>2020-03-31T18:46:11Z</time>
      </trkpt>
      <trkpt lat="42.4375510" lon="-2.9383470">
        <ele>633.5</ele>
        <time>2020-03-31T18:46:13Z</time>
      </trkpt>
      <trkpt lat="42.4376310" lon="-2.9386920">
        <ele>633.5</ele>
        <time>2020-03-31T18:46:15Z</time>
      </trkpt>
      <trkpt lat="42.4377190" lon="-2.9388700">
        <ele>633.5</ele>
        <time>2020-03-31T18:46:17Z</time>
      </trkpt>
      <trkpt lat="42.4378710" lon="-2.9390090">
        <ele>633.5</ele>
        <time>2020-03-31T18:46:19Z</time>
      </trkpt>
      <trkpt lat="42.4380520" lon="-2.9390590">
        <ele>633.3</ele>
        <time>2020-03-31T18:46:21Z</time>
      </trkpt>
      <trkpt lat="42.4382120" lon="-2.9390090">
        <ele>633.2</ele>
        <time>2020-03-31T18:46:23Z</time>
      </trkpt>
      <trkpt lat="42.4382430" lon="-2.9391770">
        <ele>633.5</ele>
        <time>2020-03-31T18:46:25Z</time>
      </trkpt>
      <trkpt lat="42.4382730" lon="-2.9393420">
        <ele>633.9</ele>
        <time>2020-03-31T18:46:27Z</time>
      </trkpt>
      <trkpt lat="42.4383040" lon="-2.9395080">
        <ele>634.1</ele>
        <time>2020-03-31T18:46:29Z</time>
      </trkpt>
      <trkpt lat="42.4383350" lon="-2.9396720">
        <ele>634.2</ele>
        <time>2020-03-31T18:46:31Z</time>
      </trkpt>
      <trkpt lat="42.4384170" lon="-2.9401180">
        <ele>634.3</ele>
        <time>2020-03-31T18:46:33Z</time>
      </trkpt>
      <trkpt lat="42.4384480" lon="-2.9402820">
        <ele>634.3</ele>
        <time>2020-03-31T18:46:35Z</time>
      </trkpt>
      <trkpt lat="42.4384790" lon="-2.9404470">
        <ele>634.4</ele>
        <time>2020-03-31T18:46:37Z</time>
      </trkpt>
      <trkpt lat="42.4385090" lon="-2.9406110">
        <ele>634.4</ele>
        <time>2020-03-31T18:46:39Z</time>
      </trkpt>
      <trkpt lat="42.4385400" lon="-2.9407770">
        <ele>634.4</ele>
        <time>2020-03-31T18:46:41Z</time>
      </trkpt>
      <trkpt lat="42.4386230" lon="-2.9412240">
        <ele>634.5</ele>
        <time>2020-03-31T18:46:43Z</time>
      </trkpt>
      <trkpt lat="42.4386530" lon="-2.9413860">
        <ele>634.5</ele>
        <time>2020-03-31T18:46:45Z</time>
      </trkpt>
      <trkpt lat="42.4386820" lon="-2.9415420">
        <ele>634.5</ele>
        <time>2020-03-31T18:46:47Z</time>
      </trkpt>
      <trkpt lat="42.4387110" lon="-2.9416980">
        <ele>634.6</ele>
        <time>2020-03-31T18:46:49Z</time>
      </trkpt>
      <trkpt lat="42.4387390" lon="-2.9418500">
        <ele>634.6</ele>
        <time>2020-03-31T18:46:51Z</time>
      </trkpt>
      <trkpt lat="42.4388190" lon="-2.9422830">
        <ele>635.2</ele>
        <time>2020-03-31T18:46:53Z</time>
      </trkpt>
      <trkpt lat="42.4388470" lon="-2.9424300">
        <ele>635.5</ele>
        <time>2020-03-31T18:46:55Z</time>
      </trkpt>
      <trkpt lat="42.4388740" lon="-2.9425770">
        <ele>635.7</ele>
        <time>2020-03-31T18:46:57Z</time>
      </trkpt>
      <trkpt lat="42.4389010" lon="-2.9427250">
        <ele>635.9</ele>
        <time>2020-03-31T18:46:59Z</time>
      </trkpt>
      <trkpt lat="42.4389290" lon="-2.9428720">
        <ele>636.2</ele>
        <time>2020-03-31T18:47:01Z</time>
      </trkpt>
      <trkpt lat="42.4389560" lon="-2.9430200">
        <ele>636.6</ele>
        <time>2020-03-31T18:47:03Z</time>
      </trkpt>
      <trkpt lat="42.4390420" lon="-2.9434480">
        <ele>637.8</ele>
        <time>2020-03-31T18:47:05Z</time>
      </trkpt>
      <trkpt lat="42.4391190" lon="-2.9436560">
        <ele>637.8</ele>
        <time>2020-03-31T18:47:07Z</time>
      </trkpt>
      <trkpt lat="42.4392780" lon="-2.9437180">
        <ele>637.8</ele>
        <time>2020-03-31T18:47:09Z</time>
      </trkpt>
      <trkpt lat="42.4393260" lon="-2.9438990">
        <ele>637.9</ele>
        <time>2020-03-31T18:47:11Z</time>
      </trkpt>
      <trkpt lat="42.4393170" lon="-2.9440680">
        <ele>638.0</ele>
        <time>2020-03-31T18:47:13Z</time>
      </trkpt>
      <trkpt lat="42.4393070" lon="-2.9442380">
        <ele>638.0</ele>
        <time>2020-03-31T18:47:15Z</time>
      </trkpt>
      <trkpt lat="42.4392940" lon="-2.9446040">
        <ele>638.0</ele>
        <time>2020-03-31T18:47:17Z</time>
      </trkpt>
      <trkpt lat="42.4393110" lon="-2.9447760">
        <ele>638.0</ele>
        <time>2020-03-31T18:47:19Z</time>
      </trkpt>
      <trkpt lat="42.4393380" lon="-2.9450840">
        <ele>637.9</ele>
        <time>2020-03-31T18:47:21Z</time>
      </trkpt>
      <trkpt lat="42.4393200" lon="-2.9452560">
        <ele>637.8</ele>
        <time>2020-03-31T18:47:23Z</time>
      </trkpt>
      <trkpt lat="42.4393020" lon="-2.9454280">
        <ele>637.6</ele>
        <time>2020-03-31T18:47:25Z</time>
      </trkpt>
      <trkpt lat="42.4392840" lon="-2.9455990">
        <ele>637.5</ele>
        <time>2020-03-31T18:47:27Z</time>
      </trkpt>
      <trkpt lat="42.4392580" lon="-2.9459680">
        <ele>637.6</ele>
        <time>2020-03-31T18:47:29Z</time>
      </trkpt>
      <trkpt lat="42.4392550" lon="-2.9461370">
        <ele>637.8</ele>
        <time>2020-03-31T18:47:31Z</time>
      </trkpt>
      <trkpt lat="42.4392530" lon="-2.9463070">
        <ele>637.9</ele>
        <time>2020-03-31T18:47:33Z</time>
      </trkpt>
      <trkpt lat="42.4392480" lon="-2.9466470">
        <ele>638.3</ele>
        <time>2020-03-31T18:47:35Z</time>
      </trkpt>
      <trkpt lat="42.4392470" lon="-2.9468090">
        <ele>638.3</ele>
        <time>2020-03-31T18:47:37Z</time>
      </trkpt>
      <trkpt lat="42.4392450" lon="-2.9469680">
        <ele>638.3</ele>
        <time>2020-03-31T18:47:39Z</time>
      </trkpt>
      <trkpt lat="42.4392430" lon="-2.9471240">
        <ele>638.3</ele>
        <time>2020-03-31T18:47:41Z</time>
      </trkpt>
      <trkpt lat="42.4392420" lon="-2.9472750">
        <ele>638.2</ele>
        <time>2020-03-31T18:47:43Z</time>
      </trkpt>
      <trkpt lat="42.4392370" lon="-2.9477420">
        <ele>638.2</ele>
        <time>2020-03-31T18:47:45Z</time>
      </trkpt>
      <trkpt lat="42.4392350" lon="-2.9478940">
        <ele>638.4</ele>
        <time>2020-03-31T18:47:47Z</time>
      </trkpt>
      <trkpt lat="42.4392340" lon="-2.9480420">
        <ele>638.6</ele>
        <time>2020-03-31T18:47:49Z</time>
      </trkpt>
      <trkpt lat="42.4392320" lon="-2.9481890">
        <ele>638.9</ele>
        <time>2020-03-31T18:47:51Z</time>
      </trkpt>
      <trkpt lat="42.4392310" lon="-2.9483340">
        <ele>639.3</ele>
        <time>2020-03-31T18:47:53Z</time>
      </trkpt>
      <trkpt lat="42.4392290" lon="-2.9484780">
        <ele>639.7</ele>
        <time>2020-03-31T18:47:55Z</time>
      </trkpt>
      <trkpt lat="42.4392250" lon="-2.9489360">
        <ele>641.9</ele>
        <time>2020-03-31T18:47:57Z</time>
      </trkpt>
      <trkpt lat="42.4392230" lon="-2.9490840">
        <ele>641.9</ele>
        <time>2020-03-31T18:47:59Z</time>
      </trkpt>
      <trkpt lat="42.4392210" lon="-2.9492330">
        <ele>642.0</ele>
        <time>2020-03-31T18:48:01Z</time>
      </trkpt>
      <trkpt lat="42.4392200" lon="-2.9493860">
        <ele>642.1</ele>
        <time>2020-03-31T18:48:03Z</time>
      </trkpt>
      <trkpt lat="42.4392180" lon="-2.9495390">
        <ele>642.2</ele>
        <time>2020-03-31T18:48:05Z</time>
      </trkpt>
      <trkpt lat="42.4392170" lon="-2.9496960">
        <ele>642.3</ele>
        <time>2020-03-31T18:48:07Z</time>
      </trkpt>
      <trkpt lat="42.4392120" lon="-2.9501680">
        <ele>642.7</ele>
        <time>2020-03-31T18:48:09Z</time>
      </trkpt>
      <trkpt lat="42.4392100" lon="-2.9503240">
        <ele>642.9</ele>
        <time>2020-03-31T18:48:11Z</time>
      </trkpt>
      <trkpt lat="42.4392080" lon="-2.9504800">
        <ele>643.0</ele>
        <time>2020-03-31T18:48:13Z</time>
      </trkpt>
      <trkpt lat="42.4392070" lon="-2.9506370">
        <ele>643.3</ele>
        <time>2020-03-31T18:48:15Z</time>
      </trkpt>
      <trkpt lat="42.4392050" lon="-2.9507950">
        <ele>643.5</ele>
        <time>2020-03-31T18:48:17Z</time>
      </trkpt>
      <trkpt lat="42.4392040" lon="-2.9509530">
        <ele>643.8</ele>
        <time>2020-03-31T18:48:19Z</time>
      </trkpt>
      <trkpt lat="42.4392080" lon="-2.9514700">
        <ele>644.0</ele>
        <time>2020-03-31T18:48:21Z</time>
      </trkpt>
      <trkpt lat="42.4390910" lon="-2.9514560">
        <ele>644.2</ele>
        <time>2020-03-31T18:48:23Z</time>
      </trkpt>
      <trkpt lat="42.4389740" lon="-2.9514420">
        <ele>644.3</ele>
        <time>2020-03-31T18:48:25Z</time>
      </trkpt>
      <trkpt lat="42.4388560" lon="-2.9514270">
        <ele>644.4</ele>
        <time>2020-03-31T18:48:27Z</time>
      </trkpt>
      <trkpt lat="42.4387370" lon="-2.9514130">
        <ele>644.5</ele>
        <time>2020-03-31T18:48:29Z</time>
      </trkpt>
      <trkpt lat="42.4386190" lon="-2.9513990">
        <ele>644.6</ele>
        <time>2020-03-31T18:48:31Z</time>
      </trkpt>
      <trkpt lat="42.4383800" lon="-2.9515600">
        <ele>643.5</ele>
        <time>2020-03-31T18:48:33Z</time>
      </trkpt>
      <trkpt lat="42.4383800" lon="-2.9515600">
        <ele>643.5</ele>
        <time>2020-03-31T18:48:33Z</time>
      </trkpt>
      <trkpt lat="42.4383800" lon="-2.9515600">
        <ele>643.5</ele>
        <time>2020-03-31T18:48:35Z</time>
      </trkpt>
      <trkpt lat="42.4383800" lon="-2.9515600">
        <ele>643.5</ele>
        <time>2020-03-31T18:48:37Z</time>
      </trkpt>
      <trkpt lat="42.4383800" lon="-2.9515600">
        <ele>643.5</ele>
        <time>2020-03-31T18:48:39Z</time>
      </trkpt>
      <trkpt lat="42.4383800" lon="-2.9515600">
        <ele>643.5</ele>
        <time>2020-03-31T18:48:41Z</time>
      </trkpt>
      <trkpt lat="42.4383800" lon="-2.9515600">
        <ele>643.5</ele>
        <time>2020-03-31T18:48:43Z</time>
      </trkpt>
      <trkpt lat="42.4383800" lon="-2.9515600">
        <ele>643.5</ele>
        <time>2020-03-31T18:48:45Z</time>
      </trkpt>
      <trkpt lat="42.4383800" lon="-2.9515600">
        <ele>643.5</ele>
        <time>2020-03-31T18:48:47Z</time>
      </trkpt>
      <trkpt lat="42.4383800" lon="-2.9515600">
        <ele>643.5</ele>
        <time>2020-03-31T18:48:49Z</time>
      </trkpt>
      <trkpt lat="42.4383800" lon="-2.9515600">
        <ele>643.5</ele>
        <time>2020-03-31T18:48:51Z</time>
      </trkpt>
      <trkpt lat="42.4389600" lon="-2.9534100">
        <ele>647.1</ele>
        <time>2020-04-02T17:21:36Z</time>
      </trkpt>
      <trkpt lat="42.4389600" lon="-2.9534100">
        <ele>647.1</ele>
        <time>2020-04-02T17:21:38Z</time>
      </trkpt>
      <trkpt lat="42.4389600" lon="-2.9534100">
        <ele>647.1</ele>
        <time>2020-04-02T17:21:40Z</time>
      </trkpt>
      <trkpt lat="42.4389600" lon="-2.9534100">
        <ele>647.1</ele>
        <time>2020-04-02T17:21:42Z</time>
      </trkpt>
      <trkpt lat="42.4389600" lon="-2.9534100">
        <ele>647.1</ele>
        <time>2020-04-02T17:21:44Z</time>
      </trkpt>
      <trkpt lat="42.4389600" lon="-2.9534100">
        <ele>647.1</ele>
        <time>2020-04-02T17:21:46Z</time>
      </trkpt>
      <trkpt lat="42.4389600" lon="-2.9534100">
        <ele>647.1</ele>
        <time>2020-04-02T17:21:48Z</time>
      </trkpt>
      <trkpt lat="42.4389600" lon="-2.9534100">
        <ele>647.1</ele>
        <time>2020-04-02T17:21:50Z</time>
      </trkpt>
      <trkpt lat="42.4389600" lon="-2.9534100">
        <ele>647.1</ele>
        <time>2020-04-02T17:21:52Z</time>
      </trkpt>
      <trkpt lat="42.4389600" lon="-2.9534100">
        <ele>647.1</ele>
        <time>2020-04-02T17:21:54Z</time>
      </trkpt>
      <trkpt lat="42.4389600" lon="-2.9534100">
        <ele>647.1</ele>
        <time>2020-04-02T17:21:56Z</time>
      </trkpt>
      <trkpt lat="42.4389600" lon="-2.9534100">
        <ele>647.1</ele>
        <time>2020-04-02T17:21:58Z</time>
      </trkpt>
      <trkpt lat="42.4389600" lon="-2.9534100">
        <ele>647.1</ele>
        <time>2020-04-02T17:22:00Z</time>
      </trkpt>
      <trkpt lat="42.4389600" lon="-2.9534100">
        <ele>647.1</ele>
        <time>2020-04-02T17:22:02Z</time>
      </trkpt>
      <trkpt lat="42.4389600" lon="-2.9534100">
        <ele>647.1</ele>
        <time>2020-04-02T17:22:04Z</time>
      </trkpt>
      <trkpt lat="42.4389600" lon="-2.9534100">
        <ele>647.1</ele>
        <time>2020-04-02T17:22:06Z</time>
      </trkpt>
      <trkpt lat="42.4389600" lon="-2.9534100">
        <ele>647.1</ele>
        <time>2020-04-02T17:22:08Z</time>
      </trkpt>
      <trkpt lat="42.4389600" lon="-2.9534100">
        <ele>647.1</ele>
        <time>2020-04-02T17:22:10Z</time>
      </trkpt>
      <trkpt lat="42.4389600" lon="-2.9534100">
        <ele>647.1</ele>
        <time>2020-04-02T17:22:12Z</time>
      </trkpt>
      <trkpt lat="42.4389600" lon="-2.9534100">
        <ele>647.1</ele>
        <time>2020-04-02T17:22:14Z</time>
      </trkpt>
      <trkpt lat="42.4389600" lon="-2.9534100">
        <ele>647.1</ele>
        <time>2020-04-02T17:22:16Z</time>
      </trkpt>
      <trkpt lat="42.4389600" lon="-2.9534100">
        <ele>647.1</ele>
        <time>2020-04-02T17:22:18Z</time>
      </trkpt>
      <trkpt lat="42.4389600" lon="-2.9534100">
        <ele>647.1</ele>
        <time>2020-04-02T17:22:20Z</time>
      </trkpt>
      <trkpt lat="42.4389600" lon="-2.9534100">
        <ele>647.1</ele>
        <time>2020-04-02T17:22:22Z</time>
      </trkpt>
      <trkpt lat="42.4389600" lon="-2.9534100">
        <ele>647.1</ele>
        <time>2020-04-02T17:22:24Z</time>
      </trkpt>
      <trkpt lat="42.4389600" lon="-2.9534100">
        <ele>647.1</ele>
        <time>2020-04-02T17:22:26Z</time>
      </trkpt>
      <trkpt lat="42.4389600" lon="-2.9534100">
        <ele>647.1</ele>
        <time>2020-04-02T17:22:28Z</time>
      </trkpt>
      <trkpt lat="42.4389600" lon="-2.9534100">
        <ele>647.1</ele>
        <time>2020-04-02T17:22:30Z</time>
      </trkpt>
      <trkpt lat="42.4389600" lon="-2.9534100">
        <ele>647.1</ele>
        <time>2020-04-02T17:22:32Z</time>
      </trkpt>
      <trkpt lat="42.4389600" lon="-2.9534100">
        <ele>647.1</ele>
        <time>2020-04-02T17:22:34Z</time>
      </trkpt>
      <trkpt lat="42.4389600" lon="-2.9534100">
        <ele>647.1</ele>
        <time>2020-04-02T17:22:36Z</time>
      </trkpt>
      <trkpt lat="42.4389600" lon="-2.9534100">
        <ele>647.1</ele>
        <time>2020-04-02T17:22:38Z</time>
      </trkpt>
      <trkpt lat="42.4389600" lon="-2.9534100">
        <ele>647.1</ele>
        <time>2020-04-02T17:22:40Z</time>
      </trkpt>
      <trkpt lat="42.4389600" lon="-2.9534100">
        <ele>647.1</ele>
        <time>2020-04-02T17:22:42Z</time>
      </trkpt>
      <trkpt lat="42.4389600" lon="-2.9534100">
        <ele>647.1</ele>
        <time>2020-04-02T17:22:44Z</time>
      </trkpt>
      <trkpt lat="42.4389600" lon="-2.9534100">
        <ele>647.1</ele>
        <time>2020-04-02T17:22:46Z</time>
      </trkpt>
      <trkpt lat="42.4389600" lon="-2.9534100">
        <ele>647.1</ele>
        <time>2020-04-02T17:22:48Z</time>
      </trkpt>
      <trkpt lat="42.4389600" lon="-2.9534100">
        <ele>647.1</ele>
        <time>2020-04-02T17:22:48Z</time>
      </trkpt>
      <trkpt lat="42.4389600" lon="-2.9534100">
        <ele>647.1</ele>
        <time>2020-04-02T17:22:50Z</time>
      </trkpt>
      <trkpt lat="42.4389820" lon="-2.9534100">
        <ele>647.2</ele>
        <time>2020-04-02T17:22:52Z</time>
      </trkpt>
      <trkpt lat="42.4390450" lon="-2.9534080">
        <ele>647.2</ele>
        <time>2020-04-02T17:22:54Z</time>
      </trkpt>
      <trkpt lat="42.4391020" lon="-2.9533990">
        <ele>647.2</ele>
        <time>2020-04-02T17:22:56Z</time>
      </trkpt>
      <trkpt lat="42.4391700" lon="-2.9533880">
        <ele>647.2</ele>
        <time>2020-04-02T17:22:58Z</time>
      </trkpt>
      <trkpt lat="42.4393070" lon="-2.9533440">
        <ele>646.9</ele>
        <time>2020-04-02T17:23:00Z</time>
      </trkpt>
      <trkpt lat="42.4393910" lon="-2.9532250">
        <ele>646.7</ele>
        <time>2020-04-02T17:23:02Z</time>
      </trkpt>
      <trkpt lat="42.4394050" lon="-2.9533540">
        <ele>646.8</ele>
        <time>2020-04-02T17:23:04Z</time>
      </trkpt>
      <trkpt lat="42.4394210" lon="-2.9534930">
        <ele>646.6</ele>
        <time>2020-04-02T17:23:06Z</time>
      </trkpt>
      <trkpt lat="42.4394370" lon="-2.9536400">
        <ele>646.3</ele>
        <time>2020-04-02T17:23:08Z</time>
      </trkpt>
      <trkpt lat="42.4394550" lon="-2.9537950">
        <ele>646.3</ele>
        <time>2020-04-02T17:23:10Z</time>
      </trkpt>
      <trkpt lat="42.4394730" lon="-2.9539580">
        <ele>646.2</ele>
        <time>2020-04-02T17:23:12Z</time>
      </trkpt>
      <trkpt lat="42.4395240" lon="-2.9544150">
        <ele>645.5</ele>
        <time>2020-04-02T17:23:14Z</time>
      </trkpt>
      <trkpt lat="42.4395440" lon="-2.9545880">
        <ele>645.3</ele>
        <time>2020-04-02T17:23:16Z</time>
      </trkpt>
      <trkpt lat="42.4395640" lon="-2.9547650">
        <ele>645.1</ele>
        <time>2020-04-02T17:23:18Z</time>
      </trkpt>
      <trkpt lat="42.4395840" lon="-2.9549460">
        <ele>645.0</ele>
        <time>2020-04-02T17:23:20Z</time>
      </trkpt>
      <trkpt lat="42.4396370" lon="-2.9554160">
        <ele>644.6</ele>
        <time>2020-04-02T17:23:22Z</time>
      </trkpt>
      <trkpt lat="42.4396570" lon="-2.9555970">
        <ele>644.6</ele>
        <time>2020-04-02T17:23:24Z</time>
      </trkpt>
      <trkpt lat="42.4396770" lon="-2.9557760">
        <ele>644.5</ele>
        <time>2020-04-02T17:23:26Z</time>
      </trkpt>
      <trkpt lat="42.4396970" lon="-2.9559530">
        <ele>644.5</ele>
        <time>2020-04-02T17:23:28Z</time>
      </trkpt>
      <trkpt lat="42.4397170" lon="-2.9561280">
        <ele>644.4</ele>
        <time>2020-04-02T17:23:30Z</time>
      </trkpt>
      <trkpt lat="42.4397790" lon="-2.9565880">
        <ele>644.3</ele>
        <time>2020-04-02T17:23:32Z</time>
      </trkpt>
      <trkpt lat="42.4398200" lon="-2.9567560">
        <ele>644.3</ele>
        <time>2020-04-02T17:23:34Z</time>
      </trkpt>
      <trkpt lat="42.4398610" lon="-2.9569250">
        <ele>644.4</ele>
        <time>2020-04-02T17:23:36Z</time>
      </trkpt>
      <trkpt lat="42.4399560" lon="-2.9572610">
        <ele>644.2</ele>
        <time>2020-04-02T17:23:38Z</time>
      </trkpt>
      <trkpt lat="42.4400760" lon="-2.9574310">
        <ele>643.5</ele>
        <time>2020-04-02T17:23:40Z</time>
      </trkpt>
      <trkpt lat="42.4402510" lon="-2.9575090">
        <ele>643.1</ele>
        <time>2020-04-02T17:23:42Z</time>
      </trkpt>
      <trkpt lat="42.4402950" lon="-2.9577350">
        <ele>642.6</ele>
        <time>2020-04-02T17:23:44Z</time>
      </trkpt>
      <trkpt lat="42.4404280" lon="-2.9579160">
        <ele>642.3</ele>
        <time>2020-04-02T17:23:46Z</time>
      </trkpt>
      <trkpt lat="42.4405480" lon="-2.9580350">
        <ele>642.3</ele>
        <time>2020-04-02T17:23:48Z</time>
      </trkpt>
      <trkpt lat="42.4406720" lon="-2.9581570">
        <ele>642.1</ele>
        <time>2020-04-02T17:23:50Z</time>
      </trkpt>
      <trkpt lat="42.4409560" lon="-2.9584380">
        <ele>640.1</ele>
        <time>2020-04-02T17:23:52Z</time>
      </trkpt>
      <trkpt lat="42.4410690" lon="-2.9585780">
        <ele>639.9</ele>
        <time>2020-04-02T17:23:54Z</time>
      </trkpt>
      <trkpt lat="42.4412190" lon="-2.9588040">
        <ele>639.8</ele>
        <time>2020-04-02T17:23:56Z</time>
      </trkpt>
      <trkpt lat="42.4413410" lon="-2.9590500">
        <ele>639.9</ele>
        <time>2020-04-02T17:23:58Z</time>
      </trkpt>
      <trkpt lat="42.4414360" lon="-2.9592890">
        <ele>639.6</ele>
        <time>2020-04-02T17:24:00Z</time>
      </trkpt>
      <trkpt lat="42.4414950" lon="-2.9594710">
        <ele>639.0</ele>
        <time>2020-04-02T17:24:02Z</time>
      </trkpt>
      <trkpt lat="42.4415540" lon="-2.9596540">
        <ele>638.5</ele>
        <time>2020-04-02T17:24:04Z</time>
      </trkpt>
      <trkpt lat="42.4416660" lon="-2.9599960">
        <ele>638.0</ele>
        <time>2020-04-02T17:24:06Z</time>
      </trkpt>
      <trkpt lat="42.4417230" lon="-2.9601720">
        <ele>637.9</ele>
        <time>2020-04-02T17:24:08Z</time>
      </trkpt>
      <trkpt lat="42.4418300" lon="-2.9605060">
        <ele>637.3</ele>
        <time>2020-04-02T17:24:10Z</time>
      </trkpt>
      <trkpt lat="42.4418810" lon="-2.9606770">
        <ele>637.3</ele>
        <time>2020-04-02T17:24:12Z</time>
      </trkpt>
      <trkpt lat="42.4419310" lon="-2.9608460">
        <ele>637.4</ele>
        <time>2020-04-02T17:24:14Z</time>
      </trkpt>
      <trkpt lat="42.4419800" lon="-2.9610120">
        <ele>637.6</ele>
        <time>2020-04-02T17:24:16Z</time>
      </trkpt>
      <trkpt lat="42.4420300" lon="-2.9611770">
        <ele>638.0</ele>
        <time>2020-04-02T17:24:18Z</time>
      </trkpt>
      <trkpt lat="42.4421650" lon="-2.9616300">
        <ele>638.5</ele>
        <time>2020-04-02T17:24:20Z</time>
      </trkpt>
      <trkpt lat="42.4422130" lon="-2.9617930">
        <ele>638.6</ele>
        <time>2020-04-02T17:24:22Z</time>
      </trkpt>
      <trkpt lat="42.4422610" lon="-2.9619530">
        <ele>638.6</ele>
        <time>2020-04-02T17:24:24Z</time>
      </trkpt>
      <trkpt lat="42.4423090" lon="-2.9621150">
        <ele>638.7</ele>
        <time>2020-04-02T17:24:26Z</time>
      </trkpt>
      <trkpt lat="42.4423570" lon="-2.9622760">
        <ele>638.8</ele>
        <time>2020-04-02T17:24:28Z</time>
      </trkpt>
      <trkpt lat="42.4424910" lon="-2.9627250">
        <ele>639.4</ele>
        <time>2020-04-02T17:24:30Z</time>
      </trkpt>
      <trkpt lat="42.4425390" lon="-2.9628860">
        <ele>639.2</ele>
        <time>2020-04-02T17:24:32Z</time>
      </trkpt>
      <trkpt lat="42.4425870" lon="-2.9630470">
        <ele>639.0</ele>
        <time>2020-04-02T17:24:34Z</time>
      </trkpt>
      <trkpt lat="42.4426350" lon="-2.9632070">
        <ele>638.9</ele>
        <time>2020-04-02T17:24:36Z</time>
      </trkpt>
      <trkpt lat="42.4426830" lon="-2.9633670">
        <ele>638.9</ele>
        <time>2020-04-02T17:24:38Z</time>
      </trkpt>
      <trkpt lat="42.4428250" lon="-2.9638100">
        <ele>638.9</ele>
        <time>2020-04-02T17:24:40Z</time>
      </trkpt>
      <trkpt lat="42.4429330" lon="-2.9639830">
        <ele>639.0</ele>
        <time>2020-04-02T17:24:42Z</time>
      </trkpt>
      <trkpt lat="42.4430810" lon="-2.9641300">
        <ele>639.1</ele>
        <time>2020-04-02T17:24:44Z</time>
      </trkpt>
      <trkpt lat="42.4431880" lon="-2.9642230">
        <ele>639.1</ele>
        <time>2020-04-02T17:24:46Z</time>
      </trkpt>
      <trkpt lat="42.4432940" lon="-2.9643160">
        <ele>639.2</ele>
        <time>2020-04-02T17:24:48Z</time>
      </trkpt>
      <trkpt lat="42.4434000" lon="-2.9644090">
        <ele>639.2</ele>
        <time>2020-04-02T17:24:50Z</time>
      </trkpt>
      <trkpt lat="42.4435050" lon="-2.9645010">
        <ele>639.2</ele>
        <time>2020-04-02T17:24:52Z</time>
      </trkpt>
      <trkpt lat="42.4437720" lon="-2.9647360">
        <ele>639.0</ele>
        <time>2020-04-02T17:24:54Z</time>
      </trkpt>
      <trkpt lat="42.4438830" lon="-2.9648330">
        <ele>638.9</ele>
        <time>2020-04-02T17:24:56Z</time>
      </trkpt>
      <trkpt lat="42.4439960" lon="-2.9649320">
        <ele>638.5</ele>
        <time>2020-04-02T17:24:58Z</time>
      </trkpt>
      <trkpt lat="42.4441120" lon="-2.9650340">
        <ele>638.1</ele>
        <time>2020-04-02T17:25:00Z</time>
      </trkpt>
      <trkpt lat="42.4443120" lon="-2.9653940">
        <ele>637.5</ele>
        <time>2020-04-02T17:25:02Z</time>
      </trkpt>
      <trkpt lat="42.4443900" lon="-2.9655560">
        <ele>637.1</ele>
        <time>2020-04-02T17:25:04Z</time>
      </trkpt>
      <trkpt lat="42.4444930" lon="-2.9658020">
        <ele>636.8</ele>
        <time>2020-04-02T17:25:06Z</time>
      </trkpt>
      <trkpt lat="42.4445550" lon="-2.9659710">
        <ele>636.7</ele>
        <time>2020-04-02T17:25:08Z</time>
      </trkpt>
      <trkpt lat="42.4446480" lon="-2.9662640">
        <ele>636.7</ele>
        <time>2020-04-02T17:25:10Z</time>
      </trkpt>
      <trkpt lat="42.4447020" lon="-2.9665260">
        <ele>636.7</ele>
        <time>2020-04-02T17:25:12Z</time>
      </trkpt>
      <trkpt lat="42.4447530" lon="-2.9666960">
        <ele>636.7</ele>
        <time>2020-04-02T17:25:14Z</time>
      </trkpt>
      <trkpt lat="42.4448020" lon="-2.9668650">
        <ele>636.7</ele>
        <time>2020-04-02T17:25:16Z</time>
      </trkpt>
      <trkpt lat="42.4448850" lon="-2.9672000">
        <ele>636.5</ele>
        <time>2020-04-02T17:25:18Z</time>
      </trkpt>
      <trkpt lat="42.4449170" lon="-2.9673800">
        <ele>636.4</ele>
        <time>2020-04-02T17:25:20Z</time>
      </trkpt>
      <trkpt lat="42.4449510" lon="-2.9675650">
        <ele>636.2</ele>
        <time>2020-04-02T17:25:22Z</time>
      </trkpt>
      <trkpt lat="42.4450280" lon="-2.9679940">
        <ele>635.5</ele>
        <time>2020-04-02T17:25:24Z</time>
      </trkpt>
      <trkpt lat="42.4450620" lon="-2.9681850">
        <ele>635.1</ele>
        <time>2020-04-02T17:25:26Z</time>
      </trkpt>
      <trkpt lat="42.4450960" lon="-2.9683770">
        <ele>634.9</ele>
        <time>2020-04-02T17:25:28Z</time>
      </trkpt>
      <trkpt lat="42.4451310" lon="-2.9685700">
        <ele>634.6</ele>
        <time>2020-04-02T17:25:30Z</time>
      </trkpt>
      <trkpt lat="42.4452150" lon="-2.9690030">
        <ele>633.9</ele>
        <time>2020-04-02T17:25:32Z</time>
      </trkpt>
      <trkpt lat="42.4452620" lon="-2.9691930">
        <ele>633.7</ele>
        <time>2020-04-02T17:25:34Z</time>
      </trkpt>
      <trkpt lat="42.4453090" lon="-2.9693850">
        <ele>633.6</ele>
        <time>2020-04-02T17:25:36Z</time>
      </trkpt>
      <trkpt lat="42.4454020" lon="-2.9697690">
        <ele>633.2</ele>
        <time>2020-04-02T17:25:38Z</time>
      </trkpt>
      <trkpt lat="42.4454460" lon="-2.9699640">
        <ele>632.8</ele>
        <time>2020-04-02T17:25:40Z</time>
      </trkpt>
      <trkpt lat="42.4454900" lon="-2.9701590">
        <ele>632.4</ele>
        <time>2020-04-02T17:25:42Z</time>
      </trkpt>
      <trkpt lat="42.4455350" lon="-2.9703540">
        <ele>632.1</ele>
        <time>2020-04-02T17:25:44Z</time>
      </trkpt>
      <trkpt lat="42.4456440" lon="-2.9708310">
        <ele>631.2</ele>
        <time>2020-04-02T17:25:46Z</time>
      </trkpt>
      <trkpt lat="42.4456880" lon="-2.9710250">
        <ele>630.9</ele>
        <time>2020-04-02T17:25:48Z</time>
      </trkpt>
      <trkpt lat="42.4457320" lon="-2.9712200">
        <ele>630.5</ele>
        <time>2020-04-02T17:25:50Z</time>
      </trkpt>
      <trkpt lat="42.4457770" lon="-2.9714160">
        <ele>630.2</ele>
        <time>2020-04-02T17:25:52Z</time>
      </trkpt>
      <trkpt lat="42.4457760" lon="-2.9718080">
        <ele>629.6</ele>
        <time>2020-04-02T17:25:54Z</time>
      </trkpt>
      <trkpt lat="42.4456360" lon="-2.9718550">
        <ele>629.7</ele>
        <time>2020-04-02T17:25:56Z</time>
      </trkpt>
      <trkpt lat="42.4454980" lon="-2.9719000">
        <ele>629.7</ele>
        <time>2020-04-02T17:25:58Z</time>
      </trkpt>
      <trkpt lat="42.4453520" lon="-2.9721650">
        <ele>628.9</ele>
        <time>2020-04-02T17:26:00Z</time>
      </trkpt>
      <trkpt lat="42.4453630" lon="-2.9723840">
        <ele>628.3</ele>
        <time>2020-04-02T17:26:02Z</time>
      </trkpt>
      <trkpt lat="42.4454180" lon="-2.9725550">
        <ele>628.1</ele>
        <time>2020-04-02T17:26:04Z</time>
      </trkpt>
      <trkpt lat="42.4454720" lon="-2.9727260">
        <ele>628.1</ele>
        <time>2020-04-02T17:26:06Z</time>
      </trkpt>
      <trkpt lat="42.4455250" lon="-2.9728950">
        <ele>628.4</ele>
        <time>2020-04-02T17:26:08Z</time>
      </trkpt>
      <trkpt lat="42.4456530" lon="-2.9732960">
        <ele>628.5</ele>
        <time>2020-04-02T17:26:10Z</time>
      </trkpt>
      <trkpt lat="42.4457050" lon="-2.9734610">
        <ele>628.5</ele>
        <time>2020-04-02T17:26:12Z</time>
      </trkpt>
      <trkpt lat="42.4457550" lon="-2.9736210">
        <ele>628.5</ele>
        <time>2020-04-02T17:26:14Z</time>
      </trkpt>
      <trkpt lat="42.4458050" lon="-2.9737770">
        <ele>628.6</ele>
        <time>2020-04-02T17:26:16Z</time>
      </trkpt>
      <trkpt lat="42.4459270" lon="-2.9741610">
        <ele>629.1</ele>
        <time>2020-04-02T17:26:18Z</time>
      </trkpt>
      <trkpt lat="42.4459740" lon="-2.9743110">
        <ele>629.3</ele>
        <time>2020-04-02T17:26:20Z</time>
      </trkpt>
      <trkpt lat="42.4460210" lon="-2.9744580">
        <ele>629.6</ele>
        <time>2020-04-02T17:26:22Z</time>
      </trkpt>
      <trkpt lat="42.4460670" lon="-2.9746040">
        <ele>630.0</ele>
        <time>2020-04-02T17:26:24Z</time>
      </trkpt>
      <trkpt lat="42.4461870" lon="-2.9749820">
        <ele>630.7</ele>
        <time>2020-04-02T17:26:26Z</time>
      </trkpt>
      <trkpt lat="42.4462320" lon="-2.9751280">
        <ele>631.2</ele>
        <time>2020-04-02T17:26:28Z</time>
      </trkpt>
      <trkpt lat="42.4462780" lon="-2.9752760">
        <ele>631.5</ele>
        <time>2020-04-02T17:26:30Z</time>
      </trkpt>
      <trkpt lat="42.4463250" lon="-2.9754260">
        <ele>631.7</ele>
        <time>2020-04-02T17:26:32Z</time>
      </trkpt>
      <trkpt lat="42.4463720" lon="-2.9755760">
        <ele>631.7</ele>
        <time>2020-04-02T17:26:34Z</time>
      </trkpt>
      <trkpt lat="42.4464870" lon="-2.9759490">
        <ele>631.6</ele>
        <time>2020-04-02T17:26:36Z</time>
      </trkpt>
      <trkpt lat="42.4465350" lon="-2.9761010">
        <ele>631.6</ele>
        <time>2020-04-02T17:26:38Z</time>
      </trkpt>
      <trkpt lat="42.4465820" lon="-2.9762540">
        <ele>631.6</ele>
        <time>2020-04-02T17:26:40Z</time>
      </trkpt>
      <trkpt lat="42.4466300" lon="-2.9764080">
        <ele>631.6</ele>
        <time>2020-04-02T17:26:42Z</time>
      </trkpt>
      <trkpt lat="42.4467470" lon="-2.9767840">
        <ele>631.7</ele>
        <time>2020-04-02T17:26:44Z</time>
      </trkpt>
      <trkpt lat="42.4467960" lon="-2.9769390">
        <ele>631.8</ele>
        <time>2020-04-02T17:26:46Z</time>
      </trkpt>
      <trkpt lat="42.4468440" lon="-2.9770940">
        <ele>631.8</ele>
        <time>2020-04-02T17:26:48Z</time>
      </trkpt>
      <trkpt lat="42.4468920" lon="-2.9772480">
        <ele>631.8</ele>
        <time>2020-04-02T17:26:50Z</time>
      </trkpt>
      <trkpt lat="42.4470050" lon="-2.9776260">
        <ele>631.9</ele>
        <time>2020-04-02T17:26:52Z</time>
      </trkpt>
      <trkpt lat="42.4470490" lon="-2.9777810">
        <ele>631.9</ele>
        <time>2020-04-02T17:26:54Z</time>
      </trkpt>
      <trkpt lat="42.4470920" lon="-2.9779350">
        <ele>631.9</ele>
        <time>2020-04-02T17:26:56Z</time>
      </trkpt>
      <trkpt lat="42.4471350" lon="-2.9780860">
        <ele>632.0</ele>
        <time>2020-04-02T17:26:58Z</time>
      </trkpt>
      <trkpt lat="42.4471780" lon="-2.9782380">
        <ele>632.3</ele>
        <time>2020-04-02T17:27:00Z</time>
      </trkpt>
      <trkpt lat="42.4472990" lon="-2.9786780">
        <ele>633.0</ele>
        <time>2020-04-02T17:27:02Z</time>
      </trkpt>
      <trkpt lat="42.4473370" lon="-2.9788290">
        <ele>633.0</ele>
        <time>2020-04-02T17:27:04Z</time>
      </trkpt>
      <trkpt lat="42.4473740" lon="-2.9789820">
        <ele>633.0</ele>
        <time>2020-04-02T17:27:06Z</time>
      </trkpt>
      <trkpt lat="42.4474120" lon="-2.9791340">
        <ele>633.1</ele>
        <time>2020-04-02T17:27:08Z</time>
      </trkpt>
      <trkpt lat="42.4474980" lon="-2.9794820">
        <ele>633.8</ele>
        <time>2020-04-02T17:27:10Z</time>
      </trkpt>
      <trkpt lat="42.4475350" lon="-2.9796320">
        <ele>633.9</ele>
        <time>2020-04-02T17:27:12Z</time>
      </trkpt>
      <trkpt lat="42.4475720" lon="-2.9797830">
        <ele>633.9</ele>
        <time>2020-04-02T17:27:14Z</time>
      </trkpt>
      <trkpt lat="42.4476670" lon="-2.9801220">
        <ele>634.0</ele>
        <time>2020-04-02T17:27:16Z</time>
      </trkpt>
      <trkpt lat="42.4477510" lon="-2.9802320">
        <ele>634.2</ele>
        <time>2020-04-02T17:27:18Z</time>
      </trkpt>
      <trkpt lat="42.4478430" lon="-2.9804280">
        <ele>634.7</ele>
        <time>2020-04-02T17:27:20Z</time>
      </trkpt>
      <trkpt lat="42.4478840" lon="-2.9805760">
        <ele>634.8</ele>
        <time>2020-04-02T17:27:22Z</time>
      </trkpt>
      <trkpt lat="42.4479260" lon="-2.9807250">
        <ele>634.9</ele>
        <time>2020-04-02T17:27:24Z</time>
      </trkpt>
      <trkpt lat="42.4479880" lon="-2.9810400">
        <ele>635.1</ele>
        <time>2020-04-02T17:27:26Z</time>
      </trkpt>
      <trkpt lat="42.4479990" lon="-2.9811960">
        <ele>635.5</ele>
        <time>2020-04-02T17:27:28Z</time>
      </trkpt>
      <trkpt lat="42.4480090" lon="-2.9813500">
        <ele>636.1</ele>
        <time>2020-04-02T17:27:30Z</time>
      </trkpt>
      <trkpt lat="42.4480550" lon="-2.9816490">
        <ele>636.8</ele>
        <time>2020-04-02T17:27:32Z</time>
      </trkpt>
      <trkpt lat="42.4480910" lon="-2.9817940">
        <ele>636.9</ele>
        <time>2020-04-02T17:27:34Z</time>
      </trkpt>
      <trkpt lat="42.4481270" lon="-2.9819370">
        <ele>636.9</ele>
        <time>2020-04-02T17:27:36Z</time>
      </trkpt>
      <trkpt lat="42.4481620" lon="-2.9820800">
        <ele>636.9</ele>
        <time>2020-04-02T17:27:38Z</time>
      </trkpt>
      <trkpt lat="42.4482490" lon="-2.9824240">
        <ele>637.5</ele>
        <time>2020-04-02T17:27:40Z</time>
      </trkpt>
      <trkpt lat="42.4482840" lon="-2.9825650">
        <ele>637.7</ele>
        <time>2020-04-02T17:27:42Z</time>
      </trkpt>
      <trkpt lat="42.4483190" lon="-2.9827050">
        <ele>638.0</ele>
        <time>2020-04-02T17:27:44Z</time>
      </trkpt>
      <trkpt lat="42.4483530" lon="-2.9828430">
        <ele>638.3</ele>
        <time>2020-04-02T17:27:46Z</time>
      </trkpt>
      <trkpt lat="42.4484390" lon="-2.9831840">
        <ele>638.8</ele>
        <time>2020-04-02T17:27:48Z</time>
      </trkpt>
      <trkpt lat="42.4484730" lon="-2.9833230">
        <ele>638.8</ele>
        <time>2020-04-02T17:27:50Z</time>
      </trkpt>
      <trkpt lat="42.4485080" lon="-2.9834620">
        <ele>638.9</ele>
        <time>2020-04-02T17:27:52Z</time>
      </trkpt>
      <trkpt lat="42.4485430" lon="-2.9836010">
        <ele>639.1</ele>
        <time>2020-04-02T17:27:54Z</time>
      </trkpt>
      <trkpt lat="42.4486360" lon="-2.9839400">
        <ele>639.8</ele>
        <time>2020-04-02T17:27:56Z</time>
      </trkpt>
      <trkpt lat="42.4486800" lon="-2.9840750">
        <ele>640.1</ele>
        <time>2020-04-02T17:27:58Z</time>
      </trkpt>
      <trkpt lat="42.4487240" lon="-2.9842080">
        <ele>640.5</ele>
        <time>2020-04-02T17:28:00Z</time>
      </trkpt>
      <trkpt lat="42.4487680" lon="-2.9843440">
        <ele>640.8</ele>
        <time>2020-04-02T17:28:02Z</time>
      </trkpt>
      <trkpt lat="42.4488120" lon="-2.9844790">
        <ele>641.2</ele>
        <time>2020-04-02T17:28:04Z</time>
      </trkpt>
      <trkpt lat="42.4489430" lon="-2.9848790">
        <ele>641.8</ele>
        <time>2020-04-02T17:28:06Z</time>
      </trkpt>
      <trkpt lat="42.4489870" lon="-2.9850160">
        <ele>642.0</ele>
        <time>2020-04-02T17:28:08Z</time>
      </trkpt>
      <trkpt lat="42.4490320" lon="-2.9851530">
        <ele>642.3</ele>
        <time>2020-04-02T17:28:10Z</time>
      </trkpt>
      <trkpt lat="42.4490770" lon="-2.9852900">
        <ele>642.6</ele>
        <time>2020-04-02T17:28:12Z</time>
      </trkpt>
      <trkpt lat="42.4491210" lon="-2.9854260">
        <ele>643.0</ele>
        <time>2020-04-02T17:28:14Z</time>
      </trkpt>
      <trkpt lat="42.4491660" lon="-2.9855630">
        <ele>643.4</ele>
        <time>2020-04-02T17:28:16Z</time>
      </trkpt>
      <trkpt lat="42.4493440" lon="-2.9859220">
        <ele>643.8</ele>
        <time>2020-04-02T17:28:18Z</time>
      </trkpt>
      <trkpt lat="42.4494420" lon="-2.9858510">
        <ele>643.5</ele>
        <time>2020-04-02T17:28:20Z</time>
      </trkpt>
      <trkpt lat="42.4495630" lon="-2.9858650">
        <ele>643.3</ele>
        <time>2020-04-02T17:28:22Z</time>
      </trkpt>
      <trkpt lat="42.4496020" lon="-2.9860080">
        <ele>643.6</ele>
        <time>2020-04-02T17:28:24Z</time>
      </trkpt>
      <trkpt lat="42.4496420" lon="-2.9861520">
        <ele>643.9</ele>
        <time>2020-04-02T17:28:26Z</time>
      </trkpt>
      <trkpt lat="42.4496810" lon="-2.9862950">
        <ele>644.2</ele>
        <time>2020-04-02T17:28:28Z</time>
      </trkpt>
      <trkpt lat="42.4497820" lon="-2.9866650">
        <ele>645.3</ele>
        <time>2020-04-02T17:28:30Z</time>
      </trkpt>
      <trkpt lat="42.4498190" lon="-2.9868000">
        <ele>645.7</ele>
        <time>2020-04-02T17:28:32Z</time>
      </trkpt>
      <trkpt lat="42.4498520" lon="-2.9869230">
        <ele>646.2</ele>
        <time>2020-04-02T17:28:35Z</time>
      </trkpt>
      <trkpt lat="42.4498830" lon="-2.9870370">
        <ele>646.5</ele>
        <time>2020-04-02T17:28:37Z</time>
      </trkpt>
      <trkpt lat="42.4499130" lon="-2.9871440">
        <ele>646.9</ele>
        <time>2020-04-02T17:28:39Z</time>
      </trkpt>
      <trkpt lat="42.4499410" lon="-2.9872460">
        <ele>647.4</ele>
        <time>2020-04-02T17:28:41Z</time>
      </trkpt>
      <trkpt lat="42.4500220" lon="-2.9875710">
        <ele>649.2</ele>
        <time>2020-04-02T17:28:43Z</time>
      </trkpt>
      <trkpt lat="42.4500390" lon="-2.9876700">
        <ele>649.8</ele>
        <time>2020-04-02T17:28:45Z</time>
      </trkpt>
      <trkpt lat="42.4500560" lon="-2.9877680">
        <ele>650.4</ele>
        <time>2020-04-02T17:28:47Z</time>
      </trkpt>
      <trkpt lat="42.4500720" lon="-2.9878630">
        <ele>650.9</ele>
        <time>2020-04-02T17:28:49Z</time>
      </trkpt>
      <trkpt lat="42.4500890" lon="-2.9879580">
        <ele>651.4</ele>
        <time>2020-04-02T17:28:51Z</time>
      </trkpt>
      <trkpt lat="42.4501290" lon="-2.9882250">
        <ele>653.0</ele>
        <time>2020-04-02T17:28:53Z</time>
      </trkpt>
      <trkpt lat="42.4501400" lon="-2.9883320">
        <ele>653.6</ele>
        <time>2020-04-02T17:28:55Z</time>
      </trkpt>
      <trkpt lat="42.4501520" lon="-2.9884430">
        <ele>654.3</ele>
        <time>2020-04-02T17:28:57Z</time>
      </trkpt>
      <trkpt lat="42.4501640" lon="-2.9885560">
        <ele>654.7</ele>
        <time>2020-04-02T17:28:59Z</time>
      </trkpt>
      <trkpt lat="42.4501760" lon="-2.9886710">
        <ele>655.2</ele>
        <time>2020-04-02T17:29:01Z</time>
      </trkpt>
      <trkpt lat="42.4501880" lon="-2.9887860">
        <ele>655.7</ele>
        <time>2020-04-02T17:29:03Z</time>
      </trkpt>
      <trkpt lat="42.4502260" lon="-2.9891500">
        <ele>657.5</ele>
        <time>2020-04-02T17:29:05Z</time>
      </trkpt>
      <trkpt lat="42.4502390" lon="-2.9892670">
        <ele>657.9</ele>
        <time>2020-04-02T17:29:07Z</time>
      </trkpt>
      <trkpt lat="42.4502510" lon="-2.9893850">
        <ele>658.4</ele>
        <time>2020-04-02T17:29:09Z</time>
      </trkpt>
      <trkpt lat="42.4502630" lon="-2.9895030">
        <ele>659.0</ele>
        <time>2020-04-02T17:29:11Z</time>
      </trkpt>
      <trkpt lat="42.4502760" lon="-2.9896200">
        <ele>659.6</ele>
        <time>2020-04-02T17:29:13Z</time>
      </trkpt>
      <trkpt lat="42.4502880" lon="-2.9897390">
        <ele>660.1</ele>
        <time>2020-04-02T17:29:15Z</time>
      </trkpt>
      <trkpt lat="42.4503270" lon="-2.9901070">
        <ele>661.6</ele>
        <time>2020-04-02T17:29:17Z</time>
      </trkpt>
      <trkpt lat="42.4503400" lon="-2.9902290">
        <ele>661.9</ele>
        <time>2020-04-02T17:29:19Z</time>
      </trkpt>
      <trkpt lat="42.4503530" lon="-2.9903540">
        <ele>662.3</ele>
        <time>2020-04-02T17:29:21Z</time>
      </trkpt>
      <trkpt lat="42.4503660" lon="-2.9904820">
        <ele>662.6</ele>
        <time>2020-04-02T17:29:23Z</time>
      </trkpt>
      <trkpt lat="42.4503800" lon="-2.9906110">
        <ele>663.0</ele>
        <time>2020-04-02T17:29:25Z</time>
      </trkpt>
      <trkpt lat="42.4503940" lon="-2.9907400">
        <ele>663.4</ele>
        <time>2020-04-02T17:29:27Z</time>
      </trkpt>
      <trkpt lat="42.4504400" lon="-2.9911180">
        <ele>664.2</ele>
        <time>2020-04-02T17:29:29Z</time>
      </trkpt>
      <trkpt lat="42.4504600" lon="-2.9912480">
        <ele>664.5</ele>
        <time>2020-04-02T17:29:31Z</time>
      </trkpt>
      <trkpt lat="42.4504800" lon="-2.9913790">
        <ele>664.9</ele>
        <time>2020-04-02T17:29:33Z</time>
      </trkpt>
      <trkpt lat="42.4505270" lon="-2.9916800">
        <ele>665.3</ele>
        <time>2020-04-02T17:29:35Z</time>
      </trkpt>
      <trkpt lat="42.4505490" lon="-2.9918190">
        <ele>665.4</ele>
        <time>2020-04-02T17:29:37Z</time>
      </trkpt>
      <trkpt lat="42.4505710" lon="-2.9919670">
        <ele>665.4</ele>
        <time>2020-04-02T17:29:39Z</time>
      </trkpt>
      <trkpt lat="42.4506210" lon="-2.9922890">
        <ele>665.4</ele>
        <time>2020-04-02T17:29:41Z</time>
      </trkpt>
      <trkpt lat="42.4506400" lon="-2.9924490">
        <ele>665.4</ele>
        <time>2020-04-02T17:29:43Z</time>
      </trkpt>
      <trkpt lat="42.4506590" lon="-2.9926140">
        <ele>665.4</ele>
        <time>2020-04-02T17:29:45Z</time>
      </trkpt>
      <trkpt lat="42.4506790" lon="-2.9927800">
        <ele>665.4</ele>
        <time>2020-04-02T17:29:47Z</time>
      </trkpt>
      <trkpt lat="42.4507260" lon="-2.9931270">
        <ele>665.4</ele>
        <time>2020-04-02T17:29:49Z</time>
      </trkpt>
      <trkpt lat="42.4507530" lon="-2.9932980">
        <ele>665.4</ele>
        <time>2020-04-02T17:29:51Z</time>
      </trkpt>
      <trkpt lat="42.4507790" lon="-2.9934700">
        <ele>665.4</ele>
        <time>2020-04-02T17:29:53Z</time>
      </trkpt>
      <trkpt lat="42.4508060" lon="-2.9936420">
        <ele>665.4</ele>
        <time>2020-04-02T17:29:55Z</time>
      </trkpt>
      <trkpt lat="42.4508810" lon="-2.9941200">
        <ele>665.5</ele>
        <time>2020-04-02T17:29:57Z</time>
      </trkpt>
      <trkpt lat="42.4509080" lon="-2.9942970">
        <ele>665.5</ele>
        <time>2020-04-02T17:29:59Z</time>
      </trkpt>
      <trkpt lat="42.4509360" lon="-2.9944750">
        <ele>665.5</ele>
        <time>2020-04-02T17:30:01Z</time>
      </trkpt>
      <trkpt lat="42.4509640" lon="-2.9946540">
        <ele>665.5</ele>
        <time>2020-04-02T17:30:03Z</time>
      </trkpt>
      <trkpt lat="42.4509920" lon="-2.9948350">
        <ele>665.4</ele>
        <time>2020-04-02T17:30:05Z</time>
      </trkpt>
      <trkpt lat="42.4510670" lon="-2.9953190">
        <ele>664.9</ele>
        <time>2020-04-02T17:30:07Z</time>
      </trkpt>
      <trkpt lat="42.4510950" lon="-2.9955000">
        <ele>664.6</ele>
        <time>2020-04-02T17:30:09Z</time>
      </trkpt>
      <trkpt lat="42.4511240" lon="-2.9956830">
        <ele>664.5</ele>
        <time>2020-04-02T17:30:11Z</time>
      </trkpt>
      <trkpt lat="42.4511520" lon="-2.9958660">
        <ele>664.5</ele>
        <time>2020-04-02T17:30:13Z</time>
      </trkpt>
      <trkpt lat="42.4511810" lon="-2.9960500">
        <ele>664.6</ele>
        <time>2020-04-02T17:30:15Z</time>
      </trkpt>
      <trkpt lat="42.4512590" lon="-2.9965370">
        <ele>664.8</ele>
        <time>2020-04-02T17:30:17Z</time>
      </trkpt>
      <trkpt lat="42.4512930" lon="-2.9967260">
        <ele>664.6</ele>
        <time>2020-04-02T17:30:19Z</time>
      </trkpt>
      <trkpt lat="42.4513270" lon="-2.9969190">
        <ele>664.4</ele>
        <time>2020-04-02T17:30:21Z</time>
      </trkpt>
      <trkpt lat="42.4513610" lon="-2.9971140">
        <ele>663.9</ele>
        <time>2020-04-02T17:30:23Z</time>
      </trkpt>
      <trkpt lat="42.4514430" lon="-2.9975950">
        <ele>662.9</ele>
        <time>2020-04-02T17:30:25Z</time>
      </trkpt>
      <trkpt lat="42.4514710" lon="-2.9977980">
        <ele>662.5</ele>
        <time>2020-04-02T17:30:27Z</time>
      </trkpt>
      <trkpt lat="42.4514990" lon="-2.9980030">
        <ele>662.2</ele>
        <time>2020-04-02T17:30:29Z</time>
      </trkpt>
      <trkpt lat="42.4515270" lon="-2.9982100">
        <ele>661.9</ele>
        <time>2020-04-02T17:30:31Z</time>
      </trkpt>
      <trkpt lat="42.4515880" lon="-2.9986830">
        <ele>661.4</ele>
        <time>2020-04-02T17:30:33Z</time>
      </trkpt>
      <trkpt lat="42.4516100" lon="-2.9988830">
        <ele>661.3</ele>
        <time>2020-04-02T17:30:35Z</time>
      </trkpt>
      <trkpt lat="42.4516310" lon="-2.9990770">
        <ele>661.4</ele>
        <time>2020-04-02T17:30:37Z</time>
      </trkpt>
      <trkpt lat="42.4516790" lon="-2.9995090">
        <ele>661.6</ele>
        <time>2020-04-02T17:30:39Z</time>
      </trkpt>
      <trkpt lat="42.4517000" lon="-2.9997020">
        <ele>661.4</ele>
        <time>2020-04-02T17:30:41Z</time>
      </trkpt>
      <trkpt lat="42.4517220" lon="-2.9998950">
        <ele>661.3</ele>
        <time>2020-04-02T17:30:43Z</time>
      </trkpt>
      <trkpt lat="42.4517430" lon="-3.0000860">
        <ele>661.0</ele>
        <time>2020-04-02T17:30:45Z</time>
      </trkpt>
      <trkpt lat="42.4517900" lon="-3.0005170">
        <ele>660.4</ele>
        <time>2020-04-02T17:30:47Z</time>
      </trkpt>
      <trkpt lat="42.4518120" lon="-3.0007130">
        <ele>660.0</ele>
        <time>2020-04-02T17:30:49Z</time>
      </trkpt>
      <trkpt lat="42.4518330" lon="-3.0009090">
        <ele>659.6</ele>
        <time>2020-04-02T17:30:51Z</time>
      </trkpt>
      <trkpt lat="42.4518760" lon="-3.0013470">
        <ele>658.5</ele>
        <time>2020-04-02T17:30:53Z</time>
      </trkpt>
      <trkpt lat="42.4518880" lon="-3.0015500">
        <ele>658.3</ele>
        <time>2020-04-02T17:30:55Z</time>
      </trkpt>
      <trkpt lat="42.4518990" lon="-3.0017530">
        <ele>658.2</ele>
        <time>2020-04-02T17:30:57Z</time>
      </trkpt>
      <trkpt lat="42.4519110" lon="-3.0019570">
        <ele>658.2</ele>
        <time>2020-04-02T17:30:59Z</time>
      </trkpt>
      <trkpt lat="42.4519370" lon="-3.0024390">
        <ele>658.2</ele>
        <time>2020-04-02T17:31:01Z</time>
      </trkpt>
      <trkpt lat="42.4519470" lon="-3.0026390">
        <ele>658.2</ele>
        <time>2020-04-02T17:31:03Z</time>
      </trkpt>
      <trkpt lat="42.4519580" lon="-3.0028340">
        <ele>658.2</ele>
        <time>2020-04-02T17:31:05Z</time>
      </trkpt>
      <trkpt lat="42.4519790" lon="-3.0032480">
        <ele>658.3</ele>
        <time>2020-04-02T17:31:07Z</time>
      </trkpt>
      <trkpt lat="42.4519890" lon="-3.0034400">
        <ele>658.3</ele>
        <time>2020-04-02T17:31:09Z</time>
      </trkpt>
      <trkpt lat="42.4519990" lon="-3.0036300">
        <ele>658.3</ele>
        <time>2020-04-02T17:31:11Z</time>
      </trkpt>
      <trkpt lat="42.4520200" lon="-3.0040390">
        <ele>658.3</ele>
        <time>2020-04-02T17:31:13Z</time>
      </trkpt>
      <trkpt lat="42.4520290" lon="-3.0042250">
        <ele>658.3</ele>
        <time>2020-04-02T17:31:15Z</time>
      </trkpt>
      <trkpt lat="42.4520390" lon="-3.0044080">
        <ele>658.4</ele>
        <time>2020-04-02T17:31:17Z</time>
      </trkpt>
      <trkpt lat="42.4520480" lon="-3.0045860">
        <ele>658.4</ele>
        <time>2020-04-02T17:31:19Z</time>
      </trkpt>
      <trkpt lat="42.4521090" lon="-3.0050040">
        <ele>658.9</ele>
        <time>2020-04-02T17:31:21Z</time>
      </trkpt>
      <trkpt lat="42.4522710" lon="-3.0051070">
        <ele>659.4</ele>
        <time>2020-04-02T17:31:23Z</time>
      </trkpt>
      <trkpt lat="42.4522860" lon="-3.0052820">
        <ele>659.6</ele>
        <time>2020-04-02T17:31:25Z</time>
      </trkpt>
      <trkpt lat="42.4523010" lon="-3.0054560">
        <ele>659.8</ele>
        <time>2020-04-02T17:31:27Z</time>
      </trkpt>
      <trkpt lat="42.4522530" lon="-3.0057300">
        <ele>660.0</ele>
        <time>2020-04-02T17:31:29Z</time>
      </trkpt>
      <trkpt lat="42.4521100" lon="-3.0058880">
        <ele>659.5</ele>
        <time>2020-04-02T17:31:31Z</time>
      </trkpt>
      <trkpt lat="42.4520980" lon="-3.0061120">
        <ele>659.3</ele>
        <time>2020-04-02T17:31:33Z</time>
      </trkpt>
      <trkpt lat="42.4521170" lon="-3.0062870">
        <ele>659.3</ele>
        <time>2020-04-02T17:31:35Z</time>
      </trkpt>
      <trkpt lat="42.4521360" lon="-3.0064610">
        <ele>659.5</ele>
        <time>2020-04-02T17:31:37Z</time>
      </trkpt>
      <trkpt lat="42.4521550" lon="-3.0066360">
        <ele>659.8</ele>
        <time>2020-04-02T17:31:39Z</time>
      </trkpt>
      <trkpt lat="42.4521740" lon="-3.0068110">
        <ele>660.1</ele>
        <time>2020-04-02T17:31:41Z</time>
      </trkpt>
      <trkpt lat="42.4522240" lon="-3.0072700">
        <ele>660.7</ele>
        <time>2020-04-02T17:31:43Z</time>
      </trkpt>
      <trkpt lat="42.4522420" lon="-3.0074340">
        <ele>661.1</ele>
        <time>2020-04-02T17:31:45Z</time>
      </trkpt>
      <trkpt lat="42.4522600" lon="-3.0075920">
        <ele>661.5</ele>
        <time>2020-04-02T17:31:47Z</time>
      </trkpt>
      <trkpt lat="42.4522760" lon="-3.0077450">
        <ele>661.9</ele>
        <time>2020-04-02T17:31:49Z</time>
      </trkpt>
      <trkpt lat="42.4522930" lon="-3.0078930">
        <ele>662.3</ele>
        <time>2020-04-02T17:31:51Z</time>
      </trkpt>
      <trkpt lat="42.4523400" lon="-3.0083270">
        <ele>663.4</ele>
        <time>2020-04-02T17:31:53Z</time>
      </trkpt>
      <trkpt lat="42.4523560" lon="-3.0084710">
        <ele>663.7</ele>
        <time>2020-04-02T17:31:55Z</time>
      </trkpt>
      <trkpt lat="42.4523710" lon="-3.0086140">
        <ele>664.1</ele>
        <time>2020-04-02T17:31:57Z</time>
      </trkpt>
      <trkpt lat="42.4523870" lon="-3.0087540">
        <ele>664.5</ele>
        <time>2020-04-02T17:31:59Z</time>
      </trkpt>
      <trkpt lat="42.4524020" lon="-3.0088950">
        <ele>665.0</ele>
        <time>2020-04-02T17:32:01Z</time>
      </trkpt>
      <trkpt lat="42.4524170" lon="-3.0090360">
        <ele>665.5</ele>
        <time>2020-04-02T17:32:03Z</time>
      </trkpt>
      <trkpt lat="42.4524640" lon="-3.0094640">
        <ele>666.7</ele>
        <time>2020-04-02T17:32:05Z</time>
      </trkpt>
      <trkpt lat="42.4524800" lon="-3.0096080">
        <ele>667.0</ele>
        <time>2020-04-02T17:32:07Z</time>
      </trkpt>
      <trkpt lat="42.4524960" lon="-3.0097540">
        <ele>667.1</ele>
        <time>2020-04-02T17:32:09Z</time>
      </trkpt>
      <trkpt lat="42.4525120" lon="-3.0099040">
        <ele>667.2</ele>
        <time>2020-04-02T17:32:11Z</time>
      </trkpt>
      <trkpt lat="42.4525290" lon="-3.0100530">
        <ele>667.3</ele>
        <time>2020-04-02T17:32:13Z</time>
      </trkpt>
      <trkpt lat="42.4525770" lon="-3.0104940">
        <ele>668.2</ele>
        <time>2020-04-02T17:32:15Z</time>
      </trkpt>
      <trkpt lat="42.4525940" lon="-3.0106490">
        <ele>668.6</ele>
        <time>2020-04-02T17:32:17Z</time>
      </trkpt>
      <trkpt lat="42.4526110" lon="-3.0108030">
        <ele>668.9</ele>
        <time>2020-04-02T17:32:19Z</time>
      </trkpt>
      <trkpt lat="42.4526280" lon="-3.0109590">
        <ele>669.2</ele>
        <time>2020-04-02T17:32:21Z</time>
      </trkpt>
      <trkpt lat="42.4526450" lon="-3.0111150">
        <ele>669.5</ele>
        <time>2020-04-02T17:32:23Z</time>
      </trkpt>
      <trkpt lat="42.4526920" lon="-3.0115600">
        <ele>670.0</ele>
        <time>2020-04-02T17:32:25Z</time>
      </trkpt>
      <trkpt lat="42.4527050" lon="-3.0117180">
        <ele>670.1</ele>
        <time>2020-04-02T17:32:27Z</time>
      </trkpt>
      <trkpt lat="42.4527180" lon="-3.0118770">
        <ele>670.1</ele>
        <time>2020-04-02T17:32:29Z</time>
      </trkpt>
      <trkpt lat="42.4527310" lon="-3.0120360">
        <ele>670.3</ele>
        <time>2020-04-02T17:32:31Z</time>
      </trkpt>
      <trkpt lat="42.4527440" lon="-3.0121940">
        <ele>670.6</ele>
        <time>2020-04-02T17:32:33Z</time>
      </trkpt>
      <trkpt lat="42.4527800" lon="-3.0126330">
        <ele>671.0</ele>
        <time>2020-04-02T17:32:35Z</time>
      </trkpt>
      <trkpt lat="42.4527930" lon="-3.0127920">
        <ele>671.1</ele>
        <time>2020-04-02T17:32:37Z</time>
      </trkpt>
      <trkpt lat="42.4528070" lon="-3.0129510">
        <ele>671.3</ele>
        <time>2020-04-02T17:32:39Z</time>
      </trkpt>
      <trkpt lat="42.4528200" lon="-3.0131100">
        <ele>671.6</ele>
        <time>2020-04-02T17:32:41Z</time>
      </trkpt>
      <trkpt lat="42.4528320" lon="-3.0132690">
        <ele>671.9</ele>
        <time>2020-04-02T17:32:43Z</time>
      </trkpt>
      <trkpt lat="42.4528680" lon="-3.0137070">
        <ele>672.8</ele>
        <time>2020-04-02T17:32:45Z</time>
      </trkpt>
      <trkpt lat="42.4528810" lon="-3.0138650">
        <ele>673.0</ele>
        <time>2020-04-02T17:32:47Z</time>
      </trkpt>
      <trkpt lat="42.4528940" lon="-3.0140240">
        <ele>673.2</ele>
        <time>2020-04-02T17:32:49Z</time>
      </trkpt>
      <trkpt lat="42.4529080" lon="-3.0141840">
        <ele>673.6</ele>
        <time>2020-04-02T17:32:51Z</time>
      </trkpt>
      <trkpt lat="42.4529210" lon="-3.0143420">
        <ele>673.9</ele>
        <time>2020-04-02T17:32:53Z</time>
      </trkpt>
      <trkpt lat="42.4529560" lon="-3.0147810">
        <ele>674.7</ele>
        <time>2020-04-02T17:32:55Z</time>
      </trkpt>
      <trkpt lat="42.4529690" lon="-3.0149360">
        <ele>675.0</ele>
        <time>2020-04-02T17:32:57Z</time>
      </trkpt>
      <trkpt lat="42.4529810" lon="-3.0150850">
        <ele>675.4</ele>
        <time>2020-04-02T17:32:59Z</time>
      </trkpt>
      <trkpt lat="42.4529930" lon="-3.0152290">
        <ele>675.7</ele>
        <time>2020-04-02T17:33:01Z</time>
      </trkpt>
      <trkpt lat="42.4530050" lon="-3.0153730">
        <ele>675.9</ele>
        <time>2020-04-02T17:33:03Z</time>
      </trkpt>
      <trkpt lat="42.4530160" lon="-3.0155140">
        <ele>676.2</ele>
        <time>2020-04-02T17:33:05Z</time>
      </trkpt>
      <trkpt lat="42.4530470" lon="-3.0159320">
        <ele>677.3</ele>
        <time>2020-04-02T17:33:07Z</time>
      </trkpt>
      <trkpt lat="42.4530540" lon="-3.0160710">
        <ele>677.8</ele>
        <time>2020-04-02T17:33:09Z</time>
      </trkpt>
      <trkpt lat="42.4530460" lon="-3.0163090">
        <ele>679.2</ele>
        <time>2020-04-02T17:33:11Z</time>
      </trkpt>
      <trkpt lat="42.4530300" lon="-3.0164310">
        <ele>680.1</ele>
        <time>2020-04-02T17:33:13Z</time>
      </trkpt>
      <trkpt lat="42.4530140" lon="-3.0165470">
        <ele>681.0</ele>
        <time>2020-04-02T17:33:15Z</time>
      </trkpt>
      <trkpt lat="42.4530000" lon="-3.0166580">
        <ele>681.8</ele>
        <time>2020-04-02T17:33:17Z</time>
      </trkpt>
      <trkpt lat="42.4529600" lon="-3.0169630">
        <ele>684.0</ele>
        <time>2020-04-02T17:33:19Z</time>
      </trkpt>
      <trkpt lat="42.4529680" lon="-3.0170670">
        <ele>684.8</ele>
        <time>2020-04-02T17:33:21Z</time>
      </trkpt>
      <trkpt lat="42.4529760" lon="-3.0171700">
        <ele>685.5</ele>
        <time>2020-04-02T17:33:23Z</time>
      </trkpt>
      <trkpt lat="42.4529720" lon="-3.0173540">
        <ele>686.9</ele>
        <time>2020-04-02T17:33:25Z</time>
      </trkpt>
      <trkpt lat="42.4528770" lon="-3.0173910">
        <ele>686.7</ele>
        <time>2020-04-02T17:33:27Z</time>
      </trkpt>
      <trkpt lat="42.4528210" lon="-3.0174810">
        <ele>686.7</ele>
        <time>2020-04-02T17:33:29Z</time>
      </trkpt>
      <trkpt lat="42.4527370" lon="-3.0176520">
        <ele>686.6</ele>
        <time>2020-04-02T17:33:31Z</time>
      </trkpt>
      <trkpt lat="42.4526870" lon="-3.0178410">
        <ele>686.6</ele>
        <time>2020-04-02T17:33:33Z</time>
      </trkpt>
      <trkpt lat="42.4526600" lon="-3.0179940">
        <ele>686.5</ele>
        <time>2020-04-02T17:33:35Z</time>
      </trkpt>
      <trkpt lat="42.4526320" lon="-3.0181540">
        <ele>686.4</ele>
        <time>2020-04-02T17:33:37Z</time>
      </trkpt>
      <trkpt lat="42.4526030" lon="-3.0183200">
        <ele>686.3</ele>
        <time>2020-04-02T17:33:39Z</time>
      </trkpt>
      <trkpt lat="42.4525730" lon="-3.0184900">
        <ele>686.2</ele>
        <time>2020-04-02T17:33:41Z</time>
      </trkpt>
      <trkpt lat="42.4524890" lon="-3.0189660">
        <ele>686.4</ele>
        <time>2020-04-02T17:33:43Z</time>
      </trkpt>
      <trkpt lat="42.4524590" lon="-3.0191350">
        <ele>686.5</ele>
        <time>2020-04-02T17:33:45Z</time>
      </trkpt>
      <trkpt lat="42.4524300" lon="-3.0192960">
        <ele>686.7</ele>
        <time>2020-04-02T17:33:47Z</time>
      </trkpt>
      <trkpt lat="42.4524030" lon="-3.0194510">
        <ele>687.0</ele>
        <time>2020-04-02T17:33:49Z</time>
      </trkpt>
      <trkpt lat="42.4523760" lon="-3.0196020">
        <ele>687.3</ele>
        <time>2020-04-02T17:33:51Z</time>
      </trkpt>
      <trkpt lat="42.4523500" lon="-3.0197500">
        <ele>687.6</ele>
        <time>2020-04-02T17:33:53Z</time>
      </trkpt>
      <trkpt lat="42.4522710" lon="-3.0201970">
        <ele>689.0</ele>
        <time>2020-04-02T17:33:55Z</time>
      </trkpt>
      <trkpt lat="42.4522460" lon="-3.0203400">
        <ele>689.5</ele>
        <time>2020-04-02T17:33:57Z</time>
      </trkpt>
      <trkpt lat="42.4522200" lon="-3.0204830">
        <ele>690.0</ele>
        <time>2020-04-02T17:33:59Z</time>
      </trkpt>
      <trkpt lat="42.4521950" lon="-3.0206230">
        <ele>690.5</ele>
        <time>2020-04-02T17:34:01Z</time>
      </trkpt>
      <trkpt lat="42.4521710" lon="-3.0207620">
        <ele>690.9</ele>
        <time>2020-04-02T17:34:03Z</time>
      </trkpt>
      <trkpt lat="42.4521460" lon="-3.0209010">
        <ele>691.5</ele>
        <time>2020-04-02T17:34:05Z</time>
      </trkpt>
      <trkpt lat="42.4520700" lon="-3.0213350">
        <ele>693.2</ele>
        <time>2020-04-02T17:34:07Z</time>
      </trkpt>
      <trkpt lat="42.4520480" lon="-3.0214560">
        <ele>693.8</ele>
        <time>2020-04-02T17:34:09Z</time>
      </trkpt>
      <trkpt lat="42.4520290" lon="-3.0215670">
        <ele>694.4</ele>
        <time>2020-04-02T17:34:11Z</time>
      </trkpt>
      <trkpt lat="42.4520100" lon="-3.0216710">
        <ele>694.9</ele>
        <time>2020-04-02T17:34:13Z</time>
      </trkpt>
      <trkpt lat="42.4519930" lon="-3.0217710">
        <ele>695.4</ele>
        <time>2020-04-02T17:34:15Z</time>
      </trkpt>
      <trkpt lat="42.4519760" lon="-3.0218660">
        <ele>695.8</ele>
        <time>2020-04-02T17:34:17Z</time>
      </trkpt>
      <trkpt lat="42.4519590" lon="-3.0219610">
        <ele>696.3</ele>
        <time>2020-04-02T17:34:19Z</time>
      </trkpt>
      <trkpt lat="42.4519430" lon="-3.0220530">
        <ele>696.8</ele>
        <time>2020-04-02T17:34:21Z</time>
      </trkpt>
      <trkpt lat="42.4518730" lon="-3.0224450">
        <ele>699.0</ele>
        <time>2020-04-02T17:34:23Z</time>
      </trkpt>
      <trkpt lat="42.4518580" lon="-3.0225350">
        <ele>699.6</ele>
        <time>2020-04-02T17:34:25Z</time>
      </trkpt>
      <trkpt lat="42.4518410" lon="-3.0226260">
        <ele>700.2</ele>
        <time>2020-04-02T17:34:27Z</time>
      </trkpt>
      <trkpt lat="42.4518250" lon="-3.0227160">
        <ele>700.9</ele>
        <time>2020-04-02T17:34:29Z</time>
      </trkpt>
      <trkpt lat="42.4518100" lon="-3.0228050">
        <ele>701.7</ele>
        <time>2020-04-02T17:34:31Z</time>
      </trkpt>
      <trkpt lat="42.4517940" lon="-3.0228950">
        <ele>702.4</ele>
        <time>2020-04-02T17:34:33Z</time>
      </trkpt>
      <trkpt lat="42.4517780" lon="-3.0229860">
        <ele>703.2</ele>
        <time>2020-04-02T17:34:35Z</time>
      </trkpt>
      <trkpt lat="42.4517620" lon="-3.0230770">
        <ele>704.0</ele>
        <time>2020-04-02T17:34:37Z</time>
      </trkpt>
      <trkpt lat="42.4517460" lon="-3.0231670">
        <ele>704.7</ele>
        <time>2020-04-02T17:34:39Z</time>
      </trkpt>
      <trkpt lat="42.4516770" lon="-3.0235560">
        <ele>707.8</ele>
        <time>2020-04-02T17:34:41Z</time>
      </trkpt>
      <trkpt lat="42.4516620" lon="-3.0236380">
        <ele>708.5</ele>
        <time>2020-04-02T17:34:43Z</time>
      </trkpt>
      <trkpt lat="42.4516490" lon="-3.0237160">
        <ele>709.1</ele>
        <time>2020-04-02T17:34:45Z</time>
      </trkpt>
      <trkpt lat="42.4516350" lon="-3.0237920">
        <ele>709.7</ele>
        <time>2020-04-02T17:34:47Z</time>
      </trkpt>
      <trkpt lat="42.4516220" lon="-3.0238670">
        <ele>710.3</ele>
        <time>2020-04-02T17:34:49Z</time>
      </trkpt>
      <trkpt lat="42.4516090" lon="-3.0239410">
        <ele>710.8</ele>
        <time>2020-04-02T17:34:51Z</time>
      </trkpt>
      <trkpt lat="42.4515960" lon="-3.0240130">
        <ele>711.4</ele>
        <time>2020-04-02T17:34:53Z</time>
      </trkpt>
      <trkpt lat="42.4515830" lon="-3.0240860">
        <ele>712.1</ele>
        <time>2020-04-02T17:34:55Z</time>
      </trkpt>
      <trkpt lat="42.4515700" lon="-3.0241590">
        <ele>712.7</ele>
        <time>2020-04-02T17:34:57Z</time>
      </trkpt>
      <trkpt lat="42.4515580" lon="-3.0242310">
        <ele>713.4</ele>
        <time>2020-04-02T17:34:59Z</time>
      </trkpt>
      <trkpt lat="42.4515450" lon="-3.0243030">
        <ele>714.2</ele>
        <time>2020-04-02T17:35:01Z</time>
      </trkpt>
      <trkpt lat="42.4514790" lon="-3.0246760">
        <ele>718.5</ele>
        <time>2020-04-02T17:35:03Z</time>
      </trkpt>
      <trkpt lat="42.4514710" lon="-3.0247500">
        <ele>718.8</ele>
        <time>2020-04-02T17:35:05Z</time>
      </trkpt>
      <trkpt lat="42.4514380" lon="-3.0248400">
        <ele>719.2</ele>
        <time>2020-04-02T17:35:07Z</time>
      </trkpt>
      <trkpt lat="42.4513500" lon="-3.0248560">
        <ele>719.8</ele>
        <time>2020-04-02T17:35:09Z</time>
      </trkpt>
      <trkpt lat="42.4513300" lon="-3.0249790">
        <ele>720.3</ele>
        <time>2020-04-02T17:35:11Z</time>
      </trkpt>
      <trkpt lat="42.4512900" lon="-3.0250770">
        <ele>720.7</ele>
        <time>2020-04-02T17:35:13Z</time>
      </trkpt>
      <trkpt lat="42.4512490" lon="-3.0251760">
        <ele>721.2</ele>
        <time>2020-04-02T17:35:15Z</time>
      </trkpt>
      <trkpt lat="42.4512070" lon="-3.0252780">
        <ele>721.7</ele>
        <time>2020-04-02T17:35:17Z</time>
      </trkpt>
      <trkpt lat="42.4511650" lon="-3.0253810">
        <ele>722.3</ele>
        <time>2020-04-02T17:35:19Z</time>
      </trkpt>
      <trkpt lat="42.4511230" lon="-3.0254850">
        <ele>722.9</ele>
        <time>2020-04-02T17:35:21Z</time>
      </trkpt>
      <trkpt lat="42.4510790" lon="-3.0255900">
        <ele>723.5</ele>
        <time>2020-04-02T17:35:23Z</time>
      </trkpt>
      <trkpt lat="42.4509300" lon="-3.0259590">
        <ele>725.2</ele>
        <time>2020-04-02T17:35:25Z</time>
      </trkpt>
      <trkpt lat="42.4508900" lon="-3.0260760">
        <ele>725.7</ele>
        <time>2020-04-02T17:35:27Z</time>
      </trkpt>
      <trkpt lat="42.4508480" lon="-3.0262000">
        <ele>726.2</ele>
        <time>2020-04-02T17:35:29Z</time>
      </trkpt>
      <trkpt lat="42.4507610" lon="-3.0264350">
        <ele>727.1</ele>
        <time>2020-04-02T17:35:31Z</time>
      </trkpt>
      <trkpt lat="42.4507080" lon="-3.0265650">
        <ele>727.4</ele>
        <time>2020-04-02T17:35:33Z</time>
      </trkpt>
      <trkpt lat="42.4506540" lon="-3.0266980">
        <ele>727.7</ele>
        <time>2020-04-02T17:35:35Z</time>
      </trkpt>
      <trkpt lat="42.4505360" lon="-3.0269890">
        <ele>727.8</ele>
        <time>2020-04-02T17:35:37Z</time>
      </trkpt>
      <trkpt lat="42.4504790" lon="-3.0271270">
        <ele>728.2</ele>
        <time>2020-04-02T17:35:39Z</time>
      </trkpt>
      <trkpt lat="42.4504220" lon="-3.0272660">
        <ele>728.2</ele>
        <time>2020-04-02T17:35:41Z</time>
      </trkpt>
      <trkpt lat="42.4503640" lon="-3.0274050">
        <ele>728.2</ele>
        <time>2020-04-02T17:35:43Z</time>
      </trkpt>
      <trkpt lat="42.4503060" lon="-3.0275460">
        <ele>728.2</ele>
        <time>2020-04-02T17:35:45Z</time>
      </trkpt>
      <trkpt lat="42.4501510" lon="-3.0279210">
        <ele>728.6</ele>
        <time>2020-04-02T17:35:47Z</time>
      </trkpt>
      <trkpt lat="42.4500910" lon="-3.0280660">
        <ele>729.1</ele>
        <time>2020-04-02T17:35:49Z</time>
      </trkpt>
      <trkpt lat="42.4500310" lon="-3.0282130">
        <ele>729.7</ele>
        <time>2020-04-02T17:35:51Z</time>
      </trkpt>
      <trkpt lat="42.4499690" lon="-3.0283630">
        <ele>730.3</ele>
        <time>2020-04-02T17:35:53Z</time>
      </trkpt>
      <trkpt lat="42.4498100" lon="-3.0287450">
        <ele>731.1</ele>
        <time>2020-04-02T17:35:55Z</time>
      </trkpt>
      <trkpt lat="42.4497430" lon="-3.0288930">
        <ele>730.5</ele>
        <time>2020-04-02T17:35:57Z</time>
      </trkpt>
      <trkpt lat="42.4496750" lon="-3.0290430">
        <ele>730.1</ele>
        <time>2020-04-02T17:35:59Z</time>
      </trkpt>
      <trkpt lat="42.4496070" lon="-3.0291940">
        <ele>729.9</ele>
        <time>2020-04-02T17:36:01Z</time>
      </trkpt>
      <trkpt lat="42.4494520" lon="-3.0295350">
        <ele>729.8</ele>
        <time>2020-04-02T17:36:03Z</time>
      </trkpt>
      <trkpt lat="42.4493880" lon="-3.0296780">
        <ele>729.6</ele>
        <time>2020-04-02T17:36:05Z</time>
      </trkpt>
      <trkpt lat="42.4493250" lon="-3.0298170">
        <ele>728.7</ele>
        <time>2020-04-02T17:36:07Z</time>
      </trkpt>
      <trkpt lat="42.4492630" lon="-3.0299530">
        <ele>727.9</ele>
        <time>2020-04-02T17:36:09Z</time>
      </trkpt>
      <trkpt lat="42.4490930" lon="-3.0300710">
        <ele>728.4</ele>
        <time>2020-04-02T17:36:11Z</time>
      </trkpt>
      <trkpt lat="42.4490080" lon="-3.0299710">
        <ele>730.3</ele>
        <time>2020-04-02T17:36:13Z</time>
      </trkpt>
      <trkpt lat="42.4488430" lon="-3.0298250">
        <ele>733.5</ele>
        <time>2020-04-02T17:36:15Z</time>
      </trkpt>
      <trkpt lat="42.4488400" lon="-3.0300290">
        <ele>733.0</ele>
        <time>2020-04-02T17:36:17Z</time>
      </trkpt>
      <trkpt lat="42.4489300" lon="-3.0302020">
        <ele>731.7</ele>
        <time>2020-04-02T17:36:19Z</time>
      </trkpt>
      <trkpt lat="42.4489830" lon="-3.0305580">
        <ele>727.4</ele>
        <time>2020-04-02T17:36:21Z</time>
      </trkpt>
      <trkpt lat="42.4489460" lon="-3.0308140">
        <ele>724.6</ele>
        <time>2020-04-02T17:36:23Z</time>
      </trkpt>
      <trkpt lat="42.4488560" lon="-3.0312270">
        <ele>719.5</ele>
        <time>2020-04-02T17:36:25Z</time>
      </trkpt>
      <trkpt lat="42.4487740" lon="-3.0315280">
        <ele>715.5</ele>
        <time>2020-04-02T17:36:27Z</time>
      </trkpt>
      <trkpt lat="42.4486500" lon="-3.0320550">
        <ele>707.5</ele>
        <time>2020-04-02T17:36:29Z</time>
      </trkpt>
      <trkpt lat="42.4485910" lon="-3.0325420">
        <ele>700.1</ele>
        <time>2020-04-02T17:36:31Z</time>
      </trkpt>
      <trkpt lat="42.4486060" lon="-3.0330660">
        <ele>693.4</ele>
        <time>2020-04-02T17:36:33Z</time>
      </trkpt>
      <trkpt lat="42.4488750" lon="-3.0329500">
        <ele>693.8</ele>
        <time>2020-04-02T17:36:35Z</time>
      </trkpt>
      <trkpt lat="42.4490530" lon="-3.0331190">
        <ele>693.3</ele>
        <time>2020-04-02T17:36:37Z</time>
      </trkpt>
      <trkpt lat="42.4491650" lon="-3.0333580">
        <ele>692.8</ele>
        <time>2020-04-02T17:36:39Z</time>
      </trkpt>
      <trkpt lat="42.4493720" lon="-3.0337980">
        <ele>691.1</ele>
        <time>2020-04-02T17:36:41Z</time>
      </trkpt>
      <trkpt lat="42.4494740" lon="-3.0340160">
        <ele>690.4</ele>
        <time>2020-04-02T17:36:43Z</time>
      </trkpt>
      <trkpt lat="42.4495750" lon="-3.0342300">
        <ele>689.6</ele>
        <time>2020-04-02T17:36:45Z</time>
      </trkpt>
      <trkpt lat="42.4497750" lon="-3.0346570">
        <ele>687.8</ele>
        <time>2020-04-02T17:36:47Z</time>
      </trkpt>
      <trkpt lat="42.4498690" lon="-3.0348550">
        <ele>687.1</ele>
        <time>2020-04-02T17:36:49Z</time>
      </trkpt>
      <trkpt lat="42.4499570" lon="-3.0350440">
        <ele>686.9</ele>
        <time>2020-04-02T17:36:51Z</time>
      </trkpt>
      <trkpt lat="42.4501440" lon="-3.0354420">
        <ele>686.7</ele>
        <time>2020-04-02T17:36:53Z</time>
      </trkpt>
      <trkpt lat="42.4502250" lon="-3.0356150">
        <ele>686.7</ele>
        <time>2020-04-02T17:36:55Z</time>
      </trkpt>
      <trkpt lat="42.4503050" lon="-3.0357850">
        <ele>686.8</ele>
        <time>2020-04-02T17:36:57Z</time>
      </trkpt>
      <trkpt lat="42.4503830" lon="-3.0359500">
        <ele>687.6</ele>
        <time>2020-04-02T17:36:59Z</time>
      </trkpt>
      <trkpt lat="42.4505600" lon="-3.0363280">
        <ele>689.1</ele>
        <time>2020-04-02T17:37:01Z</time>
      </trkpt>
      <trkpt lat="42.4506340" lon="-3.0364840">
        <ele>689.6</ele>
        <time>2020-04-02T17:37:03Z</time>
      </trkpt>
      <trkpt lat="42.4507040" lon="-3.0366350">
        <ele>690.1</ele>
        <time>2020-04-02T17:37:05Z</time>
      </trkpt>
      <trkpt lat="42.4507730" lon="-3.0367820">
        <ele>690.6</ele>
        <time>2020-04-02T17:37:07Z</time>
      </trkpt>
      <trkpt lat="42.4508120" lon="-3.0371090">
        <ele>691.5</ele>
        <time>2020-04-02T17:37:09Z</time>
      </trkpt>
      <trkpt lat="42.4507130" lon="-3.0372110">
        <ele>691.6</ele>
        <time>2020-04-02T17:37:11Z</time>
      </trkpt>
      <trkpt lat="42.4506150" lon="-3.0373110">
        <ele>691.7</ele>
        <time>2020-04-02T17:37:13Z</time>
      </trkpt>
      <trkpt lat="42.4505180" lon="-3.0374100">
        <ele>691.8</ele>
        <time>2020-04-02T17:37:15Z</time>
      </trkpt>
      <trkpt lat="42.4504230" lon="-3.0375080">
        <ele>692.0</ele>
        <time>2020-04-02T17:37:17Z</time>
      </trkpt>
      <trkpt lat="42.4501430" lon="-3.0377950">
        <ele>692.6</ele>
        <time>2020-04-02T17:37:19Z</time>
      </trkpt>
      <trkpt lat="42.4500520" lon="-3.0378880">
        <ele>692.9</ele>
        <time>2020-04-02T17:37:21Z</time>
      </trkpt>
      <trkpt lat="42.4499650" lon="-3.0379770">
        <ele>693.2</ele>
        <time>2020-04-02T17:37:23Z</time>
      </trkpt>
      <trkpt lat="42.4498810" lon="-3.0380630">
        <ele>693.5</ele>
        <time>2020-04-02T17:37:25Z</time>
      </trkpt>
      <trkpt lat="42.4497990" lon="-3.0381470">
        <ele>693.9</ele>
        <time>2020-04-02T17:37:27Z</time>
      </trkpt>
      <trkpt lat="42.4497190" lon="-3.0382290">
        <ele>694.2</ele>
        <time>2020-04-02T17:37:29Z</time>
      </trkpt>
      <trkpt lat="42.4494560" lon="-3.0384970">
        <ele>695.5</ele>
        <time>2020-04-02T17:37:31Z</time>
      </trkpt>
      <trkpt lat="42.4493780" lon="-3.0385770">
        <ele>696.1</ele>
        <time>2020-04-02T17:37:33Z</time>
      </trkpt>
      <trkpt lat="42.4493010" lon="-3.0386570">
        <ele>696.7</ele>
        <time>2020-04-02T17:37:35Z</time>
      </trkpt>
      <trkpt lat="42.4492240" lon="-3.0387360">
        <ele>697.4</ele>
        <time>2020-04-02T17:37:37Z</time>
      </trkpt>
      <trkpt lat="42.4491470" lon="-3.0388140">
        <ele>698.1</ele>
        <time>2020-04-02T17:37:39Z</time>
      </trkpt>
      <trkpt lat="42.4490720" lon="-3.0388910">
        <ele>698.8</ele>
        <time>2020-04-02T17:37:41Z</time>
      </trkpt>
      <trkpt lat="42.4489970" lon="-3.0389680">
        <ele>699.5</ele>
        <time>2020-04-02T17:37:43Z</time>
      </trkpt>
      <trkpt lat="42.4487480" lon="-3.0392460">
        <ele>701.2</ele>
        <time>2020-04-02T17:37:45Z</time>
      </trkpt>
      <trkpt lat="42.4486800" lon="-3.0393890">
        <ele>702.2</ele>
        <time>2020-04-02T17:37:47Z</time>
      </trkpt>
      <trkpt lat="42.4486520" lon="-3.0394980">
        <ele>702.8</ele>
        <time>2020-04-02T17:37:49Z</time>
      </trkpt>
      <trkpt lat="42.4486250" lon="-3.0396020">
        <ele>703.5</ele>
        <time>2020-04-02T17:37:51Z</time>
      </trkpt>
      <trkpt lat="42.4485980" lon="-3.0397030">
        <ele>704.1</ele>
        <time>2020-04-02T17:37:53Z</time>
      </trkpt>
      <trkpt lat="42.4485280" lon="-3.0399380">
        <ele>705.8</ele>
        <time>2020-04-02T17:37:55Z</time>
      </trkpt>
      <trkpt lat="42.4484870" lon="-3.0400270">
        <ele>706.4</ele>
        <time>2020-04-02T17:37:57Z</time>
      </trkpt>
      <trkpt lat="42.4484140" lon="-3.0401800">
        <ele>707.4</ele>
        <time>2020-04-02T17:37:59Z</time>
      </trkpt>
      <trkpt lat="42.4483710" lon="-3.0402650">
        <ele>707.9</ele>
        <time>2020-04-02T17:38:01Z</time>
      </trkpt>
      <trkpt lat="42.4483280" lon="-3.0403490">
        <ele>708.6</ele>
        <time>2020-04-02T17:38:03Z</time>
      </trkpt>
      <trkpt lat="42.4482850" lon="-3.0404320">
        <ele>709.2</ele>
        <time>2020-04-02T17:38:05Z</time>
      </trkpt>
      <trkpt lat="42.4481830" lon="-3.0406280">
        <ele>710.3</ele>
        <time>2020-04-02T17:38:07Z</time>
      </trkpt>
      <trkpt lat="42.4481360" lon="-3.0407150">
        <ele>711.0</ele>
        <time>2020-04-02T17:38:09Z</time>
      </trkpt>
      <trkpt lat="42.4480860" lon="-3.0408050">
        <ele>711.5</ele>
        <time>2020-04-02T17:38:11Z</time>
      </trkpt>
      <trkpt lat="42.4480360" lon="-3.0408960">
        <ele>711.9</ele>
        <time>2020-04-02T17:38:13Z</time>
      </trkpt>
      <trkpt lat="42.4479850" lon="-3.0409870">
        <ele>712.3</ele>
        <time>2020-04-02T17:38:15Z</time>
      </trkpt>
      <trkpt lat="42.4479350" lon="-3.0410800">
        <ele>712.7</ele>
        <time>2020-04-02T17:38:17Z</time>
      </trkpt>
      <trkpt lat="42.4477700" lon="-3.0413790">
        <ele>714.4</ele>
        <time>2020-04-02T17:38:19Z</time>
      </trkpt>
      <trkpt lat="42.4477190" lon="-3.0414710">
        <ele>714.9</ele>
        <time>2020-04-02T17:38:21Z</time>
      </trkpt>
      <trkpt lat="42.4476670" lon="-3.0415650">
        <ele>715.3</ele>
        <time>2020-04-02T17:38:23Z</time>
      </trkpt>
      <trkpt lat="42.4476160" lon="-3.0416590">
        <ele>715.8</ele>
        <time>2020-04-02T17:38:25Z</time>
      </trkpt>
      <trkpt lat="42.4475640" lon="-3.0417530">
        <ele>716.3</ele>
        <time>2020-04-02T17:38:27Z</time>
      </trkpt>
      <trkpt lat="42.4475130" lon="-3.0418460">
        <ele>716.9</ele>
        <time>2020-04-02T17:38:29Z</time>
      </trkpt>
      <trkpt lat="42.4474610" lon="-3.0419390">
        <ele>717.5</ele>
        <time>2020-04-02T17:38:31Z</time>
      </trkpt>
      <trkpt lat="42.4472960" lon="-3.0422380">
        <ele>719.8</ele>
        <time>2020-04-02T17:38:33Z</time>
      </trkpt>
      <trkpt lat="42.4472460" lon="-3.0423310">
        <ele>720.4</ele>
        <time>2020-04-02T17:38:35Z</time>
      </trkpt>
      <trkpt lat="42.4471940" lon="-3.0424240">
        <ele>721.0</ele>
        <time>2020-04-02T17:38:37Z</time>
      </trkpt>
      <trkpt lat="42.4471430" lon="-3.0425170">
        <ele>721.5</ele>
        <time>2020-04-02T17:38:39Z</time>
      </trkpt>
      <trkpt lat="42.4470920" lon="-3.0426090">
        <ele>722.0</ele>
        <time>2020-04-02T17:38:41Z</time>
      </trkpt>
      <trkpt lat="42.4470410" lon="-3.0427010">
        <ele>722.6</ele>
        <time>2020-04-02T17:38:43Z</time>
      </trkpt>
      <trkpt lat="42.4468710" lon="-3.0429960">
        <ele>724.3</ele>
        <time>2020-04-02T17:38:45Z</time>
      </trkpt>
      <trkpt lat="42.4468120" lon="-3.0430820">
        <ele>724.8</ele>
        <time>2020-04-02T17:38:47Z</time>
      </trkpt>
      <trkpt lat="42.4467540" lon="-3.0431670">
        <ele>725.5</ele>
        <time>2020-04-02T17:38:49Z</time>
      </trkpt>
      <trkpt lat="42.4466960" lon="-3.0432520">
        <ele>726.1</ele>
        <time>2020-04-02T17:38:51Z</time>
      </trkpt>
      <trkpt lat="42.4466380" lon="-3.0433380">
        <ele>726.6</ele>
        <time>2020-04-02T17:38:53Z</time>
      </trkpt>
      <trkpt lat="42.4465790" lon="-3.0434230">
        <ele>727.2</ele>
        <time>2020-04-02T17:38:55Z</time>
      </trkpt>
      <trkpt lat="42.4465210" lon="-3.0435080">
        <ele>727.8</ele>
        <time>2020-04-02T17:38:57Z</time>
      </trkpt>
      <trkpt lat="42.4463080" lon="-3.0438180">
        <ele>729.5</ele>
        <time>2020-04-02T17:38:59Z</time>
      </trkpt>
      <trkpt lat="42.4462460" lon="-3.0439100">
        <ele>729.9</ele>
        <time>2020-04-02T17:39:01Z</time>
      </trkpt>
      <trkpt lat="42.4461800" lon="-3.0440060">
        <ele>730.3</ele>
        <time>2020-04-02T17:39:03Z</time>
      </trkpt>
      <trkpt lat="42.4461130" lon="-3.0441040">
        <ele>730.6</ele>
        <time>2020-04-02T17:39:05Z</time>
      </trkpt>
      <trkpt lat="42.4460430" lon="-3.0442060">
        <ele>730.9</ele>
        <time>2020-04-02T17:39:07Z</time>
      </trkpt>
      <trkpt lat="42.4459720" lon="-3.0443100">
        <ele>731.3</ele>
        <time>2020-04-02T17:39:09Z</time>
      </trkpt>
      <trkpt lat="42.4459000" lon="-3.0444140">
        <ele>731.7</ele>
        <time>2020-04-02T17:39:11Z</time>
      </trkpt>
      <trkpt lat="42.4456740" lon="-3.0447450">
        <ele>732.6</ele>
        <time>2020-04-02T17:39:13Z</time>
      </trkpt>
      <trkpt lat="42.4456000" lon="-3.0448530">
        <ele>732.9</ele>
        <time>2020-04-02T17:39:15Z</time>
      </trkpt>
      <trkpt lat="42.4455260" lon="-3.0449610">
        <ele>733.3</ele>
        <time>2020-04-02T17:39:17Z</time>
      </trkpt>
      <trkpt lat="42.4454510" lon="-3.0450700">
        <ele>733.8</ele>
        <time>2020-04-02T17:39:19Z</time>
      </trkpt>
      <trkpt lat="42.4453760" lon="-3.0451790">
        <ele>734.2</ele>
        <time>2020-04-02T17:39:21Z</time>
      </trkpt>
      <trkpt lat="42.4451480" lon="-3.0455140">
        <ele>735.6</ele>
        <time>2020-04-02T17:39:23Z</time>
      </trkpt>
      <trkpt lat="42.4450820" lon="-3.0456390">
        <ele>736.2</ele>
        <time>2020-04-02T17:39:25Z</time>
      </trkpt>
      <trkpt lat="42.4450500" lon="-3.0458470">
        <ele>736.9</ele>
        <time>2020-04-02T17:39:27Z</time>
      </trkpt>
      <trkpt lat="42.4450090" lon="-3.0460560">
        <ele>737.6</ele>
        <time>2020-04-02T17:39:29Z</time>
      </trkpt>
      <trkpt lat="42.4449670" lon="-3.0462170">
        <ele>737.8</ele>
        <time>2020-04-02T17:39:31Z</time>
      </trkpt>
      <trkpt lat="42.4449240" lon="-3.0463800">
        <ele>737.8</ele>
        <time>2020-04-02T17:39:33Z</time>
      </trkpt>
      <trkpt lat="42.4448810" lon="-3.0465470">
        <ele>737.8</ele>
        <time>2020-04-02T17:39:35Z</time>
      </trkpt>
      <trkpt lat="42.4448360" lon="-3.0467150">
        <ele>737.7</ele>
        <time>2020-04-02T17:39:37Z</time>
      </trkpt>
      <trkpt lat="42.4447140" lon="-3.0471810">
        <ele>736.2</ele>
        <time>2020-04-02T17:39:39Z</time>
      </trkpt>
      <trkpt lat="42.4446650" lon="-3.0473680">
        <ele>734.9</ele>
        <time>2020-04-02T17:39:41Z</time>
      </trkpt>
      <trkpt lat="42.4446140" lon="-3.0475630">
        <ele>733.3</ele>
        <time>2020-04-02T17:39:43Z</time>
      </trkpt>
      <trkpt lat="42.4445610" lon="-3.0477660">
        <ele>731.8</ele>
        <time>2020-04-02T17:39:45Z</time>
      </trkpt>
      <trkpt lat="42.4444310" lon="-3.0482620">
        <ele>727.6</ele>
        <time>2020-04-02T17:39:47Z</time>
      </trkpt>
      <trkpt lat="42.4443750" lon="-3.0484750">
        <ele>727.1</ele>
        <time>2020-04-02T17:39:49Z</time>
      </trkpt>
      <trkpt lat="42.4443190" lon="-3.0486910">
        <ele>727.0</ele>
        <time>2020-04-02T17:39:51Z</time>
      </trkpt>
      <trkpt lat="42.4442610" lon="-3.0489090">
        <ele>727.5</ele>
        <time>2020-04-02T17:39:53Z</time>
      </trkpt>
      <trkpt lat="42.4441220" lon="-3.0494080">
        <ele>730.0</ele>
        <time>2020-04-02T17:39:55Z</time>
      </trkpt>
      <trkpt lat="42.4440240" lon="-3.0497050">
        <ele>731.5</ele>
        <time>2020-04-02T17:39:57Z</time>
      </trkpt>
      <trkpt lat="42.4439540" lon="-3.0498910">
        <ele>732.4</ele>
        <time>2020-04-02T17:39:59Z</time>
      </trkpt>
      <trkpt lat="42.4438470" lon="-3.0501930">
        <ele>732.9</ele>
        <time>2020-04-02T17:40:01Z</time>
      </trkpt>
      <trkpt lat="42.4437870" lon="-3.0503780">
        <ele>732.8</ele>
        <time>2020-04-02T17:40:03Z</time>
      </trkpt>
      <trkpt lat="42.4437270" lon="-3.0505630">
        <ele>732.5</ele>
        <time>2020-04-02T17:40:05Z</time>
      </trkpt>
      <trkpt lat="42.4436680" lon="-3.0507470">
        <ele>731.9</ele>
        <time>2020-04-02T17:40:07Z</time>
      </trkpt>
      <trkpt lat="42.4435200" lon="-3.0512020">
        <ele>729.4</ele>
        <time>2020-04-02T17:40:09Z</time>
      </trkpt>
      <trkpt lat="42.4434570" lon="-3.0513970">
        <ele>728.5</ele>
        <time>2020-04-02T17:40:11Z</time>
      </trkpt>
      <trkpt lat="42.4433920" lon="-3.0515980">
        <ele>727.7</ele>
        <time>2020-04-02T17:40:13Z</time>
      </trkpt>
      <trkpt lat="42.4433250" lon="-3.0518040">
        <ele>727.1</ele>
        <time>2020-04-02T17:40:15Z</time>
      </trkpt>
      <trkpt lat="42.4431470" lon="-3.0522710">
        <ele>725.3</ele>
        <time>2020-04-02T17:40:17Z</time>
      </trkpt>
      <trkpt lat="42.4430480" lon="-3.0524630">
        <ele>724.3</ele>
        <time>2020-04-02T17:40:19Z</time>
      </trkpt>
      <trkpt lat="42.4429460" lon="-3.0526590">
        <ele>723.5</ele>
        <time>2020-04-02T17:40:21Z</time>
      </trkpt>
      <trkpt lat="42.4427210" lon="-3.0530840">
        <ele>722.3</ele>
        <time>2020-04-02T17:40:23Z</time>
      </trkpt>
      <trkpt lat="42.4426120" lon="-3.0532620">
        <ele>721.9</ele>
        <time>2020-04-02T17:40:25Z</time>
      </trkpt>
      <trkpt lat="42.4424320" lon="-3.0535430">
        <ele>721.3</ele>
        <time>2020-04-02T17:40:27Z</time>
      </trkpt>
      <trkpt lat="42.4423220" lon="-3.0537000">
        <ele>721.0</ele>
        <time>2020-04-02T17:40:29Z</time>
      </trkpt>
      <trkpt lat="42.4422130" lon="-3.0538540">
        <ele>720.8</ele>
        <time>2020-04-02T17:40:31Z</time>
      </trkpt>
      <trkpt lat="42.4421050" lon="-3.0540100">
        <ele>720.6</ele>
        <time>2020-04-02T17:40:33Z</time>
      </trkpt>
      <trkpt lat="42.4418420" lon="-3.0543980">
        <ele>720.6</ele>
        <time>2020-04-02T17:40:35Z</time>
      </trkpt>
      <trkpt lat="42.4417510" lon="-3.0545600">
        <ele>720.9</ele>
        <time>2020-04-02T17:40:37Z</time>
      </trkpt>
      <trkpt lat="42.4416620" lon="-3.0547180">
        <ele>721.1</ele>
        <time>2020-04-02T17:40:39Z</time>
      </trkpt>
      <trkpt lat="42.4415760" lon="-3.0548720">
        <ele>721.3</ele>
        <time>2020-04-02T17:40:41Z</time>
      </trkpt>
      <trkpt lat="42.4414910" lon="-3.0550230">
        <ele>721.6</ele>
        <time>2020-04-02T17:40:43Z</time>
      </trkpt>
      <trkpt lat="42.4412700" lon="-3.0554170">
        <ele>723.1</ele>
        <time>2020-04-02T17:40:45Z</time>
      </trkpt>
      <trkpt lat="42.4411880" lon="-3.0555630">
        <ele>723.2</ele>
        <time>2020-04-02T17:40:47Z</time>
      </trkpt>
      <trkpt lat="42.4411070" lon="-3.0557080">
        <ele>723.2</ele>
        <time>2020-04-02T17:40:49Z</time>
      </trkpt>
      <trkpt lat="42.4410270" lon="-3.0558510">
        <ele>723.2</ele>
        <time>2020-04-02T17:40:51Z</time>
      </trkpt>
      <trkpt lat="42.4408090" lon="-3.0562410">
        <ele>723.2</ele>
        <time>2020-04-02T17:40:53Z</time>
      </trkpt>
      <trkpt lat="42.4407320" lon="-3.0563830">
        <ele>723.4</ele>
        <time>2020-04-02T17:40:55Z</time>
      </trkpt>
      <trkpt lat="42.4406570" lon="-3.0565210">
        <ele>723.8</ele>
        <time>2020-04-02T17:40:57Z</time>
      </trkpt>
      <trkpt lat="42.4405830" lon="-3.0566570">
        <ele>724.1</ele>
        <time>2020-04-02T17:40:59Z</time>
      </trkpt>
      <trkpt lat="42.4405100" lon="-3.0567910">
        <ele>724.4</ele>
        <time>2020-04-02T17:41:01Z</time>
      </trkpt>
      <trkpt lat="42.4403190" lon="-3.0571450">
        <ele>725.2</ele>
        <time>2020-04-02T17:41:03Z</time>
      </trkpt>
      <trkpt lat="42.4402470" lon="-3.0572770">
        <ele>725.4</ele>
        <time>2020-04-02T17:41:05Z</time>
      </trkpt>
      <trkpt lat="42.4401760" lon="-3.0574080">
        <ele>725.6</ele>
        <time>2020-04-02T17:41:07Z</time>
      </trkpt>
      <trkpt lat="42.4401050" lon="-3.0575390">
        <ele>725.9</ele>
        <time>2020-04-02T17:41:09Z</time>
      </trkpt>
      <trkpt lat="42.4400350" lon="-3.0576700">
        <ele>726.2</ele>
        <time>2020-04-02T17:41:11Z</time>
      </trkpt>
      <trkpt lat="42.4398510" lon="-3.0580260">
        <ele>727.2</ele>
        <time>2020-04-02T17:41:13Z</time>
      </trkpt>
      <trkpt lat="42.4397860" lon="-3.0581660">
        <ele>727.6</ele>
        <time>2020-04-02T17:41:15Z</time>
      </trkpt>
      <trkpt lat="42.4397200" lon="-3.0583060">
        <ele>728.0</ele>
        <time>2020-04-02T17:41:17Z</time>
      </trkpt>
      <trkpt lat="42.4396550" lon="-3.0584460">
        <ele>728.2</ele>
        <time>2020-04-02T17:41:19Z</time>
      </trkpt>
      <trkpt lat="42.4394840" lon="-3.0588110">
        <ele>728.7</ele>
        <time>2020-04-02T17:41:21Z</time>
      </trkpt>
      <trkpt lat="42.4394190" lon="-3.0589520">
        <ele>729.0</ele>
        <time>2020-04-02T17:41:23Z</time>
      </trkpt>
      <trkpt lat="42.4393530" lon="-3.0590920">
        <ele>729.2</ele>
        <time>2020-04-02T17:41:25Z</time>
      </trkpt>
      <trkpt lat="42.4392880" lon="-3.0592330">
        <ele>729.4</ele>
        <time>2020-04-02T17:41:27Z</time>
      </trkpt>
      <trkpt lat="42.4392220" lon="-3.0593740">
        <ele>729.6</ele>
        <time>2020-04-02T17:41:29Z</time>
      </trkpt>
      <trkpt lat="42.4390510" lon="-3.0597390">
        <ele>730.4</ele>
        <time>2020-04-02T17:41:31Z</time>
      </trkpt>
      <trkpt lat="42.4389880" lon="-3.0598750">
        <ele>730.5</ele>
        <time>2020-04-02T17:41:33Z</time>
      </trkpt>
      <trkpt lat="42.4389240" lon="-3.0600110">
        <ele>730.6</ele>
        <time>2020-04-02T17:41:35Z</time>
      </trkpt>
      <trkpt lat="42.4388620" lon="-3.0601450">
        <ele>730.9</ele>
        <time>2020-04-02T17:41:37Z</time>
      </trkpt>
      <trkpt lat="42.4386980" lon="-3.0605030">
        <ele>731.8</ele>
        <time>2020-04-02T17:41:39Z</time>
      </trkpt>
      <trkpt lat="42.4386470" lon="-3.0606420">
        <ele>732.1</ele>
        <time>2020-04-02T17:41:41Z</time>
      </trkpt>
      <trkpt lat="42.4385960" lon="-3.0607810">
        <ele>732.3</ele>
        <time>2020-04-02T17:41:43Z</time>
      </trkpt>
      <trkpt lat="42.4385450" lon="-3.0609190">
        <ele>732.6</ele>
        <time>2020-04-02T17:41:45Z</time>
      </trkpt>
      <trkpt lat="42.4384950" lon="-3.0610560">
        <ele>732.9</ele>
        <time>2020-04-02T17:41:47Z</time>
      </trkpt>
      <trkpt lat="42.4384450" lon="-3.0611930">
        <ele>733.5</ele>
        <time>2020-04-02T17:41:49Z</time>
      </trkpt>
      <trkpt lat="42.4382920" lon="-3.0615930">
        <ele>735.5</ele>
        <time>2020-04-02T17:41:51Z</time>
      </trkpt>
      <trkpt lat="42.4382040" lon="-3.0618080">
        <ele>736.1</ele>
        <time>2020-04-02T17:41:53Z</time>
      </trkpt>
      <trkpt lat="42.4381520" lon="-3.0619590">
        <ele>736.2</ele>
        <time>2020-04-02T17:41:55Z</time>
      </trkpt>
      <trkpt lat="42.4380650" lon="-3.0622350">
        <ele>735.9</ele>
        <time>2020-04-02T17:41:57Z</time>
      </trkpt>
      <trkpt lat="42.4381730" lon="-3.0623310">
        <ele>736.1</ele>
        <time>2020-04-02T17:41:59Z</time>
      </trkpt>
      <trkpt lat="42.4382810" lon="-3.0624280">
        <ele>736.3</ele>
        <time>2020-04-02T17:42:01Z</time>
      </trkpt>
      <trkpt lat="42.4383920" lon="-3.0625270">
        <ele>736.3</ele>
        <time>2020-04-02T17:42:03Z</time>
      </trkpt>
      <trkpt lat="42.4385030" lon="-3.0626260">
        <ele>736.4</ele>
        <time>2020-04-02T17:42:05Z</time>
      </trkpt>
      <trkpt lat="42.4387550" lon="-3.0629170">
        <ele>736.4</ele>
        <time>2020-04-02T17:42:07Z</time>
      </trkpt>
      <trkpt lat="42.4388160" lon="-3.0631500">
        <ele>736.8</ele>
        <time>2020-04-02T17:42:09Z</time>
      </trkpt>
      <trkpt lat="42.4387880" lon="-3.0633770">
        <ele>737.4</ele>
        <time>2020-04-02T17:42:11Z</time>
      </trkpt>
      <trkpt lat="42.4387380" lon="-3.0635260">
        <ele>738.0</ele>
        <time>2020-04-02T17:42:13Z</time>
      </trkpt>
      <trkpt lat="42.4386890" lon="-3.0636720">
        <ele>738.5</ele>
        <time>2020-04-02T17:42:15Z</time>
      </trkpt>
      <trkpt lat="42.4386420" lon="-3.0638140">
        <ele>739.1</ele>
        <time>2020-04-02T17:42:17Z</time>
      </trkpt>
      <trkpt lat="42.4385950" lon="-3.0639550">
        <ele>739.7</ele>
        <time>2020-04-02T17:42:19Z</time>
      </trkpt>
      <trkpt lat="42.4384710" lon="-3.0643280">
        <ele>740.7</ele>
        <time>2020-04-02T17:42:21Z</time>
      </trkpt>
      <trkpt lat="42.4384230" lon="-3.0644720">
        <ele>741.1</ele>
        <time>2020-04-02T17:42:23Z</time>
      </trkpt>
      <trkpt lat="42.4383730" lon="-3.0646200">
        <ele>741.4</ele>
        <time>2020-04-02T17:42:25Z</time>
      </trkpt>
      <trkpt lat="42.4383230" lon="-3.0647700">
        <ele>741.8</ele>
        <time>2020-04-02T17:42:27Z</time>
      </trkpt>
      <trkpt lat="42.4381970" lon="-3.0651540">
        <ele>742.7</ele>
        <time>2020-04-02T17:42:29Z</time>
      </trkpt>
      <trkpt lat="42.4381520" lon="-3.0653080">
        <ele>742.8</ele>
        <time>2020-04-02T17:42:31Z</time>
      </trkpt>
      <trkpt lat="42.4381050" lon="-3.0654650">
        <ele>743.0</ele>
        <time>2020-04-02T17:42:33Z</time>
      </trkpt>
      <trkpt lat="42.4380590" lon="-3.0656230">
        <ele>743.1</ele>
        <time>2020-04-02T17:42:35Z</time>
      </trkpt>
      <trkpt lat="42.4379540" lon="-3.0659810">
        <ele>743.2</ele>
        <time>2020-04-02T17:42:37Z</time>
      </trkpt>
      <trkpt lat="42.4379050" lon="-3.0661470">
        <ele>743.2</ele>
        <time>2020-04-02T17:42:39Z</time>
      </trkpt>
      <trkpt lat="42.4378550" lon="-3.0663160">
        <ele>743.3</ele>
        <time>2020-04-02T17:42:41Z</time>
      </trkpt>
      <trkpt lat="42.4377430" lon="-3.0666870">
        <ele>743.2</ele>
        <time>2020-04-02T17:42:43Z</time>
      </trkpt>
      <trkpt lat="42.4376830" lon="-3.0668550">
        <ele>743.1</ele>
        <time>2020-04-02T17:42:45Z</time>
      </trkpt>
      <trkpt lat="42.4376030" lon="-3.0671440">
        <ele>743.0</ele>
        <time>2020-04-02T17:42:47Z</time>
      </trkpt>
      <trkpt lat="42.4375870" lon="-3.0673390">
        <ele>742.8</ele>
        <time>2020-04-02T17:42:49Z</time>
      </trkpt>
      <trkpt lat="42.4375350" lon="-3.0676540">
        <ele>742.4</ele>
        <time>2020-04-02T17:42:51Z</time>
      </trkpt>
      <trkpt lat="42.4374780" lon="-3.0678410">
        <ele>742.1</ele>
        <time>2020-04-02T17:42:53Z</time>
      </trkpt>
      <trkpt lat="42.4374210" lon="-3.0680320">
        <ele>741.9</ele>
        <time>2020-04-02T17:42:55Z</time>
      </trkpt>
      <trkpt lat="42.4372850" lon="-3.0684190">
        <ele>741.6</ele>
        <time>2020-04-02T17:42:57Z</time>
      </trkpt>
      <trkpt lat="42.4372350" lon="-3.0686490">
        <ele>742.0</ele>
        <time>2020-04-02T17:42:59Z</time>
      </trkpt>
      <trkpt lat="42.4372090" lon="-3.0688400">
        <ele>742.3</ele>
        <time>2020-04-02T17:43:01Z</time>
      </trkpt>
      <trkpt lat="42.4371750" lon="-3.0691800">
        <ele>742.8</ele>
        <time>2020-04-02T17:43:03Z</time>
      </trkpt>
      <trkpt lat="42.4371690" lon="-3.0693660">
        <ele>743.0</ele>
        <time>2020-04-02T17:43:05Z</time>
      </trkpt>
      <trkpt lat="42.4371670" lon="-3.0696980">
        <ele>743.6</ele>
        <time>2020-04-02T17:43:07Z</time>
      </trkpt>
      <trkpt lat="42.4371810" lon="-3.0699220">
        <ele>744.5</ele>
        <time>2020-04-02T17:43:09Z</time>
      </trkpt>
      <trkpt lat="42.4371820" lon="-3.0700840">
        <ele>745.1</ele>
        <time>2020-04-02T17:43:11Z</time>
      </trkpt>
      <trkpt lat="42.4371820" lon="-3.0702390">
        <ele>745.7</ele>
        <time>2020-04-02T17:43:13Z</time>
      </trkpt>
      <trkpt lat="42.4371830" lon="-3.0703890">
        <ele>746.2</ele>
        <time>2020-04-02T17:43:15Z</time>
      </trkpt>
      <trkpt lat="42.4371840" lon="-3.0705340">
        <ele>746.8</ele>
        <time>2020-04-02T17:43:17Z</time>
      </trkpt>
      <trkpt lat="42.4371870" lon="-3.0709560">
        <ele>747.8</ele>
        <time>2020-04-02T17:43:19Z</time>
      </trkpt>
      <trkpt lat="42.4371880" lon="-3.0710940">
        <ele>748.1</ele>
        <time>2020-04-02T17:43:21Z</time>
      </trkpt>
      <trkpt lat="42.4371890" lon="-3.0712300">
        <ele>748.3</ele>
        <time>2020-04-02T17:43:23Z</time>
      </trkpt>
      <trkpt lat="42.4371900" lon="-3.0713640">
        <ele>748.7</ele>
        <time>2020-04-02T17:43:25Z</time>
      </trkpt>
      <trkpt lat="42.4371900" lon="-3.0714950">
        <ele>749.0</ele>
        <time>2020-04-02T17:43:27Z</time>
      </trkpt>
      <trkpt lat="42.4371910" lon="-3.0716260">
        <ele>749.5</ele>
        <time>2020-04-02T17:43:29Z</time>
      </trkpt>
      <trkpt lat="42.4371940" lon="-3.0720370">
        <ele>751.1</ele>
        <time>2020-04-02T17:43:31Z</time>
      </trkpt>
      <trkpt lat="42.4371950" lon="-3.0721680">
        <ele>751.6</ele>
        <time>2020-04-02T17:43:33Z</time>
      </trkpt>
      <trkpt lat="42.4371950" lon="-3.0722960">
        <ele>752.0</ele>
        <time>2020-04-02T17:43:35Z</time>
      </trkpt>
      <trkpt lat="42.4371960" lon="-3.0724260">
        <ele>752.5</ele>
        <time>2020-04-02T17:43:37Z</time>
      </trkpt>
      <trkpt lat="42.4371970" lon="-3.0725550">
        <ele>753.6</ele>
        <time>2020-04-02T17:43:39Z</time>
      </trkpt>
      <trkpt lat="42.4371980" lon="-3.0726840">
        <ele>754.7</ele>
        <time>2020-04-02T17:43:41Z</time>
      </trkpt>
      <trkpt lat="42.4372030" lon="-3.0730920">
        <ele>756.6</ele>
        <time>2020-04-02T17:43:43Z</time>
      </trkpt>
      <trkpt lat="42.4372110" lon="-3.0732290">
        <ele>757.0</ele>
        <time>2020-04-02T17:43:45Z</time>
      </trkpt>
      <trkpt lat="42.4372190" lon="-3.0733710">
        <ele>757.4</ele>
        <time>2020-04-02T17:43:47Z</time>
      </trkpt>
      <trkpt lat="42.4372280" lon="-3.0735180">
        <ele>757.8</ele>
        <time>2020-04-02T17:43:49Z</time>
      </trkpt>
      <trkpt lat="42.4372370" lon="-3.0736700">
        <ele>758.2</ele>
        <time>2020-04-02T17:43:51Z</time>
      </trkpt>
      <trkpt lat="42.4372460" lon="-3.0738240">
        <ele>758.7</ele>
        <time>2020-04-02T17:43:53Z</time>
      </trkpt>
      <trkpt lat="42.4372810" lon="-3.0742930">
        <ele>759.5</ele>
        <time>2020-04-02T17:43:55Z</time>
      </trkpt>
      <trkpt lat="42.4373130" lon="-3.0745000">
        <ele>759.7</ele>
        <time>2020-04-02T17:43:57Z</time>
      </trkpt>
      <trkpt lat="42.4373230" lon="-3.0746700">
        <ele>759.5</ele>
        <time>2020-04-02T17:43:59Z</time>
      </trkpt>
      <trkpt lat="42.4373330" lon="-3.0748520">
        <ele>759.0</ele>
        <time>2020-04-02T17:44:01Z</time>
      </trkpt>
      <trkpt lat="42.4373440" lon="-3.0750440">
        <ele>758.2</ele>
        <time>2020-04-02T17:44:03Z</time>
      </trkpt>
      <trkpt lat="42.4373700" lon="-3.0755100">
        <ele>755.8</ele>
        <time>2020-04-02T17:44:05Z</time>
      </trkpt>
      <trkpt lat="42.4373820" lon="-3.0757140">
        <ele>754.8</ele>
        <time>2020-04-02T17:44:07Z</time>
      </trkpt>
      <trkpt lat="42.4373930" lon="-3.0759220">
        <ele>754.2</ele>
        <time>2020-04-02T17:44:09Z</time>
      </trkpt>
      <trkpt lat="42.4374050" lon="-3.0761320">
        <ele>754.0</ele>
        <time>2020-04-02T17:44:11Z</time>
      </trkpt>
      <trkpt lat="42.4374330" lon="-3.0766160">
        <ele>754.4</ele>
        <time>2020-04-02T17:44:13Z</time>
      </trkpt>
      <trkpt lat="42.4374450" lon="-3.0768320">
        <ele>755.1</ele>
        <time>2020-04-02T17:44:15Z</time>
      </trkpt>
      <trkpt lat="42.4374570" lon="-3.0770500">
        <ele>755.9</ele>
        <time>2020-04-02T17:44:17Z</time>
      </trkpt>
      <trkpt lat="42.4374840" lon="-3.0775390">
        <ele>755.2</ele>
        <time>2020-04-02T17:44:19Z</time>
      </trkpt>
      <trkpt lat="42.4374960" lon="-3.0777520">
        <ele>754.7</ele>
        <time>2020-04-02T17:44:21Z</time>
      </trkpt>
      <trkpt lat="42.4375080" lon="-3.0779540">
        <ele>755.0</ele>
        <time>2020-04-02T17:44:23Z</time>
      </trkpt>
      <trkpt lat="42.4375190" lon="-3.0781450">
        <ele>755.5</ele>
        <time>2020-04-02T17:44:25Z</time>
      </trkpt>
      <trkpt lat="42.4375440" lon="-3.0786020">
        <ele>756.2</ele>
        <time>2020-04-02T17:44:27Z</time>
      </trkpt>
      <trkpt lat="42.4375550" lon="-3.0787840">
        <ele>756.5</ele>
        <time>2020-04-02T17:44:29Z</time>
      </trkpt>
      <trkpt lat="42.4375650" lon="-3.0789620">
        <ele>756.9</ele>
        <time>2020-04-02T17:44:31Z</time>
      </trkpt>
      <trkpt lat="42.4375740" lon="-3.0791370">
        <ele>757.2</ele>
        <time>2020-04-02T17:44:33Z</time>
      </trkpt>
      <trkpt lat="42.4375840" lon="-3.0793090">
        <ele>757.6</ele>
        <time>2020-04-02T17:44:35Z</time>
      </trkpt>
      <trkpt lat="42.4375240" lon="-3.0797080">
        <ele>758.5</ele>
        <time>2020-04-02T17:44:37Z</time>
      </trkpt>
      <trkpt lat="42.4373870" lon="-3.0798200">
        <ele>759.1</ele>
        <time>2020-04-02T17:44:39Z</time>
      </trkpt>
      <trkpt lat="42.4372830" lon="-3.0798820">
        <ele>759.4</ele>
        <time>2020-04-02T17:44:41Z</time>
      </trkpt>
      <trkpt lat="42.4370960" lon="-3.0800050">
        <ele>760.6</ele>
        <time>2020-04-02T17:44:43Z</time>
      </trkpt>
      <trkpt lat="42.4369910" lon="-3.0801580">
        <ele>761.5</ele>
        <time>2020-04-02T17:44:45Z</time>
      </trkpt>
      <trkpt lat="42.4370020" lon="-3.0803030">
        <ele>762.0</ele>
        <time>2020-04-02T17:44:47Z</time>
      </trkpt>
      <trkpt lat="42.4370120" lon="-3.0804450">
        <ele>762.3</ele>
        <time>2020-04-02T17:44:49Z</time>
      </trkpt>
      <trkpt lat="42.4370220" lon="-3.0805870">
        <ele>762.7</ele>
        <time>2020-04-02T17:44:51Z</time>
      </trkpt>
      <trkpt lat="42.4370480" lon="-3.0809100">
        <ele>764.3</ele>
        <time>2020-04-02T17:44:53Z</time>
      </trkpt>
      <trkpt lat="42.4370640" lon="-3.0810530">
        <ele>765.4</ele>
        <time>2020-04-02T17:44:55Z</time>
      </trkpt>
      <trkpt lat="42.4370810" lon="-3.0811970">
        <ele>766.5</ele>
        <time>2020-04-02T17:44:57Z</time>
      </trkpt>
      <trkpt lat="42.4371100" lon="-3.0815020">
        <ele>767.9</ele>
        <time>2020-04-02T17:44:59Z</time>
      </trkpt>
      <trkpt lat="42.4371020" lon="-3.0816950">
        <ele>768.2</ele>
        <time>2020-04-02T17:45:01Z</time>
      </trkpt>
      <trkpt lat="42.4370790" lon="-3.0819220">
        <ele>768.2</ele>
        <time>2020-04-02T17:45:03Z</time>
      </trkpt>
      <trkpt lat="42.4370520" lon="-3.0820690">
        <ele>768.4</ele>
        <time>2020-04-02T17:45:05Z</time>
      </trkpt>
      <trkpt lat="42.4370250" lon="-3.0822140">
        <ele>768.7</ele>
        <time>2020-04-02T17:45:07Z</time>
      </trkpt>
      <trkpt lat="42.4369970" lon="-3.0823620">
        <ele>768.9</ele>
        <time>2020-04-02T17:45:09Z</time>
      </trkpt>
      <trkpt lat="42.4369690" lon="-3.0825100">
        <ele>769.1</ele>
        <time>2020-04-02T17:45:11Z</time>
      </trkpt>
      <trkpt lat="42.4369020" lon="-3.0828710">
        <ele>769.6</ele>
        <time>2020-04-02T17:45:13Z</time>
      </trkpt>
      <trkpt lat="42.4368720" lon="-3.0830290">
        <ele>769.8</ele>
        <time>2020-04-02T17:45:15Z</time>
      </trkpt>
      <trkpt lat="42.4368410" lon="-3.0831920">
        <ele>770.2</ele>
        <time>2020-04-02T17:45:17Z</time>
      </trkpt>
      <trkpt lat="42.4367670" lon="-3.0835680">
        <ele>770.3</ele>
        <time>2020-04-02T17:45:19Z</time>
      </trkpt>
      <trkpt lat="42.4367250" lon="-3.0837310">
        <ele>770.4</ele>
        <time>2020-04-02T17:45:21Z</time>
      </trkpt>
      <trkpt lat="42.4366810" lon="-3.0838990">
        <ele>770.5</ele>
        <time>2020-04-02T17:45:23Z</time>
      </trkpt>
      <trkpt lat="42.4365980" lon="-3.0842420">
        <ele>770.5</ele>
        <time>2020-04-02T17:45:25Z</time>
      </trkpt>
      <trkpt lat="42.4365660" lon="-3.0844330">
        <ele>770.4</ele>
        <time>2020-04-02T17:45:27Z</time>
      </trkpt>
      <trkpt lat="42.4365340" lon="-3.0847340">
        <ele>770.0</ele>
        <time>2020-04-02T17:45:29Z</time>
      </trkpt>
      <trkpt lat="42.4364950" lon="-3.0850510">
        <ele>769.4</ele>
        <time>2020-04-02T17:45:31Z</time>
      </trkpt>
      <trkpt lat="42.4364390" lon="-3.0853960">
        <ele>768.2</ele>
        <time>2020-04-02T17:45:33Z</time>
      </trkpt>
      <trkpt lat="42.4364270" lon="-3.0856400">
        <ele>766.6</ele>
        <time>2020-04-02T17:45:35Z</time>
      </trkpt>
      <trkpt lat="42.4363920" lon="-3.0860070">
        <ele>764.4</ele>
        <time>2020-04-02T17:45:37Z</time>
      </trkpt>
      <trkpt lat="42.4363880" lon="-3.0864500">
        <ele>761.4</ele>
        <time>2020-04-02T17:45:39Z</time>
      </trkpt>
      <trkpt lat="42.4366240" lon="-3.0865740">
        <ele>757.4</ele>
        <time>2020-04-02T17:45:41Z</time>
      </trkpt>
      <trkpt lat="42.4364980" lon="-3.0868060">
        <ele>754.0</ele>
        <time>2020-04-02T17:45:43Z</time>
      </trkpt>
      <trkpt lat="42.4362850" lon="-3.0870620">
        <ele>752.2</ele>
        <time>2020-04-02T17:45:45Z</time>
      </trkpt>
      <trkpt lat="42.4361330" lon="-3.0872370">
        <ele>751.2</ele>
        <time>2020-04-02T17:45:47Z</time>
      </trkpt>
      <trkpt lat="42.4358940" lon="-3.0875440">
        <ele>750.3</ele>
        <time>2020-04-02T17:45:49Z</time>
      </trkpt>
      <trkpt lat="42.4357690" lon="-3.0877260">
        <ele>750.3</ele>
        <time>2020-04-02T17:45:51Z</time>
      </trkpt>
      <trkpt lat="42.4355710" lon="-3.0880320">
        <ele>750.4</ele>
        <time>2020-04-02T17:45:53Z</time>
      </trkpt>
      <trkpt lat="42.4354640" lon="-3.0882070">
        <ele>750.5</ele>
        <time>2020-04-02T17:45:55Z</time>
      </trkpt>
      <trkpt lat="42.4352570" lon="-3.0885540">
        <ele>750.6</ele>
        <time>2020-04-02T17:45:57Z</time>
      </trkpt>
      <trkpt lat="42.4352190" lon="-3.0887600">
        <ele>750.5</ele>
        <time>2020-04-02T17:45:59Z</time>
      </trkpt>
      <trkpt lat="42.4351830" lon="-3.0889580">
        <ele>750.5</ele>
        <time>2020-04-02T17:46:01Z</time>
      </trkpt>
      <trkpt lat="42.4351060" lon="-3.0893460">
        <ele>750.4</ele>
        <time>2020-04-02T17:46:03Z</time>
      </trkpt>
      <trkpt lat="42.4350500" lon="-3.0895210">
        <ele>750.6</ele>
        <time>2020-04-02T17:46:05Z</time>
      </trkpt>
      <trkpt lat="42.4349950" lon="-3.0896930">
        <ele>750.8</ele>
        <time>2020-04-02T17:46:07Z</time>
      </trkpt>
      <trkpt lat="42.4348970" lon="-3.0900220">
        <ele>751.5</ele>
        <time>2020-04-02T17:46:09Z</time>
      </trkpt>
      <trkpt lat="42.4348500" lon="-3.0901900">
        <ele>751.9</ele>
        <time>2020-04-02T17:46:11Z</time>
      </trkpt>
      <trkpt lat="42.4348040" lon="-3.0903580">
        <ele>752.4</ele>
        <time>2020-04-02T17:46:13Z</time>
      </trkpt>
      <trkpt lat="42.4347040" lon="-3.0907260">
        <ele>753.3</ele>
        <time>2020-04-02T17:46:15Z</time>
      </trkpt>
      <trkpt lat="42.4346600" lon="-3.0908870">
        <ele>753.6</ele>
        <time>2020-04-02T17:46:17Z</time>
      </trkpt>
      <trkpt lat="42.4346160" lon="-3.0910450">
        <ele>753.8</ele>
        <time>2020-04-02T17:46:19Z</time>
      </trkpt>
      <trkpt lat="42.4345740" lon="-3.0911990">
        <ele>754.1</ele>
        <time>2020-04-02T17:46:21Z</time>
      </trkpt>
      <trkpt lat="42.4344770" lon="-3.0915520">
        <ele>755.2</ele>
        <time>2020-04-02T17:46:23Z</time>
      </trkpt>
      <trkpt lat="42.4344370" lon="-3.0917010">
        <ele>755.9</ele>
        <time>2020-04-02T17:46:25Z</time>
      </trkpt>
      <trkpt lat="42.4343960" lon="-3.0918500">
        <ele>756.5</ele>
        <time>2020-04-02T17:46:27Z</time>
      </trkpt>
      <trkpt lat="42.4343550" lon="-3.0919980">
        <ele>756.8</ele>
        <time>2020-04-02T17:46:29Z</time>
      </trkpt>
      <trkpt lat="42.4342640" lon="-3.0923370">
        <ele>757.8</ele>
        <time>2020-04-02T17:46:31Z</time>
      </trkpt>
      <trkpt lat="42.4342330" lon="-3.0924580">
        <ele>758.3</ele>
        <time>2020-04-02T17:46:33Z</time>
      </trkpt>
      <trkpt lat="42.4342050" lon="-3.0925670">
        <ele>759.0</ele>
        <time>2020-04-02T17:46:35Z</time>
      </trkpt>
      <trkpt lat="42.4341790" lon="-3.0926660">
        <ele>759.6</ele>
        <time>2020-04-02T17:46:37Z</time>
      </trkpt>
      <trkpt lat="42.4341560" lon="-3.0927580">
        <ele>760.3</ele>
        <time>2020-04-02T17:46:39Z</time>
      </trkpt>
      <trkpt lat="42.4341330" lon="-3.0928480">
        <ele>761.2</ele>
        <time>2020-04-02T17:46:41Z</time>
      </trkpt>
      <trkpt lat="42.4340310" lon="-3.0931520">
        <ele>765.0</ele>
        <time>2020-04-02T17:46:43Z</time>
      </trkpt>
      <trkpt lat="42.4339880" lon="-3.0932200">
        <ele>766.1</ele>
        <time>2020-04-02T17:46:45Z</time>
      </trkpt>
      <trkpt lat="42.4339450" lon="-3.0932890">
        <ele>767.2</ele>
        <time>2020-04-02T17:46:47Z</time>
      </trkpt>
      <trkpt lat="42.4339020" lon="-3.0933580">
        <ele>768.1</ele>
        <time>2020-04-02T17:46:49Z</time>
      </trkpt>
      <trkpt lat="42.4337890" lon="-3.0935400">
        <ele>769.0</ele>
        <time>2020-04-02T17:46:51Z</time>
      </trkpt>
      <trkpt lat="42.4337410" lon="-3.0936270">
        <ele>769.4</ele>
        <time>2020-04-02T17:46:53Z</time>
      </trkpt>
      <trkpt lat="42.4336840" lon="-3.0937280">
        <ele>769.7</ele>
        <time>2020-04-02T17:46:55Z</time>
      </trkpt>
      <trkpt lat="42.4336220" lon="-3.0938400">
        <ele>769.8</ele>
        <time>2020-04-02T17:46:57Z</time>
      </trkpt>
      <trkpt lat="42.4335570" lon="-3.0939580">
        <ele>769.5</ele>
        <time>2020-04-02T17:46:59Z</time>
      </trkpt>
      <trkpt lat="42.4333790" lon="-3.0942620">
        <ele>768.6</ele>
        <time>2020-04-02T17:47:01Z</time>
      </trkpt>
      <trkpt lat="42.4332850" lon="-3.0943570">
        <ele>769.4</ele>
        <time>2020-04-02T17:47:03Z</time>
      </trkpt>
      <trkpt lat="42.4331880" lon="-3.0944550">
        <ele>769.9</ele>
        <time>2020-04-02T17:47:05Z</time>
      </trkpt>
      <trkpt lat="42.4330910" lon="-3.0945540">
        <ele>770.3</ele>
        <time>2020-04-02T17:47:07Z</time>
      </trkpt>
      <trkpt lat="42.4329910" lon="-3.0946560">
        <ele>770.7</ele>
        <time>2020-04-02T17:47:09Z</time>
      </trkpt>
      <trkpt lat="42.4327340" lon="-3.0949060">
        <ele>771.6</ele>
        <time>2020-04-02T17:47:11Z</time>
      </trkpt>
      <trkpt lat="42.4326360" lon="-3.0949910">
        <ele>772.1</ele>
        <time>2020-04-02T17:47:13Z</time>
      </trkpt>
      <trkpt lat="42.4325440" lon="-3.0950720">
        <ele>772.5</ele>
        <time>2020-04-02T17:47:15Z</time>
      </trkpt>
      <trkpt lat="42.4324550" lon="-3.0951500">
        <ele>772.9</ele>
        <time>2020-04-02T17:47:17Z</time>
      </trkpt>
      <trkpt lat="42.4322260" lon="-3.0953490">
        <ele>774.2</ele>
        <time>2020-04-02T17:47:19Z</time>
      </trkpt>
      <trkpt lat="42.4321420" lon="-3.0954220">
        <ele>774.9</ele>
        <time>2020-04-02T17:47:21Z</time>
      </trkpt>
      <trkpt lat="42.4320590" lon="-3.0954950">
        <ele>775.7</ele>
        <time>2020-04-02T17:47:23Z</time>
      </trkpt>
      <trkpt lat="42.4319770" lon="-3.0955660">
        <ele>776.4</ele>
        <time>2020-04-02T17:47:25Z</time>
      </trkpt>
      <trkpt lat="42.4318960" lon="-3.0956360">
        <ele>777.1</ele>
        <time>2020-04-02T17:47:27Z</time>
      </trkpt>
      <trkpt lat="42.4316770" lon="-3.0958400">
        <ele>778.8</ele>
        <time>2020-04-02T17:47:29Z</time>
      </trkpt>
      <trkpt lat="42.4316010" lon="-3.0959290">
        <ele>779.4</ele>
        <time>2020-04-02T17:47:31Z</time>
      </trkpt>
      <trkpt lat="42.4314580" lon="-3.0960990">
        <ele>780.5</ele>
        <time>2020-04-02T17:47:33Z</time>
      </trkpt>
      <trkpt lat="42.4313910" lon="-3.0962080">
        <ele>781.0</ele>
        <time>2020-04-02T17:47:35Z</time>
      </trkpt>
      <trkpt lat="42.4313220" lon="-3.0963200">
        <ele>781.4</ele>
        <time>2020-04-02T17:47:37Z</time>
      </trkpt>
      <trkpt lat="42.4312520" lon="-3.0964330">
        <ele>781.8</ele>
        <time>2020-04-02T17:47:39Z</time>
      </trkpt>
      <trkpt lat="42.4310850" lon="-3.0967050">
        <ele>782.4</ele>
        <time>2020-04-02T17:47:41Z</time>
      </trkpt>
      <trkpt lat="42.4310130" lon="-3.0968210">
        <ele>782.7</ele>
        <time>2020-04-02T17:47:43Z</time>
      </trkpt>
      <trkpt lat="42.4309400" lon="-3.0969390">
        <ele>783.1</ele>
        <time>2020-04-02T17:47:45Z</time>
      </trkpt>
      <trkpt lat="42.4308670" lon="-3.0970570">
        <ele>783.4</ele>
        <time>2020-04-02T17:47:47Z</time>
      </trkpt>
      <trkpt lat="42.4306920" lon="-3.0973260">
        <ele>784.4</ele>
        <time>2020-04-02T17:47:49Z</time>
      </trkpt>
      <trkpt lat="42.4306060" lon="-3.0974300">
        <ele>784.8</ele>
        <time>2020-04-02T17:47:51Z</time>
      </trkpt>
      <trkpt lat="42.4305200" lon="-3.0975340">
        <ele>785.1</ele>
        <time>2020-04-02T17:47:53Z</time>
      </trkpt>
      <trkpt lat="42.4304340" lon="-3.0976390">
        <ele>785.5</ele>
        <time>2020-04-02T17:47:55Z</time>
      </trkpt>
      <trkpt lat="42.4302230" lon="-3.0978870">
        <ele>786.4</ele>
        <time>2020-04-02T17:47:57Z</time>
      </trkpt>
      <trkpt lat="42.4301280" lon="-3.0979820">
        <ele>786.8</ele>
        <time>2020-04-02T17:47:59Z</time>
      </trkpt>
      <trkpt lat="42.4300330" lon="-3.0980770">
        <ele>787.3</ele>
        <time>2020-04-02T17:48:01Z</time>
      </trkpt>
      <trkpt lat="42.4298350" lon="-3.0982340">
        <ele>788.1</ele>
        <time>2020-04-02T17:48:03Z</time>
      </trkpt>
      <trkpt lat="42.4296640" lon="-3.0983070">
        <ele>788.7</ele>
        <time>2020-04-02T17:48:05Z</time>
      </trkpt>
      <trkpt lat="42.4295460" lon="-3.0983370">
        <ele>789.0</ele>
        <time>2020-04-02T17:48:07Z</time>
      </trkpt>
      <trkpt lat="42.4294290" lon="-3.0983660">
        <ele>789.3</ele>
        <time>2020-04-02T17:48:09Z</time>
      </trkpt>
      <trkpt lat="42.4293120" lon="-3.0983960">
        <ele>789.5</ele>
        <time>2020-04-02T17:48:11Z</time>
      </trkpt>
      <trkpt lat="42.4291940" lon="-3.0984260">
        <ele>789.6</ele>
        <time>2020-04-02T17:48:13Z</time>
      </trkpt>
      <trkpt lat="42.4288640" lon="-3.0985100">
        <ele>790.0</ele>
        <time>2020-04-02T17:48:15Z</time>
      </trkpt>
      <trkpt lat="42.4287430" lon="-3.0985410">
        <ele>790.3</ele>
        <time>2020-04-02T17:48:17Z</time>
      </trkpt>
      <trkpt lat="42.4286180" lon="-3.0985730">
        <ele>790.5</ele>
        <time>2020-04-02T17:48:19Z</time>
      </trkpt>
      <trkpt lat="42.4284900" lon="-3.0986060">
        <ele>790.6</ele>
        <time>2020-04-02T17:48:21Z</time>
      </trkpt>
      <trkpt lat="42.4283590" lon="-3.0986390">
        <ele>790.5</ele>
        <time>2020-04-02T17:48:23Z</time>
      </trkpt>
      <trkpt lat="42.4280200" lon="-3.0987380">
        <ele>790.7</ele>
        <time>2020-04-02T17:48:25Z</time>
      </trkpt>
      <trkpt lat="42.4278660" lon="-3.0988330">
        <ele>790.8</ele>
        <time>2020-04-02T17:48:27Z</time>
      </trkpt>
      <trkpt lat="42.4277530" lon="-3.0989190">
        <ele>791.1</ele>
        <time>2020-04-02T17:48:29Z</time>
      </trkpt>
      <trkpt lat="42.4275380" lon="-3.0990820">
        <ele>791.8</ele>
        <time>2020-04-02T17:48:31Z</time>
      </trkpt>
      <trkpt lat="42.4274370" lon="-3.0991780">
        <ele>792.2</ele>
        <time>2020-04-02T17:48:33Z</time>
      </trkpt>
      <trkpt lat="42.4272890" lon="-3.0993320">
        <ele>792.9</ele>
        <time>2020-04-02T17:48:35Z</time>
      </trkpt>
      <trkpt lat="42.4271600" lon="-3.0995000">
        <ele>793.8</ele>
        <time>2020-04-02T17:48:37Z</time>
      </trkpt>
      <trkpt lat="42.4270990" lon="-3.0996340">
        <ele>794.3</ele>
        <time>2020-04-02T17:48:39Z</time>
      </trkpt>
      <trkpt lat="42.4270240" lon="-3.0998330">
        <ele>795.3</ele>
        <time>2020-04-02T17:48:41Z</time>
      </trkpt>
      <trkpt lat="42.4269450" lon="-3.1000410">
        <ele>796.1</ele>
        <time>2020-04-02T17:48:43Z</time>
      </trkpt>
      <trkpt lat="42.4268740" lon="-3.1001610">
        <ele>796.4</ele>
        <time>2020-04-02T17:48:45Z</time>
      </trkpt>
      <trkpt lat="42.4267460" lon="-3.1003770">
        <ele>797.0</ele>
        <time>2020-04-02T17:48:47Z</time>
      </trkpt>
      <trkpt lat="42.4266760" lon="-3.1004970">
        <ele>797.5</ele>
        <time>2020-04-02T17:48:49Z</time>
      </trkpt>
      <trkpt lat="42.4265600" lon="-3.1006670">
        <ele>798.1</ele>
        <time>2020-04-02T17:48:51Z</time>
      </trkpt>
      <trkpt lat="42.4264750" lon="-3.1007640">
        <ele>798.6</ele>
        <time>2020-04-02T17:48:53Z</time>
      </trkpt>
      <trkpt lat="42.4263370" lon="-3.1009350">
        <ele>799.5</ele>
        <time>2020-04-02T17:48:55Z</time>
      </trkpt>
      <trkpt lat="42.4262400" lon="-3.1011000">
        <ele>800.1</ele>
        <time>2020-04-02T17:48:57Z</time>
      </trkpt>
      <trkpt lat="42.4261840" lon="-3.1012310">
        <ele>800.6</ele>
        <time>2020-04-02T17:48:59Z</time>
      </trkpt>
      <trkpt lat="42.4261280" lon="-3.1013600">
        <ele>801.0</ele>
        <time>2020-04-02T17:49:01Z</time>
      </trkpt>
      <trkpt lat="42.4260710" lon="-3.1014920">
        <ele>801.5</ele>
        <time>2020-04-02T17:49:03Z</time>
      </trkpt>
      <trkpt lat="42.4260150" lon="-3.1016230">
        <ele>801.8</ele>
        <time>2020-04-02T17:49:05Z</time>
      </trkpt>
      <trkpt lat="42.4258870" lon="-3.1019960">
        <ele>802.8</ele>
        <time>2020-04-02T17:49:07Z</time>
      </trkpt>
      <trkpt lat="42.4258860" lon="-3.1022240">
        <ele>803.0</ele>
        <time>2020-04-02T17:49:09Z</time>
      </trkpt>
      <trkpt lat="42.4259300" lon="-3.1024590">
        <ele>803.2</ele>
        <time>2020-04-02T17:49:11Z</time>
      </trkpt>
      <trkpt lat="42.4259700" lon="-3.1026370">
        <ele>803.2</ele>
        <time>2020-04-02T17:49:13Z</time>
      </trkpt>
      <trkpt lat="42.4260460" lon="-3.1029680">
        <ele>803.3</ele>
        <time>2020-04-02T17:49:15Z</time>
      </trkpt>
      <trkpt lat="42.4261020" lon="-3.1031420">
        <ele>803.4</ele>
        <time>2020-04-02T17:49:17Z</time>
      </trkpt>
      <trkpt lat="42.4261570" lon="-3.1033140">
        <ele>803.5</ele>
        <time>2020-04-02T17:49:19Z</time>
      </trkpt>
      <trkpt lat="42.4262720" lon="-3.1036200">
        <ele>801.8</ele>
        <time>2020-04-02T17:49:21Z</time>
      </trkpt>
      <trkpt lat="42.4264060" lon="-3.1038440">
        <ele>799.9</ele>
        <time>2020-04-02T17:49:23Z</time>
      </trkpt>
      <trkpt lat="42.4265270" lon="-3.1039970">
        <ele>798.6</ele>
        <time>2020-04-02T17:49:25Z</time>
      </trkpt>
      <trkpt lat="42.4267700" lon="-3.1043000">
        <ele>796.1</ele>
        <time>2020-04-02T17:49:27Z</time>
      </trkpt>
      <trkpt lat="42.4268930" lon="-3.1045540">
        <ele>794.6</ele>
        <time>2020-04-02T17:49:29Z</time>
      </trkpt>
      <trkpt lat="42.4269910" lon="-3.1048490">
        <ele>792.7</ele>
        <time>2020-04-02T17:49:31Z</time>
      </trkpt>
      <trkpt lat="42.4270570" lon="-3.1050860">
        <ele>791.4</ele>
        <time>2020-04-02T17:49:33Z</time>
      </trkpt>
      <trkpt lat="42.4271240" lon="-3.1053240">
        <ele>790.3</ele>
        <time>2020-04-02T17:49:35Z</time>
      </trkpt>
      <trkpt lat="42.4272490" lon="-3.1058180">
        <ele>787.7</ele>
        <time>2020-04-02T17:49:37Z</time>
      </trkpt>
      <trkpt lat="42.4272890" lon="-3.1062010">
        <ele>785.8</ele>
        <time>2020-04-02T17:49:39Z</time>
      </trkpt>
      <trkpt lat="42.4272730" lon="-3.1065460">
        <ele>784.0</ele>
        <time>2020-04-02T17:49:41Z</time>
      </trkpt>
      <trkpt lat="42.4272330" lon="-3.1068050">
        <ele>782.3</ele>
        <time>2020-04-02T17:49:43Z</time>
      </trkpt>
      <trkpt lat="42.4271930" lon="-3.1070650">
        <ele>780.8</ele>
        <time>2020-04-02T17:49:45Z</time>
      </trkpt>
      <trkpt lat="42.4271100" lon="-3.1075970">
        <ele>777.5</ele>
        <time>2020-04-02T17:49:47Z</time>
      </trkpt>
      <trkpt lat="42.4270700" lon="-3.1078570">
        <ele>776.2</ele>
        <time>2020-04-02T17:49:49Z</time>
      </trkpt>
      <trkpt lat="42.4270310" lon="-3.1081130">
        <ele>774.8</ele>
        <time>2020-04-02T17:49:51Z</time>
      </trkpt>
      <trkpt lat="42.4269600" lon="-3.1086430">
        <ele>772.4</ele>
        <time>2020-04-02T17:49:53Z</time>
      </trkpt>
      <trkpt lat="42.4270080" lon="-3.1089540">
        <ele>770.7</ele>
        <time>2020-04-02T17:49:55Z</time>
      </trkpt>
      <trkpt lat="42.4271360" lon="-3.1092370">
        <ele>769.0</ele>
        <time>2020-04-02T17:49:57Z</time>
      </trkpt>
      <trkpt lat="42.4272470" lon="-3.1094390">
        <ele>767.8</ele>
        <time>2020-04-02T17:49:59Z</time>
      </trkpt>
      <trkpt lat="42.4274300" lon="-3.1097720">
        <ele>765.8</ele>
        <time>2020-04-02T17:50:01Z</time>
      </trkpt>
      <trkpt lat="42.4276120" lon="-3.1101030">
        <ele>763.7</ele>
        <time>2020-04-02T17:50:03Z</time>
      </trkpt>
      <trkpt lat="42.4277290" lon="-3.1102880">
        <ele>762.8</ele>
        <time>2020-04-02T17:50:05Z</time>
      </trkpt>
      <trkpt lat="42.4279080" lon="-3.1105200">
        <ele>761.7</ele>
        <time>2020-04-02T17:50:07Z</time>
      </trkpt>
      <trkpt lat="42.4281160" lon="-3.1107230">
        <ele>760.5</ele>
        <time>2020-04-02T17:50:09Z</time>
      </trkpt>
      <trkpt lat="42.4282690" lon="-3.1108430">
        <ele>759.6</ele>
        <time>2020-04-02T17:50:11Z</time>
      </trkpt>
      <trkpt lat="42.4284230" lon="-3.1109640">
        <ele>759.0</ele>
        <time>2020-04-02T17:50:13Z</time>
      </trkpt>
      <trkpt lat="42.4287370" lon="-3.1111870">
        <ele>757.4</ele>
        <time>2020-04-02T17:50:15Z</time>
      </trkpt>
      <trkpt lat="42.4288840" lon="-3.1112770">
        <ele>756.7</ele>
        <time>2020-04-02T17:50:17Z</time>
      </trkpt>
      <trkpt lat="42.4290230" lon="-3.1113610">
        <ele>756.0</ele>
        <time>2020-04-02T17:50:19Z</time>
      </trkpt>
      <trkpt lat="42.4293070" lon="-3.1115340">
        <ele>755.3</ele>
        <time>2020-04-02T17:50:21Z</time>
      </trkpt>
      <trkpt lat="42.4294390" lon="-3.1116140">
        <ele>755.0</ele>
        <time>2020-04-02T17:50:23Z</time>
      </trkpt>
      <trkpt lat="42.4295670" lon="-3.1116930">
        <ele>754.9</ele>
        <time>2020-04-02T17:50:25Z</time>
      </trkpt>
      <trkpt lat="42.4298370" lon="-3.1118800">
        <ele>755.0</ele>
        <time>2020-04-02T17:50:27Z</time>
      </trkpt>
      <trkpt lat="42.4299750" lon="-3.1120150">
        <ele>755.0</ele>
        <time>2020-04-02T17:50:29Z</time>
      </trkpt>
      <trkpt lat="42.4301250" lon="-3.1121740">
        <ele>755.1</ele>
        <time>2020-04-02T17:50:31Z</time>
      </trkpt>
      <trkpt lat="42.4302180" lon="-3.1122840">
        <ele>755.2</ele>
        <time>2020-04-02T17:50:33Z</time>
      </trkpt>
      <trkpt lat="42.4303090" lon="-3.1123930">
        <ele>755.4</ele>
        <time>2020-04-02T17:50:35Z</time>
      </trkpt>
      <trkpt lat="42.4303990" lon="-3.1125010">
        <ele>755.8</ele>
        <time>2020-04-02T17:50:37Z</time>
      </trkpt>
      <trkpt lat="42.4306020" lon="-3.1127430">
        <ele>757.2</ele>
        <time>2020-04-02T17:50:39Z</time>
      </trkpt>
      <trkpt lat="42.4306870" lon="-3.1128450">
        <ele>757.8</ele>
        <time>2020-04-02T17:50:41Z</time>
      </trkpt>
      <trkpt lat="42.4307710" lon="-3.1129440">
        <ele>758.5</ele>
        <time>2020-04-02T17:50:43Z</time>
      </trkpt>
      <trkpt lat="42.4309670" lon="-3.1131800">
        <ele>759.8</ele>
        <time>2020-04-02T17:50:45Z</time>
      </trkpt>
      <trkpt lat="42.4310420" lon="-3.1132820">
        <ele>760.2</ele>
        <time>2020-04-02T17:50:47Z</time>
      </trkpt>
      <trkpt lat="42.4311450" lon="-3.1134550">
        <ele>760.8</ele>
        <time>2020-04-02T17:50:49Z</time>
      </trkpt>
      <trkpt lat="42.4311610" lon="-3.1136260">
        <ele>761.4</ele>
        <time>2020-04-02T17:50:51Z</time>
      </trkpt>
      <trkpt lat="42.4311490" lon="-3.1137660">
        <ele>761.7</ele>
        <time>2020-04-02T17:50:53Z</time>
      </trkpt>
      <trkpt lat="42.4311370" lon="-3.1139070">
        <ele>762.1</ele>
        <time>2020-04-02T17:50:55Z</time>
      </trkpt>
      <trkpt lat="42.4311250" lon="-3.1140480">
        <ele>762.4</ele>
        <time>2020-04-02T17:50:57Z</time>
      </trkpt>
      <trkpt lat="42.4311130" lon="-3.1141880">
        <ele>762.8</ele>
        <time>2020-04-02T17:50:59Z</time>
      </trkpt>
      <trkpt lat="42.4311010" lon="-3.1143290">
        <ele>763.1</ele>
        <time>2020-04-02T17:51:01Z</time>
      </trkpt>
      <trkpt lat="42.4310650" lon="-3.1147590">
        <ele>764.4</ele>
        <time>2020-04-02T17:51:03Z</time>
      </trkpt>
      <trkpt lat="42.4310520" lon="-3.1149010">
        <ele>764.8</ele>
        <time>2020-04-02T17:51:05Z</time>
      </trkpt>
      <trkpt lat="42.4310400" lon="-3.1150420">
        <ele>765.2</ele>
        <time>2020-04-02T17:51:07Z</time>
      </trkpt>
      <trkpt lat="42.4310280" lon="-3.1151840">
        <ele>765.6</ele>
        <time>2020-04-02T17:51:09Z</time>
      </trkpt>
      <trkpt lat="42.4310160" lon="-3.1153250">
        <ele>765.9</ele>
        <time>2020-04-02T17:51:11Z</time>
      </trkpt>
      <trkpt lat="42.4309800" lon="-3.1157540">
        <ele>766.9</ele>
        <time>2020-04-02T17:51:13Z</time>
      </trkpt>
      <trkpt lat="42.4309680" lon="-3.1158950">
        <ele>767.2</ele>
        <time>2020-04-02T17:51:15Z</time>
      </trkpt>
      <trkpt lat="42.4309560" lon="-3.1160360">
        <ele>767.6</ele>
        <time>2020-04-02T17:51:17Z</time>
      </trkpt>
      <trkpt lat="42.4309440" lon="-3.1161780">
        <ele>767.9</ele>
        <time>2020-04-02T17:51:19Z</time>
      </trkpt>
      <trkpt lat="42.4309320" lon="-3.1163180">
        <ele>768.2</ele>
        <time>2020-04-02T17:51:21Z</time>
      </trkpt>
      <trkpt lat="42.4309200" lon="-3.1164600">
        <ele>768.5</ele>
        <time>2020-04-02T17:51:23Z</time>
      </trkpt>
      <trkpt lat="42.4308830" lon="-3.1168910">
        <ele>769.4</ele>
        <time>2020-04-02T17:51:25Z</time>
      </trkpt>
      <trkpt lat="42.4308710" lon="-3.1170330">
        <ele>769.8</ele>
        <time>2020-04-02T17:51:27Z</time>
      </trkpt>
      <trkpt lat="42.4308590" lon="-3.1171730">
        <ele>770.2</ele>
        <time>2020-04-02T17:51:29Z</time>
      </trkpt>
      <trkpt lat="42.4308470" lon="-3.1173150">
        <ele>770.7</ele>
        <time>2020-04-02T17:51:31Z</time>
      </trkpt>
      <trkpt lat="42.4308350" lon="-3.1174570">
        <ele>771.0</ele>
        <time>2020-04-02T17:51:33Z</time>
      </trkpt>
      <trkpt lat="42.4308230" lon="-3.1175970">
        <ele>771.3</ele>
        <time>2020-04-02T17:51:35Z</time>
      </trkpt>
      <trkpt lat="42.4307860" lon="-3.1180270">
        <ele>772.6</ele>
        <time>2020-04-02T17:51:37Z</time>
      </trkpt>
      <trkpt lat="42.4307740" lon="-3.1181690">
        <ele>773.1</ele>
        <time>2020-04-02T17:51:39Z</time>
      </trkpt>
      <trkpt lat="42.4307620" lon="-3.1183110">
        <ele>773.6</ele>
        <time>2020-04-02T17:51:41Z</time>
      </trkpt>
      <trkpt lat="42.4307500" lon="-3.1184510">
        <ele>774.2</ele>
        <time>2020-04-02T17:51:43Z</time>
      </trkpt>
      <trkpt lat="42.4307380" lon="-3.1185930">
        <ele>774.7</ele>
        <time>2020-04-02T17:51:45Z</time>
      </trkpt>
      <trkpt lat="42.4307260" lon="-3.1187350">
        <ele>775.1</ele>
        <time>2020-04-02T17:51:47Z</time>
      </trkpt>
      <trkpt lat="42.4306900" lon="-3.1191650">
        <ele>776.5</ele>
        <time>2020-04-02T17:51:49Z</time>
      </trkpt>
      <trkpt lat="42.4306780" lon="-3.1193050">
        <ele>777.0</ele>
        <time>2020-04-02T17:51:51Z</time>
      </trkpt>
      <trkpt lat="42.4306650" lon="-3.1194470">
        <ele>777.5</ele>
        <time>2020-04-02T17:51:53Z</time>
      </trkpt>
      <trkpt lat="42.4306530" lon="-3.1195880">
        <ele>778.0</ele>
        <time>2020-04-02T17:51:55Z</time>
      </trkpt>
      <trkpt lat="42.4306410" lon="-3.1197280">
        <ele>778.5</ele>
        <time>2020-04-02T17:51:57Z</time>
      </trkpt>
      <trkpt lat="42.4306050" lon="-3.1201580">
        <ele>780.1</ele>
        <time>2020-04-02T17:51:59Z</time>
      </trkpt>
      <trkpt lat="42.4305930" lon="-3.1203000">
        <ele>780.6</ele>
        <time>2020-04-02T17:52:01Z</time>
      </trkpt>
      <trkpt lat="42.4305810" lon="-3.1204410">
        <ele>781.1</ele>
        <time>2020-04-02T17:52:03Z</time>
      </trkpt>
      <trkpt lat="42.4305690" lon="-3.1205810">
        <ele>781.6</ele>
        <time>2020-04-02T17:52:05Z</time>
      </trkpt>
      <trkpt lat="42.4305570" lon="-3.1207230">
        <ele>782.1</ele>
        <time>2020-04-02T17:52:07Z</time>
      </trkpt>
      <trkpt lat="42.4305450" lon="-3.1208650">
        <ele>782.5</ele>
        <time>2020-04-02T17:52:09Z</time>
      </trkpt>
      <trkpt lat="42.4305080" lon="-3.1212950">
        <ele>783.1</ele>
        <time>2020-04-02T17:52:11Z</time>
      </trkpt>
      <trkpt lat="42.4304950" lon="-3.1214460">
        <ele>783.2</ele>
        <time>2020-04-02T17:52:13Z</time>
      </trkpt>
      <trkpt lat="42.4304820" lon="-3.1216060">
        <ele>783.2</ele>
        <time>2020-04-02T17:52:15Z</time>
      </trkpt>
      <trkpt lat="42.4304670" lon="-3.1217730">
        <ele>783.2</ele>
        <time>2020-04-02T17:52:17Z</time>
      </trkpt>
      <trkpt lat="42.4304530" lon="-3.1219430">
        <ele>783.2</ele>
        <time>2020-04-02T17:52:19Z</time>
      </trkpt>
      <trkpt lat="42.4304180" lon="-3.1224080">
        <ele>783.2</ele>
        <time>2020-04-02T17:52:21Z</time>
      </trkpt>
      <trkpt lat="42.4304100" lon="-3.1226770">
        <ele>783.2</ele>
        <time>2020-04-02T17:52:23Z</time>
      </trkpt>
      <trkpt lat="42.4304160" lon="-3.1228590">
        <ele>783.2</ele>
        <time>2020-04-02T17:52:25Z</time>
      </trkpt>
      <trkpt lat="42.4304370" lon="-3.1231270">
        <ele>783.2</ele>
        <time>2020-04-02T17:52:27Z</time>
      </trkpt>
      <trkpt lat="42.4304590" lon="-3.1233260">
        <ele>783.2</ele>
        <time>2020-04-02T17:52:29Z</time>
      </trkpt>
      <trkpt lat="42.4304830" lon="-3.1235340">
        <ele>782.9</ele>
        <time>2020-04-02T17:52:31Z</time>
      </trkpt>
      <trkpt lat="42.4305070" lon="-3.1237480">
        <ele>782.4</ele>
        <time>2020-04-02T17:52:33Z</time>
      </trkpt>
      <trkpt lat="42.4305710" lon="-3.1242700">
        <ele>780.9</ele>
        <time>2020-04-02T17:52:35Z</time>
      </trkpt>
      <trkpt lat="42.4306220" lon="-3.1246180">
        <ele>779.2</ele>
        <time>2020-04-02T17:52:37Z</time>
      </trkpt>
      <trkpt lat="42.4306470" lon="-3.1248410">
        <ele>778.3</ele>
        <time>2020-04-02T17:52:39Z</time>
      </trkpt>
      <trkpt lat="42.4306710" lon="-3.1250610">
        <ele>777.4</ele>
        <time>2020-04-02T17:52:41Z</time>
      </trkpt>
      <trkpt lat="42.4306950" lon="-3.1252770">
        <ele>776.2</ele>
        <time>2020-04-02T17:52:43Z</time>
      </trkpt>
      <trkpt lat="42.4307540" lon="-3.1257990">
        <ele>774.4</ele>
        <time>2020-04-02T17:52:45Z</time>
      </trkpt>
      <trkpt lat="42.4307850" lon="-3.1260090">
        <ele>774.1</ele>
        <time>2020-04-02T17:52:47Z</time>
      </trkpt>
      <trkpt lat="42.4308160" lon="-3.1262210">
        <ele>774.1</ele>
        <time>2020-04-02T17:52:49Z</time>
      </trkpt>
      <trkpt lat="42.4308480" lon="-3.1264320">
        <ele>774.4</ele>
        <time>2020-04-02T17:52:51Z</time>
      </trkpt>
      <trkpt lat="42.4309140" lon="-3.1268850">
        <ele>775.3</ele>
        <time>2020-04-02T17:52:53Z</time>
      </trkpt>
      <trkpt lat="42.4309410" lon="-3.1270690">
        <ele>775.7</ele>
        <time>2020-04-02T17:52:55Z</time>
      </trkpt>
      <trkpt lat="42.4309660" lon="-3.1272370">
        <ele>776.1</ele>
        <time>2020-04-02T17:52:57Z</time>
      </trkpt>
      <trkpt lat="42.4309890" lon="-3.1273930">
        <ele>776.6</ele>
        <time>2020-04-02T17:52:59Z</time>
      </trkpt>
      <trkpt lat="42.4310420" lon="-3.1277870">
        <ele>777.9</ele>
        <time>2020-04-02T17:53:01Z</time>
      </trkpt>
      <trkpt lat="42.4310560" lon="-3.1279270">
        <ele>778.8</ele>
        <time>2020-04-02T17:53:03Z</time>
      </trkpt>
      <trkpt lat="42.4310730" lon="-3.1281610">
        <ele>780.4</ele>
        <time>2020-04-02T17:53:05Z</time>
      </trkpt>
      <trkpt lat="42.4310790" lon="-3.1283590">
        <ele>782.0</ele>
        <time>2020-04-02T17:53:07Z</time>
      </trkpt>
      <trkpt lat="42.4310710" lon="-3.1284740">
        <ele>782.9</ele>
        <time>2020-04-02T17:53:09Z</time>
      </trkpt>
      <trkpt lat="42.4310640" lon="-3.1285820">
        <ele>783.8</ele>
        <time>2020-04-02T17:53:11Z</time>
      </trkpt>
      <trkpt lat="42.4310560" lon="-3.1286870">
        <ele>784.9</ele>
        <time>2020-04-02T17:53:13Z</time>
      </trkpt>
      <trkpt lat="42.4310490" lon="-3.1287880">
        <ele>786.0</ele>
        <time>2020-04-02T17:53:15Z</time>
      </trkpt>
      <trkpt lat="42.4310420" lon="-3.1288880">
        <ele>786.9</ele>
        <time>2020-04-02T17:53:17Z</time>
      </trkpt>
      <trkpt lat="42.4310350" lon="-3.1289870">
        <ele>787.9</ele>
        <time>2020-04-02T17:53:19Z</time>
      </trkpt>
      <trkpt lat="42.4310090" lon="-3.1293430">
        <ele>789.6</ele>
        <time>2020-04-02T17:53:21Z</time>
      </trkpt>
      <trkpt lat="42.4309850" lon="-3.1294500">
        <ele>789.5</ele>
        <time>2020-04-02T17:53:23Z</time>
      </trkpt>
      <trkpt lat="42.4309560" lon="-3.1295780">
        <ele>789.5</ele>
        <time>2020-04-02T17:53:25Z</time>
      </trkpt>
      <trkpt lat="42.4309240" lon="-3.1297200">
        <ele>789.5</ele>
        <time>2020-04-02T17:53:27Z</time>
      </trkpt>
      <trkpt lat="42.4308890" lon="-3.1298730">
        <ele>789.5</ele>
        <time>2020-04-02T17:53:29Z</time>
      </trkpt>
      <trkpt lat="42.4307860" lon="-3.1302200">
        <ele>789.4</ele>
        <time>2020-04-02T17:53:31Z</time>
      </trkpt>
      <trkpt lat="42.4307220" lon="-3.1303750">
        <ele>789.4</ele>
        <time>2020-04-02T17:53:33Z</time>
      </trkpt>
      <trkpt lat="42.4306560" lon="-3.1305350">
        <ele>789.3</ele>
        <time>2020-04-02T17:53:35Z</time>
      </trkpt>
      <trkpt lat="42.4305100" lon="-3.1308590">
        <ele>788.4</ele>
        <time>2020-04-02T17:53:37Z</time>
      </trkpt>
      <trkpt lat="42.4303800" lon="-3.1310850">
        <ele>787.1</ele>
        <time>2020-04-02T17:53:39Z</time>
      </trkpt>
      <trkpt lat="42.4302750" lon="-3.1312330">
        <ele>786.5</ele>
        <time>2020-04-02T17:53:41Z</time>
      </trkpt>
      <trkpt lat="42.4301660" lon="-3.1313870">
        <ele>786.2</ele>
        <time>2020-04-02T17:53:43Z</time>
      </trkpt>
      <trkpt lat="42.4300550" lon="-3.1315430">
        <ele>785.9</ele>
        <time>2020-04-02T17:53:45Z</time>
      </trkpt>
      <trkpt lat="42.4297880" lon="-3.1319190">
        <ele>785.1</ele>
        <time>2020-04-02T17:53:47Z</time>
      </trkpt>
      <trkpt lat="42.4296750" lon="-3.1320790">
        <ele>784.8</ele>
        <time>2020-04-02T17:53:49Z</time>
      </trkpt>
      <trkpt lat="42.4295590" lon="-3.1322430">
        <ele>784.3</ele>
        <time>2020-04-02T17:53:51Z</time>
      </trkpt>
      <trkpt lat="42.4294420" lon="-3.1324080">
        <ele>784.0</ele>
        <time>2020-04-02T17:53:53Z</time>
      </trkpt>
      <trkpt lat="42.4291530" lon="-3.1327600">
        <ele>782.8</ele>
        <time>2020-04-02T17:53:55Z</time>
      </trkpt>
      <trkpt lat="42.4289390" lon="-3.1329780">
        <ele>781.4</ele>
        <time>2020-04-02T17:53:57Z</time>
      </trkpt>
      <trkpt lat="42.4288560" lon="-3.1332540">
        <ele>780.2</ele>
        <time>2020-04-02T17:53:59Z</time>
      </trkpt>
      <trkpt lat="42.4288400" lon="-3.1334630">
        <ele>779.3</ele>
        <time>2020-04-02T17:54:01Z</time>
      </trkpt>
      <trkpt lat="42.4287800" lon="-3.1337470">
        <ele>779.3</ele>
        <time>2020-04-02T17:54:03Z</time>
      </trkpt>
      <trkpt lat="42.4287230" lon="-3.1339250">
        <ele>779.9</ele>
        <time>2020-04-02T17:54:05Z</time>
      </trkpt>
      <trkpt lat="42.4286680" lon="-3.1340980">
        <ele>780.3</ele>
        <time>2020-04-02T17:54:07Z</time>
      </trkpt>
      <trkpt lat="42.4286150" lon="-3.1342660">
        <ele>780.8</ele>
        <time>2020-04-02T17:54:09Z</time>
      </trkpt>
      <trkpt lat="42.4284710" lon="-3.1347190">
        <ele>782.1</ele>
        <time>2020-04-02T17:54:11Z</time>
      </trkpt>
      <trkpt lat="42.4284190" lon="-3.1348810">
        <ele>782.5</ele>
        <time>2020-04-02T17:54:13Z</time>
      </trkpt>
      <trkpt lat="42.4283680" lon="-3.1350410">
        <ele>782.9</ele>
        <time>2020-04-02T17:54:15Z</time>
      </trkpt>
      <trkpt lat="42.4283180" lon="-3.1351980">
        <ele>783.3</ele>
        <time>2020-04-02T17:54:17Z</time>
      </trkpt>
      <trkpt lat="42.4282680" lon="-3.1353560">
        <ele>783.6</ele>
        <time>2020-04-02T17:54:19Z</time>
      </trkpt>
      <trkpt lat="42.4281210" lon="-3.1357900">
        <ele>784.0</ele>
        <time>2020-04-02T17:54:21Z</time>
      </trkpt>
      <trkpt lat="42.4280000" lon="-3.1357900">
        <ele>784.7</ele>
        <time>2020-04-02T17:54:23Z</time>
      </trkpt>
      <trkpt lat="42.4278200" lon="-3.1358050">
        <ele>785.8</ele>
        <time>2020-04-02T17:54:25Z</time>
      </trkpt>
      <trkpt lat="42.4276860" lon="-3.1358700">
        <ele>786.9</ele>
        <time>2020-04-02T17:54:27Z</time>
      </trkpt>
      <trkpt lat="42.4275430" lon="-3.1359770">
        <ele>788.2</ele>
        <time>2020-04-02T17:54:29Z</time>
      </trkpt>
      <trkpt lat="42.4274320" lon="-3.1360370">
        <ele>789.0</ele>
        <time>2020-04-02T17:54:31Z</time>
      </trkpt>
      <trkpt lat="42.4273640" lon="-3.1361800">
        <ele>789.8</ele>
        <time>2020-04-02T17:54:33Z</time>
      </trkpt>
      <trkpt lat="42.4273280" lon="-3.1363100">
        <ele>790.4</ele>
        <time>2020-04-02T17:54:35Z</time>
      </trkpt>
      <trkpt lat="42.4273040" lon="-3.1365470">
        <ele>791.1</ele>
        <time>2020-04-02T17:54:37Z</time>
      </trkpt>
      <trkpt lat="42.4273330" lon="-3.1367190">
        <ele>791.2</ele>
        <time>2020-04-02T17:54:39Z</time>
      </trkpt>
      <trkpt lat="42.4272750" lon="-3.1369010">
        <ele>791.3</ele>
        <time>2020-04-02T17:54:41Z</time>
      </trkpt>
      <trkpt lat="42.4272330" lon="-3.1371120">
        <ele>791.3</ele>
        <time>2020-04-02T17:54:43Z</time>
      </trkpt>
      <trkpt lat="42.4272150" lon="-3.1372790">
        <ele>791.2</ele>
        <time>2020-04-02T17:54:45Z</time>
      </trkpt>
      <trkpt lat="42.4271970" lon="-3.1374550">
        <ele>791.1</ele>
        <time>2020-04-02T17:54:47Z</time>
      </trkpt>
      <trkpt lat="42.4271800" lon="-3.1377830">
        <ele>790.5</ele>
        <time>2020-04-02T17:54:49Z</time>
      </trkpt>
      <trkpt lat="42.4271800" lon="-3.1379660">
        <ele>790.0</ele>
        <time>2020-04-02T17:54:51Z</time>
      </trkpt>
      <trkpt lat="42.4271800" lon="-3.1381540">
        <ele>789.3</ele>
        <time>2020-04-02T17:54:53Z</time>
      </trkpt>
      <trkpt lat="42.4271630" lon="-3.1385860">
        <ele>788.3</ele>
        <time>2020-04-02T17:54:55Z</time>
      </trkpt>
      <trkpt lat="42.4270780" lon="-3.1387970">
        <ele>789.7</ele>
        <time>2020-04-02T17:54:57Z</time>
      </trkpt>
      <trkpt lat="42.4270190" lon="-3.1389780">
        <ele>790.6</ele>
        <time>2020-04-02T17:54:59Z</time>
      </trkpt>
      <trkpt lat="42.4269590" lon="-3.1391620">
        <ele>791.3</ele>
        <time>2020-04-02T17:55:01Z</time>
      </trkpt>
      <trkpt lat="42.4268970" lon="-3.1393500">
        <ele>791.5</ele>
        <time>2020-04-02T17:55:03Z</time>
      </trkpt>
      <trkpt lat="42.4267550" lon="-3.1397830">
        <ele>790.9</ele>
        <time>2020-04-02T17:55:05Z</time>
      </trkpt>
      <trkpt lat="42.4266930" lon="-3.1399750">
        <ele>790.2</ele>
        <time>2020-04-02T17:55:07Z</time>
      </trkpt>
      <trkpt lat="42.4266290" lon="-3.1401680">
        <ele>789.3</ele>
        <time>2020-04-02T17:55:09Z</time>
      </trkpt>
      <trkpt lat="42.4264870" lon="-3.1406030">
        <ele>787.7</ele>
        <time>2020-04-02T17:55:11Z</time>
      </trkpt>
      <trkpt lat="42.4264250" lon="-3.1407910">
        <ele>787.3</ele>
        <time>2020-04-02T17:55:13Z</time>
      </trkpt>
      <trkpt lat="42.4263650" lon="-3.1409760">
        <ele>787.0</ele>
        <time>2020-04-02T17:55:15Z</time>
      </trkpt>
      <trkpt lat="42.4263050" lon="-3.1411580">
        <ele>786.9</ele>
        <time>2020-04-02T17:55:17Z</time>
      </trkpt>
      <trkpt lat="42.4261670" lon="-3.1415780">
        <ele>786.6</ele>
        <time>2020-04-02T17:55:19Z</time>
      </trkpt>
      <trkpt lat="42.4261090" lon="-3.1417550">
        <ele>786.6</ele>
        <time>2020-04-02T17:55:21Z</time>
      </trkpt>
      <trkpt lat="42.4260520" lon="-3.1419310">
        <ele>786.7</ele>
        <time>2020-04-02T17:55:23Z</time>
      </trkpt>
      <trkpt lat="42.4259950" lon="-3.1421040">
        <ele>786.9</ele>
        <time>2020-04-02T17:55:25Z</time>
      </trkpt>
      <trkpt lat="42.4258610" lon="-3.1425130">
        <ele>788.0</ele>
        <time>2020-04-02T17:55:27Z</time>
      </trkpt>
      <trkpt lat="42.4258100" lon="-3.1426690">
        <ele>788.3</ele>
        <time>2020-04-02T17:55:29Z</time>
      </trkpt>
      <trkpt lat="42.4257620" lon="-3.1428150">
        <ele>788.7</ele>
        <time>2020-04-02T17:55:31Z</time>
      </trkpt>
      <trkpt lat="42.4257170" lon="-3.1429520">
        <ele>789.1</ele>
        <time>2020-04-02T17:55:33Z</time>
      </trkpt>
      <trkpt lat="42.4255960" lon="-3.1433240">
        <ele>790.4</ele>
        <time>2020-04-02T17:55:35Z</time>
      </trkpt>
      <trkpt lat="42.4255570" lon="-3.1434520">
        <ele>790.9</ele>
        <time>2020-04-02T17:55:37Z</time>
      </trkpt>
      <trkpt lat="42.4255190" lon="-3.1435760">
        <ele>791.6</ele>
        <time>2020-04-02T17:55:39Z</time>
      </trkpt>
      <trkpt lat="42.4254820" lon="-3.1436970">
        <ele>792.3</ele>
        <time>2020-04-02T17:55:41Z</time>
      </trkpt>
      <trkpt lat="42.4254000" lon="-3.1439670">
        <ele>794.0</ele>
        <time>2020-04-02T17:55:43Z</time>
      </trkpt>
      <trkpt lat="42.4253640" lon="-3.1440870">
        <ele>794.5</ele>
        <time>2020-04-02T17:55:45Z</time>
      </trkpt>
      <trkpt lat="42.4253270" lon="-3.1442070">
        <ele>795.1</ele>
        <time>2020-04-02T17:55:47Z</time>
      </trkpt>
      <trkpt lat="42.4252440" lon="-3.1444760">
        <ele>796.2</ele>
        <time>2020-04-02T17:55:49Z</time>
      </trkpt>
      <trkpt lat="42.4252050" lon="-3.1445960">
        <ele>796.8</ele>
        <time>2020-04-02T17:55:51Z</time>
      </trkpt>
      <trkpt lat="42.4251650" lon="-3.1447150">
        <ele>797.4</ele>
        <time>2020-04-02T17:55:53Z</time>
      </trkpt>
      <trkpt lat="42.4251250" lon="-3.1448350">
        <ele>798.0</ele>
        <time>2020-04-02T17:55:55Z</time>
      </trkpt>
      <trkpt lat="42.4250860" lon="-3.1449540">
        <ele>798.6</ele>
        <time>2020-04-02T17:55:57Z</time>
      </trkpt>
      <trkpt lat="42.4250460" lon="-3.1450740">
        <ele>799.2</ele>
        <time>2020-04-02T17:55:59Z</time>
      </trkpt>
      <trkpt lat="42.4250060" lon="-3.1451930">
        <ele>799.7</ele>
        <time>2020-04-02T17:56:01Z</time>
      </trkpt>
      <trkpt lat="42.4248760" lon="-3.1455830">
        <ele>801.2</ele>
        <time>2020-04-02T17:56:03Z</time>
      </trkpt>
      <trkpt lat="42.4248340" lon="-3.1457090">
        <ele>801.6</ele>
        <time>2020-04-02T17:56:05Z</time>
      </trkpt>
      <trkpt lat="42.4247910" lon="-3.1458400">
        <ele>802.0</ele>
        <time>2020-04-02T17:56:07Z</time>
      </trkpt>
      <trkpt lat="42.4247460" lon="-3.1459740">
        <ele>802.2</ele>
        <time>2020-04-02T17:56:09Z</time>
      </trkpt>
      <trkpt lat="42.4247010" lon="-3.1461110">
        <ele>802.4</ele>
        <time>2020-04-02T17:56:11Z</time>
      </trkpt>
      <trkpt lat="42.4246540" lon="-3.1462510">
        <ele>802.6</ele>
        <time>2020-04-02T17:56:13Z</time>
      </trkpt>
      <trkpt lat="42.4245170" lon="-3.1466640">
        <ele>803.5</ele>
        <time>2020-04-02T17:56:15Z</time>
      </trkpt>
      <trkpt lat="42.4244700" lon="-3.1468050">
        <ele>803.7</ele>
        <time>2020-04-02T17:56:17Z</time>
      </trkpt>
      <trkpt lat="42.4244220" lon="-3.1469490">
        <ele>803.9</ele>
        <time>2020-04-02T17:56:19Z</time>
      </trkpt>
      <trkpt lat="42.4243740" lon="-3.1470940">
        <ele>804.1</ele>
        <time>2020-04-02T17:56:21Z</time>
      </trkpt>
      <trkpt lat="42.4243250" lon="-3.1472390">
        <ele>804.4</ele>
        <time>2020-04-02T17:56:23Z</time>
      </trkpt>
      <trkpt lat="42.4241880" lon="-3.1476540">
        <ele>805.1</ele>
        <time>2020-04-02T17:56:25Z</time>
      </trkpt>
      <trkpt lat="42.4241400" lon="-3.1477950">
        <ele>805.5</ele>
        <time>2020-04-02T17:56:27Z</time>
      </trkpt>
      <trkpt lat="42.4240940" lon="-3.1479340">
        <ele>805.9</ele>
        <time>2020-04-02T17:56:29Z</time>
      </trkpt>
      <trkpt lat="42.4240490" lon="-3.1480690">
        <ele>806.3</ele>
        <time>2020-04-02T17:56:31Z</time>
      </trkpt>
      <trkpt lat="42.4240050" lon="-3.1482030">
        <ele>806.6</ele>
        <time>2020-04-02T17:56:33Z</time>
      </trkpt>
      <trkpt lat="42.4238700" lon="-3.1486070">
        <ele>807.7</ele>
        <time>2020-04-02T17:56:35Z</time>
      </trkpt>
      <trkpt lat="42.4238270" lon="-3.1487390">
        <ele>808.1</ele>
        <time>2020-04-02T17:56:37Z</time>
      </trkpt>
      <trkpt lat="42.4237830" lon="-3.1488690">
        <ele>808.5</ele>
        <time>2020-04-02T17:56:39Z</time>
      </trkpt>
      <trkpt lat="42.4237390" lon="-3.1490000">
        <ele>809.1</ele>
        <time>2020-04-02T17:56:41Z</time>
      </trkpt>
      <trkpt lat="42.4236960" lon="-3.1491300">
        <ele>809.6</ele>
        <time>2020-04-02T17:56:43Z</time>
      </trkpt>
      <trkpt lat="42.4236540" lon="-3.1492580">
        <ele>810.0</ele>
        <time>2020-04-02T17:56:45Z</time>
      </trkpt>
      <trkpt lat="42.4235200" lon="-3.1496580">
        <ele>811.5</ele>
        <time>2020-04-02T17:56:47Z</time>
      </trkpt>
      <trkpt lat="42.4234740" lon="-3.1497930">
        <ele>811.7</ele>
        <time>2020-04-02T17:56:49Z</time>
      </trkpt>
      <trkpt lat="42.4234260" lon="-3.1499340">
        <ele>812.0</ele>
        <time>2020-04-02T17:56:51Z</time>
      </trkpt>
      <trkpt lat="42.4233760" lon="-3.1500790">
        <ele>812.1</ele>
        <time>2020-04-02T17:56:53Z</time>
      </trkpt>
      <trkpt lat="42.4233240" lon="-3.1502310">
        <ele>812.1</ele>
        <time>2020-04-02T17:56:55Z</time>
      </trkpt>
      <trkpt lat="42.4231970" lon="-3.1506010">
        <ele>812.4</ele>
        <time>2020-04-02T17:56:57Z</time>
      </trkpt>
      <trkpt lat="42.4231430" lon="-3.1507580">
        <ele>812.5</ele>
        <time>2020-04-02T17:56:59Z</time>
      </trkpt>
      <trkpt lat="42.4230890" lon="-3.1509170">
        <ele>812.6</ele>
        <time>2020-04-02T17:57:01Z</time>
      </trkpt>
      <trkpt lat="42.4229600" lon="-3.1512940">
        <ele>812.8</ele>
        <time>2020-04-02T17:57:03Z</time>
      </trkpt>
      <trkpt lat="42.4229040" lon="-3.1514560">
        <ele>812.8</ele>
        <time>2020-04-02T17:57:05Z</time>
      </trkpt>
      <trkpt lat="42.4228490" lon="-3.1516170">
        <ele>813.0</ele>
        <time>2020-04-02T17:57:07Z</time>
      </trkpt>
      <trkpt lat="42.4227930" lon="-3.1517810">
        <ele>813.2</ele>
        <time>2020-04-02T17:57:09Z</time>
      </trkpt>
      <trkpt lat="42.4226660" lon="-3.1521640">
        <ele>813.4</ele>
        <time>2020-04-02T17:57:11Z</time>
      </trkpt>
      <trkpt lat="42.4226200" lon="-3.1523350">
        <ele>813.5</ele>
        <time>2020-04-02T17:57:13Z</time>
      </trkpt>
      <trkpt lat="42.4225740" lon="-3.1525060">
        <ele>813.5</ele>
        <time>2020-04-02T17:57:15Z</time>
      </trkpt>
      <trkpt lat="42.4225280" lon="-3.1526770">
        <ele>813.5</ele>
        <time>2020-04-02T17:57:17Z</time>
      </trkpt>
      <trkpt lat="42.4224180" lon="-3.1530690">
        <ele>813.7</ele>
        <time>2020-04-02T17:57:19Z</time>
      </trkpt>
      <trkpt lat="42.4223650" lon="-3.1532300">
        <ele>814.1</ele>
        <time>2020-04-02T17:57:21Z</time>
      </trkpt>
      <trkpt lat="42.4223130" lon="-3.1533880">
        <ele>814.5</ele>
        <time>2020-04-02T17:57:23Z</time>
      </trkpt>
      <trkpt lat="42.4222620" lon="-3.1535440">
        <ele>815.0</ele>
        <time>2020-04-02T17:57:25Z</time>
      </trkpt>
      <trkpt lat="42.4221320" lon="-3.1539420">
        <ele>815.7</ele>
        <time>2020-04-02T17:57:27Z</time>
      </trkpt>
      <trkpt lat="42.4220820" lon="-3.1540950">
        <ele>815.9</ele>
        <time>2020-04-02T17:57:29Z</time>
      </trkpt>
      <trkpt lat="42.4220330" lon="-3.1542460">
        <ele>816.2</ele>
        <time>2020-04-02T17:57:31Z</time>
      </trkpt>
      <trkpt lat="42.4219840" lon="-3.1543960">
        <ele>816.5</ele>
        <time>2020-04-02T17:57:33Z</time>
      </trkpt>
      <trkpt lat="42.4219350" lon="-3.1545450">
        <ele>816.6</ele>
        <time>2020-04-02T17:57:35Z</time>
      </trkpt>
      <trkpt lat="42.4218070" lon="-3.1549390">
        <ele>817.3</ele>
        <time>2020-04-02T17:57:37Z</time>
      </trkpt>
      <trkpt lat="42.4217570" lon="-3.1550920">
        <ele>817.5</ele>
        <time>2020-04-02T17:57:39Z</time>
      </trkpt>
      <trkpt lat="42.4217060" lon="-3.1552460">
        <ele>817.7</ele>
        <time>2020-04-02T17:57:41Z</time>
      </trkpt>
      <trkpt lat="42.4216550" lon="-3.1554030">
        <ele>817.9</ele>
        <time>2020-04-02T17:57:43Z</time>
      </trkpt>
      <trkpt lat="42.4215240" lon="-3.1558050">
        <ele>818.6</ele>
        <time>2020-04-02T17:57:45Z</time>
      </trkpt>
      <trkpt lat="42.4214720" lon="-3.1559640">
        <ele>818.7</ele>
        <time>2020-04-02T17:57:47Z</time>
      </trkpt>
      <trkpt lat="42.4214200" lon="-3.1561220">
        <ele>818.8</ele>
        <time>2020-04-02T17:57:49Z</time>
      </trkpt>
      <trkpt lat="42.4213680" lon="-3.1562820">
        <ele>818.8</ele>
        <time>2020-04-02T17:57:51Z</time>
      </trkpt>
      <trkpt lat="42.4213150" lon="-3.1564420">
        <ele>818.8</ele>
        <time>2020-04-02T17:57:53Z</time>
      </trkpt>
      <trkpt lat="42.4211830" lon="-3.1568460">
        <ele>819.0</ele>
        <time>2020-04-02T17:57:55Z</time>
      </trkpt>
      <trkpt lat="42.4211310" lon="-3.1570070">
        <ele>819.3</ele>
        <time>2020-04-02T17:57:57Z</time>
      </trkpt>
      <trkpt lat="42.4210780" lon="-3.1571670">
        <ele>819.8</ele>
        <time>2020-04-02T17:57:59Z</time>
      </trkpt>
      <trkpt lat="42.4210260" lon="-3.1573280">
        <ele>820.2</ele>
        <time>2020-04-02T17:58:01Z</time>
      </trkpt>
      <trkpt lat="42.4208940" lon="-3.1577310">
        <ele>820.9</ele>
        <time>2020-04-02T17:58:03Z</time>
      </trkpt>
      <trkpt lat="42.4208420" lon="-3.1578920">
        <ele>820.9</ele>
        <time>2020-04-02T17:58:05Z</time>
      </trkpt>
      <trkpt lat="42.4207890" lon="-3.1580520">
        <ele>820.8</ele>
        <time>2020-04-02T17:58:07Z</time>
      </trkpt>
      <trkpt lat="42.4207370" lon="-3.1582130">
        <ele>820.7</ele>
        <time>2020-04-02T17:58:09Z</time>
      </trkpt>
      <trkpt lat="42.4206070" lon="-3.1586180">
        <ele>820.4</ele>
        <time>2020-04-02T17:58:11Z</time>
      </trkpt>
      <trkpt lat="42.4205630" lon="-3.1587840">
        <ele>820.6</ele>
        <time>2020-04-02T17:58:13Z</time>
      </trkpt>
      <trkpt lat="42.4205180" lon="-3.1589500">
        <ele>820.8</ele>
        <time>2020-04-02T17:58:15Z</time>
      </trkpt>
      <trkpt lat="42.4204740" lon="-3.1591150">
        <ele>821.0</ele>
        <time>2020-04-02T17:58:17Z</time>
      </trkpt>
      <trkpt lat="42.4204290" lon="-3.1592810">
        <ele>821.3</ele>
        <time>2020-04-02T17:58:19Z</time>
      </trkpt>
      <trkpt lat="42.4203100" lon="-3.1597300">
        <ele>821.5</ele>
        <time>2020-04-02T17:58:21Z</time>
      </trkpt>
      <trkpt lat="42.4202680" lon="-3.1598960">
        <ele>821.2</ele>
        <time>2020-04-02T17:58:23Z</time>
      </trkpt>
      <trkpt lat="42.4202260" lon="-3.1600610">
        <ele>821.0</ele>
        <time>2020-04-02T17:58:25Z</time>
      </trkpt>
      <trkpt lat="42.4201840" lon="-3.1602270">
        <ele>820.9</ele>
        <time>2020-04-02T17:58:27Z</time>
      </trkpt>
      <trkpt lat="42.4201420" lon="-3.1603940">
        <ele>821.0</ele>
        <time>2020-04-02T17:58:29Z</time>
      </trkpt>
      <trkpt lat="42.4200330" lon="-3.1608270">
        <ele>822.0</ele>
        <time>2020-04-02T17:58:31Z</time>
      </trkpt>
      <trkpt lat="42.4199920" lon="-3.1609900">
        <ele>822.5</ele>
        <time>2020-04-02T17:58:33Z</time>
      </trkpt>
      <trkpt lat="42.4199510" lon="-3.1611520">
        <ele>823.0</ele>
        <time>2020-04-02T17:58:35Z</time>
      </trkpt>
      <trkpt lat="42.4199110" lon="-3.1613120">
        <ele>823.4</ele>
        <time>2020-04-02T17:58:37Z</time>
      </trkpt>
      <trkpt lat="42.4198040" lon="-3.1617360">
        <ele>824.0</ele>
        <time>2020-04-02T17:58:39Z</time>
      </trkpt>
      <trkpt lat="42.4197650" lon="-3.1618920">
        <ele>824.2</ele>
        <time>2020-04-02T17:58:41Z</time>
      </trkpt>
      <trkpt lat="42.4197260" lon="-3.1620450">
        <ele>824.4</ele>
        <time>2020-04-02T17:58:43Z</time>
      </trkpt>
      <trkpt lat="42.4196890" lon="-3.1621920">
        <ele>824.5</ele>
        <time>2020-04-02T17:58:45Z</time>
      </trkpt>
      <trkpt lat="42.4196530" lon="-3.1623340">
        <ele>824.5</ele>
        <time>2020-04-02T17:58:47Z</time>
      </trkpt>
      <trkpt lat="42.4195510" lon="-3.1627400">
        <ele>824.7</ele>
        <time>2020-04-02T17:58:49Z</time>
      </trkpt>
      <trkpt lat="42.4195150" lon="-3.1628850">
        <ele>825.0</ele>
        <time>2020-04-02T17:58:51Z</time>
      </trkpt>
      <trkpt lat="42.4194760" lon="-3.1630360">
        <ele>825.5</ele>
        <time>2020-04-02T17:58:53Z</time>
      </trkpt>
      <trkpt lat="42.4194360" lon="-3.1631960">
        <ele>825.6</ele>
        <time>2020-04-02T17:58:55Z</time>
      </trkpt>
      <trkpt lat="42.4193950" lon="-3.1633610">
        <ele>825.2</ele>
        <time>2020-04-02T17:58:57Z</time>
      </trkpt>
      <trkpt lat="42.4192850" lon="-3.1637950">
        <ele>824.3</ele>
        <time>2020-04-02T17:58:59Z</time>
      </trkpt>
      <trkpt lat="42.4192420" lon="-3.1639660">
        <ele>823.9</ele>
        <time>2020-04-02T17:59:01Z</time>
      </trkpt>
      <trkpt lat="42.4191980" lon="-3.1641410">
        <ele>823.6</ele>
        <time>2020-04-02T17:59:03Z</time>
      </trkpt>
      <trkpt lat="42.4191530" lon="-3.1643180">
        <ele>823.3</ele>
        <time>2020-04-02T17:59:05Z</time>
      </trkpt>
      <trkpt lat="42.4190420" lon="-3.1647620">
        <ele>822.6</ele>
        <time>2020-04-02T17:59:07Z</time>
      </trkpt>
      <trkpt lat="42.4189980" lon="-3.1649370">
        <ele>822.4</ele>
        <time>2020-04-02T17:59:09Z</time>
      </trkpt>
      <trkpt lat="42.4189550" lon="-3.1651060">
        <ele>822.2</ele>
        <time>2020-04-02T17:59:11Z</time>
      </trkpt>
      <trkpt lat="42.4189130" lon="-3.1652730">
        <ele>822.0</ele>
        <time>2020-04-02T17:59:13Z</time>
      </trkpt>
      <trkpt lat="42.4188720" lon="-3.1654360">
        <ele>821.9</ele>
        <time>2020-04-02T17:59:15Z</time>
      </trkpt>
      <trkpt lat="42.4187490" lon="-3.1658560">
        <ele>821.6</ele>
        <time>2020-04-02T17:59:17Z</time>
      </trkpt>
      <trkpt lat="42.4186910" lon="-3.1660550">
        <ele>821.6</ele>
        <time>2020-04-02T17:59:19Z</time>
      </trkpt>
      <trkpt lat="42.4186490" lon="-3.1662190">
        <ele>821.6</ele>
        <time>2020-04-02T17:59:21Z</time>
      </trkpt>
      <trkpt lat="42.4186070" lon="-3.1663850">
        <ele>821.6</ele>
        <time>2020-04-02T17:59:23Z</time>
      </trkpt>
      <trkpt lat="42.4185650" lon="-3.1665540">
        <ele>821.5</ele>
        <time>2020-04-02T17:59:25Z</time>
      </trkpt>
      <trkpt lat="42.4184580" lon="-3.1669780">
        <ele>820.7</ele>
        <time>2020-04-02T17:59:27Z</time>
      </trkpt>
      <trkpt lat="42.4184150" lon="-3.1671480">
        <ele>820.6</ele>
        <time>2020-04-02T17:59:29Z</time>
      </trkpt>
      <trkpt lat="42.4183710" lon="-3.1673200">
        <ele>820.3</ele>
        <time>2020-04-02T17:59:31Z</time>
      </trkpt>
      <trkpt lat="42.4183280" lon="-3.1674920">
        <ele>819.9</ele>
        <time>2020-04-02T17:59:33Z</time>
      </trkpt>
      <trkpt lat="42.4182200" lon="-3.1679210">
        <ele>819.5</ele>
        <time>2020-04-02T17:59:35Z</time>
      </trkpt>
      <trkpt lat="42.4181760" lon="-3.1680930">
        <ele>819.2</ele>
        <time>2020-04-02T17:59:37Z</time>
      </trkpt>
      <trkpt lat="42.4181320" lon="-3.1682670">
        <ele>818.9</ele>
        <time>2020-04-02T17:59:39Z</time>
      </trkpt>
      <trkpt lat="42.4180880" lon="-3.1684420">
        <ele>818.7</ele>
        <time>2020-04-02T17:59:41Z</time>
      </trkpt>
      <trkpt lat="42.4179800" lon="-3.1688710">
        <ele>818.1</ele>
        <time>2020-04-02T17:59:43Z</time>
      </trkpt>
      <trkpt lat="42.4179350" lon="-3.1690470">
        <ele>817.8</ele>
        <time>2020-04-02T17:59:45Z</time>
      </trkpt>
      <trkpt lat="42.4178910" lon="-3.1692240">
        <ele>817.7</ele>
        <time>2020-04-02T17:59:47Z</time>
      </trkpt>
      <trkpt lat="42.4178460" lon="-3.1694010">
        <ele>817.6</ele>
        <time>2020-04-02T17:59:49Z</time>
      </trkpt>
      <trkpt lat="42.4177370" lon="-3.1698320">
        <ele>817.1</ele>
        <time>2020-04-02T17:59:51Z</time>
      </trkpt>
      <trkpt lat="42.4176920" lon="-3.1700080">
        <ele>816.8</ele>
        <time>2020-04-02T17:59:53Z</time>
      </trkpt>
      <trkpt lat="42.4176480" lon="-3.1701840">
        <ele>816.7</ele>
        <time>2020-04-02T17:59:55Z</time>
      </trkpt>
      <trkpt lat="42.4176040" lon="-3.1703580">
        <ele>816.5</ele>
        <time>2020-04-02T17:59:57Z</time>
      </trkpt>
      <trkpt lat="42.4174950" lon="-3.1707880">
        <ele>815.8</ele>
        <time>2020-04-02T17:59:59Z</time>
      </trkpt>
      <trkpt lat="42.4174500" lon="-3.1709630">
        <ele>815.7</ele>
        <time>2020-04-02T18:00:01Z</time>
      </trkpt>
      <trkpt lat="42.4174040" lon="-3.1711370">
        <ele>815.7</ele>
        <time>2020-04-02T18:00:03Z</time>
      </trkpt>
      <trkpt lat="42.4173590" lon="-3.1713100">
        <ele>815.7</ele>
        <time>2020-04-02T18:00:05Z</time>
      </trkpt>
      <trkpt lat="42.4172500" lon="-3.1717260">
        <ele>815.2</ele>
        <time>2020-04-02T18:00:07Z</time>
      </trkpt>
      <trkpt lat="42.4172050" lon="-3.1718970">
        <ele>814.9</ele>
        <time>2020-04-02T18:00:09Z</time>
      </trkpt>
      <trkpt lat="42.4171610" lon="-3.1720650">
        <ele>814.7</ele>
        <time>2020-04-02T18:00:11Z</time>
      </trkpt>
      <trkpt lat="42.4171180" lon="-3.1722300">
        <ele>814.7</ele>
        <time>2020-04-02T18:00:13Z</time>
      </trkpt>
      <trkpt lat="42.4170120" lon="-3.1726350">
        <ele>814.7</ele>
        <time>2020-04-02T18:00:15Z</time>
      </trkpt>
      <trkpt lat="42.4169700" lon="-3.1727980">
        <ele>814.7</ele>
        <time>2020-04-02T18:00:17Z</time>
      </trkpt>
      <trkpt lat="42.4169270" lon="-3.1729610">
        <ele>814.7</ele>
        <time>2020-04-02T18:00:19Z</time>
      </trkpt>
      <trkpt lat="42.4168840" lon="-3.1731250">
        <ele>814.7</ele>
        <time>2020-04-02T18:00:21Z</time>
      </trkpt>
      <trkpt lat="42.4167780" lon="-3.1735290">
        <ele>814.6</ele>
        <time>2020-04-02T18:00:23Z</time>
      </trkpt>
      <trkpt lat="42.4167340" lon="-3.1736960">
        <ele>814.2</ele>
        <time>2020-04-02T18:00:25Z</time>
      </trkpt>
      <trkpt lat="42.4166880" lon="-3.1738730">
        <ele>813.4</ele>
        <time>2020-04-02T18:00:27Z</time>
      </trkpt>
      <trkpt lat="42.4166400" lon="-3.1740580">
        <ele>812.2</ele>
        <time>2020-04-02T18:00:29Z</time>
      </trkpt>
      <trkpt lat="42.4165230" lon="-3.1744830">
        <ele>809.7</ele>
        <time>2020-04-02T18:00:31Z</time>
      </trkpt>
      <trkpt lat="42.4164740" lon="-3.1747150">
        <ele>809.7</ele>
        <time>2020-04-02T18:00:33Z</time>
      </trkpt>
      <trkpt lat="42.4164240" lon="-3.1749860">
        <ele>809.7</ele>
        <time>2020-04-02T18:00:35Z</time>
      </trkpt>
      <trkpt lat="42.4163740" lon="-3.1751870">
        <ele>809.6</ele>
        <time>2020-04-02T18:00:37Z</time>
      </trkpt>
      <trkpt lat="42.4163250" lon="-3.1753880">
        <ele>809.5</ele>
        <time>2020-04-02T18:00:39Z</time>
      </trkpt>
      <trkpt lat="42.4162750" lon="-3.1755910">
        <ele>809.1</ele>
        <time>2020-04-02T18:00:41Z</time>
      </trkpt>
      <trkpt lat="42.4161540" lon="-3.1760800">
        <ele>807.6</ele>
        <time>2020-04-02T18:00:43Z</time>
      </trkpt>
      <trkpt lat="42.4161040" lon="-3.1762850">
        <ele>807.0</ele>
        <time>2020-04-02T18:00:45Z</time>
      </trkpt>
      <trkpt lat="42.4160530" lon="-3.1764900">
        <ele>806.2</ele>
        <time>2020-04-02T18:00:47Z</time>
      </trkpt>
      <trkpt lat="42.4160020" lon="-3.1766950">
        <ele>805.5</ele>
        <time>2020-04-02T18:00:49Z</time>
      </trkpt>
      <trkpt lat="42.4158980" lon="-3.1771910">
        <ele>803.8</ele>
        <time>2020-04-02T18:00:51Z</time>
      </trkpt>
      <trkpt lat="42.4158690" lon="-3.1773940">
        <ele>803.2</ele>
        <time>2020-04-02T18:00:53Z</time>
      </trkpt>
      <trkpt lat="42.4158190" lon="-3.1777840">
        <ele>802.8</ele>
        <time>2020-04-02T18:00:55Z</time>
      </trkpt>
      <trkpt lat="42.4158120" lon="-3.1779860">
        <ele>802.9</ele>
        <time>2020-04-02T18:00:57Z</time>
      </trkpt>
      <trkpt lat="42.4158060" lon="-3.1781870">
        <ele>802.9</ele>
        <time>2020-04-02T18:00:59Z</time>
      </trkpt>
      <trkpt lat="42.4157990" lon="-3.1783870">
        <ele>802.6</ele>
        <time>2020-04-02T18:01:01Z</time>
      </trkpt>
      <trkpt lat="42.4158020" lon="-3.1788220">
        <ele>801.2</ele>
        <time>2020-04-02T18:01:03Z</time>
      </trkpt>
      <trkpt lat="42.4158160" lon="-3.1790150">
        <ele>800.4</ele>
        <time>2020-04-02T18:01:05Z</time>
      </trkpt>
      <trkpt lat="42.4158520" lon="-3.1793420">
        <ele>799.5</ele>
        <time>2020-04-02T18:01:07Z</time>
      </trkpt>
      <trkpt lat="42.4158810" lon="-3.1795280">
        <ele>799.2</ele>
        <time>2020-04-02T18:01:09Z</time>
      </trkpt>
      <trkpt lat="42.4159860" lon="-3.1798050">
        <ele>798.5</ele>
        <time>2020-04-02T18:01:11Z</time>
      </trkpt>
      <trkpt lat="42.4161750" lon="-3.1798610">
        <ele>798.8</ele>
        <time>2020-04-02T18:01:13Z</time>
      </trkpt>
      <trkpt lat="42.4163160" lon="-3.1799430">
        <ele>798.8</ele>
        <time>2020-04-02T18:01:15Z</time>
      </trkpt>
      <trkpt lat="42.4164070" lon="-3.1800690">
        <ele>798.8</ele>
        <time>2020-04-02T18:01:17Z</time>
      </trkpt>
      <trkpt lat="42.4164960" lon="-3.1801930">
        <ele>798.8</ele>
        <time>2020-04-02T18:01:19Z</time>
      </trkpt>
      <trkpt lat="42.4166950" lon="-3.1804650">
        <ele>798.9</ele>
        <time>2020-04-02T18:01:21Z</time>
      </trkpt>
      <trkpt lat="42.4167950" lon="-3.1805680">
        <ele>798.9</ele>
        <time>2020-04-02T18:01:23Z</time>
      </trkpt>
      <trkpt lat="42.4168940" lon="-3.1806700">
        <ele>798.9</ele>
        <time>2020-04-02T18:01:25Z</time>
      </trkpt>
      <trkpt lat="42.4170690" lon="-3.1808770">
        <ele>798.6</ele>
        <time>2020-04-02T18:01:27Z</time>
      </trkpt>
      <trkpt lat="42.4171510" lon="-3.1810030">
        <ele>798.5</ele>
        <time>2020-04-02T18:01:29Z</time>
      </trkpt>
      <trkpt lat="42.4172320" lon="-3.1811290">
        <ele>798.3</ele>
        <time>2020-04-02T18:01:31Z</time>
      </trkpt>
      <trkpt lat="42.4173140" lon="-3.1812560">
        <ele>798.2</ele>
        <time>2020-04-02T18:01:33Z</time>
      </trkpt>
      <trkpt lat="42.4175200" lon="-3.1815840">
        <ele>798.1</ele>
        <time>2020-04-02T18:01:35Z</time>
      </trkpt>
      <trkpt lat="42.4175790" lon="-3.1817290">
        <ele>798.1</ele>
        <time>2020-04-02T18:01:37Z</time>
      </trkpt>
      <trkpt lat="42.4176790" lon="-3.1819780">
        <ele>798.0</ele>
        <time>2020-04-02T18:01:39Z</time>
      </trkpt>
      <trkpt lat="42.4177320" lon="-3.1821400">
        <ele>797.9</ele>
        <time>2020-04-02T18:01:41Z</time>
      </trkpt>
      <trkpt lat="42.4178090" lon="-3.1824100">
        <ele>797.3</ele>
        <time>2020-04-02T18:01:43Z</time>
      </trkpt>
      <trkpt lat="42.4178560" lon="-3.1826060">
        <ele>795.7</ele>
        <time>2020-04-02T18:01:45Z</time>
      </trkpt>
      <trkpt lat="42.4179280" lon="-3.1829550">
        <ele>793.5</ele>
        <time>2020-04-02T18:01:47Z</time>
      </trkpt>
      <trkpt lat="42.4179600" lon="-3.1831730">
        <ele>792.4</ele>
        <time>2020-04-02T18:01:49Z</time>
      </trkpt>
      <trkpt lat="42.4180240" lon="-3.1835930">
        <ele>790.8</ele>
        <time>2020-04-02T18:01:51Z</time>
      </trkpt>
      <trkpt lat="42.4180910" lon="-3.1838050">
        <ele>790.1</ele>
        <time>2020-04-02T18:01:53Z</time>
      </trkpt>
      <trkpt lat="42.4181580" lon="-3.1840130">
        <ele>789.6</ele>
        <time>2020-04-02T18:01:55Z</time>
      </trkpt>
      <trkpt lat="42.4182240" lon="-3.1842200">
        <ele>788.9</ele>
        <time>2020-04-02T18:01:57Z</time>
      </trkpt>
      <trkpt lat="42.4183270" lon="-3.1846690">
        <ele>787.6</ele>
        <time>2020-04-02T18:01:59Z</time>
      </trkpt>
      <trkpt lat="42.4183560" lon="-3.1848880">
        <ele>787.1</ele>
        <time>2020-04-02T18:02:01Z</time>
      </trkpt>
      <trkpt lat="42.4183990" lon="-3.1852660">
        <ele>786.2</ele>
        <time>2020-04-02T18:02:03Z</time>
      </trkpt>
      <trkpt lat="42.4184210" lon="-3.1854870">
        <ele>785.6</ele>
        <time>2020-04-02T18:02:05Z</time>
      </trkpt>
      <trkpt lat="42.4184680" lon="-3.1859180">
        <ele>784.2</ele>
        <time>2020-04-02T18:02:07Z</time>
      </trkpt>
      <trkpt lat="42.4185820" lon="-3.1861770">
        <ele>783.3</ele>
        <time>2020-04-02T18:02:10Z</time>
      </trkpt>
      <trkpt lat="42.4186930" lon="-3.1863400">
        <ele>782.8</ele>
        <time>2020-04-02T18:02:12Z</time>
      </trkpt>
      <trkpt lat="42.4188050" lon="-3.1865030">
        <ele>782.3</ele>
        <time>2020-04-02T18:02:14Z</time>
      </trkpt>
      <trkpt lat="42.4190260" lon="-3.1868190">
        <ele>780.9</ele>
        <time>2020-04-02T18:02:16Z</time>
      </trkpt>
      <trkpt lat="42.4192000" lon="-3.1870400">
        <ele>780.0</ele>
        <time>2020-04-02T18:02:18Z</time>
      </trkpt>
      <trkpt lat="42.4193000" lon="-3.1872040">
        <ele>779.5</ele>
        <time>2020-04-02T18:02:20Z</time>
      </trkpt>
      <trkpt lat="42.4194090" lon="-3.1874500">
        <ele>778.9</ele>
        <time>2020-04-02T18:02:22Z</time>
      </trkpt>
      <trkpt lat="42.4195290" lon="-3.1877280">
        <ele>778.3</ele>
        <time>2020-04-02T18:02:24Z</time>
      </trkpt>
      <trkpt lat="42.4196660" lon="-3.1878920">
        <ele>778.1</ele>
        <time>2020-04-02T18:02:26Z</time>
      </trkpt>
      <trkpt lat="42.4198540" lon="-3.1880590">
        <ele>777.5</ele>
        <time>2020-04-02T18:02:28Z</time>
      </trkpt>
      <trkpt lat="42.4199850" lon="-3.1881450">
        <ele>777.4</ele>
        <time>2020-04-02T18:02:30Z</time>
      </trkpt>
      <trkpt lat="42.4201740" lon="-3.1883100">
        <ele>777.1</ele>
        <time>2020-04-02T18:02:32Z</time>
      </trkpt>
      <trkpt lat="42.4203420" lon="-3.1884590">
        <ele>776.3</ele>
        <time>2020-04-02T18:02:34Z</time>
      </trkpt>
      <trkpt lat="42.4205490" lon="-3.1885210">
        <ele>776.1</ele>
        <time>2020-04-02T18:02:36Z</time>
      </trkpt>
      <trkpt lat="42.4207400" lon="-3.1885570">
        <ele>775.6</ele>
        <time>2020-04-02T18:02:38Z</time>
      </trkpt>
      <trkpt lat="42.4207540" lon="-3.1887540">
        <ele>774.7</ele>
        <time>2020-04-02T18:02:40Z</time>
      </trkpt>
      <trkpt lat="42.4207670" lon="-3.1889560">
        <ele>774.1</ele>
        <time>2020-04-02T18:02:42Z</time>
      </trkpt>
      <trkpt lat="42.4209040" lon="-3.1891440">
        <ele>773.0</ele>
        <time>2020-04-02T18:02:44Z</time>
      </trkpt>
      <trkpt lat="42.4210570" lon="-3.1891360">
        <ele>772.4</ele>
        <time>2020-04-02T18:02:46Z</time>
      </trkpt>
      <trkpt lat="42.4211970" lon="-3.1893120">
        <ele>771.8</ele>
        <time>2020-04-02T18:02:48Z</time>
      </trkpt>
      <trkpt lat="42.4212170" lon="-3.1895160">
        <ele>771.7</ele>
        <time>2020-04-02T18:02:50Z</time>
      </trkpt>
      <trkpt lat="42.4212360" lon="-3.1897170">
        <ele>771.6</ele>
        <time>2020-04-02T18:02:52Z</time>
      </trkpt>
      <trkpt lat="42.4212540" lon="-3.1901620">
        <ele>770.9</ele>
        <time>2020-04-02T18:02:54Z</time>
      </trkpt>
      <trkpt lat="42.4211930" lon="-3.1903960">
        <ele>770.1</ele>
        <time>2020-04-02T18:02:56Z</time>
      </trkpt>
      <trkpt lat="42.4211360" lon="-3.1905840">
        <ele>769.6</ele>
        <time>2020-04-02T18:02:58Z</time>
      </trkpt>
      <trkpt lat="42.4210790" lon="-3.1907730">
        <ele>769.3</ele>
        <time>2020-04-02T18:03:00Z</time>
      </trkpt>
      <trkpt lat="42.4210210" lon="-3.1909620">
        <ele>768.8</ele>
        <time>2020-04-02T18:03:02Z</time>
      </trkpt>
      <trkpt lat="42.4208720" lon="-3.1914330">
        <ele>767.4</ele>
        <time>2020-04-02T18:03:04Z</time>
      </trkpt>
      <trkpt lat="42.4208070" lon="-3.1916080">
        <ele>767.2</ele>
        <time>2020-04-02T18:03:06Z</time>
      </trkpt>
      <trkpt lat="42.4207440" lon="-3.1917770">
        <ele>767.2</ele>
        <time>2020-04-02T18:03:08Z</time>
      </trkpt>
      <trkpt lat="42.4206080" lon="-3.1921440">
        <ele>767.5</ele>
        <time>2020-04-02T18:03:10Z</time>
      </trkpt>
      <trkpt lat="42.4205480" lon="-3.1923050">
        <ele>767.9</ele>
        <time>2020-04-02T18:03:12Z</time>
      </trkpt>
      <trkpt lat="42.4204900" lon="-3.1924630">
        <ele>768.2</ele>
        <time>2020-04-02T18:03:14Z</time>
      </trkpt>
      <trkpt lat="42.4204320" lon="-3.1926180">
        <ele>768.1</ele>
        <time>2020-04-02T18:03:16Z</time>
      </trkpt>
      <trkpt lat="42.4203010" lon="-3.1929730">
        <ele>767.9</ele>
        <time>2020-04-02T18:03:18Z</time>
      </trkpt>
      <trkpt lat="42.4202450" lon="-3.1931230">
        <ele>767.8</ele>
        <time>2020-04-02T18:03:20Z</time>
      </trkpt>
      <trkpt lat="42.4201900" lon="-3.1932730">
        <ele>767.7</ele>
        <time>2020-04-02T18:03:22Z</time>
      </trkpt>
      <trkpt lat="42.4201350" lon="-3.1934200">
        <ele>767.6</ele>
        <time>2020-04-02T18:03:24Z</time>
      </trkpt>
      <trkpt lat="42.4199920" lon="-3.1937590">
        <ele>767.4</ele>
        <time>2020-04-02T18:03:26Z</time>
      </trkpt>
      <trkpt lat="42.4199200" lon="-3.1938930">
        <ele>767.5</ele>
        <time>2020-04-02T18:03:28Z</time>
      </trkpt>
      <trkpt lat="42.4198470" lon="-3.1940300">
        <ele>767.5</ele>
        <time>2020-04-02T18:03:30Z</time>
      </trkpt>
      <trkpt lat="42.4197740" lon="-3.1941670">
        <ele>767.5</ele>
        <time>2020-04-02T18:03:32Z</time>
      </trkpt>
      <trkpt lat="42.4195970" lon="-3.1944990">
        <ele>767.6</ele>
        <time>2020-04-02T18:03:34Z</time>
      </trkpt>
      <trkpt lat="42.4195240" lon="-3.1946370">
        <ele>767.5</ele>
        <time>2020-04-02T18:03:36Z</time>
      </trkpt>
      <trkpt lat="42.4194500" lon="-3.1947740">
        <ele>767.4</ele>
        <time>2020-04-02T18:03:38Z</time>
      </trkpt>
      <trkpt lat="42.4193770" lon="-3.1949120">
        <ele>767.2</ele>
        <time>2020-04-02T18:03:40Z</time>
      </trkpt>
      <trkpt lat="42.4191860" lon="-3.1952300">
        <ele>767.0</ele>
        <time>2020-04-02T18:03:42Z</time>
      </trkpt>
      <trkpt lat="42.4190930" lon="-3.1953450">
        <ele>767.0</ele>
        <time>2020-04-02T18:03:44Z</time>
      </trkpt>
      <trkpt lat="42.4189300" lon="-3.1955630">
        <ele>766.9</ele>
        <time>2020-04-02T18:03:46Z</time>
      </trkpt>
      <trkpt lat="42.4188500" lon="-3.1957500">
        <ele>766.7</ele>
        <time>2020-04-02T18:03:48Z</time>
      </trkpt>
      <trkpt lat="42.4188200" lon="-3.1959710">
        <ele>766.3</ele>
        <time>2020-04-02T18:03:50Z</time>
      </trkpt>
      <trkpt lat="42.4188200" lon="-3.1961450">
        <ele>766.1</ele>
        <time>2020-04-02T18:03:52Z</time>
      </trkpt>
      <trkpt lat="42.4188030" lon="-3.1964400">
        <ele>766.1</ele>
        <time>2020-04-02T18:03:54Z</time>
      </trkpt>
      <trkpt lat="42.4187530" lon="-3.1966590">
        <ele>766.1</ele>
        <time>2020-04-02T18:03:56Z</time>
      </trkpt>
      <trkpt lat="42.4187070" lon="-3.1968240">
        <ele>766.0</ele>
        <time>2020-04-02T18:03:58Z</time>
      </trkpt>
      <trkpt lat="42.4186130" lon="-3.1971220">
        <ele>765.7</ele>
        <time>2020-04-02T18:04:00Z</time>
      </trkpt>
      <trkpt lat="42.4185490" lon="-3.1972720">
        <ele>765.5</ele>
        <time>2020-04-02T18:04:02Z</time>
      </trkpt>
      <trkpt lat="42.4184640" lon="-3.1975200">
        <ele>765.3</ele>
        <time>2020-04-02T18:04:04Z</time>
      </trkpt>
      <trkpt lat="42.4184250" lon="-3.1976830">
        <ele>765.2</ele>
        <time>2020-04-02T18:04:06Z</time>
      </trkpt>
      <trkpt lat="42.4183590" lon="-3.1979670">
        <ele>765.2</ele>
        <time>2020-04-02T18:04:08Z</time>
      </trkpt>
      <trkpt lat="42.4183240" lon="-3.1981310">
        <ele>765.2</ele>
        <time>2020-04-02T18:04:10Z</time>
      </trkpt>
      <trkpt lat="42.4182650" lon="-3.1984320">
        <ele>765.1</ele>
        <time>2020-04-02T18:04:12Z</time>
      </trkpt>
      <trkpt lat="42.4182490" lon="-3.1986030">
        <ele>765.0</ele>
        <time>2020-04-02T18:04:14Z</time>
      </trkpt>
      <trkpt lat="42.4182190" lon="-3.1988850">
        <ele>764.5</ele>
        <time>2020-04-02T18:04:16Z</time>
      </trkpt>
      <trkpt lat="42.4181940" lon="-3.1990540">
        <ele>764.2</ele>
        <time>2020-04-02T18:04:18Z</time>
      </trkpt>
      <trkpt lat="42.4181690" lon="-3.1992240">
        <ele>764.1</ele>
        <time>2020-04-02T18:04:20Z</time>
      </trkpt>
      <trkpt lat="42.4181440" lon="-3.1993940">
        <ele>764.1</ele>
        <time>2020-04-02T18:04:22Z</time>
      </trkpt>
      <trkpt lat="42.4180790" lon="-3.1997910">
        <ele>764.0</ele>
        <time>2020-04-02T18:04:24Z</time>
      </trkpt>
      <trkpt lat="42.4180430" lon="-3.1999580">
        <ele>764.1</ele>
        <time>2020-04-02T18:04:26Z</time>
      </trkpt>
      <trkpt lat="42.4180080" lon="-3.2001260">
        <ele>764.3</ele>
        <time>2020-04-02T18:04:28Z</time>
      </trkpt>
      <trkpt lat="42.4179720" lon="-3.2002940">
        <ele>764.6</ele>
        <time>2020-04-02T18:04:30Z</time>
      </trkpt>
      <trkpt lat="42.4178660" lon="-3.2006830">
        <ele>764.6</ele>
        <time>2020-04-02T18:04:32Z</time>
      </trkpt>
      <trkpt lat="42.4177940" lon="-3.2008340">
        <ele>764.4</ele>
        <time>2020-04-02T18:04:34Z</time>
      </trkpt>
      <trkpt lat="42.4176460" lon="-3.2010770">
        <ele>764.0</ele>
        <time>2020-04-02T18:04:36Z</time>
      </trkpt>
      <trkpt lat="42.4176830" lon="-3.2012570">
        <ele>763.7</ele>
        <time>2020-04-02T18:04:38Z</time>
      </trkpt>
      <trkpt lat="42.4176650" lon="-3.2015000">
        <ele>763.3</ele>
        <time>2020-04-02T18:04:40Z</time>
      </trkpt>
      <trkpt lat="42.4177440" lon="-3.2016580">
        <ele>762.8</ele>
        <time>2020-04-02T18:04:42Z</time>
      </trkpt>
      <trkpt lat="42.4178780" lon="-3.2019290">
        <ele>761.8</ele>
        <time>2020-04-02T18:04:44Z</time>
      </trkpt>
      <trkpt lat="42.4179500" lon="-3.2020910">
        <ele>761.3</ele>
        <time>2020-04-02T18:04:46Z</time>
      </trkpt>
      <trkpt lat="42.4180190" lon="-3.2022450">
        <ele>761.0</ele>
        <time>2020-04-02T18:04:48Z</time>
      </trkpt>
      <trkpt lat="42.4180850" lon="-3.2023940">
        <ele>760.8</ele>
        <time>2020-04-02T18:04:50Z</time>
      </trkpt>
      <trkpt lat="42.4182370" lon="-3.2027270">
        <ele>760.6</ele>
        <time>2020-04-02T18:04:52Z</time>
      </trkpt>
      <trkpt lat="42.4183040" lon="-3.2028670">
        <ele>760.5</ele>
        <time>2020-04-02T18:04:54Z</time>
      </trkpt>
      <trkpt lat="42.4183710" lon="-3.2030050">
        <ele>760.6</ele>
        <time>2020-04-02T18:04:56Z</time>
      </trkpt>
      <trkpt lat="42.4184850" lon="-3.2032970">
        <ele>761.9</ele>
        <time>2020-04-02T18:04:58Z</time>
      </trkpt>
      <trkpt lat="42.4185220" lon="-3.2034940">
        <ele>762.6</ele>
        <time>2020-04-02T18:05:00Z</time>
      </trkpt>
      <trkpt lat="42.4185440" lon="-3.2036380">
        <ele>763.0</ele>
        <time>2020-04-02T18:05:02Z</time>
      </trkpt>
      <trkpt lat="42.4185640" lon="-3.2038990">
        <ele>763.6</ele>
        <time>2020-04-02T18:05:04Z</time>
      </trkpt>
      <trkpt lat="42.4185550" lon="-3.2040350">
        <ele>764.0</ele>
        <time>2020-04-02T18:05:06Z</time>
      </trkpt>
      <trkpt lat="42.4185080" lon="-3.2042380">
        <ele>764.8</ele>
        <time>2020-04-02T18:05:08Z</time>
      </trkpt>
      <trkpt lat="42.4184670" lon="-3.2043560">
        <ele>765.3</ele>
        <time>2020-04-02T18:05:10Z</time>
      </trkpt>
      <trkpt lat="42.4183840" lon="-3.2045550">
        <ele>766.1</ele>
        <time>2020-04-02T18:05:12Z</time>
      </trkpt>
      <trkpt lat="42.4183310" lon="-3.2046630">
        <ele>766.5</ele>
        <time>2020-04-02T18:05:14Z</time>
      </trkpt>
      <trkpt lat="42.4182790" lon="-3.2047690">
        <ele>766.8</ele>
        <time>2020-04-02T18:05:16Z</time>
      </trkpt>
      <trkpt lat="42.4181840" lon="-3.2049990">
        <ele>767.9</ele>
        <time>2020-04-02T18:05:18Z</time>
      </trkpt>
      <trkpt lat="42.4181430" lon="-3.2051200">
        <ele>768.4</ele>
        <time>2020-04-02T18:05:20Z</time>
      </trkpt>
      <trkpt lat="42.4181020" lon="-3.2052430">
        <ele>769.0</ele>
        <time>2020-04-02T18:05:22Z</time>
      </trkpt>
      <trkpt lat="42.4179930" lon="-3.2054790">
        <ele>769.7</ele>
        <time>2020-04-02T18:05:24Z</time>
      </trkpt>
      <trkpt lat="42.4179220" lon="-3.2055800">
        <ele>769.8</ele>
        <time>2020-04-02T18:05:26Z</time>
      </trkpt>
      <trkpt lat="42.4177780" lon="-3.2057600">
        <ele>770.0</ele>
        <time>2020-04-02T18:05:28Z</time>
      </trkpt>
      <trkpt lat="42.4176500" lon="-3.2058350">
        <ele>770.2</ele>
        <time>2020-04-02T18:05:30Z</time>
      </trkpt>
      <trkpt lat="42.4175720" lon="-3.2059330">
        <ele>770.5</ele>
        <time>2020-04-02T18:05:32Z</time>
      </trkpt>
      <trkpt lat="42.4174520" lon="-3.2060910">
        <ele>771.0</ele>
        <time>2020-04-02T18:05:34Z</time>
      </trkpt>
      <trkpt lat="42.4173390" lon="-3.2062600">
        <ele>771.4</ele>
        <time>2020-04-02T18:05:36Z</time>
      </trkpt>
      <trkpt lat="42.4172740" lon="-3.2063840">
        <ele>771.6</ele>
        <time>2020-04-02T18:05:38Z</time>
      </trkpt>
      <trkpt lat="42.4172080" lon="-3.2065120">
        <ele>771.8</ele>
        <time>2020-04-02T18:05:40Z</time>
      </trkpt>
      <trkpt lat="42.4171410" lon="-3.2066400">
        <ele>772.0</ele>
        <time>2020-04-02T18:05:42Z</time>
      </trkpt>
      <trkpt lat="42.4170730" lon="-3.2067690">
        <ele>772.1</ele>
        <time>2020-04-02T18:05:44Z</time>
      </trkpt>
      <trkpt lat="42.4168880" lon="-3.2071300">
        <ele>772.6</ele>
        <time>2020-04-02T18:05:46Z</time>
      </trkpt>
      <trkpt lat="42.4168350" lon="-3.2072720">
        <ele>772.8</ele>
        <time>2020-04-02T18:05:48Z</time>
      </trkpt>
      <trkpt lat="42.4167820" lon="-3.2074120">
        <ele>773.0</ele>
        <time>2020-04-02T18:05:50Z</time>
      </trkpt>
      <trkpt lat="42.4167300" lon="-3.2075500">
        <ele>773.2</ele>
        <time>2020-04-02T18:05:52Z</time>
      </trkpt>
      <trkpt lat="42.4166080" lon="-3.2078740">
        <ele>773.6</ele>
        <time>2020-04-02T18:05:54Z</time>
      </trkpt>
      <trkpt lat="42.4165560" lon="-3.2080110">
        <ele>773.7</ele>
        <time>2020-04-02T18:05:56Z</time>
      </trkpt>
      <trkpt lat="42.4165040" lon="-3.2081470">
        <ele>773.9</ele>
        <time>2020-04-02T18:05:58Z</time>
      </trkpt>
      <trkpt lat="42.4164540" lon="-3.2082820">
        <ele>774.2</ele>
        <time>2020-04-02T18:06:00Z</time>
      </trkpt>
      <trkpt lat="42.4163530" lon="-3.2086130">
        <ele>775.5</ele>
        <time>2020-04-02T18:06:02Z</time>
      </trkpt>
      <trkpt lat="42.4163400" lon="-3.2087630">
        <ele>775.9</ele>
        <time>2020-04-02T18:06:04Z</time>
      </trkpt>
      <trkpt lat="42.4162830" lon="-3.2089870">
        <ele>776.2</ele>
        <time>2020-04-02T18:06:06Z</time>
      </trkpt>
      <trkpt lat="42.4162070" lon="-3.2091860">
        <ele>776.4</ele>
        <time>2020-04-02T18:06:08Z</time>
      </trkpt>
      <trkpt lat="42.4161730" lon="-3.2093270">
        <ele>776.5</ele>
        <time>2020-04-02T18:06:10Z</time>
      </trkpt>
      <trkpt lat="42.4161390" lon="-3.2094680">
        <ele>776.7</ele>
        <time>2020-04-02T18:06:12Z</time>
      </trkpt>
      <trkpt lat="42.4161060" lon="-3.2096080">
        <ele>777.1</ele>
        <time>2020-04-02T18:06:14Z</time>
      </trkpt>
      <trkpt lat="42.4160720" lon="-3.2097490">
        <ele>777.6</ele>
        <time>2020-04-02T18:06:16Z</time>
      </trkpt>
      <trkpt lat="42.4159590" lon="-3.2101510">
        <ele>778.9</ele>
        <time>2020-04-02T18:06:18Z</time>
      </trkpt>
      <trkpt lat="42.4158950" lon="-3.2102670">
        <ele>779.3</ele>
        <time>2020-04-02T18:06:20Z</time>
      </trkpt>
      <trkpt lat="42.4158320" lon="-3.2103810">
        <ele>779.6</ele>
        <time>2020-04-02T18:06:22Z</time>
      </trkpt>
      <trkpt lat="42.4157690" lon="-3.2104930">
        <ele>779.9</ele>
        <time>2020-04-02T18:06:24Z</time>
      </trkpt>
      <trkpt lat="42.4157070" lon="-3.2106050">
        <ele>780.4</ele>
        <time>2020-04-02T18:06:26Z</time>
      </trkpt>
      <trkpt lat="42.4156460" lon="-3.2107150">
        <ele>781.0</ele>
        <time>2020-04-02T18:06:28Z</time>
      </trkpt>
      <trkpt lat="42.4154540" lon="-3.2110600">
        <ele>782.7</ele>
        <time>2020-04-02T18:06:30Z</time>
      </trkpt>
      <trkpt lat="42.4153860" lon="-3.2111620">
        <ele>783.0</ele>
        <time>2020-04-02T18:06:32Z</time>
      </trkpt>
      <trkpt lat="42.4153200" lon="-3.2112630">
        <ele>783.3</ele>
        <time>2020-04-02T18:06:34Z</time>
      </trkpt>
      <trkpt lat="42.4152010" lon="-3.2114640">
        <ele>783.8</ele>
        <time>2020-04-02T18:06:36Z</time>
      </trkpt>
      <trkpt lat="42.4151190" lon="-3.2116440">
        <ele>784.2</ele>
        <time>2020-04-02T18:06:38Z</time>
      </trkpt>
      <trkpt lat="42.4150750" lon="-3.2117690">
        <ele>784.4</ele>
        <time>2020-04-02T18:06:40Z</time>
      </trkpt>
      <trkpt lat="42.4150310" lon="-3.2118970">
        <ele>784.6</ele>
        <time>2020-04-02T18:06:42Z</time>
      </trkpt>
      <trkpt lat="42.4149870" lon="-3.2120260">
        <ele>784.7</ele>
        <time>2020-04-02T18:06:44Z</time>
      </trkpt>
      <trkpt lat="42.4149090" lon="-3.2123080">
        <ele>785.2</ele>
        <time>2020-04-02T18:06:46Z</time>
      </trkpt>
      <trkpt lat="42.4148850" lon="-3.2124470">
        <ele>785.6</ele>
        <time>2020-04-02T18:06:48Z</time>
      </trkpt>
      <trkpt lat="42.4148290" lon="-3.2126880">
        <ele>786.4</ele>
        <time>2020-04-02T18:06:50Z</time>
      </trkpt>
      <trkpt lat="42.4147840" lon="-3.2128280">
        <ele>786.9</ele>
        <time>2020-04-02T18:06:52Z</time>
      </trkpt>
      <trkpt lat="42.4147110" lon="-3.2130910">
        <ele>787.8</ele>
        <time>2020-04-02T18:06:54Z</time>
      </trkpt>
      <trkpt lat="42.4146870" lon="-3.2132500">
        <ele>788.2</ele>
        <time>2020-04-02T18:06:56Z</time>
      </trkpt>
      <trkpt lat="42.4146620" lon="-3.2134130">
        <ele>788.4</ele>
        <time>2020-04-02T18:06:58Z</time>
      </trkpt>
      <trkpt lat="42.4146000" lon="-3.2137460">
        <ele>788.5</ele>
        <time>2020-04-02T18:07:00Z</time>
      </trkpt>
      <trkpt lat="42.4145450" lon="-3.2138990">
        <ele>788.5</ele>
        <time>2020-04-02T18:07:02Z</time>
      </trkpt>
      <trkpt lat="42.4144890" lon="-3.2140540">
        <ele>788.5</ele>
        <time>2020-04-02T18:07:04Z</time>
      </trkpt>
      <trkpt lat="42.4144020" lon="-3.2143600">
        <ele>788.5</ele>
        <time>2020-04-02T18:07:06Z</time>
      </trkpt>
      <trkpt lat="42.4143680" lon="-3.2145300">
        <ele>788.5</ele>
        <time>2020-04-02T18:07:08Z</time>
      </trkpt>
      <trkpt lat="42.4142920" lon="-3.2148370">
        <ele>788.5</ele>
        <time>2020-04-02T18:07:10Z</time>
      </trkpt>
      <trkpt lat="42.4142280" lon="-3.2149910">
        <ele>788.5</ele>
        <time>2020-04-02T18:07:12Z</time>
      </trkpt>
      <trkpt lat="42.4141630" lon="-3.2151460">
        <ele>788.5</ele>
        <time>2020-04-02T18:07:14Z</time>
      </trkpt>
      <trkpt lat="42.4140340" lon="-3.2154560">
        <ele>788.4</ele>
        <time>2020-04-02T18:07:16Z</time>
      </trkpt>
      <trkpt lat="42.4139700" lon="-3.2156090">
        <ele>788.4</ele>
        <time>2020-04-02T18:07:18Z</time>
      </trkpt>
      <trkpt lat="42.4139070" lon="-3.2157620">
        <ele>788.4</ele>
        <time>2020-04-02T18:07:20Z</time>
      </trkpt>
      <trkpt lat="42.4137730" lon="-3.2160660">
        <ele>788.4</ele>
        <time>2020-04-02T18:07:22Z</time>
      </trkpt>
      <trkpt lat="42.4137040" lon="-3.2162060">
        <ele>788.4</ele>
        <time>2020-04-02T18:07:24Z</time>
      </trkpt>
      <trkpt lat="42.4136370" lon="-3.2163430">
        <ele>788.4</ele>
        <time>2020-04-02T18:07:26Z</time>
      </trkpt>
      <trkpt lat="42.4135110" lon="-3.2166300">
        <ele>789.5</ele>
        <time>2020-04-02T18:07:28Z</time>
      </trkpt>
      <trkpt lat="42.4134600" lon="-3.2167720">
        <ele>790.0</ele>
        <time>2020-04-02T18:07:30Z</time>
      </trkpt>
      <trkpt lat="42.4134100" lon="-3.2169130">
        <ele>790.3</ele>
        <time>2020-04-02T18:07:32Z</time>
      </trkpt>
      <trkpt lat="42.4133600" lon="-3.2170530">
        <ele>790.4</ele>
        <time>2020-04-02T18:07:34Z</time>
      </trkpt>
      <trkpt lat="42.4132270" lon="-3.2174270">
        <ele>790.7</ele>
        <time>2020-04-02T18:07:36Z</time>
      </trkpt>
      <trkpt lat="42.4131490" lon="-3.2176110">
        <ele>791.3</ele>
        <time>2020-04-02T18:07:38Z</time>
      </trkpt>
      <trkpt lat="42.4131030" lon="-3.2177600">
        <ele>791.8</ele>
        <time>2020-04-02T18:07:40Z</time>
      </trkpt>
      <trkpt lat="42.4130550" lon="-3.2179130">
        <ele>792.0</ele>
        <time>2020-04-02T18:07:42Z</time>
      </trkpt>
      <trkpt lat="42.4130070" lon="-3.2180660">
        <ele>791.8</ele>
        <time>2020-04-02T18:07:44Z</time>
      </trkpt>
      <trkpt lat="42.4129150" lon="-3.2183950">
        <ele>791.4</ele>
        <time>2020-04-02T18:07:46Z</time>
      </trkpt>
      <trkpt lat="42.4128720" lon="-3.2186300">
        <ele>791.2</ele>
        <time>2020-04-02T18:07:48Z</time>
      </trkpt>
      <trkpt lat="42.4128480" lon="-3.2188020">
        <ele>790.6</ele>
        <time>2020-04-02T18:07:50Z</time>
      </trkpt>
      <trkpt lat="42.4128230" lon="-3.2189770">
        <ele>790.1</ele>
        <time>2020-04-02T18:07:52Z</time>
      </trkpt>
      <trkpt lat="42.4127720" lon="-3.2193430">
        <ele>790.6</ele>
        <time>2020-04-02T18:07:54Z</time>
      </trkpt>
      <trkpt lat="42.4127470" lon="-3.2195220">
        <ele>791.2</ele>
        <time>2020-04-02T18:07:56Z</time>
      </trkpt>
      <trkpt lat="42.4127220" lon="-3.2197000">
        <ele>791.4</ele>
        <time>2020-04-02T18:07:58Z</time>
      </trkpt>
      <trkpt lat="42.4126880" lon="-3.2200670">
        <ele>791.8</ele>
        <time>2020-04-02T18:08:00Z</time>
      </trkpt>
      <trkpt lat="42.4126850" lon="-3.2202480">
        <ele>792.0</ele>
        <time>2020-04-02T18:08:02Z</time>
      </trkpt>
      <trkpt lat="42.4126760" lon="-3.2205830">
        <ele>792.4</ele>
        <time>2020-04-02T18:08:04Z</time>
      </trkpt>
      <trkpt lat="42.4126660" lon="-3.2207590">
        <ele>792.6</ele>
        <time>2020-04-02T18:08:06Z</time>
      </trkpt>
      <trkpt lat="42.4126550" lon="-3.2209340">
        <ele>793.0</ele>
        <time>2020-04-02T18:08:08Z</time>
      </trkpt>
      <trkpt lat="42.4126450" lon="-3.2211080">
        <ele>793.1</ele>
        <time>2020-04-02T18:08:10Z</time>
      </trkpt>
      <trkpt lat="42.4126050" lon="-3.2214970">
        <ele>793.1</ele>
        <time>2020-04-02T18:08:12Z</time>
      </trkpt>
      <trkpt lat="42.4125530" lon="-3.2217490">
        <ele>793.4</ele>
        <time>2020-04-02T18:08:14Z</time>
      </trkpt>
      <trkpt lat="42.4124990" lon="-3.2219670">
        <ele>793.8</ele>
        <time>2020-04-02T18:08:16Z</time>
      </trkpt>
      <trkpt lat="42.4124670" lon="-3.2221990">
        <ele>794.2</ele>
        <time>2020-04-02T18:08:18Z</time>
      </trkpt>
      <trkpt lat="42.4124570" lon="-3.2223620">
        <ele>794.4</ele>
        <time>2020-04-02T18:08:20Z</time>
      </trkpt>
      <trkpt lat="42.4124460" lon="-3.2225260">
        <ele>794.6</ele>
        <time>2020-04-02T18:08:22Z</time>
      </trkpt>
      <trkpt lat="42.4124360" lon="-3.2226870">
        <ele>794.8</ele>
        <time>2020-04-02T18:08:24Z</time>
      </trkpt>
      <trkpt lat="42.4124260" lon="-3.2228470">
        <ele>795.0</ele>
        <time>2020-04-02T18:08:26Z</time>
      </trkpt>
      <trkpt lat="42.4123960" lon="-3.2232520">
        <ele>796.0</ele>
        <time>2020-04-02T18:08:28Z</time>
      </trkpt>
      <trkpt lat="42.4123810" lon="-3.2234090">
        <ele>796.5</ele>
        <time>2020-04-02T18:08:30Z</time>
      </trkpt>
      <trkpt lat="42.4123670" lon="-3.2235640">
        <ele>797.0</ele>
        <time>2020-04-02T18:08:32Z</time>
      </trkpt>
      <trkpt lat="42.4123530" lon="-3.2237170">
        <ele>797.2</ele>
        <time>2020-04-02T18:08:34Z</time>
      </trkpt>
      <trkpt lat="42.4123390" lon="-3.2238710">
        <ele>797.6</ele>
        <time>2020-04-02T18:08:36Z</time>
      </trkpt>
      <trkpt lat="42.4122770" lon="-3.2243030">
        <ele>798.3</ele>
        <time>2020-04-02T18:08:38Z</time>
      </trkpt>
      <trkpt lat="42.4122180" lon="-3.2245390">
        <ele>798.4</ele>
        <time>2020-04-02T18:08:40Z</time>
      </trkpt>
      <trkpt lat="42.4121860" lon="-3.2247040">
        <ele>798.4</ele>
        <time>2020-04-02T18:08:42Z</time>
      </trkpt>
      <trkpt lat="42.4121530" lon="-3.2248750">
        <ele>798.3</ele>
        <time>2020-04-02T18:08:44Z</time>
      </trkpt>
      <trkpt lat="42.4120790" lon="-3.2252370">
        <ele>798.0</ele>
        <time>2020-04-02T18:08:46Z</time>
      </trkpt>
      <trkpt lat="42.4120300" lon="-3.2254070">
        <ele>797.8</ele>
        <time>2020-04-02T18:08:48Z</time>
      </trkpt>
      <trkpt lat="42.4119810" lon="-3.2255800">
        <ele>797.7</ele>
        <time>2020-04-02T18:08:50Z</time>
      </trkpt>
      <trkpt lat="42.4119300" lon="-3.2257560">
        <ele>797.8</ele>
        <time>2020-04-02T18:08:52Z</time>
      </trkpt>
      <trkpt lat="42.4118360" lon="-3.2261470">
        <ele>797.6</ele>
        <time>2020-04-02T18:08:54Z</time>
      </trkpt>
      <trkpt lat="42.4118060" lon="-3.2263240">
        <ele>797.6</ele>
        <time>2020-04-02T18:08:56Z</time>
      </trkpt>
      <trkpt lat="42.4117770" lon="-3.2265010">
        <ele>797.6</ele>
        <time>2020-04-02T18:08:58Z</time>
      </trkpt>
      <trkpt lat="42.4117070" lon="-3.2268930">
        <ele>797.5</ele>
        <time>2020-04-02T18:09:00Z</time>
      </trkpt>
      <trkpt lat="42.4116650" lon="-3.2270610">
        <ele>797.5</ele>
        <time>2020-04-02T18:09:02Z</time>
      </trkpt>
      <trkpt lat="42.4116230" lon="-3.2272260">
        <ele>797.8</ele>
        <time>2020-04-02T18:09:04Z</time>
      </trkpt>
      <trkpt lat="42.4115820" lon="-3.2273920">
        <ele>798.1</ele>
        <time>2020-04-02T18:09:06Z</time>
      </trkpt>
      <trkpt lat="42.4114790" lon="-3.2278070">
        <ele>798.7</ele>
        <time>2020-04-02T18:09:08Z</time>
      </trkpt>
      <trkpt lat="42.4114590" lon="-3.2279780">
        <ele>798.9</ele>
        <time>2020-04-02T18:09:10Z</time>
      </trkpt>
      <trkpt lat="42.4114380" lon="-3.2281500">
        <ele>799.3</ele>
        <time>2020-04-02T18:09:12Z</time>
      </trkpt>
      <trkpt lat="42.4114170" lon="-3.2283220">
        <ele>799.4</ele>
        <time>2020-04-02T18:09:14Z</time>
      </trkpt>
      <trkpt lat="42.4113960" lon="-3.2284940">
        <ele>799.6</ele>
        <time>2020-04-02T18:09:16Z</time>
      </trkpt>
      <trkpt lat="42.4113500" lon="-3.2289490">
        <ele>800.1</ele>
        <time>2020-04-02T18:09:18Z</time>
      </trkpt>
      <trkpt lat="42.4113500" lon="-3.2291240">
        <ele>800.3</ele>
        <time>2020-04-02T18:09:20Z</time>
      </trkpt>
      <trkpt lat="42.4113500" lon="-3.2293000">
        <ele>800.4</ele>
        <time>2020-04-02T18:09:22Z</time>
      </trkpt>
      <trkpt lat="42.4113500" lon="-3.2294740">
        <ele>800.5</ele>
        <time>2020-04-02T18:09:24Z</time>
      </trkpt>
      <trkpt lat="42.4113330" lon="-3.2298610">
        <ele>800.5</ele>
        <time>2020-04-02T18:09:26Z</time>
      </trkpt>
      <trkpt lat="42.4113150" lon="-3.2300360">
        <ele>800.5</ele>
        <time>2020-04-02T18:09:28Z</time>
      </trkpt>
      <trkpt lat="42.4112900" lon="-3.2303650">
        <ele>800.5</ele>
        <time>2020-04-02T18:09:30Z</time>
      </trkpt>
      <trkpt lat="42.4112920" lon="-3.2306140">
        <ele>800.5</ele>
        <time>2020-04-02T18:09:32Z</time>
      </trkpt>
      <trkpt lat="42.4113050" lon="-3.2307790">
        <ele>800.6</ele>
        <time>2020-04-02T18:09:34Z</time>
      </trkpt>
      <trkpt lat="42.4113170" lon="-3.2309390">
        <ele>800.8</ele>
        <time>2020-04-02T18:09:36Z</time>
      </trkpt>
      <trkpt lat="42.4113290" lon="-3.2310970">
        <ele>801.3</ele>
        <time>2020-04-02T18:09:38Z</time>
      </trkpt>
      <trkpt lat="42.4113400" lon="-3.2312530">
        <ele>801.8</ele>
        <time>2020-04-02T18:09:40Z</time>
      </trkpt>
      <trkpt lat="42.4113720" lon="-3.2316690">
        <ele>803.1</ele>
        <time>2020-04-02T18:09:42Z</time>
      </trkpt>
      <trkpt lat="42.4113830" lon="-3.2318240">
        <ele>803.3</ele>
        <time>2020-04-02T18:09:44Z</time>
      </trkpt>
      <trkpt lat="42.4113950" lon="-3.2319820">
        <ele>803.4</ele>
        <time>2020-04-02T18:09:46Z</time>
      </trkpt>
      <trkpt lat="42.4114070" lon="-3.2321420">
        <ele>803.5</ele>
        <time>2020-04-02T18:09:48Z</time>
      </trkpt>
      <trkpt lat="42.4114190" lon="-3.2323010">
        <ele>803.5</ele>
        <time>2020-04-02T18:09:50Z</time>
      </trkpt>
      <trkpt lat="42.4114430" lon="-3.2327260">
        <ele>804.2</ele>
        <time>2020-04-02T18:09:52Z</time>
      </trkpt>
      <trkpt lat="42.4114470" lon="-3.2328890">
        <ele>804.5</ele>
        <time>2020-04-02T18:09:54Z</time>
      </trkpt>
      <trkpt lat="42.4114510" lon="-3.2330530">
        <ele>804.7</ele>
        <time>2020-04-02T18:09:56Z</time>
      </trkpt>
      <trkpt lat="42.4114550" lon="-3.2332160">
        <ele>804.8</ele>
        <time>2020-04-02T18:09:58Z</time>
      </trkpt>
      <trkpt lat="42.4115070" lon="-3.2335950">
        <ele>804.9</ele>
        <time>2020-04-02T18:10:00Z</time>
      </trkpt>
      <trkpt lat="42.4115560" lon="-3.2337450">
        <ele>805.3</ele>
        <time>2020-04-02T18:10:02Z</time>
      </trkpt>
      <trkpt lat="42.4116060" lon="-3.2338960">
        <ele>805.4</ele>
        <time>2020-04-02T18:10:04Z</time>
      </trkpt>
      <trkpt lat="42.4116550" lon="-3.2340460">
        <ele>805.6</ele>
        <time>2020-04-02T18:10:06Z</time>
      </trkpt>
      <trkpt lat="42.4117900" lon="-3.2344610">
        <ele>806.0</ele>
        <time>2020-04-02T18:10:08Z</time>
      </trkpt>
      <trkpt lat="42.4118360" lon="-3.2346140">
        <ele>806.3</ele>
        <time>2020-04-02T18:10:10Z</time>
      </trkpt>
      <trkpt lat="42.4118810" lon="-3.2347670">
        <ele>806.6</ele>
        <time>2020-04-02T18:10:12Z</time>
      </trkpt>
      <trkpt lat="42.4119260" lon="-3.2349210">
        <ele>806.9</ele>
        <time>2020-04-02T18:10:14Z</time>
      </trkpt>
      <trkpt lat="42.4120210" lon="-3.2352630">
        <ele>807.0</ele>
        <time>2020-04-02T18:10:16Z</time>
      </trkpt>
      <trkpt lat="42.4120570" lon="-3.2354220">
        <ele>807.1</ele>
        <time>2020-04-02T18:10:18Z</time>
      </trkpt>
      <trkpt lat="42.4121110" lon="-3.2356860">
        <ele>807.2</ele>
        <time>2020-04-02T18:10:20Z</time>
      </trkpt>
      <trkpt lat="42.4121400" lon="-3.2358470">
        <ele>807.4</ele>
        <time>2020-04-02T18:10:22Z</time>
      </trkpt>
      <trkpt lat="42.4121690" lon="-3.2360090">
        <ele>807.7</ele>
        <time>2020-04-02T18:10:24Z</time>
      </trkpt>
      <trkpt lat="42.4121990" lon="-3.2361710">
        <ele>807.9</ele>
        <time>2020-04-02T18:10:26Z</time>
      </trkpt>
      <trkpt lat="42.4122570" lon="-3.2365510">
        <ele>808.1</ele>
        <time>2020-04-02T18:10:28Z</time>
      </trkpt>
      <trkpt lat="42.4122750" lon="-3.2367130">
        <ele>808.2</ele>
        <time>2020-04-02T18:10:30Z</time>
      </trkpt>
      <trkpt lat="42.4122930" lon="-3.2368730">
        <ele>808.4</ele>
        <time>2020-04-02T18:10:32Z</time>
      </trkpt>
      <trkpt lat="42.4123100" lon="-3.2370320">
        <ele>808.6</ele>
        <time>2020-04-02T18:10:34Z</time>
      </trkpt>
      <trkpt lat="42.4123590" lon="-3.2374660">
        <ele>809.2</ele>
        <time>2020-04-02T18:10:36Z</time>
      </trkpt>
      <trkpt lat="42.4123770" lon="-3.2376250">
        <ele>809.4</ele>
        <time>2020-04-02T18:10:38Z</time>
      </trkpt>
      <trkpt lat="42.4123940" lon="-3.2377830">
        <ele>809.8</ele>
        <time>2020-04-02T18:10:40Z</time>
      </trkpt>
      <trkpt lat="42.4124120" lon="-3.2379390">
        <ele>810.1</ele>
        <time>2020-04-02T18:10:42Z</time>
      </trkpt>
      <trkpt lat="42.4124290" lon="-3.2380960">
        <ele>810.3</ele>
        <time>2020-04-02T18:10:44Z</time>
      </trkpt>
      <trkpt lat="42.4124780" lon="-3.2385280">
        <ele>811.2</ele>
        <time>2020-04-02T18:10:46Z</time>
      </trkpt>
      <trkpt lat="42.4124950" lon="-3.2386820">
        <ele>811.4</ele>
        <time>2020-04-02T18:10:48Z</time>
      </trkpt>
      <trkpt lat="42.4125120" lon="-3.2388340">
        <ele>811.5</ele>
        <time>2020-04-02T18:10:50Z</time>
      </trkpt>
      <trkpt lat="42.4125280" lon="-3.2389830">
        <ele>811.8</ele>
        <time>2020-04-02T18:10:52Z</time>
      </trkpt>
      <trkpt lat="42.4125450" lon="-3.2391300">
        <ele>812.2</ele>
        <time>2020-04-02T18:10:54Z</time>
      </trkpt>
      <trkpt lat="42.4125610" lon="-3.2392730">
        <ele>812.6</ele>
        <time>2020-04-02T18:10:56Z</time>
      </trkpt>
      <trkpt lat="42.4126080" lon="-3.2396930">
        <ele>813.3</ele>
        <time>2020-04-02T18:10:58Z</time>
      </trkpt>
      <trkpt lat="42.4126240" lon="-3.2398370">
        <ele>813.5</ele>
        <time>2020-04-02T18:11:00Z</time>
      </trkpt>
      <trkpt lat="42.4126400" lon="-3.2399790">
        <ele>813.8</ele>
        <time>2020-04-02T18:11:02Z</time>
      </trkpt>
      <trkpt lat="42.4126550" lon="-3.2401220">
        <ele>814.2</ele>
        <time>2020-04-02T18:11:04Z</time>
      </trkpt>
      <trkpt lat="42.4126710" lon="-3.2402640">
        <ele>814.5</ele>
        <time>2020-04-02T18:11:06Z</time>
      </trkpt>
      <trkpt lat="42.4127200" lon="-3.2406810">
        <ele>815.8</ele>
        <time>2020-04-02T18:11:08Z</time>
      </trkpt>
      <trkpt lat="42.4127390" lon="-3.2408230">
        <ele>816.5</ele>
        <time>2020-04-02T18:11:10Z</time>
      </trkpt>
      <trkpt lat="42.4127590" lon="-3.2409670">
        <ele>817.2</ele>
        <time>2020-04-02T18:11:12Z</time>
      </trkpt>
      <trkpt lat="42.4128030" lon="-3.2412830">
        <ele>818.5</ele>
        <time>2020-04-02T18:11:14Z</time>
      </trkpt>
      <trkpt lat="42.4128320" lon="-3.2414260">
        <ele>818.9</ele>
        <time>2020-04-02T18:11:16Z</time>
      </trkpt>
      <trkpt lat="42.4128940" lon="-3.2416480">
        <ele>819.8</ele>
        <time>2020-04-02T18:11:18Z</time>
      </trkpt>
      <trkpt lat="42.4129240" lon="-3.2418120">
        <ele>820.0</ele>
        <time>2020-04-02T18:11:20Z</time>
      </trkpt>
      <trkpt lat="42.4129280" lon="-3.2419630">
        <ele>820.0</ele>
        <time>2020-04-02T18:11:22Z</time>
      </trkpt>
      <trkpt lat="42.4129330" lon="-3.2421120">
        <ele>820.0</ele>
        <time>2020-04-02T18:11:24Z</time>
      </trkpt>
      <trkpt lat="42.4129610" lon="-3.2424300">
        <ele>820.1</ele>
        <time>2020-04-02T18:11:26Z</time>
      </trkpt>
      <trkpt lat="42.4130130" lon="-3.2426430">
        <ele>820.4</ele>
        <time>2020-04-02T18:11:28Z</time>
      </trkpt>
      <trkpt lat="42.4130360" lon="-3.2427910">
        <ele>820.7</ele>
        <time>2020-04-02T18:11:30Z</time>
      </trkpt>
      <trkpt lat="42.4130720" lon="-3.2430420">
        <ele>822.0</ele>
        <time>2020-04-02T18:11:32Z</time>
      </trkpt>
      <trkpt lat="42.4130850" lon="-3.2431910">
        <ele>822.1</ele>
        <time>2020-04-02T18:11:34Z</time>
      </trkpt>
      <trkpt lat="42.4130980" lon="-3.2433400">
        <ele>822.3</ele>
        <time>2020-04-02T18:11:36Z</time>
      </trkpt>
      <trkpt lat="42.4131120" lon="-3.2434880">
        <ele>822.5</ele>
        <time>2020-04-02T18:11:38Z</time>
      </trkpt>
      <trkpt lat="42.4131250" lon="-3.2436380">
        <ele>822.7</ele>
        <time>2020-04-02T18:11:40Z</time>
      </trkpt>
      <trkpt lat="42.4130900" lon="-3.2439800">
        <ele>823.0</ele>
        <time>2020-04-02T18:11:42Z</time>
      </trkpt>
      <trkpt lat="42.4129760" lon="-3.2441000">
        <ele>823.4</ele>
        <time>2020-04-02T18:11:44Z</time>
      </trkpt>
      <trkpt lat="42.4129030" lon="-3.2441850">
        <ele>823.9</ele>
        <time>2020-04-02T18:11:46Z</time>
      </trkpt>
      <trkpt lat="42.4128330" lon="-3.2442670">
        <ele>824.5</ele>
        <time>2020-04-02T18:11:48Z</time>
      </trkpt>
      <trkpt lat="42.4127650" lon="-3.2443450">
        <ele>824.9</ele>
        <time>2020-04-02T18:11:50Z</time>
      </trkpt>
      <trkpt lat="42.4126990" lon="-3.2444210">
        <ele>825.3</ele>
        <time>2020-04-02T18:11:52Z</time>
      </trkpt>
      <trkpt lat="42.4125320" lon="-3.2446500">
        <ele>826.9</ele>
        <time>2020-04-02T18:11:54Z</time>
      </trkpt>
      <trkpt lat="42.4124860" lon="-3.2447450">
        <ele>827.5</ele>
        <time>2020-04-02T18:11:56Z</time>
      </trkpt>
      <trkpt lat="42.4124400" lon="-3.2448400">
        <ele>828.2</ele>
        <time>2020-04-02T18:11:58Z</time>
      </trkpt>
      <trkpt lat="42.4123960" lon="-3.2449320">
        <ele>828.8</ele>
        <time>2020-04-02T18:12:00Z</time>
      </trkpt>
      <trkpt lat="42.4122860" lon="-3.2451600">
        <ele>830.4</ele>
        <time>2020-04-02T18:12:02Z</time>
      </trkpt>
      <trkpt lat="42.4122430" lon="-3.2452510">
        <ele>831.0</ele>
        <time>2020-04-02T18:12:04Z</time>
      </trkpt>
      <trkpt lat="42.4122010" lon="-3.2453380">
        <ele>831.5</ele>
        <time>2020-04-02T18:12:06Z</time>
      </trkpt>
      <trkpt lat="42.4121590" lon="-3.2454250">
        <ele>832.0</ele>
        <time>2020-04-02T18:12:08Z</time>
      </trkpt>
      <trkpt lat="42.4120480" lon="-3.2456420">
        <ele>833.6</ele>
        <time>2020-04-02T18:12:10Z</time>
      </trkpt>
      <trkpt lat="42.4119960" lon="-3.2457160">
        <ele>834.1</ele>
        <time>2020-04-02T18:12:12Z</time>
      </trkpt>
      <trkpt lat="42.4119440" lon="-3.2457910">
        <ele>834.6</ele>
        <time>2020-04-02T18:12:14Z</time>
      </trkpt>
      <trkpt lat="42.4118930" lon="-3.2458650">
        <ele>835.1</ele>
        <time>2020-04-02T18:12:16Z</time>
      </trkpt>
      <trkpt lat="42.4117890" lon="-3.2460460">
        <ele>836.5</ele>
        <time>2020-04-02T18:12:18Z</time>
      </trkpt>
      <trkpt lat="42.4117360" lon="-3.2461830">
        <ele>837.6</ele>
        <time>2020-04-02T18:12:20Z</time>
      </trkpt>
      <trkpt lat="42.4117030" lon="-3.2462890">
        <ele>838.3</ele>
        <time>2020-04-02T18:12:22Z</time>
      </trkpt>
      <trkpt lat="42.4116670" lon="-3.2464040">
        <ele>838.8</ele>
        <time>2020-04-02T18:12:24Z</time>
      </trkpt>
      <trkpt lat="42.4115850" lon="-3.2466470">
        <ele>839.7</ele>
        <time>2020-04-02T18:12:26Z</time>
      </trkpt>
      <trkpt lat="42.4115250" lon="-3.2467530">
        <ele>840.1</ele>
        <time>2020-04-02T18:12:28Z</time>
      </trkpt>
      <trkpt lat="42.4114640" lon="-3.2468640">
        <ele>840.3</ele>
        <time>2020-04-02T18:12:30Z</time>
      </trkpt>
      <trkpt lat="42.4113360" lon="-3.2470880">
        <ele>841.0</ele>
        <time>2020-04-02T18:12:32Z</time>
      </trkpt>
      <trkpt lat="42.4112680" lon="-3.2471980">
        <ele>841.4</ele>
        <time>2020-04-02T18:12:34Z</time>
      </trkpt>
      <trkpt lat="42.4111990" lon="-3.2473080">
        <ele>841.8</ele>
        <time>2020-04-02T18:12:36Z</time>
      </trkpt>
      <trkpt lat="42.4110570" lon="-3.2475390">
        <ele>842.2</ele>
        <time>2020-04-02T18:12:38Z</time>
      </trkpt>
      <trkpt lat="42.4109880" lon="-3.2476560">
        <ele>842.3</ele>
        <time>2020-04-02T18:12:40Z</time>
      </trkpt>
      <trkpt lat="42.4109190" lon="-3.2477750">
        <ele>842.5</ele>
        <time>2020-04-02T18:12:42Z</time>
      </trkpt>
      <trkpt lat="42.4108480" lon="-3.2478960">
        <ele>842.9</ele>
        <time>2020-04-02T18:12:44Z</time>
      </trkpt>
      <trkpt lat="42.4107770" lon="-3.2480180">
        <ele>843.5</ele>
        <time>2020-04-02T18:12:46Z</time>
      </trkpt>
      <trkpt lat="42.4105840" lon="-3.2483460">
        <ele>844.2</ele>
        <time>2020-04-02T18:12:48Z</time>
      </trkpt>
      <trkpt lat="42.4105120" lon="-3.2484690">
        <ele>844.3</ele>
        <time>2020-04-02T18:12:50Z</time>
      </trkpt>
      <trkpt lat="42.4104390" lon="-3.2485930">
        <ele>844.4</ele>
        <time>2020-04-02T18:12:52Z</time>
      </trkpt>
      <trkpt lat="42.4103660" lon="-3.2487180">
        <ele>844.4</ele>
        <time>2020-04-02T18:12:54Z</time>
      </trkpt>
      <trkpt lat="42.4102930" lon="-3.2488420">
        <ele>844.5</ele>
        <time>2020-04-02T18:12:56Z</time>
      </trkpt>
      <trkpt lat="42.4100980" lon="-3.2491720">
        <ele>845.1</ele>
        <time>2020-04-02T18:12:58Z</time>
      </trkpt>
      <trkpt lat="42.4100230" lon="-3.2492970">
        <ele>845.3</ele>
        <time>2020-04-02T18:13:00Z</time>
      </trkpt>
      <trkpt lat="42.4099480" lon="-3.2494230">
        <ele>845.3</ele>
        <time>2020-04-02T18:13:02Z</time>
      </trkpt>
      <trkpt lat="42.4097710" lon="-3.2497160">
        <ele>845.5</ele>
        <time>2020-04-02T18:13:04Z</time>
      </trkpt>
      <trkpt lat="42.4096950" lon="-3.2498430">
        <ele>845.7</ele>
        <time>2020-04-02T18:13:06Z</time>
      </trkpt>
      <trkpt lat="42.4096190" lon="-3.2499690">
        <ele>846.1</ele>
        <time>2020-04-02T18:13:08Z</time>
      </trkpt>
      <trkpt lat="42.4095440" lon="-3.2500940">
        <ele>846.4</ele>
        <time>2020-04-02T18:13:10Z</time>
      </trkpt>
      <trkpt lat="42.4093670" lon="-3.2503890">
        <ele>847.2</ele>
        <time>2020-04-02T18:13:12Z</time>
      </trkpt>
      <trkpt lat="42.4092920" lon="-3.2505220">
        <ele>847.3</ele>
        <time>2020-04-02T18:13:14Z</time>
      </trkpt>
      <trkpt lat="42.4092150" lon="-3.2506570">
        <ele>847.4</ele>
        <time>2020-04-02T18:13:16Z</time>
      </trkpt>
      <trkpt lat="42.4091360" lon="-3.2507940">
        <ele>847.5</ele>
        <time>2020-04-02T18:13:18Z</time>
      </trkpt>
      <trkpt lat="42.4089570" lon="-3.2511100">
        <ele>847.6</ele>
        <time>2020-04-02T18:13:20Z</time>
      </trkpt>
      <trkpt lat="42.4088770" lon="-3.2512500">
        <ele>847.6</ele>
        <time>2020-04-02T18:13:22Z</time>
      </trkpt>
      <trkpt lat="42.4087970" lon="-3.2513900">
        <ele>847.8</ele>
        <time>2020-04-02T18:13:24Z</time>
      </trkpt>
      <trkpt lat="42.4086140" lon="-3.2517080">
        <ele>848.2</ele>
        <time>2020-04-02T18:13:26Z</time>
      </trkpt>
      <trkpt lat="42.4084890" lon="-3.2518650">
        <ele>848.0</ele>
        <time>2020-04-02T18:13:28Z</time>
      </trkpt>
      <trkpt lat="42.4083840" lon="-3.2519830">
        <ele>847.7</ele>
        <time>2020-04-02T18:13:30Z</time>
      </trkpt>
      <trkpt lat="42.4082760" lon="-3.2521060">
        <ele>847.6</ele>
        <time>2020-04-02T18:13:32Z</time>
      </trkpt>
      <trkpt lat="42.4081660" lon="-3.2522300">
        <ele>847.4</ele>
        <time>2020-04-02T18:13:34Z</time>
      </trkpt>
      <trkpt lat="42.4080540" lon="-3.2523570">
        <ele>847.3</ele>
        <time>2020-04-02T18:13:36Z</time>
      </trkpt>
      <trkpt lat="42.4077720" lon="-3.2526750">
        <ele>846.3</ele>
        <time>2020-04-02T18:13:38Z</time>
      </trkpt>
      <trkpt lat="42.4076570" lon="-3.2528050">
        <ele>845.8</ele>
        <time>2020-04-02T18:13:40Z</time>
      </trkpt>
      <trkpt lat="42.4075410" lon="-3.2529360">
        <ele>845.3</ele>
        <time>2020-04-02T18:13:42Z</time>
      </trkpt>
      <trkpt lat="42.4074250" lon="-3.2530670">
        <ele>844.9</ele>
        <time>2020-04-02T18:13:44Z</time>
      </trkpt>
      <trkpt lat="42.4071420" lon="-3.2533870">
        <ele>844.6</ele>
        <time>2020-04-02T18:13:46Z</time>
      </trkpt>
      <trkpt lat="42.4070330" lon="-3.2535100">
        <ele>844.8</ele>
        <time>2020-04-02T18:13:48Z</time>
      </trkpt>
      <trkpt lat="42.4069280" lon="-3.2536300">
        <ele>845.1</ele>
        <time>2020-04-02T18:13:50Z</time>
      </trkpt>
      <trkpt lat="42.4068250" lon="-3.2537460">
        <ele>845.4</ele>
        <time>2020-04-02T18:13:52Z</time>
      </trkpt>
      <trkpt lat="42.4065610" lon="-3.2540530">
        <ele>845.7</ele>
        <time>2020-04-02T18:13:54Z</time>
      </trkpt>
      <trkpt lat="42.4064600" lon="-3.2542310">
        <ele>846.1</ele>
        <time>2020-04-02T18:13:56Z</time>
      </trkpt>
      <trkpt lat="42.4064060" lon="-3.2543820">
        <ele>846.4</ele>
        <time>2020-04-02T18:13:58Z</time>
      </trkpt>
      <trkpt lat="42.4063530" lon="-3.2545280">
        <ele>846.9</ele>
        <time>2020-04-02T18:14:00Z</time>
      </trkpt>
      <trkpt lat="42.4063010" lon="-3.2546690">
        <ele>847.4</ele>
        <time>2020-04-02T18:14:02Z</time>
      </trkpt>
      <trkpt lat="42.4062510" lon="-3.2548080">
        <ele>847.9</ele>
        <time>2020-04-02T18:14:04Z</time>
      </trkpt>
      <trkpt lat="42.4061090" lon="-3.2551960">
        <ele>849.3</ele>
        <time>2020-04-02T18:14:06Z</time>
      </trkpt>
      <trkpt lat="42.4060600" lon="-3.2553310">
        <ele>849.6</ele>
        <time>2020-04-02T18:14:08Z</time>
      </trkpt>
      <trkpt lat="42.4060120" lon="-3.2554640">
        <ele>849.9</ele>
        <time>2020-04-02T18:14:10Z</time>
      </trkpt>
      <trkpt lat="42.4059640" lon="-3.2555960">
        <ele>850.2</ele>
        <time>2020-04-02T18:14:12Z</time>
      </trkpt>
      <trkpt lat="42.4059160" lon="-3.2557270">
        <ele>850.4</ele>
        <time>2020-04-02T18:14:14Z</time>
      </trkpt>
      <trkpt lat="42.4057770" lon="-3.2561100">
        <ele>851.0</ele>
        <time>2020-04-02T18:14:16Z</time>
      </trkpt>
      <trkpt lat="42.4057300" lon="-3.2562400">
        <ele>851.4</ele>
        <time>2020-04-02T18:14:18Z</time>
      </trkpt>
      <trkpt lat="42.4056820" lon="-3.2563700">
        <ele>851.8</ele>
        <time>2020-04-02T18:14:20Z</time>
      </trkpt>
      <trkpt lat="42.4056350" lon="-3.2564990">
        <ele>852.2</ele>
        <time>2020-04-02T18:14:22Z</time>
      </trkpt>
      <trkpt lat="42.4055890" lon="-3.2566270">
        <ele>852.4</ele>
        <time>2020-04-02T18:14:24Z</time>
      </trkpt>
      <trkpt lat="42.4055420" lon="-3.2567560">
        <ele>852.7</ele>
        <time>2020-04-02T18:14:26Z</time>
      </trkpt>
      <trkpt lat="42.4054030" lon="-3.2571370">
        <ele>853.9</ele>
        <time>2020-04-02T18:14:28Z</time>
      </trkpt>
      <trkpt lat="42.4053560" lon="-3.2572660">
        <ele>854.5</ele>
        <time>2020-04-02T18:14:30Z</time>
      </trkpt>
      <trkpt lat="42.4053100" lon="-3.2573940">
        <ele>855.0</ele>
        <time>2020-04-02T18:14:32Z</time>
      </trkpt>
      <trkpt lat="42.4052630" lon="-3.2575230">
        <ele>855.5</ele>
        <time>2020-04-02T18:14:34Z</time>
      </trkpt>
      <trkpt lat="42.4052160" lon="-3.2576520">
        <ele>856.0</ele>
        <time>2020-04-02T18:14:36Z</time>
      </trkpt>
      <trkpt lat="42.4050780" lon="-3.2580320">
        <ele>857.1</ele>
        <time>2020-04-02T18:14:38Z</time>
      </trkpt>
      <trkpt lat="42.4050310" lon="-3.2581600">
        <ele>857.4</ele>
        <time>2020-04-02T18:14:40Z</time>
      </trkpt>
      <trkpt lat="42.4049850" lon="-3.2582850">
        <ele>857.7</ele>
        <time>2020-04-02T18:14:42Z</time>
      </trkpt>
      <trkpt lat="42.4049400" lon="-3.2584100">
        <ele>858.1</ele>
        <time>2020-04-02T18:14:44Z</time>
      </trkpt>
      <trkpt lat="42.4048960" lon="-3.2585310">
        <ele>858.6</ele>
        <time>2020-04-02T18:14:46Z</time>
      </trkpt>
      <trkpt lat="42.4048540" lon="-3.2586470">
        <ele>859.0</ele>
        <time>2020-04-02T18:14:48Z</time>
      </trkpt>
      <trkpt lat="42.4047290" lon="-3.2590120">
        <ele>860.0</ele>
        <time>2020-04-02T18:14:50Z</time>
      </trkpt>
      <trkpt lat="42.4047370" lon="-3.2591510">
        <ele>860.3</ele>
        <time>2020-04-02T18:14:52Z</time>
      </trkpt>
      <trkpt lat="42.4047570" lon="-3.2592590">
        <ele>860.5</ele>
        <time>2020-04-02T18:14:54Z</time>
      </trkpt>
      <trkpt lat="42.4047890" lon="-3.2594640">
        <ele>861.7</ele>
        <time>2020-04-02T18:14:56Z</time>
      </trkpt>
      <trkpt lat="42.4047820" lon="-3.2595760">
        <ele>862.2</ele>
        <time>2020-04-02T18:14:58Z</time>
      </trkpt>
      <trkpt lat="42.4047680" lon="-3.2597810">
        <ele>862.9</ele>
        <time>2020-04-02T18:15:00Z</time>
      </trkpt>
      <trkpt lat="42.4047500" lon="-3.2599060">
        <ele>863.3</ele>
        <time>2020-04-02T18:15:02Z</time>
      </trkpt>
      <trkpt lat="42.4047310" lon="-3.2600350">
        <ele>863.7</ele>
        <time>2020-04-02T18:15:04Z</time>
      </trkpt>
      <trkpt lat="42.4047110" lon="-3.2601690">
        <ele>864.1</ele>
        <time>2020-04-02T18:15:06Z</time>
      </trkpt>
      <trkpt lat="42.4046910" lon="-3.2603050">
        <ele>864.4</ele>
        <time>2020-04-02T18:15:08Z</time>
      </trkpt>
      <trkpt lat="42.4046440" lon="-3.2606580">
        <ele>864.8</ele>
        <time>2020-04-02T18:15:10Z</time>
      </trkpt>
      <trkpt lat="42.4046330" lon="-3.2608720">
        <ele>864.4</ele>
        <time>2020-04-02T18:15:12Z</time>
      </trkpt>
      <trkpt lat="42.4046550" lon="-3.2610220">
        <ele>863.4</ele>
        <time>2020-04-02T18:15:14Z</time>
      </trkpt>
      <trkpt lat="42.4046420" lon="-3.2612490">
        <ele>862.3</ele>
        <time>2020-04-02T18:15:16Z</time>
      </trkpt>
      <trkpt lat="42.4045800" lon="-3.2615060">
        <ele>861.5</ele>
        <time>2020-04-02T18:15:18Z</time>
      </trkpt>
      <trkpt lat="42.4044950" lon="-3.2616420">
        <ele>861.5</ele>
        <time>2020-04-02T18:15:20Z</time>
      </trkpt>
      <trkpt lat="42.4044070" lon="-3.2618980">
        <ele>861.4</ele>
        <time>2020-04-02T18:15:22Z</time>
      </trkpt>
      <trkpt lat="42.4044290" lon="-3.2620830">
        <ele>861.0</ele>
        <time>2020-04-02T18:15:24Z</time>
      </trkpt>
      <trkpt lat="42.4044930" lon="-3.2623400">
        <ele>860.1</ele>
        <time>2020-04-02T18:15:26Z</time>
      </trkpt>
      <trkpt lat="42.4045440" lon="-3.2625020">
        <ele>859.5</ele>
        <time>2020-04-02T18:15:28Z</time>
      </trkpt>
      <trkpt lat="42.4045940" lon="-3.2626610">
        <ele>858.8</ele>
        <time>2020-04-02T18:15:30Z</time>
      </trkpt>
      <trkpt lat="42.4046750" lon="-3.2630040">
        <ele>857.7</ele>
        <time>2020-04-02T18:15:32Z</time>
      </trkpt>
      <trkpt lat="42.4047030" lon="-3.2632590">
        <ele>857.4</ele>
        <time>2020-04-02T18:15:34Z</time>
      </trkpt>
      <trkpt lat="42.4047070" lon="-3.2635150">
        <ele>857.6</ele>
        <time>2020-04-02T18:15:36Z</time>
      </trkpt>
      <trkpt lat="42.4046580" lon="-3.2637260">
        <ele>857.9</ele>
        <time>2020-04-02T18:15:38Z</time>
      </trkpt>
      <trkpt lat="42.4045930" lon="-3.2638620">
        <ele>858.3</ele>
        <time>2020-04-02T18:15:40Z</time>
      </trkpt>
      <trkpt lat="42.4045310" lon="-3.2639960">
        <ele>858.8</ele>
        <time>2020-04-02T18:15:42Z</time>
      </trkpt>
      <trkpt lat="42.4044180" lon="-3.2642680">
        <ele>859.9</ele>
        <time>2020-04-02T18:15:44Z</time>
      </trkpt>
      <trkpt lat="42.4044060" lon="-3.2644660">
        <ele>860.5</ele>
        <time>2020-04-02T18:15:46Z</time>
      </trkpt>
      <trkpt lat="42.4044400" lon="-3.2646110">
        <ele>861.0</ele>
        <time>2020-04-02T18:15:48Z</time>
      </trkpt>
      <trkpt lat="42.4044740" lon="-3.2647540">
        <ele>861.5</ele>
        <time>2020-04-02T18:15:50Z</time>
      </trkpt>
      <trkpt lat="42.4045330" lon="-3.2650530">
        <ele>862.2</ele>
        <time>2020-04-02T18:15:52Z</time>
      </trkpt>
      <trkpt lat="42.4045410" lon="-3.2652010">
        <ele>862.6</ele>
        <time>2020-04-02T18:15:54Z</time>
      </trkpt>
      <trkpt lat="42.4045490" lon="-3.2653480">
        <ele>862.9</ele>
        <time>2020-04-02T18:15:56Z</time>
      </trkpt>
      <trkpt lat="42.4045570" lon="-3.2654940">
        <ele>863.2</ele>
        <time>2020-04-02T18:15:58Z</time>
      </trkpt>
      <trkpt lat="42.4045640" lon="-3.2656400">
        <ele>863.5</ele>
        <time>2020-04-02T18:16:00Z</time>
      </trkpt>
      <trkpt lat="42.4045800" lon="-3.2660370">
        <ele>864.6</ele>
        <time>2020-04-02T18:16:02Z</time>
      </trkpt>
      <trkpt lat="42.4045810" lon="-3.2661840">
        <ele>865.0</ele>
        <time>2020-04-02T18:16:04Z</time>
      </trkpt>
      <trkpt lat="42.4045820" lon="-3.2663320">
        <ele>865.6</ele>
        <time>2020-04-02T18:16:06Z</time>
      </trkpt>
      <trkpt lat="42.4045820" lon="-3.2664790">
        <ele>866.1</ele>
        <time>2020-04-02T18:16:08Z</time>
      </trkpt>
      <trkpt lat="42.4045830" lon="-3.2666250">
        <ele>866.5</ele>
        <time>2020-04-02T18:16:10Z</time>
      </trkpt>
      <trkpt lat="42.4045830" lon="-3.2667710">
        <ele>866.8</ele>
        <time>2020-04-02T18:16:12Z</time>
      </trkpt>
      <trkpt lat="42.4045850" lon="-3.2672320">
        <ele>867.8</ele>
        <time>2020-04-02T18:16:14Z</time>
      </trkpt>
      <trkpt lat="42.4045860" lon="-3.2673850">
        <ele>868.1</ele>
        <time>2020-04-02T18:16:16Z</time>
      </trkpt>
      <trkpt lat="42.4045870" lon="-3.2675430">
        <ele>868.5</ele>
        <time>2020-04-02T18:16:18Z</time>
      </trkpt>
      <trkpt lat="42.4045870" lon="-3.2677040">
        <ele>868.8</ele>
        <time>2020-04-02T18:16:20Z</time>
      </trkpt>
      <trkpt lat="42.4045880" lon="-3.2678660">
        <ele>869.1</ele>
        <time>2020-04-02T18:16:22Z</time>
      </trkpt>
      <trkpt lat="42.4045900" lon="-3.2683460">
        <ele>869.9</ele>
        <time>2020-04-02T18:16:24Z</time>
      </trkpt>
      <trkpt lat="42.4045910" lon="-3.2685120">
        <ele>870.1</ele>
        <time>2020-04-02T18:16:26Z</time>
      </trkpt>
      <trkpt lat="42.4045910" lon="-3.2686800">
        <ele>870.2</ele>
        <time>2020-04-02T18:16:28Z</time>
      </trkpt>
      <trkpt lat="42.4045920" lon="-3.2688500">
        <ele>870.3</ele>
        <time>2020-04-02T18:16:30Z</time>
      </trkpt>
      <trkpt lat="42.4045930" lon="-3.2690200">
        <ele>870.4</ele>
        <time>2020-04-02T18:16:32Z</time>
      </trkpt>
      <trkpt lat="42.4045930" lon="-3.2691910">
        <ele>870.5</ele>
        <time>2020-04-02T18:16:34Z</time>
      </trkpt>
      <trkpt lat="42.4045950" lon="-3.2696750">
        <ele>871.0</ele>
        <time>2020-04-02T18:16:36Z</time>
      </trkpt>
      <trkpt lat="42.4045960" lon="-3.2698420">
        <ele>871.2</ele>
        <time>2020-04-02T18:16:38Z</time>
      </trkpt>
      <trkpt lat="42.4045970" lon="-3.2700070">
        <ele>871.5</ele>
        <time>2020-04-02T18:16:40Z</time>
      </trkpt>
      <trkpt lat="42.4045980" lon="-3.2701700">
        <ele>871.7</ele>
        <time>2020-04-02T18:16:42Z</time>
      </trkpt>
      <trkpt lat="42.4045980" lon="-3.2703300">
        <ele>872.0</ele>
        <time>2020-04-02T18:16:44Z</time>
      </trkpt>
      <trkpt lat="42.4046030" lon="-3.2708040">
        <ele>872.8</ele>
        <time>2020-04-02T18:16:46Z</time>
      </trkpt>
      <trkpt lat="42.4046130" lon="-3.2709620">
        <ele>873.2</ele>
        <time>2020-04-02T18:16:48Z</time>
      </trkpt>
      <trkpt lat="42.4046220" lon="-3.2711170">
        <ele>873.6</ele>
        <time>2020-04-02T18:16:50Z</time>
      </trkpt>
      <trkpt lat="42.4046420" lon="-3.2714450">
        <ele>874.7</ele>
        <time>2020-04-02T18:16:52Z</time>
      </trkpt>
      <trkpt lat="42.4046520" lon="-3.2715990">
        <ele>875.2</ele>
        <time>2020-04-02T18:16:54Z</time>
      </trkpt>
      <trkpt lat="42.4046610" lon="-3.2717530">
        <ele>875.7</ele>
        <time>2020-04-02T18:16:56Z</time>
      </trkpt>
      <trkpt lat="42.4046800" lon="-3.2720770">
        <ele>876.5</ele>
        <time>2020-04-02T18:16:58Z</time>
      </trkpt>
      <trkpt lat="42.4046770" lon="-3.2722300">
        <ele>876.8</ele>
        <time>2020-04-02T18:17:00Z</time>
      </trkpt>
      <trkpt lat="42.4046740" lon="-3.2723820">
        <ele>877.1</ele>
        <time>2020-04-02T18:17:02Z</time>
      </trkpt>
      <trkpt lat="42.4046790" lon="-3.2726710">
        <ele>877.7</ele>
        <time>2020-04-02T18:17:04Z</time>
      </trkpt>
      <trkpt lat="42.4047070" lon="-3.2728940">
        <ele>878.2</ele>
        <time>2020-04-02T18:17:06Z</time>
      </trkpt>
      <trkpt lat="42.4047480" lon="-3.2730390">
        <ele>878.4</ele>
        <time>2020-04-02T18:17:08Z</time>
      </trkpt>
      <trkpt lat="42.4047900" lon="-3.2731890">
        <ele>878.6</ele>
        <time>2020-04-02T18:17:10Z</time>
      </trkpt>
      <trkpt lat="42.4048740" lon="-3.2734890">
        <ele>879.0</ele>
        <time>2020-04-02T18:17:12Z</time>
      </trkpt>
      <trkpt lat="42.4049170" lon="-3.2736430">
        <ele>879.2</ele>
        <time>2020-04-02T18:17:14Z</time>
      </trkpt>
      <trkpt lat="42.4049610" lon="-3.2737990">
        <ele>879.4</ele>
        <time>2020-04-02T18:17:16Z</time>
      </trkpt>
      <trkpt lat="42.4050230" lon="-3.2741110">
        <ele>879.7</ele>
        <time>2020-04-02T18:17:18Z</time>
      </trkpt>
      <trkpt lat="42.4050190" lon="-3.2743550">
        <ele>880.0</ele>
        <time>2020-04-02T18:17:20Z</time>
      </trkpt>
      <trkpt lat="42.4049820" lon="-3.2745130">
        <ele>880.4</ele>
        <time>2020-04-02T18:17:22Z</time>
      </trkpt>
      <trkpt lat="42.4049460" lon="-3.2747740">
        <ele>880.8</ele>
        <time>2020-04-02T18:17:24Z</time>
      </trkpt>
      <trkpt lat="42.4049580" lon="-3.2749390">
        <ele>880.8</ele>
        <time>2020-04-02T18:17:26Z</time>
      </trkpt>
      <trkpt lat="42.4049690" lon="-3.2751040">
        <ele>880.9</ele>
        <time>2020-04-02T18:17:28Z</time>
      </trkpt>
      <trkpt lat="42.4049930" lon="-3.2754320">
        <ele>881.4</ele>
        <time>2020-04-02T18:17:30Z</time>
      </trkpt>
      <trkpt lat="42.4050030" lon="-3.2755830">
        <ele>881.9</ele>
        <time>2020-04-02T18:17:32Z</time>
      </trkpt>
      <trkpt lat="42.4050130" lon="-3.2757280">
        <ele>882.3</ele>
        <time>2020-04-02T18:17:34Z</time>
      </trkpt>
      <trkpt lat="42.4050440" lon="-3.2760300">
        <ele>883.7</ele>
        <time>2020-04-02T18:17:36Z</time>
      </trkpt>
      <trkpt lat="42.4050710" lon="-3.2761580">
        <ele>884.5</ele>
        <time>2020-04-02T18:17:38Z</time>
      </trkpt>
      <trkpt lat="42.4051270" lon="-3.2763520">
        <ele>885.6</ele>
        <time>2020-04-02T18:17:40Z</time>
      </trkpt>
      <trkpt lat="42.4051680" lon="-3.2764670">
        <ele>886.2</ele>
        <time>2020-04-02T18:17:42Z</time>
      </trkpt>
      <trkpt lat="42.4052330" lon="-3.2766800">
        <ele>887.4</ele>
        <time>2020-04-02T18:17:44Z</time>
      </trkpt>
      <trkpt lat="42.4052160" lon="-3.2768340">
        <ele>887.9</ele>
        <time>2020-04-02T18:17:46Z</time>
      </trkpt>
      <trkpt lat="42.4051890" lon="-3.2769620">
        <ele>888.2</ele>
        <time>2020-04-02T18:17:48Z</time>
      </trkpt>
      <trkpt lat="42.4051610" lon="-3.2770930">
        <ele>888.5</ele>
        <time>2020-04-02T18:17:50Z</time>
      </trkpt>
      <trkpt lat="42.4051280" lon="-3.2773770">
        <ele>889.2</ele>
        <time>2020-04-02T18:17:52Z</time>
      </trkpt>
      <trkpt lat="42.4051400" lon="-3.2775120">
        <ele>889.6</ele>
        <time>2020-04-02T18:17:54Z</time>
      </trkpt>
      <trkpt lat="42.4051390" lon="-3.2777370">
        <ele>890.2</ele>
        <time>2020-04-02T18:17:56Z</time>
      </trkpt>
      <trkpt lat="42.4051270" lon="-3.2778750">
        <ele>890.4</ele>
        <time>2020-04-02T18:17:58Z</time>
      </trkpt>
      <trkpt lat="42.4051140" lon="-3.2780130">
        <ele>890.7</ele>
        <time>2020-04-02T18:18:00Z</time>
      </trkpt>
      <trkpt lat="42.4051430" lon="-3.2783100">
        <ele>891.5</ele>
        <time>2020-04-02T18:18:02Z</time>
      </trkpt>
      <trkpt lat="42.4052100" lon="-3.2784220">
        <ele>891.9</ele>
        <time>2020-04-02T18:18:04Z</time>
      </trkpt>
      <trkpt lat="42.4053120" lon="-3.2786390">
        <ele>893.3</ele>
        <time>2020-04-02T18:18:06Z</time>
      </trkpt>
      <trkpt lat="42.4053250" lon="-3.2787850">
        <ele>894.3</ele>
        <time>2020-04-02T18:18:08Z</time>
      </trkpt>
      <trkpt lat="42.4053390" lon="-3.2789310">
        <ele>895.0</ele>
        <time>2020-04-02T18:18:10Z</time>
      </trkpt>
      <trkpt lat="42.4053710" lon="-3.2792120">
        <ele>895.8</ele>
        <time>2020-04-02T18:18:12Z</time>
      </trkpt>
      <trkpt lat="42.4054200" lon="-3.2793770">
        <ele>896.0</ele>
        <time>2020-04-02T18:18:14Z</time>
      </trkpt>
      <trkpt lat="42.4054900" lon="-3.2795700">
        <ele>895.9</ele>
        <time>2020-04-02T18:18:16Z</time>
      </trkpt>
      <trkpt lat="42.4054950" lon="-3.2797140">
        <ele>896.1</ele>
        <time>2020-04-02T18:18:18Z</time>
      </trkpt>
      <trkpt lat="42.4055090" lon="-3.2799410">
        <ele>896.3</ele>
        <time>2020-04-02T18:18:20Z</time>
      </trkpt>
      <trkpt lat="42.4055300" lon="-3.2800830">
        <ele>896.4</ele>
        <time>2020-04-02T18:18:22Z</time>
      </trkpt>
      <trkpt lat="42.4055710" lon="-3.2803520">
        <ele>896.6</ele>
        <time>2020-04-02T18:18:24Z</time>
      </trkpt>
      <trkpt lat="42.4056280" lon="-3.2804780">
        <ele>896.5</ele>
        <time>2020-04-02T18:18:26Z</time>
      </trkpt>
      <trkpt lat="42.4056860" lon="-3.2806780">
        <ele>896.5</ele>
        <time>2020-04-02T18:18:28Z</time>
      </trkpt>
      <trkpt lat="42.4057080" lon="-3.2808310">
        <ele>896.6</ele>
        <time>2020-04-02T18:18:30Z</time>
      </trkpt>
      <trkpt lat="42.4057300" lon="-3.2811020">
        <ele>896.9</ele>
        <time>2020-04-02T18:18:32Z</time>
      </trkpt>
      <trkpt lat="42.4057090" lon="-3.2813230">
        <ele>897.2</ele>
        <time>2020-04-02T18:18:34Z</time>
      </trkpt>
      <trkpt lat="42.4057450" lon="-3.2815540">
        <ele>897.4</ele>
        <time>2020-04-02T18:18:36Z</time>
      </trkpt>
      <trkpt lat="42.4058520" lon="-3.2816570">
        <ele>897.2</ele>
        <time>2020-04-02T18:18:38Z</time>
      </trkpt>
      <trkpt lat="42.4060450" lon="-3.2818140">
        <ele>896.6</ele>
        <time>2020-04-02T18:18:40Z</time>
      </trkpt>
      <trkpt lat="42.4061810" lon="-3.2818310">
        <ele>895.9</ele>
        <time>2020-04-02T18:18:42Z</time>
      </trkpt>
      <trkpt lat="42.4063620" lon="-3.2819600">
        <ele>894.7</ele>
        <time>2020-04-02T18:18:44Z</time>
      </trkpt>
      <trkpt lat="42.4062870" lon="-3.2821860">
        <ele>894.2</ele>
        <time>2020-04-02T18:18:46Z</time>
      </trkpt>
      <trkpt lat="42.4061850" lon="-3.2823250">
        <ele>893.7</ele>
        <time>2020-04-02T18:18:48Z</time>
      </trkpt>
      <trkpt lat="42.4060830" lon="-3.2824670">
        <ele>893.3</ele>
        <time>2020-04-02T18:18:50Z</time>
      </trkpt>
      <trkpt lat="42.4059790" lon="-3.2826090">
        <ele>893.1</ele>
        <time>2020-04-02T18:18:52Z</time>
      </trkpt>
      <trkpt lat="42.4058750" lon="-3.2827530">
        <ele>892.7</ele>
        <time>2020-04-02T18:18:54Z</time>
      </trkpt>
      <trkpt lat="42.4056120" lon="-3.2831110">
        <ele>891.4</ele>
        <time>2020-04-02T18:18:56Z</time>
      </trkpt>
      <trkpt lat="42.4055160" lon="-3.2832390">
        <ele>891.0</ele>
        <time>2020-04-02T18:18:58Z</time>
      </trkpt>
      <trkpt lat="42.4054220" lon="-3.2833650">
        <ele>890.7</ele>
        <time>2020-04-02T18:19:00Z</time>
      </trkpt>
      <trkpt lat="42.4053290" lon="-3.2834900">
        <ele>890.3</ele>
        <time>2020-04-02T18:19:02Z</time>
      </trkpt>
      <trkpt lat="42.4051210" lon="-3.2838270">
        <ele>890.1</ele>
        <time>2020-04-02T18:19:04Z</time>
      </trkpt>
      <trkpt lat="42.4050590" lon="-3.2840490">
        <ele>890.1</ele>
        <time>2020-04-02T18:19:06Z</time>
      </trkpt>
      <trkpt lat="42.4050250" lon="-3.2842080">
        <ele>890.2</ele>
        <time>2020-04-02T18:19:08Z</time>
      </trkpt>
      <trkpt lat="42.4049930" lon="-3.2843600">
        <ele>890.4</ele>
        <time>2020-04-02T18:19:10Z</time>
      </trkpt>
      <trkpt lat="42.4049620" lon="-3.2845060">
        <ele>890.9</ele>
        <time>2020-04-02T18:19:12Z</time>
      </trkpt>
      <trkpt lat="42.4048770" lon="-3.2849090">
        <ele>892.2</ele>
        <time>2020-04-02T18:19:14Z</time>
      </trkpt>
      <trkpt lat="42.4048480" lon="-3.2850470">
        <ele>892.7</ele>
        <time>2020-04-02T18:19:16Z</time>
      </trkpt>
      <trkpt lat="42.4048190" lon="-3.2851840">
        <ele>893.2</ele>
        <time>2020-04-02T18:19:18Z</time>
      </trkpt>
      <trkpt lat="42.4047910" lon="-3.2853190">
        <ele>893.7</ele>
        <time>2020-04-02T18:19:20Z</time>
      </trkpt>
      <trkpt lat="42.4047630" lon="-3.2854520">
        <ele>894.2</ele>
        <time>2020-04-02T18:19:22Z</time>
      </trkpt>
      <trkpt lat="42.4047350" lon="-3.2855840">
        <ele>894.7</ele>
        <time>2020-04-02T18:19:24Z</time>
      </trkpt>
      <trkpt lat="42.4046530" lon="-3.2859730">
        <ele>896.3</ele>
        <time>2020-04-02T18:19:26Z</time>
      </trkpt>
      <trkpt lat="42.4046280" lon="-3.2860930">
        <ele>897.0</ele>
        <time>2020-04-02T18:19:28Z</time>
      </trkpt>
      <trkpt lat="42.4046040" lon="-3.2862050">
        <ele>897.5</ele>
        <time>2020-04-02T18:19:30Z</time>
      </trkpt>
      <trkpt lat="42.4045820" lon="-3.2863130">
        <ele>897.9</ele>
        <time>2020-04-02T18:19:32Z</time>
      </trkpt>
      <trkpt lat="42.4045590" lon="-3.2864180">
        <ele>898.5</ele>
        <time>2020-04-02T18:19:34Z</time>
      </trkpt>
      <trkpt lat="42.4045380" lon="-3.2865200">
        <ele>899.0</ele>
        <time>2020-04-02T18:19:36Z</time>
      </trkpt>
      <trkpt lat="42.4045170" lon="-3.2866210">
        <ele>899.5</ele>
        <time>2020-04-02T18:19:38Z</time>
      </trkpt>
      <trkpt lat="42.4044370" lon="-3.2869770">
        <ele>901.6</ele>
        <time>2020-04-02T18:19:40Z</time>
      </trkpt>
      <trkpt lat="42.4044110" lon="-3.2870730">
        <ele>902.2</ele>
        <time>2020-04-02T18:19:42Z</time>
      </trkpt>
      <trkpt lat="42.4043860" lon="-3.2871690">
        <ele>902.9</ele>
        <time>2020-04-02T18:19:44Z</time>
      </trkpt>
      <trkpt lat="42.4043260" lon="-3.2873940">
        <ele>904.6</ele>
        <time>2020-04-02T18:19:46Z</time>
      </trkpt>
      <trkpt lat="42.4042970" lon="-3.2874870">
        <ele>905.4</ele>
        <time>2020-04-02T18:19:48Z</time>
      </trkpt>
      <trkpt lat="42.4042680" lon="-3.2875770">
        <ele>906.0</ele>
        <time>2020-04-02T18:19:50Z</time>
      </trkpt>
      <trkpt lat="42.4042400" lon="-3.2876680">
        <ele>906.8</ele>
        <time>2020-04-02T18:19:52Z</time>
      </trkpt>
      <trkpt lat="42.4042120" lon="-3.2877580">
        <ele>907.5</ele>
        <time>2020-04-02T18:19:54Z</time>
      </trkpt>
      <trkpt lat="42.4041390" lon="-3.2880070">
        <ele>909.0</ele>
        <time>2020-04-02T18:19:56Z</time>
      </trkpt>
      <trkpt lat="42.4041340" lon="-3.2881030">
        <ele>909.7</ele>
        <time>2020-04-02T18:19:58Z</time>
      </trkpt>
      <trkpt lat="42.4041410" lon="-3.2882450">
        <ele>910.7</ele>
        <time>2020-04-02T18:20:00Z</time>
      </trkpt>
      <trkpt lat="42.4041540" lon="-3.2883380">
        <ele>911.5</ele>
        <time>2020-04-02T18:20:02Z</time>
      </trkpt>
      <trkpt lat="42.4041810" lon="-3.2885040">
        <ele>912.9</ele>
        <time>2020-04-02T18:20:04Z</time>
      </trkpt>
      <trkpt lat="42.4042010" lon="-3.2885970">
        <ele>913.6</ele>
        <time>2020-04-02T18:20:06Z</time>
      </trkpt>
      <trkpt lat="42.4042210" lon="-3.2886900">
        <ele>914.4</ele>
        <time>2020-04-02T18:20:08Z</time>
      </trkpt>
      <trkpt lat="42.4042410" lon="-3.2887820">
        <ele>915.3</ele>
        <time>2020-04-02T18:20:10Z</time>
      </trkpt>
      <trkpt lat="42.4042730" lon="-3.2890060">
        <ele>917.1</ele>
        <time>2020-04-02T18:20:12Z</time>
      </trkpt>
      <trkpt lat="42.4042770" lon="-3.2891190">
        <ele>918.0</ele>
        <time>2020-04-02T18:20:14Z</time>
      </trkpt>
      <trkpt lat="42.4042820" lon="-3.2892380">
        <ele>918.9</ele>
        <time>2020-04-02T18:20:16Z</time>
      </trkpt>
      <trkpt lat="42.4042840" lon="-3.2894980">
        <ele>920.2</ele>
        <time>2020-04-02T18:20:18Z</time>
      </trkpt>
      <trkpt lat="42.4042670" lon="-3.2896210">
        <ele>920.8</ele>
        <time>2020-04-02T18:20:20Z</time>
      </trkpt>
      <trkpt lat="42.4042500" lon="-3.2897460">
        <ele>921.3</ele>
        <time>2020-04-02T18:20:22Z</time>
      </trkpt>
      <trkpt lat="42.4042330" lon="-3.2898710">
        <ele>921.7</ele>
        <time>2020-04-02T18:20:24Z</time>
      </trkpt>
      <trkpt lat="42.4042160" lon="-3.2899980">
        <ele>922.0</ele>
        <time>2020-04-02T18:20:26Z</time>
      </trkpt>
      <trkpt lat="42.4041680" lon="-3.2903600">
        <ele>923.3</ele>
        <time>2020-04-02T18:20:28Z</time>
      </trkpt>
      <trkpt lat="42.4041510" lon="-3.2904870">
        <ele>923.8</ele>
        <time>2020-04-02T18:20:30Z</time>
      </trkpt>
      <trkpt lat="42.4041340" lon="-3.2906150">
        <ele>924.3</ele>
        <time>2020-04-02T18:20:32Z</time>
      </trkpt>
      <trkpt lat="42.4041160" lon="-3.2907440">
        <ele>924.9</ele>
        <time>2020-04-02T18:20:34Z</time>
      </trkpt>
      <trkpt lat="42.4040990" lon="-3.2908740">
        <ele>925.7</ele>
        <time>2020-04-02T18:20:36Z</time>
      </trkpt>
      <trkpt lat="42.4040820" lon="-3.2910020">
        <ele>926.5</ele>
        <time>2020-04-02T18:20:38Z</time>
      </trkpt>
      <trkpt lat="42.4040170" lon="-3.2913580">
        <ele>928.0</ele>
        <time>2020-04-02T18:20:40Z</time>
      </trkpt>
      <trkpt lat="42.4039820" lon="-3.2914810">
        <ele>928.5</ele>
        <time>2020-04-02T18:20:42Z</time>
      </trkpt>
      <trkpt lat="42.4039120" lon="-3.2917230">
        <ele>929.5</ele>
        <time>2020-04-02T18:20:44Z</time>
      </trkpt>
      <trkpt lat="42.4038700" lon="-3.2918400">
        <ele>930.0</ele>
        <time>2020-04-02T18:20:46Z</time>
      </trkpt>
      <trkpt lat="42.4038280" lon="-3.2919580">
        <ele>930.5</ele>
        <time>2020-04-02T18:20:48Z</time>
      </trkpt>
      <trkpt lat="42.4037440" lon="-3.2921860">
        <ele>931.4</ele>
        <time>2020-04-02T18:20:50Z</time>
      </trkpt>
      <trkpt lat="42.4036950" lon="-3.2923110">
        <ele>931.8</ele>
        <time>2020-04-02T18:20:52Z</time>
      </trkpt>
      <trkpt lat="42.4036440" lon="-3.2924410">
        <ele>932.3</ele>
        <time>2020-04-02T18:20:54Z</time>
      </trkpt>
      <trkpt lat="42.4035900" lon="-3.2925760">
        <ele>932.7</ele>
        <time>2020-04-02T18:20:56Z</time>
      </trkpt>
      <trkpt lat="42.4035360" lon="-3.2927130">
        <ele>933.1</ele>
        <time>2020-04-02T18:20:58Z</time>
      </trkpt>
      <trkpt lat="42.4034830" lon="-3.2928470">
        <ele>933.4</ele>
        <time>2020-04-02T18:21:00Z</time>
      </trkpt>
      <trkpt lat="42.4033340" lon="-3.2932430">
        <ele>933.8</ele>
        <time>2020-04-02T18:21:02Z</time>
      </trkpt>
      <trkpt lat="42.4032570" lon="-3.2934700">
        <ele>934.2</ele>
        <time>2020-04-02T18:21:04Z</time>
      </trkpt>
      <trkpt lat="42.4032200" lon="-3.2936100">
        <ele>934.5</ele>
        <time>2020-04-02T18:21:06Z</time>
      </trkpt>
      <trkpt lat="42.4031620" lon="-3.2938360">
        <ele>934.7</ele>
        <time>2020-04-02T18:21:08Z</time>
      </trkpt>
      <trkpt lat="42.4031310" lon="-3.2939680">
        <ele>934.8</ele>
        <time>2020-04-02T18:21:10Z</time>
      </trkpt>
      <trkpt lat="42.4031030" lon="-3.2940910">
        <ele>934.9</ele>
        <time>2020-04-02T18:21:12Z</time>
      </trkpt>
      <trkpt lat="42.4030760" lon="-3.2942070">
        <ele>935.2</ele>
        <time>2020-04-02T18:21:14Z</time>
      </trkpt>
      <trkpt lat="42.4030500" lon="-3.2943200">
        <ele>935.5</ele>
        <time>2020-04-02T18:21:16Z</time>
      </trkpt>
      <trkpt lat="42.4030250" lon="-3.2944300">
        <ele>935.8</ele>
        <time>2020-04-02T18:21:18Z</time>
      </trkpt>
      <trkpt lat="42.4029440" lon="-3.2947790">
        <ele>936.6</ele>
        <time>2020-04-02T18:21:20Z</time>
      </trkpt>
      <trkpt lat="42.4029210" lon="-3.2948830">
        <ele>936.7</ele>
        <time>2020-04-02T18:21:22Z</time>
      </trkpt>
      <trkpt lat="42.4028970" lon="-3.2949850">
        <ele>936.8</ele>
        <time>2020-04-02T18:21:24Z</time>
      </trkpt>
      <trkpt lat="42.4028740" lon="-3.2950860">
        <ele>937.2</ele>
        <time>2020-04-02T18:21:26Z</time>
      </trkpt>
      <trkpt lat="42.4028510" lon="-3.2951850">
        <ele>937.7</ele>
        <time>2020-04-02T18:21:28Z</time>
      </trkpt>
      <trkpt lat="42.4028280" lon="-3.2952840">
        <ele>938.7</ele>
        <time>2020-04-02T18:21:30Z</time>
      </trkpt>
      <trkpt lat="42.4028050" lon="-3.2953830">
        <ele>939.5</ele>
        <time>2020-04-02T18:21:32Z</time>
      </trkpt>
      <trkpt lat="42.4027260" lon="-3.2957260">
        <ele>941.5</ele>
        <time>2020-04-02T18:21:34Z</time>
      </trkpt>
      <trkpt lat="42.4027000" lon="-3.2958380">
        <ele>941.9</ele>
        <time>2020-04-02T18:21:36Z</time>
      </trkpt>
      <trkpt lat="42.4026730" lon="-3.2959570">
        <ele>942.3</ele>
        <time>2020-04-02T18:21:38Z</time>
      </trkpt>
      <trkpt lat="42.4026450" lon="-3.2960780">
        <ele>942.8</ele>
        <time>2020-04-02T18:21:40Z</time>
      </trkpt>
      <trkpt lat="42.4026170" lon="-3.2962020">
        <ele>943.4</ele>
        <time>2020-04-02T18:21:42Z</time>
      </trkpt>
      <trkpt lat="42.4025310" lon="-3.2965730">
        <ele>944.5</ele>
        <time>2020-04-02T18:21:44Z</time>
      </trkpt>
      <trkpt lat="42.4025000" lon="-3.2967070">
        <ele>944.8</ele>
        <time>2020-04-02T18:21:46Z</time>
      </trkpt>
      <trkpt lat="42.4024680" lon="-3.2968470">
        <ele>945.0</ele>
        <time>2020-04-02T18:21:48Z</time>
      </trkpt>
      <trkpt lat="42.4024350" lon="-3.2969890">
        <ele>945.2</ele>
        <time>2020-04-02T18:21:50Z</time>
      </trkpt>
      <trkpt lat="42.4024020" lon="-3.2971350">
        <ele>945.3</ele>
        <time>2020-04-02T18:21:52Z</time>
      </trkpt>
      <trkpt lat="42.4023120" lon="-3.2975220">
        <ele>945.4</ele>
        <time>2020-04-02T18:21:54Z</time>
      </trkpt>
      <trkpt lat="42.4022720" lon="-3.2976910">
        <ele>945.0</ele>
        <time>2020-04-02T18:21:56Z</time>
      </trkpt>
      <trkpt lat="42.4022250" lon="-3.2978890">
        <ele>944.3</ele>
        <time>2020-04-02T18:21:58Z</time>
      </trkpt>
      <trkpt lat="42.4021720" lon="-3.2981100">
        <ele>943.0</ele>
        <time>2020-04-02T18:22:00Z</time>
      </trkpt>
      <trkpt lat="42.4020460" lon="-3.2986400">
        <ele>937.9</ele>
        <time>2020-04-02T18:22:02Z</time>
      </trkpt>
      <trkpt lat="42.4019860" lon="-3.2988930">
        <ele>935.5</ele>
        <time>2020-04-02T18:22:04Z</time>
      </trkpt>
      <trkpt lat="42.4019220" lon="-3.2991590">
        <ele>932.8</ele>
        <time>2020-04-02T18:22:06Z</time>
      </trkpt>
      <trkpt lat="42.4018570" lon="-3.2994350">
        <ele>930.1</ele>
        <time>2020-04-02T18:22:08Z</time>
      </trkpt>
      <trkpt lat="42.4017240" lon="-3.2999930">
        <ele>925.5</ele>
        <time>2020-04-02T18:22:10Z</time>
      </trkpt>
      <trkpt lat="42.4016650" lon="-3.3002430">
        <ele>924.2</ele>
        <time>2020-04-02T18:22:12Z</time>
      </trkpt>
      <trkpt lat="42.4016090" lon="-3.3004770">
        <ele>923.2</ele>
        <time>2020-04-02T18:22:14Z</time>
      </trkpt>
      <trkpt lat="42.4014210" lon="-3.3009660">
        <ele>921.3</ele>
        <time>2020-04-02T18:22:16Z</time>
      </trkpt>
      <trkpt lat="42.4012670" lon="-3.3010300">
        <ele>921.3</ele>
        <time>2020-04-02T18:22:18Z</time>
      </trkpt>
      <trkpt lat="42.4011210" lon="-3.3010900">
        <ele>921.3</ele>
        <time>2020-04-02T18:22:20Z</time>
      </trkpt>
      <trkpt lat="42.4009830" lon="-3.3011470">
        <ele>921.3</ele>
        <time>2020-04-02T18:22:22Z</time>
      </trkpt>
      <trkpt lat="42.4006480" lon="-3.3012860">
        <ele>922.0</ele>
        <time>2020-04-02T18:22:24Z</time>
      </trkpt>
      <trkpt lat="42.4005220" lon="-3.3013380">
        <ele>922.3</ele>
        <time>2020-04-02T18:22:26Z</time>
      </trkpt>
      <trkpt lat="42.4003990" lon="-3.3013890">
        <ele>922.6</ele>
        <time>2020-04-02T18:22:28Z</time>
      </trkpt>
      <trkpt lat="42.4002810" lon="-3.3014380">
        <ele>922.8</ele>
        <time>2020-04-02T18:22:30Z</time>
      </trkpt>
      <trkpt lat="42.4001660" lon="-3.3014850">
        <ele>922.9</ele>
        <time>2020-04-02T18:22:32Z</time>
      </trkpt>
      <trkpt lat="42.3998480" lon="-3.3016170">
        <ele>923.4</ele>
        <time>2020-04-02T18:22:34Z</time>
      </trkpt>
      <trkpt lat="42.3997370" lon="-3.3016630">
        <ele>923.5</ele>
        <time>2020-04-02T18:22:36Z</time>
      </trkpt>
      <trkpt lat="42.3996270" lon="-3.3017080">
        <ele>923.7</ele>
        <time>2020-04-02T18:22:38Z</time>
      </trkpt>
      <trkpt lat="42.3995180" lon="-3.3017530">
        <ele>923.9</ele>
        <time>2020-04-02T18:22:40Z</time>
      </trkpt>
      <trkpt lat="42.3994100" lon="-3.3017980">
        <ele>924.0</ele>
        <time>2020-04-02T18:22:42Z</time>
      </trkpt>
      <trkpt lat="42.3990980" lon="-3.3019270">
        <ele>924.4</ele>
        <time>2020-04-02T18:22:44Z</time>
      </trkpt>
      <trkpt lat="42.3989910" lon="-3.3019710">
        <ele>924.7</ele>
        <time>2020-04-02T18:22:46Z</time>
      </trkpt>
      <trkpt lat="42.3988850" lon="-3.3020150">
        <ele>924.9</ele>
        <time>2020-04-02T18:22:48Z</time>
      </trkpt>
      <trkpt lat="42.3987790" lon="-3.3020590">
        <ele>925.1</ele>
        <time>2020-04-02T18:22:50Z</time>
      </trkpt>
      <trkpt lat="42.3986710" lon="-3.3021030">
        <ele>925.2</ele>
        <time>2020-04-02T18:22:52Z</time>
      </trkpt>
      <trkpt lat="42.3985650" lon="-3.3021470">
        <ele>925.2</ele>
        <time>2020-04-02T18:22:54Z</time>
      </trkpt>
      <trkpt lat="42.3982560" lon="-3.3022750">
        <ele>925.7</ele>
        <time>2020-04-02T18:22:56Z</time>
      </trkpt>
      <trkpt lat="42.3981510" lon="-3.3023190">
        <ele>925.9</ele>
        <time>2020-04-02T18:22:58Z</time>
      </trkpt>
      <trkpt lat="42.3980470" lon="-3.3023620">
        <ele>926.1</ele>
        <time>2020-04-02T18:23:00Z</time>
      </trkpt>
      <trkpt lat="42.3979430" lon="-3.3024050">
        <ele>926.2</ele>
        <time>2020-04-02T18:23:02Z</time>
      </trkpt>
      <trkpt lat="42.3978380" lon="-3.3024480">
        <ele>926.2</ele>
        <time>2020-04-02T18:23:04Z</time>
      </trkpt>
      <trkpt lat="42.3975290" lon="-3.3025760">
        <ele>926.3</ele>
        <time>2020-04-02T18:23:06Z</time>
      </trkpt>
      <trkpt lat="42.3974250" lon="-3.3026190">
        <ele>926.5</ele>
        <time>2020-04-02T18:23:08Z</time>
      </trkpt>
      <trkpt lat="42.3973200" lon="-3.3026620">
        <ele>926.7</ele>
        <time>2020-04-02T18:23:10Z</time>
      </trkpt>
      <trkpt lat="42.3972160" lon="-3.3027050">
        <ele>926.9</ele>
        <time>2020-04-02T18:23:12Z</time>
      </trkpt>
      <trkpt lat="42.3971170" lon="-3.3027460">
        <ele>927.1</ele>
        <time>2020-04-02T18:23:14Z</time>
      </trkpt>
      <trkpt lat="42.3970270" lon="-3.3027840">
        <ele>927.3</ele>
        <time>2020-04-02T18:23:16Z</time>
      </trkpt>
      <trkpt lat="42.3967400" lon="-3.3028940">
        <ele>928.0</ele>
        <time>2020-04-02T18:23:18Z</time>
      </trkpt>
      <trkpt lat="42.3966680" lon="-3.3029020">
        <ele>928.1</ele>
        <time>2020-04-02T18:23:20Z</time>
      </trkpt>
      <trkpt lat="42.3965690" lon="-3.3029080">
        <ele>928.3</ele>
        <time>2020-04-02T18:23:22Z</time>
      </trkpt>
      <trkpt lat="42.3965330" lon="-3.3029050">
        <ele>928.3</ele>
        <time>2020-04-02T18:23:24Z</time>
      </trkpt>
      <trkpt lat="42.3965160" lon="-3.3029040">
        <ele>928.3</ele>
        <time>2020-04-02T18:23:26Z</time>
      </trkpt>
      <trkpt lat="42.3965140" lon="-3.3029040">
        <ele>928.3</ele>
        <time>2020-04-02T18:23:28Z</time>
      </trkpt>
      <trkpt lat="42.3965140" lon="-3.3029040">
        <ele>928.3</ele>
        <time>2020-04-02T18:23:30Z</time>
      </trkpt>
      <trkpt lat="42.3965140" lon="-3.3029040">
        <ele>928.3</ele>
        <time>2020-04-02T18:23:32Z</time>
      </trkpt>
      <trkpt lat="42.3965140" lon="-3.3029040">
        <ele>928.3</ele>
        <time>2020-04-02T18:23:34Z</time>
      </trkpt>
      <trkpt lat="42.3965140" lon="-3.3029040">
        <ele>928.3</ele>
        <time>2020-04-02T18:23:36Z</time>
      </trkpt>
      <trkpt lat="42.3965140" lon="-3.3029040">
        <ele>928.3</ele>
        <time>2020-04-02T18:23:38Z</time>
      </trkpt>
      <trkpt lat="42.3965140" lon="-3.3029040">
        <ele>928.3</ele>
        <time>2020-04-02T18:23:40Z</time>
      </trkpt>
      <trkpt lat="42.3965140" lon="-3.3029040">
        <ele>928.3</ele>
        <time>2020-04-02T18:23:42Z</time>
      </trkpt>
      <trkpt lat="42.3965140" lon="-3.3029040">
        <ele>928.3</ele>
        <time>2020-04-02T18:23:44Z</time>
      </trkpt>
      <trkpt lat="42.3965140" lon="-3.3029040">
        <ele>928.3</ele>
        <time>2020-04-02T18:23:46Z</time>
      </trkpt>
      <trkpt lat="42.3965140" lon="-3.3029040">
        <ele>928.3</ele>
        <time>2020-04-02T18:23:48Z</time>
      </trkpt>
      <trkpt lat="42.3965140" lon="-3.3029040">
        <ele>928.3</ele>
        <time>2020-04-02T18:23:50Z</time>
      </trkpt>
      <trkpt lat="42.3965140" lon="-3.3029040">
        <ele>928.3</ele>
        <time>2020-04-02T18:23:52Z</time>
      </trkpt>
      <trkpt lat="42.3965140" lon="-3.3029040">
        <ele>928.3</ele>
        <time>2020-04-02T18:23:54Z</time>
      </trkpt>
      <trkpt lat="42.3965140" lon="-3.3029040">
        <ele>928.3</ele>
        <time>2020-04-02T18:23:56Z</time>
      </trkpt>
      <trkpt lat="42.3965070" lon="-3.3029030">
        <ele>928.4</ele>
        <time>2020-04-02T18:23:58Z</time>
      </trkpt>
      <trkpt lat="42.3964330" lon="-3.3028880">
        <ele>928.5</ele>
        <time>2020-04-02T18:24:00Z</time>
      </trkpt>
      <trkpt lat="42.3963430" lon="-3.3028470">
        <ele>928.7</ele>
        <time>2020-04-02T18:24:02Z</time>
      </trkpt>
      <trkpt lat="42.3962650" lon="-3.3027900">
        <ele>929.0</ele>
        <time>2020-04-02T18:24:04Z</time>
      </trkpt>
      <trkpt lat="42.3962070" lon="-3.3027210">
        <ele>929.3</ele>
        <time>2020-04-02T18:24:06Z</time>
      </trkpt>
      <trkpt lat="42.3961470" lon="-3.3026480">
        <ele>929.6</ele>
        <time>2020-04-02T18:24:08Z</time>
      </trkpt>
      <trkpt lat="42.3960840" lon="-3.3025720">
        <ele>930.0</ele>
        <time>2020-04-02T18:24:10Z</time>
      </trkpt>
      <trkpt lat="42.3960210" lon="-3.3024970">
        <ele>930.5</ele>
        <time>2020-04-02T18:24:12Z</time>
      </trkpt>
      <trkpt lat="42.3959580" lon="-3.3024210">
        <ele>931.1</ele>
        <time>2020-04-02T18:24:14Z</time>
      </trkpt>
      <trkpt lat="42.3957340" lon="-3.3023060">
        <ele>932.7</ele>
        <time>2020-04-02T18:24:16Z</time>
      </trkpt>
      <trkpt lat="42.3956320" lon="-3.3023840">
        <ele>933.0</ele>
        <time>2020-04-02T18:24:18Z</time>
      </trkpt>
      <trkpt lat="42.3955480" lon="-3.3024600">
        <ele>933.0</ele>
        <time>2020-04-02T18:24:20Z</time>
      </trkpt>
      <trkpt lat="42.3954050" lon="-3.3026030">
        <ele>932.8</ele>
        <time>2020-04-02T18:24:22Z</time>
      </trkpt>
      <trkpt lat="42.3953220" lon="-3.3027010">
        <ele>932.6</ele>
        <time>2020-04-02T18:24:24Z</time>
      </trkpt>
      <trkpt lat="42.3951710" lon="-3.3028510">
        <ele>932.5</ele>
        <time>2020-04-02T18:24:26Z</time>
      </trkpt>
      <trkpt lat="42.3950680" lon="-3.3029230">
        <ele>932.5</ele>
        <time>2020-04-02T18:24:28Z</time>
      </trkpt>
      <trkpt lat="42.3949240" lon="-3.3030680">
        <ele>932.6</ele>
        <time>2020-04-02T18:24:30Z</time>
      </trkpt>
      <trkpt lat="42.3948460" lon="-3.3031680">
        <ele>932.7</ele>
        <time>2020-04-02T18:24:32Z</time>
      </trkpt>
      <trkpt lat="42.3947100" lon="-3.3033200">
        <ele>933.1</ele>
        <time>2020-04-02T18:24:34Z</time>
      </trkpt>
      <trkpt lat="42.3945860" lon="-3.3033960">
        <ele>933.4</ele>
        <time>2020-04-02T18:24:36Z</time>
      </trkpt>
      <trkpt lat="42.3944950" lon="-3.3034360">
        <ele>933.8</ele>
        <time>2020-04-02T18:24:38Z</time>
      </trkpt>
      <trkpt lat="42.3944060" lon="-3.3034740">
        <ele>934.2</ele>
        <time>2020-04-02T18:24:40Z</time>
      </trkpt>
      <trkpt lat="42.3942290" lon="-3.3035730">
        <ele>935.0</ele>
        <time>2020-04-02T18:24:42Z</time>
      </trkpt>
      <trkpt lat="42.3941490" lon="-3.3036330">
        <ele>935.3</ele>
        <time>2020-04-02T18:24:44Z</time>
      </trkpt>
      <trkpt lat="42.3940080" lon="-3.3037420">
        <ele>936.0</ele>
        <time>2020-04-02T18:24:46Z</time>
      </trkpt>
      <trkpt lat="42.3939270" lon="-3.3038070">
        <ele>936.4</ele>
        <time>2020-04-02T18:24:48Z</time>
      </trkpt>
      <trkpt lat="42.3938430" lon="-3.3038750">
        <ele>936.7</ele>
        <time>2020-04-02T18:24:50Z</time>
      </trkpt>
      <trkpt lat="42.3937570" lon="-3.3039450">
        <ele>937.0</ele>
        <time>2020-04-02T18:24:52Z</time>
      </trkpt>
      <trkpt lat="42.3935620" lon="-3.3041120">
        <ele>937.7</ele>
        <time>2020-04-02T18:24:54Z</time>
      </trkpt>
      <trkpt lat="42.3934750" lon="-3.3041920">
        <ele>937.9</ele>
        <time>2020-04-02T18:24:56Z</time>
      </trkpt>
      <trkpt lat="42.3933190" lon="-3.3043280">
        <ele>938.2</ele>
        <time>2020-04-02T18:24:58Z</time>
      </trkpt>
      <trkpt lat="42.3932290" lon="-3.3044030">
        <ele>938.5</ele>
        <time>2020-04-02T18:25:00Z</time>
      </trkpt>
      <trkpt lat="42.3931390" lon="-3.3044780">
        <ele>938.8</ele>
        <time>2020-04-02T18:25:02Z</time>
      </trkpt>
      <trkpt lat="42.3929270" lon="-3.3046540">
        <ele>939.1</ele>
        <time>2020-04-02T18:25:04Z</time>
      </trkpt>
      <trkpt lat="42.3928290" lon="-3.3047670">
        <ele>939.1</ele>
        <time>2020-04-02T18:25:06Z</time>
      </trkpt>
      <trkpt lat="42.3927320" lon="-3.3048570">
        <ele>939.0</ele>
        <time>2020-04-02T18:25:08Z</time>
      </trkpt>
      <trkpt lat="42.3926300" lon="-3.3049520">
        <ele>939.0</ele>
        <time>2020-04-02T18:25:10Z</time>
      </trkpt>
      <trkpt lat="42.3924090" lon="-3.3051440">
        <ele>938.9</ele>
        <time>2020-04-02T18:25:12Z</time>
      </trkpt>
      <trkpt lat="42.3922900" lon="-3.3052240">
        <ele>938.8</ele>
        <time>2020-04-02T18:25:14Z</time>
      </trkpt>
      <trkpt lat="42.3920820" lon="-3.3053600">
        <ele>938.3</ele>
        <time>2020-04-02T18:25:16Z</time>
      </trkpt>
      <trkpt lat="42.3919810" lon="-3.3054930">
        <ele>937.5</ele>
        <time>2020-04-02T18:25:18Z</time>
      </trkpt>
      <trkpt lat="42.3917950" lon="-3.3057380">
        <ele>936.2</ele>
        <time>2020-04-02T18:25:20Z</time>
      </trkpt>
      <trkpt lat="42.3917020" lon="-3.3058790">
        <ele>935.7</ele>
        <time>2020-04-02T18:25:22Z</time>
      </trkpt>
      <trkpt lat="42.3916130" lon="-3.3060130">
        <ele>935.5</ele>
        <time>2020-04-02T18:25:24Z</time>
      </trkpt>
      <trkpt lat="42.3914470" lon="-3.3062470">
        <ele>935.3</ele>
        <time>2020-04-02T18:25:26Z</time>
      </trkpt>
      <trkpt lat="42.3913560" lon="-3.3063580">
        <ele>935.2</ele>
        <time>2020-04-02T18:25:28Z</time>
      </trkpt>
      <trkpt lat="42.3911900" lon="-3.3065390">
        <ele>935.1</ele>
        <time>2020-04-02T18:25:30Z</time>
      </trkpt>
      <trkpt lat="42.3910470" lon="-3.3066600">
        <ele>936.1</ele>
        <time>2020-04-02T18:25:32Z</time>
      </trkpt>
      <trkpt lat="42.3909730" lon="-3.3067730">
        <ele>936.6</ele>
        <time>2020-04-02T18:25:34Z</time>
      </trkpt>
      <trkpt lat="42.3908610" lon="-3.3069510">
        <ele>937.2</ele>
        <time>2020-04-02T18:25:36Z</time>
      </trkpt>
      <trkpt lat="42.3908000" lon="-3.3070600">
        <ele>937.5</ele>
        <time>2020-04-02T18:25:38Z</time>
      </trkpt>
      <trkpt lat="42.3907400" lon="-3.3071650">
        <ele>937.7</ele>
        <time>2020-04-02T18:25:40Z</time>
      </trkpt>
      <trkpt lat="42.3906810" lon="-3.3072690">
        <ele>937.9</ele>
        <time>2020-04-02T18:25:42Z</time>
      </trkpt>
      <trkpt lat="42.3905710" lon="-3.3075240">
        <ele>938.5</ele>
        <time>2020-04-02T18:25:44Z</time>
      </trkpt>
      <trkpt lat="42.3904810" lon="-3.3075600">
        <ele>939.1</ele>
        <time>2020-04-02T18:25:46Z</time>
      </trkpt>
      <trkpt lat="42.3904190" lon="-3.3076580">
        <ele>939.8</ele>
        <time>2020-04-02T18:25:48Z</time>
      </trkpt>
      <trkpt lat="42.3903550" lon="-3.3077610">
        <ele>940.6</ele>
        <time>2020-04-02T18:25:50Z</time>
      </trkpt>
      <trkpt lat="42.3902150" lon="-3.3079700">
        <ele>942.5</ele>
        <time>2020-04-02T18:25:52Z</time>
      </trkpt>
      <trkpt lat="42.3901220" lon="-3.3080300">
        <ele>943.9</ele>
        <time>2020-04-02T18:25:54Z</time>
      </trkpt>
      <trkpt lat="42.3900280" lon="-3.3080920">
        <ele>945.0</ele>
        <time>2020-04-02T18:25:56Z</time>
      </trkpt>
      <trkpt lat="42.3899330" lon="-3.3081540">
        <ele>945.7</ele>
        <time>2020-04-02T18:25:58Z</time>
      </trkpt>
      <trkpt lat="42.3898370" lon="-3.3082170">
        <ele>946.5</ele>
        <time>2020-04-02T18:26:00Z</time>
      </trkpt>
      <trkpt lat="42.3897420" lon="-3.3082800">
        <ele>947.4</ele>
        <time>2020-04-02T18:26:02Z</time>
      </trkpt>
      <trkpt lat="42.3896460" lon="-3.3083420">
        <ele>948.4</ele>
        <time>2020-04-02T18:26:04Z</time>
      </trkpt>
      <trkpt lat="42.3893930" lon="-3.3083680">
        <ele>949.8</ele>
        <time>2020-04-02T18:26:06Z</time>
      </trkpt>
      <trkpt lat="42.3893680" lon="-3.3081650">
        <ele>947.8</ele>
        <time>2020-04-02T18:26:08Z</time>
      </trkpt>
      <trkpt lat="42.3893520" lon="-3.3079070">
        <ele>945.3</ele>
        <time>2020-04-02T18:26:10Z</time>
      </trkpt>
      <trkpt lat="42.3893610" lon="-3.3077410">
        <ele>943.5</ele>
        <time>2020-04-02T18:26:12Z</time>
      </trkpt>
      <trkpt lat="42.3893640" lon="-3.3076830">
        <ele>942.9</ele>
        <time>2020-04-02T18:26:14Z</time>
      </trkpt>
      <trkpt lat="42.3893510" lon="-3.3079500">
        <ele>945.7</ele>
        <time>2020-04-02T18:26:16Z</time>
      </trkpt>
      <trkpt lat="42.3893640" lon="-3.3081100">
        <ele>947.3</ele>
        <time>2020-04-02T18:26:18Z</time>
      </trkpt>
      <trkpt lat="42.3893880" lon="-3.3083480">
        <ele>949.6</ele>
        <time>2020-04-02T18:26:20Z</time>
      </trkpt>
      <trkpt lat="42.3894000" lon="-3.3085010">
        <ele>951.1</ele>
        <time>2020-04-02T18:26:22Z</time>
      </trkpt>
      <trkpt lat="42.3893190" lon="-3.3085430">
        <ele>951.4</ele>
        <time>2020-04-02T18:26:24Z</time>
      </trkpt>
      <trkpt lat="42.3891930" lon="-3.3086020">
        <ele>951.9</ele>
        <time>2020-04-02T18:26:26Z</time>
      </trkpt>
      <trkpt lat="42.3891190" lon="-3.3086270">
        <ele>952.1</ele>
        <time>2020-04-02T18:26:28Z</time>
      </trkpt>
      <trkpt lat="42.3890430" lon="-3.3087180">
        <ele>953.3</ele>
        <time>2020-04-02T18:26:30Z</time>
      </trkpt>
      <trkpt lat="42.3890020" lon="-3.3088270">
        <ele>954.1</ele>
        <time>2020-04-02T18:26:32Z</time>
      </trkpt>
      <trkpt lat="42.3889630" lon="-3.3089080">
        <ele>954.6</ele>
        <time>2020-04-02T18:26:34Z</time>
      </trkpt>
      <trkpt lat="42.3889210" lon="-3.3089920">
        <ele>955.1</ele>
        <time>2020-04-02T18:26:36Z</time>
      </trkpt>
      <trkpt lat="42.3888770" lon="-3.3090820">
        <ele>955.7</ele>
        <time>2020-04-02T18:26:38Z</time>
      </trkpt>
      <trkpt lat="42.3887500" lon="-3.3092850">
        <ele>956.8</ele>
        <time>2020-04-02T18:26:40Z</time>
      </trkpt>
      <trkpt lat="42.3886680" lon="-3.3093360">
        <ele>957.0</ele>
        <time>2020-04-02T18:26:42Z</time>
      </trkpt>
      <trkpt lat="42.3885820" lon="-3.3093890">
        <ele>957.2</ele>
        <time>2020-04-02T18:26:44Z</time>
      </trkpt>
      <trkpt lat="42.3884930" lon="-3.3094450">
        <ele>957.4</ele>
        <time>2020-04-02T18:26:46Z</time>
      </trkpt>
      <trkpt lat="42.3882910" lon="-3.3095890">
        <ele>958.4</ele>
        <time>2020-04-02T18:26:48Z</time>
      </trkpt>
      <trkpt lat="42.3881950" lon="-3.3096960">
        <ele>959.3</ele>
        <time>2020-04-02T18:26:50Z</time>
      </trkpt>
      <trkpt lat="42.3881150" lon="-3.3097850">
        <ele>960.3</ele>
        <time>2020-04-02T18:26:52Z</time>
      </trkpt>
      <trkpt lat="42.3881020" lon="-3.3099640">
        <ele>961.9</ele>
        <time>2020-04-02T18:26:54Z</time>
      </trkpt>
      <trkpt lat="42.3881980" lon="-3.3101530">
        <ele>963.1</ele>
        <time>2020-04-02T18:26:56Z</time>
      </trkpt>
      <trkpt lat="42.3882590" lon="-3.3102500">
        <ele>963.8</ele>
        <time>2020-04-02T18:26:58Z</time>
      </trkpt>
      <trkpt lat="42.3883380" lon="-3.3104030">
        <ele>965.4</ele>
        <time>2020-04-02T18:27:00Z</time>
      </trkpt>
      <trkpt lat="42.3883150" lon="-3.3105270">
        <ele>966.8</ele>
        <time>2020-04-02T18:27:02Z</time>
      </trkpt>
      <trkpt lat="42.3882620" lon="-3.3105860">
        <ele>967.5</ele>
        <time>2020-04-02T18:27:04Z</time>
      </trkpt>
      <trkpt lat="42.3882100" lon="-3.3106440">
        <ele>968.2</ele>
        <time>2020-04-02T18:27:06Z</time>
      </trkpt>
      <trkpt lat="42.3881150" lon="-3.3107450">
        <ele>969.7</ele>
        <time>2020-04-02T18:27:08Z</time>
      </trkpt>
      <trkpt lat="42.3880650" lon="-3.3107950">
        <ele>970.7</ele>
        <time>2020-04-02T18:27:10Z</time>
      </trkpt>
      <trkpt lat="42.3879680" lon="-3.3108840">
        <ele>972.3</ele>
        <time>2020-04-02T18:27:12Z</time>
      </trkpt>
      <trkpt lat="42.3879130" lon="-3.3109200">
        <ele>973.1</ele>
        <time>2020-04-02T18:27:14Z</time>
      </trkpt>
      <trkpt lat="42.3878580" lon="-3.3109560">
        <ele>974.0</ele>
        <time>2020-04-02T18:27:16Z</time>
      </trkpt>
      <trkpt lat="42.3877440" lon="-3.3110360">
        <ele>975.9</ele>
        <time>2020-04-02T18:27:18Z</time>
      </trkpt>
      <trkpt lat="42.3876770" lon="-3.3111250">
        <ele>977.3</ele>
        <time>2020-04-02T18:27:20Z</time>
      </trkpt>
      <trkpt lat="42.3876620" lon="-3.3112750">
        <ele>979.3</ele>
        <time>2020-04-02T18:27:22Z</time>
      </trkpt>
      <trkpt lat="42.3877030" lon="-3.3113700">
        <ele>980.1</ele>
        <time>2020-04-02T18:27:24Z</time>
      </trkpt>
      <trkpt lat="42.3877450" lon="-3.3114680">
        <ele>981.0</ele>
        <time>2020-04-02T18:27:26Z</time>
      </trkpt>
      <trkpt lat="42.3877870" lon="-3.3115670">
        <ele>981.8</ele>
        <time>2020-04-02T18:27:28Z</time>
      </trkpt>
      <trkpt lat="42.3878300" lon="-3.3116670">
        <ele>982.4</ele>
        <time>2020-04-02T18:27:30Z</time>
      </trkpt>
      <trkpt lat="42.3879230" lon="-3.3119220">
        <ele>983.9</ele>
        <time>2020-04-02T18:27:32Z</time>
      </trkpt>
      <trkpt lat="42.3879500" lon="-3.3120340">
        <ele>984.6</ele>
        <time>2020-04-02T18:27:34Z</time>
      </trkpt>
      <trkpt lat="42.3879780" lon="-3.3121450">
        <ele>985.3</ele>
        <time>2020-04-02T18:27:36Z</time>
      </trkpt>
      <trkpt lat="42.3880050" lon="-3.3122560">
        <ele>986.1</ele>
        <time>2020-04-02T18:27:38Z</time>
      </trkpt>
      <trkpt lat="42.3880330" lon="-3.3123670">
        <ele>986.8</ele>
        <time>2020-04-02T18:27:40Z</time>
      </trkpt>
      <trkpt lat="42.3880600" lon="-3.3124780">
        <ele>987.6</ele>
        <time>2020-04-02T18:27:42Z</time>
      </trkpt>
      <trkpt lat="42.3881150" lon="-3.3128220">
        <ele>990.1</ele>
        <time>2020-04-02T18:27:44Z</time>
      </trkpt>
      <trkpt lat="42.3881010" lon="-3.3129890">
        <ele>991.4</ele>
        <time>2020-04-02T18:27:46Z</time>
      </trkpt>
      <trkpt lat="42.3880770" lon="-3.3130900">
        <ele>992.3</ele>
        <time>2020-04-02T18:27:48Z</time>
      </trkpt>
      <trkpt lat="42.3880550" lon="-3.3131880">
        <ele>993.2</ele>
        <time>2020-04-02T18:27:50Z</time>
      </trkpt>
      <trkpt lat="42.3880140" lon="-3.3133970">
        <ele>995.7</ele>
        <time>2020-04-02T18:27:52Z</time>
      </trkpt>
      <trkpt lat="42.3880380" lon="-3.3134930">
        <ele>996.5</ele>
        <time>2020-04-02T18:27:54Z</time>
      </trkpt>
      <trkpt lat="42.3880620" lon="-3.3135900">
        <ele>997.3</ele>
        <time>2020-04-02T18:27:56Z</time>
      </trkpt>
      <trkpt lat="42.3880850" lon="-3.3136850">
        <ele>998.0</ele>
        <time>2020-04-02T18:27:58Z</time>
      </trkpt>
      <trkpt lat="42.3881080" lon="-3.3137800">
        <ele>998.7</ele>
        <time>2020-04-02T18:28:00Z</time>
      </trkpt>
      <trkpt lat="42.3881670" lon="-3.3140320">
        <ele>1000.6</ele>
        <time>2020-04-02T18:28:02Z</time>
      </trkpt>
      <trkpt lat="42.3881820" lon="-3.3141160">
        <ele>1001.2</ele>
        <time>2020-04-02T18:28:04Z</time>
      </trkpt>
      <trkpt lat="42.3881970" lon="-3.3141970">
        <ele>1001.8</ele>
        <time>2020-04-02T18:28:06Z</time>
      </trkpt>
      <trkpt lat="42.3882120" lon="-3.3142820">
        <ele>1002.5</ele>
        <time>2020-04-02T18:28:08Z</time>
      </trkpt>
      <trkpt lat="42.3882270" lon="-3.3143710">
        <ele>1003.2</ele>
        <time>2020-04-02T18:28:10Z</time>
      </trkpt>
      <trkpt lat="42.3882430" lon="-3.3144570">
        <ele>1003.8</ele>
        <time>2020-04-02T18:28:12Z</time>
      </trkpt>
      <trkpt lat="42.3882580" lon="-3.3145450">
        <ele>1004.6</ele>
        <time>2020-04-02T18:28:14Z</time>
      </trkpt>
      <trkpt lat="42.3882740" lon="-3.3146350">
        <ele>1005.5</ele>
        <time>2020-04-02T18:28:16Z</time>
      </trkpt>
      <trkpt lat="42.3883380" lon="-3.3149710">
        <ele>1008.9</ele>
        <time>2020-04-02T18:28:18Z</time>
      </trkpt>
      <trkpt lat="42.3883680" lon="-3.3150530">
        <ele>1009.6</ele>
        <time>2020-04-02T18:28:20Z</time>
      </trkpt>
      <trkpt lat="42.3883990" lon="-3.3151350">
        <ele>1010.4</ele>
        <time>2020-04-02T18:28:22Z</time>
      </trkpt>
      <trkpt lat="42.3884290" lon="-3.3152180">
        <ele>1011.1</ele>
        <time>2020-04-02T18:28:24Z</time>
      </trkpt>
      <trkpt lat="42.3884600" lon="-3.3153000">
        <ele>1011.9</ele>
        <time>2020-04-02T18:28:26Z</time>
      </trkpt>
      <trkpt lat="42.3884900" lon="-3.3153820">
        <ele>1012.6</ele>
        <time>2020-04-02T18:28:28Z</time>
      </trkpt>
      <trkpt lat="42.3885210" lon="-3.3154650">
        <ele>1013.5</ele>
        <time>2020-04-02T18:28:30Z</time>
      </trkpt>
      <trkpt lat="42.3885900" lon="-3.3157360">
        <ele>1015.3</ele>
        <time>2020-04-02T18:28:32Z</time>
      </trkpt>
      <trkpt lat="42.3885840" lon="-3.3158680">
        <ele>1016.4</ele>
        <time>2020-04-02T18:28:34Z</time>
      </trkpt>
      <trkpt lat="42.3885660" lon="-3.3159470">
        <ele>1017.5</ele>
        <time>2020-04-02T18:28:36Z</time>
      </trkpt>
      <trkpt lat="42.3885480" lon="-3.3160230">
        <ele>1018.6</ele>
        <time>2020-04-02T18:28:38Z</time>
      </trkpt>
      <trkpt lat="42.3885310" lon="-3.3160980">
        <ele>1019.6</ele>
        <time>2020-04-02T18:28:40Z</time>
      </trkpt>
      <trkpt lat="42.3885140" lon="-3.3161720">
        <ele>1020.6</ele>
        <time>2020-04-02T18:28:42Z</time>
      </trkpt>
      <trkpt lat="42.3884970" lon="-3.3162470">
        <ele>1021.7</ele>
        <time>2020-04-02T18:28:44Z</time>
      </trkpt>
      <trkpt lat="42.3884800" lon="-3.3163230">
        <ele>1022.9</ele>
        <time>2020-04-02T18:28:46Z</time>
      </trkpt>
      <trkpt lat="42.3884630" lon="-3.3163960">
        <ele>1024.1</ele>
        <time>2020-04-02T18:28:48Z</time>
      </trkpt>
      <trkpt lat="42.3884460" lon="-3.3164710">
        <ele>1025.3</ele>
        <time>2020-04-02T18:28:50Z</time>
      </trkpt>
      <trkpt lat="42.3884290" lon="-3.3165460">
        <ele>1026.4</ele>
        <time>2020-04-02T18:28:52Z</time>
      </trkpt>
      <trkpt lat="42.3883500" lon="-3.3168840">
        <ele>1031.2</ele>
        <time>2020-04-02T18:28:54Z</time>
      </trkpt>
      <trkpt lat="42.3883280" lon="-3.3169610">
        <ele>1032.3</ele>
        <time>2020-04-02T18:28:56Z</time>
      </trkpt>
      <trkpt lat="42.3883070" lon="-3.3170370">
        <ele>1033.3</ele>
        <time>2020-04-02T18:28:58Z</time>
      </trkpt>
      <trkpt lat="42.3882860" lon="-3.3171120">
        <ele>1034.3</ele>
        <time>2020-04-02T18:29:00Z</time>
      </trkpt>
      <trkpt lat="42.3882650" lon="-3.3171840">
        <ele>1035.2</ele>
        <time>2020-04-02T18:29:02Z</time>
      </trkpt>
      <trkpt lat="42.3882450" lon="-3.3172550">
        <ele>1036.1</ele>
        <time>2020-04-02T18:29:04Z</time>
      </trkpt>
      <trkpt lat="42.3882250" lon="-3.3173250">
        <ele>1036.9</ele>
        <time>2020-04-02T18:29:06Z</time>
      </trkpt>
      <trkpt lat="42.3881600" lon="-3.3175700">
        <ele>1040.2</ele>
        <time>2020-04-02T18:29:08Z</time>
      </trkpt>
      <trkpt lat="42.3881470" lon="-3.3176420">
        <ele>1041.3</ele>
        <time>2020-04-02T18:29:10Z</time>
      </trkpt>
      <trkpt lat="42.3881330" lon="-3.3177140">
        <ele>1042.2</ele>
        <time>2020-04-02T18:29:12Z</time>
      </trkpt>
      <trkpt lat="42.3881190" lon="-3.3177870">
        <ele>1043.2</ele>
        <time>2020-04-02T18:29:14Z</time>
      </trkpt>
      <trkpt lat="42.3880830" lon="-3.3179670">
        <ele>1045.4</ele>
        <time>2020-04-02T18:29:16Z</time>
      </trkpt>
      <trkpt lat="42.3880660" lon="-3.3180380">
        <ele>1046.3</ele>
        <time>2020-04-02T18:29:18Z</time>
      </trkpt>
      <trkpt lat="42.3880490" lon="-3.3181090">
        <ele>1047.1</ele>
        <time>2020-04-02T18:29:20Z</time>
      </trkpt>
      <trkpt lat="42.3880320" lon="-3.3181800">
        <ele>1047.8</ele>
        <time>2020-04-02T18:29:22Z</time>
      </trkpt>
      <trkpt lat="42.3880150" lon="-3.3182500">
        <ele>1048.5</ele>
        <time>2020-04-02T18:29:24Z</time>
      </trkpt>
      <trkpt lat="42.3879990" lon="-3.3183160">
        <ele>1049.2</ele>
        <time>2020-04-02T18:29:26Z</time>
      </trkpt>
      <trkpt lat="42.3879840" lon="-3.3183810">
        <ele>1049.9</ele>
        <time>2020-04-02T18:29:28Z</time>
      </trkpt>
      <trkpt lat="42.3879680" lon="-3.3184460">
        <ele>1050.5</ele>
        <time>2020-04-02T18:29:30Z</time>
      </trkpt>
      <trkpt lat="42.3879530" lon="-3.3185090">
        <ele>1051.1</ele>
        <time>2020-04-02T18:29:32Z</time>
      </trkpt>
      <trkpt lat="42.3879370" lon="-3.3185720">
        <ele>1051.7</ele>
        <time>2020-04-02T18:29:34Z</time>
      </trkpt>
      <trkpt lat="42.3878610" lon="-3.3188610">
        <ele>1054.8</ele>
        <time>2020-04-02T18:29:36Z</time>
      </trkpt>
      <trkpt lat="42.3878340" lon="-3.3189320">
        <ele>1055.8</ele>
        <time>2020-04-02T18:29:38Z</time>
      </trkpt>
      <trkpt lat="42.3878060" lon="-3.3190050">
        <ele>1056.7</ele>
        <time>2020-04-02T18:29:40Z</time>
      </trkpt>
      <trkpt lat="42.3877770" lon="-3.3190810">
        <ele>1057.7</ele>
        <time>2020-04-02T18:29:42Z</time>
      </trkpt>
      <trkpt lat="42.3877480" lon="-3.3191570">
        <ele>1058.7</ele>
        <time>2020-04-02T18:29:44Z</time>
      </trkpt>
      <trkpt lat="42.3877200" lon="-3.3192320">
        <ele>1059.6</ele>
        <time>2020-04-02T18:29:46Z</time>
      </trkpt>
      <trkpt lat="42.3876920" lon="-3.3193050">
        <ele>1060.4</ele>
        <time>2020-04-02T18:29:48Z</time>
      </trkpt>
      <trkpt lat="42.3876640" lon="-3.3193800">
        <ele>1061.2</ele>
        <time>2020-04-02T18:29:50Z</time>
      </trkpt>
      <trkpt lat="42.3876350" lon="-3.3194550">
        <ele>1062.0</ele>
        <time>2020-04-02T18:29:52Z</time>
      </trkpt>
      <trkpt lat="42.3876060" lon="-3.3195310">
        <ele>1062.8</ele>
        <time>2020-04-02T18:29:54Z</time>
      </trkpt>
      <trkpt lat="42.3875780" lon="-3.3196060">
        <ele>1063.4</ele>
        <time>2020-04-02T18:29:56Z</time>
      </trkpt>
      <trkpt lat="42.3874370" lon="-3.3199570">
        <ele>1066.0</ele>
        <time>2020-04-02T18:29:58Z</time>
      </trkpt>
      <trkpt lat="42.3874020" lon="-3.3200280">
        <ele>1066.5</ele>
        <time>2020-04-02T18:30:00Z</time>
      </trkpt>
      <trkpt lat="42.3873680" lon="-3.3200980">
        <ele>1067.2</ele>
        <time>2020-04-02T18:30:02Z</time>
      </trkpt>
      <trkpt lat="42.3873330" lon="-3.3201690">
        <ele>1067.9</ele>
        <time>2020-04-02T18:30:04Z</time>
      </trkpt>
      <trkpt lat="42.3872980" lon="-3.3202400">
        <ele>1068.5</ele>
        <time>2020-04-02T18:30:06Z</time>
      </trkpt>
      <trkpt lat="42.3871950" lon="-3.3204540">
        <ele>1070.5</ele>
        <time>2020-04-02T18:30:08Z</time>
      </trkpt>
      <trkpt lat="42.3871660" lon="-3.3205340">
        <ele>1071.3</ele>
        <time>2020-04-02T18:30:10Z</time>
      </trkpt>
      <trkpt lat="42.3871360" lon="-3.3206170">
        <ele>1072.0</ele>
        <time>2020-04-02T18:30:12Z</time>
      </trkpt>
      <trkpt lat="42.3871050" lon="-3.3207010">
        <ele>1072.7</ele>
        <time>2020-04-02T18:30:14Z</time>
      </trkpt>
      <trkpt lat="42.3870370" lon="-3.3209030">
        <ele>1074.7</ele>
        <time>2020-04-02T18:30:16Z</time>
      </trkpt>
      <trkpt lat="42.3870250" lon="-3.3209970">
        <ele>1075.5</ele>
        <time>2020-04-02T18:30:18Z</time>
      </trkpt>
      <trkpt lat="42.3869880" lon="-3.3211230">
        <ele>1076.5</ele>
        <time>2020-04-02T18:30:20Z</time>
      </trkpt>
      <trkpt lat="42.3869550" lon="-3.3212080">
        <ele>1077.1</ele>
        <time>2020-04-02T18:30:22Z</time>
      </trkpt>
      <trkpt lat="42.3869220" lon="-3.3212920">
        <ele>1077.7</ele>
        <time>2020-04-02T18:30:24Z</time>
      </trkpt>
      <trkpt lat="42.3868890" lon="-3.3213770">
        <ele>1078.2</ele>
        <time>2020-04-02T18:30:26Z</time>
      </trkpt>
      <trkpt lat="42.3868560" lon="-3.3214620">
        <ele>1078.7</ele>
        <time>2020-04-02T18:30:28Z</time>
      </trkpt>
      <trkpt lat="42.3867670" lon="-3.3217120">
        <ele>1080.3</ele>
        <time>2020-04-02T18:30:30Z</time>
      </trkpt>
      <trkpt lat="42.3867410" lon="-3.3218140">
        <ele>1081.0</ele>
        <time>2020-04-02T18:30:32Z</time>
      </trkpt>
      <trkpt lat="42.3867140" lon="-3.3219220">
        <ele>1081.8</ele>
        <time>2020-04-02T18:30:34Z</time>
      </trkpt>
      <trkpt lat="42.3866440" lon="-3.3221260">
        <ele>1083.2</ele>
        <time>2020-04-02T18:30:36Z</time>
      </trkpt>
      <trkpt lat="42.3865620" lon="-3.3222430">
        <ele>1084.1</ele>
        <time>2020-04-02T18:30:38Z</time>
      </trkpt>
      <trkpt lat="42.3864900" lon="-3.3223050">
        <ele>1084.8</ele>
        <time>2020-04-02T18:30:40Z</time>
      </trkpt>
      <trkpt lat="42.3864000" lon="-3.3224290">
        <ele>1085.7</ele>
        <time>2020-04-02T18:30:42Z</time>
      </trkpt>
      <trkpt lat="42.3863420" lon="-3.3225730">
        <ele>1086.5</ele>
        <time>2020-04-02T18:30:44Z</time>
      </trkpt>
      <trkpt lat="42.3863160" lon="-3.3226810">
        <ele>1087.1</ele>
        <time>2020-04-02T18:30:46Z</time>
      </trkpt>
      <trkpt lat="42.3862890" lon="-3.3227890">
        <ele>1087.6</ele>
        <time>2020-04-02T18:30:48Z</time>
      </trkpt>
      <trkpt lat="42.3862290" lon="-3.3230360">
        <ele>1088.5</ele>
        <time>2020-04-02T18:30:50Z</time>
      </trkpt>
      <trkpt lat="42.3862150" lon="-3.3231510">
        <ele>1088.8</ele>
        <time>2020-04-02T18:30:52Z</time>
      </trkpt>
      <trkpt lat="42.3862000" lon="-3.3232740">
        <ele>1089.1</ele>
        <time>2020-04-02T18:30:54Z</time>
      </trkpt>
      <trkpt lat="42.3861680" lon="-3.3235280">
        <ele>1090.4</ele>
        <time>2020-04-02T18:30:56Z</time>
      </trkpt>
      <trkpt lat="42.3861420" lon="-3.3236540">
        <ele>1091.7</ele>
        <time>2020-04-02T18:30:58Z</time>
      </trkpt>
      <trkpt lat="42.3861150" lon="-3.3237820">
        <ele>1092.8</ele>
        <time>2020-04-02T18:31:00Z</time>
      </trkpt>
      <trkpt lat="42.3860620" lon="-3.3240090">
        <ele>1094.2</ele>
        <time>2020-04-02T18:31:02Z</time>
      </trkpt>
      <trkpt lat="42.3860300" lon="-3.3241380">
        <ele>1094.4</ele>
        <time>2020-04-02T18:31:04Z</time>
      </trkpt>
      <trkpt lat="42.3859960" lon="-3.3242690">
        <ele>1094.6</ele>
        <time>2020-04-02T18:31:06Z</time>
      </trkpt>
      <trkpt lat="42.3859220" lon="-3.3245610">
        <ele>1094.6</ele>
        <time>2020-04-02T18:31:08Z</time>
      </trkpt>
      <trkpt lat="42.3858890" lon="-3.3246930">
        <ele>1094.6</ele>
        <time>2020-04-02T18:31:10Z</time>
      </trkpt>
      <trkpt lat="42.3858550" lon="-3.3248250">
        <ele>1094.7</ele>
        <time>2020-04-02T18:31:12Z</time>
      </trkpt>
      <trkpt lat="42.3858220" lon="-3.3249560">
        <ele>1094.9</ele>
        <time>2020-04-02T18:31:14Z</time>
      </trkpt>
      <trkpt lat="42.3857130" lon="-3.3252400">
        <ele>1095.9</ele>
        <time>2020-04-02T18:31:16Z</time>
      </trkpt>
      <trkpt lat="42.3856060" lon="-3.3253200">
        <ele>1097.6</ele>
        <time>2020-04-02T18:31:18Z</time>
      </trkpt>
      <trkpt lat="42.3855330" lon="-3.3253160">
        <ele>1098.8</ele>
        <time>2020-04-02T18:31:20Z</time>
      </trkpt>
      <trkpt lat="42.3854190" lon="-3.3253040">
        <ele>1100.4</ele>
        <time>2020-04-02T18:31:22Z</time>
      </trkpt>
      <trkpt lat="42.3853600" lon="-3.3252720">
        <ele>1101.1</ele>
        <time>2020-04-02T18:31:24Z</time>
      </trkpt>
      <trkpt lat="42.3853030" lon="-3.3252410">
        <ele>1102.0</ele>
        <time>2020-04-02T18:31:26Z</time>
      </trkpt>
      <trkpt lat="42.3852480" lon="-3.3252110">
        <ele>1102.6</ele>
        <time>2020-04-02T18:31:28Z</time>
      </trkpt>
      <trkpt lat="42.3851930" lon="-3.3251810">
        <ele>1103.1</ele>
        <time>2020-04-02T18:31:30Z</time>
      </trkpt>
      <trkpt lat="42.3851390" lon="-3.3251520">
        <ele>1103.7</ele>
        <time>2020-04-02T18:31:32Z</time>
      </trkpt>
      <trkpt lat="42.3849650" lon="-3.3250590">
        <ele>1105.7</ele>
        <time>2020-04-02T18:31:34Z</time>
      </trkpt>
      <trkpt lat="42.3849010" lon="-3.3250530">
        <ele>1106.5</ele>
        <time>2020-04-02T18:31:36Z</time>
      </trkpt>
      <trkpt lat="42.3847790" lon="-3.3250400">
        <ele>1107.9</ele>
        <time>2020-04-02T18:31:38Z</time>
      </trkpt>
      <trkpt lat="42.3846780" lon="-3.3250400">
        <ele>1109.2</ele>
        <time>2020-04-02T18:31:40Z</time>
      </trkpt>
      <trkpt lat="42.3846010" lon="-3.3250520">
        <ele>1110.0</ele>
        <time>2020-04-02T18:31:42Z</time>
      </trkpt>
      <trkpt lat="42.3844960" lon="-3.3250970">
        <ele>1111.1</ele>
        <time>2020-04-02T18:31:44Z</time>
      </trkpt>
      <trkpt lat="42.3844260" lon="-3.3251450">
        <ele>1111.7</ele>
        <time>2020-04-02T18:31:46Z</time>
      </trkpt>
      <trkpt lat="42.3843570" lon="-3.3251930">
        <ele>1112.1</ele>
        <time>2020-04-02T18:31:48Z</time>
      </trkpt>
      <trkpt lat="42.3842870" lon="-3.3252410">
        <ele>1112.6</ele>
        <time>2020-04-02T18:31:50Z</time>
      </trkpt>
      <trkpt lat="42.3842170" lon="-3.3252890">
        <ele>1112.9</ele>
        <time>2020-04-02T18:31:52Z</time>
      </trkpt>
      <trkpt lat="42.3840360" lon="-3.3254450">
        <ele>1113.6</ele>
        <time>2020-04-02T18:31:54Z</time>
      </trkpt>
      <trkpt lat="42.3839850" lon="-3.3255270">
        <ele>1114.1</ele>
        <time>2020-04-02T18:31:56Z</time>
      </trkpt>
      <trkpt lat="42.3839330" lon="-3.3256110">
        <ele>1114.6</ele>
        <time>2020-04-02T18:31:58Z</time>
      </trkpt>
      <trkpt lat="42.3838330" lon="-3.3257900">
        <ele>1115.8</ele>
        <time>2020-04-02T18:32:00Z</time>
      </trkpt>
      <trkpt lat="42.3837900" lon="-3.3258830">
        <ele>1116.3</ele>
        <time>2020-04-02T18:32:02Z</time>
      </trkpt>
      <trkpt lat="42.3837470" lon="-3.3259760">
        <ele>1116.7</ele>
        <time>2020-04-02T18:32:04Z</time>
      </trkpt>
      <trkpt lat="42.3836490" lon="-3.3261550">
        <ele>1117.7</ele>
        <time>2020-04-02T18:32:06Z</time>
      </trkpt>
      <trkpt lat="42.3835600" lon="-3.3262510">
        <ele>1118.4</ele>
        <time>2020-04-02T18:32:08Z</time>
      </trkpt>
      <trkpt lat="42.3834870" lon="-3.3263060">
        <ele>1119.0</ele>
        <time>2020-04-02T18:32:10Z</time>
      </trkpt>
      <trkpt lat="42.3834150" lon="-3.3263620">
        <ele>1119.6</ele>
        <time>2020-04-02T18:32:12Z</time>
      </trkpt>
      <trkpt lat="42.3832550" lon="-3.3264850">
        <ele>1121.4</ele>
        <time>2020-04-02T18:32:14Z</time>
      </trkpt>
      <trkpt lat="42.3831890" lon="-3.3265570">
        <ele>1122.0</ele>
        <time>2020-04-02T18:32:16Z</time>
      </trkpt>
      <trkpt lat="42.3831210" lon="-3.3266300">
        <ele>1122.7</ele>
        <time>2020-04-02T18:32:18Z</time>
      </trkpt>
      <trkpt lat="42.3830530" lon="-3.3267040">
        <ele>1123.3</ele>
        <time>2020-04-02T18:32:20Z</time>
      </trkpt>
      <trkpt lat="42.3828880" lon="-3.3268830">
        <ele>1124.5</ele>
        <time>2020-04-02T18:32:22Z</time>
      </trkpt>
      <trkpt lat="42.3828350" lon="-3.3269770">
        <ele>1124.9</ele>
        <time>2020-04-02T18:32:24Z</time>
      </trkpt>
      <trkpt lat="42.3827800" lon="-3.3270720">
        <ele>1125.3</ele>
        <time>2020-04-02T18:32:26Z</time>
      </trkpt>
      <trkpt lat="42.3827250" lon="-3.3271670">
        <ele>1125.9</ele>
        <time>2020-04-02T18:32:28Z</time>
      </trkpt>
      <trkpt lat="42.3826700" lon="-3.3272640">
        <ele>1126.5</ele>
        <time>2020-04-02T18:32:30Z</time>
      </trkpt>
      <trkpt lat="42.3826150" lon="-3.3273590">
        <ele>1127.1</ele>
        <time>2020-04-02T18:32:32Z</time>
      </trkpt>
      <trkpt lat="42.3825620" lon="-3.3274530">
        <ele>1127.7</ele>
        <time>2020-04-02T18:32:34Z</time>
      </trkpt>
      <trkpt lat="42.3823810" lon="-3.3277560">
        <ele>1129.2</ele>
        <time>2020-04-02T18:32:36Z</time>
      </trkpt>
      <trkpt lat="42.3823170" lon="-3.3278460">
        <ele>1129.5</ele>
        <time>2020-04-02T18:32:38Z</time>
      </trkpt>
      <trkpt lat="42.3822520" lon="-3.3279380">
        <ele>1129.9</ele>
        <time>2020-04-02T18:32:40Z</time>
      </trkpt>
      <trkpt lat="42.3821170" lon="-3.3281120">
        <ele>1130.6</ele>
        <time>2020-04-02T18:32:42Z</time>
      </trkpt>
      <trkpt lat="42.3820410" lon="-3.3281980">
        <ele>1131.1</ele>
        <time>2020-04-02T18:32:44Z</time>
      </trkpt>
      <trkpt lat="42.3818890" lon="-3.3283720">
        <ele>1132.1</ele>
        <time>2020-04-02T18:32:46Z</time>
      </trkpt>
      <trkpt lat="42.3818200" lon="-3.3284710">
        <ele>1132.6</ele>
        <time>2020-04-02T18:32:48Z</time>
      </trkpt>
      <trkpt lat="42.3817530" lon="-3.3285690">
        <ele>1132.9</ele>
        <time>2020-04-02T18:32:50Z</time>
      </trkpt>
      <trkpt lat="42.3816830" lon="-3.3286690">
        <ele>1133.3</ele>
        <time>2020-04-02T18:32:52Z</time>
      </trkpt>
      <trkpt lat="42.3816150" lon="-3.3287690">
        <ele>1133.6</ele>
        <time>2020-04-02T18:32:54Z</time>
      </trkpt>
      <trkpt lat="42.3814370" lon="-3.3290060">
        <ele>1134.3</ele>
        <time>2020-04-02T18:32:56Z</time>
      </trkpt>
      <trkpt lat="42.3813050" lon="-3.3291390">
        <ele>1134.4</ele>
        <time>2020-04-02T18:32:58Z</time>
      </trkpt>
      <trkpt lat="42.3812010" lon="-3.3292070">
        <ele>1134.4</ele>
        <time>2020-04-02T18:33:00Z</time>
      </trkpt>
      <trkpt lat="42.3810940" lon="-3.3292770">
        <ele>1134.4</ele>
        <time>2020-04-02T18:33:02Z</time>
      </trkpt>
      <trkpt lat="42.3808760" lon="-3.3294280">
        <ele>1134.6</ele>
        <time>2020-04-02T18:33:04Z</time>
      </trkpt>
      <trkpt lat="42.3807700" lon="-3.3295190">
        <ele>1134.9</ele>
        <time>2020-04-02T18:33:06Z</time>
      </trkpt>
      <trkpt lat="42.3806640" lon="-3.3296100">
        <ele>1135.0</ele>
        <time>2020-04-02T18:33:08Z</time>
      </trkpt>
      <trkpt lat="42.3804430" lon="-3.3298010">
        <ele>1135.2</ele>
        <time>2020-04-02T18:33:11Z</time>
      </trkpt>
      <trkpt lat="42.3803390" lon="-3.3298910">
        <ele>1135.4</ele>
        <time>2020-04-02T18:33:13Z</time>
      </trkpt>
      <trkpt lat="42.3802370" lon="-3.3299790">
        <ele>1136.0</ele>
        <time>2020-04-02T18:33:15Z</time>
      </trkpt>
      <trkpt lat="42.3800260" lon="-3.3301690">
        <ele>1137.8</ele>
        <time>2020-04-02T18:33:17Z</time>
      </trkpt>
      <trkpt lat="42.3799400" lon="-3.3302720">
        <ele>1138.3</ele>
        <time>2020-04-02T18:33:19Z</time>
      </trkpt>
      <trkpt lat="42.3798540" lon="-3.3303760">
        <ele>1138.5</ele>
        <time>2020-04-02T18:33:21Z</time>
      </trkpt>
      <trkpt lat="42.3797690" lon="-3.3304790">
        <ele>1138.6</ele>
        <time>2020-04-02T18:33:23Z</time>
      </trkpt>
      <trkpt lat="42.3795860" lon="-3.3307070">
        <ele>1138.2</ele>
        <time>2020-04-02T18:33:25Z</time>
      </trkpt>
      <trkpt lat="42.3795050" lon="-3.3308130">
        <ele>1138.0</ele>
        <time>2020-04-02T18:33:27Z</time>
      </trkpt>
      <trkpt lat="42.3794260" lon="-3.3309170">
        <ele>1138.1</ele>
        <time>2020-04-02T18:33:29Z</time>
      </trkpt>
      <trkpt lat="42.3793480" lon="-3.3310200">
        <ele>1138.4</ele>
        <time>2020-04-02T18:33:31Z</time>
      </trkpt>
      <trkpt lat="42.3792700" lon="-3.3311220">
        <ele>1139.0</ele>
        <time>2020-04-02T18:33:33Z</time>
      </trkpt>
      <trkpt lat="42.3791920" lon="-3.3312240">
        <ele>1139.8</ele>
        <time>2020-04-02T18:33:35Z</time>
      </trkpt>
      <trkpt lat="42.3789530" lon="-3.3315480">
        <ele>1142.4</ele>
        <time>2020-04-02T18:33:37Z</time>
      </trkpt>
      <trkpt lat="42.3788810" lon="-3.3316540">
        <ele>1142.7</ele>
        <time>2020-04-02T18:33:39Z</time>
      </trkpt>
      <trkpt lat="42.3787350" lon="-3.3318640">
        <ele>1143.2</ele>
        <time>2020-04-02T18:33:41Z</time>
      </trkpt>
      <trkpt lat="42.3786410" lon="-3.3319400">
        <ele>1143.3</ele>
        <time>2020-04-02T18:33:43Z</time>
      </trkpt>
      <trkpt lat="42.3785430" lon="-3.3320180">
        <ele>1143.4</ele>
        <time>2020-04-02T18:33:45Z</time>
      </trkpt>
      <trkpt lat="42.3784440" lon="-3.3320980">
        <ele>1143.5</ele>
        <time>2020-04-02T18:33:47Z</time>
      </trkpt>
      <trkpt lat="42.3782450" lon="-3.3322860">
        <ele>1144.0</ele>
        <time>2020-04-02T18:33:49Z</time>
      </trkpt>
      <trkpt lat="42.3780970" lon="-3.3324590">
        <ele>1144.5</ele>
        <time>2020-04-02T18:33:51Z</time>
      </trkpt>
      <trkpt lat="42.3780120" lon="-3.3325780">
        <ele>1144.6</ele>
        <time>2020-04-02T18:33:53Z</time>
      </trkpt>
      <trkpt lat="42.3778720" lon="-3.3327810">
        <ele>1144.8</ele>
        <time>2020-04-02T18:33:55Z</time>
      </trkpt>
      <trkpt lat="42.3777950" lon="-3.3329130">
        <ele>1145.2</ele>
        <time>2020-04-02T18:33:57Z</time>
      </trkpt>
      <trkpt lat="42.3777200" lon="-3.3330430">
        <ele>1145.5</ele>
        <time>2020-04-02T18:33:59Z</time>
      </trkpt>
      <trkpt lat="42.3775700" lon="-3.3333020">
        <ele>1146.2</ele>
        <time>2020-04-02T18:34:01Z</time>
      </trkpt>
      <trkpt lat="42.3774970" lon="-3.3334270">
        <ele>1146.3</ele>
        <time>2020-04-02T18:34:03Z</time>
      </trkpt>
      <trkpt lat="42.3774260" lon="-3.3335510">
        <ele>1146.5</ele>
        <time>2020-04-02T18:34:05Z</time>
      </trkpt>
      <trkpt lat="42.3772760" lon="-3.3337990">
        <ele>1146.7</ele>
        <time>2020-04-02T18:34:07Z</time>
      </trkpt>
      <trkpt lat="42.3771990" lon="-3.3339110">
        <ele>1146.9</ele>
        <time>2020-04-02T18:34:09Z</time>
      </trkpt>
      <trkpt lat="42.3771220" lon="-3.3340220">
        <ele>1147.1</ele>
        <time>2020-04-02T18:34:11Z</time>
      </trkpt>
      <trkpt lat="42.3770460" lon="-3.3341330">
        <ele>1147.3</ele>
        <time>2020-04-02T18:34:13Z</time>
      </trkpt>
      <trkpt lat="42.3769690" lon="-3.3342440">
        <ele>1147.4</ele>
        <time>2020-04-02T18:34:15Z</time>
      </trkpt>
      <trkpt lat="42.3768930" lon="-3.3343550">
        <ele>1147.6</ele>
        <time>2020-04-02T18:34:17Z</time>
      </trkpt>
      <trkpt lat="42.3766690" lon="-3.3346990">
        <ele>1148.2</ele>
        <time>2020-04-02T18:34:19Z</time>
      </trkpt>
      <trkpt lat="42.3766090" lon="-3.3348130">
        <ele>1148.4</ele>
        <time>2020-04-02T18:34:21Z</time>
      </trkpt>
      <trkpt lat="42.3765510" lon="-3.3349230">
        <ele>1148.6</ele>
        <time>2020-04-02T18:34:23Z</time>
      </trkpt>
      <trkpt lat="42.3764950" lon="-3.3350300">
        <ele>1148.7</ele>
        <time>2020-04-02T18:34:25Z</time>
      </trkpt>
      <trkpt lat="42.3763540" lon="-3.3352890">
        <ele>1149.5</ele>
        <time>2020-04-02T18:34:27Z</time>
      </trkpt>
      <trkpt lat="42.3762970" lon="-3.3353850">
        <ele>1149.8</ele>
        <time>2020-04-02T18:34:29Z</time>
      </trkpt>
      <trkpt lat="42.3761900" lon="-3.3355300">
        <ele>1150.4</ele>
        <time>2020-04-02T18:34:31Z</time>
      </trkpt>
      <trkpt lat="42.3760950" lon="-3.3356150">
        <ele>1151.1</ele>
        <time>2020-04-02T18:34:33Z</time>
      </trkpt>
      <trkpt lat="42.3760220" lon="-3.3356770">
        <ele>1152.0</ele>
        <time>2020-04-02T18:34:35Z</time>
      </trkpt>
      <trkpt lat="42.3759480" lon="-3.3357400">
        <ele>1152.8</ele>
        <time>2020-04-02T18:34:37Z</time>
      </trkpt>
      <trkpt lat="42.3758740" lon="-3.3358030">
        <ele>1153.4</ele>
        <time>2020-04-02T18:34:39Z</time>
      </trkpt>
      <trkpt lat="42.3757030" lon="-3.3359700">
        <ele>1154.4</ele>
        <time>2020-04-02T18:34:41Z</time>
      </trkpt>
      <trkpt lat="42.3756320" lon="-3.3360570">
        <ele>1154.8</ele>
        <time>2020-04-02T18:34:43Z</time>
      </trkpt>
      <trkpt lat="42.3754990" lon="-3.3362160">
        <ele>1155.1</ele>
        <time>2020-04-02T18:34:45Z</time>
      </trkpt>
      <trkpt lat="42.3754170" lon="-3.3363060">
        <ele>1155.3</ele>
        <time>2020-04-02T18:34:47Z</time>
      </trkpt>
      <trkpt lat="42.3753320" lon="-3.3364000">
        <ele>1155.4</ele>
        <time>2020-04-02T18:34:49Z</time>
      </trkpt>
      <trkpt lat="42.3752470" lon="-3.3364940">
        <ele>1155.5</ele>
        <time>2020-04-02T18:34:51Z</time>
      </trkpt>
      <trkpt lat="42.3751590" lon="-3.3365920">
        <ele>1155.5</ele>
        <time>2020-04-02T18:34:53Z</time>
      </trkpt>
      <trkpt lat="42.3749290" lon="-3.3368610">
        <ele>1155.6</ele>
        <time>2020-04-02T18:34:55Z</time>
      </trkpt>
      <trkpt lat="42.3748000" lon="-3.3370400">
        <ele>1155.6</ele>
        <time>2020-04-02T18:34:57Z</time>
      </trkpt>
      <trkpt lat="42.3747390" lon="-3.3371770">
        <ele>1155.6</ele>
        <time>2020-04-02T18:34:59Z</time>
      </trkpt>
      <trkpt lat="42.3746780" lon="-3.3373150">
        <ele>1155.6</ele>
        <time>2020-04-02T18:35:01Z</time>
      </trkpt>
      <trkpt lat="42.3746160" lon="-3.3374530">
        <ele>1155.6</ele>
        <time>2020-04-02T18:35:03Z</time>
      </trkpt>
      <trkpt lat="42.3744860" lon="-3.3377470">
        <ele>1155.5</ele>
        <time>2020-04-02T18:35:05Z</time>
      </trkpt>
      <trkpt lat="42.3744200" lon="-3.3378940">
        <ele>1155.4</ele>
        <time>2020-04-02T18:35:07Z</time>
      </trkpt>
      <trkpt lat="42.3743530" lon="-3.3380450">
        <ele>1155.3</ele>
        <time>2020-04-02T18:35:09Z</time>
      </trkpt>
      <trkpt lat="42.3742220" lon="-3.3383550">
        <ele>1154.9</ele>
        <time>2020-04-02T18:35:11Z</time>
      </trkpt>
      <trkpt lat="42.3741580" lon="-3.3385170">
        <ele>1154.6</ele>
        <time>2020-04-02T18:35:13Z</time>
      </trkpt>
      <trkpt lat="42.3740920" lon="-3.3386810">
        <ele>1154.4</ele>
        <time>2020-04-02T18:35:15Z</time>
      </trkpt>
      <trkpt lat="42.3739510" lon="-3.3390340">
        <ele>1153.7</ele>
        <time>2020-04-02T18:35:17Z</time>
      </trkpt>
      <trkpt lat="42.3738840" lon="-3.3392030">
        <ele>1153.3</ele>
        <time>2020-04-02T18:35:19Z</time>
      </trkpt>
      <trkpt lat="42.3738160" lon="-3.3393750">
        <ele>1152.6</ele>
        <time>2020-04-02T18:35:21Z</time>
      </trkpt>
      <trkpt lat="42.3736660" lon="-3.3397310">
        <ele>1151.4</ele>
        <time>2020-04-02T18:35:23Z</time>
      </trkpt>
      <trkpt lat="42.3735690" lon="-3.3399660">
        <ele>1151.2</ele>
        <time>2020-04-02T18:35:25Z</time>
      </trkpt>
      <trkpt lat="42.3735100" lon="-3.3401510">
        <ele>1151.0</ele>
        <time>2020-04-02T18:35:27Z</time>
      </trkpt>
      <trkpt lat="42.3734510" lon="-3.3403370">
        <ele>1150.9</ele>
        <time>2020-04-02T18:35:29Z</time>
      </trkpt>
      <trkpt lat="42.3733340" lon="-3.3407040">
        <ele>1150.8</ele>
        <time>2020-04-02T18:35:31Z</time>
      </trkpt>
      <trkpt lat="42.3732780" lon="-3.3408800">
        <ele>1150.9</ele>
        <time>2020-04-02T18:35:33Z</time>
      </trkpt>
      <trkpt lat="42.3732240" lon="-3.3410490">
        <ele>1151.0</ele>
        <time>2020-04-02T18:35:35Z</time>
      </trkpt>
      <trkpt lat="42.3731000" lon="-3.3413920">
        <ele>1151.0</ele>
        <time>2020-04-02T18:35:37Z</time>
      </trkpt>
      <trkpt lat="42.3730320" lon="-3.3415460">
        <ele>1150.9</ele>
        <time>2020-04-02T18:35:39Z</time>
      </trkpt>
      <trkpt lat="42.3728980" lon="-3.3418300">
        <ele>1150.6</ele>
        <time>2020-04-02T18:35:41Z</time>
      </trkpt>
      <trkpt lat="42.3728220" lon="-3.3420150">
        <ele>1150.2</ele>
        <time>2020-04-02T18:35:43Z</time>
      </trkpt>
      <trkpt lat="42.3727190" lon="-3.3422390">
        <ele>1149.9</ele>
        <time>2020-04-02T18:35:45Z</time>
      </trkpt>
      <trkpt lat="42.3726280" lon="-3.3424170">
        <ele>1149.8</ele>
        <time>2020-04-02T18:35:47Z</time>
      </trkpt>
      <trkpt lat="42.3724570" lon="-3.3427650">
        <ele>1148.9</ele>
        <time>2020-04-02T18:35:49Z</time>
      </trkpt>
      <trkpt lat="42.3723700" lon="-3.3429630">
        <ele>1147.5</ele>
        <time>2020-04-02T18:35:51Z</time>
      </trkpt>
      <trkpt lat="42.3722800" lon="-3.3431670">
        <ele>1146.2</ele>
        <time>2020-04-02T18:35:53Z</time>
      </trkpt>
      <trkpt lat="42.3720860" lon="-3.3436070">
        <ele>1142.3</ele>
        <time>2020-04-02T18:35:55Z</time>
      </trkpt>
      <trkpt lat="42.3719900" lon="-3.3438250">
        <ele>1140.2</ele>
        <time>2020-04-02T18:35:57Z</time>
      </trkpt>
      <trkpt lat="42.3718870" lon="-3.3440580">
        <ele>1137.8</ele>
        <time>2020-04-02T18:35:59Z</time>
      </trkpt>
      <trkpt lat="42.3716750" lon="-3.3445390">
        <ele>1132.3</ele>
        <time>2020-04-02T18:36:01Z</time>
      </trkpt>
      <trkpt lat="42.3715610" lon="-3.3447980">
        <ele>1129.0</ele>
        <time>2020-04-02T18:36:03Z</time>
      </trkpt>
      <trkpt lat="42.3714440" lon="-3.3450630">
        <ele>1125.4</ele>
        <time>2020-04-02T18:36:05Z</time>
      </trkpt>
      <trkpt lat="42.3712280" lon="-3.3456150">
        <ele>1116.8</ele>
        <time>2020-04-02T18:36:07Z</time>
      </trkpt>
      <trkpt lat="42.3711210" lon="-3.3458780">
        <ele>1114.6</ele>
        <time>2020-04-02T18:36:09Z</time>
      </trkpt>
      <trkpt lat="42.3710290" lon="-3.3460820">
        <ele>1114.6</ele>
        <time>2020-04-02T18:36:11Z</time>
      </trkpt>
      <trkpt lat="42.3709470" lon="-3.3462630">
        <ele>1115.5</ele>
        <time>2020-04-02T18:36:13Z</time>
      </trkpt>
      <trkpt lat="42.3707520" lon="-3.3466930">
        <ele>1123.0</ele>
        <time>2020-04-02T18:36:15Z</time>
      </trkpt>
      <trkpt lat="42.3706830" lon="-3.3468440">
        <ele>1125.5</ele>
        <time>2020-04-02T18:36:17Z</time>
      </trkpt>
      <trkpt lat="42.3706210" lon="-3.3469810">
        <ele>1126.9</ele>
        <time>2020-04-02T18:36:19Z</time>
      </trkpt>
      <trkpt lat="42.3705630" lon="-3.3471100">
        <ele>1127.6</ele>
        <time>2020-04-02T18:36:21Z</time>
      </trkpt>
      <trkpt lat="42.3705080" lon="-3.3472300">
        <ele>1127.9</ele>
        <time>2020-04-02T18:36:23Z</time>
      </trkpt>
      <trkpt lat="42.3704570" lon="-3.3473440">
        <ele>1128.1</ele>
        <time>2020-04-02T18:36:25Z</time>
      </trkpt>
      <trkpt lat="42.3702840" lon="-3.3477150">
        <ele>1128.6</ele>
        <time>2020-04-02T18:36:27Z</time>
      </trkpt>
      <trkpt lat="42.3702250" lon="-3.3478080">
        <ele>1128.7</ele>
        <time>2020-04-02T18:36:29Z</time>
      </trkpt>
      <trkpt lat="42.3701680" lon="-3.3478980">
        <ele>1128.7</ele>
        <time>2020-04-02T18:36:31Z</time>
      </trkpt>
      <trkpt lat="42.3701120" lon="-3.3479860">
        <ele>1128.8</ele>
        <time>2020-04-02T18:36:33Z</time>
      </trkpt>
      <trkpt lat="42.3699800" lon="-3.3481660">
        <ele>1129.2</ele>
        <time>2020-04-02T18:36:35Z</time>
      </trkpt>
      <trkpt lat="42.3699150" lon="-3.3482380">
        <ele>1129.4</ele>
        <time>2020-04-02T18:36:37Z</time>
      </trkpt>
      <trkpt lat="42.3697880" lon="-3.3483420">
        <ele>1129.7</ele>
        <time>2020-04-02T18:36:39Z</time>
      </trkpt>
      <trkpt lat="42.3697080" lon="-3.3483840">
        <ele>1129.9</ele>
        <time>2020-04-02T18:36:41Z</time>
      </trkpt>
      <trkpt lat="42.3696250" lon="-3.3484280">
        <ele>1130.1</ele>
        <time>2020-04-02T18:36:43Z</time>
      </trkpt>
      <trkpt lat="42.3695390" lon="-3.3484720">
        <ele>1130.3</ele>
        <time>2020-04-02T18:36:45Z</time>
      </trkpt>
      <trkpt lat="42.3694500" lon="-3.3485190">
        <ele>1130.6</ele>
        <time>2020-04-02T18:36:47Z</time>
      </trkpt>
      <trkpt lat="42.3693600" lon="-3.3485660">
        <ele>1130.9</ele>
        <time>2020-04-02T18:36:49Z</time>
      </trkpt>
      <trkpt lat="42.3690970" lon="-3.3487270">
        <ele>1131.8</ele>
        <time>2020-04-02T18:36:51Z</time>
      </trkpt>
      <trkpt lat="42.3690000" lon="-3.3488260">
        <ele>1132.4</ele>
        <time>2020-04-02T18:36:53Z</time>
      </trkpt>
      <trkpt lat="42.3689370" lon="-3.3488960">
        <ele>1132.8</ele>
        <time>2020-04-02T18:36:55Z</time>
      </trkpt>
      <trkpt lat="42.3688780" lon="-3.3489610">
        <ele>1133.4</ele>
        <time>2020-04-02T18:36:57Z</time>
      </trkpt>
      <trkpt lat="42.3688220" lon="-3.3490240">
        <ele>1134.0</ele>
        <time>2020-04-02T18:36:59Z</time>
      </trkpt>
      <trkpt lat="42.3687670" lon="-3.3490840">
        <ele>1134.5</ele>
        <time>2020-04-02T18:37:01Z</time>
      </trkpt>
      <trkpt lat="42.3687150" lon="-3.3491420">
        <ele>1135.1</ele>
        <time>2020-04-02T18:37:03Z</time>
      </trkpt>
      <trkpt lat="42.3686630" lon="-3.3492000">
        <ele>1135.7</ele>
        <time>2020-04-02T18:37:05Z</time>
      </trkpt>
      <trkpt lat="42.3686110" lon="-3.3492570">
        <ele>1136.2</ele>
        <time>2020-04-02T18:37:07Z</time>
      </trkpt>
      <trkpt lat="42.3683990" lon="-3.3495000">
        <ele>1138.9</ele>
        <time>2020-04-02T18:37:09Z</time>
      </trkpt>
      <trkpt lat="42.3683560" lon="-3.3495620">
        <ele>1139.6</ele>
        <time>2020-04-02T18:37:11Z</time>
      </trkpt>
      <trkpt lat="42.3683160" lon="-3.3496220">
        <ele>1140.3</ele>
        <time>2020-04-02T18:37:13Z</time>
      </trkpt>
      <trkpt lat="42.3682750" lon="-3.3496800">
        <ele>1141.0</ele>
        <time>2020-04-02T18:37:15Z</time>
      </trkpt>
      <trkpt lat="42.3682360" lon="-3.3497360">
        <ele>1141.7</ele>
        <time>2020-04-02T18:37:17Z</time>
      </trkpt>
      <trkpt lat="42.3681980" lon="-3.3497920">
        <ele>1142.4</ele>
        <time>2020-04-02T18:37:19Z</time>
      </trkpt>
      <trkpt lat="42.3681600" lon="-3.3498470">
        <ele>1143.1</ele>
        <time>2020-04-02T18:37:21Z</time>
      </trkpt>
      <trkpt lat="42.3681220" lon="-3.3499020">
        <ele>1143.8</ele>
        <time>2020-04-02T18:37:23Z</time>
      </trkpt>
      <trkpt lat="42.3679850" lon="-3.3501230">
        <ele>1146.3</ele>
        <time>2020-04-02T18:37:25Z</time>
      </trkpt>
      <trkpt lat="42.3679610" lon="-3.3501890">
        <ele>1146.8</ele>
        <time>2020-04-02T18:37:27Z</time>
      </trkpt>
      <trkpt lat="42.3679380" lon="-3.3502540">
        <ele>1147.2</ele>
        <time>2020-04-02T18:37:29Z</time>
      </trkpt>
      <trkpt lat="42.3679140" lon="-3.3503210">
        <ele>1147.7</ele>
        <time>2020-04-02T18:37:31Z</time>
      </trkpt>
      <trkpt lat="42.3678900" lon="-3.3503890">
        <ele>1148.2</ele>
        <time>2020-04-02T18:37:33Z</time>
      </trkpt>
      <trkpt lat="42.3678660" lon="-3.3504570">
        <ele>1148.8</ele>
        <time>2020-04-02T18:37:35Z</time>
      </trkpt>
      <trkpt lat="42.3678420" lon="-3.3505240">
        <ele>1149.4</ele>
        <time>2020-04-02T18:37:37Z</time>
      </trkpt>
      <trkpt lat="42.3678180" lon="-3.3505920">
        <ele>1150.0</ele>
        <time>2020-04-02T18:37:39Z</time>
      </trkpt>
      <trkpt lat="42.3677220" lon="-3.3508510">
        <ele>1151.8</ele>
        <time>2020-04-02T18:37:41Z</time>
      </trkpt>
      <trkpt lat="42.3676840" lon="-3.3509380">
        <ele>1152.3</ele>
        <time>2020-04-02T18:37:43Z</time>
      </trkpt>
      <trkpt lat="42.3676410" lon="-3.3510370">
        <ele>1152.9</ele>
        <time>2020-04-02T18:37:45Z</time>
      </trkpt>
      <trkpt lat="42.3675940" lon="-3.3511430">
        <ele>1153.4</ele>
        <time>2020-04-02T18:37:47Z</time>
      </trkpt>
      <trkpt lat="42.3674920" lon="-3.3513800">
        <ele>1154.4</ele>
        <time>2020-04-02T18:37:49Z</time>
      </trkpt>
      <trkpt lat="42.3674450" lon="-3.3514940">
        <ele>1154.7</ele>
        <time>2020-04-02T18:37:51Z</time>
      </trkpt>
      <trkpt lat="42.3673960" lon="-3.3516120">
        <ele>1155.0</ele>
        <time>2020-04-02T18:37:53Z</time>
      </trkpt>
      <trkpt lat="42.3673470" lon="-3.3517300">
        <ele>1155.2</ele>
        <time>2020-04-02T18:37:55Z</time>
      </trkpt>
      <trkpt lat="42.3672960" lon="-3.3518520">
        <ele>1155.4</ele>
        <time>2020-04-02T18:37:57Z</time>
      </trkpt>
      <trkpt lat="42.3672460" lon="-3.3519730">
        <ele>1155.5</ele>
        <time>2020-04-02T18:37:59Z</time>
      </trkpt>
      <trkpt lat="42.3670810" lon="-3.3523580">
        <ele>1154.9</ele>
        <time>2020-04-02T18:38:01Z</time>
      </trkpt>
      <trkpt lat="42.3670150" lon="-3.3524900">
        <ele>1154.6</ele>
        <time>2020-04-02T18:38:03Z</time>
      </trkpt>
      <trkpt lat="42.3669430" lon="-3.3526340">
        <ele>1154.1</ele>
        <time>2020-04-02T18:38:05Z</time>
      </trkpt>
      <trkpt lat="42.3668000" lon="-3.3529360">
        <ele>1153.3</ele>
        <time>2020-04-02T18:38:07Z</time>
      </trkpt>
      <trkpt lat="42.3667330" lon="-3.3531060">
        <ele>1152.8</ele>
        <time>2020-04-02T18:38:09Z</time>
      </trkpt>
      <trkpt lat="42.3665990" lon="-3.3533550">
        <ele>1151.8</ele>
        <time>2020-04-02T18:38:11Z</time>
      </trkpt>
      <trkpt lat="42.3665040" lon="-3.3535830">
        <ele>1151.5</ele>
        <time>2020-04-02T18:38:13Z</time>
      </trkpt>
      <trkpt lat="42.3664500" lon="-3.3538400">
        <ele>1151.5</ele>
        <time>2020-04-02T18:38:15Z</time>
      </trkpt>
      <trkpt lat="42.3664190" lon="-3.3540180">
        <ele>1151.6</ele>
        <time>2020-04-02T18:38:17Z</time>
      </trkpt>
      <trkpt lat="42.3663930" lon="-3.3543020">
        <ele>1151.8</ele>
        <time>2020-04-02T18:38:19Z</time>
      </trkpt>
      <trkpt lat="42.3663850" lon="-3.3544730">
        <ele>1152.0</ele>
        <time>2020-04-02T18:38:21Z</time>
      </trkpt>
      <trkpt lat="42.3663780" lon="-3.3546420">
        <ele>1152.3</ele>
        <time>2020-04-02T18:38:23Z</time>
      </trkpt>
      <trkpt lat="42.3663710" lon="-3.3548080">
        <ele>1152.5</ele>
        <time>2020-04-02T18:38:25Z</time>
      </trkpt>
      <trkpt lat="42.3663300" lon="-3.3552080">
        <ele>1153.4</ele>
        <time>2020-04-02T18:38:27Z</time>
      </trkpt>
      <trkpt lat="42.3662970" lon="-3.3553580">
        <ele>1154.0</ele>
        <time>2020-04-02T18:38:29Z</time>
      </trkpt>
      <trkpt lat="42.3662540" lon="-3.3556140">
        <ele>1154.9</ele>
        <time>2020-04-02T18:38:31Z</time>
      </trkpt>
      <trkpt lat="42.3662370" lon="-3.3557600">
        <ele>1155.2</ele>
        <time>2020-04-02T18:38:33Z</time>
      </trkpt>
      <trkpt lat="42.3662200" lon="-3.3559010">
        <ele>1155.3</ele>
        <time>2020-04-02T18:38:35Z</time>
      </trkpt>
      <trkpt lat="42.3662040" lon="-3.3560410">
        <ele>1155.4</ele>
        <time>2020-04-02T18:38:37Z</time>
      </trkpt>
      <trkpt lat="42.3661540" lon="-3.3564000">
        <ele>1155.6</ele>
        <time>2020-04-02T18:38:39Z</time>
      </trkpt>
      <trkpt lat="42.3661210" lon="-3.3565450">
        <ele>1155.6</ele>
        <time>2020-04-02T18:38:41Z</time>
      </trkpt>
      <trkpt lat="42.3660850" lon="-3.3566980">
        <ele>1155.7</ele>
        <time>2020-04-02T18:38:43Z</time>
      </trkpt>
      <trkpt lat="42.3660480" lon="-3.3568590">
        <ele>1155.7</ele>
        <time>2020-04-02T18:38:45Z</time>
      </trkpt>
      <trkpt lat="42.3659640" lon="-3.3572540">
        <ele>1155.4</ele>
        <time>2020-04-02T18:38:47Z</time>
      </trkpt>
      <trkpt lat="42.3659390" lon="-3.3574970">
        <ele>1154.7</ele>
        <time>2020-04-02T18:38:49Z</time>
      </trkpt>
      <trkpt lat="42.3659350" lon="-3.3576790">
        <ele>1154.0</ele>
        <time>2020-04-02T18:38:51Z</time>
      </trkpt>
      <trkpt lat="42.3659340" lon="-3.3579730">
        <ele>1152.7</ele>
        <time>2020-04-02T18:38:53Z</time>
      </trkpt>
      <trkpt lat="42.3659410" lon="-3.3581690">
        <ele>1151.7</ele>
        <time>2020-04-02T18:38:55Z</time>
      </trkpt>
      <trkpt lat="42.3659600" lon="-3.3585120">
        <ele>1150.1</ele>
        <time>2020-04-02T18:38:57Z</time>
      </trkpt>
      <trkpt lat="42.3659810" lon="-3.3587220">
        <ele>1149.3</ele>
        <time>2020-04-02T18:38:59Z</time>
      </trkpt>
      <trkpt lat="42.3660200" lon="-3.3591220">
        <ele>1148.3</ele>
        <time>2020-04-02T18:39:01Z</time>
      </trkpt>
      <trkpt lat="42.3660420" lon="-3.3593410">
        <ele>1147.7</ele>
        <time>2020-04-02T18:39:03Z</time>
      </trkpt>
      <trkpt lat="42.3660640" lon="-3.3595640">
        <ele>1147.0</ele>
        <time>2020-04-02T18:39:05Z</time>
      </trkpt>
      <trkpt lat="42.3660960" lon="-3.3599730">
        <ele>1146.2</ele>
        <time>2020-04-02T18:39:07Z</time>
      </trkpt>
      <trkpt lat="42.3661060" lon="-3.3601830">
        <ele>1146.1</ele>
        <time>2020-04-02T18:39:09Z</time>
      </trkpt>
      <trkpt lat="42.3661150" lon="-3.3605550">
        <ele>1146.1</ele>
        <time>2020-04-02T18:39:11Z</time>
      </trkpt>
      <trkpt lat="42.3660950" lon="-3.3607410">
        <ele>1146.1</ele>
        <time>2020-04-02T18:39:13Z</time>
      </trkpt>
      <trkpt lat="42.3660700" lon="-3.3610420">
        <ele>1145.8</ele>
        <time>2020-04-02T18:39:15Z</time>
      </trkpt>
      <trkpt lat="42.3660700" lon="-3.3612220">
        <ele>1145.6</ele>
        <time>2020-04-02T18:39:17Z</time>
      </trkpt>
      <trkpt lat="42.3660700" lon="-3.3614010">
        <ele>1145.4</ele>
        <time>2020-04-02T18:39:19Z</time>
      </trkpt>
      <trkpt lat="42.3660700" lon="-3.3615790">
        <ele>1145.5</ele>
        <time>2020-04-02T18:39:21Z</time>
      </trkpt>
      <trkpt lat="42.3660700" lon="-3.3620240">
        <ele>1145.7</ele>
        <time>2020-04-02T18:39:23Z</time>
      </trkpt>
      <trkpt lat="42.3660700" lon="-3.3622030">
        <ele>1145.6</ele>
        <time>2020-04-02T18:39:25Z</time>
      </trkpt>
      <trkpt lat="42.3660700" lon="-3.3623840">
        <ele>1145.4</ele>
        <time>2020-04-02T18:39:27Z</time>
      </trkpt>
      <trkpt lat="42.3660700" lon="-3.3625640">
        <ele>1145.4</ele>
        <time>2020-04-02T18:39:29Z</time>
      </trkpt>
      <trkpt lat="42.3660700" lon="-3.3627460">
        <ele>1145.3</ele>
        <time>2020-04-02T18:39:31Z</time>
      </trkpt>
      <trkpt lat="42.3660840" lon="-3.3631950">
        <ele>1145.2</ele>
        <time>2020-04-02T18:39:33Z</time>
      </trkpt>
      <trkpt lat="42.3660980" lon="-3.3633760">
        <ele>1145.1</ele>
        <time>2020-04-02T18:39:35Z</time>
      </trkpt>
      <trkpt lat="42.3661130" lon="-3.3635560">
        <ele>1144.8</ele>
        <time>2020-04-02T18:39:37Z</time>
      </trkpt>
      <trkpt lat="42.3661430" lon="-3.3639340">
        <ele>1144.3</ele>
        <time>2020-04-02T18:39:39Z</time>
      </trkpt>
      <trkpt lat="42.3661580" lon="-3.3641160">
        <ele>1144.1</ele>
        <time>2020-04-02T18:39:41Z</time>
      </trkpt>
      <trkpt lat="42.3661720" lon="-3.3642970">
        <ele>1143.9</ele>
        <time>2020-04-02T18:39:43Z</time>
      </trkpt>
      <trkpt lat="42.3662160" lon="-3.3646710">
        <ele>1143.6</ele>
        <time>2020-04-02T18:39:45Z</time>
      </trkpt>
      <trkpt lat="42.3662470" lon="-3.3648490">
        <ele>1143.5</ele>
        <time>2020-04-02T18:39:47Z</time>
      </trkpt>
      <trkpt lat="42.3662770" lon="-3.3650260">
        <ele>1143.4</ele>
        <time>2020-04-02T18:39:49Z</time>
      </trkpt>
      <trkpt lat="42.3663080" lon="-3.3652020">
        <ele>1143.1</ele>
        <time>2020-04-02T18:39:51Z</time>
      </trkpt>
      <trkpt lat="42.3663910" lon="-3.3656830">
        <ele>1142.7</ele>
        <time>2020-04-02T18:39:53Z</time>
      </trkpt>
      <trkpt lat="42.3664340" lon="-3.3658550">
        <ele>1142.6</ele>
        <time>2020-04-02T18:39:55Z</time>
      </trkpt>
      <trkpt lat="42.3664770" lon="-3.3660260">
        <ele>1142.5</ele>
        <time>2020-04-02T18:39:57Z</time>
      </trkpt>
      <trkpt lat="42.3665460" lon="-3.3663380">
        <ele>1142.5</ele>
        <time>2020-04-02T18:39:59Z</time>
      </trkpt>
      <trkpt lat="42.3665800" lon="-3.3665180">
        <ele>1142.4</ele>
        <time>2020-04-02T18:40:01Z</time>
      </trkpt>
      <trkpt lat="42.3666440" lon="-3.3668240">
        <ele>1141.8</ele>
        <time>2020-04-02T18:40:03Z</time>
      </trkpt>
      <trkpt lat="42.3666870" lon="-3.3670040">
        <ele>1141.4</ele>
        <time>2020-04-02T18:40:05Z</time>
      </trkpt>
      <trkpt lat="42.3667770" lon="-3.3673000">
        <ele>1140.4</ele>
        <time>2020-04-02T18:40:07Z</time>
      </trkpt>
      <trkpt lat="42.3668380" lon="-3.3674750">
        <ele>1139.9</ele>
        <time>2020-04-02T18:40:09Z</time>
      </trkpt>
      <trkpt lat="42.3669010" lon="-3.3676520">
        <ele>1139.5</ele>
        <time>2020-04-02T18:40:11Z</time>
      </trkpt>
      <trkpt lat="42.3670510" lon="-3.3680360">
        <ele>1139.2</ele>
        <time>2020-04-02T18:40:13Z</time>
      </trkpt>
      <trkpt lat="42.3671350" lon="-3.3681920">
        <ele>1139.0</ele>
        <time>2020-04-02T18:40:15Z</time>
      </trkpt>
      <trkpt lat="42.3672820" lon="-3.3684440">
        <ele>1138.6</ele>
        <time>2020-04-02T18:40:17Z</time>
      </trkpt>
      <trkpt lat="42.3673800" lon="-3.3685820">
        <ele>1138.5</ele>
        <time>2020-04-02T18:40:19Z</time>
      </trkpt>
      <trkpt lat="42.3674770" lon="-3.3687200">
        <ele>1138.4</ele>
        <time>2020-04-02T18:40:21Z</time>
      </trkpt>
      <trkpt lat="42.3675730" lon="-3.3688570">
        <ele>1138.2</ele>
        <time>2020-04-02T18:40:23Z</time>
      </trkpt>
      <trkpt lat="42.3677850" lon="-3.3691840">
        <ele>1137.5</ele>
        <time>2020-04-02T18:40:25Z</time>
      </trkpt>
      <trkpt lat="42.3678710" lon="-3.3693370">
        <ele>1137.2</ele>
        <time>2020-04-02T18:40:27Z</time>
      </trkpt>
      <trkpt lat="42.3679590" lon="-3.3694930">
        <ele>1136.8</ele>
        <time>2020-04-02T18:40:29Z</time>
      </trkpt>
      <trkpt lat="42.3680460" lon="-3.3696490">
        <ele>1136.5</ele>
        <time>2020-04-02T18:40:31Z</time>
      </trkpt>
      <trkpt lat="42.3682430" lon="-3.3700320">
        <ele>1135.7</ele>
        <time>2020-04-02T18:40:33Z</time>
      </trkpt>
      <trkpt lat="42.3683200" lon="-3.3702020">
        <ele>1135.4</ele>
        <time>2020-04-02T18:40:35Z</time>
      </trkpt>
      <trkpt lat="42.3684650" lon="-3.3705220">
        <ele>1134.6</ele>
        <time>2020-04-02T18:40:37Z</time>
      </trkpt>
      <trkpt lat="42.3685420" lon="-3.3706930">
        <ele>1134.2</ele>
        <time>2020-04-02T18:40:39Z</time>
      </trkpt>
      <trkpt lat="42.3686190" lon="-3.3708640">
        <ele>1133.7</ele>
        <time>2020-04-02T18:40:41Z</time>
      </trkpt>
      <trkpt lat="42.3687240" lon="-3.3712090">
        <ele>1132.8</ele>
        <time>2020-04-02T18:40:43Z</time>
      </trkpt>
      <trkpt lat="42.3687590" lon="-3.3714040">
        <ele>1132.4</ele>
        <time>2020-04-02T18:40:45Z</time>
      </trkpt>
      <trkpt lat="42.3687940" lon="-3.3716000">
        <ele>1132.1</ele>
        <time>2020-04-02T18:40:47Z</time>
      </trkpt>
      <trkpt lat="42.3688290" lon="-3.3717960">
        <ele>1131.8</ele>
        <time>2020-04-02T18:40:49Z</time>
      </trkpt>
      <trkpt lat="42.3689140" lon="-3.3722990">
        <ele>1131.2</ele>
        <time>2020-04-02T18:40:51Z</time>
      </trkpt>
      <trkpt lat="42.3689380" lon="-3.3724870">
        <ele>1130.9</ele>
        <time>2020-04-02T18:40:53Z</time>
      </trkpt>
      <trkpt lat="42.3689600" lon="-3.3726630">
        <ele>1130.8</ele>
        <time>2020-04-02T18:40:55Z</time>
      </trkpt>
      <trkpt lat="42.3689810" lon="-3.3728270">
        <ele>1130.7</ele>
        <time>2020-04-02T18:40:57Z</time>
      </trkpt>
      <trkpt lat="42.3690010" lon="-3.3729860">
        <ele>1130.6</ele>
        <time>2020-04-02T18:40:59Z</time>
      </trkpt>
      <trkpt lat="42.3690690" lon="-3.3734500">
        <ele>1130.5</ele>
        <time>2020-04-02T18:41:01Z</time>
      </trkpt>
      <trkpt lat="42.3691260" lon="-3.3736740">
        <ele>1130.4</ele>
        <time>2020-04-02T18:41:03Z</time>
      </trkpt>
      <trkpt lat="42.3691820" lon="-3.3738110">
        <ele>1130.3</ele>
        <time>2020-04-02T18:41:05Z</time>
      </trkpt>
      <trkpt lat="42.3692370" lon="-3.3739470">
        <ele>1130.1</ele>
        <time>2020-04-02T18:41:07Z</time>
      </trkpt>
      <trkpt lat="42.3692940" lon="-3.3740840">
        <ele>1129.9</ele>
        <time>2020-04-02T18:41:09Z</time>
      </trkpt>
      <trkpt lat="42.3693500" lon="-3.3742210">
        <ele>1129.8</ele>
        <time>2020-04-02T18:41:11Z</time>
      </trkpt>
      <trkpt lat="42.3694770" lon="-3.3745800">
        <ele>1129.3</ele>
        <time>2020-04-02T18:41:13Z</time>
      </trkpt>
      <trkpt lat="42.3695210" lon="-3.3748100">
        <ele>1129.2</ele>
        <time>2020-04-02T18:41:15Z</time>
      </trkpt>
      <trkpt lat="42.3695400" lon="-3.3749590">
        <ele>1129.3</ele>
        <time>2020-04-02T18:41:17Z</time>
      </trkpt>
      <trkpt lat="42.3695590" lon="-3.3751050">
        <ele>1129.6</ele>
        <time>2020-04-02T18:41:19Z</time>
      </trkpt>
      <trkpt lat="42.3695770" lon="-3.3752500">
        <ele>1130.0</ele>
        <time>2020-04-02T18:41:21Z</time>
      </trkpt>
      <trkpt lat="42.3695960" lon="-3.3753960">
        <ele>1130.6</ele>
        <time>2020-04-02T18:41:23Z</time>
      </trkpt>
      <trkpt lat="42.3696530" lon="-3.3757860">
        <ele>1131.6</ele>
        <time>2020-04-02T18:41:25Z</time>
      </trkpt>
      <trkpt lat="42.3696910" lon="-3.3759230">
        <ele>1131.6</ele>
        <time>2020-04-02T18:41:27Z</time>
      </trkpt>
      <trkpt lat="42.3697300" lon="-3.3761440">
        <ele>1131.7</ele>
        <time>2020-04-02T18:41:29Z</time>
      </trkpt>
      <trkpt lat="42.3697430" lon="-3.3762920">
        <ele>1131.7</ele>
        <time>2020-04-02T18:41:31Z</time>
      </trkpt>
      <trkpt lat="42.3697560" lon="-3.3764390">
        <ele>1131.8</ele>
        <time>2020-04-02T18:41:33Z</time>
      </trkpt>
      <trkpt lat="42.3697690" lon="-3.3765850">
        <ele>1131.8</ele>
        <time>2020-04-02T18:41:35Z</time>
      </trkpt>
      <trkpt lat="42.3697820" lon="-3.3767320">
        <ele>1131.8</ele>
        <time>2020-04-02T18:41:37Z</time>
      </trkpt>
      <trkpt lat="42.3698190" lon="-3.3771470">
        <ele>1131.8</ele>
        <time>2020-04-02T18:41:39Z</time>
      </trkpt>
      <trkpt lat="42.3698330" lon="-3.3773090">
        <ele>1131.8</ele>
        <time>2020-04-02T18:41:41Z</time>
      </trkpt>
      <trkpt lat="42.3698490" lon="-3.3774840">
        <ele>1131.6</ele>
        <time>2020-04-02T18:41:43Z</time>
      </trkpt>
      <trkpt lat="42.3698650" lon="-3.3776700">
        <ele>1131.4</ele>
        <time>2020-04-02T18:41:45Z</time>
      </trkpt>
      <trkpt lat="42.3699050" lon="-3.3781280">
        <ele>1130.2</ele>
        <time>2020-04-02T18:41:47Z</time>
      </trkpt>
      <trkpt lat="42.3699180" lon="-3.3783280">
        <ele>1129.3</ele>
        <time>2020-04-02T18:41:49Z</time>
      </trkpt>
      <trkpt lat="42.3699330" lon="-3.3785340">
        <ele>1128.4</ele>
        <time>2020-04-02T18:41:51Z</time>
      </trkpt>
      <trkpt lat="42.3699470" lon="-3.3787430">
        <ele>1127.5</ele>
        <time>2020-04-02T18:41:53Z</time>
      </trkpt>
      <trkpt lat="42.3700010" lon="-3.3792080">
        <ele>1126.0</ele>
        <time>2020-04-02T18:41:55Z</time>
      </trkpt>
      <trkpt lat="42.3700460" lon="-3.3794000">
        <ele>1125.4</ele>
        <time>2020-04-02T18:41:57Z</time>
      </trkpt>
      <trkpt lat="42.3701330" lon="-3.3797040">
        <ele>1124.8</ele>
        <time>2020-04-02T18:41:59Z</time>
      </trkpt>
      <trkpt lat="42.3701920" lon="-3.3798880">
        <ele>1124.4</ele>
        <time>2020-04-02T18:42:01Z</time>
      </trkpt>
      <trkpt lat="42.3702900" lon="-3.3802200">
        <ele>1123.7</ele>
        <time>2020-04-02T18:42:03Z</time>
      </trkpt>
      <trkpt lat="42.3703370" lon="-3.3804110">
        <ele>1123.2</ele>
        <time>2020-04-02T18:42:05Z</time>
      </trkpt>
      <trkpt lat="42.3704270" lon="-3.3807730">
        <ele>1122.1</ele>
        <time>2020-04-02T18:42:07Z</time>
      </trkpt>
      <trkpt lat="42.3704760" lon="-3.3809710">
        <ele>1121.5</ele>
        <time>2020-04-02T18:42:09Z</time>
      </trkpt>
      <trkpt lat="42.3705260" lon="-3.3811720">
        <ele>1120.9</ele>
        <time>2020-04-02T18:42:11Z</time>
      </trkpt>
      <trkpt lat="42.3706380" lon="-3.3815370">
        <ele>1119.8</ele>
        <time>2020-04-02T18:42:13Z</time>
      </trkpt>
      <trkpt lat="42.3707160" lon="-3.3817340">
        <ele>1119.2</ele>
        <time>2020-04-02T18:42:15Z</time>
      </trkpt>
      <trkpt lat="42.3708520" lon="-3.3820770">
        <ele>1118.0</ele>
        <time>2020-04-02T18:42:17Z</time>
      </trkpt>
      <trkpt lat="42.3709300" lon="-3.3822740">
        <ele>1117.4</ele>
        <time>2020-04-02T18:42:19Z</time>
      </trkpt>
      <trkpt lat="42.3710610" lon="-3.3826190">
        <ele>1116.3</ele>
        <time>2020-04-02T18:42:21Z</time>
      </trkpt>
      <trkpt lat="42.3711320" lon="-3.3828210">
        <ele>1115.7</ele>
        <time>2020-04-02T18:42:23Z</time>
      </trkpt>
      <trkpt lat="42.3712630" lon="-3.3831970">
        <ele>1115.0</ele>
        <time>2020-04-02T18:42:25Z</time>
      </trkpt>
      <trkpt lat="42.3713290" lon="-3.3833890">
        <ele>1114.7</ele>
        <time>2020-04-02T18:42:27Z</time>
      </trkpt>
      <trkpt lat="42.3713920" lon="-3.3835680">
        <ele>1114.5</ele>
        <time>2020-04-02T18:42:29Z</time>
      </trkpt>
      <trkpt lat="42.3715110" lon="-3.3839160">
        <ele>1114.4</ele>
        <time>2020-04-02T18:42:31Z</time>
      </trkpt>
      <trkpt lat="42.3715660" lon="-3.3840860">
        <ele>1114.6</ele>
        <time>2020-04-02T18:42:33Z</time>
      </trkpt>
      <trkpt lat="42.3716200" lon="-3.3842520">
        <ele>1114.7</ele>
        <time>2020-04-02T18:42:35Z</time>
      </trkpt>
      <trkpt lat="42.3716720" lon="-3.3844130">
        <ele>1114.8</ele>
        <time>2020-04-02T18:42:37Z</time>
      </trkpt>
      <trkpt lat="42.3718070" lon="-3.3848310">
        <ele>1114.1</ele>
        <time>2020-04-02T18:42:39Z</time>
      </trkpt>
      <trkpt lat="42.3718600" lon="-3.3849970">
        <ele>1114.0</ele>
        <time>2020-04-02T18:42:41Z</time>
      </trkpt>
      <trkpt lat="42.3719150" lon="-3.3851660">
        <ele>1113.7</ele>
        <time>2020-04-02T18:42:43Z</time>
      </trkpt>
      <trkpt lat="42.3719710" lon="-3.3853380">
        <ele>1113.4</ele>
        <time>2020-04-02T18:42:45Z</time>
      </trkpt>
      <trkpt lat="42.3720270" lon="-3.3855110">
        <ele>1113.2</ele>
        <time>2020-04-02T18:42:47Z</time>
      </trkpt>
      <trkpt lat="42.3721650" lon="-3.3859400">
        <ele>1112.7</ele>
        <time>2020-04-02T18:42:49Z</time>
      </trkpt>
      <trkpt lat="42.3722220" lon="-3.3861150">
        <ele>1112.4</ele>
        <time>2020-04-02T18:42:51Z</time>
      </trkpt>
      <trkpt lat="42.3722790" lon="-3.3862940">
        <ele>1112.0</ele>
        <time>2020-04-02T18:42:53Z</time>
      </trkpt>
      <trkpt lat="42.3723370" lon="-3.3864720">
        <ele>1111.6</ele>
        <time>2020-04-02T18:42:55Z</time>
      </trkpt>
      <trkpt lat="42.3724780" lon="-3.3869070">
        <ele>1110.4</ele>
        <time>2020-04-02T18:42:57Z</time>
      </trkpt>
      <trkpt lat="42.3725390" lon="-3.3870970">
        <ele>1109.9</ele>
        <time>2020-04-02T18:42:59Z</time>
      </trkpt>
      <trkpt lat="42.3726020" lon="-3.3872930">
        <ele>1109.3</ele>
        <time>2020-04-02T18:43:01Z</time>
      </trkpt>
      <trkpt lat="42.3727490" lon="-3.3877470">
        <ele>1107.7</ele>
        <time>2020-04-02T18:43:03Z</time>
      </trkpt>
      <trkpt lat="42.3728150" lon="-3.3879510">
        <ele>1106.8</ele>
        <time>2020-04-02T18:43:05Z</time>
      </trkpt>
      <trkpt lat="42.3728820" lon="-3.3881590">
        <ele>1106.0</ele>
        <time>2020-04-02T18:43:07Z</time>
      </trkpt>
      <trkpt lat="42.3729500" lon="-3.3883690">
        <ele>1104.9</ele>
        <time>2020-04-02T18:43:09Z</time>
      </trkpt>
      <trkpt lat="42.3731030" lon="-3.3888320">
        <ele>1103.0</ele>
        <time>2020-04-02T18:43:11Z</time>
      </trkpt>
      <trkpt lat="42.3731740" lon="-3.3890330">
        <ele>1102.1</ele>
        <time>2020-04-02T18:43:13Z</time>
      </trkpt>
      <trkpt lat="42.3732440" lon="-3.3892310">
        <ele>1101.4</ele>
        <time>2020-04-02T18:43:15Z</time>
      </trkpt>
      <trkpt lat="42.3733840" lon="-3.3896260">
        <ele>1100.3</ele>
        <time>2020-04-02T18:43:17Z</time>
      </trkpt>
      <trkpt lat="42.3734510" lon="-3.3898170">
        <ele>1099.9</ele>
        <time>2020-04-02T18:43:19Z</time>
      </trkpt>
      <trkpt lat="42.3735190" lon="-3.3900080">
        <ele>1099.6</ele>
        <time>2020-04-02T18:43:21Z</time>
      </trkpt>
      <trkpt lat="42.3736570" lon="-3.3904000">
        <ele>1099.2</ele>
        <time>2020-04-02T18:43:23Z</time>
      </trkpt>
      <trkpt lat="42.3737240" lon="-3.3905900">
        <ele>1099.0</ele>
        <time>2020-04-02T18:43:25Z</time>
      </trkpt>
      <trkpt lat="42.3737910" lon="-3.3907780">
        <ele>1098.7</ele>
        <time>2020-04-02T18:43:27Z</time>
      </trkpt>
      <trkpt lat="42.3739300" lon="-3.3911670">
        <ele>1097.8</ele>
        <time>2020-04-02T18:43:29Z</time>
      </trkpt>
      <trkpt lat="42.3739970" lon="-3.3913470">
        <ele>1097.2</ele>
        <time>2020-04-02T18:43:31Z</time>
      </trkpt>
      <trkpt lat="42.3740960" lon="-3.3916810">
        <ele>1096.2</ele>
        <time>2020-04-02T18:43:33Z</time>
      </trkpt>
      <trkpt lat="42.3741120" lon="-3.3918740">
        <ele>1096.0</ele>
        <time>2020-04-02T18:43:35Z</time>
      </trkpt>
      <trkpt lat="42.3741270" lon="-3.3920680">
        <ele>1095.9</ele>
        <time>2020-04-02T18:43:37Z</time>
      </trkpt>
      <trkpt lat="42.3741430" lon="-3.3922600">
        <ele>1095.9</ele>
        <time>2020-04-02T18:43:39Z</time>
      </trkpt>
      <trkpt lat="42.3741730" lon="-3.3927130">
        <ele>1095.6</ele>
        <time>2020-04-02T18:43:41Z</time>
      </trkpt>
      <trkpt lat="42.3741780" lon="-3.3929070">
        <ele>1095.5</ele>
        <time>2020-04-02T18:43:43Z</time>
      </trkpt>
      <trkpt lat="42.3741830" lon="-3.3931000">
        <ele>1095.4</ele>
        <time>2020-04-02T18:43:45Z</time>
      </trkpt>
      <trkpt lat="42.3742040" lon="-3.3934940">
        <ele>1095.0</ele>
        <time>2020-04-02T18:43:47Z</time>
      </trkpt>
      <trkpt lat="42.3742270" lon="-3.3936820">
        <ele>1094.8</ele>
        <time>2020-04-02T18:43:49Z</time>
      </trkpt>
      <trkpt lat="42.3742510" lon="-3.3938710">
        <ele>1094.5</ele>
        <time>2020-04-02T18:43:51Z</time>
      </trkpt>
      <trkpt lat="42.3743050" lon="-3.3942920">
        <ele>1093.8</ele>
        <time>2020-04-02T18:43:53Z</time>
      </trkpt>
      <trkpt lat="42.3743670" lon="-3.3945020">
        <ele>1093.5</ele>
        <time>2020-04-02T18:43:55Z</time>
      </trkpt>
      <trkpt lat="42.3744580" lon="-3.3947620">
        <ele>1093.2</ele>
        <time>2020-04-02T18:43:57Z</time>
      </trkpt>
      <trkpt lat="42.3745050" lon="-3.3949410">
        <ele>1093.0</ele>
        <time>2020-04-02T18:43:59Z</time>
      </trkpt>
      <trkpt lat="42.3745510" lon="-3.3951160">
        <ele>1092.9</ele>
        <time>2020-04-02T18:44:01Z</time>
      </trkpt>
      <trkpt lat="42.3746390" lon="-3.3954530">
        <ele>1092.9</ele>
        <time>2020-04-02T18:44:03Z</time>
      </trkpt>
      <trkpt lat="42.3746840" lon="-3.3956240">
        <ele>1092.8</ele>
        <time>2020-04-02T18:44:05Z</time>
      </trkpt>
      <trkpt lat="42.3747280" lon="-3.3957910">
        <ele>1092.6</ele>
        <time>2020-04-02T18:44:07Z</time>
      </trkpt>
      <trkpt lat="42.3748080" lon="-3.3961270">
        <ele>1092.3</ele>
        <time>2020-04-02T18:44:09Z</time>
      </trkpt>
      <trkpt lat="42.3748440" lon="-3.3963000">
        <ele>1092.2</ele>
        <time>2020-04-02T18:44:11Z</time>
      </trkpt>
      <trkpt lat="42.3748800" lon="-3.3964750">
        <ele>1092.1</ele>
        <time>2020-04-02T18:44:13Z</time>
      </trkpt>
      <trkpt lat="42.3749590" lon="-3.3968590">
        <ele>1091.6</ele>
        <time>2020-04-02T18:44:15Z</time>
      </trkpt>
      <trkpt lat="42.3749950" lon="-3.3970330">
        <ele>1091.4</ele>
        <time>2020-04-02T18:44:17Z</time>
      </trkpt>
      <trkpt lat="42.3750310" lon="-3.3972080">
        <ele>1091.2</ele>
        <time>2020-04-02T18:44:19Z</time>
      </trkpt>
      <trkpt lat="42.3751100" lon="-3.3975930">
        <ele>1090.7</ele>
        <time>2020-04-02T18:44:21Z</time>
      </trkpt>
      <trkpt lat="42.3751420" lon="-3.3977730">
        <ele>1090.4</ele>
        <time>2020-04-02T18:44:23Z</time>
      </trkpt>
      <trkpt lat="42.3751730" lon="-3.3979530">
        <ele>1090.2</ele>
        <time>2020-04-02T18:44:25Z</time>
      </trkpt>
      <trkpt lat="42.3752050" lon="-3.3981380">
        <ele>1089.9</ele>
        <time>2020-04-02T18:44:27Z</time>
      </trkpt>
      <trkpt lat="42.3752380" lon="-3.3983240">
        <ele>1089.7</ele>
        <time>2020-04-02T18:44:29Z</time>
      </trkpt>
      <trkpt lat="42.3753220" lon="-3.3988100">
        <ele>1089.0</ele>
        <time>2020-04-02T18:44:31Z</time>
      </trkpt>
      <trkpt lat="42.3753550" lon="-3.3989990">
        <ele>1088.7</ele>
        <time>2020-04-02T18:44:33Z</time>
      </trkpt>
      <trkpt lat="42.3753880" lon="-3.3991880">
        <ele>1088.5</ele>
        <time>2020-04-02T18:44:35Z</time>
      </trkpt>
      <trkpt lat="42.3754210" lon="-3.3993780">
        <ele>1088.2</ele>
        <time>2020-04-02T18:44:37Z</time>
      </trkpt>
      <trkpt lat="42.3754540" lon="-3.3995670">
        <ele>1088.0</ele>
        <time>2020-04-02T18:44:39Z</time>
      </trkpt>
      <trkpt lat="42.3755390" lon="-3.4000580">
        <ele>1087.5</ele>
        <time>2020-04-02T18:44:41Z</time>
      </trkpt>
      <trkpt lat="42.3755720" lon="-3.4002480">
        <ele>1087.3</ele>
        <time>2020-04-02T18:44:43Z</time>
      </trkpt>
      <trkpt lat="42.3756050" lon="-3.4004360">
        <ele>1087.2</ele>
        <time>2020-04-02T18:44:45Z</time>
      </trkpt>
      <trkpt lat="42.3756380" lon="-3.4006260">
        <ele>1087.0</ele>
        <time>2020-04-02T18:44:47Z</time>
      </trkpt>
      <trkpt lat="42.3757240" lon="-3.4011140">
        <ele>1086.4</ele>
        <time>2020-04-02T18:44:49Z</time>
      </trkpt>
      <trkpt lat="42.3757600" lon="-3.4013020">
        <ele>1086.2</ele>
        <time>2020-04-02T18:44:51Z</time>
      </trkpt>
      <trkpt lat="42.3757950" lon="-3.4014880">
        <ele>1085.9</ele>
        <time>2020-04-02T18:44:53Z</time>
      </trkpt>
      <trkpt lat="42.3758310" lon="-3.4016760">
        <ele>1085.7</ele>
        <time>2020-04-02T18:44:55Z</time>
      </trkpt>
      <trkpt lat="42.3759120" lon="-3.4021040">
        <ele>1085.2</ele>
        <time>2020-04-02T18:44:57Z</time>
      </trkpt>
      <trkpt lat="42.3759480" lon="-3.4022910">
        <ele>1084.9</ele>
        <time>2020-04-02T18:44:59Z</time>
      </trkpt>
      <trkpt lat="42.3759840" lon="-3.4024790">
        <ele>1084.7</ele>
        <time>2020-04-02T18:45:01Z</time>
      </trkpt>
      <trkpt lat="42.3760650" lon="-3.4029070">
        <ele>1084.2</ele>
        <time>2020-04-02T18:45:03Z</time>
      </trkpt>
      <trkpt lat="42.3760980" lon="-3.4030960">
        <ele>1083.9</ele>
        <time>2020-04-02T18:45:05Z</time>
      </trkpt>
      <trkpt lat="42.3761320" lon="-3.4032820">
        <ele>1083.6</ele>
        <time>2020-04-02T18:45:07Z</time>
      </trkpt>
      <trkpt lat="42.3761650" lon="-3.4034710">
        <ele>1083.4</ele>
        <time>2020-04-02T18:45:09Z</time>
      </trkpt>
      <trkpt lat="42.3761980" lon="-3.4036590">
        <ele>1083.2</ele>
        <time>2020-04-02T18:45:11Z</time>
      </trkpt>
      <trkpt lat="42.3762840" lon="-3.4041400">
        <ele>1082.7</ele>
        <time>2020-04-02T18:45:13Z</time>
      </trkpt>
      <trkpt lat="42.3763180" lon="-3.4043310">
        <ele>1082.4</ele>
        <time>2020-04-02T18:45:15Z</time>
      </trkpt>
      <trkpt lat="42.3763520" lon="-3.4045230">
        <ele>1082.1</ele>
        <time>2020-04-02T18:45:17Z</time>
      </trkpt>
      <trkpt lat="42.3763870" lon="-3.4047180">
        <ele>1081.8</ele>
        <time>2020-04-02T18:45:19Z</time>
      </trkpt>
      <trkpt lat="42.3764720" lon="-3.4052060">
        <ele>1081.0</ele>
        <time>2020-04-02T18:45:21Z</time>
      </trkpt>
      <trkpt lat="42.3765020" lon="-3.4054040">
        <ele>1080.8</ele>
        <time>2020-04-02T18:45:23Z</time>
      </trkpt>
      <trkpt lat="42.3765320" lon="-3.4056020">
        <ele>1080.5</ele>
        <time>2020-04-02T18:45:25Z</time>
      </trkpt>
      <trkpt lat="42.3765620" lon="-3.4058010">
        <ele>1079.8</ele>
        <time>2020-04-02T18:45:27Z</time>
      </trkpt>
      <trkpt lat="42.3766310" lon="-3.4062550">
        <ele>1078.8</ele>
        <time>2020-04-02T18:45:29Z</time>
      </trkpt>
      <trkpt lat="42.3766610" lon="-3.4064520">
        <ele>1078.5</ele>
        <time>2020-04-02T18:45:31Z</time>
      </trkpt>
      <trkpt lat="42.3766910" lon="-3.4066480">
        <ele>1078.5</ele>
        <time>2020-04-02T18:45:33Z</time>
      </trkpt>
      <trkpt lat="42.3767600" lon="-3.4071000">
        <ele>1078.1</ele>
        <time>2020-04-02T18:45:35Z</time>
      </trkpt>
      <trkpt lat="42.3767900" lon="-3.4072960">
        <ele>1077.7</ele>
        <time>2020-04-02T18:45:37Z</time>
      </trkpt>
      <trkpt lat="42.3768200" lon="-3.4074940">
        <ele>1077.2</ele>
        <time>2020-04-02T18:45:39Z</time>
      </trkpt>
      <trkpt lat="42.3768500" lon="-3.4076910">
        <ele>1076.8</ele>
        <time>2020-04-02T18:45:41Z</time>
      </trkpt>
      <trkpt lat="42.3769190" lon="-3.4081430">
        <ele>1075.8</ele>
        <time>2020-04-02T18:45:43Z</time>
      </trkpt>
      <trkpt lat="42.3769500" lon="-3.4083470">
        <ele>1075.1</ele>
        <time>2020-04-02T18:45:45Z</time>
      </trkpt>
      <trkpt lat="42.3769820" lon="-3.4085610">
        <ele>1074.4</ele>
        <time>2020-04-02T18:45:47Z</time>
      </trkpt>
      <trkpt lat="42.3770160" lon="-3.4087820">
        <ele>1073.6</ele>
        <time>2020-04-02T18:45:49Z</time>
      </trkpt>
      <trkpt lat="42.3770990" lon="-3.4092620">
        <ele>1071.8</ele>
        <time>2020-04-02T18:45:51Z</time>
      </trkpt>
      <trkpt lat="42.3771450" lon="-3.4094890">
        <ele>1070.6</ele>
        <time>2020-04-02T18:45:53Z</time>
      </trkpt>
      <trkpt lat="42.3771910" lon="-3.4097210">
        <ele>1069.2</ele>
        <time>2020-04-02T18:45:55Z</time>
      </trkpt>
      <trkpt lat="42.3772910" lon="-3.4102530">
        <ele>1066.2</ele>
        <time>2020-04-02T18:45:57Z</time>
      </trkpt>
      <trkpt lat="42.3772980" lon="-3.4105830">
        <ele>1064.6</ele>
        <time>2020-04-02T18:45:59Z</time>
      </trkpt>
      <trkpt lat="42.3772900" lon="-3.4108320">
        <ele>1063.5</ele>
        <time>2020-04-02T18:46:01Z</time>
      </trkpt>
      <trkpt lat="42.3772820" lon="-3.4110850">
        <ele>1062.5</ele>
        <time>2020-04-02T18:46:03Z</time>
      </trkpt>
      <trkpt lat="42.3772660" lon="-3.4115760">
        <ele>1060.2</ele>
        <time>2020-04-02T18:46:05Z</time>
      </trkpt>
      <trkpt lat="42.3772580" lon="-3.4118140">
        <ele>1059.3</ele>
        <time>2020-04-02T18:46:07Z</time>
      </trkpt>
      <trkpt lat="42.3772500" lon="-3.4120390">
        <ele>1058.7</ele>
        <time>2020-04-02T18:46:09Z</time>
      </trkpt>
      <trkpt lat="42.3772550" lon="-3.4124930">
        <ele>1057.8</ele>
        <time>2020-04-02T18:46:11Z</time>
      </trkpt>
      <trkpt lat="42.3772780" lon="-3.4127060">
        <ele>1057.6</ele>
        <time>2020-04-02T18:46:13Z</time>
      </trkpt>
      <trkpt lat="42.3773230" lon="-3.4131040">
        <ele>1057.1</ele>
        <time>2020-04-02T18:46:15Z</time>
      </trkpt>
      <trkpt lat="42.3773460" lon="-3.4133130">
        <ele>1056.6</ele>
        <time>2020-04-02T18:46:17Z</time>
      </trkpt>
      <trkpt lat="42.3773690" lon="-3.4135210">
        <ele>1056.1</ele>
        <time>2020-04-02T18:46:19Z</time>
      </trkpt>
      <trkpt lat="42.3774160" lon="-3.4139170">
        <ele>1055.5</ele>
        <time>2020-04-02T18:46:21Z</time>
      </trkpt>
      <trkpt lat="42.3774460" lon="-3.4141240">
        <ele>1055.1</ele>
        <time>2020-04-02T18:46:23Z</time>
      </trkpt>
      <trkpt lat="42.3775000" lon="-3.4145040">
        <ele>1054.2</ele>
        <time>2020-04-02T18:46:25Z</time>
      </trkpt>
      <trkpt lat="42.3775290" lon="-3.4147080">
        <ele>1053.8</ele>
        <time>2020-04-02T18:46:27Z</time>
      </trkpt>
      <trkpt lat="42.3775570" lon="-3.4149070">
        <ele>1053.5</ele>
        <time>2020-04-02T18:46:29Z</time>
      </trkpt>
      <trkpt lat="42.3776140" lon="-3.4152780">
        <ele>1052.9</ele>
        <time>2020-04-02T18:46:31Z</time>
      </trkpt>
      <trkpt lat="42.3776470" lon="-3.4154720">
        <ele>1052.6</ele>
        <time>2020-04-02T18:46:33Z</time>
      </trkpt>
      <trkpt lat="42.3776810" lon="-3.4156680">
        <ele>1052.3</ele>
        <time>2020-04-02T18:46:35Z</time>
      </trkpt>
      <trkpt lat="42.3777500" lon="-3.4160690">
        <ele>1051.9</ele>
        <time>2020-04-02T18:46:37Z</time>
      </trkpt>
      <trkpt lat="42.3777840" lon="-3.4162650">
        <ele>1051.8</ele>
        <time>2020-04-02T18:46:39Z</time>
      </trkpt>
      <trkpt lat="42.3778180" lon="-3.4164660">
        <ele>1051.8</ele>
        <time>2020-04-02T18:46:41Z</time>
      </trkpt>
      <trkpt lat="42.3778580" lon="-3.4168950">
        <ele>1051.1</ele>
        <time>2020-04-02T18:46:43Z</time>
      </trkpt>
      <trkpt lat="42.3778650" lon="-3.4171540">
        <ele>1050.4</ele>
        <time>2020-04-02T18:46:45Z</time>
      </trkpt>
      <trkpt lat="42.3778830" lon="-3.4173620">
        <ele>1049.7</ele>
        <time>2020-04-02T18:46:47Z</time>
      </trkpt>
      <trkpt lat="42.3779170" lon="-3.4177770">
        <ele>1047.9</ele>
        <time>2020-04-02T18:46:49Z</time>
      </trkpt>
      <trkpt lat="42.3779340" lon="-3.4179800">
        <ele>1047.2</ele>
        <time>2020-04-02T18:46:51Z</time>
      </trkpt>
      <trkpt lat="42.3779510" lon="-3.4181770">
        <ele>1046.9</ele>
        <time>2020-04-02T18:46:53Z</time>
      </trkpt>
      <trkpt lat="42.3779700" lon="-3.4185690">
        <ele>1046.5</ele>
        <time>2020-04-02T18:46:55Z</time>
      </trkpt>
      <trkpt lat="42.3779280" lon="-3.4187440">
        <ele>1046.4</ele>
        <time>2020-04-02T18:46:57Z</time>
      </trkpt>
      <trkpt lat="42.3778870" lon="-3.4189130">
        <ele>1046.5</ele>
        <time>2020-04-02T18:46:59Z</time>
      </trkpt>
      <trkpt lat="42.3778470" lon="-3.4190810">
        <ele>1046.6</ele>
        <time>2020-04-02T18:47:01Z</time>
      </trkpt>
      <trkpt lat="42.3777480" lon="-3.4195000">
        <ele>1046.2</ele>
        <time>2020-04-02T18:47:03Z</time>
      </trkpt>
      <trkpt lat="42.3777350" lon="-3.4196900">
        <ele>1045.7</ele>
        <time>2020-04-02T18:47:05Z</time>
      </trkpt>
      <trkpt lat="42.3777210" lon="-3.4198940">
        <ele>1045.2</ele>
        <time>2020-04-02T18:47:07Z</time>
      </trkpt>
      <trkpt lat="42.3776920" lon="-3.4203190">
        <ele>1043.3</ele>
        <time>2020-04-02T18:47:09Z</time>
      </trkpt>
      <trkpt lat="42.3776760" lon="-3.4205480">
        <ele>1041.8</ele>
        <time>2020-04-02T18:47:11Z</time>
      </trkpt>
      <trkpt lat="42.3776600" lon="-3.4207840">
        <ele>1040.3</ele>
        <time>2020-04-02T18:47:13Z</time>
      </trkpt>
      <trkpt lat="42.3776380" lon="-3.4212350">
        <ele>1038.3</ele>
        <time>2020-04-02T18:47:15Z</time>
      </trkpt>
      <trkpt lat="42.3776360" lon="-3.4214840">
        <ele>1037.0</ele>
        <time>2020-04-02T18:47:17Z</time>
      </trkpt>
      <trkpt lat="42.3776330" lon="-3.4217340">
        <ele>1035.9</ele>
        <time>2020-04-02T18:47:19Z</time>
      </trkpt>
      <trkpt lat="42.3776670" lon="-3.4222680">
        <ele>1033.1</ele>
        <time>2020-04-02T18:47:21Z</time>
      </trkpt>
      <trkpt lat="42.3777350" lon="-3.4225720">
        <ele>1031.3</ele>
        <time>2020-04-02T18:47:23Z</time>
      </trkpt>
      <trkpt lat="42.3777290" lon="-3.4229080">
        <ele>1028.9</ele>
        <time>2020-04-02T18:47:25Z</time>
      </trkpt>
      <trkpt lat="42.3777010" lon="-3.4231710">
        <ele>1027.4</ele>
        <time>2020-04-02T18:47:27Z</time>
      </trkpt>
      <trkpt lat="42.3776590" lon="-3.4236580">
        <ele>1025.0</ele>
        <time>2020-04-02T18:47:29Z</time>
      </trkpt>
      <trkpt lat="42.3776550" lon="-3.4239330">
        <ele>1023.3</ele>
        <time>2020-04-02T18:47:31Z</time>
      </trkpt>
      <trkpt lat="42.3776440" lon="-3.4244220">
        <ele>1020.2</ele>
        <time>2020-04-02T18:47:33Z</time>
      </trkpt>
      <trkpt lat="42.3776170" lon="-3.4246830">
        <ele>1018.5</ele>
        <time>2020-04-02T18:47:35Z</time>
      </trkpt>
      <trkpt lat="42.3775620" lon="-3.4250540">
        <ele>1017.0</ele>
        <time>2020-04-02T18:47:37Z</time>
      </trkpt>
      <trkpt lat="42.3775180" lon="-3.4252850">
        <ele>1016.1</ele>
        <time>2020-04-02T18:47:39Z</time>
      </trkpt>
      <trkpt lat="42.3774500" lon="-3.4256920">
        <ele>1014.7</ele>
        <time>2020-04-02T18:47:41Z</time>
      </trkpt>
      <trkpt lat="42.3774210" lon="-3.4259170">
        <ele>1014.2</ele>
        <time>2020-04-02T18:47:43Z</time>
      </trkpt>
      <trkpt lat="42.3773850" lon="-3.4263010">
        <ele>1013.6</ele>
        <time>2020-04-02T18:47:45Z</time>
      </trkpt>
      <trkpt lat="42.3773770" lon="-3.4265260">
        <ele>1013.3</ele>
        <time>2020-04-02T18:47:47Z</time>
      </trkpt>
      <trkpt lat="42.3773700" lon="-3.4269020">
        <ele>1012.9</ele>
        <time>2020-04-02T18:47:49Z</time>
      </trkpt>
      <trkpt lat="42.3773700" lon="-3.4271160">
        <ele>1012.7</ele>
        <time>2020-04-02T18:47:51Z</time>
      </trkpt>
      <trkpt lat="42.3773780" lon="-3.4274870">
        <ele>1012.1</ele>
        <time>2020-04-02T18:47:53Z</time>
      </trkpt>
      <trkpt lat="42.3773910" lon="-3.4276890">
        <ele>1011.8</ele>
        <time>2020-04-02T18:47:55Z</time>
      </trkpt>
      <trkpt lat="42.3774140" lon="-3.4280500">
        <ele>1011.3</ele>
        <time>2020-04-02T18:47:57Z</time>
      </trkpt>
      <trkpt lat="42.3774270" lon="-3.4282490">
        <ele>1011.2</ele>
        <time>2020-04-02T18:47:59Z</time>
      </trkpt>
      <trkpt lat="42.3774500" lon="-3.4286070">
        <ele>1010.9</ele>
        <time>2020-04-02T18:48:01Z</time>
      </trkpt>
      <trkpt lat="42.3774440" lon="-3.4288060">
        <ele>1010.3</ele>
        <time>2020-04-02T18:48:03Z</time>
      </trkpt>
      <trkpt lat="42.3774380" lon="-3.4290100">
        <ele>1009.7</ele>
        <time>2020-04-02T18:48:05Z</time>
      </trkpt>
      <trkpt lat="42.3774150" lon="-3.4294000">
        <ele>1008.7</ele>
        <time>2020-04-02T18:48:07Z</time>
      </trkpt>
      <trkpt lat="42.3773810" lon="-3.4296030">
        <ele>1008.1</ele>
        <time>2020-04-02T18:48:09Z</time>
      </trkpt>
      <trkpt lat="42.3773080" lon="-3.4299420">
        <ele>1007.0</ele>
        <time>2020-04-02T18:48:11Z</time>
      </trkpt>
      <trkpt lat="42.3772410" lon="-3.4301350">
        <ele>1006.5</ele>
        <time>2020-04-02T18:48:13Z</time>
      </trkpt>
      <trkpt lat="42.3771500" lon="-3.4305050">
        <ele>1005.5</ele>
        <time>2020-04-02T18:48:15Z</time>
      </trkpt>
      <trkpt lat="42.3771440" lon="-3.4307180">
        <ele>1005.0</ele>
        <time>2020-04-02T18:48:17Z</time>
      </trkpt>
      <trkpt lat="42.3771230" lon="-3.4310330">
        <ele>1004.3</ele>
        <time>2020-04-02T18:48:19Z</time>
      </trkpt>
      <trkpt lat="42.3770990" lon="-3.4312470">
        <ele>1003.7</ele>
        <time>2020-04-02T18:48:21Z</time>
      </trkpt>
      <trkpt lat="42.3770750" lon="-3.4314610">
        <ele>1003.2</ele>
        <time>2020-04-02T18:48:23Z</time>
      </trkpt>
      <trkpt lat="42.3770060" lon="-3.4319000">
        <ele>1002.2</ele>
        <time>2020-04-02T18:48:25Z</time>
      </trkpt>
      <trkpt lat="42.3769590" lon="-3.4321450">
        <ele>1001.7</ele>
        <time>2020-04-02T18:48:27Z</time>
      </trkpt>
      <trkpt lat="42.3769280" lon="-3.4323340">
        <ele>1001.4</ele>
        <time>2020-04-02T18:48:29Z</time>
      </trkpt>
      <trkpt lat="42.3768430" lon="-3.4326410">
        <ele>1001.0</ele>
        <time>2020-04-02T18:48:31Z</time>
      </trkpt>
      <trkpt lat="42.3767770" lon="-3.4328040">
        <ele>1000.7</ele>
        <time>2020-04-02T18:48:33Z</time>
      </trkpt>
      <trkpt lat="42.3767120" lon="-3.4329640">
        <ele>1000.5</ele>
        <time>2020-04-02T18:48:35Z</time>
      </trkpt>
      <trkpt lat="42.3766490" lon="-3.4331220">
        <ele>1000.5</ele>
        <time>2020-04-02T18:48:37Z</time>
      </trkpt>
      <trkpt lat="42.3764620" lon="-3.4334940">
        <ele>1000.9</ele>
        <time>2020-04-02T18:48:39Z</time>
      </trkpt>
      <trkpt lat="42.3763590" lon="-3.4335900">
        <ele>1001.3</ele>
        <time>2020-04-02T18:48:41Z</time>
      </trkpt>
      <trkpt lat="42.3762590" lon="-3.4336830">
        <ele>1001.9</ele>
        <time>2020-04-02T18:48:43Z</time>
      </trkpt>
      <trkpt lat="42.3760580" lon="-3.4338910">
        <ele>1003.6</ele>
        <time>2020-04-02T18:48:45Z</time>
      </trkpt>
      <trkpt lat="42.3759850" lon="-3.4340680">
        <ele>1004.6</ele>
        <time>2020-04-02T18:48:47Z</time>
      </trkpt>
      <trkpt lat="42.3759690" lon="-3.4342160">
        <ele>1004.9</ele>
        <time>2020-04-02T18:48:49Z</time>
      </trkpt>
      <trkpt lat="42.3759530" lon="-3.4343610">
        <ele>1005.1</ele>
        <time>2020-04-02T18:48:51Z</time>
      </trkpt>
      <trkpt lat="42.3759380" lon="-3.4345020">
        <ele>1005.0</ele>
        <time>2020-04-02T18:48:53Z</time>
      </trkpt>
      <trkpt lat="42.3759220" lon="-3.4346430">
        <ele>1004.8</ele>
        <time>2020-04-02T18:48:55Z</time>
      </trkpt>
      <trkpt lat="42.3759070" lon="-3.4347810">
        <ele>1004.7</ele>
        <time>2020-04-02T18:48:57Z</time>
      </trkpt>
      <trkpt lat="42.3758610" lon="-3.4352080">
        <ele>1004.7</ele>
        <time>2020-04-02T18:48:59Z</time>
      </trkpt>
      <trkpt lat="42.3758450" lon="-3.4353520">
        <ele>1004.7</ele>
        <time>2020-04-02T18:49:01Z</time>
      </trkpt>
      <trkpt lat="42.3758290" lon="-3.4355020">
        <ele>1004.7</ele>
        <time>2020-04-02T18:49:03Z</time>
      </trkpt>
      <trkpt lat="42.3758120" lon="-3.4356560">
        <ele>1004.8</ele>
        <time>2020-04-02T18:49:05Z</time>
      </trkpt>
      <trkpt lat="42.3757950" lon="-3.4358120">
        <ele>1004.8</ele>
        <time>2020-04-02T18:49:07Z</time>
      </trkpt>
      <trkpt lat="42.3757440" lon="-3.4362590">
        <ele>1004.9</ele>
        <time>2020-04-02T18:49:09Z</time>
      </trkpt>
      <trkpt lat="42.3757140" lon="-3.4364180">
        <ele>1004.9</ele>
        <time>2020-04-02T18:49:11Z</time>
      </trkpt>
      <trkpt lat="42.3756760" lon="-3.4366860">
        <ele>1004.9</ele>
        <time>2020-04-02T18:49:13Z</time>
      </trkpt>
      <trkpt lat="42.3757060" lon="-3.4368540">
        <ele>1004.4</ele>
        <time>2020-04-02T18:49:15Z</time>
      </trkpt>
      <trkpt lat="42.3757370" lon="-3.4370320">
        <ele>1003.5</ele>
        <time>2020-04-02T18:49:17Z</time>
      </trkpt>
      <trkpt lat="42.3758060" lon="-3.4374080">
        <ele>1002.5</ele>
        <time>2020-04-02T18:49:19Z</time>
      </trkpt>
      <trkpt lat="42.3758630" lon="-3.4375850">
        <ele>1002.0</ele>
        <time>2020-04-02T18:49:21Z</time>
      </trkpt>
      <trkpt lat="42.3759440" lon="-3.4378780">
        <ele>1001.2</ele>
        <time>2020-04-02T18:49:23Z</time>
      </trkpt>
      <trkpt lat="42.3759770" lon="-3.4380770">
        <ele>1000.6</ele>
        <time>2020-04-02T18:49:25Z</time>
      </trkpt>
      <trkpt lat="42.3760100" lon="-3.4382800">
        <ele>1000.0</ele>
        <time>2020-04-02T18:49:27Z</time>
      </trkpt>
      <trkpt lat="42.3760640" lon="-3.4386560">
        <ele>999.7</ele>
        <time>2020-04-02T18:49:29Z</time>
      </trkpt>
      <trkpt lat="42.3760890" lon="-3.4388510">
        <ele>999.5</ele>
        <time>2020-04-02T18:49:31Z</time>
      </trkpt>
      <trkpt lat="42.3761130" lon="-3.4390410">
        <ele>999.5</ele>
        <time>2020-04-02T18:49:33Z</time>
      </trkpt>
      <trkpt lat="42.3761350" lon="-3.4392240">
        <ele>999.3</ele>
        <time>2020-04-02T18:49:35Z</time>
      </trkpt>
      <trkpt lat="42.3761950" lon="-3.4396970">
        <ele>998.9</ele>
        <time>2020-04-02T18:49:37Z</time>
      </trkpt>
      <trkpt lat="42.3762170" lon="-3.4398750">
        <ele>999.0</ele>
        <time>2020-04-02T18:49:39Z</time>
      </trkpt>
      <trkpt lat="42.3762390" lon="-3.4400510">
        <ele>999.4</ele>
        <time>2020-04-02T18:49:41Z</time>
      </trkpt>
      <trkpt lat="42.3762610" lon="-3.4402240">
        <ele>999.7</ele>
        <time>2020-04-02T18:49:43Z</time>
      </trkpt>
      <trkpt lat="42.3762820" lon="-3.4403960">
        <ele>999.8</ele>
        <time>2020-04-02T18:49:45Z</time>
      </trkpt>
      <trkpt lat="42.3763200" lon="-3.4408610">
        <ele>999.6</ele>
        <time>2020-04-02T18:49:47Z</time>
      </trkpt>
      <trkpt lat="42.3762790" lon="-3.4410860">
        <ele>999.6</ele>
        <time>2020-04-02T18:49:49Z</time>
      </trkpt>
      <trkpt lat="42.3761580" lon="-3.4412680">
        <ele>1000.0</ele>
        <time>2020-04-02T18:49:51Z</time>
      </trkpt>
      <trkpt lat="42.3760220" lon="-3.4413230">
        <ele>1000.5</ele>
        <time>2020-04-02T18:49:53Z</time>
      </trkpt>
      <trkpt lat="42.3758870" lon="-3.4413200">
        <ele>1001.6</ele>
        <time>2020-04-02T18:49:55Z</time>
      </trkpt>
      <trkpt lat="42.3757870" lon="-3.4413090">
        <ele>1002.7</ele>
        <time>2020-04-02T18:49:57Z</time>
      </trkpt>
      <trkpt lat="42.3756890" lon="-3.4412990">
        <ele>1003.9</ele>
        <time>2020-04-02T18:49:59Z</time>
      </trkpt>
      <trkpt lat="42.3755920" lon="-3.4412880">
        <ele>1004.8</ele>
        <time>2020-04-02T18:50:01Z</time>
      </trkpt>
      <trkpt lat="42.3754960" lon="-3.4412780">
        <ele>1005.5</ele>
        <time>2020-04-02T18:50:03Z</time>
      </trkpt>
      <trkpt lat="42.3754030" lon="-3.4412680">
        <ele>1006.1</ele>
        <time>2020-04-02T18:50:05Z</time>
      </trkpt>
      <trkpt lat="42.3751010" lon="-3.4412350">
        <ele>1007.5</ele>
        <time>2020-04-02T18:50:07Z</time>
      </trkpt>
      <trkpt lat="42.3750010" lon="-3.4412250">
        <ele>1007.9</ele>
        <time>2020-04-02T18:50:09Z</time>
      </trkpt>
      <trkpt lat="42.3748980" lon="-3.4412140">
        <ele>1008.3</ele>
        <time>2020-04-02T18:50:11Z</time>
      </trkpt>
      <trkpt lat="42.3747930" lon="-3.4412020">
        <ele>1008.7</ele>
        <time>2020-04-02T18:50:13Z</time>
      </trkpt>
      <trkpt lat="42.3746870" lon="-3.4411910">
        <ele>1009.2</ele>
        <time>2020-04-02T18:50:15Z</time>
      </trkpt>
      <trkpt lat="42.3743720" lon="-3.4411580">
        <ele>1010.4</ele>
        <time>2020-04-02T18:50:17Z</time>
      </trkpt>
      <trkpt lat="42.3742640" lon="-3.4411500">
        <ele>1010.9</ele>
        <time>2020-04-02T18:50:19Z</time>
      </trkpt>
      <trkpt lat="42.3741540" lon="-3.4411420">
        <ele>1011.4</ele>
        <time>2020-04-02T18:50:21Z</time>
      </trkpt>
      <trkpt lat="42.3739380" lon="-3.4411370">
        <ele>1012.6</ele>
        <time>2020-04-02T18:50:23Z</time>
      </trkpt>
      <trkpt lat="42.3738250" lon="-3.4411520">
        <ele>1013.0</ele>
        <time>2020-04-02T18:50:25Z</time>
      </trkpt>
      <trkpt lat="42.3736330" lon="-3.4411820">
        <ele>1013.8</ele>
        <time>2020-04-02T18:50:27Z</time>
      </trkpt>
      <trkpt lat="42.3735170" lon="-3.4412070">
        <ele>1014.2</ele>
        <time>2020-04-02T18:50:29Z</time>
      </trkpt>
      <trkpt lat="42.3733990" lon="-3.4412330">
        <ele>1014.6</ele>
        <time>2020-04-02T18:50:31Z</time>
      </trkpt>
      <trkpt lat="42.3732820" lon="-3.4412580">
        <ele>1015.0</ele>
        <time>2020-04-02T18:50:33Z</time>
      </trkpt>
      <trkpt lat="42.3731620" lon="-3.4412840">
        <ele>1015.2</ele>
        <time>2020-04-02T18:50:35Z</time>
      </trkpt>
      <trkpt lat="42.3728360" lon="-3.4413540">
        <ele>1016.1</ele>
        <time>2020-04-02T18:50:37Z</time>
      </trkpt>
      <trkpt lat="42.3727190" lon="-3.4413790">
        <ele>1016.7</ele>
        <time>2020-04-02T18:50:39Z</time>
      </trkpt>
      <trkpt lat="42.3726050" lon="-3.4414030">
        <ele>1017.4</ele>
        <time>2020-04-02T18:50:41Z</time>
      </trkpt>
      <trkpt lat="42.3724900" lon="-3.4414280">
        <ele>1018.2</ele>
        <time>2020-04-02T18:50:43Z</time>
      </trkpt>
      <trkpt lat="42.3723780" lon="-3.4414520">
        <ele>1019.0</ele>
        <time>2020-04-02T18:50:45Z</time>
      </trkpt>
      <trkpt lat="42.3720640" lon="-3.4415330">
        <ele>1020.5</ele>
        <time>2020-04-02T18:50:47Z</time>
      </trkpt>
      <trkpt lat="42.3719230" lon="-3.4416060">
        <ele>1020.7</ele>
        <time>2020-04-02T18:50:49Z</time>
      </trkpt>
      <trkpt lat="42.3718190" lon="-3.4416650">
        <ele>1021.0</ele>
        <time>2020-04-02T18:50:51Z</time>
      </trkpt>
      <trkpt lat="42.3716530" lon="-3.4417690">
        <ele>1021.7</ele>
        <time>2020-04-02T18:50:53Z</time>
      </trkpt>
      <trkpt lat="42.3715540" lon="-3.4418410">
        <ele>1022.3</ele>
        <time>2020-04-02T18:50:55Z</time>
      </trkpt>
      <trkpt lat="42.3714520" lon="-3.4419150">
        <ele>1023.0</ele>
        <time>2020-04-02T18:50:57Z</time>
      </trkpt>
      <trkpt lat="42.3712300" lon="-3.4420770">
        <ele>1024.3</ele>
        <time>2020-04-02T18:50:59Z</time>
      </trkpt>
      <trkpt lat="42.3711280" lon="-3.4421510">
        <ele>1024.5</ele>
        <time>2020-04-02T18:51:01Z</time>
      </trkpt>
      <trkpt lat="42.3710270" lon="-3.4422250">
        <ele>1024.7</ele>
        <time>2020-04-02T18:51:03Z</time>
      </trkpt>
      <trkpt lat="42.3709250" lon="-3.4422990">
        <ele>1025.0</ele>
        <time>2020-04-02T18:51:05Z</time>
      </trkpt>
      <trkpt lat="42.3707060" lon="-3.4424780">
        <ele>1026.0</ele>
        <time>2020-04-02T18:51:07Z</time>
      </trkpt>
      <trkpt lat="42.3706050" lon="-3.4425730">
        <ele>1026.4</ele>
        <time>2020-04-02T18:51:09Z</time>
      </trkpt>
      <trkpt lat="42.3704280" lon="-3.4427660">
        <ele>1026.6</ele>
        <time>2020-04-02T18:51:11Z</time>
      </trkpt>
      <trkpt lat="42.3703430" lon="-3.4428920">
        <ele>1026.6</ele>
        <time>2020-04-02T18:51:13Z</time>
      </trkpt>
      <trkpt lat="42.3702590" lon="-3.4430170">
        <ele>1026.6</ele>
        <time>2020-04-02T18:51:15Z</time>
      </trkpt>
      <trkpt lat="42.3700730" lon="-3.4432930">
        <ele>1026.6</ele>
        <time>2020-04-02T18:51:17Z</time>
      </trkpt>
      <trkpt lat="42.3699960" lon="-3.4434220">
        <ele>1026.6</ele>
        <time>2020-04-02T18:51:19Z</time>
      </trkpt>
      <trkpt lat="42.3699200" lon="-3.4435500">
        <ele>1026.7</ele>
        <time>2020-04-02T18:51:21Z</time>
      </trkpt>
      <trkpt lat="42.3698450" lon="-3.4436780">
        <ele>1026.7</ele>
        <time>2020-04-02T18:51:23Z</time>
      </trkpt>
      <trkpt lat="42.3696800" lon="-3.4439560">
        <ele>1026.8</ele>
        <time>2020-04-02T18:51:25Z</time>
      </trkpt>
      <trkpt lat="42.3696060" lon="-3.4440810">
        <ele>1027.0</ele>
        <time>2020-04-02T18:51:27Z</time>
      </trkpt>
      <trkpt lat="42.3695340" lon="-3.4442030">
        <ele>1027.3</ele>
        <time>2020-04-02T18:51:29Z</time>
      </trkpt>
      <trkpt lat="42.3693710" lon="-3.4444730">
        <ele>1027.7</ele>
        <time>2020-04-02T18:51:31Z</time>
      </trkpt>
      <trkpt lat="42.3692940" lon="-3.4445890">
        <ele>1027.7</ele>
        <time>2020-04-02T18:51:33Z</time>
      </trkpt>
      <trkpt lat="42.3691560" lon="-3.4447840">
        <ele>1027.8</ele>
        <time>2020-04-02T18:51:35Z</time>
      </trkpt>
      <trkpt lat="42.3690660" lon="-3.4448740">
        <ele>1027.9</ele>
        <time>2020-04-02T18:51:37Z</time>
      </trkpt>
      <trkpt lat="42.3689150" lon="-3.4450110">
        <ele>1028.1</ele>
        <time>2020-04-02T18:51:39Z</time>
      </trkpt>
      <trkpt lat="42.3688130" lon="-3.4450880">
        <ele>1028.2</ele>
        <time>2020-04-02T18:51:41Z</time>
      </trkpt>
      <trkpt lat="42.3687050" lon="-3.4451690">
        <ele>1028.1</ele>
        <time>2020-04-02T18:51:43Z</time>
      </trkpt>
      <trkpt lat="42.3684850" lon="-3.4453350">
        <ele>1027.8</ele>
        <time>2020-04-02T18:51:45Z</time>
      </trkpt>
      <trkpt lat="42.3683730" lon="-3.4454200">
        <ele>1027.8</ele>
        <time>2020-04-02T18:51:47Z</time>
      </trkpt>
      <trkpt lat="42.3682580" lon="-3.4455060">
        <ele>1027.7</ele>
        <time>2020-04-02T18:51:49Z</time>
      </trkpt>
      <trkpt lat="42.3680330" lon="-3.4456900">
        <ele>1026.8</ele>
        <time>2020-04-02T18:51:51Z</time>
      </trkpt>
      <trkpt lat="42.3679140" lon="-3.4457980">
        <ele>1026.3</ele>
        <time>2020-04-02T18:51:53Z</time>
      </trkpt>
      <trkpt lat="42.3677180" lon="-3.4460240">
        <ele>1025.9</ele>
        <time>2020-04-02T18:51:55Z</time>
      </trkpt>
      <trkpt lat="42.3676370" lon="-3.4462670">
        <ele>1025.1</ele>
        <time>2020-04-02T18:51:57Z</time>
      </trkpt>
      <trkpt lat="42.3675770" lon="-3.4465750">
        <ele>1023.5</ele>
        <time>2020-04-02T18:51:59Z</time>
      </trkpt>
      <trkpt lat="42.3675430" lon="-3.4467930">
        <ele>1022.3</ele>
        <time>2020-04-02T18:52:01Z</time>
      </trkpt>
      <trkpt lat="42.3675090" lon="-3.4470150">
        <ele>1021.1</ele>
        <time>2020-04-02T18:52:03Z</time>
      </trkpt>
      <trkpt lat="42.3674750" lon="-3.4472400">
        <ele>1020.0</ele>
        <time>2020-04-02T18:52:05Z</time>
      </trkpt>
      <trkpt lat="42.3673820" lon="-3.4477360">
        <ele>1017.2</ele>
        <time>2020-04-02T18:52:07Z</time>
      </trkpt>
      <trkpt lat="42.3672590" lon="-3.4481030">
        <ele>1014.3</ele>
        <time>2020-04-02T18:52:09Z</time>
      </trkpt>
      <trkpt lat="42.3671670" lon="-3.4483220">
        <ele>1013.0</ele>
        <time>2020-04-02T18:52:11Z</time>
      </trkpt>
      <trkpt lat="42.3670750" lon="-3.4485430">
        <ele>1011.9</ele>
        <time>2020-04-02T18:52:13Z</time>
      </trkpt>
      <trkpt lat="42.3668870" lon="-3.4489390">
        <ele>1009.8</ele>
        <time>2020-04-02T18:52:15Z</time>
      </trkpt>
      <trkpt lat="42.3667670" lon="-3.4491350">
        <ele>1008.7</ele>
        <time>2020-04-02T18:52:17Z</time>
      </trkpt>
      <trkpt lat="42.3665620" lon="-3.4494450">
        <ele>1007.2</ele>
        <time>2020-04-02T18:52:19Z</time>
      </trkpt>
      <trkpt lat="42.3663810" lon="-3.4496650">
        <ele>1006.0</ele>
        <time>2020-04-02T18:52:21Z</time>
      </trkpt>
      <trkpt lat="42.3661740" lon="-3.4498790">
        <ele>1004.4</ele>
        <time>2020-04-02T18:52:23Z</time>
      </trkpt>
      <trkpt lat="42.3660250" lon="-3.4500190">
        <ele>1003.4</ele>
        <time>2020-04-02T18:52:25Z</time>
      </trkpt>
      <trkpt lat="42.3658770" lon="-3.4501580">
        <ele>1002.6</ele>
        <time>2020-04-02T18:52:27Z</time>
      </trkpt>
      <trkpt lat="42.3655910" lon="-3.4504250">
        <ele>1001.5</ele>
        <time>2020-04-02T18:52:29Z</time>
      </trkpt>
      <trkpt lat="42.3654560" lon="-3.4505510">
        <ele>1001.0</ele>
        <time>2020-04-02T18:52:31Z</time>
      </trkpt>
      <trkpt lat="42.3651850" lon="-3.4508040">
        <ele>1000.2</ele>
        <time>2020-04-02T18:52:33Z</time>
      </trkpt>
      <trkpt lat="42.3650540" lon="-3.4509150">
        <ele>999.8</ele>
        <time>2020-04-02T18:52:35Z</time>
      </trkpt>
      <trkpt lat="42.3648380" lon="-3.4510930">
        <ele>998.9</ele>
        <time>2020-04-02T18:52:37Z</time>
      </trkpt>
      <trkpt lat="42.3646980" lon="-3.4511920">
        <ele>998.2</ele>
        <time>2020-04-02T18:52:39Z</time>
      </trkpt>
      <trkpt lat="42.3645530" lon="-3.4512950">
        <ele>997.4</ele>
        <time>2020-04-02T18:52:41Z</time>
      </trkpt>
      <trkpt lat="42.3644030" lon="-3.4514020">
        <ele>996.6</ele>
        <time>2020-04-02T18:52:43Z</time>
      </trkpt>
      <trkpt lat="42.3640470" lon="-3.4516400">
        <ele>994.5</ele>
        <time>2020-04-02T18:52:45Z</time>
      </trkpt>
      <trkpt lat="42.3638820" lon="-3.4517200">
        <ele>993.4</ele>
        <time>2020-04-02T18:52:47Z</time>
      </trkpt>
      <trkpt lat="42.3637160" lon="-3.4518000">
        <ele>992.4</ele>
        <time>2020-04-02T18:52:49Z</time>
      </trkpt>
      <trkpt lat="42.3633930" lon="-3.4519460">
        <ele>990.0</ele>
        <time>2020-04-02T18:52:51Z</time>
      </trkpt>
      <trkpt lat="42.3632180" lon="-3.4520170">
        <ele>988.6</ele>
        <time>2020-04-02T18:52:53Z</time>
      </trkpt>
      <trkpt lat="42.3628730" lon="-3.4521580">
        <ele>985.9</ele>
        <time>2020-04-02T18:52:55Z</time>
      </trkpt>
      <trkpt lat="42.3626930" lon="-3.4522310">
        <ele>984.5</ele>
        <time>2020-04-02T18:52:57Z</time>
      </trkpt>
      <trkpt lat="42.3625130" lon="-3.4523050">
        <ele>983.3</ele>
        <time>2020-04-02T18:52:59Z</time>
      </trkpt>
      <trkpt lat="42.3621640" lon="-3.4524530">
        <ele>981.3</ele>
        <time>2020-04-02T18:53:01Z</time>
      </trkpt>
      <trkpt lat="42.3620010" lon="-3.4525340">
        <ele>981.3</ele>
        <time>2020-04-02T18:53:03Z</time>
      </trkpt>
      <trkpt lat="42.3618520" lon="-3.4526090">
        <ele>981.3</ele>
        <time>2020-04-02T18:53:05Z</time>
      </trkpt>
      <trkpt lat="42.3615910" lon="-3.4527930">
        <ele>981.3</ele>
        <time>2020-04-02T18:53:07Z</time>
      </trkpt>
      <trkpt lat="42.3614170" lon="-3.4529850">
        <ele>981.3</ele>
        <time>2020-04-02T18:53:09Z</time>
      </trkpt>
      <trkpt lat="42.3613380" lon="-3.4531330">
        <ele>981.3</ele>
        <time>2020-04-02T18:53:11Z</time>
      </trkpt>
      <trkpt lat="42.3612620" lon="-3.4532770">
        <ele>981.3</ele>
        <time>2020-04-02T18:53:13Z</time>
      </trkpt>
      <trkpt lat="42.3611880" lon="-3.4534170">
        <ele>981.3</ele>
        <time>2020-04-02T18:53:15Z</time>
      </trkpt>
      <trkpt lat="42.3611160" lon="-3.4535530">
        <ele>981.4</ele>
        <time>2020-04-02T18:53:17Z</time>
      </trkpt>
      <trkpt lat="42.3609110" lon="-3.4539400">
        <ele>981.7</ele>
        <time>2020-04-02T18:53:19Z</time>
      </trkpt>
      <trkpt lat="42.3608400" lon="-3.4540730">
        <ele>981.9</ele>
        <time>2020-04-02T18:53:21Z</time>
      </trkpt>
      <trkpt lat="42.3607710" lon="-3.4542050">
        <ele>982.1</ele>
        <time>2020-04-02T18:53:23Z</time>
      </trkpt>
      <trkpt lat="42.3607010" lon="-3.4543360">
        <ele>982.3</ele>
        <time>2020-04-02T18:53:25Z</time>
      </trkpt>
      <trkpt lat="42.3606320" lon="-3.4544660">
        <ele>982.5</ele>
        <time>2020-04-02T18:53:27Z</time>
      </trkpt>
      <trkpt lat="42.3605640" lon="-3.4545960">
        <ele>982.6</ele>
        <time>2020-04-02T18:53:29Z</time>
      </trkpt>
      <trkpt lat="42.3603630" lon="-3.4549750">
        <ele>982.9</ele>
        <time>2020-04-02T18:53:31Z</time>
      </trkpt>
      <trkpt lat="42.3602970" lon="-3.4550990">
        <ele>982.9</ele>
        <time>2020-04-02T18:53:33Z</time>
      </trkpt>
      <trkpt lat="42.3602330" lon="-3.4552190">
        <ele>982.9</ele>
        <time>2020-04-02T18:53:35Z</time>
      </trkpt>
      <trkpt lat="42.3601710" lon="-3.4553360">
        <ele>983.0</ele>
        <time>2020-04-02T18:53:37Z</time>
      </trkpt>
      <trkpt lat="42.3601090" lon="-3.4554530">
        <ele>983.3</ele>
        <time>2020-04-02T18:53:39Z</time>
      </trkpt>
      <trkpt lat="42.3600490" lon="-3.4555670">
        <ele>983.6</ele>
        <time>2020-04-02T18:53:41Z</time>
      </trkpt>
      <trkpt lat="42.3598550" lon="-3.4559330">
        <ele>984.8</ele>
        <time>2020-04-02T18:53:43Z</time>
      </trkpt>
      <trkpt lat="42.3597960" lon="-3.4560450">
        <ele>985.1</ele>
        <time>2020-04-02T18:53:45Z</time>
      </trkpt>
      <trkpt lat="42.3597370" lon="-3.4561560">
        <ele>985.4</ele>
        <time>2020-04-02T18:53:47Z</time>
      </trkpt>
      <trkpt lat="42.3596790" lon="-3.4562660">
        <ele>985.7</ele>
        <time>2020-04-02T18:53:49Z</time>
      </trkpt>
      <trkpt lat="42.3596200" lon="-3.4563760">
        <ele>986.0</ele>
        <time>2020-04-02T18:53:51Z</time>
      </trkpt>
      <trkpt lat="42.3595620" lon="-3.4564850">
        <ele>986.2</ele>
        <time>2020-04-02T18:53:53Z</time>
      </trkpt>
      <trkpt lat="42.3593690" lon="-3.4568460">
        <ele>986.9</ele>
        <time>2020-04-02T18:53:55Z</time>
      </trkpt>
      <trkpt lat="42.3592960" lon="-3.4569520">
        <ele>987.1</ele>
        <time>2020-04-02T18:53:57Z</time>
      </trkpt>
      <trkpt lat="42.3592180" lon="-3.4570660">
        <ele>987.2</ele>
        <time>2020-04-02T18:53:59Z</time>
      </trkpt>
      <trkpt lat="42.3590480" lon="-3.4573130">
        <ele>987.3</ele>
        <time>2020-04-02T18:54:01Z</time>
      </trkpt>
      <trkpt lat="42.3589520" lon="-3.4574290">
        <ele>987.2</ele>
        <time>2020-04-02T18:54:03Z</time>
      </trkpt>
      <trkpt lat="42.3588520" lon="-3.4575500">
        <ele>987.1</ele>
        <time>2020-04-02T18:54:05Z</time>
      </trkpt>
      <trkpt lat="42.3587500" lon="-3.4576740">
        <ele>986.7</ele>
        <time>2020-04-02T18:54:07Z</time>
      </trkpt>
      <trkpt lat="42.3586440" lon="-3.4578020">
        <ele>986.1</ele>
        <time>2020-04-02T18:54:09Z</time>
      </trkpt>
      <trkpt lat="42.3583680" lon="-3.4581430">
        <ele>983.6</ele>
        <time>2020-04-02T18:54:11Z</time>
      </trkpt>
      <trkpt lat="42.3582570" lon="-3.4583320">
        <ele>982.6</ele>
        <time>2020-04-02T18:54:13Z</time>
      </trkpt>
      <trkpt lat="42.3581870" lon="-3.4584860">
        <ele>982.0</ele>
        <time>2020-04-02T18:54:15Z</time>
      </trkpt>
      <trkpt lat="42.3581190" lon="-3.4586360">
        <ele>981.7</ele>
        <time>2020-04-02T18:54:17Z</time>
      </trkpt>
      <trkpt lat="42.3580530" lon="-3.4587810">
        <ele>982.4</ele>
        <time>2020-04-02T18:54:19Z</time>
      </trkpt>
      <trkpt lat="42.3578830" lon="-3.4591500">
        <ele>983.8</ele>
        <time>2020-04-02T18:54:21Z</time>
      </trkpt>
      <trkpt lat="42.3578030" lon="-3.4592720">
        <ele>984.1</ele>
        <time>2020-04-02T18:54:23Z</time>
      </trkpt>
      <trkpt lat="42.3577250" lon="-3.4593930">
        <ele>984.3</ele>
        <time>2020-04-02T18:54:25Z</time>
      </trkpt>
      <trkpt lat="42.3576460" lon="-3.4595130">
        <ele>984.3</ele>
        <time>2020-04-02T18:54:27Z</time>
      </trkpt>
      <trkpt lat="42.3575680" lon="-3.4596330">
        <ele>984.0</ele>
        <time>2020-04-02T18:54:29Z</time>
      </trkpt>
      <trkpt lat="42.3573660" lon="-3.4599550">
        <ele>984.4</ele>
        <time>2020-04-02T18:54:31Z</time>
      </trkpt>
      <trkpt lat="42.3572640" lon="-3.4601520">
        <ele>984.5</ele>
        <time>2020-04-02T18:54:33Z</time>
      </trkpt>
      <trkpt lat="42.3572010" lon="-3.4602880">
        <ele>984.7</ele>
        <time>2020-04-02T18:54:35Z</time>
      </trkpt>
      <trkpt lat="42.3571090" lon="-3.4605160">
        <ele>984.8</ele>
        <time>2020-04-02T18:54:37Z</time>
      </trkpt>
      <trkpt lat="42.3570770" lon="-3.4606760">
        <ele>984.6</ele>
        <time>2020-04-02T18:54:39Z</time>
      </trkpt>
      <trkpt lat="42.3570460" lon="-3.4608350">
        <ele>984.6</ele>
        <time>2020-04-02T18:54:41Z</time>
      </trkpt>
      <trkpt lat="42.3570130" lon="-3.4609990">
        <ele>984.6</ele>
        <time>2020-04-02T18:54:43Z</time>
      </trkpt>
      <trkpt lat="42.3569290" lon="-3.4613980">
        <ele>984.2</ele>
        <time>2020-04-02T18:54:45Z</time>
      </trkpt>
      <trkpt lat="42.3568280" lon="-3.4615550">
        <ele>983.6</ele>
        <time>2020-04-02T18:54:47Z</time>
      </trkpt>
      <trkpt lat="42.3566740" lon="-3.4616340">
        <ele>982.9</ele>
        <time>2020-04-02T18:54:49Z</time>
      </trkpt>
      <trkpt lat="42.3565370" lon="-3.4616920">
        <ele>982.3</ele>
        <time>2020-04-02T18:54:51Z</time>
      </trkpt>
      <trkpt lat="42.3562550" lon="-3.4618160">
        <ele>981.4</ele>
        <time>2020-04-02T18:54:53Z</time>
      </trkpt>
      <trkpt lat="42.3560980" lon="-3.4619880">
        <ele>980.5</ele>
        <time>2020-04-02T18:54:55Z</time>
      </trkpt>
      <trkpt lat="42.3559430" lon="-3.4620980">
        <ele>980.7</ele>
        <time>2020-04-02T18:54:57Z</time>
      </trkpt>
      <trkpt lat="42.3558190" lon="-3.4621920">
        <ele>980.9</ele>
        <time>2020-04-02T18:54:59Z</time>
      </trkpt>
      <trkpt lat="42.3556140" lon="-3.4623520">
        <ele>981.0</ele>
        <time>2020-04-02T18:55:01Z</time>
      </trkpt>
      <trkpt lat="42.3555000" lon="-3.4624450">
        <ele>981.0</ele>
        <time>2020-04-02T18:55:03Z</time>
      </trkpt>
      <trkpt lat="42.3553900" lon="-3.4625360">
        <ele>981.0</ele>
        <time>2020-04-02T18:55:05Z</time>
      </trkpt>
      <trkpt lat="42.3552810" lon="-3.4626250">
        <ele>981.0</ele>
        <time>2020-04-02T18:55:07Z</time>
      </trkpt>
      <trkpt lat="42.3551760" lon="-3.4627120">
        <ele>981.0</ele>
        <time>2020-04-02T18:55:09Z</time>
      </trkpt>
      <trkpt lat="42.3548730" lon="-3.4629110">
        <ele>981.6</ele>
        <time>2020-04-02T18:55:11Z</time>
      </trkpt>
      <trkpt lat="42.3546980" lon="-3.4629630">
        <ele>981.9</ele>
        <time>2020-04-02T18:55:13Z</time>
      </trkpt>
      <trkpt lat="42.3545910" lon="-3.4629770">
        <ele>982.1</ele>
        <time>2020-04-02T18:55:15Z</time>
      </trkpt>
      <trkpt lat="42.3544890" lon="-3.4629910">
        <ele>982.5</ele>
        <time>2020-04-02T18:55:17Z</time>
      </trkpt>
      <trkpt lat="42.3543910" lon="-3.4630050">
        <ele>982.9</ele>
        <time>2020-04-02T18:55:19Z</time>
      </trkpt>
      <trkpt lat="42.3542950" lon="-3.4630170">
        <ele>983.3</ele>
        <time>2020-04-02T18:55:21Z</time>
      </trkpt>
      <trkpt lat="42.3542020" lon="-3.4630300">
        <ele>983.8</ele>
        <time>2020-04-02T18:55:23Z</time>
      </trkpt>
      <trkpt lat="42.3539020" lon="-3.4630710">
        <ele>984.8</ele>
        <time>2020-04-02T18:55:25Z</time>
      </trkpt>
      <trkpt lat="42.3538110" lon="-3.4630830">
        <ele>985.2</ele>
        <time>2020-04-02T18:55:27Z</time>
      </trkpt>
      <trkpt lat="42.3537200" lon="-3.4630950">
        <ele>985.6</ele>
        <time>2020-04-02T18:55:29Z</time>
      </trkpt>
      <trkpt lat="42.3536270" lon="-3.4631080">
        <ele>985.9</ele>
        <time>2020-04-02T18:55:31Z</time>
      </trkpt>
      <trkpt lat="42.3535340" lon="-3.4631210">
        <ele>986.2</ele>
        <time>2020-04-02T18:55:33Z</time>
      </trkpt>
      <trkpt lat="42.3534400" lon="-3.4631330">
        <ele>986.5</ele>
        <time>2020-04-02T18:55:35Z</time>
      </trkpt>
      <trkpt lat="42.3533480" lon="-3.4631460">
        <ele>986.8</ele>
        <time>2020-04-02T18:55:37Z</time>
      </trkpt>
      <trkpt lat="42.3530460" lon="-3.4631870">
        <ele>987.7</ele>
        <time>2020-04-02T18:55:39Z</time>
      </trkpt>
      <trkpt lat="42.3529530" lon="-3.4631990">
        <ele>988.0</ele>
        <time>2020-04-02T18:55:41Z</time>
      </trkpt>
      <trkpt lat="42.3528590" lon="-3.4632120">
        <ele>988.3</ele>
        <time>2020-04-02T18:55:43Z</time>
      </trkpt>
      <trkpt lat="42.3527660" lon="-3.4632240">
        <ele>988.5</ele>
        <time>2020-04-02T18:55:45Z</time>
      </trkpt>
      <trkpt lat="42.3526730" lon="-3.4632370">
        <ele>988.8</ele>
        <time>2020-04-02T18:55:47Z</time>
      </trkpt>
      <trkpt lat="42.3525800" lon="-3.4632500">
        <ele>989.1</ele>
        <time>2020-04-02T18:55:49Z</time>
      </trkpt>
      <trkpt lat="42.3522800" lon="-3.4632900">
        <ele>990.0</ele>
        <time>2020-04-02T18:55:51Z</time>
      </trkpt>
      <trkpt lat="42.3521910" lon="-3.4633020">
        <ele>990.2</ele>
        <time>2020-04-02T18:55:53Z</time>
      </trkpt>
      <trkpt lat="42.3521060" lon="-3.4633140">
        <ele>990.4</ele>
        <time>2020-04-02T18:55:55Z</time>
      </trkpt>
      <trkpt lat="42.3520250" lon="-3.4633250">
        <ele>990.7</ele>
        <time>2020-04-02T18:55:57Z</time>
      </trkpt>
      <trkpt lat="42.3519470" lon="-3.4633350">
        <ele>990.9</ele>
        <time>2020-04-02T18:55:59Z</time>
      </trkpt>
      <trkpt lat="42.3518700" lon="-3.4633460">
        <ele>991.1</ele>
        <time>2020-04-02T18:56:01Z</time>
      </trkpt>
      <trkpt lat="42.3517950" lon="-3.4633560">
        <ele>991.3</ele>
        <time>2020-04-02T18:56:03Z</time>
      </trkpt>
      <trkpt lat="42.3515120" lon="-3.4633940">
        <ele>992.5</ele>
        <time>2020-04-02T18:56:05Z</time>
      </trkpt>
      <trkpt lat="42.3514380" lon="-3.4634040">
        <ele>992.8</ele>
        <time>2020-04-02T18:56:07Z</time>
      </trkpt>
      <trkpt lat="42.3513660" lon="-3.4634140">
        <ele>993.2</ele>
        <time>2020-04-02T18:56:09Z</time>
      </trkpt>
      <trkpt lat="42.3512970" lon="-3.4634230">
        <ele>993.6</ele>
        <time>2020-04-02T18:56:11Z</time>
      </trkpt>
      <trkpt lat="42.3512300" lon="-3.4634320">
        <ele>994.0</ele>
        <time>2020-04-02T18:56:13Z</time>
      </trkpt>
      <trkpt lat="42.3511610" lon="-3.4634420">
        <ele>994.5</ele>
        <time>2020-04-02T18:56:15Z</time>
      </trkpt>
      <trkpt lat="42.3510900" lon="-3.4634510">
        <ele>994.9</ele>
        <time>2020-04-02T18:56:17Z</time>
      </trkpt>
      <trkpt lat="42.3510190" lon="-3.4634610">
        <ele>995.3</ele>
        <time>2020-04-02T18:56:19Z</time>
      </trkpt>
      <trkpt lat="42.3509480" lon="-3.4634700">
        <ele>995.8</ele>
        <time>2020-04-02T18:56:21Z</time>
      </trkpt>
      <trkpt lat="42.3506660" lon="-3.4635200">
        <ele>997.9</ele>
        <time>2020-04-02T18:56:23Z</time>
      </trkpt>
      <trkpt lat="42.3505830" lon="-3.4635470">
        <ele>998.6</ele>
        <time>2020-04-02T18:56:25Z</time>
      </trkpt>
      <trkpt lat="42.3504340" lon="-3.4635700">
        <ele>999.8</ele>
        <time>2020-04-02T18:56:27Z</time>
      </trkpt>
      <trkpt lat="42.3503310" lon="-3.4636360">
        <ele>1000.5</ele>
        <time>2020-04-02T18:56:29Z</time>
      </trkpt>
      <trkpt lat="42.3503130" lon="-3.4637730">
        <ele>1000.5</ele>
        <time>2020-04-02T18:56:31Z</time>
      </trkpt>
      <trkpt lat="42.3502940" lon="-3.4639140">
        <ele>1000.5</ele>
        <time>2020-04-02T18:56:33Z</time>
      </trkpt>
      <trkpt lat="42.3502750" lon="-3.4640540">
        <ele>1000.6</ele>
        <time>2020-04-02T18:56:35Z</time>
      </trkpt>
      <trkpt lat="42.3502560" lon="-3.4642000">
        <ele>1000.6</ele>
        <time>2020-04-02T18:56:37Z</time>
      </trkpt>
      <trkpt lat="42.3502370" lon="-3.4643460">
        <ele>1000.5</ele>
        <time>2020-04-02T18:56:39Z</time>
      </trkpt>
      <trkpt lat="42.3501760" lon="-3.4648000">
        <ele>1000.3</ele>
        <time>2020-04-02T18:56:41Z</time>
      </trkpt>
      <trkpt lat="42.3501560" lon="-3.4649490">
        <ele>1000.1</ele>
        <time>2020-04-02T18:56:43Z</time>
      </trkpt>
      <trkpt lat="42.3501360" lon="-3.4650990">
        <ele>1000.1</ele>
        <time>2020-04-02T18:56:45Z</time>
      </trkpt>
      <trkpt lat="42.3501160" lon="-3.4652490">
        <ele>1000.3</ele>
        <time>2020-04-02T18:56:47Z</time>
      </trkpt>
      <trkpt lat="42.3500960" lon="-3.4654030">
        <ele>1000.5</ele>
        <time>2020-04-02T18:56:49Z</time>
      </trkpt>
      <trkpt lat="42.3500750" lon="-3.4655580">
        <ele>1000.6</ele>
        <time>2020-04-02T18:56:51Z</time>
      </trkpt>
      <trkpt lat="42.3500140" lon="-3.4660210">
        <ele>1000.7</ele>
        <time>2020-04-02T18:56:53Z</time>
      </trkpt>
      <trkpt lat="42.3499930" lon="-3.4661740">
        <ele>1000.9</ele>
        <time>2020-04-02T18:56:55Z</time>
      </trkpt>
      <trkpt lat="42.3499730" lon="-3.4663290">
        <ele>1001.3</ele>
        <time>2020-04-02T18:56:57Z</time>
      </trkpt>
      <trkpt lat="42.3499520" lon="-3.4664830">
        <ele>1001.5</ele>
        <time>2020-04-02T18:56:59Z</time>
      </trkpt>
      <trkpt lat="42.3499320" lon="-3.4666370">
        <ele>1001.6</ele>
        <time>2020-04-02T18:57:01Z</time>
      </trkpt>
      <trkpt lat="42.3499110" lon="-3.4667930">
        <ele>1001.6</ele>
        <time>2020-04-02T18:57:03Z</time>
      </trkpt>
      <trkpt lat="42.3498480" lon="-3.4672620">
        <ele>1001.2</ele>
        <time>2020-04-02T18:57:05Z</time>
      </trkpt>
      <trkpt lat="42.3498260" lon="-3.4674300">
        <ele>1000.9</ele>
        <time>2020-04-02T18:57:07Z</time>
      </trkpt>
      <trkpt lat="42.3498030" lon="-3.4676050">
        <ele>1000.7</ele>
        <time>2020-04-02T18:57:09Z</time>
      </trkpt>
      <trkpt lat="42.3497780" lon="-3.4677880">
        <ele>1000.4</ele>
        <time>2020-04-02T18:57:11Z</time>
      </trkpt>
      <trkpt lat="42.3497530" lon="-3.4679750">
        <ele>999.9</ele>
        <time>2020-04-02T18:57:13Z</time>
      </trkpt>
      <trkpt lat="42.3496870" lon="-3.4684750">
        <ele>998.8</ele>
        <time>2020-04-02T18:57:15Z</time>
      </trkpt>
      <trkpt lat="42.3496610" lon="-3.4686700">
        <ele>998.7</ele>
        <time>2020-04-02T18:57:17Z</time>
      </trkpt>
      <trkpt lat="42.3496350" lon="-3.4688680">
        <ele>998.7</ele>
        <time>2020-04-02T18:57:19Z</time>
      </trkpt>
      <trkpt lat="42.3496080" lon="-3.4690680">
        <ele>998.4</ele>
        <time>2020-04-02T18:57:21Z</time>
      </trkpt>
      <trkpt lat="42.3495400" lon="-3.4695770">
        <ele>996.2</ele>
        <time>2020-04-02T18:57:23Z</time>
      </trkpt>
      <trkpt lat="42.3495130" lon="-3.4697780">
        <ele>995.3</ele>
        <time>2020-04-02T18:57:25Z</time>
      </trkpt>
      <trkpt lat="42.3494870" lon="-3.4699780">
        <ele>995.0</ele>
        <time>2020-04-02T18:57:27Z</time>
      </trkpt>
      <trkpt lat="42.3494600" lon="-3.4701780">
        <ele>994.8</ele>
        <time>2020-04-02T18:57:29Z</time>
      </trkpt>
      <trkpt lat="42.3494340" lon="-3.4703750">
        <ele>994.7</ele>
        <time>2020-04-02T18:57:31Z</time>
      </trkpt>
      <trkpt lat="42.3493660" lon="-3.4708840">
        <ele>993.1</ele>
        <time>2020-04-02T18:57:33Z</time>
      </trkpt>
      <trkpt lat="42.3493400" lon="-3.4710820">
        <ele>992.5</ele>
        <time>2020-04-02T18:57:35Z</time>
      </trkpt>
      <trkpt lat="42.3493140" lon="-3.4712770">
        <ele>992.0</ele>
        <time>2020-04-02T18:57:37Z</time>
      </trkpt>
      <trkpt lat="42.3492870" lon="-3.4714740">
        <ele>991.8</ele>
        <time>2020-04-02T18:57:39Z</time>
      </trkpt>
      <trkpt lat="42.3492200" lon="-3.4719800">
        <ele>991.7</ele>
        <time>2020-04-02T18:57:41Z</time>
      </trkpt>
      <trkpt lat="42.3491950" lon="-3.4721690">
        <ele>991.7</ele>
        <time>2020-04-02T18:57:43Z</time>
      </trkpt>
      <trkpt lat="42.3491700" lon="-3.4723530">
        <ele>991.6</ele>
        <time>2020-04-02T18:57:45Z</time>
      </trkpt>
      <trkpt lat="42.3491460" lon="-3.4725350">
        <ele>991.6</ele>
        <time>2020-04-02T18:57:47Z</time>
      </trkpt>
      <trkpt lat="42.3491230" lon="-3.4727110">
        <ele>991.6</ele>
        <time>2020-04-02T18:57:49Z</time>
      </trkpt>
      <trkpt lat="42.3490580" lon="-3.4731950">
        <ele>991.6</ele>
        <time>2020-04-02T18:57:51Z</time>
      </trkpt>
      <trkpt lat="42.3490350" lon="-3.4733660">
        <ele>991.6</ele>
        <time>2020-04-02T18:57:53Z</time>
      </trkpt>
      <trkpt lat="42.3490130" lon="-3.4735350">
        <ele>991.6</ele>
        <time>2020-04-02T18:57:55Z</time>
      </trkpt>
      <trkpt lat="42.3489910" lon="-3.4737000">
        <ele>991.6</ele>
        <time>2020-04-02T18:57:57Z</time>
      </trkpt>
      <trkpt lat="42.3489690" lon="-3.4738670">
        <ele>991.6</ele>
        <time>2020-04-02T18:57:59Z</time>
      </trkpt>
      <trkpt lat="42.3489060" lon="-3.4743390">
        <ele>992.1</ele>
        <time>2020-04-02T18:58:01Z</time>
      </trkpt>
      <trkpt lat="42.3488850" lon="-3.4744940">
        <ele>992.3</ele>
        <time>2020-04-02T18:58:03Z</time>
      </trkpt>
      <trkpt lat="42.3488650" lon="-3.4746450">
        <ele>992.6</ele>
        <time>2020-04-02T18:58:05Z</time>
      </trkpt>
      <trkpt lat="42.3488460" lon="-3.4747900">
        <ele>993.1</ele>
        <time>2020-04-02T18:58:07Z</time>
      </trkpt>
      <trkpt lat="42.3488270" lon="-3.4749320">
        <ele>993.5</ele>
        <time>2020-04-02T18:58:09Z</time>
      </trkpt>
      <trkpt lat="42.3488080" lon="-3.4750690">
        <ele>994.0</ele>
        <time>2020-04-02T18:58:11Z</time>
      </trkpt>
      <trkpt lat="42.3487490" lon="-3.4755160">
        <ele>995.1</ele>
        <time>2020-04-02T18:58:13Z</time>
      </trkpt>
      <trkpt lat="42.3487310" lon="-3.4756520">
        <ele>995.5</ele>
        <time>2020-04-02T18:58:15Z</time>
      </trkpt>
      <trkpt lat="42.3487130" lon="-3.4757850">
        <ele>995.8</ele>
        <time>2020-04-02T18:58:17Z</time>
      </trkpt>
      <trkpt lat="42.3486950" lon="-3.4759170">
        <ele>996.2</ele>
        <time>2020-04-02T18:58:19Z</time>
      </trkpt>
      <trkpt lat="42.3486780" lon="-3.4760500">
        <ele>996.5</ele>
        <time>2020-04-02T18:58:21Z</time>
      </trkpt>
      <trkpt lat="42.3486600" lon="-3.4761790">
        <ele>996.6</ele>
        <time>2020-04-02T18:58:23Z</time>
      </trkpt>
      <trkpt lat="42.3486020" lon="-3.4766190">
        <ele>997.0</ele>
        <time>2020-04-02T18:58:25Z</time>
      </trkpt>
      <trkpt lat="42.3485850" lon="-3.4767480">
        <ele>997.1</ele>
        <time>2020-04-02T18:58:27Z</time>
      </trkpt>
      <trkpt lat="42.3485670" lon="-3.4768770">
        <ele>997.3</ele>
        <time>2020-04-02T18:58:29Z</time>
      </trkpt>
      <trkpt lat="42.3485500" lon="-3.4770060">
        <ele>997.5</ele>
        <time>2020-04-02T18:58:31Z</time>
      </trkpt>
      <trkpt lat="42.3485330" lon="-3.4771330">
        <ele>997.7</ele>
        <time>2020-04-02T18:58:33Z</time>
      </trkpt>
      <trkpt lat="42.3485170" lon="-3.4772570">
        <ele>997.8</ele>
        <time>2020-04-02T18:58:35Z</time>
      </trkpt>
      <trkpt lat="42.3485010" lon="-3.4773780">
        <ele>998.0</ele>
        <time>2020-04-02T18:58:37Z</time>
      </trkpt>
      <trkpt lat="42.3484430" lon="-3.4778090">
        <ele>998.8</ele>
        <time>2020-04-02T18:58:39Z</time>
      </trkpt>
      <trkpt lat="42.3484260" lon="-3.4779360">
        <ele>999.0</ele>
        <time>2020-04-02T18:58:41Z</time>
      </trkpt>
      <trkpt lat="42.3484080" lon="-3.4780740">
        <ele>999.2</ele>
        <time>2020-04-02T18:58:43Z</time>
      </trkpt>
      <trkpt lat="42.3483890" lon="-3.4782180">
        <ele>999.3</ele>
        <time>2020-04-02T18:58:45Z</time>
      </trkpt>
      <trkpt lat="42.3483690" lon="-3.4783680">
        <ele>999.4</ele>
        <time>2020-04-02T18:58:47Z</time>
      </trkpt>
      <trkpt lat="42.3483470" lon="-3.4785280">
        <ele>999.5</ele>
        <time>2020-04-02T18:58:49Z</time>
      </trkpt>
      <trkpt lat="42.3482840" lon="-3.4790030">
        <ele>999.4</ele>
        <time>2020-04-02T18:58:51Z</time>
      </trkpt>
      <trkpt lat="42.3482620" lon="-3.4791710">
        <ele>999.3</ele>
        <time>2020-04-02T18:58:53Z</time>
      </trkpt>
      <trkpt lat="42.3482390" lon="-3.4793400">
        <ele>999.1</ele>
        <time>2020-04-02T18:58:55Z</time>
      </trkpt>
      <trkpt lat="42.3482160" lon="-3.4795110">
        <ele>998.9</ele>
        <time>2020-04-02T18:58:57Z</time>
      </trkpt>
      <trkpt lat="42.3481940" lon="-3.4796820">
        <ele>998.7</ele>
        <time>2020-04-02T18:58:59Z</time>
      </trkpt>
      <trkpt lat="42.3481710" lon="-3.4798540">
        <ele>998.5</ele>
        <time>2020-04-02T18:59:01Z</time>
      </trkpt>
      <trkpt lat="42.3481060" lon="-3.4803400">
        <ele>997.7</ele>
        <time>2020-04-02T18:59:03Z</time>
      </trkpt>
      <trkpt lat="42.3480810" lon="-3.4805270">
        <ele>997.2</ele>
        <time>2020-04-02T18:59:05Z</time>
      </trkpt>
      <trkpt lat="42.3480550" lon="-3.4807210">
        <ele>996.7</ele>
        <time>2020-04-02T18:59:07Z</time>
      </trkpt>
      <trkpt lat="42.3480290" lon="-3.4809200">
        <ele>996.2</ele>
        <time>2020-04-02T18:59:09Z</time>
      </trkpt>
      <trkpt lat="42.3479590" lon="-3.4814340">
        <ele>994.6</ele>
        <time>2020-04-02T18:59:11Z</time>
      </trkpt>
      <trkpt lat="42.3479290" lon="-3.4816420">
        <ele>994.0</ele>
        <time>2020-04-02T18:59:13Z</time>
      </trkpt>
      <trkpt lat="42.3478980" lon="-3.4818540">
        <ele>993.3</ele>
        <time>2020-04-02T18:59:15Z</time>
      </trkpt>
      <trkpt lat="42.3478410" lon="-3.4822410">
        <ele>992.2</ele>
        <time>2020-04-02T18:59:17Z</time>
      </trkpt>
      <trkpt lat="42.3478130" lon="-3.4824360">
        <ele>991.8</ele>
        <time>2020-04-02T18:59:19Z</time>
      </trkpt>
      <trkpt lat="42.3477560" lon="-3.4828000">
        <ele>991.2</ele>
        <time>2020-04-02T18:59:21Z</time>
      </trkpt>
      <trkpt lat="42.3477210" lon="-3.4829780">
        <ele>991.0</ele>
        <time>2020-04-02T18:59:23Z</time>
      </trkpt>
      <trkpt lat="42.3476860" lon="-3.4831540">
        <ele>990.9</ele>
        <time>2020-04-02T18:59:25Z</time>
      </trkpt>
      <trkpt lat="42.3476110" lon="-3.4835280">
        <ele>990.8</ele>
        <time>2020-04-02T18:59:27Z</time>
      </trkpt>
      <trkpt lat="42.3475670" lon="-3.4837000">
        <ele>990.8</ele>
        <time>2020-04-02T18:59:29Z</time>
      </trkpt>
      <trkpt lat="42.3474960" lon="-3.4839500">
        <ele>990.8</ele>
        <time>2020-04-02T18:59:31Z</time>
      </trkpt>
      <trkpt lat="42.3474450" lon="-3.4841110">
        <ele>990.8</ele>
        <time>2020-04-02T18:59:33Z</time>
      </trkpt>
      <trkpt lat="42.3473950" lon="-3.4842690">
        <ele>990.8</ele>
        <time>2020-04-02T18:59:35Z</time>
      </trkpt>
      <trkpt lat="42.3473460" lon="-3.4844240">
        <ele>990.9</ele>
        <time>2020-04-02T18:59:37Z</time>
      </trkpt>
      <trkpt lat="42.3472210" lon="-3.4848210">
        <ele>991.0</ele>
        <time>2020-04-02T18:59:39Z</time>
      </trkpt>
      <trkpt lat="42.3471730" lon="-3.4849740">
        <ele>991.1</ele>
        <time>2020-04-02T18:59:41Z</time>
      </trkpt>
      <trkpt lat="42.3471250" lon="-3.4851250">
        <ele>991.3</ele>
        <time>2020-04-02T18:59:43Z</time>
      </trkpt>
      <trkpt lat="42.3470790" lon="-3.4852730">
        <ele>991.6</ele>
        <time>2020-04-02T18:59:45Z</time>
      </trkpt>
      <trkpt lat="42.3470320" lon="-3.4854210">
        <ele>991.9</ele>
        <time>2020-04-02T18:59:47Z</time>
      </trkpt>
      <trkpt lat="42.3469080" lon="-3.4858150">
        <ele>991.7</ele>
        <time>2020-04-02T18:59:49Z</time>
      </trkpt>
      <trkpt lat="42.3468580" lon="-3.4859720">
        <ele>991.3</ele>
        <time>2020-04-02T18:59:51Z</time>
      </trkpt>
      <trkpt lat="42.3468070" lon="-3.4861350">
        <ele>991.3</ele>
        <time>2020-04-02T18:59:53Z</time>
      </trkpt>
      <trkpt lat="42.3467540" lon="-3.4863030">
        <ele>991.2</ele>
        <time>2020-04-02T18:59:55Z</time>
      </trkpt>
      <trkpt lat="42.3466240" lon="-3.4867130">
        <ele>990.8</ele>
        <time>2020-04-02T18:59:57Z</time>
      </trkpt>
      <trkpt lat="42.3465710" lon="-3.4868830">
        <ele>990.5</ele>
        <time>2020-04-02T18:59:59Z</time>
      </trkpt>
      <trkpt lat="42.3465160" lon="-3.4870570">
        <ele>990.1</ele>
        <time>2020-04-02T19:00:01Z</time>
      </trkpt>
      <trkpt lat="42.3464610" lon="-3.4872310">
        <ele>989.9</ele>
        <time>2020-04-02T19:00:03Z</time>
      </trkpt>
      <trkpt lat="42.3463270" lon="-3.4876470">
        <ele>989.1</ele>
        <time>2020-04-02T19:00:05Z</time>
      </trkpt>
      <trkpt lat="42.3462680" lon="-3.4878200">
        <ele>988.8</ele>
        <time>2020-04-02T19:00:07Z</time>
      </trkpt>
      <trkpt lat="42.3461570" lon="-3.4881470">
        <ele>988.1</ele>
        <time>2020-04-02T19:00:09Z</time>
      </trkpt>
      <trkpt lat="42.3460990" lon="-3.4883190">
        <ele>987.8</ele>
        <time>2020-04-02T19:00:11Z</time>
      </trkpt>
      <trkpt lat="42.3460410" lon="-3.4884910">
        <ele>987.5</ele>
        <time>2020-04-02T19:00:13Z</time>
      </trkpt>
      <trkpt lat="42.3459270" lon="-3.4888140">
        <ele>987.3</ele>
        <time>2020-04-02T19:00:15Z</time>
      </trkpt>
      <trkpt lat="42.3458630" lon="-3.4889830">
        <ele>987.3</ele>
        <time>2020-04-02T19:00:17Z</time>
      </trkpt>
      <trkpt lat="42.3458000" lon="-3.4891530">
        <ele>987.4</ele>
        <time>2020-04-02T19:00:19Z</time>
      </trkpt>
      <trkpt lat="42.3457360" lon="-3.4893210">
        <ele>987.5</ele>
        <time>2020-04-02T19:00:21Z</time>
      </trkpt>
      <trkpt lat="42.3455700" lon="-3.4897650">
        <ele>988.0</ele>
        <time>2020-04-02T19:00:23Z</time>
      </trkpt>
      <trkpt lat="42.3455060" lon="-3.4899340">
        <ele>988.0</ele>
        <time>2020-04-02T19:00:25Z</time>
      </trkpt>
      <trkpt lat="42.3454430" lon="-3.4901010">
        <ele>987.8</ele>
        <time>2020-04-02T19:00:27Z</time>
      </trkpt>
      <trkpt lat="42.3453790" lon="-3.4902700">
        <ele>987.4</ele>
        <time>2020-04-02T19:00:29Z</time>
      </trkpt>
      <trkpt lat="42.3453160" lon="-3.4904390">
        <ele>987.0</ele>
        <time>2020-04-02T19:00:31Z</time>
      </trkpt>
      <trkpt lat="42.3451490" lon="-3.4908830">
        <ele>985.3</ele>
        <time>2020-04-02T19:00:33Z</time>
      </trkpt>
      <trkpt lat="42.3450860" lon="-3.4910520">
        <ele>984.6</ele>
        <time>2020-04-02T19:00:35Z</time>
      </trkpt>
      <trkpt lat="42.3450220" lon="-3.4912210">
        <ele>983.9</ele>
        <time>2020-04-02T19:00:37Z</time>
      </trkpt>
      <trkpt lat="42.3449590" lon="-3.4913900">
        <ele>983.3</ele>
        <time>2020-04-02T19:00:39Z</time>
      </trkpt>
      <trkpt lat="42.3448960" lon="-3.4915570">
        <ele>982.9</ele>
        <time>2020-04-02T19:00:41Z</time>
      </trkpt>
      <trkpt lat="42.3447300" lon="-3.4919990">
        <ele>982.4</ele>
        <time>2020-04-02T19:00:43Z</time>
      </trkpt>
      <trkpt lat="42.3446660" lon="-3.4921670">
        <ele>982.1</ele>
        <time>2020-04-02T19:00:45Z</time>
      </trkpt>
      <trkpt lat="42.3446030" lon="-3.4923360">
        <ele>982.0</ele>
        <time>2020-04-02T19:00:47Z</time>
      </trkpt>
      <trkpt lat="42.3445400" lon="-3.4925040">
        <ele>981.9</ele>
        <time>2020-04-02T19:00:49Z</time>
      </trkpt>
      <trkpt lat="42.3443730" lon="-3.4929480">
        <ele>981.2</ele>
        <time>2020-04-02T19:00:51Z</time>
      </trkpt>
      <trkpt lat="42.3443090" lon="-3.4931170">
        <ele>981.0</ele>
        <time>2020-04-02T19:00:53Z</time>
      </trkpt>
      <trkpt lat="42.3442460" lon="-3.4932840">
        <ele>980.9</ele>
        <time>2020-04-02T19:00:55Z</time>
      </trkpt>
      <trkpt lat="42.3441830" lon="-3.4934530">
        <ele>980.9</ele>
        <time>2020-04-02T19:00:57Z</time>
      </trkpt>
      <trkpt lat="42.3441190" lon="-3.4936220">
        <ele>980.7</ele>
        <time>2020-04-02T19:00:59Z</time>
      </trkpt>
      <trkpt lat="42.3439520" lon="-3.4940660">
        <ele>980.0</ele>
        <time>2020-04-02T19:01:01Z</time>
      </trkpt>
      <trkpt lat="42.3438890" lon="-3.4942330">
        <ele>979.9</ele>
        <time>2020-04-02T19:01:03Z</time>
      </trkpt>
      <trkpt lat="42.3438260" lon="-3.4944020">
        <ele>979.9</ele>
        <time>2020-04-02T19:01:05Z</time>
      </trkpt>
      <trkpt lat="42.3437620" lon="-3.4945720">
        <ele>979.7</ele>
        <time>2020-04-02T19:01:07Z</time>
      </trkpt>
      <trkpt lat="42.3436980" lon="-3.4947410">
        <ele>979.6</ele>
        <time>2020-04-02T19:01:09Z</time>
      </trkpt>
      <trkpt lat="42.3435320" lon="-3.4951820">
        <ele>979.3</ele>
        <time>2020-04-02T19:01:11Z</time>
      </trkpt>
      <trkpt lat="42.3434710" lon="-3.4953460">
        <ele>979.1</ele>
        <time>2020-04-02T19:01:13Z</time>
      </trkpt>
      <trkpt lat="42.3434100" lon="-3.4955080">
        <ele>978.9</ele>
        <time>2020-04-02T19:01:15Z</time>
      </trkpt>
      <trkpt lat="42.3433500" lon="-3.4956680">
        <ele>978.8</ele>
        <time>2020-04-02T19:01:17Z</time>
      </trkpt>
      <trkpt lat="42.3431870" lon="-3.4961020">
        <ele>978.3</ele>
        <time>2020-04-02T19:01:19Z</time>
      </trkpt>
      <trkpt lat="42.3431270" lon="-3.4962610">
        <ele>978.1</ele>
        <time>2020-04-02T19:01:21Z</time>
      </trkpt>
      <trkpt lat="42.3430670" lon="-3.4964190">
        <ele>977.9</ele>
        <time>2020-04-02T19:01:23Z</time>
      </trkpt>
      <trkpt lat="42.3430080" lon="-3.4965770">
        <ele>978.0</ele>
        <time>2020-04-02T19:01:25Z</time>
      </trkpt>
      <trkpt lat="42.3429480" lon="-3.4967360">
        <ele>978.1</ele>
        <time>2020-04-02T19:01:27Z</time>
      </trkpt>
      <trkpt lat="42.3427850" lon="-3.4971690">
        <ele>978.3</ele>
        <time>2020-04-02T19:01:29Z</time>
      </trkpt>
      <trkpt lat="42.3427270" lon="-3.4973250">
        <ele>978.3</ele>
        <time>2020-04-02T19:01:31Z</time>
      </trkpt>
      <trkpt lat="42.3426690" lon="-3.4974790">
        <ele>978.4</ele>
        <time>2020-04-02T19:01:33Z</time>
      </trkpt>
      <trkpt lat="42.3426120" lon="-3.4976300">
        <ele>978.5</ele>
        <time>2020-04-02T19:01:35Z</time>
      </trkpt>
      <trkpt lat="42.3425550" lon="-3.4977800">
        <ele>978.6</ele>
        <time>2020-04-02T19:01:37Z</time>
      </trkpt>
      <trkpt lat="42.3423960" lon="-3.4982030">
        <ele>978.8</ele>
        <time>2020-04-02T19:01:39Z</time>
      </trkpt>
      <trkpt lat="42.3423410" lon="-3.4983500">
        <ele>978.8</ele>
        <time>2020-04-02T19:01:41Z</time>
      </trkpt>
      <trkpt lat="42.3422860" lon="-3.4984970">
        <ele>978.9</ele>
        <time>2020-04-02T19:01:43Z</time>
      </trkpt>
      <trkpt lat="42.3422300" lon="-3.4986440">
        <ele>979.0</ele>
        <time>2020-04-02T19:01:45Z</time>
      </trkpt>
      <trkpt lat="42.3421750" lon="-3.4987910">
        <ele>979.0</ele>
        <time>2020-04-02T19:01:47Z</time>
      </trkpt>
      <trkpt lat="42.3421210" lon="-3.4989360">
        <ele>979.1</ele>
        <time>2020-04-02T19:01:49Z</time>
      </trkpt>
      <trkpt lat="42.3419650" lon="-3.4993570">
        <ele>978.8</ele>
        <time>2020-04-02T19:01:51Z</time>
      </trkpt>
      <trkpt lat="42.3419120" lon="-3.4995060">
        <ele>978.6</ele>
        <time>2020-04-02T19:01:53Z</time>
      </trkpt>
      <trkpt lat="42.3418580" lon="-3.4996560">
        <ele>978.5</ele>
        <time>2020-04-02T19:01:55Z</time>
      </trkpt>
      <trkpt lat="42.3417430" lon="-3.4999790">
        <ele>978.6</ele>
        <time>2020-04-02T19:01:57Z</time>
      </trkpt>
      <trkpt lat="42.3416890" lon="-3.5001320">
        <ele>978.7</ele>
        <time>2020-04-02T19:01:59Z</time>
      </trkpt>
      <trkpt lat="42.3416350" lon="-3.5002840">
        <ele>978.7</ele>
        <time>2020-04-02T19:02:01Z</time>
      </trkpt>
      <trkpt lat="42.3415230" lon="-3.5006120">
        <ele>978.3</ele>
        <time>2020-04-02T19:02:03Z</time>
      </trkpt>
      <trkpt lat="42.3414800" lon="-3.5007710">
        <ele>978.2</ele>
        <time>2020-04-02T19:02:05Z</time>
      </trkpt>
      <trkpt lat="42.3414380" lon="-3.5009300">
        <ele>978.1</ele>
        <time>2020-04-02T19:02:07Z</time>
      </trkpt>
      <trkpt lat="42.3413940" lon="-3.5010900">
        <ele>978.1</ele>
        <time>2020-04-02T19:02:09Z</time>
      </trkpt>
      <trkpt lat="42.3413520" lon="-3.5012480">
        <ele>978.2</ele>
        <time>2020-04-02T19:02:11Z</time>
      </trkpt>
      <trkpt lat="42.3412360" lon="-3.5016770">
        <ele>978.4</ele>
        <time>2020-04-02T19:02:13Z</time>
      </trkpt>
      <trkpt lat="42.3411930" lon="-3.5018380">
        <ele>978.4</ele>
        <time>2020-04-02T19:02:15Z</time>
      </trkpt>
      <trkpt lat="42.3411500" lon="-3.5019980">
        <ele>978.4</ele>
        <time>2020-04-02T19:02:17Z</time>
      </trkpt>
      <trkpt lat="42.3411060" lon="-3.5021610">
        <ele>978.3</ele>
        <time>2020-04-02T19:02:19Z</time>
      </trkpt>
      <trkpt lat="42.3410630" lon="-3.5023220">
        <ele>978.1</ele>
        <time>2020-04-02T19:02:21Z</time>
      </trkpt>
      <trkpt lat="42.3409470" lon="-3.5027520">
        <ele>977.7</ele>
        <time>2020-04-02T19:02:23Z</time>
      </trkpt>
      <trkpt lat="42.3409030" lon="-3.5029140">
        <ele>977.6</ele>
        <time>2020-04-02T19:02:25Z</time>
      </trkpt>
      <trkpt lat="42.3408590" lon="-3.5030780">
        <ele>977.4</ele>
        <time>2020-04-02T19:02:27Z</time>
      </trkpt>
      <trkpt lat="42.3408140" lon="-3.5032440">
        <ele>977.2</ele>
        <time>2020-04-02T19:02:29Z</time>
      </trkpt>
      <trkpt lat="42.3406970" lon="-3.5036800">
        <ele>976.9</ele>
        <time>2020-04-02T19:02:31Z</time>
      </trkpt>
      <trkpt lat="42.3406520" lon="-3.5038460">
        <ele>976.7</ele>
        <time>2020-04-02T19:02:33Z</time>
      </trkpt>
      <trkpt lat="42.3406070" lon="-3.5040130">
        <ele>976.6</ele>
        <time>2020-04-02T19:02:35Z</time>
      </trkpt>
      <trkpt lat="42.3405620" lon="-3.5041810">
        <ele>976.5</ele>
        <time>2020-04-02T19:02:37Z</time>
      </trkpt>
      <trkpt lat="42.3405170" lon="-3.5043480">
        <ele>976.5</ele>
        <time>2020-04-02T19:02:39Z</time>
      </trkpt>
      <trkpt lat="42.3403990" lon="-3.5047850">
        <ele>976.2</ele>
        <time>2020-04-02T19:02:41Z</time>
      </trkpt>
      <trkpt lat="42.3403530" lon="-3.5049550">
        <ele>976.0</ele>
        <time>2020-04-02T19:02:43Z</time>
      </trkpt>
      <trkpt lat="42.3403080" lon="-3.5051240">
        <ele>975.8</ele>
        <time>2020-04-02T19:02:45Z</time>
      </trkpt>
      <trkpt lat="42.3402630" lon="-3.5052910">
        <ele>975.6</ele>
        <time>2020-04-02T19:02:47Z</time>
      </trkpt>
      <trkpt lat="42.3401440" lon="-3.5057300">
        <ele>975.5</ele>
        <time>2020-04-02T19:02:49Z</time>
      </trkpt>
      <trkpt lat="42.3400970" lon="-3.5058960">
        <ele>975.4</ele>
        <time>2020-04-02T19:02:51Z</time>
      </trkpt>
      <trkpt lat="42.3400510" lon="-3.5060580">
        <ele>975.4</ele>
        <time>2020-04-02T19:02:53Z</time>
      </trkpt>
      <trkpt lat="42.3400060" lon="-3.5062170">
        <ele>975.4</ele>
        <time>2020-04-02T19:02:55Z</time>
      </trkpt>
      <trkpt lat="42.3398990" lon="-3.5065610">
        <ele>975.4</ele>
        <time>2020-04-02T19:02:57Z</time>
      </trkpt>
      <trkpt lat="42.3398130" lon="-3.5067950">
        <ele>975.5</ele>
        <time>2020-04-02T19:02:59Z</time>
      </trkpt>
      <trkpt lat="42.3397500" lon="-3.5069330">
        <ele>975.7</ele>
        <time>2020-04-02T19:03:01Z</time>
      </trkpt>
      <trkpt lat="42.3396430" lon="-3.5071590">
        <ele>976.0</ele>
        <time>2020-04-02T19:03:03Z</time>
      </trkpt>
      <trkpt lat="42.3395670" lon="-3.5072890">
        <ele>976.2</ele>
        <time>2020-04-02T19:03:05Z</time>
      </trkpt>
      <trkpt lat="42.3394310" lon="-3.5075150">
        <ele>976.2</ele>
        <time>2020-04-02T19:03:07Z</time>
      </trkpt>
      <trkpt lat="42.3393380" lon="-3.5076390">
        <ele>975.9</ele>
        <time>2020-04-02T19:03:09Z</time>
      </trkpt>
      <trkpt lat="42.3391850" lon="-3.5078330">
        <ele>975.4</ele>
        <time>2020-04-02T19:03:11Z</time>
      </trkpt>
      <trkpt lat="42.3390830" lon="-3.5079520">
        <ele>975.1</ele>
        <time>2020-04-02T19:03:13Z</time>
      </trkpt>
      <trkpt lat="42.3389790" lon="-3.5080730">
        <ele>974.9</ele>
        <time>2020-04-02T19:03:15Z</time>
      </trkpt>
      <trkpt lat="42.3388740" lon="-3.5081950">
        <ele>974.6</ele>
        <time>2020-04-02T19:03:17Z</time>
      </trkpt>
      <trkpt lat="42.3386100" lon="-3.5085010">
        <ele>973.8</ele>
        <time>2020-04-02T19:03:19Z</time>
      </trkpt>
      <trkpt lat="42.3385020" lon="-3.5086260">
        <ele>973.6</ele>
        <time>2020-04-02T19:03:21Z</time>
      </trkpt>
      <trkpt lat="42.3383940" lon="-3.5087520">
        <ele>973.2</ele>
        <time>2020-04-02T19:03:23Z</time>
      </trkpt>
      <trkpt lat="42.3382840" lon="-3.5088790">
        <ele>972.8</ele>
        <time>2020-04-02T19:03:25Z</time>
      </trkpt>
      <trkpt lat="42.3380170" lon="-3.5091890">
        <ele>971.5</ele>
        <time>2020-04-02T19:03:27Z</time>
      </trkpt>
      <trkpt lat="42.3379060" lon="-3.5093170">
        <ele>971.0</ele>
        <time>2020-04-02T19:03:29Z</time>
      </trkpt>
      <trkpt lat="42.3377960" lon="-3.5094460">
        <ele>970.7</ele>
        <time>2020-04-02T19:03:31Z</time>
      </trkpt>
      <trkpt lat="42.3376870" lon="-3.5095710">
        <ele>970.3</ele>
        <time>2020-04-02T19:03:33Z</time>
      </trkpt>
      <trkpt lat="42.3374230" lon="-3.5098800">
        <ele>969.8</ele>
        <time>2020-04-02T19:03:35Z</time>
      </trkpt>
      <trkpt lat="42.3373250" lon="-3.5100190">
        <ele>969.7</ele>
        <time>2020-04-02T19:03:37Z</time>
      </trkpt>
      <trkpt lat="42.3371760" lon="-3.5102440">
        <ele>969.5</ele>
        <time>2020-04-02T19:03:39Z</time>
      </trkpt>
      <trkpt lat="42.3370440" lon="-3.5104750">
        <ele>968.9</ele>
        <time>2020-04-02T19:03:41Z</time>
      </trkpt>
      <trkpt lat="42.3369640" lon="-3.5106520">
        <ele>968.3</ele>
        <time>2020-04-02T19:03:43Z</time>
      </trkpt>
      <trkpt lat="42.3368250" lon="-3.5109690">
        <ele>966.8</ele>
        <time>2020-04-02T19:03:45Z</time>
      </trkpt>
      <trkpt lat="42.3367660" lon="-3.5111730">
        <ele>965.8</ele>
        <time>2020-04-02T19:03:47Z</time>
      </trkpt>
      <trkpt lat="42.3367070" lon="-3.5113810">
        <ele>964.8</ele>
        <time>2020-04-02T19:03:49Z</time>
      </trkpt>
      <trkpt lat="42.3366480" lon="-3.5115890">
        <ele>963.9</ele>
        <time>2020-04-02T19:03:51Z</time>
      </trkpt>
      <trkpt lat="42.3365070" lon="-3.5120860">
        <ele>962.5</ele>
        <time>2020-04-02T19:03:53Z</time>
      </trkpt>
      <trkpt lat="42.3364480" lon="-3.5122950">
        <ele>961.5</ele>
        <time>2020-04-02T19:03:55Z</time>
      </trkpt>
      <trkpt lat="42.3363900" lon="-3.5124990">
        <ele>960.6</ele>
        <time>2020-04-02T19:03:57Z</time>
      </trkpt>
      <trkpt lat="42.3363320" lon="-3.5127030">
        <ele>960.0</ele>
        <time>2020-04-02T19:03:59Z</time>
      </trkpt>
      <trkpt lat="42.3361940" lon="-3.5131890">
        <ele>958.8</ele>
        <time>2020-04-02T19:04:01Z</time>
      </trkpt>
      <trkpt lat="42.3361370" lon="-3.5133900">
        <ele>958.3</ele>
        <time>2020-04-02T19:04:03Z</time>
      </trkpt>
      <trkpt lat="42.3360800" lon="-3.5135890">
        <ele>958.0</ele>
        <time>2020-04-02T19:04:05Z</time>
      </trkpt>
      <trkpt lat="42.3360230" lon="-3.5137900">
        <ele>957.7</ele>
        <time>2020-04-02T19:04:07Z</time>
      </trkpt>
      <trkpt lat="42.3358850" lon="-3.5142750">
        <ele>957.0</ele>
        <time>2020-04-02T19:04:09Z</time>
      </trkpt>
      <trkpt lat="42.3358290" lon="-3.5144700">
        <ele>956.8</ele>
        <time>2020-04-02T19:04:11Z</time>
      </trkpt>
      <trkpt lat="42.3357750" lon="-3.5146600">
        <ele>956.4</ele>
        <time>2020-04-02T19:04:13Z</time>
      </trkpt>
      <trkpt lat="42.3357220" lon="-3.5148470">
        <ele>956.0</ele>
        <time>2020-04-02T19:04:15Z</time>
      </trkpt>
      <trkpt lat="42.3356690" lon="-3.5150340">
        <ele>955.6</ele>
        <time>2020-04-02T19:04:17Z</time>
      </trkpt>
      <trkpt lat="42.3355360" lon="-3.5155030">
        <ele>955.1</ele>
        <time>2020-04-02T19:04:19Z</time>
      </trkpt>
      <trkpt lat="42.3354830" lon="-3.5156880">
        <ele>955.1</ele>
        <time>2020-04-02T19:04:21Z</time>
      </trkpt>
      <trkpt lat="42.3354310" lon="-3.5158710">
        <ele>954.9</ele>
        <time>2020-04-02T19:04:23Z</time>
      </trkpt>
      <trkpt lat="42.3353800" lon="-3.5160520">
        <ele>954.7</ele>
        <time>2020-04-02T19:04:25Z</time>
      </trkpt>
      <trkpt lat="42.3352470" lon="-3.5165190">
        <ele>953.8</ele>
        <time>2020-04-02T19:04:27Z</time>
      </trkpt>
      <trkpt lat="42.3351980" lon="-3.5166910">
        <ele>953.5</ele>
        <time>2020-04-02T19:04:29Z</time>
      </trkpt>
      <trkpt lat="42.3351530" lon="-3.5168490">
        <ele>953.3</ele>
        <time>2020-04-02T19:04:31Z</time>
      </trkpt>
      <trkpt lat="42.3351130" lon="-3.5169890">
        <ele>953.2</ele>
        <time>2020-04-02T19:04:33Z</time>
      </trkpt>
      <trkpt lat="42.3350780" lon="-3.5171140">
        <ele>953.1</ele>
        <time>2020-04-02T19:04:35Z</time>
      </trkpt>
      <trkpt lat="42.3349660" lon="-3.5175080">
        <ele>953.1</ele>
        <time>2020-04-02T19:04:37Z</time>
      </trkpt>
      <trkpt lat="42.3349390" lon="-3.5176030">
        <ele>953.1</ele>
        <time>2020-04-02T19:04:39Z</time>
      </trkpt>
      <trkpt lat="42.3349160" lon="-3.5176840">
        <ele>953.1</ele>
        <time>2020-04-02T19:04:41Z</time>
      </trkpt>
      <trkpt lat="42.3348960" lon="-3.5177520">
        <ele>953.1</ele>
        <time>2020-04-02T19:04:43Z</time>
      </trkpt>
      <trkpt lat="42.3348800" lon="-3.5178110">
        <ele>953.1</ele>
        <time>2020-04-02T19:04:45Z</time>
      </trkpt>
      <trkpt lat="42.3348590" lon="-3.5178830">
        <ele>953.1</ele>
        <time>2020-04-02T19:04:47Z</time>
      </trkpt>
      <trkpt lat="42.3348320" lon="-3.5179790">
        <ele>953.1</ele>
        <time>2020-04-02T19:04:49Z</time>
      </trkpt>
      <trkpt lat="42.3348010" lon="-3.5180880">
        <ele>953.1</ele>
        <time>2020-04-02T19:04:51Z</time>
      </trkpt>
      <trkpt lat="42.3347670" lon="-3.5182080">
        <ele>953.1</ele>
        <time>2020-04-02T19:04:53Z</time>
      </trkpt>
      <trkpt lat="42.3346490" lon="-3.5186230">
        <ele>953.1</ele>
        <time>2020-04-02T19:04:55Z</time>
      </trkpt>
      <trkpt lat="42.3346090" lon="-3.5187620">
        <ele>953.1</ele>
        <time>2020-04-02T19:04:57Z</time>
      </trkpt>
      <trkpt lat="42.3345680" lon="-3.5189070">
        <ele>953.0</ele>
        <time>2020-04-02T19:04:59Z</time>
      </trkpt>
      <trkpt lat="42.3345250" lon="-3.5190600">
        <ele>952.9</ele>
        <time>2020-04-02T19:05:01Z</time>
      </trkpt>
      <trkpt lat="42.3344800" lon="-3.5192170">
        <ele>952.8</ele>
        <time>2020-04-02T19:05:03Z</time>
      </trkpt>
      <trkpt lat="42.3344340" lon="-3.5193780">
        <ele>952.6</ele>
        <time>2020-04-02T19:05:05Z</time>
      </trkpt>
      <trkpt lat="42.3343060" lon="-3.5198270">
        <ele>952.0</ele>
        <time>2020-04-02T19:05:07Z</time>
      </trkpt>
      <trkpt lat="42.3342590" lon="-3.5199930">
        <ele>951.8</ele>
        <time>2020-04-02T19:05:09Z</time>
      </trkpt>
      <trkpt lat="42.3342110" lon="-3.5201630">
        <ele>951.5</ele>
        <time>2020-04-02T19:05:11Z</time>
      </trkpt>
      <trkpt lat="42.3341630" lon="-3.5203320">
        <ele>951.3</ele>
        <time>2020-04-02T19:05:13Z</time>
      </trkpt>
      <trkpt lat="42.3340330" lon="-3.5207890">
        <ele>950.6</ele>
        <time>2020-04-02T19:05:15Z</time>
      </trkpt>
      <trkpt lat="42.3339830" lon="-3.5209630">
        <ele>950.4</ele>
        <time>2020-04-02T19:05:17Z</time>
      </trkpt>
      <trkpt lat="42.3339340" lon="-3.5211370">
        <ele>950.3</ele>
        <time>2020-04-02T19:05:19Z</time>
      </trkpt>
      <trkpt lat="42.3338840" lon="-3.5213110">
        <ele>950.2</ele>
        <time>2020-04-02T19:05:21Z</time>
      </trkpt>
      <trkpt lat="42.3338340" lon="-3.5214870">
        <ele>950.0</ele>
        <time>2020-04-02T19:05:23Z</time>
      </trkpt>
      <trkpt lat="42.3337030" lon="-3.5219490">
        <ele>949.6</ele>
        <time>2020-04-02T19:05:25Z</time>
      </trkpt>
      <trkpt lat="42.3336530" lon="-3.5221240">
        <ele>949.4</ele>
        <time>2020-04-02T19:05:27Z</time>
      </trkpt>
      <trkpt lat="42.3336030" lon="-3.5223010">
        <ele>949.3</ele>
        <time>2020-04-02T19:05:29Z</time>
      </trkpt>
      <trkpt lat="42.3335520" lon="-3.5224790">
        <ele>949.2</ele>
        <time>2020-04-02T19:05:31Z</time>
      </trkpt>
      <trkpt lat="42.3335020" lon="-3.5226560">
        <ele>948.9</ele>
        <time>2020-04-02T19:05:33Z</time>
      </trkpt>
      <trkpt lat="42.3333710" lon="-3.5231170">
        <ele>948.4</ele>
        <time>2020-04-02T19:05:35Z</time>
      </trkpt>
      <trkpt lat="42.3333200" lon="-3.5232960">
        <ele>948.2</ele>
        <time>2020-04-02T19:05:37Z</time>
      </trkpt>
      <trkpt lat="42.3332690" lon="-3.5234750">
        <ele>948.0</ele>
        <time>2020-04-02T19:05:39Z</time>
      </trkpt>
      <trkpt lat="42.3332170" lon="-3.5236570">
        <ele>947.5</ele>
        <time>2020-04-02T19:05:41Z</time>
      </trkpt>
      <trkpt lat="42.3330840" lon="-3.5241250">
        <ele>946.5</ele>
        <time>2020-04-02T19:05:43Z</time>
      </trkpt>
      <trkpt lat="42.3330320" lon="-3.5243080">
        <ele>946.1</ele>
        <time>2020-04-02T19:05:45Z</time>
      </trkpt>
      <trkpt lat="42.3329800" lon="-3.5244920">
        <ele>945.7</ele>
        <time>2020-04-02T19:05:47Z</time>
      </trkpt>
      <trkpt lat="42.3329270" lon="-3.5246770">
        <ele>945.3</ele>
        <time>2020-04-02T19:05:49Z</time>
      </trkpt>
      <trkpt lat="42.3328750" lon="-3.5248610">
        <ele>945.1</ele>
        <time>2020-04-02T19:05:51Z</time>
      </trkpt>
      <trkpt lat="42.3327420" lon="-3.5253300">
        <ele>944.5</ele>
        <time>2020-04-02T19:05:53Z</time>
      </trkpt>
      <trkpt lat="42.3326890" lon="-3.5255150">
        <ele>944.2</ele>
        <time>2020-04-02T19:05:55Z</time>
      </trkpt>
      <trkpt lat="42.3326360" lon="-3.5257010">
        <ele>943.9</ele>
        <time>2020-04-02T19:05:57Z</time>
      </trkpt>
      <trkpt lat="42.3325830" lon="-3.5258870">
        <ele>943.7</ele>
        <time>2020-04-02T19:05:59Z</time>
      </trkpt>
      <trkpt lat="42.3324580" lon="-3.5263600">
        <ele>943.4</ele>
        <time>2020-04-02T19:06:01Z</time>
      </trkpt>
      <trkpt lat="42.3324210" lon="-3.5265530">
        <ele>943.2</ele>
        <time>2020-04-02T19:06:03Z</time>
      </trkpt>
      <trkpt lat="42.3323830" lon="-3.5267460">
        <ele>942.8</ele>
        <time>2020-04-02T19:06:05Z</time>
      </trkpt>
      <trkpt lat="42.3323030" lon="-3.5271670">
        <ele>941.8</ele>
        <time>2020-04-02T19:06:07Z</time>
      </trkpt>
      <trkpt lat="42.3322710" lon="-3.5273680">
        <ele>941.2</ele>
        <time>2020-04-02T19:06:09Z</time>
      </trkpt>
      <trkpt lat="42.3322390" lon="-3.5275750">
        <ele>940.6</ele>
        <time>2020-04-02T19:06:11Z</time>
      </trkpt>
      <trkpt lat="42.3321820" lon="-3.5279710">
        <ele>938.7</ele>
        <time>2020-04-02T19:06:13Z</time>
      </trkpt>
      <trkpt lat="42.3321550" lon="-3.5281850">
        <ele>937.5</ele>
        <time>2020-04-02T19:06:15Z</time>
      </trkpt>
      <trkpt lat="42.3321280" lon="-3.5284040">
        <ele>936.5</ele>
        <time>2020-04-02T19:06:17Z</time>
      </trkpt>
      <trkpt lat="42.3321000" lon="-3.5286250">
        <ele>936.2</ele>
        <time>2020-04-02T19:06:19Z</time>
      </trkpt>
      <trkpt lat="42.3320340" lon="-3.5291570">
        <ele>935.2</ele>
        <time>2020-04-02T19:06:21Z</time>
      </trkpt>
      <trkpt lat="42.3320080" lon="-3.5293630">
        <ele>934.9</ele>
        <time>2020-04-02T19:06:23Z</time>
      </trkpt>
      <trkpt lat="42.3319830" lon="-3.5295610">
        <ele>934.8</ele>
        <time>2020-04-02T19:06:25Z</time>
      </trkpt>
      <trkpt lat="42.3319590" lon="-3.5297510">
        <ele>934.6</ele>
        <time>2020-04-02T19:06:27Z</time>
      </trkpt>
      <trkpt lat="42.3318970" lon="-3.5302490">
        <ele>934.0</ele>
        <time>2020-04-02T19:06:29Z</time>
      </trkpt>
      <trkpt lat="42.3318730" lon="-3.5304350">
        <ele>933.8</ele>
        <time>2020-04-02T19:06:31Z</time>
      </trkpt>
      <trkpt lat="42.3318500" lon="-3.5306190">
        <ele>933.7</ele>
        <time>2020-04-02T19:06:33Z</time>
      </trkpt>
      <trkpt lat="42.3318270" lon="-3.5308010">
        <ele>933.4</ele>
        <time>2020-04-02T19:06:35Z</time>
      </trkpt>
      <trkpt lat="42.3318050" lon="-3.5309820">
        <ele>933.1</ele>
        <time>2020-04-02T19:06:37Z</time>
      </trkpt>
      <trkpt lat="42.3317440" lon="-3.5314750">
        <ele>933.0</ele>
        <time>2020-04-02T19:06:39Z</time>
      </trkpt>
      <trkpt lat="42.3317230" lon="-3.5316540">
        <ele>933.0</ele>
        <time>2020-04-02T19:06:41Z</time>
      </trkpt>
      <trkpt lat="42.3317020" lon="-3.5318300">
        <ele>932.9</ele>
        <time>2020-04-02T19:06:43Z</time>
      </trkpt>
      <trkpt lat="42.3316620" lon="-3.5321710">
        <ele>932.8</ele>
        <time>2020-04-02T19:06:45Z</time>
      </trkpt>
      <trkpt lat="42.3316410" lon="-3.5323450">
        <ele>932.7</ele>
        <time>2020-04-02T19:06:47Z</time>
      </trkpt>
      <trkpt lat="42.3316210" lon="-3.5325170">
        <ele>932.6</ele>
        <time>2020-04-02T19:06:49Z</time>
      </trkpt>
      <trkpt lat="42.3315020" lon="-3.5325720">
        <ele>932.5</ele>
        <time>2020-04-02T19:06:51Z</time>
      </trkpt>
      <trkpt lat="42.3314310" lon="-3.5324280">
        <ele>932.4</ele>
        <time>2020-04-02T19:06:53Z</time>
      </trkpt>
      <trkpt lat="42.3313610" lon="-3.5322870">
        <ele>932.4</ele>
        <time>2020-04-02T19:06:55Z</time>
      </trkpt>
      <trkpt lat="42.3312910" lon="-3.5321460">
        <ele>932.3</ele>
        <time>2020-04-02T19:06:57Z</time>
      </trkpt>
      <trkpt lat="42.3311940" lon="-3.5319500">
        <ele>932.2</ele>
        <time>2020-04-02T19:06:59Z</time>
      </trkpt>
      <trkpt lat="42.3312640" lon="-3.5320910">
        <ele>932.3</ele>
        <time>2020-04-02T19:07:01Z</time>
      </trkpt>
      <trkpt lat="42.3313340" lon="-3.5322320">
        <ele>932.4</ele>
        <time>2020-04-02T19:07:03Z</time>
      </trkpt>
      <trkpt lat="42.3314030" lon="-3.5323730">
        <ele>932.4</ele>
        <time>2020-04-02T19:07:05Z</time>
      </trkpt>
      <trkpt lat="42.3316010" lon="-3.5326920">
        <ele>932.5</ele>
        <time>2020-04-02T19:07:07Z</time>
      </trkpt>
      <trkpt lat="42.3316330" lon="-3.5325100">
        <ele>932.6</ele>
        <time>2020-04-02T19:07:09Z</time>
      </trkpt>
      <trkpt lat="42.3316600" lon="-3.5327390">
        <ele>932.5</ele>
        <time>2020-04-02T19:07:11Z</time>
      </trkpt>
      <trkpt lat="42.3316650" lon="-3.5329110">
        <ele>932.5</ele>
        <time>2020-04-02T19:07:13Z</time>
      </trkpt>
      <trkpt lat="42.3316690" lon="-3.5330850">
        <ele>932.3</ele>
        <time>2020-04-02T19:07:15Z</time>
      </trkpt>
      <trkpt lat="42.3316740" lon="-3.5332600">
        <ele>932.1</ele>
        <time>2020-04-02T19:07:17Z</time>
      </trkpt>
      <trkpt lat="42.3316850" lon="-3.5336880">
        <ele>931.6</ele>
        <time>2020-04-02T19:07:19Z</time>
      </trkpt>
      <trkpt lat="42.3316900" lon="-3.5338620">
        <ele>931.6</ele>
        <time>2020-04-02T19:07:21Z</time>
      </trkpt>
      <trkpt lat="42.3316940" lon="-3.5340330">
        <ele>931.6</ele>
        <time>2020-04-02T19:07:23Z</time>
      </trkpt>
      <trkpt lat="42.3316980" lon="-3.5342020">
        <ele>931.6</ele>
        <time>2020-04-02T19:07:25Z</time>
      </trkpt>
      <trkpt lat="42.3317030" lon="-3.5343700">
        <ele>931.7</ele>
        <time>2020-04-02T19:07:27Z</time>
      </trkpt>
      <trkpt lat="42.3317120" lon="-3.5347910">
        <ele>931.7</ele>
        <time>2020-04-02T19:07:29Z</time>
      </trkpt>
      <trkpt lat="42.3317140" lon="-3.5349600">
        <ele>931.6</ele>
        <time>2020-04-02T19:07:31Z</time>
      </trkpt>
      <trkpt lat="42.3317160" lon="-3.5351300">
        <ele>931.5</ele>
        <time>2020-04-02T19:07:33Z</time>
      </trkpt>
      <trkpt lat="42.3317200" lon="-3.5355180">
        <ele>931.5</ele>
        <time>2020-04-02T19:07:35Z</time>
      </trkpt>
      <trkpt lat="42.3317220" lon="-3.5356890">
        <ele>931.4</ele>
        <time>2020-04-02T19:07:37Z</time>
      </trkpt>
      <trkpt lat="42.3317240" lon="-3.5358640">
        <ele>931.0</ele>
        <time>2020-04-02T19:07:39Z</time>
      </trkpt>
      <trkpt lat="42.3317260" lon="-3.5360400">
        <ele>930.7</ele>
        <time>2020-04-02T19:07:41Z</time>
      </trkpt>
      <trkpt lat="42.3317360" lon="-3.5364380">
        <ele>930.3</ele>
        <time>2020-04-02T19:07:43Z</time>
      </trkpt>
      <trkpt lat="42.3317470" lon="-3.5366200">
        <ele>930.2</ele>
        <time>2020-04-02T19:07:45Z</time>
      </trkpt>
      <trkpt lat="42.3317580" lon="-3.5368020">
        <ele>930.1</ele>
        <time>2020-04-02T19:07:47Z</time>
      </trkpt>
      <trkpt lat="42.3317690" lon="-3.5369870">
        <ele>929.9</ele>
        <time>2020-04-02T19:07:49Z</time>
      </trkpt>
      <trkpt lat="42.3317930" lon="-3.5374090">
        <ele>929.5</ele>
        <time>2020-04-02T19:07:51Z</time>
      </trkpt>
      <trkpt lat="42.3318040" lon="-3.5375950">
        <ele>929.0</ele>
        <time>2020-04-02T19:07:53Z</time>
      </trkpt>
      <trkpt lat="42.3318150" lon="-3.5377810">
        <ele>928.8</ele>
        <time>2020-04-02T19:07:55Z</time>
      </trkpt>
      <trkpt lat="42.3318400" lon="-3.5382050">
        <ele>928.6</ele>
        <time>2020-04-02T19:07:57Z</time>
      </trkpt>
      <trkpt lat="42.3318510" lon="-3.5383920">
        <ele>928.6</ele>
        <time>2020-04-02T19:07:59Z</time>
      </trkpt>
      <trkpt lat="42.3318620" lon="-3.5385780">
        <ele>928.5</ele>
        <time>2020-04-02T19:08:01Z</time>
      </trkpt>
      <trkpt lat="42.3318730" lon="-3.5387670">
        <ele>928.2</ele>
        <time>2020-04-02T19:08:03Z</time>
      </trkpt>
      <trkpt lat="42.3318450" lon="-3.5391490">
        <ele>927.6</ele>
        <time>2020-04-02T19:08:05Z</time>
      </trkpt>
      <trkpt lat="42.3318560" lon="-3.5393310">
        <ele>927.5</ele>
        <time>2020-04-02T19:08:07Z</time>
      </trkpt>
      <trkpt lat="42.3318670" lon="-3.5395120">
        <ele>927.3</ele>
        <time>2020-04-02T19:08:09Z</time>
      </trkpt>
      <trkpt lat="42.3318770" lon="-3.5396900">
        <ele>927.2</ele>
        <time>2020-04-02T19:08:11Z</time>
      </trkpt>
      <trkpt lat="42.3318880" lon="-3.5398680">
        <ele>927.1</ele>
        <time>2020-04-02T19:08:13Z</time>
      </trkpt>
      <trkpt lat="42.3319170" lon="-3.5403590">
        <ele>926.9</ele>
        <time>2020-04-02T19:08:15Z</time>
      </trkpt>
      <trkpt lat="42.3319270" lon="-3.5405350">
        <ele>926.8</ele>
        <time>2020-04-02T19:08:17Z</time>
      </trkpt>
      <trkpt lat="42.3319370" lon="-3.5407100">
        <ele>926.5</ele>
        <time>2020-04-02T19:08:19Z</time>
      </trkpt>
      <trkpt lat="42.3319470" lon="-3.5408820">
        <ele>926.3</ele>
        <time>2020-04-02T19:08:21Z</time>
      </trkpt>
      <trkpt lat="42.3319580" lon="-3.5410560">
        <ele>926.0</ele>
        <time>2020-04-02T19:08:23Z</time>
      </trkpt>
      <trkpt lat="42.3319860" lon="-3.5415440">
        <ele>925.6</ele>
        <time>2020-04-02T19:08:25Z</time>
      </trkpt>
      <trkpt lat="42.3319960" lon="-3.5417170">
        <ele>925.2</ele>
        <time>2020-04-02T19:08:27Z</time>
      </trkpt>
      <trkpt lat="42.3320070" lon="-3.5418880">
        <ele>925.2</ele>
        <time>2020-04-02T19:08:29Z</time>
      </trkpt>
      <trkpt lat="42.3320170" lon="-3.5420610">
        <ele>925.4</ele>
        <time>2020-04-02T19:08:31Z</time>
      </trkpt>
      <trkpt lat="42.3320270" lon="-3.5422330">
        <ele>925.6</ele>
        <time>2020-04-02T19:08:33Z</time>
      </trkpt>
      <trkpt lat="42.3320560" lon="-3.5427200">
        <ele>925.8</ele>
        <time>2020-04-02T19:08:36Z</time>
      </trkpt>
      <trkpt lat="42.3320660" lon="-3.5428930">
        <ele>925.8</ele>
        <time>2020-04-02T19:08:38Z</time>
      </trkpt>
      <trkpt lat="42.3320760" lon="-3.5430660">
        <ele>925.7</ele>
        <time>2020-04-02T19:08:40Z</time>
      </trkpt>
      <trkpt lat="42.3320860" lon="-3.5432380">
        <ele>925.7</ele>
        <time>2020-04-02T19:08:42Z</time>
      </trkpt>
      <trkpt lat="42.3320960" lon="-3.5434110">
        <ele>925.7</ele>
        <time>2020-04-02T19:08:44Z</time>
      </trkpt>
      <trkpt lat="42.3321250" lon="-3.5438980">
        <ele>925.7</ele>
        <time>2020-04-02T19:08:46Z</time>
      </trkpt>
      <trkpt lat="42.3321350" lon="-3.5440610">
        <ele>925.6</ele>
        <time>2020-04-02T19:08:48Z</time>
      </trkpt>
      <trkpt lat="42.3321440" lon="-3.5442220">
        <ele>925.6</ele>
        <time>2020-04-02T19:08:50Z</time>
      </trkpt>
      <trkpt lat="42.3321540" lon="-3.5443860">
        <ele>925.6</ele>
        <time>2020-04-02T19:08:52Z</time>
      </trkpt>
      <trkpt lat="42.3321630" lon="-3.5445510">
        <ele>925.6</ele>
        <time>2020-04-02T19:08:54Z</time>
      </trkpt>
      <trkpt lat="42.3321730" lon="-3.5447190">
        <ele>925.6</ele>
        <time>2020-04-02T19:08:56Z</time>
      </trkpt>
      <trkpt lat="42.3322020" lon="-3.5452000">
        <ele>925.5</ele>
        <time>2020-04-02T19:08:58Z</time>
      </trkpt>
      <trkpt lat="42.3322120" lon="-3.5453690">
        <ele>925.5</ele>
        <time>2020-04-02T19:09:00Z</time>
      </trkpt>
      <trkpt lat="42.3322220" lon="-3.5455390">
        <ele>925.5</ele>
        <time>2020-04-02T19:09:02Z</time>
      </trkpt>
      <trkpt lat="42.3322310" lon="-3.5457070">
        <ele>925.5</ele>
        <time>2020-04-02T19:09:04Z</time>
      </trkpt>
      <trkpt lat="42.3322410" lon="-3.5458770">
        <ele>925.5</ele>
        <time>2020-04-02T19:09:06Z</time>
      </trkpt>
      <trkpt lat="42.3322700" lon="-3.5463600">
        <ele>924.9</ele>
        <time>2020-04-02T19:09:08Z</time>
      </trkpt>
      <trkpt lat="42.3322800" lon="-3.5465310">
        <ele>924.6</ele>
        <time>2020-04-02T19:09:10Z</time>
      </trkpt>
      <trkpt lat="42.3322900" lon="-3.5467040">
        <ele>924.5</ele>
        <time>2020-04-02T19:09:12Z</time>
      </trkpt>
      <trkpt lat="42.3323010" lon="-3.5468810">
        <ele>924.4</ele>
        <time>2020-04-02T19:09:14Z</time>
      </trkpt>
      <trkpt lat="42.3323110" lon="-3.5470550">
        <ele>924.4</ele>
        <time>2020-04-02T19:09:16Z</time>
      </trkpt>
      <trkpt lat="42.3323400" lon="-3.5475440">
        <ele>924.3</ele>
        <time>2020-04-02T19:09:18Z</time>
      </trkpt>
      <trkpt lat="42.3323500" lon="-3.5477220">
        <ele>924.0</ele>
        <time>2020-04-02T19:09:20Z</time>
      </trkpt>
      <trkpt lat="42.3323610" lon="-3.5479040">
        <ele>923.4</ele>
        <time>2020-04-02T19:09:22Z</time>
      </trkpt>
      <trkpt lat="42.3323720" lon="-3.5480900">
        <ele>922.9</ele>
        <time>2020-04-02T19:09:24Z</time>
      </trkpt>
      <trkpt lat="42.3323830" lon="-3.5482770">
        <ele>922.5</ele>
        <time>2020-04-02T19:09:26Z</time>
      </trkpt>
      <trkpt lat="42.3324120" lon="-3.5487810">
        <ele>921.3</ele>
        <time>2020-04-02T19:09:28Z</time>
      </trkpt>
      <trkpt lat="42.3324240" lon="-3.5489750">
        <ele>920.8</ele>
        <time>2020-04-02T19:09:30Z</time>
      </trkpt>
      <trkpt lat="42.3324350" lon="-3.5491690">
        <ele>920.5</ele>
        <time>2020-04-02T19:09:32Z</time>
      </trkpt>
      <trkpt lat="42.3324470" lon="-3.5493640">
        <ele>920.4</ele>
        <time>2020-04-02T19:09:34Z</time>
      </trkpt>
      <trkpt lat="42.3324580" lon="-3.5495610">
        <ele>920.3</ele>
        <time>2020-04-02T19:09:36Z</time>
      </trkpt>
      <trkpt lat="42.3324880" lon="-3.5500690">
        <ele>920.3</ele>
        <time>2020-04-02T19:09:38Z</time>
      </trkpt>
      <trkpt lat="42.3324990" lon="-3.5502550">
        <ele>920.3</ele>
        <time>2020-04-02T19:09:40Z</time>
      </trkpt>
      <trkpt lat="42.3325100" lon="-3.5504390">
        <ele>920.3</ele>
        <time>2020-04-02T19:09:42Z</time>
      </trkpt>
      <trkpt lat="42.3325210" lon="-3.5506190">
        <ele>920.3</ele>
        <time>2020-04-02T19:09:44Z</time>
      </trkpt>
      <trkpt lat="42.3325310" lon="-3.5507970">
        <ele>920.1</ele>
        <time>2020-04-02T19:09:46Z</time>
      </trkpt>
      <trkpt lat="42.3325610" lon="-3.5512890">
        <ele>919.3</ele>
        <time>2020-04-02T19:09:48Z</time>
      </trkpt>
      <trkpt lat="42.3325730" lon="-3.5514650">
        <ele>919.3</ele>
        <time>2020-04-02T19:09:50Z</time>
      </trkpt>
      <trkpt lat="42.3325840" lon="-3.5516420">
        <ele>919.3</ele>
        <time>2020-04-02T19:09:52Z</time>
      </trkpt>
      <trkpt lat="42.3325960" lon="-3.5518170">
        <ele>919.3</ele>
        <time>2020-04-02T19:09:54Z</time>
      </trkpt>
      <trkpt lat="42.3326080" lon="-3.5519940">
        <ele>919.4</ele>
        <time>2020-04-02T19:09:56Z</time>
      </trkpt>
      <trkpt lat="42.3326400" lon="-3.5524860">
        <ele>919.4</ele>
        <time>2020-04-02T19:09:58Z</time>
      </trkpt>
      <trkpt lat="42.3326520" lon="-3.5526590">
        <ele>919.4</ele>
        <time>2020-04-02T19:10:00Z</time>
      </trkpt>
      <trkpt lat="42.3326630" lon="-3.5528320">
        <ele>919.5</ele>
        <time>2020-04-02T19:10:02Z</time>
      </trkpt>
      <trkpt lat="42.3326750" lon="-3.5530050">
        <ele>919.5</ele>
        <time>2020-04-02T19:10:04Z</time>
      </trkpt>
      <trkpt lat="42.3326860" lon="-3.5531770">
        <ele>919.5</ele>
        <time>2020-04-02T19:10:06Z</time>
      </trkpt>
      <trkpt lat="42.3327180" lon="-3.5536640">
        <ele>919.6</ele>
        <time>2020-04-02T19:10:08Z</time>
      </trkpt>
      <trkpt lat="42.3327300" lon="-3.5538360">
        <ele>919.6</ele>
        <time>2020-04-02T19:10:10Z</time>
      </trkpt>
      <trkpt lat="42.3327410" lon="-3.5540030">
        <ele>919.5</ele>
        <time>2020-04-02T19:10:12Z</time>
      </trkpt>
      <trkpt lat="42.3327510" lon="-3.5541560">
        <ele>919.4</ele>
        <time>2020-04-02T19:10:14Z</time>
      </trkpt>
      <trkpt lat="42.3327600" lon="-3.5542910">
        <ele>919.1</ele>
        <time>2020-04-02T19:10:16Z</time>
      </trkpt>
      <trkpt lat="42.3327680" lon="-3.5544100">
        <ele>918.9</ele>
        <time>2020-04-02T19:10:18Z</time>
      </trkpt>
      <trkpt lat="42.3327950" lon="-3.5548320">
        <ele>918.6</ele>
        <time>2020-04-02T19:10:20Z</time>
      </trkpt>
      <trkpt lat="42.3328010" lon="-3.5549400">
        <ele>918.5</ele>
        <time>2020-04-02T19:10:22Z</time>
      </trkpt>
      <trkpt lat="42.3328090" lon="-3.5550650">
        <ele>918.4</ele>
        <time>2020-04-02T19:10:24Z</time>
      </trkpt>
      <trkpt lat="42.3328170" lon="-3.5552010">
        <ele>918.3</ele>
        <time>2020-04-02T19:10:26Z</time>
      </trkpt>
      <trkpt lat="42.3328250" lon="-3.5553480">
        <ele>918.0</ele>
        <time>2020-04-02T19:10:28Z</time>
      </trkpt>
      <trkpt lat="42.3328340" lon="-3.5554990">
        <ele>917.8</ele>
        <time>2020-04-02T19:10:30Z</time>
      </trkpt>
      <trkpt lat="42.3328610" lon="-3.5559440">
        <ele>917.5</ele>
        <time>2020-04-02T19:10:32Z</time>
      </trkpt>
      <trkpt lat="42.3328710" lon="-3.5561060">
        <ele>917.5</ele>
        <time>2020-04-02T19:10:34Z</time>
      </trkpt>
      <trkpt lat="42.3328800" lon="-3.5562700">
        <ele>917.4</ele>
        <time>2020-04-02T19:10:36Z</time>
      </trkpt>
      <trkpt lat="42.3328900" lon="-3.5564380">
        <ele>917.4</ele>
        <time>2020-04-02T19:10:38Z</time>
      </trkpt>
      <trkpt lat="42.3329000" lon="-3.5566070">
        <ele>917.4</ele>
        <time>2020-04-02T19:10:40Z</time>
      </trkpt>
      <trkpt lat="42.3329270" lon="-3.5570650">
        <ele>917.4</ele>
        <time>2020-04-02T19:10:42Z</time>
      </trkpt>
      <trkpt lat="42.3329370" lon="-3.5572330">
        <ele>917.4</ele>
        <time>2020-04-02T19:10:44Z</time>
      </trkpt>
      <trkpt lat="42.3329470" lon="-3.5574020">
        <ele>917.3</ele>
        <time>2020-04-02T19:10:46Z</time>
      </trkpt>
      <trkpt lat="42.3329580" lon="-3.5575710">
        <ele>917.3</ele>
        <time>2020-04-02T19:10:48Z</time>
      </trkpt>
      <trkpt lat="42.3329680" lon="-3.5577400">
        <ele>917.1</ele>
        <time>2020-04-02T19:10:50Z</time>
      </trkpt>
      <trkpt lat="42.3329950" lon="-3.5581950">
        <ele>916.6</ele>
        <time>2020-04-02T19:10:52Z</time>
      </trkpt>
      <trkpt lat="42.3330050" lon="-3.5583640">
        <ele>916.6</ele>
        <time>2020-04-02T19:10:54Z</time>
      </trkpt>
      <trkpt lat="42.3330150" lon="-3.5585330">
        <ele>916.8</ele>
        <time>2020-04-02T19:10:56Z</time>
      </trkpt>
      <trkpt lat="42.3330250" lon="-3.5587000">
        <ele>917.0</ele>
        <time>2020-04-02T19:10:58Z</time>
      </trkpt>
      <trkpt lat="42.3330350" lon="-3.5588680">
        <ele>917.0</ele>
        <time>2020-04-02T19:11:00Z</time>
      </trkpt>
      <trkpt lat="42.3330620" lon="-3.5593260">
        <ele>917.1</ele>
        <time>2020-04-02T19:11:02Z</time>
      </trkpt>
      <trkpt lat="42.3330720" lon="-3.5595010">
        <ele>916.9</ele>
        <time>2020-04-02T19:11:04Z</time>
      </trkpt>
      <trkpt lat="42.3330830" lon="-3.5596780">
        <ele>916.8</ele>
        <time>2020-04-02T19:11:06Z</time>
      </trkpt>
      <trkpt lat="42.3330930" lon="-3.5598560">
        <ele>916.6</ele>
        <time>2020-04-02T19:11:08Z</time>
      </trkpt>
      <trkpt lat="42.3331210" lon="-3.5603240">
        <ele>916.0</ele>
        <time>2020-04-02T19:11:10Z</time>
      </trkpt>
      <trkpt lat="42.3331310" lon="-3.5604980">
        <ele>915.5</ele>
        <time>2020-04-02T19:11:12Z</time>
      </trkpt>
      <trkpt lat="42.3331410" lon="-3.5606660">
        <ele>915.1</ele>
        <time>2020-04-02T19:11:14Z</time>
      </trkpt>
      <trkpt lat="42.3331520" lon="-3.5608390">
        <ele>914.8</ele>
        <time>2020-04-02T19:11:16Z</time>
      </trkpt>
      <trkpt lat="42.3331620" lon="-3.5610190">
        <ele>914.7</ele>
        <time>2020-04-02T19:11:18Z</time>
      </trkpt>
      <trkpt lat="42.3331900" lon="-3.5614890">
        <ele>914.4</ele>
        <time>2020-04-02T19:11:20Z</time>
      </trkpt>
      <trkpt lat="42.3332010" lon="-3.5616700">
        <ele>914.3</ele>
        <time>2020-04-02T19:11:22Z</time>
      </trkpt>
      <trkpt lat="42.3332120" lon="-3.5618520">
        <ele>914.2</ele>
        <time>2020-04-02T19:11:24Z</time>
      </trkpt>
      <trkpt lat="42.3332220" lon="-3.5620330">
        <ele>914.1</ele>
        <time>2020-04-02T19:11:26Z</time>
      </trkpt>
      <trkpt lat="42.3332500" lon="-3.5625020">
        <ele>913.8</ele>
        <time>2020-04-02T19:11:28Z</time>
      </trkpt>
      <trkpt lat="42.3332610" lon="-3.5626820">
        <ele>913.7</ele>
        <time>2020-04-02T19:11:30Z</time>
      </trkpt>
      <trkpt lat="42.3332720" lon="-3.5628640">
        <ele>913.5</ele>
        <time>2020-04-02T19:11:32Z</time>
      </trkpt>
      <trkpt lat="42.3332830" lon="-3.5630470">
        <ele>913.3</ele>
        <time>2020-04-02T19:11:34Z</time>
      </trkpt>
      <trkpt lat="42.3332930" lon="-3.5632270">
        <ele>913.2</ele>
        <time>2020-04-02T19:11:36Z</time>
      </trkpt>
      <trkpt lat="42.3333210" lon="-3.5636960">
        <ele>912.9</ele>
        <time>2020-04-02T19:11:38Z</time>
      </trkpt>
      <trkpt lat="42.3333320" lon="-3.5638740">
        <ele>912.8</ele>
        <time>2020-04-02T19:11:40Z</time>
      </trkpt>
      <trkpt lat="42.3333420" lon="-3.5640510">
        <ele>912.7</ele>
        <time>2020-04-02T19:11:42Z</time>
      </trkpt>
      <trkpt lat="42.3333530" lon="-3.5642260">
        <ele>912.7</ele>
        <time>2020-04-02T19:11:44Z</time>
      </trkpt>
      <trkpt lat="42.3333800" lon="-3.5646900">
        <ele>912.6</ele>
        <time>2020-04-02T19:11:46Z</time>
      </trkpt>
      <trkpt lat="42.3333910" lon="-3.5648670">
        <ele>912.6</ele>
        <time>2020-04-02T19:11:48Z</time>
      </trkpt>
      <trkpt lat="42.3334010" lon="-3.5650440">
        <ele>912.5</ele>
        <time>2020-04-02T19:11:50Z</time>
      </trkpt>
      <trkpt lat="42.3334110" lon="-3.5652180">
        <ele>912.4</ele>
        <time>2020-04-02T19:11:52Z</time>
      </trkpt>
      <trkpt lat="42.3334220" lon="-3.5653950">
        <ele>912.3</ele>
        <time>2020-04-02T19:11:54Z</time>
      </trkpt>
      <trkpt lat="42.3334490" lon="-3.5658590">
        <ele>912.0</ele>
        <time>2020-04-02T19:11:56Z</time>
      </trkpt>
      <trkpt lat="42.3334600" lon="-3.5660310">
        <ele>912.0</ele>
        <time>2020-04-02T19:11:58Z</time>
      </trkpt>
      <trkpt lat="42.3334700" lon="-3.5662050">
        <ele>912.0</ele>
        <time>2020-04-02T19:12:00Z</time>
      </trkpt>
      <trkpt lat="42.3334800" lon="-3.5663790">
        <ele>911.9</ele>
        <time>2020-04-02T19:12:02Z</time>
      </trkpt>
      <trkpt lat="42.3334910" lon="-3.5665520">
        <ele>911.8</ele>
        <time>2020-04-02T19:12:04Z</time>
      </trkpt>
      <trkpt lat="42.3335240" lon="-3.5670120">
        <ele>911.9</ele>
        <time>2020-04-02T19:12:06Z</time>
      </trkpt>
      <trkpt lat="42.3335420" lon="-3.5671840">
        <ele>912.2</ele>
        <time>2020-04-02T19:12:08Z</time>
      </trkpt>
      <trkpt lat="42.3335600" lon="-3.5673570">
        <ele>912.4</ele>
        <time>2020-04-02T19:12:10Z</time>
      </trkpt>
      <trkpt lat="42.3335990" lon="-3.5677280">
        <ele>912.2</ele>
        <time>2020-04-02T19:12:12Z</time>
      </trkpt>
      <trkpt lat="42.3336170" lon="-3.5679000">
        <ele>912.0</ele>
        <time>2020-04-02T19:12:14Z</time>
      </trkpt>
      <trkpt lat="42.3336360" lon="-3.5680730">
        <ele>911.7</ele>
        <time>2020-04-02T19:12:16Z</time>
      </trkpt>
      <trkpt lat="42.3336770" lon="-3.5684430">
        <ele>911.2</ele>
        <time>2020-04-02T19:12:18Z</time>
      </trkpt>
      <trkpt lat="42.3337060" lon="-3.5686110">
        <ele>911.2</ele>
        <time>2020-04-02T19:12:20Z</time>
      </trkpt>
      <trkpt lat="42.3337350" lon="-3.5687780">
        <ele>911.3</ele>
        <time>2020-04-02T19:12:22Z</time>
      </trkpt>
      <trkpt lat="42.3337640" lon="-3.5689430">
        <ele>911.4</ele>
        <time>2020-04-02T19:12:24Z</time>
      </trkpt>
      <trkpt lat="42.3337930" lon="-3.5691080">
        <ele>911.3</ele>
        <time>2020-04-02T19:12:26Z</time>
      </trkpt>
      <trkpt lat="42.3338680" lon="-3.5695420">
        <ele>911.2</ele>
        <time>2020-04-02T19:12:28Z</time>
      </trkpt>
      <trkpt lat="42.3338960" lon="-3.5697060">
        <ele>911.2</ele>
        <time>2020-04-02T19:12:30Z</time>
      </trkpt>
      <trkpt lat="42.3339250" lon="-3.5698700">
        <ele>911.2</ele>
        <time>2020-04-02T19:12:32Z</time>
      </trkpt>
      <trkpt lat="42.3339530" lon="-3.5700340">
        <ele>911.1</ele>
        <time>2020-04-02T19:12:34Z</time>
      </trkpt>
      <trkpt lat="42.3340280" lon="-3.5704680">
        <ele>910.9</ele>
        <time>2020-04-02T19:12:36Z</time>
      </trkpt>
      <trkpt lat="42.3340570" lon="-3.5706350">
        <ele>910.8</ele>
        <time>2020-04-02T19:12:38Z</time>
      </trkpt>
      <trkpt lat="42.3340870" lon="-3.5708070">
        <ele>910.6</ele>
        <time>2020-04-02T19:12:40Z</time>
      </trkpt>
      <trkpt lat="42.3341180" lon="-3.5709850">
        <ele>910.3</ele>
        <time>2020-04-02T19:12:42Z</time>
      </trkpt>
      <trkpt lat="42.3341490" lon="-3.5711670">
        <ele>909.9</ele>
        <time>2020-04-02T19:12:44Z</time>
      </trkpt>
      <trkpt lat="42.3342270" lon="-3.5716170">
        <ele>909.1</ele>
        <time>2020-04-02T19:12:46Z</time>
      </trkpt>
      <trkpt lat="42.3342590" lon="-3.5718020">
        <ele>908.8</ele>
        <time>2020-04-02T19:12:48Z</time>
      </trkpt>
      <trkpt lat="42.3342910" lon="-3.5719890">
        <ele>908.4</ele>
        <time>2020-04-02T19:12:50Z</time>
      </trkpt>
      <trkpt lat="42.3343240" lon="-3.5721770">
        <ele>908.1</ele>
        <time>2020-04-02T19:12:52Z</time>
      </trkpt>
      <trkpt lat="42.3344030" lon="-3.5726330">
        <ele>907.7</ele>
        <time>2020-04-02T19:12:54Z</time>
      </trkpt>
      <trkpt lat="42.3344340" lon="-3.5728130">
        <ele>907.6</ele>
        <time>2020-04-02T19:12:56Z</time>
      </trkpt>
      <trkpt lat="42.3344640" lon="-3.5729850">
        <ele>907.5</ele>
        <time>2020-04-02T19:12:58Z</time>
      </trkpt>
      <trkpt lat="42.3344930" lon="-3.5731520">
        <ele>907.5</ele>
        <time>2020-04-02T19:13:00Z</time>
      </trkpt>
      <trkpt lat="42.3345680" lon="-3.5735850">
        <ele>907.7</ele>
        <time>2020-04-02T19:13:02Z</time>
      </trkpt>
      <trkpt lat="42.3345960" lon="-3.5737500">
        <ele>907.8</ele>
        <time>2020-04-02T19:13:04Z</time>
      </trkpt>
      <trkpt lat="42.3346250" lon="-3.5739140">
        <ele>907.7</ele>
        <time>2020-04-02T19:13:06Z</time>
      </trkpt>
      <trkpt lat="42.3346530" lon="-3.5740790">
        <ele>907.7</ele>
        <time>2020-04-02T19:13:08Z</time>
      </trkpt>
      <trkpt lat="42.3346820" lon="-3.5742430">
        <ele>907.7</ele>
        <time>2020-04-02T19:13:10Z</time>
      </trkpt>
      <trkpt lat="42.3347530" lon="-3.5746750">
        <ele>907.7</ele>
        <time>2020-04-02T19:13:12Z</time>
      </trkpt>
      <trkpt lat="42.3347750" lon="-3.5748370">
        <ele>907.7</ele>
        <time>2020-04-02T19:13:14Z</time>
      </trkpt>
      <trkpt lat="42.3347980" lon="-3.5750010">
        <ele>907.6</ele>
        <time>2020-04-02T19:13:16Z</time>
      </trkpt>
      <trkpt lat="42.3348200" lon="-3.5751670">
        <ele>907.6</ele>
        <time>2020-04-02T19:13:18Z</time>
      </trkpt>
      <trkpt lat="42.3348790" lon="-3.5755780">
        <ele>907.6</ele>
        <time>2020-04-02T19:13:20Z</time>
      </trkpt>
      <trkpt lat="42.3349080" lon="-3.5757410">
        <ele>907.6</ele>
        <time>2020-04-02T19:13:22Z</time>
      </trkpt>
      <trkpt lat="42.3349370" lon="-3.5759070">
        <ele>907.5</ele>
        <time>2020-04-02T19:13:24Z</time>
      </trkpt>
      <trkpt lat="42.3349680" lon="-3.5760760">
        <ele>907.4</ele>
        <time>2020-04-02T19:13:26Z</time>
      </trkpt>
      <trkpt lat="42.3349980" lon="-3.5762440">
        <ele>907.2</ele>
        <time>2020-04-02T19:13:28Z</time>
      </trkpt>
      <trkpt lat="42.3350830" lon="-3.5767200">
        <ele>906.9</ele>
        <time>2020-04-02T19:13:30Z</time>
      </trkpt>
      <trkpt lat="42.3351130" lon="-3.5768920">
        <ele>906.9</ele>
        <time>2020-04-02T19:13:32Z</time>
      </trkpt>
      <trkpt lat="42.3351440" lon="-3.5770640">
        <ele>906.9</ele>
        <time>2020-04-02T19:13:34Z</time>
      </trkpt>
      <trkpt lat="42.3351750" lon="-3.5772350">
        <ele>906.9</ele>
        <time>2020-04-02T19:13:36Z</time>
      </trkpt>
      <trkpt lat="42.3352060" lon="-3.5774090">
        <ele>906.9</ele>
        <time>2020-04-02T19:13:38Z</time>
      </trkpt>
      <trkpt lat="42.3352910" lon="-3.5778870">
        <ele>906.3</ele>
        <time>2020-04-02T19:13:40Z</time>
      </trkpt>
      <trkpt lat="42.3353220" lon="-3.5780610">
        <ele>906.1</ele>
        <time>2020-04-02T19:13:42Z</time>
      </trkpt>
      <trkpt lat="42.3353530" lon="-3.5782340">
        <ele>906.1</ele>
        <time>2020-04-02T19:13:44Z</time>
      </trkpt>
      <trkpt lat="42.3353840" lon="-3.5784080">
        <ele>906.1</ele>
        <time>2020-04-02T19:13:46Z</time>
      </trkpt>
      <trkpt lat="42.3354150" lon="-3.5785820">
        <ele>906.1</ele>
        <time>2020-04-02T19:13:48Z</time>
      </trkpt>
      <trkpt lat="42.3355000" lon="-3.5790580">
        <ele>906.1</ele>
        <time>2020-04-02T19:13:50Z</time>
      </trkpt>
      <trkpt lat="42.3355300" lon="-3.5792250">
        <ele>905.9</ele>
        <time>2020-04-02T19:13:52Z</time>
      </trkpt>
      <trkpt lat="42.3355580" lon="-3.5793820">
        <ele>905.6</ele>
        <time>2020-04-02T19:13:54Z</time>
      </trkpt>
      <trkpt lat="42.3355870" lon="-3.5795410">
        <ele>905.4</ele>
        <time>2020-04-02T19:13:56Z</time>
      </trkpt>
      <trkpt lat="42.3356160" lon="-3.5797050">
        <ele>905.3</ele>
        <time>2020-04-02T19:13:58Z</time>
      </trkpt>
      <trkpt lat="42.3356460" lon="-3.5798710">
        <ele>905.3</ele>
        <time>2020-04-02T19:14:00Z</time>
      </trkpt>
      <trkpt lat="42.3357300" lon="-3.5803470">
        <ele>905.3</ele>
        <time>2020-04-02T19:14:02Z</time>
      </trkpt>
      <trkpt lat="42.3357610" lon="-3.5805190">
        <ele>905.3</ele>
        <time>2020-04-02T19:14:04Z</time>
      </trkpt>
      <trkpt lat="42.3357930" lon="-3.5806950">
        <ele>905.3</ele>
        <time>2020-04-02T19:14:06Z</time>
      </trkpt>
      <trkpt lat="42.3358240" lon="-3.5808720">
        <ele>905.2</ele>
        <time>2020-04-02T19:14:08Z</time>
      </trkpt>
      <trkpt lat="42.3358560" lon="-3.5810490">
        <ele>904.9</ele>
        <time>2020-04-02T19:14:10Z</time>
      </trkpt>
      <trkpt lat="42.3359420" lon="-3.5815290">
        <ele>904.4</ele>
        <time>2020-04-02T19:14:12Z</time>
      </trkpt>
      <trkpt lat="42.3359720" lon="-3.5817010">
        <ele>904.4</ele>
        <time>2020-04-02T19:14:14Z</time>
      </trkpt>
      <trkpt lat="42.3360030" lon="-3.5818740">
        <ele>904.4</ele>
        <time>2020-04-02T19:14:16Z</time>
      </trkpt>
      <trkpt lat="42.3360340" lon="-3.5820480">
        <ele>904.2</ele>
        <time>2020-04-02T19:14:18Z</time>
      </trkpt>
      <trkpt lat="42.3360650" lon="-3.5822210">
        <ele>903.9</ele>
        <time>2020-04-02T19:14:20Z</time>
      </trkpt>
      <trkpt lat="42.3361510" lon="-3.5827000">
        <ele>903.5</ele>
        <time>2020-04-02T19:14:22Z</time>
      </trkpt>
      <trkpt lat="42.3361820" lon="-3.5828770">
        <ele>902.8</ele>
        <time>2020-04-02T19:14:24Z</time>
      </trkpt>
      <trkpt lat="42.3362140" lon="-3.5830550">
        <ele>902.1</ele>
        <time>2020-04-02T19:14:26Z</time>
      </trkpt>
      <trkpt lat="42.3362460" lon="-3.5832350">
        <ele>901.7</ele>
        <time>2020-04-02T19:14:28Z</time>
      </trkpt>
      <trkpt lat="42.3363330" lon="-3.5837200">
        <ele>901.5</ele>
        <time>2020-04-02T19:14:30Z</time>
      </trkpt>
      <trkpt lat="42.3363650" lon="-3.5839010">
        <ele>901.4</ele>
        <time>2020-04-02T19:14:32Z</time>
      </trkpt>
      <trkpt lat="42.3363980" lon="-3.5840830">
        <ele>901.1</ele>
        <time>2020-04-02T19:14:34Z</time>
      </trkpt>
      <trkpt lat="42.3364300" lon="-3.5842620">
        <ele>900.8</ele>
        <time>2020-04-02T19:14:36Z</time>
      </trkpt>
      <trkpt lat="42.3364620" lon="-3.5844430">
        <ele>900.7</ele>
        <time>2020-04-02T19:14:38Z</time>
      </trkpt>
      <trkpt lat="42.3365490" lon="-3.5849290">
        <ele>900.6</ele>
        <time>2020-04-02T19:14:40Z</time>
      </trkpt>
      <trkpt lat="42.3365810" lon="-3.5851110">
        <ele>900.5</ele>
        <time>2020-04-02T19:14:42Z</time>
      </trkpt>
      <trkpt lat="42.3366140" lon="-3.5852920">
        <ele>900.3</ele>
        <time>2020-04-02T19:14:44Z</time>
      </trkpt>
      <trkpt lat="42.3366460" lon="-3.5854740">
        <ele>900.1</ele>
        <time>2020-04-02T19:14:46Z</time>
      </trkpt>
      <trkpt lat="42.3366790" lon="-3.5856560">
        <ele>899.9</ele>
        <time>2020-04-02T19:14:48Z</time>
      </trkpt>
      <trkpt lat="42.3367650" lon="-3.5861400">
        <ele>899.7</ele>
        <time>2020-04-02T19:14:50Z</time>
      </trkpt>
      <trkpt lat="42.3367960" lon="-3.5863140">
        <ele>899.7</ele>
        <time>2020-04-02T19:14:52Z</time>
      </trkpt>
      <trkpt lat="42.3368270" lon="-3.5864840">
        <ele>899.6</ele>
        <time>2020-04-02T19:14:54Z</time>
      </trkpt>
      <trkpt lat="42.3368560" lon="-3.5866510">
        <ele>899.4</ele>
        <time>2020-04-02T19:14:56Z</time>
      </trkpt>
      <trkpt lat="42.3368860" lon="-3.5868140">
        <ele>899.0</ele>
        <time>2020-04-02T19:14:58Z</time>
      </trkpt>
      <trkpt lat="42.3369690" lon="-3.5872840">
        <ele>898.4</ele>
        <time>2020-04-02T19:15:00Z</time>
      </trkpt>
      <trkpt lat="42.3369990" lon="-3.5874480">
        <ele>898.6</ele>
        <time>2020-04-02T19:15:02Z</time>
      </trkpt>
      <trkpt lat="42.3370280" lon="-3.5876120">
        <ele>898.7</ele>
        <time>2020-04-02T19:15:04Z</time>
      </trkpt>
      <trkpt lat="42.3370570" lon="-3.5877740">
        <ele>898.9</ele>
        <time>2020-04-02T19:15:06Z</time>
      </trkpt>
      <trkpt lat="42.3370860" lon="-3.5879350">
        <ele>899.2</ele>
        <time>2020-04-02T19:15:08Z</time>
      </trkpt>
      <trkpt lat="42.3371690" lon="-3.5884000">
        <ele>899.7</ele>
        <time>2020-04-02T19:15:10Z</time>
      </trkpt>
      <trkpt lat="42.3371980" lon="-3.5885630">
        <ele>899.7</ele>
        <time>2020-04-02T19:15:12Z</time>
      </trkpt>
      <trkpt lat="42.3372270" lon="-3.5887290">
        <ele>899.8</ele>
        <time>2020-04-02T19:15:14Z</time>
      </trkpt>
      <trkpt lat="42.3372570" lon="-3.5888950">
        <ele>899.8</ele>
        <time>2020-04-02T19:15:16Z</time>
      </trkpt>
      <trkpt lat="42.3372870" lon="-3.5890620">
        <ele>899.8</ele>
        <time>2020-04-02T19:15:18Z</time>
      </trkpt>
      <trkpt lat="42.3373170" lon="-3.5892310">
        <ele>899.8</ele>
        <time>2020-04-02T19:15:20Z</time>
      </trkpt>
      <trkpt lat="42.3374020" lon="-3.5897050">
        <ele>899.6</ele>
        <time>2020-04-02T19:15:22Z</time>
      </trkpt>
      <trkpt lat="42.3374320" lon="-3.5898750">
        <ele>899.4</ele>
        <time>2020-04-02T19:15:24Z</time>
      </trkpt>
      <trkpt lat="42.3374620" lon="-3.5900440">
        <ele>899.3</ele>
        <time>2020-04-02T19:15:26Z</time>
      </trkpt>
      <trkpt lat="42.3374930" lon="-3.5902160">
        <ele>899.2</ele>
        <time>2020-04-02T19:15:28Z</time>
      </trkpt>
      <trkpt lat="42.3375240" lon="-3.5903880">
        <ele>899.1</ele>
        <time>2020-04-02T19:15:30Z</time>
      </trkpt>
      <trkpt lat="42.3376090" lon="-3.5908640">
        <ele>898.9</ele>
        <time>2020-04-02T19:15:32Z</time>
      </trkpt>
      <trkpt lat="42.3376390" lon="-3.5910350">
        <ele>898.8</ele>
        <time>2020-04-02T19:15:34Z</time>
      </trkpt>
      <trkpt lat="42.3376700" lon="-3.5912050">
        <ele>898.7</ele>
        <time>2020-04-02T19:15:36Z</time>
      </trkpt>
      <trkpt lat="42.3377000" lon="-3.5913740">
        <ele>898.6</ele>
        <time>2020-04-02T19:15:38Z</time>
      </trkpt>
      <trkpt lat="42.3377300" lon="-3.5915460">
        <ele>898.4</ele>
        <time>2020-04-02T19:15:40Z</time>
      </trkpt>
      <trkpt lat="42.3378220" lon="-3.5920200">
        <ele>898.0</ele>
        <time>2020-04-02T19:15:42Z</time>
      </trkpt>
      <trkpt lat="42.3378600" lon="-3.5921900">
        <ele>897.9</ele>
        <time>2020-04-02T19:15:44Z</time>
      </trkpt>
      <trkpt lat="42.3378990" lon="-3.5923580">
        <ele>897.9</ele>
        <time>2020-04-02T19:15:46Z</time>
      </trkpt>
      <trkpt lat="42.3379370" lon="-3.5925270">
        <ele>897.8</ele>
        <time>2020-04-02T19:15:48Z</time>
      </trkpt>
      <trkpt lat="42.3380240" lon="-3.5929290">
        <ele>897.1</ele>
        <time>2020-04-02T19:15:50Z</time>
      </trkpt>
      <trkpt lat="42.3380580" lon="-3.5931000">
        <ele>896.6</ele>
        <time>2020-04-02T19:15:52Z</time>
      </trkpt>
      <trkpt lat="42.3381240" lon="-3.5934290">
        <ele>895.9</ele>
        <time>2020-04-02T19:15:54Z</time>
      </trkpt>
      <trkpt lat="42.3381590" lon="-3.5936040">
        <ele>895.7</ele>
        <time>2020-04-02T19:15:56Z</time>
      </trkpt>
      <trkpt lat="42.3381940" lon="-3.5937800">
        <ele>895.6</ele>
        <time>2020-04-02T19:15:58Z</time>
      </trkpt>
      <trkpt lat="42.3382570" lon="-3.5941140">
        <ele>895.4</ele>
        <time>2020-04-02T19:16:00Z</time>
      </trkpt>
      <trkpt lat="42.3382880" lon="-3.5942880">
        <ele>895.3</ele>
        <time>2020-04-02T19:16:02Z</time>
      </trkpt>
      <trkpt lat="42.3383190" lon="-3.5944620">
        <ele>895.3</ele>
        <time>2020-04-02T19:16:04Z</time>
      </trkpt>
      <trkpt lat="42.3383500" lon="-3.5946340">
        <ele>895.3</ele>
        <time>2020-04-02T19:16:06Z</time>
      </trkpt>
      <trkpt lat="42.3384320" lon="-3.5950980">
        <ele>895.7</ele>
        <time>2020-04-02T19:16:08Z</time>
      </trkpt>
      <trkpt lat="42.3384620" lon="-3.5952670">
        <ele>895.9</ele>
        <time>2020-04-02T19:16:10Z</time>
      </trkpt>
      <trkpt lat="42.3384920" lon="-3.5954340">
        <ele>896.0</ele>
        <time>2020-04-02T19:16:12Z</time>
      </trkpt>
      <trkpt lat="42.3385220" lon="-3.5956000">
        <ele>896.1</ele>
        <time>2020-04-02T19:16:14Z</time>
      </trkpt>
      <trkpt lat="42.3385510" lon="-3.5957650">
        <ele>896.2</ele>
        <time>2020-04-02T19:16:16Z</time>
      </trkpt>
      <trkpt lat="42.3386320" lon="-3.5962220">
        <ele>896.1</ele>
        <time>2020-04-02T19:16:18Z</time>
      </trkpt>
      <trkpt lat="42.3386610" lon="-3.5963860">
        <ele>896.3</ele>
        <time>2020-04-02T19:16:20Z</time>
      </trkpt>
      <trkpt lat="42.3386910" lon="-3.5965550">
        <ele>896.6</ele>
        <time>2020-04-02T19:16:22Z</time>
      </trkpt>
      <trkpt lat="42.3387220" lon="-3.5967260">
        <ele>896.8</ele>
        <time>2020-04-02T19:16:24Z</time>
      </trkpt>
      <trkpt lat="42.3387520" lon="-3.5968970">
        <ele>896.6</ele>
        <time>2020-04-02T19:16:26Z</time>
      </trkpt>
      <trkpt lat="42.3388350" lon="-3.5973650">
        <ele>896.1</ele>
        <time>2020-04-02T19:16:28Z</time>
      </trkpt>
      <trkpt lat="42.3388670" lon="-3.5975420">
        <ele>895.8</ele>
        <time>2020-04-02T19:16:30Z</time>
      </trkpt>
      <trkpt lat="42.3388980" lon="-3.5977190">
        <ele>895.5</ele>
        <time>2020-04-02T19:16:32Z</time>
      </trkpt>
      <trkpt lat="42.3389300" lon="-3.5978960">
        <ele>895.2</ele>
        <time>2020-04-02T19:16:34Z</time>
      </trkpt>
      <trkpt lat="42.3389610" lon="-3.5980730">
        <ele>894.9</ele>
        <time>2020-04-02T19:16:36Z</time>
      </trkpt>
      <trkpt lat="42.3390420" lon="-3.5985490">
        <ele>894.0</ele>
        <time>2020-04-02T19:16:38Z</time>
      </trkpt>
      <trkpt lat="42.3390660" lon="-3.5987320">
        <ele>893.8</ele>
        <time>2020-04-02T19:16:40Z</time>
      </trkpt>
      <trkpt lat="42.3390910" lon="-3.5989140">
        <ele>893.5</ele>
        <time>2020-04-02T19:16:42Z</time>
      </trkpt>
      <trkpt lat="42.3391400" lon="-3.5992830">
        <ele>892.8</ele>
        <time>2020-04-02T19:16:44Z</time>
      </trkpt>
      <trkpt lat="42.3391650" lon="-3.5994660">
        <ele>892.6</ele>
        <time>2020-04-02T19:16:46Z</time>
      </trkpt>
      <trkpt lat="42.3391890" lon="-3.5996480">
        <ele>892.6</ele>
        <time>2020-04-02T19:16:48Z</time>
      </trkpt>
      <trkpt lat="42.3392440" lon="-3.6000130">
        <ele>892.7</ele>
        <time>2020-04-02T19:16:50Z</time>
      </trkpt>
      <trkpt lat="42.3392750" lon="-3.6001870">
        <ele>892.7</ele>
        <time>2020-04-02T19:16:52Z</time>
      </trkpt>
      <trkpt lat="42.3393050" lon="-3.6003550">
        <ele>892.7</ele>
        <time>2020-04-02T19:16:54Z</time>
      </trkpt>
      <trkpt lat="42.3393340" lon="-3.6005180">
        <ele>892.8</ele>
        <time>2020-04-02T19:16:56Z</time>
      </trkpt>
      <trkpt lat="42.3393620" lon="-3.6006780">
        <ele>892.8</ele>
        <time>2020-04-02T19:16:58Z</time>
      </trkpt>
      <trkpt lat="42.3394450" lon="-3.6011410">
        <ele>893.3</ele>
        <time>2020-04-02T19:17:00Z</time>
      </trkpt>
      <trkpt lat="42.3394730" lon="-3.6012960">
        <ele>893.6</ele>
        <time>2020-04-02T19:17:02Z</time>
      </trkpt>
      <trkpt lat="42.3395000" lon="-3.6014490">
        <ele>894.0</ele>
        <time>2020-04-02T19:17:04Z</time>
      </trkpt>
      <trkpt lat="42.3395270" lon="-3.6016020">
        <ele>894.3</ele>
        <time>2020-04-02T19:17:06Z</time>
      </trkpt>
      <trkpt lat="42.3395540" lon="-3.6017540">
        <ele>894.6</ele>
        <time>2020-04-02T19:17:08Z</time>
      </trkpt>
      <trkpt lat="42.3395810" lon="-3.6019030">
        <ele>894.7</ele>
        <time>2020-04-02T19:17:10Z</time>
      </trkpt>
      <trkpt lat="42.3396630" lon="-3.6023600">
        <ele>894.8</ele>
        <time>2020-04-02T19:17:12Z</time>
      </trkpt>
      <trkpt lat="42.3396900" lon="-3.6025120">
        <ele>894.8</ele>
        <time>2020-04-02T19:17:14Z</time>
      </trkpt>
      <trkpt lat="42.3397170" lon="-3.6026660">
        <ele>894.8</ele>
        <time>2020-04-02T19:17:16Z</time>
      </trkpt>
      <trkpt lat="42.3397450" lon="-3.6028210">
        <ele>894.8</ele>
        <time>2020-04-02T19:17:18Z</time>
      </trkpt>
      <trkpt lat="42.3397730" lon="-3.6029780">
        <ele>894.8</ele>
        <time>2020-04-02T19:17:20Z</time>
      </trkpt>
      <trkpt lat="42.3398550" lon="-3.6034400">
        <ele>894.7</ele>
        <time>2020-04-02T19:17:22Z</time>
      </trkpt>
      <trkpt lat="42.3398830" lon="-3.6035970">
        <ele>894.4</ele>
        <time>2020-04-02T19:17:24Z</time>
      </trkpt>
      <trkpt lat="42.3399120" lon="-3.6037560">
        <ele>894.4</ele>
        <time>2020-04-02T19:17:26Z</time>
      </trkpt>
      <trkpt lat="42.3399400" lon="-3.6039160">
        <ele>894.5</ele>
        <time>2020-04-02T19:17:28Z</time>
      </trkpt>
      <trkpt lat="42.3399690" lon="-3.6040760">
        <ele>894.6</ele>
        <time>2020-04-02T19:17:30Z</time>
      </trkpt>
      <trkpt lat="42.3399980" lon="-3.6042370">
        <ele>894.6</ele>
        <time>2020-04-02T19:17:32Z</time>
      </trkpt>
      <trkpt lat="42.3400810" lon="-3.6047030">
        <ele>894.9</ele>
        <time>2020-04-02T19:17:34Z</time>
      </trkpt>
      <trkpt lat="42.3401090" lon="-3.6048620">
        <ele>895.0</ele>
        <time>2020-04-02T19:17:36Z</time>
      </trkpt>
      <trkpt lat="42.3401380" lon="-3.6050220">
        <ele>895.0</ele>
        <time>2020-04-02T19:17:38Z</time>
      </trkpt>
      <trkpt lat="42.3401660" lon="-3.6051790">
        <ele>895.0</ele>
        <time>2020-04-02T19:17:40Z</time>
      </trkpt>
      <trkpt lat="42.3401930" lon="-3.6053340">
        <ele>895.0</ele>
        <time>2020-04-02T19:17:42Z</time>
      </trkpt>
      <trkpt lat="42.3402760" lon="-3.6057960">
        <ele>895.0</ele>
        <time>2020-04-02T19:17:44Z</time>
      </trkpt>
      <trkpt lat="42.3403040" lon="-3.6059530">
        <ele>895.0</ele>
        <time>2020-04-02T19:17:46Z</time>
      </trkpt>
      <trkpt lat="42.3403320" lon="-3.6061090">
        <ele>895.1</ele>
        <time>2020-04-02T19:17:48Z</time>
      </trkpt>
      <trkpt lat="42.3403590" lon="-3.6062650">
        <ele>895.1</ele>
        <time>2020-04-02T19:17:50Z</time>
      </trkpt>
      <trkpt lat="42.3403870" lon="-3.6064220">
        <ele>895.2</ele>
        <time>2020-04-02T19:17:52Z</time>
      </trkpt>
      <trkpt lat="42.3404160" lon="-3.6065790">
        <ele>895.4</ele>
        <time>2020-04-02T19:17:54Z</time>
      </trkpt>
      <trkpt lat="42.3404980" lon="-3.6070440">
        <ele>895.7</ele>
        <time>2020-04-02T19:17:56Z</time>
      </trkpt>
      <trkpt lat="42.3405280" lon="-3.6072130">
        <ele>895.7</ele>
        <time>2020-04-02T19:17:58Z</time>
      </trkpt>
      <trkpt lat="42.3405600" lon="-3.6073890">
        <ele>895.7</ele>
        <time>2020-04-02T19:18:00Z</time>
      </trkpt>
      <trkpt lat="42.3405920" lon="-3.6075710">
        <ele>895.7</ele>
        <time>2020-04-02T19:18:02Z</time>
      </trkpt>
      <trkpt lat="42.3406250" lon="-3.6077560">
        <ele>895.5</ele>
        <time>2020-04-02T19:18:04Z</time>
      </trkpt>
      <trkpt lat="42.3407140" lon="-3.6082510">
        <ele>893.8</ele>
        <time>2020-04-02T19:18:06Z</time>
      </trkpt>
      <trkpt lat="42.3407480" lon="-3.6084450">
        <ele>893.1</ele>
        <time>2020-04-02T19:18:08Z</time>
      </trkpt>
      <trkpt lat="42.3407830" lon="-3.6086370">
        <ele>892.4</ele>
        <time>2020-04-02T19:18:10Z</time>
      </trkpt>
      <trkpt lat="42.3408180" lon="-3.6088350">
        <ele>891.8</ele>
        <time>2020-04-02T19:18:12Z</time>
      </trkpt>
      <trkpt lat="42.3409080" lon="-3.6093380">
        <ele>890.7</ele>
        <time>2020-04-02T19:18:14Z</time>
      </trkpt>
      <trkpt lat="42.3409410" lon="-3.6095260">
        <ele>890.4</ele>
        <time>2020-04-02T19:18:16Z</time>
      </trkpt>
      <trkpt lat="42.3409740" lon="-3.6097100">
        <ele>890.0</ele>
        <time>2020-04-02T19:18:18Z</time>
      </trkpt>
      <trkpt lat="42.3410060" lon="-3.6098910">
        <ele>889.6</ele>
        <time>2020-04-02T19:18:20Z</time>
      </trkpt>
      <trkpt lat="42.3410380" lon="-3.6100710">
        <ele>889.3</ele>
        <time>2020-04-02T19:18:22Z</time>
      </trkpt>
      <trkpt lat="42.3411240" lon="-3.6105530">
        <ele>888.9</ele>
        <time>2020-04-02T19:18:24Z</time>
      </trkpt>
      <trkpt lat="42.3411560" lon="-3.6107310">
        <ele>889.1</ele>
        <time>2020-04-02T19:18:26Z</time>
      </trkpt>
      <trkpt lat="42.3411880" lon="-3.6109070">
        <ele>889.2</ele>
        <time>2020-04-02T19:18:28Z</time>
      </trkpt>
      <trkpt lat="42.3412190" lon="-3.6110830">
        <ele>889.2</ele>
        <time>2020-04-02T19:18:30Z</time>
      </trkpt>
      <trkpt lat="42.3412500" lon="-3.6112580">
        <ele>889.1</ele>
        <time>2020-04-02T19:18:32Z</time>
      </trkpt>
      <trkpt lat="42.3413360" lon="-3.6117390">
        <ele>889.0</ele>
        <time>2020-04-02T19:18:34Z</time>
      </trkpt>
      <trkpt lat="42.3413660" lon="-3.6119080">
        <ele>889.0</ele>
        <time>2020-04-02T19:18:36Z</time>
      </trkpt>
      <trkpt lat="42.3413950" lon="-3.6120720">
        <ele>889.1</ele>
        <time>2020-04-02T19:18:38Z</time>
      </trkpt>
      <trkpt lat="42.3414240" lon="-3.6122340">
        <ele>889.2</ele>
        <time>2020-04-02T19:18:40Z</time>
      </trkpt>
      <trkpt lat="42.3414530" lon="-3.6123930">
        <ele>889.4</ele>
        <time>2020-04-02T19:18:42Z</time>
      </trkpt>
      <trkpt lat="42.3415350" lon="-3.6128560">
        <ele>890.1</ele>
        <time>2020-04-02T19:18:44Z</time>
      </trkpt>
      <trkpt lat="42.3415630" lon="-3.6130110">
        <ele>890.5</ele>
        <time>2020-04-02T19:18:46Z</time>
      </trkpt>
      <trkpt lat="42.3415900" lon="-3.6131640">
        <ele>890.6</ele>
        <time>2020-04-02T19:18:48Z</time>
      </trkpt>
      <trkpt lat="42.3416170" lon="-3.6133160">
        <ele>890.7</ele>
        <time>2020-04-02T19:18:50Z</time>
      </trkpt>
      <trkpt lat="42.3416450" lon="-3.6134690">
        <ele>890.8</ele>
        <time>2020-04-02T19:18:52Z</time>
      </trkpt>
      <trkpt lat="42.3416710" lon="-3.6136200">
        <ele>890.8</ele>
        <time>2020-04-02T19:18:54Z</time>
      </trkpt>
      <trkpt lat="42.3417530" lon="-3.6140770">
        <ele>890.9</ele>
        <time>2020-04-02T19:18:56Z</time>
      </trkpt>
      <trkpt lat="42.3417810" lon="-3.6142340">
        <ele>891.1</ele>
        <time>2020-04-02T19:18:58Z</time>
      </trkpt>
      <trkpt lat="42.3418090" lon="-3.6143930">
        <ele>891.3</ele>
        <time>2020-04-02T19:19:00Z</time>
      </trkpt>
      <trkpt lat="42.3418380" lon="-3.6145570">
        <ele>891.2</ele>
        <time>2020-04-02T19:19:02Z</time>
      </trkpt>
      <trkpt lat="42.3418680" lon="-3.6147220">
        <ele>890.9</ele>
        <time>2020-04-02T19:19:04Z</time>
      </trkpt>
      <trkpt lat="42.3419520" lon="-3.6151950">
        <ele>890.4</ele>
        <time>2020-04-02T19:19:06Z</time>
      </trkpt>
      <trkpt lat="42.3419830" lon="-3.6153640">
        <ele>890.2</ele>
        <time>2020-04-02T19:19:08Z</time>
      </trkpt>
      <trkpt lat="42.3420130" lon="-3.6155340">
        <ele>889.9</ele>
        <time>2020-04-02T19:19:10Z</time>
      </trkpt>
      <trkpt lat="42.3420430" lon="-3.6157010">
        <ele>889.6</ele>
        <time>2020-04-02T19:19:12Z</time>
      </trkpt>
      <trkpt lat="42.3420720" lon="-3.6158650">
        <ele>889.4</ele>
        <time>2020-04-02T19:19:14Z</time>
      </trkpt>
      <trkpt lat="42.3421560" lon="-3.6163360">
        <ele>889.2</ele>
        <time>2020-04-02T19:19:16Z</time>
      </trkpt>
      <trkpt lat="42.3421850" lon="-3.6165010">
        <ele>889.3</ele>
        <time>2020-04-02T19:19:18Z</time>
      </trkpt>
      <trkpt lat="42.3422150" lon="-3.6166690">
        <ele>889.4</ele>
        <time>2020-04-02T19:19:20Z</time>
      </trkpt>
      <trkpt lat="42.3422460" lon="-3.6168390">
        <ele>889.6</ele>
        <time>2020-04-02T19:19:22Z</time>
      </trkpt>
      <trkpt lat="42.3422760" lon="-3.6170080">
        <ele>889.8</ele>
        <time>2020-04-02T19:19:24Z</time>
      </trkpt>
      <trkpt lat="42.3423610" lon="-3.6174840">
        <ele>889.9</ele>
        <time>2020-04-02T19:19:26Z</time>
      </trkpt>
      <trkpt lat="42.3423900" lon="-3.6176490">
        <ele>889.7</ele>
        <time>2020-04-02T19:19:28Z</time>
      </trkpt>
      <trkpt lat="42.3424190" lon="-3.6178140">
        <ele>889.5</ele>
        <time>2020-04-02T19:19:30Z</time>
      </trkpt>
      <trkpt lat="42.3424490" lon="-3.6179780">
        <ele>889.4</ele>
        <time>2020-04-02T19:19:32Z</time>
      </trkpt>
      <trkpt lat="42.3424780" lon="-3.6181420">
        <ele>889.3</ele>
        <time>2020-04-02T19:19:34Z</time>
      </trkpt>
      <trkpt lat="42.3425070" lon="-3.6183070">
        <ele>889.3</ele>
        <time>2020-04-02T19:19:36Z</time>
      </trkpt>
      <trkpt lat="42.3425910" lon="-3.6187760">
        <ele>889.5</ele>
        <time>2020-04-02T19:19:38Z</time>
      </trkpt>
      <trkpt lat="42.3426200" lon="-3.6189400">
        <ele>889.6</ele>
        <time>2020-04-02T19:19:40Z</time>
      </trkpt>
      <trkpt lat="42.3426490" lon="-3.6191040">
        <ele>889.6</ele>
        <time>2020-04-02T19:19:42Z</time>
      </trkpt>
      <trkpt lat="42.3426780" lon="-3.6192670">
        <ele>889.6</ele>
        <time>2020-04-02T19:19:44Z</time>
      </trkpt>
      <trkpt lat="42.3427080" lon="-3.6194310">
        <ele>889.5</ele>
        <time>2020-04-02T19:19:46Z</time>
      </trkpt>
      <trkpt lat="42.3427920" lon="-3.6199010">
        <ele>889.1</ele>
        <time>2020-04-02T19:19:48Z</time>
      </trkpt>
      <trkpt lat="42.3428220" lon="-3.6200700">
        <ele>888.6</ele>
        <time>2020-04-02T19:19:50Z</time>
      </trkpt>
      <trkpt lat="42.3428520" lon="-3.6202390">
        <ele>888.1</ele>
        <time>2020-04-02T19:19:52Z</time>
      </trkpt>
      <trkpt lat="42.3428830" lon="-3.6204120">
        <ele>888.0</ele>
        <time>2020-04-02T19:19:54Z</time>
      </trkpt>
      <trkpt lat="42.3429140" lon="-3.6205860">
        <ele>887.8</ele>
        <time>2020-04-02T19:19:56Z</time>
      </trkpt>
      <trkpt lat="42.3429990" lon="-3.6210670">
        <ele>887.1</ele>
        <time>2020-04-02T19:19:58Z</time>
      </trkpt>
      <trkpt lat="42.3430310" lon="-3.6212430">
        <ele>886.9</ele>
        <time>2020-04-02T19:20:00Z</time>
      </trkpt>
      <trkpt lat="42.3430620" lon="-3.6214210">
        <ele>886.9</ele>
        <time>2020-04-02T19:20:02Z</time>
      </trkpt>
      <trkpt lat="42.3430940" lon="-3.6215980">
        <ele>886.9</ele>
        <time>2020-04-02T19:20:04Z</time>
      </trkpt>
      <trkpt lat="42.3431260" lon="-3.6217760">
        <ele>886.8</ele>
        <time>2020-04-02T19:20:06Z</time>
      </trkpt>
      <trkpt lat="42.3432120" lon="-3.6222610">
        <ele>886.8</ele>
        <time>2020-04-02T19:20:08Z</time>
      </trkpt>
      <trkpt lat="42.3432440" lon="-3.6224370">
        <ele>886.7</ele>
        <time>2020-04-02T19:20:10Z</time>
      </trkpt>
      <trkpt lat="42.3432740" lon="-3.6226100">
        <ele>886.7</ele>
        <time>2020-04-02T19:20:12Z</time>
      </trkpt>
      <trkpt lat="42.3433050" lon="-3.6227810">
        <ele>886.7</ele>
        <time>2020-04-02T19:20:14Z</time>
      </trkpt>
      <trkpt lat="42.3433350" lon="-3.6229500">
        <ele>886.3</ele>
        <time>2020-04-02T19:20:16Z</time>
      </trkpt>
      <trkpt lat="42.3434200" lon="-3.6234260">
        <ele>886.0</ele>
        <time>2020-04-02T19:20:18Z</time>
      </trkpt>
      <trkpt lat="42.3434500" lon="-3.6235940">
        <ele>886.0</ele>
        <time>2020-04-02T19:20:20Z</time>
      </trkpt>
      <trkpt lat="42.3434800" lon="-3.6237630">
        <ele>886.0</ele>
        <time>2020-04-02T19:20:22Z</time>
      </trkpt>
      <trkpt lat="42.3435100" lon="-3.6239330">
        <ele>886.0</ele>
        <time>2020-04-02T19:20:24Z</time>
      </trkpt>
      <trkpt lat="42.3435410" lon="-3.6241020">
        <ele>886.1</ele>
        <time>2020-04-02T19:20:26Z</time>
      </trkpt>
      <trkpt lat="42.3436250" lon="-3.6245780">
        <ele>886.0</ele>
        <time>2020-04-02T19:20:28Z</time>
      </trkpt>
      <trkpt lat="42.3436550" lon="-3.6247470">
        <ele>885.7</ele>
        <time>2020-04-02T19:20:30Z</time>
      </trkpt>
      <trkpt lat="42.3436860" lon="-3.6249160">
        <ele>885.3</ele>
        <time>2020-04-02T19:20:32Z</time>
      </trkpt>
      <trkpt lat="42.3437160" lon="-3.6250840">
        <ele>885.0</ele>
        <time>2020-04-02T19:20:34Z</time>
      </trkpt>
      <trkpt lat="42.3437460" lon="-3.6252530">
        <ele>884.6</ele>
        <time>2020-04-02T19:20:36Z</time>
      </trkpt>
      <trkpt lat="42.3438260" lon="-3.6257290">
        <ele>884.7</ele>
        <time>2020-04-02T19:20:38Z</time>
      </trkpt>
      <trkpt lat="42.3438500" lon="-3.6259780">
        <ele>885.1</ele>
        <time>2020-04-02T19:20:40Z</time>
      </trkpt>
      <trkpt lat="42.3438430" lon="-3.6261520">
        <ele>885.5</ele>
        <time>2020-04-02T19:20:42Z</time>
      </trkpt>
      <trkpt lat="42.3438360" lon="-3.6263250">
        <ele>885.8</ele>
        <time>2020-04-02T19:20:44Z</time>
      </trkpt>
      <trkpt lat="42.3438180" lon="-3.6266330">
        <ele>886.1</ele>
        <time>2020-04-02T19:20:46Z</time>
      </trkpt>
      <trkpt lat="42.3438030" lon="-3.6268040">
        <ele>886.0</ele>
        <time>2020-04-02T19:20:48Z</time>
      </trkpt>
      <trkpt lat="42.3437880" lon="-3.6269770">
        <ele>885.7</ele>
        <time>2020-04-02T19:20:50Z</time>
      </trkpt>
      <trkpt lat="42.3437730" lon="-3.6271490">
        <ele>885.4</ele>
        <time>2020-04-02T19:20:52Z</time>
      </trkpt>
      <trkpt lat="42.3437440" lon="-3.6275630">
        <ele>884.8</ele>
        <time>2020-04-02T19:20:54Z</time>
      </trkpt>
      <trkpt lat="42.3437370" lon="-3.6277310">
        <ele>884.6</ele>
        <time>2020-04-02T19:20:56Z</time>
      </trkpt>
      <trkpt lat="42.3437300" lon="-3.6279000">
        <ele>884.4</ele>
        <time>2020-04-02T19:20:58Z</time>
      </trkpt>
      <trkpt lat="42.3437270" lon="-3.6282540">
        <ele>884.1</ele>
        <time>2020-04-02T19:21:00Z</time>
      </trkpt>
      <trkpt lat="42.3437370" lon="-3.6284210">
        <ele>884.1</ele>
        <time>2020-04-02T19:21:02Z</time>
      </trkpt>
      <trkpt lat="42.3437470" lon="-3.6285870">
        <ele>884.4</ele>
        <time>2020-04-02T19:21:04Z</time>
      </trkpt>
      <trkpt lat="42.3437570" lon="-3.6287520">
        <ele>884.7</ele>
        <time>2020-04-02T19:21:06Z</time>
      </trkpt>
      <trkpt lat="42.3437670" lon="-3.6289170">
        <ele>884.9</ele>
        <time>2020-04-02T19:21:08Z</time>
      </trkpt>
      <trkpt lat="42.3437940" lon="-3.6293740">
        <ele>885.0</ele>
        <time>2020-04-02T19:21:10Z</time>
      </trkpt>
      <trkpt lat="42.3438050" lon="-3.6295500">
        <ele>884.7</ele>
        <time>2020-04-02T19:21:12Z</time>
      </trkpt>
      <trkpt lat="42.3438160" lon="-3.6297320">
        <ele>884.0</ele>
        <time>2020-04-02T19:21:14Z</time>
      </trkpt>
      <trkpt lat="42.3438270" lon="-3.6299170">
        <ele>883.6</ele>
        <time>2020-04-02T19:21:16Z</time>
      </trkpt>
      <trkpt lat="42.3438550" lon="-3.6303950">
        <ele>883.0</ele>
        <time>2020-04-02T19:21:18Z</time>
      </trkpt>
      <trkpt lat="42.3438670" lon="-3.6305870">
        <ele>882.8</ele>
        <time>2020-04-02T19:21:20Z</time>
      </trkpt>
      <trkpt lat="42.3438780" lon="-3.6307810">
        <ele>882.6</ele>
        <time>2020-04-02T19:21:22Z</time>
      </trkpt>
      <trkpt lat="42.3438900" lon="-3.6309760">
        <ele>882.4</ele>
        <time>2020-04-02T19:21:24Z</time>
      </trkpt>
      <trkpt lat="42.3439190" lon="-3.6314620">
        <ele>881.7</ele>
        <time>2020-04-02T19:21:26Z</time>
      </trkpt>
      <trkpt lat="42.3439300" lon="-3.6316550">
        <ele>881.1</ele>
        <time>2020-04-02T19:21:28Z</time>
      </trkpt>
      <trkpt lat="42.3439410" lon="-3.6318360">
        <ele>880.7</ele>
        <time>2020-04-02T19:21:30Z</time>
      </trkpt>
      <trkpt lat="42.3439520" lon="-3.6320130">
        <ele>880.4</ele>
        <time>2020-04-02T19:21:32Z</time>
      </trkpt>
      <trkpt lat="42.3439620" lon="-3.6321880">
        <ele>880.1</ele>
        <time>2020-04-02T19:21:34Z</time>
      </trkpt>
      <trkpt lat="42.3439900" lon="-3.6326500">
        <ele>880.4</ele>
        <time>2020-04-02T19:21:36Z</time>
      </trkpt>
      <trkpt lat="42.3440000" lon="-3.6328220">
        <ele>880.4</ele>
        <time>2020-04-02T19:21:38Z</time>
      </trkpt>
      <trkpt lat="42.3440100" lon="-3.6329940">
        <ele>880.5</ele>
        <time>2020-04-02T19:21:40Z</time>
      </trkpt>
      <trkpt lat="42.3440210" lon="-3.6331670">
        <ele>880.5</ele>
        <time>2020-04-02T19:21:42Z</time>
      </trkpt>
      <trkpt lat="42.3440310" lon="-3.6333360">
        <ele>880.5</ele>
        <time>2020-04-02T19:21:44Z</time>
      </trkpt>
      <trkpt lat="42.3440570" lon="-3.6337950">
        <ele>880.9</ele>
        <time>2020-04-02T19:21:46Z</time>
      </trkpt>
      <trkpt lat="42.3440650" lon="-3.6339680">
        <ele>881.2</ele>
        <time>2020-04-02T19:21:48Z</time>
      </trkpt>
      <trkpt lat="42.3440730" lon="-3.6341410">
        <ele>881.2</ele>
        <time>2020-04-02T19:21:50Z</time>
      </trkpt>
      <trkpt lat="42.3440910" lon="-3.6345010">
        <ele>880.5</ele>
        <time>2020-04-02T19:21:52Z</time>
      </trkpt>
      <trkpt lat="42.3440990" lon="-3.6346740">
        <ele>880.3</ele>
        <time>2020-04-02T19:21:54Z</time>
      </trkpt>
      <trkpt lat="42.3441070" lon="-3.6348480">
        <ele>880.3</ele>
        <time>2020-04-02T19:21:56Z</time>
      </trkpt>
      <trkpt lat="42.3441280" lon="-3.6352100">
        <ele>880.2</ele>
        <time>2020-04-02T19:21:58Z</time>
      </trkpt>
      <trkpt lat="42.3441430" lon="-3.6353850">
        <ele>880.0</ele>
        <time>2020-04-02T19:22:00Z</time>
      </trkpt>
      <trkpt lat="42.3441570" lon="-3.6355570">
        <ele>879.7</ele>
        <time>2020-04-02T19:22:02Z</time>
      </trkpt>
      <trkpt lat="42.3441710" lon="-3.6357290">
        <ele>879.2</ele>
        <time>2020-04-02T19:22:04Z</time>
      </trkpt>
      <trkpt lat="42.3441850" lon="-3.6359020">
        <ele>879.2</ele>
        <time>2020-04-02T19:22:06Z</time>
      </trkpt>
      <trkpt lat="42.3442610" lon="-3.6363530">
        <ele>878.9</ele>
        <time>2020-04-02T19:22:08Z</time>
      </trkpt>
      <trkpt lat="42.3443170" lon="-3.6365210">
        <ele>878.5</ele>
        <time>2020-04-02T19:22:10Z</time>
      </trkpt>
      <trkpt lat="42.3444420" lon="-3.6367890">
        <ele>878.8</ele>
        <time>2020-04-02T19:22:12Z</time>
      </trkpt>
      <trkpt lat="42.3445860" lon="-3.6369680">
        <ele>880.1</ele>
        <time>2020-04-02T19:22:14Z</time>
      </trkpt>
      <trkpt lat="42.3447480" lon="-3.6370060">
        <ele>880.7</ele>
        <time>2020-04-02T19:22:16Z</time>
      </trkpt>
      <trkpt lat="42.3448870" lon="-3.6370660">
        <ele>880.8</ele>
        <time>2020-04-02T19:22:18Z</time>
      </trkpt>
      <trkpt lat="42.3450190" lon="-3.6371890">
        <ele>880.9</ele>
        <time>2020-04-02T19:22:20Z</time>
      </trkpt>
      <trkpt lat="42.3451020" lon="-3.6373730">
        <ele>880.8</ele>
        <time>2020-04-02T19:22:22Z</time>
      </trkpt>
      <trkpt lat="42.3451280" lon="-3.6375200">
        <ele>880.7</ele>
        <time>2020-04-02T19:22:24Z</time>
      </trkpt>
      <trkpt lat="42.3451560" lon="-3.6376750">
        <ele>880.5</ele>
        <time>2020-04-02T19:22:26Z</time>
      </trkpt>
      <trkpt lat="42.3451840" lon="-3.6378340">
        <ele>880.4</ele>
        <time>2020-04-02T19:22:28Z</time>
      </trkpt>
      <trkpt lat="42.3451990" lon="-3.6381780">
        <ele>879.9</ele>
        <time>2020-04-02T19:22:30Z</time>
      </trkpt>
      <trkpt lat="42.3451560" lon="-3.6384490">
        <ele>879.6</ele>
        <time>2020-04-02T19:22:32Z</time>
      </trkpt>
      <trkpt lat="42.3450650" lon="-3.6386470">
        <ele>879.3</ele>
        <time>2020-04-02T19:22:34Z</time>
      </trkpt>
      <trkpt lat="42.3449330" lon="-3.6387880">
        <ele>879.3</ele>
        <time>2020-04-02T19:22:36Z</time>
      </trkpt>
      <trkpt lat="42.3447730" lon="-3.6388160">
        <ele>879.2</ele>
        <time>2020-04-02T19:22:38Z</time>
      </trkpt>
      <trkpt lat="42.3446290" lon="-3.6388600">
        <ele>879.4</ele>
        <time>2020-04-02T19:22:40Z</time>
      </trkpt>
      <trkpt lat="42.3445090" lon="-3.6389970">
        <ele>879.6</ele>
        <time>2020-04-02T19:22:42Z</time>
      </trkpt>
      <trkpt lat="42.3444560" lon="-3.6391820">
        <ele>879.9</ele>
        <time>2020-04-02T19:22:44Z</time>
      </trkpt>
      <trkpt lat="42.3444160" lon="-3.6394190">
        <ele>880.2</ele>
        <time>2020-04-02T19:22:46Z</time>
      </trkpt>
      <trkpt lat="42.3444060" lon="-3.6395790">
        <ele>880.4</ele>
        <time>2020-04-02T19:22:48Z</time>
      </trkpt>
      <trkpt lat="42.3444070" lon="-3.6398380">
        <ele>880.1</ele>
        <time>2020-04-02T19:22:50Z</time>
      </trkpt>
      <trkpt lat="42.3444150" lon="-3.6400070">
        <ele>879.8</ele>
        <time>2020-04-02T19:22:52Z</time>
      </trkpt>
      <trkpt lat="42.3444240" lon="-3.6401810">
        <ele>879.6</ele>
        <time>2020-04-02T19:22:54Z</time>
      </trkpt>
      <trkpt lat="42.3444320" lon="-3.6403580">
        <ele>879.5</ele>
        <time>2020-04-02T19:22:56Z</time>
      </trkpt>
      <trkpt lat="42.3444540" lon="-3.6408060">
        <ele>879.2</ele>
        <time>2020-04-02T19:22:58Z</time>
      </trkpt>
      <trkpt lat="42.3444630" lon="-3.6409850">
        <ele>879.0</ele>
        <time>2020-04-02T19:23:00Z</time>
      </trkpt>
      <trkpt lat="42.3444710" lon="-3.6411630">
        <ele>878.8</ele>
        <time>2020-04-02T19:23:02Z</time>
      </trkpt>
      <trkpt lat="42.3444800" lon="-3.6413420">
        <ele>878.6</ele>
        <time>2020-04-02T19:23:04Z</time>
      </trkpt>
      <trkpt lat="42.3445020" lon="-3.6417920">
        <ele>878.2</ele>
        <time>2020-04-02T19:23:06Z</time>
      </trkpt>
      <trkpt lat="42.3445140" lon="-3.6419690">
        <ele>878.4</ele>
        <time>2020-04-02T19:23:08Z</time>
      </trkpt>
      <trkpt lat="42.3445260" lon="-3.6421470">
        <ele>878.2</ele>
        <time>2020-04-02T19:23:10Z</time>
      </trkpt>
      <trkpt lat="42.3445390" lon="-3.6423260">
        <ele>878.0</ele>
        <time>2020-04-02T19:23:12Z</time>
      </trkpt>
      <trkpt lat="42.3445510" lon="-3.6425080">
        <ele>877.7</ele>
        <time>2020-04-02T19:23:14Z</time>
      </trkpt>
      <trkpt lat="42.3445840" lon="-3.6429950">
        <ele>877.4</ele>
        <time>2020-04-02T19:23:16Z</time>
      </trkpt>
      <trkpt lat="42.3445970" lon="-3.6431790">
        <ele>877.4</ele>
        <time>2020-04-02T19:23:18Z</time>
      </trkpt>
      <trkpt lat="42.3446100" lon="-3.6433630">
        <ele>877.4</ele>
        <time>2020-04-02T19:23:20Z</time>
      </trkpt>
      <trkpt lat="42.3446220" lon="-3.6435450">
        <ele>877.2</ele>
        <time>2020-04-02T19:23:22Z</time>
      </trkpt>
      <trkpt lat="42.3446340" lon="-3.6437230">
        <ele>876.9</ele>
        <time>2020-04-02T19:23:24Z</time>
      </trkpt>
      <trkpt lat="42.3446700" lon="-3.6442050">
        <ele>876.4</ele>
        <time>2020-04-02T19:23:26Z</time>
      </trkpt>
      <trkpt lat="42.3446860" lon="-3.6443800">
        <ele>876.4</ele>
        <time>2020-04-02T19:23:28Z</time>
      </trkpt>
      <trkpt lat="42.3447020" lon="-3.6445520">
        <ele>876.4</ele>
        <time>2020-04-02T19:23:30Z</time>
      </trkpt>
      <trkpt lat="42.3447180" lon="-3.6447200">
        <ele>876.5</ele>
        <time>2020-04-02T19:23:32Z</time>
      </trkpt>
      <trkpt lat="42.3447540" lon="-3.6451110">
        <ele>876.9</ele>
        <time>2020-04-02T19:23:34Z</time>
      </trkpt>
      <trkpt lat="42.3447690" lon="-3.6452740">
        <ele>877.2</ele>
        <time>2020-04-02T19:23:36Z</time>
      </trkpt>
      <trkpt lat="42.3447840" lon="-3.6454340">
        <ele>877.6</ele>
        <time>2020-04-02T19:23:38Z</time>
      </trkpt>
      <trkpt lat="42.3447990" lon="-3.6455930">
        <ele>877.8</ele>
        <time>2020-04-02T19:23:40Z</time>
      </trkpt>
      <trkpt lat="42.3448280" lon="-3.6459800">
        <ele>877.4</ele>
        <time>2020-04-02T19:23:42Z</time>
      </trkpt>
      <trkpt lat="42.3448360" lon="-3.6461500">
        <ele>877.2</ele>
        <time>2020-04-02T19:23:44Z</time>
      </trkpt>
      <trkpt lat="42.3448440" lon="-3.6463230">
        <ele>877.0</ele>
        <time>2020-04-02T19:23:46Z</time>
      </trkpt>
      <trkpt lat="42.3448520" lon="-3.6465010">
        <ele>876.6</ele>
        <time>2020-04-02T19:23:48Z</time>
      </trkpt>
      <trkpt lat="42.3448740" lon="-3.6469500">
        <ele>876.3</ele>
        <time>2020-04-02T19:23:50Z</time>
      </trkpt>
      <trkpt lat="42.3448830" lon="-3.6471320">
        <ele>876.2</ele>
        <time>2020-04-02T19:23:52Z</time>
      </trkpt>
      <trkpt lat="42.3448910" lon="-3.6473160">
        <ele>876.1</ele>
        <time>2020-04-02T19:23:54Z</time>
      </trkpt>
      <trkpt lat="42.3449000" lon="-3.6475020">
        <ele>876.0</ele>
        <time>2020-04-02T19:23:56Z</time>
      </trkpt>
      <trkpt lat="42.3449220" lon="-3.6479610">
        <ele>875.1</ele>
        <time>2020-04-02T19:23:58Z</time>
      </trkpt>
      <trkpt lat="42.3449310" lon="-3.6481470">
        <ele>874.6</ele>
        <time>2020-04-02T19:24:00Z</time>
      </trkpt>
      <trkpt lat="42.3449400" lon="-3.6483330">
        <ele>873.9</ele>
        <time>2020-04-02T19:24:02Z</time>
      </trkpt>
      <trkpt lat="42.3449490" lon="-3.6485180">
        <ele>872.8</ele>
        <time>2020-04-02T19:24:04Z</time>
      </trkpt>
      <trkpt lat="42.3449710" lon="-3.6489770">
        <ele>871.0</ele>
        <time>2020-04-02T19:24:06Z</time>
      </trkpt>
      <trkpt lat="42.3449790" lon="-3.6491610">
        <ele>870.9</ele>
        <time>2020-04-02T19:24:08Z</time>
      </trkpt>
      <trkpt lat="42.3449880" lon="-3.6493470">
        <ele>871.0</ele>
        <time>2020-04-02T19:24:10Z</time>
      </trkpt>
      <trkpt lat="42.3449970" lon="-3.6495340">
        <ele>871.7</ele>
        <time>2020-04-02T19:24:12Z</time>
      </trkpt>
      <trkpt lat="42.3450060" lon="-3.6497190">
        <ele>872.2</ele>
        <time>2020-04-02T19:24:14Z</time>
      </trkpt>
      <trkpt lat="42.3450310" lon="-3.6501780">
        <ele>873.1</ele>
        <time>2020-04-02T19:24:16Z</time>
      </trkpt>
      <trkpt lat="42.3450430" lon="-3.6503640">
        <ele>873.2</ele>
        <time>2020-04-02T19:24:18Z</time>
      </trkpt>
      <trkpt lat="42.3450550" lon="-3.6505510">
        <ele>873.1</ele>
        <time>2020-04-02T19:24:20Z</time>
      </trkpt>
      <trkpt lat="42.3450810" lon="-3.6509650">
        <ele>872.7</ele>
        <time>2020-04-02T19:24:22Z</time>
      </trkpt>
      <trkpt lat="42.3450930" lon="-3.6511570">
        <ele>872.4</ele>
        <time>2020-04-02T19:24:24Z</time>
      </trkpt>
      <trkpt lat="42.3451060" lon="-3.6513500">
        <ele>872.0</ele>
        <time>2020-04-02T19:24:26Z</time>
      </trkpt>
      <trkpt lat="42.3451340" lon="-3.6517660">
        <ele>871.0</ele>
        <time>2020-04-02T19:24:28Z</time>
      </trkpt>
      <trkpt lat="42.3451560" lon="-3.6519510">
        <ele>870.6</ele>
        <time>2020-04-02T19:24:30Z</time>
      </trkpt>
      <trkpt lat="42.3451770" lon="-3.6521290">
        <ele>870.4</ele>
        <time>2020-04-02T19:24:32Z</time>
      </trkpt>
      <trkpt lat="42.3451980" lon="-3.6523040">
        <ele>870.2</ele>
        <time>2020-04-02T19:24:34Z</time>
      </trkpt>
      <trkpt lat="42.3452180" lon="-3.6524710">
        <ele>870.0</ele>
        <time>2020-04-02T19:24:36Z</time>
      </trkpt>
      <trkpt lat="42.3452750" lon="-3.6529420">
        <ele>870.0</ele>
        <time>2020-04-02T19:24:38Z</time>
      </trkpt>
      <trkpt lat="42.3452970" lon="-3.6531000">
        <ele>870.2</ele>
        <time>2020-04-02T19:24:40Z</time>
      </trkpt>
      <trkpt lat="42.3453200" lon="-3.6532550">
        <ele>870.5</ele>
        <time>2020-04-02T19:24:42Z</time>
      </trkpt>
      <trkpt lat="42.3453410" lon="-3.6534050">
        <ele>870.8</ele>
        <time>2020-04-02T19:24:44Z</time>
      </trkpt>
      <trkpt lat="42.3453630" lon="-3.6535550">
        <ele>871.1</ele>
        <time>2020-04-02T19:24:46Z</time>
      </trkpt>
      <trkpt lat="42.3454260" lon="-3.6539920">
        <ele>872.1</ele>
        <time>2020-04-02T19:24:48Z</time>
      </trkpt>
      <trkpt lat="42.3454490" lon="-3.6541500">
        <ele>872.3</ele>
        <time>2020-04-02T19:24:50Z</time>
      </trkpt>
      <trkpt lat="42.3454720" lon="-3.6543080">
        <ele>872.2</ele>
        <time>2020-04-02T19:24:52Z</time>
      </trkpt>
      <trkpt lat="42.3454940" lon="-3.6544660">
        <ele>872.1</ele>
        <time>2020-04-02T19:24:54Z</time>
      </trkpt>
      <trkpt lat="42.3455180" lon="-3.6546280">
        <ele>871.9</ele>
        <time>2020-04-02T19:24:56Z</time>
      </trkpt>
      <trkpt lat="42.3455820" lon="-3.6550720">
        <ele>870.8</ele>
        <time>2020-04-02T19:24:58Z</time>
      </trkpt>
      <trkpt lat="42.3456060" lon="-3.6552380">
        <ele>870.3</ele>
        <time>2020-04-02T19:25:00Z</time>
      </trkpt>
      <trkpt lat="42.3456300" lon="-3.6554050">
        <ele>869.8</ele>
        <time>2020-04-02T19:25:02Z</time>
      </trkpt>
      <trkpt lat="42.3456540" lon="-3.6555710">
        <ele>869.6</ele>
        <time>2020-04-02T19:25:04Z</time>
      </trkpt>
      <trkpt lat="42.3456780" lon="-3.6557380">
        <ele>870.4</ele>
        <time>2020-04-02T19:25:06Z</time>
      </trkpt>
      <trkpt lat="42.3457420" lon="-3.6561830">
        <ele>871.1</ele>
        <time>2020-04-02T19:25:08Z</time>
      </trkpt>
      <trkpt lat="42.3457660" lon="-3.6563500">
        <ele>871.2</ele>
        <time>2020-04-02T19:25:10Z</time>
      </trkpt>
      <trkpt lat="42.3457900" lon="-3.6565150">
        <ele>871.3</ele>
        <time>2020-04-02T19:25:12Z</time>
      </trkpt>
      <trkpt lat="42.3458140" lon="-3.6566810">
        <ele>871.3</ele>
        <time>2020-04-02T19:25:14Z</time>
      </trkpt>
      <trkpt lat="42.3458380" lon="-3.6568470">
        <ele>871.5</ele>
        <time>2020-04-02T19:25:16Z</time>
      </trkpt>
      <trkpt lat="42.3459020" lon="-3.6572930">
        <ele>872.0</ele>
        <time>2020-04-02T19:25:18Z</time>
      </trkpt>
      <trkpt lat="42.3459260" lon="-3.6574590">
        <ele>872.2</ele>
        <time>2020-04-02T19:25:20Z</time>
      </trkpt>
      <trkpt lat="42.3459510" lon="-3.6576310">
        <ele>872.5</ele>
        <time>2020-04-02T19:25:22Z</time>
      </trkpt>
      <trkpt lat="42.3459760" lon="-3.6578050">
        <ele>872.8</ele>
        <time>2020-04-02T19:25:24Z</time>
      </trkpt>
      <trkpt lat="42.3460010" lon="-3.6579790">
        <ele>872.7</ele>
        <time>2020-04-02T19:25:26Z</time>
      </trkpt>
      <trkpt lat="42.3460660" lon="-3.6584330">
        <ele>871.7</ele>
        <time>2020-04-02T19:25:28Z</time>
      </trkpt>
      <trkpt lat="42.3460910" lon="-3.6586070">
        <ele>871.3</ele>
        <time>2020-04-02T19:25:30Z</time>
      </trkpt>
      <trkpt lat="42.3461170" lon="-3.6587820">
        <ele>870.9</ele>
        <time>2020-04-02T19:25:32Z</time>
      </trkpt>
      <trkpt lat="42.3461420" lon="-3.6589570">
        <ele>870.7</ele>
        <time>2020-04-02T19:25:34Z</time>
      </trkpt>
      <trkpt lat="42.3462080" lon="-3.6594120">
        <ele>870.6</ele>
        <time>2020-04-02T19:25:36Z</time>
      </trkpt>
      <trkpt lat="42.3462330" lon="-3.6595870">
        <ele>870.5</ele>
        <time>2020-04-02T19:25:38Z</time>
      </trkpt>
      <trkpt lat="42.3462580" lon="-3.6597610">
        <ele>870.4</ele>
        <time>2020-04-02T19:25:40Z</time>
      </trkpt>
      <trkpt lat="42.3462830" lon="-3.6599350">
        <ele>870.4</ele>
        <time>2020-04-02T19:25:42Z</time>
      </trkpt>
      <trkpt lat="42.3463080" lon="-3.6601100">
        <ele>870.5</ele>
        <time>2020-04-02T19:25:44Z</time>
      </trkpt>
      <trkpt lat="42.3463920" lon="-3.6605570">
        <ele>870.3</ele>
        <time>2020-04-02T19:25:46Z</time>
      </trkpt>
      <trkpt lat="42.3464380" lon="-3.6607240">
        <ele>870.0</ele>
        <time>2020-04-02T19:25:48Z</time>
      </trkpt>
      <trkpt lat="42.3465010" lon="-3.6610220">
        <ele>869.9</ele>
        <time>2020-04-02T19:25:50Z</time>
      </trkpt>
      <trkpt lat="42.3465270" lon="-3.6611970">
        <ele>869.8</ele>
        <time>2020-04-02T19:25:52Z</time>
      </trkpt>
      <trkpt lat="42.3465530" lon="-3.6613700">
        <ele>869.8</ele>
        <time>2020-04-02T19:25:54Z</time>
      </trkpt>
      <trkpt lat="42.3466130" lon="-3.6617720">
        <ele>869.8</ele>
        <time>2020-04-02T19:25:56Z</time>
      </trkpt>
      <trkpt lat="42.3466390" lon="-3.6619470">
        <ele>869.7</ele>
        <time>2020-04-02T19:25:58Z</time>
      </trkpt>
      <trkpt lat="42.3466660" lon="-3.6621230">
        <ele>869.5</ele>
        <time>2020-04-02T19:26:00Z</time>
      </trkpt>
      <trkpt lat="42.3466920" lon="-3.6622990">
        <ele>869.2</ele>
        <time>2020-04-02T19:26:02Z</time>
      </trkpt>
      <trkpt lat="42.3467490" lon="-3.6627030">
        <ele>868.6</ele>
        <time>2020-04-02T19:26:04Z</time>
      </trkpt>
      <trkpt lat="42.3467530" lon="-3.6629330">
        <ele>868.5</ele>
        <time>2020-04-02T19:26:06Z</time>
      </trkpt>
      <trkpt lat="42.3468370" lon="-3.6631140">
        <ele>870.1</ele>
        <time>2020-04-02T19:26:08Z</time>
      </trkpt>
      <trkpt lat="42.3468440" lon="-3.6633060">
        <ele>871.3</ele>
        <time>2020-04-02T19:26:10Z</time>
      </trkpt>
      <trkpt lat="42.3468730" lon="-3.6635540">
        <ele>872.7</ele>
        <time>2020-04-02T19:26:12Z</time>
      </trkpt>
      <trkpt lat="42.3468930" lon="-3.6637110">
        <ele>872.5</ele>
        <time>2020-04-02T19:26:14Z</time>
      </trkpt>
      <trkpt lat="42.3469130" lon="-3.6638630">
        <ele>872.2</ele>
        <time>2020-04-02T19:26:16Z</time>
      </trkpt>
      <trkpt lat="42.3469320" lon="-3.6640140">
        <ele>871.8</ele>
        <time>2020-04-02T19:26:18Z</time>
      </trkpt>
      <trkpt lat="42.3469520" lon="-3.6641640">
        <ele>871.2</ele>
        <time>2020-04-02T19:26:20Z</time>
      </trkpt>
      <trkpt lat="42.3469930" lon="-3.6645570">
        <ele>870.6</ele>
        <time>2020-04-02T19:26:22Z</time>
      </trkpt>
      <trkpt lat="42.3469970" lon="-3.6647170">
        <ele>870.6</ele>
        <time>2020-04-02T19:26:24Z</time>
      </trkpt>
      <trkpt lat="42.3470020" lon="-3.6648840">
        <ele>870.6</ele>
        <time>2020-04-02T19:26:26Z</time>
      </trkpt>
      <trkpt lat="42.3470210" lon="-3.6652320">
        <ele>870.4</ele>
        <time>2020-04-02T19:26:28Z</time>
      </trkpt>
      <trkpt lat="42.3470450" lon="-3.6654020">
        <ele>870.0</ele>
        <time>2020-04-02T19:26:30Z</time>
      </trkpt>
      <trkpt lat="42.3470910" lon="-3.6657260">
        <ele>869.3</ele>
        <time>2020-04-02T19:26:32Z</time>
      </trkpt>
      <trkpt lat="42.3471280" lon="-3.6658890">
        <ele>869.2</ele>
        <time>2020-04-02T19:26:34Z</time>
      </trkpt>
      <trkpt lat="42.3471860" lon="-3.6661050">
        <ele>869.2</ele>
        <time>2020-04-02T19:26:36Z</time>
      </trkpt>
      <trkpt lat="42.3472900" lon="-3.6662810">
        <ele>869.4</ele>
        <time>2020-04-02T19:26:38Z</time>
      </trkpt>
      <trkpt lat="42.3473280" lon="-3.6664590">
        <ele>869.9</ele>
        <time>2020-04-02T19:26:40Z</time>
      </trkpt>
      <trkpt lat="42.3472760" lon="-3.6666150">
        <ele>870.4</ele>
        <time>2020-04-02T19:26:42Z</time>
      </trkpt>
      <trkpt lat="42.3472600" lon="-3.6667730">
        <ele>871.2</ele>
        <time>2020-04-02T19:26:44Z</time>
      </trkpt>
      <trkpt lat="42.3472700" lon="-3.6669380">
        <ele>871.9</ele>
        <time>2020-04-02T19:26:46Z</time>
      </trkpt>
      <trkpt lat="42.3472880" lon="-3.6670680">
        <ele>872.4</ele>
        <time>2020-04-02T19:26:48Z</time>
      </trkpt>
      <trkpt lat="42.3473080" lon="-3.6672080">
        <ele>873.0</ele>
        <time>2020-04-02T19:26:50Z</time>
      </trkpt>
      <trkpt lat="42.3473290" lon="-3.6673560">
        <ele>873.2</ele>
        <time>2020-04-02T19:26:52Z</time>
      </trkpt>
      <trkpt lat="42.3473510" lon="-3.6675090">
        <ele>873.4</ele>
        <time>2020-04-02T19:26:54Z</time>
      </trkpt>
      <trkpt lat="42.3473740" lon="-3.6676670">
        <ele>873.6</ele>
        <time>2020-04-02T19:26:56Z</time>
      </trkpt>
      <trkpt lat="42.3474380" lon="-3.6681180">
        <ele>874.1</ele>
        <time>2020-04-02T19:26:58Z</time>
      </trkpt>
      <trkpt lat="42.3474620" lon="-3.6682850">
        <ele>873.9</ele>
        <time>2020-04-02T19:27:00Z</time>
      </trkpt>
      <trkpt lat="42.3474860" lon="-3.6684520">
        <ele>873.6</ele>
        <time>2020-04-02T19:27:02Z</time>
      </trkpt>
      <trkpt lat="42.3475100" lon="-3.6686210">
        <ele>873.2</ele>
        <time>2020-04-02T19:27:04Z</time>
      </trkpt>
      <trkpt lat="42.3475340" lon="-3.6687940">
        <ele>872.6</ele>
        <time>2020-04-02T19:27:06Z</time>
      </trkpt>
      <trkpt lat="42.3476000" lon="-3.6692570">
        <ele>871.7</ele>
        <time>2020-04-02T19:27:08Z</time>
      </trkpt>
      <trkpt lat="42.3476240" lon="-3.6694250">
        <ele>871.5</ele>
        <time>2020-04-02T19:27:10Z</time>
      </trkpt>
      <trkpt lat="42.3476480" lon="-3.6695930">
        <ele>871.4</ele>
        <time>2020-04-02T19:27:12Z</time>
      </trkpt>
      <trkpt lat="42.3476720" lon="-3.6697590">
        <ele>871.3</ele>
        <time>2020-04-02T19:27:14Z</time>
      </trkpt>
      <trkpt lat="42.3477370" lon="-3.6702140">
        <ele>870.9</ele>
        <time>2020-04-02T19:27:16Z</time>
      </trkpt>
      <trkpt lat="42.3477610" lon="-3.6703810">
        <ele>870.7</ele>
        <time>2020-04-02T19:27:18Z</time>
      </trkpt>
      <trkpt lat="42.3477840" lon="-3.6705470">
        <ele>870.7</ele>
        <time>2020-04-02T19:27:20Z</time>
      </trkpt>
      <trkpt lat="42.3478080" lon="-3.6707120">
        <ele>871.0</ele>
        <time>2020-04-02T19:27:22Z</time>
      </trkpt>
      <trkpt lat="42.3478320" lon="-3.6708790">
        <ele>871.2</ele>
        <time>2020-04-02T19:27:24Z</time>
      </trkpt>
      <trkpt lat="42.3478970" lon="-3.6713340">
        <ele>871.1</ele>
        <time>2020-04-02T19:27:26Z</time>
      </trkpt>
      <trkpt lat="42.3479200" lon="-3.6715010">
        <ele>871.1</ele>
        <time>2020-04-02T19:27:28Z</time>
      </trkpt>
      <trkpt lat="42.3479440" lon="-3.6716670">
        <ele>871.3</ele>
        <time>2020-04-02T19:27:30Z</time>
      </trkpt>
      <trkpt lat="42.3479680" lon="-3.6718340">
        <ele>871.5</ele>
        <time>2020-04-02T19:27:32Z</time>
      </trkpt>
      <trkpt lat="42.3479920" lon="-3.6720000">
        <ele>871.7</ele>
        <time>2020-04-02T19:27:34Z</time>
      </trkpt>
      <trkpt lat="42.3480560" lon="-3.6724550">
        <ele>871.7</ele>
        <time>2020-04-02T19:27:36Z</time>
      </trkpt>
      <trkpt lat="42.3480770" lon="-3.6726220">
        <ele>872.0</ele>
        <time>2020-04-02T19:27:38Z</time>
      </trkpt>
      <trkpt lat="42.3480980" lon="-3.6727890">
        <ele>872.1</ele>
        <time>2020-04-02T19:27:40Z</time>
      </trkpt>
      <trkpt lat="42.3481200" lon="-3.6729560">
        <ele>872.1</ele>
        <time>2020-04-02T19:27:42Z</time>
      </trkpt>
      <trkpt lat="42.3481410" lon="-3.6731230">
        <ele>872.1</ele>
        <time>2020-04-02T19:27:44Z</time>
      </trkpt>
      <trkpt lat="42.3481960" lon="-3.6735500">
        <ele>871.3</ele>
        <time>2020-04-02T19:27:46Z</time>
      </trkpt>
      <trkpt lat="42.3482170" lon="-3.6737170">
        <ele>871.0</ele>
        <time>2020-04-02T19:27:48Z</time>
      </trkpt>
      <trkpt lat="42.3482380" lon="-3.6738830">
        <ele>870.8</ele>
        <time>2020-04-02T19:27:50Z</time>
      </trkpt>
      <trkpt lat="42.3482600" lon="-3.6740500">
        <ele>870.6</ele>
        <time>2020-04-02T19:27:52Z</time>
      </trkpt>
      <trkpt lat="42.3483140" lon="-3.6744780">
        <ele>870.1</ele>
        <time>2020-04-02T19:27:54Z</time>
      </trkpt>
      <trkpt lat="42.3483370" lon="-3.6746520">
        <ele>870.1</ele>
        <time>2020-04-02T19:27:56Z</time>
      </trkpt>
      <trkpt lat="42.3483590" lon="-3.6748280">
        <ele>870.1</ele>
        <time>2020-04-02T19:27:58Z</time>
      </trkpt>
      <trkpt lat="42.3483820" lon="-3.6750090">
        <ele>870.1</ele>
        <time>2020-04-02T19:28:00Z</time>
      </trkpt>
      <trkpt lat="42.3484390" lon="-3.6754530">
        <ele>870.1</ele>
        <time>2020-04-02T19:28:02Z</time>
      </trkpt>
      <trkpt lat="42.3484620" lon="-3.6756360">
        <ele>869.7</ele>
        <time>2020-04-02T19:28:04Z</time>
      </trkpt>
      <trkpt lat="42.3484860" lon="-3.6758210">
        <ele>869.3</ele>
        <time>2020-04-02T19:28:06Z</time>
      </trkpt>
      <trkpt lat="42.3485100" lon="-3.6760070">
        <ele>868.9</ele>
        <time>2020-04-02T19:28:08Z</time>
      </trkpt>
      <trkpt lat="42.3485690" lon="-3.6764550">
        <ele>867.2</ele>
        <time>2020-04-02T19:28:10Z</time>
      </trkpt>
      <trkpt lat="42.3486000" lon="-3.6766360">
        <ele>867.0</ele>
        <time>2020-04-02T19:28:12Z</time>
      </trkpt>
      <trkpt lat="42.3486400" lon="-3.6769360">
        <ele>866.7</ele>
        <time>2020-04-02T19:28:14Z</time>
      </trkpt>
      <trkpt lat="42.3486740" lon="-3.6771380">
        <ele>866.9</ele>
        <time>2020-04-02T19:28:16Z</time>
      </trkpt>
      <trkpt lat="42.3487120" lon="-3.6773070">
        <ele>867.0</ele>
        <time>2020-04-02T19:28:18Z</time>
      </trkpt>
      <trkpt lat="42.3486660" lon="-3.6775650">
        <ele>866.9</ele>
        <time>2020-04-02T19:28:20Z</time>
      </trkpt>
      <trkpt lat="42.3485900" lon="-3.6777020">
        <ele>866.8</ele>
        <time>2020-04-02T19:28:22Z</time>
      </trkpt>
      <trkpt lat="42.3485150" lon="-3.6778370">
        <ele>866.8</ele>
        <time>2020-04-02T19:28:24Z</time>
      </trkpt>
      <trkpt lat="42.3484390" lon="-3.6779740">
        <ele>866.7</ele>
        <time>2020-04-02T19:28:26Z</time>
      </trkpt>
      <trkpt lat="42.3482330" lon="-3.6783480">
        <ele>866.7</ele>
        <time>2020-04-02T19:28:28Z</time>
      </trkpt>
      <trkpt lat="42.3481580" lon="-3.6784840">
        <ele>866.7</ele>
        <time>2020-04-02T19:28:30Z</time>
      </trkpt>
      <trkpt lat="42.3480860" lon="-3.6786150">
        <ele>866.8</ele>
        <time>2020-04-02T19:28:32Z</time>
      </trkpt>
      <trkpt lat="42.3480150" lon="-3.6787440">
        <ele>867.0</ele>
        <time>2020-04-02T19:28:34Z</time>
      </trkpt>
      <trkpt lat="42.3479440" lon="-3.6788720">
        <ele>867.3</ele>
        <time>2020-04-02T19:28:36Z</time>
      </trkpt>
      <trkpt lat="42.3478770" lon="-3.6789930">
        <ele>867.5</ele>
        <time>2020-04-02T19:28:38Z</time>
      </trkpt>
      <trkpt lat="42.3476790" lon="-3.6793520">
        <ele>867.8</ele>
        <time>2020-04-02T19:28:40Z</time>
      </trkpt>
      <trkpt lat="42.3476120" lon="-3.6794740">
        <ele>868.0</ele>
        <time>2020-04-02T19:28:42Z</time>
      </trkpt>
      <trkpt lat="42.3475440" lon="-3.6795960">
        <ele>868.3</ele>
        <time>2020-04-02T19:28:44Z</time>
      </trkpt>
      <trkpt lat="42.3474770" lon="-3.6797190">
        <ele>868.5</ele>
        <time>2020-04-02T19:28:46Z</time>
      </trkpt>
      <trkpt lat="42.3474110" lon="-3.6798370">
        <ele>868.5</ele>
        <time>2020-04-02T19:28:48Z</time>
      </trkpt>
      <trkpt lat="42.3472160" lon="-3.6801910">
        <ele>868.9</ele>
        <time>2020-04-02T19:28:50Z</time>
      </trkpt>
      <trkpt lat="42.3471470" lon="-3.6803150">
        <ele>869.2</ele>
        <time>2020-04-02T19:28:52Z</time>
      </trkpt>
      <trkpt lat="42.3470750" lon="-3.6804470">
        <ele>869.4</ele>
        <time>2020-04-02T19:28:54Z</time>
      </trkpt>
      <trkpt lat="42.3469990" lon="-3.6805840">
        <ele>869.5</ele>
        <time>2020-04-02T19:28:56Z</time>
      </trkpt>
      <trkpt lat="42.3469200" lon="-3.6807270">
        <ele>869.1</ele>
        <time>2020-04-02T19:28:58Z</time>
      </trkpt>
      <trkpt lat="42.3467090" lon="-3.6811090">
        <ele>866.7</ele>
        <time>2020-04-02T19:29:00Z</time>
      </trkpt>
      <trkpt lat="42.3466270" lon="-3.6812590">
        <ele>866.0</ele>
        <time>2020-04-02T19:29:02Z</time>
      </trkpt>
      <trkpt lat="42.3465440" lon="-3.6814090">
        <ele>865.6</ele>
        <time>2020-04-02T19:29:04Z</time>
      </trkpt>
      <trkpt lat="42.3464600" lon="-3.6815610">
        <ele>865.5</ele>
        <time>2020-04-02T19:29:06Z</time>
      </trkpt>
      <trkpt lat="42.3463740" lon="-3.6817160">
        <ele>865.5</ele>
        <time>2020-04-02T19:29:08Z</time>
      </trkpt>
      <trkpt lat="42.3461590" lon="-3.6821060">
        <ele>865.6</ele>
        <time>2020-04-02T19:29:10Z</time>
      </trkpt>
      <trkpt lat="42.3460790" lon="-3.6822510">
        <ele>865.5</ele>
        <time>2020-04-02T19:29:12Z</time>
      </trkpt>
      <trkpt lat="42.3460010" lon="-3.6823930">
        <ele>865.5</ele>
        <time>2020-04-02T19:29:14Z</time>
      </trkpt>
      <trkpt lat="42.3459260" lon="-3.6825290">
        <ele>865.4</ele>
        <time>2020-04-02T19:29:16Z</time>
      </trkpt>
      <trkpt lat="42.3457210" lon="-3.6828990">
        <ele>866.0</ele>
        <time>2020-04-02T19:29:18Z</time>
      </trkpt>
      <trkpt lat="42.3456500" lon="-3.6830280">
        <ele>866.3</ele>
        <time>2020-04-02T19:29:20Z</time>
      </trkpt>
      <trkpt lat="42.3455790" lon="-3.6831570">
        <ele>866.6</ele>
        <time>2020-04-02T19:29:22Z</time>
      </trkpt>
      <trkpt lat="42.3455090" lon="-3.6832840">
        <ele>866.8</ele>
        <time>2020-04-02T19:29:24Z</time>
      </trkpt>
      <trkpt lat="42.3454410" lon="-3.6834060">
        <ele>867.1</ele>
        <time>2020-04-02T19:29:26Z</time>
      </trkpt>
      <trkpt lat="42.3453740" lon="-3.6835280">
        <ele>867.3</ele>
        <time>2020-04-02T19:29:28Z</time>
      </trkpt>
      <trkpt lat="42.3451740" lon="-3.6838910">
        <ele>868.1</ele>
        <time>2020-04-02T19:29:30Z</time>
      </trkpt>
      <trkpt lat="42.3451000" lon="-3.6840250">
        <ele>867.8</ele>
        <time>2020-04-02T19:29:32Z</time>
      </trkpt>
      <trkpt lat="42.3450220" lon="-3.6841650">
        <ele>867.5</ele>
        <time>2020-04-02T19:29:34Z</time>
      </trkpt>
      <trkpt lat="42.3449410" lon="-3.6843120">
        <ele>867.2</ele>
        <time>2020-04-02T19:29:36Z</time>
      </trkpt>
      <trkpt lat="42.3447270" lon="-3.6846990">
        <ele>865.9</ele>
        <time>2020-04-02T19:29:38Z</time>
      </trkpt>
      <trkpt lat="42.3446410" lon="-3.6848550">
        <ele>865.4</ele>
        <time>2020-04-02T19:29:40Z</time>
      </trkpt>
      <trkpt lat="42.3445550" lon="-3.6850120">
        <ele>865.0</ele>
        <time>2020-04-02T19:29:42Z</time>
      </trkpt>
      <trkpt lat="42.3444650" lon="-3.6851730">
        <ele>864.1</ele>
        <time>2020-04-02T19:29:44Z</time>
      </trkpt>
      <trkpt lat="42.3443760" lon="-3.6853360">
        <ele>863.2</ele>
        <time>2020-04-02T19:29:46Z</time>
      </trkpt>
      <trkpt lat="42.3441640" lon="-3.6857400">
        <ele>862.3</ele>
        <time>2020-04-02T19:29:48Z</time>
      </trkpt>
      <trkpt lat="42.3440620" lon="-3.6859870">
        <ele>863.0</ele>
        <time>2020-04-02T19:29:50Z</time>
      </trkpt>
      <trkpt lat="42.3441050" lon="-3.6861920">
        <ele>863.9</ele>
        <time>2020-04-02T19:29:52Z</time>
      </trkpt>
      <trkpt lat="42.3441370" lon="-3.6863540">
        <ele>864.4</ele>
        <time>2020-04-02T19:29:54Z</time>
      </trkpt>
      <trkpt lat="42.3441750" lon="-3.6864950">
        <ele>864.6</ele>
        <time>2020-04-02T19:29:56Z</time>
      </trkpt>
      <trkpt lat="42.3443400" lon="-3.6865600">
        <ele>865.0</ele>
        <time>2020-04-02T19:29:58Z</time>
      </trkpt>
      <trkpt lat="42.3443400" lon="-3.6865600">
        <ele>865.0</ele>
        <time>2020-04-02T19:29:58Z</time>
      </trkpt>
      <trkpt lat="42.3443400" lon="-3.6865600">
        <ele>865.0</ele>
        <time>2020-04-02T19:30:00Z</time>
      </trkpt>
      <trkpt lat="42.3443400" lon="-3.6865600">
        <ele>865.0</ele>
        <time>2020-04-02T19:30:02Z</time>
      </trkpt>
      <trkpt lat="42.3443400" lon="-3.6865600">
        <ele>865.0</ele>
        <time>2020-04-02T19:30:04Z</time>
      </trkpt>
      <trkpt lat="42.3443400" lon="-3.6865600">
        <ele>865.0</ele>
        <time>2020-04-02T19:30:06Z</time>
      </trkpt>
      <trkpt lat="42.3443400" lon="-3.6865600">
        <ele>865.0</ele>
        <time>2020-04-02T19:30:08Z</time>
      </trkpt>
      <trkpt lat="42.3443400" lon="-3.6865600">
        <ele>865.0</ele>
        <time>2020-04-02T19:30:10Z</time>
      </trkpt>
      <trkpt lat="42.3443400" lon="-3.6865600">
        <ele>865.0</ele>
        <time>2020-04-02T19:30:12Z</time>
      </trkpt>
      <trkpt lat="42.3443400" lon="-3.6865600">
        <ele>865.0</ele>
        <time>2020-04-02T19:30:14Z</time>
      </trkpt>
      <trkpt lat="42.3443400" lon="-3.6865600">
        <ele>865.0</ele>
        <time>2020-04-02T19:30:15Z</time>
      </trkpt>
      <trkpt lat="42.3440590" lon="-3.6845960">
        <ele>865.4</ele>
        <time>2020-04-04T17:11:16Z</time>
      </trkpt>
      <trkpt lat="42.3440590" lon="-3.6845960">
        <ele>865.4</ele>
        <time>2020-04-04T17:11:18Z</time>
      </trkpt>
      <trkpt lat="42.3440590" lon="-3.6845960">
        <ele>865.4</ele>
        <time>2020-04-04T17:11:20Z</time>
      </trkpt>
      <trkpt lat="42.3440590" lon="-3.6845960">
        <ele>865.4</ele>
        <time>2020-04-04T17:11:22Z</time>
      </trkpt>
      <trkpt lat="42.3440590" lon="-3.6845960">
        <ele>865.4</ele>
        <time>2020-04-04T17:11:24Z</time>
      </trkpt>
      <trkpt lat="42.3440590" lon="-3.6845960">
        <ele>865.4</ele>
        <time>2020-04-04T17:11:26Z</time>
      </trkpt>
      <trkpt lat="42.3440590" lon="-3.6845960">
        <ele>865.4</ele>
        <time>2020-04-04T17:11:29Z</time>
      </trkpt>
      <trkpt lat="42.3440590" lon="-3.6845960">
        <ele>865.4</ele>
        <time>2020-04-04T17:11:31Z</time>
      </trkpt>
      <trkpt lat="42.3440590" lon="-3.6845960">
        <ele>865.4</ele>
        <time>2020-04-04T17:11:33Z</time>
      </trkpt>
      <trkpt lat="42.3440590" lon="-3.6845960">
        <ele>865.4</ele>
        <time>2020-04-04T17:11:35Z</time>
      </trkpt>
      <trkpt lat="42.3440590" lon="-3.6845960">
        <ele>865.4</ele>
        <time>2020-04-04T17:11:37Z</time>
      </trkpt>
      <trkpt lat="42.3440590" lon="-3.6845960">
        <ele>865.4</ele>
        <time>2020-04-04T17:11:39Z</time>
      </trkpt>
      <trkpt lat="42.3440590" lon="-3.6845960">
        <ele>865.4</ele>
        <time>2020-04-04T17:11:41Z</time>
      </trkpt>
      <trkpt lat="42.3440590" lon="-3.6845960">
        <ele>865.4</ele>
        <time>2020-04-04T17:11:43Z</time>
      </trkpt>
      <trkpt lat="42.3440590" lon="-3.6845960">
        <ele>865.4</ele>
        <time>2020-04-04T17:11:45Z</time>
      </trkpt>
      <trkpt lat="42.3440590" lon="-3.6845960">
        <ele>865.4</ele>
        <time>2020-04-04T17:11:47Z</time>
      </trkpt>
      <trkpt lat="42.3440590" lon="-3.6845960">
        <ele>865.4</ele>
        <time>2020-04-04T17:11:49Z</time>
      </trkpt>
      <trkpt lat="42.3440590" lon="-3.6845960">
        <ele>865.4</ele>
        <time>2020-04-04T17:11:51Z</time>
      </trkpt>
      <trkpt lat="42.3440590" lon="-3.6845960">
        <ele>865.4</ele>
        <time>2020-04-04T17:11:53Z</time>
      </trkpt>
      <trkpt lat="42.3440590" lon="-3.6845960">
        <ele>865.4</ele>
        <time>2020-04-04T17:11:55Z</time>
      </trkpt>
      <trkpt lat="42.3440590" lon="-3.6845960">
        <ele>865.4</ele>
        <time>2020-04-04T17:11:57Z</time>
      </trkpt>
      <trkpt lat="42.3440590" lon="-3.6845960">
        <ele>865.4</ele>
        <time>2020-04-04T17:11:59Z</time>
      </trkpt>
      <trkpt lat="42.3440590" lon="-3.6845960">
        <ele>865.4</ele>
        <time>2020-04-04T17:12:01Z</time>
      </trkpt>
      <trkpt lat="42.3440590" lon="-3.6845960">
        <ele>865.4</ele>
        <time>2020-04-04T17:12:03Z</time>
      </trkpt>
      <trkpt lat="42.3440590" lon="-3.6845960">
        <ele>865.4</ele>
        <time>2020-04-04T17:12:05Z</time>
      </trkpt>
      <trkpt lat="42.3440590" lon="-3.6845960">
        <ele>865.4</ele>
        <time>2020-04-04T17:12:07Z</time>
      </trkpt>
      <trkpt lat="42.3440590" lon="-3.6845960">
        <ele>865.4</ele>
        <time>2020-04-04T17:12:09Z</time>
      </trkpt>
      <trkpt lat="42.3440590" lon="-3.6845960">
        <ele>865.4</ele>
        <time>2020-04-04T17:12:11Z</time>
      </trkpt>
      <trkpt lat="42.3440590" lon="-3.6845960">
        <ele>865.4</ele>
        <time>2020-04-04T17:12:11Z</time>
      </trkpt>
      <trkpt lat="42.3440550" lon="-3.6845970">
        <ele>865.4</ele>
        <time>2020-04-04T17:12:13Z</time>
      </trkpt>
      <trkpt lat="42.3440310" lon="-3.6846010">
        <ele>865.3</ele>
        <time>2020-04-04T17:12:15Z</time>
      </trkpt>
      <trkpt lat="42.3440050" lon="-3.6846060">
        <ele>865.3</ele>
        <time>2020-04-04T17:12:17Z</time>
      </trkpt>
      <trkpt lat="42.3439740" lon="-3.6846120">
        <ele>865.1</ele>
        <time>2020-04-04T17:12:19Z</time>
      </trkpt>
      <trkpt lat="42.3439280" lon="-3.6846610">
        <ele>865.0</ele>
        <time>2020-04-04T17:12:21Z</time>
      </trkpt>
      <trkpt lat="42.3439060" lon="-3.6847490">
        <ele>864.9</ele>
        <time>2020-04-04T17:12:23Z</time>
      </trkpt>
      <trkpt lat="42.3438670" lon="-3.6848690">
        <ele>864.7</ele>
        <time>2020-04-04T17:12:25Z</time>
      </trkpt>
      <trkpt lat="42.3438140" lon="-3.6849840">
        <ele>864.4</ele>
        <time>2020-04-04T17:12:27Z</time>
      </trkpt>
      <trkpt lat="42.3437250" lon="-3.6849900">
        <ele>864.4</ele>
        <time>2020-04-04T17:12:29Z</time>
      </trkpt>
      <trkpt lat="42.3435800" lon="-3.6850340">
        <ele>864.3</ele>
        <time>2020-04-04T17:12:31Z</time>
      </trkpt>
      <trkpt lat="42.3435160" lon="-3.6851950">
        <ele>864.1</ele>
        <time>2020-04-04T17:12:33Z</time>
      </trkpt>
      <trkpt lat="42.3434700" lon="-3.6853880">
        <ele>864.0</ele>
        <time>2020-04-04T17:12:35Z</time>
      </trkpt>
      <trkpt lat="42.3434500" lon="-3.6855710">
        <ele>864.1</ele>
        <time>2020-04-04T17:12:37Z</time>
      </trkpt>
      <trkpt lat="42.3434010" lon="-3.6857750">
        <ele>864.5</ele>
        <time>2020-04-04T17:12:39Z</time>
      </trkpt>
      <trkpt lat="42.3432410" lon="-3.6857860">
        <ele>864.5</ele>
        <time>2020-04-04T17:12:41Z</time>
      </trkpt>
      <trkpt lat="42.3431460" lon="-3.6856790">
        <ele>864.6</ele>
        <time>2020-04-04T17:12:43Z</time>
      </trkpt>
      <trkpt lat="42.3430180" lon="-3.6857440">
        <ele>864.7</ele>
        <time>2020-04-04T17:12:45Z</time>
      </trkpt>
      <trkpt lat="42.3430010" lon="-3.6859440">
        <ele>865.3</ele>
        <time>2020-04-04T17:12:47Z</time>
      </trkpt>
      <trkpt lat="42.3428720" lon="-3.6860250">
        <ele>865.0</ele>
        <time>2020-04-04T17:12:49Z</time>
      </trkpt>
      <trkpt lat="42.3427520" lon="-3.6859840">
        <ele>864.6</ele>
        <time>2020-04-04T17:12:51Z</time>
      </trkpt>
      <trkpt lat="42.3426310" lon="-3.6859420">
        <ele>864.3</ele>
        <time>2020-04-04T17:12:53Z</time>
      </trkpt>
      <trkpt lat="42.3423850" lon="-3.6858700">
        <ele>863.7</ele>
        <time>2020-04-04T17:12:55Z</time>
      </trkpt>
      <trkpt lat="42.3422560" lon="-3.6859720">
        <ele>863.9</ele>
        <time>2020-04-04T17:12:57Z</time>
      </trkpt>
      <trkpt lat="42.3421170" lon="-3.6861190">
        <ele>863.9</ele>
        <time>2020-04-04T17:12:59Z</time>
      </trkpt>
      <trkpt lat="42.3419540" lon="-3.6862790">
        <ele>863.8</ele>
        <time>2020-04-04T17:13:01Z</time>
      </trkpt>
      <trkpt lat="42.3418150" lon="-3.6864520">
        <ele>863.5</ele>
        <time>2020-04-04T17:13:03Z</time>
      </trkpt>
      <trkpt lat="42.3417010" lon="-3.6866220">
        <ele>862.9</ele>
        <time>2020-04-04T17:13:05Z</time>
      </trkpt>
      <trkpt lat="42.3415520" lon="-3.6868240">
        <ele>862.2</ele>
        <time>2020-04-04T17:13:07Z</time>
      </trkpt>
      <trkpt lat="42.3414500" lon="-3.6870560">
        <ele>861.7</ele>
        <time>2020-04-04T17:13:09Z</time>
      </trkpt>
      <trkpt lat="42.3413780" lon="-3.6872980">
        <ele>861.4</ele>
        <time>2020-04-04T17:13:11Z</time>
      </trkpt>
      <trkpt lat="42.3413260" lon="-3.6875620">
        <ele>861.1</ele>
        <time>2020-04-04T17:13:13Z</time>
      </trkpt>
      <trkpt lat="42.3412980" lon="-3.6878260">
        <ele>860.9</ele>
        <time>2020-04-04T17:13:15Z</time>
      </trkpt>
      <trkpt lat="42.3412430" lon="-3.6880450">
        <ele>860.7</ele>
        <time>2020-04-04T17:13:17Z</time>
      </trkpt>
      <trkpt lat="42.3411740" lon="-3.6881990">
        <ele>860.8</ele>
        <time>2020-04-04T17:13:19Z</time>
      </trkpt>
      <trkpt lat="42.3411540" lon="-3.6883870">
        <ele>860.9</ele>
        <time>2020-04-04T17:13:21Z</time>
      </trkpt>
      <trkpt lat="42.3411340" lon="-3.6885670">
        <ele>860.9</ele>
        <time>2020-04-04T17:13:23Z</time>
      </trkpt>
      <trkpt lat="42.3411150" lon="-3.6887410">
        <ele>860.8</ele>
        <time>2020-04-04T17:13:25Z</time>
      </trkpt>
      <trkpt lat="42.3410640" lon="-3.6892010">
        <ele>860.2</ele>
        <time>2020-04-04T17:13:27Z</time>
      </trkpt>
      <trkpt lat="42.3410450" lon="-3.6893780">
        <ele>859.9</ele>
        <time>2020-04-04T17:13:29Z</time>
      </trkpt>
      <trkpt lat="42.3410270" lon="-3.6895420">
        <ele>859.7</ele>
        <time>2020-04-04T17:13:31Z</time>
      </trkpt>
      <trkpt lat="42.3410100" lon="-3.6897050">
        <ele>859.6</ele>
        <time>2020-04-04T17:13:33Z</time>
      </trkpt>
      <trkpt lat="42.3409920" lon="-3.6898650">
        <ele>859.4</ele>
        <time>2020-04-04T17:13:35Z</time>
      </trkpt>
      <trkpt lat="42.3409440" lon="-3.6902960">
        <ele>859.3</ele>
        <time>2020-04-04T17:13:37Z</time>
      </trkpt>
      <trkpt lat="42.3409220" lon="-3.6904970">
        <ele>859.4</ele>
        <time>2020-04-04T17:13:39Z</time>
      </trkpt>
      <trkpt lat="42.3408990" lon="-3.6907130">
        <ele>859.4</ele>
        <time>2020-04-04T17:13:41Z</time>
      </trkpt>
      <trkpt lat="42.3408800" lon="-3.6908780">
        <ele>859.3</ele>
        <time>2020-04-04T17:13:43Z</time>
      </trkpt>
      <trkpt lat="42.3408610" lon="-3.6910460">
        <ele>859.3</ele>
        <time>2020-04-04T17:13:45Z</time>
      </trkpt>
      <trkpt lat="42.3408430" lon="-3.6912150">
        <ele>859.3</ele>
        <time>2020-04-04T17:13:47Z</time>
      </trkpt>
      <trkpt lat="42.3407990" lon="-3.6916080">
        <ele>859.1</ele>
        <time>2020-04-04T17:13:49Z</time>
      </trkpt>
      <trkpt lat="42.3407800" lon="-3.6917770">
        <ele>859.0</ele>
        <time>2020-04-04T17:13:51Z</time>
      </trkpt>
      <trkpt lat="42.3407610" lon="-3.6919470">
        <ele>858.8</ele>
        <time>2020-04-04T17:13:53Z</time>
      </trkpt>
      <trkpt lat="42.3407210" lon="-3.6923110">
        <ele>857.9</ele>
        <time>2020-04-04T17:13:55Z</time>
      </trkpt>
      <trkpt lat="42.3406940" lon="-3.6925450">
        <ele>857.5</ele>
        <time>2020-04-04T17:13:57Z</time>
      </trkpt>
      <trkpt lat="42.3406700" lon="-3.6927560">
        <ele>857.6</ele>
        <time>2020-04-04T17:13:59Z</time>
      </trkpt>
      <trkpt lat="42.3406510" lon="-3.6929260">
        <ele>857.7</ele>
        <time>2020-04-04T17:14:01Z</time>
      </trkpt>
      <trkpt lat="42.3406320" lon="-3.6930960">
        <ele>857.9</ele>
        <time>2020-04-04T17:14:03Z</time>
      </trkpt>
      <trkpt lat="42.3405930" lon="-3.6934430">
        <ele>858.9</ele>
        <time>2020-04-04T17:14:05Z</time>
      </trkpt>
      <trkpt lat="42.3405740" lon="-3.6936090">
        <ele>859.6</ele>
        <time>2020-04-04T17:14:07Z</time>
      </trkpt>
      <trkpt lat="42.3405150" lon="-3.6939140">
        <ele>860.8</ele>
        <time>2020-04-04T17:14:09Z</time>
      </trkpt>
      <trkpt lat="42.3404020" lon="-3.6940720">
        <ele>861.0</ele>
        <time>2020-04-04T17:14:11Z</time>
      </trkpt>
      <trkpt lat="42.3403750" lon="-3.6942900">
        <ele>861.6</ele>
        <time>2020-04-04T17:14:13Z</time>
      </trkpt>
      <trkpt lat="42.3404310" lon="-3.6944910">
        <ele>862.0</ele>
        <time>2020-04-04T17:14:15Z</time>
      </trkpt>
      <trkpt lat="42.3404960" lon="-3.6946480">
        <ele>862.3</ele>
        <time>2020-04-04T17:14:17Z</time>
      </trkpt>
      <trkpt lat="42.3405810" lon="-3.6947920">
        <ele>862.2</ele>
        <time>2020-04-04T17:14:19Z</time>
      </trkpt>
      <trkpt lat="42.3405510" lon="-3.6949450">
        <ele>861.9</ele>
        <time>2020-04-04T17:14:21Z</time>
      </trkpt>
      <trkpt lat="42.3405220" lon="-3.6950990">
        <ele>861.8</ele>
        <time>2020-04-04T17:14:23Z</time>
      </trkpt>
      <trkpt lat="42.3404930" lon="-3.6952510">
        <ele>861.8</ele>
        <time>2020-04-04T17:14:25Z</time>
      </trkpt>
      <trkpt lat="42.3404240" lon="-3.6956060">
        <ele>862.2</ele>
        <time>2020-04-04T17:14:27Z</time>
      </trkpt>
      <trkpt lat="42.3403930" lon="-3.6957690">
        <ele>862.3</ele>
        <time>2020-04-04T17:14:29Z</time>
      </trkpt>
      <trkpt lat="42.3403600" lon="-3.6959450">
        <ele>862.3</ele>
        <time>2020-04-04T17:14:31Z</time>
      </trkpt>
      <trkpt lat="42.3402850" lon="-3.6963290">
        <ele>861.4</ele>
        <time>2020-04-04T17:14:33Z</time>
      </trkpt>
      <trkpt lat="42.3402290" lon="-3.6965740">
        <ele>860.7</ele>
        <time>2020-04-04T17:14:35Z</time>
      </trkpt>
      <trkpt lat="42.3401330" lon="-3.6967890">
        <ele>860.0</ele>
        <time>2020-04-04T17:14:37Z</time>
      </trkpt>
      <trkpt lat="42.3400790" lon="-3.6970370">
        <ele>859.1</ele>
        <time>2020-04-04T17:14:39Z</time>
      </trkpt>
      <trkpt lat="42.3400420" lon="-3.6972390">
        <ele>858.5</ele>
        <time>2020-04-04T17:14:41Z</time>
      </trkpt>
      <trkpt lat="42.3399800" lon="-3.6975730">
        <ele>857.8</ele>
        <time>2020-04-04T17:14:43Z</time>
      </trkpt>
      <trkpt lat="42.3399220" lon="-3.6978900">
        <ele>857.5</ele>
        <time>2020-04-04T17:14:45Z</time>
      </trkpt>
      <trkpt lat="42.3398870" lon="-3.6980830">
        <ele>857.5</ele>
        <time>2020-04-04T17:14:47Z</time>
      </trkpt>
      <trkpt lat="42.3398540" lon="-3.6982630">
        <ele>857.6</ele>
        <time>2020-04-04T17:14:49Z</time>
      </trkpt>
      <trkpt lat="42.3397950" lon="-3.6985880">
        <ele>857.7</ele>
        <time>2020-04-04T17:14:51Z</time>
      </trkpt>
      <trkpt lat="42.3397660" lon="-3.6987450">
        <ele>857.8</ele>
        <time>2020-04-04T17:14:53Z</time>
      </trkpt>
      <trkpt lat="42.3398360" lon="-3.6989800">
        <ele>858.0</ele>
        <time>2020-04-04T17:14:55Z</time>
      </trkpt>
      <trkpt lat="42.3398510" lon="-3.6991410">
        <ele>858.2</ele>
        <time>2020-04-04T17:14:57Z</time>
      </trkpt>
      <trkpt lat="42.3398250" lon="-3.6993160">
        <ele>858.7</ele>
        <time>2020-04-04T17:14:59Z</time>
      </trkpt>
      <trkpt lat="42.3398020" lon="-3.6994940">
        <ele>859.4</ele>
        <time>2020-04-04T17:15:01Z</time>
      </trkpt>
      <trkpt lat="42.3397790" lon="-3.6996360">
        <ele>859.8</ele>
        <time>2020-04-04T17:15:03Z</time>
      </trkpt>
      <trkpt lat="42.3397550" lon="-3.6997810">
        <ele>859.9</ele>
        <time>2020-04-04T17:15:05Z</time>
      </trkpt>
      <trkpt lat="42.3397310" lon="-3.6999280">
        <ele>859.8</ele>
        <time>2020-04-04T17:15:07Z</time>
      </trkpt>
      <trkpt lat="42.3397060" lon="-3.7000780">
        <ele>859.7</ele>
        <time>2020-04-04T17:15:09Z</time>
      </trkpt>
      <trkpt lat="42.3396400" lon="-3.7004810">
        <ele>860.2</ele>
        <time>2020-04-04T17:15:11Z</time>
      </trkpt>
      <trkpt lat="42.3396150" lon="-3.7006330">
        <ele>860.3</ele>
        <time>2020-04-04T17:15:13Z</time>
      </trkpt>
      <trkpt lat="42.3395900" lon="-3.7007860">
        <ele>860.3</ele>
        <time>2020-04-04T17:15:15Z</time>
      </trkpt>
      <trkpt lat="42.3395650" lon="-3.7009400">
        <ele>860.0</ele>
        <time>2020-04-04T17:15:17Z</time>
      </trkpt>
      <trkpt lat="42.3395400" lon="-3.7010940">
        <ele>859.8</ele>
        <time>2020-04-04T17:15:19Z</time>
      </trkpt>
      <trkpt lat="42.3394660" lon="-3.7015470">
        <ele>859.6</ele>
        <time>2020-04-04T17:15:21Z</time>
      </trkpt>
      <trkpt lat="42.3394410" lon="-3.7017010">
        <ele>859.6</ele>
        <time>2020-04-04T17:15:23Z</time>
      </trkpt>
      <trkpt lat="42.3394160" lon="-3.7018540">
        <ele>859.6</ele>
        <time>2020-04-04T17:15:25Z</time>
      </trkpt>
      <trkpt lat="42.3393910" lon="-3.7020060">
        <ele>859.6</ele>
        <time>2020-04-04T17:15:27Z</time>
      </trkpt>
      <trkpt lat="42.3393670" lon="-3.7021570">
        <ele>859.6</ele>
        <time>2020-04-04T17:15:29Z</time>
      </trkpt>
      <trkpt lat="42.3393420" lon="-3.7023080">
        <ele>859.5</ele>
        <time>2020-04-04T17:15:31Z</time>
      </trkpt>
      <trkpt lat="42.3392370" lon="-3.7027290">
        <ele>859.5</ele>
        <time>2020-04-04T17:15:33Z</time>
      </trkpt>
      <trkpt lat="42.3392140" lon="-3.7029450">
        <ele>858.8</ele>
        <time>2020-04-04T17:15:35Z</time>
      </trkpt>
      <trkpt lat="42.3391550" lon="-3.7031440">
        <ele>858.3</ele>
        <time>2020-04-04T17:15:37Z</time>
      </trkpt>
      <trkpt lat="42.3390820" lon="-3.7033180">
        <ele>857.9</ele>
        <time>2020-04-04T17:15:39Z</time>
      </trkpt>
      <trkpt lat="42.3389940" lon="-3.7035310">
        <ele>857.4</ele>
        <time>2020-04-04T17:15:41Z</time>
      </trkpt>
      <trkpt lat="42.3388980" lon="-3.7037500">
        <ele>856.9</ele>
        <time>2020-04-04T17:15:43Z</time>
      </trkpt>
      <trkpt lat="42.3388260" lon="-3.7039490">
        <ele>856.4</ele>
        <time>2020-04-04T17:15:45Z</time>
      </trkpt>
      <trkpt lat="42.3387080" lon="-3.7041180">
        <ele>856.1</ele>
        <time>2020-04-04T17:15:47Z</time>
      </trkpt>
      <trkpt lat="42.3385760" lon="-3.7043060">
        <ele>855.9</ele>
        <time>2020-04-04T17:15:49Z</time>
      </trkpt>
      <trkpt lat="42.3384470" lon="-3.7044890">
        <ele>855.7</ele>
        <time>2020-04-04T17:15:51Z</time>
      </trkpt>
      <trkpt lat="42.3383340" lon="-3.7046490">
        <ele>855.6</ele>
        <time>2020-04-04T17:15:53Z</time>
      </trkpt>
      <trkpt lat="42.3382200" lon="-3.7048130">
        <ele>855.5</ele>
        <time>2020-04-04T17:15:55Z</time>
      </trkpt>
      <trkpt lat="42.3380970" lon="-3.7049860">
        <ele>855.6</ele>
        <time>2020-04-04T17:15:57Z</time>
      </trkpt>
      <trkpt lat="42.3379820" lon="-3.7051490">
        <ele>855.5</ele>
        <time>2020-04-04T17:15:59Z</time>
      </trkpt>
      <trkpt lat="42.3378650" lon="-3.7053410">
        <ele>855.6</ele>
        <time>2020-04-04T17:16:01Z</time>
      </trkpt>
      <trkpt lat="42.3377770" lon="-3.7055560">
        <ele>855.9</ele>
        <time>2020-04-04T17:16:03Z</time>
      </trkpt>
      <trkpt lat="42.3376590" lon="-3.7056220">
        <ele>855.4</ele>
        <time>2020-04-04T17:16:05Z</time>
      </trkpt>
      <trkpt lat="42.3375050" lon="-3.7057570">
        <ele>855.1</ele>
        <time>2020-04-04T17:16:07Z</time>
      </trkpt>
      <trkpt lat="42.3374120" lon="-3.7059770">
        <ele>855.2</ele>
        <time>2020-04-04T17:16:09Z</time>
      </trkpt>
      <trkpt lat="42.3373320" lon="-3.7061680">
        <ele>855.3</ele>
        <time>2020-04-04T17:16:11Z</time>
      </trkpt>
      <trkpt lat="42.3372560" lon="-3.7063570">
        <ele>855.3</ele>
        <time>2020-04-04T17:16:13Z</time>
      </trkpt>
      <trkpt lat="42.3371850" lon="-3.7065400">
        <ele>855.4</ele>
        <time>2020-04-04T17:16:15Z</time>
      </trkpt>
      <trkpt lat="42.3371000" lon="-3.7067650">
        <ele>855.6</ele>
        <time>2020-04-04T17:16:17Z</time>
      </trkpt>
      <trkpt lat="42.3370280" lon="-3.7069870">
        <ele>855.9</ele>
        <time>2020-04-04T17:16:19Z</time>
      </trkpt>
      <trkpt lat="42.3369760" lon="-3.7072090">
        <ele>856.1</ele>
        <time>2020-04-04T17:16:21Z</time>
      </trkpt>
      <trkpt lat="42.3369380" lon="-3.7074350">
        <ele>856.1</ele>
        <time>2020-04-04T17:16:23Z</time>
      </trkpt>
      <trkpt lat="42.3369120" lon="-3.7076140">
        <ele>855.9</ele>
        <time>2020-04-04T17:16:25Z</time>
      </trkpt>
      <trkpt lat="42.3368850" lon="-3.7077980">
        <ele>855.5</ele>
        <time>2020-04-04T17:16:27Z</time>
      </trkpt>
      <trkpt lat="42.3368280" lon="-3.7081860">
        <ele>854.9</ele>
        <time>2020-04-04T17:16:29Z</time>
      </trkpt>
      <trkpt lat="42.3368500" lon="-3.7084510">
        <ele>855.0</ele>
        <time>2020-04-04T17:16:31Z</time>
      </trkpt>
      <trkpt lat="42.3367930" lon="-3.7086520">
        <ele>854.7</ele>
        <time>2020-04-04T17:16:33Z</time>
      </trkpt>
      <trkpt lat="42.3368170" lon="-3.7088920">
        <ele>854.6</ele>
        <time>2020-04-04T17:16:35Z</time>
      </trkpt>
      <trkpt lat="42.3368400" lon="-3.7090820">
        <ele>854.6</ele>
        <time>2020-04-04T17:16:37Z</time>
      </trkpt>
      <trkpt lat="42.3368610" lon="-3.7092680">
        <ele>854.6</ele>
        <time>2020-04-04T17:16:39Z</time>
      </trkpt>
      <trkpt lat="42.3369080" lon="-3.7096250">
        <ele>854.5</ele>
        <time>2020-04-04T17:16:41Z</time>
      </trkpt>
      <trkpt lat="42.3369690" lon="-3.7098880">
        <ele>854.4</ele>
        <time>2020-04-04T17:16:43Z</time>
      </trkpt>
      <trkpt lat="42.3370440" lon="-3.7100750">
        <ele>854.1</ele>
        <time>2020-04-04T17:16:45Z</time>
      </trkpt>
      <trkpt lat="42.3371460" lon="-3.7103190">
        <ele>853.1</ele>
        <time>2020-04-04T17:16:47Z</time>
      </trkpt>
      <trkpt lat="42.3372170" lon="-3.7104780">
        <ele>852.8</ele>
        <time>2020-04-04T17:16:49Z</time>
      </trkpt>
      <trkpt lat="42.3372890" lon="-3.7106370">
        <ele>852.6</ele>
        <time>2020-04-04T17:16:51Z</time>
      </trkpt>
      <trkpt lat="42.3373620" lon="-3.7108000">
        <ele>852.5</ele>
        <time>2020-04-04T17:16:53Z</time>
      </trkpt>
      <trkpt lat="42.3375430" lon="-3.7111920">
        <ele>852.1</ele>
        <time>2020-04-04T17:16:55Z</time>
      </trkpt>
      <trkpt lat="42.3376500" lon="-3.7113910">
        <ele>851.9</ele>
        <time>2020-04-04T17:16:57Z</time>
      </trkpt>
      <trkpt lat="42.3377560" lon="-3.7115800">
        <ele>851.9</ele>
        <time>2020-04-04T17:16:59Z</time>
      </trkpt>
      <trkpt lat="42.3378400" lon="-3.7117180">
        <ele>852.2</ele>
        <time>2020-04-04T17:17:01Z</time>
      </trkpt>
      <trkpt lat="42.3379570" lon="-3.7119630">
        <ele>852.5</ele>
        <time>2020-04-04T17:17:03Z</time>
      </trkpt>
      <trkpt lat="42.3379220" lon="-3.7121580">
        <ele>852.5</ele>
        <time>2020-04-04T17:17:05Z</time>
      </trkpt>
      <trkpt lat="42.3380010" lon="-3.7122910">
        <ele>852.7</ele>
        <time>2020-04-04T17:17:07Z</time>
      </trkpt>
      <trkpt lat="42.3380780" lon="-3.7124200">
        <ele>852.7</ele>
        <time>2020-04-04T17:17:09Z</time>
      </trkpt>
      <trkpt lat="42.3382120" lon="-3.7126490">
        <ele>852.9</ele>
        <time>2020-04-04T17:17:11Z</time>
      </trkpt>
      <trkpt lat="42.3383180" lon="-3.7128400">
        <ele>853.4</ele>
        <time>2020-04-04T17:17:13Z</time>
      </trkpt>
      <trkpt lat="42.3384100" lon="-3.7130290">
        <ele>853.5</ele>
        <time>2020-04-04T17:17:15Z</time>
      </trkpt>
      <trkpt lat="42.3384680" lon="-3.7131600">
        <ele>853.5</ele>
        <time>2020-04-04T17:17:17Z</time>
      </trkpt>
      <trkpt lat="42.3385440" lon="-3.7133460">
        <ele>853.4</ele>
        <time>2020-04-04T17:17:19Z</time>
      </trkpt>
      <trkpt lat="42.3386270" lon="-3.7135560">
        <ele>853.3</ele>
        <time>2020-04-04T17:17:21Z</time>
      </trkpt>
      <trkpt lat="42.3386970" lon="-3.7137330">
        <ele>853.4</ele>
        <time>2020-04-04T17:17:23Z</time>
      </trkpt>
      <trkpt lat="42.3387510" lon="-3.7138700">
        <ele>853.5</ele>
        <time>2020-04-04T17:17:25Z</time>
      </trkpt>
      <trkpt lat="42.3388060" lon="-3.7140070">
        <ele>853.6</ele>
        <time>2020-04-04T17:17:27Z</time>
      </trkpt>
      <trkpt lat="42.3389270" lon="-3.7143110">
        <ele>853.8</ele>
        <time>2020-04-04T17:17:29Z</time>
      </trkpt>
      <trkpt lat="42.3389820" lon="-3.7144650">
        <ele>853.6</ele>
        <time>2020-04-04T17:17:31Z</time>
      </trkpt>
      <trkpt lat="42.3390450" lon="-3.7146480">
        <ele>853.7</ele>
        <time>2020-04-04T17:17:33Z</time>
      </trkpt>
      <trkpt lat="42.3390890" lon="-3.7147790">
        <ele>853.9</ele>
        <time>2020-04-04T17:17:35Z</time>
      </trkpt>
      <trkpt lat="42.3391710" lon="-3.7150200">
        <ele>854.2</ele>
        <time>2020-04-04T17:17:37Z</time>
      </trkpt>
      <trkpt lat="42.3392290" lon="-3.7151940">
        <ele>854.5</ele>
        <time>2020-04-04T17:17:39Z</time>
      </trkpt>
      <trkpt lat="42.3392700" lon="-3.7153200">
        <ele>854.5</ele>
        <time>2020-04-04T17:17:41Z</time>
      </trkpt>
      <trkpt lat="42.3393110" lon="-3.7154450">
        <ele>854.5</ele>
        <time>2020-04-04T17:17:43Z</time>
      </trkpt>
      <trkpt lat="42.3393870" lon="-3.7156970">
        <ele>854.5</ele>
        <time>2020-04-04T17:17:45Z</time>
      </trkpt>
      <trkpt lat="42.3394360" lon="-3.7158870">
        <ele>854.5</ele>
        <time>2020-04-04T17:17:47Z</time>
      </trkpt>
      <trkpt lat="42.3394720" lon="-3.7160320">
        <ele>854.5</ele>
        <time>2020-04-04T17:17:49Z</time>
      </trkpt>
      <trkpt lat="42.3395380" lon="-3.7162880">
        <ele>854.4</ele>
        <time>2020-04-04T17:17:51Z</time>
      </trkpt>
      <trkpt lat="42.3395780" lon="-3.7164460">
        <ele>854.3</ele>
        <time>2020-04-04T17:17:53Z</time>
      </trkpt>
      <trkpt lat="42.3396450" lon="-3.7167070">
        <ele>854.0</ele>
        <time>2020-04-04T17:17:55Z</time>
      </trkpt>
      <trkpt lat="42.3396850" lon="-3.7169690">
        <ele>853.7</ele>
        <time>2020-04-04T17:17:57Z</time>
      </trkpt>
      <trkpt lat="42.3396760" lon="-3.7172010">
        <ele>853.7</ele>
        <time>2020-04-04T17:17:59Z</time>
      </trkpt>
      <trkpt lat="42.3395930" lon="-3.7173830">
        <ele>853.5</ele>
        <time>2020-04-04T17:18:01Z</time>
      </trkpt>
      <trkpt lat="42.3396880" lon="-3.7175560">
        <ele>853.0</ele>
        <time>2020-04-04T17:18:03Z</time>
      </trkpt>
      <trkpt lat="42.3398180" lon="-3.7176750">
        <ele>852.7</ele>
        <time>2020-04-04T17:18:05Z</time>
      </trkpt>
      <trkpt lat="42.3399760" lon="-3.7178100">
        <ele>852.2</ele>
        <time>2020-04-04T17:18:07Z</time>
      </trkpt>
      <trkpt lat="42.3401160" lon="-3.7180070">
        <ele>851.9</ele>
        <time>2020-04-04T17:18:09Z</time>
      </trkpt>
      <trkpt lat="42.3402450" lon="-3.7181870">
        <ele>851.6</ele>
        <time>2020-04-04T17:18:11Z</time>
      </trkpt>
      <trkpt lat="42.3403650" lon="-3.7183600">
        <ele>851.3</ele>
        <time>2020-04-04T17:18:13Z</time>
      </trkpt>
      <trkpt lat="42.3404780" lon="-3.7185140">
        <ele>851.1</ele>
        <time>2020-04-04T17:18:15Z</time>
      </trkpt>
      <trkpt lat="42.3405810" lon="-3.7186860">
        <ele>851.2</ele>
        <time>2020-04-04T17:18:17Z</time>
      </trkpt>
      <trkpt lat="42.3406910" lon="-3.7189000">
        <ele>851.2</ele>
        <time>2020-04-04T17:18:19Z</time>
      </trkpt>
      <trkpt lat="42.3407960" lon="-3.7191310">
        <ele>851.4</ele>
        <time>2020-04-04T17:18:21Z</time>
      </trkpt>
      <trkpt lat="42.3408720" lon="-3.7193380">
        <ele>851.7</ele>
        <time>2020-04-04T17:18:23Z</time>
      </trkpt>
      <trkpt lat="42.3409430" lon="-3.7195680">
        <ele>852.3</ele>
        <time>2020-04-04T17:18:25Z</time>
      </trkpt>
      <trkpt lat="42.3410080" lon="-3.7198240">
        <ele>852.5</ele>
        <time>2020-04-04T17:18:27Z</time>
      </trkpt>
      <trkpt lat="42.3410210" lon="-3.7200560">
        <ele>852.5</ele>
        <time>2020-04-04T17:18:29Z</time>
      </trkpt>
      <trkpt lat="42.3410560" lon="-3.7203260">
        <ele>852.6</ele>
        <time>2020-04-04T17:18:31Z</time>
      </trkpt>
      <trkpt lat="42.3411050" lon="-3.7205820">
        <ele>852.4</ele>
        <time>2020-04-04T17:18:33Z</time>
      </trkpt>
      <trkpt lat="42.3411250" lon="-3.7207750">
        <ele>852.2</ele>
        <time>2020-04-04T17:18:35Z</time>
      </trkpt>
      <trkpt lat="42.3411440" lon="-3.7209410">
        <ele>852.1</ele>
        <time>2020-04-04T17:18:37Z</time>
      </trkpt>
      <trkpt lat="42.3411610" lon="-3.7210990">
        <ele>851.9</ele>
        <time>2020-04-04T17:18:39Z</time>
      </trkpt>
      <trkpt lat="42.3412000" lon="-3.7214560">
        <ele>850.9</ele>
        <time>2020-04-04T17:18:41Z</time>
      </trkpt>
      <trkpt lat="42.3412190" lon="-3.7216270">
        <ele>850.4</ele>
        <time>2020-04-04T17:18:43Z</time>
      </trkpt>
      <trkpt lat="42.3412390" lon="-3.7218150">
        <ele>850.1</ele>
        <time>2020-04-04T17:18:45Z</time>
      </trkpt>
      <trkpt lat="42.3413130" lon="-3.7221750">
        <ele>849.9</ele>
        <time>2020-04-04T17:18:47Z</time>
      </trkpt>
      <trkpt lat="42.3413690" lon="-3.7224530">
        <ele>850.0</ele>
        <time>2020-04-04T17:18:49Z</time>
      </trkpt>
      <trkpt lat="42.3413940" lon="-3.7227000">
        <ele>850.0</ele>
        <time>2020-04-04T17:18:51Z</time>
      </trkpt>
      <trkpt lat="42.3414250" lon="-3.7230150">
        <ele>850.2</ele>
        <time>2020-04-04T17:18:53Z</time>
      </trkpt>
      <trkpt lat="42.3414430" lon="-3.7232100">
        <ele>850.3</ele>
        <time>2020-04-04T17:18:55Z</time>
      </trkpt>
      <trkpt lat="42.3414710" lon="-3.7235070">
        <ele>850.3</ele>
        <time>2020-04-04T17:18:57Z</time>
      </trkpt>
      <trkpt lat="42.3414960" lon="-3.7237570">
        <ele>850.3</ele>
        <time>2020-04-04T17:18:59Z</time>
      </trkpt>
      <trkpt lat="42.3415140" lon="-3.7239310">
        <ele>850.2</ele>
        <time>2020-04-04T17:19:01Z</time>
      </trkpt>
      <trkpt lat="42.3415440" lon="-3.7242310">
        <ele>849.7</ele>
        <time>2020-04-04T17:19:03Z</time>
      </trkpt>
      <trkpt lat="42.3415610" lon="-3.7244010">
        <ele>849.4</ele>
        <time>2020-04-04T17:19:05Z</time>
      </trkpt>
      <trkpt lat="42.3415770" lon="-3.7245680">
        <ele>849.3</ele>
        <time>2020-04-04T17:19:07Z</time>
      </trkpt>
      <trkpt lat="42.3416100" lon="-3.7248970">
        <ele>849.2</ele>
        <time>2020-04-04T17:19:09Z</time>
      </trkpt>
      <trkpt lat="42.3416260" lon="-3.7250620">
        <ele>849.2</ele>
        <time>2020-04-04T17:19:11Z</time>
      </trkpt>
      <trkpt lat="42.3416430" lon="-3.7252290">
        <ele>849.2</ele>
        <time>2020-04-04T17:19:13Z</time>
      </trkpt>
      <trkpt lat="42.3416600" lon="-3.7253950">
        <ele>849.2</ele>
        <time>2020-04-04T17:19:15Z</time>
      </trkpt>
      <trkpt lat="42.3416760" lon="-3.7255620">
        <ele>849.2</ele>
        <time>2020-04-04T17:19:17Z</time>
      </trkpt>
      <trkpt lat="42.3417220" lon="-3.7260230">
        <ele>849.1</ele>
        <time>2020-04-04T17:19:19Z</time>
      </trkpt>
      <trkpt lat="42.3417400" lon="-3.7261970">
        <ele>849.1</ele>
        <time>2020-04-04T17:19:21Z</time>
      </trkpt>
      <trkpt lat="42.3417580" lon="-3.7263770">
        <ele>849.0</ele>
        <time>2020-04-04T17:19:23Z</time>
      </trkpt>
      <trkpt lat="42.3417760" lon="-3.7265600">
        <ele>848.8</ele>
        <time>2020-04-04T17:19:25Z</time>
      </trkpt>
      <trkpt lat="42.3418240" lon="-3.7270380">
        <ele>848.0</ele>
        <time>2020-04-04T17:19:27Z</time>
      </trkpt>
      <trkpt lat="42.3418350" lon="-3.7272680">
        <ele>847.9</ele>
        <time>2020-04-04T17:19:29Z</time>
      </trkpt>
      <trkpt lat="42.3418610" lon="-3.7275330">
        <ele>847.5</ele>
        <time>2020-04-04T17:19:31Z</time>
      </trkpt>
      <trkpt lat="42.3418810" lon="-3.7277270">
        <ele>847.3</ele>
        <time>2020-04-04T17:19:33Z</time>
      </trkpt>
      <trkpt lat="42.3419010" lon="-3.7279240">
        <ele>847.1</ele>
        <time>2020-04-04T17:19:35Z</time>
      </trkpt>
      <trkpt lat="42.3418990" lon="-3.7283360">
        <ele>847.0</ele>
        <time>2020-04-04T17:19:37Z</time>
      </trkpt>
      <trkpt lat="42.3418180" lon="-3.7285180">
        <ele>846.7</ele>
        <time>2020-04-04T17:19:39Z</time>
      </trkpt>
      <trkpt lat="42.3418400" lon="-3.7287640">
        <ele>846.5</ele>
        <time>2020-04-04T17:19:41Z</time>
      </trkpt>
      <trkpt lat="42.3418290" lon="-3.7290610">
        <ele>846.5</ele>
        <time>2020-04-04T17:19:43Z</time>
      </trkpt>
      <trkpt lat="42.3418730" lon="-3.7293200">
        <ele>846.6</ele>
        <time>2020-04-04T17:19:45Z</time>
      </trkpt>
      <trkpt lat="42.3420260" lon="-3.7294230">
        <ele>846.9</ele>
        <time>2020-04-04T17:19:47Z</time>
      </trkpt>
      <trkpt lat="42.3420500" lon="-3.7296360">
        <ele>846.8</ele>
        <time>2020-04-04T17:19:49Z</time>
      </trkpt>
      <trkpt lat="42.3420860" lon="-3.7298960">
        <ele>846.3</ele>
        <time>2020-04-04T17:19:51Z</time>
      </trkpt>
      <trkpt lat="42.3421310" lon="-3.7301670">
        <ele>845.9</ele>
        <time>2020-04-04T17:19:53Z</time>
      </trkpt>
      <trkpt lat="42.3421490" lon="-3.7303490">
        <ele>845.5</ele>
        <time>2020-04-04T17:19:55Z</time>
      </trkpt>
      <trkpt lat="42.3421670" lon="-3.7305290">
        <ele>845.0</ele>
        <time>2020-04-04T17:19:57Z</time>
      </trkpt>
      <trkpt lat="42.3421850" lon="-3.7307070">
        <ele>844.4</ele>
        <time>2020-04-04T17:19:59Z</time>
      </trkpt>
      <trkpt lat="42.3422340" lon="-3.7311350">
        <ele>844.0</ele>
        <time>2020-04-04T17:20:01Z</time>
      </trkpt>
      <trkpt lat="42.3422510" lon="-3.7313130">
        <ele>843.9</ele>
        <time>2020-04-04T17:20:03Z</time>
      </trkpt>
      <trkpt lat="42.3422690" lon="-3.7314910">
        <ele>843.9</ele>
        <time>2020-04-04T17:20:05Z</time>
      </trkpt>
      <trkpt lat="42.3422860" lon="-3.7316680">
        <ele>843.8</ele>
        <time>2020-04-04T17:20:07Z</time>
      </trkpt>
      <trkpt lat="42.3423250" lon="-3.7320680">
        <ele>843.5</ele>
        <time>2020-04-04T17:20:09Z</time>
      </trkpt>
      <trkpt lat="42.3423430" lon="-3.7322480">
        <ele>843.4</ele>
        <time>2020-04-04T17:20:11Z</time>
      </trkpt>
      <trkpt lat="42.3423600" lon="-3.7324300">
        <ele>843.3</ele>
        <time>2020-04-04T17:20:13Z</time>
      </trkpt>
      <trkpt lat="42.3423990" lon="-3.7328330">
        <ele>843.2</ele>
        <time>2020-04-04T17:20:15Z</time>
      </trkpt>
      <trkpt lat="42.3424050" lon="-3.7330660">
        <ele>843.2</ele>
        <time>2020-04-04T17:20:17Z</time>
      </trkpt>
      <trkpt lat="42.3423530" lon="-3.7333030">
        <ele>843.0</ele>
        <time>2020-04-04T17:20:19Z</time>
      </trkpt>
      <trkpt lat="42.3422780" lon="-3.7335280">
        <ele>842.8</ele>
        <time>2020-04-04T17:20:21Z</time>
      </trkpt>
      <trkpt lat="42.3423090" lon="-3.7337750">
        <ele>842.8</ele>
        <time>2020-04-04T17:20:23Z</time>
      </trkpt>
      <trkpt lat="42.3424380" lon="-3.7339560">
        <ele>843.1</ele>
        <time>2020-04-04T17:20:25Z</time>
      </trkpt>
      <trkpt lat="42.3424970" lon="-3.7341440">
        <ele>843.1</ele>
        <time>2020-04-04T17:20:27Z</time>
      </trkpt>
      <trkpt lat="42.3425360" lon="-3.7343950">
        <ele>843.1</ele>
        <time>2020-04-04T17:20:29Z</time>
      </trkpt>
      <trkpt lat="42.3425680" lon="-3.7346350">
        <ele>843.1</ele>
        <time>2020-04-04T17:20:31Z</time>
      </trkpt>
      <trkpt lat="42.3425940" lon="-3.7348660">
        <ele>843.1</ele>
        <time>2020-04-04T17:20:33Z</time>
      </trkpt>
      <trkpt lat="42.3426120" lon="-3.7350320">
        <ele>843.3</ele>
        <time>2020-04-04T17:20:35Z</time>
      </trkpt>
      <trkpt lat="42.3426380" lon="-3.7352820">
        <ele>843.7</ele>
        <time>2020-04-04T17:20:37Z</time>
      </trkpt>
      <trkpt lat="42.3426590" lon="-3.7354920">
        <ele>844.0</ele>
        <time>2020-04-04T17:20:39Z</time>
      </trkpt>
      <trkpt lat="42.3426750" lon="-3.7356450">
        <ele>844.1</ele>
        <time>2020-04-04T17:20:41Z</time>
      </trkpt>
      <trkpt lat="42.3427060" lon="-3.7359460">
        <ele>844.1</ele>
        <time>2020-04-04T17:20:43Z</time>
      </trkpt>
      <trkpt lat="42.3427390" lon="-3.7361200">
        <ele>843.8</ele>
        <time>2020-04-04T17:20:45Z</time>
      </trkpt>
      <trkpt lat="42.3428260" lon="-3.7362110">
        <ele>843.5</ele>
        <time>2020-04-04T17:20:47Z</time>
      </trkpt>
      <trkpt lat="42.3429000" lon="-3.7363820">
        <ele>843.4</ele>
        <time>2020-04-04T17:20:49Z</time>
      </trkpt>
      <trkpt lat="42.3430060" lon="-3.7365380">
        <ele>843.3</ele>
        <time>2020-04-04T17:20:51Z</time>
      </trkpt>
      <trkpt lat="42.3431350" lon="-3.7366710">
        <ele>843.3</ele>
        <time>2020-04-04T17:20:53Z</time>
      </trkpt>
      <trkpt lat="42.3432130" lon="-3.7368380">
        <ele>843.5</ele>
        <time>2020-04-04T17:20:55Z</time>
      </trkpt>
      <trkpt lat="42.3432630" lon="-3.7370410">
        <ele>843.9</ele>
        <time>2020-04-04T17:20:57Z</time>
      </trkpt>
      <trkpt lat="42.3432980" lon="-3.7371910">
        <ele>844.3</ele>
        <time>2020-04-04T17:20:59Z</time>
      </trkpt>
      <trkpt lat="42.3433560" lon="-3.7374420">
        <ele>844.8</ele>
        <time>2020-04-04T17:21:01Z</time>
      </trkpt>
      <trkpt lat="42.3433900" lon="-3.7375930">
        <ele>845.0</ele>
        <time>2020-04-04T17:21:03Z</time>
      </trkpt>
      <trkpt lat="42.3434480" lon="-3.7378580">
        <ele>845.2</ele>
        <time>2020-04-04T17:21:05Z</time>
      </trkpt>
      <trkpt lat="42.3434870" lon="-3.7380860">
        <ele>845.3</ele>
        <time>2020-04-04T17:21:07Z</time>
      </trkpt>
      <trkpt lat="42.3435210" lon="-3.7383050">
        <ele>844.8</ele>
        <time>2020-04-04T17:21:09Z</time>
      </trkpt>
      <trkpt lat="42.3435680" lon="-3.7385450">
        <ele>844.6</ele>
        <time>2020-04-04T17:21:11Z</time>
      </trkpt>
      <trkpt lat="42.3435940" lon="-3.7387240">
        <ele>844.4</ele>
        <time>2020-04-04T17:21:13Z</time>
      </trkpt>
      <trkpt lat="42.3436290" lon="-3.7389930">
        <ele>843.9</ele>
        <time>2020-04-04T17:21:15Z</time>
      </trkpt>
      <trkpt lat="42.3436580" lon="-3.7392520">
        <ele>843.3</ele>
        <time>2020-04-04T17:21:17Z</time>
      </trkpt>
      <trkpt lat="42.3436780" lon="-3.7394360">
        <ele>843.1</ele>
        <time>2020-04-04T17:21:19Z</time>
      </trkpt>
      <trkpt lat="42.3437100" lon="-3.7397250">
        <ele>842.9</ele>
        <time>2020-04-04T17:21:21Z</time>
      </trkpt>
      <trkpt lat="42.3437300" lon="-3.7399700">
        <ele>842.6</ele>
        <time>2020-04-04T17:21:23Z</time>
      </trkpt>
      <trkpt lat="42.3437500" lon="-3.7402750">
        <ele>842.0</ele>
        <time>2020-04-04T17:21:25Z</time>
      </trkpt>
      <trkpt lat="42.3437520" lon="-3.7404600">
        <ele>841.8</ele>
        <time>2020-04-04T17:21:27Z</time>
      </trkpt>
      <trkpt lat="42.3437440" lon="-3.7407390">
        <ele>841.9</ele>
        <time>2020-04-04T17:21:29Z</time>
      </trkpt>
      <trkpt lat="42.3437150" lon="-3.7410020">
        <ele>842.3</ele>
        <time>2020-04-04T17:21:31Z</time>
      </trkpt>
      <trkpt lat="42.3436990" lon="-3.7412170">
        <ele>842.4</ele>
        <time>2020-04-04T17:21:33Z</time>
      </trkpt>
      <trkpt lat="42.3436870" lon="-3.7414660">
        <ele>842.5</ele>
        <time>2020-04-04T17:21:35Z</time>
      </trkpt>
      <trkpt lat="42.3436770" lon="-3.7417760">
        <ele>842.8</ele>
        <time>2020-04-04T17:21:37Z</time>
      </trkpt>
      <trkpt lat="42.3436710" lon="-3.7419650">
        <ele>842.6</ele>
        <time>2020-04-04T17:21:39Z</time>
      </trkpt>
      <trkpt lat="42.3436610" lon="-3.7422570">
        <ele>842.3</ele>
        <time>2020-04-04T17:21:41Z</time>
      </trkpt>
      <trkpt lat="42.3436550" lon="-3.7424430">
        <ele>842.2</ele>
        <time>2020-04-04T17:21:43Z</time>
      </trkpt>
      <trkpt lat="42.3436440" lon="-3.7427650">
        <ele>841.8</ele>
        <time>2020-04-04T17:21:45Z</time>
      </trkpt>
      <trkpt lat="42.3436390" lon="-3.7429460">
        <ele>841.5</ele>
        <time>2020-04-04T17:21:47Z</time>
      </trkpt>
      <trkpt lat="42.3436330" lon="-3.7431260">
        <ele>841.3</ele>
        <time>2020-04-04T17:21:49Z</time>
      </trkpt>
      <trkpt lat="42.3436240" lon="-3.7434560">
        <ele>841.1</ele>
        <time>2020-04-04T17:21:51Z</time>
      </trkpt>
      <trkpt lat="42.3436170" lon="-3.7437260">
        <ele>840.8</ele>
        <time>2020-04-04T17:21:53Z</time>
      </trkpt>
      <trkpt lat="42.3436130" lon="-3.7439090">
        <ele>840.4</ele>
        <time>2020-04-04T17:21:55Z</time>
      </trkpt>
      <trkpt lat="42.3436090" lon="-3.7440980">
        <ele>840.3</ele>
        <time>2020-04-04T17:21:57Z</time>
      </trkpt>
      <trkpt lat="42.3436090" lon="-3.7445040">
        <ele>840.3</ele>
        <time>2020-04-04T17:21:59Z</time>
      </trkpt>
      <trkpt lat="42.3436270" lon="-3.7446990">
        <ele>840.3</ele>
        <time>2020-04-04T17:22:01Z</time>
      </trkpt>
      <trkpt lat="42.3436660" lon="-3.7449870">
        <ele>840.3</ele>
        <time>2020-04-04T17:22:03Z</time>
      </trkpt>
      <trkpt lat="42.3437260" lon="-3.7452500">
        <ele>840.5</ele>
        <time>2020-04-04T17:22:05Z</time>
      </trkpt>
      <trkpt lat="42.3437760" lon="-3.7454290">
        <ele>840.9</ele>
        <time>2020-04-04T17:22:07Z</time>
      </trkpt>
      <trkpt lat="42.3438820" lon="-3.7457170">
        <ele>841.6</ele>
        <time>2020-04-04T17:22:09Z</time>
      </trkpt>
      <trkpt lat="42.3439870" lon="-3.7459150">
        <ele>841.6</ele>
        <time>2020-04-04T17:22:11Z</time>
      </trkpt>
      <trkpt lat="42.3440660" lon="-3.7460590">
        <ele>841.6</ele>
        <time>2020-04-04T17:22:13Z</time>
      </trkpt>
      <trkpt lat="42.3442010" lon="-3.7463010">
        <ele>841.6</ele>
        <time>2020-04-04T17:22:15Z</time>
      </trkpt>
      <trkpt lat="42.3443110" lon="-3.7465040">
        <ele>841.4</ele>
        <time>2020-04-04T17:22:17Z</time>
      </trkpt>
      <trkpt lat="42.3444310" lon="-3.7467330">
        <ele>840.9</ele>
        <time>2020-04-04T17:22:19Z</time>
      </trkpt>
      <trkpt lat="42.3445050" lon="-3.7468870">
        <ele>840.5</ele>
        <time>2020-04-04T17:22:21Z</time>
      </trkpt>
      <trkpt lat="42.3445990" lon="-3.7470940">
        <ele>840.0</ele>
        <time>2020-04-04T17:22:23Z</time>
      </trkpt>
      <trkpt lat="42.3446900" lon="-3.7473110">
        <ele>839.6</ele>
        <time>2020-04-04T17:22:25Z</time>
      </trkpt>
      <trkpt lat="42.3447840" lon="-3.7475500">
        <ele>839.4</ele>
        <time>2020-04-04T17:22:27Z</time>
      </trkpt>
      <trkpt lat="42.3448710" lon="-3.7477800">
        <ele>839.5</ele>
        <time>2020-04-04T17:22:29Z</time>
      </trkpt>
      <trkpt lat="42.3449250" lon="-3.7479400">
        <ele>839.8</ele>
        <time>2020-04-04T17:22:31Z</time>
      </trkpt>
      <trkpt lat="42.3450140" lon="-3.7482120">
        <ele>840.2</ele>
        <time>2020-04-04T17:22:33Z</time>
      </trkpt>
      <trkpt lat="42.3450630" lon="-3.7484090">
        <ele>840.3</ele>
        <time>2020-04-04T17:22:35Z</time>
      </trkpt>
      <trkpt lat="42.3451230" lon="-3.7486500">
        <ele>840.2</ele>
        <time>2020-04-04T17:22:37Z</time>
      </trkpt>
      <trkpt lat="42.3451630" lon="-3.7488150">
        <ele>840.0</ele>
        <time>2020-04-04T17:22:39Z</time>
      </trkpt>
      <trkpt lat="42.3452270" lon="-3.7490940">
        <ele>839.4</ele>
        <time>2020-04-04T17:22:41Z</time>
      </trkpt>
      <trkpt lat="42.3452670" lon="-3.7493010">
        <ele>839.2</ele>
        <time>2020-04-04T17:22:43Z</time>
      </trkpt>
      <trkpt lat="42.3453130" lon="-3.7495080">
        <ele>839.3</ele>
        <time>2020-04-04T17:22:45Z</time>
      </trkpt>
      <trkpt lat="42.3453790" lon="-3.7497770">
        <ele>839.9</ele>
        <time>2020-04-04T17:22:47Z</time>
      </trkpt>
      <trkpt lat="42.3454540" lon="-3.7499890">
        <ele>840.6</ele>
        <time>2020-04-04T17:22:49Z</time>
      </trkpt>
      <trkpt lat="42.3455280" lon="-3.7501490">
        <ele>841.2</ele>
        <time>2020-04-04T17:22:51Z</time>
      </trkpt>
      <trkpt lat="42.3455900" lon="-3.7502820">
        <ele>841.7</ele>
        <time>2020-04-04T17:22:53Z</time>
      </trkpt>
      <trkpt lat="42.3457040" lon="-3.7505250">
        <ele>842.1</ele>
        <time>2020-04-04T17:22:55Z</time>
      </trkpt>
      <trkpt lat="42.3457600" lon="-3.7506480">
        <ele>842.4</ele>
        <time>2020-04-04T17:22:57Z</time>
      </trkpt>
      <trkpt lat="42.3458520" lon="-3.7508360">
        <ele>842.8</ele>
        <time>2020-04-04T17:22:59Z</time>
      </trkpt>
      <trkpt lat="42.3459120" lon="-3.7509470">
        <ele>842.9</ele>
        <time>2020-04-04T17:23:01Z</time>
      </trkpt>
      <trkpt lat="42.3460120" lon="-3.7511240">
        <ele>842.9</ele>
        <time>2020-04-04T17:23:03Z</time>
      </trkpt>
      <trkpt lat="42.3461040" lon="-3.7512780">
        <ele>842.9</ele>
        <time>2020-04-04T17:23:05Z</time>
      </trkpt>
      <trkpt lat="42.3462040" lon="-3.7514300">
        <ele>842.8</ele>
        <time>2020-04-04T17:23:07Z</time>
      </trkpt>
      <trkpt lat="42.3463200" lon="-3.7515880">
        <ele>842.8</ele>
        <time>2020-04-04T17:23:09Z</time>
      </trkpt>
      <trkpt lat="42.3464250" lon="-3.7517710">
        <ele>842.9</ele>
        <time>2020-04-04T17:23:11Z</time>
      </trkpt>
      <trkpt lat="42.3464950" lon="-3.7519880">
        <ele>843.4</ele>
        <time>2020-04-04T17:23:13Z</time>
      </trkpt>
      <trkpt lat="42.3465520" lon="-3.7522020">
        <ele>843.9</ele>
        <time>2020-04-04T17:23:15Z</time>
      </trkpt>
      <trkpt lat="42.3466030" lon="-3.7524440">
        <ele>844.3</ele>
        <time>2020-04-04T17:23:17Z</time>
      </trkpt>
      <trkpt lat="42.3466090" lon="-3.7526240">
        <ele>844.4</ele>
        <time>2020-04-04T17:23:19Z</time>
      </trkpt>
      <trkpt lat="42.3466110" lon="-3.7527700">
        <ele>844.5</ele>
        <time>2020-04-04T17:23:21Z</time>
      </trkpt>
      <trkpt lat="42.3466260" lon="-3.7530230">
        <ele>844.7</ele>
        <time>2020-04-04T17:23:23Z</time>
      </trkpt>
      <trkpt lat="42.3466750" lon="-3.7531870">
        <ele>844.8</ele>
        <time>2020-04-04T17:23:25Z</time>
      </trkpt>
      <trkpt lat="42.3467250" lon="-3.7533010">
        <ele>844.8</ele>
        <time>2020-04-04T17:23:27Z</time>
      </trkpt>
      <trkpt lat="42.3468160" lon="-3.7535070">
        <ele>844.8</ele>
        <time>2020-04-04T17:23:29Z</time>
      </trkpt>
      <trkpt lat="42.3468720" lon="-3.7536400">
        <ele>844.2</ele>
        <time>2020-04-04T17:23:31Z</time>
      </trkpt>
      <trkpt lat="42.3469660" lon="-3.7538540">
        <ele>843.7</ele>
        <time>2020-04-04T17:23:33Z</time>
      </trkpt>
      <trkpt lat="42.3470340" lon="-3.7540030">
        <ele>843.4</ele>
        <time>2020-04-04T17:23:35Z</time>
      </trkpt>
      <trkpt lat="42.3471540" lon="-3.7542970">
        <ele>842.7</ele>
        <time>2020-04-04T17:23:37Z</time>
      </trkpt>
      <trkpt lat="42.3472180" lon="-3.7545150">
        <ele>842.1</ele>
        <time>2020-04-04T17:23:39Z</time>
      </trkpt>
      <trkpt lat="42.3472720" lon="-3.7547490">
        <ele>841.0</ele>
        <time>2020-04-04T17:23:41Z</time>
      </trkpt>
      <trkpt lat="42.3473440" lon="-3.7550410">
        <ele>839.8</ele>
        <time>2020-04-04T17:23:43Z</time>
      </trkpt>
      <trkpt lat="42.3474320" lon="-3.7553680">
        <ele>838.2</ele>
        <time>2020-04-04T17:23:45Z</time>
      </trkpt>
      <trkpt lat="42.3474960" lon="-3.7556690">
        <ele>836.9</ele>
        <time>2020-04-04T17:23:47Z</time>
      </trkpt>
      <trkpt lat="42.3475120" lon="-3.7559420">
        <ele>835.7</ele>
        <time>2020-04-04T17:23:49Z</time>
      </trkpt>
      <trkpt lat="42.3475580" lon="-3.7562750">
        <ele>834.2</ele>
        <time>2020-04-04T17:23:51Z</time>
      </trkpt>
      <trkpt lat="42.3476310" lon="-3.7565620">
        <ele>834.3</ele>
        <time>2020-04-04T17:23:53Z</time>
      </trkpt>
      <trkpt lat="42.3477200" lon="-3.7568480">
        <ele>834.8</ele>
        <time>2020-04-04T17:23:55Z</time>
      </trkpt>
      <trkpt lat="42.3477940" lon="-3.7571330">
        <ele>834.9</ele>
        <time>2020-04-04T17:23:57Z</time>
      </trkpt>
      <trkpt lat="42.3478430" lon="-3.7573270">
        <ele>835.0</ele>
        <time>2020-04-04T17:23:59Z</time>
      </trkpt>
      <trkpt lat="42.3478900" lon="-3.7575150">
        <ele>834.8</ele>
        <time>2020-04-04T17:24:01Z</time>
      </trkpt>
      <trkpt lat="42.3479760" lon="-3.7578570">
        <ele>834.9</ele>
        <time>2020-04-04T17:24:03Z</time>
      </trkpt>
      <trkpt lat="42.3480390" lon="-3.7581060">
        <ele>835.1</ele>
        <time>2020-04-04T17:24:05Z</time>
      </trkpt>
      <trkpt lat="42.3480830" lon="-3.7582830">
        <ele>835.2</ele>
        <time>2020-04-04T17:24:07Z</time>
      </trkpt>
      <trkpt lat="42.3481700" lon="-3.7586310">
        <ele>835.2</ele>
        <time>2020-04-04T17:24:09Z</time>
      </trkpt>
      <trkpt lat="42.3482250" lon="-3.7588560">
        <ele>835.1</ele>
        <time>2020-04-04T17:24:11Z</time>
      </trkpt>
      <trkpt lat="42.3482690" lon="-3.7590940">
        <ele>835.2</ele>
        <time>2020-04-04T17:24:13Z</time>
      </trkpt>
      <trkpt lat="42.3483010" lon="-3.7593370">
        <ele>835.0</ele>
        <time>2020-04-04T17:24:15Z</time>
      </trkpt>
      <trkpt lat="42.3483180" lon="-3.7595790">
        <ele>834.7</ele>
        <time>2020-04-04T17:24:17Z</time>
      </trkpt>
      <trkpt lat="42.3483280" lon="-3.7598120">
        <ele>834.3</ele>
        <time>2020-04-04T17:24:19Z</time>
      </trkpt>
      <trkpt lat="42.3483390" lon="-3.7600760">
        <ele>834.1</ele>
        <time>2020-04-04T17:24:21Z</time>
      </trkpt>
      <trkpt lat="42.3483460" lon="-3.7603140">
        <ele>834.2</ele>
        <time>2020-04-04T17:24:23Z</time>
      </trkpt>
      <trkpt lat="42.3483500" lon="-3.7604940">
        <ele>834.2</ele>
        <time>2020-04-04T17:24:25Z</time>
      </trkpt>
      <trkpt lat="42.3483570" lon="-3.7608210">
        <ele>834.1</ele>
        <time>2020-04-04T17:24:27Z</time>
      </trkpt>
      <trkpt lat="42.3483580" lon="-3.7610020">
        <ele>833.9</ele>
        <time>2020-04-04T17:24:29Z</time>
      </trkpt>
      <trkpt lat="42.3483600" lon="-3.7611860">
        <ele>833.8</ele>
        <time>2020-04-04T17:24:31Z</time>
      </trkpt>
      <trkpt lat="42.3483600" lon="-3.7615260">
        <ele>833.7</ele>
        <time>2020-04-04T17:24:33Z</time>
      </trkpt>
      <trkpt lat="42.3483590" lon="-3.7618040">
        <ele>833.8</ele>
        <time>2020-04-04T17:24:35Z</time>
      </trkpt>
      <trkpt lat="42.3483580" lon="-3.7619960">
        <ele>833.5</ele>
        <time>2020-04-04T17:24:37Z</time>
      </trkpt>
      <trkpt lat="42.3483590" lon="-3.7622960">
        <ele>833.2</ele>
        <time>2020-04-04T17:24:39Z</time>
      </trkpt>
      <trkpt lat="42.3483600" lon="-3.7625920">
        <ele>833.2</ele>
        <time>2020-04-04T17:24:41Z</time>
      </trkpt>
      <trkpt lat="42.3483620" lon="-3.7627830">
        <ele>833.3</ele>
        <time>2020-04-04T17:24:43Z</time>
      </trkpt>
      <trkpt lat="42.3483630" lon="-3.7629700">
        <ele>833.3</ele>
        <time>2020-04-04T17:24:45Z</time>
      </trkpt>
      <trkpt lat="42.3483640" lon="-3.7631570">
        <ele>833.5</ele>
        <time>2020-04-04T17:24:47Z</time>
      </trkpt>
      <trkpt lat="42.3483650" lon="-3.7633410">
        <ele>833.8</ele>
        <time>2020-04-04T17:24:49Z</time>
      </trkpt>
      <trkpt lat="42.3483870" lon="-3.7638640">
        <ele>834.5</ele>
        <time>2020-04-04T17:24:51Z</time>
      </trkpt>
      <trkpt lat="42.3484460" lon="-3.7640850">
        <ele>834.5</ele>
        <time>2020-04-04T17:24:53Z</time>
      </trkpt>
      <trkpt lat="42.3485340" lon="-3.7643160">
        <ele>834.4</ele>
        <time>2020-04-04T17:24:55Z</time>
      </trkpt>
      <trkpt lat="42.3486380" lon="-3.7645130">
        <ele>834.4</ele>
        <time>2020-04-04T17:24:57Z</time>
      </trkpt>
      <trkpt lat="42.3487350" lon="-3.7646950">
        <ele>834.4</ele>
        <time>2020-04-04T17:24:59Z</time>
      </trkpt>
      <trkpt lat="42.3488130" lon="-3.7648420">
        <ele>834.4</ele>
        <time>2020-04-04T17:25:01Z</time>
      </trkpt>
      <trkpt lat="42.3489360" lon="-3.7650870">
        <ele>834.4</ele>
        <time>2020-04-04T17:25:03Z</time>
      </trkpt>
      <trkpt lat="42.3490380" lon="-3.7653280">
        <ele>834.4</ele>
        <time>2020-04-04T17:25:05Z</time>
      </trkpt>
      <trkpt lat="42.3491060" lon="-3.7655360">
        <ele>834.3</ele>
        <time>2020-04-04T17:25:07Z</time>
      </trkpt>
      <trkpt lat="42.3491580" lon="-3.7657560">
        <ele>834.0</ele>
        <time>2020-04-04T17:25:09Z</time>
      </trkpt>
      <trkpt lat="42.3491970" lon="-3.7659620">
        <ele>833.9</ele>
        <time>2020-04-04T17:25:11Z</time>
      </trkpt>
      <trkpt lat="42.3492380" lon="-3.7662000">
        <ele>833.9</ele>
        <time>2020-04-04T17:25:13Z</time>
      </trkpt>
      <trkpt lat="42.3492870" lon="-3.7664600">
        <ele>834.1</ele>
        <time>2020-04-04T17:25:15Z</time>
      </trkpt>
      <trkpt lat="42.3493420" lon="-3.7666960">
        <ele>834.3</ele>
        <time>2020-04-04T17:25:17Z</time>
      </trkpt>
      <trkpt lat="42.3494120" lon="-3.7668900">
        <ele>834.3</ele>
        <time>2020-04-04T17:25:19Z</time>
      </trkpt>
      <trkpt lat="42.3495120" lon="-3.7670540">
        <ele>834.2</ele>
        <time>2020-04-04T17:25:21Z</time>
      </trkpt>
      <trkpt lat="42.3496460" lon="-3.7672630">
        <ele>834.1</ele>
        <time>2020-04-04T17:25:23Z</time>
      </trkpt>
      <trkpt lat="42.3497380" lon="-3.7673860">
        <ele>834.0</ele>
        <time>2020-04-04T17:25:25Z</time>
      </trkpt>
      <trkpt lat="42.3498800" lon="-3.7675760">
        <ele>833.8</ele>
        <time>2020-04-04T17:25:27Z</time>
      </trkpt>
      <trkpt lat="42.3499710" lon="-3.7677760">
        <ele>833.8</ele>
        <time>2020-04-04T17:25:29Z</time>
      </trkpt>
      <trkpt lat="42.3500590" lon="-3.7679600">
        <ele>833.8</ele>
        <time>2020-04-04T17:25:31Z</time>
      </trkpt>
      <trkpt lat="42.3501970" lon="-3.7680590">
        <ele>833.3</ele>
        <time>2020-04-04T17:25:33Z</time>
      </trkpt>
      <trkpt lat="42.3503320" lon="-3.7679460">
        <ele>832.9</ele>
        <time>2020-04-04T17:25:35Z</time>
      </trkpt>
      <trkpt lat="42.3504510" lon="-3.7679020">
        <ele>832.4</ele>
        <time>2020-04-04T17:25:37Z</time>
      </trkpt>
      <trkpt lat="42.3505950" lon="-3.7678280">
        <ele>832.0</ele>
        <time>2020-04-04T17:25:39Z</time>
      </trkpt>
      <trkpt lat="42.3506700" lon="-3.7680110">
        <ele>832.0</ele>
        <time>2020-04-04T17:25:41Z</time>
      </trkpt>
      <trkpt lat="42.3507240" lon="-3.7682210">
        <ele>832.1</ele>
        <time>2020-04-04T17:25:43Z</time>
      </trkpt>
      <trkpt lat="42.3507980" lon="-3.7684550">
        <ele>832.1</ele>
        <time>2020-04-04T17:25:45Z</time>
      </trkpt>
      <trkpt lat="42.3508700" lon="-3.7686920">
        <ele>832.1</ele>
        <time>2020-04-04T17:25:47Z</time>
      </trkpt>
      <trkpt lat="42.3509370" lon="-3.7689220">
        <ele>832.1</ele>
        <time>2020-04-04T17:25:49Z</time>
      </trkpt>
      <trkpt lat="42.3510060" lon="-3.7691230">
        <ele>832.1</ele>
        <time>2020-04-04T17:25:51Z</time>
      </trkpt>
      <trkpt lat="42.3510950" lon="-3.7693990">
        <ele>832.1</ele>
        <time>2020-04-04T17:25:53Z</time>
      </trkpt>
      <trkpt lat="42.3511530" lon="-3.7696130">
        <ele>832.1</ele>
        <time>2020-04-04T17:25:55Z</time>
      </trkpt>
      <trkpt lat="42.3512310" lon="-3.7698420">
        <ele>832.1</ele>
        <time>2020-04-04T17:25:57Z</time>
      </trkpt>
      <trkpt lat="42.3513160" lon="-3.7700460">
        <ele>832.1</ele>
        <time>2020-04-04T17:25:59Z</time>
      </trkpt>
      <trkpt lat="42.3514040" lon="-3.7702580">
        <ele>832.0</ele>
        <time>2020-04-04T17:26:01Z</time>
      </trkpt>
      <trkpt lat="42.3514850" lon="-3.7704740">
        <ele>831.7</ele>
        <time>2020-04-04T17:26:03Z</time>
      </trkpt>
      <trkpt lat="42.3515560" lon="-3.7706460">
        <ele>831.4</ele>
        <time>2020-04-04T17:26:05Z</time>
      </trkpt>
      <trkpt lat="42.3516250" lon="-3.7707990">
        <ele>831.2</ele>
        <time>2020-04-04T17:26:07Z</time>
      </trkpt>
      <trkpt lat="42.3517460" lon="-3.7711100">
        <ele>831.2</ele>
        <time>2020-04-04T17:26:09Z</time>
      </trkpt>
      <trkpt lat="42.3517840" lon="-3.7713150">
        <ele>831.2</ele>
        <time>2020-04-04T17:26:11Z</time>
      </trkpt>
      <trkpt lat="42.3518160" lon="-3.7714960">
        <ele>831.2</ele>
        <time>2020-04-04T17:26:13Z</time>
      </trkpt>
      <trkpt lat="42.3518710" lon="-3.7717870">
        <ele>831.2</ele>
        <time>2020-04-04T17:26:15Z</time>
      </trkpt>
      <trkpt lat="42.3519060" lon="-3.7719640">
        <ele>831.2</ele>
        <time>2020-04-04T17:26:17Z</time>
      </trkpt>
      <trkpt lat="42.3519440" lon="-3.7722660">
        <ele>831.2</ele>
        <time>2020-04-04T17:26:19Z</time>
      </trkpt>
      <trkpt lat="42.3519670" lon="-3.7725550">
        <ele>831.2</ele>
        <time>2020-04-04T17:26:21Z</time>
      </trkpt>
      <trkpt lat="42.3519910" lon="-3.7727630">
        <ele>831.2</ele>
        <time>2020-04-04T17:26:23Z</time>
      </trkpt>
      <trkpt lat="42.3520280" lon="-3.7730260">
        <ele>831.2</ele>
        <time>2020-04-04T17:26:25Z</time>
      </trkpt>
      <trkpt lat="42.3520510" lon="-3.7731980">
        <ele>831.2</ele>
        <time>2020-04-04T17:26:27Z</time>
      </trkpt>
      <trkpt lat="42.3520860" lon="-3.7734720">
        <ele>831.2</ele>
        <time>2020-04-04T17:26:29Z</time>
      </trkpt>
      <trkpt lat="42.3521040" lon="-3.7736460">
        <ele>831.2</ele>
        <time>2020-04-04T17:26:31Z</time>
      </trkpt>
      <trkpt lat="42.3521430" lon="-3.7739170">
        <ele>831.2</ele>
        <time>2020-04-04T17:26:33Z</time>
      </trkpt>
      <trkpt lat="42.3521910" lon="-3.7741770">
        <ele>831.2</ele>
        <time>2020-04-04T17:26:35Z</time>
      </trkpt>
      <trkpt lat="42.3522390" lon="-3.7744170">
        <ele>831.2</ele>
        <time>2020-04-04T17:26:37Z</time>
      </trkpt>
      <trkpt lat="42.3522750" lon="-3.7746280">
        <ele>831.2</ele>
        <time>2020-04-04T17:26:39Z</time>
      </trkpt>
      <trkpt lat="42.3523050" lon="-3.7747990">
        <ele>831.1</ele>
        <time>2020-04-04T17:26:41Z</time>
      </trkpt>
      <trkpt lat="42.3523340" lon="-3.7749680">
        <ele>830.9</ele>
        <time>2020-04-04T17:26:43Z</time>
      </trkpt>
      <trkpt lat="42.3523950" lon="-3.7753390">
        <ele>830.4</ele>
        <time>2020-04-04T17:26:45Z</time>
      </trkpt>
      <trkpt lat="42.3524140" lon="-3.7755080">
        <ele>830.3</ele>
        <time>2020-04-04T17:26:47Z</time>
      </trkpt>
      <trkpt lat="42.3524340" lon="-3.7756790">
        <ele>830.3</ele>
        <time>2020-04-04T17:26:49Z</time>
      </trkpt>
      <trkpt lat="42.3524540" lon="-3.7758500">
        <ele>830.3</ele>
        <time>2020-04-04T17:26:51Z</time>
      </trkpt>
      <trkpt lat="42.3524730" lon="-3.7760200">
        <ele>830.3</ele>
        <time>2020-04-04T17:26:53Z</time>
      </trkpt>
      <trkpt lat="42.3525180" lon="-3.7764600">
        <ele>830.3</ele>
        <time>2020-04-04T17:26:55Z</time>
      </trkpt>
      <trkpt lat="42.3525350" lon="-3.7767280">
        <ele>830.3</ele>
        <time>2020-04-04T17:26:57Z</time>
      </trkpt>
      <trkpt lat="42.3525560" lon="-3.7769430">
        <ele>830.3</ele>
        <time>2020-04-04T17:26:59Z</time>
      </trkpt>
      <trkpt lat="42.3525540" lon="-3.7771710">
        <ele>830.4</ele>
        <time>2020-04-04T17:27:01Z</time>
      </trkpt>
      <trkpt lat="42.3526670" lon="-3.7772490">
        <ele>830.4</ele>
        <time>2020-04-04T17:27:03Z</time>
      </trkpt>
      <trkpt lat="42.3528020" lon="-3.7773380">
        <ele>830.3</ele>
        <time>2020-04-04T17:27:05Z</time>
      </trkpt>
      <trkpt lat="42.3529840" lon="-3.7774490">
        <ele>830.1</ele>
        <time>2020-04-04T17:27:07Z</time>
      </trkpt>
      <trkpt lat="42.3530700" lon="-3.7775040">
        <ele>830.0</ele>
        <time>2020-04-04T17:27:09Z</time>
      </trkpt>
      <trkpt lat="42.3529800" lon="-3.7777240">
        <ele>829.8</ele>
        <time>2020-04-04T17:27:11Z</time>
      </trkpt>
      <trkpt lat="42.3528720" lon="-3.7779840">
        <ele>829.4</ele>
        <time>2020-04-04T17:27:13Z</time>
      </trkpt>
      <trkpt lat="42.3527960" lon="-3.7781660">
        <ele>829.2</ele>
        <time>2020-04-04T17:27:15Z</time>
      </trkpt>
      <trkpt lat="42.3526600" lon="-3.7784840">
        <ele>829.1</ele>
        <time>2020-04-04T17:27:17Z</time>
      </trkpt>
      <trkpt lat="42.3525850" lon="-3.7786490">
        <ele>829.1</ele>
        <time>2020-04-04T17:27:19Z</time>
      </trkpt>
      <trkpt lat="42.3524680" lon="-3.7789230">
        <ele>829.1</ele>
        <time>2020-04-04T17:27:21Z</time>
      </trkpt>
      <trkpt lat="42.3524040" lon="-3.7791950">
        <ele>829.1</ele>
        <time>2020-04-04T17:27:23Z</time>
      </trkpt>
      <trkpt lat="42.3523660" lon="-3.7794440">
        <ele>829.2</ele>
        <time>2020-04-04T17:27:25Z</time>
      </trkpt>
      <trkpt lat="42.3523180" lon="-3.7797090">
        <ele>829.2</ele>
        <time>2020-04-04T17:27:27Z</time>
      </trkpt>
      <trkpt lat="42.3522960" lon="-3.7799710">
        <ele>829.0</ele>
        <time>2020-04-04T17:27:29Z</time>
      </trkpt>
      <trkpt lat="42.3522850" lon="-3.7802240">
        <ele>828.7</ele>
        <time>2020-04-04T17:27:31Z</time>
      </trkpt>
      <trkpt lat="42.3522760" lon="-3.7804740">
        <ele>828.4</ele>
        <time>2020-04-04T17:27:33Z</time>
      </trkpt>
      <trkpt lat="42.3522630" lon="-3.7807110">
        <ele>828.3</ele>
        <time>2020-04-04T17:27:35Z</time>
      </trkpt>
      <trkpt lat="42.3522570" lon="-3.7810030">
        <ele>828.3</ele>
        <time>2020-04-04T17:27:37Z</time>
      </trkpt>
      <trkpt lat="42.3522600" lon="-3.7812570">
        <ele>828.3</ele>
        <time>2020-04-04T17:27:39Z</time>
      </trkpt>
      <trkpt lat="42.3522620" lon="-3.7815370">
        <ele>828.3</ele>
        <time>2020-04-04T17:27:41Z</time>
      </trkpt>
      <trkpt lat="42.3522590" lon="-3.7817990">
        <ele>828.3</ele>
        <time>2020-04-04T17:27:43Z</time>
      </trkpt>
      <trkpt lat="42.3521860" lon="-3.7820160">
        <ele>828.6</ele>
        <time>2020-04-04T17:27:45Z</time>
      </trkpt>
      <trkpt lat="42.3520810" lon="-3.7822320">
        <ele>829.0</ele>
        <time>2020-04-04T17:27:47Z</time>
      </trkpt>
      <trkpt lat="42.3520440" lon="-3.7824520">
        <ele>829.1</ele>
        <time>2020-04-04T17:27:49Z</time>
      </trkpt>
      <trkpt lat="42.3520040" lon="-3.7826910">
        <ele>829.0</ele>
        <time>2020-04-04T17:27:51Z</time>
      </trkpt>
      <trkpt lat="42.3519420" lon="-3.7829200">
        <ele>828.7</ele>
        <time>2020-04-04T17:27:53Z</time>
      </trkpt>
      <trkpt lat="42.3518730" lon="-3.7831350">
        <ele>828.4</ele>
        <time>2020-04-04T17:27:55Z</time>
      </trkpt>
      <trkpt lat="42.3518150" lon="-3.7832980">
        <ele>828.2</ele>
        <time>2020-04-04T17:27:57Z</time>
      </trkpt>
      <trkpt lat="42.3517270" lon="-3.7835380">
        <ele>828.1</ele>
        <time>2020-04-04T17:27:59Z</time>
      </trkpt>
      <trkpt lat="42.3516310" lon="-3.7838010">
        <ele>828.0</ele>
        <time>2020-04-04T17:28:01Z</time>
      </trkpt>
      <trkpt lat="42.3515680" lon="-3.7839720">
        <ele>828.1</ele>
        <time>2020-04-04T17:28:03Z</time>
      </trkpt>
      <trkpt lat="42.3514830" lon="-3.7842270">
        <ele>828.3</ele>
        <time>2020-04-04T17:28:05Z</time>
      </trkpt>
      <trkpt lat="42.3515300" lon="-3.7843990">
        <ele>828.6</ele>
        <time>2020-04-04T17:28:07Z</time>
      </trkpt>
      <trkpt lat="42.3516520" lon="-3.7844550">
        <ele>829.0</ele>
        <time>2020-04-04T17:28:09Z</time>
      </trkpt>
      <trkpt lat="42.3518600" lon="-3.7845510">
        <ele>829.4</ele>
        <time>2020-04-04T17:28:11Z</time>
      </trkpt>
      <trkpt lat="42.3520180" lon="-3.7846370">
        <ele>829.6</ele>
        <time>2020-04-04T17:28:13Z</time>
      </trkpt>
      <trkpt lat="42.3521750" lon="-3.7847590">
        <ele>829.7</ele>
        <time>2020-04-04T17:28:15Z</time>
      </trkpt>
      <trkpt lat="42.3522930" lon="-3.7848570">
        <ele>829.4</ele>
        <time>2020-04-04T17:28:17Z</time>
      </trkpt>
      <trkpt lat="42.3524140" lon="-3.7849580">
        <ele>829.0</ele>
        <time>2020-04-04T17:28:19Z</time>
      </trkpt>
      <trkpt lat="42.3525380" lon="-3.7850600">
        <ele>828.6</ele>
        <time>2020-04-04T17:28:21Z</time>
      </trkpt>
      <trkpt lat="42.3528210" lon="-3.7853000">
        <ele>827.4</ele>
        <time>2020-04-04T17:28:23Z</time>
      </trkpt>
      <trkpt lat="42.3529980" lon="-3.7854650">
        <ele>827.5</ele>
        <time>2020-04-04T17:28:25Z</time>
      </trkpt>
      <trkpt lat="42.3531320" lon="-3.7856720">
        <ele>827.5</ele>
        <time>2020-04-04T17:28:27Z</time>
      </trkpt>
      <trkpt lat="42.3531750" lon="-3.7859050">
        <ele>827.2</ele>
        <time>2020-04-04T17:28:29Z</time>
      </trkpt>
      <trkpt lat="42.3531880" lon="-3.7862210">
        <ele>826.8</ele>
        <time>2020-04-04T17:28:31Z</time>
      </trkpt>
      <trkpt lat="42.3532330" lon="-3.7864730">
        <ele>826.5</ele>
        <time>2020-04-04T17:28:33Z</time>
      </trkpt>
      <trkpt lat="42.3533240" lon="-3.7867020">
        <ele>825.7</ele>
        <time>2020-04-04T17:28:35Z</time>
      </trkpt>
      <trkpt lat="42.3532140" lon="-3.7868740">
        <ele>825.8</ele>
        <time>2020-04-04T17:28:37Z</time>
      </trkpt>
      <trkpt lat="42.3530360" lon="-3.7869040">
        <ele>825.9</ele>
        <time>2020-04-04T17:28:39Z</time>
      </trkpt>
      <trkpt lat="42.3528500" lon="-3.7868870">
        <ele>825.9</ele>
        <time>2020-04-04T17:28:41Z</time>
      </trkpt>
      <trkpt lat="42.3527100" lon="-3.7868590">
        <ele>825.8</ele>
        <time>2020-04-04T17:28:43Z</time>
      </trkpt>
      <trkpt lat="42.3524930" lon="-3.7868170">
        <ele>825.8</ele>
        <time>2020-04-04T17:28:45Z</time>
      </trkpt>
      <trkpt lat="42.3523590" lon="-3.7867920">
        <ele>825.7</ele>
        <time>2020-04-04T17:28:47Z</time>
      </trkpt>
      <trkpt lat="42.3520990" lon="-3.7867490">
        <ele>825.7</ele>
        <time>2020-04-04T17:28:49Z</time>
      </trkpt>
      <trkpt lat="42.3519210" lon="-3.7868030">
        <ele>825.6</ele>
        <time>2020-04-04T17:28:51Z</time>
      </trkpt>
      <trkpt lat="42.3517950" lon="-3.7869570">
        <ele>825.6</ele>
        <time>2020-04-04T17:28:53Z</time>
      </trkpt>
      <trkpt lat="42.3517060" lon="-3.7871350">
        <ele>825.6</ele>
        <time>2020-04-04T17:28:55Z</time>
      </trkpt>
      <trkpt lat="42.3516400" lon="-3.7872830">
        <ele>825.6</ele>
        <time>2020-04-04T17:28:57Z</time>
      </trkpt>
      <trkpt lat="42.3515720" lon="-3.7874330">
        <ele>825.6</ele>
        <time>2020-04-04T17:28:59Z</time>
      </trkpt>
      <trkpt lat="42.3515040" lon="-3.7875830">
        <ele>825.6</ele>
        <time>2020-04-04T17:29:01Z</time>
      </trkpt>
      <trkpt lat="42.3513470" lon="-3.7879300">
        <ele>825.7</ele>
        <time>2020-04-04T17:29:03Z</time>
      </trkpt>
      <trkpt lat="42.3512770" lon="-3.7880820">
        <ele>825.8</ele>
        <time>2020-04-04T17:29:05Z</time>
      </trkpt>
      <trkpt lat="42.3512060" lon="-3.7882350">
        <ele>825.8</ele>
        <time>2020-04-04T17:29:07Z</time>
      </trkpt>
      <trkpt lat="42.3511360" lon="-3.7883880">
        <ele>825.8</ele>
        <time>2020-04-04T17:29:09Z</time>
      </trkpt>
      <trkpt lat="42.3509910" lon="-3.7887710">
        <ele>825.7</ele>
        <time>2020-04-04T17:29:11Z</time>
      </trkpt>
      <trkpt lat="42.3509640" lon="-3.7890050">
        <ele>825.6</ele>
        <time>2020-04-04T17:29:13Z</time>
      </trkpt>
      <trkpt lat="42.3509500" lon="-3.7891850">
        <ele>825.5</ele>
        <time>2020-04-04T17:29:15Z</time>
      </trkpt>
      <trkpt lat="42.3509260" lon="-3.7895200">
        <ele>825.4</ele>
        <time>2020-04-04T17:29:17Z</time>
      </trkpt>
      <trkpt lat="42.3509100" lon="-3.7897730">
        <ele>825.3</ele>
        <time>2020-04-04T17:29:19Z</time>
      </trkpt>
      <trkpt lat="42.3508990" lon="-3.7899540">
        <ele>825.3</ele>
        <time>2020-04-04T17:29:21Z</time>
      </trkpt>
      <trkpt lat="42.3508870" lon="-3.7901370">
        <ele>825.2</ele>
        <time>2020-04-04T17:29:23Z</time>
      </trkpt>
      <trkpt lat="42.3508600" lon="-3.7905270">
        <ele>825.4</ele>
        <time>2020-04-04T17:29:25Z</time>
      </trkpt>
      <trkpt lat="42.3507900" lon="-3.7907310">
        <ele>825.5</ele>
        <time>2020-04-04T17:29:27Z</time>
      </trkpt>
      <trkpt lat="42.3506600" lon="-3.7909360">
        <ele>825.6</ele>
        <time>2020-04-04T17:29:29Z</time>
      </trkpt>
      <trkpt lat="42.3506400" lon="-3.7911560">
        <ele>825.6</ele>
        <time>2020-04-04T17:29:31Z</time>
      </trkpt>
      <trkpt lat="42.3506200" lon="-3.7914070">
        <ele>825.8</ele>
        <time>2020-04-04T17:29:33Z</time>
      </trkpt>
      <trkpt lat="42.3506040" lon="-3.7917060">
        <ele>825.9</ele>
        <time>2020-04-04T17:29:35Z</time>
      </trkpt>
      <trkpt lat="42.3506550" lon="-3.7919580">
        <ele>825.9</ele>
        <time>2020-04-04T17:29:37Z</time>
      </trkpt>
      <trkpt lat="42.3507440" lon="-3.7921470">
        <ele>825.7</ele>
        <time>2020-04-04T17:29:39Z</time>
      </trkpt>
      <trkpt lat="42.3507700" lon="-3.7923900">
        <ele>825.4</ele>
        <time>2020-04-04T17:29:41Z</time>
      </trkpt>
      <trkpt lat="42.3507550" lon="-3.7926690">
        <ele>825.2</ele>
        <time>2020-04-04T17:29:43Z</time>
      </trkpt>
      <trkpt lat="42.3507540" lon="-3.7929290">
        <ele>825.0</ele>
        <time>2020-04-04T17:29:45Z</time>
      </trkpt>
      <trkpt lat="42.3507590" lon="-3.7931200">
        <ele>825.0</ele>
        <time>2020-04-04T17:29:47Z</time>
      </trkpt>
      <trkpt lat="42.3507640" lon="-3.7933130">
        <ele>824.8</ele>
        <time>2020-04-04T17:29:49Z</time>
      </trkpt>
      <trkpt lat="42.3507630" lon="-3.7936750">
        <ele>824.5</ele>
        <time>2020-04-04T17:29:51Z</time>
      </trkpt>
      <trkpt lat="42.3507420" lon="-3.7939600">
        <ele>824.4</ele>
        <time>2020-04-04T17:29:53Z</time>
      </trkpt>
      <trkpt lat="42.3507060" lon="-3.7942070">
        <ele>824.7</ele>
        <time>2020-04-04T17:29:55Z</time>
      </trkpt>
      <trkpt lat="42.3506860" lon="-3.7944790">
        <ele>825.1</ele>
        <time>2020-04-04T17:29:57Z</time>
      </trkpt>
      <trkpt lat="42.3508280" lon="-3.7945820">
        <ele>825.3</ele>
        <time>2020-04-04T17:29:59Z</time>
      </trkpt>
      <trkpt lat="42.3509520" lon="-3.7946630">
        <ele>825.5</ele>
        <time>2020-04-04T17:30:01Z</time>
      </trkpt>
      <trkpt lat="42.3510710" lon="-3.7947420">
        <ele>825.7</ele>
        <time>2020-04-04T17:30:03Z</time>
      </trkpt>
      <trkpt lat="42.3513330" lon="-3.7949220">
        <ele>826.0</ele>
        <time>2020-04-04T17:30:05Z</time>
      </trkpt>
      <trkpt lat="42.3514640" lon="-3.7950280">
        <ele>826.1</ele>
        <time>2020-04-04T17:30:07Z</time>
      </trkpt>
      <trkpt lat="42.3516200" lon="-3.7951950">
        <ele>826.4</ele>
        <time>2020-04-04T17:30:09Z</time>
      </trkpt>
      <trkpt lat="42.3516610" lon="-3.7953960">
        <ele>826.7</ele>
        <time>2020-04-04T17:30:11Z</time>
      </trkpt>
      <trkpt lat="42.3516250" lon="-3.7955730">
        <ele>826.9</ele>
        <time>2020-04-04T17:30:13Z</time>
      </trkpt>
      <trkpt lat="42.3515840" lon="-3.7957240">
        <ele>826.9</ele>
        <time>2020-04-04T17:30:15Z</time>
      </trkpt>
      <trkpt lat="42.3515030" lon="-3.7959740">
        <ele>826.9</ele>
        <time>2020-04-04T17:30:17Z</time>
      </trkpt>
      <trkpt lat="42.3514150" lon="-3.7961870">
        <ele>826.9</ele>
        <time>2020-04-04T17:30:19Z</time>
      </trkpt>
      <trkpt lat="42.3513050" lon="-3.7963560">
        <ele>826.9</ele>
        <time>2020-04-04T17:30:21Z</time>
      </trkpt>
      <trkpt lat="42.3511410" lon="-3.7963950">
        <ele>826.9</ele>
        <time>2020-04-04T17:30:23Z</time>
      </trkpt>
      <trkpt lat="42.3510290" lon="-3.7963300">
        <ele>826.9</ele>
        <time>2020-04-04T17:30:25Z</time>
      </trkpt>
      <trkpt lat="42.3509120" lon="-3.7962620">
        <ele>826.8</ele>
        <time>2020-04-04T17:30:27Z</time>
      </trkpt>
      <trkpt lat="42.3507920" lon="-3.7961930">
        <ele>826.8</ele>
        <time>2020-04-04T17:30:29Z</time>
      </trkpt>
      <trkpt lat="42.3505300" lon="-3.7960420">
        <ele>826.8</ele>
        <time>2020-04-04T17:30:31Z</time>
      </trkpt>
      <trkpt lat="42.3503510" lon="-3.7959840">
        <ele>826.6</ele>
        <time>2020-04-04T17:30:33Z</time>
      </trkpt>
      <trkpt lat="42.3502230" lon="-3.7961560">
        <ele>826.5</ele>
        <time>2020-04-04T17:30:35Z</time>
      </trkpt>
      <trkpt lat="42.3501190" lon="-3.7962830">
        <ele>826.6</ele>
        <time>2020-04-04T17:30:37Z</time>
      </trkpt>
      <trkpt lat="42.3500130" lon="-3.7964130">
        <ele>826.7</ele>
        <time>2020-04-04T17:30:39Z</time>
      </trkpt>
      <trkpt lat="42.3498160" lon="-3.7967110">
        <ele>826.4</ele>
        <time>2020-04-04T17:30:41Z</time>
      </trkpt>
      <trkpt lat="42.3498470" lon="-3.7969420">
        <ele>826.2</ele>
        <time>2020-04-04T17:30:43Z</time>
      </trkpt>
      <trkpt lat="42.3499130" lon="-3.7971810">
        <ele>826.0</ele>
        <time>2020-04-04T17:30:45Z</time>
      </trkpt>
      <trkpt lat="42.3499550" lon="-3.7974880">
        <ele>825.7</ele>
        <time>2020-04-04T17:30:47Z</time>
      </trkpt>
      <trkpt lat="42.3499610" lon="-3.7977390">
        <ele>825.7</ele>
        <time>2020-04-04T17:30:49Z</time>
      </trkpt>
      <trkpt lat="42.3499620" lon="-3.7979340">
        <ele>825.6</ele>
        <time>2020-04-04T17:30:51Z</time>
      </trkpt>
      <trkpt lat="42.3499640" lon="-3.7981280">
        <ele>825.5</ele>
        <time>2020-04-04T17:30:53Z</time>
      </trkpt>
      <trkpt lat="42.3499660" lon="-3.7983220">
        <ele>825.3</ele>
        <time>2020-04-04T17:30:55Z</time>
      </trkpt>
      <trkpt lat="42.3499640" lon="-3.7987660">
        <ele>824.8</ele>
        <time>2020-04-04T17:30:57Z</time>
      </trkpt>
      <trkpt lat="42.3499550" lon="-3.7990400">
        <ele>824.8</ele>
        <time>2020-04-04T17:30:59Z</time>
      </trkpt>
      <trkpt lat="42.3499420" lon="-3.7993280">
        <ele>824.8</ele>
        <time>2020-04-04T17:31:01Z</time>
      </trkpt>
      <trkpt lat="42.3499210" lon="-3.7995120">
        <ele>824.8</ele>
        <time>2020-04-04T17:31:03Z</time>
      </trkpt>
      <trkpt lat="42.3498430" lon="-3.7997970">
        <ele>825.1</ele>
        <time>2020-04-04T17:31:05Z</time>
      </trkpt>
      <trkpt lat="42.3497800" lon="-3.8000300">
        <ele>825.6</ele>
        <time>2020-04-04T17:31:07Z</time>
      </trkpt>
      <trkpt lat="42.3497300" lon="-3.8001990">
        <ele>825.8</ele>
        <time>2020-04-04T17:31:09Z</time>
      </trkpt>
      <trkpt lat="42.3496390" lon="-3.8004720">
        <ele>825.9</ele>
        <time>2020-04-04T17:31:11Z</time>
      </trkpt>
      <trkpt lat="42.3495750" lon="-3.8006230">
        <ele>825.9</ele>
        <time>2020-04-04T17:31:13Z</time>
      </trkpt>
      <trkpt lat="42.3494620" lon="-3.8008890">
        <ele>825.9</ele>
        <time>2020-04-04T17:31:15Z</time>
      </trkpt>
      <trkpt lat="42.3493970" lon="-3.8010370">
        <ele>825.9</ele>
        <time>2020-04-04T17:31:17Z</time>
      </trkpt>
      <trkpt lat="42.3493050" lon="-3.8012680">
        <ele>825.9</ele>
        <time>2020-04-04T17:31:19Z</time>
      </trkpt>
      <trkpt lat="42.3492090" lon="-3.8014690">
        <ele>826.1</ele>
        <time>2020-04-04T17:31:21Z</time>
      </trkpt>
      <trkpt lat="42.3491320" lon="-3.8016040">
        <ele>826.3</ele>
        <time>2020-04-04T17:31:23Z</time>
      </trkpt>
      <trkpt lat="42.3490550" lon="-3.8017390">
        <ele>826.7</ele>
        <time>2020-04-04T17:31:25Z</time>
      </trkpt>
      <trkpt lat="42.3489780" lon="-3.8018740">
        <ele>826.9</ele>
        <time>2020-04-04T17:31:27Z</time>
      </trkpt>
      <trkpt lat="42.3487830" lon="-3.8022000">
        <ele>827.0</ele>
        <time>2020-04-04T17:31:29Z</time>
      </trkpt>
      <trkpt lat="42.3486550" lon="-3.8023800">
        <ele>827.0</ele>
        <time>2020-04-04T17:31:31Z</time>
      </trkpt>
      <trkpt lat="42.3485080" lon="-3.8025290">
        <ele>827.0</ele>
        <time>2020-04-04T17:31:33Z</time>
      </trkpt>
      <trkpt lat="42.3483820" lon="-3.8026670">
        <ele>827.0</ele>
        <time>2020-04-04T17:31:35Z</time>
      </trkpt>
      <trkpt lat="42.3482540" lon="-3.8028240">
        <ele>827.1</ele>
        <time>2020-04-04T17:31:37Z</time>
      </trkpt>
      <trkpt lat="42.3481450" lon="-3.8030320">
        <ele>827.4</ele>
        <time>2020-04-04T17:31:39Z</time>
      </trkpt>
      <trkpt lat="42.3480420" lon="-3.8032470">
        <ele>827.8</ele>
        <time>2020-04-04T17:31:41Z</time>
      </trkpt>
      <trkpt lat="42.3479450" lon="-3.8034520">
        <ele>828.1</ele>
        <time>2020-04-04T17:31:43Z</time>
      </trkpt>
      <trkpt lat="42.3478330" lon="-3.8036480">
        <ele>828.1</ele>
        <time>2020-04-04T17:31:45Z</time>
      </trkpt>
      <trkpt lat="42.3476950" lon="-3.8038470">
        <ele>828.1</ele>
        <time>2020-04-04T17:31:47Z</time>
      </trkpt>
      <trkpt lat="42.3475970" lon="-3.8040520">
        <ele>828.2</ele>
        <time>2020-04-04T17:31:49Z</time>
      </trkpt>
      <trkpt lat="42.3475300" lon="-3.8042970">
        <ele>827.9</ele>
        <time>2020-04-04T17:31:51Z</time>
      </trkpt>
      <trkpt lat="42.3475510" lon="-3.8045720">
        <ele>827.6</ele>
        <time>2020-04-04T17:31:53Z</time>
      </trkpt>
      <trkpt lat="42.3475820" lon="-3.8047700">
        <ele>827.4</ele>
        <time>2020-04-04T17:31:55Z</time>
      </trkpt>
      <trkpt lat="42.3476250" lon="-3.8051080">
        <ele>827.1</ele>
        <time>2020-04-04T17:31:57Z</time>
      </trkpt>
      <trkpt lat="42.3476100" lon="-3.8053540">
        <ele>827.0</ele>
        <time>2020-04-04T17:31:59Z</time>
      </trkpt>
      <trkpt lat="42.3475840" lon="-3.8055550">
        <ele>826.9</ele>
        <time>2020-04-04T17:32:01Z</time>
      </trkpt>
      <trkpt lat="42.3475460" lon="-3.8058760">
        <ele>826.8</ele>
        <time>2020-04-04T17:32:03Z</time>
      </trkpt>
      <trkpt lat="42.3475280" lon="-3.8061520">
        <ele>826.7</ele>
        <time>2020-04-04T17:32:05Z</time>
      </trkpt>
      <trkpt lat="42.3475240" lon="-3.8063470">
        <ele>826.9</ele>
        <time>2020-04-04T17:32:07Z</time>
      </trkpt>
      <trkpt lat="42.3475250" lon="-3.8066690">
        <ele>827.2</ele>
        <time>2020-04-04T17:32:09Z</time>
      </trkpt>
      <trkpt lat="42.3475300" lon="-3.8068580">
        <ele>827.3</ele>
        <time>2020-04-04T17:32:11Z</time>
      </trkpt>
      <trkpt lat="42.3475440" lon="-3.8072000">
        <ele>827.4</ele>
        <time>2020-04-04T17:32:13Z</time>
      </trkpt>
      <trkpt lat="42.3475630" lon="-3.8074870">
        <ele>827.5</ele>
        <time>2020-04-04T17:32:15Z</time>
      </trkpt>
      <trkpt lat="42.3475810" lon="-3.8076730">
        <ele>827.5</ele>
        <time>2020-04-04T17:32:17Z</time>
      </trkpt>
      <trkpt lat="42.3475980" lon="-3.8078560">
        <ele>827.5</ele>
        <time>2020-04-04T17:32:19Z</time>
      </trkpt>
      <trkpt lat="42.3476300" lon="-3.8081910">
        <ele>827.5</ele>
        <time>2020-04-04T17:32:21Z</time>
      </trkpt>
      <trkpt lat="42.3476470" lon="-3.8083680">
        <ele>827.4</ele>
        <time>2020-04-04T17:32:23Z</time>
      </trkpt>
      <trkpt lat="42.3476640" lon="-3.8085410">
        <ele>827.3</ele>
        <time>2020-04-04T17:32:25Z</time>
      </trkpt>
      <trkpt lat="42.3476800" lon="-3.8087120">
        <ele>827.2</ele>
        <time>2020-04-04T17:32:27Z</time>
      </trkpt>
      <trkpt lat="42.3477220" lon="-3.8091410">
        <ele>827.0</ele>
        <time>2020-04-04T17:32:29Z</time>
      </trkpt>
      <trkpt lat="42.3477410" lon="-3.8093120">
        <ele>827.0</ele>
        <time>2020-04-04T17:32:31Z</time>
      </trkpt>
      <trkpt lat="42.3477600" lon="-3.8094820">
        <ele>827.0</ele>
        <time>2020-04-04T17:32:33Z</time>
      </trkpt>
      <trkpt lat="42.3477790" lon="-3.8096520">
        <ele>827.0</ele>
        <time>2020-04-04T17:32:35Z</time>
      </trkpt>
      <trkpt lat="42.3478240" lon="-3.8100550">
        <ele>826.8</ele>
        <time>2020-04-04T17:32:37Z</time>
      </trkpt>
      <trkpt lat="42.3478430" lon="-3.8102210">
        <ele>826.7</ele>
        <time>2020-04-04T17:32:39Z</time>
      </trkpt>
      <trkpt lat="42.3478620" lon="-3.8103850">
        <ele>826.4</ele>
        <time>2020-04-04T17:32:41Z</time>
      </trkpt>
      <trkpt lat="42.3478810" lon="-3.8105480">
        <ele>826.0</ele>
        <time>2020-04-04T17:32:43Z</time>
      </trkpt>
      <trkpt lat="42.3479320" lon="-3.8109410">
        <ele>825.9</ele>
        <time>2020-04-04T17:32:45Z</time>
      </trkpt>
      <trkpt lat="42.3479580" lon="-3.8111000">
        <ele>826.3</ele>
        <time>2020-04-04T17:32:47Z</time>
      </trkpt>
      <trkpt lat="42.3479840" lon="-3.8112560">
        <ele>826.6</ele>
        <time>2020-04-04T17:32:49Z</time>
      </trkpt>
      <trkpt lat="42.3480400" lon="-3.8115680">
        <ele>827.0</ele>
        <time>2020-04-04T17:32:51Z</time>
      </trkpt>
      <trkpt lat="42.3480850" lon="-3.8117900">
        <ele>827.1</ele>
        <time>2020-04-04T17:32:53Z</time>
      </trkpt>
      <trkpt lat="42.3481150" lon="-3.8119430">
        <ele>827.2</ele>
        <time>2020-04-04T17:32:55Z</time>
      </trkpt>
      <trkpt lat="42.3481700" lon="-3.8122190">
        <ele>827.4</ele>
        <time>2020-04-04T17:32:57Z</time>
      </trkpt>
      <trkpt lat="42.3481960" lon="-3.8123730">
        <ele>827.5</ele>
        <time>2020-04-04T17:32:59Z</time>
      </trkpt>
      <trkpt lat="42.3482380" lon="-3.8126300">
        <ele>827.7</ele>
        <time>2020-04-04T17:33:01Z</time>
      </trkpt>
      <trkpt lat="42.3482640" lon="-3.8127840">
        <ele>828.0</ele>
        <time>2020-04-04T17:33:03Z</time>
      </trkpt>
      <trkpt lat="42.3483090" lon="-3.8130310">
        <ele>828.4</ele>
        <time>2020-04-04T17:33:05Z</time>
      </trkpt>
      <trkpt lat="42.3483580" lon="-3.8132300">
        <ele>828.8</ele>
        <time>2020-04-04T17:33:07Z</time>
      </trkpt>
      <trkpt lat="42.3484150" lon="-3.8134460">
        <ele>828.8</ele>
        <time>2020-04-04T17:33:09Z</time>
      </trkpt>
      <trkpt lat="42.3484770" lon="-3.8136150">
        <ele>828.7</ele>
        <time>2020-04-04T17:33:11Z</time>
      </trkpt>
      <trkpt lat="42.3485320" lon="-3.8137500">
        <ele>828.7</ele>
        <time>2020-04-04T17:33:13Z</time>
      </trkpt>
      <trkpt lat="42.3485860" lon="-3.8138830">
        <ele>828.7</ele>
        <time>2020-04-04T17:33:15Z</time>
      </trkpt>
      <trkpt lat="42.3487030" lon="-3.8141720">
        <ele>828.7</ele>
        <time>2020-04-04T17:33:17Z</time>
      </trkpt>
      <trkpt lat="42.3487700" lon="-3.8143420">
        <ele>828.8</ele>
        <time>2020-04-04T17:33:19Z</time>
      </trkpt>
      <trkpt lat="42.3488250" lon="-3.8144840">
        <ele>828.9</ele>
        <time>2020-04-04T17:33:21Z</time>
      </trkpt>
      <trkpt lat="42.3488820" lon="-3.8146310">
        <ele>829.2</ele>
        <time>2020-04-04T17:33:23Z</time>
      </trkpt>
      <trkpt lat="42.3489410" lon="-3.8147830">
        <ele>829.4</ele>
        <time>2020-04-04T17:33:25Z</time>
      </trkpt>
      <trkpt lat="42.3490580" lon="-3.8151510">
        <ele>829.2</ele>
        <time>2020-04-04T17:33:27Z</time>
      </trkpt>
      <trkpt lat="42.3490810" lon="-3.8154090">
        <ele>828.3</ele>
        <time>2020-04-04T17:33:29Z</time>
      </trkpt>
      <trkpt lat="42.3490360" lon="-3.8156330">
        <ele>827.4</ele>
        <time>2020-04-04T17:33:31Z</time>
      </trkpt>
      <trkpt lat="42.3489550" lon="-3.8158500">
        <ele>826.1</ele>
        <time>2020-04-04T17:33:33Z</time>
      </trkpt>
      <trkpt lat="42.3488530" lon="-3.8160590">
        <ele>825.7</ele>
        <time>2020-04-04T17:33:35Z</time>
      </trkpt>
      <trkpt lat="42.3487750" lon="-3.8162150">
        <ele>825.7</ele>
        <time>2020-04-04T17:33:37Z</time>
      </trkpt>
      <trkpt lat="42.3486660" lon="-3.8164700">
        <ele>825.7</ele>
        <time>2020-04-04T17:33:39Z</time>
      </trkpt>
      <trkpt lat="42.3487950" lon="-3.8166450">
        <ele>826.0</ele>
        <time>2020-04-04T17:33:41Z</time>
      </trkpt>
      <trkpt lat="42.3488320" lon="-3.8168320">
        <ele>825.9</ele>
        <time>2020-04-04T17:33:43Z</time>
      </trkpt>
      <trkpt lat="42.3489000" lon="-3.8171490">
        <ele>825.8</ele>
        <time>2020-04-04T17:33:45Z</time>
      </trkpt>
      <trkpt lat="42.3489530" lon="-3.8173240">
        <ele>825.8</ele>
        <time>2020-04-04T17:33:47Z</time>
      </trkpt>
      <trkpt lat="42.3490040" lon="-3.8174930">
        <ele>825.7</ele>
        <time>2020-04-04T17:33:49Z</time>
      </trkpt>
      <trkpt lat="42.3490530" lon="-3.8176550">
        <ele>825.6</ele>
        <time>2020-04-04T17:33:51Z</time>
      </trkpt>
      <trkpt lat="42.3491550" lon="-3.8180520">
        <ele>825.6</ele>
        <time>2020-04-04T17:33:53Z</time>
      </trkpt>
      <trkpt lat="42.3491660" lon="-3.8182190">
        <ele>825.6</ele>
        <time>2020-04-04T17:33:55Z</time>
      </trkpt>
      <trkpt lat="42.3491670" lon="-3.8185070">
        <ele>825.7</ele>
        <time>2020-04-04T17:33:57Z</time>
      </trkpt>
      <trkpt lat="42.3491910" lon="-3.8186860">
        <ele>826.0</ele>
        <time>2020-04-04T17:34:00Z</time>
      </trkpt>
      <trkpt lat="42.3491570" lon="-3.8189130">
        <ele>826.3</ele>
        <time>2020-04-04T17:34:02Z</time>
      </trkpt>
      <trkpt lat="42.3490650" lon="-3.8190510">
        <ele>826.6</ele>
        <time>2020-04-04T17:34:04Z</time>
      </trkpt>
      <trkpt lat="42.3489670" lon="-3.8192770">
        <ele>826.8</ele>
        <time>2020-04-04T17:34:06Z</time>
      </trkpt>
      <trkpt lat="42.3489160" lon="-3.8194780">
        <ele>826.6</ele>
        <time>2020-04-04T17:34:08Z</time>
      </trkpt>
      <trkpt lat="42.3489260" lon="-3.8197700">
        <ele>826.1</ele>
        <time>2020-04-04T17:34:10Z</time>
      </trkpt>
      <trkpt lat="42.3490130" lon="-3.8199840">
        <ele>825.9</ele>
        <time>2020-04-04T17:34:12Z</time>
      </trkpt>
      <trkpt lat="42.3490730" lon="-3.8202230">
        <ele>825.4</ele>
        <time>2020-04-04T17:34:14Z</time>
      </trkpt>
      <trkpt lat="42.3491580" lon="-3.8204620">
        <ele>824.4</ele>
        <time>2020-04-04T17:34:16Z</time>
      </trkpt>
      <trkpt lat="42.3492290" lon="-3.8206440">
        <ele>823.9</ele>
        <time>2020-04-04T17:34:18Z</time>
      </trkpt>
      <trkpt lat="42.3493000" lon="-3.8210140">
        <ele>823.4</ele>
        <time>2020-04-04T17:34:20Z</time>
      </trkpt>
      <trkpt lat="42.3492870" lon="-3.8212570">
        <ele>822.9</ele>
        <time>2020-04-04T17:34:22Z</time>
      </trkpt>
      <trkpt lat="42.3493170" lon="-3.8215500">
        <ele>822.4</ele>
        <time>2020-04-04T17:34:24Z</time>
      </trkpt>
      <trkpt lat="42.3492990" lon="-3.8218110">
        <ele>822.3</ele>
        <time>2020-04-04T17:34:26Z</time>
      </trkpt>
      <trkpt lat="42.3492450" lon="-3.8220210">
        <ele>822.2</ele>
        <time>2020-04-04T17:34:28Z</time>
      </trkpt>
      <trkpt lat="42.3491890" lon="-3.8222490">
        <ele>822.2</ele>
        <time>2020-04-04T17:34:30Z</time>
      </trkpt>
      <trkpt lat="42.3491320" lon="-3.8225270">
        <ele>822.2</ele>
        <time>2020-04-04T17:34:32Z</time>
      </trkpt>
      <trkpt lat="42.3491210" lon="-3.8227680">
        <ele>822.1</ele>
        <time>2020-04-04T17:34:34Z</time>
      </trkpt>
      <trkpt lat="42.3491120" lon="-3.8229520">
        <ele>822.0</ele>
        <time>2020-04-04T17:34:36Z</time>
      </trkpt>
      <trkpt lat="42.3490950" lon="-3.8232490">
        <ele>821.6</ele>
        <time>2020-04-04T17:34:38Z</time>
      </trkpt>
      <trkpt lat="42.3490740" lon="-3.8235070">
        <ele>821.4</ele>
        <time>2020-04-04T17:34:40Z</time>
      </trkpt>
      <trkpt lat="42.3490500" lon="-3.8237940">
        <ele>821.6</ele>
        <time>2020-04-04T17:34:42Z</time>
      </trkpt>
      <trkpt lat="42.3489960" lon="-3.8240520">
        <ele>821.7</ele>
        <time>2020-04-04T17:34:44Z</time>
      </trkpt>
      <trkpt lat="42.3489440" lon="-3.8242290">
        <ele>821.7</ele>
        <time>2020-04-04T17:34:46Z</time>
      </trkpt>
      <trkpt lat="42.3488620" lon="-3.8245060">
        <ele>821.6</ele>
        <time>2020-04-04T17:34:48Z</time>
      </trkpt>
      <trkpt lat="42.3488090" lon="-3.8246710">
        <ele>821.5</ele>
        <time>2020-04-04T17:34:50Z</time>
      </trkpt>
      <trkpt lat="42.3487580" lon="-3.8248310">
        <ele>821.4</ele>
        <time>2020-04-04T17:34:52Z</time>
      </trkpt>
      <trkpt lat="42.3486510" lon="-3.8251680">
        <ele>821.3</ele>
        <time>2020-04-04T17:34:54Z</time>
      </trkpt>
      <trkpt lat="42.3486000" lon="-3.8253230">
        <ele>821.3</ele>
        <time>2020-04-04T17:34:56Z</time>
      </trkpt>
      <trkpt lat="42.3485500" lon="-3.8254800">
        <ele>821.3</ele>
        <time>2020-04-04T17:34:58Z</time>
      </trkpt>
      <trkpt lat="42.3484990" lon="-3.8256370">
        <ele>821.2</ele>
        <time>2020-04-04T17:35:00Z</time>
      </trkpt>
      <trkpt lat="42.3483810" lon="-3.8260050">
        <ele>821.0</ele>
        <time>2020-04-04T17:35:02Z</time>
      </trkpt>
      <trkpt lat="42.3483330" lon="-3.8261640">
        <ele>820.7</ele>
        <time>2020-04-04T17:35:04Z</time>
      </trkpt>
      <trkpt lat="42.3482540" lon="-3.8264270">
        <ele>820.4</ele>
        <time>2020-04-04T17:35:06Z</time>
      </trkpt>
      <trkpt lat="42.3481820" lon="-3.8266670">
        <ele>820.4</ele>
        <time>2020-04-04T17:35:08Z</time>
      </trkpt>
      <trkpt lat="42.3481110" lon="-3.8269110">
        <ele>820.4</ele>
        <time>2020-04-04T17:35:10Z</time>
      </trkpt>
      <trkpt lat="42.3480570" lon="-3.8271250">
        <ele>819.6</ele>
        <time>2020-04-04T17:35:12Z</time>
      </trkpt>
      <trkpt lat="42.3479890" lon="-3.8273920">
        <ele>818.8</ele>
        <time>2020-04-04T17:35:14Z</time>
      </trkpt>
      <trkpt lat="42.3479300" lon="-3.8276140">
        <ele>818.4</ele>
        <time>2020-04-04T17:35:16Z</time>
      </trkpt>
      <trkpt lat="42.3478550" lon="-3.8278960">
        <ele>818.1</ele>
        <time>2020-04-04T17:35:18Z</time>
      </trkpt>
      <trkpt lat="42.3477870" lon="-3.8281310">
        <ele>818.3</ele>
        <time>2020-04-04T17:35:20Z</time>
      </trkpt>
      <trkpt lat="42.3476980" lon="-3.8283480">
        <ele>818.8</ele>
        <time>2020-04-04T17:35:22Z</time>
      </trkpt>
      <trkpt lat="42.3475680" lon="-3.8285030">
        <ele>819.5</ele>
        <time>2020-04-04T17:35:24Z</time>
      </trkpt>
      <trkpt lat="42.3473900" lon="-3.8285800">
        <ele>820.0</ele>
        <time>2020-04-04T17:35:26Z</time>
      </trkpt>
      <trkpt lat="42.3472210" lon="-3.8286020">
        <ele>820.5</ele>
        <time>2020-04-04T17:35:28Z</time>
      </trkpt>
      <trkpt lat="42.3470520" lon="-3.8286190">
        <ele>821.3</ele>
        <time>2020-04-04T17:35:30Z</time>
      </trkpt>
      <trkpt lat="42.3469500" lon="-3.8286300">
        <ele>822.3</ele>
        <time>2020-04-04T17:35:32Z</time>
      </trkpt>
      <trkpt lat="42.3468020" lon="-3.8286460">
        <ele>823.6</ele>
        <time>2020-04-04T17:35:34Z</time>
      </trkpt>
      <trkpt lat="42.3467070" lon="-3.8286560">
        <ele>824.4</ele>
        <time>2020-04-04T17:35:36Z</time>
      </trkpt>
      <trkpt lat="42.3466320" lon="-3.8286630">
        <ele>824.9</ele>
        <time>2020-04-04T17:35:38Z</time>
      </trkpt>
      <trkpt lat="42.3464980" lon="-3.8286760">
        <ele>825.8</ele>
        <time>2020-04-04T17:35:40Z</time>
      </trkpt>
      <trkpt lat="42.3464070" lon="-3.8286850">
        <ele>826.4</ele>
        <time>2020-04-04T17:35:42Z</time>
      </trkpt>
      <trkpt lat="42.3463140" lon="-3.8286990">
        <ele>827.1</ele>
        <time>2020-04-04T17:35:44Z</time>
      </trkpt>
      <trkpt lat="42.3462260" lon="-3.8287140">
        <ele>827.8</ele>
        <time>2020-04-04T17:35:46Z</time>
      </trkpt>
      <trkpt lat="42.3461510" lon="-3.8287350">
        <ele>828.4</ele>
        <time>2020-04-04T17:35:48Z</time>
      </trkpt>
      <trkpt lat="42.3460450" lon="-3.8287690">
        <ele>829.4</ele>
        <time>2020-04-04T17:35:50Z</time>
      </trkpt>
      <trkpt lat="42.3459460" lon="-3.8287980">
        <ele>830.4</ele>
        <time>2020-04-04T17:35:52Z</time>
      </trkpt>
      <trkpt lat="42.3458320" lon="-3.8288680">
        <ele>831.3</ele>
        <time>2020-04-04T17:35:54Z</time>
      </trkpt>
      <trkpt lat="42.3457290" lon="-3.8289650">
        <ele>831.9</ele>
        <time>2020-04-04T17:35:56Z</time>
      </trkpt>
      <trkpt lat="42.3456370" lon="-3.8290470">
        <ele>832.4</ele>
        <time>2020-04-04T17:35:58Z</time>
      </trkpt>
      <trkpt lat="42.3455230" lon="-3.8291500">
        <ele>832.9</ele>
        <time>2020-04-04T17:36:00Z</time>
      </trkpt>
      <trkpt lat="42.3454270" lon="-3.8292310">
        <ele>833.2</ele>
        <time>2020-04-04T17:36:02Z</time>
      </trkpt>
      <trkpt lat="42.3453180" lon="-3.8293190">
        <ele>833.3</ele>
        <time>2020-04-04T17:36:04Z</time>
      </trkpt>
      <trkpt lat="42.3451950" lon="-3.8294110">
        <ele>833.5</ele>
        <time>2020-04-04T17:36:06Z</time>
      </trkpt>
      <trkpt lat="42.3450680" lon="-3.8294810">
        <ele>833.0</ele>
        <time>2020-04-04T17:36:08Z</time>
      </trkpt>
      <trkpt lat="42.3449090" lon="-3.8295510">
        <ele>831.8</ele>
        <time>2020-04-04T17:36:10Z</time>
      </trkpt>
      <trkpt lat="42.3447610" lon="-3.8296160">
        <ele>832.1</ele>
        <time>2020-04-04T17:36:12Z</time>
      </trkpt>
      <trkpt lat="42.3446390" lon="-3.8296720">
        <ele>832.4</ele>
        <time>2020-04-04T17:36:14Z</time>
      </trkpt>
      <trkpt lat="42.3444370" lon="-3.8297630">
        <ele>832.5</ele>
        <time>2020-04-04T17:36:16Z</time>
      </trkpt>
      <trkpt lat="42.3443280" lon="-3.8298130">
        <ele>832.5</ele>
        <time>2020-04-04T17:36:18Z</time>
      </trkpt>
      <trkpt lat="42.3441710" lon="-3.8298880">
        <ele>832.6</ele>
        <time>2020-04-04T17:36:20Z</time>
      </trkpt>
      <trkpt lat="42.3440400" lon="-3.8299550">
        <ele>832.9</ele>
        <time>2020-04-04T17:36:22Z</time>
      </trkpt>
      <trkpt lat="42.3439700" lon="-3.8299940">
        <ele>833.1</ele>
        <time>2020-04-04T17:36:24Z</time>
      </trkpt>
      <trkpt lat="42.3438650" lon="-3.8300560">
        <ele>833.2</ele>
        <time>2020-04-04T17:36:26Z</time>
      </trkpt>
      <trkpt lat="42.3438250" lon="-3.8300830">
        <ele>833.2</ele>
        <time>2020-04-04T17:36:28Z</time>
      </trkpt>
      <trkpt lat="42.3438070" lon="-3.8300950">
        <ele>833.2</ele>
        <time>2020-04-04T17:36:30Z</time>
      </trkpt>
      <trkpt lat="42.3438070" lon="-3.8300950">
        <ele>833.2</ele>
        <time>2020-04-04T17:36:32Z</time>
      </trkpt>
      <trkpt lat="42.3438070" lon="-3.8300950">
        <ele>833.2</ele>
        <time>2020-04-04T17:36:34Z</time>
      </trkpt>
      <trkpt lat="42.3438070" lon="-3.8300950">
        <ele>833.2</ele>
        <time>2020-04-04T17:36:36Z</time>
      </trkpt>
      <trkpt lat="42.3438070" lon="-3.8300950">
        <ele>833.2</ele>
        <time>2020-04-04T17:36:38Z</time>
      </trkpt>
      <trkpt lat="42.3438070" lon="-3.8300950">
        <ele>833.2</ele>
        <time>2020-04-04T17:36:40Z</time>
      </trkpt>
      <trkpt lat="42.3438070" lon="-3.8300950">
        <ele>833.2</ele>
        <time>2020-04-04T17:36:42Z</time>
      </trkpt>
      <trkpt lat="42.3438070" lon="-3.8300950">
        <ele>833.2</ele>
        <time>2020-04-04T17:36:44Z</time>
      </trkpt>
      <trkpt lat="42.3438070" lon="-3.8300950">
        <ele>833.2</ele>
        <time>2020-04-04T17:36:46Z</time>
      </trkpt>
      <trkpt lat="42.3438070" lon="-3.8300950">
        <ele>833.2</ele>
        <time>2020-04-04T17:36:48Z</time>
      </trkpt>
      <trkpt lat="42.3438070" lon="-3.8300950">
        <ele>833.2</ele>
        <time>2020-04-04T17:36:50Z</time>
      </trkpt>
      <trkpt lat="42.3438070" lon="-3.8300950">
        <ele>833.2</ele>
        <time>2020-04-04T17:36:52Z</time>
      </trkpt>
      <trkpt lat="42.3438070" lon="-3.8300950">
        <ele>833.2</ele>
        <time>2020-04-04T17:36:54Z</time>
      </trkpt>
      <trkpt lat="42.3438070" lon="-3.8300950">
        <ele>833.2</ele>
        <time>2020-04-04T17:36:56Z</time>
      </trkpt>
      <trkpt lat="42.3438070" lon="-3.8300950">
        <ele>833.2</ele>
        <time>2020-04-04T17:36:58Z</time>
      </trkpt>
      <trkpt lat="42.3438070" lon="-3.8300950">
        <ele>833.2</ele>
        <time>2020-04-04T17:37:00Z</time>
      </trkpt>
      <trkpt lat="42.3438070" lon="-3.8300950">
        <ele>833.2</ele>
        <time>2020-04-04T17:37:02Z</time>
      </trkpt>
      <trkpt lat="42.3438070" lon="-3.8300950">
        <ele>833.2</ele>
        <time>2020-04-04T17:37:04Z</time>
      </trkpt>
      <trkpt lat="42.3438070" lon="-3.8300950">
        <ele>833.2</ele>
        <time>2020-04-04T17:37:06Z</time>
      </trkpt>
      <trkpt lat="42.3438070" lon="-3.8300950">
        <ele>833.2</ele>
        <time>2020-04-04T17:37:08Z</time>
      </trkpt>
      <trkpt lat="42.3438070" lon="-3.8300950">
        <ele>833.2</ele>
        <time>2020-04-04T17:37:10Z</time>
      </trkpt>
      <trkpt lat="42.3438070" lon="-3.8300950">
        <ele>833.2</ele>
        <time>2020-04-04T17:37:12Z</time>
      </trkpt>
      <trkpt lat="42.3438070" lon="-3.8300950">
        <ele>833.2</ele>
        <time>2020-04-04T17:37:14Z</time>
      </trkpt>
      <trkpt lat="42.3438070" lon="-3.8300950">
        <ele>833.2</ele>
        <time>2020-04-04T17:37:16Z</time>
      </trkpt>
      <trkpt lat="42.3438070" lon="-3.8300950">
        <ele>833.2</ele>
        <time>2020-04-04T17:37:18Z</time>
      </trkpt>
      <trkpt lat="42.3438070" lon="-3.8300950">
        <ele>833.2</ele>
        <time>2020-04-04T17:37:20Z</time>
      </trkpt>
      <trkpt lat="42.3438070" lon="-3.8300950">
        <ele>833.2</ele>
        <time>2020-04-04T17:37:22Z</time>
      </trkpt>
      <trkpt lat="42.3438070" lon="-3.8300950">
        <ele>833.2</ele>
        <time>2020-04-04T17:37:24Z</time>
      </trkpt>
      <trkpt lat="42.3438070" lon="-3.8300950">
        <ele>833.2</ele>
        <time>2020-04-04T17:37:26Z</time>
      </trkpt>
      <trkpt lat="42.3438070" lon="-3.8300950">
        <ele>833.2</ele>
        <time>2020-04-04T17:37:28Z</time>
      </trkpt>
      <trkpt lat="42.3438070" lon="-3.8300950">
        <ele>833.2</ele>
        <time>2020-04-04T17:37:30Z</time>
      </trkpt>
      <trkpt lat="42.3438070" lon="-3.8300950">
        <ele>833.2</ele>
        <time>2020-04-04T17:37:32Z</time>
      </trkpt>
      <trkpt lat="42.3438070" lon="-3.8300950">
        <ele>833.2</ele>
        <time>2020-04-04T17:37:34Z</time>
      </trkpt>
      <trkpt lat="42.3438070" lon="-3.8300950">
        <ele>833.2</ele>
        <time>2020-04-04T17:37:36Z</time>
      </trkpt>
      <trkpt lat="42.3438070" lon="-3.8300950">
        <ele>833.2</ele>
        <time>2020-04-04T17:37:38Z</time>
      </trkpt>
      <trkpt lat="42.3438070" lon="-3.8300950">
        <ele>833.2</ele>
        <time>2020-04-04T17:37:40Z</time>
      </trkpt>
      <trkpt lat="42.3438070" lon="-3.8300950">
        <ele>833.2</ele>
        <time>2020-04-04T17:37:42Z</time>
      </trkpt>
      <trkpt lat="42.3438070" lon="-3.8300950">
        <ele>833.2</ele>
        <time>2020-04-04T17:37:44Z</time>
      </trkpt>
      <trkpt lat="42.3438070" lon="-3.8300950">
        <ele>833.2</ele>
        <time>2020-04-04T17:37:46Z</time>
      </trkpt>
      <trkpt lat="42.3438070" lon="-3.8300950">
        <ele>833.2</ele>
        <time>2020-04-04T17:37:48Z</time>
      </trkpt>
      <trkpt lat="42.3438070" lon="-3.8300950">
        <ele>833.2</ele>
        <time>2020-04-04T17:37:50Z</time>
      </trkpt>
      <trkpt lat="42.3438070" lon="-3.8300950">
        <ele>833.2</ele>
        <time>2020-04-04T17:37:52Z</time>
      </trkpt>
      <trkpt lat="42.3438070" lon="-3.8300950">
        <ele>833.2</ele>
        <time>2020-04-04T17:37:54Z</time>
      </trkpt>
      <trkpt lat="42.3438070" lon="-3.8300950">
        <ele>833.2</ele>
        <time>2020-04-04T17:37:56Z</time>
      </trkpt>
      <trkpt lat="42.3438070" lon="-3.8300950">
        <ele>833.2</ele>
        <time>2020-04-04T17:37:58Z</time>
      </trkpt>
      <trkpt lat="42.3438070" lon="-3.8300950">
        <ele>833.2</ele>
        <time>2020-04-04T17:38:00Z</time>
      </trkpt>
      <trkpt lat="42.3438070" lon="-3.8300950">
        <ele>833.2</ele>
        <time>2020-04-04T17:38:02Z</time>
      </trkpt>
      <trkpt lat="42.3438070" lon="-3.8300950">
        <ele>833.2</ele>
        <time>2020-04-04T17:38:04Z</time>
      </trkpt>
      <trkpt lat="42.3438070" lon="-3.8300950">
        <ele>833.2</ele>
        <time>2020-04-04T17:38:06Z</time>
      </trkpt>
      <trkpt lat="42.3438070" lon="-3.8300950">
        <ele>833.2</ele>
        <time>2020-04-04T17:38:08Z</time>
      </trkpt>
      <trkpt lat="42.3438070" lon="-3.8300950">
        <ele>833.2</ele>
        <time>2020-04-04T17:38:10Z</time>
      </trkpt>
      <trkpt lat="42.3438070" lon="-3.8300950">
        <ele>833.2</ele>
        <time>2020-04-04T17:38:12Z</time>
      </trkpt>
      <trkpt lat="42.3437980" lon="-3.8301020">
        <ele>833.2</ele>
        <time>2020-04-04T17:38:14Z</time>
      </trkpt>
      <trkpt lat="42.3437660" lon="-3.8301240">
        <ele>833.2</ele>
        <time>2020-04-04T17:38:16Z</time>
      </trkpt>
      <trkpt lat="42.3436670" lon="-3.8301970">
        <ele>833.2</ele>
        <time>2020-04-04T17:38:18Z</time>
      </trkpt>
      <trkpt lat="42.3435680" lon="-3.8302750">
        <ele>833.2</ele>
        <time>2020-04-04T17:38:20Z</time>
      </trkpt>
      <trkpt lat="42.3434870" lon="-3.8303410">
        <ele>833.1</ele>
        <time>2020-04-04T17:38:22Z</time>
      </trkpt>
      <trkpt lat="42.3433510" lon="-3.8304590">
        <ele>833.2</ele>
        <time>2020-04-04T17:38:24Z</time>
      </trkpt>
      <trkpt lat="42.3432210" lon="-3.8305840">
        <ele>833.6</ele>
        <time>2020-04-04T17:38:26Z</time>
      </trkpt>
      <trkpt lat="42.3430800" lon="-3.8307330">
        <ele>833.8</ele>
        <time>2020-04-04T17:38:28Z</time>
      </trkpt>
      <trkpt lat="42.3429370" lon="-3.8309040">
        <ele>833.8</ele>
        <time>2020-04-04T17:38:30Z</time>
      </trkpt>
      <trkpt lat="42.3428060" lon="-3.8310720">
        <ele>833.3</ele>
        <time>2020-04-04T17:38:32Z</time>
      </trkpt>
      <trkpt lat="42.3427120" lon="-3.8312110">
        <ele>832.8</ele>
        <time>2020-04-04T17:38:34Z</time>
      </trkpt>
      <trkpt lat="42.3425570" lon="-3.8314430">
        <ele>832.0</ele>
        <time>2020-04-04T17:38:36Z</time>
      </trkpt>
      <trkpt lat="42.3424310" lon="-3.8316410">
        <ele>831.3</ele>
        <time>2020-04-04T17:38:38Z</time>
      </trkpt>
      <trkpt lat="42.3423380" lon="-3.8317910">
        <ele>830.8</ele>
        <time>2020-04-04T17:38:40Z</time>
      </trkpt>
      <trkpt lat="42.3421690" lon="-3.8320560">
        <ele>829.7</ele>
        <time>2020-04-04T17:38:42Z</time>
      </trkpt>
      <trkpt lat="42.3420740" lon="-3.8322040">
        <ele>829.1</ele>
        <time>2020-04-04T17:38:44Z</time>
      </trkpt>
      <trkpt lat="42.3419210" lon="-3.8324390">
        <ele>828.0</ele>
        <time>2020-04-04T17:38:46Z</time>
      </trkpt>
      <trkpt lat="42.3418050" lon="-3.8326150">
        <ele>827.6</ele>
        <time>2020-04-04T17:38:48Z</time>
      </trkpt>
      <trkpt lat="42.3416900" lon="-3.8327910">
        <ele>827.9</ele>
        <time>2020-04-04T17:38:50Z</time>
      </trkpt>
      <trkpt lat="42.3416010" lon="-3.8329280">
        <ele>828.1</ele>
        <time>2020-04-04T17:38:52Z</time>
      </trkpt>
      <trkpt lat="42.3414290" lon="-3.8332080">
        <ele>828.8</ele>
        <time>2020-04-04T17:38:54Z</time>
      </trkpt>
      <trkpt lat="42.3413080" lon="-3.8333720">
        <ele>829.5</ele>
        <time>2020-04-04T17:38:56Z</time>
      </trkpt>
      <trkpt lat="42.3411650" lon="-3.8334470">
        <ele>829.5</ele>
        <time>2020-04-04T17:38:58Z</time>
      </trkpt>
      <trkpt lat="42.3409990" lon="-3.8334970">
        <ele>829.1</ele>
        <time>2020-04-04T17:39:00Z</time>
      </trkpt>
      <trkpt lat="42.3408430" lon="-3.8335210">
        <ele>828.8</ele>
        <time>2020-04-04T17:39:02Z</time>
      </trkpt>
      <trkpt lat="42.3407050" lon="-3.8334740">
        <ele>828.5</ele>
        <time>2020-04-04T17:39:04Z</time>
      </trkpt>
      <trkpt lat="42.3406420" lon="-3.8336140">
        <ele>829.0</ele>
        <time>2020-04-04T17:39:06Z</time>
      </trkpt>
      <trkpt lat="42.3406110" lon="-3.8337530">
        <ele>829.5</ele>
        <time>2020-04-04T17:39:08Z</time>
      </trkpt>
      <trkpt lat="42.3405650" lon="-3.8339870">
        <ele>830.3</ele>
        <time>2020-04-04T17:39:10Z</time>
      </trkpt>
      <trkpt lat="42.3405430" lon="-3.8341190">
        <ele>830.9</ele>
        <time>2020-04-04T17:39:12Z</time>
      </trkpt>
      <trkpt lat="42.3405010" lon="-3.8343750">
        <ele>832.8</ele>
        <time>2020-04-04T17:39:14Z</time>
      </trkpt>
      <trkpt lat="42.3404800" lon="-3.8345000">
        <ele>833.0</ele>
        <time>2020-04-04T17:39:16Z</time>
      </trkpt>
      <trkpt lat="42.3404400" lon="-3.8346850">
        <ele>833.4</ele>
        <time>2020-04-04T17:39:18Z</time>
      </trkpt>
      <trkpt lat="42.3403790" lon="-3.8348250">
        <ele>833.8</ele>
        <time>2020-04-04T17:39:20Z</time>
      </trkpt>
      <trkpt lat="42.3403070" lon="-3.8349720">
        <ele>833.9</ele>
        <time>2020-04-04T17:39:22Z</time>
      </trkpt>
      <trkpt lat="42.3402240" lon="-3.8351050">
        <ele>833.5</ele>
        <time>2020-04-04T17:39:24Z</time>
      </trkpt>
      <trkpt lat="42.3400940" lon="-3.8351430">
        <ele>832.8</ele>
        <time>2020-04-04T17:39:26Z</time>
      </trkpt>
      <trkpt lat="42.3399370" lon="-3.8352870">
        <ele>831.8</ele>
        <time>2020-04-04T17:39:28Z</time>
      </trkpt>
      <trkpt lat="42.3399290" lon="-3.8354630">
        <ele>831.5</ele>
        <time>2020-04-04T17:39:30Z</time>
      </trkpt>
      <trkpt lat="42.3399690" lon="-3.8356260">
        <ele>831.7</ele>
        <time>2020-04-04T17:39:32Z</time>
      </trkpt>
      <trkpt lat="42.3400400" lon="-3.8359100">
        <ele>832.3</ele>
        <time>2020-04-04T17:39:34Z</time>
      </trkpt>
      <trkpt lat="42.3401020" lon="-3.8361640">
        <ele>833.4</ele>
        <time>2020-04-04T17:39:36Z</time>
      </trkpt>
      <trkpt lat="42.3401290" lon="-3.8363900">
        <ele>834.3</ele>
        <time>2020-04-04T17:39:38Z</time>
      </trkpt>
      <trkpt lat="42.3401310" lon="-3.8366060">
        <ele>835.2</ele>
        <time>2020-04-04T17:39:40Z</time>
      </trkpt>
      <trkpt lat="42.3401490" lon="-3.8368240">
        <ele>836.2</ele>
        <time>2020-04-04T17:39:42Z</time>
      </trkpt>
      <trkpt lat="42.3402070" lon="-3.8370450">
        <ele>837.7</ele>
        <time>2020-04-04T17:39:44Z</time>
      </trkpt>
      <trkpt lat="42.3402610" lon="-3.8372740">
        <ele>838.8</ele>
        <time>2020-04-04T17:39:46Z</time>
      </trkpt>
      <trkpt lat="42.3402740" lon="-3.8375160">
        <ele>838.9</ele>
        <time>2020-04-04T17:39:48Z</time>
      </trkpt>
      <trkpt lat="42.3402540" lon="-3.8377430">
        <ele>838.8</ele>
        <time>2020-04-04T17:39:50Z</time>
      </trkpt>
      <trkpt lat="42.3402400" lon="-3.8380050">
        <ele>838.0</ele>
        <time>2020-04-04T17:39:52Z</time>
      </trkpt>
      <trkpt lat="42.3402240" lon="-3.8382600">
        <ele>836.9</ele>
        <time>2020-04-04T17:39:54Z</time>
      </trkpt>
      <trkpt lat="42.3402390" lon="-3.8384990">
        <ele>835.9</ele>
        <time>2020-04-04T17:39:56Z</time>
      </trkpt>
      <trkpt lat="42.3402750" lon="-3.8387140">
        <ele>834.7</ele>
        <time>2020-04-04T17:39:58Z</time>
      </trkpt>
      <trkpt lat="42.3403270" lon="-3.8390220">
        <ele>833.0</ele>
        <time>2020-04-04T17:40:00Z</time>
      </trkpt>
      <trkpt lat="42.3403640" lon="-3.8392270">
        <ele>832.0</ele>
        <time>2020-04-04T17:40:02Z</time>
      </trkpt>
      <trkpt lat="42.3404270" lon="-3.8395960">
        <ele>830.4</ele>
        <time>2020-04-04T17:40:04Z</time>
      </trkpt>
      <trkpt lat="42.3404480" lon="-3.8398820">
        <ele>830.5</ele>
        <time>2020-04-04T17:40:06Z</time>
      </trkpt>
      <trkpt lat="42.3404690" lon="-3.8400880">
        <ele>830.4</ele>
        <time>2020-04-04T17:40:08Z</time>
      </trkpt>
      <trkpt lat="42.3404720" lon="-3.8404270">
        <ele>830.2</ele>
        <time>2020-04-04T17:40:10Z</time>
      </trkpt>
      <trkpt lat="42.3404510" lon="-3.8406030">
        <ele>830.2</ele>
        <time>2020-04-04T17:40:12Z</time>
      </trkpt>
      <trkpt lat="42.3404320" lon="-3.8408740">
        <ele>830.2</ele>
        <time>2020-04-04T17:40:14Z</time>
      </trkpt>
      <trkpt lat="42.3404380" lon="-3.8410800">
        <ele>830.7</ele>
        <time>2020-04-04T17:40:16Z</time>
      </trkpt>
      <trkpt lat="42.3404380" lon="-3.8412920">
        <ele>831.3</ele>
        <time>2020-04-04T17:40:18Z</time>
      </trkpt>
      <trkpt lat="42.3404220" lon="-3.8414800">
        <ele>831.8</ele>
        <time>2020-04-04T17:40:20Z</time>
      </trkpt>
      <trkpt lat="42.3404050" lon="-3.8416010">
        <ele>832.1</ele>
        <time>2020-04-04T17:40:22Z</time>
      </trkpt>
      <trkpt lat="42.3403780" lon="-3.8417530">
        <ele>832.7</ele>
        <time>2020-04-04T17:40:24Z</time>
      </trkpt>
      <trkpt lat="42.3403590" lon="-3.8418480">
        <ele>833.0</ele>
        <time>2020-04-04T17:40:26Z</time>
      </trkpt>
      <trkpt lat="42.3403420" lon="-3.8419340">
        <ele>833.4</ele>
        <time>2020-04-04T17:40:28Z</time>
      </trkpt>
      <trkpt lat="42.3403150" lon="-3.8421210">
        <ele>834.4</ele>
        <time>2020-04-04T17:40:30Z</time>
      </trkpt>
      <trkpt lat="42.3403090" lon="-3.8421990">
        <ele>835.0</ele>
        <time>2020-04-04T17:40:32Z</time>
      </trkpt>
      <trkpt lat="42.3403030" lon="-3.8422740">
        <ele>835.5</ele>
        <time>2020-04-04T17:40:34Z</time>
      </trkpt>
      <trkpt lat="42.3402910" lon="-3.8424220">
        <ele>836.5</ele>
        <time>2020-04-04T17:40:36Z</time>
      </trkpt>
      <trkpt lat="42.3402850" lon="-3.8424930">
        <ele>837.0</ele>
        <time>2020-04-04T17:40:38Z</time>
      </trkpt>
      <trkpt lat="42.3402790" lon="-3.8425630">
        <ele>837.4</ele>
        <time>2020-04-04T17:40:40Z</time>
      </trkpt>
      <trkpt lat="42.3402610" lon="-3.8427280">
        <ele>838.2</ele>
        <time>2020-04-04T17:40:42Z</time>
      </trkpt>
      <trkpt lat="42.3402520" lon="-3.8428070">
        <ele>838.5</ele>
        <time>2020-04-04T17:40:44Z</time>
      </trkpt>
      <trkpt lat="42.3402400" lon="-3.8429000">
        <ele>838.8</ele>
        <time>2020-04-04T17:40:46Z</time>
      </trkpt>
      <trkpt lat="42.3402280" lon="-3.8430000">
        <ele>839.0</ele>
        <time>2020-04-04T17:40:48Z</time>
      </trkpt>
      <trkpt lat="42.3402160" lon="-3.8431020">
        <ele>839.3</ele>
        <time>2020-04-04T17:40:50Z</time>
      </trkpt>
      <trkpt lat="42.3402030" lon="-3.8432070">
        <ele>839.6</ele>
        <time>2020-04-04T17:40:52Z</time>
      </trkpt>
      <trkpt lat="42.3401800" lon="-3.8434860">
        <ele>840.5</ele>
        <time>2020-04-04T17:40:54Z</time>
      </trkpt>
      <trkpt lat="42.3401790" lon="-3.8435940">
        <ele>840.8</ele>
        <time>2020-04-04T17:40:56Z</time>
      </trkpt>
      <trkpt lat="42.3401820" lon="-3.8438020">
        <ele>841.2</ele>
        <time>2020-04-04T17:40:58Z</time>
      </trkpt>
      <trkpt lat="42.3401930" lon="-3.8439110">
        <ele>841.3</ele>
        <time>2020-04-04T17:41:00Z</time>
      </trkpt>
      <trkpt lat="42.3402030" lon="-3.8440190">
        <ele>841.6</ele>
        <time>2020-04-04T17:41:02Z</time>
      </trkpt>
      <trkpt lat="42.3402260" lon="-3.8442250">
        <ele>841.8</ele>
        <time>2020-04-04T17:41:04Z</time>
      </trkpt>
      <trkpt lat="42.3402420" lon="-3.8443430">
        <ele>841.9</ele>
        <time>2020-04-04T17:41:06Z</time>
      </trkpt>
      <trkpt lat="42.3402580" lon="-3.8444640">
        <ele>841.9</ele>
        <time>2020-04-04T17:41:08Z</time>
      </trkpt>
      <trkpt lat="42.3402920" lon="-3.8447180">
        <ele>841.9</ele>
        <time>2020-04-04T17:41:10Z</time>
      </trkpt>
      <trkpt lat="42.3403090" lon="-3.8448460">
        <ele>841.9</ele>
        <time>2020-04-04T17:41:12Z</time>
      </trkpt>
      <trkpt lat="42.3403270" lon="-3.8449750">
        <ele>841.9</ele>
        <time>2020-04-04T17:41:14Z</time>
      </trkpt>
      <trkpt lat="42.3403670" lon="-3.8452770">
        <ele>841.9</ele>
        <time>2020-04-04T17:41:16Z</time>
      </trkpt>
      <trkpt lat="42.3403840" lon="-3.8454600">
        <ele>841.9</ele>
        <time>2020-04-04T17:41:18Z</time>
      </trkpt>
      <trkpt lat="42.3403930" lon="-3.8456380">
        <ele>841.8</ele>
        <time>2020-04-04T17:41:20Z</time>
      </trkpt>
      <trkpt lat="42.3403880" lon="-3.8457810">
        <ele>841.8</ele>
        <time>2020-04-04T17:41:22Z</time>
      </trkpt>
      <trkpt lat="42.3403840" lon="-3.8459150">
        <ele>841.7</ele>
        <time>2020-04-04T17:41:24Z</time>
      </trkpt>
      <trkpt lat="42.3403790" lon="-3.8460500">
        <ele>841.5</ele>
        <time>2020-04-04T17:41:26Z</time>
      </trkpt>
      <trkpt lat="42.3403750" lon="-3.8461820">
        <ele>841.3</ele>
        <time>2020-04-04T17:41:28Z</time>
      </trkpt>
      <trkpt lat="42.3403690" lon="-3.8465330">
        <ele>841.0</ele>
        <time>2020-04-04T17:41:30Z</time>
      </trkpt>
      <trkpt lat="42.3403820" lon="-3.8466670">
        <ele>841.2</ele>
        <time>2020-04-04T17:41:32Z</time>
      </trkpt>
      <trkpt lat="42.3403940" lon="-3.8467990">
        <ele>841.4</ele>
        <time>2020-04-04T17:41:34Z</time>
      </trkpt>
      <trkpt lat="42.3404070" lon="-3.8469300">
        <ele>841.6</ele>
        <time>2020-04-04T17:41:36Z</time>
      </trkpt>
      <trkpt lat="42.3404200" lon="-3.8470610">
        <ele>841.8</ele>
        <time>2020-04-04T17:41:38Z</time>
      </trkpt>
      <trkpt lat="42.3404570" lon="-3.8474400">
        <ele>842.5</ele>
        <time>2020-04-04T17:41:40Z</time>
      </trkpt>
      <trkpt lat="42.3404690" lon="-3.8475700">
        <ele>842.6</ele>
        <time>2020-04-04T17:41:42Z</time>
      </trkpt>
      <trkpt lat="42.3404820" lon="-3.8477000">
        <ele>842.7</ele>
        <time>2020-04-04T17:41:44Z</time>
      </trkpt>
      <trkpt lat="42.3404950" lon="-3.8478320">
        <ele>842.7</ele>
        <time>2020-04-04T17:41:46Z</time>
      </trkpt>
      <trkpt lat="42.3405080" lon="-3.8479680">
        <ele>842.7</ele>
        <time>2020-04-04T17:41:48Z</time>
      </trkpt>
      <trkpt lat="42.3405210" lon="-3.8481080">
        <ele>842.7</ele>
        <time>2020-04-04T17:41:50Z</time>
      </trkpt>
      <trkpt lat="42.3405650" lon="-3.8484970">
        <ele>842.7</ele>
        <time>2020-04-04T17:41:52Z</time>
      </trkpt>
      <trkpt lat="42.3405980" lon="-3.8487350">
        <ele>842.7</ele>
        <time>2020-04-04T17:41:54Z</time>
      </trkpt>
      <trkpt lat="42.3406230" lon="-3.8488800">
        <ele>843.1</ele>
        <time>2020-04-04T17:41:56Z</time>
      </trkpt>
      <trkpt lat="42.3406470" lon="-3.8490260">
        <ele>843.6</ele>
        <time>2020-04-04T17:41:58Z</time>
      </trkpt>
      <trkpt lat="42.3406990" lon="-3.8493200">
        <ele>844.5</ele>
        <time>2020-04-04T17:42:00Z</time>
      </trkpt>
      <trkpt lat="42.3407520" lon="-3.8494870">
        <ele>844.6</ele>
        <time>2020-04-04T17:42:02Z</time>
      </trkpt>
      <trkpt lat="42.3408510" lon="-3.8496610">
        <ele>844.7</ele>
        <time>2020-04-04T17:42:04Z</time>
      </trkpt>
      <trkpt lat="42.3409260" lon="-3.8497690">
        <ele>844.8</ele>
        <time>2020-04-04T17:42:06Z</time>
      </trkpt>
      <trkpt lat="42.3410350" lon="-3.8499500">
        <ele>845.1</ele>
        <time>2020-04-04T17:42:08Z</time>
      </trkpt>
      <trkpt lat="42.3411010" lon="-3.8501270">
        <ele>845.5</ele>
        <time>2020-04-04T17:42:10Z</time>
      </trkpt>
      <trkpt lat="42.3411420" lon="-3.8503220">
        <ele>845.6</ele>
        <time>2020-04-04T17:42:12Z</time>
      </trkpt>
      <trkpt lat="42.3411560" lon="-3.8504560">
        <ele>845.7</ele>
        <time>2020-04-04T17:42:14Z</time>
      </trkpt>
      <trkpt lat="42.3411780" lon="-3.8506750">
        <ele>845.7</ele>
        <time>2020-04-04T17:42:16Z</time>
      </trkpt>
      <trkpt lat="42.3411900" lon="-3.8508040">
        <ele>845.8</ele>
        <time>2020-04-04T17:42:18Z</time>
      </trkpt>
      <trkpt lat="42.3412020" lon="-3.8509320">
        <ele>846.0</ele>
        <time>2020-04-04T17:42:20Z</time>
      </trkpt>
      <trkpt lat="42.3412280" lon="-3.8512050">
        <ele>847.0</ele>
        <time>2020-04-04T17:42:22Z</time>
      </trkpt>
      <trkpt lat="42.3412400" lon="-3.8513280">
        <ele>847.6</ele>
        <time>2020-04-04T17:42:24Z</time>
      </trkpt>
      <trkpt lat="42.3412520" lon="-3.8514490">
        <ele>848.2</ele>
        <time>2020-04-04T17:42:26Z</time>
      </trkpt>
      <trkpt lat="42.3412630" lon="-3.8515650">
        <ele>848.6</ele>
        <time>2020-04-04T17:42:28Z</time>
      </trkpt>
      <trkpt lat="42.3412740" lon="-3.8516810">
        <ele>849.0</ele>
        <time>2020-04-04T17:42:30Z</time>
      </trkpt>
      <trkpt lat="42.3412850" lon="-3.8517960">
        <ele>849.3</ele>
        <time>2020-04-04T17:42:32Z</time>
      </trkpt>
      <trkpt lat="42.3413140" lon="-3.8521460">
        <ele>850.5</ele>
        <time>2020-04-04T17:42:34Z</time>
      </trkpt>
      <trkpt lat="42.3413160" lon="-3.8522590">
        <ele>851.0</ele>
        <time>2020-04-04T17:42:36Z</time>
      </trkpt>
      <trkpt lat="42.3413180" lon="-3.8523730">
        <ele>851.6</ele>
        <time>2020-04-04T17:42:38Z</time>
      </trkpt>
      <trkpt lat="42.3413270" lon="-3.8526070">
        <ele>852.8</ele>
        <time>2020-04-04T17:42:40Z</time>
      </trkpt>
      <trkpt lat="42.3413380" lon="-3.8527230">
        <ele>853.2</ele>
        <time>2020-04-04T17:42:42Z</time>
      </trkpt>
      <trkpt lat="42.3413580" lon="-3.8529080">
        <ele>853.9</ele>
        <time>2020-04-04T17:42:44Z</time>
      </trkpt>
      <trkpt lat="42.3413730" lon="-3.8530290">
        <ele>854.1</ele>
        <time>2020-04-04T17:42:46Z</time>
      </trkpt>
      <trkpt lat="42.3413880" lon="-3.8531510">
        <ele>854.4</ele>
        <time>2020-04-04T17:42:48Z</time>
      </trkpt>
      <trkpt lat="42.3414040" lon="-3.8532750">
        <ele>854.6</ele>
        <time>2020-04-04T17:42:50Z</time>
      </trkpt>
      <trkpt lat="42.3414430" lon="-3.8535960">
        <ele>855.4</ele>
        <time>2020-04-04T17:42:52Z</time>
      </trkpt>
      <trkpt lat="42.3414440" lon="-3.8537670">
        <ele>855.9</ele>
        <time>2020-04-04T17:42:54Z</time>
      </trkpt>
      <trkpt lat="42.3414430" lon="-3.8539370">
        <ele>856.4</ele>
        <time>2020-04-04T17:42:56Z</time>
      </trkpt>
      <trkpt lat="42.3414360" lon="-3.8540640">
        <ele>856.7</ele>
        <time>2020-04-04T17:42:58Z</time>
      </trkpt>
      <trkpt lat="42.3414230" lon="-3.8542890">
        <ele>857.3</ele>
        <time>2020-04-04T17:43:00Z</time>
      </trkpt>
      <trkpt lat="42.3414080" lon="-3.8544130">
        <ele>857.7</ele>
        <time>2020-04-04T17:43:02Z</time>
      </trkpt>
      <trkpt lat="42.3413930" lon="-3.8545370">
        <ele>858.0</ele>
        <time>2020-04-04T17:43:04Z</time>
      </trkpt>
      <trkpt lat="42.3413780" lon="-3.8546610">
        <ele>858.4</ele>
        <time>2020-04-04T17:43:06Z</time>
      </trkpt>
      <trkpt lat="42.3413630" lon="-3.8547830">
        <ele>858.7</ele>
        <time>2020-04-04T17:43:08Z</time>
      </trkpt>
      <trkpt lat="42.3413470" lon="-3.8549070">
        <ele>859.0</ele>
        <time>2020-04-04T17:43:10Z</time>
      </trkpt>
      <trkpt lat="42.3412970" lon="-3.8552720">
        <ele>859.6</ele>
        <time>2020-04-04T17:43:12Z</time>
      </trkpt>
      <trkpt lat="42.3412730" lon="-3.8553970">
        <ele>859.8</ele>
        <time>2020-04-04T17:43:14Z</time>
      </trkpt>
      <trkpt lat="42.3412470" lon="-3.8555250">
        <ele>860.0</ele>
        <time>2020-04-04T17:43:16Z</time>
      </trkpt>
      <trkpt lat="42.3411940" lon="-3.8558020">
        <ele>860.5</ele>
        <time>2020-04-04T17:43:18Z</time>
      </trkpt>
      <trkpt lat="42.3411780" lon="-3.8559390">
        <ele>860.6</ele>
        <time>2020-04-04T17:43:20Z</time>
      </trkpt>
      <trkpt lat="42.3411630" lon="-3.8560770">
        <ele>860.6</ele>
        <time>2020-04-04T17:43:22Z</time>
      </trkpt>
      <trkpt lat="42.3411470" lon="-3.8562170">
        <ele>860.7</ele>
        <time>2020-04-04T17:43:24Z</time>
      </trkpt>
      <trkpt lat="42.3411320" lon="-3.8563570">
        <ele>860.8</ele>
        <time>2020-04-04T17:43:26Z</time>
      </trkpt>
      <trkpt lat="42.3410910" lon="-3.8567270">
        <ele>861.3</ele>
        <time>2020-04-04T17:43:28Z</time>
      </trkpt>
      <trkpt lat="42.3410690" lon="-3.8569090">
        <ele>861.5</ele>
        <time>2020-04-04T17:43:30Z</time>
      </trkpt>
      <trkpt lat="42.3410510" lon="-3.8570470">
        <ele>861.7</ele>
        <time>2020-04-04T17:43:32Z</time>
      </trkpt>
      <trkpt lat="42.3410320" lon="-3.8571840">
        <ele>861.9</ele>
        <time>2020-04-04T17:43:34Z</time>
      </trkpt>
      <trkpt lat="42.3410140" lon="-3.8573190">
        <ele>862.2</ele>
        <time>2020-04-04T17:43:36Z</time>
      </trkpt>
      <trkpt lat="42.3409710" lon="-3.8576380">
        <ele>862.8</ele>
        <time>2020-04-04T17:43:38Z</time>
      </trkpt>
      <trkpt lat="42.3409530" lon="-3.8577700">
        <ele>863.2</ele>
        <time>2020-04-04T17:43:40Z</time>
      </trkpt>
      <trkpt lat="42.3409360" lon="-3.8579020">
        <ele>863.7</ele>
        <time>2020-04-04T17:43:42Z</time>
      </trkpt>
      <trkpt lat="42.3409040" lon="-3.8581720">
        <ele>864.9</ele>
        <time>2020-04-04T17:43:44Z</time>
      </trkpt>
      <trkpt lat="42.3408900" lon="-3.8583200">
        <ele>865.9</ele>
        <time>2020-04-04T17:43:46Z</time>
      </trkpt>
      <trkpt lat="42.3409120" lon="-3.8586180">
        <ele>866.3</ele>
        <time>2020-04-04T17:43:48Z</time>
      </trkpt>
      <trkpt lat="42.3409090" lon="-3.8587840">
        <ele>865.9</ele>
        <time>2020-04-04T17:43:50Z</time>
      </trkpt>
      <trkpt lat="42.3408990" lon="-3.8590230">
        <ele>865.1</ele>
        <time>2020-04-04T17:43:52Z</time>
      </trkpt>
      <trkpt lat="42.3408910" lon="-3.8591980">
        <ele>864.9</ele>
        <time>2020-04-04T17:43:54Z</time>
      </trkpt>
      <trkpt lat="42.3408810" lon="-3.8595200">
        <ele>864.8</ele>
        <time>2020-04-04T17:43:56Z</time>
      </trkpt>
      <trkpt lat="42.3408820" lon="-3.8597030">
        <ele>864.9</ele>
        <time>2020-04-04T17:43:58Z</time>
      </trkpt>
      <trkpt lat="42.3408830" lon="-3.8598880">
        <ele>864.8</ele>
        <time>2020-04-04T17:44:00Z</time>
      </trkpt>
      <trkpt lat="42.3408750" lon="-3.8602720">
        <ele>864.6</ele>
        <time>2020-04-04T17:44:02Z</time>
      </trkpt>
      <trkpt lat="42.3408620" lon="-3.8604630">
        <ele>864.8</ele>
        <time>2020-04-04T17:44:04Z</time>
      </trkpt>
      <trkpt lat="42.3408390" lon="-3.8608130">
        <ele>865.4</ele>
        <time>2020-04-04T17:44:06Z</time>
      </trkpt>
      <trkpt lat="42.3408130" lon="-3.8610170">
        <ele>865.7</ele>
        <time>2020-04-04T17:44:08Z</time>
      </trkpt>
      <trkpt lat="42.3407890" lon="-3.8611940">
        <ele>866.0</ele>
        <time>2020-04-04T17:44:10Z</time>
      </trkpt>
      <trkpt lat="42.3407630" lon="-3.8615270">
        <ele>866.7</ele>
        <time>2020-04-04T17:44:12Z</time>
      </trkpt>
      <trkpt lat="42.3407590" lon="-3.8616950">
        <ele>866.8</ele>
        <time>2020-04-04T17:44:14Z</time>
      </trkpt>
      <trkpt lat="42.3407550" lon="-3.8618590">
        <ele>867.0</ele>
        <time>2020-04-04T17:44:16Z</time>
      </trkpt>
      <trkpt lat="42.3407510" lon="-3.8621890">
        <ele>867.8</ele>
        <time>2020-04-04T17:44:18Z</time>
      </trkpt>
      <trkpt lat="42.3407530" lon="-3.8623510">
        <ele>868.0</ele>
        <time>2020-04-04T17:44:20Z</time>
      </trkpt>
      <trkpt lat="42.3407560" lon="-3.8625150">
        <ele>868.1</ele>
        <time>2020-04-04T17:44:22Z</time>
      </trkpt>
      <trkpt lat="42.3407610" lon="-3.8628500">
        <ele>868.1</ele>
        <time>2020-04-04T17:44:24Z</time>
      </trkpt>
      <trkpt lat="42.3407630" lon="-3.8630150">
        <ele>868.1</ele>
        <time>2020-04-04T17:44:26Z</time>
      </trkpt>
      <trkpt lat="42.3407660" lon="-3.8632890">
        <ele>868.1</ele>
        <time>2020-04-04T17:44:28Z</time>
      </trkpt>
      <trkpt lat="42.3407600" lon="-3.8635260">
        <ele>868.1</ele>
        <time>2020-04-04T17:44:30Z</time>
      </trkpt>
      <trkpt lat="42.3407520" lon="-3.8636940">
        <ele>868.1</ele>
        <time>2020-04-04T17:44:32Z</time>
      </trkpt>
      <trkpt lat="42.3407380" lon="-3.8640110">
        <ele>868.3</ele>
        <time>2020-04-04T17:44:34Z</time>
      </trkpt>
      <trkpt lat="42.3407470" lon="-3.8641850">
        <ele>868.5</ele>
        <time>2020-04-04T17:44:36Z</time>
      </trkpt>
      <trkpt lat="42.3407790" lon="-3.8644420">
        <ele>868.8</ele>
        <time>2020-04-04T17:44:38Z</time>
      </trkpt>
      <trkpt lat="42.3408370" lon="-3.8645920">
        <ele>868.1</ele>
        <time>2020-04-04T17:44:40Z</time>
      </trkpt>
      <trkpt lat="42.3409340" lon="-3.8648510">
        <ele>867.3</ele>
        <time>2020-04-04T17:44:42Z</time>
      </trkpt>
      <trkpt lat="42.3409880" lon="-3.8650020">
        <ele>867.6</ele>
        <time>2020-04-04T17:44:44Z</time>
      </trkpt>
      <trkpt lat="42.3410410" lon="-3.8651500">
        <ele>868.0</ele>
        <time>2020-04-04T17:44:46Z</time>
      </trkpt>
      <trkpt lat="42.3411390" lon="-3.8654570">
        <ele>868.6</ele>
        <time>2020-04-04T17:44:48Z</time>
      </trkpt>
      <trkpt lat="42.3411710" lon="-3.8656140">
        <ele>868.9</ele>
        <time>2020-04-04T17:44:50Z</time>
      </trkpt>
      <trkpt lat="42.3412030" lon="-3.8657710">
        <ele>869.2</ele>
        <time>2020-04-04T17:44:52Z</time>
      </trkpt>
      <trkpt lat="42.3412350" lon="-3.8659280">
        <ele>869.6</ele>
        <time>2020-04-04T17:44:54Z</time>
      </trkpt>
      <trkpt lat="42.3413010" lon="-3.8662950">
        <ele>870.4</ele>
        <time>2020-04-04T17:44:56Z</time>
      </trkpt>
      <trkpt lat="42.3413210" lon="-3.8664350">
        <ele>870.8</ele>
        <time>2020-04-04T17:44:58Z</time>
      </trkpt>
      <trkpt lat="42.3413530" lon="-3.8666830">
        <ele>871.5</ele>
        <time>2020-04-04T17:45:00Z</time>
      </trkpt>
      <trkpt lat="42.3413630" lon="-3.8668040">
        <ele>871.9</ele>
        <time>2020-04-04T17:45:02Z</time>
      </trkpt>
      <trkpt lat="42.3413720" lon="-3.8669170">
        <ele>872.3</ele>
        <time>2020-04-04T17:45:04Z</time>
      </trkpt>
      <trkpt lat="42.3413890" lon="-3.8671400">
        <ele>873.2</ele>
        <time>2020-04-04T17:45:06Z</time>
      </trkpt>
      <trkpt lat="42.3413980" lon="-3.8672450">
        <ele>873.7</ele>
        <time>2020-04-04T17:45:08Z</time>
      </trkpt>
      <trkpt lat="42.3414060" lon="-3.8673470">
        <ele>874.2</ele>
        <time>2020-04-04T17:45:10Z</time>
      </trkpt>
      <trkpt lat="42.3414260" lon="-3.8675570">
        <ele>875.2</ele>
        <time>2020-04-04T17:45:12Z</time>
      </trkpt>
      <trkpt lat="42.3414400" lon="-3.8676670">
        <ele>875.7</ele>
        <time>2020-04-04T17:45:14Z</time>
      </trkpt>
      <trkpt lat="42.3414540" lon="-3.8677830">
        <ele>876.2</ele>
        <time>2020-04-04T17:45:16Z</time>
      </trkpt>
      <trkpt lat="42.3414870" lon="-3.8680400">
        <ele>877.2</ele>
        <time>2020-04-04T17:45:18Z</time>
      </trkpt>
      <trkpt lat="42.3415040" lon="-3.8681620">
        <ele>877.7</ele>
        <time>2020-04-04T17:45:20Z</time>
      </trkpt>
      <trkpt lat="42.3415340" lon="-3.8683470">
        <ele>878.4</ele>
        <time>2020-04-04T17:45:22Z</time>
      </trkpt>
      <trkpt lat="42.3415580" lon="-3.8684690">
        <ele>878.8</ele>
        <time>2020-04-04T17:45:24Z</time>
      </trkpt>
      <trkpt lat="42.3415830" lon="-3.8685930">
        <ele>879.1</ele>
        <time>2020-04-04T17:45:26Z</time>
      </trkpt>
      <trkpt lat="42.3416300" lon="-3.8688680">
        <ele>879.8</ele>
        <time>2020-04-04T17:45:28Z</time>
      </trkpt>
      <trkpt lat="42.3416420" lon="-3.8689960">
        <ele>880.0</ele>
        <time>2020-04-04T17:45:30Z</time>
      </trkpt>
      <trkpt lat="42.3416600" lon="-3.8692020">
        <ele>880.4</ele>
        <time>2020-04-04T17:45:32Z</time>
      </trkpt>
      <trkpt lat="42.3416700" lon="-3.8693400">
        <ele>880.6</ele>
        <time>2020-04-04T17:45:34Z</time>
      </trkpt>
      <trkpt lat="42.3416800" lon="-3.8694870">
        <ele>880.9</ele>
        <time>2020-04-04T17:45:36Z</time>
      </trkpt>
      <trkpt lat="42.3417050" lon="-3.8697900">
        <ele>881.3</ele>
        <time>2020-04-04T17:45:38Z</time>
      </trkpt>
      <trkpt lat="42.3417230" lon="-3.8699470">
        <ele>881.5</ele>
        <time>2020-04-04T17:45:40Z</time>
      </trkpt>
      <trkpt lat="42.3417420" lon="-3.8701080">
        <ele>881.7</ele>
        <time>2020-04-04T17:45:42Z</time>
      </trkpt>
      <trkpt lat="42.3417610" lon="-3.8702710">
        <ele>882.0</ele>
        <time>2020-04-04T17:45:44Z</time>
      </trkpt>
      <trkpt lat="42.3418070" lon="-3.8706750">
        <ele>882.7</ele>
        <time>2020-04-04T17:45:46Z</time>
      </trkpt>
      <trkpt lat="42.3418260" lon="-3.8708390">
        <ele>882.9</ele>
        <time>2020-04-04T17:45:48Z</time>
      </trkpt>
      <trkpt lat="42.3418450" lon="-3.8709980">
        <ele>883.2</ele>
        <time>2020-04-04T17:45:50Z</time>
      </trkpt>
      <trkpt lat="42.3418820" lon="-3.8713340">
        <ele>883.6</ele>
        <time>2020-04-04T17:45:52Z</time>
      </trkpt>
      <trkpt lat="42.3418950" lon="-3.8715550">
        <ele>883.9</ele>
        <time>2020-04-04T17:45:54Z</time>
      </trkpt>
      <trkpt lat="42.3419070" lon="-3.8717630">
        <ele>884.3</ele>
        <time>2020-04-04T17:45:56Z</time>
      </trkpt>
      <trkpt lat="42.3419010" lon="-3.8719190">
        <ele>884.5</ele>
        <time>2020-04-04T17:45:58Z</time>
      </trkpt>
      <trkpt lat="42.3418960" lon="-3.8720740">
        <ele>884.9</ele>
        <time>2020-04-04T17:46:00Z</time>
      </trkpt>
      <trkpt lat="42.3418870" lon="-3.8723500">
        <ele>885.6</ele>
        <time>2020-04-04T17:46:02Z</time>
      </trkpt>
      <trkpt lat="42.3418830" lon="-3.8724890">
        <ele>886.0</ele>
        <time>2020-04-04T17:46:04Z</time>
      </trkpt>
      <trkpt lat="42.3418790" lon="-3.8727550">
        <ele>887.2</ele>
        <time>2020-04-04T17:46:06Z</time>
      </trkpt>
      <trkpt lat="42.3419010" lon="-3.8729070">
        <ele>888.0</ele>
        <time>2020-04-04T17:46:08Z</time>
      </trkpt>
      <trkpt lat="42.3419230" lon="-3.8730260">
        <ele>888.7</ele>
        <time>2020-04-04T17:46:10Z</time>
      </trkpt>
      <trkpt lat="42.3419450" lon="-3.8731410">
        <ele>889.4</ele>
        <time>2020-04-04T17:46:12Z</time>
      </trkpt>
      <trkpt lat="42.3419860" lon="-3.8733780">
        <ele>890.9</ele>
        <time>2020-04-04T17:46:14Z</time>
      </trkpt>
      <trkpt lat="42.3420040" lon="-3.8735410">
        <ele>891.9</ele>
        <time>2020-04-04T17:46:16Z</time>
      </trkpt>
      <trkpt lat="42.3420090" lon="-3.8736550">
        <ele>892.5</ele>
        <time>2020-04-04T17:46:18Z</time>
      </trkpt>
      <trkpt lat="42.3420130" lon="-3.8737670">
        <ele>893.0</ele>
        <time>2020-04-04T17:46:20Z</time>
      </trkpt>
      <trkpt lat="42.3420180" lon="-3.8738770">
        <ele>893.5</ele>
        <time>2020-04-04T17:46:22Z</time>
      </trkpt>
      <trkpt lat="42.3420220" lon="-3.8739870">
        <ele>894.0</ele>
        <time>2020-04-04T17:46:24Z</time>
      </trkpt>
      <trkpt lat="42.3420270" lon="-3.8740970">
        <ele>894.4</ele>
        <time>2020-04-04T17:46:26Z</time>
      </trkpt>
      <trkpt lat="42.3420240" lon="-3.8744120">
        <ele>896.0</ele>
        <time>2020-04-04T17:46:28Z</time>
      </trkpt>
      <trkpt lat="42.3420010" lon="-3.8745780">
        <ele>896.9</ele>
        <time>2020-04-04T17:46:30Z</time>
      </trkpt>
      <trkpt lat="42.3419780" lon="-3.8746820">
        <ele>897.5</ele>
        <time>2020-04-04T17:46:32Z</time>
      </trkpt>
      <trkpt lat="42.3419220" lon="-3.8748230">
        <ele>898.1</ele>
        <time>2020-04-04T17:46:34Z</time>
      </trkpt>
      <trkpt lat="42.3418650" lon="-3.8749660">
        <ele>898.7</ele>
        <time>2020-04-04T17:46:36Z</time>
      </trkpt>
      <trkpt lat="42.3418330" lon="-3.8750960">
        <ele>899.2</ele>
        <time>2020-04-04T17:46:38Z</time>
      </trkpt>
      <trkpt lat="42.3418170" lon="-3.8752360">
        <ele>899.8</ele>
        <time>2020-04-04T17:46:40Z</time>
      </trkpt>
      <trkpt lat="42.3418060" lon="-3.8754340">
        <ele>900.3</ele>
        <time>2020-04-04T17:46:42Z</time>
      </trkpt>
      <trkpt lat="42.3418150" lon="-3.8755600">
        <ele>900.7</ele>
        <time>2020-04-04T17:46:44Z</time>
      </trkpt>
      <trkpt lat="42.3418240" lon="-3.8756900">
        <ele>901.0</ele>
        <time>2020-04-04T17:46:46Z</time>
      </trkpt>
      <trkpt lat="42.3418440" lon="-3.8759590">
        <ele>901.8</ele>
        <time>2020-04-04T17:46:48Z</time>
      </trkpt>
      <trkpt lat="42.3418630" lon="-3.8760970">
        <ele>902.2</ele>
        <time>2020-04-04T17:46:50Z</time>
      </trkpt>
      <trkpt lat="42.3418810" lon="-3.8762300">
        <ele>902.6</ele>
        <time>2020-04-04T17:46:52Z</time>
      </trkpt>
      <trkpt lat="42.3419070" lon="-3.8764690">
        <ele>903.3</ele>
        <time>2020-04-04T17:46:54Z</time>
      </trkpt>
      <trkpt lat="42.3419210" lon="-3.8766720">
        <ele>904.0</ele>
        <time>2020-04-04T17:46:56Z</time>
      </trkpt>
      <trkpt lat="42.3419320" lon="-3.8768610">
        <ele>904.6</ele>
        <time>2020-04-04T17:46:58Z</time>
      </trkpt>
      <trkpt lat="42.3419260" lon="-3.8769920">
        <ele>905.0</ele>
        <time>2020-04-04T17:47:00Z</time>
      </trkpt>
      <trkpt lat="42.3419140" lon="-3.8772090">
        <ele>905.8</ele>
        <time>2020-04-04T17:47:02Z</time>
      </trkpt>
      <trkpt lat="42.3418980" lon="-3.8773380">
        <ele>906.3</ele>
        <time>2020-04-04T17:47:04Z</time>
      </trkpt>
      <trkpt lat="42.3418820" lon="-3.8774660">
        <ele>906.8</ele>
        <time>2020-04-04T17:47:06Z</time>
      </trkpt>
      <trkpt lat="42.3418660" lon="-3.8775930">
        <ele>907.2</ele>
        <time>2020-04-04T17:47:08Z</time>
      </trkpt>
      <trkpt lat="42.3418290" lon="-3.8778700">
        <ele>907.9</ele>
        <time>2020-04-04T17:47:10Z</time>
      </trkpt>
      <trkpt lat="42.3418090" lon="-3.8779960">
        <ele>908.3</ele>
        <time>2020-04-04T17:47:12Z</time>
      </trkpt>
      <trkpt lat="42.3417700" lon="-3.8782250">
        <ele>908.9</ele>
        <time>2020-04-04T17:47:14Z</time>
      </trkpt>
      <trkpt lat="42.3417460" lon="-3.8783500">
        <ele>909.2</ele>
        <time>2020-04-04T17:47:16Z</time>
      </trkpt>
      <trkpt lat="42.3417220" lon="-3.8784740">
        <ele>909.7</ele>
        <time>2020-04-04T17:47:18Z</time>
      </trkpt>
      <trkpt lat="42.3416970" lon="-3.8785980">
        <ele>910.1</ele>
        <time>2020-04-04T17:47:20Z</time>
      </trkpt>
      <trkpt lat="42.3416400" lon="-3.8788930">
        <ele>911.4</ele>
        <time>2020-04-04T17:47:22Z</time>
      </trkpt>
      <trkpt lat="42.3416300" lon="-3.8790890">
        <ele>912.3</ele>
        <time>2020-04-04T17:47:24Z</time>
      </trkpt>
      <trkpt lat="42.3416460" lon="-3.8792140">
        <ele>912.9</ele>
        <time>2020-04-04T17:47:26Z</time>
      </trkpt>
      <trkpt lat="42.3416680" lon="-3.8794260">
        <ele>914.0</ele>
        <time>2020-04-04T17:47:28Z</time>
      </trkpt>
      <trkpt lat="42.3416710" lon="-3.8795510">
        <ele>914.6</ele>
        <time>2020-04-04T17:47:30Z</time>
      </trkpt>
      <trkpt lat="42.3416850" lon="-3.8797460">
        <ele>915.5</ele>
        <time>2020-04-04T17:47:32Z</time>
      </trkpt>
      <trkpt lat="42.3417080" lon="-3.8798670">
        <ele>916.0</ele>
        <time>2020-04-04T17:47:34Z</time>
      </trkpt>
      <trkpt lat="42.3417300" lon="-3.8799880">
        <ele>916.5</ele>
        <time>2020-04-04T17:47:36Z</time>
      </trkpt>
      <trkpt lat="42.3417740" lon="-3.8802510">
        <ele>917.3</ele>
        <time>2020-04-04T17:47:38Z</time>
      </trkpt>
      <trkpt lat="42.3417870" lon="-3.8803770">
        <ele>917.7</ele>
        <time>2020-04-04T17:47:40Z</time>
      </trkpt>
      <trkpt lat="42.3418000" lon="-3.8805080">
        <ele>918.0</ele>
        <time>2020-04-04T17:47:42Z</time>
      </trkpt>
      <trkpt lat="42.3418130" lon="-3.8806410">
        <ele>918.4</ele>
        <time>2020-04-04T17:47:44Z</time>
      </trkpt>
      <trkpt lat="42.3418320" lon="-3.8809380">
        <ele>919.1</ele>
        <time>2020-04-04T17:47:46Z</time>
      </trkpt>
      <trkpt lat="42.3418330" lon="-3.8810770">
        <ele>919.4</ele>
        <time>2020-04-04T17:47:48Z</time>
      </trkpt>
      <trkpt lat="42.3418380" lon="-3.8813310">
        <ele>919.9</ele>
        <time>2020-04-04T17:47:50Z</time>
      </trkpt>
      <trkpt lat="42.3418610" lon="-3.8815120">
        <ele>920.3</ele>
        <time>2020-04-04T17:47:52Z</time>
      </trkpt>
      <trkpt lat="42.3418870" lon="-3.8816590">
        <ele>920.5</ele>
        <time>2020-04-04T17:47:54Z</time>
      </trkpt>
      <trkpt lat="42.3419350" lon="-3.8819410">
        <ele>921.1</ele>
        <time>2020-04-04T17:47:56Z</time>
      </trkpt>
      <trkpt lat="42.3419510" lon="-3.8821400">
        <ele>921.5</ele>
        <time>2020-04-04T17:47:58Z</time>
      </trkpt>
      <trkpt lat="42.3419630" lon="-3.8823040">
        <ele>921.7</ele>
        <time>2020-04-04T17:48:00Z</time>
      </trkpt>
      <trkpt lat="42.3419800" lon="-3.8825740">
        <ele>922.0</ele>
        <time>2020-04-04T17:48:02Z</time>
      </trkpt>
      <trkpt lat="42.3419810" lon="-3.8828000">
        <ele>922.3</ele>
        <time>2020-04-04T17:48:04Z</time>
      </trkpt>
      <trkpt lat="42.3419790" lon="-3.8829740">
        <ele>922.6</ele>
        <time>2020-04-04T17:48:06Z</time>
      </trkpt>
      <trkpt lat="42.3419790" lon="-3.8833020">
        <ele>922.6</ele>
        <time>2020-04-04T17:48:08Z</time>
      </trkpt>
      <trkpt lat="42.3419910" lon="-3.8834790">
        <ele>922.3</ele>
        <time>2020-04-04T17:48:10Z</time>
      </trkpt>
      <trkpt lat="42.3420030" lon="-3.8836570">
        <ele>921.6</ele>
        <time>2020-04-04T17:48:12Z</time>
      </trkpt>
      <trkpt lat="42.3420330" lon="-3.8840080">
        <ele>919.8</ele>
        <time>2020-04-04T17:48:14Z</time>
      </trkpt>
      <trkpt lat="42.3420710" lon="-3.8842490">
        <ele>919.9</ele>
        <time>2020-04-04T17:48:16Z</time>
      </trkpt>
      <trkpt lat="42.3421050" lon="-3.8844250">
        <ele>920.2</ele>
        <time>2020-04-04T17:48:18Z</time>
      </trkpt>
      <trkpt lat="42.3421640" lon="-3.8847380">
        <ele>920.9</ele>
        <time>2020-04-04T17:48:20Z</time>
      </trkpt>
      <trkpt lat="42.3421960" lon="-3.8849350">
        <ele>920.9</ele>
        <time>2020-04-04T17:48:22Z</time>
      </trkpt>
      <trkpt lat="42.3422250" lon="-3.8851140">
        <ele>920.9</ele>
        <time>2020-04-04T17:48:24Z</time>
      </trkpt>
      <trkpt lat="42.3422530" lon="-3.8852910">
        <ele>920.9</ele>
        <time>2020-04-04T17:48:26Z</time>
      </trkpt>
      <trkpt lat="42.3423130" lon="-3.8856950">
        <ele>920.8</ele>
        <time>2020-04-04T17:48:28Z</time>
      </trkpt>
      <trkpt lat="42.3423310" lon="-3.8858800">
        <ele>920.8</ele>
        <time>2020-04-04T17:48:30Z</time>
      </trkpt>
      <trkpt lat="42.3423520" lon="-3.8861680">
        <ele>920.7</ele>
        <time>2020-04-04T17:48:32Z</time>
      </trkpt>
      <trkpt lat="42.3423630" lon="-3.8863610">
        <ele>920.4</ele>
        <time>2020-04-04T17:48:34Z</time>
      </trkpt>
      <trkpt lat="42.3423780" lon="-3.8867110">
        <ele>919.8</ele>
        <time>2020-04-04T17:48:36Z</time>
      </trkpt>
      <trkpt lat="42.3423810" lon="-3.8869080">
        <ele>919.5</ele>
        <time>2020-04-04T17:48:38Z</time>
      </trkpt>
      <trkpt lat="42.3423890" lon="-3.8872580">
        <ele>919.0</ele>
        <time>2020-04-04T17:48:40Z</time>
      </trkpt>
      <trkpt lat="42.3423990" lon="-3.8874560">
        <ele>918.9</ele>
        <time>2020-04-04T17:48:42Z</time>
      </trkpt>
      <trkpt lat="42.3424090" lon="-3.8876560">
        <ele>918.8</ele>
        <time>2020-04-04T17:48:44Z</time>
      </trkpt>
      <trkpt lat="42.3424190" lon="-3.8878570">
        <ele>918.8</ele>
        <time>2020-04-04T17:48:46Z</time>
      </trkpt>
      <trkpt lat="42.3424290" lon="-3.8880570">
        <ele>918.6</ele>
        <time>2020-04-04T17:48:48Z</time>
      </trkpt>
      <trkpt lat="42.3424380" lon="-3.8886080">
        <ele>917.3</ele>
        <time>2020-04-04T17:48:50Z</time>
      </trkpt>
      <trkpt lat="42.3424240" lon="-3.8888610">
        <ele>916.5</ele>
        <time>2020-04-04T17:48:52Z</time>
      </trkpt>
      <trkpt lat="42.3424160" lon="-3.8891590">
        <ele>916.0</ele>
        <time>2020-04-04T17:48:54Z</time>
      </trkpt>
      <trkpt lat="42.3423930" lon="-3.8893500">
        <ele>915.9</ele>
        <time>2020-04-04T17:48:56Z</time>
      </trkpt>
      <trkpt lat="42.3423560" lon="-3.8896020">
        <ele>916.1</ele>
        <time>2020-04-04T17:48:58Z</time>
      </trkpt>
      <trkpt lat="42.3423310" lon="-3.8897760">
        <ele>916.4</ele>
        <time>2020-04-04T17:49:00Z</time>
      </trkpt>
      <trkpt lat="42.3423050" lon="-3.8899450">
        <ele>916.7</ele>
        <time>2020-04-04T17:49:02Z</time>
      </trkpt>
      <trkpt lat="42.3422450" lon="-3.8903370">
        <ele>916.8</ele>
        <time>2020-04-04T17:49:04Z</time>
      </trkpt>
      <trkpt lat="42.3422150" lon="-3.8905010">
        <ele>916.9</ele>
        <time>2020-04-04T17:49:06Z</time>
      </trkpt>
      <trkpt lat="42.3421850" lon="-3.8906630">
        <ele>917.0</ele>
        <time>2020-04-04T17:49:08Z</time>
      </trkpt>
      <trkpt lat="42.3421560" lon="-3.8908260">
        <ele>917.2</ele>
        <time>2020-04-04T17:49:10Z</time>
      </trkpt>
      <trkpt lat="42.3420790" lon="-3.8911830">
        <ele>917.7</ele>
        <time>2020-04-04T17:49:12Z</time>
      </trkpt>
      <trkpt lat="42.3420350" lon="-3.8913350">
        <ele>917.9</ele>
        <time>2020-04-04T17:49:14Z</time>
      </trkpt>
      <trkpt lat="42.3419920" lon="-3.8914890">
        <ele>918.1</ele>
        <time>2020-04-04T17:49:16Z</time>
      </trkpt>
      <trkpt lat="42.3419490" lon="-3.8916400">
        <ele>918.2</ele>
        <time>2020-04-04T17:49:18Z</time>
      </trkpt>
      <trkpt lat="42.3419050" lon="-3.8917920">
        <ele>918.5</ele>
        <time>2020-04-04T17:49:20Z</time>
      </trkpt>
      <trkpt lat="42.3417830" lon="-3.8922300">
        <ele>919.1</ele>
        <time>2020-04-04T17:49:22Z</time>
      </trkpt>
      <trkpt lat="42.3417470" lon="-3.8923850">
        <ele>919.4</ele>
        <time>2020-04-04T17:49:24Z</time>
      </trkpt>
      <trkpt lat="42.3417110" lon="-3.8925410">
        <ele>919.7</ele>
        <time>2020-04-04T17:49:26Z</time>
      </trkpt>
      <trkpt lat="42.3416750" lon="-3.8926980">
        <ele>920.1</ele>
        <time>2020-04-04T17:49:28Z</time>
      </trkpt>
      <trkpt lat="42.3416380" lon="-3.8928540">
        <ele>920.3</ele>
        <time>2020-04-04T17:49:30Z</time>
      </trkpt>
      <trkpt lat="42.3415340" lon="-3.8932940">
        <ele>921.0</ele>
        <time>2020-04-04T17:49:32Z</time>
      </trkpt>
      <trkpt lat="42.3414860" lon="-3.8934460">
        <ele>921.3</ele>
        <time>2020-04-04T17:49:34Z</time>
      </trkpt>
      <trkpt lat="42.3414370" lon="-3.8935980">
        <ele>921.6</ele>
        <time>2020-04-04T17:49:36Z</time>
      </trkpt>
      <trkpt lat="42.3413890" lon="-3.8937490">
        <ele>921.8</ele>
        <time>2020-04-04T17:49:38Z</time>
      </trkpt>
      <trkpt lat="42.3412700" lon="-3.8941230">
        <ele>921.9</ele>
        <time>2020-04-04T17:49:40Z</time>
      </trkpt>
      <trkpt lat="42.3412310" lon="-3.8942970">
        <ele>921.9</ele>
        <time>2020-04-04T17:49:42Z</time>
      </trkpt>
      <trkpt lat="42.3411900" lon="-3.8944860">
        <ele>921.8</ele>
        <time>2020-04-04T17:49:44Z</time>
      </trkpt>
      <trkpt lat="42.3411070" lon="-3.8948660">
        <ele>920.6</ele>
        <time>2020-04-04T17:49:46Z</time>
      </trkpt>
      <trkpt lat="42.3410590" lon="-3.8950840">
        <ele>919.2</ele>
        <time>2020-04-04T17:49:48Z</time>
      </trkpt>
      <trkpt lat="42.3410100" lon="-3.8953080">
        <ele>917.3</ele>
        <time>2020-04-04T17:49:50Z</time>
      </trkpt>
      <trkpt lat="42.3409170" lon="-3.8957640">
        <ele>912.7</ele>
        <time>2020-04-04T17:49:52Z</time>
      </trkpt>
      <trkpt lat="42.3408780" lon="-3.8960280">
        <ele>909.0</ele>
        <time>2020-04-04T17:49:54Z</time>
      </trkpt>
      <trkpt lat="42.3408780" lon="-3.8964650">
        <ele>903.7</ele>
        <time>2020-04-04T17:49:56Z</time>
      </trkpt>
      <trkpt lat="42.3409250" lon="-3.8969540">
        <ele>900.1</ele>
        <time>2020-04-04T17:49:58Z</time>
      </trkpt>
      <trkpt lat="42.3409640" lon="-3.8973740">
        <ele>895.2</ele>
        <time>2020-04-04T17:50:00Z</time>
      </trkpt>
      <trkpt lat="42.3409470" lon="-3.8978560">
        <ele>890.6</ele>
        <time>2020-04-04T17:50:02Z</time>
      </trkpt>
      <trkpt lat="42.3408440" lon="-3.8982340">
        <ele>886.4</ele>
        <time>2020-04-04T17:50:04Z</time>
      </trkpt>
      <trkpt lat="42.3407130" lon="-3.8986770">
        <ele>880.5</ele>
        <time>2020-04-04T17:50:06Z</time>
      </trkpt>
      <trkpt lat="42.3406600" lon="-3.8991580">
        <ele>875.3</ele>
        <time>2020-04-04T17:50:08Z</time>
      </trkpt>
      <trkpt lat="42.3406630" lon="-3.8995880">
        <ele>870.8</ele>
        <time>2020-04-04T17:50:10Z</time>
      </trkpt>
      <trkpt lat="42.3406850" lon="-3.9000140">
        <ele>867.2</ele>
        <time>2020-04-04T17:50:12Z</time>
      </trkpt>
      <trkpt lat="42.3406870" lon="-3.9003200">
        <ele>864.9</ele>
        <time>2020-04-04T17:50:14Z</time>
      </trkpt>
      <trkpt lat="42.3406850" lon="-3.9008020">
        <ele>861.7</ele>
        <time>2020-04-04T17:50:16Z</time>
      </trkpt>
      <trkpt lat="42.3406770" lon="-3.9010760">
        <ele>860.2</ele>
        <time>2020-04-04T17:50:18Z</time>
      </trkpt>
      <trkpt lat="42.3406690" lon="-3.9013430">
        <ele>858.7</ele>
        <time>2020-04-04T17:50:20Z</time>
      </trkpt>
      <trkpt lat="42.3406710" lon="-3.9018380">
        <ele>856.6</ele>
        <time>2020-04-04T17:50:22Z</time>
      </trkpt>
      <trkpt lat="42.3406800" lon="-3.9020950">
        <ele>855.4</ele>
        <time>2020-04-04T17:50:24Z</time>
      </trkpt>
      <trkpt lat="42.3406970" lon="-3.9025480">
        <ele>853.7</ele>
        <time>2020-04-04T17:50:26Z</time>
      </trkpt>
      <trkpt lat="42.3407070" lon="-3.9028030">
        <ele>852.3</ele>
        <time>2020-04-04T17:50:28Z</time>
      </trkpt>
      <trkpt lat="42.3407170" lon="-3.9032530">
        <ele>850.0</ele>
        <time>2020-04-04T17:50:30Z</time>
      </trkpt>
      <trkpt lat="42.3407140" lon="-3.9035090">
        <ele>848.4</ele>
        <time>2020-04-04T17:50:32Z</time>
      </trkpt>
      <trkpt lat="42.3407010" lon="-3.9039670">
        <ele>844.8</ele>
        <time>2020-04-04T17:50:34Z</time>
      </trkpt>
      <trkpt lat="42.3406730" lon="-3.9042850">
        <ele>843.1</ele>
        <time>2020-04-04T17:50:36Z</time>
      </trkpt>
      <trkpt lat="42.3406290" lon="-3.9046000">
        <ele>842.4</ele>
        <time>2020-04-04T17:50:38Z</time>
      </trkpt>
      <trkpt lat="42.3405810" lon="-3.9049800">
        <ele>841.4</ele>
        <time>2020-04-04T17:50:40Z</time>
      </trkpt>
      <trkpt lat="42.3405570" lon="-3.9053100">
        <ele>840.1</ele>
        <time>2020-04-04T17:50:42Z</time>
      </trkpt>
      <trkpt lat="42.3405480" lon="-3.9056350">
        <ele>839.0</ele>
        <time>2020-04-04T17:50:44Z</time>
      </trkpt>
      <trkpt lat="42.3405630" lon="-3.9059120">
        <ele>838.4</ele>
        <time>2020-04-04T17:50:46Z</time>
      </trkpt>
      <trkpt lat="42.3405980" lon="-3.9061900">
        <ele>837.8</ele>
        <time>2020-04-04T17:50:48Z</time>
      </trkpt>
      <trkpt lat="42.3406290" lon="-3.9063800">
        <ele>837.2</ele>
        <time>2020-04-04T17:50:50Z</time>
      </trkpt>
      <trkpt lat="42.3406580" lon="-3.9065590">
        <ele>836.5</ele>
        <time>2020-04-04T17:50:52Z</time>
      </trkpt>
      <trkpt lat="42.3407090" lon="-3.9069100">
        <ele>835.9</ele>
        <time>2020-04-04T17:50:54Z</time>
      </trkpt>
      <trkpt lat="42.3407300" lon="-3.9071650">
        <ele>835.6</ele>
        <time>2020-04-04T17:50:56Z</time>
      </trkpt>
      <trkpt lat="42.3407270" lon="-3.9073890">
        <ele>835.2</ele>
        <time>2020-04-04T17:50:58Z</time>
      </trkpt>
      <trkpt lat="42.3407180" lon="-3.9075620">
        <ele>835.0</ele>
        <time>2020-04-04T17:51:00Z</time>
      </trkpt>
      <trkpt lat="42.3407080" lon="-3.9077380">
        <ele>834.7</ele>
        <time>2020-04-04T17:51:02Z</time>
      </trkpt>
      <trkpt lat="42.3406890" lon="-3.9081070">
        <ele>834.1</ele>
        <time>2020-04-04T17:51:04Z</time>
      </trkpt>
      <trkpt lat="42.3406850" lon="-3.9082880">
        <ele>833.9</ele>
        <time>2020-04-04T17:51:06Z</time>
      </trkpt>
      <trkpt lat="42.3406940" lon="-3.9085710">
        <ele>833.7</ele>
        <time>2020-04-04T17:51:08Z</time>
      </trkpt>
      <trkpt lat="42.3407050" lon="-3.9088270">
        <ele>833.6</ele>
        <time>2020-04-04T17:51:10Z</time>
      </trkpt>
      <trkpt lat="42.3407070" lon="-3.9091160">
        <ele>833.6</ele>
        <time>2020-04-04T17:51:12Z</time>
      </trkpt>
      <trkpt lat="42.3407200" lon="-3.9093500">
        <ele>833.2</ele>
        <time>2020-04-04T17:51:14Z</time>
      </trkpt>
      <trkpt lat="42.3406950" lon="-3.9096230">
        <ele>832.3</ele>
        <time>2020-04-04T17:51:16Z</time>
      </trkpt>
      <trkpt lat="42.3406920" lon="-3.9098180">
        <ele>831.9</ele>
        <time>2020-04-04T17:51:18Z</time>
      </trkpt>
      <trkpt lat="42.3406880" lon="-3.9100110">
        <ele>831.7</ele>
        <time>2020-04-04T17:51:20Z</time>
      </trkpt>
      <trkpt lat="42.3406800" lon="-3.9104180">
        <ele>831.6</ele>
        <time>2020-04-04T17:51:22Z</time>
      </trkpt>
      <trkpt lat="42.3406760" lon="-3.9106130">
        <ele>831.4</ele>
        <time>2020-04-04T17:51:24Z</time>
      </trkpt>
      <trkpt lat="42.3406720" lon="-3.9108080">
        <ele>831.0</ele>
        <time>2020-04-04T17:51:26Z</time>
      </trkpt>
      <trkpt lat="42.3406650" lon="-3.9112070">
        <ele>830.6</ele>
        <time>2020-04-04T17:51:28Z</time>
      </trkpt>
      <trkpt lat="42.3406590" lon="-3.9114090">
        <ele>830.4</ele>
        <time>2020-04-04T17:51:30Z</time>
      </trkpt>
      <trkpt lat="42.3406530" lon="-3.9116040">
        <ele>830.0</ele>
        <time>2020-04-04T17:51:32Z</time>
      </trkpt>
      <trkpt lat="42.3406480" lon="-3.9117980">
        <ele>829.8</ele>
        <time>2020-04-04T17:51:34Z</time>
      </trkpt>
      <trkpt lat="42.3406350" lon="-3.9122600">
        <ele>829.3</ele>
        <time>2020-04-04T17:51:36Z</time>
      </trkpt>
      <trkpt lat="42.3406270" lon="-3.9124810">
        <ele>828.9</ele>
        <time>2020-04-04T17:51:38Z</time>
      </trkpt>
      <trkpt lat="42.3406180" lon="-3.9126660">
        <ele>828.8</ele>
        <time>2020-04-04T17:51:40Z</time>
      </trkpt>
      <trkpt lat="42.3406100" lon="-3.9128440">
        <ele>828.8</ele>
        <time>2020-04-04T17:51:42Z</time>
      </trkpt>
      <trkpt lat="42.3405900" lon="-3.9132560">
        <ele>828.8</ele>
        <time>2020-04-04T17:51:44Z</time>
      </trkpt>
      <trkpt lat="42.3405800" lon="-3.9134330">
        <ele>828.8</ele>
        <time>2020-04-04T17:51:46Z</time>
      </trkpt>
      <trkpt lat="42.3405690" lon="-3.9136060">
        <ele>828.8</ele>
        <time>2020-04-04T17:51:48Z</time>
      </trkpt>
      <trkpt lat="42.3405490" lon="-3.9139380">
        <ele>828.4</ele>
        <time>2020-04-04T17:51:50Z</time>
      </trkpt>
      <trkpt lat="42.3405310" lon="-3.9141860">
        <ele>828.0</ele>
        <time>2020-04-04T17:51:52Z</time>
      </trkpt>
      <trkpt lat="42.3405110" lon="-3.9143640">
        <ele>827.9</ele>
        <time>2020-04-04T17:51:54Z</time>
      </trkpt>
      <trkpt lat="42.3404840" lon="-3.9145960">
        <ele>827.6</ele>
        <time>2020-04-04T17:51:56Z</time>
      </trkpt>
      <trkpt lat="42.3404640" lon="-3.9147660">
        <ele>827.3</ele>
        <time>2020-04-04T17:51:58Z</time>
      </trkpt>
      <trkpt lat="42.3404440" lon="-3.9149340">
        <ele>827.2</ele>
        <time>2020-04-04T17:52:00Z</time>
      </trkpt>
      <trkpt lat="42.3404010" lon="-3.9152990">
        <ele>826.9</ele>
        <time>2020-04-04T17:52:02Z</time>
      </trkpt>
      <trkpt lat="42.3403770" lon="-3.9155210">
        <ele>826.9</ele>
        <time>2020-04-04T17:52:04Z</time>
      </trkpt>
      <trkpt lat="42.3403580" lon="-3.9156900">
        <ele>826.8</ele>
        <time>2020-04-04T17:52:06Z</time>
      </trkpt>
      <trkpt lat="42.3403390" lon="-3.9158610">
        <ele>826.8</ele>
        <time>2020-04-04T17:52:08Z</time>
      </trkpt>
      <trkpt lat="42.3402980" lon="-3.9162360">
        <ele>826.5</ele>
        <time>2020-04-04T17:52:10Z</time>
      </trkpt>
      <trkpt lat="42.3402810" lon="-3.9164150">
        <ele>826.4</ele>
        <time>2020-04-04T17:52:12Z</time>
      </trkpt>
      <trkpt lat="42.3402630" lon="-3.9166010">
        <ele>826.1</ele>
        <time>2020-04-04T17:52:14Z</time>
      </trkpt>
      <trkpt lat="42.3402440" lon="-3.9167920">
        <ele>825.8</ele>
        <time>2020-04-04T17:52:16Z</time>
      </trkpt>
      <trkpt lat="42.3401980" lon="-3.9172760">
        <ele>824.9</ele>
        <time>2020-04-04T17:52:18Z</time>
      </trkpt>
      <trkpt lat="42.3401730" lon="-3.9175400">
        <ele>824.4</ele>
        <time>2020-04-04T17:52:20Z</time>
      </trkpt>
      <trkpt lat="42.3401520" lon="-3.9177410">
        <ele>823.9</ele>
        <time>2020-04-04T17:52:22Z</time>
      </trkpt>
      <trkpt lat="42.3401300" lon="-3.9179440">
        <ele>823.3</ele>
        <time>2020-04-04T17:52:24Z</time>
      </trkpt>
      <trkpt lat="42.3401080" lon="-3.9181490">
        <ele>822.8</ele>
        <time>2020-04-04T17:52:26Z</time>
      </trkpt>
      <trkpt lat="42.3400580" lon="-3.9185770">
        <ele>820.9</ele>
        <time>2020-04-04T17:52:28Z</time>
      </trkpt>
      <trkpt lat="42.3400330" lon="-3.9187730">
        <ele>820.6</ele>
        <time>2020-04-04T17:52:30Z</time>
      </trkpt>
      <trkpt lat="42.3399750" lon="-3.9191620">
        <ele>819.7</ele>
        <time>2020-04-04T17:52:32Z</time>
      </trkpt>
      <trkpt lat="42.3398950" lon="-3.9193970">
        <ele>819.3</ele>
        <time>2020-04-04T17:52:34Z</time>
      </trkpt>
      <trkpt lat="42.3398490" lon="-3.9195810">
        <ele>819.0</ele>
        <time>2020-04-04T17:52:36Z</time>
      </trkpt>
      <trkpt lat="42.3397710" lon="-3.9198660">
        <ele>818.8</ele>
        <time>2020-04-04T17:52:38Z</time>
      </trkpt>
      <trkpt lat="42.3397180" lon="-3.9200420">
        <ele>818.7</ele>
        <time>2020-04-04T17:52:40Z</time>
      </trkpt>
      <trkpt lat="42.3396200" lon="-3.9203580">
        <ele>818.7</ele>
        <time>2020-04-04T17:52:42Z</time>
      </trkpt>
      <trkpt lat="42.3395310" lon="-3.9205650">
        <ele>818.7</ele>
        <time>2020-04-04T17:52:44Z</time>
      </trkpt>
      <trkpt lat="42.3394500" lon="-3.9207120">
        <ele>818.7</ele>
        <time>2020-04-04T17:52:46Z</time>
      </trkpt>
      <trkpt lat="42.3393700" lon="-3.9208590">
        <ele>818.7</ele>
        <time>2020-04-04T17:52:48Z</time>
      </trkpt>
      <trkpt lat="42.3392140" lon="-3.9211540">
        <ele>818.5</ele>
        <time>2020-04-04T17:52:50Z</time>
      </trkpt>
      <trkpt lat="42.3391440" lon="-3.9213050">
        <ele>818.2</ele>
        <time>2020-04-04T17:52:52Z</time>
      </trkpt>
      <trkpt lat="42.3390750" lon="-3.9214520">
        <ele>818.0</ele>
        <time>2020-04-04T17:52:54Z</time>
      </trkpt>
      <trkpt lat="42.3390070" lon="-3.9215960">
        <ele>817.9</ele>
        <time>2020-04-04T17:52:56Z</time>
      </trkpt>
      <trkpt lat="42.3388470" lon="-3.9219670">
        <ele>818.1</ele>
        <time>2020-04-04T17:52:58Z</time>
      </trkpt>
      <trkpt lat="42.3388100" lon="-3.9221800">
        <ele>818.5</ele>
        <time>2020-04-04T17:53:00Z</time>
      </trkpt>
      <trkpt lat="42.3387820" lon="-3.9223410">
        <ele>818.7</ele>
        <time>2020-04-04T17:53:02Z</time>
      </trkpt>
      <trkpt lat="42.3387390" lon="-3.9226070">
        <ele>819.2</ele>
        <time>2020-04-04T17:53:04Z</time>
      </trkpt>
      <trkpt lat="42.3387090" lon="-3.9228130">
        <ele>819.6</ele>
        <time>2020-04-04T17:53:06Z</time>
      </trkpt>
      <trkpt lat="42.3386860" lon="-3.9229740">
        <ele>819.9</ele>
        <time>2020-04-04T17:53:08Z</time>
      </trkpt>
      <trkpt lat="42.3386400" lon="-3.9232980">
        <ele>819.7</ele>
        <time>2020-04-04T17:53:10Z</time>
      </trkpt>
      <trkpt lat="42.3386180" lon="-3.9234570">
        <ele>819.7</ele>
        <time>2020-04-04T17:53:12Z</time>
      </trkpt>
      <trkpt lat="42.3385960" lon="-3.9236140">
        <ele>820.1</ele>
        <time>2020-04-04T17:53:14Z</time>
      </trkpt>
      <trkpt lat="42.3385470" lon="-3.9239340">
        <ele>819.6</ele>
        <time>2020-04-04T17:53:16Z</time>
      </trkpt>
      <trkpt lat="42.3385090" lon="-3.9240900">
        <ele>820.4</ele>
        <time>2020-04-04T17:53:18Z</time>
      </trkpt>
      <trkpt lat="42.3384290" lon="-3.9243330">
        <ele>820.3</ele>
        <time>2020-04-04T17:53:20Z</time>
      </trkpt>
      <trkpt lat="42.3383460" lon="-3.9244880">
        <ele>820.3</ele>
        <time>2020-04-04T17:53:22Z</time>
      </trkpt>
      <trkpt lat="42.3382600" lon="-3.9246990">
        <ele>820.7</ele>
        <time>2020-04-04T17:53:24Z</time>
      </trkpt>
      <trkpt lat="42.3382600" lon="-3.9248960">
        <ele>821.1</ele>
        <time>2020-04-04T17:53:26Z</time>
      </trkpt>
      <trkpt lat="42.3382890" lon="-3.9251090">
        <ele>821.5</ele>
        <time>2020-04-04T17:53:28Z</time>
      </trkpt>
      <trkpt lat="42.3383190" lon="-3.9252630">
        <ele>821.8</ele>
        <time>2020-04-04T17:53:30Z</time>
      </trkpt>
      <trkpt lat="42.3383480" lon="-3.9254140">
        <ele>822.1</ele>
        <time>2020-04-04T17:53:32Z</time>
      </trkpt>
      <trkpt lat="42.3383780" lon="-3.9255650">
        <ele>822.4</ele>
        <time>2020-04-04T17:53:34Z</time>
      </trkpt>
      <trkpt lat="42.3384520" lon="-3.9259460">
        <ele>823.0</ele>
        <time>2020-04-04T17:53:36Z</time>
      </trkpt>
      <trkpt lat="42.3384820" lon="-3.9260950">
        <ele>823.4</ele>
        <time>2020-04-04T17:53:38Z</time>
      </trkpt>
      <trkpt lat="42.3385300" lon="-3.9263410">
        <ele>823.9</ele>
        <time>2020-04-04T17:53:40Z</time>
      </trkpt>
      <trkpt lat="42.3385580" lon="-3.9264900">
        <ele>824.1</ele>
        <time>2020-04-04T17:53:42Z</time>
      </trkpt>
      <trkpt lat="42.3386020" lon="-3.9267350">
        <ele>824.3</ele>
        <time>2020-04-04T17:53:44Z</time>
      </trkpt>
      <trkpt lat="42.3386120" lon="-3.9269480">
        <ele>824.6</ele>
        <time>2020-04-04T17:53:46Z</time>
      </trkpt>
      <trkpt lat="42.3385860" lon="-3.9271550">
        <ele>825.0</ele>
        <time>2020-04-04T17:53:48Z</time>
      </trkpt>
      <trkpt lat="42.3385470" lon="-3.9272980">
        <ele>825.4</ele>
        <time>2020-04-04T17:53:50Z</time>
      </trkpt>
      <trkpt lat="42.3384790" lon="-3.9275360">
        <ele>826.0</ele>
        <time>2020-04-04T17:53:52Z</time>
      </trkpt>
      <trkpt lat="42.3384370" lon="-3.9276770">
        <ele>826.4</ele>
        <time>2020-04-04T17:53:54Z</time>
      </trkpt>
      <trkpt lat="42.3383600" lon="-3.9279260">
        <ele>827.1</ele>
        <time>2020-04-04T17:53:56Z</time>
      </trkpt>
      <trkpt lat="42.3382870" lon="-3.9280830">
        <ele>827.4</ele>
        <time>2020-04-04T17:53:58Z</time>
      </trkpt>
      <trkpt lat="42.3382160" lon="-3.9282590">
        <ele>827.3</ele>
        <time>2020-04-04T17:54:00Z</time>
      </trkpt>
      <trkpt lat="42.3381500" lon="-3.9284410">
        <ele>827.6</ele>
        <time>2020-04-04T17:54:02Z</time>
      </trkpt>
      <trkpt lat="42.3380990" lon="-3.9285860">
        <ele>828.0</ele>
        <time>2020-04-04T17:54:04Z</time>
      </trkpt>
      <trkpt lat="42.3380460" lon="-3.9287340">
        <ele>828.4</ele>
        <time>2020-04-04T17:54:06Z</time>
      </trkpt>
      <trkpt lat="42.3379930" lon="-3.9288840">
        <ele>828.8</ele>
        <time>2020-04-04T17:54:08Z</time>
      </trkpt>
      <trkpt lat="42.3378520" lon="-3.9292630">
        <ele>829.3</ele>
        <time>2020-04-04T17:54:10Z</time>
      </trkpt>
      <trkpt lat="42.3377890" lon="-3.9294110">
        <ele>829.4</ele>
        <time>2020-04-04T17:54:12Z</time>
      </trkpt>
      <trkpt lat="42.3377250" lon="-3.9295610">
        <ele>829.5</ele>
        <time>2020-04-04T17:54:14Z</time>
      </trkpt>
      <trkpt lat="42.3376050" lon="-3.9298650">
        <ele>830.2</ele>
        <time>2020-04-04T17:54:16Z</time>
      </trkpt>
      <trkpt lat="42.3375340" lon="-3.9301170">
        <ele>830.6</ele>
        <time>2020-04-04T17:54:18Z</time>
      </trkpt>
      <trkpt lat="42.3376240" lon="-3.9303210">
        <ele>830.3</ele>
        <time>2020-04-04T17:54:20Z</time>
      </trkpt>
      <trkpt lat="42.3376590" lon="-3.9304940">
        <ele>830.1</ele>
        <time>2020-04-04T17:54:22Z</time>
      </trkpt>
      <trkpt lat="42.3377050" lon="-3.9307540">
        <ele>829.9</ele>
        <time>2020-04-04T17:54:24Z</time>
      </trkpt>
      <trkpt lat="42.3377310" lon="-3.9309310">
        <ele>829.7</ele>
        <time>2020-04-04T17:54:26Z</time>
      </trkpt>
      <trkpt lat="42.3377580" lon="-3.9311080">
        <ele>829.5</ele>
        <time>2020-04-04T17:54:28Z</time>
      </trkpt>
      <trkpt lat="42.3378160" lon="-3.9315000">
        <ele>829.0</ele>
        <time>2020-04-04T17:54:30Z</time>
      </trkpt>
      <trkpt lat="42.3378470" lon="-3.9317240">
        <ele>828.7</ele>
        <time>2020-04-04T17:54:32Z</time>
      </trkpt>
      <trkpt lat="42.3378690" lon="-3.9319030">
        <ele>828.5</ele>
        <time>2020-04-04T17:54:34Z</time>
      </trkpt>
      <trkpt lat="42.3378920" lon="-3.9320800">
        <ele>828.3</ele>
        <time>2020-04-04T17:54:36Z</time>
      </trkpt>
      <trkpt lat="42.3379190" lon="-3.9324580">
        <ele>829.1</ele>
        <time>2020-04-04T17:54:38Z</time>
      </trkpt>
      <trkpt lat="42.3379290" lon="-3.9326270">
        <ele>830.1</ele>
        <time>2020-04-04T17:54:40Z</time>
      </trkpt>
      <trkpt lat="42.3379390" lon="-3.9329130">
        <ele>831.5</ele>
        <time>2020-04-04T17:54:42Z</time>
      </trkpt>
      <trkpt lat="42.3379340" lon="-3.9331000">
        <ele>831.5</ele>
        <time>2020-04-04T17:54:44Z</time>
      </trkpt>
      <trkpt lat="42.3379070" lon="-3.9332970">
        <ele>831.5</ele>
        <time>2020-04-04T17:54:46Z</time>
      </trkpt>
      <trkpt lat="42.3378530" lon="-3.9335230">
        <ele>831.5</ele>
        <time>2020-04-04T17:54:48Z</time>
      </trkpt>
      <trkpt lat="42.3377990" lon="-3.9336780">
        <ele>831.5</ele>
        <time>2020-04-04T17:54:50Z</time>
      </trkpt>
      <trkpt lat="42.3377470" lon="-3.9338140">
        <ele>831.6</ele>
        <time>2020-04-04T17:54:52Z</time>
      </trkpt>
      <trkpt lat="42.3376460" lon="-3.9340740">
        <ele>831.8</ele>
        <time>2020-04-04T17:54:54Z</time>
      </trkpt>
      <trkpt lat="42.3375950" lon="-3.9342080">
        <ele>831.9</ele>
        <time>2020-04-04T17:54:56Z</time>
      </trkpt>
      <trkpt lat="42.3375450" lon="-3.9343430">
        <ele>832.1</ele>
        <time>2020-04-04T17:54:58Z</time>
      </trkpt>
      <trkpt lat="42.3374410" lon="-3.9346190">
        <ele>832.5</ele>
        <time>2020-04-04T17:55:00Z</time>
      </trkpt>
      <trkpt lat="42.3373910" lon="-3.9347790">
        <ele>832.7</ele>
        <time>2020-04-04T17:55:02Z</time>
      </trkpt>
      <trkpt lat="42.3373550" lon="-3.9349170">
        <ele>833.1</ele>
        <time>2020-04-04T17:55:04Z</time>
      </trkpt>
      <trkpt lat="42.3372990" lon="-3.9351470">
        <ele>833.8</ele>
        <time>2020-04-04T17:55:06Z</time>
      </trkpt>
      <trkpt lat="42.3372690" lon="-3.9352850">
        <ele>834.1</ele>
        <time>2020-04-04T17:55:08Z</time>
      </trkpt>
      <trkpt lat="42.3372140" lon="-3.9355380">
        <ele>835.0</ele>
        <time>2020-04-04T17:55:10Z</time>
      </trkpt>
      <trkpt lat="42.3371820" lon="-3.9356720">
        <ele>835.4</ele>
        <time>2020-04-04T17:55:12Z</time>
      </trkpt>
      <trkpt lat="42.3371350" lon="-3.9358780">
        <ele>836.0</ele>
        <time>2020-04-04T17:55:14Z</time>
      </trkpt>
      <trkpt lat="42.3371080" lon="-3.9360110">
        <ele>836.3</ele>
        <time>2020-04-04T17:55:16Z</time>
      </trkpt>
      <trkpt lat="42.3370650" lon="-3.9362480">
        <ele>837.1</ele>
        <time>2020-04-04T17:55:18Z</time>
      </trkpt>
      <trkpt lat="42.3370470" lon="-3.9363830">
        <ele>837.4</ele>
        <time>2020-04-04T17:55:20Z</time>
      </trkpt>
      <trkpt lat="42.3370220" lon="-3.9366000">
        <ele>838.0</ele>
        <time>2020-04-04T17:55:22Z</time>
      </trkpt>
      <trkpt lat="42.3370070" lon="-3.9367380">
        <ele>838.5</ele>
        <time>2020-04-04T17:55:24Z</time>
      </trkpt>
      <trkpt lat="42.3369760" lon="-3.9370130">
        <ele>839.7</ele>
        <time>2020-04-04T17:55:26Z</time>
      </trkpt>
      <trkpt lat="42.3369590" lon="-3.9371520">
        <ele>840.2</ele>
        <time>2020-04-04T17:55:28Z</time>
      </trkpt>
      <trkpt lat="42.3369020" lon="-3.9373630">
        <ele>841.1</ele>
        <time>2020-04-04T17:55:30Z</time>
      </trkpt>
      <trkpt lat="42.3368060" lon="-3.9374860">
        <ele>841.7</ele>
        <time>2020-04-04T17:55:32Z</time>
      </trkpt>
      <trkpt lat="42.3367620" lon="-3.9376160">
        <ele>842.1</ele>
        <time>2020-04-04T17:55:34Z</time>
      </trkpt>
      <trkpt lat="42.3367170" lon="-3.9377470">
        <ele>842.4</ele>
        <time>2020-04-04T17:55:36Z</time>
      </trkpt>
      <trkpt lat="42.3366230" lon="-3.9380180">
        <ele>842.6</ele>
        <time>2020-04-04T17:55:38Z</time>
      </trkpt>
      <trkpt lat="42.3365730" lon="-3.9381430">
        <ele>842.7</ele>
        <time>2020-04-04T17:55:40Z</time>
      </trkpt>
      <trkpt lat="42.3365240" lon="-3.9382660">
        <ele>842.7</ele>
        <time>2020-04-04T17:55:42Z</time>
      </trkpt>
      <trkpt lat="42.3364760" lon="-3.9383880">
        <ele>842.8</ele>
        <time>2020-04-04T17:55:44Z</time>
      </trkpt>
      <trkpt lat="42.3363700" lon="-3.9386630">
        <ele>843.2</ele>
        <time>2020-04-04T17:55:46Z</time>
      </trkpt>
      <trkpt lat="42.3363030" lon="-3.9388590">
        <ele>843.9</ele>
        <time>2020-04-04T17:55:48Z</time>
      </trkpt>
      <trkpt lat="42.3362690" lon="-3.9389950">
        <ele>844.4</ele>
        <time>2020-04-04T17:55:50Z</time>
      </trkpt>
      <trkpt lat="42.3362310" lon="-3.9391770">
        <ele>845.0</ele>
        <time>2020-04-04T17:55:52Z</time>
      </trkpt>
      <trkpt lat="42.3361890" lon="-3.9393610">
        <ele>845.4</ele>
        <time>2020-04-04T17:55:54Z</time>
      </trkpt>
      <trkpt lat="42.3361340" lon="-3.9395610">
        <ele>845.4</ele>
        <time>2020-04-04T17:55:56Z</time>
      </trkpt>
      <trkpt lat="42.3361010" lon="-3.9396990">
        <ele>845.4</ele>
        <time>2020-04-04T17:55:58Z</time>
      </trkpt>
      <trkpt lat="42.3360570" lon="-3.9399060">
        <ele>845.5</ele>
        <time>2020-04-04T17:56:00Z</time>
      </trkpt>
      <trkpt lat="42.3360130" lon="-3.9401150">
        <ele>846.1</ele>
        <time>2020-04-04T17:56:02Z</time>
      </trkpt>
      <trkpt lat="42.3359650" lon="-3.9403260">
        <ele>846.5</ele>
        <time>2020-04-04T17:56:04Z</time>
      </trkpt>
      <trkpt lat="42.3359320" lon="-3.9405240">
        <ele>846.8</ele>
        <time>2020-04-04T17:56:06Z</time>
      </trkpt>
      <trkpt lat="42.3359120" lon="-3.9406710">
        <ele>847.0</ele>
        <time>2020-04-04T17:56:08Z</time>
      </trkpt>
      <trkpt lat="42.3358770" lon="-3.9409230">
        <ele>847.5</ele>
        <time>2020-04-04T17:56:10Z</time>
      </trkpt>
      <trkpt lat="42.3358500" lon="-3.9410660">
        <ele>847.8</ele>
        <time>2020-04-04T17:56:12Z</time>
      </trkpt>
      <trkpt lat="42.3358010" lon="-3.9412950">
        <ele>848.4</ele>
        <time>2020-04-04T17:56:14Z</time>
      </trkpt>
      <trkpt lat="42.3357650" lon="-3.9414330">
        <ele>848.7</ele>
        <time>2020-04-04T17:56:16Z</time>
      </trkpt>
      <trkpt lat="42.3357040" lon="-3.9416570">
        <ele>848.9</ele>
        <time>2020-04-04T17:56:18Z</time>
      </trkpt>
      <trkpt lat="42.3356450" lon="-3.9418600">
        <ele>849.2</ele>
        <time>2020-04-04T17:56:20Z</time>
      </trkpt>
      <trkpt lat="42.3355920" lon="-3.9420500">
        <ele>849.5</ele>
        <time>2020-04-04T17:56:22Z</time>
      </trkpt>
      <trkpt lat="42.3355570" lon="-3.9421880">
        <ele>849.8</ele>
        <time>2020-04-04T17:56:24Z</time>
      </trkpt>
      <trkpt lat="42.3354960" lon="-3.9424290">
        <ele>850.3</ele>
        <time>2020-04-04T17:56:26Z</time>
      </trkpt>
      <trkpt lat="42.3354720" lon="-3.9425700">
        <ele>850.8</ele>
        <time>2020-04-04T17:56:28Z</time>
      </trkpt>
      <trkpt lat="42.3354260" lon="-3.9427890">
        <ele>851.5</ele>
        <time>2020-04-04T17:56:30Z</time>
      </trkpt>
      <trkpt lat="42.3353890" lon="-3.9429260">
        <ele>852.0</ele>
        <time>2020-04-04T17:56:32Z</time>
      </trkpt>
      <trkpt lat="42.3352970" lon="-3.9431650">
        <ele>853.4</ele>
        <time>2020-04-04T17:56:34Z</time>
      </trkpt>
      <trkpt lat="42.3352280" lon="-3.9432780">
        <ele>854.2</ele>
        <time>2020-04-04T17:56:36Z</time>
      </trkpt>
      <trkpt lat="42.3351290" lon="-3.9434410">
        <ele>855.4</ele>
        <time>2020-04-04T17:56:38Z</time>
      </trkpt>
      <trkpt lat="42.3350610" lon="-3.9435540">
        <ele>856.0</ele>
        <time>2020-04-04T17:56:40Z</time>
      </trkpt>
      <trkpt lat="42.3349930" lon="-3.9436670">
        <ele>856.4</ele>
        <time>2020-04-04T17:56:42Z</time>
      </trkpt>
      <trkpt lat="42.3349250" lon="-3.9437800">
        <ele>856.7</ele>
        <time>2020-04-04T17:56:44Z</time>
      </trkpt>
      <trkpt lat="42.3347520" lon="-3.9440660">
        <ele>857.0</ele>
        <time>2020-04-04T17:56:46Z</time>
      </trkpt>
      <trkpt lat="42.3346720" lon="-3.9442000">
        <ele>857.0</ele>
        <time>2020-04-04T17:56:48Z</time>
      </trkpt>
      <trkpt lat="42.3345610" lon="-3.9443860">
        <ele>857.0</ele>
        <time>2020-04-04T17:56:50Z</time>
      </trkpt>
      <trkpt lat="42.3344870" lon="-3.9444970">
        <ele>856.8</ele>
        <time>2020-04-04T17:56:52Z</time>
      </trkpt>
      <trkpt lat="42.3343660" lon="-3.9446840">
        <ele>856.4</ele>
        <time>2020-04-04T17:56:54Z</time>
      </trkpt>
      <trkpt lat="42.3342760" lon="-3.9448560">
        <ele>856.2</ele>
        <time>2020-04-04T17:56:56Z</time>
      </trkpt>
      <trkpt lat="42.3342110" lon="-3.9450280">
        <ele>856.1</ele>
        <time>2020-04-04T17:56:58Z</time>
      </trkpt>
      <trkpt lat="42.3341690" lon="-3.9452420">
        <ele>856.7</ele>
        <time>2020-04-04T17:57:00Z</time>
      </trkpt>
      <trkpt lat="42.3341100" lon="-3.9454200">
        <ele>857.6</ele>
        <time>2020-04-04T17:57:02Z</time>
      </trkpt>
      <trkpt lat="42.3340360" lon="-3.9456120">
        <ele>858.2</ele>
        <time>2020-04-04T17:57:04Z</time>
      </trkpt>
      <trkpt lat="42.3339780" lon="-3.9458120">
        <ele>858.7</ele>
        <time>2020-04-04T17:57:06Z</time>
      </trkpt>
      <trkpt lat="42.3339410" lon="-3.9459700">
        <ele>859.1</ele>
        <time>2020-04-04T17:57:08Z</time>
      </trkpt>
      <trkpt lat="42.3338680" lon="-3.9462290">
        <ele>860.1</ele>
        <time>2020-04-04T17:57:10Z</time>
      </trkpt>
      <trkpt lat="42.3337900" lon="-3.9464300">
        <ele>860.9</ele>
        <time>2020-04-04T17:57:12Z</time>
      </trkpt>
      <trkpt lat="42.3337160" lon="-3.9466440">
        <ele>861.3</ele>
        <time>2020-04-04T17:57:14Z</time>
      </trkpt>
      <trkpt lat="42.3336750" lon="-3.9467960">
        <ele>861.6</ele>
        <time>2020-04-04T17:57:16Z</time>
      </trkpt>
      <trkpt lat="42.3336030" lon="-3.9470390">
        <ele>862.1</ele>
        <time>2020-04-04T17:57:18Z</time>
      </trkpt>
      <trkpt lat="42.3335530" lon="-3.9471640">
        <ele>862.6</ele>
        <time>2020-04-04T17:57:20Z</time>
      </trkpt>
      <trkpt lat="42.3334720" lon="-3.9473760">
        <ele>863.9</ele>
        <time>2020-04-04T17:57:22Z</time>
      </trkpt>
      <trkpt lat="42.3334380" lon="-3.9474980">
        <ele>864.7</ele>
        <time>2020-04-04T17:57:24Z</time>
      </trkpt>
      <trkpt lat="42.3334060" lon="-3.9476150">
        <ele>865.7</ele>
        <time>2020-04-04T17:57:26Z</time>
      </trkpt>
      <trkpt lat="42.3333740" lon="-3.9477310">
        <ele>866.2</ele>
        <time>2020-04-04T17:57:28Z</time>
      </trkpt>
      <trkpt lat="42.3332910" lon="-3.9479750">
        <ele>866.8</ele>
        <time>2020-04-04T17:57:30Z</time>
      </trkpt>
      <trkpt lat="42.3332440" lon="-3.9480840">
        <ele>867.1</ele>
        <time>2020-04-04T17:57:32Z</time>
      </trkpt>
      <trkpt lat="42.3331650" lon="-3.9482750">
        <ele>867.4</ele>
        <time>2020-04-04T17:57:34Z</time>
      </trkpt>
      <trkpt lat="42.3331190" lon="-3.9483880">
        <ele>867.6</ele>
        <time>2020-04-04T17:57:36Z</time>
      </trkpt>
      <trkpt lat="42.3330330" lon="-3.9485890">
        <ele>867.9</ele>
        <time>2020-04-04T17:57:38Z</time>
      </trkpt>
      <trkpt lat="42.3329610" lon="-3.9487390">
        <ele>868.2</ele>
        <time>2020-04-04T17:57:40Z</time>
      </trkpt>
      <trkpt lat="42.3328920" lon="-3.9488720">
        <ele>868.6</ele>
        <time>2020-04-04T17:57:42Z</time>
      </trkpt>
      <trkpt lat="42.3328340" lon="-3.9489800">
        <ele>868.9</ele>
        <time>2020-04-04T17:57:44Z</time>
      </trkpt>
      <trkpt lat="42.3327270" lon="-3.9491760">
        <ele>869.3</ele>
        <time>2020-04-04T17:57:46Z</time>
      </trkpt>
      <trkpt lat="42.3326670" lon="-3.9492860">
        <ele>869.6</ele>
        <time>2020-04-04T17:57:48Z</time>
      </trkpt>
      <trkpt lat="42.3325560" lon="-3.9494830">
        <ele>870.0</ele>
        <time>2020-04-04T17:57:50Z</time>
      </trkpt>
      <trkpt lat="42.3324920" lon="-3.9495940">
        <ele>870.2</ele>
        <time>2020-04-04T17:57:52Z</time>
      </trkpt>
      <trkpt lat="42.3324270" lon="-3.9497060">
        <ele>870.5</ele>
        <time>2020-04-04T17:57:54Z</time>
      </trkpt>
      <trkpt lat="42.3323070" lon="-3.9499250">
        <ele>870.9</ele>
        <time>2020-04-04T17:57:56Z</time>
      </trkpt>
      <trkpt lat="42.3322400" lon="-3.9501190">
        <ele>871.4</ele>
        <time>2020-04-04T17:57:58Z</time>
      </trkpt>
      <trkpt lat="42.3322350" lon="-3.9503200">
        <ele>871.9</ele>
        <time>2020-04-04T17:58:00Z</time>
      </trkpt>
      <trkpt lat="42.3322730" lon="-3.9504660">
        <ele>872.2</ele>
        <time>2020-04-04T17:58:02Z</time>
      </trkpt>
      <trkpt lat="42.3323000" lon="-3.9506820">
        <ele>872.7</ele>
        <time>2020-04-04T17:58:04Z</time>
      </trkpt>
      <trkpt lat="42.3322230" lon="-3.9508350">
        <ele>873.2</ele>
        <time>2020-04-04T17:58:06Z</time>
      </trkpt>
      <trkpt lat="42.3321270" lon="-3.9509580">
        <ele>873.8</ele>
        <time>2020-04-04T17:58:08Z</time>
      </trkpt>
      <trkpt lat="42.3320150" lon="-3.9510860">
        <ele>874.3</ele>
        <time>2020-04-04T17:58:10Z</time>
      </trkpt>
      <trkpt lat="42.3319320" lon="-3.9511790">
        <ele>874.5</ele>
        <time>2020-04-04T17:58:12Z</time>
      </trkpt>
      <trkpt lat="42.3318000" lon="-3.9513310">
        <ele>874.7</ele>
        <time>2020-04-04T17:58:14Z</time>
      </trkpt>
      <trkpt lat="42.3317240" lon="-3.9514230">
        <ele>874.8</ele>
        <time>2020-04-04T17:58:16Z</time>
      </trkpt>
      <trkpt lat="42.3316030" lon="-3.9515780">
        <ele>875.2</ele>
        <time>2020-04-04T17:58:18Z</time>
      </trkpt>
      <trkpt lat="42.3315360" lon="-3.9516690">
        <ele>875.5</ele>
        <time>2020-04-04T17:58:20Z</time>
      </trkpt>
      <trkpt lat="42.3314150" lon="-3.9518440">
        <ele>875.9</ele>
        <time>2020-04-04T17:58:22Z</time>
      </trkpt>
      <trkpt lat="42.3313570" lon="-3.9519390">
        <ele>876.2</ele>
        <time>2020-04-04T17:58:24Z</time>
      </trkpt>
      <trkpt lat="42.3313010" lon="-3.9520330">
        <ele>876.5</ele>
        <time>2020-04-04T17:58:26Z</time>
      </trkpt>
      <trkpt lat="42.3312450" lon="-3.9521260">
        <ele>876.7</ele>
        <time>2020-04-04T17:58:28Z</time>
      </trkpt>
      <trkpt lat="42.3311150" lon="-3.9523530">
        <ele>877.5</ele>
        <time>2020-04-04T17:58:30Z</time>
      </trkpt>
      <trkpt lat="42.3310610" lon="-3.9524610">
        <ele>878.0</ele>
        <time>2020-04-04T17:58:32Z</time>
      </trkpt>
      <trkpt lat="42.3310050" lon="-3.9525730">
        <ele>878.6</ele>
        <time>2020-04-04T17:58:34Z</time>
      </trkpt>
      <trkpt lat="42.3308800" lon="-3.9528100">
        <ele>879.9</ele>
        <time>2020-04-04T17:58:36Z</time>
      </trkpt>
      <trkpt lat="42.3307800" lon="-3.9529810">
        <ele>880.7</ele>
        <time>2020-04-04T17:58:38Z</time>
      </trkpt>
      <trkpt lat="42.3307070" lon="-3.9530940">
        <ele>881.1</ele>
        <time>2020-04-04T17:58:40Z</time>
      </trkpt>
      <trkpt lat="42.3306340" lon="-3.9532090">
        <ele>881.3</ele>
        <time>2020-04-04T17:58:42Z</time>
      </trkpt>
      <trkpt lat="42.3305070" lon="-3.9534130">
        <ele>881.7</ele>
        <time>2020-04-04T17:58:44Z</time>
      </trkpt>
      <trkpt lat="42.3304360" lon="-3.9535280">
        <ele>881.8</ele>
        <time>2020-04-04T17:58:46Z</time>
      </trkpt>
      <trkpt lat="42.3303650" lon="-3.9536450">
        <ele>882.0</ele>
        <time>2020-04-04T17:58:48Z</time>
      </trkpt>
      <trkpt lat="42.3302090" lon="-3.9538880">
        <ele>882.6</ele>
        <time>2020-04-04T17:58:50Z</time>
      </trkpt>
      <trkpt lat="42.3301340" lon="-3.9539970">
        <ele>882.8</ele>
        <time>2020-04-04T17:58:52Z</time>
      </trkpt>
      <trkpt lat="42.3300600" lon="-3.9541060">
        <ele>883.2</ele>
        <time>2020-04-04T17:58:54Z</time>
      </trkpt>
      <trkpt lat="42.3299170" lon="-3.9543310">
        <ele>884.4</ele>
        <time>2020-04-04T17:58:56Z</time>
      </trkpt>
      <trkpt lat="42.3298520" lon="-3.9544470">
        <ele>884.7</ele>
        <time>2020-04-04T17:58:58Z</time>
      </trkpt>
      <trkpt lat="42.3297880" lon="-3.9545620">
        <ele>884.9</ele>
        <time>2020-04-04T17:59:00Z</time>
      </trkpt>
      <trkpt lat="42.3296620" lon="-3.9547870">
        <ele>885.5</ele>
        <time>2020-04-04T17:59:02Z</time>
      </trkpt>
      <trkpt lat="42.3295630" lon="-3.9549630">
        <ele>885.9</ele>
        <time>2020-04-04T17:59:04Z</time>
      </trkpt>
      <trkpt lat="42.3295010" lon="-3.9550750">
        <ele>886.2</ele>
        <time>2020-04-04T17:59:06Z</time>
      </trkpt>
      <trkpt lat="42.3294080" lon="-3.9552480">
        <ele>886.7</ele>
        <time>2020-04-04T17:59:08Z</time>
      </trkpt>
      <trkpt lat="42.3293480" lon="-3.9553630">
        <ele>887.0</ele>
        <time>2020-04-04T17:59:10Z</time>
      </trkpt>
      <trkpt lat="42.3292900" lon="-3.9554750">
        <ele>887.2</ele>
        <time>2020-04-04T17:59:12Z</time>
      </trkpt>
      <trkpt lat="42.3291720" lon="-3.9557120">
        <ele>888.0</ele>
        <time>2020-04-04T17:59:14Z</time>
      </trkpt>
      <trkpt lat="42.3291200" lon="-3.9558270">
        <ele>888.4</ele>
        <time>2020-04-04T17:59:16Z</time>
      </trkpt>
      <trkpt lat="42.3290250" lon="-3.9560350">
        <ele>889.2</ele>
        <time>2020-04-04T17:59:18Z</time>
      </trkpt>
      <trkpt lat="42.3289720" lon="-3.9561500">
        <ele>889.6</ele>
        <time>2020-04-04T17:59:20Z</time>
      </trkpt>
      <trkpt lat="42.3288800" lon="-3.9563550">
        <ele>890.8</ele>
        <time>2020-04-04T17:59:22Z</time>
      </trkpt>
      <trkpt lat="42.3288320" lon="-3.9564740">
        <ele>891.5</ele>
        <time>2020-04-04T17:59:24Z</time>
      </trkpt>
      <trkpt lat="42.3287830" lon="-3.9565920">
        <ele>892.2</ele>
        <time>2020-04-04T17:59:26Z</time>
      </trkpt>
      <trkpt lat="42.3286970" lon="-3.9568110">
        <ele>893.2</ele>
        <time>2020-04-04T17:59:28Z</time>
      </trkpt>
      <trkpt lat="42.3286530" lon="-3.9569280">
        <ele>893.5</ele>
        <time>2020-04-04T17:59:30Z</time>
      </trkpt>
      <trkpt lat="42.3285850" lon="-3.9571350">
        <ele>894.1</ele>
        <time>2020-04-04T17:59:32Z</time>
      </trkpt>
      <trkpt lat="42.3285350" lon="-3.9573260">
        <ele>894.7</ele>
        <time>2020-04-04T17:59:34Z</time>
      </trkpt>
      <trkpt lat="42.3285090" lon="-3.9574490">
        <ele>895.3</ele>
        <time>2020-04-04T17:59:36Z</time>
      </trkpt>
      <trkpt lat="42.3284840" lon="-3.9575700">
        <ele>896.0</ele>
        <time>2020-04-04T17:59:38Z</time>
      </trkpt>
      <trkpt lat="42.3284340" lon="-3.9577790">
        <ele>897.4</ele>
        <time>2020-04-04T17:59:40Z</time>
      </trkpt>
      <trkpt lat="42.3284030" lon="-3.9578970">
        <ele>898.1</ele>
        <time>2020-04-04T17:59:42Z</time>
      </trkpt>
      <trkpt lat="42.3283720" lon="-3.9580160">
        <ele>898.6</ele>
        <time>2020-04-04T17:59:44Z</time>
      </trkpt>
      <trkpt lat="42.3283140" lon="-3.9582630">
        <ele>899.4</ele>
        <time>2020-04-04T17:59:46Z</time>
      </trkpt>
      <trkpt lat="42.3282810" lon="-3.9584310">
        <ele>899.7</ele>
        <time>2020-04-04T17:59:48Z</time>
      </trkpt>
      <trkpt lat="42.3282560" lon="-3.9586040">
        <ele>899.9</ele>
        <time>2020-04-04T17:59:50Z</time>
      </trkpt>
      <trkpt lat="42.3282470" lon="-3.9587680">
        <ele>900.1</ele>
        <time>2020-04-04T17:59:52Z</time>
      </trkpt>
      <trkpt lat="42.3282410" lon="-3.9589640">
        <ele>900.8</ele>
        <time>2020-04-04T17:59:54Z</time>
      </trkpt>
      <trkpt lat="42.3282330" lon="-3.9590890">
        <ele>901.7</ele>
        <time>2020-04-04T17:59:56Z</time>
      </trkpt>
      <trkpt lat="42.3282250" lon="-3.9592120">
        <ele>902.6</ele>
        <time>2020-04-04T17:59:58Z</time>
      </trkpt>
      <trkpt lat="42.3282140" lon="-3.9594530">
        <ele>904.1</ele>
        <time>2020-04-04T18:00:00Z</time>
      </trkpt>
      <trkpt lat="42.3282210" lon="-3.9596240">
        <ele>905.2</ele>
        <time>2020-04-04T18:00:03Z</time>
      </trkpt>
      <trkpt lat="42.3282350" lon="-3.9597520">
        <ele>905.6</ele>
        <time>2020-04-04T18:00:05Z</time>
      </trkpt>
      <trkpt lat="42.3282490" lon="-3.9598820">
        <ele>905.9</ele>
        <time>2020-04-04T18:00:07Z</time>
      </trkpt>
      <trkpt lat="42.3282640" lon="-3.9600110">
        <ele>906.2</ele>
        <time>2020-04-04T18:00:09Z</time>
      </trkpt>
      <trkpt lat="42.3282780" lon="-3.9601410">
        <ele>906.8</ele>
        <time>2020-04-04T18:00:11Z</time>
      </trkpt>
      <trkpt lat="42.3283300" lon="-3.9605000">
        <ele>909.0</ele>
        <time>2020-04-04T18:00:13Z</time>
      </trkpt>
      <trkpt lat="42.3283670" lon="-3.9606730">
        <ele>910.4</ele>
        <time>2020-04-04T18:00:15Z</time>
      </trkpt>
      <trkpt lat="42.3283790" lon="-3.9607900">
        <ele>911.2</ele>
        <time>2020-04-04T18:00:17Z</time>
      </trkpt>
      <trkpt lat="42.3283900" lon="-3.9608950">
        <ele>911.9</ele>
        <time>2020-04-04T18:00:19Z</time>
      </trkpt>
      <trkpt lat="42.3284000" lon="-3.9609910">
        <ele>912.4</ele>
        <time>2020-04-04T18:00:21Z</time>
      </trkpt>
      <trkpt lat="42.3284090" lon="-3.9610820">
        <ele>912.8</ele>
        <time>2020-04-04T18:00:23Z</time>
      </trkpt>
      <trkpt lat="42.3284380" lon="-3.9613520">
        <ele>913.8</ele>
        <time>2020-04-04T18:00:25Z</time>
      </trkpt>
      <trkpt lat="42.3284510" lon="-3.9614370">
        <ele>914.1</ele>
        <time>2020-04-04T18:00:27Z</time>
      </trkpt>
      <trkpt lat="42.3284700" lon="-3.9615670">
        <ele>914.8</ele>
        <time>2020-04-04T18:00:29Z</time>
      </trkpt>
      <trkpt lat="42.3284890" lon="-3.9616920">
        <ele>915.6</ele>
        <time>2020-04-04T18:00:31Z</time>
      </trkpt>
      <trkpt lat="42.3285060" lon="-3.9617730">
        <ele>916.1</ele>
        <time>2020-04-04T18:00:33Z</time>
      </trkpt>
      <trkpt lat="42.3285220" lon="-3.9618530">
        <ele>916.7</ele>
        <time>2020-04-04T18:00:35Z</time>
      </trkpt>
      <trkpt lat="42.3285390" lon="-3.9619330">
        <ele>917.3</ele>
        <time>2020-04-04T18:00:37Z</time>
      </trkpt>
      <trkpt lat="42.3285600" lon="-3.9621120">
        <ele>918.7</ele>
        <time>2020-04-04T18:00:39Z</time>
      </trkpt>
      <trkpt lat="42.3285630" lon="-3.9621960">
        <ele>919.3</ele>
        <time>2020-04-04T18:00:41Z</time>
      </trkpt>
      <trkpt lat="42.3285650" lon="-3.9623450">
        <ele>920.5</ele>
        <time>2020-04-04T18:00:43Z</time>
      </trkpt>
      <trkpt lat="42.3285630" lon="-3.9624410">
        <ele>921.4</ele>
        <time>2020-04-04T18:00:45Z</time>
      </trkpt>
      <trkpt lat="42.3285570" lon="-3.9626210">
        <ele>923.2</ele>
        <time>2020-04-04T18:00:47Z</time>
      </trkpt>
      <trkpt lat="42.3285550" lon="-3.9627220">
        <ele>924.4</ele>
        <time>2020-04-04T18:00:49Z</time>
      </trkpt>
      <trkpt lat="42.3285500" lon="-3.9629010">
        <ele>926.4</ele>
        <time>2020-04-04T18:00:51Z</time>
      </trkpt>
      <trkpt lat="42.3285540" lon="-3.9630240">
        <ele>927.8</ele>
        <time>2020-04-04T18:00:53Z</time>
      </trkpt>
      <trkpt lat="42.3285720" lon="-3.9631760">
        <ele>929.4</ele>
        <time>2020-04-04T18:00:55Z</time>
      </trkpt>
      <trkpt lat="42.3286000" lon="-3.9633090">
        <ele>930.7</ele>
        <time>2020-04-04T18:00:57Z</time>
      </trkpt>
      <trkpt lat="42.3286340" lon="-3.9634440">
        <ele>931.9</ele>
        <time>2020-04-04T18:00:59Z</time>
      </trkpt>
      <trkpt lat="42.3286700" lon="-3.9635760">
        <ele>933.0</ele>
        <time>2020-04-04T18:01:01Z</time>
      </trkpt>
      <trkpt lat="42.3286930" lon="-3.9637060">
        <ele>933.8</ele>
        <time>2020-04-04T18:01:03Z</time>
      </trkpt>
      <trkpt lat="42.3286660" lon="-3.9638320">
        <ele>933.8</ele>
        <time>2020-04-04T18:01:05Z</time>
      </trkpt>
      <trkpt lat="42.3286350" lon="-3.9640110">
        <ele>934.0</ele>
        <time>2020-04-04T18:01:07Z</time>
      </trkpt>
      <trkpt lat="42.3286110" lon="-3.9642040">
        <ele>934.2</ele>
        <time>2020-04-04T18:01:09Z</time>
      </trkpt>
      <trkpt lat="42.3285980" lon="-3.9643390">
        <ele>934.4</ele>
        <time>2020-04-04T18:01:11Z</time>
      </trkpt>
      <trkpt lat="42.3285850" lon="-3.9644790">
        <ele>934.6</ele>
        <time>2020-04-04T18:01:13Z</time>
      </trkpt>
      <trkpt lat="42.3285580" lon="-3.9647730">
        <ele>935.0</ele>
        <time>2020-04-04T18:01:15Z</time>
      </trkpt>
      <trkpt lat="42.3285450" lon="-3.9649590">
        <ele>935.1</ele>
        <time>2020-04-04T18:01:17Z</time>
      </trkpt>
      <trkpt lat="42.3285360" lon="-3.9651060">
        <ele>935.1</ele>
        <time>2020-04-04T18:01:19Z</time>
      </trkpt>
      <trkpt lat="42.3285260" lon="-3.9652590">
        <ele>935.2</ele>
        <time>2020-04-04T18:01:21Z</time>
      </trkpt>
      <trkpt lat="42.3285150" lon="-3.9654160">
        <ele>935.3</ele>
        <time>2020-04-04T18:01:23Z</time>
      </trkpt>
      <trkpt lat="42.3284890" lon="-3.9657570">
        <ele>935.5</ele>
        <time>2020-04-04T18:01:25Z</time>
      </trkpt>
      <trkpt lat="42.3284610" lon="-3.9659900">
        <ele>935.7</ele>
        <time>2020-04-04T18:01:27Z</time>
      </trkpt>
      <trkpt lat="42.3284180" lon="-3.9662020">
        <ele>936.0</ele>
        <time>2020-04-04T18:01:29Z</time>
      </trkpt>
      <trkpt lat="42.3283800" lon="-3.9663590">
        <ele>936.1</ele>
        <time>2020-04-04T18:01:31Z</time>
      </trkpt>
      <trkpt lat="42.3283090" lon="-3.9666430">
        <ele>936.0</ele>
        <time>2020-04-04T18:01:33Z</time>
      </trkpt>
      <trkpt lat="42.3282630" lon="-3.9668340">
        <ele>935.8</ele>
        <time>2020-04-04T18:01:35Z</time>
      </trkpt>
      <trkpt lat="42.3282270" lon="-3.9669830">
        <ele>935.6</ele>
        <time>2020-04-04T18:01:37Z</time>
      </trkpt>
      <trkpt lat="42.3281930" lon="-3.9671260">
        <ele>935.4</ele>
        <time>2020-04-04T18:01:39Z</time>
      </trkpt>
      <trkpt lat="42.3281240" lon="-3.9674230">
        <ele>935.2</ele>
        <time>2020-04-04T18:01:41Z</time>
      </trkpt>
      <trkpt lat="42.3280980" lon="-3.9675570">
        <ele>935.1</ele>
        <time>2020-04-04T18:01:43Z</time>
      </trkpt>
      <trkpt lat="42.3280560" lon="-3.9677860">
        <ele>935.1</ele>
        <time>2020-04-04T18:01:45Z</time>
      </trkpt>
      <trkpt lat="42.3280380" lon="-3.9679150">
        <ele>935.1</ele>
        <time>2020-04-04T18:01:47Z</time>
      </trkpt>
      <trkpt lat="42.3280070" lon="-3.9681280">
        <ele>935.1</ele>
        <time>2020-04-04T18:01:49Z</time>
      </trkpt>
      <trkpt lat="42.3279870" lon="-3.9682600">
        <ele>935.1</ele>
        <time>2020-04-04T18:01:51Z</time>
      </trkpt>
      <trkpt lat="42.3279670" lon="-3.9683970">
        <ele>935.1</ele>
        <time>2020-04-04T18:01:53Z</time>
      </trkpt>
      <trkpt lat="42.3279320" lon="-3.9686640">
        <ele>935.2</ele>
        <time>2020-04-04T18:01:55Z</time>
      </trkpt>
      <trkpt lat="42.3279100" lon="-3.9688840">
        <ele>935.2</ele>
        <time>2020-04-04T18:01:57Z</time>
      </trkpt>
      <trkpt lat="42.3279010" lon="-3.9690330">
        <ele>935.0</ele>
        <time>2020-04-04T18:01:59Z</time>
      </trkpt>
      <trkpt lat="42.3278840" lon="-3.9693020">
        <ele>934.8</ele>
        <time>2020-04-04T18:02:01Z</time>
      </trkpt>
      <trkpt lat="42.3278650" lon="-3.9695140">
        <ele>934.7</ele>
        <time>2020-04-04T18:02:03Z</time>
      </trkpt>
      <trkpt lat="42.3278350" lon="-3.9697200">
        <ele>934.7</ele>
        <time>2020-04-04T18:02:05Z</time>
      </trkpt>
      <trkpt lat="42.3278050" lon="-3.9698720">
        <ele>934.7</ele>
        <time>2020-04-04T18:02:07Z</time>
      </trkpt>
      <trkpt lat="42.3277550" lon="-3.9701170">
        <ele>934.7</ele>
        <time>2020-04-04T18:02:09Z</time>
      </trkpt>
      <trkpt lat="42.3276960" lon="-3.9703300">
        <ele>934.7</ele>
        <time>2020-04-04T18:02:11Z</time>
      </trkpt>
      <trkpt lat="42.3276360" lon="-3.9705010">
        <ele>934.6</ele>
        <time>2020-04-04T18:02:13Z</time>
      </trkpt>
      <trkpt lat="42.3275820" lon="-3.9707440">
        <ele>934.5</ele>
        <time>2020-04-04T18:02:15Z</time>
      </trkpt>
      <trkpt lat="42.3275600" lon="-3.9709120">
        <ele>934.5</ele>
        <time>2020-04-04T18:02:17Z</time>
      </trkpt>
      <trkpt lat="42.3275330" lon="-3.9711530">
        <ele>934.4</ele>
        <time>2020-04-04T18:02:19Z</time>
      </trkpt>
      <trkpt lat="42.3275150" lon="-3.9713270">
        <ele>934.3</ele>
        <time>2020-04-04T18:02:21Z</time>
      </trkpt>
      <trkpt lat="42.3274870" lon="-3.9716330">
        <ele>933.9</ele>
        <time>2020-04-04T18:02:23Z</time>
      </trkpt>
      <trkpt lat="42.3274720" lon="-3.9718120">
        <ele>933.5</ele>
        <time>2020-04-04T18:02:25Z</time>
      </trkpt>
      <trkpt lat="42.3274550" lon="-3.9721240">
        <ele>933.2</ele>
        <time>2020-04-04T18:02:27Z</time>
      </trkpt>
      <trkpt lat="42.3274500" lon="-3.9723060">
        <ele>933.2</ele>
        <time>2020-04-04T18:02:29Z</time>
      </trkpt>
      <trkpt lat="42.3274420" lon="-3.9726310">
        <ele>933.2</ele>
        <time>2020-04-04T18:02:31Z</time>
      </trkpt>
      <trkpt lat="42.3274390" lon="-3.9728620">
        <ele>932.9</ele>
        <time>2020-04-04T18:02:33Z</time>
      </trkpt>
      <trkpt lat="42.3274360" lon="-3.9730490">
        <ele>932.6</ele>
        <time>2020-04-04T18:02:35Z</time>
      </trkpt>
      <trkpt lat="42.3274320" lon="-3.9734220">
        <ele>932.3</ele>
        <time>2020-04-04T18:02:37Z</time>
      </trkpt>
      <trkpt lat="42.3274410" lon="-3.9736190">
        <ele>932.3</ele>
        <time>2020-04-04T18:02:39Z</time>
      </trkpt>
      <trkpt lat="42.3274500" lon="-3.9738120">
        <ele>932.3</ele>
        <time>2020-04-04T18:02:41Z</time>
      </trkpt>
      <trkpt lat="42.3274690" lon="-3.9742010">
        <ele>932.3</ele>
        <time>2020-04-04T18:02:43Z</time>
      </trkpt>
      <trkpt lat="42.3274910" lon="-3.9743900">
        <ele>932.2</ele>
        <time>2020-04-04T18:02:45Z</time>
      </trkpt>
      <trkpt lat="42.3275270" lon="-3.9747030">
        <ele>931.9</ele>
        <time>2020-04-04T18:02:47Z</time>
      </trkpt>
      <trkpt lat="42.3275590" lon="-3.9748780">
        <ele>931.6</ele>
        <time>2020-04-04T18:02:49Z</time>
      </trkpt>
      <trkpt lat="42.3275900" lon="-3.9750510">
        <ele>931.4</ele>
        <time>2020-04-04T18:02:51Z</time>
      </trkpt>
      <trkpt lat="42.3276390" lon="-3.9753740">
        <ele>931.3</ele>
        <time>2020-04-04T18:02:53Z</time>
      </trkpt>
      <trkpt lat="42.3276590" lon="-3.9755470">
        <ele>931.3</ele>
        <time>2020-04-04T18:02:55Z</time>
      </trkpt>
      <trkpt lat="42.3276910" lon="-3.9758580">
        <ele>931.3</ele>
        <time>2020-04-04T18:02:57Z</time>
      </trkpt>
      <trkpt lat="42.3277050" lon="-3.9760290">
        <ele>931.3</ele>
        <time>2020-04-04T18:02:59Z</time>
      </trkpt>
      <trkpt lat="42.3277190" lon="-3.9762000">
        <ele>931.3</ele>
        <time>2020-04-04T18:03:01Z</time>
      </trkpt>
      <trkpt lat="42.3277330" lon="-3.9763710">
        <ele>931.3</ele>
        <time>2020-04-04T18:03:03Z</time>
      </trkpt>
      <trkpt lat="42.3277470" lon="-3.9765430">
        <ele>931.3</ele>
        <time>2020-04-04T18:03:05Z</time>
      </trkpt>
      <trkpt lat="42.3277790" lon="-3.9770040">
        <ele>931.6</ele>
        <time>2020-04-04T18:03:07Z</time>
      </trkpt>
      <trkpt lat="42.3277860" lon="-3.9772420">
        <ele>931.8</ele>
        <time>2020-04-04T18:03:09Z</time>
      </trkpt>
      <trkpt lat="42.3277900" lon="-3.9774160">
        <ele>931.7</ele>
        <time>2020-04-04T18:03:11Z</time>
      </trkpt>
      <trkpt lat="42.3277780" lon="-3.9777420">
        <ele>931.3</ele>
        <time>2020-04-04T18:03:13Z</time>
      </trkpt>
      <trkpt lat="42.3277810" lon="-3.9779140">
        <ele>931.3</ele>
        <time>2020-04-04T18:03:15Z</time>
      </trkpt>
      <trkpt lat="42.3277810" lon="-3.9781630">
        <ele>931.3</ele>
        <time>2020-04-04T18:03:17Z</time>
      </trkpt>
      <trkpt lat="42.3277780" lon="-3.9783320">
        <ele>931.3</ele>
        <time>2020-04-04T18:03:19Z</time>
      </trkpt>
      <trkpt lat="42.3277730" lon="-3.9786590">
        <ele>931.2</ele>
        <time>2020-04-04T18:03:21Z</time>
      </trkpt>
      <trkpt lat="42.3277800" lon="-3.9788750">
        <ele>930.9</ele>
        <time>2020-04-04T18:03:23Z</time>
      </trkpt>
      <trkpt lat="42.3277890" lon="-3.9790420">
        <ele>930.6</ele>
        <time>2020-04-04T18:03:25Z</time>
      </trkpt>
      <trkpt lat="42.3277980" lon="-3.9793310">
        <ele>930.3</ele>
        <time>2020-04-04T18:03:27Z</time>
      </trkpt>
      <trkpt lat="42.3278040" lon="-3.9795640">
        <ele>930.3</ele>
        <time>2020-04-04T18:03:29Z</time>
      </trkpt>
      <trkpt lat="42.3278050" lon="-3.9797320">
        <ele>930.3</ele>
        <time>2020-04-04T18:03:31Z</time>
      </trkpt>
      <trkpt lat="42.3278050" lon="-3.9800070">
        <ele>929.8</ele>
        <time>2020-04-04T18:03:33Z</time>
      </trkpt>
      <trkpt lat="42.3278000" lon="-3.9801740">
        <ele>929.1</ele>
        <time>2020-04-04T18:03:35Z</time>
      </trkpt>
      <trkpt lat="42.3277910" lon="-3.9804530">
        <ele>928.4</ele>
        <time>2020-04-04T18:03:37Z</time>
      </trkpt>
      <trkpt lat="42.3277860" lon="-3.9806210">
        <ele>928.3</ele>
        <time>2020-04-04T18:03:39Z</time>
      </trkpt>
      <trkpt lat="42.3277870" lon="-3.9808880">
        <ele>928.3</ele>
        <time>2020-04-04T18:03:41Z</time>
      </trkpt>
      <trkpt lat="42.3278000" lon="-3.9811300">
        <ele>928.3</ele>
        <time>2020-04-04T18:03:43Z</time>
      </trkpt>
      <trkpt lat="42.3278130" lon="-3.9813240">
        <ele>928.3</ele>
        <time>2020-04-04T18:03:45Z</time>
      </trkpt>
      <trkpt lat="42.3278430" lon="-3.9816430">
        <ele>927.5</ele>
        <time>2020-04-04T18:03:47Z</time>
      </trkpt>
      <trkpt lat="42.3278480" lon="-3.9819650">
        <ele>925.7</ele>
        <time>2020-04-04T18:03:49Z</time>
      </trkpt>
      <trkpt lat="42.3277510" lon="-3.9822240">
        <ele>923.8</ele>
        <time>2020-04-04T18:03:51Z</time>
      </trkpt>
      <trkpt lat="42.3276560" lon="-3.9824170">
        <ele>922.0</ele>
        <time>2020-04-04T18:03:53Z</time>
      </trkpt>
      <trkpt lat="42.3274790" lon="-3.9827740">
        <ele>918.2</ele>
        <time>2020-04-04T18:03:55Z</time>
      </trkpt>
      <trkpt lat="42.3273620" lon="-3.9829890">
        <ele>915.6</ele>
        <time>2020-04-04T18:03:57Z</time>
      </trkpt>
      <trkpt lat="42.3271440" lon="-3.9833220">
        <ele>910.9</ele>
        <time>2020-04-04T18:03:59Z</time>
      </trkpt>
      <trkpt lat="42.3269260" lon="-3.9835990">
        <ele>907.3</ele>
        <time>2020-04-04T18:04:01Z</time>
      </trkpt>
      <trkpt lat="42.3267370" lon="-3.9838890">
        <ele>904.2</ele>
        <time>2020-04-04T18:04:03Z</time>
      </trkpt>
      <trkpt lat="42.3265900" lon="-3.9842510">
        <ele>901.0</ele>
        <time>2020-04-04T18:04:05Z</time>
      </trkpt>
      <trkpt lat="42.3265320" lon="-3.9845310">
        <ele>898.9</ele>
        <time>2020-04-04T18:04:07Z</time>
      </trkpt>
      <trkpt lat="42.3264770" lon="-3.9847990">
        <ele>897.2</ele>
        <time>2020-04-04T18:04:09Z</time>
      </trkpt>
      <trkpt lat="42.3263750" lon="-3.9853450">
        <ele>894.2</ele>
        <time>2020-04-04T18:04:11Z</time>
      </trkpt>
      <trkpt lat="42.3263150" lon="-3.9857060">
        <ele>892.5</ele>
        <time>2020-04-04T18:04:13Z</time>
      </trkpt>
      <trkpt lat="42.3262860" lon="-3.9859600">
        <ele>891.3</ele>
        <time>2020-04-04T18:04:15Z</time>
      </trkpt>
      <trkpt lat="42.3262380" lon="-3.9863040">
        <ele>889.8</ele>
        <time>2020-04-04T18:04:17Z</time>
      </trkpt>
      <trkpt lat="42.3261820" lon="-3.9866200">
        <ele>889.0</ele>
        <time>2020-04-04T18:04:19Z</time>
      </trkpt>
      <trkpt lat="42.3261090" lon="-3.9869970">
        <ele>888.4</ele>
        <time>2020-04-04T18:04:21Z</time>
      </trkpt>
      <trkpt lat="42.3260260" lon="-3.9872680">
        <ele>888.3</ele>
        <time>2020-04-04T18:04:23Z</time>
      </trkpt>
      <trkpt lat="42.3259310" lon="-3.9875470">
        <ele>888.3</ele>
        <time>2020-04-04T18:04:25Z</time>
      </trkpt>
      <trkpt lat="42.3259110" lon="-3.9878130">
        <ele>888.2</ele>
        <time>2020-04-04T18:04:27Z</time>
      </trkpt>
      <trkpt lat="42.3259620" lon="-3.9880540">
        <ele>888.1</ele>
        <time>2020-04-04T18:04:29Z</time>
      </trkpt>
      <trkpt lat="42.3259780" lon="-3.9882680">
        <ele>888.5</ele>
        <time>2020-04-04T18:04:31Z</time>
      </trkpt>
      <trkpt lat="42.3259840" lon="-3.9885290">
        <ele>889.0</ele>
        <time>2020-04-04T18:04:33Z</time>
      </trkpt>
      <trkpt lat="42.3259850" lon="-3.9886950">
        <ele>889.4</ele>
        <time>2020-04-04T18:04:35Z</time>
      </trkpt>
      <trkpt lat="42.3259860" lon="-3.9888530">
        <ele>889.9</ele>
        <time>2020-04-04T18:04:37Z</time>
      </trkpt>
      <trkpt lat="42.3259870" lon="-3.9890060">
        <ele>890.4</ele>
        <time>2020-04-04T18:04:39Z</time>
      </trkpt>
      <trkpt lat="42.3259890" lon="-3.9893560">
        <ele>891.5</ele>
        <time>2020-04-04T18:04:41Z</time>
      </trkpt>
      <trkpt lat="42.3259920" lon="-3.9895820">
        <ele>892.2</ele>
        <time>2020-04-04T18:04:43Z</time>
      </trkpt>
      <trkpt lat="42.3260040" lon="-3.9897220">
        <ele>892.4</ele>
        <time>2020-04-04T18:04:45Z</time>
      </trkpt>
      <trkpt lat="42.3260160" lon="-3.9898610">
        <ele>892.7</ele>
        <time>2020-04-04T18:04:47Z</time>
      </trkpt>
      <trkpt lat="42.3260280" lon="-3.9899980">
        <ele>893.1</ele>
        <time>2020-04-04T18:04:49Z</time>
      </trkpt>
      <trkpt lat="42.3260630" lon="-3.9903230">
        <ele>894.2</ele>
        <time>2020-04-04T18:04:51Z</time>
      </trkpt>
      <trkpt lat="42.3260800" lon="-3.9904810">
        <ele>894.8</ele>
        <time>2020-04-04T18:04:53Z</time>
      </trkpt>
      <trkpt lat="42.3260830" lon="-3.9906150">
        <ele>895.4</ele>
        <time>2020-04-04T18:04:55Z</time>
      </trkpt>
      <trkpt lat="42.3260860" lon="-3.9907480">
        <ele>895.9</ele>
        <time>2020-04-04T18:04:57Z</time>
      </trkpt>
      <trkpt lat="42.3260900" lon="-3.9908800">
        <ele>896.5</ele>
        <time>2020-04-04T18:04:59Z</time>
      </trkpt>
      <trkpt lat="42.3260980" lon="-3.9912240">
        <ele>897.9</ele>
        <time>2020-04-04T18:05:01Z</time>
      </trkpt>
      <trkpt lat="42.3261010" lon="-3.9913540">
        <ele>898.5</ele>
        <time>2020-04-04T18:05:03Z</time>
      </trkpt>
      <trkpt lat="42.3261050" lon="-3.9914890">
        <ele>899.3</ele>
        <time>2020-04-04T18:05:05Z</time>
      </trkpt>
      <trkpt lat="42.3261080" lon="-3.9916260">
        <ele>900.0</ele>
        <time>2020-04-04T18:05:07Z</time>
      </trkpt>
      <trkpt lat="42.3261120" lon="-3.9917640">
        <ele>900.7</ele>
        <time>2020-04-04T18:05:09Z</time>
      </trkpt>
      <trkpt lat="42.3261160" lon="-3.9921130">
        <ele>902.4</ele>
        <time>2020-04-04T18:05:11Z</time>
      </trkpt>
      <trkpt lat="42.3261100" lon="-3.9923000">
        <ele>902.8</ele>
        <time>2020-04-04T18:05:13Z</time>
      </trkpt>
      <trkpt lat="42.3260960" lon="-3.9924880">
        <ele>903.2</ele>
        <time>2020-04-04T18:05:15Z</time>
      </trkpt>
      <trkpt lat="42.3260730" lon="-3.9926670">
        <ele>903.6</ele>
        <time>2020-04-04T18:05:17Z</time>
      </trkpt>
      <trkpt lat="42.3260540" lon="-3.9927940">
        <ele>903.9</ele>
        <time>2020-04-04T18:05:19Z</time>
      </trkpt>
      <trkpt lat="42.3260190" lon="-3.9929870">
        <ele>904.4</ele>
        <time>2020-04-04T18:05:21Z</time>
      </trkpt>
      <trkpt lat="42.3259770" lon="-3.9931600">
        <ele>904.9</ele>
        <time>2020-04-04T18:05:23Z</time>
      </trkpt>
      <trkpt lat="42.3259220" lon="-3.9933090">
        <ele>905.5</ele>
        <time>2020-04-04T18:05:25Z</time>
      </trkpt>
      <trkpt lat="42.3258520" lon="-3.9934590">
        <ele>906.0</ele>
        <time>2020-04-04T18:05:27Z</time>
      </trkpt>
      <trkpt lat="42.3257740" lon="-3.9935800">
        <ele>906.7</ele>
        <time>2020-04-04T18:05:29Z</time>
      </trkpt>
      <trkpt lat="42.3257090" lon="-3.9936720">
        <ele>907.3</ele>
        <time>2020-04-04T18:05:31Z</time>
      </trkpt>
      <trkpt lat="42.3255950" lon="-3.9938360">
        <ele>908.4</ele>
        <time>2020-04-04T18:05:33Z</time>
      </trkpt>
      <trkpt lat="42.3255320" lon="-3.9939290">
        <ele>908.9</ele>
        <time>2020-04-04T18:05:35Z</time>
      </trkpt>
      <trkpt lat="42.3254460" lon="-3.9940840">
        <ele>909.8</ele>
        <time>2020-04-04T18:05:37Z</time>
      </trkpt>
      <trkpt lat="42.3253950" lon="-3.9942770">
        <ele>910.9</ele>
        <time>2020-04-04T18:05:39Z</time>
      </trkpt>
      <trkpt lat="42.3253890" lon="-3.9944010">
        <ele>911.5</ele>
        <time>2020-04-04T18:05:41Z</time>
      </trkpt>
      <trkpt lat="42.3253770" lon="-3.9945790">
        <ele>912.4</ele>
        <time>2020-04-04T18:05:43Z</time>
      </trkpt>
      <trkpt lat="42.3253570" lon="-3.9947410">
        <ele>913.1</ele>
        <time>2020-04-04T18:05:45Z</time>
      </trkpt>
      <trkpt lat="42.3253400" lon="-3.9948570">
        <ele>913.6</ele>
        <time>2020-04-04T18:05:47Z</time>
      </trkpt>
      <trkpt lat="42.3253230" lon="-3.9949700">
        <ele>914.1</ele>
        <time>2020-04-04T18:05:49Z</time>
      </trkpt>
      <trkpt lat="42.3252830" lon="-3.9952060">
        <ele>915.2</ele>
        <time>2020-04-04T18:05:51Z</time>
      </trkpt>
      <trkpt lat="42.3252580" lon="-3.9953150">
        <ele>915.7</ele>
        <time>2020-04-04T18:05:53Z</time>
      </trkpt>
      <trkpt lat="42.3252140" lon="-3.9955100">
        <ele>916.7</ele>
        <time>2020-04-04T18:05:55Z</time>
      </trkpt>
      <trkpt lat="42.3251870" lon="-3.9956270">
        <ele>917.3</ele>
        <time>2020-04-04T18:05:57Z</time>
      </trkpt>
      <trkpt lat="42.3251310" lon="-3.9958180">
        <ele>918.3</ele>
        <time>2020-04-04T18:05:59Z</time>
      </trkpt>
      <trkpt lat="42.3250470" lon="-3.9959690">
        <ele>919.3</ele>
        <time>2020-04-04T18:06:01Z</time>
      </trkpt>
      <trkpt lat="42.3249550" lon="-3.9960710">
        <ele>920.0</ele>
        <time>2020-04-04T18:06:03Z</time>
      </trkpt>
      <trkpt lat="42.3248460" lon="-3.9961920">
        <ele>920.8</ele>
        <time>2020-04-04T18:06:05Z</time>
      </trkpt>
      <trkpt lat="42.3247510" lon="-3.9963670">
        <ele>921.7</ele>
        <time>2020-04-04T18:06:07Z</time>
      </trkpt>
      <trkpt lat="42.3247030" lon="-3.9964960">
        <ele>922.3</ele>
        <time>2020-04-04T18:06:09Z</time>
      </trkpt>
      <trkpt lat="42.3246340" lon="-3.9966920">
        <ele>923.0</ele>
        <time>2020-04-04T18:06:11Z</time>
      </trkpt>
      <trkpt lat="42.3245890" lon="-3.9968290">
        <ele>923.4</ele>
        <time>2020-04-04T18:06:13Z</time>
      </trkpt>
      <trkpt lat="42.3245050" lon="-3.9970630">
        <ele>924.0</ele>
        <time>2020-04-04T18:06:15Z</time>
      </trkpt>
      <trkpt lat="42.3244190" lon="-3.9972800">
        <ele>924.4</ele>
        <time>2020-04-04T18:06:17Z</time>
      </trkpt>
      <trkpt lat="42.3243570" lon="-3.9974120">
        <ele>924.8</ele>
        <time>2020-04-04T18:06:19Z</time>
      </trkpt>
      <trkpt lat="42.3242960" lon="-3.9975440">
        <ele>925.0</ele>
        <time>2020-04-04T18:06:21Z</time>
      </trkpt>
      <trkpt lat="42.3241870" lon="-3.9978030">
        <ele>925.5</ele>
        <time>2020-04-04T18:06:23Z</time>
      </trkpt>
      <trkpt lat="42.3241150" lon="-3.9980110">
        <ele>925.8</ele>
        <time>2020-04-04T18:06:25Z</time>
      </trkpt>
      <trkpt lat="42.3240460" lon="-3.9982250">
        <ele>926.2</ele>
        <time>2020-04-04T18:06:27Z</time>
      </trkpt>
      <trkpt lat="42.3239900" lon="-3.9983720">
        <ele>926.5</ele>
        <time>2020-04-04T18:06:29Z</time>
      </trkpt>
      <trkpt lat="42.3239030" lon="-3.9985980">
        <ele>926.8</ele>
        <time>2020-04-04T18:06:31Z</time>
      </trkpt>
      <trkpt lat="42.3238210" lon="-3.9988210">
        <ele>927.1</ele>
        <time>2020-04-04T18:06:33Z</time>
      </trkpt>
      <trkpt lat="42.3237710" lon="-3.9990330">
        <ele>927.3</ele>
        <time>2020-04-04T18:06:35Z</time>
      </trkpt>
      <trkpt lat="42.3237460" lon="-3.9991890">
        <ele>927.5</ele>
        <time>2020-04-04T18:06:37Z</time>
      </trkpt>
      <trkpt lat="42.3236970" lon="-3.9994430">
        <ele>927.8</ele>
        <time>2020-04-04T18:06:39Z</time>
      </trkpt>
      <trkpt lat="42.3236570" lon="-3.9995880">
        <ele>927.9</ele>
        <time>2020-04-04T18:06:41Z</time>
      </trkpt>
      <trkpt lat="42.3235870" lon="-3.9998000">
        <ele>928.1</ele>
        <time>2020-04-04T18:06:43Z</time>
      </trkpt>
      <trkpt lat="42.3235090" lon="-4.0000250">
        <ele>928.3</ele>
        <time>2020-04-04T18:06:45Z</time>
      </trkpt>
      <trkpt lat="42.3234730" lon="-4.0001740">
        <ele>928.4</ele>
        <time>2020-04-04T18:06:47Z</time>
      </trkpt>
      <trkpt lat="42.3234370" lon="-4.0003230">
        <ele>928.6</ele>
        <time>2020-04-04T18:06:49Z</time>
      </trkpt>
      <trkpt lat="42.3234000" lon="-4.0004720">
        <ele>928.8</ele>
        <time>2020-04-04T18:06:51Z</time>
      </trkpt>
      <trkpt lat="42.3233130" lon="-4.0008320">
        <ele>929.0</ele>
        <time>2020-04-04T18:06:53Z</time>
      </trkpt>
      <trkpt lat="42.3232660" lon="-4.0010360">
        <ele>929.1</ele>
        <time>2020-04-04T18:06:55Z</time>
      </trkpt>
      <trkpt lat="42.3232320" lon="-4.0011870">
        <ele>929.1</ele>
        <time>2020-04-04T18:06:57Z</time>
      </trkpt>
      <trkpt lat="42.3231980" lon="-4.0013380">
        <ele>929.0</ele>
        <time>2020-04-04T18:06:59Z</time>
      </trkpt>
      <trkpt lat="42.3231320" lon="-4.0016090">
        <ele>928.9</ele>
        <time>2020-04-04T18:07:01Z</time>
      </trkpt>
      <trkpt lat="42.3230680" lon="-4.0018520">
        <ele>928.9</ele>
        <time>2020-04-04T18:07:03Z</time>
      </trkpt>
      <trkpt lat="42.3230250" lon="-4.0020680">
        <ele>929.1</ele>
        <time>2020-04-04T18:07:05Z</time>
      </trkpt>
      <trkpt lat="42.3230140" lon="-4.0022620">
        <ele>929.2</ele>
        <time>2020-04-04T18:07:07Z</time>
      </trkpt>
      <trkpt lat="42.3229870" lon="-4.0025200">
        <ele>929.3</ele>
        <time>2020-04-04T18:07:09Z</time>
      </trkpt>
      <trkpt lat="42.3229390" lon="-4.0027270">
        <ele>928.9</ele>
        <time>2020-04-04T18:07:11Z</time>
      </trkpt>
      <trkpt lat="42.3228820" lon="-4.0029600">
        <ele>928.5</ele>
        <time>2020-04-04T18:07:13Z</time>
      </trkpt>
      <trkpt lat="42.3228420" lon="-4.0031260">
        <ele>928.4</ele>
        <time>2020-04-04T18:07:15Z</time>
      </trkpt>
      <trkpt lat="42.3227750" lon="-4.0033990">
        <ele>928.4</ele>
        <time>2020-04-04T18:07:17Z</time>
      </trkpt>
      <trkpt lat="42.3227340" lon="-4.0035720">
        <ele>928.4</ele>
        <time>2020-04-04T18:07:19Z</time>
      </trkpt>
      <trkpt lat="42.3226680" lon="-4.0038620">
        <ele>928.4</ele>
        <time>2020-04-04T18:07:21Z</time>
      </trkpt>
      <trkpt lat="42.3226300" lon="-4.0040410">
        <ele>928.3</ele>
        <time>2020-04-04T18:07:23Z</time>
      </trkpt>
      <trkpt lat="42.3225630" lon="-4.0043600">
        <ele>928.1</ele>
        <time>2020-04-04T18:07:25Z</time>
      </trkpt>
      <trkpt lat="42.3225210" lon="-4.0045940">
        <ele>927.9</ele>
        <time>2020-04-04T18:07:27Z</time>
      </trkpt>
      <trkpt lat="42.3224950" lon="-4.0047750">
        <ele>927.7</ele>
        <time>2020-04-04T18:07:29Z</time>
      </trkpt>
      <trkpt lat="42.3224700" lon="-4.0049510">
        <ele>927.4</ele>
        <time>2020-04-04T18:07:31Z</time>
      </trkpt>
      <trkpt lat="42.3224130" lon="-4.0053200">
        <ele>927.1</ele>
        <time>2020-04-04T18:07:33Z</time>
      </trkpt>
      <trkpt lat="42.3223790" lon="-4.0054880">
        <ele>927.1</ele>
        <time>2020-04-04T18:07:35Z</time>
      </trkpt>
      <trkpt lat="42.3223460" lon="-4.0056540">
        <ele>927.1</ele>
        <time>2020-04-04T18:07:37Z</time>
      </trkpt>
      <trkpt lat="42.3222750" lon="-4.0059670">
        <ele>926.9</ele>
        <time>2020-04-04T18:07:39Z</time>
      </trkpt>
      <trkpt lat="42.3222080" lon="-4.0062270">
        <ele>926.6</ele>
        <time>2020-04-04T18:07:41Z</time>
      </trkpt>
      <trkpt lat="42.3221560" lon="-4.0064070">
        <ele>926.3</ele>
        <time>2020-04-04T18:07:43Z</time>
      </trkpt>
      <trkpt lat="42.3220830" lon="-4.0066890">
        <ele>926.0</ele>
        <time>2020-04-04T18:07:45Z</time>
      </trkpt>
      <trkpt lat="42.3220090" lon="-4.0070020">
        <ele>926.0</ele>
        <time>2020-04-04T18:07:47Z</time>
      </trkpt>
      <trkpt lat="42.3219580" lon="-4.0072180">
        <ele>926.5</ele>
        <time>2020-04-04T18:07:49Z</time>
      </trkpt>
      <trkpt lat="42.3219140" lon="-4.0073990">
        <ele>926.4</ele>
        <time>2020-04-04T18:07:51Z</time>
      </trkpt>
      <trkpt lat="42.3218720" lon="-4.0075720">
        <ele>926.0</ele>
        <time>2020-04-04T18:07:53Z</time>
      </trkpt>
      <trkpt lat="42.3217790" lon="-4.0079340">
        <ele>925.2</ele>
        <time>2020-04-04T18:07:55Z</time>
      </trkpt>
      <trkpt lat="42.3217370" lon="-4.0080920">
        <ele>925.1</ele>
        <time>2020-04-04T18:07:57Z</time>
      </trkpt>
      <trkpt lat="42.3216600" lon="-4.0083680">
        <ele>925.0</ele>
        <time>2020-04-04T18:07:59Z</time>
      </trkpt>
      <trkpt lat="42.3216000" lon="-4.0085730">
        <ele>925.0</ele>
        <time>2020-04-04T18:08:01Z</time>
      </trkpt>
      <trkpt lat="42.3215340" lon="-4.0088010">
        <ele>925.0</ele>
        <time>2020-04-04T18:08:03Z</time>
      </trkpt>
      <trkpt lat="42.3214880" lon="-4.0089600">
        <ele>925.0</ele>
        <time>2020-04-04T18:08:05Z</time>
      </trkpt>
      <trkpt lat="42.3214120" lon="-4.0092250">
        <ele>925.0</ele>
        <time>2020-04-04T18:08:07Z</time>
      </trkpt>
      <trkpt lat="42.3213630" lon="-4.0094440">
        <ele>925.0</ele>
        <time>2020-04-04T18:08:09Z</time>
      </trkpt>
      <trkpt lat="42.3213330" lon="-4.0096170">
        <ele>925.0</ele>
        <time>2020-04-04T18:08:11Z</time>
      </trkpt>
      <trkpt lat="42.3212810" lon="-4.0098990">
        <ele>925.0</ele>
        <time>2020-04-04T18:08:13Z</time>
      </trkpt>
      <trkpt lat="42.3212440" lon="-4.0100740">
        <ele>925.1</ele>
        <time>2020-04-04T18:08:15Z</time>
      </trkpt>
      <trkpt lat="42.3211760" lon="-4.0103570">
        <ele>925.4</ele>
        <time>2020-04-04T18:08:17Z</time>
      </trkpt>
      <trkpt lat="42.3211300" lon="-4.0105330">
        <ele>925.6</ele>
        <time>2020-04-04T18:08:19Z</time>
      </trkpt>
      <trkpt lat="42.3210530" lon="-4.0108480">
        <ele>926.0</ele>
        <time>2020-04-04T18:08:21Z</time>
      </trkpt>
      <trkpt lat="42.3210160" lon="-4.0110300">
        <ele>926.0</ele>
        <time>2020-04-04T18:08:23Z</time>
      </trkpt>
      <trkpt lat="42.3209370" lon="-4.0113610">
        <ele>926.0</ele>
        <time>2020-04-04T18:08:25Z</time>
      </trkpt>
      <trkpt lat="42.3208990" lon="-4.0115420">
        <ele>926.0</ele>
        <time>2020-04-04T18:08:27Z</time>
      </trkpt>
      <trkpt lat="42.3208600" lon="-4.0117250">
        <ele>926.0</ele>
        <time>2020-04-04T18:08:29Z</time>
      </trkpt>
      <trkpt lat="42.3207790" lon="-4.0121020">
        <ele>926.0</ele>
        <time>2020-04-04T18:08:31Z</time>
      </trkpt>
      <trkpt lat="42.3207410" lon="-4.0122850">
        <ele>926.0</ele>
        <time>2020-04-04T18:08:33Z</time>
      </trkpt>
      <trkpt lat="42.3207020" lon="-4.0124690">
        <ele>926.0</ele>
        <time>2020-04-04T18:08:35Z</time>
      </trkpt>
      <trkpt lat="42.3206220" lon="-4.0128450">
        <ele>926.0</ele>
        <time>2020-04-04T18:08:37Z</time>
      </trkpt>
      <trkpt lat="42.3205860" lon="-4.0130260">
        <ele>926.1</ele>
        <time>2020-04-04T18:08:39Z</time>
      </trkpt>
      <trkpt lat="42.3205500" lon="-4.0132010">
        <ele>926.1</ele>
        <time>2020-04-04T18:08:41Z</time>
      </trkpt>
      <trkpt lat="42.3205160" lon="-4.0133720">
        <ele>926.1</ele>
        <time>2020-04-04T18:08:43Z</time>
      </trkpt>
      <trkpt lat="42.3204820" lon="-4.0135370">
        <ele>926.1</ele>
        <time>2020-04-04T18:08:45Z</time>
      </trkpt>
      <trkpt lat="42.3203910" lon="-4.0139940">
        <ele>926.1</ele>
        <time>2020-04-04T18:08:47Z</time>
      </trkpt>
      <trkpt lat="42.3203570" lon="-4.0141840">
        <ele>926.1</ele>
        <time>2020-04-04T18:08:49Z</time>
      </trkpt>
      <trkpt lat="42.3203300" lon="-4.0143470">
        <ele>926.1</ele>
        <time>2020-04-04T18:08:51Z</time>
      </trkpt>
      <trkpt lat="42.3202780" lon="-4.0146430">
        <ele>926.1</ele>
        <time>2020-04-04T18:08:53Z</time>
      </trkpt>
      <trkpt lat="42.3202460" lon="-4.0148080">
        <ele>926.1</ele>
        <time>2020-04-04T18:08:55Z</time>
      </trkpt>
      <trkpt lat="42.3201850" lon="-4.0151080">
        <ele>926.1</ele>
        <time>2020-04-04T18:08:57Z</time>
      </trkpt>
      <trkpt lat="42.3201390" lon="-4.0152780">
        <ele>926.1</ele>
        <time>2020-04-04T18:08:59Z</time>
      </trkpt>
      <trkpt lat="42.3200650" lon="-4.0155520">
        <ele>926.1</ele>
        <time>2020-04-04T18:09:01Z</time>
      </trkpt>
      <trkpt lat="42.3199910" lon="-4.0158060">
        <ele>926.1</ele>
        <time>2020-04-04T18:09:03Z</time>
      </trkpt>
      <trkpt lat="42.3199430" lon="-4.0159760">
        <ele>926.2</ele>
        <time>2020-04-04T18:09:05Z</time>
      </trkpt>
      <trkpt lat="42.3198960" lon="-4.0161410">
        <ele>926.4</ele>
        <time>2020-04-04T18:09:07Z</time>
      </trkpt>
      <trkpt lat="42.3197990" lon="-4.0164800">
        <ele>927.1</ele>
        <time>2020-04-04T18:09:09Z</time>
      </trkpt>
      <trkpt lat="42.3197510" lon="-4.0166380">
        <ele>927.1</ele>
        <time>2020-04-04T18:09:11Z</time>
      </trkpt>
      <trkpt lat="42.3197050" lon="-4.0167910">
        <ele>927.1</ele>
        <time>2020-04-04T18:09:13Z</time>
      </trkpt>
      <trkpt lat="42.3196080" lon="-4.0170750">
        <ele>927.2</ele>
        <time>2020-04-04T18:09:15Z</time>
      </trkpt>
      <trkpt lat="42.3195160" lon="-4.0172660">
        <ele>927.2</ele>
        <time>2020-04-04T18:09:17Z</time>
      </trkpt>
      <trkpt lat="42.3194610" lon="-4.0174130">
        <ele>927.3</ele>
        <time>2020-04-04T18:09:19Z</time>
      </trkpt>
      <trkpt lat="42.3194050" lon="-4.0175640">
        <ele>927.5</ele>
        <time>2020-04-04T18:09:21Z</time>
      </trkpt>
      <trkpt lat="42.3193470" lon="-4.0177200">
        <ele>927.7</ele>
        <time>2020-04-04T18:09:23Z</time>
      </trkpt>
      <trkpt lat="42.3192870" lon="-4.0178800">
        <ele>927.9</ele>
        <time>2020-04-04T18:09:25Z</time>
      </trkpt>
      <trkpt lat="42.3191410" lon="-4.0182720">
        <ele>928.1</ele>
        <time>2020-04-04T18:09:27Z</time>
      </trkpt>
      <trkpt lat="42.3190790" lon="-4.0184370">
        <ele>928.1</ele>
        <time>2020-04-04T18:09:29Z</time>
      </trkpt>
      <trkpt lat="42.3189640" lon="-4.0187480">
        <ele>928.1</ele>
        <time>2020-04-04T18:09:31Z</time>
      </trkpt>
      <trkpt lat="42.3189020" lon="-4.0189110">
        <ele>928.0</ele>
        <time>2020-04-04T18:09:33Z</time>
      </trkpt>
      <trkpt lat="42.3188190" lon="-4.0191590">
        <ele>927.8</ele>
        <time>2020-04-04T18:09:35Z</time>
      </trkpt>
      <trkpt lat="42.3187450" lon="-4.0193650">
        <ele>927.5</ele>
        <time>2020-04-04T18:09:37Z</time>
      </trkpt>
      <trkpt lat="42.3186880" lon="-4.0195140">
        <ele>927.3</ele>
        <time>2020-04-04T18:09:39Z</time>
      </trkpt>
      <trkpt lat="42.3186340" lon="-4.0196600">
        <ele>927.2</ele>
        <time>2020-04-04T18:09:41Z</time>
      </trkpt>
      <trkpt lat="42.3185110" lon="-4.0199840">
        <ele>927.1</ele>
        <time>2020-04-04T18:09:43Z</time>
      </trkpt>
      <trkpt lat="42.3184570" lon="-4.0201290">
        <ele>927.2</ele>
        <time>2020-04-04T18:09:45Z</time>
      </trkpt>
      <trkpt lat="42.3184010" lon="-4.0202790">
        <ele>927.2</ele>
        <time>2020-04-04T18:09:47Z</time>
      </trkpt>
      <trkpt lat="42.3183440" lon="-4.0204320">
        <ele>927.2</ele>
        <time>2020-04-04T18:09:49Z</time>
      </trkpt>
      <trkpt lat="42.3182010" lon="-4.0208170">
        <ele>927.1</ele>
        <time>2020-04-04T18:09:51Z</time>
      </trkpt>
      <trkpt lat="42.3181430" lon="-4.0209740">
        <ele>927.0</ele>
        <time>2020-04-04T18:09:53Z</time>
      </trkpt>
      <trkpt lat="42.3180560" lon="-4.0212040">
        <ele>927.0</ele>
        <time>2020-04-04T18:09:55Z</time>
      </trkpt>
      <trkpt lat="42.3179960" lon="-4.0213630">
        <ele>927.0</ele>
        <time>2020-04-04T18:09:57Z</time>
      </trkpt>
      <trkpt lat="42.3178750" lon="-4.0216790">
        <ele>927.0</ele>
        <time>2020-04-04T18:09:59Z</time>
      </trkpt>
      <trkpt lat="42.3178110" lon="-4.0218380">
        <ele>926.9</ele>
        <time>2020-04-04T18:10:01Z</time>
      </trkpt>
      <trkpt lat="42.3177470" lon="-4.0219990">
        <ele>926.9</ele>
        <time>2020-04-04T18:10:03Z</time>
      </trkpt>
      <trkpt lat="42.3176210" lon="-4.0223140">
        <ele>926.9</ele>
        <time>2020-04-04T18:10:05Z</time>
      </trkpt>
      <trkpt lat="42.3175560" lon="-4.0224780">
        <ele>926.8</ele>
        <time>2020-04-04T18:10:07Z</time>
      </trkpt>
      <trkpt lat="42.3174900" lon="-4.0226430">
        <ele>926.7</ele>
        <time>2020-04-04T18:10:09Z</time>
      </trkpt>
      <trkpt lat="42.3173610" lon="-4.0229580">
        <ele>926.4</ele>
        <time>2020-04-04T18:10:11Z</time>
      </trkpt>
      <trkpt lat="42.3172650" lon="-4.0231790">
        <ele>926.2</ele>
        <time>2020-04-04T18:10:13Z</time>
      </trkpt>
      <trkpt lat="42.3171970" lon="-4.0233310">
        <ele>926.2</ele>
        <time>2020-04-04T18:10:15Z</time>
      </trkpt>
      <trkpt lat="42.3171290" lon="-4.0234820">
        <ele>926.4</ele>
        <time>2020-04-04T18:10:17Z</time>
      </trkpt>
      <trkpt lat="42.3169870" lon="-4.0238020">
        <ele>926.6</ele>
        <time>2020-04-04T18:10:19Z</time>
      </trkpt>
      <trkpt lat="42.3168990" lon="-4.0240040">
        <ele>926.6</ele>
        <time>2020-04-04T18:10:21Z</time>
      </trkpt>
      <trkpt lat="42.3168340" lon="-4.0241540">
        <ele>926.4</ele>
        <time>2020-04-04T18:10:23Z</time>
      </trkpt>
      <trkpt lat="42.3167250" lon="-4.0244120">
        <ele>925.9</ele>
        <time>2020-04-04T18:10:25Z</time>
      </trkpt>
      <trkpt lat="42.3166610" lon="-4.0245690">
        <ele>925.2</ele>
        <time>2020-04-04T18:10:27Z</time>
      </trkpt>
      <trkpt lat="42.3165560" lon="-4.0248030">
        <ele>924.8</ele>
        <time>2020-04-04T18:10:29Z</time>
      </trkpt>
      <trkpt lat="42.3164840" lon="-4.0249580">
        <ele>924.8</ele>
        <time>2020-04-04T18:10:31Z</time>
      </trkpt>
      <trkpt lat="42.3163460" lon="-4.0252570">
        <ele>924.3</ele>
        <time>2020-04-04T18:10:33Z</time>
      </trkpt>
      <trkpt lat="42.3162800" lon="-4.0254200">
        <ele>924.1</ele>
        <time>2020-04-04T18:10:35Z</time>
      </trkpt>
      <trkpt lat="42.3162130" lon="-4.0255860">
        <ele>924.0</ele>
        <time>2020-04-04T18:10:37Z</time>
      </trkpt>
      <trkpt lat="42.3160770" lon="-4.0259200">
        <ele>923.5</ele>
        <time>2020-04-04T18:10:39Z</time>
      </trkpt>
      <trkpt lat="42.3159710" lon="-4.0261550">
        <ele>923.1</ele>
        <time>2020-04-04T18:10:41Z</time>
      </trkpt>
      <trkpt lat="42.3158570" lon="-4.0263480">
        <ele>922.8</ele>
        <time>2020-04-04T18:10:43Z</time>
      </trkpt>
      <trkpt lat="42.3157490" lon="-4.0265770">
        <ele>922.6</ele>
        <time>2020-04-04T18:10:45Z</time>
      </trkpt>
      <trkpt lat="42.3156780" lon="-4.0267410">
        <ele>922.1</ele>
        <time>2020-04-04T18:10:47Z</time>
      </trkpt>
      <trkpt lat="42.3156100" lon="-4.0269000">
        <ele>921.8</ele>
        <time>2020-04-04T18:10:49Z</time>
      </trkpt>
      <trkpt lat="42.3155420" lon="-4.0270560">
        <ele>921.6</ele>
        <time>2020-04-04T18:10:51Z</time>
      </trkpt>
      <trkpt lat="42.3153800" lon="-4.0274360">
        <ele>920.8</ele>
        <time>2020-04-04T18:10:53Z</time>
      </trkpt>
      <trkpt lat="42.3153190" lon="-4.0275950">
        <ele>920.7</ele>
        <time>2020-04-04T18:10:55Z</time>
      </trkpt>
      <trkpt lat="42.3152580" lon="-4.0277540">
        <ele>920.7</ele>
        <time>2020-04-04T18:10:57Z</time>
      </trkpt>
      <trkpt lat="42.3151520" lon="-4.0280310">
        <ele>920.6</ele>
        <time>2020-04-04T18:10:59Z</time>
      </trkpt>
      <trkpt lat="42.3150740" lon="-4.0282590">
        <ele>920.6</ele>
        <time>2020-04-04T18:11:01Z</time>
      </trkpt>
      <trkpt lat="42.3150220" lon="-4.0284170">
        <ele>920.4</ele>
        <time>2020-04-04T18:11:03Z</time>
      </trkpt>
      <trkpt lat="42.3149240" lon="-4.0287110">
        <ele>920.2</ele>
        <time>2020-04-04T18:11:05Z</time>
      </trkpt>
      <trkpt lat="42.3148600" lon="-4.0288930">
        <ele>920.3</ele>
        <time>2020-04-04T18:11:07Z</time>
      </trkpt>
      <trkpt lat="42.3148070" lon="-4.0290440">
        <ele>920.3</ele>
        <time>2020-04-04T18:11:09Z</time>
      </trkpt>
      <trkpt lat="42.3147070" lon="-4.0293290">
        <ele>920.4</ele>
        <time>2020-04-04T18:11:11Z</time>
      </trkpt>
      <trkpt lat="42.3146040" lon="-4.0295000">
        <ele>920.2</ele>
        <time>2020-04-04T18:11:13Z</time>
      </trkpt>
      <trkpt lat="42.3145010" lon="-4.0295950">
        <ele>919.8</ele>
        <time>2020-04-04T18:11:15Z</time>
      </trkpt>
      <trkpt lat="42.3143500" lon="-4.0297280">
        <ele>919.1</ele>
        <time>2020-04-04T18:11:17Z</time>
      </trkpt>
      <trkpt lat="42.3141910" lon="-4.0299070">
        <ele>918.8</ele>
        <time>2020-04-04T18:11:19Z</time>
      </trkpt>
      <trkpt lat="42.3141310" lon="-4.0301340">
        <ele>919.0</ele>
        <time>2020-04-04T18:11:21Z</time>
      </trkpt>
      <trkpt lat="42.3141380" lon="-4.0303440">
        <ele>919.4</ele>
        <time>2020-04-04T18:11:23Z</time>
      </trkpt>
      <trkpt lat="42.3141630" lon="-4.0306000">
        <ele>920.0</ele>
        <time>2020-04-04T18:11:25Z</time>
      </trkpt>
      <trkpt lat="42.3141440" lon="-4.0308000">
        <ele>920.3</ele>
        <time>2020-04-04T18:11:27Z</time>
      </trkpt>
      <trkpt lat="42.3140990" lon="-4.0309920">
        <ele>920.5</ele>
        <time>2020-04-04T18:11:29Z</time>
      </trkpt>
      <trkpt lat="42.3140610" lon="-4.0311500">
        <ele>920.6</ele>
        <time>2020-04-04T18:11:31Z</time>
      </trkpt>
      <trkpt lat="42.3140220" lon="-4.0313070">
        <ele>920.5</ele>
        <time>2020-04-04T18:11:33Z</time>
      </trkpt>
      <trkpt lat="42.3139400" lon="-4.0316430">
        <ele>920.2</ele>
        <time>2020-04-04T18:11:35Z</time>
      </trkpt>
      <trkpt lat="42.3139020" lon="-4.0317990">
        <ele>920.1</ele>
        <time>2020-04-04T18:11:37Z</time>
      </trkpt>
      <trkpt lat="42.3138280" lon="-4.0321050">
        <ele>920.2</ele>
        <time>2020-04-04T18:11:39Z</time>
      </trkpt>
      <trkpt lat="42.3137810" lon="-4.0323210">
        <ele>920.4</ele>
        <time>2020-04-04T18:11:41Z</time>
      </trkpt>
      <trkpt lat="42.3137440" lon="-4.0325430">
        <ele>920.4</ele>
        <time>2020-04-04T18:11:43Z</time>
      </trkpt>
      <trkpt lat="42.3137150" lon="-4.0327680">
        <ele>920.2</ele>
        <time>2020-04-04T18:11:45Z</time>
      </trkpt>
      <trkpt lat="42.3137020" lon="-4.0329330">
        <ele>919.9</ele>
        <time>2020-04-04T18:11:47Z</time>
      </trkpt>
      <trkpt lat="42.3136840" lon="-4.0331870">
        <ele>919.5</ele>
        <time>2020-04-04T18:11:49Z</time>
      </trkpt>
      <trkpt lat="42.3136720" lon="-4.0333430">
        <ele>919.5</ele>
        <time>2020-04-04T18:11:51Z</time>
      </trkpt>
      <trkpt lat="42.3136480" lon="-4.0335750">
        <ele>919.4</ele>
        <time>2020-04-04T18:11:53Z</time>
      </trkpt>
      <trkpt lat="42.3136200" lon="-4.0337820">
        <ele>919.4</ele>
        <time>2020-04-04T18:11:55Z</time>
      </trkpt>
      <trkpt lat="42.3135900" lon="-4.0339350">
        <ele>919.6</ele>
        <time>2020-04-04T18:11:57Z</time>
      </trkpt>
      <trkpt lat="42.3135650" lon="-4.0340370">
        <ele>919.8</ele>
        <time>2020-04-04T18:11:59Z</time>
      </trkpt>
      <trkpt lat="42.3135270" lon="-4.0341970">
        <ele>920.0</ele>
        <time>2020-04-04T18:12:01Z</time>
      </trkpt>
      <trkpt lat="42.3135100" lon="-4.0342670">
        <ele>920.1</ele>
        <time>2020-04-04T18:12:03Z</time>
      </trkpt>
      <trkpt lat="42.3134970" lon="-4.0343230">
        <ele>920.2</ele>
        <time>2020-04-04T18:12:05Z</time>
      </trkpt>
      <trkpt lat="42.3134880" lon="-4.0343580">
        <ele>920.3</ele>
        <time>2020-04-04T18:12:07Z</time>
      </trkpt>
      <trkpt lat="42.3134880" lon="-4.0343590">
        <ele>920.3</ele>
        <time>2020-04-04T18:12:09Z</time>
      </trkpt>
      <trkpt lat="42.3134880" lon="-4.0343590">
        <ele>920.3</ele>
        <time>2020-04-04T18:12:11Z</time>
      </trkpt>
      <trkpt lat="42.3134880" lon="-4.0343590">
        <ele>920.3</ele>
        <time>2020-04-04T18:12:13Z</time>
      </trkpt>
      <trkpt lat="42.3134880" lon="-4.0343590">
        <ele>920.3</ele>
        <time>2020-04-04T18:12:15Z</time>
      </trkpt>
      <trkpt lat="42.3134880" lon="-4.0343590">
        <ele>920.3</ele>
        <time>2020-04-04T18:12:17Z</time>
      </trkpt>
      <trkpt lat="42.3134880" lon="-4.0343590">
        <ele>920.3</ele>
        <time>2020-04-04T18:12:19Z</time>
      </trkpt>
      <trkpt lat="42.3134880" lon="-4.0343590">
        <ele>920.3</ele>
        <time>2020-04-04T18:12:21Z</time>
      </trkpt>
      <trkpt lat="42.3134880" lon="-4.0343590">
        <ele>920.3</ele>
        <time>2020-04-04T18:12:23Z</time>
      </trkpt>
      <trkpt lat="42.3134880" lon="-4.0343590">
        <ele>920.3</ele>
        <time>2020-04-04T18:12:25Z</time>
      </trkpt>
      <trkpt lat="42.3134880" lon="-4.0343590">
        <ele>920.3</ele>
        <time>2020-04-04T18:12:27Z</time>
      </trkpt>
      <trkpt lat="42.3134880" lon="-4.0343590">
        <ele>920.3</ele>
        <time>2020-04-04T18:12:29Z</time>
      </trkpt>
      <trkpt lat="42.3134880" lon="-4.0343590">
        <ele>920.3</ele>
        <time>2020-04-04T18:12:31Z</time>
      </trkpt>
      <trkpt lat="42.3134880" lon="-4.0343590">
        <ele>920.3</ele>
        <time>2020-04-04T18:12:33Z</time>
      </trkpt>
      <trkpt lat="42.3134880" lon="-4.0343590">
        <ele>920.3</ele>
        <time>2020-04-04T18:12:35Z</time>
      </trkpt>
      <trkpt lat="42.3134880" lon="-4.0343600">
        <ele>920.3</ele>
        <time>2020-04-04T18:12:37Z</time>
      </trkpt>
      <trkpt lat="42.3134870" lon="-4.0343630">
        <ele>920.3</ele>
        <time>2020-04-04T18:12:39Z</time>
      </trkpt>
      <trkpt lat="42.3134860" lon="-4.0343690">
        <ele>920.3</ele>
        <time>2020-04-04T18:12:41Z</time>
      </trkpt>
      <trkpt lat="42.3134840" lon="-4.0343770">
        <ele>920.3</ele>
        <time>2020-04-04T18:12:43Z</time>
      </trkpt>
      <trkpt lat="42.3134820" lon="-4.0343850">
        <ele>920.3</ele>
        <time>2020-04-04T18:12:45Z</time>
      </trkpt>
      <trkpt lat="42.3134740" lon="-4.0344200">
        <ele>920.3</ele>
        <time>2020-04-04T18:12:47Z</time>
      </trkpt>
      <trkpt lat="42.3134580" lon="-4.0344860">
        <ele>920.3</ele>
        <time>2020-04-04T18:12:49Z</time>
      </trkpt>
      <trkpt lat="42.3134090" lon="-4.0347070">
        <ele>920.4</ele>
        <time>2020-04-04T18:12:51Z</time>
      </trkpt>
      <trkpt lat="42.3133930" lon="-4.0348120">
        <ele>920.4</ele>
        <time>2020-04-04T18:12:53Z</time>
      </trkpt>
      <trkpt lat="42.3133750" lon="-4.0349290">
        <ele>920.4</ele>
        <time>2020-04-04T18:12:55Z</time>
      </trkpt>
      <trkpt lat="42.3133360" lon="-4.0351520">
        <ele>920.3</ele>
        <time>2020-04-04T18:12:57Z</time>
      </trkpt>
      <trkpt lat="42.3132960" lon="-4.0353620">
        <ele>920.3</ele>
        <time>2020-04-04T18:12:59Z</time>
      </trkpt>
      <trkpt lat="42.3132630" lon="-4.0355400">
        <ele>920.3</ele>
        <time>2020-04-04T18:13:01Z</time>
      </trkpt>
      <trkpt lat="42.3132360" lon="-4.0356870">
        <ele>920.4</ele>
        <time>2020-04-04T18:13:03Z</time>
      </trkpt>
      <trkpt lat="42.3131860" lon="-4.0359570">
        <ele>920.4</ele>
        <time>2020-04-04T18:13:05Z</time>
      </trkpt>
      <trkpt lat="42.3131570" lon="-4.0361200">
        <ele>920.4</ele>
        <time>2020-04-04T18:13:07Z</time>
      </trkpt>
      <trkpt lat="42.3131270" lon="-4.0362910">
        <ele>920.3</ele>
        <time>2020-04-04T18:13:09Z</time>
      </trkpt>
      <trkpt lat="42.3130660" lon="-4.0366280">
        <ele>919.8</ele>
        <time>2020-04-04T18:13:11Z</time>
      </trkpt>
      <trkpt lat="42.3130300" lon="-4.0368060">
        <ele>919.6</ele>
        <time>2020-04-04T18:13:13Z</time>
      </trkpt>
      <trkpt lat="42.3129680" lon="-4.0371170">
        <ele>919.3</ele>
        <time>2020-04-04T18:13:15Z</time>
      </trkpt>
      <trkpt lat="42.3129340" lon="-4.0372900">
        <ele>919.1</ele>
        <time>2020-04-04T18:13:17Z</time>
      </trkpt>
      <trkpt lat="42.3128940" lon="-4.0375490">
        <ele>918.9</ele>
        <time>2020-04-04T18:13:19Z</time>
      </trkpt>
      <trkpt lat="42.3128640" lon="-4.0377900">
        <ele>918.8</ele>
        <time>2020-04-04T18:13:21Z</time>
      </trkpt>
      <trkpt lat="42.3128240" lon="-4.0380440">
        <ele>918.7</ele>
        <time>2020-04-04T18:13:23Z</time>
      </trkpt>
      <trkpt lat="42.3127480" lon="-4.0382350">
        <ele>918.7</ele>
        <time>2020-04-04T18:13:25Z</time>
      </trkpt>
      <trkpt lat="42.3126510" lon="-4.0384030">
        <ele>918.9</ele>
        <time>2020-04-04T18:13:27Z</time>
      </trkpt>
      <trkpt lat="42.3126220" lon="-4.0385970">
        <ele>919.4</ele>
        <time>2020-04-04T18:13:29Z</time>
      </trkpt>
      <trkpt lat="42.3126020" lon="-4.0388620">
        <ele>919.1</ele>
        <time>2020-04-04T18:13:31Z</time>
      </trkpt>
      <trkpt lat="42.3125860" lon="-4.0391530">
        <ele>917.8</ele>
        <time>2020-04-04T18:13:33Z</time>
      </trkpt>
      <trkpt lat="42.3125440" lon="-4.0394140">
        <ele>916.1</ele>
        <time>2020-04-04T18:13:35Z</time>
      </trkpt>
      <trkpt lat="42.3124890" lon="-4.0396940">
        <ele>914.3</ele>
        <time>2020-04-04T18:13:37Z</time>
      </trkpt>
      <trkpt lat="42.3124850" lon="-4.0399930">
        <ele>912.7</ele>
        <time>2020-04-04T18:13:39Z</time>
      </trkpt>
      <trkpt lat="42.3124830" lon="-4.0402900">
        <ele>910.9</ele>
        <time>2020-04-04T18:13:41Z</time>
      </trkpt>
      <trkpt lat="42.3125350" lon="-4.0406500">
        <ele>908.8</ele>
        <time>2020-04-04T18:13:43Z</time>
      </trkpt>
      <trkpt lat="42.3126480" lon="-4.0410010">
        <ele>905.9</ele>
        <time>2020-04-04T18:13:45Z</time>
      </trkpt>
      <trkpt lat="42.3127040" lon="-4.0413190">
        <ele>903.3</ele>
        <time>2020-04-04T18:13:47Z</time>
      </trkpt>
      <trkpt lat="42.3127410" lon="-4.0417520">
        <ele>898.8</ele>
        <time>2020-04-04T18:13:49Z</time>
      </trkpt>
      <trkpt lat="42.3127390" lon="-4.0421440">
        <ele>895.8</ele>
        <time>2020-04-04T18:13:51Z</time>
      </trkpt>
      <trkpt lat="42.3127300" lon="-4.0426020">
        <ele>891.5</ele>
        <time>2020-04-04T18:13:53Z</time>
      </trkpt>
      <trkpt lat="42.3127220" lon="-4.0430260">
        <ele>888.0</ele>
        <time>2020-04-04T18:13:55Z</time>
      </trkpt>
      <trkpt lat="42.3127230" lon="-4.0434280">
        <ele>885.2</ele>
        <time>2020-04-04T18:13:57Z</time>
      </trkpt>
      <trkpt lat="42.3127260" lon="-4.0438100">
        <ele>881.8</ele>
        <time>2020-04-04T18:13:59Z</time>
      </trkpt>
      <trkpt lat="42.3127140" lon="-4.0442370">
        <ele>877.8</ele>
        <time>2020-04-04T18:14:01Z</time>
      </trkpt>
      <trkpt lat="42.3127000" lon="-4.0446340">
        <ele>873.4</ele>
        <time>2020-04-04T18:14:03Z</time>
      </trkpt>
      <trkpt lat="42.3126530" lon="-4.0450470">
        <ele>869.4</ele>
        <time>2020-04-04T18:14:05Z</time>
      </trkpt>
      <trkpt lat="42.3126850" lon="-4.0454010">
        <ele>867.8</ele>
        <time>2020-04-04T18:14:07Z</time>
      </trkpt>
      <trkpt lat="42.3127700" lon="-4.0456960">
        <ele>866.8</ele>
        <time>2020-04-04T18:14:09Z</time>
      </trkpt>
      <trkpt lat="42.3129150" lon="-4.0460700">
        <ele>865.6</ele>
        <time>2020-04-04T18:14:11Z</time>
      </trkpt>
      <trkpt lat="42.3130770" lon="-4.0463520">
        <ele>864.3</ele>
        <time>2020-04-04T18:14:13Z</time>
      </trkpt>
      <trkpt lat="42.3132000" lon="-4.0465390">
        <ele>863.3</ele>
        <time>2020-04-04T18:14:15Z</time>
      </trkpt>
      <trkpt lat="42.3133860" lon="-4.0468270">
        <ele>861.4</ele>
        <time>2020-04-04T18:14:17Z</time>
      </trkpt>
      <trkpt lat="42.3135530" lon="-4.0471300">
        <ele>859.4</ele>
        <time>2020-04-04T18:14:19Z</time>
      </trkpt>
      <trkpt lat="42.3136310" lon="-4.0474360">
        <ele>858.1</ele>
        <time>2020-04-04T18:14:21Z</time>
      </trkpt>
      <trkpt lat="42.3136550" lon="-4.0476590">
        <ele>857.3</ele>
        <time>2020-04-04T18:14:23Z</time>
      </trkpt>
      <trkpt lat="42.3136900" lon="-4.0480070">
        <ele>856.4</ele>
        <time>2020-04-04T18:14:25Z</time>
      </trkpt>
      <trkpt lat="42.3137150" lon="-4.0482580">
        <ele>855.2</ele>
        <time>2020-04-04T18:14:27Z</time>
      </trkpt>
      <trkpt lat="42.3137700" lon="-4.0485470">
        <ele>853.4</ele>
        <time>2020-04-04T18:14:29Z</time>
      </trkpt>
      <trkpt lat="42.3138390" lon="-4.0487430">
        <ele>852.2</ele>
        <time>2020-04-04T18:14:31Z</time>
      </trkpt>
      <trkpt lat="42.3139090" lon="-4.0489440">
        <ele>851.1</ele>
        <time>2020-04-04T18:14:33Z</time>
      </trkpt>
      <trkpt lat="42.3140560" lon="-4.0493700">
        <ele>849.4</ele>
        <time>2020-04-04T18:14:35Z</time>
      </trkpt>
      <trkpt lat="42.3140180" lon="-4.0496770">
        <ele>848.8</ele>
        <time>2020-04-04T18:14:37Z</time>
      </trkpt>
      <trkpt lat="42.3139560" lon="-4.0499340">
        <ele>848.2</ele>
        <time>2020-04-04T18:14:39Z</time>
      </trkpt>
      <trkpt lat="42.3138620" lon="-4.0502800">
        <ele>846.9</ele>
        <time>2020-04-04T18:14:41Z</time>
      </trkpt>
      <trkpt lat="42.3138090" lon="-4.0505020">
        <ele>846.0</ele>
        <time>2020-04-04T18:14:43Z</time>
      </trkpt>
      <trkpt lat="42.3137470" lon="-4.0508350">
        <ele>845.0</ele>
        <time>2020-04-04T18:14:45Z</time>
      </trkpt>
      <trkpt lat="42.3137280" lon="-4.0511610">
        <ele>844.4</ele>
        <time>2020-04-04T18:14:47Z</time>
      </trkpt>
      <trkpt lat="42.3137500" lon="-4.0513610">
        <ele>844.3</ele>
        <time>2020-04-04T18:14:49Z</time>
      </trkpt>
      <trkpt lat="42.3137850" lon="-4.0516330">
        <ele>844.6</ele>
        <time>2020-04-04T18:14:51Z</time>
      </trkpt>
      <trkpt lat="42.3138230" lon="-4.0519150">
        <ele>845.1</ele>
        <time>2020-04-04T18:14:53Z</time>
      </trkpt>
      <trkpt lat="42.3138460" lon="-4.0521220">
        <ele>845.4</ele>
        <time>2020-04-04T18:14:55Z</time>
      </trkpt>
      <trkpt lat="42.3138650" lon="-4.0522860">
        <ele>845.8</ele>
        <time>2020-04-04T18:14:57Z</time>
      </trkpt>
      <trkpt lat="42.3138970" lon="-4.0525520">
        <ele>846.7</ele>
        <time>2020-04-04T18:14:59Z</time>
      </trkpt>
      <trkpt lat="42.3139160" lon="-4.0527040">
        <ele>847.4</ele>
        <time>2020-04-04T18:15:01Z</time>
      </trkpt>
      <trkpt lat="42.3139430" lon="-4.0529650">
        <ele>848.7</ele>
        <time>2020-04-04T18:15:03Z</time>
      </trkpt>
      <trkpt lat="42.3139510" lon="-4.0531870">
        <ele>849.7</ele>
        <time>2020-04-04T18:15:05Z</time>
      </trkpt>
      <trkpt lat="42.3139900" lon="-4.0533700">
        <ele>850.6</ele>
        <time>2020-04-04T18:15:07Z</time>
      </trkpt>
      <trkpt lat="42.3140060" lon="-4.0535330">
        <ele>851.1</ele>
        <time>2020-04-04T18:15:09Z</time>
      </trkpt>
      <trkpt lat="42.3139710" lon="-4.0536710">
        <ele>851.1</ele>
        <time>2020-04-04T18:15:11Z</time>
      </trkpt>
      <trkpt lat="42.3139350" lon="-4.0538170">
        <ele>851.2</ele>
        <time>2020-04-04T18:15:13Z</time>
      </trkpt>
      <trkpt lat="42.3138980" lon="-4.0539680">
        <ele>851.3</ele>
        <time>2020-04-04T18:15:15Z</time>
      </trkpt>
      <trkpt lat="42.3138150" lon="-4.0543130">
        <ele>851.5</ele>
        <time>2020-04-04T18:15:17Z</time>
      </trkpt>
      <trkpt lat="42.3137790" lon="-4.0544740">
        <ele>851.3</ele>
        <time>2020-04-04T18:15:19Z</time>
      </trkpt>
      <trkpt lat="42.3137420" lon="-4.0546370">
        <ele>851.1</ele>
        <time>2020-04-04T18:15:21Z</time>
      </trkpt>
      <trkpt lat="42.3136700" lon="-4.0549880">
        <ele>851.0</ele>
        <time>2020-04-04T18:15:23Z</time>
      </trkpt>
      <trkpt lat="42.3136490" lon="-4.0551360">
        <ele>850.9</ele>
        <time>2020-04-04T18:15:25Z</time>
      </trkpt>
      <trkpt lat="42.3136300" lon="-4.0552730">
        <ele>850.7</ele>
        <time>2020-04-04T18:15:27Z</time>
      </trkpt>
      <trkpt lat="42.3135850" lon="-4.0555500">
        <ele>850.2</ele>
        <time>2020-04-04T18:15:29Z</time>
      </trkpt>
      <trkpt lat="42.3135620" lon="-4.0556580">
        <ele>850.1</ele>
        <time>2020-04-04T18:15:31Z</time>
      </trkpt>
      <trkpt lat="42.3135420" lon="-4.0557480">
        <ele>850.1</ele>
        <time>2020-04-04T18:15:33Z</time>
      </trkpt>
      <trkpt lat="42.3135260" lon="-4.0558200">
        <ele>850.2</ele>
        <time>2020-04-04T18:15:35Z</time>
      </trkpt>
      <trkpt lat="42.3135150" lon="-4.0558740">
        <ele>850.2</ele>
        <time>2020-04-04T18:15:37Z</time>
      </trkpt>
      <trkpt lat="42.3135130" lon="-4.0558800">
        <ele>850.2</ele>
        <time>2020-04-04T18:15:39Z</time>
      </trkpt>
      <trkpt lat="42.3135130" lon="-4.0558800">
        <ele>850.2</ele>
        <time>2020-04-04T18:15:41Z</time>
      </trkpt>
      <trkpt lat="42.3135130" lon="-4.0558800">
        <ele>850.2</ele>
        <time>2020-04-04T18:15:43Z</time>
      </trkpt>
      <trkpt lat="42.3135130" lon="-4.0558800">
        <ele>850.2</ele>
        <time>2020-04-04T18:15:45Z</time>
      </trkpt>
      <trkpt lat="42.3135130" lon="-4.0558800">
        <ele>850.2</ele>
        <time>2020-04-04T18:15:47Z</time>
      </trkpt>
      <trkpt lat="42.3135130" lon="-4.0558800">
        <ele>850.2</ele>
        <time>2020-04-04T18:15:49Z</time>
      </trkpt>
      <trkpt lat="42.3135130" lon="-4.0558800">
        <ele>850.2</ele>
        <time>2020-04-04T18:15:51Z</time>
      </trkpt>
      <trkpt lat="42.3135130" lon="-4.0558800">
        <ele>850.2</ele>
        <time>2020-04-04T18:15:53Z</time>
      </trkpt>
      <trkpt lat="42.3135130" lon="-4.0558800">
        <ele>850.2</ele>
        <time>2020-04-04T18:15:55Z</time>
      </trkpt>
      <trkpt lat="42.3135130" lon="-4.0558800">
        <ele>850.2</ele>
        <time>2020-04-04T18:15:57Z</time>
      </trkpt>
      <trkpt lat="42.3135130" lon="-4.0558800">
        <ele>850.2</ele>
        <time>2020-04-04T18:15:59Z</time>
      </trkpt>
      <trkpt lat="42.3135130" lon="-4.0558800">
        <ele>850.2</ele>
        <time>2020-04-04T18:16:01Z</time>
      </trkpt>
      <trkpt lat="42.3135130" lon="-4.0558800">
        <ele>850.2</ele>
        <time>2020-04-04T18:16:03Z</time>
      </trkpt>
      <trkpt lat="42.3135130" lon="-4.0558800">
        <ele>850.2</ele>
        <time>2020-04-04T18:16:05Z</time>
      </trkpt>
      <trkpt lat="42.3135130" lon="-4.0558800">
        <ele>850.2</ele>
        <time>2020-04-04T18:16:07Z</time>
      </trkpt>
      <trkpt lat="42.3135130" lon="-4.0558800">
        <ele>850.2</ele>
        <time>2020-04-04T18:16:09Z</time>
      </trkpt>
      <trkpt lat="42.3135130" lon="-4.0558800">
        <ele>850.2</ele>
        <time>2020-04-04T18:16:11Z</time>
      </trkpt>
      <trkpt lat="42.3135130" lon="-4.0558800">
        <ele>850.2</ele>
        <time>2020-04-04T18:16:13Z</time>
      </trkpt>
      <trkpt lat="42.3135130" lon="-4.0558800">
        <ele>850.2</ele>
        <time>2020-04-04T18:16:15Z</time>
      </trkpt>
      <trkpt lat="42.3135130" lon="-4.0558800">
        <ele>850.2</ele>
        <time>2020-04-04T18:16:17Z</time>
      </trkpt>
      <trkpt lat="42.3135130" lon="-4.0558800">
        <ele>850.2</ele>
        <time>2020-04-04T18:16:19Z</time>
      </trkpt>
      <trkpt lat="42.3135130" lon="-4.0558800">
        <ele>850.2</ele>
        <time>2020-04-04T18:16:21Z</time>
      </trkpt>
      <trkpt lat="42.3135130" lon="-4.0558810">
        <ele>850.2</ele>
        <time>2020-04-04T18:16:23Z</time>
      </trkpt>
      <trkpt lat="42.3135110" lon="-4.0558880">
        <ele>850.2</ele>
        <time>2020-04-04T18:16:25Z</time>
      </trkpt>
      <trkpt lat="42.3135090" lon="-4.0559020">
        <ele>850.2</ele>
        <time>2020-04-04T18:16:27Z</time>
      </trkpt>
      <trkpt lat="42.3134750" lon="-4.0560540">
        <ele>850.5</ele>
        <time>2020-04-04T18:16:29Z</time>
      </trkpt>
      <trkpt lat="42.3134730" lon="-4.0560710">
        <ele>850.5</ele>
        <time>2020-04-04T18:16:31Z</time>
      </trkpt>
      <trkpt lat="42.3134640" lon="-4.0561190">
        <ele>850.6</ele>
        <time>2020-04-04T18:16:33Z</time>
      </trkpt>
      <trkpt lat="42.3134500" lon="-4.0562030">
        <ele>850.6</ele>
        <time>2020-04-04T18:16:35Z</time>
      </trkpt>
      <trkpt lat="42.3134320" lon="-4.0563090">
        <ele>850.6</ele>
        <time>2020-04-04T18:16:37Z</time>
      </trkpt>
      <trkpt lat="42.3133880" lon="-4.0565360">
        <ele>850.5</ele>
        <time>2020-04-04T18:16:39Z</time>
      </trkpt>
      <trkpt lat="42.3133380" lon="-4.0566990">
        <ele>850.5</ele>
        <time>2020-04-04T18:16:41Z</time>
      </trkpt>
      <trkpt lat="42.3132960" lon="-4.0568210">
        <ele>850.5</ele>
        <time>2020-04-04T18:16:43Z</time>
      </trkpt>
      <trkpt lat="42.3132520" lon="-4.0569470">
        <ele>850.3</ele>
        <time>2020-04-04T18:16:45Z</time>
      </trkpt>
      <trkpt lat="42.3131510" lon="-4.0572220">
        <ele>850.0</ele>
        <time>2020-04-04T18:16:47Z</time>
      </trkpt>
      <trkpt lat="42.3131030" lon="-4.0573500">
        <ele>849.9</ele>
        <time>2020-04-04T18:16:49Z</time>
      </trkpt>
      <trkpt lat="42.3130530" lon="-4.0574820">
        <ele>850.0</ele>
        <time>2020-04-04T18:16:51Z</time>
      </trkpt>
      <trkpt lat="42.3129500" lon="-4.0577540">
        <ele>850.6</ele>
        <time>2020-04-04T18:16:53Z</time>
      </trkpt>
      <trkpt lat="42.3129140" lon="-4.0578900">
        <ele>851.1</ele>
        <time>2020-04-04T18:16:55Z</time>
      </trkpt>
      <trkpt lat="42.3128650" lon="-4.0580790">
        <ele>851.8</ele>
        <time>2020-04-04T18:16:57Z</time>
      </trkpt>
      <trkpt lat="42.3128300" lon="-4.0582160">
        <ele>852.3</ele>
        <time>2020-04-04T18:16:59Z</time>
      </trkpt>
      <trkpt lat="42.3127930" lon="-4.0583580">
        <ele>852.7</ele>
        <time>2020-04-04T18:17:01Z</time>
      </trkpt>
      <trkpt lat="42.3127560" lon="-4.0585040">
        <ele>853.2</ele>
        <time>2020-04-04T18:17:03Z</time>
      </trkpt>
      <trkpt lat="42.3126460" lon="-4.0588540">
        <ele>853.7</ele>
        <time>2020-04-04T18:17:05Z</time>
      </trkpt>
      <trkpt lat="42.3125870" lon="-4.0589900">
        <ele>853.6</ele>
        <time>2020-04-04T18:17:07Z</time>
      </trkpt>
      <trkpt lat="42.3125280" lon="-4.0591300">
        <ele>853.4</ele>
        <time>2020-04-04T18:17:09Z</time>
      </trkpt>
      <trkpt lat="42.3124050" lon="-4.0594310">
        <ele>853.2</ele>
        <time>2020-04-04T18:17:11Z</time>
      </trkpt>
      <trkpt lat="42.3123590" lon="-4.0595800">
        <ele>853.4</ele>
        <time>2020-04-04T18:17:13Z</time>
      </trkpt>
      <trkpt lat="42.3122810" lon="-4.0598290">
        <ele>853.7</ele>
        <time>2020-04-04T18:17:15Z</time>
      </trkpt>
      <trkpt lat="42.3122040" lon="-4.0600460">
        <ele>853.7</ele>
        <time>2020-04-04T18:17:17Z</time>
      </trkpt>
      <trkpt lat="42.3121540" lon="-4.0602390">
        <ele>853.7</ele>
        <time>2020-04-04T18:17:19Z</time>
      </trkpt>
      <trkpt lat="42.3121250" lon="-4.0603960">
        <ele>853.7</ele>
        <time>2020-04-04T18:17:21Z</time>
      </trkpt>
      <trkpt lat="42.3120530" lon="-4.0606500">
        <ele>853.6</ele>
        <time>2020-04-04T18:17:23Z</time>
      </trkpt>
      <trkpt lat="42.3119560" lon="-4.0608260">
        <ele>853.5</ele>
        <time>2020-04-04T18:17:25Z</time>
      </trkpt>
      <trkpt lat="42.3118390" lon="-4.0610100">
        <ele>853.5</ele>
        <time>2020-04-04T18:17:27Z</time>
      </trkpt>
      <trkpt lat="42.3117710" lon="-4.0611460">
        <ele>853.6</ele>
        <time>2020-04-04T18:17:29Z</time>
      </trkpt>
      <trkpt lat="42.3117030" lon="-4.0612830">
        <ele>853.6</ele>
        <time>2020-04-04T18:17:31Z</time>
      </trkpt>
      <trkpt lat="42.3116360" lon="-4.0614180">
        <ele>853.6</ele>
        <time>2020-04-04T18:17:33Z</time>
      </trkpt>
      <trkpt lat="42.3114780" lon="-4.0617460">
        <ele>853.6</ele>
        <time>2020-04-04T18:17:35Z</time>
      </trkpt>
      <trkpt lat="42.3114210" lon="-4.0619000">
        <ele>853.6</ele>
        <time>2020-04-04T18:17:37Z</time>
      </trkpt>
      <trkpt lat="42.3113190" lon="-4.0621580">
        <ele>853.2</ele>
        <time>2020-04-04T18:17:39Z</time>
      </trkpt>
      <trkpt lat="42.3112420" lon="-4.0623230">
        <ele>852.8</ele>
        <time>2020-04-04T18:17:41Z</time>
      </trkpt>
      <trkpt lat="42.3111130" lon="-4.0625710">
        <ele>852.1</ele>
        <time>2020-04-04T18:17:43Z</time>
      </trkpt>
      <trkpt lat="42.3110040" lon="-4.0628750">
        <ele>851.0</ele>
        <time>2020-04-04T18:17:45Z</time>
      </trkpt>
      <trkpt lat="42.3109740" lon="-4.0631650">
        <ele>850.5</ele>
        <time>2020-04-04T18:17:47Z</time>
      </trkpt>
      <trkpt lat="42.3109100" lon="-4.0633990">
        <ele>850.2</ele>
        <time>2020-04-04T18:17:49Z</time>
      </trkpt>
      <trkpt lat="42.3108280" lon="-4.0636770">
        <ele>849.6</ele>
        <time>2020-04-04T18:17:51Z</time>
      </trkpt>
      <trkpt lat="42.3107520" lon="-4.0639210">
        <ele>848.8</ele>
        <time>2020-04-04T18:17:53Z</time>
      </trkpt>
      <trkpt lat="42.3106370" lon="-4.0641900">
        <ele>848.0</ele>
        <time>2020-04-04T18:17:55Z</time>
      </trkpt>
      <trkpt lat="42.3106120" lon="-4.0644240">
        <ele>847.3</ele>
        <time>2020-04-04T18:17:57Z</time>
      </trkpt>
      <trkpt lat="42.3106090" lon="-4.0646280">
        <ele>846.6</ele>
        <time>2020-04-04T18:17:59Z</time>
      </trkpt>
      <trkpt lat="42.3106060" lon="-4.0648300">
        <ele>845.9</ele>
        <time>2020-04-04T18:18:01Z</time>
      </trkpt>
      <trkpt lat="42.3106040" lon="-4.0652580">
        <ele>844.9</ele>
        <time>2020-04-04T18:18:03Z</time>
      </trkpt>
      <trkpt lat="42.3106240" lon="-4.0655450">
        <ele>844.2</ele>
        <time>2020-04-04T18:18:05Z</time>
      </trkpt>
      <trkpt lat="42.3106690" lon="-4.0657980">
        <ele>843.7</ele>
        <time>2020-04-04T18:18:07Z</time>
      </trkpt>
      <trkpt lat="42.3107040" lon="-4.0660620">
        <ele>843.4</ele>
        <time>2020-04-04T18:18:09Z</time>
      </trkpt>
      <trkpt lat="42.3107080" lon="-4.0663620">
        <ele>843.1</ele>
        <time>2020-04-04T18:18:11Z</time>
      </trkpt>
      <trkpt lat="42.3106940" lon="-4.0665610">
        <ele>842.9</ele>
        <time>2020-04-04T18:18:13Z</time>
      </trkpt>
      <trkpt lat="42.3106710" lon="-4.0668990">
        <ele>842.6</ele>
        <time>2020-04-04T18:18:15Z</time>
      </trkpt>
      <trkpt lat="42.3106580" lon="-4.0670980">
        <ele>842.5</ele>
        <time>2020-04-04T18:18:17Z</time>
      </trkpt>
      <trkpt lat="42.3106490" lon="-4.0674490">
        <ele>842.2</ele>
        <time>2020-04-04T18:18:19Z</time>
      </trkpt>
      <trkpt lat="42.3106890" lon="-4.0676460">
        <ele>841.9</ele>
        <time>2020-04-04T18:18:21Z</time>
      </trkpt>
      <trkpt lat="42.3106940" lon="-4.0679450">
        <ele>841.7</ele>
        <time>2020-04-04T18:18:23Z</time>
      </trkpt>
      <trkpt lat="42.3106560" lon="-4.0681460">
        <ele>841.6</ele>
        <time>2020-04-04T18:18:25Z</time>
      </trkpt>
      <trkpt lat="42.3106630" lon="-4.0685200">
        <ele>841.6</ele>
        <time>2020-04-04T18:18:27Z</time>
      </trkpt>
      <trkpt lat="42.3107100" lon="-4.0688010">
        <ele>840.6</ele>
        <time>2020-04-04T18:18:29Z</time>
      </trkpt>
      <trkpt lat="42.3107040" lon="-4.0691520">
        <ele>838.7</ele>
        <time>2020-04-04T18:18:31Z</time>
      </trkpt>
      <trkpt lat="42.3107720" lon="-4.0694460">
        <ele>837.0</ele>
        <time>2020-04-04T18:18:33Z</time>
      </trkpt>
      <trkpt lat="42.3108040" lon="-4.0697940">
        <ele>834.3</ele>
        <time>2020-04-04T18:18:35Z</time>
      </trkpt>
      <trkpt lat="42.3107850" lon="-4.0701160">
        <ele>831.5</ele>
        <time>2020-04-04T18:18:37Z</time>
      </trkpt>
      <trkpt lat="42.3107900" lon="-4.0704160">
        <ele>829.6</ele>
        <time>2020-04-04T18:18:39Z</time>
      </trkpt>
      <trkpt lat="42.3106930" lon="-4.0706520">
        <ele>828.8</ele>
        <time>2020-04-04T18:18:41Z</time>
      </trkpt>
      <trkpt lat="42.3106070" lon="-4.0708140">
        <ele>829.1</ele>
        <time>2020-04-04T18:18:43Z</time>
      </trkpt>
      <trkpt lat="42.3104440" lon="-4.0710590">
        <ele>829.2</ele>
        <time>2020-04-04T18:18:45Z</time>
      </trkpt>
      <trkpt lat="42.3103690" lon="-4.0712700">
        <ele>829.5</ele>
        <time>2020-04-04T18:18:47Z</time>
      </trkpt>
      <trkpt lat="42.3102600" lon="-4.0714740">
        <ele>829.8</ele>
        <time>2020-04-04T18:18:49Z</time>
      </trkpt>
      <trkpt lat="42.3102000" lon="-4.0716240">
        <ele>829.6</ele>
        <time>2020-04-04T18:18:51Z</time>
      </trkpt>
      <trkpt lat="42.3101430" lon="-4.0717680">
        <ele>829.3</ele>
        <time>2020-04-04T18:18:53Z</time>
      </trkpt>
      <trkpt lat="42.3100420" lon="-4.0720520">
        <ele>829.1</ele>
        <time>2020-04-04T18:18:55Z</time>
      </trkpt>
      <trkpt lat="42.3100030" lon="-4.0722110">
        <ele>829.2</ele>
        <time>2020-04-04T18:18:57Z</time>
      </trkpt>
      <trkpt lat="42.3099280" lon="-4.0725100">
        <ele>829.7</ele>
        <time>2020-04-04T18:18:59Z</time>
      </trkpt>
      <trkpt lat="42.3098960" lon="-4.0726850">
        <ele>830.1</ele>
        <time>2020-04-04T18:19:01Z</time>
      </trkpt>
      <trkpt lat="42.3098470" lon="-4.0729410">
        <ele>830.7</ele>
        <time>2020-04-04T18:19:03Z</time>
      </trkpt>
      <trkpt lat="42.3097950" lon="-4.0731990">
        <ele>830.3</ele>
        <time>2020-04-04T18:19:05Z</time>
      </trkpt>
      <trkpt lat="42.3097610" lon="-4.0733770">
        <ele>830.0</ele>
        <time>2020-04-04T18:19:07Z</time>
      </trkpt>
      <trkpt lat="42.3097150" lon="-4.0736440">
        <ele>829.8</ele>
        <time>2020-04-04T18:19:09Z</time>
      </trkpt>
      <trkpt lat="42.3096880" lon="-4.0738950">
        <ele>829.8</ele>
        <time>2020-04-04T18:19:11Z</time>
      </trkpt>
      <trkpt lat="42.3096820" lon="-4.0741100">
        <ele>829.8</ele>
        <time>2020-04-04T18:19:13Z</time>
      </trkpt>
      <trkpt lat="42.3096810" lon="-4.0742750">
        <ele>829.8</ele>
        <time>2020-04-04T18:19:15Z</time>
      </trkpt>
      <trkpt lat="42.3096740" lon="-4.0746070">
        <ele>829.7</ele>
        <time>2020-04-04T18:19:17Z</time>
      </trkpt>
      <trkpt lat="42.3096550" lon="-4.0747650">
        <ele>829.7</ele>
        <time>2020-04-04T18:19:19Z</time>
      </trkpt>
      <trkpt lat="42.3096050" lon="-4.0750230">
        <ele>829.6</ele>
        <time>2020-04-04T18:19:21Z</time>
      </trkpt>
      <trkpt lat="42.3095670" lon="-4.0751820">
        <ele>829.4</ele>
        <time>2020-04-04T18:19:23Z</time>
      </trkpt>
      <trkpt lat="42.3095090" lon="-4.0754150">
        <ele>828.9</ele>
        <time>2020-04-04T18:19:25Z</time>
      </trkpt>
      <trkpt lat="42.3094430" lon="-4.0756580">
        <ele>828.5</ele>
        <time>2020-04-04T18:19:27Z</time>
      </trkpt>
      <trkpt lat="42.3093830" lon="-4.0758540">
        <ele>828.0</ele>
        <time>2020-04-04T18:19:29Z</time>
      </trkpt>
      <trkpt lat="42.3093080" lon="-4.0760980">
        <ele>827.7</ele>
        <time>2020-04-04T18:19:31Z</time>
      </trkpt>
      <trkpt lat="42.3092370" lon="-4.0763420">
        <ele>827.6</ele>
        <time>2020-04-04T18:19:33Z</time>
      </trkpt>
      <trkpt lat="42.3091780" lon="-4.0765960">
        <ele>827.2</ele>
        <time>2020-04-04T18:19:35Z</time>
      </trkpt>
      <trkpt lat="42.3091540" lon="-4.0767820">
        <ele>826.8</ele>
        <time>2020-04-04T18:19:37Z</time>
      </trkpt>
      <trkpt lat="42.3091260" lon="-4.0770550">
        <ele>826.6</ele>
        <time>2020-04-04T18:19:39Z</time>
      </trkpt>
      <trkpt lat="42.3090820" lon="-4.0773400">
        <ele>826.5</ele>
        <time>2020-04-04T18:19:41Z</time>
      </trkpt>
      <trkpt lat="42.3090250" lon="-4.0775340">
        <ele>826.2</ele>
        <time>2020-04-04T18:19:43Z</time>
      </trkpt>
      <trkpt lat="42.3089700" lon="-4.0777020">
        <ele>825.8</ele>
        <time>2020-04-04T18:19:45Z</time>
      </trkpt>
      <trkpt lat="42.3088610" lon="-4.0780170">
        <ele>825.6</ele>
        <time>2020-04-04T18:19:47Z</time>
      </trkpt>
      <trkpt lat="42.3087980" lon="-4.0781740">
        <ele>825.5</ele>
        <time>2020-04-04T18:19:49Z</time>
      </trkpt>
      <trkpt lat="42.3087070" lon="-4.0784370">
        <ele>825.5</ele>
        <time>2020-04-04T18:19:51Z</time>
      </trkpt>
      <trkpt lat="42.3086610" lon="-4.0786510">
        <ele>825.5</ele>
        <time>2020-04-04T18:19:53Z</time>
      </trkpt>
      <trkpt lat="42.3086210" lon="-4.0788910">
        <ele>825.1</ele>
        <time>2020-04-04T18:19:55Z</time>
      </trkpt>
      <trkpt lat="42.3085660" lon="-4.0791380">
        <ele>824.4</ele>
        <time>2020-04-04T18:19:57Z</time>
      </trkpt>
      <trkpt lat="42.3085090" lon="-4.0793850">
        <ele>823.7</ele>
        <time>2020-04-04T18:19:59Z</time>
      </trkpt>
      <trkpt lat="42.3084530" lon="-4.0796220">
        <ele>823.5</ele>
        <time>2020-04-04T18:20:01Z</time>
      </trkpt>
      <trkpt lat="42.3083960" lon="-4.0798050">
        <ele>823.3</ele>
        <time>2020-04-04T18:20:03Z</time>
      </trkpt>
      <trkpt lat="42.3082930" lon="-4.0801060">
        <ele>822.5</ele>
        <time>2020-04-04T18:20:05Z</time>
      </trkpt>
      <trkpt lat="42.3082000" lon="-4.0803610">
        <ele>821.7</ele>
        <time>2020-04-04T18:20:07Z</time>
      </trkpt>
      <trkpt lat="42.3081180" lon="-4.0806180">
        <ele>821.4</ele>
        <time>2020-04-04T18:20:09Z</time>
      </trkpt>
      <trkpt lat="42.3080710" lon="-4.0807960">
        <ele>821.4</ele>
        <time>2020-04-04T18:20:11Z</time>
      </trkpt>
      <trkpt lat="42.3079950" lon="-4.0810480">
        <ele>821.4</ele>
        <time>2020-04-04T18:20:13Z</time>
      </trkpt>
      <trkpt lat="42.3079380" lon="-4.0812190">
        <ele>821.3</ele>
        <time>2020-04-04T18:20:15Z</time>
      </trkpt>
      <trkpt lat="42.3078270" lon="-4.0815020">
        <ele>821.0</ele>
        <time>2020-04-04T18:20:17Z</time>
      </trkpt>
      <trkpt lat="42.3077530" lon="-4.0816560">
        <ele>820.7</ele>
        <time>2020-04-04T18:20:19Z</time>
      </trkpt>
      <trkpt lat="42.3076150" lon="-4.0819410">
        <ele>820.0</ele>
        <time>2020-04-04T18:20:21Z</time>
      </trkpt>
      <trkpt lat="42.3075420" lon="-4.0820910">
        <ele>819.6</ele>
        <time>2020-04-04T18:20:23Z</time>
      </trkpt>
      <trkpt lat="42.3074700" lon="-4.0822420">
        <ele>819.7</ele>
        <time>2020-04-04T18:20:25Z</time>
      </trkpt>
      <trkpt lat="42.3073290" lon="-4.0825350">
        <ele>820.2</ele>
        <time>2020-04-04T18:20:27Z</time>
      </trkpt>
      <trkpt lat="42.3072400" lon="-4.0827470">
        <ele>820.3</ele>
        <time>2020-04-04T18:20:29Z</time>
      </trkpt>
      <trkpt lat="42.3071850" lon="-4.0829100">
        <ele>820.3</ele>
        <time>2020-04-04T18:20:31Z</time>
      </trkpt>
      <trkpt lat="42.3070830" lon="-4.0832030">
        <ele>820.2</ele>
        <time>2020-04-04T18:20:33Z</time>
      </trkpt>
      <trkpt lat="42.3070170" lon="-4.0833570">
        <ele>820.2</ele>
        <time>2020-04-04T18:20:35Z</time>
      </trkpt>
      <trkpt lat="42.3069520" lon="-4.0835100">
        <ele>820.1</ele>
        <time>2020-04-04T18:20:37Z</time>
      </trkpt>
      <trkpt lat="42.3068190" lon="-4.0837940">
        <ele>819.5</ele>
        <time>2020-04-04T18:20:39Z</time>
      </trkpt>
      <trkpt lat="42.3067060" lon="-4.0839910">
        <ele>819.0</ele>
        <time>2020-04-04T18:20:41Z</time>
      </trkpt>
      <trkpt lat="42.3066190" lon="-4.0841310">
        <ele>818.6</ele>
        <time>2020-04-04T18:20:43Z</time>
      </trkpt>
      <trkpt lat="42.3064520" lon="-4.0843880">
        <ele>818.2</ele>
        <time>2020-04-04T18:20:45Z</time>
      </trkpt>
      <trkpt lat="42.3063220" lon="-4.0845280">
        <ele>818.2</ele>
        <time>2020-04-04T18:20:47Z</time>
      </trkpt>
      <trkpt lat="42.3062110" lon="-4.0846470">
        <ele>818.1</ele>
        <time>2020-04-04T18:20:49Z</time>
      </trkpt>
      <trkpt lat="42.3060370" lon="-4.0848690">
        <ele>817.8</ele>
        <time>2020-04-04T18:20:51Z</time>
      </trkpt>
      <trkpt lat="42.3059470" lon="-4.0850230">
        <ele>817.4</ele>
        <time>2020-04-04T18:20:53Z</time>
      </trkpt>
      <trkpt lat="42.3057770" lon="-4.0853100">
        <ele>817.1</ele>
        <time>2020-04-04T18:20:55Z</time>
      </trkpt>
      <trkpt lat="42.3056330" lon="-4.0855080">
        <ele>817.1</ele>
        <time>2020-04-04T18:20:57Z</time>
      </trkpt>
      <trkpt lat="42.3055060" lon="-4.0856820">
        <ele>817.1</ele>
        <time>2020-04-04T18:20:59Z</time>
      </trkpt>
      <trkpt lat="42.3053420" lon="-4.0858970">
        <ele>817.1</ele>
        <time>2020-04-04T18:21:01Z</time>
      </trkpt>
      <trkpt lat="42.3052290" lon="-4.0860170">
        <ele>817.1</ele>
        <time>2020-04-04T18:21:03Z</time>
      </trkpt>
      <trkpt lat="42.3050730" lon="-4.0861770">
        <ele>817.2</ele>
        <time>2020-04-04T18:21:05Z</time>
      </trkpt>
      <trkpt lat="42.3049310" lon="-4.0863280">
        <ele>817.6</ele>
        <time>2020-04-04T18:21:07Z</time>
      </trkpt>
      <trkpt lat="42.3048320" lon="-4.0864750">
        <ele>818.0</ele>
        <time>2020-04-04T18:21:09Z</time>
      </trkpt>
      <trkpt lat="42.3047680" lon="-4.0865840">
        <ele>818.3</ele>
        <time>2020-04-04T18:21:11Z</time>
      </trkpt>
      <trkpt lat="42.3047070" lon="-4.0866870">
        <ele>818.6</ele>
        <time>2020-04-04T18:21:13Z</time>
      </trkpt>
      <trkpt lat="42.3045840" lon="-4.0868870">
        <ele>818.6</ele>
        <time>2020-04-04T18:21:15Z</time>
      </trkpt>
      <trkpt lat="42.3044590" lon="-4.0870840">
        <ele>818.2</ele>
        <time>2020-04-04T18:21:17Z</time>
      </trkpt>
      <trkpt lat="42.3043570" lon="-4.0872110">
        <ele>817.9</ele>
        <time>2020-04-04T18:21:19Z</time>
      </trkpt>
      <trkpt lat="42.3042140" lon="-4.0873920">
        <ele>817.5</ele>
        <time>2020-04-04T18:21:21Z</time>
      </trkpt>
      <trkpt lat="42.3040830" lon="-4.0875710">
        <ele>817.0</ele>
        <time>2020-04-04T18:21:23Z</time>
      </trkpt>
      <trkpt lat="42.3038910" lon="-4.0876730">
        <ele>816.7</ele>
        <time>2020-04-04T18:21:25Z</time>
      </trkpt>
      <trkpt lat="42.3036700" lon="-4.0875970">
        <ele>815.8</ele>
        <time>2020-04-04T18:21:27Z</time>
      </trkpt>
      <trkpt lat="42.3034800" lon="-4.0875390">
        <ele>815.0</ele>
        <time>2020-04-04T18:21:29Z</time>
      </trkpt>
      <trkpt lat="42.3033050" lon="-4.0874750">
        <ele>814.2</ele>
        <time>2020-04-04T18:21:31Z</time>
      </trkpt>
      <trkpt lat="42.3031070" lon="-4.0874040">
        <ele>813.1</ele>
        <time>2020-04-04T18:21:33Z</time>
      </trkpt>
      <trkpt lat="42.3029950" lon="-4.0875430">
        <ele>813.3</ele>
        <time>2020-04-04T18:21:35Z</time>
      </trkpt>
      <trkpt lat="42.3029310" lon="-4.0877120">
        <ele>813.6</ele>
        <time>2020-04-04T18:21:37Z</time>
      </trkpt>
      <trkpt lat="42.3028700" lon="-4.0878740">
        <ele>813.8</ele>
        <time>2020-04-04T18:21:39Z</time>
      </trkpt>
      <trkpt lat="42.3028100" lon="-4.0880320">
        <ele>813.9</ele>
        <time>2020-04-04T18:21:41Z</time>
      </trkpt>
      <trkpt lat="42.3026620" lon="-4.0884180">
        <ele>814.5</ele>
        <time>2020-04-04T18:21:43Z</time>
      </trkpt>
      <trkpt lat="42.3025760" lon="-4.0886430">
        <ele>814.7</ele>
        <time>2020-04-04T18:21:45Z</time>
      </trkpt>
      <trkpt lat="42.3025190" lon="-4.0887900">
        <ele>814.8</ele>
        <time>2020-04-04T18:21:47Z</time>
      </trkpt>
      <trkpt lat="42.3024620" lon="-4.0889370">
        <ele>814.8</ele>
        <time>2020-04-04T18:21:49Z</time>
      </trkpt>
      <trkpt lat="42.3023460" lon="-4.0892380">
        <ele>815.1</ele>
        <time>2020-04-04T18:21:51Z</time>
      </trkpt>
      <trkpt lat="42.3022680" lon="-4.0894450">
        <ele>815.4</ele>
        <time>2020-04-04T18:21:53Z</time>
      </trkpt>
      <trkpt lat="42.3022130" lon="-4.0895870">
        <ele>815.6</ele>
        <time>2020-04-04T18:21:55Z</time>
      </trkpt>
      <trkpt lat="42.3021270" lon="-4.0898120">
        <ele>815.8</ele>
        <time>2020-04-04T18:21:57Z</time>
      </trkpt>
      <trkpt lat="42.3020730" lon="-4.0899530">
        <ele>815.8</ele>
        <time>2020-04-04T18:21:59Z</time>
      </trkpt>
      <trkpt lat="42.3019730" lon="-4.0902130">
        <ele>815.9</ele>
        <time>2020-04-04T18:22:01Z</time>
      </trkpt>
      <trkpt lat="42.3019210" lon="-4.0903560">
        <ele>816.0</ele>
        <time>2020-04-04T18:22:03Z</time>
      </trkpt>
      <trkpt lat="42.3018680" lon="-4.0905000">
        <ele>816.3</ele>
        <time>2020-04-04T18:22:05Z</time>
      </trkpt>
      <trkpt lat="42.3017720" lon="-4.0907560">
        <ele>816.6</ele>
        <time>2020-04-04T18:22:07Z</time>
      </trkpt>
      <trkpt lat="42.3016790" lon="-4.0909910">
        <ele>816.8</ele>
        <time>2020-04-04T18:22:09Z</time>
      </trkpt>
      <trkpt lat="42.3015850" lon="-4.0911570">
        <ele>816.9</ele>
        <time>2020-04-04T18:22:11Z</time>
      </trkpt>
      <trkpt lat="42.3014560" lon="-4.0913040">
        <ele>816.9</ele>
        <time>2020-04-04T18:22:13Z</time>
      </trkpt>
      <trkpt lat="42.3013090" lon="-4.0914140">
        <ele>817.1</ele>
        <time>2020-04-04T18:22:15Z</time>
      </trkpt>
      <trkpt lat="42.3012000" lon="-4.0914810">
        <ele>817.2</ele>
        <time>2020-04-04T18:22:17Z</time>
      </trkpt>
      <trkpt lat="42.3010030" lon="-4.0916030">
        <ele>817.7</ele>
        <time>2020-04-04T18:22:19Z</time>
      </trkpt>
      <trkpt lat="42.3008620" lon="-4.0916960">
        <ele>818.3</ele>
        <time>2020-04-04T18:22:21Z</time>
      </trkpt>
      <trkpt lat="42.3007580" lon="-4.0917620">
        <ele>818.1</ele>
        <time>2020-04-04T18:22:23Z</time>
      </trkpt>
      <trkpt lat="42.3005820" lon="-4.0918740">
        <ele>817.8</ele>
        <time>2020-04-04T18:22:25Z</time>
      </trkpt>
      <trkpt lat="42.3004700" lon="-4.0919460">
        <ele>817.6</ele>
        <time>2020-04-04T18:22:27Z</time>
      </trkpt>
      <trkpt lat="42.3003650" lon="-4.0920130">
        <ele>817.4</ele>
        <time>2020-04-04T18:22:29Z</time>
      </trkpt>
      <trkpt lat="42.3002590" lon="-4.0920800">
        <ele>817.4</ele>
        <time>2020-04-04T18:22:31Z</time>
      </trkpt>
      <trkpt lat="42.3001510" lon="-4.0921490">
        <ele>817.3</ele>
        <time>2020-04-04T18:22:33Z</time>
      </trkpt>
      <trkpt lat="42.2998700" lon="-4.0923280">
        <ele>817.3</ele>
        <time>2020-04-04T18:22:35Z</time>
      </trkpt>
      <trkpt lat="42.2997490" lon="-4.0924050">
        <ele>817.3</ele>
        <time>2020-04-04T18:22:37Z</time>
      </trkpt>
      <trkpt lat="42.2996410" lon="-4.0924750">
        <ele>817.3</ele>
        <time>2020-04-04T18:22:39Z</time>
      </trkpt>
      <trkpt lat="42.2994530" lon="-4.0925950">
        <ele>817.3</ele>
        <time>2020-04-04T18:22:41Z</time>
      </trkpt>
      <trkpt lat="42.2992800" lon="-4.0927050">
        <ele>817.3</ele>
        <time>2020-04-04T18:22:43Z</time>
      </trkpt>
      <trkpt lat="42.2991650" lon="-4.0927770">
        <ele>817.3</ele>
        <time>2020-04-04T18:22:45Z</time>
      </trkpt>
      <trkpt lat="42.2989930" lon="-4.0928890">
        <ele>817.3</ele>
        <time>2020-04-04T18:22:47Z</time>
      </trkpt>
      <trkpt lat="42.2988250" lon="-4.0930050">
        <ele>817.3</ele>
        <time>2020-04-04T18:22:49Z</time>
      </trkpt>
      <trkpt lat="42.2986490" lon="-4.0931330">
        <ele>817.2</ele>
        <time>2020-04-04T18:22:51Z</time>
      </trkpt>
      <trkpt lat="42.2985380" lon="-4.0932250">
        <ele>817.2</ele>
        <time>2020-04-04T18:22:53Z</time>
      </trkpt>
      <trkpt lat="42.2984260" lon="-4.0933160">
        <ele>817.2</ele>
        <time>2020-04-04T18:22:55Z</time>
      </trkpt>
      <trkpt lat="42.2983160" lon="-4.0934080">
        <ele>817.3</ele>
        <time>2020-04-04T18:22:57Z</time>
      </trkpt>
      <trkpt lat="42.2982060" lon="-4.0934980">
        <ele>817.3</ele>
        <time>2020-04-04T18:22:59Z</time>
      </trkpt>
      <trkpt lat="42.2979180" lon="-4.0937360">
        <ele>817.1</ele>
        <time>2020-04-04T18:23:01Z</time>
      </trkpt>
      <trkpt lat="42.2978090" lon="-4.0938260">
        <ele>816.9</ele>
        <time>2020-04-04T18:23:03Z</time>
      </trkpt>
      <trkpt lat="42.2976990" lon="-4.0939160">
        <ele>816.7</ele>
        <time>2020-04-04T18:23:05Z</time>
      </trkpt>
      <trkpt lat="42.2975900" lon="-4.0940060">
        <ele>816.5</ele>
        <time>2020-04-04T18:23:07Z</time>
      </trkpt>
      <trkpt lat="42.2973420" lon="-4.0942090">
        <ele>816.4</ele>
        <time>2020-04-04T18:23:09Z</time>
      </trkpt>
      <trkpt lat="42.2971900" lon="-4.0943330">
        <ele>816.4</ele>
        <time>2020-04-04T18:23:11Z</time>
      </trkpt>
      <trkpt lat="42.2970760" lon="-4.0944260">
        <ele>816.4</ele>
        <time>2020-04-04T18:23:13Z</time>
      </trkpt>
      <trkpt lat="42.2968820" lon="-4.0945880">
        <ele>816.2</ele>
        <time>2020-04-04T18:23:15Z</time>
      </trkpt>
      <trkpt lat="42.2967060" lon="-4.0947330">
        <ele>815.9</ele>
        <time>2020-04-04T18:23:17Z</time>
      </trkpt>
      <trkpt lat="42.2965390" lon="-4.0948670">
        <ele>815.7</ele>
        <time>2020-04-04T18:23:19Z</time>
      </trkpt>
      <trkpt lat="42.2964090" lon="-4.0949750">
        <ele>815.6</ele>
        <time>2020-04-04T18:23:21Z</time>
      </trkpt>
      <trkpt lat="42.2962340" lon="-4.0951190">
        <ele>815.5</ele>
        <time>2020-04-04T18:23:23Z</time>
      </trkpt>
      <trkpt lat="42.2961170" lon="-4.0952130">
        <ele>815.4</ele>
        <time>2020-04-04T18:23:25Z</time>
      </trkpt>
      <trkpt lat="42.2958980" lon="-4.0953900">
        <ele>815.5</ele>
        <time>2020-04-04T18:23:27Z</time>
      </trkpt>
      <trkpt lat="42.2957540" lon="-4.0955070">
        <ele>815.6</ele>
        <time>2020-04-04T18:23:29Z</time>
      </trkpt>
      <trkpt lat="42.2956420" lon="-4.0955980">
        <ele>815.7</ele>
        <time>2020-04-04T18:23:31Z</time>
      </trkpt>
      <trkpt lat="42.2954450" lon="-4.0957590">
        <ele>816.1</ele>
        <time>2020-04-04T18:23:33Z</time>
      </trkpt>
      <trkpt lat="42.2952930" lon="-4.0958860">
        <ele>816.4</ele>
        <time>2020-04-04T18:23:35Z</time>
      </trkpt>
      <trkpt lat="42.2951430" lon="-4.0960330">
        <ele>816.4</ele>
        <time>2020-04-04T18:23:37Z</time>
      </trkpt>
      <trkpt lat="42.2950210" lon="-4.0961770">
        <ele>816.4</ele>
        <time>2020-04-04T18:23:39Z</time>
      </trkpt>
      <trkpt lat="42.2948780" lon="-4.0963590">
        <ele>816.4</ele>
        <time>2020-04-04T18:23:41Z</time>
      </trkpt>
      <trkpt lat="42.2947210" lon="-4.0965650">
        <ele>816.2</ele>
        <time>2020-04-04T18:23:43Z</time>
      </trkpt>
      <trkpt lat="42.2945630" lon="-4.0967680">
        <ele>816.0</ele>
        <time>2020-04-04T18:23:45Z</time>
      </trkpt>
      <trkpt lat="42.2944270" lon="-4.0969470">
        <ele>815.7</ele>
        <time>2020-04-04T18:23:47Z</time>
      </trkpt>
      <trkpt lat="42.2942900" lon="-4.0971280">
        <ele>815.3</ele>
        <time>2020-04-04T18:23:49Z</time>
      </trkpt>
      <trkpt lat="42.2941510" lon="-4.0973060">
        <ele>814.9</ele>
        <time>2020-04-04T18:23:51Z</time>
      </trkpt>
      <trkpt lat="42.2940460" lon="-4.0974420">
        <ele>814.4</ele>
        <time>2020-04-04T18:23:53Z</time>
      </trkpt>
      <trkpt lat="42.2938680" lon="-4.0976720">
        <ele>813.9</ele>
        <time>2020-04-04T18:23:55Z</time>
      </trkpt>
      <trkpt lat="42.2937680" lon="-4.0978030">
        <ele>813.6</ele>
        <time>2020-04-04T18:23:57Z</time>
      </trkpt>
      <trkpt lat="42.2935990" lon="-4.0980230">
        <ele>813.2</ele>
        <time>2020-04-04T18:23:59Z</time>
      </trkpt>
      <trkpt lat="42.2935050" lon="-4.0981460">
        <ele>812.9</ele>
        <time>2020-04-04T18:24:01Z</time>
      </trkpt>
      <trkpt lat="42.2933570" lon="-4.0983420">
        <ele>813.0</ele>
        <time>2020-04-04T18:24:03Z</time>
      </trkpt>
      <trkpt lat="42.2932250" lon="-4.0984980">
        <ele>814.4</ele>
        <time>2020-04-04T18:24:05Z</time>
      </trkpt>
      <trkpt lat="42.2930680" lon="-4.0986440">
        <ele>815.7</ele>
        <time>2020-04-04T18:24:07Z</time>
      </trkpt>
      <trkpt lat="42.2929130" lon="-4.0987640">
        <ele>816.4</ele>
        <time>2020-04-04T18:24:09Z</time>
      </trkpt>
      <trkpt lat="42.2927920" lon="-4.0989300">
        <ele>817.2</ele>
        <time>2020-04-04T18:24:11Z</time>
      </trkpt>
      <trkpt lat="42.2926940" lon="-4.0991280">
        <ele>816.7</ele>
        <time>2020-04-04T18:24:13Z</time>
      </trkpt>
      <trkpt lat="42.2926010" lon="-4.0993500">
        <ele>815.4</ele>
        <time>2020-04-04T18:24:15Z</time>
      </trkpt>
      <trkpt lat="42.2925380" lon="-4.0995180">
        <ele>813.7</ele>
        <time>2020-04-04T18:24:17Z</time>
      </trkpt>
      <trkpt lat="42.2924290" lon="-4.0998110">
        <ele>811.5</ele>
        <time>2020-04-04T18:24:19Z</time>
      </trkpt>
      <trkpt lat="42.2923620" lon="-4.0999870">
        <ele>811.2</ele>
        <time>2020-04-04T18:24:21Z</time>
      </trkpt>
      <trkpt lat="42.2922570" lon="-4.1002620">
        <ele>810.8</ele>
        <time>2020-04-04T18:24:23Z</time>
      </trkpt>
      <trkpt lat="42.2921620" lon="-4.1005140">
        <ele>810.2</ele>
        <time>2020-04-04T18:24:25Z</time>
      </trkpt>
      <trkpt lat="42.2920900" lon="-4.1006980">
        <ele>809.7</ele>
        <time>2020-04-04T18:24:27Z</time>
      </trkpt>
      <trkpt lat="42.2919620" lon="-4.1010290">
        <ele>809.3</ele>
        <time>2020-04-04T18:24:29Z</time>
      </trkpt>
      <trkpt lat="42.2918840" lon="-4.1012340">
        <ele>809.2</ele>
        <time>2020-04-04T18:24:31Z</time>
      </trkpt>
      <trkpt lat="42.2917760" lon="-4.1015210">
        <ele>809.0</ele>
        <time>2020-04-04T18:24:33Z</time>
      </trkpt>
      <trkpt lat="42.2916700" lon="-4.1018220">
        <ele>808.6</ele>
        <time>2020-04-04T18:24:35Z</time>
      </trkpt>
      <trkpt lat="42.2916050" lon="-4.1020990">
        <ele>808.2</ele>
        <time>2020-04-04T18:24:37Z</time>
      </trkpt>
      <trkpt lat="42.2915590" lon="-4.1023630">
        <ele>807.1</ele>
        <time>2020-04-04T18:24:39Z</time>
      </trkpt>
      <trkpt lat="42.2915160" lon="-4.1026740">
        <ele>805.5</ele>
        <time>2020-04-04T18:24:41Z</time>
      </trkpt>
      <trkpt lat="42.2915010" lon="-4.1029750">
        <ele>804.8</ele>
        <time>2020-04-04T18:24:43Z</time>
      </trkpt>
      <trkpt lat="42.2915050" lon="-4.1032600">
        <ele>804.8</ele>
        <time>2020-04-04T18:24:45Z</time>
      </trkpt>
      <trkpt lat="42.2915180" lon="-4.1035270">
        <ele>804.7</ele>
        <time>2020-04-04T18:24:47Z</time>
      </trkpt>
      <trkpt lat="42.2915250" lon="-4.1037350">
        <ele>804.5</ele>
        <time>2020-04-04T18:24:49Z</time>
      </trkpt>
      <trkpt lat="42.2915380" lon="-4.1040570">
        <ele>803.8</ele>
        <time>2020-04-04T18:24:51Z</time>
      </trkpt>
      <trkpt lat="42.2915480" lon="-4.1043480">
        <ele>803.3</ele>
        <time>2020-04-04T18:24:53Z</time>
      </trkpt>
      <trkpt lat="42.2915540" lon="-4.1045490">
        <ele>802.9</ele>
        <time>2020-04-04T18:24:55Z</time>
      </trkpt>
      <trkpt lat="42.2915640" lon="-4.1048630">
        <ele>802.2</ele>
        <time>2020-04-04T18:24:57Z</time>
      </trkpt>
      <trkpt lat="42.2915740" lon="-4.1051290">
        <ele>801.7</ele>
        <time>2020-04-04T18:24:59Z</time>
      </trkpt>
      <trkpt lat="42.2915860" lon="-4.1054440">
        <ele>800.8</ele>
        <time>2020-04-04T18:25:01Z</time>
      </trkpt>
      <trkpt lat="42.2915950" lon="-4.1056780">
        <ele>800.2</ele>
        <time>2020-04-04T18:25:03Z</time>
      </trkpt>
      <trkpt lat="42.2916030" lon="-4.1058830">
        <ele>799.6</ele>
        <time>2020-04-04T18:25:05Z</time>
      </trkpt>
      <trkpt lat="42.2916160" lon="-4.1062450">
        <ele>798.4</ele>
        <time>2020-04-04T18:25:07Z</time>
      </trkpt>
      <trkpt lat="42.2916270" lon="-4.1065500">
        <ele>797.6</ele>
        <time>2020-04-04T18:25:09Z</time>
      </trkpt>
      <trkpt lat="42.2916380" lon="-4.1068510">
        <ele>797.6</ele>
        <time>2020-04-04T18:25:11Z</time>
      </trkpt>
      <trkpt lat="42.2916450" lon="-4.1070750">
        <ele>797.6</ele>
        <time>2020-04-04T18:25:13Z</time>
      </trkpt>
      <trkpt lat="42.2916560" lon="-4.1074150">
        <ele>797.4</ele>
        <time>2020-04-04T18:25:15Z</time>
      </trkpt>
      <trkpt lat="42.2916690" lon="-4.1077600">
        <ele>797.0</ele>
        <time>2020-04-04T18:25:17Z</time>
      </trkpt>
      <trkpt lat="42.2916770" lon="-4.1079850">
        <ele>796.7</ele>
        <time>2020-04-04T18:25:19Z</time>
      </trkpt>
      <trkpt lat="42.2916840" lon="-4.1081920">
        <ele>796.5</ele>
        <time>2020-04-04T18:25:21Z</time>
      </trkpt>
      <trkpt lat="42.2916970" lon="-4.1085770">
        <ele>795.8</ele>
        <time>2020-04-04T18:25:23Z</time>
      </trkpt>
      <trkpt lat="42.2917020" lon="-4.1087760">
        <ele>795.5</ele>
        <time>2020-04-04T18:25:25Z</time>
      </trkpt>
      <trkpt lat="42.2917120" lon="-4.1090750">
        <ele>795.1</ele>
        <time>2020-04-04T18:25:27Z</time>
      </trkpt>
      <trkpt lat="42.2917230" lon="-4.1093470">
        <ele>794.8</ele>
        <time>2020-04-04T18:25:29Z</time>
      </trkpt>
      <trkpt lat="42.2917300" lon="-4.1095370">
        <ele>794.6</ele>
        <time>2020-04-04T18:25:31Z</time>
      </trkpt>
      <trkpt lat="42.2917370" lon="-4.1097250">
        <ele>794.4</ele>
        <time>2020-04-04T18:25:33Z</time>
      </trkpt>
      <trkpt lat="42.2917530" lon="-4.1101310">
        <ele>793.9</ele>
        <time>2020-04-04T18:25:35Z</time>
      </trkpt>
      <trkpt lat="42.2917610" lon="-4.1103220">
        <ele>793.7</ele>
        <time>2020-04-04T18:25:37Z</time>
      </trkpt>
      <trkpt lat="42.2917750" lon="-4.1106740">
        <ele>793.4</ele>
        <time>2020-04-04T18:25:39Z</time>
      </trkpt>
      <trkpt lat="42.2917830" lon="-4.1108640">
        <ele>793.2</ele>
        <time>2020-04-04T18:25:41Z</time>
      </trkpt>
      <trkpt lat="42.2917900" lon="-4.1110560">
        <ele>793.0</ele>
        <time>2020-04-04T18:25:43Z</time>
      </trkpt>
      <trkpt lat="42.2918040" lon="-4.1114240">
        <ele>792.7</ele>
        <time>2020-04-04T18:25:45Z</time>
      </trkpt>
      <trkpt lat="42.2918100" lon="-4.1116110">
        <ele>792.6</ele>
        <time>2020-04-04T18:25:47Z</time>
      </trkpt>
      <trkpt lat="42.2918160" lon="-4.1117920">
        <ele>792.5</ele>
        <time>2020-04-04T18:25:49Z</time>
      </trkpt>
      <trkpt lat="42.2918220" lon="-4.1119710">
        <ele>792.5</ele>
        <time>2020-04-04T18:25:51Z</time>
      </trkpt>
      <trkpt lat="42.2918370" lon="-4.1124090">
        <ele>792.5</ele>
        <time>2020-04-04T18:25:53Z</time>
      </trkpt>
      <trkpt lat="42.2918430" lon="-4.1125830">
        <ele>792.5</ele>
        <time>2020-04-04T18:25:55Z</time>
      </trkpt>
      <trkpt lat="42.2918520" lon="-4.1128350">
        <ele>792.5</ele>
        <time>2020-04-04T18:25:57Z</time>
      </trkpt>
      <trkpt lat="42.2918580" lon="-4.1130040">
        <ele>792.5</ele>
        <time>2020-04-04T18:25:59Z</time>
      </trkpt>
      <trkpt lat="42.2918640" lon="-4.1131730">
        <ele>792.5</ele>
        <time>2020-04-04T18:26:01Z</time>
      </trkpt>
      <trkpt lat="42.2918770" lon="-4.1135580">
        <ele>792.4</ele>
        <time>2020-04-04T18:26:03Z</time>
      </trkpt>
      <trkpt lat="42.2918840" lon="-4.1137240">
        <ele>792.4</ele>
        <time>2020-04-04T18:26:05Z</time>
      </trkpt>
      <trkpt lat="42.2918930" lon="-4.1139880">
        <ele>792.4</ele>
        <time>2020-04-04T18:26:07Z</time>
      </trkpt>
      <trkpt lat="42.2918990" lon="-4.1141520">
        <ele>792.4</ele>
        <time>2020-04-04T18:26:09Z</time>
      </trkpt>
      <trkpt lat="42.2919050" lon="-4.1143130">
        <ele>792.4</ele>
        <time>2020-04-04T18:26:11Z</time>
      </trkpt>
      <trkpt lat="42.2919110" lon="-4.1144740">
        <ele>792.4</ele>
        <time>2020-04-04T18:26:13Z</time>
      </trkpt>
      <trkpt lat="42.2919240" lon="-4.1148330">
        <ele>792.4</ele>
        <time>2020-04-04T18:26:15Z</time>
      </trkpt>
      <trkpt lat="42.2919300" lon="-4.1149880">
        <ele>792.5</ele>
        <time>2020-04-04T18:26:17Z</time>
      </trkpt>
      <trkpt lat="42.2919360" lon="-4.1151370">
        <ele>792.6</ele>
        <time>2020-04-04T18:26:19Z</time>
      </trkpt>
      <trkpt lat="42.2919480" lon="-4.1154480">
        <ele>793.0</ele>
        <time>2020-04-04T18:26:21Z</time>
      </trkpt>
      <trkpt lat="42.2919530" lon="-4.1155930">
        <ele>793.2</ele>
        <time>2020-04-04T18:26:23Z</time>
      </trkpt>
      <trkpt lat="42.2919650" lon="-4.1158740">
        <ele>793.3</ele>
        <time>2020-04-04T18:26:25Z</time>
      </trkpt>
      <trkpt lat="42.2919710" lon="-4.1160560">
        <ele>793.3</ele>
        <time>2020-04-04T18:26:27Z</time>
      </trkpt>
      <trkpt lat="42.2919760" lon="-4.1162000">
        <ele>793.4</ele>
        <time>2020-04-04T18:26:29Z</time>
      </trkpt>
      <trkpt lat="42.2919810" lon="-4.1163480">
        <ele>793.4</ele>
        <time>2020-04-04T18:26:31Z</time>
      </trkpt>
      <trkpt lat="42.2919920" lon="-4.1166770">
        <ele>793.4</ele>
        <time>2020-04-04T18:26:33Z</time>
      </trkpt>
      <trkpt lat="42.2919970" lon="-4.1168260">
        <ele>793.4</ele>
        <time>2020-04-04T18:26:35Z</time>
      </trkpt>
      <trkpt lat="42.2920050" lon="-4.1170600">
        <ele>793.4</ele>
        <time>2020-04-04T18:26:37Z</time>
      </trkpt>
      <trkpt lat="42.2920110" lon="-4.1172130">
        <ele>793.4</ele>
        <time>2020-04-04T18:26:39Z</time>
      </trkpt>
      <trkpt lat="42.2920170" lon="-4.1173670">
        <ele>793.4</ele>
        <time>2020-04-04T18:26:41Z</time>
      </trkpt>
      <trkpt lat="42.2920280" lon="-4.1176720">
        <ele>793.4</ele>
        <time>2020-04-04T18:26:43Z</time>
      </trkpt>
      <trkpt lat="42.2920350" lon="-4.1178400">
        <ele>793.4</ele>
        <time>2020-04-04T18:26:45Z</time>
      </trkpt>
      <trkpt lat="42.2920480" lon="-4.1181700">
        <ele>793.7</ele>
        <time>2020-04-04T18:26:47Z</time>
      </trkpt>
      <trkpt lat="42.2920570" lon="-4.1184000">
        <ele>793.8</ele>
        <time>2020-04-04T18:26:49Z</time>
      </trkpt>
      <trkpt lat="42.2920640" lon="-4.1185840">
        <ele>793.7</ele>
        <time>2020-04-04T18:26:51Z</time>
      </trkpt>
      <trkpt lat="42.2920710" lon="-4.1187700">
        <ele>793.2</ele>
        <time>2020-04-04T18:26:53Z</time>
      </trkpt>
      <trkpt lat="42.2920850" lon="-4.1191630">
        <ele>792.0</ele>
        <time>2020-04-04T18:26:55Z</time>
      </trkpt>
      <trkpt lat="42.2920940" lon="-4.1194020">
        <ele>791.7</ele>
        <time>2020-04-04T18:26:57Z</time>
      </trkpt>
      <trkpt lat="42.2921010" lon="-4.1195980">
        <ele>791.6</ele>
        <time>2020-04-04T18:26:59Z</time>
      </trkpt>
      <trkpt lat="42.2921150" lon="-4.1199450">
        <ele>791.3</ele>
        <time>2020-04-04T18:27:01Z</time>
      </trkpt>
      <trkpt lat="42.2921220" lon="-4.1201490">
        <ele>791.0</ele>
        <time>2020-04-04T18:27:03Z</time>
      </trkpt>
      <trkpt lat="42.2921350" lon="-4.1205060">
        <ele>790.0</ele>
        <time>2020-04-04T18:27:05Z</time>
      </trkpt>
      <trkpt lat="42.2921430" lon="-4.1207430">
        <ele>789.6</ele>
        <time>2020-04-04T18:27:07Z</time>
      </trkpt>
      <trkpt lat="42.2921510" lon="-4.1209570">
        <ele>789.3</ele>
        <time>2020-04-04T18:27:09Z</time>
      </trkpt>
      <trkpt lat="42.2921660" lon="-4.1213690">
        <ele>789.2</ele>
        <time>2020-04-04T18:27:11Z</time>
      </trkpt>
      <trkpt lat="42.2921770" lon="-4.1216670">
        <ele>789.1</ele>
        <time>2020-04-04T18:27:13Z</time>
      </trkpt>
      <trkpt lat="42.2921860" lon="-4.1218900">
        <ele>788.5</ele>
        <time>2020-04-04T18:27:15Z</time>
      </trkpt>
      <trkpt lat="42.2921980" lon="-4.1222230">
        <ele>788.1</ele>
        <time>2020-04-04T18:27:17Z</time>
      </trkpt>
      <trkpt lat="42.2922040" lon="-4.1224320">
        <ele>787.8</ele>
        <time>2020-04-04T18:27:19Z</time>
      </trkpt>
      <trkpt lat="42.2922170" lon="-4.1228210">
        <ele>786.5</ele>
        <time>2020-04-04T18:27:21Z</time>
      </trkpt>
      <trkpt lat="42.2922240" lon="-4.1230130">
        <ele>785.6</ele>
        <time>2020-04-04T18:27:23Z</time>
      </trkpt>
      <trkpt lat="42.2922310" lon="-4.1232020">
        <ele>785.0</ele>
        <time>2020-04-04T18:27:25Z</time>
      </trkpt>
      <trkpt lat="42.2922380" lon="-4.1233860">
        <ele>784.7</ele>
        <time>2020-04-04T18:27:27Z</time>
      </trkpt>
      <trkpt lat="42.2922560" lon="-4.1238160">
        <ele>784.4</ele>
        <time>2020-04-04T18:27:29Z</time>
      </trkpt>
      <trkpt lat="42.2922620" lon="-4.1240390">
        <ele>784.5</ele>
        <time>2020-04-04T18:27:31Z</time>
      </trkpt>
      <trkpt lat="42.2922410" lon="-4.1242920">
        <ele>784.9</ele>
        <time>2020-04-04T18:27:33Z</time>
      </trkpt>
      <trkpt lat="42.2922020" lon="-4.1244760">
        <ele>785.2</ele>
        <time>2020-04-04T18:27:35Z</time>
      </trkpt>
      <trkpt lat="42.2921710" lon="-4.1246740">
        <ele>785.6</ele>
        <time>2020-04-04T18:27:37Z</time>
      </trkpt>
      <trkpt lat="42.2921510" lon="-4.1248290">
        <ele>786.0</ele>
        <time>2020-04-04T18:27:39Z</time>
      </trkpt>
      <trkpt lat="42.2921130" lon="-4.1251020">
        <ele>786.3</ele>
        <time>2020-04-04T18:27:41Z</time>
      </trkpt>
      <trkpt lat="42.2920830" lon="-4.1253120">
        <ele>786.7</ele>
        <time>2020-04-04T18:27:43Z</time>
      </trkpt>
      <trkpt lat="42.2920630" lon="-4.1255000">
        <ele>787.0</ele>
        <time>2020-04-04T18:27:45Z</time>
      </trkpt>
      <trkpt lat="42.2920490" lon="-4.1256800">
        <ele>787.1</ele>
        <time>2020-04-04T18:27:47Z</time>
      </trkpt>
      <trkpt lat="42.2920430" lon="-4.1258630">
        <ele>787.1</ele>
        <time>2020-04-04T18:27:49Z</time>
      </trkpt>
      <trkpt lat="42.2920430" lon="-4.1260610">
        <ele>787.1</ele>
        <time>2020-04-04T18:27:51Z</time>
      </trkpt>
      <trkpt lat="42.2920510" lon="-4.1262540">
        <ele>787.3</ele>
        <time>2020-04-04T18:27:53Z</time>
      </trkpt>
      <trkpt lat="42.2920720" lon="-4.1263820">
        <ele>787.6</ele>
        <time>2020-04-04T18:27:55Z</time>
      </trkpt>
      <trkpt lat="42.2921040" lon="-4.1265630">
        <ele>788.2</ele>
        <time>2020-04-04T18:27:57Z</time>
      </trkpt>
      <trkpt lat="42.2921380" lon="-4.1267760">
        <ele>789.4</ele>
        <time>2020-04-04T18:27:59Z</time>
      </trkpt>
      <trkpt lat="42.2921530" lon="-4.1269190">
        <ele>790.3</ele>
        <time>2020-04-04T18:28:01Z</time>
      </trkpt>
      <trkpt lat="42.2921970" lon="-4.1271550">
        <ele>792.0</ele>
        <time>2020-04-04T18:28:03Z</time>
      </trkpt>
      <trkpt lat="42.2923410" lon="-4.1272430">
        <ele>792.6</ele>
        <time>2020-04-04T18:28:05Z</time>
      </trkpt>
      <trkpt lat="42.2924010" lon="-4.1274120">
        <ele>793.1</ele>
        <time>2020-04-04T18:28:07Z</time>
      </trkpt>
      <trkpt lat="42.2924290" lon="-4.1275870">
        <ele>793.5</ele>
        <time>2020-04-04T18:28:09Z</time>
      </trkpt>
      <trkpt lat="42.2924700" lon="-4.1278060">
        <ele>793.8</ele>
        <time>2020-04-04T18:28:11Z</time>
      </trkpt>
      <trkpt lat="42.2925040" lon="-4.1279620">
        <ele>793.5</ele>
        <time>2020-04-04T18:28:13Z</time>
      </trkpt>
      <trkpt lat="42.2925380" lon="-4.1281210">
        <ele>793.2</ele>
        <time>2020-04-04T18:28:15Z</time>
      </trkpt>
      <trkpt lat="42.2925860" lon="-4.1284840">
        <ele>792.2</ele>
        <time>2020-04-04T18:28:17Z</time>
      </trkpt>
      <trkpt lat="42.2925030" lon="-4.1286820">
        <ele>791.8</ele>
        <time>2020-04-04T18:28:19Z</time>
      </trkpt>
      <trkpt lat="42.2923910" lon="-4.1288610">
        <ele>791.6</ele>
        <time>2020-04-04T18:28:21Z</time>
      </trkpt>
      <trkpt lat="42.2922680" lon="-4.1289610">
        <ele>791.7</ele>
        <time>2020-04-04T18:28:23Z</time>
      </trkpt>
      <trkpt lat="42.2921060" lon="-4.1290990">
        <ele>792.3</ele>
        <time>2020-04-04T18:28:25Z</time>
      </trkpt>
      <trkpt lat="42.2919960" lon="-4.1292030">
        <ele>792.5</ele>
        <time>2020-04-04T18:28:27Z</time>
      </trkpt>
      <trkpt lat="42.2918090" lon="-4.1293900">
        <ele>792.5</ele>
        <time>2020-04-04T18:28:29Z</time>
      </trkpt>
      <trkpt lat="42.2916760" lon="-4.1295580">
        <ele>792.2</ele>
        <time>2020-04-04T18:28:31Z</time>
      </trkpt>
      <trkpt lat="42.2915530" lon="-4.1297370">
        <ele>791.5</ele>
        <time>2020-04-04T18:28:33Z</time>
      </trkpt>
      <trkpt lat="42.2914360" lon="-4.1299530">
        <ele>790.6</ele>
        <time>2020-04-04T18:28:35Z</time>
      </trkpt>
      <trkpt lat="42.2913520" lon="-4.1302390">
        <ele>790.5</ele>
        <time>2020-04-04T18:28:37Z</time>
      </trkpt>
      <trkpt lat="42.2912960" lon="-4.1304600">
        <ele>790.5</ele>
        <time>2020-04-04T18:28:39Z</time>
      </trkpt>
      <trkpt lat="42.2911900" lon="-4.1307080">
        <ele>790.4</ele>
        <time>2020-04-04T18:28:41Z</time>
      </trkpt>
      <trkpt lat="42.2910660" lon="-4.1308940">
        <ele>790.4</ele>
        <time>2020-04-04T18:28:43Z</time>
      </trkpt>
      <trkpt lat="42.2909640" lon="-4.1310200">
        <ele>790.4</ele>
        <time>2020-04-04T18:28:45Z</time>
      </trkpt>
      <trkpt lat="42.2908070" lon="-4.1312210">
        <ele>790.6</ele>
        <time>2020-04-04T18:28:47Z</time>
      </trkpt>
      <trkpt lat="42.2907180" lon="-4.1313590">
        <ele>791.0</ele>
        <time>2020-04-04T18:28:49Z</time>
      </trkpt>
      <trkpt lat="42.2905490" lon="-4.1315670">
        <ele>792.9</ele>
        <time>2020-04-04T18:28:51Z</time>
      </trkpt>
      <trkpt lat="42.2904270" lon="-4.1316520">
        <ele>792.2</ele>
        <time>2020-04-04T18:28:53Z</time>
      </trkpt>
      <trkpt lat="42.2902360" lon="-4.1317890">
        <ele>791.0</ele>
        <time>2020-04-04T18:28:55Z</time>
      </trkpt>
      <trkpt lat="42.2901160" lon="-4.1318800">
        <ele>790.4</ele>
        <time>2020-04-04T18:28:57Z</time>
      </trkpt>
      <trkpt lat="42.2899160" lon="-4.1320190">
        <ele>789.8</ele>
        <time>2020-04-04T18:28:59Z</time>
      </trkpt>
      <trkpt lat="42.2897320" lon="-4.1321230">
        <ele>788.0</ele>
        <time>2020-04-04T18:29:01Z</time>
      </trkpt>
      <trkpt lat="42.2896250" lon="-4.1320640">
        <ele>787.6</ele>
        <time>2020-04-04T18:29:03Z</time>
      </trkpt>
      <trkpt lat="42.2895150" lon="-4.1321970">
        <ele>787.9</ele>
        <time>2020-04-04T18:29:05Z</time>
      </trkpt>
      <trkpt lat="42.2894330" lon="-4.1322970">
        <ele>788.1</ele>
        <time>2020-04-04T18:29:07Z</time>
      </trkpt>
      <trkpt lat="42.2893540" lon="-4.1323960">
        <ele>788.4</ele>
        <time>2020-04-04T18:29:09Z</time>
      </trkpt>
      <trkpt lat="42.2891790" lon="-4.1326130">
        <ele>789.0</ele>
        <time>2020-04-04T18:29:11Z</time>
      </trkpt>
      <trkpt lat="42.2891000" lon="-4.1327150">
        <ele>789.3</ele>
        <time>2020-04-04T18:29:13Z</time>
      </trkpt>
      <trkpt lat="42.2890170" lon="-4.1328240">
        <ele>789.6</ele>
        <time>2020-04-04T18:29:15Z</time>
      </trkpt>
      <trkpt lat="42.2889280" lon="-4.1329400">
        <ele>789.9</ele>
        <time>2020-04-04T18:29:17Z</time>
      </trkpt>
      <trkpt lat="42.2887460" lon="-4.1331880">
        <ele>790.5</ele>
        <time>2020-04-04T18:29:19Z</time>
      </trkpt>
      <trkpt lat="42.2885990" lon="-4.1334020">
        <ele>791.0</ele>
        <time>2020-04-04T18:29:21Z</time>
      </trkpt>
      <trkpt lat="42.2885070" lon="-4.1335370">
        <ele>790.3</ele>
        <time>2020-04-04T18:29:23Z</time>
      </trkpt>
      <trkpt lat="42.2883620" lon="-4.1337510">
        <ele>789.4</ele>
        <time>2020-04-04T18:29:25Z</time>
      </trkpt>
      <trkpt lat="42.2882400" lon="-4.1339330">
        <ele>788.9</ele>
        <time>2020-04-04T18:29:27Z</time>
      </trkpt>
      <trkpt lat="42.2881470" lon="-4.1340720">
        <ele>788.7</ele>
        <time>2020-04-04T18:29:29Z</time>
      </trkpt>
      <trkpt lat="42.2879720" lon="-4.1343340">
        <ele>788.3</ele>
        <time>2020-04-04T18:29:31Z</time>
      </trkpt>
      <trkpt lat="42.2878790" lon="-4.1344730">
        <ele>787.8</ele>
        <time>2020-04-04T18:29:33Z</time>
      </trkpt>
      <trkpt lat="42.2877860" lon="-4.1346120">
        <ele>787.6</ele>
        <time>2020-04-04T18:29:35Z</time>
      </trkpt>
      <trkpt lat="42.2876940" lon="-4.1347510">
        <ele>787.5</ele>
        <time>2020-04-04T18:29:37Z</time>
      </trkpt>
      <trkpt lat="42.2874850" lon="-4.1350820">
        <ele>787.3</ele>
        <time>2020-04-04T18:29:39Z</time>
      </trkpt>
      <trkpt lat="42.2873880" lon="-4.1353410">
        <ele>788.8</ele>
        <time>2020-04-04T18:29:41Z</time>
      </trkpt>
      <trkpt lat="42.2873330" lon="-4.1355510">
        <ele>788.2</ele>
        <time>2020-04-04T18:29:43Z</time>
      </trkpt>
      <trkpt lat="42.2872780" lon="-4.1357450">
        <ele>787.6</ele>
        <time>2020-04-04T18:29:45Z</time>
      </trkpt>
      <trkpt lat="42.2871680" lon="-4.1361160">
        <ele>786.2</ele>
        <time>2020-04-04T18:29:47Z</time>
      </trkpt>
      <trkpt lat="42.2871070" lon="-4.1363290">
        <ele>785.9</ele>
        <time>2020-04-04T18:29:49Z</time>
      </trkpt>
      <trkpt lat="42.2870230" lon="-4.1366350">
        <ele>785.4</ele>
        <time>2020-04-04T18:29:51Z</time>
      </trkpt>
      <trkpt lat="42.2869550" lon="-4.1368860">
        <ele>785.1</ele>
        <time>2020-04-04T18:29:53Z</time>
      </trkpt>
      <trkpt lat="42.2869100" lon="-4.1370910">
        <ele>784.6</ele>
        <time>2020-04-04T18:29:55Z</time>
      </trkpt>
      <trkpt lat="42.2869110" lon="-4.1373410">
        <ele>785.1</ele>
        <time>2020-04-04T18:29:57Z</time>
      </trkpt>
      <trkpt lat="42.2868990" lon="-4.1375670">
        <ele>786.0</ele>
        <time>2020-04-04T18:29:59Z</time>
      </trkpt>
      <trkpt lat="42.2868850" lon="-4.1377390">
        <ele>786.6</ele>
        <time>2020-04-04T18:30:01Z</time>
      </trkpt>
      <trkpt lat="42.2868670" lon="-4.1380140">
        <ele>787.4</ele>
        <time>2020-04-04T18:30:03Z</time>
      </trkpt>
      <trkpt lat="42.2868580" lon="-4.1382740">
        <ele>788.2</ele>
        <time>2020-04-04T18:30:05Z</time>
      </trkpt>
      <trkpt lat="42.2868550" lon="-4.1384440">
        <ele>788.9</ele>
        <time>2020-04-04T18:30:07Z</time>
      </trkpt>
      <trkpt lat="42.2868490" lon="-4.1386900">
        <ele>789.2</ele>
        <time>2020-04-04T18:30:09Z</time>
      </trkpt>
      <trkpt lat="42.2868470" lon="-4.1389390">
        <ele>789.1</ele>
        <time>2020-04-04T18:30:11Z</time>
      </trkpt>
      <trkpt lat="42.2868480" lon="-4.1392100">
        <ele>788.9</ele>
        <time>2020-04-04T18:30:13Z</time>
      </trkpt>
      <trkpt lat="42.2868490" lon="-4.1393960">
        <ele>788.7</ele>
        <time>2020-04-04T18:30:15Z</time>
      </trkpt>
      <trkpt lat="42.2868500" lon="-4.1395880">
        <ele>788.5</ele>
        <time>2020-04-04T18:30:17Z</time>
      </trkpt>
      <trkpt lat="42.2868510" lon="-4.1397810">
        <ele>788.4</ele>
        <time>2020-04-04T18:30:19Z</time>
      </trkpt>
      <trkpt lat="42.2868510" lon="-4.1402230">
        <ele>788.0</ele>
        <time>2020-04-04T18:30:21Z</time>
      </trkpt>
      <trkpt lat="42.2868460" lon="-4.1404240">
        <ele>787.4</ele>
        <time>2020-04-04T18:30:23Z</time>
      </trkpt>
      <trkpt lat="42.2868360" lon="-4.1408080">
        <ele>785.9</ele>
        <time>2020-04-04T18:30:25Z</time>
      </trkpt>
      <trkpt lat="42.2868270" lon="-4.1410620">
        <ele>785.4</ele>
        <time>2020-04-04T18:30:27Z</time>
      </trkpt>
      <trkpt lat="42.2868190" lon="-4.1412690">
        <ele>784.9</ele>
        <time>2020-04-04T18:30:29Z</time>
      </trkpt>
      <trkpt lat="42.2868090" lon="-4.1416030">
        <ele>784.3</ele>
        <time>2020-04-04T18:30:31Z</time>
      </trkpt>
      <trkpt lat="42.2867970" lon="-4.1419040">
        <ele>783.8</ele>
        <time>2020-04-04T18:30:33Z</time>
      </trkpt>
      <trkpt lat="42.2869070" lon="-4.1418550">
        <ele>784.6</ele>
        <time>2020-04-04T18:30:35Z</time>
      </trkpt>
      <trkpt lat="42.2870900" lon="-4.1417800">
        <ele>786.0</ele>
        <time>2020-04-04T18:30:37Z</time>
      </trkpt>
      <trkpt lat="42.2871980" lon="-4.1417290">
        <ele>787.0</ele>
        <time>2020-04-04T18:30:39Z</time>
      </trkpt>
      <trkpt lat="42.2873500" lon="-4.1416570">
        <ele>788.5</ele>
        <time>2020-04-04T18:30:41Z</time>
      </trkpt>
      <trkpt lat="42.2874410" lon="-4.1416140">
        <ele>789.2</ele>
        <time>2020-04-04T18:30:43Z</time>
      </trkpt>
      <trkpt lat="42.2875260" lon="-4.1415730">
        <ele>790.0</ele>
        <time>2020-04-04T18:30:46Z</time>
      </trkpt>
      <trkpt lat="42.2876070" lon="-4.1415350">
        <ele>790.8</ele>
        <time>2020-04-04T18:30:48Z</time>
      </trkpt>
      <trkpt lat="42.2878090" lon="-4.1414890">
        <ele>792.6</ele>
        <time>2020-04-04T18:30:50Z</time>
      </trkpt>
      <trkpt lat="42.2878620" lon="-4.1416080">
        <ele>792.5</ele>
        <time>2020-04-04T18:30:52Z</time>
      </trkpt>
      <trkpt lat="42.2879400" lon="-4.1417990">
        <ele>792.1</ele>
        <time>2020-04-04T18:30:54Z</time>
      </trkpt>
      <trkpt lat="42.2878110" lon="-4.1419040">
        <ele>791.2</ele>
        <time>2020-04-04T18:30:56Z</time>
      </trkpt>
      <trkpt lat="42.2876640" lon="-4.1420160">
        <ele>789.7</ele>
        <time>2020-04-04T18:30:58Z</time>
      </trkpt>
      <trkpt lat="42.2875060" lon="-4.1421550">
        <ele>788.5</ele>
        <time>2020-04-04T18:31:00Z</time>
      </trkpt>
      <trkpt lat="42.2874000" lon="-4.1423440">
        <ele>787.6</ele>
        <time>2020-04-04T18:31:02Z</time>
      </trkpt>
      <trkpt lat="42.2873030" lon="-4.1424540">
        <ele>787.0</ele>
        <time>2020-04-04T18:31:04Z</time>
      </trkpt>
      <trkpt lat="42.2872270" lon="-4.1422810">
        <ele>786.5</ele>
        <time>2020-04-04T18:31:06Z</time>
      </trkpt>
      <trkpt lat="42.2871500" lon="-4.1421020">
        <ele>785.8</ele>
        <time>2020-04-04T18:31:08Z</time>
      </trkpt>
      <trkpt lat="42.2869770" lon="-4.1418320">
        <ele>785.1</ele>
        <time>2020-04-04T18:31:10Z</time>
      </trkpt>
      <trkpt lat="42.2867880" lon="-4.1419530">
        <ele>783.8</ele>
        <time>2020-04-04T18:31:12Z</time>
      </trkpt>
      <trkpt lat="42.2867790" lon="-4.1422250">
        <ele>784.3</ele>
        <time>2020-04-04T18:31:14Z</time>
      </trkpt>
      <trkpt lat="42.2868410" lon="-4.1424760">
        <ele>784.5</ele>
        <time>2020-04-04T18:31:16Z</time>
      </trkpt>
      <trkpt lat="42.2869120" lon="-4.1426470">
        <ele>784.6</ele>
        <time>2020-04-04T18:31:18Z</time>
      </trkpt>
      <trkpt lat="42.2869800" lon="-4.1428080">
        <ele>784.7</ele>
        <time>2020-04-04T18:31:20Z</time>
      </trkpt>
      <trkpt lat="42.2870440" lon="-4.1429620">
        <ele>784.9</ele>
        <time>2020-04-04T18:31:22Z</time>
      </trkpt>
      <trkpt lat="42.2872060" lon="-4.1433480">
        <ele>785.6</ele>
        <time>2020-04-04T18:31:24Z</time>
      </trkpt>
      <trkpt lat="42.2872890" lon="-4.1435450">
        <ele>785.9</ele>
        <time>2020-04-04T18:31:26Z</time>
      </trkpt>
      <trkpt lat="42.2873480" lon="-4.1436840">
        <ele>786.2</ele>
        <time>2020-04-04T18:31:28Z</time>
      </trkpt>
      <trkpt lat="42.2874060" lon="-4.1438200">
        <ele>786.5</ele>
        <time>2020-04-04T18:31:30Z</time>
      </trkpt>
      <trkpt lat="42.2874630" lon="-4.1439560">
        <ele>786.8</ele>
        <time>2020-04-04T18:31:32Z</time>
      </trkpt>
      <trkpt lat="42.2875190" lon="-4.1440890">
        <ele>787.1</ele>
        <time>2020-04-04T18:31:34Z</time>
      </trkpt>
      <trkpt lat="42.2876690" lon="-4.1444430">
        <ele>787.9</ele>
        <time>2020-04-04T18:31:36Z</time>
      </trkpt>
      <trkpt lat="42.2877320" lon="-4.1445910">
        <ele>788.3</ele>
        <time>2020-04-04T18:31:38Z</time>
      </trkpt>
      <trkpt lat="42.2877820" lon="-4.1447110">
        <ele>788.6</ele>
        <time>2020-04-04T18:31:40Z</time>
      </trkpt>
      <trkpt lat="42.2878310" lon="-4.1448270">
        <ele>788.9</ele>
        <time>2020-04-04T18:31:42Z</time>
      </trkpt>
      <trkpt lat="42.2879460" lon="-4.1451000">
        <ele>789.3</ele>
        <time>2020-04-04T18:31:44Z</time>
      </trkpt>
      <trkpt lat="42.2879930" lon="-4.1452100">
        <ele>789.7</ele>
        <time>2020-04-04T18:31:46Z</time>
      </trkpt>
      <trkpt lat="42.2880700" lon="-4.1453930">
        <ele>790.2</ele>
        <time>2020-04-04T18:31:48Z</time>
      </trkpt>
      <trkpt lat="42.2881250" lon="-4.1455240">
        <ele>790.3</ele>
        <time>2020-04-04T18:31:50Z</time>
      </trkpt>
      <trkpt lat="42.2881760" lon="-4.1456430">
        <ele>790.5</ele>
        <time>2020-04-04T18:31:52Z</time>
      </trkpt>
      <trkpt lat="42.2882650" lon="-4.1458560">
        <ele>790.8</ele>
        <time>2020-04-04T18:31:54Z</time>
      </trkpt>
      <trkpt lat="42.2883210" lon="-4.1459930">
        <ele>790.7</ele>
        <time>2020-04-04T18:31:56Z</time>
      </trkpt>
      <trkpt lat="42.2884220" lon="-4.1462420">
        <ele>790.2</ele>
        <time>2020-04-04T18:31:58Z</time>
      </trkpt>
      <trkpt lat="42.2885400" lon="-4.1464130">
        <ele>789.6</ele>
        <time>2020-04-04T18:32:00Z</time>
      </trkpt>
      <trkpt lat="42.2887050" lon="-4.1464930">
        <ele>789.8</ele>
        <time>2020-04-04T18:32:02Z</time>
      </trkpt>
      <trkpt lat="42.2888140" lon="-4.1466580">
        <ele>789.6</ele>
        <time>2020-04-04T18:32:04Z</time>
      </trkpt>
      <trkpt lat="42.2889010" lon="-4.1468540">
        <ele>789.3</ele>
        <time>2020-04-04T18:32:06Z</time>
      </trkpt>
      <trkpt lat="42.2890160" lon="-4.1470070">
        <ele>789.2</ele>
        <time>2020-04-04T18:32:08Z</time>
      </trkpt>
      <trkpt lat="42.2891270" lon="-4.1470940">
        <ele>789.2</ele>
        <time>2020-04-04T18:32:10Z</time>
      </trkpt>
      <trkpt lat="42.2892370" lon="-4.1471810">
        <ele>789.2</ele>
        <time>2020-04-04T18:32:12Z</time>
      </trkpt>
      <trkpt lat="42.2894710" lon="-4.1473660">
        <ele>789.3</ele>
        <time>2020-04-04T18:32:14Z</time>
      </trkpt>
      <trkpt lat="42.2895860" lon="-4.1474570">
        <ele>789.3</ele>
        <time>2020-04-04T18:32:16Z</time>
      </trkpt>
      <trkpt lat="42.2897060" lon="-4.1475520">
        <ele>789.1</ele>
        <time>2020-04-04T18:32:18Z</time>
      </trkpt>
      <trkpt lat="42.2899190" lon="-4.1477750">
        <ele>788.5</ele>
        <time>2020-04-04T18:32:20Z</time>
      </trkpt>
      <trkpt lat="42.2898850" lon="-4.1480380">
        <ele>787.1</ele>
        <time>2020-04-04T18:32:22Z</time>
      </trkpt>
      <trkpt lat="42.2898630" lon="-4.1483310">
        <ele>786.0</ele>
        <time>2020-04-04T18:32:24Z</time>
      </trkpt>
      <trkpt lat="42.2898680" lon="-4.1485970">
        <ele>785.3</ele>
        <time>2020-04-04T18:32:26Z</time>
      </trkpt>
      <trkpt lat="42.2899000" lon="-4.1488730">
        <ele>784.9</ele>
        <time>2020-04-04T18:32:28Z</time>
      </trkpt>
      <trkpt lat="42.2899320" lon="-4.1491220">
        <ele>784.7</ele>
        <time>2020-04-04T18:32:30Z</time>
      </trkpt>
      <trkpt lat="42.2899670" lon="-4.1493840">
        <ele>784.4</ele>
        <time>2020-04-04T18:32:32Z</time>
      </trkpt>
      <trkpt lat="42.2900010" lon="-4.1496660">
        <ele>784.0</ele>
        <time>2020-04-04T18:32:34Z</time>
      </trkpt>
      <trkpt lat="42.2900300" lon="-4.1499160">
        <ele>784.0</ele>
        <time>2020-04-04T18:32:36Z</time>
      </trkpt>
      <trkpt lat="42.2900460" lon="-4.1501600">
        <ele>784.0</ele>
        <time>2020-04-04T18:32:38Z</time>
      </trkpt>
      <trkpt lat="42.2900470" lon="-4.1503840">
        <ele>783.9</ele>
        <time>2020-04-04T18:32:40Z</time>
      </trkpt>
      <trkpt lat="42.2900410" lon="-4.1506130">
        <ele>783.9</ele>
        <time>2020-04-04T18:32:42Z</time>
      </trkpt>
      <trkpt lat="42.2900310" lon="-4.1508450">
        <ele>784.0</ele>
        <time>2020-04-04T18:32:44Z</time>
      </trkpt>
      <trkpt lat="42.2900180" lon="-4.1510950">
        <ele>783.8</ele>
        <time>2020-04-04T18:32:46Z</time>
      </trkpt>
      <trkpt lat="42.2900040" lon="-4.1513830">
        <ele>783.4</ele>
        <time>2020-04-04T18:32:48Z</time>
      </trkpt>
      <trkpt lat="42.2899940" lon="-4.1516230">
        <ele>783.3</ele>
        <time>2020-04-04T18:32:50Z</time>
      </trkpt>
      <trkpt lat="42.2899840" lon="-4.1518040">
        <ele>783.2</ele>
        <time>2020-04-04T18:32:52Z</time>
      </trkpt>
      <trkpt lat="42.2899750" lon="-4.1519860">
        <ele>783.1</ele>
        <time>2020-04-04T18:32:54Z</time>
      </trkpt>
      <trkpt lat="42.2899660" lon="-4.1521660">
        <ele>783.0</ele>
        <time>2020-04-04T18:32:56Z</time>
      </trkpt>
      <trkpt lat="42.2899450" lon="-4.1525710">
        <ele>783.0</ele>
        <time>2020-04-04T18:32:58Z</time>
      </trkpt>
      <trkpt lat="42.2899360" lon="-4.1527550">
        <ele>783.0</ele>
        <time>2020-04-04T18:33:00Z</time>
      </trkpt>
      <trkpt lat="42.2899190" lon="-4.1530960">
        <ele>782.7</ele>
        <time>2020-04-04T18:33:02Z</time>
      </trkpt>
      <trkpt lat="42.2899110" lon="-4.1532820">
        <ele>782.4</ele>
        <time>2020-04-04T18:33:04Z</time>
      </trkpt>
      <trkpt lat="42.2898980" lon="-4.1536000">
        <ele>782.2</ele>
        <time>2020-04-04T18:33:06Z</time>
      </trkpt>
      <trkpt lat="42.2898880" lon="-4.1537870">
        <ele>782.1</ele>
        <time>2020-04-04T18:33:08Z</time>
      </trkpt>
      <trkpt lat="42.2898720" lon="-4.1541180">
        <ele>781.1</ele>
        <time>2020-04-04T18:33:10Z</time>
      </trkpt>
      <trkpt lat="42.2898620" lon="-4.1543850">
        <ele>780.4</ele>
        <time>2020-04-04T18:33:12Z</time>
      </trkpt>
      <trkpt lat="42.2898470" lon="-4.1546420">
        <ele>780.0</ele>
        <time>2020-04-04T18:33:14Z</time>
      </trkpt>
      <trkpt lat="42.2898200" lon="-4.1548840">
        <ele>779.7</ele>
        <time>2020-04-04T18:33:16Z</time>
      </trkpt>
      <trkpt lat="42.2897900" lon="-4.1551750">
        <ele>779.1</ele>
        <time>2020-04-04T18:33:18Z</time>
      </trkpt>
      <trkpt lat="42.2897700" lon="-4.1554530">
        <ele>778.3</ele>
        <time>2020-04-04T18:33:20Z</time>
      </trkpt>
      <trkpt lat="42.2897630" lon="-4.1556560">
        <ele>777.6</ele>
        <time>2020-04-04T18:33:22Z</time>
      </trkpt>
      <trkpt lat="42.2897530" lon="-4.1559730">
        <ele>776.7</ele>
        <time>2020-04-04T18:33:24Z</time>
      </trkpt>
      <trkpt lat="42.2897440" lon="-4.1562670">
        <ele>775.8</ele>
        <time>2020-04-04T18:33:26Z</time>
      </trkpt>
      <trkpt lat="42.2897290" lon="-4.1565100">
        <ele>775.3</ele>
        <time>2020-04-04T18:33:28Z</time>
      </trkpt>
      <trkpt lat="42.2897110" lon="-4.1567910">
        <ele>774.8</ele>
        <time>2020-04-04T18:33:30Z</time>
      </trkpt>
      <trkpt lat="42.2896930" lon="-4.1570860">
        <ele>774.3</ele>
        <time>2020-04-04T18:33:32Z</time>
      </trkpt>
      <trkpt lat="42.2896860" lon="-4.1574150">
        <ele>773.8</ele>
        <time>2020-04-04T18:33:34Z</time>
      </trkpt>
      <trkpt lat="42.2896970" lon="-4.1576970">
        <ele>773.6</ele>
        <time>2020-04-04T18:33:36Z</time>
      </trkpt>
      <trkpt lat="42.2897230" lon="-4.1579900">
        <ele>773.0</ele>
        <time>2020-04-04T18:33:38Z</time>
      </trkpt>
      <trkpt lat="42.2897550" lon="-4.1582530">
        <ele>772.8</ele>
        <time>2020-04-04T18:33:40Z</time>
      </trkpt>
      <trkpt lat="42.2897820" lon="-4.1584390">
        <ele>772.6</ele>
        <time>2020-04-04T18:33:42Z</time>
      </trkpt>
      <trkpt lat="42.2898300" lon="-4.1587560">
        <ele>772.5</ele>
        <time>2020-04-04T18:33:44Z</time>
      </trkpt>
      <trkpt lat="42.2898630" lon="-4.1589700">
        <ele>772.1</ele>
        <time>2020-04-04T18:33:46Z</time>
      </trkpt>
      <trkpt lat="42.2899000" lon="-4.1592130">
        <ele>771.8</ele>
        <time>2020-04-04T18:33:48Z</time>
      </trkpt>
      <trkpt lat="42.2899320" lon="-4.1594420">
        <ele>771.8</ele>
        <time>2020-04-04T18:33:50Z</time>
      </trkpt>
      <trkpt lat="42.2899580" lon="-4.1597050">
        <ele>771.4</ele>
        <time>2020-04-04T18:33:52Z</time>
      </trkpt>
      <trkpt lat="42.2899740" lon="-4.1599530">
        <ele>771.0</ele>
        <time>2020-04-04T18:33:54Z</time>
      </trkpt>
      <trkpt lat="42.2899890" lon="-4.1602170">
        <ele>770.7</ele>
        <time>2020-04-04T18:33:56Z</time>
      </trkpt>
      <trkpt lat="42.2899830" lon="-4.1604250">
        <ele>770.4</ele>
        <time>2020-04-04T18:33:58Z</time>
      </trkpt>
      <trkpt lat="42.2899770" lon="-4.1606580">
        <ele>770.1</ele>
        <time>2020-04-04T18:34:00Z</time>
      </trkpt>
      <trkpt lat="42.2899720" lon="-4.1608250">
        <ele>769.9</ele>
        <time>2020-04-04T18:34:02Z</time>
      </trkpt>
      <trkpt lat="42.2899640" lon="-4.1611110">
        <ele>769.8</ele>
        <time>2020-04-04T18:34:04Z</time>
      </trkpt>
      <trkpt lat="42.2899600" lon="-4.1612720">
        <ele>769.7</ele>
        <time>2020-04-04T18:34:06Z</time>
      </trkpt>
      <trkpt lat="42.2899550" lon="-4.1615260">
        <ele>769.6</ele>
        <time>2020-04-04T18:34:08Z</time>
      </trkpt>
      <trkpt lat="42.2899520" lon="-4.1616960">
        <ele>769.3</ele>
        <time>2020-04-04T18:34:10Z</time>
      </trkpt>
      <trkpt lat="42.2899460" lon="-4.1619990">
        <ele>768.9</ele>
        <time>2020-04-04T18:34:12Z</time>
      </trkpt>
      <trkpt lat="42.2899400" lon="-4.1622690">
        <ele>768.8</ele>
        <time>2020-04-04T18:34:14Z</time>
      </trkpt>
      <trkpt lat="42.2899380" lon="-4.1624560">
        <ele>768.7</ele>
        <time>2020-04-04T18:34:16Z</time>
      </trkpt>
      <trkpt lat="42.2899430" lon="-4.1627910">
        <ele>768.7</ele>
        <time>2020-04-04T18:34:18Z</time>
      </trkpt>
      <trkpt lat="42.2900200" lon="-4.1630270">
        <ele>768.7</ele>
        <time>2020-04-04T18:34:20Z</time>
      </trkpt>
      <trkpt lat="42.2900860" lon="-4.1631940">
        <ele>768.8</ele>
        <time>2020-04-04T18:34:22Z</time>
      </trkpt>
      <trkpt lat="42.2901970" lon="-4.1634710">
        <ele>769.0</ele>
        <time>2020-04-04T18:34:24Z</time>
      </trkpt>
      <trkpt lat="42.2902560" lon="-4.1636310">
        <ele>769.1</ele>
        <time>2020-04-04T18:34:26Z</time>
      </trkpt>
      <trkpt lat="42.2903520" lon="-4.1638640">
        <ele>769.6</ele>
        <time>2020-04-04T18:34:28Z</time>
      </trkpt>
      <trkpt lat="42.2904560" lon="-4.1640580">
        <ele>770.2</ele>
        <time>2020-04-04T18:34:30Z</time>
      </trkpt>
      <trkpt lat="42.2905600" lon="-4.1642410">
        <ele>770.7</ele>
        <time>2020-04-04T18:34:32Z</time>
      </trkpt>
      <trkpt lat="42.2906620" lon="-4.1644460">
        <ele>771.1</ele>
        <time>2020-04-04T18:34:34Z</time>
      </trkpt>
      <trkpt lat="42.2907300" lon="-4.1645970">
        <ele>771.4</ele>
        <time>2020-04-04T18:34:36Z</time>
      </trkpt>
      <trkpt lat="42.2908570" lon="-4.1648830">
        <ele>772.1</ele>
        <time>2020-04-04T18:34:38Z</time>
      </trkpt>
      <trkpt lat="42.2909480" lon="-4.1650900">
        <ele>772.6</ele>
        <time>2020-04-04T18:34:40Z</time>
      </trkpt>
      <trkpt lat="42.2910090" lon="-4.1652430">
        <ele>772.9</ele>
        <time>2020-04-04T18:34:42Z</time>
      </trkpt>
      <trkpt lat="42.2910990" lon="-4.1655050">
        <ele>773.1</ele>
        <time>2020-04-04T18:34:44Z</time>
      </trkpt>
      <trkpt lat="42.2910970" lon="-4.1657100">
        <ele>773.4</ele>
        <time>2020-04-04T18:34:46Z</time>
      </trkpt>
      <trkpt lat="42.2910630" lon="-4.1659310">
        <ele>774.1</ele>
        <time>2020-04-04T18:34:48Z</time>
      </trkpt>
      <trkpt lat="42.2910380" lon="-4.1661120">
        <ele>775.0</ele>
        <time>2020-04-04T18:34:50Z</time>
      </trkpt>
      <trkpt lat="42.2910040" lon="-4.1663170">
        <ele>776.0</ele>
        <time>2020-04-04T18:34:52Z</time>
      </trkpt>
      <trkpt lat="42.2909700" lon="-4.1665440">
        <ele>777.1</ele>
        <time>2020-04-04T18:34:54Z</time>
      </trkpt>
      <trkpt lat="42.2909470" lon="-4.1667360">
        <ele>778.0</ele>
        <time>2020-04-04T18:34:56Z</time>
      </trkpt>
      <trkpt lat="42.2909280" lon="-4.1669120">
        <ele>778.9</ele>
        <time>2020-04-04T18:34:58Z</time>
      </trkpt>
      <trkpt lat="42.2909140" lon="-4.1670770">
        <ele>779.9</ele>
        <time>2020-04-04T18:35:00Z</time>
      </trkpt>
      <trkpt lat="42.2909020" lon="-4.1672600">
        <ele>781.3</ele>
        <time>2020-04-04T18:35:02Z</time>
      </trkpt>
      <trkpt lat="42.2909030" lon="-4.1673790">
        <ele>782.4</ele>
        <time>2020-04-04T18:35:04Z</time>
      </trkpt>
      <trkpt lat="42.2909040" lon="-4.1674960">
        <ele>783.6</ele>
        <time>2020-04-04T18:35:06Z</time>
      </trkpt>
      <trkpt lat="42.2908860" lon="-4.1677190">
        <ele>785.5</ele>
        <time>2020-04-04T18:35:08Z</time>
      </trkpt>
      <trkpt lat="42.2908420" lon="-4.1678320">
        <ele>786.2</ele>
        <time>2020-04-04T18:35:10Z</time>
      </trkpt>
      <trkpt lat="42.2908040" lon="-4.1679310">
        <ele>786.9</ele>
        <time>2020-04-04T18:35:12Z</time>
      </trkpt>
      <trkpt lat="42.2907520" lon="-4.1681030">
        <ele>788.6</ele>
        <time>2020-04-04T18:35:14Z</time>
      </trkpt>
      <trkpt lat="42.2907330" lon="-4.1682270">
        <ele>790.0</ele>
        <time>2020-04-04T18:35:16Z</time>
      </trkpt>
      <trkpt lat="42.2907320" lon="-4.1682950">
        <ele>790.7</ele>
        <time>2020-04-04T18:35:18Z</time>
      </trkpt>
      <trkpt lat="42.2907310" lon="-4.1683590">
        <ele>791.5</ele>
        <time>2020-04-04T18:35:20Z</time>
      </trkpt>
      <trkpt lat="42.2907300" lon="-4.1684180">
        <ele>792.4</ele>
        <time>2020-04-04T18:35:22Z</time>
      </trkpt>
      <trkpt lat="42.2907300" lon="-4.1684780">
        <ele>793.2</ele>
        <time>2020-04-04T18:35:24Z</time>
      </trkpt>
      <trkpt lat="42.2907290" lon="-4.1685370">
        <ele>794.0</ele>
        <time>2020-04-04T18:35:26Z</time>
      </trkpt>
      <trkpt lat="42.2907280" lon="-4.1685960">
        <ele>794.8</ele>
        <time>2020-04-04T18:35:28Z</time>
      </trkpt>
      <trkpt lat="42.2907280" lon="-4.1688000">
        <ele>797.6</ele>
        <time>2020-04-04T18:35:30Z</time>
      </trkpt>
      <trkpt lat="42.2907330" lon="-4.1688590">
        <ele>798.3</ele>
        <time>2020-04-04T18:35:32Z</time>
      </trkpt>
      <trkpt lat="42.2907430" lon="-4.1689620">
        <ele>799.6</ele>
        <time>2020-04-04T18:35:34Z</time>
      </trkpt>
      <trkpt lat="42.2907590" lon="-4.1690160">
        <ele>800.3</ele>
        <time>2020-04-04T18:35:36Z</time>
      </trkpt>
      <trkpt lat="42.2907880" lon="-4.1691070">
        <ele>801.6</ele>
        <time>2020-04-04T18:35:38Z</time>
      </trkpt>
      <trkpt lat="42.2908080" lon="-4.1691600">
        <ele>802.4</ele>
        <time>2020-04-04T18:35:40Z</time>
      </trkpt>
      <trkpt lat="42.2908330" lon="-4.1692470">
        <ele>803.7</ele>
        <time>2020-04-04T18:35:42Z</time>
      </trkpt>
      <trkpt lat="42.2908400" lon="-4.1693060">
        <ele>804.5</ele>
        <time>2020-04-04T18:35:44Z</time>
      </trkpt>
      <trkpt lat="42.2908390" lon="-4.1694050">
        <ele>805.9</ele>
        <time>2020-04-04T18:35:46Z</time>
      </trkpt>
      <trkpt lat="42.2908240" lon="-4.1695030">
        <ele>807.3</ele>
        <time>2020-04-04T18:35:48Z</time>
      </trkpt>
      <trkpt lat="42.2907850" lon="-4.1695930">
        <ele>808.6</ele>
        <time>2020-04-04T18:35:50Z</time>
      </trkpt>
      <trkpt lat="42.2907450" lon="-4.1696460">
        <ele>809.6</ele>
        <time>2020-04-04T18:35:52Z</time>
      </trkpt>
      <trkpt lat="42.2906900" lon="-4.1697210">
        <ele>810.9</ele>
        <time>2020-04-04T18:35:54Z</time>
      </trkpt>
      <trkpt lat="42.2906300" lon="-4.1697820">
        <ele>812.2</ele>
        <time>2020-04-04T18:35:56Z</time>
      </trkpt>
      <trkpt lat="42.2905840" lon="-4.1698230">
        <ele>813.2</ele>
        <time>2020-04-04T18:35:58Z</time>
      </trkpt>
      <trkpt lat="42.2905380" lon="-4.1698650">
        <ele>813.9</ele>
        <time>2020-04-04T18:36:00Z</time>
      </trkpt>
      <trkpt lat="42.2904440" lon="-4.1699460">
        <ele>815.6</ele>
        <time>2020-04-04T18:36:02Z</time>
      </trkpt>
      <trkpt lat="42.2903980" lon="-4.1699860">
        <ele>816.4</ele>
        <time>2020-04-04T18:36:04Z</time>
      </trkpt>
      <trkpt lat="42.2903210" lon="-4.1700660">
        <ele>817.7</ele>
        <time>2020-04-04T18:36:06Z</time>
      </trkpt>
      <trkpt lat="42.2902740" lon="-4.1701500">
        <ele>818.7</ele>
        <time>2020-04-04T18:36:08Z</time>
      </trkpt>
      <trkpt lat="42.2902490" lon="-4.1702170">
        <ele>819.5</ele>
        <time>2020-04-04T18:36:10Z</time>
      </trkpt>
      <trkpt lat="42.2902110" lon="-4.1703330">
        <ele>820.7</ele>
        <time>2020-04-04T18:36:12Z</time>
      </trkpt>
      <trkpt lat="42.2901960" lon="-4.1704010">
        <ele>821.4</ele>
        <time>2020-04-04T18:36:14Z</time>
      </trkpt>
      <trkpt lat="42.2901810" lon="-4.1704660">
        <ele>822.1</ele>
        <time>2020-04-04T18:36:16Z</time>
      </trkpt>
      <trkpt lat="42.2901660" lon="-4.1705320">
        <ele>822.6</ele>
        <time>2020-04-04T18:36:18Z</time>
      </trkpt>
      <trkpt lat="42.2901370" lon="-4.1706840">
        <ele>824.0</ele>
        <time>2020-04-04T18:36:20Z</time>
      </trkpt>
      <trkpt lat="42.2901280" lon="-4.1707510">
        <ele>824.6</ele>
        <time>2020-04-04T18:36:22Z</time>
      </trkpt>
      <trkpt lat="42.2901200" lon="-4.1708180">
        <ele>825.2</ele>
        <time>2020-04-04T18:36:24Z</time>
      </trkpt>
      <trkpt lat="42.2901110" lon="-4.1708840">
        <ele>825.9</ele>
        <time>2020-04-04T18:36:26Z</time>
      </trkpt>
      <trkpt lat="42.2900890" lon="-4.1710530">
        <ele>827.9</ele>
        <time>2020-04-04T18:36:28Z</time>
      </trkpt>
      <trkpt lat="42.2900810" lon="-4.1711200">
        <ele>828.6</ele>
        <time>2020-04-04T18:36:30Z</time>
      </trkpt>
      <trkpt lat="42.2900760" lon="-4.1712200">
        <ele>830.0</ele>
        <time>2020-04-04T18:36:32Z</time>
      </trkpt>
      <trkpt lat="42.2900750" lon="-4.1712860">
        <ele>830.9</ele>
        <time>2020-04-04T18:36:34Z</time>
      </trkpt>
      <trkpt lat="42.2900750" lon="-4.1713520">
        <ele>831.7</ele>
        <time>2020-04-04T18:36:36Z</time>
      </trkpt>
      <trkpt lat="42.2900690" lon="-4.1715010">
        <ele>833.6</ele>
        <time>2020-04-04T18:36:38Z</time>
      </trkpt>
      <trkpt lat="42.2900470" lon="-4.1715860">
        <ele>834.9</ele>
        <time>2020-04-04T18:36:40Z</time>
      </trkpt>
      <trkpt lat="42.2900010" lon="-4.1716410">
        <ele>835.8</ele>
        <time>2020-04-04T18:36:42Z</time>
      </trkpt>
      <trkpt lat="42.2899230" lon="-4.1717110">
        <ele>837.2</ele>
        <time>2020-04-04T18:36:44Z</time>
      </trkpt>
      <trkpt lat="42.2898670" lon="-4.1717560">
        <ele>838.1</ele>
        <time>2020-04-04T18:36:46Z</time>
      </trkpt>
      <trkpt lat="42.2897700" lon="-4.1718410">
        <ele>839.7</ele>
        <time>2020-04-04T18:36:48Z</time>
      </trkpt>
      <trkpt lat="42.2897010" lon="-4.1719310">
        <ele>841.0</ele>
        <time>2020-04-04T18:36:50Z</time>
      </trkpt>
      <trkpt lat="42.2896640" lon="-4.1720130">
        <ele>841.9</ele>
        <time>2020-04-04T18:36:52Z</time>
      </trkpt>
      <trkpt lat="42.2896170" lon="-4.1721380">
        <ele>843.1</ele>
        <time>2020-04-04T18:36:54Z</time>
      </trkpt>
      <trkpt lat="42.2895990" lon="-4.1722270">
        <ele>843.8</ele>
        <time>2020-04-04T18:36:56Z</time>
      </trkpt>
      <trkpt lat="42.2895720" lon="-4.1723730">
        <ele>844.7</ele>
        <time>2020-04-04T18:36:58Z</time>
      </trkpt>
      <trkpt lat="42.2895600" lon="-4.1724630">
        <ele>845.3</ele>
        <time>2020-04-04T18:37:00Z</time>
      </trkpt>
      <trkpt lat="42.2895320" lon="-4.1726120">
        <ele>846.3</ele>
        <time>2020-04-04T18:37:02Z</time>
      </trkpt>
      <trkpt lat="42.2895070" lon="-4.1727060">
        <ele>847.1</ele>
        <time>2020-04-04T18:37:04Z</time>
      </trkpt>
      <trkpt lat="42.2894520" lon="-4.1728710">
        <ele>848.4</ele>
        <time>2020-04-04T18:37:06Z</time>
      </trkpt>
      <trkpt lat="42.2893860" lon="-4.1729700">
        <ele>849.3</ele>
        <time>2020-04-04T18:37:08Z</time>
      </trkpt>
      <trkpt lat="42.2893090" lon="-4.1730630">
        <ele>850.3</ele>
        <time>2020-04-04T18:37:10Z</time>
      </trkpt>
      <trkpt lat="42.2892490" lon="-4.1731320">
        <ele>851.4</ele>
        <time>2020-04-04T18:37:12Z</time>
      </trkpt>
      <trkpt lat="42.2891510" lon="-4.1732680">
        <ele>853.2</ele>
        <time>2020-04-04T18:37:14Z</time>
      </trkpt>
      <trkpt lat="42.2891000" lon="-4.1733970">
        <ele>854.5</ele>
        <time>2020-04-04T18:37:16Z</time>
      </trkpt>
      <trkpt lat="42.2890790" lon="-4.1734980">
        <ele>855.6</ele>
        <time>2020-04-04T18:37:18Z</time>
      </trkpt>
      <trkpt lat="42.2890590" lon="-4.1736580">
        <ele>856.8</ele>
        <time>2020-04-04T18:37:20Z</time>
      </trkpt>
      <trkpt lat="42.2890570" lon="-4.1737530">
        <ele>857.4</ele>
        <time>2020-04-04T18:37:22Z</time>
      </trkpt>
      <trkpt lat="42.2890540" lon="-4.1738420">
        <ele>858.0</ele>
        <time>2020-04-04T18:37:24Z</time>
      </trkpt>
      <trkpt lat="42.2890500" lon="-4.1740240">
        <ele>859.2</ele>
        <time>2020-04-04T18:37:26Z</time>
      </trkpt>
      <trkpt lat="42.2890320" lon="-4.1741360">
        <ele>859.9</ele>
        <time>2020-04-04T18:37:28Z</time>
      </trkpt>
      <trkpt lat="42.2890040" lon="-4.1742490">
        <ele>860.7</ele>
        <time>2020-04-04T18:37:30Z</time>
      </trkpt>
      <trkpt lat="42.2889800" lon="-4.1743260">
        <ele>861.3</ele>
        <time>2020-04-04T18:37:32Z</time>
      </trkpt>
      <trkpt lat="42.2889550" lon="-4.1744030">
        <ele>862.0</ele>
        <time>2020-04-04T18:37:34Z</time>
      </trkpt>
      <trkpt lat="42.2889070" lon="-4.1745650">
        <ele>863.3</ele>
        <time>2020-04-04T18:37:36Z</time>
      </trkpt>
      <trkpt lat="42.2888890" lon="-4.1746700">
        <ele>864.4</ele>
        <time>2020-04-04T18:37:38Z</time>
      </trkpt>
      <trkpt lat="42.2888820" lon="-4.1747720">
        <ele>865.2</ele>
        <time>2020-04-04T18:37:40Z</time>
      </trkpt>
      <trkpt lat="42.2888810" lon="-4.1748560">
        <ele>865.8</ele>
        <time>2020-04-04T18:37:42Z</time>
      </trkpt>
      <trkpt lat="42.2888770" lon="-4.1750090">
        <ele>867.1</ele>
        <time>2020-04-04T18:37:44Z</time>
      </trkpt>
      <trkpt lat="42.2888710" lon="-4.1750900">
        <ele>867.8</ele>
        <time>2020-04-04T18:37:46Z</time>
      </trkpt>
      <trkpt lat="42.2888640" lon="-4.1751730">
        <ele>868.5</ele>
        <time>2020-04-04T18:37:48Z</time>
      </trkpt>
      <trkpt lat="42.2888570" lon="-4.1752550">
        <ele>869.2</ele>
        <time>2020-04-04T18:37:50Z</time>
      </trkpt>
      <trkpt lat="42.2888500" lon="-4.1753380">
        <ele>869.9</ele>
        <time>2020-04-04T18:37:52Z</time>
      </trkpt>
      <trkpt lat="42.2888300" lon="-4.1755650">
        <ele>871.5</ele>
        <time>2020-04-04T18:37:54Z</time>
      </trkpt>
      <trkpt lat="42.2888180" lon="-4.1756450">
        <ele>872.3</ele>
        <time>2020-04-04T18:37:56Z</time>
      </trkpt>
      <trkpt lat="42.2888050" lon="-4.1757240">
        <ele>872.9</ele>
        <time>2020-04-04T18:37:58Z</time>
      </trkpt>
      <trkpt lat="42.2887920" lon="-4.1758030">
        <ele>873.6</ele>
        <time>2020-04-04T18:38:00Z</time>
      </trkpt>
      <trkpt lat="42.2887630" lon="-4.1759740">
        <ele>875.6</ele>
        <time>2020-04-04T18:38:02Z</time>
      </trkpt>
      <trkpt lat="42.2887470" lon="-4.1760530">
        <ele>876.5</ele>
        <time>2020-04-04T18:38:04Z</time>
      </trkpt>
      <trkpt lat="42.2887080" lon="-4.1761920">
        <ele>878.5</ele>
        <time>2020-04-04T18:38:06Z</time>
      </trkpt>
      <trkpt lat="42.2886560" lon="-4.1762930">
        <ele>880.0</ele>
        <time>2020-04-04T18:38:08Z</time>
      </trkpt>
      <trkpt lat="42.2886100" lon="-4.1763530">
        <ele>880.8</ele>
        <time>2020-04-04T18:38:10Z</time>
      </trkpt>
      <trkpt lat="42.2885640" lon="-4.1764140">
        <ele>881.7</ele>
        <time>2020-04-04T18:38:12Z</time>
      </trkpt>
      <trkpt lat="42.2885180" lon="-4.1764740">
        <ele>882.5</ele>
        <time>2020-04-04T18:38:14Z</time>
      </trkpt>
      <trkpt lat="42.2884160" lon="-4.1766070">
        <ele>884.0</ele>
        <time>2020-04-04T18:38:16Z</time>
      </trkpt>
      <trkpt lat="42.2883700" lon="-4.1766680">
        <ele>884.6</ele>
        <time>2020-04-04T18:38:18Z</time>
      </trkpt>
      <trkpt lat="42.2883240" lon="-4.1767290">
        <ele>885.2</ele>
        <time>2020-04-04T18:38:20Z</time>
      </trkpt>
      <trkpt lat="42.2882780" lon="-4.1767900">
        <ele>885.8</ele>
        <time>2020-04-04T18:38:22Z</time>
      </trkpt>
      <trkpt lat="42.2881690" lon="-4.1769590">
        <ele>887.1</ele>
        <time>2020-04-04T18:38:24Z</time>
      </trkpt>
      <trkpt lat="42.2881440" lon="-4.1770510">
        <ele>887.7</ele>
        <time>2020-04-04T18:38:26Z</time>
      </trkpt>
      <trkpt lat="42.2881310" lon="-4.1771670">
        <ele>888.6</ele>
        <time>2020-04-04T18:38:28Z</time>
      </trkpt>
      <trkpt lat="42.2881200" lon="-4.1772920">
        <ele>889.7</ele>
        <time>2020-04-04T18:38:30Z</time>
      </trkpt>
      <trkpt lat="42.2881050" lon="-4.1773750">
        <ele>890.4</ele>
        <time>2020-04-04T18:38:32Z</time>
      </trkpt>
      <trkpt lat="42.2880750" lon="-4.1775000">
        <ele>891.5</ele>
        <time>2020-04-04T18:38:34Z</time>
      </trkpt>
      <trkpt lat="42.2880510" lon="-4.1775780">
        <ele>892.3</ele>
        <time>2020-04-04T18:38:36Z</time>
      </trkpt>
      <trkpt lat="42.2880280" lon="-4.1776570">
        <ele>893.2</ele>
        <time>2020-04-04T18:38:38Z</time>
      </trkpt>
      <trkpt lat="42.2880030" lon="-4.1777360">
        <ele>894.1</ele>
        <time>2020-04-04T18:38:40Z</time>
      </trkpt>
      <trkpt lat="42.2879360" lon="-4.1779060">
        <ele>896.1</ele>
        <time>2020-04-04T18:38:42Z</time>
      </trkpt>
      <trkpt lat="42.2878740" lon="-4.1779920">
        <ele>897.5</ele>
        <time>2020-04-04T18:38:44Z</time>
      </trkpt>
      <trkpt lat="42.2878020" lon="-4.1780460">
        <ele>898.5</ele>
        <time>2020-04-04T18:38:46Z</time>
      </trkpt>
      <trkpt lat="42.2877460" lon="-4.1780840">
        <ele>899.3</ele>
        <time>2020-04-04T18:38:48Z</time>
      </trkpt>
      <trkpt lat="42.2876540" lon="-4.1781620">
        <ele>900.8</ele>
        <time>2020-04-04T18:38:50Z</time>
      </trkpt>
      <trkpt lat="42.2875790" lon="-4.1782500">
        <ele>901.6</ele>
        <time>2020-04-04T18:38:52Z</time>
      </trkpt>
      <trkpt lat="42.2875250" lon="-4.1783520">
        <ele>902.3</ele>
        <time>2020-04-04T18:38:54Z</time>
      </trkpt>
      <trkpt lat="42.2874840" lon="-4.1784540">
        <ele>902.9</ele>
        <time>2020-04-04T18:38:56Z</time>
      </trkpt>
      <trkpt lat="42.2874510" lon="-4.1785400">
        <ele>903.4</ele>
        <time>2020-04-04T18:38:58Z</time>
      </trkpt>
      <trkpt lat="42.2874170" lon="-4.1786250">
        <ele>904.0</ele>
        <time>2020-04-04T18:39:00Z</time>
      </trkpt>
      <trkpt lat="42.2873840" lon="-4.1787120">
        <ele>904.7</ele>
        <time>2020-04-04T18:39:02Z</time>
      </trkpt>
      <trkpt lat="42.2873060" lon="-4.1789320">
        <ele>906.5</ele>
        <time>2020-04-04T18:39:04Z</time>
      </trkpt>
      <trkpt lat="42.2872860" lon="-4.1790630">
        <ele>907.9</ele>
        <time>2020-04-04T18:39:06Z</time>
      </trkpt>
      <trkpt lat="42.2872920" lon="-4.1791910">
        <ele>909.5</ele>
        <time>2020-04-04T18:39:08Z</time>
      </trkpt>
      <trkpt lat="42.2872990" lon="-4.1793270">
        <ele>910.6</ele>
        <time>2020-04-04T18:39:10Z</time>
      </trkpt>
      <trkpt lat="42.2873120" lon="-4.1794730">
        <ele>910.9</ele>
        <time>2020-04-04T18:39:12Z</time>
      </trkpt>
      <trkpt lat="42.2873370" lon="-4.1796600">
        <ele>911.0</ele>
        <time>2020-04-04T18:39:14Z</time>
      </trkpt>
      <trkpt lat="42.2873650" lon="-4.1798550">
        <ele>910.7</ele>
        <time>2020-04-04T18:39:16Z</time>
      </trkpt>
      <trkpt lat="42.2873820" lon="-4.1800440">
        <ele>910.6</ele>
        <time>2020-04-04T18:39:18Z</time>
      </trkpt>
      <trkpt lat="42.2873750" lon="-4.1801840">
        <ele>910.8</ele>
        <time>2020-04-04T18:39:20Z</time>
      </trkpt>
      <trkpt lat="42.2873620" lon="-4.1803900">
        <ele>911.1</ele>
        <time>2020-04-04T18:39:22Z</time>
      </trkpt>
      <trkpt lat="42.2873550" lon="-4.1805950">
        <ele>911.4</ele>
        <time>2020-04-04T18:39:24Z</time>
      </trkpt>
      <trkpt lat="42.2873640" lon="-4.1807390">
        <ele>911.6</ele>
        <time>2020-04-04T18:39:26Z</time>
      </trkpt>
      <trkpt lat="42.2873720" lon="-4.1808840">
        <ele>911.6</ele>
        <time>2020-04-04T18:39:28Z</time>
      </trkpt>
      <trkpt lat="42.2873810" lon="-4.1810300">
        <ele>911.7</ele>
        <time>2020-04-04T18:39:30Z</time>
      </trkpt>
      <trkpt lat="42.2874020" lon="-4.1813970">
        <ele>911.7</ele>
        <time>2020-04-04T18:39:32Z</time>
      </trkpt>
      <trkpt lat="42.2874090" lon="-4.1815460">
        <ele>911.6</ele>
        <time>2020-04-04T18:39:34Z</time>
      </trkpt>
      <trkpt lat="42.2874140" lon="-4.1817830">
        <ele>911.5</ele>
        <time>2020-04-04T18:39:36Z</time>
      </trkpt>
      <trkpt lat="42.2874060" lon="-4.1819760">
        <ele>911.3</ele>
        <time>2020-04-04T18:39:38Z</time>
      </trkpt>
      <trkpt lat="42.2873850" lon="-4.1821830">
        <ele>911.2</ele>
        <time>2020-04-04T18:39:40Z</time>
      </trkpt>
      <trkpt lat="42.2873680" lon="-4.1823360">
        <ele>911.1</ele>
        <time>2020-04-04T18:39:42Z</time>
      </trkpt>
      <trkpt lat="42.2873510" lon="-4.1824900">
        <ele>911.0</ele>
        <time>2020-04-04T18:39:44Z</time>
      </trkpt>
      <trkpt lat="42.2873340" lon="-4.1826460">
        <ele>910.9</ele>
        <time>2020-04-04T18:39:46Z</time>
      </trkpt>
      <trkpt lat="42.2872910" lon="-4.1830320">
        <ele>910.6</ele>
        <time>2020-04-04T18:39:48Z</time>
      </trkpt>
      <trkpt lat="42.2872680" lon="-4.1832360">
        <ele>910.5</ele>
        <time>2020-04-04T18:39:50Z</time>
      </trkpt>
      <trkpt lat="42.2872510" lon="-4.1833920">
        <ele>910.4</ele>
        <time>2020-04-04T18:39:52Z</time>
      </trkpt>
      <trkpt lat="42.2872350" lon="-4.1835460">
        <ele>910.3</ele>
        <time>2020-04-04T18:39:54Z</time>
      </trkpt>
      <trkpt lat="42.2871970" lon="-4.1838690">
        <ele>910.1</ele>
        <time>2020-04-04T18:39:56Z</time>
      </trkpt>
      <trkpt lat="42.2871740" lon="-4.1840430">
        <ele>909.9</ele>
        <time>2020-04-04T18:39:58Z</time>
      </trkpt>
      <trkpt lat="42.2871180" lon="-4.1843380">
        <ele>909.7</ele>
        <time>2020-04-04T18:40:00Z</time>
      </trkpt>
      <trkpt lat="42.2870320" lon="-4.1846000">
        <ele>909.2</ele>
        <time>2020-04-04T18:40:02Z</time>
      </trkpt>
      <trkpt lat="42.2869140" lon="-4.1848950">
        <ele>906.7</ele>
        <time>2020-04-04T18:40:04Z</time>
      </trkpt>
      <trkpt lat="42.2868030" lon="-4.1851450">
        <ele>904.5</ele>
        <time>2020-04-04T18:40:06Z</time>
      </trkpt>
      <trkpt lat="42.2866430" lon="-4.1854580">
        <ele>900.5</ele>
        <time>2020-04-04T18:40:08Z</time>
      </trkpt>
      <trkpt lat="42.2865550" lon="-4.1857610">
        <ele>895.3</ele>
        <time>2020-04-04T18:40:10Z</time>
      </trkpt>
      <trkpt lat="42.2864540" lon="-4.1861870">
        <ele>889.3</ele>
        <time>2020-04-04T18:40:12Z</time>
      </trkpt>
      <trkpt lat="42.2864080" lon="-4.1865090">
        <ele>884.7</ele>
        <time>2020-04-04T18:40:14Z</time>
      </trkpt>
      <trkpt lat="42.2863100" lon="-4.1870200">
        <ele>875.8</ele>
        <time>2020-04-04T18:40:16Z</time>
      </trkpt>
      <trkpt lat="42.2861990" lon="-4.1875450">
        <ele>865.7</ele>
        <time>2020-04-04T18:40:18Z</time>
      </trkpt>
      <trkpt lat="42.2860030" lon="-4.1880010">
        <ele>857.1</ele>
        <time>2020-04-04T18:40:20Z</time>
      </trkpt>
      <trkpt lat="42.2859080" lon="-4.1884720">
        <ele>851.0</ele>
        <time>2020-04-04T18:40:22Z</time>
      </trkpt>
      <trkpt lat="42.2859150" lon="-4.1889230">
        <ele>847.3</ele>
        <time>2020-04-04T18:40:24Z</time>
      </trkpt>
      <trkpt lat="42.2859390" lon="-4.1893920">
        <ele>843.5</ele>
        <time>2020-04-04T18:40:26Z</time>
      </trkpt>
      <trkpt lat="42.2860140" lon="-4.1898360">
        <ele>840.6</ele>
        <time>2020-04-04T18:40:28Z</time>
      </trkpt>
      <trkpt lat="42.2860400" lon="-4.1902340">
        <ele>838.5</ele>
        <time>2020-04-04T18:40:30Z</time>
      </trkpt>
      <trkpt lat="42.2860530" lon="-4.1905230">
        <ele>837.4</ele>
        <time>2020-04-04T18:40:32Z</time>
      </trkpt>
      <trkpt lat="42.2860820" lon="-4.1910020">
        <ele>835.6</ele>
        <time>2020-04-04T18:40:34Z</time>
      </trkpt>
      <trkpt lat="42.2861100" lon="-4.1912510">
        <ele>834.9</ele>
        <time>2020-04-04T18:40:36Z</time>
      </trkpt>
      <trkpt lat="42.2861400" lon="-4.1916290">
        <ele>833.8</ele>
        <time>2020-04-04T18:40:38Z</time>
      </trkpt>
      <trkpt lat="42.2861520" lon="-4.1918570">
        <ele>833.2</ele>
        <time>2020-04-04T18:40:40Z</time>
      </trkpt>
      <trkpt lat="42.2861640" lon="-4.1920820">
        <ele>832.5</ele>
        <time>2020-04-04T18:40:42Z</time>
      </trkpt>
      <trkpt lat="42.2861910" lon="-4.1926090">
        <ele>831.1</ele>
        <time>2020-04-04T18:40:44Z</time>
      </trkpt>
      <trkpt lat="42.2861900" lon="-4.1928310">
        <ele>830.6</ele>
        <time>2020-04-04T18:40:46Z</time>
      </trkpt>
      <trkpt lat="42.2861850" lon="-4.1931870">
        <ele>829.8</ele>
        <time>2020-04-04T18:40:48Z</time>
      </trkpt>
      <trkpt lat="42.2861780" lon="-4.1933970">
        <ele>829.4</ele>
        <time>2020-04-04T18:40:50Z</time>
      </trkpt>
      <trkpt lat="42.2861710" lon="-4.1935890">
        <ele>829.0</ele>
        <time>2020-04-04T18:40:52Z</time>
      </trkpt>
      <trkpt lat="42.2861590" lon="-4.1939350">
        <ele>828.3</ele>
        <time>2020-04-04T18:40:54Z</time>
      </trkpt>
      <trkpt lat="42.2861520" lon="-4.1941120">
        <ele>828.0</ele>
        <time>2020-04-04T18:40:56Z</time>
      </trkpt>
      <trkpt lat="42.2861180" lon="-4.1944420">
        <ele>826.9</ele>
        <time>2020-04-04T18:40:58Z</time>
      </trkpt>
      <trkpt lat="42.2860810" lon="-4.1946370">
        <ele>826.5</ele>
        <time>2020-04-04T18:41:00Z</time>
      </trkpt>
      <trkpt lat="42.2860500" lon="-4.1948810">
        <ele>825.9</ele>
        <time>2020-04-04T18:41:02Z</time>
      </trkpt>
      <trkpt lat="42.2860370" lon="-4.1951320">
        <ele>825.1</ele>
        <time>2020-04-04T18:41:04Z</time>
      </trkpt>
      <trkpt lat="42.2860340" lon="-4.1953240">
        <ele>824.3</ele>
        <time>2020-04-04T18:41:06Z</time>
      </trkpt>
      <trkpt lat="42.2860300" lon="-4.1955250">
        <ele>823.4</ele>
        <time>2020-04-04T18:41:08Z</time>
      </trkpt>
      <trkpt lat="42.2860260" lon="-4.1959240">
        <ele>821.9</ele>
        <time>2020-04-04T18:41:10Z</time>
      </trkpt>
      <trkpt lat="42.2860260" lon="-4.1962330">
        <ele>821.1</ele>
        <time>2020-04-04T18:41:12Z</time>
      </trkpt>
      <trkpt lat="42.2860270" lon="-4.1964310">
        <ele>820.7</ele>
        <time>2020-04-04T18:41:14Z</time>
      </trkpt>
      <trkpt lat="42.2860250" lon="-4.1967540">
        <ele>820.2</ele>
        <time>2020-04-04T18:41:16Z</time>
      </trkpt>
      <trkpt lat="42.2860220" lon="-4.1969290">
        <ele>820.1</ele>
        <time>2020-04-04T18:41:18Z</time>
      </trkpt>
      <trkpt lat="42.2860190" lon="-4.1971000">
        <ele>820.0</ele>
        <time>2020-04-04T18:41:20Z</time>
      </trkpt>
      <trkpt lat="42.2860060" lon="-4.1974200">
        <ele>819.4</ele>
        <time>2020-04-04T18:41:22Z</time>
      </trkpt>
      <trkpt lat="42.2859950" lon="-4.1976730">
        <ele>818.8</ele>
        <time>2020-04-04T18:41:24Z</time>
      </trkpt>
      <trkpt lat="42.2860050" lon="-4.1978900">
        <ele>818.1</ele>
        <time>2020-04-04T18:41:26Z</time>
      </trkpt>
      <trkpt lat="42.2860180" lon="-4.1980600">
        <ele>817.6</ele>
        <time>2020-04-04T18:41:28Z</time>
      </trkpt>
      <trkpt lat="42.2860310" lon="-4.1982310">
        <ele>817.2</ele>
        <time>2020-04-04T18:41:30Z</time>
      </trkpt>
      <trkpt lat="42.2860450" lon="-4.1984090">
        <ele>817.0</ele>
        <time>2020-04-04T18:41:32Z</time>
      </trkpt>
      <trkpt lat="42.2860590" lon="-4.1985900">
        <ele>816.8</ele>
        <time>2020-04-04T18:41:34Z</time>
      </trkpt>
      <trkpt lat="42.2860990" lon="-4.1990590">
        <ele>816.3</ele>
        <time>2020-04-04T18:41:36Z</time>
      </trkpt>
      <trkpt lat="42.2861180" lon="-4.1992480">
        <ele>816.2</ele>
        <time>2020-04-04T18:41:38Z</time>
      </trkpt>
      <trkpt lat="42.2861380" lon="-4.1994400">
        <ele>816.1</ele>
        <time>2020-04-04T18:41:40Z</time>
      </trkpt>
      <trkpt lat="42.2861810" lon="-4.1998560">
        <ele>815.7</ele>
        <time>2020-04-04T18:41:42Z</time>
      </trkpt>
      <trkpt lat="42.2862020" lon="-4.2000510">
        <ele>815.4</ele>
        <time>2020-04-04T18:41:44Z</time>
      </trkpt>
      <trkpt lat="42.2862420" lon="-4.2004180">
        <ele>814.6</ele>
        <time>2020-04-04T18:41:46Z</time>
      </trkpt>
      <trkpt lat="42.2862810" lon="-4.2006600">
        <ele>814.1</ele>
        <time>2020-04-04T18:41:48Z</time>
      </trkpt>
      <trkpt lat="42.2863250" lon="-4.2008910">
        <ele>814.1</ele>
        <time>2020-04-04T18:41:50Z</time>
      </trkpt>
      <trkpt lat="42.2863550" lon="-4.2011930">
        <ele>813.9</ele>
        <time>2020-04-04T18:41:52Z</time>
      </trkpt>
      <trkpt lat="42.2862500" lon="-4.2014010">
        <ele>813.6</ele>
        <time>2020-04-04T18:41:54Z</time>
      </trkpt>
      <trkpt lat="42.2861460" lon="-4.2015570">
        <ele>813.1</ele>
        <time>2020-04-04T18:41:56Z</time>
      </trkpt>
      <trkpt lat="42.2860230" lon="-4.2018880">
        <ele>811.2</ele>
        <time>2020-04-04T18:41:58Z</time>
      </trkpt>
      <trkpt lat="42.2860110" lon="-4.2022020">
        <ele>810.0</ele>
        <time>2020-04-04T18:42:00Z</time>
      </trkpt>
      <trkpt lat="42.2859480" lon="-4.2024940">
        <ele>807.7</ele>
        <time>2020-04-04T18:42:02Z</time>
      </trkpt>
      <trkpt lat="42.2858900" lon="-4.2027180">
        <ele>805.9</ele>
        <time>2020-04-04T18:42:04Z</time>
      </trkpt>
      <trkpt lat="42.2858080" lon="-4.2030620">
        <ele>803.7</ele>
        <time>2020-04-04T18:42:06Z</time>
      </trkpt>
      <trkpt lat="42.2857610" lon="-4.2033820">
        <ele>802.4</ele>
        <time>2020-04-04T18:42:08Z</time>
      </trkpt>
      <trkpt lat="42.2857390" lon="-4.2037320">
        <ele>801.0</ele>
        <time>2020-04-04T18:42:10Z</time>
      </trkpt>
      <trkpt lat="42.2857360" lon="-4.2040810">
        <ele>800.1</ele>
        <time>2020-04-04T18:42:12Z</time>
      </trkpt>
      <trkpt lat="42.2857390" lon="-4.2043080">
        <ele>799.3</ele>
        <time>2020-04-04T18:42:14Z</time>
      </trkpt>
      <trkpt lat="42.2857410" lon="-4.2045320">
        <ele>798.5</ele>
        <time>2020-04-04T18:42:16Z</time>
      </trkpt>
      <trkpt lat="42.2857470" lon="-4.2049850">
        <ele>797.4</ele>
        <time>2020-04-04T18:42:18Z</time>
      </trkpt>
      <trkpt lat="42.2857490" lon="-4.2051940">
        <ele>796.9</ele>
        <time>2020-04-04T18:42:20Z</time>
      </trkpt>
      <trkpt lat="42.2857510" lon="-4.2053950">
        <ele>796.7</ele>
        <time>2020-04-04T18:42:22Z</time>
      </trkpt>
      <trkpt lat="42.2857600" lon="-4.2058060">
        <ele>796.4</ele>
        <time>2020-04-04T18:42:24Z</time>
      </trkpt>
      <trkpt lat="42.2857590" lon="-4.2060160">
        <ele>796.1</ele>
        <time>2020-04-04T18:42:26Z</time>
      </trkpt>
      <trkpt lat="42.2857450" lon="-4.2063060">
        <ele>795.7</ele>
        <time>2020-04-04T18:42:28Z</time>
      </trkpt>
      <trkpt lat="42.2857310" lon="-4.2064910">
        <ele>795.4</ele>
        <time>2020-04-04T18:42:30Z</time>
      </trkpt>
      <trkpt lat="42.2857170" lon="-4.2066750">
        <ele>795.2</ele>
        <time>2020-04-04T18:42:32Z</time>
      </trkpt>
      <trkpt lat="42.2856910" lon="-4.2070250">
        <ele>794.8</ele>
        <time>2020-04-04T18:42:34Z</time>
      </trkpt>
      <trkpt lat="42.2856770" lon="-4.2072060">
        <ele>794.7</ele>
        <time>2020-04-04T18:42:36Z</time>
      </trkpt>
      <trkpt lat="42.2856530" lon="-4.2075500">
        <ele>794.5</ele>
        <time>2020-04-04T18:42:38Z</time>
      </trkpt>
      <trkpt lat="42.2856480" lon="-4.2077270">
        <ele>794.5</ele>
        <time>2020-04-04T18:42:40Z</time>
      </trkpt>
      <trkpt lat="42.2856430" lon="-4.2079050">
        <ele>794.4</ele>
        <time>2020-04-04T18:42:42Z</time>
      </trkpt>
      <trkpt lat="42.2856300" lon="-4.2082640">
        <ele>794.4</ele>
        <time>2020-04-04T18:42:44Z</time>
      </trkpt>
      <trkpt lat="42.2856200" lon="-4.2084400">
        <ele>794.3</ele>
        <time>2020-04-04T18:42:46Z</time>
      </trkpt>
      <trkpt lat="42.2855990" lon="-4.2087220">
        <ele>794.1</ele>
        <time>2020-04-04T18:42:48Z</time>
      </trkpt>
      <trkpt lat="42.2855810" lon="-4.2088970">
        <ele>794.0</ele>
        <time>2020-04-04T18:42:50Z</time>
      </trkpt>
      <trkpt lat="42.2855640" lon="-4.2090740">
        <ele>793.8</ele>
        <time>2020-04-04T18:42:52Z</time>
      </trkpt>
      <trkpt lat="42.2855260" lon="-4.2094650">
        <ele>793.4</ele>
        <time>2020-04-04T18:42:54Z</time>
      </trkpt>
      <trkpt lat="42.2855070" lon="-4.2096430">
        <ele>793.3</ele>
        <time>2020-04-04T18:42:56Z</time>
      </trkpt>
      <trkpt lat="42.2854880" lon="-4.2098230">
        <ele>793.2</ele>
        <time>2020-04-04T18:42:58Z</time>
      </trkpt>
      <trkpt lat="42.2854450" lon="-4.2101670">
        <ele>793.0</ele>
        <time>2020-04-04T18:43:00Z</time>
      </trkpt>
      <trkpt lat="42.2853990" lon="-4.2104380">
        <ele>793.0</ele>
        <time>2020-04-04T18:43:02Z</time>
      </trkpt>
      <trkpt lat="42.2853290" lon="-4.2106660">
        <ele>792.9</ele>
        <time>2020-04-04T18:43:04Z</time>
      </trkpt>
      <trkpt lat="42.2852700" lon="-4.2108310">
        <ele>792.8</ele>
        <time>2020-04-04T18:43:06Z</time>
      </trkpt>
      <trkpt lat="42.2852120" lon="-4.2109910">
        <ele>792.7</ele>
        <time>2020-04-04T18:43:08Z</time>
      </trkpt>
      <trkpt lat="42.2851110" lon="-4.2112880">
        <ele>792.6</ele>
        <time>2020-04-04T18:43:10Z</time>
      </trkpt>
      <trkpt lat="42.2850580" lon="-4.2114500">
        <ele>792.5</ele>
        <time>2020-04-04T18:43:12Z</time>
      </trkpt>
      <trkpt lat="42.2850070" lon="-4.2116110">
        <ele>792.5</ele>
        <time>2020-04-04T18:43:14Z</time>
      </trkpt>
      <trkpt lat="42.2848970" lon="-4.2119600">
        <ele>792.4</ele>
        <time>2020-04-04T18:43:16Z</time>
      </trkpt>
      <trkpt lat="42.2848520" lon="-4.2121230">
        <ele>792.4</ele>
        <time>2020-04-04T18:43:18Z</time>
      </trkpt>
      <trkpt lat="42.2848080" lon="-4.2122850">
        <ele>792.4</ele>
        <time>2020-04-04T18:43:20Z</time>
      </trkpt>
      <trkpt lat="42.2847630" lon="-4.2124450">
        <ele>792.3</ele>
        <time>2020-04-04T18:43:22Z</time>
      </trkpt>
      <trkpt lat="42.2847200" lon="-4.2126040">
        <ele>792.2</ele>
        <time>2020-04-04T18:43:24Z</time>
      </trkpt>
      <trkpt lat="42.2846010" lon="-4.2130340">
        <ele>792.1</ele>
        <time>2020-04-04T18:43:26Z</time>
      </trkpt>
      <trkpt lat="42.2845570" lon="-4.2131920">
        <ele>792.1</ele>
        <time>2020-04-04T18:43:28Z</time>
      </trkpt>
      <trkpt lat="42.2845140" lon="-4.2133510">
        <ele>792.0</ele>
        <time>2020-04-04T18:43:30Z</time>
      </trkpt>
      <trkpt lat="42.2844700" lon="-4.2135090">
        <ele>792.0</ele>
        <time>2020-04-04T18:43:32Z</time>
      </trkpt>
      <trkpt lat="42.2844270" lon="-4.2136660">
        <ele>791.8</ele>
        <time>2020-04-04T18:43:34Z</time>
      </trkpt>
      <trkpt lat="42.2843020" lon="-4.2140930">
        <ele>791.6</ele>
        <time>2020-04-04T18:43:36Z</time>
      </trkpt>
      <trkpt lat="42.2842520" lon="-4.2142490">
        <ele>791.5</ele>
        <time>2020-04-04T18:43:38Z</time>
      </trkpt>
      <trkpt lat="42.2842020" lon="-4.2144060">
        <ele>791.5</ele>
        <time>2020-04-04T18:43:40Z</time>
      </trkpt>
      <trkpt lat="42.2841520" lon="-4.2145630">
        <ele>791.5</ele>
        <time>2020-04-04T18:43:42Z</time>
      </trkpt>
      <trkpt lat="42.2840250" lon="-4.2149640">
        <ele>791.4</ele>
        <time>2020-04-04T18:43:44Z</time>
      </trkpt>
      <trkpt lat="42.2839750" lon="-4.2151240">
        <ele>791.4</ele>
        <time>2020-04-04T18:43:46Z</time>
      </trkpt>
      <trkpt lat="42.2839250" lon="-4.2152820">
        <ele>791.3</ele>
        <time>2020-04-04T18:43:48Z</time>
      </trkpt>
      <trkpt lat="42.2838740" lon="-4.2154420">
        <ele>791.2</ele>
        <time>2020-04-04T18:43:50Z</time>
      </trkpt>
      <trkpt lat="42.2837510" lon="-4.2158440">
        <ele>790.8</ele>
        <time>2020-04-04T18:43:52Z</time>
      </trkpt>
      <trkpt lat="42.2837150" lon="-4.2160120">
        <ele>790.5</ele>
        <time>2020-04-04T18:43:54Z</time>
      </trkpt>
      <trkpt lat="42.2836570" lon="-4.2162990">
        <ele>790.2</ele>
        <time>2020-04-04T18:43:56Z</time>
      </trkpt>
      <trkpt lat="42.2836300" lon="-4.2164720">
        <ele>790.0</ele>
        <time>2020-04-04T18:43:58Z</time>
      </trkpt>
      <trkpt lat="42.2835860" lon="-4.2167640">
        <ele>789.7</ele>
        <time>2020-04-04T18:44:00Z</time>
      </trkpt>
      <trkpt lat="42.2835550" lon="-4.2170080">
        <ele>789.6</ele>
        <time>2020-04-04T18:44:02Z</time>
      </trkpt>
      <trkpt lat="42.2835350" lon="-4.2172430">
        <ele>789.5</ele>
        <time>2020-04-04T18:44:04Z</time>
      </trkpt>
      <trkpt lat="42.2835190" lon="-4.2174220">
        <ele>789.4</ele>
        <time>2020-04-04T18:44:06Z</time>
      </trkpt>
      <trkpt lat="42.2835040" lon="-4.2176050">
        <ele>789.2</ele>
        <time>2020-04-04T18:44:08Z</time>
      </trkpt>
      <trkpt lat="42.2834890" lon="-4.2177900">
        <ele>789.0</ele>
        <time>2020-04-04T18:44:10Z</time>
      </trkpt>
      <trkpt lat="42.2834480" lon="-4.2182220">
        <ele>788.7</ele>
        <time>2020-04-04T18:44:12Z</time>
      </trkpt>
      <trkpt lat="42.2834250" lon="-4.2184070">
        <ele>788.6</ele>
        <time>2020-04-04T18:44:14Z</time>
      </trkpt>
      <trkpt lat="42.2834030" lon="-4.2185940">
        <ele>788.5</ele>
        <time>2020-04-04T18:44:16Z</time>
      </trkpt>
      <trkpt lat="42.2833800" lon="-4.2187830">
        <ele>788.5</ele>
        <time>2020-04-04T18:44:18Z</time>
      </trkpt>
      <trkpt lat="42.2833570" lon="-4.2189710">
        <ele>788.5</ele>
        <time>2020-04-04T18:44:20Z</time>
      </trkpt>
      <trkpt lat="42.2833000" lon="-4.2194500">
        <ele>788.4</ele>
        <time>2020-04-04T18:44:22Z</time>
      </trkpt>
      <trkpt lat="42.2832780" lon="-4.2196320">
        <ele>788.4</ele>
        <time>2020-04-04T18:44:24Z</time>
      </trkpt>
      <trkpt lat="42.2832570" lon="-4.2198100">
        <ele>788.4</ele>
        <time>2020-04-04T18:44:26Z</time>
      </trkpt>
      <trkpt lat="42.2832350" lon="-4.2199850">
        <ele>788.4</ele>
        <time>2020-04-04T18:44:28Z</time>
      </trkpt>
      <trkpt lat="42.2831750" lon="-4.2204490">
        <ele>788.0</ele>
        <time>2020-04-04T18:44:30Z</time>
      </trkpt>
      <trkpt lat="42.2831450" lon="-4.2206170">
        <ele>787.9</ele>
        <time>2020-04-04T18:44:32Z</time>
      </trkpt>
      <trkpt lat="42.2830940" lon="-4.2209010">
        <ele>787.9</ele>
        <time>2020-04-04T18:44:34Z</time>
      </trkpt>
      <trkpt lat="42.2830600" lon="-4.2210640">
        <ele>787.9</ele>
        <time>2020-04-04T18:44:36Z</time>
      </trkpt>
      <trkpt lat="42.2830260" lon="-4.2212260">
        <ele>787.7</ele>
        <time>2020-04-04T18:44:38Z</time>
      </trkpt>
      <trkpt lat="42.2829520" lon="-4.2215670">
        <ele>787.4</ele>
        <time>2020-04-04T18:44:40Z</time>
      </trkpt>
      <trkpt lat="42.2829150" lon="-4.2217260">
        <ele>787.2</ele>
        <time>2020-04-04T18:44:42Z</time>
      </trkpt>
      <trkpt lat="42.2828770" lon="-4.2218840">
        <ele>787.0</ele>
        <time>2020-04-04T18:44:44Z</time>
      </trkpt>
      <trkpt lat="42.2828390" lon="-4.2220430">
        <ele>786.8</ele>
        <time>2020-04-04T18:44:46Z</time>
      </trkpt>
      <trkpt lat="42.2827530" lon="-4.2224050">
        <ele>786.6</ele>
        <time>2020-04-04T18:44:48Z</time>
      </trkpt>
      <trkpt lat="42.2827160" lon="-4.2225620">
        <ele>786.6</ele>
        <time>2020-04-04T18:44:50Z</time>
      </trkpt>
      <trkpt lat="42.2826780" lon="-4.2227190">
        <ele>786.6</ele>
        <time>2020-04-04T18:44:52Z</time>
      </trkpt>
      <trkpt lat="42.2826410" lon="-4.2228760">
        <ele>786.6</ele>
        <time>2020-04-04T18:44:54Z</time>
      </trkpt>
      <trkpt lat="42.2825380" lon="-4.2232300">
        <ele>786.6</ele>
        <time>2020-04-04T18:44:56Z</time>
      </trkpt>
      <trkpt lat="42.2824840" lon="-4.2233740">
        <ele>786.8</ele>
        <time>2020-04-04T18:44:58Z</time>
      </trkpt>
      <trkpt lat="42.2824290" lon="-4.2235170">
        <ele>787.0</ele>
        <time>2020-04-04T18:45:00Z</time>
      </trkpt>
      <trkpt lat="42.2823750" lon="-4.2236600">
        <ele>787.2</ele>
        <time>2020-04-04T18:45:02Z</time>
      </trkpt>
      <trkpt lat="42.2823210" lon="-4.2238030">
        <ele>787.3</ele>
        <time>2020-04-04T18:45:04Z</time>
      </trkpt>
      <trkpt lat="42.2821730" lon="-4.2242080">
        <ele>787.4</ele>
        <time>2020-04-04T18:45:06Z</time>
      </trkpt>
      <trkpt lat="42.2821100" lon="-4.2244140">
        <ele>787.5</ele>
        <time>2020-04-04T18:45:08Z</time>
      </trkpt>
      <trkpt lat="42.2820700" lon="-4.2245600">
        <ele>787.6</ele>
        <time>2020-04-04T18:45:10Z</time>
      </trkpt>
      <trkpt lat="42.2820310" lon="-4.2247030">
        <ele>787.8</ele>
        <time>2020-04-04T18:45:12Z</time>
      </trkpt>
      <trkpt lat="42.2819910" lon="-4.2248460">
        <ele>787.9</ele>
        <time>2020-04-04T18:45:14Z</time>
      </trkpt>
      <trkpt lat="42.2819530" lon="-4.2249850">
        <ele>788.0</ele>
        <time>2020-04-04T18:45:16Z</time>
      </trkpt>
      <trkpt lat="42.2818430" lon="-4.2253510">
        <ele>788.6</ele>
        <time>2020-04-04T18:45:18Z</time>
      </trkpt>
      <trkpt lat="42.2817940" lon="-4.2254840">
        <ele>788.8</ele>
        <time>2020-04-04T18:45:20Z</time>
      </trkpt>
      <trkpt lat="42.2817020" lon="-4.2257010">
        <ele>789.5</ele>
        <time>2020-04-04T18:45:22Z</time>
      </trkpt>
      <trkpt lat="42.2816210" lon="-4.2258440">
        <ele>789.9</ele>
        <time>2020-04-04T18:45:24Z</time>
      </trkpt>
      <trkpt lat="42.2815600" lon="-4.2259440">
        <ele>790.3</ele>
        <time>2020-04-04T18:45:26Z</time>
      </trkpt>
      <trkpt lat="42.2815010" lon="-4.2260410">
        <ele>790.8</ele>
        <time>2020-04-04T18:45:28Z</time>
      </trkpt>
      <trkpt lat="42.2813720" lon="-4.2262600">
        <ele>792.3</ele>
        <time>2020-04-04T18:45:30Z</time>
      </trkpt>
      <trkpt lat="42.2813240" lon="-4.2263590">
        <ele>793.0</ele>
        <time>2020-04-04T18:45:32Z</time>
      </trkpt>
      <trkpt lat="42.2812770" lon="-4.2264550">
        <ele>793.4</ele>
        <time>2020-04-04T18:45:34Z</time>
      </trkpt>
      <trkpt lat="42.2811870" lon="-4.2266600">
        <ele>794.4</ele>
        <time>2020-04-04T18:45:36Z</time>
      </trkpt>
      <trkpt lat="42.2811860" lon="-4.2267770">
        <ele>795.0</ele>
        <time>2020-04-04T18:45:38Z</time>
      </trkpt>
      <trkpt lat="42.2811820" lon="-4.2269510">
        <ele>795.8</ele>
        <time>2020-04-04T18:45:40Z</time>
      </trkpt>
      <trkpt lat="42.2811800" lon="-4.2271310">
        <ele>796.4</ele>
        <time>2020-04-04T18:45:42Z</time>
      </trkpt>
      <trkpt lat="42.2811850" lon="-4.2273060">
        <ele>796.9</ele>
        <time>2020-04-04T18:45:44Z</time>
      </trkpt>
      <trkpt lat="42.2811890" lon="-4.2274720">
        <ele>797.4</ele>
        <time>2020-04-04T18:45:46Z</time>
      </trkpt>
      <trkpt lat="42.2811950" lon="-4.2275970">
        <ele>797.8</ele>
        <time>2020-04-04T18:45:48Z</time>
      </trkpt>
      <trkpt lat="42.2812080" lon="-4.2277780">
        <ele>798.4</ele>
        <time>2020-04-04T18:45:50Z</time>
      </trkpt>
      <trkpt lat="42.2812200" lon="-4.2279490">
        <ele>799.0</ele>
        <time>2020-04-04T18:45:52Z</time>
      </trkpt>
      <trkpt lat="42.2812360" lon="-4.2281310">
        <ele>799.5</ele>
        <time>2020-04-04T18:45:54Z</time>
      </trkpt>
      <trkpt lat="42.2812480" lon="-4.2282660">
        <ele>799.8</ele>
        <time>2020-04-04T18:45:56Z</time>
      </trkpt>
      <trkpt lat="42.2812730" lon="-4.2285340">
        <ele>799.9</ele>
        <time>2020-04-04T18:45:58Z</time>
      </trkpt>
      <trkpt lat="42.2812900" lon="-4.2287100">
        <ele>799.9</ele>
        <time>2020-04-04T18:46:00Z</time>
      </trkpt>
      <trkpt lat="42.2813130" lon="-4.2289330">
        <ele>799.9</ele>
        <time>2020-04-04T18:46:02Z</time>
      </trkpt>
      <trkpt lat="42.2813270" lon="-4.2290870">
        <ele>799.9</ele>
        <time>2020-04-04T18:46:04Z</time>
      </trkpt>
      <trkpt lat="42.2813510" lon="-4.2293480">
        <ele>799.8</ele>
        <time>2020-04-04T18:46:06Z</time>
      </trkpt>
      <trkpt lat="42.2813700" lon="-4.2295690">
        <ele>799.3</ele>
        <time>2020-04-04T18:46:08Z</time>
      </trkpt>
      <trkpt lat="42.2813850" lon="-4.2297580">
        <ele>799.0</ele>
        <time>2020-04-04T18:46:10Z</time>
      </trkpt>
      <trkpt lat="42.2814080" lon="-4.2300140">
        <ele>798.7</ele>
        <time>2020-04-04T18:46:12Z</time>
      </trkpt>
      <trkpt lat="42.2814330" lon="-4.2302790">
        <ele>798.3</ele>
        <time>2020-04-04T18:46:14Z</time>
      </trkpt>
      <trkpt lat="42.2814500" lon="-4.2304680">
        <ele>798.0</ele>
        <time>2020-04-04T18:46:16Z</time>
      </trkpt>
      <trkpt lat="42.2814750" lon="-4.2307530">
        <ele>797.9</ele>
        <time>2020-04-04T18:46:18Z</time>
      </trkpt>
      <trkpt lat="42.2814990" lon="-4.2310300">
        <ele>797.7</ele>
        <time>2020-04-04T18:46:20Z</time>
      </trkpt>
      <trkpt lat="42.2815220" lon="-4.2312870">
        <ele>797.2</ele>
        <time>2020-04-04T18:46:22Z</time>
      </trkpt>
      <trkpt lat="42.2815450" lon="-4.2315720">
        <ele>796.8</ele>
        <time>2020-04-04T18:46:24Z</time>
      </trkpt>
      <trkpt lat="42.2815680" lon="-4.2318220">
        <ele>796.2</ele>
        <time>2020-04-04T18:46:26Z</time>
      </trkpt>
      <trkpt lat="42.2815910" lon="-4.2320710">
        <ele>795.2</ele>
        <time>2020-04-04T18:46:28Z</time>
      </trkpt>
      <trkpt lat="42.2816090" lon="-4.2322620">
        <ele>794.9</ele>
        <time>2020-04-04T18:46:30Z</time>
      </trkpt>
      <trkpt lat="42.2816370" lon="-4.2325860">
        <ele>794.7</ele>
        <time>2020-04-04T18:46:32Z</time>
      </trkpt>
      <trkpt lat="42.2816520" lon="-4.2327800">
        <ele>794.3</ele>
        <time>2020-04-04T18:46:34Z</time>
      </trkpt>
      <trkpt lat="42.2816770" lon="-4.2331280">
        <ele>793.9</ele>
        <time>2020-04-04T18:46:36Z</time>
      </trkpt>
      <trkpt lat="42.2816870" lon="-4.2333680">
        <ele>793.9</ele>
        <time>2020-04-04T18:46:38Z</time>
      </trkpt>
      <trkpt lat="42.2817000" lon="-4.2336310">
        <ele>793.9</ele>
        <time>2020-04-04T18:46:40Z</time>
      </trkpt>
      <trkpt lat="42.2817110" lon="-4.2338930">
        <ele>793.9</ele>
        <time>2020-04-04T18:46:42Z</time>
      </trkpt>
      <trkpt lat="42.2817190" lon="-4.2341320">
        <ele>793.9</ele>
        <time>2020-04-04T18:46:44Z</time>
      </trkpt>
      <trkpt lat="42.2817210" lon="-4.2343670">
        <ele>793.9</ele>
        <time>2020-04-04T18:46:46Z</time>
      </trkpt>
      <trkpt lat="42.2817090" lon="-4.2346280">
        <ele>793.8</ele>
        <time>2020-04-04T18:46:48Z</time>
      </trkpt>
      <trkpt lat="42.2816870" lon="-4.2349090">
        <ele>793.3</ele>
        <time>2020-04-04T18:46:50Z</time>
      </trkpt>
      <trkpt lat="42.2816650" lon="-4.2351750">
        <ele>792.3</ele>
        <time>2020-04-04T18:46:52Z</time>
      </trkpt>
      <trkpt lat="42.2816460" lon="-4.2354460">
        <ele>791.3</ele>
        <time>2020-04-04T18:46:54Z</time>
      </trkpt>
      <trkpt lat="42.2816320" lon="-4.2357460">
        <ele>790.5</ele>
        <time>2020-04-04T18:46:56Z</time>
      </trkpt>
      <trkpt lat="42.2816230" lon="-4.2360530">
        <ele>790.0</ele>
        <time>2020-04-04T18:46:58Z</time>
      </trkpt>
      <trkpt lat="42.2816280" lon="-4.2363340">
        <ele>789.9</ele>
        <time>2020-04-04T18:47:00Z</time>
      </trkpt>
      <trkpt lat="42.2816460" lon="-4.2366420">
        <ele>789.2</ele>
        <time>2020-04-04T18:47:02Z</time>
      </trkpt>
      <trkpt lat="42.2815830" lon="-4.2368770">
        <ele>789.0</ele>
        <time>2020-04-04T18:47:04Z</time>
      </trkpt>
      <trkpt lat="42.2815350" lon="-4.2371210">
        <ele>789.0</ele>
        <time>2020-04-04T18:47:06Z</time>
      </trkpt>
      <trkpt lat="42.2814680" lon="-4.2374390">
        <ele>788.6</ele>
        <time>2020-04-04T18:47:08Z</time>
      </trkpt>
      <trkpt lat="42.2813940" lon="-4.2377020">
        <ele>787.9</ele>
        <time>2020-04-04T18:47:10Z</time>
      </trkpt>
      <trkpt lat="42.2813340" lon="-4.2378890">
        <ele>787.1</ele>
        <time>2020-04-04T18:47:12Z</time>
      </trkpt>
      <trkpt lat="42.2812320" lon="-4.2381890">
        <ele>785.7</ele>
        <time>2020-04-04T18:47:14Z</time>
      </trkpt>
      <trkpt lat="42.2811690" lon="-4.2383690">
        <ele>785.0</ele>
        <time>2020-04-04T18:47:16Z</time>
      </trkpt>
      <trkpt lat="42.2810540" lon="-4.2386950">
        <ele>784.1</ele>
        <time>2020-04-04T18:47:18Z</time>
      </trkpt>
      <trkpt lat="42.2809910" lon="-4.2388740">
        <ele>783.6</ele>
        <time>2020-04-04T18:47:20Z</time>
      </trkpt>
      <trkpt lat="42.2808950" lon="-4.2391360">
        <ele>782.7</ele>
        <time>2020-04-04T18:47:22Z</time>
      </trkpt>
      <trkpt lat="42.2807940" lon="-4.2393620">
        <ele>782.2</ele>
        <time>2020-04-04T18:47:24Z</time>
      </trkpt>
      <trkpt lat="42.2807140" lon="-4.2395300">
        <ele>782.2</ele>
        <time>2020-04-04T18:47:26Z</time>
      </trkpt>
      <trkpt lat="42.2805610" lon="-4.2398520">
        <ele>782.3</ele>
        <time>2020-04-04T18:47:28Z</time>
      </trkpt>
      <trkpt lat="42.2804840" lon="-4.2400280">
        <ele>782.1</ele>
        <time>2020-04-04T18:47:30Z</time>
      </trkpt>
      <trkpt lat="42.2804080" lon="-4.2402030">
        <ele>782.0</ele>
        <time>2020-04-04T18:47:32Z</time>
      </trkpt>
      <trkpt lat="42.2803330" lon="-4.2403730">
        <ele>782.0</ele>
        <time>2020-04-04T18:47:34Z</time>
      </trkpt>
      <trkpt lat="42.2801730" lon="-4.2407410">
        <ele>781.6</ele>
        <time>2020-04-04T18:47:36Z</time>
      </trkpt>
      <trkpt lat="42.2800920" lon="-4.2409250">
        <ele>780.8</ele>
        <time>2020-04-04T18:47:38Z</time>
      </trkpt>
      <trkpt lat="42.2800080" lon="-4.2411190">
        <ele>779.6</ele>
        <time>2020-04-04T18:47:40Z</time>
      </trkpt>
      <trkpt lat="42.2798180" lon="-4.2415040">
        <ele>776.3</ele>
        <time>2020-04-04T18:47:42Z</time>
      </trkpt>
      <trkpt lat="42.2797100" lon="-4.2416980">
        <ele>774.5</ele>
        <time>2020-04-04T18:47:44Z</time>
      </trkpt>
      <trkpt lat="42.2795990" lon="-4.2418990">
        <ele>772.1</ele>
        <time>2020-04-04T18:47:46Z</time>
      </trkpt>
      <trkpt lat="42.2793700" lon="-4.2422790">
        <ele>767.6</ele>
        <time>2020-04-04T18:47:48Z</time>
      </trkpt>
      <trkpt lat="42.2792260" lon="-4.2425400">
        <ele>766.0</ele>
        <time>2020-04-04T18:47:50Z</time>
      </trkpt>
      <trkpt lat="42.2791490" lon="-4.2427110">
        <ele>765.6</ele>
        <time>2020-04-04T18:47:52Z</time>
      </trkpt>
      <trkpt lat="42.2790200" lon="-4.2429980">
        <ele>765.3</ele>
        <time>2020-04-04T18:47:54Z</time>
      </trkpt>
      <trkpt lat="42.2789470" lon="-4.2432370">
        <ele>764.8</ele>
        <time>2020-04-04T18:47:56Z</time>
      </trkpt>
      <trkpt lat="42.2789010" lon="-4.2433850">
        <ele>764.3</ele>
        <time>2020-04-04T18:47:58Z</time>
      </trkpt>
      <trkpt lat="42.2788460" lon="-4.2436010">
        <ele>764.4</ele>
        <time>2020-04-04T18:48:00Z</time>
      </trkpt>
      <trkpt lat="42.2788170" lon="-4.2437430">
        <ele>764.6</ele>
        <time>2020-04-04T18:48:02Z</time>
      </trkpt>
      <trkpt lat="42.2787690" lon="-4.2439920">
        <ele>764.4</ele>
        <time>2020-04-04T18:48:04Z</time>
      </trkpt>
      <trkpt lat="42.2787480" lon="-4.2441230">
        <ele>764.2</ele>
        <time>2020-04-04T18:48:06Z</time>
      </trkpt>
      <trkpt lat="42.2787280" lon="-4.2442500">
        <ele>764.1</ele>
        <time>2020-04-04T18:48:08Z</time>
      </trkpt>
      <trkpt lat="42.2786870" lon="-4.2445360">
        <ele>765.3</ele>
        <time>2020-04-04T18:48:10Z</time>
      </trkpt>
      <trkpt lat="42.2786850" lon="-4.2447140">
        <ele>765.7</ele>
        <time>2020-04-04T18:48:12Z</time>
      </trkpt>
      <trkpt lat="42.2786280" lon="-4.2448370">
        <ele>765.9</ele>
        <time>2020-04-04T18:48:14Z</time>
      </trkpt>
      <trkpt lat="42.2785690" lon="-4.2449660">
        <ele>766.1</ele>
        <time>2020-04-04T18:48:16Z</time>
      </trkpt>
      <trkpt lat="42.2785070" lon="-4.2451030">
        <ele>766.3</ele>
        <time>2020-04-04T18:48:18Z</time>
      </trkpt>
      <trkpt lat="42.2784420" lon="-4.2452460">
        <ele>766.4</ele>
        <time>2020-04-04T18:48:20Z</time>
      </trkpt>
      <trkpt lat="42.2783750" lon="-4.2453910">
        <ele>766.3</ele>
        <time>2020-04-04T18:48:22Z</time>
      </trkpt>
      <trkpt lat="42.2781870" lon="-4.2458110">
        <ele>765.4</ele>
        <time>2020-04-04T18:48:24Z</time>
      </trkpt>
      <trkpt lat="42.2781240" lon="-4.2459640">
        <ele>765.7</ele>
        <time>2020-04-04T18:48:26Z</time>
      </trkpt>
      <trkpt lat="42.2780620" lon="-4.2461150">
        <ele>766.0</ele>
        <time>2020-04-04T18:48:28Z</time>
      </trkpt>
      <trkpt lat="42.2780000" lon="-4.2462660">
        <ele>766.2</ele>
        <time>2020-04-04T18:48:30Z</time>
      </trkpt>
      <trkpt lat="42.2779370" lon="-4.2464180">
        <ele>766.3</ele>
        <time>2020-04-04T18:48:32Z</time>
      </trkpt>
      <trkpt lat="42.2777580" lon="-4.2468220">
        <ele>767.0</ele>
        <time>2020-04-04T18:48:34Z</time>
      </trkpt>
      <trkpt lat="42.2776570" lon="-4.2470170">
        <ele>767.3</ele>
        <time>2020-04-04T18:48:36Z</time>
      </trkpt>
      <trkpt lat="42.2775790" lon="-4.2471600">
        <ele>767.6</ele>
        <time>2020-04-04T18:48:38Z</time>
      </trkpt>
      <trkpt lat="42.2775350" lon="-4.2474490">
        <ele>767.8</ele>
        <time>2020-04-04T18:48:40Z</time>
      </trkpt>
      <trkpt lat="42.2775180" lon="-4.2476320">
        <ele>767.7</ele>
        <time>2020-04-04T18:48:42Z</time>
      </trkpt>
      <trkpt lat="42.2775110" lon="-4.2479640">
        <ele>767.5</ele>
        <time>2020-04-04T18:48:44Z</time>
      </trkpt>
      <trkpt lat="42.2775540" lon="-4.2481900">
        <ele>767.1</ele>
        <time>2020-04-04T18:48:46Z</time>
      </trkpt>
      <trkpt lat="42.2776430" lon="-4.2484330">
        <ele>766.9</ele>
        <time>2020-04-04T18:48:48Z</time>
      </trkpt>
      <trkpt lat="42.2777490" lon="-4.2486240">
        <ele>767.0</ele>
        <time>2020-04-04T18:48:50Z</time>
      </trkpt>
      <trkpt lat="42.2778440" lon="-4.2487550">
        <ele>767.2</ele>
        <time>2020-04-04T18:48:52Z</time>
      </trkpt>
      <trkpt lat="42.2779970" lon="-4.2489320">
        <ele>767.4</ele>
        <time>2020-04-04T18:48:54Z</time>
      </trkpt>
      <trkpt lat="42.2781020" lon="-4.2490410">
        <ele>767.4</ele>
        <time>2020-04-04T18:48:56Z</time>
      </trkpt>
      <trkpt lat="42.2783080" lon="-4.2492460">
        <ele>766.9</ele>
        <time>2020-04-04T18:48:58Z</time>
      </trkpt>
      <trkpt lat="42.2784150" lon="-4.2493490">
        <ele>766.7</ele>
        <time>2020-04-04T18:49:00Z</time>
      </trkpt>
      <trkpt lat="42.2785230" lon="-4.2494520">
        <ele>766.6</ele>
        <time>2020-04-04T18:49:02Z</time>
      </trkpt>
      <trkpt lat="42.2787350" lon="-4.2496420">
        <ele>766.3</ele>
        <time>2020-04-04T18:49:04Z</time>
      </trkpt>
      <trkpt lat="42.2789140" lon="-4.2497810">
        <ele>766.3</ele>
        <time>2020-04-04T18:49:06Z</time>
      </trkpt>
      <trkpt lat="42.2790350" lon="-4.2498500">
        <ele>766.4</ele>
        <time>2020-04-04T18:49:08Z</time>
      </trkpt>
      <trkpt lat="42.2791570" lon="-4.2499170">
        <ele>766.3</ele>
        <time>2020-04-04T18:49:10Z</time>
      </trkpt>
      <trkpt lat="42.2793900" lon="-4.2500370">
        <ele>766.3</ele>
        <time>2020-04-04T18:49:12Z</time>
      </trkpt>
      <trkpt lat="42.2795170" lon="-4.2500820">
        <ele>766.4</ele>
        <time>2020-04-04T18:49:14Z</time>
      </trkpt>
      <trkpt lat="42.2797510" lon="-4.2501210">
        <ele>766.5</ele>
        <time>2020-04-04T18:49:16Z</time>
      </trkpt>
      <trkpt lat="42.2798810" lon="-4.2501020">
        <ele>766.5</ele>
        <time>2020-04-04T18:49:18Z</time>
      </trkpt>
      <trkpt lat="42.2800120" lon="-4.2500830">
        <ele>766.5</ele>
        <time>2020-04-04T18:49:20Z</time>
      </trkpt>
      <trkpt lat="42.2802820" lon="-4.2500650">
        <ele>766.5</ele>
        <time>2020-04-04T18:49:22Z</time>
      </trkpt>
      <trkpt lat="42.2804530" lon="-4.2500710">
        <ele>766.5</ele>
        <time>2020-04-04T18:49:24Z</time>
      </trkpt>
      <trkpt lat="42.2805860" lon="-4.2500900">
        <ele>766.5</ele>
        <time>2020-04-04T18:49:26Z</time>
      </trkpt>
      <trkpt lat="42.2807890" lon="-4.2501240">
        <ele>766.5</ele>
        <time>2020-04-04T18:49:28Z</time>
      </trkpt>
      <trkpt lat="42.2809880" lon="-4.2501720">
        <ele>766.5</ele>
        <time>2020-04-04T18:49:30Z</time>
      </trkpt>
      <trkpt lat="42.2811150" lon="-4.2502150">
        <ele>766.7</ele>
        <time>2020-04-04T18:49:32Z</time>
      </trkpt>
      <trkpt lat="42.2812430" lon="-4.2502580">
        <ele>767.0</ele>
        <time>2020-04-04T18:49:34Z</time>
      </trkpt>
      <trkpt lat="42.2814980" lon="-4.2503450">
        <ele>767.1</ele>
        <time>2020-04-04T18:49:36Z</time>
      </trkpt>
      <trkpt lat="42.2816270" lon="-4.2503910">
        <ele>766.7</ele>
        <time>2020-04-04T18:49:38Z</time>
      </trkpt>
      <trkpt lat="42.2818740" lon="-4.2504920">
        <ele>766.4</ele>
        <time>2020-04-04T18:49:40Z</time>
      </trkpt>
      <trkpt lat="42.2820340" lon="-4.2505920">
        <ele>766.4</ele>
        <time>2020-04-04T18:49:42Z</time>
      </trkpt>
      <trkpt lat="42.2821400" lon="-4.2507320">
        <ele>766.4</ele>
        <time>2020-04-04T18:49:44Z</time>
      </trkpt>
      <trkpt lat="42.2822340" lon="-4.2508610">
        <ele>766.5</ele>
        <time>2020-04-04T18:49:46Z</time>
      </trkpt>
      <trkpt lat="42.2824180" lon="-4.2510950">
        <ele>766.9</ele>
        <time>2020-04-04T18:49:48Z</time>
      </trkpt>
      <trkpt lat="42.2825660" lon="-4.2512310">
        <ele>767.2</ele>
        <time>2020-04-04T18:49:50Z</time>
      </trkpt>
      <trkpt lat="42.2827160" lon="-4.2513550">
        <ele>767.3</ele>
        <time>2020-04-04T18:49:52Z</time>
      </trkpt>
      <trkpt lat="42.2828320" lon="-4.2514930">
        <ele>767.3</ele>
        <time>2020-04-04T18:49:54Z</time>
      </trkpt>
      <trkpt lat="42.2829150" lon="-4.2516010">
        <ele>767.2</ele>
        <time>2020-04-04T18:49:56Z</time>
      </trkpt>
      <trkpt lat="42.2829970" lon="-4.2517060">
        <ele>767.0</ele>
        <time>2020-04-04T18:49:58Z</time>
      </trkpt>
      <trkpt lat="42.2831690" lon="-4.2519270">
        <ele>766.7</ele>
        <time>2020-04-04T18:50:00Z</time>
      </trkpt>
      <trkpt lat="42.2832480" lon="-4.2520280">
        <ele>766.8</ele>
        <time>2020-04-04T18:50:02Z</time>
      </trkpt>
      <trkpt lat="42.2833270" lon="-4.2521310">
        <ele>766.9</ele>
        <time>2020-04-04T18:50:04Z</time>
      </trkpt>
      <trkpt lat="42.2834060" lon="-4.2522330">
        <ele>767.1</ele>
        <time>2020-04-04T18:50:06Z</time>
      </trkpt>
      <trkpt lat="42.2834850" lon="-4.2523350">
        <ele>767.2</ele>
        <time>2020-04-04T18:50:08Z</time>
      </trkpt>
      <trkpt lat="42.2836890" lon="-4.2525620">
        <ele>767.2</ele>
        <time>2020-04-04T18:50:10Z</time>
      </trkpt>
      <trkpt lat="42.2838210" lon="-4.2526650">
        <ele>767.2</ele>
        <time>2020-04-04T18:50:12Z</time>
      </trkpt>
      <trkpt lat="42.2839160" lon="-4.2527280">
        <ele>767.3</ele>
        <time>2020-04-04T18:50:14Z</time>
      </trkpt>
      <trkpt lat="42.2840110" lon="-4.2527910">
        <ele>767.4</ele>
        <time>2020-04-04T18:50:16Z</time>
      </trkpt>
      <trkpt lat="42.2842190" lon="-4.2529300">
        <ele>767.9</ele>
        <time>2020-04-04T18:50:18Z</time>
      </trkpt>
      <trkpt lat="42.2843160" lon="-4.2529980">
        <ele>768.1</ele>
        <time>2020-04-04T18:50:20Z</time>
      </trkpt>
      <trkpt lat="42.2844160" lon="-4.2530670">
        <ele>768.1</ele>
        <time>2020-04-04T18:50:22Z</time>
      </trkpt>
      <trkpt lat="42.2846270" lon="-4.2532170">
        <ele>768.1</ele>
        <time>2020-04-04T18:50:24Z</time>
      </trkpt>
      <trkpt lat="42.2847180" lon="-4.2533140">
        <ele>768.1</ele>
        <time>2020-04-04T18:50:26Z</time>
      </trkpt>
      <trkpt lat="42.2848500" lon="-4.2534540">
        <ele>768.1</ele>
        <time>2020-04-04T18:50:28Z</time>
      </trkpt>
      <trkpt lat="42.2849720" lon="-4.2536060">
        <ele>768.1</ele>
        <time>2020-04-04T18:50:30Z</time>
      </trkpt>
      <trkpt lat="42.2850740" lon="-4.2537840">
        <ele>768.2</ele>
        <time>2020-04-04T18:50:32Z</time>
      </trkpt>
      <trkpt lat="42.2851610" lon="-4.2539680">
        <ele>768.4</ele>
        <time>2020-04-04T18:50:34Z</time>
      </trkpt>
      <trkpt lat="42.2852700" lon="-4.2541640">
        <ele>768.5</ele>
        <time>2020-04-04T18:50:36Z</time>
      </trkpt>
      <trkpt lat="42.2853970" lon="-4.2543400">
        <ele>768.7</ele>
        <time>2020-04-04T18:50:38Z</time>
      </trkpt>
      <trkpt lat="42.2854860" lon="-4.2544550">
        <ele>768.8</ele>
        <time>2020-04-04T18:50:40Z</time>
      </trkpt>
      <trkpt lat="42.2856270" lon="-4.2546250">
        <ele>768.9</ele>
        <time>2020-04-04T18:50:42Z</time>
      </trkpt>
      <trkpt lat="42.2857620" lon="-4.2547680">
        <ele>769.0</ele>
        <time>2020-04-04T18:50:44Z</time>
      </trkpt>
      <trkpt lat="42.2858930" lon="-4.2549130">
        <ele>768.9</ele>
        <time>2020-04-04T18:50:46Z</time>
      </trkpt>
      <trkpt lat="42.2859790" lon="-4.2550260">
        <ele>769.0</ele>
        <time>2020-04-04T18:50:48Z</time>
      </trkpt>
      <trkpt lat="42.2861270" lon="-4.2552280">
        <ele>769.1</ele>
        <time>2020-04-04T18:50:50Z</time>
      </trkpt>
      <trkpt lat="42.2862030" lon="-4.2553520">
        <ele>769.4</ele>
        <time>2020-04-04T18:50:52Z</time>
      </trkpt>
      <trkpt lat="42.2862790" lon="-4.2554770">
        <ele>769.7</ele>
        <time>2020-04-04T18:50:54Z</time>
      </trkpt>
      <trkpt lat="42.2864290" lon="-4.2557490">
        <ele>770.3</ele>
        <time>2020-04-04T18:50:56Z</time>
      </trkpt>
      <trkpt lat="42.2865000" lon="-4.2558820">
        <ele>770.3</ele>
        <time>2020-04-04T18:50:58Z</time>
      </trkpt>
      <trkpt lat="42.2866440" lon="-4.2560460">
        <ele>770.4</ele>
        <time>2020-04-04T18:51:00Z</time>
      </trkpt>
      <trkpt lat="42.2867900" lon="-4.2561690">
        <ele>770.4</ele>
        <time>2020-04-04T18:51:02Z</time>
      </trkpt>
      <trkpt lat="42.2869390" lon="-4.2563090">
        <ele>770.4</ele>
        <time>2020-04-04T18:51:04Z</time>
      </trkpt>
      <trkpt lat="42.2870660" lon="-4.2564290">
        <ele>770.6</ele>
        <time>2020-04-04T18:51:06Z</time>
      </trkpt>
      <trkpt lat="42.2871070" lon="-4.2566420">
        <ele>770.7</ele>
        <time>2020-04-04T18:51:08Z</time>
      </trkpt>
      <trkpt lat="42.2870720" lon="-4.2568160">
        <ele>770.8</ele>
        <time>2020-04-04T18:51:10Z</time>
      </trkpt>
      <trkpt lat="42.2870180" lon="-4.2570890">
        <ele>771.0</ele>
        <time>2020-04-04T18:51:12Z</time>
      </trkpt>
      <trkpt lat="42.2870470" lon="-4.2573190">
        <ele>771.3</ele>
        <time>2020-04-04T18:51:14Z</time>
      </trkpt>
      <trkpt lat="42.2871060" lon="-4.2575680">
        <ele>771.6</ele>
        <time>2020-04-04T18:51:16Z</time>
      </trkpt>
      <trkpt lat="42.2871850" lon="-4.2577590">
        <ele>771.7</ele>
        <time>2020-04-04T18:51:18Z</time>
      </trkpt>
      <trkpt lat="42.2872710" lon="-4.2580110">
        <ele>771.8</ele>
        <time>2020-04-04T18:51:20Z</time>
      </trkpt>
      <trkpt lat="42.2872770" lon="-4.2581950">
        <ele>772.0</ele>
        <time>2020-04-04T18:51:22Z</time>
      </trkpt>
      <trkpt lat="42.2872860" lon="-4.2585170">
        <ele>772.3</ele>
        <time>2020-04-04T18:51:24Z</time>
      </trkpt>
      <trkpt lat="42.2872770" lon="-4.2587090">
        <ele>772.1</ele>
        <time>2020-04-04T18:51:26Z</time>
      </trkpt>
      <trkpt lat="42.2872660" lon="-4.2590330">
        <ele>771.6</ele>
        <time>2020-04-04T18:51:28Z</time>
      </trkpt>
      <trkpt lat="42.2872690" lon="-4.2592950">
        <ele>771.5</ele>
        <time>2020-04-04T18:51:30Z</time>
      </trkpt>
      <trkpt lat="42.2872480" lon="-4.2595590">
        <ele>771.4</ele>
        <time>2020-04-04T18:51:32Z</time>
      </trkpt>
      <trkpt lat="42.2872160" lon="-4.2598100">
        <ele>770.8</ele>
        <time>2020-04-04T18:51:34Z</time>
      </trkpt>
      <trkpt lat="42.2871980" lon="-4.2600400">
        <ele>770.5</ele>
        <time>2020-04-04T18:51:36Z</time>
      </trkpt>
      <trkpt lat="42.2871810" lon="-4.2602230">
        <ele>770.1</ele>
        <time>2020-04-04T18:51:38Z</time>
      </trkpt>
      <trkpt lat="42.2871490" lon="-4.2605610">
        <ele>769.5</ele>
        <time>2020-04-04T18:51:40Z</time>
      </trkpt>
      <trkpt lat="42.2871310" lon="-4.2607480">
        <ele>769.2</ele>
        <time>2020-04-04T18:51:42Z</time>
      </trkpt>
      <trkpt lat="42.2871020" lon="-4.2610380">
        <ele>768.8</ele>
        <time>2020-04-04T18:51:44Z</time>
      </trkpt>
      <trkpt lat="42.2870730" lon="-4.2613300">
        <ele>768.5</ele>
        <time>2020-04-04T18:51:46Z</time>
      </trkpt>
      <trkpt lat="42.2870250" lon="-4.2616210">
        <ele>768.0</ele>
        <time>2020-04-04T18:51:48Z</time>
      </trkpt>
      <trkpt lat="42.2869180" lon="-4.2618860">
        <ele>768.0</ele>
        <time>2020-04-04T18:51:50Z</time>
      </trkpt>
      <trkpt lat="42.2868200" lon="-4.2620490">
        <ele>768.4</ele>
        <time>2020-04-04T18:51:52Z</time>
      </trkpt>
      <trkpt lat="42.2866820" lon="-4.2622810">
        <ele>768.8</ele>
        <time>2020-04-04T18:51:54Z</time>
      </trkpt>
      <trkpt lat="42.2865970" lon="-4.2624230">
        <ele>768.8</ele>
        <time>2020-04-04T18:51:56Z</time>
      </trkpt>
      <trkpt lat="42.2865170" lon="-4.2625580">
        <ele>768.8</ele>
        <time>2020-04-04T18:51:58Z</time>
      </trkpt>
      <trkpt lat="42.2863420" lon="-4.2628520">
        <ele>768.8</ele>
        <time>2020-04-04T18:52:00Z</time>
      </trkpt>
      <trkpt lat="42.2862660" lon="-4.2629810">
        <ele>768.8</ele>
        <time>2020-04-04T18:52:02Z</time>
      </trkpt>
      <trkpt lat="42.2861880" lon="-4.2631120">
        <ele>768.8</ele>
        <time>2020-04-04T18:52:04Z</time>
      </trkpt>
      <trkpt lat="42.2861090" lon="-4.2632440">
        <ele>768.7</ele>
        <time>2020-04-04T18:52:06Z</time>
      </trkpt>
      <trkpt lat="42.2859300" lon="-4.2635450">
        <ele>768.7</ele>
        <time>2020-04-04T18:52:08Z</time>
      </trkpt>
      <trkpt lat="42.2858490" lon="-4.2636810">
        <ele>768.7</ele>
        <time>2020-04-04T18:52:10Z</time>
      </trkpt>
      <trkpt lat="42.2857690" lon="-4.2638160">
        <ele>768.8</ele>
        <time>2020-04-04T18:52:12Z</time>
      </trkpt>
      <trkpt lat="42.2855890" lon="-4.2641200">
        <ele>769.6</ele>
        <time>2020-04-04T18:52:14Z</time>
      </trkpt>
      <trkpt lat="42.2855220" lon="-4.2643060">
        <ele>769.6</ele>
        <time>2020-04-04T18:52:16Z</time>
      </trkpt>
      <trkpt lat="42.2854720" lon="-4.2644760">
        <ele>769.5</ele>
        <time>2020-04-04T18:52:18Z</time>
      </trkpt>
      <trkpt lat="42.2854210" lon="-4.2646520">
        <ele>769.3</ele>
        <time>2020-04-04T18:52:20Z</time>
      </trkpt>
      <trkpt lat="42.2853690" lon="-4.2648320">
        <ele>768.8</ele>
        <time>2020-04-04T18:52:22Z</time>
      </trkpt>
      <trkpt lat="42.2852490" lon="-4.2652430">
        <ele>767.7</ele>
        <time>2020-04-04T18:52:24Z</time>
      </trkpt>
      <trkpt lat="42.2851950" lon="-4.2654300">
        <ele>767.2</ele>
        <time>2020-04-04T18:52:26Z</time>
      </trkpt>
      <trkpt lat="42.2851400" lon="-4.2656180">
        <ele>766.8</ele>
        <time>2020-04-04T18:52:28Z</time>
      </trkpt>
      <trkpt lat="42.2850180" lon="-4.2660350">
        <ele>766.1</ele>
        <time>2020-04-04T18:52:30Z</time>
      </trkpt>
      <trkpt lat="42.2849650" lon="-4.2662110">
        <ele>766.3</ele>
        <time>2020-04-04T18:52:32Z</time>
      </trkpt>
      <trkpt lat="42.2849150" lon="-4.2663730">
        <ele>766.9</ele>
        <time>2020-04-04T18:52:34Z</time>
      </trkpt>
      <trkpt lat="42.2848690" lon="-4.2665260">
        <ele>767.7</ele>
        <time>2020-04-04T18:52:36Z</time>
      </trkpt>
      <trkpt lat="42.2848250" lon="-4.2666720">
        <ele>768.2</ele>
        <time>2020-04-04T18:52:38Z</time>
      </trkpt>
      <trkpt lat="42.2846980" lon="-4.2670900">
        <ele>769.4</ele>
        <time>2020-04-04T18:52:40Z</time>
      </trkpt>
      <trkpt lat="42.2846570" lon="-4.2672240">
        <ele>769.9</ele>
        <time>2020-04-04T18:52:42Z</time>
      </trkpt>
      <trkpt lat="42.2846180" lon="-4.2673550">
        <ele>770.4</ele>
        <time>2020-04-04T18:52:44Z</time>
      </trkpt>
      <trkpt lat="42.2845790" lon="-4.2674830">
        <ele>770.8</ele>
        <time>2020-04-04T18:52:46Z</time>
      </trkpt>
      <trkpt lat="42.2845410" lon="-4.2676080">
        <ele>771.5</ele>
        <time>2020-04-04T18:52:48Z</time>
      </trkpt>
      <trkpt lat="42.2844380" lon="-4.2679430">
        <ele>773.2</ele>
        <time>2020-04-04T18:52:50Z</time>
      </trkpt>
      <trkpt lat="42.2843800" lon="-4.2681260">
        <ele>773.1</ele>
        <time>2020-04-04T18:52:52Z</time>
      </trkpt>
      <trkpt lat="42.2843520" lon="-4.2682440">
        <ele>773.3</ele>
        <time>2020-04-04T18:52:54Z</time>
      </trkpt>
      <trkpt lat="42.2843250" lon="-4.2683610">
        <ele>773.9</ele>
        <time>2020-04-04T18:52:56Z</time>
      </trkpt>
      <trkpt lat="42.2842990" lon="-4.2684740">
        <ele>774.7</ele>
        <time>2020-04-04T18:52:58Z</time>
      </trkpt>
      <trkpt lat="42.2842730" lon="-4.2685870">
        <ele>775.1</ele>
        <time>2020-04-04T18:53:00Z</time>
      </trkpt>
      <trkpt lat="42.2842470" lon="-4.2687000">
        <ele>775.5</ele>
        <time>2020-04-04T18:53:02Z</time>
      </trkpt>
      <trkpt lat="42.2842210" lon="-4.2688120">
        <ele>776.3</ele>
        <time>2020-04-04T18:53:04Z</time>
      </trkpt>
      <trkpt lat="42.2841950" lon="-4.2689230">
        <ele>777.0</ele>
        <time>2020-04-04T18:53:06Z</time>
      </trkpt>
      <trkpt lat="42.2840930" lon="-4.2693290">
        <ele>777.6</ele>
        <time>2020-04-04T18:53:08Z</time>
      </trkpt>
      <trkpt lat="42.2840540" lon="-4.2694540">
        <ele>777.4</ele>
        <time>2020-04-04T18:53:10Z</time>
      </trkpt>
      <trkpt lat="42.2840120" lon="-4.2695910">
        <ele>777.4</ele>
        <time>2020-04-04T18:53:12Z</time>
      </trkpt>
      <trkpt lat="42.2839680" lon="-4.2697340">
        <ele>777.5</ele>
        <time>2020-04-04T18:53:14Z</time>
      </trkpt>
      <trkpt lat="42.2839220" lon="-4.2698830">
        <ele>777.8</ele>
        <time>2020-04-04T18:53:16Z</time>
      </trkpt>
      <trkpt lat="42.2838030" lon="-4.2702700">
        <ele>778.1</ele>
        <time>2020-04-04T18:53:18Z</time>
      </trkpt>
      <trkpt lat="42.2837560" lon="-4.2704220">
        <ele>778.1</ele>
        <time>2020-04-04T18:53:20Z</time>
      </trkpt>
      <trkpt lat="42.2837080" lon="-4.2705770">
        <ele>778.2</ele>
        <time>2020-04-04T18:53:22Z</time>
      </trkpt>
      <trkpt lat="42.2835980" lon="-4.2709370">
        <ele>778.3</ele>
        <time>2020-04-04T18:53:24Z</time>
      </trkpt>
      <trkpt lat="42.2835380" lon="-4.2711220">
        <ele>778.3</ele>
        <time>2020-04-04T18:53:26Z</time>
      </trkpt>
      <trkpt lat="42.2834910" lon="-4.2712730">
        <ele>778.3</ele>
        <time>2020-04-04T18:53:28Z</time>
      </trkpt>
      <trkpt lat="42.2834450" lon="-4.2714190">
        <ele>778.3</ele>
        <time>2020-04-04T18:53:30Z</time>
      </trkpt>
      <trkpt lat="42.2834000" lon="-4.2715600">
        <ele>778.3</ele>
        <time>2020-04-04T18:53:32Z</time>
      </trkpt>
      <trkpt lat="42.2833570" lon="-4.2716990">
        <ele>778.3</ele>
        <time>2020-04-04T18:53:34Z</time>
      </trkpt>
      <trkpt lat="42.2832410" lon="-4.2720680">
        <ele>778.3</ele>
        <time>2020-04-04T18:53:36Z</time>
      </trkpt>
      <trkpt lat="42.2831990" lon="-4.2722000">
        <ele>778.3</ele>
        <time>2020-04-04T18:53:38Z</time>
      </trkpt>
      <trkpt lat="42.2831570" lon="-4.2723330">
        <ele>778.3</ele>
        <time>2020-04-04T18:53:40Z</time>
      </trkpt>
      <trkpt lat="42.2831150" lon="-4.2724640">
        <ele>778.3</ele>
        <time>2020-04-04T18:53:42Z</time>
      </trkpt>
      <trkpt lat="42.2830750" lon="-4.2725920">
        <ele>778.3</ele>
        <time>2020-04-04T18:53:44Z</time>
      </trkpt>
      <trkpt lat="42.2829600" lon="-4.2729570">
        <ele>778.3</ele>
        <time>2020-04-04T18:53:46Z</time>
      </trkpt>
      <trkpt lat="42.2829180" lon="-4.2730900">
        <ele>778.3</ele>
        <time>2020-04-04T18:53:48Z</time>
      </trkpt>
      <trkpt lat="42.2828740" lon="-4.2732290">
        <ele>778.4</ele>
        <time>2020-04-04T18:53:50Z</time>
      </trkpt>
      <trkpt lat="42.2828300" lon="-4.2733690">
        <ele>778.4</ele>
        <time>2020-04-04T18:53:52Z</time>
      </trkpt>
      <trkpt lat="42.2827100" lon="-4.2737470">
        <ele>778.4</ele>
        <time>2020-04-04T18:53:54Z</time>
      </trkpt>
      <trkpt lat="42.2826670" lon="-4.2738930">
        <ele>778.4</ele>
        <time>2020-04-04T18:53:56Z</time>
      </trkpt>
      <trkpt lat="42.2826240" lon="-4.2740430">
        <ele>778.4</ele>
        <time>2020-04-04T18:53:58Z</time>
      </trkpt>
      <trkpt lat="42.2825800" lon="-4.2741930">
        <ele>778.4</ele>
        <time>2020-04-04T18:54:00Z</time>
      </trkpt>
      <trkpt lat="42.2824990" lon="-4.2745110">
        <ele>778.4</ele>
        <time>2020-04-04T18:54:02Z</time>
      </trkpt>
      <trkpt lat="42.2824650" lon="-4.2746710">
        <ele>778.4</ele>
        <time>2020-04-04T18:54:04Z</time>
      </trkpt>
      <trkpt lat="42.2824310" lon="-4.2748330">
        <ele>778.4</ele>
        <time>2020-04-04T18:54:06Z</time>
      </trkpt>
      <trkpt lat="42.2823610" lon="-4.2751700">
        <ele>778.4</ele>
        <time>2020-04-04T18:54:08Z</time>
      </trkpt>
      <trkpt lat="42.2823260" lon="-4.2753370">
        <ele>778.4</ele>
        <time>2020-04-04T18:54:10Z</time>
      </trkpt>
      <trkpt lat="42.2822910" lon="-4.2755030">
        <ele>778.5</ele>
        <time>2020-04-04T18:54:12Z</time>
      </trkpt>
      <trkpt lat="42.2822360" lon="-4.2758460">
        <ele>778.6</ele>
        <time>2020-04-04T18:54:14Z</time>
      </trkpt>
      <trkpt lat="42.2822190" lon="-4.2760140">
        <ele>778.6</ele>
        <time>2020-04-04T18:54:16Z</time>
      </trkpt>
      <trkpt lat="42.2822020" lon="-4.2761780">
        <ele>778.5</ele>
        <time>2020-04-04T18:54:18Z</time>
      </trkpt>
      <trkpt lat="42.2821840" lon="-4.2763420">
        <ele>778.5</ele>
        <time>2020-04-04T18:54:20Z</time>
      </trkpt>
      <trkpt lat="42.2821280" lon="-4.2767310">
        <ele>778.5</ele>
        <time>2020-04-04T18:54:22Z</time>
      </trkpt>
      <trkpt lat="42.2820820" lon="-4.2769570">
        <ele>778.5</ele>
        <time>2020-04-04T18:54:24Z</time>
      </trkpt>
      <trkpt lat="42.2820340" lon="-4.2771990">
        <ele>778.5</ele>
        <time>2020-04-04T18:54:26Z</time>
      </trkpt>
      <trkpt lat="42.2820030" lon="-4.2773590">
        <ele>778.5</ele>
        <time>2020-04-04T18:54:28Z</time>
      </trkpt>
      <trkpt lat="42.2819510" lon="-4.2776350">
        <ele>778.5</ele>
        <time>2020-04-04T18:54:30Z</time>
      </trkpt>
      <trkpt lat="42.2819210" lon="-4.2777940">
        <ele>778.5</ele>
        <time>2020-04-04T18:54:32Z</time>
      </trkpt>
      <trkpt lat="42.2818910" lon="-4.2779500">
        <ele>778.5</ele>
        <time>2020-04-04T18:54:34Z</time>
      </trkpt>
      <trkpt lat="42.2818610" lon="-4.2781060">
        <ele>778.5</ele>
        <time>2020-04-04T18:54:36Z</time>
      </trkpt>
      <trkpt lat="42.2818320" lon="-4.2782620">
        <ele>778.5</ele>
        <time>2020-04-04T18:54:38Z</time>
      </trkpt>
      <trkpt lat="42.2817520" lon="-4.2786830">
        <ele>778.7</ele>
        <time>2020-04-04T18:54:40Z</time>
      </trkpt>
      <trkpt lat="42.2817230" lon="-4.2788400">
        <ele>779.0</ele>
        <time>2020-04-04T18:54:42Z</time>
      </trkpt>
      <trkpt lat="42.2816930" lon="-4.2790000">
        <ele>779.3</ele>
        <time>2020-04-04T18:54:44Z</time>
      </trkpt>
      <trkpt lat="42.2816300" lon="-4.2793380">
        <ele>779.6</ele>
        <time>2020-04-04T18:54:46Z</time>
      </trkpt>
      <trkpt lat="42.2815990" lon="-4.2795070">
        <ele>779.8</ele>
        <time>2020-04-04T18:54:48Z</time>
      </trkpt>
      <trkpt lat="42.2815500" lon="-4.2797740">
        <ele>780.4</ele>
        <time>2020-04-04T18:54:50Z</time>
      </trkpt>
      <trkpt lat="42.2815190" lon="-4.2799450">
        <ele>780.8</ele>
        <time>2020-04-04T18:54:52Z</time>
      </trkpt>
      <trkpt lat="42.2814870" lon="-4.2801190">
        <ele>781.2</ele>
        <time>2020-04-04T18:54:54Z</time>
      </trkpt>
      <trkpt lat="42.2814550" lon="-4.2802940">
        <ele>781.6</ele>
        <time>2020-04-04T18:54:56Z</time>
      </trkpt>
      <trkpt lat="42.2813780" lon="-4.2807360">
        <ele>782.4</ele>
        <time>2020-04-04T18:54:58Z</time>
      </trkpt>
      <trkpt lat="42.2813530" lon="-4.2809140">
        <ele>782.5</ele>
        <time>2020-04-04T18:55:00Z</time>
      </trkpt>
      <trkpt lat="42.2813270" lon="-4.2810930">
        <ele>782.6</ele>
        <time>2020-04-04T18:55:02Z</time>
      </trkpt>
      <trkpt lat="42.2812730" lon="-4.2814710">
        <ele>783.1</ele>
        <time>2020-04-04T18:55:04Z</time>
      </trkpt>
      <trkpt lat="42.2812460" lon="-4.2816870">
        <ele>783.4</ele>
        <time>2020-04-04T18:55:06Z</time>
      </trkpt>
      <trkpt lat="42.2812260" lon="-4.2818670">
        <ele>783.6</ele>
        <time>2020-04-04T18:55:08Z</time>
      </trkpt>
      <trkpt lat="42.2811840" lon="-4.2822110">
        <ele>783.6</ele>
        <time>2020-04-04T18:55:10Z</time>
      </trkpt>
      <trkpt lat="42.2811500" lon="-4.2823830">
        <ele>783.7</ele>
        <time>2020-04-04T18:55:12Z</time>
      </trkpt>
      <trkpt lat="42.2810910" lon="-4.2826590">
        <ele>784.2</ele>
        <time>2020-04-04T18:55:14Z</time>
      </trkpt>
      <trkpt lat="42.2810490" lon="-4.2828190">
        <ele>784.5</ele>
        <time>2020-04-04T18:55:16Z</time>
      </trkpt>
      <trkpt lat="42.2810070" lon="-4.2829750">
        <ele>784.9</ele>
        <time>2020-04-04T18:55:18Z</time>
      </trkpt>
      <trkpt lat="42.2809210" lon="-4.2833090">
        <ele>785.9</ele>
        <time>2020-04-04T18:55:20Z</time>
      </trkpt>
      <trkpt lat="42.2808900" lon="-4.2834870">
        <ele>786.1</ele>
        <time>2020-04-04T18:55:22Z</time>
      </trkpt>
      <trkpt lat="42.2808590" lon="-4.2837190">
        <ele>786.4</ele>
        <time>2020-04-04T18:55:24Z</time>
      </trkpt>
      <trkpt lat="42.2808370" lon="-4.2839220">
        <ele>786.4</ele>
        <time>2020-04-04T18:55:26Z</time>
      </trkpt>
      <trkpt lat="42.2808240" lon="-4.2840740">
        <ele>786.4</ele>
        <time>2020-04-04T18:55:28Z</time>
      </trkpt>
      <trkpt lat="42.2808120" lon="-4.2842260">
        <ele>786.5</ele>
        <time>2020-04-04T18:55:30Z</time>
      </trkpt>
      <trkpt lat="42.2808000" lon="-4.2843750">
        <ele>786.7</ele>
        <time>2020-04-04T18:55:32Z</time>
      </trkpt>
      <trkpt lat="42.2807800" lon="-4.2847130">
        <ele>787.8</ele>
        <time>2020-04-04T18:55:34Z</time>
      </trkpt>
      <trkpt lat="42.2807750" lon="-4.2848610">
        <ele>788.4</ele>
        <time>2020-04-04T18:55:36Z</time>
      </trkpt>
      <trkpt lat="42.2807740" lon="-4.2851120">
        <ele>789.1</ele>
        <time>2020-04-04T18:55:38Z</time>
      </trkpt>
      <trkpt lat="42.2807790" lon="-4.2853530">
        <ele>789.4</ele>
        <time>2020-04-04T18:55:40Z</time>
      </trkpt>
      <trkpt lat="42.2807890" lon="-4.2855090">
        <ele>789.5</ele>
        <time>2020-04-04T18:55:42Z</time>
      </trkpt>
      <trkpt lat="42.2808100" lon="-4.2857640">
        <ele>790.1</ele>
        <time>2020-04-04T18:55:44Z</time>
      </trkpt>
      <trkpt lat="42.2808410" lon="-4.2859890">
        <ele>791.0</ele>
        <time>2020-04-04T18:55:46Z</time>
      </trkpt>
      <trkpt lat="42.2808790" lon="-4.2861420">
        <ele>791.7</ele>
        <time>2020-04-04T18:55:48Z</time>
      </trkpt>
      <trkpt lat="42.2809290" lon="-4.2863710">
        <ele>792.5</ele>
        <time>2020-04-04T18:55:50Z</time>
      </trkpt>
      <trkpt lat="42.2809140" lon="-4.2866220">
        <ele>793.3</ele>
        <time>2020-04-04T18:55:52Z</time>
      </trkpt>
      <trkpt lat="42.2808600" lon="-4.2867810">
        <ele>793.9</ele>
        <time>2020-04-04T18:55:54Z</time>
      </trkpt>
      <trkpt lat="42.2808070" lon="-4.2869150">
        <ele>794.2</ele>
        <time>2020-04-04T18:55:56Z</time>
      </trkpt>
      <trkpt lat="42.2807540" lon="-4.2870490">
        <ele>794.4</ele>
        <time>2020-04-04T18:55:58Z</time>
      </trkpt>
      <trkpt lat="42.2807000" lon="-4.2871840">
        <ele>794.6</ele>
        <time>2020-04-04T18:56:00Z</time>
      </trkpt>
      <trkpt lat="42.2805760" lon="-4.2874990">
        <ele>795.1</ele>
        <time>2020-04-04T18:56:02Z</time>
      </trkpt>
      <trkpt lat="42.2805000" lon="-4.2876930">
        <ele>795.6</ele>
        <time>2020-04-04T18:56:04Z</time>
      </trkpt>
      <trkpt lat="42.2804480" lon="-4.2878280">
        <ele>795.9</ele>
        <time>2020-04-04T18:56:06Z</time>
      </trkpt>
      <trkpt lat="42.2803950" lon="-4.2879640">
        <ele>796.3</ele>
        <time>2020-04-04T18:56:08Z</time>
      </trkpt>
      <trkpt lat="42.2802900" lon="-4.2882410">
        <ele>797.1</ele>
        <time>2020-04-04T18:56:10Z</time>
      </trkpt>
      <trkpt lat="42.2802390" lon="-4.2883820">
        <ele>797.4</ele>
        <time>2020-04-04T18:56:12Z</time>
      </trkpt>
      <trkpt lat="42.2801880" lon="-4.2885230">
        <ele>797.5</ele>
        <time>2020-04-04T18:56:14Z</time>
      </trkpt>
      <trkpt lat="42.2801380" lon="-4.2886640">
        <ele>797.6</ele>
        <time>2020-04-04T18:56:16Z</time>
      </trkpt>
      <trkpt lat="42.2800870" lon="-4.2888050">
        <ele>797.6</ele>
        <time>2020-04-04T18:56:18Z</time>
      </trkpt>
      <trkpt lat="42.2799400" lon="-4.2892160">
        <ele>797.6</ele>
        <time>2020-04-04T18:56:20Z</time>
      </trkpt>
      <trkpt lat="42.2798880" lon="-4.2893660">
        <ele>797.6</ele>
        <time>2020-04-04T18:56:23Z</time>
      </trkpt>
      <trkpt lat="42.2798340" lon="-4.2895220">
        <ele>797.6</ele>
        <time>2020-04-04T18:56:25Z</time>
      </trkpt>
      <trkpt lat="42.2797780" lon="-4.2896820">
        <ele>797.6</ele>
        <time>2020-04-04T18:56:27Z</time>
      </trkpt>
      <trkpt lat="42.2796420" lon="-4.2900730">
        <ele>797.6</ele>
        <time>2020-04-04T18:56:29Z</time>
      </trkpt>
      <trkpt lat="42.2795830" lon="-4.2902420">
        <ele>797.6</ele>
        <time>2020-04-04T18:56:31Z</time>
      </trkpt>
      <trkpt lat="42.2795240" lon="-4.2904120">
        <ele>797.7</ele>
        <time>2020-04-04T18:56:33Z</time>
      </trkpt>
      <trkpt lat="42.2794060" lon="-4.2907530">
        <ele>798.1</ele>
        <time>2020-04-04T18:56:35Z</time>
      </trkpt>
      <trkpt lat="42.2793480" lon="-4.2909210">
        <ele>798.5</ele>
        <time>2020-04-04T18:56:37Z</time>
      </trkpt>
      <trkpt lat="42.2792540" lon="-4.2911980">
        <ele>799.3</ele>
        <time>2020-04-04T18:56:39Z</time>
      </trkpt>
      <trkpt lat="42.2791790" lon="-4.2914390">
        <ele>799.7</ele>
        <time>2020-04-04T18:56:41Z</time>
      </trkpt>
      <trkpt lat="42.2791440" lon="-4.2916070">
        <ele>800.0</ele>
        <time>2020-04-04T18:56:43Z</time>
      </trkpt>
      <trkpt lat="42.2791040" lon="-4.2918400">
        <ele>800.5</ele>
        <time>2020-04-04T18:56:45Z</time>
      </trkpt>
      <trkpt lat="42.2790800" lon="-4.2920020">
        <ele>800.6</ele>
        <time>2020-04-04T18:56:47Z</time>
      </trkpt>
      <trkpt lat="42.2790590" lon="-4.2922770">
        <ele>800.7</ele>
        <time>2020-04-04T18:56:49Z</time>
      </trkpt>
      <trkpt lat="42.2790550" lon="-4.2924440">
        <ele>800.9</ele>
        <time>2020-04-04T18:56:51Z</time>
      </trkpt>
      <trkpt lat="42.2790520" lon="-4.2926110">
        <ele>801.2</ele>
        <time>2020-04-04T18:56:53Z</time>
      </trkpt>
      <trkpt lat="42.2790480" lon="-4.2927810">
        <ele>801.5</ele>
        <time>2020-04-04T18:56:55Z</time>
      </trkpt>
      <trkpt lat="42.2790390" lon="-4.2932180">
        <ele>802.2</ele>
        <time>2020-04-04T18:56:57Z</time>
      </trkpt>
      <trkpt lat="42.2790350" lon="-4.2933880">
        <ele>802.5</ele>
        <time>2020-04-04T18:56:59Z</time>
      </trkpt>
      <trkpt lat="42.2790290" lon="-4.2936740">
        <ele>802.8</ele>
        <time>2020-04-04T18:57:01Z</time>
      </trkpt>
      <trkpt lat="42.2790230" lon="-4.2938360">
        <ele>803.1</ele>
        <time>2020-04-04T18:57:03Z</time>
      </trkpt>
      <trkpt lat="42.2790170" lon="-4.2939970">
        <ele>803.3</ele>
        <time>2020-04-04T18:57:05Z</time>
      </trkpt>
      <trkpt lat="42.2790010" lon="-4.2943040">
        <ele>803.7</ele>
        <time>2020-04-04T18:57:07Z</time>
      </trkpt>
      <trkpt lat="42.2789900" lon="-4.2944580">
        <ele>803.9</ele>
        <time>2020-04-04T18:57:09Z</time>
      </trkpt>
      <trkpt lat="42.2789790" lon="-4.2946100">
        <ele>804.2</ele>
        <time>2020-04-04T18:57:11Z</time>
      </trkpt>
      <trkpt lat="42.2789690" lon="-4.2947600">
        <ele>804.6</ele>
        <time>2020-04-04T18:57:13Z</time>
      </trkpt>
      <trkpt lat="42.2789580" lon="-4.2949090">
        <ele>805.0</ele>
        <time>2020-04-04T18:57:15Z</time>
      </trkpt>
      <trkpt lat="42.2789230" lon="-4.2953140">
        <ele>806.0</ele>
        <time>2020-04-04T18:57:17Z</time>
      </trkpt>
      <trkpt lat="42.2789030" lon="-4.2954740">
        <ele>806.2</ele>
        <time>2020-04-04T18:57:19Z</time>
      </trkpt>
      <trkpt lat="42.2788820" lon="-4.2956390">
        <ele>806.4</ele>
        <time>2020-04-04T18:57:21Z</time>
      </trkpt>
      <trkpt lat="42.2788400" lon="-4.2959790">
        <ele>806.8</ele>
        <time>2020-04-04T18:57:23Z</time>
      </trkpt>
      <trkpt lat="42.2788190" lon="-4.2961540">
        <ele>807.0</ele>
        <time>2020-04-04T18:57:25Z</time>
      </trkpt>
      <trkpt lat="42.2787750" lon="-4.2964960">
        <ele>807.6</ele>
        <time>2020-04-04T18:57:27Z</time>
      </trkpt>
      <trkpt lat="42.2787160" lon="-4.2967150">
        <ele>808.1</ele>
        <time>2020-04-04T18:57:29Z</time>
      </trkpt>
      <trkpt lat="42.2786230" lon="-4.2969130">
        <ele>808.6</ele>
        <time>2020-04-04T18:57:31Z</time>
      </trkpt>
      <trkpt lat="42.2785230" lon="-4.2970930">
        <ele>808.9</ele>
        <time>2020-04-04T18:57:33Z</time>
      </trkpt>
      <trkpt lat="42.2784030" lon="-4.2972820">
        <ele>808.9</ele>
        <time>2020-04-04T18:57:35Z</time>
      </trkpt>
      <trkpt lat="42.2783160" lon="-4.2973990">
        <ele>808.7</ele>
        <time>2020-04-04T18:57:37Z</time>
      </trkpt>
      <trkpt lat="42.2781630" lon="-4.2976050">
        <ele>808.3</ele>
        <time>2020-04-04T18:57:39Z</time>
      </trkpt>
      <trkpt lat="42.2780760" lon="-4.2977840">
        <ele>807.9</ele>
        <time>2020-04-04T18:57:41Z</time>
      </trkpt>
      <trkpt lat="42.2780190" lon="-4.2979900">
        <ele>807.7</ele>
        <time>2020-04-04T18:57:43Z</time>
      </trkpt>
      <trkpt lat="42.2779700" lon="-4.2981450">
        <ele>808.0</ele>
        <time>2020-04-04T18:57:45Z</time>
      </trkpt>
      <trkpt lat="42.2778930" lon="-4.2983930">
        <ele>808.3</ele>
        <time>2020-04-04T18:57:47Z</time>
      </trkpt>
      <trkpt lat="42.2778480" lon="-4.2985520">
        <ele>808.3</ele>
        <time>2020-04-04T18:57:49Z</time>
      </trkpt>
      <trkpt lat="42.2777730" lon="-4.2988160">
        <ele>808.5</ele>
        <time>2020-04-04T18:57:51Z</time>
      </trkpt>
      <trkpt lat="42.2777290" lon="-4.2989740">
        <ele>808.8</ele>
        <time>2020-04-04T18:57:53Z</time>
      </trkpt>
      <trkpt lat="42.2776850" lon="-4.2991290">
        <ele>809.0</ele>
        <time>2020-04-04T18:57:55Z</time>
      </trkpt>
      <trkpt lat="42.2776410" lon="-4.2992830">
        <ele>809.2</ele>
        <time>2020-04-04T18:57:57Z</time>
      </trkpt>
      <trkpt lat="42.2775980" lon="-4.2994370">
        <ele>809.4</ele>
        <time>2020-04-04T18:57:59Z</time>
      </trkpt>
      <trkpt lat="42.2774750" lon="-4.2998590">
        <ele>810.1</ele>
        <time>2020-04-04T18:58:01Z</time>
      </trkpt>
      <trkpt lat="42.2774270" lon="-4.3000110">
        <ele>810.4</ele>
        <time>2020-04-04T18:58:03Z</time>
      </trkpt>
      <trkpt lat="42.2773790" lon="-4.3001610">
        <ele>810.9</ele>
        <time>2020-04-04T18:58:05Z</time>
      </trkpt>
      <trkpt lat="42.2773310" lon="-4.3003110">
        <ele>811.3</ele>
        <time>2020-04-04T18:58:07Z</time>
      </trkpt>
      <trkpt lat="42.2772140" lon="-4.3006790">
        <ele>812.6</ele>
        <time>2020-04-04T18:58:09Z</time>
      </trkpt>
      <trkpt lat="42.2771570" lon="-4.3008570">
        <ele>813.3</ele>
        <time>2020-04-04T18:58:11Z</time>
      </trkpt>
      <trkpt lat="42.2771110" lon="-4.3010010">
        <ele>813.9</ele>
        <time>2020-04-04T18:58:13Z</time>
      </trkpt>
      <trkpt lat="42.2770670" lon="-4.3011410">
        <ele>814.5</ele>
        <time>2020-04-04T18:58:15Z</time>
      </trkpt>
      <trkpt lat="42.2770230" lon="-4.3012770">
        <ele>815.2</ele>
        <time>2020-04-04T18:58:17Z</time>
      </trkpt>
      <trkpt lat="42.2769800" lon="-4.3014130">
        <ele>815.8</ele>
        <time>2020-04-04T18:58:19Z</time>
      </trkpt>
      <trkpt lat="42.2768470" lon="-4.3017910">
        <ele>817.2</ele>
        <time>2020-04-04T18:58:21Z</time>
      </trkpt>
      <trkpt lat="42.2767960" lon="-4.3019170">
        <ele>817.7</ele>
        <time>2020-04-04T18:58:23Z</time>
      </trkpt>
      <trkpt lat="42.2767020" lon="-4.3021270">
        <ele>818.7</ele>
        <time>2020-04-04T18:58:25Z</time>
      </trkpt>
      <trkpt lat="42.2766460" lon="-4.3022450">
        <ele>819.2</ele>
        <time>2020-04-04T18:58:27Z</time>
      </trkpt>
      <trkpt lat="42.2765890" lon="-4.3023630">
        <ele>819.9</ele>
        <time>2020-04-04T18:58:29Z</time>
      </trkpt>
      <trkpt lat="42.2764850" lon="-4.3026000">
        <ele>821.2</ele>
        <time>2020-04-04T18:58:31Z</time>
      </trkpt>
      <trkpt lat="42.2764380" lon="-4.3027200">
        <ele>821.8</ele>
        <time>2020-04-04T18:58:33Z</time>
      </trkpt>
      <trkpt lat="42.2763530" lon="-4.3029460">
        <ele>823.4</ele>
        <time>2020-04-04T18:58:35Z</time>
      </trkpt>
      <trkpt lat="42.2763140" lon="-4.3030690">
        <ele>824.3</ele>
        <time>2020-04-04T18:58:37Z</time>
      </trkpt>
      <trkpt lat="42.2762750" lon="-4.3031920">
        <ele>825.1</ele>
        <time>2020-04-04T18:58:39Z</time>
      </trkpt>
      <trkpt lat="42.2762360" lon="-4.3033120">
        <ele>825.8</ele>
        <time>2020-04-04T18:58:41Z</time>
      </trkpt>
      <trkpt lat="42.2761430" lon="-4.3036050">
        <ele>827.1</ele>
        <time>2020-04-04T18:58:43Z</time>
      </trkpt>
      <trkpt lat="42.2760970" lon="-4.3037480">
        <ele>827.1</ele>
        <time>2020-04-04T18:58:45Z</time>
      </trkpt>
      <trkpt lat="42.2760470" lon="-4.3039050">
        <ele>826.6</ele>
        <time>2020-04-04T18:58:47Z</time>
      </trkpt>
      <trkpt lat="42.2759440" lon="-4.3042400">
        <ele>825.4</ele>
        <time>2020-04-04T18:58:49Z</time>
      </trkpt>
      <trkpt lat="42.2758970" lon="-4.3044160">
        <ele>824.9</ele>
        <time>2020-04-04T18:58:51Z</time>
      </trkpt>
      <trkpt lat="42.2758140" lon="-4.3047300">
        <ele>823.8</ele>
        <time>2020-04-04T18:58:53Z</time>
      </trkpt>
      <trkpt lat="42.2757690" lon="-4.3049150">
        <ele>822.9</ele>
        <time>2020-04-04T18:58:55Z</time>
      </trkpt>
      <trkpt lat="42.2756950" lon="-4.3052210">
        <ele>821.2</ele>
        <time>2020-04-04T18:58:57Z</time>
      </trkpt>
      <trkpt lat="42.2756480" lon="-4.3054130">
        <ele>820.2</ele>
        <time>2020-04-04T18:58:59Z</time>
      </trkpt>
      <trkpt lat="42.2756010" lon="-4.3056090">
        <ele>819.6</ele>
        <time>2020-04-04T18:59:01Z</time>
      </trkpt>
      <trkpt lat="42.2755530" lon="-4.3058060">
        <ele>819.1</ele>
        <time>2020-04-04T18:59:03Z</time>
      </trkpt>
      <trkpt lat="42.2754430" lon="-4.3062580">
        <ele>817.8</ele>
        <time>2020-04-04T18:59:05Z</time>
      </trkpt>
      <trkpt lat="42.2753960" lon="-4.3064510">
        <ele>817.4</ele>
        <time>2020-04-04T18:59:07Z</time>
      </trkpt>
      <trkpt lat="42.2753510" lon="-4.3066390">
        <ele>817.0</ele>
        <time>2020-04-04T18:59:09Z</time>
      </trkpt>
      <trkpt lat="42.2753050" lon="-4.3068270">
        <ele>816.7</ele>
        <time>2020-04-04T18:59:11Z</time>
      </trkpt>
      <trkpt lat="42.2751990" lon="-4.3072680">
        <ele>816.3</ele>
        <time>2020-04-04T18:59:13Z</time>
      </trkpt>
      <trkpt lat="42.2751540" lon="-4.3074530">
        <ele>816.1</ele>
        <time>2020-04-04T18:59:15Z</time>
      </trkpt>
      <trkpt lat="42.2750640" lon="-4.3078250">
        <ele>815.5</ele>
        <time>2020-04-04T18:59:17Z</time>
      </trkpt>
      <trkpt lat="42.2749930" lon="-4.3080730">
        <ele>815.0</ele>
        <time>2020-04-04T18:59:19Z</time>
      </trkpt>
      <trkpt lat="42.2749300" lon="-4.3082500">
        <ele>814.9</ele>
        <time>2020-04-04T18:59:21Z</time>
      </trkpt>
      <trkpt lat="42.2748640" lon="-4.3084320">
        <ele>814.6</ele>
        <time>2020-04-04T18:59:23Z</time>
      </trkpt>
      <trkpt lat="42.2747480" lon="-4.3087760">
        <ele>813.0</ele>
        <time>2020-04-04T18:59:25Z</time>
      </trkpt>
      <trkpt lat="42.2746780" lon="-4.3090350">
        <ele>811.5</ele>
        <time>2020-04-04T18:59:27Z</time>
      </trkpt>
      <trkpt lat="42.2746070" lon="-4.3093320">
        <ele>810.3</ele>
        <time>2020-04-04T18:59:29Z</time>
      </trkpt>
      <trkpt lat="42.2745340" lon="-4.3096210">
        <ele>809.4</ele>
        <time>2020-04-04T18:59:31Z</time>
      </trkpt>
      <trkpt lat="42.2744470" lon="-4.3098560">
        <ele>808.7</ele>
        <time>2020-04-04T18:59:33Z</time>
      </trkpt>
      <trkpt lat="42.2743370" lon="-4.3101160">
        <ele>808.2</ele>
        <time>2020-04-04T18:59:35Z</time>
      </trkpt>
      <trkpt lat="42.2742560" lon="-4.3103040">
        <ele>807.7</ele>
        <time>2020-04-04T18:59:37Z</time>
      </trkpt>
      <trkpt lat="42.2741180" lon="-4.3106230">
        <ele>806.9</ele>
        <time>2020-04-04T18:59:39Z</time>
      </trkpt>
      <trkpt lat="42.2740410" lon="-4.3108020">
        <ele>806.5</ele>
        <time>2020-04-04T18:59:41Z</time>
      </trkpt>
      <trkpt lat="42.2739290" lon="-4.3110650">
        <ele>806.0</ele>
        <time>2020-04-04T18:59:43Z</time>
      </trkpt>
      <trkpt lat="42.2738600" lon="-4.3112300">
        <ele>805.7</ele>
        <time>2020-04-04T18:59:45Z</time>
      </trkpt>
      <trkpt lat="42.2737270" lon="-4.3115470">
        <ele>805.2</ele>
        <time>2020-04-04T18:59:47Z</time>
      </trkpt>
      <trkpt lat="42.2736610" lon="-4.3117060">
        <ele>804.9</ele>
        <time>2020-04-04T18:59:49Z</time>
      </trkpt>
      <trkpt lat="42.2735510" lon="-4.3119710">
        <ele>804.5</ele>
        <time>2020-04-04T18:59:51Z</time>
      </trkpt>
      <trkpt lat="42.2734870" lon="-4.3121310">
        <ele>804.3</ele>
        <time>2020-04-04T18:59:53Z</time>
      </trkpt>
      <trkpt lat="42.2734240" lon="-4.3122860">
        <ele>804.2</ele>
        <time>2020-04-04T18:59:55Z</time>
      </trkpt>
      <trkpt lat="42.2732980" lon="-4.3125850">
        <ele>804.1</ele>
        <time>2020-04-04T18:59:57Z</time>
      </trkpt>
      <trkpt lat="42.2732290" lon="-4.3127360">
        <ele>804.1</ele>
        <time>2020-04-04T18:59:59Z</time>
      </trkpt>
      <trkpt lat="42.2731600" lon="-4.3128870">
        <ele>804.1</ele>
        <time>2020-04-04T19:00:01Z</time>
      </trkpt>
      <trkpt lat="42.2730910" lon="-4.3130380">
        <ele>804.1</ele>
        <time>2020-04-04T19:00:03Z</time>
      </trkpt>
      <trkpt lat="42.2729190" lon="-4.3134140">
        <ele>804.0</ele>
        <time>2020-04-04T19:00:05Z</time>
      </trkpt>
      <trkpt lat="42.2728520" lon="-4.3135600">
        <ele>804.0</ele>
        <time>2020-04-04T19:00:07Z</time>
      </trkpt>
      <trkpt lat="42.2727870" lon="-4.3137040">
        <ele>804.0</ele>
        <time>2020-04-04T19:00:09Z</time>
      </trkpt>
      <trkpt lat="42.2727220" lon="-4.3138460">
        <ele>804.0</ele>
        <time>2020-04-04T19:00:11Z</time>
      </trkpt>
      <trkpt lat="42.2726590" lon="-4.3139850">
        <ele>804.0</ele>
        <time>2020-04-04T19:00:13Z</time>
      </trkpt>
      <trkpt lat="42.2725040" lon="-4.3143550">
        <ele>804.0</ele>
        <time>2020-04-04T19:00:15Z</time>
      </trkpt>
      <trkpt lat="42.2724530" lon="-4.3145010">
        <ele>804.0</ele>
        <time>2020-04-04T19:00:17Z</time>
      </trkpt>
      <trkpt lat="42.2724020" lon="-4.3146450">
        <ele>804.0</ele>
        <time>2020-04-04T19:00:19Z</time>
      </trkpt>
      <trkpt lat="42.2723510" lon="-4.3147860">
        <ele>804.0</ele>
        <time>2020-04-04T19:00:21Z</time>
      </trkpt>
      <trkpt lat="42.2722290" lon="-4.3151300">
        <ele>804.0</ele>
        <time>2020-04-04T19:00:23Z</time>
      </trkpt>
      <trkpt lat="42.2721750" lon="-4.3152840">
        <ele>803.9</ele>
        <time>2020-04-04T19:00:25Z</time>
      </trkpt>
      <trkpt lat="42.2721190" lon="-4.3154430">
        <ele>803.8</ele>
        <time>2020-04-04T19:00:27Z</time>
      </trkpt>
      <trkpt lat="42.2719920" lon="-4.3158070">
        <ele>802.9</ele>
        <time>2020-04-04T19:00:29Z</time>
      </trkpt>
      <trkpt lat="42.2719410" lon="-4.3159780">
        <ele>802.4</ele>
        <time>2020-04-04T19:00:31Z</time>
      </trkpt>
      <trkpt lat="42.2718690" lon="-4.3162390">
        <ele>801.6</ele>
        <time>2020-04-04T19:00:33Z</time>
      </trkpt>
      <trkpt lat="42.2718050" lon="-4.3165120">
        <ele>800.8</ele>
        <time>2020-04-04T19:00:35Z</time>
      </trkpt>
      <trkpt lat="42.2717670" lon="-4.3166980">
        <ele>800.5</ele>
        <time>2020-04-04T19:00:37Z</time>
      </trkpt>
      <trkpt lat="42.2717290" lon="-4.3168830">
        <ele>800.2</ele>
        <time>2020-04-04T19:00:39Z</time>
      </trkpt>
      <trkpt lat="42.2716910" lon="-4.3170700">
        <ele>800.0</ele>
        <time>2020-04-04T19:00:41Z</time>
      </trkpt>
      <trkpt lat="42.2715980" lon="-4.3175280">
        <ele>799.6</ele>
        <time>2020-04-04T19:00:43Z</time>
      </trkpt>
      <trkpt lat="42.2715600" lon="-4.3177150">
        <ele>799.4</ele>
        <time>2020-04-04T19:00:45Z</time>
      </trkpt>
      <trkpt lat="42.2715230" lon="-4.3179000">
        <ele>799.2</ele>
        <time>2020-04-04T19:00:47Z</time>
      </trkpt>
      <trkpt lat="42.2714430" lon="-4.3182960">
        <ele>798.6</ele>
        <time>2020-04-04T19:00:49Z</time>
      </trkpt>
      <trkpt lat="42.2713910" lon="-4.3185440">
        <ele>798.2</ele>
        <time>2020-04-04T19:00:51Z</time>
      </trkpt>
      <trkpt lat="42.2713520" lon="-4.3187270">
        <ele>798.0</ele>
        <time>2020-04-04T19:00:53Z</time>
      </trkpt>
      <trkpt lat="42.2713150" lon="-4.3189060">
        <ele>797.8</ele>
        <time>2020-04-04T19:00:55Z</time>
      </trkpt>
      <trkpt lat="42.2712780" lon="-4.3190830">
        <ele>797.5</ele>
        <time>2020-04-04T19:00:57Z</time>
      </trkpt>
      <trkpt lat="42.2712420" lon="-4.3192570">
        <ele>797.1</ele>
        <time>2020-04-04T19:00:59Z</time>
      </trkpt>
      <trkpt lat="42.2711490" lon="-4.3197010">
        <ele>796.9</ele>
        <time>2020-04-04T19:01:01Z</time>
      </trkpt>
      <trkpt lat="42.2711130" lon="-4.3198720">
        <ele>796.8</ele>
        <time>2020-04-04T19:01:03Z</time>
      </trkpt>
      <trkpt lat="42.2710780" lon="-4.3200440">
        <ele>796.6</ele>
        <time>2020-04-04T19:01:05Z</time>
      </trkpt>
      <trkpt lat="42.2710420" lon="-4.3202170">
        <ele>796.3</ele>
        <time>2020-04-04T19:01:07Z</time>
      </trkpt>
      <trkpt lat="42.2709490" lon="-4.3206600">
        <ele>795.9</ele>
        <time>2020-04-04T19:01:09Z</time>
      </trkpt>
      <trkpt lat="42.2709150" lon="-4.3208260">
        <ele>796.0</ele>
        <time>2020-04-04T19:01:11Z</time>
      </trkpt>
      <trkpt lat="42.2708820" lon="-4.3209840">
        <ele>796.1</ele>
        <time>2020-04-04T19:01:13Z</time>
      </trkpt>
      <trkpt lat="42.2708500" lon="-4.3211390">
        <ele>796.3</ele>
        <time>2020-04-04T19:01:15Z</time>
      </trkpt>
      <trkpt lat="42.2708190" lon="-4.3212880">
        <ele>796.5</ele>
        <time>2020-04-04T19:01:17Z</time>
      </trkpt>
      <trkpt lat="42.2707330" lon="-4.3217060">
        <ele>796.8</ele>
        <time>2020-04-04T19:01:19Z</time>
      </trkpt>
      <trkpt lat="42.2707030" lon="-4.3218490">
        <ele>796.8</ele>
        <time>2020-04-04T19:01:21Z</time>
      </trkpt>
      <trkpt lat="42.2706740" lon="-4.3219920">
        <ele>796.9</ele>
        <time>2020-04-04T19:01:23Z</time>
      </trkpt>
      <trkpt lat="42.2706450" lon="-4.3221310">
        <ele>796.9</ele>
        <time>2020-04-04T19:01:25Z</time>
      </trkpt>
      <trkpt lat="42.2706170" lon="-4.3222690">
        <ele>796.9</ele>
        <time>2020-04-04T19:01:27Z</time>
      </trkpt>
      <trkpt lat="42.2705320" lon="-4.3226760">
        <ele>797.4</ele>
        <time>2020-04-04T19:01:29Z</time>
      </trkpt>
      <trkpt lat="42.2704990" lon="-4.3228180">
        <ele>797.6</ele>
        <time>2020-04-04T19:01:31Z</time>
      </trkpt>
      <trkpt lat="42.2704660" lon="-4.3229630">
        <ele>797.8</ele>
        <time>2020-04-04T19:01:33Z</time>
      </trkpt>
      <trkpt lat="42.2704320" lon="-4.3231120">
        <ele>797.8</ele>
        <time>2020-04-04T19:01:35Z</time>
      </trkpt>
      <trkpt lat="42.2703970" lon="-4.3232660">
        <ele>797.8</ele>
        <time>2020-04-04T19:01:37Z</time>
      </trkpt>
      <trkpt lat="42.2703610" lon="-4.3234240">
        <ele>797.9</ele>
        <time>2020-04-04T19:01:39Z</time>
      </trkpt>
      <trkpt lat="42.2702610" lon="-4.3238620">
        <ele>798.3</ele>
        <time>2020-04-04T19:01:41Z</time>
      </trkpt>
      <trkpt lat="42.2702040" lon="-4.3241080">
        <ele>798.7</ele>
        <time>2020-04-04T19:01:43Z</time>
      </trkpt>
      <trkpt lat="42.2701640" lon="-4.3242740">
        <ele>798.8</ele>
        <time>2020-04-04T19:01:45Z</time>
      </trkpt>
      <trkpt lat="42.2701230" lon="-4.3244430">
        <ele>798.8</ele>
        <time>2020-04-04T19:01:47Z</time>
      </trkpt>
      <trkpt lat="42.2700360" lon="-4.3248010">
        <ele>798.8</ele>
        <time>2020-04-04T19:01:49Z</time>
      </trkpt>
      <trkpt lat="42.2699870" lon="-4.3249720">
        <ele>798.7</ele>
        <time>2020-04-04T19:01:51Z</time>
      </trkpt>
      <trkpt lat="42.2699070" lon="-4.3252510">
        <ele>798.5</ele>
        <time>2020-04-04T19:01:53Z</time>
      </trkpt>
      <trkpt lat="42.2698520" lon="-4.3254160">
        <ele>798.2</ele>
        <time>2020-04-04T19:01:55Z</time>
      </trkpt>
      <trkpt lat="42.2697990" lon="-4.3255790">
        <ele>798.0</ele>
        <time>2020-04-04T19:01:57Z</time>
      </trkpt>
      <trkpt lat="42.2697450" lon="-4.3257410">
        <ele>797.9</ele>
        <time>2020-04-04T19:01:59Z</time>
      </trkpt>
      <trkpt lat="42.2696920" lon="-4.3259030">
        <ele>797.7</ele>
        <time>2020-04-04T19:02:01Z</time>
      </trkpt>
      <trkpt lat="42.2695520" lon="-4.3263100">
        <ele>797.2</ele>
        <time>2020-04-04T19:02:03Z</time>
      </trkpt>
      <trkpt lat="42.2694900" lon="-4.3264760">
        <ele>797.0</ele>
        <time>2020-04-04T19:02:05Z</time>
      </trkpt>
      <trkpt lat="42.2694270" lon="-4.3266480">
        <ele>796.8</ele>
        <time>2020-04-04T19:02:07Z</time>
      </trkpt>
      <trkpt lat="42.2693620" lon="-4.3268250">
        <ele>796.7</ele>
        <time>2020-04-04T19:02:09Z</time>
      </trkpt>
      <trkpt lat="42.2691970" lon="-4.3272690">
        <ele>795.7</ele>
        <time>2020-04-04T19:02:11Z</time>
      </trkpt>
      <trkpt lat="42.2691300" lon="-4.3274510">
        <ele>795.2</ele>
        <time>2020-04-04T19:02:13Z</time>
      </trkpt>
      <trkpt lat="42.2690630" lon="-4.3276340">
        <ele>794.9</ele>
        <time>2020-04-04T19:02:15Z</time>
      </trkpt>
      <trkpt lat="42.2689350" lon="-4.3279750">
        <ele>794.1</ele>
        <time>2020-04-04T19:02:17Z</time>
      </trkpt>
      <trkpt lat="42.2688240" lon="-4.3282700">
        <ele>793.3</ele>
        <time>2020-04-04T19:02:19Z</time>
      </trkpt>
      <trkpt lat="42.2687560" lon="-4.3284500">
        <ele>793.0</ele>
        <time>2020-04-04T19:02:21Z</time>
      </trkpt>
      <trkpt lat="42.2686910" lon="-4.3286240">
        <ele>792.8</ele>
        <time>2020-04-04T19:02:23Z</time>
      </trkpt>
      <trkpt lat="42.2686280" lon="-4.3287910">
        <ele>792.8</ele>
        <time>2020-04-04T19:02:25Z</time>
      </trkpt>
      <trkpt lat="42.2685670" lon="-4.3289530">
        <ele>792.7</ele>
        <time>2020-04-04T19:02:27Z</time>
      </trkpt>
      <trkpt lat="42.2684090" lon="-4.3293750">
        <ele>792.6</ele>
        <time>2020-04-04T19:02:29Z</time>
      </trkpt>
      <trkpt lat="42.2683260" lon="-4.3295960">
        <ele>792.4</ele>
        <time>2020-04-04T19:02:31Z</time>
      </trkpt>
      <trkpt lat="42.2682660" lon="-4.3297560">
        <ele>792.1</ele>
        <time>2020-04-04T19:02:33Z</time>
      </trkpt>
      <trkpt lat="42.2682050" lon="-4.3299190">
        <ele>791.9</ele>
        <time>2020-04-04T19:02:35Z</time>
      </trkpt>
      <trkpt lat="42.2680670" lon="-4.3302820">
        <ele>791.7</ele>
        <time>2020-04-04T19:02:37Z</time>
      </trkpt>
      <trkpt lat="42.2679950" lon="-4.3304450">
        <ele>791.7</ele>
        <time>2020-04-04T19:02:39Z</time>
      </trkpt>
      <trkpt lat="42.2678780" lon="-4.3307070">
        <ele>791.6</ele>
        <time>2020-04-04T19:02:41Z</time>
      </trkpt>
      <trkpt lat="42.2678030" lon="-4.3308710">
        <ele>791.3</ele>
        <time>2020-04-04T19:02:43Z</time>
      </trkpt>
      <trkpt lat="42.2677270" lon="-4.3310360">
        <ele>791.2</ele>
        <time>2020-04-04T19:02:45Z</time>
      </trkpt>
      <trkpt lat="42.2675870" lon="-4.3313430">
        <ele>790.9</ele>
        <time>2020-04-04T19:02:47Z</time>
      </trkpt>
      <trkpt lat="42.2675180" lon="-4.3314950">
        <ele>790.6</ele>
        <time>2020-04-04T19:02:49Z</time>
      </trkpt>
      <trkpt lat="42.2674480" lon="-4.3316460">
        <ele>790.4</ele>
        <time>2020-04-04T19:02:51Z</time>
      </trkpt>
      <trkpt lat="42.2673790" lon="-4.3317970">
        <ele>790.1</ele>
        <time>2020-04-04T19:02:53Z</time>
      </trkpt>
      <trkpt lat="42.2671990" lon="-4.3321910">
        <ele>789.4</ele>
        <time>2020-04-04T19:02:55Z</time>
      </trkpt>
      <trkpt lat="42.2671310" lon="-4.3323410">
        <ele>789.2</ele>
        <time>2020-04-04T19:02:57Z</time>
      </trkpt>
      <trkpt lat="42.2670620" lon="-4.3324900">
        <ele>789.0</ele>
        <time>2020-04-04T19:02:59Z</time>
      </trkpt>
      <trkpt lat="42.2669930" lon="-4.3326410">
        <ele>788.9</ele>
        <time>2020-04-04T19:03:01Z</time>
      </trkpt>
      <trkpt lat="42.2669240" lon="-4.3327920">
        <ele>788.7</ele>
        <time>2020-04-04T19:03:03Z</time>
      </trkpt>
      <trkpt lat="42.2667440" lon="-4.3331900">
        <ele>788.0</ele>
        <time>2020-04-04T19:03:05Z</time>
      </trkpt>
      <trkpt lat="42.2666400" lon="-4.3334290">
        <ele>787.7</ele>
        <time>2020-04-04T19:03:07Z</time>
      </trkpt>
      <trkpt lat="42.2665730" lon="-4.3335990">
        <ele>787.3</ele>
        <time>2020-04-04T19:03:09Z</time>
      </trkpt>
      <trkpt lat="42.2664550" lon="-4.3338720">
        <ele>786.9</ele>
        <time>2020-04-04T19:03:11Z</time>
      </trkpt>
      <trkpt lat="42.2663760" lon="-4.3340400">
        <ele>786.9</ele>
        <time>2020-04-04T19:03:13Z</time>
      </trkpt>
      <trkpt lat="42.2662950" lon="-4.3342110">
        <ele>786.8</ele>
        <time>2020-04-04T19:03:15Z</time>
      </trkpt>
      <trkpt lat="42.2661430" lon="-4.3345440">
        <ele>786.7</ele>
        <time>2020-04-04T19:03:17Z</time>
      </trkpt>
      <trkpt lat="42.2660700" lon="-4.3347110">
        <ele>786.5</ele>
        <time>2020-04-04T19:03:19Z</time>
      </trkpt>
      <trkpt lat="42.2659990" lon="-4.3348730">
        <ele>786.2</ele>
        <time>2020-04-04T19:03:21Z</time>
      </trkpt>
      <trkpt lat="42.2658420" lon="-4.3352340">
        <ele>785.9</ele>
        <time>2020-04-04T19:03:23Z</time>
      </trkpt>
      <trkpt lat="42.2657740" lon="-4.3353880">
        <ele>785.8</ele>
        <time>2020-04-04T19:03:25Z</time>
      </trkpt>
      <trkpt lat="42.2657070" lon="-4.3355410">
        <ele>785.7</ele>
        <time>2020-04-04T19:03:27Z</time>
      </trkpt>
      <trkpt lat="42.2655610" lon="-4.3358740">
        <ele>785.1</ele>
        <time>2020-04-04T19:03:29Z</time>
      </trkpt>
      <trkpt lat="42.2654950" lon="-4.3360240">
        <ele>785.2</ele>
        <time>2020-04-04T19:03:31Z</time>
      </trkpt>
      <trkpt lat="42.2653970" lon="-4.3362400">
        <ele>785.5</ele>
        <time>2020-04-04T19:03:33Z</time>
      </trkpt>
      <trkpt lat="42.2653270" lon="-4.3363910">
        <ele>785.6</ele>
        <time>2020-04-04T19:03:35Z</time>
      </trkpt>
      <trkpt lat="42.2651960" lon="-4.3366640">
        <ele>785.9</ele>
        <time>2020-04-04T19:03:37Z</time>
      </trkpt>
      <trkpt lat="42.2651210" lon="-4.3368140">
        <ele>786.1</ele>
        <time>2020-04-04T19:03:39Z</time>
      </trkpt>
      <trkpt lat="42.2649910" lon="-4.3370720">
        <ele>786.0</ele>
        <time>2020-04-04T19:03:41Z</time>
      </trkpt>
      <trkpt lat="42.2649180" lon="-4.3372180">
        <ele>786.0</ele>
        <time>2020-04-04T19:03:43Z</time>
      </trkpt>
      <trkpt lat="42.2647830" lon="-4.3374840">
        <ele>786.1</ele>
        <time>2020-04-04T19:03:45Z</time>
      </trkpt>
      <trkpt lat="42.2647120" lon="-4.3376240">
        <ele>786.2</ele>
        <time>2020-04-04T19:03:47Z</time>
      </trkpt>
      <trkpt lat="42.2646420" lon="-4.3377630">
        <ele>786.4</ele>
        <time>2020-04-04T19:03:49Z</time>
      </trkpt>
      <trkpt lat="42.2645730" lon="-4.3378990">
        <ele>786.6</ele>
        <time>2020-04-04T19:03:51Z</time>
      </trkpt>
      <trkpt lat="42.2645050" lon="-4.3380360">
        <ele>786.8</ele>
        <time>2020-04-04T19:03:53Z</time>
      </trkpt>
      <trkpt lat="42.2643140" lon="-4.3384130">
        <ele>787.1</ele>
        <time>2020-04-04T19:03:55Z</time>
      </trkpt>
      <trkpt lat="42.2642480" lon="-4.3385470">
        <ele>787.1</ele>
        <time>2020-04-04T19:03:57Z</time>
      </trkpt>
      <trkpt lat="42.2641820" lon="-4.3386810">
        <ele>787.1</ele>
        <time>2020-04-04T19:03:59Z</time>
      </trkpt>
      <trkpt lat="42.2641160" lon="-4.3388150">
        <ele>787.1</ele>
        <time>2020-04-04T19:04:01Z</time>
      </trkpt>
      <trkpt lat="42.2640500" lon="-4.3389480">
        <ele>787.2</ele>
        <time>2020-04-04T19:04:03Z</time>
      </trkpt>
      <trkpt lat="42.2638760" lon="-4.3392930">
        <ele>787.7</ele>
        <time>2020-04-04T19:04:05Z</time>
      </trkpt>
      <trkpt lat="42.2638060" lon="-4.3394190">
        <ele>787.9</ele>
        <time>2020-04-04T19:04:07Z</time>
      </trkpt>
      <trkpt lat="42.2637370" lon="-4.3395460">
        <ele>788.0</ele>
        <time>2020-04-04T19:04:09Z</time>
      </trkpt>
      <trkpt lat="42.2636670" lon="-4.3396730">
        <ele>788.1</ele>
        <time>2020-04-04T19:04:11Z</time>
      </trkpt>
      <trkpt lat="42.2635980" lon="-4.3397990">
        <ele>788.3</ele>
        <time>2020-04-04T19:04:13Z</time>
      </trkpt>
      <trkpt lat="42.2634040" lon="-4.3401540">
        <ele>789.0</ele>
        <time>2020-04-04T19:04:15Z</time>
      </trkpt>
      <trkpt lat="42.2633380" lon="-4.3402880">
        <ele>789.0</ele>
        <time>2020-04-04T19:04:17Z</time>
      </trkpt>
      <trkpt lat="42.2632720" lon="-4.3404210">
        <ele>789.0</ele>
        <time>2020-04-04T19:04:19Z</time>
      </trkpt>
      <trkpt lat="42.2631340" lon="-4.3407020">
        <ele>789.0</ele>
        <time>2020-04-04T19:04:21Z</time>
      </trkpt>
      <trkpt lat="42.2630720" lon="-4.3408450">
        <ele>789.0</ele>
        <time>2020-04-04T19:04:23Z</time>
      </trkpt>
      <trkpt lat="42.2630110" lon="-4.3409870">
        <ele>789.0</ele>
        <time>2020-04-04T19:04:25Z</time>
      </trkpt>
      <trkpt lat="42.2629480" lon="-4.3411320">
        <ele>789.0</ele>
        <time>2020-04-04T19:04:27Z</time>
      </trkpt>
      <trkpt lat="42.2628200" lon="-4.3414510">
        <ele>788.7</ele>
        <time>2020-04-04T19:04:29Z</time>
      </trkpt>
      <trkpt lat="42.2627630" lon="-4.3416080">
        <ele>788.5</ele>
        <time>2020-04-04T19:04:31Z</time>
      </trkpt>
      <trkpt lat="42.2626690" lon="-4.3418860">
        <ele>787.9</ele>
        <time>2020-04-04T19:04:33Z</time>
      </trkpt>
      <trkpt lat="42.2626170" lon="-4.3420510">
        <ele>787.7</ele>
        <time>2020-04-04T19:04:35Z</time>
      </trkpt>
      <trkpt lat="42.2625140" lon="-4.3423780">
        <ele>787.0</ele>
        <time>2020-04-04T19:04:37Z</time>
      </trkpt>
      <trkpt lat="42.2624450" lon="-4.3426000">
        <ele>786.6</ele>
        <time>2020-04-04T19:04:39Z</time>
      </trkpt>
      <trkpt lat="42.2623930" lon="-4.3427700">
        <ele>786.4</ele>
        <time>2020-04-04T19:04:41Z</time>
      </trkpt>
      <trkpt lat="42.2623040" lon="-4.3430410">
        <ele>785.8</ele>
        <time>2020-04-04T19:04:43Z</time>
      </trkpt>
      <trkpt lat="42.2622420" lon="-4.3432020">
        <ele>785.5</ele>
        <time>2020-04-04T19:04:45Z</time>
      </trkpt>
      <trkpt lat="42.2621380" lon="-4.3434520">
        <ele>784.9</ele>
        <time>2020-04-04T19:04:47Z</time>
      </trkpt>
      <trkpt lat="42.2620380" lon="-4.3436520">
        <ele>784.4</ele>
        <time>2020-04-04T19:04:49Z</time>
      </trkpt>
      <trkpt lat="42.2619240" lon="-4.3438620">
        <ele>784.2</ele>
        <time>2020-04-04T19:04:51Z</time>
      </trkpt>
      <trkpt lat="42.2618400" lon="-4.3440120">
        <ele>784.1</ele>
        <time>2020-04-04T19:04:53Z</time>
      </trkpt>
      <trkpt lat="42.2616790" lon="-4.3443030">
        <ele>784.1</ele>
        <time>2020-04-04T19:04:55Z</time>
      </trkpt>
      <trkpt lat="42.2615940" lon="-4.3444560">
        <ele>784.1</ele>
        <time>2020-04-04T19:04:57Z</time>
      </trkpt>
      <trkpt lat="42.2614550" lon="-4.3447060">
        <ele>783.9</ele>
        <time>2020-04-04T19:04:59Z</time>
      </trkpt>
      <trkpt lat="42.2613170" lon="-4.3448980">
        <ele>783.3</ele>
        <time>2020-04-04T19:05:01Z</time>
      </trkpt>
      <trkpt lat="42.2611540" lon="-4.3450200">
        <ele>782.9</ele>
        <time>2020-04-04T19:05:03Z</time>
      </trkpt>
      <trkpt lat="42.2610300" lon="-4.3451970">
        <ele>782.6</ele>
        <time>2020-04-04T19:05:05Z</time>
      </trkpt>
      <trkpt lat="42.2609160" lon="-4.3454300">
        <ele>782.3</ele>
        <time>2020-04-04T19:05:07Z</time>
      </trkpt>
      <trkpt lat="42.2607940" lon="-4.3455710">
        <ele>782.1</ele>
        <time>2020-04-04T19:05:09Z</time>
      </trkpt>
      <trkpt lat="42.2606390" lon="-4.3456980">
        <ele>782.1</ele>
        <time>2020-04-04T19:05:11Z</time>
      </trkpt>
      <trkpt lat="42.2604660" lon="-4.3457810">
        <ele>782.0</ele>
        <time>2020-04-04T19:05:13Z</time>
      </trkpt>
      <trkpt lat="42.2603380" lon="-4.3458250">
        <ele>781.8</ele>
        <time>2020-04-04T19:05:15Z</time>
      </trkpt>
      <trkpt lat="42.2601410" lon="-4.3459120">
        <ele>781.5</ele>
        <time>2020-04-04T19:05:17Z</time>
      </trkpt>
      <trkpt lat="42.2600210" lon="-4.3459810">
        <ele>781.5</ele>
        <time>2020-04-04T19:05:19Z</time>
      </trkpt>
      <trkpt lat="42.2598390" lon="-4.3461260">
        <ele>781.5</ele>
        <time>2020-04-04T19:05:21Z</time>
      </trkpt>
      <trkpt lat="42.2596680" lon="-4.3462990">
        <ele>781.6</ele>
        <time>2020-04-04T19:05:23Z</time>
      </trkpt>
      <trkpt lat="42.2595670" lon="-4.3464110">
        <ele>781.6</ele>
        <time>2020-04-04T19:05:25Z</time>
      </trkpt>
      <trkpt lat="42.2594650" lon="-4.3464700">
        <ele>781.6</ele>
        <time>2020-04-04T19:05:27Z</time>
      </trkpt>
      <trkpt lat="42.2593530" lon="-4.3464500">
        <ele>781.7</ele>
        <time>2020-04-04T19:05:29Z</time>
      </trkpt>
      <trkpt lat="42.2592330" lon="-4.3465060">
        <ele>781.9</ele>
        <time>2020-04-04T19:05:31Z</time>
      </trkpt>
      <trkpt lat="42.2590250" lon="-4.3465540">
        <ele>781.7</ele>
        <time>2020-04-04T19:05:33Z</time>
      </trkpt>
      <trkpt lat="42.2588720" lon="-4.3466410">
        <ele>781.6</ele>
        <time>2020-04-04T19:05:35Z</time>
      </trkpt>
      <trkpt lat="42.2587790" lon="-4.3465200">
        <ele>781.7</ele>
        <time>2020-04-04T19:05:37Z</time>
      </trkpt>
      <trkpt lat="42.2586360" lon="-4.3463190">
        <ele>781.6</ele>
        <time>2020-04-04T19:05:39Z</time>
      </trkpt>
      <trkpt lat="42.2585310" lon="-4.3461270">
        <ele>781.3</ele>
        <time>2020-04-04T19:05:41Z</time>
      </trkpt>
      <trkpt lat="42.2584620" lon="-4.3459750">
        <ele>781.1</ele>
        <time>2020-04-04T19:05:43Z</time>
      </trkpt>
      <trkpt lat="42.2583920" lon="-4.3458220">
        <ele>780.8</ele>
        <time>2020-04-04T19:05:45Z</time>
      </trkpt>
      <trkpt lat="42.2582360" lon="-4.3454970">
        <ele>780.7</ele>
        <time>2020-04-04T19:05:47Z</time>
      </trkpt>
      <trkpt lat="42.2581090" lon="-4.3454270">
        <ele>780.7</ele>
        <time>2020-04-04T19:05:49Z</time>
      </trkpt>
      <trkpt lat="42.2579710" lon="-4.3452560">
        <ele>780.9</ele>
        <time>2020-04-04T19:05:51Z</time>
      </trkpt>
      <trkpt lat="42.2578560" lon="-4.3450380">
        <ele>780.9</ele>
        <time>2020-04-04T19:05:53Z</time>
      </trkpt>
      <trkpt lat="42.2577710" lon="-4.3448920">
        <ele>780.7</ele>
        <time>2020-04-04T19:05:55Z</time>
      </trkpt>
      <trkpt lat="42.2576590" lon="-4.3446990">
        <ele>780.8</ele>
        <time>2020-04-04T19:05:56Z</time>
      </trkpt>
      <trkpt lat="42.2576590" lon="-4.3446990">
        <ele>780.8</ele>
        <time>2020-04-04T19:05:56Z</time>
      </trkpt>
      <trkpt lat="42.2576590" lon="-4.3446990">
        <ele>780.8</ele>
        <time>2020-04-04T19:05:58Z</time>
      </trkpt>
      <trkpt lat="42.2576590" lon="-4.3446990">
        <ele>780.8</ele>
        <time>2020-04-04T19:06:00Z</time>
      </trkpt>
      <trkpt lat="42.2576590" lon="-4.3446990">
        <ele>780.8</ele>
        <time>2020-04-04T19:06:02Z</time>
      </trkpt>
      <trkpt lat="42.2576590" lon="-4.3446990">
        <ele>780.8</ele>
        <time>2020-04-04T19:06:04Z</time>
      </trkpt>
      <trkpt lat="42.2576590" lon="-4.3446990">
        <ele>780.8</ele>
        <time>2020-04-04T19:06:06Z</time>
      </trkpt>
      <trkpt lat="42.2576590" lon="-4.3446990">
        <ele>780.8</ele>
        <time>2020-04-04T19:06:07Z</time>
      </trkpt>
      <trkpt lat="42.2578830" lon="-4.3465360">
        <ele>783.0</ele>
        <time>2020-04-05T16:45:31Z</time>
      </trkpt>
      <trkpt lat="42.2578830" lon="-4.3465360">
        <ele>783.0</ele>
        <time>2020-04-05T16:45:33Z</time>
      </trkpt>
      <trkpt lat="42.2578830" lon="-4.3465360">
        <ele>783.0</ele>
        <time>2020-04-05T16:45:35Z</time>
      </trkpt>
      <trkpt lat="42.2578830" lon="-4.3465360">
        <ele>783.0</ele>
        <time>2020-04-05T16:45:37Z</time>
      </trkpt>
      <trkpt lat="42.2578830" lon="-4.3465360">
        <ele>783.0</ele>
        <time>2020-04-05T16:45:39Z</time>
      </trkpt>
      <trkpt lat="42.2578830" lon="-4.3465360">
        <ele>783.0</ele>
        <time>2020-04-05T16:45:41Z</time>
      </trkpt>
      <trkpt lat="42.2578830" lon="-4.3465360">
        <ele>783.0</ele>
        <time>2020-04-05T16:45:43Z</time>
      </trkpt>
      <trkpt lat="42.2578830" lon="-4.3465360">
        <ele>783.0</ele>
        <time>2020-04-05T16:45:45Z</time>
      </trkpt>
      <trkpt lat="42.2578830" lon="-4.3465360">
        <ele>783.0</ele>
        <time>2020-04-05T16:45:47Z</time>
      </trkpt>
      <trkpt lat="42.2578830" lon="-4.3465360">
        <ele>783.0</ele>
        <time>2020-04-05T16:45:49Z</time>
      </trkpt>
      <trkpt lat="42.2578830" lon="-4.3465360">
        <ele>783.0</ele>
        <time>2020-04-05T16:45:51Z</time>
      </trkpt>
      <trkpt lat="42.2578830" lon="-4.3465360">
        <ele>783.0</ele>
        <time>2020-04-05T16:45:53Z</time>
      </trkpt>
      <trkpt lat="42.2578830" lon="-4.3465360">
        <ele>783.0</ele>
        <time>2020-04-05T16:45:55Z</time>
      </trkpt>
      <trkpt lat="42.2578830" lon="-4.3465360">
        <ele>783.0</ele>
        <time>2020-04-05T16:45:57Z</time>
      </trkpt>
      <trkpt lat="42.2578830" lon="-4.3465360">
        <ele>783.0</ele>
        <time>2020-04-05T16:45:59Z</time>
      </trkpt>
      <trkpt lat="42.2578830" lon="-4.3465360">
        <ele>783.0</ele>
        <time>2020-04-05T16:46:01Z</time>
      </trkpt>
      <trkpt lat="42.2578830" lon="-4.3465360">
        <ele>783.0</ele>
        <time>2020-04-05T16:46:03Z</time>
      </trkpt>
      <trkpt lat="42.2578830" lon="-4.3465360">
        <ele>783.0</ele>
        <time>2020-04-05T16:46:05Z</time>
      </trkpt>
      <trkpt lat="42.2578830" lon="-4.3465360">
        <ele>783.0</ele>
        <time>2020-04-05T16:46:07Z</time>
      </trkpt>
      <trkpt lat="42.2578830" lon="-4.3465360">
        <ele>783.0</ele>
        <time>2020-04-05T16:46:09Z</time>
      </trkpt>
      <trkpt lat="42.2578830" lon="-4.3465360">
        <ele>783.0</ele>
        <time>2020-04-05T16:46:11Z</time>
      </trkpt>
      <trkpt lat="42.2578830" lon="-4.3465360">
        <ele>783.0</ele>
        <time>2020-04-05T16:46:13Z</time>
      </trkpt>
      <trkpt lat="42.2578830" lon="-4.3465360">
        <ele>783.0</ele>
        <time>2020-04-05T16:46:15Z</time>
      </trkpt>
      <trkpt lat="42.2578830" lon="-4.3465360">
        <ele>783.0</ele>
        <time>2020-04-05T16:46:17Z</time>
      </trkpt>
      <trkpt lat="42.2578830" lon="-4.3465360">
        <ele>783.0</ele>
        <time>2020-04-05T16:46:19Z</time>
      </trkpt>
      <trkpt lat="42.2578830" lon="-4.3465360">
        <ele>783.0</ele>
        <time>2020-04-05T16:46:20Z</time>
      </trkpt>
      <trkpt lat="42.2578830" lon="-4.3465360">
        <ele>783.0</ele>
        <time>2020-04-05T16:46:20Z</time>
      </trkpt>
      <trkpt lat="42.2578830" lon="-4.3465370">
        <ele>783.0</ele>
        <time>2020-04-05T16:46:22Z</time>
      </trkpt>
      <trkpt lat="42.2578910" lon="-4.3465610">
        <ele>783.0</ele>
        <time>2020-04-05T16:46:24Z</time>
      </trkpt>
      <trkpt lat="42.2579080" lon="-4.3466150">
        <ele>783.0</ele>
        <time>2020-04-05T16:46:26Z</time>
      </trkpt>
      <trkpt lat="42.2579370" lon="-4.3467230">
        <ele>783.0</ele>
        <time>2020-04-05T16:46:28Z</time>
      </trkpt>
      <trkpt lat="42.2579570" lon="-4.3468100">
        <ele>783.0</ele>
        <time>2020-04-05T16:46:30Z</time>
      </trkpt>
      <trkpt lat="42.2580020" lon="-4.3469840">
        <ele>783.0</ele>
        <time>2020-04-05T16:46:32Z</time>
      </trkpt>
      <trkpt lat="42.2580780" lon="-4.3470080">
        <ele>783.0</ele>
        <time>2020-04-05T16:46:34Z</time>
      </trkpt>
      <trkpt lat="42.2581800" lon="-4.3470760">
        <ele>782.8</ele>
        <time>2020-04-05T16:46:36Z</time>
      </trkpt>
      <trkpt lat="42.2581760" lon="-4.3472070">
        <ele>782.8</ele>
        <time>2020-04-05T16:46:38Z</time>
      </trkpt>
      <trkpt lat="42.2581430" lon="-4.3473290">
        <ele>782.8</ele>
        <time>2020-04-05T16:46:40Z</time>
      </trkpt>
      <trkpt lat="42.2580510" lon="-4.3474740">
        <ele>782.9</ele>
        <time>2020-04-05T16:46:42Z</time>
      </trkpt>
      <trkpt lat="42.2579970" lon="-4.3476430">
        <ele>782.9</ele>
        <time>2020-04-05T16:46:44Z</time>
      </trkpt>
      <trkpt lat="42.2580150" lon="-4.3477960">
        <ele>782.7</ele>
        <time>2020-04-05T16:46:46Z</time>
      </trkpt>
      <trkpt lat="42.2581740" lon="-4.3478530">
        <ele>782.3</ele>
        <time>2020-04-05T16:46:48Z</time>
      </trkpt>
      <trkpt lat="42.2582850" lon="-4.3479030">
        <ele>782.1</ele>
        <time>2020-04-05T16:46:50Z</time>
      </trkpt>
      <trkpt lat="42.2584630" lon="-4.3479930">
        <ele>782.0</ele>
        <time>2020-04-05T16:46:52Z</time>
      </trkpt>
      <trkpt lat="42.2586120" lon="-4.3481000">
        <ele>781.9</ele>
        <time>2020-04-05T16:46:54Z</time>
      </trkpt>
      <trkpt lat="42.2587000" lon="-4.3481890">
        <ele>781.9</ele>
        <time>2020-04-05T16:46:56Z</time>
      </trkpt>
      <trkpt lat="42.2587820" lon="-4.3482720">
        <ele>781.9</ele>
        <time>2020-04-05T16:46:58Z</time>
      </trkpt>
      <trkpt lat="42.2589370" lon="-4.3484550">
        <ele>781.9</ele>
        <time>2020-04-05T16:47:00Z</time>
      </trkpt>
      <trkpt lat="42.2590070" lon="-4.3485430">
        <ele>782.4</ele>
        <time>2020-04-05T16:47:02Z</time>
      </trkpt>
      <trkpt lat="42.2591180" lon="-4.3486700">
        <ele>782.7</ele>
        <time>2020-04-05T16:47:04Z</time>
      </trkpt>
      <trkpt lat="42.2592250" lon="-4.3487720">
        <ele>782.9</ele>
        <time>2020-04-05T16:47:06Z</time>
      </trkpt>
      <trkpt lat="42.2593400" lon="-4.3488480">
        <ele>783.4</ele>
        <time>2020-04-05T16:47:08Z</time>
      </trkpt>
      <trkpt lat="42.2594420" lon="-4.3488010">
        <ele>783.6</ele>
        <time>2020-04-05T16:47:10Z</time>
      </trkpt>
      <trkpt lat="42.2595380" lon="-4.3487200">
        <ele>783.7</ele>
        <time>2020-04-05T16:47:12Z</time>
      </trkpt>
      <trkpt lat="42.2596460" lon="-4.3486220">
        <ele>783.9</ele>
        <time>2020-04-05T16:47:14Z</time>
      </trkpt>
      <trkpt lat="42.2597170" lon="-4.3485540">
        <ele>783.9</ele>
        <time>2020-04-05T16:47:16Z</time>
      </trkpt>
      <trkpt lat="42.2598620" lon="-4.3484770">
        <ele>784.0</ele>
        <time>2020-04-05T16:47:18Z</time>
      </trkpt>
      <trkpt lat="42.2599490" lon="-4.3484880">
        <ele>784.0</ele>
        <time>2020-04-05T16:47:20Z</time>
      </trkpt>
      <trkpt lat="42.2600820" lon="-4.3485060">
        <ele>784.4</ele>
        <time>2020-04-05T16:47:22Z</time>
      </trkpt>
      <trkpt lat="42.2601690" lon="-4.3485180">
        <ele>784.5</ele>
        <time>2020-04-05T16:47:24Z</time>
      </trkpt>
      <trkpt lat="42.2603170" lon="-4.3485420">
        <ele>784.7</ele>
        <time>2020-04-05T16:47:26Z</time>
      </trkpt>
      <trkpt lat="42.2604240" lon="-4.3485670">
        <ele>784.8</ele>
        <time>2020-04-05T16:47:28Z</time>
      </trkpt>
      <trkpt lat="42.2605680" lon="-4.3486000">
        <ele>784.9</ele>
        <time>2020-04-05T16:47:30Z</time>
      </trkpt>
      <trkpt lat="42.2606600" lon="-4.3486120">
        <ele>784.9</ele>
        <time>2020-04-05T16:47:32Z</time>
      </trkpt>
      <trkpt lat="42.2607970" lon="-4.3486300">
        <ele>785.0</ele>
        <time>2020-04-05T16:47:34Z</time>
      </trkpt>
      <trkpt lat="42.2609120" lon="-4.3486930">
        <ele>785.1</ele>
        <time>2020-04-05T16:47:36Z</time>
      </trkpt>
      <trkpt lat="42.2610130" lon="-4.3487750">
        <ele>785.3</ele>
        <time>2020-04-05T16:47:38Z</time>
      </trkpt>
      <trkpt lat="42.2610900" lon="-4.3488410">
        <ele>785.4</ele>
        <time>2020-04-05T16:47:40Z</time>
      </trkpt>
      <trkpt lat="42.2612310" lon="-4.3489770">
        <ele>785.5</ele>
        <time>2020-04-05T16:47:42Z</time>
      </trkpt>
      <trkpt lat="42.2612850" lon="-4.3491040">
        <ele>785.6</ele>
        <time>2020-04-05T16:47:44Z</time>
      </trkpt>
      <trkpt lat="42.2613210" lon="-4.3492090">
        <ele>785.7</ele>
        <time>2020-04-05T16:47:46Z</time>
      </trkpt>
      <trkpt lat="42.2613880" lon="-4.3493700">
        <ele>786.1</ele>
        <time>2020-04-05T16:47:48Z</time>
      </trkpt>
      <trkpt lat="42.2614340" lon="-4.3494640">
        <ele>786.5</ele>
        <time>2020-04-05T16:47:50Z</time>
      </trkpt>
      <trkpt lat="42.2615140" lon="-4.3496160">
        <ele>787.3</ele>
        <time>2020-04-05T16:47:52Z</time>
      </trkpt>
      <trkpt lat="42.2615930" lon="-4.3497530">
        <ele>787.9</ele>
        <time>2020-04-05T16:47:54Z</time>
      </trkpt>
      <trkpt lat="42.2616570" lon="-4.3498220">
        <ele>788.1</ele>
        <time>2020-04-05T16:47:56Z</time>
      </trkpt>
      <trkpt lat="42.2617220" lon="-4.3498920">
        <ele>788.3</ele>
        <time>2020-04-05T16:47:58Z</time>
      </trkpt>
      <trkpt lat="42.2617880" lon="-4.3499640">
        <ele>788.4</ele>
        <time>2020-04-05T16:48:00Z</time>
      </trkpt>
      <trkpt lat="42.2619300" lon="-4.3501190">
        <ele>788.4</ele>
        <time>2020-04-05T16:48:02Z</time>
      </trkpt>
      <trkpt lat="42.2619910" lon="-4.3501880">
        <ele>788.4</ele>
        <time>2020-04-05T16:48:04Z</time>
      </trkpt>
      <trkpt lat="42.2620470" lon="-4.3502500">
        <ele>788.4</ele>
        <time>2020-04-05T16:48:06Z</time>
      </trkpt>
      <trkpt lat="42.2620970" lon="-4.3503070">
        <ele>788.4</ele>
        <time>2020-04-05T16:48:08Z</time>
      </trkpt>
      <trkpt lat="42.2622200" lon="-4.3504500">
        <ele>788.4</ele>
        <time>2020-04-05T16:48:10Z</time>
      </trkpt>
      <trkpt lat="42.2622510" lon="-4.3504940">
        <ele>788.4</ele>
        <time>2020-04-05T16:48:12Z</time>
      </trkpt>
      <trkpt lat="42.2623000" lon="-4.3505600">
        <ele>788.3</ele>
        <time>2020-04-05T16:48:14Z</time>
      </trkpt>
      <trkpt lat="42.2623270" lon="-4.3505930">
        <ele>788.3</ele>
        <time>2020-04-05T16:48:16Z</time>
      </trkpt>
      <trkpt lat="42.2623680" lon="-4.3506430">
        <ele>788.3</ele>
        <time>2020-04-05T16:48:18Z</time>
      </trkpt>
      <trkpt lat="42.2624590" lon="-4.3507280">
        <ele>788.2</ele>
        <time>2020-04-05T16:48:20Z</time>
      </trkpt>
      <trkpt lat="42.2625290" lon="-4.3507760">
        <ele>788.0</ele>
        <time>2020-04-05T16:48:22Z</time>
      </trkpt>
      <trkpt lat="42.2626540" lon="-4.3508500">
        <ele>787.5</ele>
        <time>2020-04-05T16:48:24Z</time>
      </trkpt>
      <trkpt lat="42.2627900" lon="-4.3509200">
        <ele>786.9</ele>
        <time>2020-04-05T16:48:26Z</time>
      </trkpt>
      <trkpt lat="42.2629130" lon="-4.3510000">
        <ele>786.5</ele>
        <time>2020-04-05T16:48:28Z</time>
      </trkpt>
      <trkpt lat="42.2629970" lon="-4.3511320">
        <ele>786.3</ele>
        <time>2020-04-05T16:48:30Z</time>
      </trkpt>
      <trkpt lat="42.2629800" lon="-4.3512890">
        <ele>786.3</ele>
        <time>2020-04-05T16:48:32Z</time>
      </trkpt>
      <trkpt lat="42.2629240" lon="-4.3514160">
        <ele>786.3</ele>
        <time>2020-04-05T16:48:34Z</time>
      </trkpt>
      <trkpt lat="42.2628680" lon="-4.3515450">
        <ele>786.3</ele>
        <time>2020-04-05T16:48:36Z</time>
      </trkpt>
      <trkpt lat="42.2628100" lon="-4.3516760">
        <ele>786.1</ele>
        <time>2020-04-05T16:48:38Z</time>
      </trkpt>
      <trkpt lat="42.2627530" lon="-4.3518080">
        <ele>785.9</ele>
        <time>2020-04-05T16:48:40Z</time>
      </trkpt>
      <trkpt lat="42.2625960" lon="-4.3521650">
        <ele>785.9</ele>
        <time>2020-04-05T16:48:42Z</time>
      </trkpt>
      <trkpt lat="42.2625380" lon="-4.3522990">
        <ele>786.0</ele>
        <time>2020-04-05T16:48:44Z</time>
      </trkpt>
      <trkpt lat="42.2624790" lon="-4.3524340">
        <ele>786.1</ele>
        <time>2020-04-05T16:48:46Z</time>
      </trkpt>
      <trkpt lat="42.2624190" lon="-4.3525690">
        <ele>786.1</ele>
        <time>2020-04-05T16:48:48Z</time>
      </trkpt>
      <trkpt lat="42.2622620" lon="-4.3529290">
        <ele>786.0</ele>
        <time>2020-04-05T16:48:50Z</time>
      </trkpt>
      <trkpt lat="42.2622030" lon="-4.3530640">
        <ele>786.0</ele>
        <time>2020-04-05T16:48:52Z</time>
      </trkpt>
      <trkpt lat="42.2621440" lon="-4.3531980">
        <ele>786.0</ele>
        <time>2020-04-05T16:48:54Z</time>
      </trkpt>
      <trkpt lat="42.2620850" lon="-4.3533320">
        <ele>786.0</ele>
        <time>2020-04-05T16:48:56Z</time>
      </trkpt>
      <trkpt lat="42.2620270" lon="-4.3534650">
        <ele>785.9</ele>
        <time>2020-04-05T16:48:58Z</time>
      </trkpt>
      <trkpt lat="42.2618690" lon="-4.3538180">
        <ele>785.5</ele>
        <time>2020-04-05T16:49:00Z</time>
      </trkpt>
      <trkpt lat="42.2617990" lon="-4.3539390">
        <ele>785.3</ele>
        <time>2020-04-05T16:49:02Z</time>
      </trkpt>
      <trkpt lat="42.2617300" lon="-4.3540590">
        <ele>785.3</ele>
        <time>2020-04-05T16:49:04Z</time>
      </trkpt>
      <trkpt lat="42.2616620" lon="-4.3541770">
        <ele>785.4</ele>
        <time>2020-04-05T16:49:06Z</time>
      </trkpt>
      <trkpt lat="42.2615930" lon="-4.3542970">
        <ele>785.5</ele>
        <time>2020-04-05T16:49:08Z</time>
      </trkpt>
      <trkpt lat="42.2614010" lon="-4.3546310">
        <ele>785.3</ele>
        <time>2020-04-05T16:49:10Z</time>
      </trkpt>
      <trkpt lat="42.2613170" lon="-4.3547790">
        <ele>785.4</ele>
        <time>2020-04-05T16:49:12Z</time>
      </trkpt>
      <trkpt lat="42.2612490" lon="-4.3548970">
        <ele>785.4</ele>
        <time>2020-04-05T16:49:14Z</time>
      </trkpt>
      <trkpt lat="42.2611810" lon="-4.3550140">
        <ele>785.4</ele>
        <time>2020-04-05T16:49:16Z</time>
      </trkpt>
      <trkpt lat="42.2611130" lon="-4.3551320">
        <ele>785.4</ele>
        <time>2020-04-05T16:49:18Z</time>
      </trkpt>
      <trkpt lat="42.2610450" lon="-4.3552490">
        <ele>785.3</ele>
        <time>2020-04-05T16:49:20Z</time>
      </trkpt>
      <trkpt lat="42.2608710" lon="-4.3555520">
        <ele>785.3</ele>
        <time>2020-04-05T16:49:22Z</time>
      </trkpt>
      <trkpt lat="42.2608040" lon="-4.3556690">
        <ele>785.4</ele>
        <time>2020-04-05T16:49:24Z</time>
      </trkpt>
      <trkpt lat="42.2607370" lon="-4.3557840">
        <ele>785.5</ele>
        <time>2020-04-05T16:49:26Z</time>
      </trkpt>
      <trkpt lat="42.2606010" lon="-4.3560200">
        <ele>785.7</ele>
        <time>2020-04-05T16:49:28Z</time>
      </trkpt>
      <trkpt lat="42.2605330" lon="-4.3561370">
        <ele>785.8</ele>
        <time>2020-04-05T16:49:30Z</time>
      </trkpt>
      <trkpt lat="42.2604110" lon="-4.3563490">
        <ele>785.9</ele>
        <time>2020-04-05T16:49:32Z</time>
      </trkpt>
      <trkpt lat="42.2603450" lon="-4.3564640">
        <ele>785.9</ele>
        <time>2020-04-05T16:49:34Z</time>
      </trkpt>
      <trkpt lat="42.2602800" lon="-4.3565770">
        <ele>785.9</ele>
        <time>2020-04-05T16:49:36Z</time>
      </trkpt>
      <trkpt lat="42.2602150" lon="-4.3566900">
        <ele>786.0</ele>
        <time>2020-04-05T16:49:38Z</time>
      </trkpt>
      <trkpt lat="42.2601510" lon="-4.3568010">
        <ele>786.2</ele>
        <time>2020-04-05T16:49:40Z</time>
      </trkpt>
      <trkpt lat="42.2599640" lon="-4.3571280">
        <ele>786.3</ele>
        <time>2020-04-05T16:49:42Z</time>
      </trkpt>
      <trkpt lat="42.2599010" lon="-4.3572380">
        <ele>786.2</ele>
        <time>2020-04-05T16:49:44Z</time>
      </trkpt>
      <trkpt lat="42.2598390" lon="-4.3573470">
        <ele>786.2</ele>
        <time>2020-04-05T16:49:46Z</time>
      </trkpt>
      <trkpt lat="42.2597760" lon="-4.3574550">
        <ele>786.4</ele>
        <time>2020-04-05T16:49:48Z</time>
      </trkpt>
      <trkpt lat="42.2596300" lon="-4.3577080">
        <ele>787.1</ele>
        <time>2020-04-05T16:49:50Z</time>
      </trkpt>
      <trkpt lat="42.2595680" lon="-4.3578150">
        <ele>787.4</ele>
        <time>2020-04-05T16:49:52Z</time>
      </trkpt>
      <trkpt lat="42.2594740" lon="-4.3579980">
        <ele>787.6</ele>
        <time>2020-04-05T16:49:54Z</time>
      </trkpt>
      <trkpt lat="42.2594270" lon="-4.3581520">
        <ele>787.6</ele>
        <time>2020-04-05T16:49:56Z</time>
      </trkpt>
      <trkpt lat="42.2593910" lon="-4.3583260">
        <ele>787.6</ele>
        <time>2020-04-05T16:49:58Z</time>
      </trkpt>
      <trkpt lat="42.2593550" lon="-4.3585060">
        <ele>787.7</ele>
        <time>2020-04-05T16:50:00Z</time>
      </trkpt>
      <trkpt lat="42.2593150" lon="-4.3586900">
        <ele>788.0</ele>
        <time>2020-04-05T16:50:02Z</time>
      </trkpt>
      <trkpt lat="42.2592890" lon="-4.3588190">
        <ele>788.0</ele>
        <time>2020-04-05T16:50:04Z</time>
      </trkpt>
      <trkpt lat="42.2592630" lon="-4.3589480">
        <ele>788.0</ele>
        <time>2020-04-05T16:50:06Z</time>
      </trkpt>
      <trkpt lat="42.2592060" lon="-4.3592240">
        <ele>788.5</ele>
        <time>2020-04-05T16:50:08Z</time>
      </trkpt>
      <trkpt lat="42.2591800" lon="-4.3593530">
        <ele>788.7</ele>
        <time>2020-04-05T16:50:10Z</time>
      </trkpt>
      <trkpt lat="42.2591340" lon="-4.3595790">
        <ele>788.8</ele>
        <time>2020-04-05T16:50:12Z</time>
      </trkpt>
      <trkpt lat="42.2591070" lon="-4.3597080">
        <ele>788.9</ele>
        <time>2020-04-05T16:50:14Z</time>
      </trkpt>
      <trkpt lat="42.2590810" lon="-4.3598350">
        <ele>789.2</ele>
        <time>2020-04-05T16:50:16Z</time>
      </trkpt>
      <trkpt lat="42.2590540" lon="-4.3599630">
        <ele>789.4</ele>
        <time>2020-04-05T16:50:18Z</time>
      </trkpt>
      <trkpt lat="42.2590050" lon="-4.3602500">
        <ele>789.9</ele>
        <time>2020-04-05T16:50:20Z</time>
      </trkpt>
      <trkpt lat="42.2589820" lon="-4.3604460">
        <ele>790.7</ele>
        <time>2020-04-05T16:50:22Z</time>
      </trkpt>
      <trkpt lat="42.2589710" lon="-4.3605820">
        <ele>790.9</ele>
        <time>2020-04-05T16:50:24Z</time>
      </trkpt>
      <trkpt lat="42.2589600" lon="-4.3607220">
        <ele>791.1</ele>
        <time>2020-04-05T16:50:26Z</time>
      </trkpt>
      <trkpt lat="42.2589480" lon="-4.3608640">
        <ele>791.1</ele>
        <time>2020-04-05T16:50:28Z</time>
      </trkpt>
      <trkpt lat="42.2589200" lon="-4.3612120">
        <ele>790.9</ele>
        <time>2020-04-05T16:50:30Z</time>
      </trkpt>
      <trkpt lat="42.2589040" lon="-4.3613620">
        <ele>790.7</ele>
        <time>2020-04-05T16:50:32Z</time>
      </trkpt>
      <trkpt lat="42.2588890" lon="-4.3615120">
        <ele>790.6</ele>
        <time>2020-04-05T16:50:34Z</time>
      </trkpt>
      <trkpt lat="42.2588720" lon="-4.3616670">
        <ele>790.5</ele>
        <time>2020-04-05T16:50:36Z</time>
      </trkpt>
      <trkpt lat="42.2588340" lon="-4.3620090">
        <ele>790.1</ele>
        <time>2020-04-05T16:50:38Z</time>
      </trkpt>
      <trkpt lat="42.2588160" lon="-4.3621650">
        <ele>789.8</ele>
        <time>2020-04-05T16:50:40Z</time>
      </trkpt>
      <trkpt lat="42.2587980" lon="-4.3623190">
        <ele>789.4</ele>
        <time>2020-04-05T16:50:42Z</time>
      </trkpt>
      <trkpt lat="42.2587570" lon="-4.3626710">
        <ele>788.9</ele>
        <time>2020-04-05T16:50:44Z</time>
      </trkpt>
      <trkpt lat="42.2587360" lon="-4.3628270">
        <ele>788.9</ele>
        <time>2020-04-05T16:50:46Z</time>
      </trkpt>
      <trkpt lat="42.2587150" lon="-4.3629810">
        <ele>789.0</ele>
        <time>2020-04-05T16:50:48Z</time>
      </trkpt>
      <trkpt lat="42.2586720" lon="-4.3633000">
        <ele>789.5</ele>
        <time>2020-04-05T16:50:50Z</time>
      </trkpt>
      <trkpt lat="42.2586300" lon="-4.3634730">
        <ele>789.6</ele>
        <time>2020-04-05T16:50:52Z</time>
      </trkpt>
      <trkpt lat="42.2585870" lon="-4.3636200">
        <ele>789.6</ele>
        <time>2020-04-05T16:50:54Z</time>
      </trkpt>
      <trkpt lat="42.2585010" lon="-4.3638570">
        <ele>789.6</ele>
        <time>2020-04-05T16:50:56Z</time>
      </trkpt>
      <trkpt lat="42.2584130" lon="-4.3640470">
        <ele>789.6</ele>
        <time>2020-04-05T16:50:58Z</time>
      </trkpt>
      <trkpt lat="42.2583580" lon="-4.3642360">
        <ele>789.6</ele>
        <time>2020-04-05T16:51:00Z</time>
      </trkpt>
      <trkpt lat="42.2583260" lon="-4.3644310">
        <ele>789.6</ele>
        <time>2020-04-05T16:51:02Z</time>
      </trkpt>
      <trkpt lat="42.2583110" lon="-4.3646440">
        <ele>789.6</ele>
        <time>2020-04-05T16:51:04Z</time>
      </trkpt>
      <trkpt lat="42.2583060" lon="-4.3648760">
        <ele>789.5</ele>
        <time>2020-04-05T16:51:06Z</time>
      </trkpt>
      <trkpt lat="42.2583080" lon="-4.3650290">
        <ele>789.4</ele>
        <time>2020-04-05T16:51:08Z</time>
      </trkpt>
      <trkpt lat="42.2583100" lon="-4.3651840">
        <ele>789.3</ele>
        <time>2020-04-05T16:51:10Z</time>
      </trkpt>
      <trkpt lat="42.2583120" lon="-4.3653400">
        <ele>789.2</ele>
        <time>2020-04-05T16:51:12Z</time>
      </trkpt>
      <trkpt lat="42.2583170" lon="-4.3657160">
        <ele>788.8</ele>
        <time>2020-04-05T16:51:14Z</time>
      </trkpt>
      <trkpt lat="42.2583200" lon="-4.3659210">
        <ele>788.7</ele>
        <time>2020-04-05T16:51:16Z</time>
      </trkpt>
      <trkpt lat="42.2583170" lon="-4.3660780">
        <ele>788.7</ele>
        <time>2020-04-05T16:51:18Z</time>
      </trkpt>
      <trkpt lat="42.2583150" lon="-4.3663300">
        <ele>788.9</ele>
        <time>2020-04-05T16:51:20Z</time>
      </trkpt>
      <trkpt lat="42.2583160" lon="-4.3664880">
        <ele>789.0</ele>
        <time>2020-04-05T16:51:22Z</time>
      </trkpt>
      <trkpt lat="42.2583180" lon="-4.3666460">
        <ele>789.0</ele>
        <time>2020-04-05T16:51:24Z</time>
      </trkpt>
      <trkpt lat="42.2583210" lon="-4.3669610">
        <ele>789.0</ele>
        <time>2020-04-05T16:51:26Z</time>
      </trkpt>
      <trkpt lat="42.2583230" lon="-4.3671200">
        <ele>788.9</ele>
        <time>2020-04-05T16:51:28Z</time>
      </trkpt>
      <trkpt lat="42.2583260" lon="-4.3674070">
        <ele>788.6</ele>
        <time>2020-04-05T16:51:30Z</time>
      </trkpt>
      <trkpt lat="42.2583260" lon="-4.3675680">
        <ele>788.5</ele>
        <time>2020-04-05T16:51:32Z</time>
      </trkpt>
      <trkpt lat="42.2583260" lon="-4.3677260">
        <ele>788.5</ele>
        <time>2020-04-05T16:51:34Z</time>
      </trkpt>
      <trkpt lat="42.2583260" lon="-4.3680580">
        <ele>788.5</ele>
        <time>2020-04-05T16:51:36Z</time>
      </trkpt>
      <trkpt lat="42.2583260" lon="-4.3682230">
        <ele>788.5</ele>
        <time>2020-04-05T16:51:38Z</time>
      </trkpt>
      <trkpt lat="42.2583260" lon="-4.3683920">
        <ele>788.4</ele>
        <time>2020-04-05T16:51:40Z</time>
      </trkpt>
      <trkpt lat="42.2583260" lon="-4.3685660">
        <ele>788.3</ele>
        <time>2020-04-05T16:51:42Z</time>
      </trkpt>
      <trkpt lat="42.2583270" lon="-4.3687450">
        <ele>788.3</ele>
        <time>2020-04-05T16:51:44Z</time>
      </trkpt>
      <trkpt lat="42.2583280" lon="-4.3692500">
        <ele>788.3</ele>
        <time>2020-04-05T16:51:46Z</time>
      </trkpt>
      <trkpt lat="42.2583280" lon="-4.3694300">
        <ele>788.1</ele>
        <time>2020-04-05T16:51:48Z</time>
      </trkpt>
      <trkpt lat="42.2583290" lon="-4.3696070">
        <ele>787.9</ele>
        <time>2020-04-05T16:51:50Z</time>
      </trkpt>
      <trkpt lat="42.2583290" lon="-4.3697810">
        <ele>787.8</ele>
        <time>2020-04-05T16:51:52Z</time>
      </trkpt>
      <trkpt lat="42.2583290" lon="-4.3699490">
        <ele>787.7</ele>
        <time>2020-04-05T16:51:54Z</time>
      </trkpt>
      <trkpt lat="42.2583300" lon="-4.3703910">
        <ele>787.8</ele>
        <time>2020-04-05T16:51:56Z</time>
      </trkpt>
      <trkpt lat="42.2583300" lon="-4.3705550">
        <ele>787.9</ele>
        <time>2020-04-05T16:51:58Z</time>
      </trkpt>
      <trkpt lat="42.2583310" lon="-4.3707160">
        <ele>787.7</ele>
        <time>2020-04-05T16:52:00Z</time>
      </trkpt>
      <trkpt lat="42.2583310" lon="-4.3708750">
        <ele>787.6</ele>
        <time>2020-04-05T16:52:02Z</time>
      </trkpt>
      <trkpt lat="42.2583310" lon="-4.3710320">
        <ele>787.4</ele>
        <time>2020-04-05T16:52:04Z</time>
      </trkpt>
      <trkpt lat="42.2583320" lon="-4.3714850">
        <ele>787.4</ele>
        <time>2020-04-05T16:52:06Z</time>
      </trkpt>
      <trkpt lat="42.2583320" lon="-4.3716390">
        <ele>787.4</ele>
        <time>2020-04-05T16:52:08Z</time>
      </trkpt>
      <trkpt lat="42.2583330" lon="-4.3717920">
        <ele>787.4</ele>
        <time>2020-04-05T16:52:10Z</time>
      </trkpt>
      <trkpt lat="42.2583330" lon="-4.3719450">
        <ele>787.4</ele>
        <time>2020-04-05T16:52:12Z</time>
      </trkpt>
      <trkpt lat="42.2583330" lon="-4.3720980">
        <ele>787.4</ele>
        <time>2020-04-05T16:52:14Z</time>
      </trkpt>
      <trkpt lat="42.2583330" lon="-4.3722500">
        <ele>787.3</ele>
        <time>2020-04-05T16:52:16Z</time>
      </trkpt>
      <trkpt lat="42.2583350" lon="-4.3726990">
        <ele>787.3</ele>
        <time>2020-04-05T16:52:18Z</time>
      </trkpt>
      <trkpt lat="42.2583360" lon="-4.3728910">
        <ele>787.3</ele>
        <time>2020-04-05T16:52:20Z</time>
      </trkpt>
      <trkpt lat="42.2583360" lon="-4.3730420">
        <ele>787.3</ele>
        <time>2020-04-05T16:52:22Z</time>
      </trkpt>
      <trkpt lat="42.2583350" lon="-4.3731930">
        <ele>787.3</ele>
        <time>2020-04-05T16:52:24Z</time>
      </trkpt>
      <trkpt lat="42.2583350" lon="-4.3735140">
        <ele>787.3</ele>
        <time>2020-04-05T16:52:26Z</time>
      </trkpt>
      <trkpt lat="42.2583350" lon="-4.3736590">
        <ele>787.3</ele>
        <time>2020-04-05T16:52:28Z</time>
      </trkpt>
      <trkpt lat="42.2583350" lon="-4.3737980">
        <ele>787.3</ele>
        <time>2020-04-05T16:52:30Z</time>
      </trkpt>
      <trkpt lat="42.2583350" lon="-4.3739320">
        <ele>787.3</ele>
        <time>2020-04-05T16:52:32Z</time>
      </trkpt>
      <trkpt lat="42.2583330" lon="-4.3742770">
        <ele>787.5</ele>
        <time>2020-04-05T16:52:34Z</time>
      </trkpt>
      <trkpt lat="42.2583270" lon="-4.3744050">
        <ele>787.8</ele>
        <time>2020-04-05T16:52:36Z</time>
      </trkpt>
      <trkpt lat="42.2583220" lon="-4.3745300">
        <ele>788.2</ele>
        <time>2020-04-05T16:52:38Z</time>
      </trkpt>
      <trkpt lat="42.2583160" lon="-4.3746510">
        <ele>788.5</ele>
        <time>2020-04-05T16:52:40Z</time>
      </trkpt>
      <trkpt lat="42.2583110" lon="-4.3747710">
        <ele>788.9</ele>
        <time>2020-04-05T16:52:42Z</time>
      </trkpt>
      <trkpt lat="42.2582970" lon="-4.3750890">
        <ele>789.7</ele>
        <time>2020-04-05T16:52:44Z</time>
      </trkpt>
      <trkpt lat="42.2582920" lon="-4.3752040">
        <ele>790.1</ele>
        <time>2020-04-05T16:52:46Z</time>
      </trkpt>
      <trkpt lat="42.2582840" lon="-4.3753980">
        <ele>790.8</ele>
        <time>2020-04-05T16:52:48Z</time>
      </trkpt>
      <trkpt lat="42.2582790" lon="-4.3755120">
        <ele>791.1</ele>
        <time>2020-04-05T16:52:50Z</time>
      </trkpt>
      <trkpt lat="42.2582750" lon="-4.3756240">
        <ele>791.4</ele>
        <time>2020-04-05T16:52:52Z</time>
      </trkpt>
      <trkpt lat="42.2582700" lon="-4.3758560">
        <ele>791.9</ele>
        <time>2020-04-05T16:52:54Z</time>
      </trkpt>
      <trkpt lat="42.2582720" lon="-4.3759680">
        <ele>792.2</ele>
        <time>2020-04-05T16:52:56Z</time>
      </trkpt>
      <trkpt lat="42.2582760" lon="-4.3761630">
        <ele>792.7</ele>
        <time>2020-04-05T16:52:58Z</time>
      </trkpt>
      <trkpt lat="42.2582820" lon="-4.3762740">
        <ele>792.9</ele>
        <time>2020-04-05T16:53:00Z</time>
      </trkpt>
      <trkpt lat="42.2582870" lon="-4.3763830">
        <ele>793.0</ele>
        <time>2020-04-05T16:53:02Z</time>
      </trkpt>
      <trkpt lat="42.2582960" lon="-4.3766120">
        <ele>793.2</ele>
        <time>2020-04-05T16:53:04Z</time>
      </trkpt>
      <trkpt lat="42.2583000" lon="-4.3767260">
        <ele>793.2</ele>
        <time>2020-04-05T16:53:06Z</time>
      </trkpt>
      <trkpt lat="42.2583040" lon="-4.3768470">
        <ele>793.2</ele>
        <time>2020-04-05T16:53:08Z</time>
      </trkpt>
      <trkpt lat="42.2583080" lon="-4.3769700">
        <ele>793.2</ele>
        <time>2020-04-05T16:53:10Z</time>
      </trkpt>
      <trkpt lat="42.2583120" lon="-4.3770960">
        <ele>793.2</ele>
        <time>2020-04-05T16:53:12Z</time>
      </trkpt>
      <trkpt lat="42.2583200" lon="-4.3774310">
        <ele>792.8</ele>
        <time>2020-04-05T16:53:14Z</time>
      </trkpt>
      <trkpt lat="42.2583200" lon="-4.3775620">
        <ele>792.6</ele>
        <time>2020-04-05T16:53:16Z</time>
      </trkpt>
      <trkpt lat="42.2583210" lon="-4.3776960">
        <ele>792.4</ele>
        <time>2020-04-05T16:53:18Z</time>
      </trkpt>
      <trkpt lat="42.2583210" lon="-4.3778300">
        <ele>792.3</ele>
        <time>2020-04-05T16:53:20Z</time>
      </trkpt>
      <trkpt lat="42.2583210" lon="-4.3779660">
        <ele>792.2</ele>
        <time>2020-04-05T16:53:22Z</time>
      </trkpt>
      <trkpt lat="42.2583210" lon="-4.3781040">
        <ele>792.2</ele>
        <time>2020-04-05T16:53:24Z</time>
      </trkpt>
      <trkpt lat="42.2583220" lon="-4.3785150">
        <ele>792.2</ele>
        <time>2020-04-05T16:53:26Z</time>
      </trkpt>
      <trkpt lat="42.2583220" lon="-4.3786590">
        <ele>792.2</ele>
        <time>2020-04-05T16:53:28Z</time>
      </trkpt>
      <trkpt lat="42.2583230" lon="-4.3788060">
        <ele>792.2</ele>
        <time>2020-04-05T16:53:30Z</time>
      </trkpt>
      <trkpt lat="42.2583230" lon="-4.3789570">
        <ele>792.2</ele>
        <time>2020-04-05T16:53:32Z</time>
      </trkpt>
      <trkpt lat="42.2583230" lon="-4.3791110">
        <ele>792.2</ele>
        <time>2020-04-05T16:53:34Z</time>
      </trkpt>
      <trkpt lat="42.2583220" lon="-4.3795400">
        <ele>792.2</ele>
        <time>2020-04-05T16:53:36Z</time>
      </trkpt>
      <trkpt lat="42.2583220" lon="-4.3797000">
        <ele>792.0</ele>
        <time>2020-04-05T16:53:38Z</time>
      </trkpt>
      <trkpt lat="42.2583200" lon="-4.3799960">
        <ele>791.4</ele>
        <time>2020-04-05T16:53:40Z</time>
      </trkpt>
      <trkpt lat="42.2583210" lon="-4.3802130">
        <ele>791.2</ele>
        <time>2020-04-05T16:53:42Z</time>
      </trkpt>
      <trkpt lat="42.2583330" lon="-4.3804180">
        <ele>791.2</ele>
        <time>2020-04-05T16:53:44Z</time>
      </trkpt>
      <trkpt lat="42.2583610" lon="-4.3806200">
        <ele>791.2</ele>
        <time>2020-04-05T16:53:46Z</time>
      </trkpt>
      <trkpt lat="42.2584000" lon="-4.3808130">
        <ele>791.2</ele>
        <time>2020-04-05T16:53:48Z</time>
      </trkpt>
      <trkpt lat="42.2584490" lon="-4.3810140">
        <ele>791.2</ele>
        <time>2020-04-05T16:53:50Z</time>
      </trkpt>
      <trkpt lat="42.2584840" lon="-4.3811520">
        <ele>791.2</ele>
        <time>2020-04-05T16:53:52Z</time>
      </trkpt>
      <trkpt lat="42.2585450" lon="-4.3813920">
        <ele>791.2</ele>
        <time>2020-04-05T16:53:54Z</time>
      </trkpt>
      <trkpt lat="42.2585780" lon="-4.3815210">
        <ele>791.2</ele>
        <time>2020-04-05T16:53:56Z</time>
      </trkpt>
      <trkpt lat="42.2586110" lon="-4.3816480">
        <ele>791.2</ele>
        <time>2020-04-05T16:53:58Z</time>
      </trkpt>
      <trkpt lat="42.2586780" lon="-4.3819080">
        <ele>791.2</ele>
        <time>2020-04-05T16:54:00Z</time>
      </trkpt>
      <trkpt lat="42.2587110" lon="-4.3820380">
        <ele>791.2</ele>
        <time>2020-04-05T16:54:02Z</time>
      </trkpt>
      <trkpt lat="42.2587460" lon="-4.3821730">
        <ele>791.2</ele>
        <time>2020-04-05T16:54:04Z</time>
      </trkpt>
      <trkpt lat="42.2587820" lon="-4.3823130">
        <ele>791.2</ele>
        <time>2020-04-05T16:54:06Z</time>
      </trkpt>
      <trkpt lat="42.2588190" lon="-4.3824580">
        <ele>791.2</ele>
        <time>2020-04-05T16:54:08Z</time>
      </trkpt>
      <trkpt lat="42.2588570" lon="-4.3826050">
        <ele>791.1</ele>
        <time>2020-04-05T16:54:10Z</time>
      </trkpt>
      <trkpt lat="42.2589710" lon="-4.3830510">
        <ele>791.1</ele>
        <time>2020-04-05T16:54:12Z</time>
      </trkpt>
      <trkpt lat="42.2590110" lon="-4.3832040">
        <ele>791.1</ele>
        <time>2020-04-05T16:54:14Z</time>
      </trkpt>
      <trkpt lat="42.2590500" lon="-4.3833580">
        <ele>791.1</ele>
        <time>2020-04-05T16:54:16Z</time>
      </trkpt>
      <trkpt lat="42.2590910" lon="-4.3835160">
        <ele>791.1</ele>
        <time>2020-04-05T16:54:18Z</time>
      </trkpt>
      <trkpt lat="42.2591930" lon="-4.3839140">
        <ele>791.1</ele>
        <time>2020-04-05T16:54:20Z</time>
      </trkpt>
      <trkpt lat="42.2592490" lon="-4.3841330">
        <ele>791.1</ele>
        <time>2020-04-05T16:54:22Z</time>
      </trkpt>
      <trkpt lat="42.2592900" lon="-4.3842910">
        <ele>791.1</ele>
        <time>2020-04-05T16:54:24Z</time>
      </trkpt>
      <trkpt lat="42.2593290" lon="-4.3844450">
        <ele>791.1</ele>
        <time>2020-04-05T16:54:26Z</time>
      </trkpt>
      <trkpt lat="42.2593670" lon="-4.3845950">
        <ele>791.1</ele>
        <time>2020-04-05T16:54:28Z</time>
      </trkpt>
      <trkpt lat="42.2594040" lon="-4.3847410">
        <ele>791.1</ele>
        <time>2020-04-05T16:54:30Z</time>
      </trkpt>
      <trkpt lat="42.2594410" lon="-4.3848850">
        <ele>791.1</ele>
        <time>2020-04-05T16:54:32Z</time>
      </trkpt>
      <trkpt lat="42.2595550" lon="-4.3853190">
        <ele>791.1</ele>
        <time>2020-04-05T16:54:34Z</time>
      </trkpt>
      <trkpt lat="42.2596160" lon="-4.3855060">
        <ele>791.1</ele>
        <time>2020-04-05T16:54:36Z</time>
      </trkpt>
      <trkpt lat="42.2596880" lon="-4.3856700">
        <ele>791.1</ele>
        <time>2020-04-05T16:54:38Z</time>
      </trkpt>
      <trkpt lat="42.2597740" lon="-4.3858130">
        <ele>791.1</ele>
        <time>2020-04-05T16:54:40Z</time>
      </trkpt>
      <trkpt lat="42.2598740" lon="-4.3859420">
        <ele>791.0</ele>
        <time>2020-04-05T16:54:42Z</time>
      </trkpt>
      <trkpt lat="42.2599980" lon="-4.3860670">
        <ele>791.0</ele>
        <time>2020-04-05T16:54:44Z</time>
      </trkpt>
      <trkpt lat="42.2600840" lon="-4.3861440">
        <ele>791.0</ele>
        <time>2020-04-05T16:54:46Z</time>
      </trkpt>
      <trkpt lat="42.2601710" lon="-4.3862230">
        <ele>791.0</ele>
        <time>2020-04-05T16:54:48Z</time>
      </trkpt>
      <trkpt lat="42.2603560" lon="-4.3863900">
        <ele>791.0</ele>
        <time>2020-04-05T16:54:50Z</time>
      </trkpt>
      <trkpt lat="42.2604450" lon="-4.3864660">
        <ele>791.0</ele>
        <time>2020-04-05T16:54:52Z</time>
      </trkpt>
      <trkpt lat="42.2605330" lon="-4.3865430">
        <ele>791.0</ele>
        <time>2020-04-05T16:54:54Z</time>
      </trkpt>
      <trkpt lat="42.2607100" lon="-4.3866950">
        <ele>791.0</ele>
        <time>2020-04-05T16:54:56Z</time>
      </trkpt>
      <trkpt lat="42.2607990" lon="-4.3867730">
        <ele>791.0</ele>
        <time>2020-04-05T16:54:58Z</time>
      </trkpt>
      <trkpt lat="42.2608900" lon="-4.3868510">
        <ele>791.0</ele>
        <time>2020-04-05T16:55:00Z</time>
      </trkpt>
      <trkpt lat="42.2609810" lon="-4.3869300">
        <ele>791.0</ele>
        <time>2020-04-05T16:55:02Z</time>
      </trkpt>
      <trkpt lat="42.2610740" lon="-4.3870100">
        <ele>791.0</ele>
        <time>2020-04-05T16:55:04Z</time>
      </trkpt>
      <trkpt lat="42.2611680" lon="-4.3870910">
        <ele>791.0</ele>
        <time>2020-04-05T16:55:06Z</time>
      </trkpt>
      <trkpt lat="42.2614500" lon="-4.3873350">
        <ele>790.8</ele>
        <time>2020-04-05T16:55:08Z</time>
      </trkpt>
      <trkpt lat="42.2615450" lon="-4.3874170">
        <ele>790.6</ele>
        <time>2020-04-05T16:55:10Z</time>
      </trkpt>
      <trkpt lat="42.2616400" lon="-4.3874990">
        <ele>790.4</ele>
        <time>2020-04-05T16:55:12Z</time>
      </trkpt>
      <trkpt lat="42.2617350" lon="-4.3875810">
        <ele>790.4</ele>
        <time>2020-04-05T16:55:14Z</time>
      </trkpt>
      <trkpt lat="42.2618310" lon="-4.3876650">
        <ele>790.4</ele>
        <time>2020-04-05T16:55:16Z</time>
      </trkpt>
      <trkpt lat="42.2619280" lon="-4.3877480">
        <ele>790.3</ele>
        <time>2020-04-05T16:55:18Z</time>
      </trkpt>
      <trkpt lat="42.2622130" lon="-4.3879940">
        <ele>790.3</ele>
        <time>2020-04-05T16:55:20Z</time>
      </trkpt>
      <trkpt lat="42.2623090" lon="-4.3880780">
        <ele>790.3</ele>
        <time>2020-04-05T16:55:22Z</time>
      </trkpt>
      <trkpt lat="42.2624070" lon="-4.3881620">
        <ele>790.2</ele>
        <time>2020-04-05T16:55:24Z</time>
      </trkpt>
      <trkpt lat="42.2625030" lon="-4.3882450">
        <ele>790.1</ele>
        <time>2020-04-05T16:55:26Z</time>
      </trkpt>
      <trkpt lat="42.2626000" lon="-4.3883290">
        <ele>790.0</ele>
        <time>2020-04-05T16:55:28Z</time>
      </trkpt>
      <trkpt lat="42.2628810" lon="-4.3885850">
        <ele>789.9</ele>
        <time>2020-04-05T16:55:30Z</time>
      </trkpt>
      <trkpt lat="42.2629890" lon="-4.3887450">
        <ele>789.9</ele>
        <time>2020-04-05T16:55:32Z</time>
      </trkpt>
      <trkpt lat="42.2630670" lon="-4.3889260">
        <ele>789.9</ele>
        <time>2020-04-05T16:55:34Z</time>
      </trkpt>
      <trkpt lat="42.2631230" lon="-4.3891100">
        <ele>789.9</ele>
        <time>2020-04-05T16:55:36Z</time>
      </trkpt>
      <trkpt lat="42.2631750" lon="-4.3893260">
        <ele>789.9</ele>
        <time>2020-04-05T16:55:38Z</time>
      </trkpt>
      <trkpt lat="42.2632020" lon="-4.3894820">
        <ele>789.9</ele>
        <time>2020-04-05T16:55:40Z</time>
      </trkpt>
      <trkpt lat="42.2632430" lon="-4.3897160">
        <ele>789.9</ele>
        <time>2020-04-05T16:55:42Z</time>
      </trkpt>
      <trkpt lat="42.2632720" lon="-4.3898800">
        <ele>789.9</ele>
        <time>2020-04-05T16:55:44Z</time>
      </trkpt>
      <trkpt lat="42.2633010" lon="-4.3900450">
        <ele>789.9</ele>
        <time>2020-04-05T16:55:46Z</time>
      </trkpt>
      <trkpt lat="42.2633300" lon="-4.3902140">
        <ele>789.9</ele>
        <time>2020-04-05T16:55:48Z</time>
      </trkpt>
      <trkpt lat="42.2634000" lon="-4.3906130">
        <ele>789.9</ele>
        <time>2020-04-05T16:55:50Z</time>
      </trkpt>
      <trkpt lat="42.2634290" lon="-4.3907780">
        <ele>789.9</ele>
        <time>2020-04-05T16:55:52Z</time>
      </trkpt>
      <trkpt lat="42.2634570" lon="-4.3909400">
        <ele>789.9</ele>
        <time>2020-04-05T16:55:54Z</time>
      </trkpt>
      <trkpt lat="42.2634850" lon="-4.3910980">
        <ele>789.9</ele>
        <time>2020-04-05T16:55:56Z</time>
      </trkpt>
      <trkpt lat="42.2635130" lon="-4.3912550">
        <ele>789.9</ele>
        <time>2020-04-05T16:55:58Z</time>
      </trkpt>
      <trkpt lat="42.2635930" lon="-4.3917140">
        <ele>789.6</ele>
        <time>2020-04-05T16:56:00Z</time>
      </trkpt>
      <trkpt lat="42.2636270" lon="-4.3918990">
        <ele>789.4</ele>
        <time>2020-04-05T16:56:02Z</time>
      </trkpt>
      <trkpt lat="42.2636550" lon="-4.3920490">
        <ele>789.6</ele>
        <time>2020-04-05T16:56:04Z</time>
      </trkpt>
      <trkpt lat="42.2636820" lon="-4.3921960">
        <ele>789.8</ele>
        <time>2020-04-05T16:56:06Z</time>
      </trkpt>
      <trkpt lat="42.2637100" lon="-4.3923430">
        <ele>790.0</ele>
        <time>2020-04-05T16:56:08Z</time>
      </trkpt>
      <trkpt lat="42.2637370" lon="-4.3924890">
        <ele>790.2</ele>
        <time>2020-04-05T16:56:10Z</time>
      </trkpt>
      <trkpt lat="42.2638140" lon="-4.3929050">
        <ele>790.8</ele>
        <time>2020-04-05T16:56:12Z</time>
      </trkpt>
      <trkpt lat="42.2638480" lon="-4.3930970">
        <ele>790.7</ele>
        <time>2020-04-05T16:56:14Z</time>
      </trkpt>
      <trkpt lat="42.2638730" lon="-4.3932450">
        <ele>790.4</ele>
        <time>2020-04-05T16:56:16Z</time>
      </trkpt>
      <trkpt lat="42.2638980" lon="-4.3933920">
        <ele>790.4</ele>
        <time>2020-04-05T16:56:18Z</time>
      </trkpt>
      <trkpt lat="42.2639220" lon="-4.3935400">
        <ele>790.6</ele>
        <time>2020-04-05T16:56:20Z</time>
      </trkpt>
      <trkpt lat="42.2639470" lon="-4.3936890">
        <ele>790.8</ele>
        <time>2020-04-05T16:56:22Z</time>
      </trkpt>
      <trkpt lat="42.2640170" lon="-4.3940990">
        <ele>791.0</ele>
        <time>2020-04-05T16:56:24Z</time>
      </trkpt>
      <trkpt lat="42.2640430" lon="-4.3942490">
        <ele>790.9</ele>
        <time>2020-04-05T16:56:26Z</time>
      </trkpt>
      <trkpt lat="42.2640700" lon="-4.3944000">
        <ele>790.6</ele>
        <time>2020-04-05T16:56:28Z</time>
      </trkpt>
      <trkpt lat="42.2640970" lon="-4.3945530">
        <ele>790.3</ele>
        <time>2020-04-05T16:56:30Z</time>
      </trkpt>
      <trkpt lat="42.2641240" lon="-4.3947050">
        <ele>790.2</ele>
        <time>2020-04-05T16:56:32Z</time>
      </trkpt>
      <trkpt lat="42.2642050" lon="-4.3951600">
        <ele>790.1</ele>
        <time>2020-04-05T16:56:34Z</time>
      </trkpt>
      <trkpt lat="42.2642340" lon="-4.3953190">
        <ele>790.1</ele>
        <time>2020-04-05T16:56:36Z</time>
      </trkpt>
      <trkpt lat="42.2642630" lon="-4.3954740">
        <ele>790.1</ele>
        <time>2020-04-05T16:56:38Z</time>
      </trkpt>
      <trkpt lat="42.2642930" lon="-4.3956320">
        <ele>790.1</ele>
        <time>2020-04-05T16:56:40Z</time>
      </trkpt>
      <trkpt lat="42.2643220" lon="-4.3957890">
        <ele>790.0</ele>
        <time>2020-04-05T16:56:42Z</time>
      </trkpt>
      <trkpt lat="42.2643960" lon="-4.3961820">
        <ele>790.3</ele>
        <time>2020-04-05T16:56:44Z</time>
      </trkpt>
      <trkpt lat="42.2644260" lon="-4.3963410">
        <ele>790.4</ele>
        <time>2020-04-05T16:56:46Z</time>
      </trkpt>
      <trkpt lat="42.2644560" lon="-4.3964980">
        <ele>790.3</ele>
        <time>2020-04-05T16:56:48Z</time>
      </trkpt>
      <trkpt lat="42.2644860" lon="-4.3966580">
        <ele>790.3</ele>
        <time>2020-04-05T16:56:50Z</time>
      </trkpt>
      <trkpt lat="42.2645560" lon="-4.3970530">
        <ele>790.2</ele>
        <time>2020-04-05T16:56:52Z</time>
      </trkpt>
      <trkpt lat="42.2645780" lon="-4.3972150">
        <ele>790.3</ele>
        <time>2020-04-05T16:56:54Z</time>
      </trkpt>
      <trkpt lat="42.2645950" lon="-4.3975170">
        <ele>790.3</ele>
        <time>2020-04-05T16:56:56Z</time>
      </trkpt>
      <trkpt lat="42.2645790" lon="-4.3977130">
        <ele>790.3</ele>
        <time>2020-04-05T16:56:58Z</time>
      </trkpt>
      <trkpt lat="42.2645180" lon="-4.3979360">
        <ele>790.3</ele>
        <time>2020-04-05T16:57:00Z</time>
      </trkpt>
      <trkpt lat="42.2644190" lon="-4.3981170">
        <ele>790.2</ele>
        <time>2020-04-05T16:57:02Z</time>
      </trkpt>
      <trkpt lat="42.2643240" lon="-4.3982400">
        <ele>790.0</ele>
        <time>2020-04-05T16:57:04Z</time>
      </trkpt>
      <trkpt lat="42.2641490" lon="-4.3984660">
        <ele>789.4</ele>
        <time>2020-04-05T16:57:06Z</time>
      </trkpt>
      <trkpt lat="42.2640430" lon="-4.3985920">
        <ele>789.4</ele>
        <time>2020-04-05T16:57:08Z</time>
      </trkpt>
      <trkpt lat="42.2638580" lon="-4.3988150">
        <ele>788.8</ele>
        <time>2020-04-05T16:57:10Z</time>
      </trkpt>
      <trkpt lat="42.2637410" lon="-4.3990310">
        <ele>787.3</ele>
        <time>2020-04-05T16:57:12Z</time>
      </trkpt>
      <trkpt lat="42.2636050" lon="-4.3991710">
        <ele>786.7</ele>
        <time>2020-04-05T16:57:14Z</time>
      </trkpt>
      <trkpt lat="42.2634700" lon="-4.3993170">
        <ele>786.1</ele>
        <time>2020-04-05T16:57:16Z</time>
      </trkpt>
      <trkpt lat="42.2631910" lon="-4.3996160">
        <ele>783.8</ele>
        <time>2020-04-05T16:57:18Z</time>
      </trkpt>
      <trkpt lat="42.2630380" lon="-4.3997700">
        <ele>781.7</ele>
        <time>2020-04-05T16:57:20Z</time>
      </trkpt>
      <trkpt lat="42.2632210" lon="-4.3999700">
        <ele>781.5</ele>
        <time>2020-04-05T16:57:22Z</time>
      </trkpt>
      <trkpt lat="42.2634200" lon="-4.4000280">
        <ele>781.8</ele>
        <time>2020-04-05T16:57:24Z</time>
      </trkpt>
      <trkpt lat="42.2635880" lon="-4.4000050">
        <ele>782.3</ele>
        <time>2020-04-05T16:57:26Z</time>
      </trkpt>
      <trkpt lat="42.2637630" lon="-4.3999600">
        <ele>783.2</ele>
        <time>2020-04-05T16:57:28Z</time>
      </trkpt>
      <trkpt lat="42.2639540" lon="-4.3999060">
        <ele>784.1</ele>
        <time>2020-04-05T16:57:30Z</time>
      </trkpt>
      <trkpt lat="42.2640660" lon="-4.3998750">
        <ele>784.7</ele>
        <time>2020-04-05T16:57:32Z</time>
      </trkpt>
      <trkpt lat="42.2641710" lon="-4.3998470">
        <ele>785.2</ele>
        <time>2020-04-05T16:57:34Z</time>
      </trkpt>
      <trkpt lat="42.2643660" lon="-4.3998030">
        <ele>786.3</ele>
        <time>2020-04-05T16:57:36Z</time>
      </trkpt>
      <trkpt lat="42.2644970" lon="-4.3998010">
        <ele>787.2</ele>
        <time>2020-04-05T16:57:38Z</time>
      </trkpt>
      <trkpt lat="42.2646330" lon="-4.3998470">
        <ele>788.1</ele>
        <time>2020-04-05T16:57:40Z</time>
      </trkpt>
      <trkpt lat="42.2647500" lon="-4.3999340">
        <ele>788.9</ele>
        <time>2020-04-05T16:57:42Z</time>
      </trkpt>
      <trkpt lat="42.2648510" lon="-4.4000390">
        <ele>788.8</ele>
        <time>2020-04-05T16:57:44Z</time>
      </trkpt>
      <trkpt lat="42.2649250" lon="-4.4001310">
        <ele>788.1</ele>
        <time>2020-04-05T16:57:46Z</time>
      </trkpt>
      <trkpt lat="42.2649990" lon="-4.4002230">
        <ele>787.3</ele>
        <time>2020-04-05T16:57:48Z</time>
      </trkpt>
      <trkpt lat="42.2650740" lon="-4.4003160">
        <ele>786.7</ele>
        <time>2020-04-05T16:57:50Z</time>
      </trkpt>
      <trkpt lat="42.2652640" lon="-4.4005470">
        <ele>785.6</ele>
        <time>2020-04-05T16:57:52Z</time>
      </trkpt>
      <trkpt lat="42.2653860" lon="-4.4006630">
        <ele>785.5</ele>
        <time>2020-04-05T16:57:54Z</time>
      </trkpt>
      <trkpt lat="42.2654840" lon="-4.4007400">
        <ele>785.5</ele>
        <time>2020-04-05T16:57:56Z</time>
      </trkpt>
      <trkpt lat="42.2656550" lon="-4.4008750">
        <ele>785.4</ele>
        <time>2020-04-05T16:57:58Z</time>
      </trkpt>
      <trkpt lat="42.2657630" lon="-4.4009560">
        <ele>785.2</ele>
        <time>2020-04-05T16:58:00Z</time>
      </trkpt>
      <trkpt lat="42.2659550" lon="-4.4011030">
        <ele>784.9</ele>
        <time>2020-04-05T16:58:02Z</time>
      </trkpt>
      <trkpt lat="42.2660830" lon="-4.4012520">
        <ele>784.6</ele>
        <time>2020-04-05T16:58:04Z</time>
      </trkpt>
      <trkpt lat="42.2661880" lon="-4.4014560">
        <ele>784.0</ele>
        <time>2020-04-05T16:58:06Z</time>
      </trkpt>
      <trkpt lat="42.2662610" lon="-4.4016940">
        <ele>783.4</ele>
        <time>2020-04-05T16:58:08Z</time>
      </trkpt>
      <trkpt lat="42.2663100" lon="-4.4019380">
        <ele>782.4</ele>
        <time>2020-04-05T16:58:10Z</time>
      </trkpt>
      <trkpt lat="42.2663250" lon="-4.4021990">
        <ele>781.6</ele>
        <time>2020-04-05T16:58:12Z</time>
      </trkpt>
      <trkpt lat="42.2663080" lon="-4.4024740">
        <ele>780.9</ele>
        <time>2020-04-05T16:58:14Z</time>
      </trkpt>
      <trkpt lat="42.2662910" lon="-4.4026750">
        <ele>780.9</ele>
        <time>2020-04-05T16:58:16Z</time>
      </trkpt>
      <trkpt lat="42.2662740" lon="-4.4028790">
        <ele>781.0</ele>
        <time>2020-04-05T16:58:18Z</time>
      </trkpt>
      <trkpt lat="42.2662410" lon="-4.4032860">
        <ele>780.4</ele>
        <time>2020-04-05T16:58:20Z</time>
      </trkpt>
      <trkpt lat="42.2662170" lon="-4.4035380">
        <ele>780.2</ele>
        <time>2020-04-05T16:58:22Z</time>
      </trkpt>
      <trkpt lat="42.2661970" lon="-4.4037480">
        <ele>779.8</ele>
        <time>2020-04-05T16:58:24Z</time>
      </trkpt>
      <trkpt lat="42.2661630" lon="-4.4041200">
        <ele>779.3</ele>
        <time>2020-04-05T16:58:26Z</time>
      </trkpt>
      <trkpt lat="42.2661420" lon="-4.4044170">
        <ele>779.3</ele>
        <time>2020-04-05T16:58:28Z</time>
      </trkpt>
      <trkpt lat="42.2661270" lon="-4.4046250">
        <ele>779.3</ele>
        <time>2020-04-05T16:58:30Z</time>
      </trkpt>
      <trkpt lat="42.2661130" lon="-4.4048260">
        <ele>779.3</ele>
        <time>2020-04-05T16:58:32Z</time>
      </trkpt>
      <trkpt lat="42.2660990" lon="-4.4050210">
        <ele>779.3</ele>
        <time>2020-04-05T16:58:34Z</time>
      </trkpt>
      <trkpt lat="42.2660700" lon="-4.4054850">
        <ele>779.7</ele>
        <time>2020-04-05T16:58:36Z</time>
      </trkpt>
      <trkpt lat="42.2660590" lon="-4.4056700">
        <ele>779.7</ele>
        <time>2020-04-05T16:58:38Z</time>
      </trkpt>
      <trkpt lat="42.2660390" lon="-4.4060100">
        <ele>780.3</ele>
        <time>2020-04-05T16:58:40Z</time>
      </trkpt>
      <trkpt lat="42.2660370" lon="-4.4062500">
        <ele>780.6</ele>
        <time>2020-04-05T16:58:42Z</time>
      </trkpt>
      <trkpt lat="42.2659790" lon="-4.4064720">
        <ele>780.6</ele>
        <time>2020-04-05T16:58:44Z</time>
      </trkpt>
      <trkpt lat="42.2659000" lon="-4.4066930">
        <ele>780.4</ele>
        <time>2020-04-05T16:58:46Z</time>
      </trkpt>
      <trkpt lat="42.2657670" lon="-4.4068620">
        <ele>780.2</ele>
        <time>2020-04-05T16:58:48Z</time>
      </trkpt>
      <trkpt lat="42.2656440" lon="-4.4070310">
        <ele>780.1</ele>
        <time>2020-04-05T16:58:50Z</time>
      </trkpt>
      <trkpt lat="42.2655350" lon="-4.4072150">
        <ele>780.1</ele>
        <time>2020-04-05T16:58:52Z</time>
      </trkpt>
      <trkpt lat="42.2654230" lon="-4.4074270">
        <ele>780.1</ele>
        <time>2020-04-05T16:58:54Z</time>
      </trkpt>
      <trkpt lat="42.2653580" lon="-4.4076340">
        <ele>780.1</ele>
        <time>2020-04-05T16:58:56Z</time>
      </trkpt>
      <trkpt lat="42.2653180" lon="-4.4078410">
        <ele>779.9</ele>
        <time>2020-04-05T16:58:58Z</time>
      </trkpt>
      <trkpt lat="42.2652950" lon="-4.4080740">
        <ele>779.6</ele>
        <time>2020-04-05T16:59:00Z</time>
      </trkpt>
      <trkpt lat="42.2652850" lon="-4.4082420">
        <ele>779.5</ele>
        <time>2020-04-05T16:59:02Z</time>
      </trkpt>
      <trkpt lat="42.2652690" lon="-4.4085240">
        <ele>779.4</ele>
        <time>2020-04-05T16:59:04Z</time>
      </trkpt>
      <trkpt lat="42.2652640" lon="-4.4086860">
        <ele>779.4</ele>
        <time>2020-04-05T16:59:06Z</time>
      </trkpt>
      <trkpt lat="42.2652580" lon="-4.4088460">
        <ele>779.4</ele>
        <time>2020-04-05T16:59:08Z</time>
      </trkpt>
      <trkpt lat="42.2652450" lon="-4.4091680">
        <ele>779.5</ele>
        <time>2020-04-05T16:59:10Z</time>
      </trkpt>
      <trkpt lat="42.2652350" lon="-4.4094150">
        <ele>779.7</ele>
        <time>2020-04-05T16:59:12Z</time>
      </trkpt>
      <trkpt lat="42.2652280" lon="-4.4095670">
        <ele>780.0</ele>
        <time>2020-04-05T16:59:14Z</time>
      </trkpt>
      <trkpt lat="42.2652220" lon="-4.4097200">
        <ele>780.2</ele>
        <time>2020-04-05T16:59:16Z</time>
      </trkpt>
      <trkpt lat="42.2652100" lon="-4.4100320">
        <ele>780.3</ele>
        <time>2020-04-05T16:59:18Z</time>
      </trkpt>
      <trkpt lat="42.2652040" lon="-4.4101830">
        <ele>780.8</ele>
        <time>2020-04-05T16:59:20Z</time>
      </trkpt>
      <trkpt lat="42.2651960" lon="-4.4104270">
        <ele>781.2</ele>
        <time>2020-04-05T16:59:22Z</time>
      </trkpt>
      <trkpt lat="42.2651900" lon="-4.4105780">
        <ele>781.2</ele>
        <time>2020-04-05T16:59:24Z</time>
      </trkpt>
      <trkpt lat="42.2651820" lon="-4.4107970">
        <ele>781.2</ele>
        <time>2020-04-05T16:59:26Z</time>
      </trkpt>
      <trkpt lat="42.2651760" lon="-4.4109490">
        <ele>781.2</ele>
        <time>2020-04-05T16:59:28Z</time>
      </trkpt>
      <trkpt lat="42.2651700" lon="-4.4111000">
        <ele>781.1</ele>
        <time>2020-04-05T16:59:30Z</time>
      </trkpt>
      <trkpt lat="42.2651460" lon="-4.4114430">
        <ele>781.2</ele>
        <time>2020-04-05T16:59:32Z</time>
      </trkpt>
      <trkpt lat="42.2651060" lon="-4.4116280">
        <ele>781.2</ele>
        <time>2020-04-05T16:59:34Z</time>
      </trkpt>
      <trkpt lat="42.2650950" lon="-4.4117810">
        <ele>781.2</ele>
        <time>2020-04-05T16:59:36Z</time>
      </trkpt>
      <trkpt lat="42.2650850" lon="-4.4119340">
        <ele>781.2</ele>
        <time>2020-04-05T16:59:38Z</time>
      </trkpt>
      <trkpt lat="42.2650740" lon="-4.4120900">
        <ele>781.2</ele>
        <time>2020-04-05T16:59:40Z</time>
      </trkpt>
      <trkpt lat="42.2650480" lon="-4.4124580">
        <ele>781.3</ele>
        <time>2020-04-05T16:59:42Z</time>
      </trkpt>
      <trkpt lat="42.2650330" lon="-4.4126490">
        <ele>781.2</ele>
        <time>2020-04-05T16:59:44Z</time>
      </trkpt>
      <trkpt lat="42.2650220" lon="-4.4128080">
        <ele>781.1</ele>
        <time>2020-04-05T16:59:46Z</time>
      </trkpt>
      <trkpt lat="42.2649990" lon="-4.4130860">
        <ele>780.9</ele>
        <time>2020-04-05T16:59:48Z</time>
      </trkpt>
      <trkpt lat="42.2649850" lon="-4.4132480">
        <ele>781.0</ele>
        <time>2020-04-05T16:59:50Z</time>
      </trkpt>
      <trkpt lat="42.2650330" lon="-4.4135460">
        <ele>781.0</ele>
        <time>2020-04-05T16:59:52Z</time>
      </trkpt>
      <trkpt lat="42.2650560" lon="-4.4137550">
        <ele>781.0</ele>
        <time>2020-04-05T16:59:54Z</time>
      </trkpt>
      <trkpt lat="42.2650890" lon="-4.4139800">
        <ele>781.0</ele>
        <time>2020-04-05T16:59:56Z</time>
      </trkpt>
      <trkpt lat="42.2651870" lon="-4.4141400">
        <ele>780.9</ele>
        <time>2020-04-05T16:59:58Z</time>
      </trkpt>
      <trkpt lat="42.2652880" lon="-4.4143330">
        <ele>780.9</ele>
        <time>2020-04-05T17:00:00Z</time>
      </trkpt>
      <trkpt lat="42.2653180" lon="-4.4145480">
        <ele>780.9</ele>
        <time>2020-04-05T17:00:02Z</time>
      </trkpt>
      <trkpt lat="42.2652760" lon="-4.4147620">
        <ele>780.8</ele>
        <time>2020-04-05T17:00:04Z</time>
      </trkpt>
      <trkpt lat="42.2651860" lon="-4.4149560">
        <ele>780.8</ele>
        <time>2020-04-05T17:00:06Z</time>
      </trkpt>
      <trkpt lat="42.2651290" lon="-4.4151650">
        <ele>780.8</ele>
        <time>2020-04-05T17:00:08Z</time>
      </trkpt>
      <trkpt lat="42.2651310" lon="-4.4153440">
        <ele>780.7</ele>
        <time>2020-04-05T17:00:10Z</time>
      </trkpt>
      <trkpt lat="42.2651430" lon="-4.4155770">
        <ele>780.6</ele>
        <time>2020-04-05T17:00:12Z</time>
      </trkpt>
      <trkpt lat="42.2651530" lon="-4.4158290">
        <ele>780.0</ele>
        <time>2020-04-05T17:00:14Z</time>
      </trkpt>
      <trkpt lat="42.2651640" lon="-4.4160570">
        <ele>780.0</ele>
        <time>2020-04-05T17:00:16Z</time>
      </trkpt>
      <trkpt lat="42.2651820" lon="-4.4162410">
        <ele>780.2</ele>
        <time>2020-04-05T17:00:18Z</time>
      </trkpt>
      <trkpt lat="42.2652000" lon="-4.4164290">
        <ele>780.0</ele>
        <time>2020-04-05T17:00:20Z</time>
      </trkpt>
      <trkpt lat="42.2652430" lon="-4.4168560">
        <ele>778.5</ele>
        <time>2020-04-05T17:00:22Z</time>
      </trkpt>
      <trkpt lat="42.2652760" lon="-4.4170740">
        <ele>777.7</ele>
        <time>2020-04-05T17:00:24Z</time>
      </trkpt>
      <trkpt lat="42.2653250" lon="-4.4173690">
        <ele>776.8</ele>
        <time>2020-04-05T17:00:26Z</time>
      </trkpt>
      <trkpt lat="42.2653980" lon="-4.4176140">
        <ele>776.3</ele>
        <time>2020-04-05T17:00:28Z</time>
      </trkpt>
      <trkpt lat="42.2655240" lon="-4.4177800">
        <ele>775.8</ele>
        <time>2020-04-05T17:00:30Z</time>
      </trkpt>
      <trkpt lat="42.2656800" lon="-4.4179710">
        <ele>775.8</ele>
        <time>2020-04-05T17:00:32Z</time>
      </trkpt>
      <trkpt lat="42.2657350" lon="-4.4182140">
        <ele>776.3</ele>
        <time>2020-04-05T17:00:34Z</time>
      </trkpt>
      <trkpt lat="42.2657000" lon="-4.4184650">
        <ele>776.8</ele>
        <time>2020-04-05T17:00:36Z</time>
      </trkpt>
      <trkpt lat="42.2656100" lon="-4.4186360">
        <ele>777.2</ele>
        <time>2020-04-05T17:00:38Z</time>
      </trkpt>
      <trkpt lat="42.2655160" lon="-4.4188480">
        <ele>777.5</ele>
        <time>2020-04-05T17:00:40Z</time>
      </trkpt>
      <trkpt lat="42.2655080" lon="-4.4190410">
        <ele>777.6</ele>
        <time>2020-04-05T17:00:42Z</time>
      </trkpt>
      <trkpt lat="42.2655230" lon="-4.4192420">
        <ele>777.7</ele>
        <time>2020-04-05T17:00:44Z</time>
      </trkpt>
      <trkpt lat="42.2655460" lon="-4.4194860">
        <ele>778.1</ele>
        <time>2020-04-05T17:00:46Z</time>
      </trkpt>
      <trkpt lat="42.2655600" lon="-4.4196360">
        <ele>778.4</ele>
        <time>2020-04-05T17:00:48Z</time>
      </trkpt>
      <trkpt lat="42.2655750" lon="-4.4197890">
        <ele>778.6</ele>
        <time>2020-04-05T17:00:50Z</time>
      </trkpt>
      <trkpt lat="42.2655890" lon="-4.4199430">
        <ele>778.6</ele>
        <time>2020-04-05T17:00:52Z</time>
      </trkpt>
      <trkpt lat="42.2656040" lon="-4.4200990">
        <ele>778.6</ele>
        <time>2020-04-05T17:00:54Z</time>
      </trkpt>
      <trkpt lat="42.2656410" lon="-4.4204910">
        <ele>778.7</ele>
        <time>2020-04-05T17:00:56Z</time>
      </trkpt>
      <trkpt lat="42.2656570" lon="-4.4206510">
        <ele>778.7</ele>
        <time>2020-04-05T17:00:58Z</time>
      </trkpt>
      <trkpt lat="42.2656720" lon="-4.4208120">
        <ele>778.7</ele>
        <time>2020-04-05T17:01:00Z</time>
      </trkpt>
      <trkpt lat="42.2656880" lon="-4.4209750">
        <ele>778.7</ele>
        <time>2020-04-05T17:01:02Z</time>
      </trkpt>
      <trkpt lat="42.2657240" lon="-4.4213720">
        <ele>777.8</ele>
        <time>2020-04-05T17:01:04Z</time>
      </trkpt>
      <trkpt lat="42.2657400" lon="-4.4215380">
        <ele>776.9</ele>
        <time>2020-04-05T17:01:06Z</time>
      </trkpt>
      <trkpt lat="42.2657550" lon="-4.4217070">
        <ele>776.1</ele>
        <time>2020-04-05T17:01:08Z</time>
      </trkpt>
      <trkpt lat="42.2657710" lon="-4.4218770">
        <ele>775.8</ele>
        <time>2020-04-05T17:01:10Z</time>
      </trkpt>
      <trkpt lat="42.2657870" lon="-4.4220480">
        <ele>775.6</ele>
        <time>2020-04-05T17:01:12Z</time>
      </trkpt>
      <trkpt lat="42.2658320" lon="-4.4225280">
        <ele>775.5</ele>
        <time>2020-04-05T17:01:14Z</time>
      </trkpt>
      <trkpt lat="42.2658500" lon="-4.4227010">
        <ele>775.5</ele>
        <time>2020-04-05T17:01:16Z</time>
      </trkpt>
      <trkpt lat="42.2658670" lon="-4.4228780">
        <ele>775.6</ele>
        <time>2020-04-05T17:01:18Z</time>
      </trkpt>
      <trkpt lat="42.2658850" lon="-4.4230560">
        <ele>775.6</ele>
        <time>2020-04-05T17:01:20Z</time>
      </trkpt>
      <trkpt lat="42.2659300" lon="-4.4235100">
        <ele>775.6</ele>
        <time>2020-04-05T17:01:22Z</time>
      </trkpt>
      <trkpt lat="42.2659480" lon="-4.4237080">
        <ele>775.5</ele>
        <time>2020-04-05T17:01:24Z</time>
      </trkpt>
      <trkpt lat="42.2659740" lon="-4.4239730">
        <ele>775.3</ele>
        <time>2020-04-05T17:01:26Z</time>
      </trkpt>
      <trkpt lat="42.2659900" lon="-4.4241460">
        <ele>775.1</ele>
        <time>2020-04-05T17:01:28Z</time>
      </trkpt>
      <trkpt lat="42.2660070" lon="-4.4243160">
        <ele>775.0</ele>
        <time>2020-04-05T17:01:30Z</time>
      </trkpt>
      <trkpt lat="42.2660230" lon="-4.4244860">
        <ele>775.0</ele>
        <time>2020-04-05T17:01:32Z</time>
      </trkpt>
      <trkpt lat="42.2660600" lon="-4.4248640">
        <ele>775.2</ele>
        <time>2020-04-05T17:01:34Z</time>
      </trkpt>
      <trkpt lat="42.2660760" lon="-4.4250290">
        <ele>775.2</ele>
        <time>2020-04-05T17:01:36Z</time>
      </trkpt>
      <trkpt lat="42.2660930" lon="-4.4251930">
        <ele>775.3</ele>
        <time>2020-04-05T17:01:38Z</time>
      </trkpt>
      <trkpt lat="42.2661090" lon="-4.4253570">
        <ele>775.4</ele>
        <time>2020-04-05T17:01:40Z</time>
      </trkpt>
      <trkpt lat="42.2661250" lon="-4.4255200">
        <ele>775.4</ele>
        <time>2020-04-05T17:01:42Z</time>
      </trkpt>
      <trkpt lat="42.2661700" lon="-4.4259830">
        <ele>775.7</ele>
        <time>2020-04-05T17:01:44Z</time>
      </trkpt>
      <trkpt lat="42.2661870" lon="-4.4261430">
        <ele>776.0</ele>
        <time>2020-04-05T17:01:46Z</time>
      </trkpt>
      <trkpt lat="42.2662140" lon="-4.4264120">
        <ele>776.4</ele>
        <time>2020-04-05T17:01:48Z</time>
      </trkpt>
      <trkpt lat="42.2662300" lon="-4.4265720">
        <ele>776.5</ele>
        <time>2020-04-05T17:01:50Z</time>
      </trkpt>
      <trkpt lat="42.2662450" lon="-4.4267310">
        <ele>776.5</ele>
        <time>2020-04-05T17:01:52Z</time>
      </trkpt>
      <trkpt lat="42.2662800" lon="-4.4270830">
        <ele>776.4</ele>
        <time>2020-04-05T17:01:54Z</time>
      </trkpt>
      <trkpt lat="42.2662960" lon="-4.4272410">
        <ele>776.3</ele>
        <time>2020-04-05T17:01:56Z</time>
      </trkpt>
      <trkpt lat="42.2663120" lon="-4.4273970">
        <ele>776.3</ele>
        <time>2020-04-05T17:01:58Z</time>
      </trkpt>
      <trkpt lat="42.2663270" lon="-4.4275520">
        <ele>776.2</ele>
        <time>2020-04-05T17:02:00Z</time>
      </trkpt>
      <trkpt lat="42.2663430" lon="-4.4277050">
        <ele>776.2</ele>
        <time>2020-04-05T17:02:02Z</time>
      </trkpt>
      <trkpt lat="42.2663580" lon="-4.4278590">
        <ele>776.2</ele>
        <time>2020-04-05T17:02:04Z</time>
      </trkpt>
      <trkpt lat="42.2664040" lon="-4.4283130">
        <ele>776.3</ele>
        <time>2020-04-05T17:02:06Z</time>
      </trkpt>
      <trkpt lat="42.2664240" lon="-4.4285170">
        <ele>776.4</ele>
        <time>2020-04-05T17:02:08Z</time>
      </trkpt>
      <trkpt lat="42.2664390" lon="-4.4286680">
        <ele>776.6</ele>
        <time>2020-04-05T17:02:10Z</time>
      </trkpt>
      <trkpt lat="42.2664540" lon="-4.4288180">
        <ele>776.8</ele>
        <time>2020-04-05T17:02:12Z</time>
      </trkpt>
      <trkpt lat="42.2664840" lon="-4.4291250">
        <ele>777.1</ele>
        <time>2020-04-05T17:02:14Z</time>
      </trkpt>
      <trkpt lat="42.2664980" lon="-4.4292740">
        <ele>777.3</ele>
        <time>2020-04-05T17:02:16Z</time>
      </trkpt>
      <trkpt lat="42.2665210" lon="-4.4295150">
        <ele>777.5</ele>
        <time>2020-04-05T17:02:18Z</time>
      </trkpt>
      <trkpt lat="42.2665360" lon="-4.4296640">
        <ele>777.6</ele>
        <time>2020-04-05T17:02:20Z</time>
      </trkpt>
      <trkpt lat="42.2665500" lon="-4.4298120">
        <ele>777.7</ele>
        <time>2020-04-05T17:02:22Z</time>
      </trkpt>
      <trkpt lat="42.2665650" lon="-4.4299610">
        <ele>777.8</ele>
        <time>2020-04-05T17:02:24Z</time>
      </trkpt>
      <trkpt lat="42.2665790" lon="-4.4301110">
        <ele>777.8</ele>
        <time>2020-04-05T17:02:26Z</time>
      </trkpt>
      <trkpt lat="42.2666220" lon="-4.4305610">
        <ele>777.7</ele>
        <time>2020-04-05T17:02:28Z</time>
      </trkpt>
      <trkpt lat="42.2666360" lon="-4.4307110">
        <ele>777.5</ele>
        <time>2020-04-05T17:02:30Z</time>
      </trkpt>
      <trkpt lat="42.2666500" lon="-4.4308600">
        <ele>777.4</ele>
        <time>2020-04-05T17:02:32Z</time>
      </trkpt>
      <trkpt lat="42.2666760" lon="-4.4311300">
        <ele>776.9</ele>
        <time>2020-04-05T17:02:34Z</time>
      </trkpt>
      <trkpt lat="42.2666900" lon="-4.4312810">
        <ele>776.6</ele>
        <time>2020-04-05T17:02:36Z</time>
      </trkpt>
      <trkpt lat="42.2667050" lon="-4.4314350">
        <ele>776.4</ele>
        <time>2020-04-05T17:02:38Z</time>
      </trkpt>
      <trkpt lat="42.2667380" lon="-4.4317730">
        <ele>775.9</ele>
        <time>2020-04-05T17:02:40Z</time>
      </trkpt>
      <trkpt lat="42.2667540" lon="-4.4319280">
        <ele>775.7</ele>
        <time>2020-04-05T17:02:42Z</time>
      </trkpt>
      <trkpt lat="42.2667690" lon="-4.4320870">
        <ele>775.6</ele>
        <time>2020-04-05T17:02:44Z</time>
      </trkpt>
      <trkpt lat="42.2667850" lon="-4.4322460">
        <ele>775.5</ele>
        <time>2020-04-05T17:02:46Z</time>
      </trkpt>
      <trkpt lat="42.2668010" lon="-4.4324070">
        <ele>775.5</ele>
        <time>2020-04-05T17:02:48Z</time>
      </trkpt>
      <trkpt lat="42.2668460" lon="-4.4328690">
        <ele>776.1</ele>
        <time>2020-04-05T17:02:50Z</time>
      </trkpt>
      <trkpt lat="42.2668620" lon="-4.4330280">
        <ele>776.4</ele>
        <time>2020-04-05T17:02:52Z</time>
      </trkpt>
      <trkpt lat="42.2668770" lon="-4.4331810">
        <ele>776.6</ele>
        <time>2020-04-05T17:02:54Z</time>
      </trkpt>
      <trkpt lat="42.2668910" lon="-4.4333240">
        <ele>776.8</ele>
        <time>2020-04-05T17:02:56Z</time>
      </trkpt>
      <trkpt lat="42.2669040" lon="-4.4334570">
        <ele>776.9</ele>
        <time>2020-04-05T17:02:58Z</time>
      </trkpt>
      <trkpt lat="42.2669160" lon="-4.4335790">
        <ele>776.9</ele>
        <time>2020-04-05T17:03:00Z</time>
      </trkpt>
      <trkpt lat="42.2669260" lon="-4.4336880">
        <ele>776.9</ele>
        <time>2020-04-05T17:03:02Z</time>
      </trkpt>
      <trkpt lat="42.2669670" lon="-4.4341020">
        <ele>777.0</ele>
        <time>2020-04-05T17:03:04Z</time>
      </trkpt>
      <trkpt lat="42.2669740" lon="-4.4341760">
        <ele>777.0</ele>
        <time>2020-04-05T17:03:06Z</time>
      </trkpt>
      <trkpt lat="42.2669780" lon="-4.4342210">
        <ele>777.0</ele>
        <time>2020-04-05T17:03:08Z</time>
      </trkpt>
      <trkpt lat="42.2669780" lon="-4.4342210">
        <ele>777.0</ele>
        <time>2020-04-05T17:03:10Z</time>
      </trkpt>
      <trkpt lat="42.2669780" lon="-4.4342210">
        <ele>777.0</ele>
        <time>2020-04-05T17:03:12Z</time>
      </trkpt>
      <trkpt lat="42.2669780" lon="-4.4342210">
        <ele>777.0</ele>
        <time>2020-04-05T17:03:14Z</time>
      </trkpt>
      <trkpt lat="42.2669780" lon="-4.4342210">
        <ele>777.0</ele>
        <time>2020-04-05T17:03:16Z</time>
      </trkpt>
      <trkpt lat="42.2669780" lon="-4.4342210">
        <ele>777.0</ele>
        <time>2020-04-05T17:03:18Z</time>
      </trkpt>
      <trkpt lat="42.2669780" lon="-4.4342210">
        <ele>777.0</ele>
        <time>2020-04-05T17:03:20Z</time>
      </trkpt>
      <trkpt lat="42.2669780" lon="-4.4342210">
        <ele>777.0</ele>
        <time>2020-04-05T17:03:22Z</time>
      </trkpt>
      <trkpt lat="42.2669780" lon="-4.4342210">
        <ele>777.0</ele>
        <time>2020-04-05T17:03:24Z</time>
      </trkpt>
      <trkpt lat="42.2669780" lon="-4.4342210">
        <ele>777.0</ele>
        <time>2020-04-05T17:03:26Z</time>
      </trkpt>
      <trkpt lat="42.2669780" lon="-4.4342210">
        <ele>777.0</ele>
        <time>2020-04-05T17:03:28Z</time>
      </trkpt>
      <trkpt lat="42.2669780" lon="-4.4342210">
        <ele>777.0</ele>
        <time>2020-04-05T17:03:30Z</time>
      </trkpt>
      <trkpt lat="42.2669780" lon="-4.4342210">
        <ele>777.0</ele>
        <time>2020-04-05T17:03:32Z</time>
      </trkpt>
      <trkpt lat="42.2669780" lon="-4.4342210">
        <ele>777.0</ele>
        <time>2020-04-05T17:03:34Z</time>
      </trkpt>
      <trkpt lat="42.2669780" lon="-4.4342210">
        <ele>777.0</ele>
        <time>2020-04-05T17:03:36Z</time>
      </trkpt>
      <trkpt lat="42.2669780" lon="-4.4342210">
        <ele>777.0</ele>
        <time>2020-04-05T17:03:38Z</time>
      </trkpt>
      <trkpt lat="42.2669780" lon="-4.4342210">
        <ele>777.0</ele>
        <time>2020-04-05T17:03:40Z</time>
      </trkpt>
      <trkpt lat="42.2669780" lon="-4.4342210">
        <ele>777.0</ele>
        <time>2020-04-05T17:03:42Z</time>
      </trkpt>
      <trkpt lat="42.2669780" lon="-4.4342210">
        <ele>777.0</ele>
        <time>2020-04-05T17:03:44Z</time>
      </trkpt>
      <trkpt lat="42.2669780" lon="-4.4342210">
        <ele>777.0</ele>
        <time>2020-04-05T17:03:46Z</time>
      </trkpt>
      <trkpt lat="42.2669780" lon="-4.4342210">
        <ele>777.0</ele>
        <time>2020-04-05T17:03:48Z</time>
      </trkpt>
      <trkpt lat="42.2669800" lon="-4.4342370">
        <ele>777.0</ele>
        <time>2020-04-05T17:03:50Z</time>
      </trkpt>
      <trkpt lat="42.2669850" lon="-4.4342910">
        <ele>777.0</ele>
        <time>2020-04-05T17:03:52Z</time>
      </trkpt>
      <trkpt lat="42.2669930" lon="-4.4343790">
        <ele>777.0</ele>
        <time>2020-04-05T17:03:54Z</time>
      </trkpt>
      <trkpt lat="42.2670150" lon="-4.4346060">
        <ele>777.2</ele>
        <time>2020-04-05T17:03:56Z</time>
      </trkpt>
      <trkpt lat="42.2670260" lon="-4.4347210">
        <ele>777.7</ele>
        <time>2020-04-05T17:03:58Z</time>
      </trkpt>
      <trkpt lat="42.2670380" lon="-4.4348420">
        <ele>778.2</ele>
        <time>2020-04-05T17:04:00Z</time>
      </trkpt>
      <trkpt lat="42.2670500" lon="-4.4349650">
        <ele>778.6</ele>
        <time>2020-04-05T17:04:02Z</time>
      </trkpt>
      <trkpt lat="42.2670780" lon="-4.4352510">
        <ele>778.9</ele>
        <time>2020-04-05T17:04:04Z</time>
      </trkpt>
      <trkpt lat="42.2670910" lon="-4.4353810">
        <ele>778.8</ele>
        <time>2020-04-05T17:04:06Z</time>
      </trkpt>
      <trkpt lat="42.2671040" lon="-4.4355140">
        <ele>778.7</ele>
        <time>2020-04-05T17:04:08Z</time>
      </trkpt>
      <trkpt lat="42.2671180" lon="-4.4356490">
        <ele>778.5</ele>
        <time>2020-04-05T17:04:10Z</time>
      </trkpt>
      <trkpt lat="42.2671310" lon="-4.4357860">
        <ele>778.5</ele>
        <time>2020-04-05T17:04:12Z</time>
      </trkpt>
      <trkpt lat="42.2671450" lon="-4.4359250">
        <ele>778.5</ele>
        <time>2020-04-05T17:04:14Z</time>
      </trkpt>
      <trkpt lat="42.2671890" lon="-4.4363650">
        <ele>779.5</ele>
        <time>2020-04-05T17:04:16Z</time>
      </trkpt>
      <trkpt lat="42.2672030" lon="-4.4365070">
        <ele>779.9</ele>
        <time>2020-04-05T17:04:18Z</time>
      </trkpt>
      <trkpt lat="42.2672170" lon="-4.4366510">
        <ele>780.2</ele>
        <time>2020-04-05T17:04:20Z</time>
      </trkpt>
      <trkpt lat="42.2672310" lon="-4.4367940">
        <ele>780.3</ele>
        <time>2020-04-05T17:04:22Z</time>
      </trkpt>
      <trkpt lat="42.2672450" lon="-4.4369390">
        <ele>780.3</ele>
        <time>2020-04-05T17:04:24Z</time>
      </trkpt>
      <trkpt lat="42.2672590" lon="-4.4370850">
        <ele>780.3</ele>
        <time>2020-04-05T17:04:26Z</time>
      </trkpt>
      <trkpt lat="42.2673030" lon="-4.4375360">
        <ele>780.3</ele>
        <time>2020-04-05T17:04:28Z</time>
      </trkpt>
      <trkpt lat="42.2673170" lon="-4.4376820">
        <ele>780.3</ele>
        <time>2020-04-05T17:04:30Z</time>
      </trkpt>
      <trkpt lat="42.2673310" lon="-4.4378280">
        <ele>780.5</ele>
        <time>2020-04-05T17:04:32Z</time>
      </trkpt>
      <trkpt lat="42.2673450" lon="-4.4379720">
        <ele>780.8</ele>
        <time>2020-04-05T17:04:34Z</time>
      </trkpt>
      <trkpt lat="42.2673580" lon="-4.4381170">
        <ele>781.1</ele>
        <time>2020-04-05T17:04:36Z</time>
      </trkpt>
      <trkpt lat="42.2673720" lon="-4.4382610">
        <ele>781.2</ele>
        <time>2020-04-05T17:04:38Z</time>
      </trkpt>
      <trkpt lat="42.2674150" lon="-4.4387080">
        <ele>781.2</ele>
        <time>2020-04-05T17:04:40Z</time>
      </trkpt>
      <trkpt lat="42.2674290" lon="-4.4388510">
        <ele>781.2</ele>
        <time>2020-04-05T17:04:42Z</time>
      </trkpt>
      <trkpt lat="42.2674430" lon="-4.4389910">
        <ele>781.2</ele>
        <time>2020-04-05T17:04:44Z</time>
      </trkpt>
      <trkpt lat="42.2674660" lon="-4.4392470">
        <ele>781.2</ele>
        <time>2020-04-05T17:04:46Z</time>
      </trkpt>
      <trkpt lat="42.2674760" lon="-4.4393650">
        <ele>781.2</ele>
        <time>2020-04-05T17:04:48Z</time>
      </trkpt>
      <trkpt lat="42.2674840" lon="-4.4394680">
        <ele>781.2</ele>
        <time>2020-04-05T17:04:50Z</time>
      </trkpt>
      <trkpt lat="42.2674910" lon="-4.4395590">
        <ele>781.2</ele>
        <time>2020-04-05T17:04:52Z</time>
      </trkpt>
      <trkpt lat="42.2674980" lon="-4.4396360">
        <ele>781.2</ele>
        <time>2020-04-05T17:04:54Z</time>
      </trkpt>
      <trkpt lat="42.2675160" lon="-4.4398800">
        <ele>781.1</ele>
        <time>2020-04-05T17:04:56Z</time>
      </trkpt>
      <trkpt lat="42.2675190" lon="-4.4399330">
        <ele>781.1</ele>
        <time>2020-04-05T17:04:58Z</time>
      </trkpt>
      <trkpt lat="42.2675200" lon="-4.4399520">
        <ele>781.1</ele>
        <time>2020-04-05T17:05:00Z</time>
      </trkpt>
      <trkpt lat="42.2675200" lon="-4.4399520">
        <ele>781.1</ele>
        <time>2020-04-05T17:05:02Z</time>
      </trkpt>
      <trkpt lat="42.2675200" lon="-4.4399520">
        <ele>781.1</ele>
        <time>2020-04-05T17:05:04Z</time>
      </trkpt>
      <trkpt lat="42.2675200" lon="-4.4399520">
        <ele>781.1</ele>
        <time>2020-04-05T17:05:06Z</time>
      </trkpt>
      <trkpt lat="42.2675210" lon="-4.4399710">
        <ele>781.1</ele>
        <time>2020-04-05T17:05:08Z</time>
      </trkpt>
      <trkpt lat="42.2675250" lon="-4.4400750">
        <ele>781.1</ele>
        <time>2020-04-05T17:05:10Z</time>
      </trkpt>
      <trkpt lat="42.2675320" lon="-4.4401700">
        <ele>781.1</ele>
        <time>2020-04-05T17:05:12Z</time>
      </trkpt>
      <trkpt lat="42.2675400" lon="-4.4402620">
        <ele>781.2</ele>
        <time>2020-04-05T17:05:14Z</time>
      </trkpt>
      <trkpt lat="42.2675500" lon="-4.4403680">
        <ele>781.2</ele>
        <time>2020-04-05T17:05:16Z</time>
      </trkpt>
      <trkpt lat="42.2675610" lon="-4.4404830">
        <ele>781.2</ele>
        <time>2020-04-05T17:05:18Z</time>
      </trkpt>
      <trkpt lat="42.2675880" lon="-4.4407610">
        <ele>781.4</ele>
        <time>2020-04-05T17:05:20Z</time>
      </trkpt>
      <trkpt lat="42.2676020" lon="-4.4408830">
        <ele>781.8</ele>
        <time>2020-04-05T17:05:22Z</time>
      </trkpt>
      <trkpt lat="42.2676160" lon="-4.4410030">
        <ele>782.0</ele>
        <time>2020-04-05T17:05:24Z</time>
      </trkpt>
      <trkpt lat="42.2676450" lon="-4.4412450">
        <ele>782.2</ele>
        <time>2020-04-05T17:05:26Z</time>
      </trkpt>
      <trkpt lat="42.2676640" lon="-4.4414090">
        <ele>782.0</ele>
        <time>2020-04-05T17:05:28Z</time>
      </trkpt>
      <trkpt lat="42.2676740" lon="-4.4415260">
        <ele>781.9</ele>
        <time>2020-04-05T17:05:30Z</time>
      </trkpt>
      <trkpt lat="42.2676840" lon="-4.4416440">
        <ele>781.9</ele>
        <time>2020-04-05T17:05:32Z</time>
      </trkpt>
      <trkpt lat="42.2676950" lon="-4.4417600">
        <ele>782.0</ele>
        <time>2020-04-05T17:05:34Z</time>
      </trkpt>
      <trkpt lat="42.2677160" lon="-4.4420280">
        <ele>782.2</ele>
        <time>2020-04-05T17:05:36Z</time>
      </trkpt>
      <trkpt lat="42.2676990" lon="-4.4421840">
        <ele>782.5</ele>
        <time>2020-04-05T17:05:38Z</time>
      </trkpt>
      <trkpt lat="42.2677510" lon="-4.4423090">
        <ele>782.4</ele>
        <time>2020-04-05T17:05:40Z</time>
      </trkpt>
      <trkpt lat="42.2678140" lon="-4.4424190">
        <ele>782.4</ele>
        <time>2020-04-05T17:05:42Z</time>
      </trkpt>
      <trkpt lat="42.2678800" lon="-4.4425330">
        <ele>782.4</ele>
        <time>2020-04-05T17:05:44Z</time>
      </trkpt>
      <trkpt lat="42.2680230" lon="-4.4427810">
        <ele>782.3</ele>
        <time>2020-04-05T17:05:46Z</time>
      </trkpt>
      <trkpt lat="42.2680910" lon="-4.4429040">
        <ele>782.3</ele>
        <time>2020-04-05T17:05:48Z</time>
      </trkpt>
      <trkpt lat="42.2681590" lon="-4.4430280">
        <ele>782.3</ele>
        <time>2020-04-05T17:05:50Z</time>
      </trkpt>
      <trkpt lat="42.2682860" lon="-4.4432590">
        <ele>782.3</ele>
        <time>2020-04-05T17:05:52Z</time>
      </trkpt>
      <trkpt lat="42.2683560" lon="-4.4433850">
        <ele>782.2</ele>
        <time>2020-04-05T17:05:54Z</time>
      </trkpt>
      <trkpt lat="42.2684260" lon="-4.4435120">
        <ele>782.2</ele>
        <time>2020-04-05T17:05:56Z</time>
      </trkpt>
      <trkpt lat="42.2684970" lon="-4.4436400">
        <ele>782.2</ele>
        <time>2020-04-05T17:05:58Z</time>
      </trkpt>
      <trkpt lat="42.2686600" lon="-4.4439390">
        <ele>782.1</ele>
        <time>2020-04-05T17:06:00Z</time>
      </trkpt>
      <trkpt lat="42.2687670" lon="-4.4441380">
        <ele>781.9</ele>
        <time>2020-04-05T17:06:02Z</time>
      </trkpt>
      <trkpt lat="42.2688380" lon="-4.4442700">
        <ele>781.5</ele>
        <time>2020-04-05T17:06:04Z</time>
      </trkpt>
      <trkpt lat="42.2689100" lon="-4.4444040">
        <ele>781.2</ele>
        <time>2020-04-05T17:06:06Z</time>
      </trkpt>
      <trkpt lat="42.2689820" lon="-4.4445380">
        <ele>781.1</ele>
        <time>2020-04-05T17:06:08Z</time>
      </trkpt>
      <trkpt lat="42.2690550" lon="-4.4446730">
        <ele>781.1</ele>
        <time>2020-04-05T17:06:10Z</time>
      </trkpt>
      <trkpt lat="42.2692080" lon="-4.4450420">
        <ele>781.0</ele>
        <time>2020-04-05T17:06:12Z</time>
      </trkpt>
      <trkpt lat="42.2692830" lon="-4.4452230">
        <ele>781.6</ele>
        <time>2020-04-05T17:06:14Z</time>
      </trkpt>
      <trkpt lat="42.2693490" lon="-4.4454230">
        <ele>782.3</ele>
        <time>2020-04-05T17:06:16Z</time>
      </trkpt>
      <trkpt lat="42.2692920" lon="-4.4455800">
        <ele>782.2</ele>
        <time>2020-04-05T17:06:18Z</time>
      </trkpt>
      <trkpt lat="42.2691970" lon="-4.4458550">
        <ele>781.8</ele>
        <time>2020-04-05T17:06:20Z</time>
      </trkpt>
      <trkpt lat="42.2691430" lon="-4.4460890">
        <ele>781.4</ele>
        <time>2020-04-05T17:06:22Z</time>
      </trkpt>
      <trkpt lat="42.2691010" lon="-4.4462740">
        <ele>781.1</ele>
        <time>2020-04-05T17:06:24Z</time>
      </trkpt>
      <trkpt lat="42.2690240" lon="-4.4465880">
        <ele>780.1</ele>
        <time>2020-04-05T17:06:26Z</time>
      </trkpt>
      <trkpt lat="42.2689710" lon="-4.4467750">
        <ele>779.4</ele>
        <time>2020-04-05T17:06:28Z</time>
      </trkpt>
      <trkpt lat="42.2688980" lon="-4.4470700">
        <ele>778.7</ele>
        <time>2020-04-05T17:06:30Z</time>
      </trkpt>
      <trkpt lat="42.2688280" lon="-4.4473940">
        <ele>777.7</ele>
        <time>2020-04-05T17:06:32Z</time>
      </trkpt>
      <trkpt lat="42.2687790" lon="-4.4476840">
        <ele>776.5</ele>
        <time>2020-04-05T17:06:34Z</time>
      </trkpt>
      <trkpt lat="42.2687110" lon="-4.4479600">
        <ele>775.3</ele>
        <time>2020-04-05T17:06:36Z</time>
      </trkpt>
      <trkpt lat="42.2686710" lon="-4.4482480">
        <ele>774.7</ele>
        <time>2020-04-05T17:06:38Z</time>
      </trkpt>
      <trkpt lat="42.2687150" lon="-4.4485290">
        <ele>774.7</ele>
        <time>2020-04-05T17:06:40Z</time>
      </trkpt>
      <trkpt lat="42.2688320" lon="-4.4487950">
        <ele>774.9</ele>
        <time>2020-04-05T17:06:42Z</time>
      </trkpt>
      <trkpt lat="42.2689550" lon="-4.4489840">
        <ele>775.1</ele>
        <time>2020-04-05T17:06:44Z</time>
      </trkpt>
      <trkpt lat="42.2691140" lon="-4.4492200">
        <ele>775.4</ele>
        <time>2020-04-05T17:06:46Z</time>
      </trkpt>
      <trkpt lat="42.2690700" lon="-4.4494470">
        <ele>775.6</ele>
        <time>2020-04-05T17:06:48Z</time>
      </trkpt>
      <trkpt lat="42.2689840" lon="-4.4496160">
        <ele>775.5</ele>
        <time>2020-04-05T17:06:50Z</time>
      </trkpt>
      <trkpt lat="42.2688310" lon="-4.4499200">
        <ele>775.2</ele>
        <time>2020-04-05T17:06:52Z</time>
      </trkpt>
      <trkpt lat="42.2687500" lon="-4.4501190">
        <ele>775.1</ele>
        <time>2020-04-05T17:06:54Z</time>
      </trkpt>
      <trkpt lat="42.2686810" lon="-4.4503790">
        <ele>774.9</ele>
        <time>2020-04-05T17:06:56Z</time>
      </trkpt>
      <trkpt lat="42.2686450" lon="-4.4506600">
        <ele>774.5</ele>
        <time>2020-04-05T17:06:58Z</time>
      </trkpt>
      <trkpt lat="42.2686610" lon="-4.4509320">
        <ele>774.3</ele>
        <time>2020-04-05T17:07:00Z</time>
      </trkpt>
      <trkpt lat="42.2687330" lon="-4.4512210">
        <ele>774.7</ele>
        <time>2020-04-05T17:07:02Z</time>
      </trkpt>
      <trkpt lat="42.2687910" lon="-4.4513900">
        <ele>775.0</ele>
        <time>2020-04-05T17:07:04Z</time>
      </trkpt>
      <trkpt lat="42.2688480" lon="-4.4515560">
        <ele>775.1</ele>
        <time>2020-04-05T17:07:06Z</time>
      </trkpt>
      <trkpt lat="42.2689780" lon="-4.4518500">
        <ele>775.2</ele>
        <time>2020-04-05T17:07:08Z</time>
      </trkpt>
      <trkpt lat="42.2690850" lon="-4.4519810">
        <ele>775.2</ele>
        <time>2020-04-05T17:07:10Z</time>
      </trkpt>
      <trkpt lat="42.2691430" lon="-4.4521320">
        <ele>775.2</ele>
        <time>2020-04-05T17:07:12Z</time>
      </trkpt>
      <trkpt lat="42.2692000" lon="-4.4522800">
        <ele>775.4</ele>
        <time>2020-04-05T17:07:14Z</time>
      </trkpt>
      <trkpt lat="42.2692550" lon="-4.4524220">
        <ele>775.5</ele>
        <time>2020-04-05T17:07:16Z</time>
      </trkpt>
      <trkpt lat="42.2693880" lon="-4.4527720">
        <ele>775.9</ele>
        <time>2020-04-05T17:07:18Z</time>
      </trkpt>
      <trkpt lat="42.2694540" lon="-4.4529460">
        <ele>776.0</ele>
        <time>2020-04-05T17:07:20Z</time>
      </trkpt>
      <trkpt lat="42.2695050" lon="-4.4530830">
        <ele>776.1</ele>
        <time>2020-04-05T17:07:22Z</time>
      </trkpt>
      <trkpt lat="42.2695560" lon="-4.4532190">
        <ele>776.2</ele>
        <time>2020-04-05T17:07:24Z</time>
      </trkpt>
      <trkpt lat="42.2696060" lon="-4.4533520">
        <ele>776.2</ele>
        <time>2020-04-05T17:07:26Z</time>
      </trkpt>
      <trkpt lat="42.2697420" lon="-4.4537150">
        <ele>776.1</ele>
        <time>2020-04-05T17:07:28Z</time>
      </trkpt>
      <trkpt lat="42.2697900" lon="-4.4538450">
        <ele>776.0</ele>
        <time>2020-04-05T17:07:30Z</time>
      </trkpt>
      <trkpt lat="42.2698390" lon="-4.4539760">
        <ele>775.8</ele>
        <time>2020-04-05T17:07:32Z</time>
      </trkpt>
      <trkpt lat="42.2698880" lon="-4.4541060">
        <ele>775.6</ele>
        <time>2020-04-05T17:07:34Z</time>
      </trkpt>
      <trkpt lat="42.2699360" lon="-4.4542340">
        <ele>775.4</ele>
        <time>2020-04-05T17:07:36Z</time>
      </trkpt>
      <trkpt lat="42.2699830" lon="-4.4543610">
        <ele>775.3</ele>
        <time>2020-04-05T17:07:38Z</time>
      </trkpt>
      <trkpt lat="42.2701290" lon="-4.4547500">
        <ele>775.2</ele>
        <time>2020-04-05T17:07:40Z</time>
      </trkpt>
      <trkpt lat="42.2701750" lon="-4.4548720">
        <ele>775.4</ele>
        <time>2020-04-05T17:07:42Z</time>
      </trkpt>
      <trkpt lat="42.2702200" lon="-4.4549920">
        <ele>775.6</ele>
        <time>2020-04-05T17:07:44Z</time>
      </trkpt>
      <trkpt lat="42.2702650" lon="-4.4551110">
        <ele>775.9</ele>
        <time>2020-04-05T17:07:46Z</time>
      </trkpt>
      <trkpt lat="42.2703750" lon="-4.4554060">
        <ele>776.3</ele>
        <time>2020-04-05T17:07:48Z</time>
      </trkpt>
      <trkpt lat="42.2704180" lon="-4.4555230">
        <ele>776.5</ele>
        <time>2020-04-05T17:07:50Z</time>
      </trkpt>
      <trkpt lat="42.2704620" lon="-4.4556420">
        <ele>776.4</ele>
        <time>2020-04-05T17:07:52Z</time>
      </trkpt>
      <trkpt lat="42.2705390" lon="-4.4558490">
        <ele>776.4</ele>
        <time>2020-04-05T17:07:55Z</time>
      </trkpt>
      <trkpt lat="42.2705830" lon="-4.4559690">
        <ele>776.3</ele>
        <time>2020-04-05T17:07:57Z</time>
      </trkpt>
      <trkpt lat="42.2706280" lon="-4.4560910">
        <ele>776.2</ele>
        <time>2020-04-05T17:07:59Z</time>
      </trkpt>
      <trkpt lat="42.2706730" lon="-4.4562120">
        <ele>776.1</ele>
        <time>2020-04-05T17:08:01Z</time>
      </trkpt>
      <trkpt lat="42.2707180" lon="-4.4563340">
        <ele>776.1</ele>
        <time>2020-04-05T17:08:03Z</time>
      </trkpt>
      <trkpt lat="42.2707640" lon="-4.4564580">
        <ele>776.0</ele>
        <time>2020-04-05T17:08:05Z</time>
      </trkpt>
      <trkpt lat="42.2709080" lon="-4.4568470">
        <ele>775.9</ele>
        <time>2020-04-05T17:08:07Z</time>
      </trkpt>
      <trkpt lat="42.2709800" lon="-4.4570340">
        <ele>775.9</ele>
        <time>2020-04-05T17:08:09Z</time>
      </trkpt>
      <trkpt lat="42.2710280" lon="-4.4571580">
        <ele>775.9</ele>
        <time>2020-04-05T17:08:11Z</time>
      </trkpt>
      <trkpt lat="42.2711020" lon="-4.4573530">
        <ele>775.7</ele>
        <time>2020-04-05T17:08:13Z</time>
      </trkpt>
      <trkpt lat="42.2711470" lon="-4.4574770">
        <ele>775.5</ele>
        <time>2020-04-05T17:08:15Z</time>
      </trkpt>
      <trkpt lat="42.2711930" lon="-4.4576040">
        <ele>775.3</ele>
        <time>2020-04-05T17:08:17Z</time>
      </trkpt>
      <trkpt lat="42.2712940" lon="-4.4578800">
        <ele>774.9</ele>
        <time>2020-04-05T17:08:19Z</time>
      </trkpt>
      <trkpt lat="42.2713410" lon="-4.4580050">
        <ele>774.6</ele>
        <time>2020-04-05T17:08:21Z</time>
      </trkpt>
      <trkpt lat="42.2713880" lon="-4.4581310">
        <ele>774.5</ele>
        <time>2020-04-05T17:08:23Z</time>
      </trkpt>
      <trkpt lat="42.2714350" lon="-4.4582560">
        <ele>774.4</ele>
        <time>2020-04-05T17:08:25Z</time>
      </trkpt>
      <trkpt lat="42.2714820" lon="-4.4583820">
        <ele>774.4</ele>
        <time>2020-04-05T17:08:27Z</time>
      </trkpt>
      <trkpt lat="42.2715290" lon="-4.4585090">
        <ele>774.4</ele>
        <time>2020-04-05T17:08:29Z</time>
      </trkpt>
      <trkpt lat="42.2716680" lon="-4.4588820">
        <ele>774.5</ele>
        <time>2020-04-05T17:08:31Z</time>
      </trkpt>
      <trkpt lat="42.2717160" lon="-4.4590090">
        <ele>774.6</ele>
        <time>2020-04-05T17:08:33Z</time>
      </trkpt>
      <trkpt lat="42.2717630" lon="-4.4591350">
        <ele>774.7</ele>
        <time>2020-04-05T17:08:35Z</time>
      </trkpt>
      <trkpt lat="42.2718640" lon="-4.4594070">
        <ele>774.8</ele>
        <time>2020-04-05T17:08:37Z</time>
      </trkpt>
      <trkpt lat="42.2719110" lon="-4.4595320">
        <ele>774.9</ele>
        <time>2020-04-05T17:08:39Z</time>
      </trkpt>
      <trkpt lat="42.2719580" lon="-4.4596590">
        <ele>775.0</ele>
        <time>2020-04-05T17:08:41Z</time>
      </trkpt>
      <trkpt lat="42.2720500" lon="-4.4599060">
        <ele>775.1</ele>
        <time>2020-04-05T17:08:43Z</time>
      </trkpt>
      <trkpt lat="42.2720970" lon="-4.4600320">
        <ele>775.2</ele>
        <time>2020-04-05T17:08:45Z</time>
      </trkpt>
      <trkpt lat="42.2721440" lon="-4.4601580">
        <ele>775.2</ele>
        <time>2020-04-05T17:08:47Z</time>
      </trkpt>
      <trkpt lat="42.2722420" lon="-4.4604190">
        <ele>775.4</ele>
        <time>2020-04-05T17:08:49Z</time>
      </trkpt>
      <trkpt lat="42.2722900" lon="-4.4605440">
        <ele>775.6</ele>
        <time>2020-04-05T17:08:51Z</time>
      </trkpt>
      <trkpt lat="42.2723390" lon="-4.4606700">
        <ele>775.5</ele>
        <time>2020-04-05T17:08:53Z</time>
      </trkpt>
      <trkpt lat="42.2724370" lon="-4.4609270">
        <ele>775.2</ele>
        <time>2020-04-05T17:08:55Z</time>
      </trkpt>
      <trkpt lat="42.2724850" lon="-4.4610530">
        <ele>775.2</ele>
        <time>2020-04-05T17:08:57Z</time>
      </trkpt>
      <trkpt lat="42.2725690" lon="-4.4612730">
        <ele>775.2</ele>
        <time>2020-04-05T17:08:59Z</time>
      </trkpt>
      <trkpt lat="42.2726160" lon="-4.4614000">
        <ele>775.2</ele>
        <time>2020-04-05T17:09:01Z</time>
      </trkpt>
      <trkpt lat="42.2726630" lon="-4.4615260">
        <ele>775.2</ele>
        <time>2020-04-05T17:09:03Z</time>
      </trkpt>
      <trkpt lat="42.2727100" lon="-4.4616530">
        <ele>775.2</ele>
        <time>2020-04-05T17:09:05Z</time>
      </trkpt>
      <trkpt lat="42.2728250" lon="-4.4619480">
        <ele>775.2</ele>
        <time>2020-04-05T17:09:07Z</time>
      </trkpt>
      <trkpt lat="42.2728980" lon="-4.4621140">
        <ele>775.2</ele>
        <time>2020-04-05T17:09:09Z</time>
      </trkpt>
      <trkpt lat="42.2729520" lon="-4.4622380">
        <ele>775.2</ele>
        <time>2020-04-05T17:09:11Z</time>
      </trkpt>
      <trkpt lat="42.2730070" lon="-4.4623630">
        <ele>775.2</ele>
        <time>2020-04-05T17:09:13Z</time>
      </trkpt>
      <trkpt lat="42.2731250" lon="-4.4626290">
        <ele>775.2</ele>
        <time>2020-04-05T17:09:15Z</time>
      </trkpt>
      <trkpt lat="42.2731840" lon="-4.4627510">
        <ele>775.2</ele>
        <time>2020-04-05T17:09:17Z</time>
      </trkpt>
      <trkpt lat="42.2732830" lon="-4.4629400">
        <ele>775.2</ele>
        <time>2020-04-05T17:09:19Z</time>
      </trkpt>
      <trkpt lat="42.2733500" lon="-4.4630590">
        <ele>775.2</ele>
        <time>2020-04-05T17:09:21Z</time>
      </trkpt>
      <trkpt lat="42.2734190" lon="-4.4631780">
        <ele>775.2</ele>
        <time>2020-04-05T17:09:23Z</time>
      </trkpt>
      <trkpt lat="42.2734860" lon="-4.4632960">
        <ele>775.2</ele>
        <time>2020-04-05T17:09:25Z</time>
      </trkpt>
      <trkpt lat="42.2735550" lon="-4.4634170">
        <ele>775.1</ele>
        <time>2020-04-05T17:09:27Z</time>
      </trkpt>
      <trkpt lat="42.2736240" lon="-4.4635380">
        <ele>775.1</ele>
        <time>2020-04-05T17:09:29Z</time>
      </trkpt>
      <trkpt lat="42.2738370" lon="-4.4638990">
        <ele>775.1</ele>
        <time>2020-04-05T17:09:31Z</time>
      </trkpt>
      <trkpt lat="42.2739100" lon="-4.4640140">
        <ele>775.2</ele>
        <time>2020-04-05T17:09:33Z</time>
      </trkpt>
      <trkpt lat="42.2739830" lon="-4.4641290">
        <ele>775.3</ele>
        <time>2020-04-05T17:09:35Z</time>
      </trkpt>
      <trkpt lat="42.2740560" lon="-4.4642430">
        <ele>775.5</ele>
        <time>2020-04-05T17:09:37Z</time>
      </trkpt>
      <trkpt lat="42.2741280" lon="-4.4643570">
        <ele>775.8</ele>
        <time>2020-04-05T17:09:39Z</time>
      </trkpt>
      <trkpt lat="42.2743440" lon="-4.4646980">
        <ele>776.1</ele>
        <time>2020-04-05T17:09:41Z</time>
      </trkpt>
      <trkpt lat="42.2744160" lon="-4.4648120">
        <ele>776.1</ele>
        <time>2020-04-05T17:09:43Z</time>
      </trkpt>
      <trkpt lat="42.2744870" lon="-4.4649240">
        <ele>776.1</ele>
        <time>2020-04-05T17:09:45Z</time>
      </trkpt>
      <trkpt lat="42.2745590" lon="-4.4650380">
        <ele>776.1</ele>
        <time>2020-04-05T17:09:47Z</time>
      </trkpt>
      <trkpt lat="42.2746310" lon="-4.4651510">
        <ele>776.1</ele>
        <time>2020-04-05T17:09:49Z</time>
      </trkpt>
      <trkpt lat="42.2747020" lon="-4.4652640">
        <ele>776.1</ele>
        <time>2020-04-05T17:09:51Z</time>
      </trkpt>
      <trkpt lat="42.2749170" lon="-4.4656040">
        <ele>776.1</ele>
        <time>2020-04-05T17:09:53Z</time>
      </trkpt>
      <trkpt lat="42.2749890" lon="-4.4657170">
        <ele>776.1</ele>
        <time>2020-04-05T17:09:55Z</time>
      </trkpt>
      <trkpt lat="42.2750610" lon="-4.4658300">
        <ele>776.1</ele>
        <time>2020-04-05T17:09:57Z</time>
      </trkpt>
      <trkpt lat="42.2751330" lon="-4.4659430">
        <ele>776.1</ele>
        <time>2020-04-05T17:09:59Z</time>
      </trkpt>
      <trkpt lat="42.2752050" lon="-4.4660570">
        <ele>776.1</ele>
        <time>2020-04-05T17:10:01Z</time>
      </trkpt>
      <trkpt lat="42.2752770" lon="-4.4661720">
        <ele>776.1</ele>
        <time>2020-04-05T17:10:03Z</time>
      </trkpt>
      <trkpt lat="42.2754940" lon="-4.4665120">
        <ele>776.1</ele>
        <time>2020-04-05T17:10:05Z</time>
      </trkpt>
      <trkpt lat="42.2755670" lon="-4.4666270">
        <ele>776.1</ele>
        <time>2020-04-05T17:10:07Z</time>
      </trkpt>
      <trkpt lat="42.2756910" lon="-4.4668210">
        <ele>776.1</ele>
        <time>2020-04-05T17:10:09Z</time>
      </trkpt>
      <trkpt lat="42.2757640" lon="-4.4669350">
        <ele>776.1</ele>
        <time>2020-04-05T17:10:11Z</time>
      </trkpt>
      <trkpt lat="42.2758380" lon="-4.4670500">
        <ele>776.1</ele>
        <time>2020-04-05T17:10:13Z</time>
      </trkpt>
      <trkpt lat="42.2760040" lon="-4.4673130">
        <ele>776.1</ele>
        <time>2020-04-05T17:10:15Z</time>
      </trkpt>
      <trkpt lat="42.2760750" lon="-4.4674260">
        <ele>776.1</ele>
        <time>2020-04-05T17:10:17Z</time>
      </trkpt>
      <trkpt lat="42.2761440" lon="-4.4675380">
        <ele>776.1</ele>
        <time>2020-04-05T17:10:19Z</time>
      </trkpt>
      <trkpt lat="42.2762110" lon="-4.4676460">
        <ele>776.1</ele>
        <time>2020-04-05T17:10:21Z</time>
      </trkpt>
      <trkpt lat="42.2762770" lon="-4.4677520">
        <ele>776.1</ele>
        <time>2020-04-05T17:10:23Z</time>
      </trkpt>
      <trkpt lat="42.2763420" lon="-4.4678570">
        <ele>776.4</ele>
        <time>2020-04-05T17:10:25Z</time>
      </trkpt>
      <trkpt lat="42.2765490" lon="-4.4681880">
        <ele>778.4</ele>
        <time>2020-04-05T17:10:27Z</time>
      </trkpt>
      <trkpt lat="42.2766120" lon="-4.4682900">
        <ele>778.7</ele>
        <time>2020-04-05T17:10:29Z</time>
      </trkpt>
      <trkpt lat="42.2766740" lon="-4.4683890">
        <ele>778.8</ele>
        <time>2020-04-05T17:10:31Z</time>
      </trkpt>
      <trkpt lat="42.2767880" lon="-4.4685710">
        <ele>778.8</ele>
        <time>2020-04-05T17:10:33Z</time>
      </trkpt>
      <trkpt lat="42.2768530" lon="-4.4686720">
        <ele>778.8</ele>
        <time>2020-04-05T17:10:35Z</time>
      </trkpt>
      <trkpt lat="42.2769180" lon="-4.4687740">
        <ele>778.9</ele>
        <time>2020-04-05T17:10:37Z</time>
      </trkpt>
      <trkpt lat="42.2769840" lon="-4.4688780">
        <ele>779.2</ele>
        <time>2020-04-05T17:10:39Z</time>
      </trkpt>
      <trkpt lat="42.2771440" lon="-4.4691290">
        <ele>779.3</ele>
        <time>2020-04-05T17:10:41Z</time>
      </trkpt>
      <trkpt lat="42.2772120" lon="-4.4692350">
        <ele>779.2</ele>
        <time>2020-04-05T17:10:43Z</time>
      </trkpt>
      <trkpt lat="42.2772810" lon="-4.4693430">
        <ele>779.1</ele>
        <time>2020-04-05T17:10:45Z</time>
      </trkpt>
      <trkpt lat="42.2773500" lon="-4.4694510">
        <ele>779.0</ele>
        <time>2020-04-05T17:10:47Z</time>
      </trkpt>
      <trkpt lat="42.2775300" lon="-4.4697330">
        <ele>779.0</ele>
        <time>2020-04-05T17:10:49Z</time>
      </trkpt>
      <trkpt lat="42.2776000" lon="-4.4698430">
        <ele>779.0</ele>
        <time>2020-04-05T17:10:51Z</time>
      </trkpt>
      <trkpt lat="42.2777040" lon="-4.4700070">
        <ele>779.0</ele>
        <time>2020-04-05T17:10:53Z</time>
      </trkpt>
      <trkpt lat="42.2777750" lon="-4.4701190">
        <ele>779.0</ele>
        <time>2020-04-05T17:10:55Z</time>
      </trkpt>
      <trkpt lat="42.2778460" lon="-4.4702310">
        <ele>779.0</ele>
        <time>2020-04-05T17:10:57Z</time>
      </trkpt>
      <trkpt lat="42.2779170" lon="-4.4703430">
        <ele>779.0</ele>
        <time>2020-04-05T17:10:59Z</time>
      </trkpt>
      <trkpt lat="42.2779880" lon="-4.4704550">
        <ele>779.0</ele>
        <time>2020-04-05T17:11:01Z</time>
      </trkpt>
      <trkpt lat="42.2782040" lon="-4.4707960">
        <ele>779.0</ele>
        <time>2020-04-05T17:11:03Z</time>
      </trkpt>
      <trkpt lat="42.2782760" lon="-4.4709090">
        <ele>779.0</ele>
        <time>2020-04-05T17:11:05Z</time>
      </trkpt>
      <trkpt lat="42.2783480" lon="-4.4710230">
        <ele>779.0</ele>
        <time>2020-04-05T17:11:07Z</time>
      </trkpt>
      <trkpt lat="42.2784210" lon="-4.4711360">
        <ele>779.0</ele>
        <time>2020-04-05T17:11:09Z</time>
      </trkpt>
      <trkpt lat="42.2784930" lon="-4.4712510">
        <ele>779.0</ele>
        <time>2020-04-05T17:11:11Z</time>
      </trkpt>
      <trkpt lat="42.2785660" lon="-4.4713660">
        <ele>779.0</ele>
        <time>2020-04-05T17:11:13Z</time>
      </trkpt>
      <trkpt lat="42.2787820" lon="-4.4717060">
        <ele>779.0</ele>
        <time>2020-04-05T17:11:15Z</time>
      </trkpt>
      <trkpt lat="42.2788540" lon="-4.4718200">
        <ele>779.0</ele>
        <time>2020-04-05T17:11:17Z</time>
      </trkpt>
      <trkpt lat="42.2789250" lon="-4.4719320">
        <ele>779.0</ele>
        <time>2020-04-05T17:11:19Z</time>
      </trkpt>
      <trkpt lat="42.2789960" lon="-4.4720430">
        <ele>779.1</ele>
        <time>2020-04-05T17:11:21Z</time>
      </trkpt>
      <trkpt lat="42.2790660" lon="-4.4721540">
        <ele>779.3</ele>
        <time>2020-04-05T17:11:23Z</time>
      </trkpt>
      <trkpt lat="42.2791350" lon="-4.4722630">
        <ele>779.6</ele>
        <time>2020-04-05T17:11:25Z</time>
      </trkpt>
      <trkpt lat="42.2793480" lon="-4.4725990">
        <ele>780.0</ele>
        <time>2020-04-05T17:11:27Z</time>
      </trkpt>
      <trkpt lat="42.2794170" lon="-4.4727080">
        <ele>780.0</ele>
        <time>2020-04-05T17:11:29Z</time>
      </trkpt>
      <trkpt lat="42.2794860" lon="-4.4728160">
        <ele>780.0</ele>
        <time>2020-04-05T17:11:31Z</time>
      </trkpt>
      <trkpt lat="42.2795540" lon="-4.4729240">
        <ele>780.0</ele>
        <time>2020-04-05T17:11:33Z</time>
      </trkpt>
      <trkpt lat="42.2796220" lon="-4.4730310">
        <ele>780.0</ele>
        <time>2020-04-05T17:11:35Z</time>
      </trkpt>
      <trkpt lat="42.2796900" lon="-4.4731380">
        <ele>780.1</ele>
        <time>2020-04-05T17:11:37Z</time>
      </trkpt>
      <trkpt lat="42.2799010" lon="-4.4734710">
        <ele>780.8</ele>
        <time>2020-04-05T17:11:39Z</time>
      </trkpt>
      <trkpt lat="42.2799690" lon="-4.4735780">
        <ele>780.9</ele>
        <time>2020-04-05T17:11:41Z</time>
      </trkpt>
      <trkpt lat="42.2800370" lon="-4.4736850">
        <ele>781.0</ele>
        <time>2020-04-05T17:11:43Z</time>
      </trkpt>
      <trkpt lat="42.2801050" lon="-4.4737930">
        <ele>781.0</ele>
        <time>2020-04-05T17:11:45Z</time>
      </trkpt>
      <trkpt lat="42.2801740" lon="-4.4739010">
        <ele>781.0</ele>
        <time>2020-04-05T17:11:47Z</time>
      </trkpt>
      <trkpt lat="42.2802430" lon="-4.4740100">
        <ele>781.0</ele>
        <time>2020-04-05T17:11:49Z</time>
      </trkpt>
      <trkpt lat="42.2804690" lon="-4.4743650">
        <ele>781.0</ele>
        <time>2020-04-05T17:11:51Z</time>
      </trkpt>
      <trkpt lat="42.2805390" lon="-4.4744750">
        <ele>781.0</ele>
        <time>2020-04-05T17:11:53Z</time>
      </trkpt>
      <trkpt lat="42.2806100" lon="-4.4745850">
        <ele>781.0</ele>
        <time>2020-04-05T17:11:55Z</time>
      </trkpt>
      <trkpt lat="42.2806820" lon="-4.4746980">
        <ele>781.0</ele>
        <time>2020-04-05T17:11:57Z</time>
      </trkpt>
      <trkpt lat="42.2807540" lon="-4.4748110">
        <ele>781.0</ele>
        <time>2020-04-05T17:11:59Z</time>
      </trkpt>
      <trkpt lat="42.2809600" lon="-4.4751320">
        <ele>781.0</ele>
        <time>2020-04-05T17:12:01Z</time>
      </trkpt>
      <trkpt lat="42.2810330" lon="-4.4752470">
        <ele>781.0</ele>
        <time>2020-04-05T17:12:03Z</time>
      </trkpt>
      <trkpt lat="42.2811060" lon="-4.4753630">
        <ele>781.0</ele>
        <time>2020-04-05T17:12:05Z</time>
      </trkpt>
      <trkpt lat="42.2812540" lon="-4.4755960">
        <ele>781.0</ele>
        <time>2020-04-05T17:12:07Z</time>
      </trkpt>
      <trkpt lat="42.2813280" lon="-4.4757130">
        <ele>781.0</ele>
        <time>2020-04-05T17:12:09Z</time>
      </trkpt>
      <trkpt lat="42.2814010" lon="-4.4758290">
        <ele>781.0</ele>
        <time>2020-04-05T17:12:11Z</time>
      </trkpt>
      <trkpt lat="42.2815350" lon="-4.4760420">
        <ele>780.9</ele>
        <time>2020-04-05T17:12:13Z</time>
      </trkpt>
      <trkpt lat="42.2816060" lon="-4.4761550">
        <ele>780.8</ele>
        <time>2020-04-05T17:12:15Z</time>
      </trkpt>
      <trkpt lat="42.2816770" lon="-4.4762690">
        <ele>780.6</ele>
        <time>2020-04-05T17:12:17Z</time>
      </trkpt>
      <trkpt lat="42.2817470" lon="-4.4763810">
        <ele>780.4</ele>
        <time>2020-04-05T17:12:19Z</time>
      </trkpt>
      <trkpt lat="42.2818180" lon="-4.4764930">
        <ele>780.2</ele>
        <time>2020-04-05T17:12:21Z</time>
      </trkpt>
      <trkpt lat="42.2820220" lon="-4.4768180">
        <ele>780.1</ele>
        <time>2020-04-05T17:12:23Z</time>
      </trkpt>
      <trkpt lat="42.2820920" lon="-4.4769300">
        <ele>780.1</ele>
        <time>2020-04-05T17:12:25Z</time>
      </trkpt>
      <trkpt lat="42.2821610" lon="-4.4770400">
        <ele>780.1</ele>
        <time>2020-04-05T17:12:27Z</time>
      </trkpt>
      <trkpt lat="42.2822310" lon="-4.4771510">
        <ele>780.1</ele>
        <time>2020-04-05T17:12:29Z</time>
      </trkpt>
      <trkpt lat="42.2823000" lon="-4.4772610">
        <ele>780.2</ele>
        <time>2020-04-05T17:12:31Z</time>
      </trkpt>
      <trkpt lat="42.2823690" lon="-4.4773710">
        <ele>780.4</ele>
        <time>2020-04-05T17:12:33Z</time>
      </trkpt>
      <trkpt lat="42.2825720" lon="-4.4776940">
        <ele>781.0</ele>
        <time>2020-04-05T17:12:35Z</time>
      </trkpt>
      <trkpt lat="42.2826410" lon="-4.4778030">
        <ele>781.1</ele>
        <time>2020-04-05T17:12:37Z</time>
      </trkpt>
      <trkpt lat="42.2827100" lon="-4.4779120">
        <ele>781.2</ele>
        <time>2020-04-05T17:12:39Z</time>
      </trkpt>
      <trkpt lat="42.2827790" lon="-4.4780220">
        <ele>781.3</ele>
        <time>2020-04-05T17:12:41Z</time>
      </trkpt>
      <trkpt lat="42.2828470" lon="-4.4781310">
        <ele>781.5</ele>
        <time>2020-04-05T17:12:43Z</time>
      </trkpt>
      <trkpt lat="42.2830500" lon="-4.4784540">
        <ele>782.0</ele>
        <time>2020-04-05T17:12:45Z</time>
      </trkpt>
      <trkpt lat="42.2831190" lon="-4.4785630">
        <ele>782.1</ele>
        <time>2020-04-05T17:12:47Z</time>
      </trkpt>
      <trkpt lat="42.2831870" lon="-4.4786710">
        <ele>782.2</ele>
        <time>2020-04-05T17:12:49Z</time>
      </trkpt>
      <trkpt lat="42.2833260" lon="-4.4788920">
        <ele>782.2</ele>
        <time>2020-04-05T17:12:51Z</time>
      </trkpt>
      <trkpt lat="42.2833960" lon="-4.4789990">
        <ele>782.2</ele>
        <time>2020-04-05T17:12:53Z</time>
      </trkpt>
      <trkpt lat="42.2834650" lon="-4.4791060">
        <ele>782.2</ele>
        <time>2020-04-05T17:12:55Z</time>
      </trkpt>
      <trkpt lat="42.2835390" lon="-4.4793750">
        <ele>782.4</ele>
        <time>2020-04-05T17:12:57Z</time>
      </trkpt>
      <trkpt lat="42.2836310" lon="-4.4794940">
        <ele>782.5</ele>
        <time>2020-04-05T17:12:59Z</time>
      </trkpt>
      <trkpt lat="42.2837240" lon="-4.4796140">
        <ele>782.7</ele>
        <time>2020-04-05T17:13:01Z</time>
      </trkpt>
      <trkpt lat="42.2837980" lon="-4.4797090">
        <ele>782.8</ele>
        <time>2020-04-05T17:13:03Z</time>
      </trkpt>
      <trkpt lat="42.2839270" lon="-4.4798750">
        <ele>783.2</ele>
        <time>2020-04-05T17:13:05Z</time>
      </trkpt>
      <trkpt lat="42.2839990" lon="-4.4799670">
        <ele>783.4</ele>
        <time>2020-04-05T17:13:07Z</time>
      </trkpt>
      <trkpt lat="42.2841360" lon="-4.4801440">
        <ele>783.9</ele>
        <time>2020-04-05T17:13:09Z</time>
      </trkpt>
      <trkpt lat="42.2842250" lon="-4.4802630">
        <ele>784.3</ele>
        <time>2020-04-05T17:13:11Z</time>
      </trkpt>
      <trkpt lat="42.2843160" lon="-4.4803730">
        <ele>784.7</ele>
        <time>2020-04-05T17:13:13Z</time>
      </trkpt>
      <trkpt lat="42.2843910" lon="-4.4804610">
        <ele>784.8</ele>
        <time>2020-04-05T17:13:15Z</time>
      </trkpt>
      <trkpt lat="42.2844670" lon="-4.4805500">
        <ele>784.9</ele>
        <time>2020-04-05T17:13:17Z</time>
      </trkpt>
      <trkpt lat="42.2845430" lon="-4.4806400">
        <ele>785.0</ele>
        <time>2020-04-05T17:13:19Z</time>
      </trkpt>
      <trkpt lat="42.2846200" lon="-4.4807300">
        <ele>785.1</ele>
        <time>2020-04-05T17:13:21Z</time>
      </trkpt>
      <trkpt lat="42.2848310" lon="-4.4809770">
        <ele>785.4</ele>
        <time>2020-04-05T17:13:23Z</time>
      </trkpt>
      <trkpt lat="42.2849100" lon="-4.4810680">
        <ele>785.4</ele>
        <time>2020-04-05T17:13:25Z</time>
      </trkpt>
      <trkpt lat="42.2850570" lon="-4.4812410">
        <ele>785.4</ele>
        <time>2020-04-05T17:13:27Z</time>
      </trkpt>
      <trkpt lat="42.2851350" lon="-4.4814110">
        <ele>785.4</ele>
        <time>2020-04-05T17:13:29Z</time>
      </trkpt>
      <trkpt lat="42.2852050" lon="-4.4815690">
        <ele>785.3</ele>
        <time>2020-04-05T17:13:31Z</time>
      </trkpt>
      <trkpt lat="42.2853060" lon="-4.4816910">
        <ele>785.1</ele>
        <time>2020-04-05T17:13:33Z</time>
      </trkpt>
      <trkpt lat="42.2854360" lon="-4.4818200">
        <ele>785.0</ele>
        <time>2020-04-05T17:13:35Z</time>
      </trkpt>
      <trkpt lat="42.2855330" lon="-4.4819110">
        <ele>784.9</ele>
        <time>2020-04-05T17:13:37Z</time>
      </trkpt>
      <trkpt lat="42.2857110" lon="-4.4820780">
        <ele>784.9</ele>
        <time>2020-04-05T17:13:39Z</time>
      </trkpt>
      <trkpt lat="42.2858330" lon="-4.4821920">
        <ele>784.8</ele>
        <time>2020-04-05T17:13:41Z</time>
      </trkpt>
      <trkpt lat="42.2859360" lon="-4.4822890">
        <ele>784.8</ele>
        <time>2020-04-05T17:13:43Z</time>
      </trkpt>
      <trkpt lat="42.2860420" lon="-4.4823880">
        <ele>784.6</ele>
        <time>2020-04-05T17:13:45Z</time>
      </trkpt>
      <trkpt lat="42.2862600" lon="-4.4826050">
        <ele>784.3</ele>
        <time>2020-04-05T17:13:47Z</time>
      </trkpt>
      <trkpt lat="42.2864010" lon="-4.4827760">
        <ele>783.9</ele>
        <time>2020-04-05T17:13:49Z</time>
      </trkpt>
      <trkpt lat="42.2865350" lon="-4.4829690">
        <ele>783.4</ele>
        <time>2020-04-05T17:13:51Z</time>
      </trkpt>
      <trkpt lat="42.2866270" lon="-4.4831060">
        <ele>783.2</ele>
        <time>2020-04-05T17:13:53Z</time>
      </trkpt>
      <trkpt lat="42.2867180" lon="-4.4832430">
        <ele>782.9</ele>
        <time>2020-04-05T17:13:55Z</time>
      </trkpt>
      <trkpt lat="42.2868090" lon="-4.4833810">
        <ele>782.9</ele>
        <time>2020-04-05T17:13:57Z</time>
      </trkpt>
      <trkpt lat="42.2870220" lon="-4.4836990">
        <ele>782.9</ele>
        <time>2020-04-05T17:13:59Z</time>
      </trkpt>
      <trkpt lat="42.2871560" lon="-4.4838870">
        <ele>782.9</ele>
        <time>2020-04-05T17:14:01Z</time>
      </trkpt>
      <trkpt lat="42.2872640" lon="-4.4840430">
        <ele>782.9</ele>
        <time>2020-04-05T17:14:03Z</time>
      </trkpt>
      <trkpt lat="42.2873550" lon="-4.4841770">
        <ele>783.1</ele>
        <time>2020-04-05T17:14:05Z</time>
      </trkpt>
      <trkpt lat="42.2874450" lon="-4.4843070">
        <ele>783.2</ele>
        <time>2020-04-05T17:14:07Z</time>
      </trkpt>
      <trkpt lat="42.2876200" lon="-4.4845630">
        <ele>783.7</ele>
        <time>2020-04-05T17:14:09Z</time>
      </trkpt>
      <trkpt lat="42.2877080" lon="-4.4846910">
        <ele>783.7</ele>
        <time>2020-04-05T17:14:11Z</time>
      </trkpt>
      <trkpt lat="42.2877950" lon="-4.4848170">
        <ele>783.6</ele>
        <time>2020-04-05T17:14:13Z</time>
      </trkpt>
      <trkpt lat="42.2879950" lon="-4.4851100">
        <ele>783.3</ele>
        <time>2020-04-05T17:14:15Z</time>
      </trkpt>
      <trkpt lat="42.2881070" lon="-4.4852730">
        <ele>783.5</ele>
        <time>2020-04-05T17:14:17Z</time>
      </trkpt>
      <trkpt lat="42.2882040" lon="-4.4854150">
        <ele>783.6</ele>
        <time>2020-04-05T17:14:19Z</time>
      </trkpt>
      <trkpt lat="42.2882900" lon="-4.4855400">
        <ele>783.5</ele>
        <time>2020-04-05T17:14:21Z</time>
      </trkpt>
      <trkpt lat="42.2883770" lon="-4.4856670">
        <ele>783.3</ele>
        <time>2020-04-05T17:14:23Z</time>
      </trkpt>
      <trkpt lat="42.2884640" lon="-4.4857930">
        <ele>783.1</ele>
        <time>2020-04-05T17:14:25Z</time>
      </trkpt>
      <trkpt lat="42.2885530" lon="-4.4859220">
        <ele>782.9</ele>
        <time>2020-04-05T17:14:27Z</time>
      </trkpt>
      <trkpt lat="42.2887940" lon="-4.4862740">
        <ele>782.4</ele>
        <time>2020-04-05T17:14:29Z</time>
      </trkpt>
      <trkpt lat="42.2888830" lon="-4.4864030">
        <ele>782.3</ele>
        <time>2020-04-05T17:14:31Z</time>
      </trkpt>
      <trkpt lat="42.2889720" lon="-4.4865340">
        <ele>782.2</ele>
        <time>2020-04-05T17:14:33Z</time>
      </trkpt>
      <trkpt lat="42.2890620" lon="-4.4866640">
        <ele>782.1</ele>
        <time>2020-04-05T17:14:35Z</time>
      </trkpt>
      <trkpt lat="42.2893060" lon="-4.4870190">
        <ele>782.2</ele>
        <time>2020-04-05T17:14:37Z</time>
      </trkpt>
      <trkpt lat="42.2893960" lon="-4.4871500">
        <ele>782.4</ele>
        <time>2020-04-05T17:14:39Z</time>
      </trkpt>
      <trkpt lat="42.2894850" lon="-4.4872800">
        <ele>782.4</ele>
        <time>2020-04-05T17:14:41Z</time>
      </trkpt>
      <trkpt lat="42.2895740" lon="-4.4874090">
        <ele>782.3</ele>
        <time>2020-04-05T17:14:43Z</time>
      </trkpt>
      <trkpt lat="42.2896620" lon="-4.4875370">
        <ele>782.2</ele>
        <time>2020-04-05T17:14:45Z</time>
      </trkpt>
      <trkpt lat="42.2899060" lon="-4.4878930">
        <ele>782.8</ele>
        <time>2020-04-05T17:14:47Z</time>
      </trkpt>
      <trkpt lat="42.2899940" lon="-4.4880200">
        <ele>783.0</ele>
        <time>2020-04-05T17:14:49Z</time>
      </trkpt>
      <trkpt lat="42.2900800" lon="-4.4881450">
        <ele>783.1</ele>
        <time>2020-04-05T17:14:51Z</time>
      </trkpt>
      <trkpt lat="42.2901670" lon="-4.4882710">
        <ele>783.0</ele>
        <time>2020-04-05T17:14:53Z</time>
      </trkpt>
      <trkpt lat="42.2902530" lon="-4.4883970">
        <ele>782.8</ele>
        <time>2020-04-05T17:14:55Z</time>
      </trkpt>
      <trkpt lat="42.2903380" lon="-4.4885210">
        <ele>782.7</ele>
        <time>2020-04-05T17:14:57Z</time>
      </trkpt>
      <trkpt lat="42.2905810" lon="-4.4888730">
        <ele>782.7</ele>
        <time>2020-04-05T17:14:59Z</time>
      </trkpt>
      <trkpt lat="42.2906650" lon="-4.4889950">
        <ele>782.8</ele>
        <time>2020-04-05T17:15:01Z</time>
      </trkpt>
      <trkpt lat="42.2907470" lon="-4.4891140">
        <ele>783.0</ele>
        <time>2020-04-05T17:15:03Z</time>
      </trkpt>
      <trkpt lat="42.2908280" lon="-4.4892320">
        <ele>783.3</ele>
        <time>2020-04-05T17:15:05Z</time>
      </trkpt>
      <trkpt lat="42.2909090" lon="-4.4893490">
        <ele>783.7</ele>
        <time>2020-04-05T17:15:07Z</time>
      </trkpt>
      <trkpt lat="42.2911460" lon="-4.4896930">
        <ele>784.5</ele>
        <time>2020-04-05T17:15:09Z</time>
      </trkpt>
      <trkpt lat="42.2912240" lon="-4.4898070">
        <ele>784.3</ele>
        <time>2020-04-05T17:15:11Z</time>
      </trkpt>
      <trkpt lat="42.2913030" lon="-4.4899220">
        <ele>784.1</ele>
        <time>2020-04-05T17:15:13Z</time>
      </trkpt>
      <trkpt lat="42.2913810" lon="-4.4900340">
        <ele>784.1</ele>
        <time>2020-04-05T17:15:15Z</time>
      </trkpt>
      <trkpt lat="42.2914580" lon="-4.4901470">
        <ele>784.2</ele>
        <time>2020-04-05T17:15:17Z</time>
      </trkpt>
      <trkpt lat="42.2916730" lon="-4.4904580">
        <ele>784.0</ele>
        <time>2020-04-05T17:15:19Z</time>
      </trkpt>
      <trkpt lat="42.2917700" lon="-4.4905990">
        <ele>783.9</ele>
        <time>2020-04-05T17:15:21Z</time>
      </trkpt>
      <trkpt lat="42.2918480" lon="-4.4907120">
        <ele>784.0</ele>
        <time>2020-04-05T17:15:23Z</time>
      </trkpt>
      <trkpt lat="42.2919270" lon="-4.4908270">
        <ele>784.2</ele>
        <time>2020-04-05T17:15:25Z</time>
      </trkpt>
      <trkpt lat="42.2920880" lon="-4.4910600">
        <ele>784.8</ele>
        <time>2020-04-05T17:15:27Z</time>
      </trkpt>
      <trkpt lat="42.2921670" lon="-4.4911750">
        <ele>784.7</ele>
        <time>2020-04-05T17:15:29Z</time>
      </trkpt>
      <trkpt lat="42.2923230" lon="-4.4914020">
        <ele>784.5</ele>
        <time>2020-04-05T17:15:31Z</time>
      </trkpt>
      <trkpt lat="42.2924050" lon="-4.4915200">
        <ele>784.4</ele>
        <time>2020-04-05T17:15:33Z</time>
      </trkpt>
      <trkpt lat="42.2924870" lon="-4.4916390">
        <ele>784.4</ele>
        <time>2020-04-05T17:15:35Z</time>
      </trkpt>
      <trkpt lat="42.2925700" lon="-4.4917610">
        <ele>784.4</ele>
        <time>2020-04-05T17:15:37Z</time>
      </trkpt>
      <trkpt lat="42.2926550" lon="-4.4918830">
        <ele>784.5</ele>
        <time>2020-04-05T17:15:39Z</time>
      </trkpt>
      <trkpt lat="42.2928780" lon="-4.4922080">
        <ele>784.5</ele>
        <time>2020-04-05T17:15:41Z</time>
      </trkpt>
      <trkpt lat="42.2929820" lon="-4.4923580">
        <ele>784.5</ele>
        <time>2020-04-05T17:15:43Z</time>
      </trkpt>
      <trkpt lat="42.2930930" lon="-4.4925210">
        <ele>784.4</ele>
        <time>2020-04-05T17:15:45Z</time>
      </trkpt>
      <trkpt lat="42.2931770" lon="-4.4926430">
        <ele>784.5</ele>
        <time>2020-04-05T17:15:47Z</time>
      </trkpt>
      <trkpt lat="42.2932600" lon="-4.4927630">
        <ele>784.7</ele>
        <time>2020-04-05T17:15:49Z</time>
      </trkpt>
      <trkpt lat="42.2933420" lon="-4.4928820">
        <ele>784.8</ele>
        <time>2020-04-05T17:15:51Z</time>
      </trkpt>
      <trkpt lat="42.2935530" lon="-4.4931890">
        <ele>784.7</ele>
        <time>2020-04-05T17:15:53Z</time>
      </trkpt>
      <trkpt lat="42.2936330" lon="-4.4933050">
        <ele>784.5</ele>
        <time>2020-04-05T17:15:55Z</time>
      </trkpt>
      <trkpt lat="42.2937590" lon="-4.4934880">
        <ele>784.6</ele>
        <time>2020-04-05T17:15:57Z</time>
      </trkpt>
      <trkpt lat="42.2938380" lon="-4.4936020">
        <ele>784.6</ele>
        <time>2020-04-05T17:15:59Z</time>
      </trkpt>
      <trkpt lat="42.2939160" lon="-4.4937160">
        <ele>784.9</ele>
        <time>2020-04-05T17:16:01Z</time>
      </trkpt>
      <trkpt lat="42.2940740" lon="-4.4939460">
        <ele>785.3</ele>
        <time>2020-04-05T17:16:03Z</time>
      </trkpt>
      <trkpt lat="42.2941780" lon="-4.4940980">
        <ele>785.7</ele>
        <time>2020-04-05T17:16:05Z</time>
      </trkpt>
      <trkpt lat="42.2942540" lon="-4.4942080">
        <ele>786.0</ele>
        <time>2020-04-05T17:16:07Z</time>
      </trkpt>
      <trkpt lat="42.2943300" lon="-4.4943190">
        <ele>786.1</ele>
        <time>2020-04-05T17:16:09Z</time>
      </trkpt>
      <trkpt lat="42.2944060" lon="-4.4944290">
        <ele>786.2</ele>
        <time>2020-04-05T17:16:11Z</time>
      </trkpt>
      <trkpt lat="42.2946000" lon="-4.4947110">
        <ele>786.2</ele>
        <time>2020-04-05T17:16:13Z</time>
      </trkpt>
      <trkpt lat="42.2946750" lon="-4.4948200">
        <ele>786.3</ele>
        <time>2020-04-05T17:16:15Z</time>
      </trkpt>
      <trkpt lat="42.2947870" lon="-4.4949840">
        <ele>786.5</ele>
        <time>2020-04-05T17:16:17Z</time>
      </trkpt>
      <trkpt lat="42.2948620" lon="-4.4950920">
        <ele>786.7</ele>
        <time>2020-04-05T17:16:19Z</time>
      </trkpt>
      <trkpt lat="42.2949370" lon="-4.4952010">
        <ele>786.9</ele>
        <time>2020-04-05T17:16:21Z</time>
      </trkpt>
      <trkpt lat="42.2950110" lon="-4.4953090">
        <ele>787.0</ele>
        <time>2020-04-05T17:16:23Z</time>
      </trkpt>
      <trkpt lat="42.2950850" lon="-4.4954160">
        <ele>787.0</ele>
        <time>2020-04-05T17:16:25Z</time>
      </trkpt>
      <trkpt lat="42.2951580" lon="-4.4955230">
        <ele>787.0</ele>
        <time>2020-04-05T17:16:27Z</time>
      </trkpt>
      <trkpt lat="42.2953890" lon="-4.4958570">
        <ele>787.5</ele>
        <time>2020-04-05T17:16:29Z</time>
      </trkpt>
      <trkpt lat="42.2955080" lon="-4.4960300">
        <ele>787.9</ele>
        <time>2020-04-05T17:16:31Z</time>
      </trkpt>
      <trkpt lat="42.2955820" lon="-4.4961380">
        <ele>788.4</ele>
        <time>2020-04-05T17:16:33Z</time>
      </trkpt>
      <trkpt lat="42.2956570" lon="-4.4962460">
        <ele>788.7</ele>
        <time>2020-04-05T17:16:35Z</time>
      </trkpt>
      <trkpt lat="42.2957310" lon="-4.4963550">
        <ele>788.7</ele>
        <time>2020-04-05T17:16:37Z</time>
      </trkpt>
      <trkpt lat="42.2958060" lon="-4.4964630">
        <ele>788.7</ele>
        <time>2020-04-05T17:16:39Z</time>
      </trkpt>
      <trkpt lat="42.2959920" lon="-4.4967340">
        <ele>788.7</ele>
        <time>2020-04-05T17:16:41Z</time>
      </trkpt>
      <trkpt lat="42.2960660" lon="-4.4968420">
        <ele>788.8</ele>
        <time>2020-04-05T17:16:43Z</time>
      </trkpt>
      <trkpt lat="42.2961400" lon="-4.4969500">
        <ele>788.9</ele>
        <time>2020-04-05T17:16:45Z</time>
      </trkpt>
      <trkpt lat="42.2962130" lon="-4.4970570">
        <ele>789.1</ele>
        <time>2020-04-05T17:16:47Z</time>
      </trkpt>
      <trkpt lat="42.2964010" lon="-4.4973310">
        <ele>789.5</ele>
        <time>2020-04-05T17:16:49Z</time>
      </trkpt>
      <trkpt lat="42.2964750" lon="-4.4974390">
        <ele>789.7</ele>
        <time>2020-04-05T17:16:51Z</time>
      </trkpt>
      <trkpt lat="42.2965490" lon="-4.4975470">
        <ele>790.0</ele>
        <time>2020-04-05T17:16:53Z</time>
      </trkpt>
      <trkpt lat="42.2966210" lon="-4.4976530">
        <ele>790.1</ele>
        <time>2020-04-05T17:16:55Z</time>
      </trkpt>
      <trkpt lat="42.2968090" lon="-4.4979260">
        <ele>790.3</ele>
        <time>2020-04-05T17:16:57Z</time>
      </trkpt>
      <trkpt lat="42.2968840" lon="-4.4980350">
        <ele>790.3</ele>
        <time>2020-04-05T17:16:59Z</time>
      </trkpt>
      <trkpt lat="42.2969600" lon="-4.4981460">
        <ele>790.2</ele>
        <time>2020-04-05T17:17:01Z</time>
      </trkpt>
      <trkpt lat="42.2970380" lon="-4.4982590">
        <ele>790.2</ele>
        <time>2020-04-05T17:17:03Z</time>
      </trkpt>
      <trkpt lat="42.2971180" lon="-4.4983750">
        <ele>790.1</ele>
        <time>2020-04-05T17:17:05Z</time>
      </trkpt>
      <trkpt lat="42.2973090" lon="-4.4986640">
        <ele>789.9</ele>
        <time>2020-04-05T17:17:07Z</time>
      </trkpt>
      <trkpt lat="42.2973850" lon="-4.4987900">
        <ele>789.7</ele>
        <time>2020-04-05T17:17:09Z</time>
      </trkpt>
      <trkpt lat="42.2974620" lon="-4.4989180">
        <ele>789.4</ele>
        <time>2020-04-05T17:17:11Z</time>
      </trkpt>
      <trkpt lat="42.2976340" lon="-4.4992010">
        <ele>788.8</ele>
        <time>2020-04-05T17:17:13Z</time>
      </trkpt>
      <trkpt lat="42.2977420" lon="-4.4993530">
        <ele>788.8</ele>
        <time>2020-04-05T17:17:15Z</time>
      </trkpt>
      <trkpt lat="42.2978640" lon="-4.4995220">
        <ele>788.7</ele>
        <time>2020-04-05T17:17:17Z</time>
      </trkpt>
      <trkpt lat="42.2979550" lon="-4.4996780">
        <ele>788.7</ele>
        <time>2020-04-05T17:17:19Z</time>
      </trkpt>
      <trkpt lat="42.2980320" lon="-4.4998120">
        <ele>788.8</ele>
        <time>2020-04-05T17:17:21Z</time>
      </trkpt>
      <trkpt lat="42.2981860" lon="-4.5000810">
        <ele>788.6</ele>
        <time>2020-04-05T17:17:23Z</time>
      </trkpt>
      <trkpt lat="42.2982720" lon="-4.5002440">
        <ele>788.6</ele>
        <time>2020-04-05T17:17:25Z</time>
      </trkpt>
      <trkpt lat="42.2983820" lon="-4.5004600">
        <ele>788.4</ele>
        <time>2020-04-05T17:17:27Z</time>
      </trkpt>
      <trkpt lat="42.2984790" lon="-4.5006560">
        <ele>788.1</ele>
        <time>2020-04-05T17:17:29Z</time>
      </trkpt>
      <trkpt lat="42.2985720" lon="-4.5008520">
        <ele>787.6</ele>
        <time>2020-04-05T17:17:31Z</time>
      </trkpt>
      <trkpt lat="42.2986460" lon="-4.5010080">
        <ele>787.3</ele>
        <time>2020-04-05T17:17:33Z</time>
      </trkpt>
      <trkpt lat="42.2987690" lon="-4.5012720">
        <ele>787.8</ele>
        <time>2020-04-05T17:17:35Z</time>
      </trkpt>
      <trkpt lat="42.2988390" lon="-4.5014260">
        <ele>788.1</ele>
        <time>2020-04-05T17:17:37Z</time>
      </trkpt>
      <trkpt lat="42.2989090" lon="-4.5015790">
        <ele>788.3</ele>
        <time>2020-04-05T17:17:39Z</time>
      </trkpt>
      <trkpt lat="42.2990510" lon="-4.5018890">
        <ele>789.0</ele>
        <time>2020-04-05T17:17:41Z</time>
      </trkpt>
      <trkpt lat="42.2991200" lon="-4.5020400">
        <ele>789.1</ele>
        <time>2020-04-05T17:17:43Z</time>
      </trkpt>
      <trkpt lat="42.2991880" lon="-4.5021900">
        <ele>789.1</ele>
        <time>2020-04-05T17:17:45Z</time>
      </trkpt>
      <trkpt lat="42.2993340" lon="-4.5025150">
        <ele>788.7</ele>
        <time>2020-04-05T17:17:47Z</time>
      </trkpt>
      <trkpt lat="42.2993990" lon="-4.5026700">
        <ele>788.3</ele>
        <time>2020-04-05T17:17:49Z</time>
      </trkpt>
      <trkpt lat="42.2994650" lon="-4.5028260">
        <ele>788.2</ele>
        <time>2020-04-05T17:17:51Z</time>
      </trkpt>
      <trkpt lat="42.2995320" lon="-4.5029850">
        <ele>788.1</ele>
        <time>2020-04-05T17:17:53Z</time>
      </trkpt>
      <trkpt lat="42.2995990" lon="-4.5031440">
        <ele>788.1</ele>
        <time>2020-04-05T17:17:55Z</time>
      </trkpt>
      <trkpt lat="42.2997750" lon="-4.5035620">
        <ele>788.1</ele>
        <time>2020-04-05T17:17:57Z</time>
      </trkpt>
      <trkpt lat="42.2998430" lon="-4.5037250">
        <ele>788.1</ele>
        <time>2020-04-05T17:17:59Z</time>
      </trkpt>
      <trkpt lat="42.2999120" lon="-4.5038890">
        <ele>788.1</ele>
        <time>2020-04-05T17:18:01Z</time>
      </trkpt>
      <trkpt lat="42.2999810" lon="-4.5040520">
        <ele>788.1</ele>
        <time>2020-04-05T17:18:03Z</time>
      </trkpt>
      <trkpt lat="42.3001580" lon="-4.5044740">
        <ele>788.1</ele>
        <time>2020-04-05T17:18:05Z</time>
      </trkpt>
      <trkpt lat="42.3002270" lon="-4.5046380">
        <ele>788.1</ele>
        <time>2020-04-05T17:18:07Z</time>
      </trkpt>
      <trkpt lat="42.3002940" lon="-4.5047970">
        <ele>788.1</ele>
        <time>2020-04-05T17:18:09Z</time>
      </trkpt>
      <trkpt lat="42.3003600" lon="-4.5049550">
        <ele>788.0</ele>
        <time>2020-04-05T17:18:11Z</time>
      </trkpt>
      <trkpt lat="42.3005270" lon="-4.5053510">
        <ele>787.0</ele>
        <time>2020-04-05T17:18:13Z</time>
      </trkpt>
      <trkpt lat="42.3005990" lon="-4.5055220">
        <ele>786.8</ele>
        <time>2020-04-05T17:18:15Z</time>
      </trkpt>
      <trkpt lat="42.3006630" lon="-4.5056750">
        <ele>786.7</ele>
        <time>2020-04-05T17:18:17Z</time>
      </trkpt>
      <trkpt lat="42.3007260" lon="-4.5058270">
        <ele>786.5</ele>
        <time>2020-04-05T17:18:19Z</time>
      </trkpt>
      <trkpt lat="42.3008660" lon="-4.5061610">
        <ele>786.1</ele>
        <time>2020-04-05T17:18:21Z</time>
      </trkpt>
      <trkpt lat="42.3009290" lon="-4.5063090">
        <ele>786.1</ele>
        <time>2020-04-05T17:18:23Z</time>
      </trkpt>
      <trkpt lat="42.3010220" lon="-4.5065300">
        <ele>786.5</ele>
        <time>2020-04-05T17:18:25Z</time>
      </trkpt>
      <trkpt lat="42.3010850" lon="-4.5066800">
        <ele>786.9</ele>
        <time>2020-04-05T17:18:27Z</time>
      </trkpt>
      <trkpt lat="42.3011480" lon="-4.5068300">
        <ele>787.0</ele>
        <time>2020-04-05T17:18:29Z</time>
      </trkpt>
      <trkpt lat="42.3012100" lon="-4.5069780">
        <ele>787.0</ele>
        <time>2020-04-05T17:18:31Z</time>
      </trkpt>
      <trkpt lat="42.3012690" lon="-4.5071180">
        <ele>787.0</ele>
        <time>2020-04-05T17:18:33Z</time>
      </trkpt>
      <trkpt lat="42.3014320" lon="-4.5075060">
        <ele>787.0</ele>
        <time>2020-04-05T17:18:35Z</time>
      </trkpt>
      <trkpt lat="42.3014840" lon="-4.5076280">
        <ele>787.2</ele>
        <time>2020-04-05T17:18:37Z</time>
      </trkpt>
      <trkpt lat="42.3015330" lon="-4.5077450">
        <ele>787.4</ele>
        <time>2020-04-05T17:18:39Z</time>
      </trkpt>
      <trkpt lat="42.3015780" lon="-4.5078520">
        <ele>787.7</ele>
        <time>2020-04-05T17:18:41Z</time>
      </trkpt>
      <trkpt lat="42.3016200" lon="-4.5079530">
        <ele>787.9</ele>
        <time>2020-04-05T17:18:43Z</time>
      </trkpt>
      <trkpt lat="42.3016610" lon="-4.5080500">
        <ele>787.9</ele>
        <time>2020-04-05T17:18:45Z</time>
      </trkpt>
      <trkpt lat="42.3018090" lon="-4.5084020">
        <ele>787.9</ele>
        <time>2020-04-05T17:18:47Z</time>
      </trkpt>
      <trkpt lat="42.3018530" lon="-4.5085060">
        <ele>787.9</ele>
        <time>2020-04-05T17:18:49Z</time>
      </trkpt>
      <trkpt lat="42.3018990" lon="-4.5086160">
        <ele>787.9</ele>
        <time>2020-04-05T17:18:51Z</time>
      </trkpt>
      <trkpt lat="42.3019480" lon="-4.5087300">
        <ele>787.9</ele>
        <time>2020-04-05T17:18:53Z</time>
      </trkpt>
      <trkpt lat="42.3020620" lon="-4.5090010">
        <ele>787.9</ele>
        <time>2020-04-05T17:18:55Z</time>
      </trkpt>
      <trkpt lat="42.3021130" lon="-4.5091210">
        <ele>787.9</ele>
        <time>2020-04-05T17:18:57Z</time>
      </trkpt>
      <trkpt lat="42.3021640" lon="-4.5092430">
        <ele>787.9</ele>
        <time>2020-04-05T17:18:59Z</time>
      </trkpt>
      <trkpt lat="42.3022610" lon="-4.5094720">
        <ele>787.8</ele>
        <time>2020-04-05T17:19:01Z</time>
      </trkpt>
      <trkpt lat="42.3023140" lon="-4.5095970">
        <ele>787.8</ele>
        <time>2020-04-05T17:19:03Z</time>
      </trkpt>
      <trkpt lat="42.3023660" lon="-4.5097210">
        <ele>787.8</ele>
        <time>2020-04-05T17:19:05Z</time>
      </trkpt>
      <trkpt lat="42.3024190" lon="-4.5098460">
        <ele>787.8</ele>
        <time>2020-04-05T17:19:07Z</time>
      </trkpt>
      <trkpt lat="42.3024720" lon="-4.5099710">
        <ele>787.8</ele>
        <time>2020-04-05T17:19:09Z</time>
      </trkpt>
      <trkpt lat="42.3026330" lon="-4.5103530">
        <ele>788.0</ele>
        <time>2020-04-05T17:19:11Z</time>
      </trkpt>
      <trkpt lat="42.3026860" lon="-4.5104780">
        <ele>788.2</ele>
        <time>2020-04-05T17:19:13Z</time>
      </trkpt>
      <trkpt lat="42.3027390" lon="-4.5106040">
        <ele>788.5</ele>
        <time>2020-04-05T17:19:15Z</time>
      </trkpt>
      <trkpt lat="42.3027930" lon="-4.5107300">
        <ele>788.7</ele>
        <time>2020-04-05T17:19:17Z</time>
      </trkpt>
      <trkpt lat="42.3028460" lon="-4.5108560">
        <ele>789.0</ele>
        <time>2020-04-05T17:19:19Z</time>
      </trkpt>
      <trkpt lat="42.3028990" lon="-4.5109810">
        <ele>789.2</ele>
        <time>2020-04-05T17:19:21Z</time>
      </trkpt>
      <trkpt lat="42.3030600" lon="-4.5113630">
        <ele>789.7</ele>
        <time>2020-04-05T17:19:23Z</time>
      </trkpt>
      <trkpt lat="42.3031130" lon="-4.5114880">
        <ele>789.9</ele>
        <time>2020-04-05T17:19:25Z</time>
      </trkpt>
      <trkpt lat="42.3031640" lon="-4.5116100">
        <ele>790.2</ele>
        <time>2020-04-05T17:19:27Z</time>
      </trkpt>
      <trkpt lat="42.3032160" lon="-4.5117310">
        <ele>790.4</ele>
        <time>2020-04-05T17:19:29Z</time>
      </trkpt>
      <trkpt lat="42.3032660" lon="-4.5118510">
        <ele>790.7</ele>
        <time>2020-04-05T17:19:31Z</time>
      </trkpt>
      <trkpt lat="42.3033170" lon="-4.5119700">
        <ele>790.9</ele>
        <time>2020-04-05T17:19:33Z</time>
      </trkpt>
      <trkpt lat="42.3034750" lon="-4.5123450">
        <ele>791.5</ele>
        <time>2020-04-05T17:19:35Z</time>
      </trkpt>
      <trkpt lat="42.3035240" lon="-4.5124640">
        <ele>791.8</ele>
        <time>2020-04-05T17:19:37Z</time>
      </trkpt>
      <trkpt lat="42.3035720" lon="-4.5125810">
        <ele>792.0</ele>
        <time>2020-04-05T17:19:39Z</time>
      </trkpt>
      <trkpt lat="42.3036190" lon="-4.5126980">
        <ele>792.3</ele>
        <time>2020-04-05T17:19:41Z</time>
      </trkpt>
      <trkpt lat="42.3037290" lon="-4.5129630">
        <ele>792.8</ele>
        <time>2020-04-05T17:19:43Z</time>
      </trkpt>
      <trkpt lat="42.3037770" lon="-4.5130770">
        <ele>792.9</ele>
        <time>2020-04-05T17:19:45Z</time>
      </trkpt>
      <trkpt lat="42.3038250" lon="-4.5131890">
        <ele>793.0</ele>
        <time>2020-04-05T17:19:47Z</time>
      </trkpt>
      <trkpt lat="42.3039270" lon="-4.5134280">
        <ele>793.5</ele>
        <time>2020-04-05T17:19:49Z</time>
      </trkpt>
      <trkpt lat="42.3039730" lon="-4.5135370">
        <ele>793.7</ele>
        <time>2020-04-05T17:19:51Z</time>
      </trkpt>
      <trkpt lat="42.3040200" lon="-4.5136480">
        <ele>793.9</ele>
        <time>2020-04-05T17:19:53Z</time>
      </trkpt>
      <trkpt lat="42.3040660" lon="-4.5137570">
        <ele>794.0</ele>
        <time>2020-04-05T17:19:55Z</time>
      </trkpt>
      <trkpt lat="42.3041110" lon="-4.5138650">
        <ele>794.1</ele>
        <time>2020-04-05T17:19:57Z</time>
      </trkpt>
      <trkpt lat="42.3041570" lon="-4.5139730">
        <ele>794.2</ele>
        <time>2020-04-05T17:19:59Z</time>
      </trkpt>
      <trkpt lat="42.3043060" lon="-4.5143270">
        <ele>794.4</ele>
        <time>2020-04-05T17:20:01Z</time>
      </trkpt>
      <trkpt lat="42.3043550" lon="-4.5144400">
        <ele>794.4</ele>
        <time>2020-04-05T17:20:03Z</time>
      </trkpt>
      <trkpt lat="42.3044050" lon="-4.5145580">
        <ele>794.6</ele>
        <time>2020-04-05T17:20:05Z</time>
      </trkpt>
      <trkpt lat="42.3044570" lon="-4.5146820">
        <ele>794.8</ele>
        <time>2020-04-05T17:20:07Z</time>
      </trkpt>
      <trkpt lat="42.3045130" lon="-4.5148110">
        <ele>795.0</ele>
        <time>2020-04-05T17:20:09Z</time>
      </trkpt>
      <trkpt lat="42.3045700" lon="-4.5149450">
        <ele>795.2</ele>
        <time>2020-04-05T17:20:11Z</time>
      </trkpt>
      <trkpt lat="42.3046290" lon="-4.5150840">
        <ele>795.3</ele>
        <time>2020-04-05T17:20:13Z</time>
      </trkpt>
      <trkpt lat="42.3048020" lon="-4.5154890">
        <ele>795.4</ele>
        <time>2020-04-05T17:20:15Z</time>
      </trkpt>
      <trkpt lat="42.3048630" lon="-4.5156340">
        <ele>795.4</ele>
        <time>2020-04-05T17:20:17Z</time>
      </trkpt>
      <trkpt lat="42.3049720" lon="-4.5158910">
        <ele>795.4</ele>
        <time>2020-04-05T17:20:19Z</time>
      </trkpt>
      <trkpt lat="42.3050360" lon="-4.5160440">
        <ele>795.4</ele>
        <time>2020-04-05T17:20:21Z</time>
      </trkpt>
      <trkpt lat="42.3051010" lon="-4.5162000">
        <ele>795.4</ele>
        <time>2020-04-05T17:20:23Z</time>
      </trkpt>
      <trkpt lat="42.3052300" lon="-4.5165100">
        <ele>795.4</ele>
        <time>2020-04-05T17:20:25Z</time>
      </trkpt>
      <trkpt lat="42.3052910" lon="-4.5166570">
        <ele>795.4</ele>
        <time>2020-04-05T17:20:27Z</time>
      </trkpt>
      <trkpt lat="42.3053510" lon="-4.5168000">
        <ele>795.4</ele>
        <time>2020-04-05T17:20:29Z</time>
      </trkpt>
      <trkpt lat="42.3054090" lon="-4.5169380">
        <ele>795.4</ele>
        <time>2020-04-05T17:20:31Z</time>
      </trkpt>
      <trkpt lat="42.3054640" lon="-4.5170720">
        <ele>795.4</ele>
        <time>2020-04-05T17:20:33Z</time>
      </trkpt>
      <trkpt lat="42.3056290" lon="-4.5174670">
        <ele>795.4</ele>
        <time>2020-04-05T17:20:35Z</time>
      </trkpt>
      <trkpt lat="42.3056980" lon="-4.5176300">
        <ele>795.6</ele>
        <time>2020-04-05T17:20:37Z</time>
      </trkpt>
      <trkpt lat="42.3057500" lon="-4.5177540">
        <ele>795.7</ele>
        <time>2020-04-05T17:20:39Z</time>
      </trkpt>
      <trkpt lat="42.3058010" lon="-4.5178780">
        <ele>795.9</ele>
        <time>2020-04-05T17:20:41Z</time>
      </trkpt>
      <trkpt lat="42.3058520" lon="-4.5179980">
        <ele>796.1</ele>
        <time>2020-04-05T17:20:43Z</time>
      </trkpt>
      <trkpt lat="42.3059920" lon="-4.5183330">
        <ele>796.5</ele>
        <time>2020-04-05T17:20:45Z</time>
      </trkpt>
      <trkpt lat="42.3060470" lon="-4.5184660">
        <ele>796.5</ele>
        <time>2020-04-05T17:20:47Z</time>
      </trkpt>
      <trkpt lat="42.3060980" lon="-4.5185870">
        <ele>796.4</ele>
        <time>2020-04-05T17:20:49Z</time>
      </trkpt>
      <trkpt lat="42.3061500" lon="-4.5187100">
        <ele>796.3</ele>
        <time>2020-04-05T17:20:51Z</time>
      </trkpt>
      <trkpt lat="42.3062020" lon="-4.5188340">
        <ele>796.1</ele>
        <time>2020-04-05T17:20:53Z</time>
      </trkpt>
      <trkpt lat="42.3062540" lon="-4.5189580">
        <ele>796.0</ele>
        <time>2020-04-05T17:20:55Z</time>
      </trkpt>
      <trkpt lat="42.3063080" lon="-4.5190850">
        <ele>795.8</ele>
        <time>2020-04-05T17:20:57Z</time>
      </trkpt>
      <trkpt lat="42.3064720" lon="-4.5194760">
        <ele>795.9</ele>
        <time>2020-04-05T17:20:59Z</time>
      </trkpt>
      <trkpt lat="42.3065250" lon="-4.5196030">
        <ele>796.1</ele>
        <time>2020-04-05T17:21:01Z</time>
      </trkpt>
      <trkpt lat="42.3065780" lon="-4.5197280">
        <ele>796.4</ele>
        <time>2020-04-05T17:21:03Z</time>
      </trkpt>
      <trkpt lat="42.3066310" lon="-4.5198530">
        <ele>796.7</ele>
        <time>2020-04-05T17:21:05Z</time>
      </trkpt>
      <trkpt lat="42.3067630" lon="-4.5201680">
        <ele>797.3</ele>
        <time>2020-04-05T17:21:07Z</time>
      </trkpt>
      <trkpt lat="42.3068160" lon="-4.5202910">
        <ele>797.6</ele>
        <time>2020-04-05T17:21:09Z</time>
      </trkpt>
      <trkpt lat="42.3068980" lon="-4.5204860">
        <ele>798.0</ele>
        <time>2020-04-05T17:21:11Z</time>
      </trkpt>
      <trkpt lat="42.3069510" lon="-4.5206100">
        <ele>798.3</ele>
        <time>2020-04-05T17:21:13Z</time>
      </trkpt>
      <trkpt lat="42.3070020" lon="-4.5207320">
        <ele>798.5</ele>
        <time>2020-04-05T17:21:15Z</time>
      </trkpt>
      <trkpt lat="42.3071110" lon="-4.5209900">
        <ele>798.9</ele>
        <time>2020-04-05T17:21:17Z</time>
      </trkpt>
      <trkpt lat="42.3071630" lon="-4.5211130">
        <ele>798.9</ele>
        <time>2020-04-05T17:21:19Z</time>
      </trkpt>
      <trkpt lat="42.3072150" lon="-4.5212370">
        <ele>798.9</ele>
        <time>2020-04-05T17:21:21Z</time>
      </trkpt>
      <trkpt lat="42.3073200" lon="-4.5214890">
        <ele>798.9</ele>
        <time>2020-04-05T17:21:23Z</time>
      </trkpt>
      <trkpt lat="42.3073730" lon="-4.5216140">
        <ele>799.0</ele>
        <time>2020-04-05T17:21:25Z</time>
      </trkpt>
      <trkpt lat="42.3074260" lon="-4.5217390">
        <ele>799.0</ele>
        <time>2020-04-05T17:21:27Z</time>
      </trkpt>
      <trkpt lat="42.3074780" lon="-4.5218640">
        <ele>799.0</ele>
        <time>2020-04-05T17:21:29Z</time>
      </trkpt>
      <trkpt lat="42.3075300" lon="-4.5219890">
        <ele>799.0</ele>
        <time>2020-04-05T17:21:31Z</time>
      </trkpt>
      <trkpt lat="42.3075820" lon="-4.5221140">
        <ele>799.1</ele>
        <time>2020-04-05T17:21:33Z</time>
      </trkpt>
      <trkpt lat="42.3077460" lon="-4.5225040">
        <ele>799.7</ele>
        <time>2020-04-05T17:21:35Z</time>
      </trkpt>
      <trkpt lat="42.3078000" lon="-4.5226320">
        <ele>799.9</ele>
        <time>2020-04-05T17:21:37Z</time>
      </trkpt>
      <trkpt lat="42.3078540" lon="-4.5227620">
        <ele>800.0</ele>
        <time>2020-04-05T17:21:39Z</time>
      </trkpt>
      <trkpt lat="42.3079100" lon="-4.5228930">
        <ele>800.1</ele>
        <time>2020-04-05T17:21:41Z</time>
      </trkpt>
      <trkpt lat="42.3079650" lon="-4.5230250">
        <ele>800.1</ele>
        <time>2020-04-05T17:21:43Z</time>
      </trkpt>
      <trkpt lat="42.3080200" lon="-4.5231550">
        <ele>800.1</ele>
        <time>2020-04-05T17:21:45Z</time>
      </trkpt>
      <trkpt lat="42.3081850" lon="-4.5235490">
        <ele>800.1</ele>
        <time>2020-04-05T17:21:47Z</time>
      </trkpt>
      <trkpt lat="42.3082670" lon="-4.5237430">
        <ele>800.1</ele>
        <time>2020-04-05T17:21:49Z</time>
      </trkpt>
      <trkpt lat="42.3083220" lon="-4.5238750">
        <ele>800.0</ele>
        <time>2020-04-05T17:21:51Z</time>
      </trkpt>
      <trkpt lat="42.3083790" lon="-4.5240090">
        <ele>799.8</ele>
        <time>2020-04-05T17:21:53Z</time>
      </trkpt>
      <trkpt lat="42.3084360" lon="-4.5241450">
        <ele>799.5</ele>
        <time>2020-04-05T17:21:55Z</time>
      </trkpt>
      <trkpt lat="42.3085770" lon="-4.5244810">
        <ele>798.5</ele>
        <time>2020-04-05T17:21:57Z</time>
      </trkpt>
      <trkpt lat="42.3086350" lon="-4.5246190">
        <ele>798.3</ele>
        <time>2020-04-05T17:21:59Z</time>
      </trkpt>
      <trkpt lat="42.3086940" lon="-4.5247590">
        <ele>798.3</ele>
        <time>2020-04-05T17:22:01Z</time>
      </trkpt>
      <trkpt lat="42.3087540" lon="-4.5249000">
        <ele>798.3</ele>
        <time>2020-04-05T17:22:03Z</time>
      </trkpt>
      <trkpt lat="42.3089040" lon="-4.5252480">
        <ele>798.3</ele>
        <time>2020-04-05T17:22:05Z</time>
      </trkpt>
      <trkpt lat="42.3089650" lon="-4.5253910">
        <ele>798.7</ele>
        <time>2020-04-05T17:22:07Z</time>
      </trkpt>
      <trkpt lat="42.3090500" lon="-4.5255920">
        <ele>799.2</ele>
        <time>2020-04-05T17:22:09Z</time>
      </trkpt>
      <trkpt lat="42.3091120" lon="-4.5257400">
        <ele>799.6</ele>
        <time>2020-04-05T17:22:11Z</time>
      </trkpt>
      <trkpt lat="42.3091750" lon="-4.5258890">
        <ele>800.0</ele>
        <time>2020-04-05T17:22:13Z</time>
      </trkpt>
      <trkpt lat="42.3092380" lon="-4.5260380">
        <ele>800.2</ele>
        <time>2020-04-05T17:22:15Z</time>
      </trkpt>
      <trkpt lat="42.3093000" lon="-4.5261840">
        <ele>800.1</ele>
        <time>2020-04-05T17:22:17Z</time>
      </trkpt>
      <trkpt lat="42.3094730" lon="-4.5265910">
        <ele>799.5</ele>
        <time>2020-04-05T17:22:19Z</time>
      </trkpt>
      <trkpt lat="42.3095530" lon="-4.5267820">
        <ele>799.5</ele>
        <time>2020-04-05T17:22:21Z</time>
      </trkpt>
      <trkpt lat="42.3096090" lon="-4.5269180">
        <ele>799.7</ele>
        <time>2020-04-05T17:22:23Z</time>
      </trkpt>
      <trkpt lat="42.3096650" lon="-4.5270500">
        <ele>800.0</ele>
        <time>2020-04-05T17:22:25Z</time>
      </trkpt>
      <trkpt lat="42.3097180" lon="-4.5271790">
        <ele>800.2</ele>
        <time>2020-04-05T17:22:27Z</time>
      </trkpt>
      <trkpt lat="42.3098610" lon="-4.5275200">
        <ele>800.5</ele>
        <time>2020-04-05T17:22:29Z</time>
      </trkpt>
      <trkpt lat="42.3099130" lon="-4.5276450">
        <ele>800.6</ele>
        <time>2020-04-05T17:22:31Z</time>
      </trkpt>
      <trkpt lat="42.3099650" lon="-4.5277680">
        <ele>800.6</ele>
        <time>2020-04-05T17:22:33Z</time>
      </trkpt>
      <trkpt lat="42.3100160" lon="-4.5278910">
        <ele>800.6</ele>
        <time>2020-04-05T17:22:35Z</time>
      </trkpt>
      <trkpt lat="42.3100670" lon="-4.5280130">
        <ele>800.6</ele>
        <time>2020-04-05T17:22:37Z</time>
      </trkpt>
      <trkpt lat="42.3101180" lon="-4.5281340">
        <ele>800.7</ele>
        <time>2020-04-05T17:22:39Z</time>
      </trkpt>
      <trkpt lat="42.3102790" lon="-4.5285190">
        <ele>801.7</ele>
        <time>2020-04-05T17:22:41Z</time>
      </trkpt>
      <trkpt lat="42.3103310" lon="-4.5286420">
        <ele>801.6</ele>
        <time>2020-04-05T17:22:43Z</time>
      </trkpt>
      <trkpt lat="42.3103830" lon="-4.5287670">
        <ele>801.5</ele>
        <time>2020-04-05T17:22:45Z</time>
      </trkpt>
      <trkpt lat="42.3104350" lon="-4.5288920">
        <ele>801.3</ele>
        <time>2020-04-05T17:22:47Z</time>
      </trkpt>
      <trkpt lat="42.3104880" lon="-4.5290180">
        <ele>801.2</ele>
        <time>2020-04-05T17:22:49Z</time>
      </trkpt>
      <trkpt lat="42.3106340" lon="-4.5293660">
        <ele>800.8</ele>
        <time>2020-04-05T17:22:51Z</time>
      </trkpt>
      <trkpt lat="42.3106860" lon="-4.5294910">
        <ele>800.7</ele>
        <time>2020-04-05T17:22:53Z</time>
      </trkpt>
      <trkpt lat="42.3107390" lon="-4.5296170">
        <ele>800.7</ele>
        <time>2020-04-05T17:22:55Z</time>
      </trkpt>
      <trkpt lat="42.3107920" lon="-4.5297420">
        <ele>800.7</ele>
        <time>2020-04-05T17:22:57Z</time>
      </trkpt>
      <trkpt lat="42.3108430" lon="-4.5298670">
        <ele>800.7</ele>
        <time>2020-04-05T17:22:59Z</time>
      </trkpt>
      <trkpt lat="42.3109890" lon="-4.5302150">
        <ele>800.7</ele>
        <time>2020-04-05T17:23:01Z</time>
      </trkpt>
      <trkpt lat="42.3110420" lon="-4.5303410">
        <ele>800.7</ele>
        <time>2020-04-05T17:23:03Z</time>
      </trkpt>
      <trkpt lat="42.3110950" lon="-4.5304670">
        <ele>800.7</ele>
        <time>2020-04-05T17:23:05Z</time>
      </trkpt>
      <trkpt lat="42.3111480" lon="-4.5305940">
        <ele>800.7</ele>
        <time>2020-04-05T17:23:07Z</time>
      </trkpt>
      <trkpt lat="42.3112010" lon="-4.5307220">
        <ele>800.7</ele>
        <time>2020-04-05T17:23:09Z</time>
      </trkpt>
      <trkpt lat="42.3113480" lon="-4.5310720">
        <ele>800.7</ele>
        <time>2020-04-05T17:23:11Z</time>
      </trkpt>
      <trkpt lat="42.3113990" lon="-4.5311940">
        <ele>800.7</ele>
        <time>2020-04-05T17:23:13Z</time>
      </trkpt>
      <trkpt lat="42.3114840" lon="-4.5313960">
        <ele>800.9</ele>
        <time>2020-04-05T17:23:15Z</time>
      </trkpt>
      <trkpt lat="42.3115310" lon="-4.5315090">
        <ele>801.0</ele>
        <time>2020-04-05T17:23:17Z</time>
      </trkpt>
      <trkpt lat="42.3115770" lon="-4.5316200">
        <ele>801.1</ele>
        <time>2020-04-05T17:23:19Z</time>
      </trkpt>
      <trkpt lat="42.3116230" lon="-4.5317310">
        <ele>801.3</ele>
        <time>2020-04-05T17:23:21Z</time>
      </trkpt>
      <trkpt lat="42.3117230" lon="-4.5319800">
        <ele>801.6</ele>
        <time>2020-04-05T17:23:23Z</time>
      </trkpt>
      <trkpt lat="42.3117660" lon="-4.5320990">
        <ele>801.6</ele>
        <time>2020-04-05T17:23:25Z</time>
      </trkpt>
      <trkpt lat="42.3118110" lon="-4.5322200">
        <ele>801.7</ele>
        <time>2020-04-05T17:23:27Z</time>
      </trkpt>
      <trkpt lat="42.3119000" lon="-4.5324700">
        <ele>801.7</ele>
        <time>2020-04-05T17:23:29Z</time>
      </trkpt>
      <trkpt lat="42.3119440" lon="-4.5326020">
        <ele>801.7</ele>
        <time>2020-04-05T17:23:31Z</time>
      </trkpt>
      <trkpt lat="42.3119880" lon="-4.5327360">
        <ele>801.7</ele>
        <time>2020-04-05T17:23:33Z</time>
      </trkpt>
      <trkpt lat="42.3120860" lon="-4.5330310">
        <ele>801.6</ele>
        <time>2020-04-05T17:23:35Z</time>
      </trkpt>
      <trkpt lat="42.3121400" lon="-4.5332010">
        <ele>801.4</ele>
        <time>2020-04-05T17:23:37Z</time>
      </trkpt>
      <trkpt lat="42.3121850" lon="-4.5333500">
        <ele>801.2</ele>
        <time>2020-04-05T17:23:39Z</time>
      </trkpt>
      <trkpt lat="42.3122710" lon="-4.5336380">
        <ele>800.7</ele>
        <time>2020-04-05T17:23:41Z</time>
      </trkpt>
      <trkpt lat="42.3123210" lon="-4.5338010">
        <ele>800.6</ele>
        <time>2020-04-05T17:23:43Z</time>
      </trkpt>
      <trkpt lat="42.3123720" lon="-4.5339690">
        <ele>800.5</ele>
        <time>2020-04-05T17:23:45Z</time>
      </trkpt>
      <trkpt lat="42.3124240" lon="-4.5341420">
        <ele>800.3</ele>
        <time>2020-04-05T17:23:47Z</time>
      </trkpt>
      <trkpt lat="42.3124770" lon="-4.5343180">
        <ele>800.1</ele>
        <time>2020-04-05T17:23:49Z</time>
      </trkpt>
      <trkpt lat="42.3126160" lon="-4.5347750">
        <ele>799.4</ele>
        <time>2020-04-05T17:23:51Z</time>
      </trkpt>
      <trkpt lat="42.3126680" lon="-4.5349490">
        <ele>799.2</ele>
        <time>2020-04-05T17:23:53Z</time>
      </trkpt>
      <trkpt lat="42.3127190" lon="-4.5351160">
        <ele>799.1</ele>
        <time>2020-04-05T17:23:55Z</time>
      </trkpt>
      <trkpt lat="42.3127680" lon="-4.5352760">
        <ele>798.9</ele>
        <time>2020-04-05T17:23:57Z</time>
      </trkpt>
      <trkpt lat="42.3128150" lon="-4.5354310">
        <ele>798.8</ele>
        <time>2020-04-05T17:23:59Z</time>
      </trkpt>
      <trkpt lat="42.3129450" lon="-4.5358600">
        <ele>799.0</ele>
        <time>2020-04-05T17:24:01Z</time>
      </trkpt>
      <trkpt lat="42.3130110" lon="-4.5360750">
        <ele>799.0</ele>
        <time>2020-04-05T17:24:03Z</time>
      </trkpt>
      <trkpt lat="42.3130550" lon="-4.5362210">
        <ele>799.0</ele>
        <time>2020-04-05T17:24:05Z</time>
      </trkpt>
      <trkpt lat="42.3130990" lon="-4.5363680">
        <ele>799.1</ele>
        <time>2020-04-05T17:24:07Z</time>
      </trkpt>
      <trkpt lat="42.3131430" lon="-4.5365140">
        <ele>799.0</ele>
        <time>2020-04-05T17:24:09Z</time>
      </trkpt>
      <trkpt lat="42.3132510" lon="-4.5368690">
        <ele>798.8</ele>
        <time>2020-04-05T17:24:11Z</time>
      </trkpt>
      <trkpt lat="42.3132960" lon="-4.5370160">
        <ele>798.8</ele>
        <time>2020-04-05T17:24:13Z</time>
      </trkpt>
      <trkpt lat="42.3133410" lon="-4.5371630">
        <ele>798.7</ele>
        <time>2020-04-05T17:24:15Z</time>
      </trkpt>
      <trkpt lat="42.3133850" lon="-4.5373100">
        <ele>798.7</ele>
        <time>2020-04-05T17:24:17Z</time>
      </trkpt>
      <trkpt lat="42.3134300" lon="-4.5374590">
        <ele>798.8</ele>
        <time>2020-04-05T17:24:19Z</time>
      </trkpt>
      <trkpt lat="42.3135600" lon="-4.5378860">
        <ele>798.9</ele>
        <time>2020-04-05T17:24:21Z</time>
      </trkpt>
      <trkpt lat="42.3136050" lon="-4.5380350">
        <ele>798.8</ele>
        <time>2020-04-05T17:24:23Z</time>
      </trkpt>
      <trkpt lat="42.3136520" lon="-4.5381880">
        <ele>798.7</ele>
        <time>2020-04-05T17:24:25Z</time>
      </trkpt>
      <trkpt lat="42.3136990" lon="-4.5383440">
        <ele>798.7</ele>
        <time>2020-04-05T17:24:27Z</time>
      </trkpt>
      <trkpt lat="42.3138030" lon="-4.5386910">
        <ele>798.5</ele>
        <time>2020-04-05T17:24:29Z</time>
      </trkpt>
      <trkpt lat="42.3138500" lon="-4.5388500">
        <ele>798.4</ele>
        <time>2020-04-05T17:24:31Z</time>
      </trkpt>
      <trkpt lat="42.3139240" lon="-4.5391010">
        <ele>798.2</ele>
        <time>2020-04-05T17:24:33Z</time>
      </trkpt>
      <trkpt lat="42.3139730" lon="-4.5392650">
        <ele>798.1</ele>
        <time>2020-04-05T17:24:35Z</time>
      </trkpt>
      <trkpt lat="42.3140220" lon="-4.5394290">
        <ele>798.1</ele>
        <time>2020-04-05T17:24:37Z</time>
      </trkpt>
      <trkpt lat="42.3141260" lon="-4.5397800">
        <ele>798.2</ele>
        <time>2020-04-05T17:24:39Z</time>
      </trkpt>
      <trkpt lat="42.3142040" lon="-4.5400380">
        <ele>798.2</ele>
        <time>2020-04-05T17:24:41Z</time>
      </trkpt>
      <trkpt lat="42.3142520" lon="-4.5401990">
        <ele>798.3</ele>
        <time>2020-04-05T17:24:43Z</time>
      </trkpt>
      <trkpt lat="42.3143000" lon="-4.5403590">
        <ele>798.6</ele>
        <time>2020-04-05T17:24:45Z</time>
      </trkpt>
      <trkpt lat="42.3143480" lon="-4.5405170">
        <ele>798.9</ele>
        <time>2020-04-05T17:24:47Z</time>
      </trkpt>
      <trkpt lat="42.3143950" lon="-4.5406740">
        <ele>799.2</ele>
        <time>2020-04-05T17:24:49Z</time>
      </trkpt>
      <trkpt lat="42.3145260" lon="-4.5411070">
        <ele>800.2</ele>
        <time>2020-04-05T17:24:51Z</time>
      </trkpt>
      <trkpt lat="42.3145730" lon="-4.5412610">
        <ele>800.1</ele>
        <time>2020-04-05T17:24:53Z</time>
      </trkpt>
      <trkpt lat="42.3146200" lon="-4.5414150">
        <ele>800.1</ele>
        <time>2020-04-05T17:24:55Z</time>
      </trkpt>
      <trkpt lat="42.3146660" lon="-4.5415660">
        <ele>800.0</ele>
        <time>2020-04-05T17:24:57Z</time>
      </trkpt>
      <trkpt lat="42.3147130" lon="-4.5417170">
        <ele>800.0</ele>
        <time>2020-04-05T17:24:59Z</time>
      </trkpt>
      <trkpt lat="42.3148360" lon="-4.5421210">
        <ele>799.9</ele>
        <time>2020-04-05T17:25:01Z</time>
      </trkpt>
      <trkpt lat="42.3148900" lon="-4.5422970">
        <ele>800.1</ele>
        <time>2020-04-05T17:25:03Z</time>
      </trkpt>
      <trkpt lat="42.3149520" lon="-4.5424990">
        <ele>800.2</ele>
        <time>2020-04-05T17:25:05Z</time>
      </trkpt>
      <trkpt lat="42.3150280" lon="-4.5427440">
        <ele>800.3</ele>
        <time>2020-04-05T17:25:07Z</time>
      </trkpt>
      <trkpt lat="42.3150760" lon="-4.5429000">
        <ele>800.5</ele>
        <time>2020-04-05T17:25:09Z</time>
      </trkpt>
      <trkpt lat="42.3151460" lon="-4.5431300">
        <ele>800.7</ele>
        <time>2020-04-05T17:25:11Z</time>
      </trkpt>
      <trkpt lat="42.3152210" lon="-4.5433810">
        <ele>800.9</ele>
        <time>2020-04-05T17:25:13Z</time>
      </trkpt>
      <trkpt lat="42.3152690" lon="-4.5435410">
        <ele>801.1</ele>
        <time>2020-04-05T17:25:15Z</time>
      </trkpt>
      <trkpt lat="42.3153170" lon="-4.5437030">
        <ele>801.4</ele>
        <time>2020-04-05T17:25:17Z</time>
      </trkpt>
      <trkpt lat="42.3153650" lon="-4.5438660">
        <ele>801.7</ele>
        <time>2020-04-05T17:25:19Z</time>
      </trkpt>
      <trkpt lat="42.3154120" lon="-4.5440280">
        <ele>802.1</ele>
        <time>2020-04-05T17:25:21Z</time>
      </trkpt>
      <trkpt lat="42.3155350" lon="-4.5444450">
        <ele>803.0</ele>
        <time>2020-04-05T17:25:23Z</time>
      </trkpt>
      <trkpt lat="42.3156150" lon="-4.5447150">
        <ele>803.2</ele>
        <time>2020-04-05T17:25:25Z</time>
      </trkpt>
      <trkpt lat="42.3156640" lon="-4.5448730">
        <ele>803.4</ele>
        <time>2020-04-05T17:25:27Z</time>
      </trkpt>
      <trkpt lat="42.3157100" lon="-4.5450250">
        <ele>803.4</ele>
        <time>2020-04-05T17:25:29Z</time>
      </trkpt>
      <trkpt lat="42.3157540" lon="-4.5451690">
        <ele>803.5</ele>
        <time>2020-04-05T17:25:31Z</time>
      </trkpt>
      <trkpt lat="42.3158490" lon="-4.5454810">
        <ele>803.7</ele>
        <time>2020-04-05T17:25:33Z</time>
      </trkpt>
      <trkpt lat="42.3158900" lon="-4.5456160">
        <ele>803.8</ele>
        <time>2020-04-05T17:25:35Z</time>
      </trkpt>
      <trkpt lat="42.3159630" lon="-4.5458370">
        <ele>804.0</ele>
        <time>2020-04-05T17:25:37Z</time>
      </trkpt>
      <trkpt lat="42.3160300" lon="-4.5460360">
        <ele>804.2</ele>
        <time>2020-04-05T17:25:39Z</time>
      </trkpt>
      <trkpt lat="42.3160670" lon="-4.5461600">
        <ele>804.4</ele>
        <time>2020-04-05T17:25:41Z</time>
      </trkpt>
      <trkpt lat="42.3161370" lon="-4.5463630">
        <ele>804.8</ele>
        <time>2020-04-05T17:25:43Z</time>
      </trkpt>
      <trkpt lat="42.3162350" lon="-4.5464670">
        <ele>805.1</ele>
        <time>2020-04-05T17:25:45Z</time>
      </trkpt>
      <trkpt lat="42.3162700" lon="-4.5465800">
        <ele>805.2</ele>
        <time>2020-04-05T17:25:47Z</time>
      </trkpt>
      <trkpt lat="42.3163050" lon="-4.5466910">
        <ele>805.2</ele>
        <time>2020-04-05T17:25:49Z</time>
      </trkpt>
      <trkpt lat="42.3163390" lon="-4.5467990">
        <ele>805.4</ele>
        <time>2020-04-05T17:25:51Z</time>
      </trkpt>
      <trkpt lat="42.3164190" lon="-4.5470530">
        <ele>806.1</ele>
        <time>2020-04-05T17:25:53Z</time>
      </trkpt>
      <trkpt lat="42.3164520" lon="-4.5471560">
        <ele>806.5</ele>
        <time>2020-04-05T17:25:55Z</time>
      </trkpt>
      <trkpt lat="42.3164840" lon="-4.5472590">
        <ele>806.7</ele>
        <time>2020-04-05T17:25:57Z</time>
      </trkpt>
      <trkpt lat="42.3165460" lon="-4.5474590">
        <ele>807.2</ele>
        <time>2020-04-05T17:25:59Z</time>
      </trkpt>
      <trkpt lat="42.3165960" lon="-4.5476240">
        <ele>807.8</ele>
        <time>2020-04-05T17:26:01Z</time>
      </trkpt>
      <trkpt lat="42.3166320" lon="-4.5477420">
        <ele>808.0</ele>
        <time>2020-04-05T17:26:03Z</time>
      </trkpt>
      <trkpt lat="42.3166700" lon="-4.5478630">
        <ele>808.3</ele>
        <time>2020-04-05T17:26:05Z</time>
      </trkpt>
      <trkpt lat="42.3167080" lon="-4.5479890">
        <ele>808.4</ele>
        <time>2020-04-05T17:26:07Z</time>
      </trkpt>
      <trkpt lat="42.3168050" lon="-4.5483050">
        <ele>808.4</ele>
        <time>2020-04-05T17:26:09Z</time>
      </trkpt>
      <trkpt lat="42.3168460" lon="-4.5484360">
        <ele>808.5</ele>
        <time>2020-04-05T17:26:11Z</time>
      </trkpt>
      <trkpt lat="42.3169060" lon="-4.5486270">
        <ele>808.9</ele>
        <time>2020-04-05T17:26:13Z</time>
      </trkpt>
      <trkpt lat="42.3169470" lon="-4.5487570">
        <ele>809.1</ele>
        <time>2020-04-05T17:26:15Z</time>
      </trkpt>
      <trkpt lat="42.3169870" lon="-4.5488850">
        <ele>809.3</ele>
        <time>2020-04-05T17:26:17Z</time>
      </trkpt>
      <trkpt lat="42.3170260" lon="-4.5490120">
        <ele>809.4</ele>
        <time>2020-04-05T17:26:19Z</time>
      </trkpt>
      <trkpt lat="42.3170660" lon="-4.5491370">
        <ele>809.4</ele>
        <time>2020-04-05T17:26:21Z</time>
      </trkpt>
      <trkpt lat="42.3171820" lon="-4.5495070">
        <ele>809.8</ele>
        <time>2020-04-05T17:26:23Z</time>
      </trkpt>
      <trkpt lat="42.3172200" lon="-4.5496320">
        <ele>810.1</ele>
        <time>2020-04-05T17:26:25Z</time>
      </trkpt>
      <trkpt lat="42.3172590" lon="-4.5497540">
        <ele>810.3</ele>
        <time>2020-04-05T17:26:27Z</time>
      </trkpt>
      <trkpt lat="42.3172970" lon="-4.5498770">
        <ele>810.4</ele>
        <time>2020-04-05T17:26:29Z</time>
      </trkpt>
      <trkpt lat="42.3173350" lon="-4.5499990">
        <ele>810.4</ele>
        <time>2020-04-05T17:26:31Z</time>
      </trkpt>
      <trkpt lat="42.3173730" lon="-4.5501200">
        <ele>810.4</ele>
        <time>2020-04-05T17:26:33Z</time>
      </trkpt>
      <trkpt lat="42.3174900" lon="-4.5504930">
        <ele>810.4</ele>
        <time>2020-04-05T17:26:35Z</time>
      </trkpt>
      <trkpt lat="42.3175270" lon="-4.5506150">
        <ele>810.4</ele>
        <time>2020-04-05T17:26:37Z</time>
      </trkpt>
      <trkpt lat="42.3175650" lon="-4.5507380">
        <ele>810.4</ele>
        <time>2020-04-05T17:26:39Z</time>
      </trkpt>
      <trkpt lat="42.3176040" lon="-4.5508630">
        <ele>810.5</ele>
        <time>2020-04-05T17:26:41Z</time>
      </trkpt>
      <trkpt lat="42.3176420" lon="-4.5509870">
        <ele>810.6</ele>
        <time>2020-04-05T17:26:43Z</time>
      </trkpt>
      <trkpt lat="42.3177540" lon="-4.5513520">
        <ele>811.3</ele>
        <time>2020-04-05T17:26:45Z</time>
      </trkpt>
      <trkpt lat="42.3177930" lon="-4.5514780">
        <ele>811.4</ele>
        <time>2020-04-05T17:26:47Z</time>
      </trkpt>
      <trkpt lat="42.3178320" lon="-4.5516040">
        <ele>811.4</ele>
        <time>2020-04-05T17:26:49Z</time>
      </trkpt>
      <trkpt lat="42.3178710" lon="-4.5517310">
        <ele>811.4</ele>
        <time>2020-04-05T17:26:51Z</time>
      </trkpt>
      <trkpt lat="42.3179110" lon="-4.5518580">
        <ele>811.5</ele>
        <time>2020-04-05T17:26:53Z</time>
      </trkpt>
      <trkpt lat="42.3179500" lon="-4.5519840">
        <ele>811.8</ele>
        <time>2020-04-05T17:26:55Z</time>
      </trkpt>
      <trkpt lat="42.3180650" lon="-4.5523560">
        <ele>813.7</ele>
        <time>2020-04-05T17:26:57Z</time>
      </trkpt>
      <trkpt lat="42.3181030" lon="-4.5524830">
        <ele>814.1</ele>
        <time>2020-04-05T17:26:59Z</time>
      </trkpt>
      <trkpt lat="42.3181420" lon="-4.5526080">
        <ele>814.4</ele>
        <time>2020-04-05T17:27:01Z</time>
      </trkpt>
      <trkpt lat="42.3181800" lon="-4.5527330">
        <ele>814.6</ele>
        <time>2020-04-05T17:27:03Z</time>
      </trkpt>
      <trkpt lat="42.3182170" lon="-4.5528550">
        <ele>814.8</ele>
        <time>2020-04-05T17:27:05Z</time>
      </trkpt>
      <trkpt lat="42.3182550" lon="-4.5529790">
        <ele>815.1</ele>
        <time>2020-04-05T17:27:07Z</time>
      </trkpt>
      <trkpt lat="42.3183760" lon="-4.5533750">
        <ele>815.3</ele>
        <time>2020-04-05T17:27:09Z</time>
      </trkpt>
      <trkpt lat="42.3184130" lon="-4.5534960">
        <ele>815.3</ele>
        <time>2020-04-05T17:27:11Z</time>
      </trkpt>
      <trkpt lat="42.3184500" lon="-4.5536170">
        <ele>815.3</ele>
        <time>2020-04-05T17:27:13Z</time>
      </trkpt>
      <trkpt lat="42.3184870" lon="-4.5537360">
        <ele>815.4</ele>
        <time>2020-04-05T17:27:15Z</time>
      </trkpt>
      <trkpt lat="42.3185230" lon="-4.5538550">
        <ele>815.5</ele>
        <time>2020-04-05T17:27:17Z</time>
      </trkpt>
      <trkpt lat="42.3185590" lon="-4.5539730">
        <ele>815.7</ele>
        <time>2020-04-05T17:27:19Z</time>
      </trkpt>
      <trkpt lat="42.3185950" lon="-4.5540910">
        <ele>815.9</ele>
        <time>2020-04-05T17:27:21Z</time>
      </trkpt>
      <trkpt lat="42.3187150" lon="-4.5544830">
        <ele>816.2</ele>
        <time>2020-04-05T17:27:23Z</time>
      </trkpt>
      <trkpt lat="42.3187510" lon="-4.5546020">
        <ele>816.2</ele>
        <time>2020-04-05T17:27:25Z</time>
      </trkpt>
      <trkpt lat="42.3187880" lon="-4.5547210">
        <ele>816.2</ele>
        <time>2020-04-05T17:27:27Z</time>
      </trkpt>
      <trkpt lat="42.3188250" lon="-4.5548420">
        <ele>816.2</ele>
        <time>2020-04-05T17:27:29Z</time>
      </trkpt>
      <trkpt lat="42.3188620" lon="-4.5549630">
        <ele>816.2</ele>
        <time>2020-04-05T17:27:31Z</time>
      </trkpt>
      <trkpt lat="42.3188990" lon="-4.5550850">
        <ele>816.2</ele>
        <time>2020-04-05T17:27:33Z</time>
      </trkpt>
      <trkpt lat="42.3190200" lon="-4.5554810">
        <ele>816.1</ele>
        <time>2020-04-05T17:27:35Z</time>
      </trkpt>
      <trkpt lat="42.3190580" lon="-4.5556040">
        <ele>816.1</ele>
        <time>2020-04-05T17:27:37Z</time>
      </trkpt>
      <trkpt lat="42.3190960" lon="-4.5557270">
        <ele>816.1</ele>
        <time>2020-04-05T17:27:39Z</time>
      </trkpt>
      <trkpt lat="42.3191630" lon="-4.5559490">
        <ele>816.2</ele>
        <time>2020-04-05T17:27:41Z</time>
      </trkpt>
      <trkpt lat="42.3192000" lon="-4.5560720">
        <ele>816.3</ele>
        <time>2020-04-05T17:27:43Z</time>
      </trkpt>
      <trkpt lat="42.3192370" lon="-4.5561950">
        <ele>816.5</ele>
        <time>2020-04-05T17:27:45Z</time>
      </trkpt>
      <trkpt lat="42.3192740" lon="-4.5563190">
        <ele>816.7</ele>
        <time>2020-04-05T17:27:47Z</time>
      </trkpt>
      <trkpt lat="42.3193640" lon="-4.5566200">
        <ele>817.2</ele>
        <time>2020-04-05T17:27:49Z</time>
      </trkpt>
      <trkpt lat="42.3194030" lon="-4.5567500">
        <ele>817.2</ele>
        <time>2020-04-05T17:27:51Z</time>
      </trkpt>
      <trkpt lat="42.3194430" lon="-4.5568830">
        <ele>817.2</ele>
        <time>2020-04-05T17:27:53Z</time>
      </trkpt>
      <trkpt lat="42.3194840" lon="-4.5570190">
        <ele>817.3</ele>
        <time>2020-04-05T17:27:55Z</time>
      </trkpt>
      <trkpt lat="42.3195260" lon="-4.5571570">
        <ele>817.4</ele>
        <time>2020-04-05T17:27:57Z</time>
      </trkpt>
      <trkpt lat="42.3196510" lon="-4.5575730">
        <ele>818.1</ele>
        <time>2020-04-05T17:27:59Z</time>
      </trkpt>
      <trkpt lat="42.3196940" lon="-4.5577160">
        <ele>818.3</ele>
        <time>2020-04-05T17:28:01Z</time>
      </trkpt>
      <trkpt lat="42.3197650" lon="-4.5579490">
        <ele>818.6</ele>
        <time>2020-04-05T17:28:03Z</time>
      </trkpt>
      <trkpt lat="42.3198090" lon="-4.5580910">
        <ele>819.1</ele>
        <time>2020-04-05T17:28:05Z</time>
      </trkpt>
      <trkpt lat="42.3198520" lon="-4.5582280">
        <ele>819.4</ele>
        <time>2020-04-05T17:28:07Z</time>
      </trkpt>
      <trkpt lat="42.3198930" lon="-4.5583620">
        <ele>819.7</ele>
        <time>2020-04-05T17:28:09Z</time>
      </trkpt>
      <trkpt lat="42.3199920" lon="-4.5586780">
        <ele>820.4</ele>
        <time>2020-04-05T17:28:11Z</time>
      </trkpt>
      <trkpt lat="42.3200320" lon="-4.5588070">
        <ele>820.6</ele>
        <time>2020-04-05T17:28:13Z</time>
      </trkpt>
      <trkpt lat="42.3200720" lon="-4.5589340">
        <ele>820.8</ele>
        <time>2020-04-05T17:28:15Z</time>
      </trkpt>
      <trkpt lat="42.3201580" lon="-4.5592100">
        <ele>821.3</ele>
        <time>2020-04-05T17:28:17Z</time>
      </trkpt>
      <trkpt lat="42.3201960" lon="-4.5593350">
        <ele>821.4</ele>
        <time>2020-04-05T17:28:19Z</time>
      </trkpt>
      <trkpt lat="42.3202330" lon="-4.5594570">
        <ele>821.4</ele>
        <time>2020-04-05T17:28:21Z</time>
      </trkpt>
      <trkpt lat="42.3203080" lon="-4.5597020">
        <ele>821.4</ele>
        <time>2020-04-05T17:28:23Z</time>
      </trkpt>
      <trkpt lat="42.3203450" lon="-4.5598250">
        <ele>821.5</ele>
        <time>2020-04-05T17:28:25Z</time>
      </trkpt>
      <trkpt lat="42.3203830" lon="-4.5599480">
        <ele>821.5</ele>
        <time>2020-04-05T17:28:27Z</time>
      </trkpt>
      <trkpt lat="42.3204210" lon="-4.5600720">
        <ele>821.6</ele>
        <time>2020-04-05T17:28:29Z</time>
      </trkpt>
      <trkpt lat="42.3204590" lon="-4.5601970">
        <ele>821.8</ele>
        <time>2020-04-05T17:28:31Z</time>
      </trkpt>
      <trkpt lat="42.3204970" lon="-4.5603220">
        <ele>822.0</ele>
        <time>2020-04-05T17:28:33Z</time>
      </trkpt>
      <trkpt lat="42.3206180" lon="-4.5607220">
        <ele>822.4</ele>
        <time>2020-04-05T17:28:35Z</time>
      </trkpt>
      <trkpt lat="42.3206570" lon="-4.5608480">
        <ele>822.4</ele>
        <time>2020-04-05T17:28:37Z</time>
      </trkpt>
      <trkpt lat="42.3206960" lon="-4.5609760">
        <ele>822.4</ele>
        <time>2020-04-05T17:28:39Z</time>
      </trkpt>
      <trkpt lat="42.3207350" lon="-4.5611020">
        <ele>822.4</ele>
        <time>2020-04-05T17:28:41Z</time>
      </trkpt>
      <trkpt lat="42.3207740" lon="-4.5612290">
        <ele>822.3</ele>
        <time>2020-04-05T17:28:43Z</time>
      </trkpt>
      <trkpt lat="42.3208130" lon="-4.5613560">
        <ele>822.2</ele>
        <time>2020-04-05T17:28:45Z</time>
      </trkpt>
      <trkpt lat="42.3208510" lon="-4.5614840">
        <ele>822.1</ele>
        <time>2020-04-05T17:28:47Z</time>
      </trkpt>
      <trkpt lat="42.3209730" lon="-4.5618820">
        <ele>822.6</ele>
        <time>2020-04-05T17:28:49Z</time>
      </trkpt>
      <trkpt lat="42.3210090" lon="-4.5620000">
        <ele>823.0</ele>
        <time>2020-04-05T17:28:51Z</time>
      </trkpt>
      <trkpt lat="42.3210440" lon="-4.5621150">
        <ele>823.3</ele>
        <time>2020-04-05T17:28:53Z</time>
      </trkpt>
      <trkpt lat="42.3210780" lon="-4.5622250">
        <ele>823.6</ele>
        <time>2020-04-05T17:28:55Z</time>
      </trkpt>
      <trkpt lat="42.3211100" lon="-4.5623300">
        <ele>823.9</ele>
        <time>2020-04-05T17:28:57Z</time>
      </trkpt>
      <trkpt lat="42.3211410" lon="-4.5624340">
        <ele>824.1</ele>
        <time>2020-04-05T17:28:59Z</time>
      </trkpt>
      <trkpt lat="42.3211720" lon="-4.5625350">
        <ele>824.3</ele>
        <time>2020-04-05T17:29:01Z</time>
      </trkpt>
      <trkpt lat="42.3212860" lon="-4.5629070">
        <ele>825.1</ele>
        <time>2020-04-05T17:29:03Z</time>
      </trkpt>
      <trkpt lat="42.3213160" lon="-4.5630040">
        <ele>825.2</ele>
        <time>2020-04-05T17:29:05Z</time>
      </trkpt>
      <trkpt lat="42.3213450" lon="-4.5631000">
        <ele>825.4</ele>
        <time>2020-04-05T17:29:07Z</time>
      </trkpt>
      <trkpt lat="42.3214060" lon="-4.5633000">
        <ele>825.7</ele>
        <time>2020-04-05T17:29:09Z</time>
      </trkpt>
      <trkpt lat="42.3214350" lon="-4.5633930">
        <ele>826.0</ele>
        <time>2020-04-05T17:29:11Z</time>
      </trkpt>
      <trkpt lat="42.3214630" lon="-4.5634860">
        <ele>826.3</ele>
        <time>2020-04-05T17:29:13Z</time>
      </trkpt>
      <trkpt lat="42.3214910" lon="-4.5635780">
        <ele>826.7</ele>
        <time>2020-04-05T17:29:15Z</time>
      </trkpt>
      <trkpt lat="42.3215190" lon="-4.5636690">
        <ele>827.0</ele>
        <time>2020-04-05T17:29:17Z</time>
      </trkpt>
      <trkpt lat="42.3215980" lon="-4.5639280">
        <ele>828.1</ele>
        <time>2020-04-05T17:29:19Z</time>
      </trkpt>
      <trkpt lat="42.3216250" lon="-4.5640160">
        <ele>828.4</ele>
        <time>2020-04-05T17:29:21Z</time>
      </trkpt>
      <trkpt lat="42.3216510" lon="-4.5641030">
        <ele>828.7</ele>
        <time>2020-04-05T17:29:23Z</time>
      </trkpt>
      <trkpt lat="42.3216770" lon="-4.5641880">
        <ele>829.0</ele>
        <time>2020-04-05T17:29:25Z</time>
      </trkpt>
      <trkpt lat="42.3217030" lon="-4.5642720">
        <ele>829.4</ele>
        <time>2020-04-05T17:29:27Z</time>
      </trkpt>
      <trkpt lat="42.3217280" lon="-4.5643540">
        <ele>829.7</ele>
        <time>2020-04-05T17:29:29Z</time>
      </trkpt>
      <trkpt lat="42.3217530" lon="-4.5644360">
        <ele>830.1</ele>
        <time>2020-04-05T17:29:31Z</time>
      </trkpt>
      <trkpt lat="42.3217780" lon="-4.5645180">
        <ele>830.4</ele>
        <time>2020-04-05T17:29:33Z</time>
      </trkpt>
      <trkpt lat="42.3218020" lon="-4.5645990">
        <ele>830.6</ele>
        <time>2020-04-05T17:29:35Z</time>
      </trkpt>
      <trkpt lat="42.3219110" lon="-4.5649540">
        <ele>831.7</ele>
        <time>2020-04-05T17:29:37Z</time>
      </trkpt>
      <trkpt lat="42.3219360" lon="-4.5650350">
        <ele>831.9</ele>
        <time>2020-04-05T17:29:39Z</time>
      </trkpt>
      <trkpt lat="42.3219610" lon="-4.5651160">
        <ele>832.1</ele>
        <time>2020-04-05T17:29:41Z</time>
      </trkpt>
      <trkpt lat="42.3219850" lon="-4.5651970">
        <ele>832.3</ele>
        <time>2020-04-05T17:29:43Z</time>
      </trkpt>
      <trkpt lat="42.3220100" lon="-4.5652780">
        <ele>832.4</ele>
        <time>2020-04-05T17:29:45Z</time>
      </trkpt>
      <trkpt lat="42.3220740" lon="-4.5654860">
        <ele>832.8</ele>
        <time>2020-04-05T17:29:47Z</time>
      </trkpt>
      <trkpt lat="42.3220980" lon="-4.5655650">
        <ele>833.0</ele>
        <time>2020-04-05T17:29:49Z</time>
      </trkpt>
      <trkpt lat="42.3221220" lon="-4.5656420">
        <ele>833.3</ele>
        <time>2020-04-05T17:29:51Z</time>
      </trkpt>
      <trkpt lat="42.3221450" lon="-4.5657190">
        <ele>833.6</ele>
        <time>2020-04-05T17:29:53Z</time>
      </trkpt>
      <trkpt lat="42.3221690" lon="-4.5657950">
        <ele>833.9</ele>
        <time>2020-04-05T17:29:55Z</time>
      </trkpt>
      <trkpt lat="42.3222370" lon="-4.5660170">
        <ele>835.1</ele>
        <time>2020-04-05T17:29:57Z</time>
      </trkpt>
      <trkpt lat="42.3222630" lon="-4.5660900">
        <ele>835.4</ele>
        <time>2020-04-05T17:29:59Z</time>
      </trkpt>
      <trkpt lat="42.3222880" lon="-4.5661630">
        <ele>835.8</ele>
        <time>2020-04-05T17:30:01Z</time>
      </trkpt>
      <trkpt lat="42.3223140" lon="-4.5662360">
        <ele>836.0</ele>
        <time>2020-04-05T17:30:03Z</time>
      </trkpt>
      <trkpt lat="42.3223390" lon="-4.5663090">
        <ele>836.2</ele>
        <time>2020-04-05T17:30:05Z</time>
      </trkpt>
      <trkpt lat="42.3223640" lon="-4.5663820">
        <ele>836.4</ele>
        <time>2020-04-05T17:30:07Z</time>
      </trkpt>
      <trkpt lat="42.3223900" lon="-4.5664550">
        <ele>836.5</ele>
        <time>2020-04-05T17:30:09Z</time>
      </trkpt>
      <trkpt lat="42.3224150" lon="-4.5665270">
        <ele>836.7</ele>
        <time>2020-04-05T17:30:11Z</time>
      </trkpt>
      <trkpt lat="42.3225140" lon="-4.5668000">
        <ele>837.5</ele>
        <time>2020-04-05T17:30:13Z</time>
      </trkpt>
      <trkpt lat="42.3225450" lon="-4.5668730">
        <ele>837.8</ele>
        <time>2020-04-05T17:30:15Z</time>
      </trkpt>
      <trkpt lat="42.3225770" lon="-4.5669470">
        <ele>838.0</ele>
        <time>2020-04-05T17:30:17Z</time>
      </trkpt>
      <trkpt lat="42.3226080" lon="-4.5670210">
        <ele>838.2</ele>
        <time>2020-04-05T17:30:19Z</time>
      </trkpt>
      <trkpt lat="42.3226400" lon="-4.5670960">
        <ele>838.4</ele>
        <time>2020-04-05T17:30:21Z</time>
      </trkpt>
      <trkpt lat="42.3226730" lon="-4.5671710">
        <ele>838.7</ele>
        <time>2020-04-05T17:30:23Z</time>
      </trkpt>
      <trkpt lat="42.3227050" lon="-4.5672460">
        <ele>839.0</ele>
        <time>2020-04-05T17:30:25Z</time>
      </trkpt>
      <trkpt lat="42.3227370" lon="-4.5673210">
        <ele>839.2</ele>
        <time>2020-04-05T17:30:27Z</time>
      </trkpt>
      <trkpt lat="42.3227690" lon="-4.5673960">
        <ele>839.6</ele>
        <time>2020-04-05T17:30:29Z</time>
      </trkpt>
      <trkpt lat="42.3229050" lon="-4.5677140">
        <ele>840.8</ele>
        <time>2020-04-05T17:30:31Z</time>
      </trkpt>
      <trkpt lat="42.3229370" lon="-4.5677900">
        <ele>841.1</ele>
        <time>2020-04-05T17:30:33Z</time>
      </trkpt>
      <trkpt lat="42.3229700" lon="-4.5678660">
        <ele>841.3</ele>
        <time>2020-04-05T17:30:35Z</time>
      </trkpt>
      <trkpt lat="42.3230020" lon="-4.5679410">
        <ele>841.5</ele>
        <time>2020-04-05T17:30:37Z</time>
      </trkpt>
      <trkpt lat="42.3230740" lon="-4.5681120">
        <ele>841.9</ele>
        <time>2020-04-05T17:30:39Z</time>
      </trkpt>
      <trkpt lat="42.3231070" lon="-4.5681910">
        <ele>842.0</ele>
        <time>2020-04-05T17:30:41Z</time>
      </trkpt>
      <trkpt lat="42.3231400" lon="-4.5682720">
        <ele>842.2</ele>
        <time>2020-04-05T17:30:43Z</time>
      </trkpt>
      <trkpt lat="42.3231740" lon="-4.5683540">
        <ele>842.4</ele>
        <time>2020-04-05T17:30:45Z</time>
      </trkpt>
      <trkpt lat="42.3232080" lon="-4.5684380">
        <ele>842.6</ele>
        <time>2020-04-05T17:30:47Z</time>
      </trkpt>
      <trkpt lat="42.3233050" lon="-4.5686720">
        <ele>843.2</ele>
        <time>2020-04-05T17:30:49Z</time>
      </trkpt>
      <trkpt lat="42.3233390" lon="-4.5687560">
        <ele>843.4</ele>
        <time>2020-04-05T17:30:51Z</time>
      </trkpt>
      <trkpt lat="42.3233740" lon="-4.5688400">
        <ele>843.4</ele>
        <time>2020-04-05T17:30:53Z</time>
      </trkpt>
      <trkpt lat="42.3234090" lon="-4.5689250">
        <ele>843.5</ele>
        <time>2020-04-05T17:30:55Z</time>
      </trkpt>
      <trkpt lat="42.3234430" lon="-4.5690090">
        <ele>843.6</ele>
        <time>2020-04-05T17:30:57Z</time>
      </trkpt>
      <trkpt lat="42.3234780" lon="-4.5690930">
        <ele>843.8</ele>
        <time>2020-04-05T17:30:59Z</time>
      </trkpt>
      <trkpt lat="42.3235120" lon="-4.5691770">
        <ele>844.0</ele>
        <time>2020-04-05T17:31:01Z</time>
      </trkpt>
      <trkpt lat="42.3236340" lon="-4.5694710">
        <ele>844.8</ele>
        <time>2020-04-05T17:31:03Z</time>
      </trkpt>
      <trkpt lat="42.3236850" lon="-4.5695880">
        <ele>844.8</ele>
        <time>2020-04-05T17:31:05Z</time>
      </trkpt>
      <trkpt lat="42.3237240" lon="-4.5696770">
        <ele>844.8</ele>
        <time>2020-04-05T17:31:07Z</time>
      </trkpt>
      <trkpt lat="42.3237670" lon="-4.5697750">
        <ele>844.9</ele>
        <time>2020-04-05T17:31:09Z</time>
      </trkpt>
      <trkpt lat="42.3238130" lon="-4.5698790">
        <ele>844.9</ele>
        <time>2020-04-05T17:31:11Z</time>
      </trkpt>
      <trkpt lat="42.3238610" lon="-4.5699870">
        <ele>845.0</ele>
        <time>2020-04-05T17:31:13Z</time>
      </trkpt>
      <trkpt lat="42.3239090" lon="-4.5700970">
        <ele>845.2</ele>
        <time>2020-04-05T17:31:15Z</time>
      </trkpt>
      <trkpt lat="42.3239590" lon="-4.5702110">
        <ele>845.5</ele>
        <time>2020-04-05T17:31:17Z</time>
      </trkpt>
      <trkpt lat="42.3241180" lon="-4.5705670">
        <ele>846.4</ele>
        <time>2020-04-05T17:31:19Z</time>
      </trkpt>
      <trkpt lat="42.3241730" lon="-4.5706810">
        <ele>846.7</ele>
        <time>2020-04-05T17:31:21Z</time>
      </trkpt>
      <trkpt lat="42.3242290" lon="-4.5707960">
        <ele>846.8</ele>
        <time>2020-04-05T17:31:23Z</time>
      </trkpt>
      <trkpt lat="42.3242850" lon="-4.5709140">
        <ele>846.8</ele>
        <time>2020-04-05T17:31:25Z</time>
      </trkpt>
      <trkpt lat="42.3244190" lon="-4.5711820">
        <ele>846.7</ele>
        <time>2020-04-05T17:31:27Z</time>
      </trkpt>
      <trkpt lat="42.3244820" lon="-4.5713020">
        <ele>846.6</ele>
        <time>2020-04-05T17:31:29Z</time>
      </trkpt>
      <trkpt lat="42.3245440" lon="-4.5714220">
        <ele>846.6</ele>
        <time>2020-04-05T17:31:31Z</time>
      </trkpt>
      <trkpt lat="42.3246720" lon="-4.5716680">
        <ele>846.3</ele>
        <time>2020-04-05T17:31:33Z</time>
      </trkpt>
      <trkpt lat="42.3247270" lon="-4.5717730">
        <ele>846.3</ele>
        <time>2020-04-05T17:31:35Z</time>
      </trkpt>
      <trkpt lat="42.3247780" lon="-4.5718710">
        <ele>846.2</ele>
        <time>2020-04-05T17:31:37Z</time>
      </trkpt>
      <trkpt lat="42.3248290" lon="-4.5719690">
        <ele>846.2</ele>
        <time>2020-04-05T17:31:39Z</time>
      </trkpt>
      <trkpt lat="42.3249480" lon="-4.5721970">
        <ele>846.0</ele>
        <time>2020-04-05T17:31:41Z</time>
      </trkpt>
      <trkpt lat="42.3249970" lon="-4.5722930">
        <ele>845.9</ele>
        <time>2020-04-05T17:31:43Z</time>
      </trkpt>
      <trkpt lat="42.3250480" lon="-4.5723900">
        <ele>845.8</ele>
        <time>2020-04-05T17:31:45Z</time>
      </trkpt>
      <trkpt lat="42.3251580" lon="-4.5726040">
        <ele>845.6</ele>
        <time>2020-04-05T17:31:47Z</time>
      </trkpt>
      <trkpt lat="42.3252100" lon="-4.5727040">
        <ele>845.5</ele>
        <time>2020-04-05T17:31:49Z</time>
      </trkpt>
      <trkpt lat="42.3252630" lon="-4.5728060">
        <ele>845.4</ele>
        <time>2020-04-05T17:31:51Z</time>
      </trkpt>
      <trkpt lat="42.3253160" lon="-4.5729090">
        <ele>845.4</ele>
        <time>2020-04-05T17:31:53Z</time>
      </trkpt>
      <trkpt lat="42.3253690" lon="-4.5730120">
        <ele>845.3</ele>
        <time>2020-04-05T17:31:55Z</time>
      </trkpt>
      <trkpt lat="42.3254230" lon="-4.5731160">
        <ele>845.2</ele>
        <time>2020-04-05T17:31:57Z</time>
      </trkpt>
      <trkpt lat="42.3254780" lon="-4.5732210">
        <ele>845.1</ele>
        <time>2020-04-05T17:31:59Z</time>
      </trkpt>
      <trkpt lat="42.3256590" lon="-4.5735710">
        <ele>845.5</ele>
        <time>2020-04-05T17:32:01Z</time>
      </trkpt>
      <trkpt lat="42.3257110" lon="-4.5736730">
        <ele>845.6</ele>
        <time>2020-04-05T17:32:03Z</time>
      </trkpt>
      <trkpt lat="42.3257630" lon="-4.5737740">
        <ele>845.6</ele>
        <time>2020-04-05T17:32:05Z</time>
      </trkpt>
      <trkpt lat="42.3258150" lon="-4.5738760">
        <ele>845.6</ele>
        <time>2020-04-05T17:32:07Z</time>
      </trkpt>
      <trkpt lat="42.3258670" lon="-4.5739770">
        <ele>845.6</ele>
        <time>2020-04-05T17:32:09Z</time>
      </trkpt>
      <trkpt lat="42.3259180" lon="-4.5740760">
        <ele>845.6</ele>
        <time>2020-04-05T17:32:11Z</time>
      </trkpt>
      <trkpt lat="42.3260890" lon="-4.5744110">
        <ele>846.0</ele>
        <time>2020-04-05T17:32:13Z</time>
      </trkpt>
      <trkpt lat="42.3261400" lon="-4.5745090">
        <ele>846.2</ele>
        <time>2020-04-05T17:32:15Z</time>
      </trkpt>
      <trkpt lat="42.3261890" lon="-4.5746070">
        <ele>846.3</ele>
        <time>2020-04-05T17:32:17Z</time>
      </trkpt>
      <trkpt lat="42.3262390" lon="-4.5747040">
        <ele>846.4</ele>
        <time>2020-04-05T17:32:19Z</time>
      </trkpt>
      <trkpt lat="42.3262890" lon="-4.5748010">
        <ele>846.5</ele>
        <time>2020-04-05T17:32:21Z</time>
      </trkpt>
      <trkpt lat="42.3263380" lon="-4.5748970">
        <ele>846.6</ele>
        <time>2020-04-05T17:32:23Z</time>
      </trkpt>
      <trkpt lat="42.3263870" lon="-4.5749930">
        <ele>846.8</ele>
        <time>2020-04-05T17:32:25Z</time>
      </trkpt>
      <trkpt lat="42.3265570" lon="-4.5753230">
        <ele>847.2</ele>
        <time>2020-04-05T17:32:27Z</time>
      </trkpt>
      <trkpt lat="42.3266080" lon="-4.5754230">
        <ele>847.1</ele>
        <time>2020-04-05T17:32:29Z</time>
      </trkpt>
      <trkpt lat="42.3266610" lon="-4.5755260">
        <ele>847.1</ele>
        <time>2020-04-05T17:32:31Z</time>
      </trkpt>
      <trkpt lat="42.3267140" lon="-4.5756300">
        <ele>847.1</ele>
        <time>2020-04-05T17:32:33Z</time>
      </trkpt>
      <trkpt lat="42.3267680" lon="-4.5757360">
        <ele>847.2</ele>
        <time>2020-04-05T17:32:35Z</time>
      </trkpt>
      <trkpt lat="42.3268230" lon="-4.5758420">
        <ele>847.4</ele>
        <time>2020-04-05T17:32:37Z</time>
      </trkpt>
      <trkpt lat="42.3268770" lon="-4.5759470">
        <ele>847.6</ele>
        <time>2020-04-05T17:32:39Z</time>
      </trkpt>
      <trkpt lat="42.3270510" lon="-4.5762860">
        <ele>848.1</ele>
        <time>2020-04-05T17:32:41Z</time>
      </trkpt>
      <trkpt lat="42.3271040" lon="-4.5763900">
        <ele>848.2</ele>
        <time>2020-04-05T17:32:43Z</time>
      </trkpt>
      <trkpt lat="42.3271580" lon="-4.5764950">
        <ele>848.4</ele>
        <time>2020-04-05T17:32:45Z</time>
      </trkpt>
      <trkpt lat="42.3272110" lon="-4.5765990">
        <ele>848.5</ele>
        <time>2020-04-05T17:32:47Z</time>
      </trkpt>
      <trkpt lat="42.3273550" lon="-4.5768790">
        <ele>848.6</ele>
        <time>2020-04-05T17:32:49Z</time>
      </trkpt>
      <trkpt lat="42.3274090" lon="-4.5769810">
        <ele>848.6</ele>
        <time>2020-04-05T17:32:51Z</time>
      </trkpt>
      <trkpt lat="42.3274930" lon="-4.5771400">
        <ele>848.7</ele>
        <time>2020-04-05T17:32:53Z</time>
      </trkpt>
      <trkpt lat="42.3275480" lon="-4.5772440">
        <ele>848.8</ele>
        <time>2020-04-05T17:32:55Z</time>
      </trkpt>
      <trkpt lat="42.3276030" lon="-4.5773490">
        <ele>848.8</ele>
        <time>2020-04-05T17:32:57Z</time>
      </trkpt>
      <trkpt lat="42.3276580" lon="-4.5774540">
        <ele>848.6</ele>
        <time>2020-04-05T17:32:59Z</time>
      </trkpt>
      <trkpt lat="42.3277140" lon="-4.5775580">
        <ele>848.4</ele>
        <time>2020-04-05T17:33:01Z</time>
      </trkpt>
      <trkpt lat="42.3277700" lon="-4.5776650">
        <ele>848.1</ele>
        <time>2020-04-05T17:33:03Z</time>
      </trkpt>
      <trkpt lat="42.3279490" lon="-4.5780060">
        <ele>847.9</ele>
        <time>2020-04-05T17:33:05Z</time>
      </trkpt>
      <trkpt lat="42.3280070" lon="-4.5781180">
        <ele>848.0</ele>
        <time>2020-04-05T17:33:07Z</time>
      </trkpt>
      <trkpt lat="42.3280650" lon="-4.5782320">
        <ele>848.0</ele>
        <time>2020-04-05T17:33:09Z</time>
      </trkpt>
      <trkpt lat="42.3281250" lon="-4.5783490">
        <ele>847.9</ele>
        <time>2020-04-05T17:33:11Z</time>
      </trkpt>
      <trkpt lat="42.3281860" lon="-4.5784680">
        <ele>847.6</ele>
        <time>2020-04-05T17:33:13Z</time>
      </trkpt>
      <trkpt lat="42.3282480" lon="-4.5785880">
        <ele>847.3</ele>
        <time>2020-04-05T17:33:15Z</time>
      </trkpt>
      <trkpt lat="42.3284320" lon="-4.5789460">
        <ele>846.8</ele>
        <time>2020-04-05T17:33:17Z</time>
      </trkpt>
      <trkpt lat="42.3284980" lon="-4.5790740">
        <ele>846.5</ele>
        <time>2020-04-05T17:33:19Z</time>
      </trkpt>
      <trkpt lat="42.3285660" lon="-4.5792070">
        <ele>846.0</ele>
        <time>2020-04-05T17:33:21Z</time>
      </trkpt>
      <trkpt lat="42.3286370" lon="-4.5793450">
        <ele>845.4</ele>
        <time>2020-04-05T17:33:23Z</time>
      </trkpt>
      <trkpt lat="42.3287100" lon="-4.5794860">
        <ele>844.8</ele>
        <time>2020-04-05T17:33:25Z</time>
      </trkpt>
      <trkpt lat="42.3289090" lon="-4.5798740">
        <ele>843.4</ele>
        <time>2020-04-05T17:33:27Z</time>
      </trkpt>
      <trkpt lat="42.3289860" lon="-4.5800240">
        <ele>842.8</ele>
        <time>2020-04-05T17:33:29Z</time>
      </trkpt>
      <trkpt lat="42.3290640" lon="-4.5801760">
        <ele>841.8</ele>
        <time>2020-04-05T17:33:31Z</time>
      </trkpt>
      <trkpt lat="42.3291440" lon="-4.5803310">
        <ele>841.3</ele>
        <time>2020-04-05T17:33:33Z</time>
      </trkpt>
      <trkpt lat="42.3292240" lon="-4.5804870">
        <ele>841.0</ele>
        <time>2020-04-05T17:33:35Z</time>
      </trkpt>
      <trkpt lat="42.3294310" lon="-4.5808890">
        <ele>840.3</ele>
        <time>2020-04-05T17:33:37Z</time>
      </trkpt>
      <trkpt lat="42.3295140" lon="-4.5810500">
        <ele>840.2</ele>
        <time>2020-04-05T17:33:39Z</time>
      </trkpt>
      <trkpt lat="42.3295980" lon="-4.5812140">
        <ele>840.0</ele>
        <time>2020-04-05T17:33:41Z</time>
      </trkpt>
      <trkpt lat="42.3296820" lon="-4.5813770">
        <ele>839.8</ele>
        <time>2020-04-05T17:33:43Z</time>
      </trkpt>
      <trkpt lat="42.3298920" lon="-4.5817850">
        <ele>839.4</ele>
        <time>2020-04-05T17:33:45Z</time>
      </trkpt>
      <trkpt lat="42.3299780" lon="-4.5819520">
        <ele>839.5</ele>
        <time>2020-04-05T17:33:47Z</time>
      </trkpt>
      <trkpt lat="42.3300650" lon="-4.5821210">
        <ele>839.6</ele>
        <time>2020-04-05T17:33:49Z</time>
      </trkpt>
      <trkpt lat="42.3301520" lon="-4.5822910">
        <ele>839.6</ele>
        <time>2020-04-05T17:33:51Z</time>
      </trkpt>
      <trkpt lat="42.3303640" lon="-4.5827030">
        <ele>839.0</ele>
        <time>2020-04-05T17:33:53Z</time>
      </trkpt>
      <trkpt lat="42.3304520" lon="-4.5828740">
        <ele>838.6</ele>
        <time>2020-04-05T17:33:55Z</time>
      </trkpt>
      <trkpt lat="42.3305390" lon="-4.5830440">
        <ele>838.1</ele>
        <time>2020-04-05T17:33:57Z</time>
      </trkpt>
      <trkpt lat="42.3306270" lon="-4.5832130">
        <ele>837.5</ele>
        <time>2020-04-05T17:33:59Z</time>
      </trkpt>
      <trkpt lat="42.3308390" lon="-4.5836260">
        <ele>836.1</ele>
        <time>2020-04-05T17:34:01Z</time>
      </trkpt>
      <trkpt lat="42.3309270" lon="-4.5837970">
        <ele>835.6</ele>
        <time>2020-04-05T17:34:03Z</time>
      </trkpt>
      <trkpt lat="42.3310140" lon="-4.5839660">
        <ele>835.1</ele>
        <time>2020-04-05T17:34:05Z</time>
      </trkpt>
      <trkpt lat="42.3311010" lon="-4.5841370">
        <ele>834.8</ele>
        <time>2020-04-05T17:34:07Z</time>
      </trkpt>
      <trkpt lat="42.3313130" lon="-4.5845470">
        <ele>834.1</ele>
        <time>2020-04-05T17:34:09Z</time>
      </trkpt>
      <trkpt lat="42.3313960" lon="-4.5847110">
        <ele>834.0</ele>
        <time>2020-04-05T17:34:11Z</time>
      </trkpt>
      <trkpt lat="42.3314780" lon="-4.5848700">
        <ele>833.9</ele>
        <time>2020-04-05T17:34:13Z</time>
      </trkpt>
      <trkpt lat="42.3315570" lon="-4.5850240">
        <ele>833.9</ele>
        <time>2020-04-05T17:34:15Z</time>
      </trkpt>
      <trkpt lat="42.3317580" lon="-4.5854150">
        <ele>833.8</ele>
        <time>2020-04-05T17:34:17Z</time>
      </trkpt>
      <trkpt lat="42.3318350" lon="-4.5855630">
        <ele>833.8</ele>
        <time>2020-04-05T17:34:19Z</time>
      </trkpt>
      <trkpt lat="42.3319100" lon="-4.5857090">
        <ele>833.9</ele>
        <time>2020-04-05T17:34:21Z</time>
      </trkpt>
      <trkpt lat="42.3319850" lon="-4.5858550">
        <ele>834.0</ele>
        <time>2020-04-05T17:34:23Z</time>
      </trkpt>
      <trkpt lat="42.3320610" lon="-4.5860010">
        <ele>834.1</ele>
        <time>2020-04-05T17:34:25Z</time>
      </trkpt>
      <trkpt lat="42.3322600" lon="-4.5863890">
        <ele>834.0</ele>
        <time>2020-04-05T17:34:27Z</time>
      </trkpt>
      <trkpt lat="42.3323320" lon="-4.5865290">
        <ele>833.9</ele>
        <time>2020-04-05T17:34:29Z</time>
      </trkpt>
      <trkpt lat="42.3324020" lon="-4.5866650">
        <ele>833.7</ele>
        <time>2020-04-05T17:34:31Z</time>
      </trkpt>
      <trkpt lat="42.3324700" lon="-4.5867980">
        <ele>833.4</ele>
        <time>2020-04-05T17:34:33Z</time>
      </trkpt>
      <trkpt lat="42.3325380" lon="-4.5869300">
        <ele>833.3</ele>
        <time>2020-04-05T17:34:35Z</time>
      </trkpt>
      <trkpt lat="42.3327300" lon="-4.5873020">
        <ele>833.5</ele>
        <time>2020-04-05T17:34:37Z</time>
      </trkpt>
      <trkpt lat="42.3327970" lon="-4.5874330">
        <ele>833.6</ele>
        <time>2020-04-05T17:34:39Z</time>
      </trkpt>
      <trkpt lat="42.3328630" lon="-4.5875620">
        <ele>833.7</ele>
        <time>2020-04-05T17:34:41Z</time>
      </trkpt>
      <trkpt lat="42.3329290" lon="-4.5876910">
        <ele>833.8</ele>
        <time>2020-04-05T17:34:43Z</time>
      </trkpt>
      <trkpt lat="42.3329960" lon="-4.5878200">
        <ele>833.7</ele>
        <time>2020-04-05T17:34:45Z</time>
      </trkpt>
      <trkpt lat="42.3331860" lon="-4.5881910">
        <ele>833.4</ele>
        <time>2020-04-05T17:34:47Z</time>
      </trkpt>
      <trkpt lat="42.3332540" lon="-4.5883230">
        <ele>833.2</ele>
        <time>2020-04-05T17:34:49Z</time>
      </trkpt>
      <trkpt lat="42.3333260" lon="-4.5884620">
        <ele>833.0</ele>
        <time>2020-04-05T17:34:51Z</time>
      </trkpt>
      <trkpt lat="42.3334000" lon="-4.5886060">
        <ele>832.7</ele>
        <time>2020-04-05T17:34:53Z</time>
      </trkpt>
      <trkpt lat="42.3334750" lon="-4.5887530">
        <ele>832.4</ele>
        <time>2020-04-05T17:34:55Z</time>
      </trkpt>
      <trkpt lat="42.3336780" lon="-4.5891480">
        <ele>831.2</ele>
        <time>2020-04-05T17:34:57Z</time>
      </trkpt>
      <trkpt lat="42.3337590" lon="-4.5893040">
        <ele>830.8</ele>
        <time>2020-04-05T17:34:59Z</time>
      </trkpt>
      <trkpt lat="42.3338410" lon="-4.5894640">
        <ele>830.3</ele>
        <time>2020-04-05T17:35:01Z</time>
      </trkpt>
      <trkpt lat="42.3339240" lon="-4.5896250">
        <ele>829.7</ele>
        <time>2020-04-05T17:35:03Z</time>
      </trkpt>
      <trkpt lat="42.3341340" lon="-4.5900320">
        <ele>828.4</ele>
        <time>2020-04-05T17:35:05Z</time>
      </trkpt>
      <trkpt lat="42.3342160" lon="-4.5901930">
        <ele>828.0</ele>
        <time>2020-04-05T17:35:07Z</time>
      </trkpt>
      <trkpt lat="42.3342940" lon="-4.5903440">
        <ele>827.6</ele>
        <time>2020-04-05T17:35:09Z</time>
      </trkpt>
      <trkpt lat="42.3343680" lon="-4.5904880">
        <ele>827.4</ele>
        <time>2020-04-05T17:35:11Z</time>
      </trkpt>
      <trkpt lat="42.3344400" lon="-4.5906280">
        <ele>827.1</ele>
        <time>2020-04-05T17:35:13Z</time>
      </trkpt>
      <trkpt lat="42.3346330" lon="-4.5910060">
        <ele>826.4</ele>
        <time>2020-04-05T17:35:15Z</time>
      </trkpt>
      <trkpt lat="42.3347020" lon="-4.5911430">
        <ele>826.5</ele>
        <time>2020-04-05T17:35:17Z</time>
      </trkpt>
      <trkpt lat="42.3347710" lon="-4.5912780">
        <ele>826.7</ele>
        <time>2020-04-05T17:35:19Z</time>
      </trkpt>
      <trkpt lat="42.3348390" lon="-4.5914130">
        <ele>826.8</ele>
        <time>2020-04-05T17:35:21Z</time>
      </trkpt>
      <trkpt lat="42.3349070" lon="-4.5915470">
        <ele>826.9</ele>
        <time>2020-04-05T17:35:23Z</time>
      </trkpt>
      <trkpt lat="42.3351040" lon="-4.5919360">
        <ele>826.9</ele>
        <time>2020-04-05T17:35:25Z</time>
      </trkpt>
      <trkpt lat="42.3351710" lon="-4.5920670">
        <ele>826.8</ele>
        <time>2020-04-05T17:35:27Z</time>
      </trkpt>
      <trkpt lat="42.3352370" lon="-4.5921940">
        <ele>826.6</ele>
        <time>2020-04-05T17:35:29Z</time>
      </trkpt>
      <trkpt lat="42.3353010" lon="-4.5923190">
        <ele>826.5</ele>
        <time>2020-04-05T17:35:31Z</time>
      </trkpt>
      <trkpt lat="42.3353630" lon="-4.5924400">
        <ele>826.4</ele>
        <time>2020-04-05T17:35:33Z</time>
      </trkpt>
      <trkpt lat="42.3355190" lon="-4.5927440">
        <ele>826.6</ele>
        <time>2020-04-05T17:35:35Z</time>
      </trkpt>
      <trkpt lat="42.3355810" lon="-4.5928640">
        <ele>826.8</ele>
        <time>2020-04-05T17:35:37Z</time>
      </trkpt>
      <trkpt lat="42.3356430" lon="-4.5929830">
        <ele>827.0</ele>
        <time>2020-04-05T17:35:39Z</time>
      </trkpt>
      <trkpt lat="42.3357040" lon="-4.5931040">
        <ele>827.2</ele>
        <time>2020-04-05T17:35:41Z</time>
      </trkpt>
      <trkpt lat="42.3357660" lon="-4.5932240">
        <ele>827.3</ele>
        <time>2020-04-05T17:35:43Z</time>
      </trkpt>
      <trkpt lat="42.3359400" lon="-4.5935620">
        <ele>827.3</ele>
        <time>2020-04-05T17:35:45Z</time>
      </trkpt>
      <trkpt lat="42.3360010" lon="-4.5936810">
        <ele>827.3</ele>
        <time>2020-04-05T17:35:47Z</time>
      </trkpt>
      <trkpt lat="42.3360630" lon="-4.5938010">
        <ele>827.3</ele>
        <time>2020-04-05T17:35:49Z</time>
      </trkpt>
      <trkpt lat="42.3361240" lon="-4.5939210">
        <ele>827.3</ele>
        <time>2020-04-05T17:35:51Z</time>
      </trkpt>
      <trkpt lat="42.3361860" lon="-4.5940410">
        <ele>827.3</ele>
        <time>2020-04-05T17:35:53Z</time>
      </trkpt>
      <trkpt lat="42.3363600" lon="-4.5943790">
        <ele>827.1</ele>
        <time>2020-04-05T17:35:55Z</time>
      </trkpt>
      <trkpt lat="42.3364210" lon="-4.5944990">
        <ele>827.1</ele>
        <time>2020-04-05T17:35:57Z</time>
      </trkpt>
      <trkpt lat="42.3364830" lon="-4.5946200">
        <ele>827.1</ele>
        <time>2020-04-05T17:35:59Z</time>
      </trkpt>
      <trkpt lat="42.3365450" lon="-4.5947410">
        <ele>827.1</ele>
        <time>2020-04-05T17:36:01Z</time>
      </trkpt>
      <trkpt lat="42.3366090" lon="-4.5948650">
        <ele>827.1</ele>
        <time>2020-04-05T17:36:03Z</time>
      </trkpt>
      <trkpt lat="42.3367870" lon="-4.5952030">
        <ele>827.1</ele>
        <time>2020-04-05T17:36:05Z</time>
      </trkpt>
      <trkpt lat="42.3368560" lon="-4.5953150">
        <ele>827.1</ele>
        <time>2020-04-05T17:36:07Z</time>
      </trkpt>
      <trkpt lat="42.3369220" lon="-4.5954230">
        <ele>827.1</ele>
        <time>2020-04-05T17:36:09Z</time>
      </trkpt>
      <trkpt lat="42.3369850" lon="-4.5955270">
        <ele>827.1</ele>
        <time>2020-04-05T17:36:11Z</time>
      </trkpt>
      <trkpt lat="42.3370470" lon="-4.5956280">
        <ele>827.1</ele>
        <time>2020-04-05T17:36:13Z</time>
      </trkpt>
      <trkpt lat="42.3372240" lon="-4.5959070">
        <ele>827.2</ele>
        <time>2020-04-05T17:36:15Z</time>
      </trkpt>
      <trkpt lat="42.3372900" lon="-4.5960450">
        <ele>827.5</ele>
        <time>2020-04-05T17:36:17Z</time>
      </trkpt>
      <trkpt lat="42.3372910" lon="-4.5961620">
        <ele>827.7</ele>
        <time>2020-04-05T17:36:19Z</time>
      </trkpt>
      <trkpt lat="42.3373500" lon="-4.5962540">
        <ele>827.6</ele>
        <time>2020-04-05T17:36:21Z</time>
      </trkpt>
      <trkpt lat="42.3374160" lon="-4.5964300">
        <ele>827.6</ele>
        <time>2020-04-05T17:36:23Z</time>
      </trkpt>
      <trkpt lat="42.3374120" lon="-4.5965490">
        <ele>827.7</ele>
        <time>2020-04-05T17:36:25Z</time>
      </trkpt>
      <trkpt lat="42.3374070" lon="-4.5967550">
        <ele>827.8</ele>
        <time>2020-04-05T17:36:27Z</time>
      </trkpt>
      <trkpt lat="42.3374070" lon="-4.5968780">
        <ele>827.9</ele>
        <time>2020-04-05T17:36:29Z</time>
      </trkpt>
      <trkpt lat="42.3374070" lon="-4.5970060">
        <ele>828.0</ele>
        <time>2020-04-05T17:36:31Z</time>
      </trkpt>
      <trkpt lat="42.3374070" lon="-4.5971370">
        <ele>828.1</ele>
        <time>2020-04-05T17:36:33Z</time>
      </trkpt>
      <trkpt lat="42.3374080" lon="-4.5974370">
        <ele>828.3</ele>
        <time>2020-04-05T17:36:35Z</time>
      </trkpt>
      <trkpt lat="42.3374090" lon="-4.5976160">
        <ele>828.5</ele>
        <time>2020-04-05T17:36:37Z</time>
      </trkpt>
      <trkpt lat="42.3374100" lon="-4.5977540">
        <ele>828.6</ele>
        <time>2020-04-05T17:36:39Z</time>
      </trkpt>
      <trkpt lat="42.3374110" lon="-4.5978920">
        <ele>828.7</ele>
        <time>2020-04-05T17:36:41Z</time>
      </trkpt>
      <trkpt lat="42.3374130" lon="-4.5980320">
        <ele>828.8</ele>
        <time>2020-04-05T17:36:43Z</time>
      </trkpt>
      <trkpt lat="42.3374160" lon="-4.5983820">
        <ele>829.0</ele>
        <time>2020-04-05T17:36:45Z</time>
      </trkpt>
      <trkpt lat="42.3374180" lon="-4.5985620">
        <ele>829.1</ele>
        <time>2020-04-05T17:36:47Z</time>
      </trkpt>
      <trkpt lat="42.3374180" lon="-4.5987030">
        <ele>829.2</ele>
        <time>2020-04-05T17:36:49Z</time>
      </trkpt>
      <trkpt lat="42.3374190" lon="-4.5988420">
        <ele>829.4</ele>
        <time>2020-04-05T17:36:51Z</time>
      </trkpt>
      <trkpt lat="42.3374200" lon="-4.5989800">
        <ele>829.6</ele>
        <time>2020-04-05T17:36:53Z</time>
      </trkpt>
      <trkpt lat="42.3374130" lon="-4.5993300">
        <ele>830.4</ele>
        <time>2020-04-05T17:36:55Z</time>
      </trkpt>
      <trkpt lat="42.3373910" lon="-4.5994950">
        <ele>830.4</ele>
        <time>2020-04-05T17:36:57Z</time>
      </trkpt>
      <trkpt lat="42.3373750" lon="-4.5996290">
        <ele>830.4</ele>
        <time>2020-04-05T17:36:59Z</time>
      </trkpt>
      <trkpt lat="42.3373420" lon="-4.5998890">
        <ele>830.5</ele>
        <time>2020-04-05T17:37:01Z</time>
      </trkpt>
      <trkpt lat="42.3373220" lon="-4.6000220">
        <ele>830.8</ele>
        <time>2020-04-05T17:37:03Z</time>
      </trkpt>
      <trkpt lat="42.3372960" lon="-4.6002290">
        <ele>831.1</ele>
        <time>2020-04-05T17:37:05Z</time>
      </trkpt>
      <trkpt lat="42.3372810" lon="-4.6003590">
        <ele>831.4</ele>
        <time>2020-04-05T17:37:07Z</time>
      </trkpt>
      <trkpt lat="42.3372660" lon="-4.6004890">
        <ele>831.6</ele>
        <time>2020-04-05T17:37:09Z</time>
      </trkpt>
      <trkpt lat="42.3372510" lon="-4.6006170">
        <ele>831.9</ele>
        <time>2020-04-05T17:37:11Z</time>
      </trkpt>
      <trkpt lat="42.3372020" lon="-4.6009390">
        <ele>832.7</ele>
        <time>2020-04-05T17:37:13Z</time>
      </trkpt>
      <trkpt lat="42.3371660" lon="-4.6010790">
        <ele>833.0</ele>
        <time>2020-04-05T17:37:15Z</time>
      </trkpt>
      <trkpt lat="42.3371610" lon="-4.6012460">
        <ele>833.6</ele>
        <time>2020-04-05T17:37:17Z</time>
      </trkpt>
      <trkpt lat="42.3371750" lon="-4.6014320">
        <ele>834.1</ele>
        <time>2020-04-05T17:37:19Z</time>
      </trkpt>
      <trkpt lat="42.3371980" lon="-4.6015590">
        <ele>834.4</ele>
        <time>2020-04-05T17:37:21Z</time>
      </trkpt>
      <trkpt lat="42.3372220" lon="-4.6016920">
        <ele>834.6</ele>
        <time>2020-04-05T17:37:23Z</time>
      </trkpt>
      <trkpt lat="42.3372650" lon="-4.6019700">
        <ele>835.1</ele>
        <time>2020-04-05T17:37:25Z</time>
      </trkpt>
      <trkpt lat="42.3372870" lon="-4.6021150">
        <ele>835.0</ele>
        <time>2020-04-05T17:37:27Z</time>
      </trkpt>
      <trkpt lat="42.3373190" lon="-4.6023410">
        <ele>835.1</ele>
        <time>2020-04-05T17:37:29Z</time>
      </trkpt>
      <trkpt lat="42.3373670" lon="-4.6025320">
        <ele>835.3</ele>
        <time>2020-04-05T17:37:31Z</time>
      </trkpt>
      <trkpt lat="42.3374190" lon="-4.6027720">
        <ele>835.5</ele>
        <time>2020-04-05T17:37:33Z</time>
      </trkpt>
      <trkpt lat="42.3374550" lon="-4.6029180">
        <ele>835.8</ele>
        <time>2020-04-05T17:37:35Z</time>
      </trkpt>
      <trkpt lat="42.3374890" lon="-4.6030570">
        <ele>836.1</ele>
        <time>2020-04-05T17:37:37Z</time>
      </trkpt>
      <trkpt lat="42.3375610" lon="-4.6033010">
        <ele>836.5</ele>
        <time>2020-04-05T17:37:39Z</time>
      </trkpt>
      <trkpt lat="42.3376310" lon="-4.6034700">
        <ele>836.9</ele>
        <time>2020-04-05T17:37:41Z</time>
      </trkpt>
      <trkpt lat="42.3377170" lon="-4.6036230">
        <ele>837.2</ele>
        <time>2020-04-05T17:37:43Z</time>
      </trkpt>
      <trkpt lat="42.3378090" lon="-4.6036600">
        <ele>837.6</ele>
        <time>2020-04-05T17:37:45Z</time>
      </trkpt>
      <trkpt lat="42.3379430" lon="-4.6037020">
        <ele>838.0</ele>
        <time>2020-04-05T17:37:47Z</time>
      </trkpt>
      <trkpt lat="42.3380690" lon="-4.6036920">
        <ele>838.5</ele>
        <time>2020-04-05T17:37:49Z</time>
      </trkpt>
      <trkpt lat="42.3381720" lon="-4.6036840">
        <ele>838.8</ele>
        <time>2020-04-05T17:37:51Z</time>
      </trkpt>
      <trkpt lat="42.3382580" lon="-4.6036900">
        <ele>839.1</ele>
        <time>2020-04-05T17:37:53Z</time>
      </trkpt>
      <trkpt lat="42.3383460" lon="-4.6036970">
        <ele>839.3</ele>
        <time>2020-04-05T17:37:55Z</time>
      </trkpt>
      <trkpt lat="42.3385160" lon="-4.6037050">
        <ele>839.7</ele>
        <time>2020-04-05T17:37:57Z</time>
      </trkpt>
      <trkpt lat="42.3386050" lon="-4.6037060">
        <ele>840.0</ele>
        <time>2020-04-05T17:37:59Z</time>
      </trkpt>
      <trkpt lat="42.3386940" lon="-4.6037070">
        <ele>840.3</ele>
        <time>2020-04-05T17:38:01Z</time>
      </trkpt>
      <trkpt lat="42.3388960" lon="-4.6037250">
        <ele>840.8</ele>
        <time>2020-04-05T17:38:03Z</time>
      </trkpt>
      <trkpt lat="42.3389990" lon="-4.6037770">
        <ele>840.8</ele>
        <time>2020-04-05T17:38:05Z</time>
      </trkpt>
      <trkpt lat="42.3390830" lon="-4.6038180">
        <ele>840.7</ele>
        <time>2020-04-05T17:38:07Z</time>
      </trkpt>
      <trkpt lat="42.3392330" lon="-4.6038820">
        <ele>840.5</ele>
        <time>2020-04-05T17:38:09Z</time>
      </trkpt>
      <trkpt lat="42.3393260" lon="-4.6039060">
        <ele>840.5</ele>
        <time>2020-04-05T17:38:11Z</time>
      </trkpt>
      <trkpt lat="42.3394940" lon="-4.6039470">
        <ele>840.5</ele>
        <time>2020-04-05T17:38:13Z</time>
      </trkpt>
      <trkpt lat="42.3395930" lon="-4.6039640">
        <ele>840.5</ele>
        <time>2020-04-05T17:38:15Z</time>
      </trkpt>
      <trkpt lat="42.3397660" lon="-4.6040060">
        <ele>840.8</ele>
        <time>2020-04-05T17:38:17Z</time>
      </trkpt>
      <trkpt lat="42.3398910" lon="-4.6040960">
        <ele>840.9</ele>
        <time>2020-04-05T17:38:19Z</time>
      </trkpt>
      <trkpt lat="42.3399820" lon="-4.6041700">
        <ele>841.1</ele>
        <time>2020-04-05T17:38:21Z</time>
      </trkpt>
      <trkpt lat="42.3398890" lon="-4.6042910">
        <ele>841.0</ele>
        <time>2020-04-05T17:38:23Z</time>
      </trkpt>
      <trkpt lat="42.3397780" lon="-4.6044260">
        <ele>841.0</ele>
        <time>2020-04-05T17:38:25Z</time>
      </trkpt>
      <trkpt lat="42.3396780" lon="-4.6045660">
        <ele>840.9</ele>
        <time>2020-04-05T17:38:27Z</time>
      </trkpt>
      <trkpt lat="42.3396030" lon="-4.6047430">
        <ele>840.8</ele>
        <time>2020-04-05T17:38:29Z</time>
      </trkpt>
      <trkpt lat="42.3395310" lon="-4.6049630">
        <ele>840.7</ele>
        <time>2020-04-05T17:38:31Z</time>
      </trkpt>
      <trkpt lat="42.3394770" lon="-4.6051840">
        <ele>840.5</ele>
        <time>2020-04-05T17:38:33Z</time>
      </trkpt>
      <trkpt lat="42.3394390" lon="-4.6053630">
        <ele>839.6</ele>
        <time>2020-04-05T17:38:35Z</time>
      </trkpt>
      <trkpt lat="42.3393810" lon="-4.6056810">
        <ele>837.5</ele>
        <time>2020-04-05T17:38:37Z</time>
      </trkpt>
      <trkpt lat="42.3393760" lon="-4.6059540">
        <ele>835.3</ele>
        <time>2020-04-05T17:38:39Z</time>
      </trkpt>
      <trkpt lat="42.3394620" lon="-4.6062150">
        <ele>832.5</ele>
        <time>2020-04-05T17:38:41Z</time>
      </trkpt>
      <trkpt lat="42.3396030" lon="-4.6064960">
        <ele>828.2</ele>
        <time>2020-04-05T17:38:43Z</time>
      </trkpt>
      <trkpt lat="42.3396750" lon="-4.6068350">
        <ele>824.7</ele>
        <time>2020-04-05T17:38:45Z</time>
      </trkpt>
      <trkpt lat="42.3396630" lon="-4.6070890">
        <ele>824.7</ele>
        <time>2020-04-05T17:38:48Z</time>
      </trkpt>
      <trkpt lat="42.3396410" lon="-4.6075220">
        <ele>824.5</ele>
        <time>2020-04-05T17:38:50Z</time>
      </trkpt>
      <trkpt lat="42.3396300" lon="-4.6077550">
        <ele>824.1</ele>
        <time>2020-04-05T17:38:52Z</time>
      </trkpt>
      <trkpt lat="42.3396190" lon="-4.6079840">
        <ele>823.5</ele>
        <time>2020-04-05T17:38:54Z</time>
      </trkpt>
      <trkpt lat="42.3396620" lon="-4.6084470">
        <ele>823.5</ele>
        <time>2020-04-05T17:38:56Z</time>
      </trkpt>
      <trkpt lat="42.3397730" lon="-4.6086870">
        <ele>823.9</ele>
        <time>2020-04-05T17:38:58Z</time>
      </trkpt>
      <trkpt lat="42.3398680" lon="-4.6088540">
        <ele>824.3</ele>
        <time>2020-04-05T17:39:00Z</time>
      </trkpt>
      <trkpt lat="42.3399580" lon="-4.6090100">
        <ele>824.6</ele>
        <time>2020-04-05T17:39:02Z</time>
      </trkpt>
      <trkpt lat="42.3400420" lon="-4.6091560">
        <ele>825.0</ele>
        <time>2020-04-05T17:39:04Z</time>
      </trkpt>
      <trkpt lat="42.3402390" lon="-4.6094980">
        <ele>826.2</ele>
        <time>2020-04-05T17:39:06Z</time>
      </trkpt>
      <trkpt lat="42.3403560" lon="-4.6097030">
        <ele>827.1</ele>
        <time>2020-04-05T17:39:08Z</time>
      </trkpt>
      <trkpt lat="42.3404330" lon="-4.6098260">
        <ele>827.7</ele>
        <time>2020-04-05T17:39:10Z</time>
      </trkpt>
      <trkpt lat="42.3405320" lon="-4.6099890">
        <ele>827.4</ele>
        <time>2020-04-05T17:39:12Z</time>
      </trkpt>
      <trkpt lat="42.3405970" lon="-4.6100970">
        <ele>826.9</ele>
        <time>2020-04-05T17:39:14Z</time>
      </trkpt>
      <trkpt lat="42.3406960" lon="-4.6103170">
        <ele>826.3</ele>
        <time>2020-04-05T17:39:16Z</time>
      </trkpt>
      <trkpt lat="42.3407230" lon="-4.6104640">
        <ele>826.1</ele>
        <time>2020-04-05T17:39:18Z</time>
      </trkpt>
      <trkpt lat="42.3407390" lon="-4.6106540">
        <ele>825.9</ele>
        <time>2020-04-05T17:39:20Z</time>
      </trkpt>
      <trkpt lat="42.3407340" lon="-4.6107660">
        <ele>825.8</ele>
        <time>2020-04-05T17:39:22Z</time>
      </trkpt>
      <trkpt lat="42.3407290" lon="-4.6109280">
        <ele>825.8</ele>
        <time>2020-04-05T17:39:24Z</time>
      </trkpt>
      <trkpt lat="42.3407270" lon="-4.6110480">
        <ele>825.8</ele>
        <time>2020-04-05T17:39:26Z</time>
      </trkpt>
      <trkpt lat="42.3407250" lon="-4.6111770">
        <ele>825.9</ele>
        <time>2020-04-05T17:39:28Z</time>
      </trkpt>
      <trkpt lat="42.3407230" lon="-4.6113140">
        <ele>826.0</ele>
        <time>2020-04-05T17:39:30Z</time>
      </trkpt>
      <trkpt lat="42.3407210" lon="-4.6114550">
        <ele>826.0</ele>
        <time>2020-04-05T17:39:32Z</time>
      </trkpt>
      <trkpt lat="42.3407180" lon="-4.6116020">
        <ele>825.9</ele>
        <time>2020-04-05T17:39:34Z</time>
      </trkpt>
      <trkpt lat="42.3407130" lon="-4.6120630">
        <ele>825.1</ele>
        <time>2020-04-05T17:39:36Z</time>
      </trkpt>
      <trkpt lat="42.3407190" lon="-4.6122840">
        <ele>824.6</ele>
        <time>2020-04-05T17:39:38Z</time>
      </trkpt>
      <trkpt lat="42.3407250" lon="-4.6124500">
        <ele>824.6</ele>
        <time>2020-04-05T17:39:40Z</time>
      </trkpt>
      <trkpt lat="42.3407420" lon="-4.6127130">
        <ele>824.6</ele>
        <time>2020-04-05T17:39:42Z</time>
      </trkpt>
      <trkpt lat="42.3407730" lon="-4.6129320">
        <ele>824.9</ele>
        <time>2020-04-05T17:39:44Z</time>
      </trkpt>
      <trkpt lat="42.3408570" lon="-4.6131520">
        <ele>825.2</ele>
        <time>2020-04-05T17:39:46Z</time>
      </trkpt>
      <trkpt lat="42.3409560" lon="-4.6133000">
        <ele>825.4</ele>
        <time>2020-04-05T17:39:48Z</time>
      </trkpt>
      <trkpt lat="42.3409750" lon="-4.6135200">
        <ele>825.6</ele>
        <time>2020-04-05T17:39:50Z</time>
      </trkpt>
      <trkpt lat="42.3408940" lon="-4.6136980">
        <ele>825.7</ele>
        <time>2020-04-05T17:39:52Z</time>
      </trkpt>
      <trkpt lat="42.3408590" lon="-4.6138690">
        <ele>825.8</ele>
        <time>2020-04-05T17:39:54Z</time>
      </trkpt>
      <trkpt lat="42.3408600" lon="-4.6141010">
        <ele>825.8</ele>
        <time>2020-04-05T17:39:56Z</time>
      </trkpt>
      <trkpt lat="42.3408650" lon="-4.6143050">
        <ele>825.8</ele>
        <time>2020-04-05T17:39:58Z</time>
      </trkpt>
      <trkpt lat="42.3408790" lon="-4.6144590">
        <ele>825.7</ele>
        <time>2020-04-05T17:40:00Z</time>
      </trkpt>
      <trkpt lat="42.3409000" lon="-4.6146820">
        <ele>825.6</ele>
        <time>2020-04-05T17:40:02Z</time>
      </trkpt>
      <trkpt lat="42.3409140" lon="-4.6148340">
        <ele>825.5</ele>
        <time>2020-04-05T17:40:04Z</time>
      </trkpt>
      <trkpt lat="42.3409370" lon="-4.6151320">
        <ele>825.3</ele>
        <time>2020-04-05T17:40:06Z</time>
      </trkpt>
      <trkpt lat="42.3409490" lon="-4.6153100">
        <ele>825.2</ele>
        <time>2020-04-05T17:40:08Z</time>
      </trkpt>
      <trkpt lat="42.3409650" lon="-4.6155450">
        <ele>825.0</ele>
        <time>2020-04-05T17:40:10Z</time>
      </trkpt>
      <trkpt lat="42.3409730" lon="-4.6156960">
        <ele>825.0</ele>
        <time>2020-04-05T17:40:12Z</time>
      </trkpt>
      <trkpt lat="42.3409820" lon="-4.6158450">
        <ele>825.1</ele>
        <time>2020-04-05T17:40:14Z</time>
      </trkpt>
      <trkpt lat="42.3410000" lon="-4.6161510">
        <ele>825.0</ele>
        <time>2020-04-05T17:40:16Z</time>
      </trkpt>
      <trkpt lat="42.3410070" lon="-4.6163140">
        <ele>824.5</ele>
        <time>2020-04-05T17:40:18Z</time>
      </trkpt>
      <trkpt lat="42.3410120" lon="-4.6164620">
        <ele>823.9</ele>
        <time>2020-04-05T17:40:20Z</time>
      </trkpt>
      <trkpt lat="42.3410230" lon="-4.6167100">
        <ele>823.6</ele>
        <time>2020-04-05T17:40:22Z</time>
      </trkpt>
      <trkpt lat="42.3410300" lon="-4.6168600">
        <ele>823.8</ele>
        <time>2020-04-05T17:40:24Z</time>
      </trkpt>
      <trkpt lat="42.3410450" lon="-4.6171640">
        <ele>824.1</ele>
        <time>2020-04-05T17:40:26Z</time>
      </trkpt>
      <trkpt lat="42.3410560" lon="-4.6173720">
        <ele>824.2</ele>
        <time>2020-04-05T17:40:28Z</time>
      </trkpt>
      <trkpt lat="42.3410620" lon="-4.6175290">
        <ele>824.1</ele>
        <time>2020-04-05T17:40:30Z</time>
      </trkpt>
      <trkpt lat="42.3410680" lon="-4.6176880">
        <ele>823.9</ele>
        <time>2020-04-05T17:40:32Z</time>
      </trkpt>
      <trkpt lat="42.3410810" lon="-4.6179740">
        <ele>823.5</ele>
        <time>2020-04-05T17:40:34Z</time>
      </trkpt>
      <trkpt lat="42.3410930" lon="-4.6182110">
        <ele>823.2</ele>
        <time>2020-04-05T17:40:36Z</time>
      </trkpt>
      <trkpt lat="42.3411000" lon="-4.6183600">
        <ele>823.2</ele>
        <time>2020-04-05T17:40:38Z</time>
      </trkpt>
      <trkpt lat="42.3411080" lon="-4.6185050">
        <ele>823.1</ele>
        <time>2020-04-05T17:40:40Z</time>
      </trkpt>
      <trkpt lat="42.3411160" lon="-4.6186480">
        <ele>823.0</ele>
        <time>2020-04-05T17:40:42Z</time>
      </trkpt>
      <trkpt lat="42.3411230" lon="-4.6187880">
        <ele>822.9</ele>
        <time>2020-04-05T17:40:44Z</time>
      </trkpt>
      <trkpt lat="42.3411440" lon="-4.6191910">
        <ele>822.8</ele>
        <time>2020-04-05T17:40:46Z</time>
      </trkpt>
      <trkpt lat="42.3411590" lon="-4.6193360">
        <ele>822.9</ele>
        <time>2020-04-05T17:40:48Z</time>
      </trkpt>
      <trkpt lat="42.3411730" lon="-4.6194700">
        <ele>823.1</ele>
        <time>2020-04-05T17:40:50Z</time>
      </trkpt>
      <trkpt lat="42.3411870" lon="-4.6196040">
        <ele>823.3</ele>
        <time>2020-04-05T17:40:52Z</time>
      </trkpt>
      <trkpt lat="42.3412010" lon="-4.6197380">
        <ele>823.5</ele>
        <time>2020-04-05T17:40:54Z</time>
      </trkpt>
      <trkpt lat="42.3412150" lon="-4.6198720">
        <ele>823.7</ele>
        <time>2020-04-05T17:40:56Z</time>
      </trkpt>
      <trkpt lat="42.3412540" lon="-4.6202390">
        <ele>823.8</ele>
        <time>2020-04-05T17:40:58Z</time>
      </trkpt>
      <trkpt lat="42.3412680" lon="-4.6203730">
        <ele>823.9</ele>
        <time>2020-04-05T17:41:00Z</time>
      </trkpt>
      <trkpt lat="42.3412830" lon="-4.6205090">
        <ele>823.9</ele>
        <time>2020-04-05T17:41:02Z</time>
      </trkpt>
      <trkpt lat="42.3412970" lon="-4.6206450">
        <ele>824.0</ele>
        <time>2020-04-05T17:41:04Z</time>
      </trkpt>
      <trkpt lat="42.3413340" lon="-4.6210140">
        <ele>824.5</ele>
        <time>2020-04-05T17:41:06Z</time>
      </trkpt>
      <trkpt lat="42.3413300" lon="-4.6211950">
        <ele>824.9</ele>
        <time>2020-04-05T17:41:08Z</time>
      </trkpt>
      <trkpt lat="42.3412990" lon="-4.6213610">
        <ele>824.9</ele>
        <time>2020-04-05T17:41:10Z</time>
      </trkpt>
      <trkpt lat="42.3412740" lon="-4.6214950">
        <ele>824.8</ele>
        <time>2020-04-05T17:41:12Z</time>
      </trkpt>
      <trkpt lat="42.3412590" lon="-4.6217400">
        <ele>824.6</ele>
        <time>2020-04-05T17:41:14Z</time>
      </trkpt>
      <trkpt lat="42.3413100" lon="-4.6219010">
        <ele>824.5</ele>
        <time>2020-04-05T17:41:16Z</time>
      </trkpt>
      <trkpt lat="42.3413970" lon="-4.6220160">
        <ele>824.5</ele>
        <time>2020-04-05T17:41:18Z</time>
      </trkpt>
      <trkpt lat="42.3414370" lon="-4.6221950">
        <ele>824.4</ele>
        <time>2020-04-05T17:41:20Z</time>
      </trkpt>
      <trkpt lat="42.3414730" lon="-4.6223710">
        <ele>824.3</ele>
        <time>2020-04-05T17:41:22Z</time>
      </trkpt>
      <trkpt lat="42.3414780" lon="-4.6225560">
        <ele>824.3</ele>
        <time>2020-04-05T17:41:24Z</time>
      </trkpt>
      <trkpt lat="42.3414900" lon="-4.6227360">
        <ele>824.6</ele>
        <time>2020-04-05T17:41:26Z</time>
      </trkpt>
      <trkpt lat="42.3415020" lon="-4.6228850">
        <ele>824.9</ele>
        <time>2020-04-05T17:41:28Z</time>
      </trkpt>
      <trkpt lat="42.3415140" lon="-4.6230360">
        <ele>825.2</ele>
        <time>2020-04-05T17:41:30Z</time>
      </trkpt>
      <trkpt lat="42.3415260" lon="-4.6231910">
        <ele>825.2</ele>
        <time>2020-04-05T17:41:32Z</time>
      </trkpt>
      <trkpt lat="42.3415570" lon="-4.6235840">
        <ele>825.3</ele>
        <time>2020-04-05T17:41:34Z</time>
      </trkpt>
      <trkpt lat="42.3415700" lon="-4.6237400">
        <ele>825.4</ele>
        <time>2020-04-05T17:41:36Z</time>
      </trkpt>
      <trkpt lat="42.3415820" lon="-4.6238920">
        <ele>825.5</ele>
        <time>2020-04-05T17:41:38Z</time>
      </trkpt>
      <trkpt lat="42.3415940" lon="-4.6240420">
        <ele>825.7</ele>
        <time>2020-04-05T17:41:40Z</time>
      </trkpt>
      <trkpt lat="42.3416050" lon="-4.6241900">
        <ele>825.9</ele>
        <time>2020-04-05T17:41:42Z</time>
      </trkpt>
      <trkpt lat="42.3416170" lon="-4.6243330">
        <ele>826.1</ele>
        <time>2020-04-05T17:41:44Z</time>
      </trkpt>
      <trkpt lat="42.3416500" lon="-4.6247480">
        <ele>826.5</ele>
        <time>2020-04-05T17:41:46Z</time>
      </trkpt>
      <trkpt lat="42.3416610" lon="-4.6248890">
        <ele>826.7</ele>
        <time>2020-04-05T17:41:48Z</time>
      </trkpt>
      <trkpt lat="42.3416720" lon="-4.6250280">
        <ele>826.8</ele>
        <time>2020-04-05T17:41:50Z</time>
      </trkpt>
      <trkpt lat="42.3416970" lon="-4.6253250">
        <ele>827.1</ele>
        <time>2020-04-05T17:41:52Z</time>
      </trkpt>
      <trkpt lat="42.3417080" lon="-4.6254620">
        <ele>827.1</ele>
        <time>2020-04-05T17:41:54Z</time>
      </trkpt>
      <trkpt lat="42.3417290" lon="-4.6257070">
        <ele>827.1</ele>
        <time>2020-04-05T17:41:56Z</time>
      </trkpt>
      <trkpt lat="42.3417410" lon="-4.6258430">
        <ele>827.0</ele>
        <time>2020-04-05T17:41:58Z</time>
      </trkpt>
      <trkpt lat="42.3417530" lon="-4.6259800">
        <ele>827.0</ele>
        <time>2020-04-05T17:42:00Z</time>
      </trkpt>
      <trkpt lat="42.3417650" lon="-4.6261170">
        <ele>827.0</ele>
        <time>2020-04-05T17:42:02Z</time>
      </trkpt>
      <trkpt lat="42.3417770" lon="-4.6262560">
        <ele>827.0</ele>
        <time>2020-04-05T17:42:04Z</time>
      </trkpt>
      <trkpt lat="42.3417890" lon="-4.6263940">
        <ele>827.1</ele>
        <time>2020-04-05T17:42:06Z</time>
      </trkpt>
      <trkpt lat="42.3418280" lon="-4.6268040">
        <ele>827.7</ele>
        <time>2020-04-05T17:42:08Z</time>
      </trkpt>
      <trkpt lat="42.3418440" lon="-4.6269410">
        <ele>827.6</ele>
        <time>2020-04-05T17:42:10Z</time>
      </trkpt>
      <trkpt lat="42.3418590" lon="-4.6270790">
        <ele>827.4</ele>
        <time>2020-04-05T17:42:12Z</time>
      </trkpt>
      <trkpt lat="42.3418750" lon="-4.6272170">
        <ele>827.1</ele>
        <time>2020-04-05T17:42:14Z</time>
      </trkpt>
      <trkpt lat="42.3418910" lon="-4.6273550">
        <ele>827.0</ele>
        <time>2020-04-05T17:42:16Z</time>
      </trkpt>
      <trkpt lat="42.3419360" lon="-4.6277510">
        <ele>826.9</ele>
        <time>2020-04-05T17:42:18Z</time>
      </trkpt>
      <trkpt lat="42.3419510" lon="-4.6278890">
        <ele>826.9</ele>
        <time>2020-04-05T17:42:20Z</time>
      </trkpt>
      <trkpt lat="42.3419670" lon="-4.6280290">
        <ele>826.9</ele>
        <time>2020-04-05T17:42:22Z</time>
      </trkpt>
      <trkpt lat="42.3419830" lon="-4.6281700">
        <ele>826.9</ele>
        <time>2020-04-05T17:42:24Z</time>
      </trkpt>
      <trkpt lat="42.3419990" lon="-4.6283120">
        <ele>827.0</ele>
        <time>2020-04-05T17:42:26Z</time>
      </trkpt>
      <trkpt lat="42.3420440" lon="-4.6287120">
        <ele>827.7</ele>
        <time>2020-04-05T17:42:28Z</time>
      </trkpt>
      <trkpt lat="42.3420610" lon="-4.6288550">
        <ele>827.8</ele>
        <time>2020-04-05T17:42:30Z</time>
      </trkpt>
      <trkpt lat="42.3420770" lon="-4.6289970">
        <ele>827.8</ele>
        <time>2020-04-05T17:42:32Z</time>
      </trkpt>
      <trkpt lat="42.3420930" lon="-4.6291390">
        <ele>827.8</ele>
        <time>2020-04-05T17:42:34Z</time>
      </trkpt>
      <trkpt lat="42.3421100" lon="-4.6292840">
        <ele>827.7</ele>
        <time>2020-04-05T17:42:36Z</time>
      </trkpt>
      <trkpt lat="42.3421530" lon="-4.6296880">
        <ele>827.7</ele>
        <time>2020-04-05T17:42:38Z</time>
      </trkpt>
      <trkpt lat="42.3421640" lon="-4.6298320">
        <ele>827.7</ele>
        <time>2020-04-05T17:42:40Z</time>
      </trkpt>
      <trkpt lat="42.3421750" lon="-4.6299780">
        <ele>827.7</ele>
        <time>2020-04-05T17:42:42Z</time>
      </trkpt>
      <trkpt lat="42.3421860" lon="-4.6301230">
        <ele>827.7</ele>
        <time>2020-04-05T17:42:44Z</time>
      </trkpt>
      <trkpt lat="42.3421970" lon="-4.6302710">
        <ele>827.7</ele>
        <time>2020-04-05T17:42:46Z</time>
      </trkpt>
      <trkpt lat="42.3422080" lon="-4.6304180">
        <ele>827.6</ele>
        <time>2020-04-05T17:42:48Z</time>
      </trkpt>
      <trkpt lat="42.3422400" lon="-4.6308490">
        <ele>827.6</ele>
        <time>2020-04-05T17:42:50Z</time>
      </trkpt>
      <trkpt lat="42.3422510" lon="-4.6309990">
        <ele>827.6</ele>
        <time>2020-04-05T17:42:52Z</time>
      </trkpt>
      <trkpt lat="42.3422620" lon="-4.6311510">
        <ele>827.6</ele>
        <time>2020-04-05T17:42:54Z</time>
      </trkpt>
      <trkpt lat="42.3422730" lon="-4.6313010">
        <ele>827.6</ele>
        <time>2020-04-05T17:42:56Z</time>
      </trkpt>
      <trkpt lat="42.3422840" lon="-4.6314550">
        <ele>827.6</ele>
        <time>2020-04-05T17:42:58Z</time>
      </trkpt>
      <trkpt lat="42.3423170" lon="-4.6318900">
        <ele>827.5</ele>
        <time>2020-04-05T17:43:00Z</time>
      </trkpt>
      <trkpt lat="42.3423300" lon="-4.6320460">
        <ele>827.5</ele>
        <time>2020-04-05T17:43:02Z</time>
      </trkpt>
      <trkpt lat="42.3423430" lon="-4.6322040">
        <ele>827.5</ele>
        <time>2020-04-05T17:43:04Z</time>
      </trkpt>
      <trkpt lat="42.3423560" lon="-4.6323640">
        <ele>827.5</ele>
        <time>2020-04-05T17:43:06Z</time>
      </trkpt>
      <trkpt lat="42.3423700" lon="-4.6325240">
        <ele>827.5</ele>
        <time>2020-04-05T17:43:08Z</time>
      </trkpt>
      <trkpt lat="42.3424080" lon="-4.6329810">
        <ele>827.5</ele>
        <time>2020-04-05T17:43:10Z</time>
      </trkpt>
      <trkpt lat="42.3424230" lon="-4.6331440">
        <ele>827.7</ele>
        <time>2020-04-05T17:43:12Z</time>
      </trkpt>
      <trkpt lat="42.3424510" lon="-4.6334290">
        <ele>827.8</ele>
        <time>2020-04-05T17:43:14Z</time>
      </trkpt>
      <trkpt lat="42.3424660" lon="-4.6335930">
        <ele>827.3</ele>
        <time>2020-04-05T17:43:16Z</time>
      </trkpt>
      <trkpt lat="42.3424800" lon="-4.6337550">
        <ele>827.0</ele>
        <time>2020-04-05T17:43:18Z</time>
      </trkpt>
      <trkpt lat="42.3425100" lon="-4.6340850">
        <ele>826.8</ele>
        <time>2020-04-05T17:43:20Z</time>
      </trkpt>
      <trkpt lat="42.3425240" lon="-4.6342450">
        <ele>826.8</ele>
        <time>2020-04-05T17:43:22Z</time>
      </trkpt>
      <trkpt lat="42.3425390" lon="-4.6344050">
        <ele>826.8</ele>
        <time>2020-04-05T17:43:24Z</time>
      </trkpt>
      <trkpt lat="42.3425530" lon="-4.6345650">
        <ele>826.8</ele>
        <time>2020-04-05T17:43:26Z</time>
      </trkpt>
      <trkpt lat="42.3425680" lon="-4.6347240">
        <ele>826.9</ele>
        <time>2020-04-05T17:43:28Z</time>
      </trkpt>
      <trkpt lat="42.3425820" lon="-4.6348810">
        <ele>826.9</ele>
        <time>2020-04-05T17:43:30Z</time>
      </trkpt>
      <trkpt lat="42.3426240" lon="-4.6353440">
        <ele>826.9</ele>
        <time>2020-04-05T17:43:32Z</time>
      </trkpt>
      <trkpt lat="42.3426390" lon="-4.6355050">
        <ele>826.9</ele>
        <time>2020-04-05T17:43:34Z</time>
      </trkpt>
      <trkpt lat="42.3426530" lon="-4.6356650">
        <ele>826.9</ele>
        <time>2020-04-05T17:43:36Z</time>
      </trkpt>
      <trkpt lat="42.3426680" lon="-4.6358290">
        <ele>826.9</ele>
        <time>2020-04-05T17:43:38Z</time>
      </trkpt>
      <trkpt lat="42.3426830" lon="-4.6359950">
        <ele>826.9</ele>
        <time>2020-04-05T17:43:40Z</time>
      </trkpt>
      <trkpt lat="42.3427260" lon="-4.6364660">
        <ele>826.9</ele>
        <time>2020-04-05T17:43:42Z</time>
      </trkpt>
      <trkpt lat="42.3427410" lon="-4.6366330">
        <ele>827.0</ele>
        <time>2020-04-05T17:43:44Z</time>
      </trkpt>
      <trkpt lat="42.3427570" lon="-4.6368020">
        <ele>827.0</ele>
        <time>2020-04-05T17:43:46Z</time>
      </trkpt>
      <trkpt lat="42.3427720" lon="-4.6369710">
        <ele>827.0</ele>
        <time>2020-04-05T17:43:48Z</time>
      </trkpt>
      <trkpt lat="42.3427870" lon="-4.6371400">
        <ele>827.0</ele>
        <time>2020-04-05T17:43:50Z</time>
      </trkpt>
      <trkpt lat="42.3428300" lon="-4.6376150">
        <ele>827.0</ele>
        <time>2020-04-05T17:43:52Z</time>
      </trkpt>
      <trkpt lat="42.3428430" lon="-4.6377850">
        <ele>827.0</ele>
        <time>2020-04-05T17:43:54Z</time>
      </trkpt>
      <trkpt lat="42.3428560" lon="-4.6379550">
        <ele>827.0</ele>
        <time>2020-04-05T17:43:56Z</time>
      </trkpt>
      <trkpt lat="42.3428690" lon="-4.6381230">
        <ele>827.0</ele>
        <time>2020-04-05T17:43:58Z</time>
      </trkpt>
      <trkpt lat="42.3428830" lon="-4.6382920">
        <ele>827.0</ele>
        <time>2020-04-05T17:44:00Z</time>
      </trkpt>
      <trkpt lat="42.3429180" lon="-4.6387530">
        <ele>827.1</ele>
        <time>2020-04-05T17:44:02Z</time>
      </trkpt>
      <trkpt lat="42.3429310" lon="-4.6389200">
        <ele>827.3</ele>
        <time>2020-04-05T17:44:04Z</time>
      </trkpt>
      <trkpt lat="42.3429440" lon="-4.6390880">
        <ele>827.5</ele>
        <time>2020-04-05T17:44:06Z</time>
      </trkpt>
      <trkpt lat="42.3429570" lon="-4.6392540">
        <ele>827.8</ele>
        <time>2020-04-05T17:44:08Z</time>
      </trkpt>
      <trkpt lat="42.3429700" lon="-4.6394200">
        <ele>828.0</ele>
        <time>2020-04-05T17:44:10Z</time>
      </trkpt>
      <trkpt lat="42.3430050" lon="-4.6398780">
        <ele>828.1</ele>
        <time>2020-04-05T17:44:12Z</time>
      </trkpt>
      <trkpt lat="42.3430180" lon="-4.6400430">
        <ele>828.1</ele>
        <time>2020-04-05T17:44:14Z</time>
      </trkpt>
      <trkpt lat="42.3430310" lon="-4.6402090">
        <ele>828.1</ele>
        <time>2020-04-05T17:44:16Z</time>
      </trkpt>
      <trkpt lat="42.3430440" lon="-4.6403750">
        <ele>828.1</ele>
        <time>2020-04-05T17:44:18Z</time>
      </trkpt>
      <trkpt lat="42.3430570" lon="-4.6405400">
        <ele>828.1</ele>
        <time>2020-04-05T17:44:20Z</time>
      </trkpt>
      <trkpt lat="42.3430930" lon="-4.6409970">
        <ele>828.2</ele>
        <time>2020-04-05T17:44:22Z</time>
      </trkpt>
      <trkpt lat="42.3431060" lon="-4.6411630">
        <ele>828.2</ele>
        <time>2020-04-05T17:44:24Z</time>
      </trkpt>
      <trkpt lat="42.3431180" lon="-4.6413280">
        <ele>828.2</ele>
        <time>2020-04-05T17:44:26Z</time>
      </trkpt>
      <trkpt lat="42.3431310" lon="-4.6414940">
        <ele>828.2</ele>
        <time>2020-04-05T17:44:28Z</time>
      </trkpt>
      <trkpt lat="42.3431440" lon="-4.6416600">
        <ele>828.2</ele>
        <time>2020-04-05T17:44:30Z</time>
      </trkpt>
      <trkpt lat="42.3431800" lon="-4.6421150">
        <ele>828.5</ele>
        <time>2020-04-05T17:44:32Z</time>
      </trkpt>
      <trkpt lat="42.3431920" lon="-4.6422810">
        <ele>829.1</ele>
        <time>2020-04-05T17:44:34Z</time>
      </trkpt>
      <trkpt lat="42.3432040" lon="-4.6424470">
        <ele>829.3</ele>
        <time>2020-04-05T17:44:36Z</time>
      </trkpt>
      <trkpt lat="42.3432170" lon="-4.6426130">
        <ele>829.2</ele>
        <time>2020-04-05T17:44:38Z</time>
      </trkpt>
      <trkpt lat="42.3432290" lon="-4.6427780">
        <ele>829.0</ele>
        <time>2020-04-05T17:44:40Z</time>
      </trkpt>
      <trkpt lat="42.3432640" lon="-4.6432560">
        <ele>828.3</ele>
        <time>2020-04-05T17:44:42Z</time>
      </trkpt>
      <trkpt lat="42.3432770" lon="-4.6434220">
        <ele>828.3</ele>
        <time>2020-04-05T17:44:44Z</time>
      </trkpt>
      <trkpt lat="42.3432890" lon="-4.6435870">
        <ele>828.3</ele>
        <time>2020-04-05T17:44:46Z</time>
      </trkpt>
      <trkpt lat="42.3433020" lon="-4.6437510">
        <ele>828.3</ele>
        <time>2020-04-05T17:44:48Z</time>
      </trkpt>
      <trkpt lat="42.3433310" lon="-4.6441390">
        <ele>828.3</ele>
        <time>2020-04-05T17:44:50Z</time>
      </trkpt>
      <trkpt lat="42.3433430" lon="-4.6443030">
        <ele>828.3</ele>
        <time>2020-04-05T17:44:52Z</time>
      </trkpt>
      <trkpt lat="42.3433620" lon="-4.6445560">
        <ele>828.3</ele>
        <time>2020-04-05T17:44:54Z</time>
      </trkpt>
      <trkpt lat="42.3433740" lon="-4.6447200">
        <ele>828.4</ele>
        <time>2020-04-05T17:44:56Z</time>
      </trkpt>
      <trkpt lat="42.3433870" lon="-4.6448820">
        <ele>828.4</ele>
        <time>2020-04-05T17:44:58Z</time>
      </trkpt>
      <trkpt lat="42.3433990" lon="-4.6450440">
        <ele>828.3</ele>
        <time>2020-04-05T17:45:00Z</time>
      </trkpt>
      <trkpt lat="42.3434110" lon="-4.6452050">
        <ele>828.3</ele>
        <time>2020-04-05T17:45:02Z</time>
      </trkpt>
      <trkpt lat="42.3434460" lon="-4.6456770">
        <ele>828.8</ele>
        <time>2020-04-05T17:45:04Z</time>
      </trkpt>
      <trkpt lat="42.3434580" lon="-4.6458370">
        <ele>829.1</ele>
        <time>2020-04-05T17:45:06Z</time>
      </trkpt>
      <trkpt lat="42.3434700" lon="-4.6459970">
        <ele>829.3</ele>
        <time>2020-04-05T17:45:08Z</time>
      </trkpt>
      <trkpt lat="42.3434820" lon="-4.6461560">
        <ele>829.3</ele>
        <time>2020-04-05T17:45:10Z</time>
      </trkpt>
      <trkpt lat="42.3435080" lon="-4.6465080">
        <ele>829.2</ele>
        <time>2020-04-05T17:45:12Z</time>
      </trkpt>
      <trkpt lat="42.3435190" lon="-4.6466660">
        <ele>829.0</ele>
        <time>2020-04-05T17:45:14Z</time>
      </trkpt>
      <trkpt lat="42.3435380" lon="-4.6469420">
        <ele>828.8</ele>
        <time>2020-04-05T17:45:16Z</time>
      </trkpt>
      <trkpt lat="42.3435490" lon="-4.6470990">
        <ele>828.8</ele>
        <time>2020-04-05T17:45:18Z</time>
      </trkpt>
      <trkpt lat="42.3435600" lon="-4.6472560">
        <ele>828.9</ele>
        <time>2020-04-05T17:45:20Z</time>
      </trkpt>
      <trkpt lat="42.3435710" lon="-4.6474130">
        <ele>828.9</ele>
        <time>2020-04-05T17:45:22Z</time>
      </trkpt>
      <trkpt lat="42.3435830" lon="-4.6475710">
        <ele>828.9</ele>
        <time>2020-04-05T17:45:24Z</time>
      </trkpt>
      <trkpt lat="42.3436160" lon="-4.6480390">
        <ele>829.0</ele>
        <time>2020-04-05T17:45:26Z</time>
      </trkpt>
      <trkpt lat="42.3436270" lon="-4.6481930">
        <ele>829.0</ele>
        <time>2020-04-05T17:45:28Z</time>
      </trkpt>
      <trkpt lat="42.3436370" lon="-4.6483440">
        <ele>828.9</ele>
        <time>2020-04-05T17:45:30Z</time>
      </trkpt>
      <trkpt lat="42.3436480" lon="-4.6484970">
        <ele>828.7</ele>
        <time>2020-04-05T17:45:32Z</time>
      </trkpt>
      <trkpt lat="42.3436580" lon="-4.6486480">
        <ele>828.6</ele>
        <time>2020-04-05T17:45:34Z</time>
      </trkpt>
      <trkpt lat="42.3436690" lon="-4.6488000">
        <ele>828.6</ele>
        <time>2020-04-05T17:45:36Z</time>
      </trkpt>
      <trkpt lat="42.3437020" lon="-4.6492670">
        <ele>828.5</ele>
        <time>2020-04-05T17:45:38Z</time>
      </trkpt>
      <trkpt lat="42.3437130" lon="-4.6494230">
        <ele>828.5</ele>
        <time>2020-04-05T17:45:40Z</time>
      </trkpt>
      <trkpt lat="42.3437240" lon="-4.6495850">
        <ele>828.5</ele>
        <time>2020-04-05T17:45:42Z</time>
      </trkpt>
      <trkpt lat="42.3437360" lon="-4.6497490">
        <ele>828.5</ele>
        <time>2020-04-05T17:45:44Z</time>
      </trkpt>
      <trkpt lat="42.3437480" lon="-4.6499150">
        <ele>828.5</ele>
        <time>2020-04-05T17:45:46Z</time>
      </trkpt>
      <trkpt lat="42.3437810" lon="-4.6503880">
        <ele>828.4</ele>
        <time>2020-04-05T17:45:48Z</time>
      </trkpt>
      <trkpt lat="42.3437960" lon="-4.6505630">
        <ele>828.4</ele>
        <time>2020-04-05T17:45:50Z</time>
      </trkpt>
      <trkpt lat="42.3438100" lon="-4.6507320">
        <ele>828.4</ele>
        <time>2020-04-05T17:45:52Z</time>
      </trkpt>
      <trkpt lat="42.3438240" lon="-4.6509010">
        <ele>828.4</ele>
        <time>2020-04-05T17:45:54Z</time>
      </trkpt>
      <trkpt lat="42.3438380" lon="-4.6510720">
        <ele>828.2</ele>
        <time>2020-04-05T17:45:56Z</time>
      </trkpt>
      <trkpt lat="42.3438530" lon="-4.6512420">
        <ele>828.1</ele>
        <time>2020-04-05T17:45:58Z</time>
      </trkpt>
      <trkpt lat="42.3438960" lon="-4.6517170">
        <ele>828.0</ele>
        <time>2020-04-05T17:46:00Z</time>
      </trkpt>
      <trkpt lat="42.3439140" lon="-4.6518790">
        <ele>828.3</ele>
        <time>2020-04-05T17:46:02Z</time>
      </trkpt>
      <trkpt lat="42.3439310" lon="-4.6520360">
        <ele>828.5</ele>
        <time>2020-04-05T17:46:04Z</time>
      </trkpt>
      <trkpt lat="42.3439480" lon="-4.6521890">
        <ele>828.8</ele>
        <time>2020-04-05T17:46:06Z</time>
      </trkpt>
      <trkpt lat="42.3439940" lon="-4.6525820">
        <ele>829.7</ele>
        <time>2020-04-05T17:46:08Z</time>
      </trkpt>
      <trkpt lat="42.3440180" lon="-4.6527280">
        <ele>830.0</ele>
        <time>2020-04-05T17:46:10Z</time>
      </trkpt>
      <trkpt lat="42.3440420" lon="-4.6528710">
        <ele>830.4</ele>
        <time>2020-04-05T17:46:12Z</time>
      </trkpt>
      <trkpt lat="42.3440920" lon="-4.6531720">
        <ele>830.6</ele>
        <time>2020-04-05T17:46:14Z</time>
      </trkpt>
      <trkpt lat="42.3441210" lon="-4.6533080">
        <ele>830.6</ele>
        <time>2020-04-05T17:46:16Z</time>
      </trkpt>
      <trkpt lat="42.3441500" lon="-4.6534420">
        <ele>830.6</ele>
        <time>2020-04-05T17:46:18Z</time>
      </trkpt>
      <trkpt lat="42.3442060" lon="-4.6536840">
        <ele>830.6</ele>
        <time>2020-04-05T17:46:20Z</time>
      </trkpt>
      <trkpt lat="42.3442390" lon="-4.6538130">
        <ele>830.6</ele>
        <time>2020-04-05T17:46:22Z</time>
      </trkpt>
      <trkpt lat="42.3442730" lon="-4.6539440">
        <ele>830.6</ele>
        <time>2020-04-05T17:46:24Z</time>
      </trkpt>
      <trkpt lat="42.3443050" lon="-4.6540720">
        <ele>830.6</ele>
        <time>2020-04-05T17:46:26Z</time>
      </trkpt>
      <trkpt lat="42.3443380" lon="-4.6542000">
        <ele>830.6</ele>
        <time>2020-04-05T17:46:28Z</time>
      </trkpt>
      <trkpt lat="42.3443700" lon="-4.6543280">
        <ele>830.6</ele>
        <time>2020-04-05T17:46:30Z</time>
      </trkpt>
      <trkpt lat="42.3444770" lon="-4.6547470">
        <ele>830.6</ele>
        <time>2020-04-05T17:46:32Z</time>
      </trkpt>
      <trkpt lat="42.3445100" lon="-4.6548750">
        <ele>830.6</ele>
        <time>2020-04-05T17:46:34Z</time>
      </trkpt>
      <trkpt lat="42.3445420" lon="-4.6550030">
        <ele>830.6</ele>
        <time>2020-04-05T17:46:36Z</time>
      </trkpt>
      <trkpt lat="42.3445750" lon="-4.6551300">
        <ele>830.6</ele>
        <time>2020-04-05T17:46:38Z</time>
      </trkpt>
      <trkpt lat="42.3446080" lon="-4.6552580">
        <ele>830.6</ele>
        <time>2020-04-05T17:46:40Z</time>
      </trkpt>
      <trkpt lat="42.3446400" lon="-4.6553840">
        <ele>830.6</ele>
        <time>2020-04-05T17:46:42Z</time>
      </trkpt>
      <trkpt lat="42.3447430" lon="-4.6557890">
        <ele>830.7</ele>
        <time>2020-04-05T17:46:44Z</time>
      </trkpt>
      <trkpt lat="42.3447770" lon="-4.6559290">
        <ele>830.7</ele>
        <time>2020-04-05T17:46:46Z</time>
      </trkpt>
      <trkpt lat="42.3448070" lon="-4.6560520">
        <ele>830.7</ele>
        <time>2020-04-05T17:46:48Z</time>
      </trkpt>
      <trkpt lat="42.3448370" lon="-4.6561750">
        <ele>830.7</ele>
        <time>2020-04-05T17:46:50Z</time>
      </trkpt>
      <trkpt lat="42.3448670" lon="-4.6562970">
        <ele>830.7</ele>
        <time>2020-04-05T17:46:52Z</time>
      </trkpt>
      <trkpt lat="42.3448970" lon="-4.6564180">
        <ele>830.8</ele>
        <time>2020-04-05T17:46:54Z</time>
      </trkpt>
      <trkpt lat="42.3449260" lon="-4.6565360">
        <ele>830.8</ele>
        <time>2020-04-05T17:46:56Z</time>
      </trkpt>
      <trkpt lat="42.3450250" lon="-4.6569480">
        <ele>830.7</ele>
        <time>2020-04-05T17:46:58Z</time>
      </trkpt>
      <trkpt lat="42.3450420" lon="-4.6570700">
        <ele>830.7</ele>
        <time>2020-04-05T17:47:00Z</time>
      </trkpt>
      <trkpt lat="42.3450700" lon="-4.6572780">
        <ele>830.7</ele>
        <time>2020-04-05T17:47:02Z</time>
      </trkpt>
      <trkpt lat="42.3450860" lon="-4.6574460">
        <ele>830.7</ele>
        <time>2020-04-05T17:47:04Z</time>
      </trkpt>
      <trkpt lat="42.3450890" lon="-4.6575690">
        <ele>830.8</ele>
        <time>2020-04-05T17:47:06Z</time>
      </trkpt>
      <trkpt lat="42.3450880" lon="-4.6577560">
        <ele>831.0</ele>
        <time>2020-04-05T17:47:08Z</time>
      </trkpt>
      <trkpt lat="42.3450780" lon="-4.6579380">
        <ele>831.2</ele>
        <time>2020-04-05T17:47:10Z</time>
      </trkpt>
      <trkpt lat="42.3450630" lon="-4.6580560">
        <ele>831.4</ele>
        <time>2020-04-05T17:47:12Z</time>
      </trkpt>
      <trkpt lat="42.3450350" lon="-4.6582320">
        <ele>831.6</ele>
        <time>2020-04-05T17:47:14Z</time>
      </trkpt>
      <trkpt lat="42.3449990" lon="-4.6583930">
        <ele>832.0</ele>
        <time>2020-04-05T17:47:16Z</time>
      </trkpt>
      <trkpt lat="42.3449590" lon="-4.6585330">
        <ele>832.3</ele>
        <time>2020-04-05T17:47:18Z</time>
      </trkpt>
      <trkpt lat="42.3449210" lon="-4.6586490">
        <ele>832.6</ele>
        <time>2020-04-05T17:47:20Z</time>
      </trkpt>
      <trkpt lat="42.3448610" lon="-4.6588040">
        <ele>832.9</ele>
        <time>2020-04-05T17:47:22Z</time>
      </trkpt>
      <trkpt lat="42.3448160" lon="-4.6588960">
        <ele>833.1</ele>
        <time>2020-04-05T17:47:24Z</time>
      </trkpt>
      <trkpt lat="42.3447420" lon="-4.6590500">
        <ele>833.4</ele>
        <time>2020-04-05T17:47:26Z</time>
      </trkpt>
      <trkpt lat="42.3446960" lon="-4.6591460">
        <ele>833.5</ele>
        <time>2020-04-05T17:47:28Z</time>
      </trkpt>
      <trkpt lat="42.3446260" lon="-4.6592890">
        <ele>833.4</ele>
        <time>2020-04-05T17:47:30Z</time>
      </trkpt>
      <trkpt lat="42.3445730" lon="-4.6593960">
        <ele>833.3</ele>
        <time>2020-04-05T17:47:32Z</time>
      </trkpt>
      <trkpt lat="42.3445180" lon="-4.6595060">
        <ele>833.2</ele>
        <time>2020-04-05T17:47:34Z</time>
      </trkpt>
      <trkpt lat="42.3444130" lon="-4.6597420">
        <ele>833.1</ele>
        <time>2020-04-05T17:47:36Z</time>
      </trkpt>
      <trkpt lat="42.3443480" lon="-4.6599320">
        <ele>833.0</ele>
        <time>2020-04-05T17:47:38Z</time>
      </trkpt>
      <trkpt lat="42.3443080" lon="-4.6601160">
        <ele>833.0</ele>
        <time>2020-04-05T17:47:40Z</time>
      </trkpt>
      <trkpt lat="42.3442860" lon="-4.6603160">
        <ele>832.9</ele>
        <time>2020-04-05T17:47:42Z</time>
      </trkpt>
      <trkpt lat="42.3442740" lon="-4.6605340">
        <ele>832.5</ele>
        <time>2020-04-05T17:47:44Z</time>
      </trkpt>
      <trkpt lat="42.3442710" lon="-4.6606920">
        <ele>832.2</ele>
        <time>2020-04-05T17:47:46Z</time>
      </trkpt>
      <trkpt lat="42.3442680" lon="-4.6608530">
        <ele>832.0</ele>
        <time>2020-04-05T17:47:48Z</time>
      </trkpt>
      <trkpt lat="42.3442650" lon="-4.6610170">
        <ele>832.0</ele>
        <time>2020-04-05T17:47:50Z</time>
      </trkpt>
      <trkpt lat="42.3442620" lon="-4.6611820">
        <ele>832.0</ele>
        <time>2020-04-05T17:47:52Z</time>
      </trkpt>
      <trkpt lat="42.3442530" lon="-4.6616420">
        <ele>831.9</ele>
        <time>2020-04-05T17:47:54Z</time>
      </trkpt>
      <trkpt lat="42.3442500" lon="-4.6618060">
        <ele>831.9</ele>
        <time>2020-04-05T17:47:56Z</time>
      </trkpt>
      <trkpt lat="42.3442470" lon="-4.6619670">
        <ele>831.9</ele>
        <time>2020-04-05T17:47:58Z</time>
      </trkpt>
      <trkpt lat="42.3442430" lon="-4.6621280">
        <ele>831.9</ele>
        <time>2020-04-05T17:48:00Z</time>
      </trkpt>
      <trkpt lat="42.3442400" lon="-4.6622870">
        <ele>831.9</ele>
        <time>2020-04-05T17:48:02Z</time>
      </trkpt>
      <trkpt lat="42.3442300" lon="-4.6627380">
        <ele>832.0</ele>
        <time>2020-04-05T17:48:04Z</time>
      </trkpt>
      <trkpt lat="42.3442270" lon="-4.6628960">
        <ele>832.3</ele>
        <time>2020-04-05T17:48:06Z</time>
      </trkpt>
      <trkpt lat="42.3442240" lon="-4.6630540">
        <ele>832.5</ele>
        <time>2020-04-05T17:48:08Z</time>
      </trkpt>
      <trkpt lat="42.3442200" lon="-4.6632120">
        <ele>832.8</ele>
        <time>2020-04-05T17:48:10Z</time>
      </trkpt>
      <trkpt lat="42.3442170" lon="-4.6633680">
        <ele>832.8</ele>
        <time>2020-04-05T17:48:12Z</time>
      </trkpt>
      <trkpt lat="42.3442080" lon="-4.6638190">
        <ele>832.7</ele>
        <time>2020-04-05T17:48:14Z</time>
      </trkpt>
      <trkpt lat="42.3442050" lon="-4.6639750">
        <ele>832.5</ele>
        <time>2020-04-05T17:48:16Z</time>
      </trkpt>
      <trkpt lat="42.3442020" lon="-4.6641290">
        <ele>832.3</ele>
        <time>2020-04-05T17:48:18Z</time>
      </trkpt>
      <trkpt lat="42.3441990" lon="-4.6642790">
        <ele>832.1</ele>
        <time>2020-04-05T17:48:20Z</time>
      </trkpt>
      <trkpt lat="42.3441950" lon="-4.6644280">
        <ele>831.9</ele>
        <time>2020-04-05T17:48:22Z</time>
      </trkpt>
      <trkpt lat="42.3441920" lon="-4.6645760">
        <ele>831.8</ele>
        <time>2020-04-05T17:48:24Z</time>
      </trkpt>
      <trkpt lat="42.3441830" lon="-4.6650150">
        <ele>831.8</ele>
        <time>2020-04-05T17:48:26Z</time>
      </trkpt>
      <trkpt lat="42.3441810" lon="-4.6651610">
        <ele>831.8</ele>
        <time>2020-04-05T17:48:28Z</time>
      </trkpt>
      <trkpt lat="42.3441770" lon="-4.6653860">
        <ele>832.0</ele>
        <time>2020-04-05T17:48:30Z</time>
      </trkpt>
      <trkpt lat="42.3441750" lon="-4.6655330">
        <ele>832.2</ele>
        <time>2020-04-05T17:48:32Z</time>
      </trkpt>
      <trkpt lat="42.3441740" lon="-4.6656800">
        <ele>832.4</ele>
        <time>2020-04-05T17:48:34Z</time>
      </trkpt>
      <trkpt lat="42.3441720" lon="-4.6658290">
        <ele>832.6</ele>
        <time>2020-04-05T17:48:36Z</time>
      </trkpt>
      <trkpt lat="42.3441480" lon="-4.6662110">
        <ele>832.7</ele>
        <time>2020-04-05T17:48:38Z</time>
      </trkpt>
      <trkpt lat="42.3441450" lon="-4.6664050">
        <ele>832.7</ele>
        <time>2020-04-05T17:48:40Z</time>
      </trkpt>
      <trkpt lat="42.3441320" lon="-4.6665970">
        <ele>832.7</ele>
        <time>2020-04-05T17:48:42Z</time>
      </trkpt>
      <trkpt lat="42.3441210" lon="-4.6667460">
        <ele>832.7</ele>
        <time>2020-04-05T17:48:44Z</time>
      </trkpt>
      <trkpt lat="42.3441090" lon="-4.6668980">
        <ele>832.7</ele>
        <time>2020-04-05T17:48:46Z</time>
      </trkpt>
      <trkpt lat="42.3440980" lon="-4.6670480">
        <ele>832.7</ele>
        <time>2020-04-05T17:48:48Z</time>
      </trkpt>
      <trkpt lat="42.3440700" lon="-4.6674170">
        <ele>832.7</ele>
        <time>2020-04-05T17:48:50Z</time>
      </trkpt>
      <trkpt lat="42.3440530" lon="-4.6676540">
        <ele>832.7</ele>
        <time>2020-04-05T17:48:52Z</time>
      </trkpt>
      <trkpt lat="42.3440430" lon="-4.6678050">
        <ele>832.7</ele>
        <time>2020-04-05T17:48:54Z</time>
      </trkpt>
      <trkpt lat="42.3440260" lon="-4.6680460">
        <ele>832.7</ele>
        <time>2020-04-05T17:48:56Z</time>
      </trkpt>
      <trkpt lat="42.3440160" lon="-4.6681970">
        <ele>832.7</ele>
        <time>2020-04-05T17:48:58Z</time>
      </trkpt>
      <trkpt lat="42.3440050" lon="-4.6683460">
        <ele>832.7</ele>
        <time>2020-04-05T17:49:00Z</time>
      </trkpt>
      <trkpt lat="42.3439950" lon="-4.6684920">
        <ele>832.7</ele>
        <time>2020-04-05T17:49:02Z</time>
      </trkpt>
      <trkpt lat="42.3439700" lon="-4.6688520">
        <ele>832.7</ele>
        <time>2020-04-05T17:49:04Z</time>
      </trkpt>
      <trkpt lat="42.3439600" lon="-4.6689970">
        <ele>832.7</ele>
        <time>2020-04-05T17:49:06Z</time>
      </trkpt>
      <trkpt lat="42.3439500" lon="-4.6691400">
        <ele>832.8</ele>
        <time>2020-04-05T17:49:08Z</time>
      </trkpt>
      <trkpt lat="42.3439410" lon="-4.6692840">
        <ele>832.9</ele>
        <time>2020-04-05T17:49:10Z</time>
      </trkpt>
      <trkpt lat="42.3439310" lon="-4.6694250">
        <ele>833.2</ele>
        <time>2020-04-05T17:49:12Z</time>
      </trkpt>
      <trkpt lat="42.3439210" lon="-4.6695670">
        <ele>833.5</ele>
        <time>2020-04-05T17:49:14Z</time>
      </trkpt>
      <trkpt lat="42.3438900" lon="-4.6700110">
        <ele>833.6</ele>
        <time>2020-04-05T17:49:16Z</time>
      </trkpt>
      <trkpt lat="42.3438810" lon="-4.6701540">
        <ele>833.6</ele>
        <time>2020-04-05T17:49:18Z</time>
      </trkpt>
      <trkpt lat="42.3438710" lon="-4.6703000">
        <ele>833.6</ele>
        <time>2020-04-05T17:49:20Z</time>
      </trkpt>
      <trkpt lat="42.3438600" lon="-4.6704500">
        <ele>833.6</ele>
        <time>2020-04-05T17:49:22Z</time>
      </trkpt>
      <trkpt lat="42.3438500" lon="-4.6706020">
        <ele>833.6</ele>
        <time>2020-04-05T17:49:24Z</time>
      </trkpt>
      <trkpt lat="42.3438390" lon="-4.6707560">
        <ele>833.6</ele>
        <time>2020-04-05T17:49:26Z</time>
      </trkpt>
      <trkpt lat="42.3438050" lon="-4.6712150">
        <ele>833.6</ele>
        <time>2020-04-05T17:49:28Z</time>
      </trkpt>
      <trkpt lat="42.3437830" lon="-4.6714360">
        <ele>833.6</ele>
        <time>2020-04-05T17:49:30Z</time>
      </trkpt>
      <trkpt lat="42.3437680" lon="-4.6715940">
        <ele>833.6</ele>
        <time>2020-04-05T17:49:32Z</time>
      </trkpt>
      <trkpt lat="42.3437520" lon="-4.6717550">
        <ele>833.6</ele>
        <time>2020-04-05T17:49:34Z</time>
      </trkpt>
      <trkpt lat="42.3437370" lon="-4.6719170">
        <ele>833.6</ele>
        <time>2020-04-05T17:49:36Z</time>
      </trkpt>
      <trkpt lat="42.3436980" lon="-4.6723160">
        <ele>833.6</ele>
        <time>2020-04-05T17:49:38Z</time>
      </trkpt>
      <trkpt lat="42.3436820" lon="-4.6724770">
        <ele>833.6</ele>
        <time>2020-04-05T17:49:40Z</time>
      </trkpt>
      <trkpt lat="42.3436670" lon="-4.6726320">
        <ele>833.6</ele>
        <time>2020-04-05T17:49:42Z</time>
      </trkpt>
      <trkpt lat="42.3436520" lon="-4.6727850">
        <ele>833.6</ele>
        <time>2020-04-05T17:49:44Z</time>
      </trkpt>
      <trkpt lat="42.3436380" lon="-4.6729340">
        <ele>833.6</ele>
        <time>2020-04-05T17:49:46Z</time>
      </trkpt>
      <trkpt lat="42.3436240" lon="-4.6730820">
        <ele>833.6</ele>
        <time>2020-04-05T17:49:48Z</time>
      </trkpt>
      <trkpt lat="42.3435800" lon="-4.6735280">
        <ele>833.5</ele>
        <time>2020-04-05T17:49:50Z</time>
      </trkpt>
      <trkpt lat="42.3435670" lon="-4.6736710">
        <ele>833.5</ele>
        <time>2020-04-05T17:49:52Z</time>
      </trkpt>
      <trkpt lat="42.3435530" lon="-4.6738120">
        <ele>833.5</ele>
        <time>2020-04-05T17:49:54Z</time>
      </trkpt>
      <trkpt lat="42.3435400" lon="-4.6739500">
        <ele>833.5</ele>
        <time>2020-04-05T17:49:56Z</time>
      </trkpt>
      <trkpt lat="42.3435270" lon="-4.6740880">
        <ele>833.5</ele>
        <time>2020-04-05T17:49:58Z</time>
      </trkpt>
      <trkpt lat="42.3435140" lon="-4.6742230">
        <ele>833.5</ele>
        <time>2020-04-05T17:50:00Z</time>
      </trkpt>
      <trkpt lat="42.3434720" lon="-4.6746600">
        <ele>834.2</ele>
        <time>2020-04-05T17:50:02Z</time>
      </trkpt>
      <trkpt lat="42.3434580" lon="-4.6747960">
        <ele>834.4</ele>
        <time>2020-04-05T17:50:04Z</time>
      </trkpt>
      <trkpt lat="42.3434450" lon="-4.6749330">
        <ele>834.5</ele>
        <time>2020-04-05T17:50:06Z</time>
      </trkpt>
      <trkpt lat="42.3434320" lon="-4.6750690">
        <ele>834.5</ele>
        <time>2020-04-05T17:50:08Z</time>
      </trkpt>
      <trkpt lat="42.3434190" lon="-4.6752050">
        <ele>834.5</ele>
        <time>2020-04-05T17:50:10Z</time>
      </trkpt>
      <trkpt lat="42.3434050" lon="-4.6753410">
        <ele>834.5</ele>
        <time>2020-04-05T17:50:12Z</time>
      </trkpt>
      <trkpt lat="42.3433630" lon="-4.6757800">
        <ele>834.5</ele>
        <time>2020-04-05T17:50:14Z</time>
      </trkpt>
      <trkpt lat="42.3433500" lon="-4.6759190">
        <ele>834.5</ele>
        <time>2020-04-05T17:50:16Z</time>
      </trkpt>
      <trkpt lat="42.3433370" lon="-4.6760560">
        <ele>834.5</ele>
        <time>2020-04-05T17:50:18Z</time>
      </trkpt>
      <trkpt lat="42.3433230" lon="-4.6761950">
        <ele>834.5</ele>
        <time>2020-04-05T17:50:20Z</time>
      </trkpt>
      <trkpt lat="42.3433100" lon="-4.6763340">
        <ele>834.5</ele>
        <time>2020-04-05T17:50:22Z</time>
      </trkpt>
      <trkpt lat="42.3432730" lon="-4.6767170">
        <ele>834.4</ele>
        <time>2020-04-05T17:50:24Z</time>
      </trkpt>
      <trkpt lat="42.3432520" lon="-4.6769120">
        <ele>834.4</ele>
        <time>2020-04-05T17:50:26Z</time>
      </trkpt>
      <trkpt lat="42.3432380" lon="-4.6770530">
        <ele>834.4</ele>
        <time>2020-04-05T17:50:28Z</time>
      </trkpt>
      <trkpt lat="42.3432230" lon="-4.6771930">
        <ele>834.4</ele>
        <time>2020-04-05T17:50:30Z</time>
      </trkpt>
      <trkpt lat="42.3432080" lon="-4.6773360">
        <ele>834.4</ele>
        <time>2020-04-05T17:50:32Z</time>
      </trkpt>
      <trkpt lat="42.3431940" lon="-4.6774790">
        <ele>834.4</ele>
        <time>2020-04-05T17:50:34Z</time>
      </trkpt>
      <trkpt lat="42.3431560" lon="-4.6778510">
        <ele>834.5</ele>
        <time>2020-04-05T17:50:36Z</time>
      </trkpt>
      <trkpt lat="42.3431360" lon="-4.6780650">
        <ele>834.6</ele>
        <time>2020-04-05T17:50:38Z</time>
      </trkpt>
      <trkpt lat="42.3431230" lon="-4.6782090">
        <ele>834.7</ele>
        <time>2020-04-05T17:50:40Z</time>
      </trkpt>
      <trkpt lat="42.3431090" lon="-4.6783580">
        <ele>834.8</ele>
        <time>2020-04-05T17:50:42Z</time>
      </trkpt>
      <trkpt lat="42.3430960" lon="-4.6785080">
        <ele>834.9</ele>
        <time>2020-04-05T17:50:44Z</time>
      </trkpt>
      <trkpt lat="42.3430820" lon="-4.6786600">
        <ele>835.0</ele>
        <time>2020-04-05T17:50:46Z</time>
      </trkpt>
      <trkpt lat="42.3430680" lon="-4.6788140">
        <ele>835.1</ele>
        <time>2020-04-05T17:50:48Z</time>
      </trkpt>
      <trkpt lat="42.3430260" lon="-4.6792710">
        <ele>835.1</ele>
        <time>2020-04-05T17:50:50Z</time>
      </trkpt>
      <trkpt lat="42.3430070" lon="-4.6794640">
        <ele>834.9</ele>
        <time>2020-04-05T17:50:52Z</time>
      </trkpt>
      <trkpt lat="42.3429920" lon="-4.6796160">
        <ele>834.7</ele>
        <time>2020-04-05T17:50:54Z</time>
      </trkpt>
      <trkpt lat="42.3429760" lon="-4.6797710">
        <ele>834.6</ele>
        <time>2020-04-05T17:50:56Z</time>
      </trkpt>
      <trkpt lat="42.3429610" lon="-4.6799260">
        <ele>834.5</ele>
        <time>2020-04-05T17:50:58Z</time>
      </trkpt>
      <trkpt lat="42.3429450" lon="-4.6800840">
        <ele>834.5</ele>
        <time>2020-04-05T17:51:00Z</time>
      </trkpt>
      <trkpt lat="42.3429030" lon="-4.6805050">
        <ele>834.5</ele>
        <time>2020-04-05T17:51:02Z</time>
      </trkpt>
      <trkpt lat="42.3428880" lon="-4.6806650">
        <ele>834.5</ele>
        <time>2020-04-05T17:51:04Z</time>
      </trkpt>
      <trkpt lat="42.3428720" lon="-4.6808250">
        <ele>834.5</ele>
        <time>2020-04-05T17:51:06Z</time>
      </trkpt>
      <trkpt lat="42.3428560" lon="-4.6809870">
        <ele>834.5</ele>
        <time>2020-04-05T17:51:08Z</time>
      </trkpt>
      <trkpt lat="42.3428400" lon="-4.6811480">
        <ele>834.5</ele>
        <time>2020-04-05T17:51:10Z</time>
      </trkpt>
      <trkpt lat="42.3427920" lon="-4.6816120">
        <ele>834.5</ele>
        <time>2020-04-05T17:51:12Z</time>
      </trkpt>
      <trkpt lat="42.3427740" lon="-4.6817740">
        <ele>834.5</ele>
        <time>2020-04-05T17:51:14Z</time>
      </trkpt>
      <trkpt lat="42.3427550" lon="-4.6819360">
        <ele>834.5</ele>
        <time>2020-04-05T17:51:16Z</time>
      </trkpt>
      <trkpt lat="42.3427370" lon="-4.6820980">
        <ele>834.5</ele>
        <time>2020-04-05T17:51:18Z</time>
      </trkpt>
      <trkpt lat="42.3427180" lon="-4.6822570">
        <ele>834.5</ele>
        <time>2020-04-05T17:51:20Z</time>
      </trkpt>
      <trkpt lat="42.3426680" lon="-4.6826940">
        <ele>834.7</ele>
        <time>2020-04-05T17:51:22Z</time>
      </trkpt>
      <trkpt lat="42.3426500" lon="-4.6828550">
        <ele>834.7</ele>
        <time>2020-04-05T17:51:24Z</time>
      </trkpt>
      <trkpt lat="42.3426310" lon="-4.6830150">
        <ele>834.7</ele>
        <time>2020-04-05T17:51:26Z</time>
      </trkpt>
      <trkpt lat="42.3426130" lon="-4.6831760">
        <ele>834.7</ele>
        <time>2020-04-05T17:51:28Z</time>
      </trkpt>
      <trkpt lat="42.3425940" lon="-4.6833370">
        <ele>834.7</ele>
        <time>2020-04-05T17:51:30Z</time>
      </trkpt>
      <trkpt lat="42.3425440" lon="-4.6837720">
        <ele>834.8</ele>
        <time>2020-04-05T17:51:32Z</time>
      </trkpt>
      <trkpt lat="42.3425260" lon="-4.6839310">
        <ele>834.8</ele>
        <time>2020-04-05T17:51:34Z</time>
      </trkpt>
      <trkpt lat="42.3425080" lon="-4.6840890">
        <ele>834.8</ele>
        <time>2020-04-05T17:51:36Z</time>
      </trkpt>
      <trkpt lat="42.3424900" lon="-4.6842460">
        <ele>834.8</ele>
        <time>2020-04-05T17:51:38Z</time>
      </trkpt>
      <trkpt lat="42.3424400" lon="-4.6846780">
        <ele>834.9</ele>
        <time>2020-04-05T17:51:40Z</time>
      </trkpt>
      <trkpt lat="42.3424230" lon="-4.6848330">
        <ele>835.1</ele>
        <time>2020-04-05T17:51:42Z</time>
      </trkpt>
      <trkpt lat="42.3424000" lon="-4.6850510">
        <ele>835.3</ele>
        <time>2020-04-05T17:51:44Z</time>
      </trkpt>
      <trkpt lat="42.3423850" lon="-4.6852020">
        <ele>835.4</ele>
        <time>2020-04-05T17:51:46Z</time>
      </trkpt>
      <trkpt lat="42.3423690" lon="-4.6853520">
        <ele>835.4</ele>
        <time>2020-04-05T17:51:48Z</time>
      </trkpt>
      <trkpt lat="42.3423540" lon="-4.6855010">
        <ele>835.5</ele>
        <time>2020-04-05T17:51:50Z</time>
      </trkpt>
      <trkpt lat="42.3423180" lon="-4.6858560">
        <ele>835.6</ele>
        <time>2020-04-05T17:51:52Z</time>
      </trkpt>
      <trkpt lat="42.3423030" lon="-4.6860050">
        <ele>835.6</ele>
        <time>2020-04-05T17:51:54Z</time>
      </trkpt>
      <trkpt lat="42.3422740" lon="-4.6862780">
        <ele>835.7</ele>
        <time>2020-04-05T17:51:56Z</time>
      </trkpt>
      <trkpt lat="42.3422570" lon="-4.6864260">
        <ele>835.8</ele>
        <time>2020-04-05T17:51:58Z</time>
      </trkpt>
      <trkpt lat="42.3422390" lon="-4.6865780">
        <ele>835.9</ele>
        <time>2020-04-05T17:52:00Z</time>
      </trkpt>
      <trkpt lat="42.3422040" lon="-4.6868830">
        <ele>836.2</ele>
        <time>2020-04-05T17:52:02Z</time>
      </trkpt>
      <trkpt lat="42.3421860" lon="-4.6870370">
        <ele>836.3</ele>
        <time>2020-04-05T17:52:04Z</time>
      </trkpt>
      <trkpt lat="42.3421680" lon="-4.6871940">
        <ele>836.4</ele>
        <time>2020-04-05T17:52:06Z</time>
      </trkpt>
      <trkpt lat="42.3421500" lon="-4.6873500">
        <ele>836.5</ele>
        <time>2020-04-05T17:52:08Z</time>
      </trkpt>
      <trkpt lat="42.3421310" lon="-4.6875090">
        <ele>836.5</ele>
        <time>2020-04-05T17:52:10Z</time>
      </trkpt>
      <trkpt lat="42.3420820" lon="-4.6879430">
        <ele>836.2</ele>
        <time>2020-04-05T17:52:12Z</time>
      </trkpt>
      <trkpt lat="42.3420670" lon="-4.6881020">
        <ele>835.8</ele>
        <time>2020-04-05T17:52:14Z</time>
      </trkpt>
      <trkpt lat="42.3420500" lon="-4.6882610">
        <ele>835.7</ele>
        <time>2020-04-05T17:52:16Z</time>
      </trkpt>
      <trkpt lat="42.3420340" lon="-4.6884200">
        <ele>835.6</ele>
        <time>2020-04-05T17:52:18Z</time>
      </trkpt>
      <trkpt lat="42.3419950" lon="-4.6888130">
        <ele>835.7</ele>
        <time>2020-04-05T17:52:20Z</time>
      </trkpt>
      <trkpt lat="42.3419790" lon="-4.6889710">
        <ele>835.7</ele>
        <time>2020-04-05T17:52:22Z</time>
      </trkpt>
      <trkpt lat="42.3419630" lon="-4.6891310">
        <ele>835.6</ele>
        <time>2020-04-05T17:52:24Z</time>
      </trkpt>
      <trkpt lat="42.3419470" lon="-4.6892890">
        <ele>835.5</ele>
        <time>2020-04-05T17:52:26Z</time>
      </trkpt>
      <trkpt lat="42.3419070" lon="-4.6896800">
        <ele>835.5</ele>
        <time>2020-04-05T17:52:28Z</time>
      </trkpt>
      <trkpt lat="42.3418910" lon="-4.6898390">
        <ele>835.5</ele>
        <time>2020-04-05T17:52:30Z</time>
      </trkpt>
      <trkpt lat="42.3418750" lon="-4.6900030">
        <ele>835.5</ele>
        <time>2020-04-05T17:52:32Z</time>
      </trkpt>
      <trkpt lat="42.3418580" lon="-4.6901690">
        <ele>835.5</ele>
        <time>2020-04-05T17:52:34Z</time>
      </trkpt>
      <trkpt lat="42.3418160" lon="-4.6905720">
        <ele>835.4</ele>
        <time>2020-04-05T17:52:36Z</time>
      </trkpt>
      <trkpt lat="42.3417950" lon="-4.6907420">
        <ele>835.4</ele>
        <time>2020-04-05T17:52:38Z</time>
      </trkpt>
      <trkpt lat="42.3417750" lon="-4.6909130">
        <ele>835.5</ele>
        <time>2020-04-05T17:52:40Z</time>
      </trkpt>
      <trkpt lat="42.3417310" lon="-4.6912800">
        <ele>835.6</ele>
        <time>2020-04-05T17:52:42Z</time>
      </trkpt>
      <trkpt lat="42.3416980" lon="-4.6915190">
        <ele>835.6</ele>
        <time>2020-04-05T17:52:44Z</time>
      </trkpt>
      <trkpt lat="42.3416760" lon="-4.6917190">
        <ele>835.5</ele>
        <time>2020-04-05T17:52:46Z</time>
      </trkpt>
      <trkpt lat="42.3416550" lon="-4.6919050">
        <ele>835.5</ele>
        <time>2020-04-05T17:52:48Z</time>
      </trkpt>
      <trkpt lat="42.3416340" lon="-4.6920930">
        <ele>835.6</ele>
        <time>2020-04-05T17:52:50Z</time>
      </trkpt>
      <trkpt lat="42.3416130" lon="-4.6922850">
        <ele>835.8</ele>
        <time>2020-04-05T17:52:52Z</time>
      </trkpt>
      <trkpt lat="42.3415400" lon="-4.6927410">
        <ele>835.7</ele>
        <time>2020-04-05T17:52:54Z</time>
      </trkpt>
      <trkpt lat="42.3415050" lon="-4.6930050">
        <ele>835.4</ele>
        <time>2020-04-05T17:52:56Z</time>
      </trkpt>
      <trkpt lat="42.3414950" lon="-4.6931820">
        <ele>835.6</ele>
        <time>2020-04-05T17:52:58Z</time>
      </trkpt>
      <trkpt lat="42.3414710" lon="-4.6934570">
        <ele>835.7</ele>
        <time>2020-04-05T17:53:00Z</time>
      </trkpt>
      <trkpt lat="42.3414540" lon="-4.6936180">
        <ele>835.6</ele>
        <time>2020-04-05T17:53:02Z</time>
      </trkpt>
      <trkpt lat="42.3414370" lon="-4.6937760">
        <ele>835.7</ele>
        <time>2020-04-05T17:53:04Z</time>
      </trkpt>
      <trkpt lat="42.3413990" lon="-4.6941030">
        <ele>836.5</ele>
        <time>2020-04-05T17:53:06Z</time>
      </trkpt>
      <trkpt lat="42.3413790" lon="-4.6942530">
        <ele>837.0</ele>
        <time>2020-04-05T17:53:08Z</time>
      </trkpt>
      <trkpt lat="42.3413600" lon="-4.6944030">
        <ele>837.6</ele>
        <time>2020-04-05T17:53:10Z</time>
      </trkpt>
      <trkpt lat="42.3413400" lon="-4.6945530">
        <ele>837.8</ele>
        <time>2020-04-05T17:53:12Z</time>
      </trkpt>
      <trkpt lat="42.3413200" lon="-4.6947040">
        <ele>837.7</ele>
        <time>2020-04-05T17:53:14Z</time>
      </trkpt>
      <trkpt lat="42.3412690" lon="-4.6951060">
        <ele>836.8</ele>
        <time>2020-04-05T17:53:16Z</time>
      </trkpt>
      <trkpt lat="42.3412460" lon="-4.6953090">
        <ele>836.5</ele>
        <time>2020-04-05T17:53:18Z</time>
      </trkpt>
      <trkpt lat="42.3412290" lon="-4.6954600">
        <ele>836.4</ele>
        <time>2020-04-05T17:53:20Z</time>
      </trkpt>
      <trkpt lat="42.3412110" lon="-4.6956090">
        <ele>836.4</ele>
        <time>2020-04-05T17:53:22Z</time>
      </trkpt>
      <trkpt lat="42.3411940" lon="-4.6957590">
        <ele>836.4</ele>
        <time>2020-04-05T17:53:24Z</time>
      </trkpt>
      <trkpt lat="42.3411510" lon="-4.6961180">
        <ele>836.5</ele>
        <time>2020-04-05T17:53:26Z</time>
      </trkpt>
      <trkpt lat="42.3411220" lon="-4.6963500">
        <ele>837.0</ele>
        <time>2020-04-05T17:53:28Z</time>
      </trkpt>
      <trkpt lat="42.3411050" lon="-4.6964890">
        <ele>837.3</ele>
        <time>2020-04-05T17:53:30Z</time>
      </trkpt>
      <trkpt lat="42.3410880" lon="-4.6966250">
        <ele>837.4</ele>
        <time>2020-04-05T17:53:32Z</time>
      </trkpt>
      <trkpt lat="42.3410710" lon="-4.6967580">
        <ele>837.6</ele>
        <time>2020-04-05T17:53:34Z</time>
      </trkpt>
      <trkpt lat="42.3410550" lon="-4.6968880">
        <ele>837.9</ele>
        <time>2020-04-05T17:53:36Z</time>
      </trkpt>
      <trkpt lat="42.3410390" lon="-4.6970150">
        <ele>838.4</ele>
        <time>2020-04-05T17:53:38Z</time>
      </trkpt>
      <trkpt lat="42.3410230" lon="-4.6971410">
        <ele>839.0</ele>
        <time>2020-04-05T17:53:40Z</time>
      </trkpt>
      <trkpt lat="42.3409680" lon="-4.6975690">
        <ele>840.4</ele>
        <time>2020-04-05T17:53:42Z</time>
      </trkpt>
      <trkpt lat="42.3409490" lon="-4.6977010">
        <ele>840.5</ele>
        <time>2020-04-05T17:53:44Z</time>
      </trkpt>
      <trkpt lat="42.3409290" lon="-4.6978390">
        <ele>840.5</ele>
        <time>2020-04-05T17:53:46Z</time>
      </trkpt>
      <trkpt lat="42.3408860" lon="-4.6981480">
        <ele>840.3</ele>
        <time>2020-04-05T17:53:48Z</time>
      </trkpt>
      <trkpt lat="42.3408650" lon="-4.6982970">
        <ele>840.1</ele>
        <time>2020-04-05T17:53:50Z</time>
      </trkpt>
      <trkpt lat="42.3408440" lon="-4.6984490">
        <ele>839.7</ele>
        <time>2020-04-05T17:53:52Z</time>
      </trkpt>
      <trkpt lat="42.3407990" lon="-4.6987720">
        <ele>839.5</ele>
        <time>2020-04-05T17:53:54Z</time>
      </trkpt>
      <trkpt lat="42.3407790" lon="-4.6989300">
        <ele>839.4</ele>
        <time>2020-04-05T17:53:56Z</time>
      </trkpt>
      <trkpt lat="42.3407590" lon="-4.6990890">
        <ele>839.2</ele>
        <time>2020-04-05T17:53:58Z</time>
      </trkpt>
      <trkpt lat="42.3407390" lon="-4.6992470">
        <ele>839.2</ele>
        <time>2020-04-05T17:54:00Z</time>
      </trkpt>
      <trkpt lat="42.3407200" lon="-4.6994020">
        <ele>839.4</ele>
        <time>2020-04-05T17:54:02Z</time>
      </trkpt>
      <trkpt lat="42.3407000" lon="-4.6995570">
        <ele>839.5</ele>
        <time>2020-04-05T17:54:04Z</time>
      </trkpt>
      <trkpt lat="42.3406450" lon="-4.7000010">
        <ele>839.5</ele>
        <time>2020-04-05T17:54:06Z</time>
      </trkpt>
      <trkpt lat="42.3406200" lon="-4.7002030">
        <ele>839.2</ele>
        <time>2020-04-05T17:54:08Z</time>
      </trkpt>
      <trkpt lat="42.3406000" lon="-4.7003580">
        <ele>838.9</ele>
        <time>2020-04-05T17:54:10Z</time>
      </trkpt>
      <trkpt lat="42.3405800" lon="-4.7005120">
        <ele>839.0</ele>
        <time>2020-04-05T17:54:12Z</time>
      </trkpt>
      <trkpt lat="42.3405600" lon="-4.7006650">
        <ele>839.2</ele>
        <time>2020-04-05T17:54:14Z</time>
      </trkpt>
      <trkpt lat="42.3405100" lon="-4.7010620">
        <ele>839.5</ele>
        <time>2020-04-05T17:54:16Z</time>
      </trkpt>
      <trkpt lat="42.3404900" lon="-4.7012150">
        <ele>839.5</ele>
        <time>2020-04-05T17:54:18Z</time>
      </trkpt>
      <trkpt lat="42.3404710" lon="-4.7013660">
        <ele>839.6</ele>
        <time>2020-04-05T17:54:20Z</time>
      </trkpt>
      <trkpt lat="42.3404510" lon="-4.7015180">
        <ele>839.6</ele>
        <time>2020-04-05T17:54:22Z</time>
      </trkpt>
      <trkpt lat="42.3404320" lon="-4.7016710">
        <ele>839.6</ele>
        <time>2020-04-05T17:54:24Z</time>
      </trkpt>
      <trkpt lat="42.3403750" lon="-4.7021110">
        <ele>839.6</ele>
        <time>2020-04-05T17:54:26Z</time>
      </trkpt>
      <trkpt lat="42.3403560" lon="-4.7022630">
        <ele>839.6</ele>
        <time>2020-04-05T17:54:28Z</time>
      </trkpt>
      <trkpt lat="42.3403370" lon="-4.7024130">
        <ele>839.6</ele>
        <time>2020-04-05T17:54:30Z</time>
      </trkpt>
      <trkpt lat="42.3403000" lon="-4.7027070">
        <ele>839.6</ele>
        <time>2020-04-05T17:54:32Z</time>
      </trkpt>
      <trkpt lat="42.3402810" lon="-4.7028580">
        <ele>839.6</ele>
        <time>2020-04-05T17:54:34Z</time>
      </trkpt>
      <trkpt lat="42.3402620" lon="-4.7030070">
        <ele>839.6</ele>
        <time>2020-04-05T17:54:36Z</time>
      </trkpt>
      <trkpt lat="42.3402240" lon="-4.7033050">
        <ele>839.6</ele>
        <time>2020-04-05T17:54:38Z</time>
      </trkpt>
      <trkpt lat="42.3402050" lon="-4.7034550">
        <ele>839.6</ele>
        <time>2020-04-05T17:54:40Z</time>
      </trkpt>
      <trkpt lat="42.3401860" lon="-4.7036050">
        <ele>839.6</ele>
        <time>2020-04-05T17:54:42Z</time>
      </trkpt>
      <trkpt lat="42.3401670" lon="-4.7037550">
        <ele>839.6</ele>
        <time>2020-04-05T17:54:44Z</time>
      </trkpt>
      <trkpt lat="42.3401470" lon="-4.7039050">
        <ele>839.6</ele>
        <time>2020-04-05T17:54:46Z</time>
      </trkpt>
      <trkpt lat="42.3400900" lon="-4.7043450">
        <ele>839.6</ele>
        <time>2020-04-05T17:54:48Z</time>
      </trkpt>
      <trkpt lat="42.3400700" lon="-4.7044950">
        <ele>839.6</ele>
        <time>2020-04-05T17:54:50Z</time>
      </trkpt>
      <trkpt lat="42.3400490" lon="-4.7046440">
        <ele>839.7</ele>
        <time>2020-04-05T17:54:52Z</time>
      </trkpt>
      <trkpt lat="42.3400290" lon="-4.7047940">
        <ele>840.0</ele>
        <time>2020-04-05T17:54:54Z</time>
      </trkpt>
      <trkpt lat="42.3400080" lon="-4.7049440">
        <ele>840.2</ele>
        <time>2020-04-05T17:54:56Z</time>
      </trkpt>
      <trkpt lat="42.3399530" lon="-4.7053500">
        <ele>840.5</ele>
        <time>2020-04-05T17:54:58Z</time>
      </trkpt>
      <trkpt lat="42.3399320" lon="-4.7055000">
        <ele>840.6</ele>
        <time>2020-04-05T17:55:00Z</time>
      </trkpt>
      <trkpt lat="42.3399120" lon="-4.7056500">
        <ele>840.6</ele>
        <time>2020-04-05T17:55:02Z</time>
      </trkpt>
      <trkpt lat="42.3398910" lon="-4.7058000">
        <ele>840.6</ele>
        <time>2020-04-05T17:55:04Z</time>
      </trkpt>
      <trkpt lat="42.3398710" lon="-4.7059500">
        <ele>840.6</ele>
        <time>2020-04-05T17:55:06Z</time>
      </trkpt>
      <trkpt lat="42.3398150" lon="-4.7063560">
        <ele>840.6</ele>
        <time>2020-04-05T17:55:08Z</time>
      </trkpt>
      <trkpt lat="42.3397950" lon="-4.7065060">
        <ele>840.6</ele>
        <time>2020-04-05T17:55:10Z</time>
      </trkpt>
      <trkpt lat="42.3397740" lon="-4.7066550">
        <ele>840.6</ele>
        <time>2020-04-05T17:55:12Z</time>
      </trkpt>
      <trkpt lat="42.3397540" lon="-4.7068040">
        <ele>840.7</ele>
        <time>2020-04-05T17:55:14Z</time>
      </trkpt>
      <trkpt lat="42.3397330" lon="-4.7069540">
        <ele>840.8</ele>
        <time>2020-04-05T17:55:16Z</time>
      </trkpt>
      <trkpt lat="42.3396770" lon="-4.7073600">
        <ele>841.4</ele>
        <time>2020-04-05T17:55:18Z</time>
      </trkpt>
      <trkpt lat="42.3396460" lon="-4.7075890">
        <ele>841.3</ele>
        <time>2020-04-05T17:55:20Z</time>
      </trkpt>
      <trkpt lat="42.3396250" lon="-4.7077390">
        <ele>841.1</ele>
        <time>2020-04-05T17:55:22Z</time>
      </trkpt>
      <trkpt lat="42.3396030" lon="-4.7078890">
        <ele>841.0</ele>
        <time>2020-04-05T17:55:24Z</time>
      </trkpt>
      <trkpt lat="42.3395820" lon="-4.7080390">
        <ele>841.0</ele>
        <time>2020-04-05T17:55:26Z</time>
      </trkpt>
      <trkpt lat="42.3395350" lon="-4.7083630">
        <ele>840.9</ele>
        <time>2020-04-05T17:55:28Z</time>
      </trkpt>
      <trkpt lat="42.3395140" lon="-4.7085130">
        <ele>840.8</ele>
        <time>2020-04-05T17:55:30Z</time>
      </trkpt>
      <trkpt lat="42.3394920" lon="-4.7086620">
        <ele>840.7</ele>
        <time>2020-04-05T17:55:32Z</time>
      </trkpt>
      <trkpt lat="42.3394710" lon="-4.7088120">
        <ele>840.6</ele>
        <time>2020-04-05T17:55:34Z</time>
      </trkpt>
      <trkpt lat="42.3394130" lon="-4.7092170">
        <ele>840.6</ele>
        <time>2020-04-05T17:55:36Z</time>
      </trkpt>
      <trkpt lat="42.3393920" lon="-4.7093670">
        <ele>841.0</ele>
        <time>2020-04-05T17:55:38Z</time>
      </trkpt>
      <trkpt lat="42.3393700" lon="-4.7095150">
        <ele>841.1</ele>
        <time>2020-04-05T17:55:40Z</time>
      </trkpt>
      <trkpt lat="42.3393490" lon="-4.7096650">
        <ele>841.2</ele>
        <time>2020-04-05T17:55:42Z</time>
      </trkpt>
      <trkpt lat="42.3393270" lon="-4.7098150">
        <ele>841.3</ele>
        <time>2020-04-05T17:55:44Z</time>
      </trkpt>
      <trkpt lat="42.3393060" lon="-4.7099640">
        <ele>841.2</ele>
        <time>2020-04-05T17:55:46Z</time>
      </trkpt>
      <trkpt lat="42.3392450" lon="-4.7103900">
        <ele>840.6</ele>
        <time>2020-04-05T17:55:48Z</time>
      </trkpt>
      <trkpt lat="42.3392240" lon="-4.7105360">
        <ele>840.3</ele>
        <time>2020-04-05T17:55:50Z</time>
      </trkpt>
      <trkpt lat="42.3392040" lon="-4.7106770">
        <ele>840.3</ele>
        <time>2020-04-05T17:55:52Z</time>
      </trkpt>
      <trkpt lat="42.3391840" lon="-4.7108150">
        <ele>840.3</ele>
        <time>2020-04-05T17:55:54Z</time>
      </trkpt>
      <trkpt lat="42.3391640" lon="-4.7109520">
        <ele>840.5</ele>
        <time>2020-04-05T17:55:56Z</time>
      </trkpt>
      <trkpt lat="42.3391060" lon="-4.7113630">
        <ele>842.3</ele>
        <time>2020-04-05T17:55:58Z</time>
      </trkpt>
      <trkpt lat="42.3390870" lon="-4.7114930">
        <ele>842.6</ele>
        <time>2020-04-05T17:56:00Z</time>
      </trkpt>
      <trkpt lat="42.3390680" lon="-4.7116220">
        <ele>842.9</ele>
        <time>2020-04-05T17:56:02Z</time>
      </trkpt>
      <trkpt lat="42.3390500" lon="-4.7117500">
        <ele>842.9</ele>
        <time>2020-04-05T17:56:04Z</time>
      </trkpt>
      <trkpt lat="42.3390320" lon="-4.7118750">
        <ele>842.9</ele>
        <time>2020-04-05T17:56:06Z</time>
      </trkpt>
      <trkpt lat="42.3390140" lon="-4.7120000">
        <ele>842.9</ele>
        <time>2020-04-05T17:56:08Z</time>
      </trkpt>
      <trkpt lat="42.3389960" lon="-4.7121240">
        <ele>842.9</ele>
        <time>2020-04-05T17:56:10Z</time>
      </trkpt>
      <trkpt lat="42.3389390" lon="-4.7125260">
        <ele>842.9</ele>
        <time>2020-04-05T17:56:12Z</time>
      </trkpt>
      <trkpt lat="42.3389200" lon="-4.7126540">
        <ele>842.9</ele>
        <time>2020-04-05T17:56:14Z</time>
      </trkpt>
      <trkpt lat="42.3389020" lon="-4.7127830">
        <ele>842.9</ele>
        <time>2020-04-05T17:56:16Z</time>
      </trkpt>
      <trkpt lat="42.3388830" lon="-4.7129150">
        <ele>843.0</ele>
        <time>2020-04-05T17:56:18Z</time>
      </trkpt>
      <trkpt lat="42.3388640" lon="-4.7130470">
        <ele>843.0</ele>
        <time>2020-04-05T17:56:20Z</time>
      </trkpt>
      <trkpt lat="42.3388450" lon="-4.7131800">
        <ele>843.1</ele>
        <time>2020-04-05T17:56:22Z</time>
      </trkpt>
      <trkpt lat="42.3387860" lon="-4.7135920">
        <ele>843.3</ele>
        <time>2020-04-05T17:56:24Z</time>
      </trkpt>
      <trkpt lat="42.3387670" lon="-4.7137280">
        <ele>843.4</ele>
        <time>2020-04-05T17:56:26Z</time>
      </trkpt>
      <trkpt lat="42.3387470" lon="-4.7138650">
        <ele>843.5</ele>
        <time>2020-04-05T17:56:28Z</time>
      </trkpt>
      <trkpt lat="42.3387270" lon="-4.7140020">
        <ele>843.6</ele>
        <time>2020-04-05T17:56:30Z</time>
      </trkpt>
      <trkpt lat="42.3387080" lon="-4.7141390">
        <ele>843.7</ele>
        <time>2020-04-05T17:56:32Z</time>
      </trkpt>
      <trkpt lat="42.3386480" lon="-4.7145540">
        <ele>844.1</ele>
        <time>2020-04-05T17:56:34Z</time>
      </trkpt>
      <trkpt lat="42.3386280" lon="-4.7146960">
        <ele>844.3</ele>
        <time>2020-04-05T17:56:36Z</time>
      </trkpt>
      <trkpt lat="42.3386070" lon="-4.7148410">
        <ele>844.5</ele>
        <time>2020-04-05T17:56:38Z</time>
      </trkpt>
      <trkpt lat="42.3385860" lon="-4.7149890">
        <ele>844.8</ele>
        <time>2020-04-05T17:56:40Z</time>
      </trkpt>
      <trkpt lat="42.3385640" lon="-4.7151390">
        <ele>844.7</ele>
        <time>2020-04-05T17:56:42Z</time>
      </trkpt>
      <trkpt lat="42.3385420" lon="-4.7152920">
        <ele>844.6</ele>
        <time>2020-04-05T17:56:44Z</time>
      </trkpt>
      <trkpt lat="42.3384810" lon="-4.7157220">
        <ele>844.8</ele>
        <time>2020-04-05T17:56:46Z</time>
      </trkpt>
      <trkpt lat="42.3384590" lon="-4.7158780">
        <ele>844.8</ele>
        <time>2020-04-05T17:56:48Z</time>
      </trkpt>
      <trkpt lat="42.3384360" lon="-4.7160360">
        <ele>844.7</ele>
        <time>2020-04-05T17:56:50Z</time>
      </trkpt>
      <trkpt lat="42.3384140" lon="-4.7161940">
        <ele>844.6</ele>
        <time>2020-04-05T17:56:52Z</time>
      </trkpt>
      <trkpt lat="42.3383910" lon="-4.7163560">
        <ele>844.3</ele>
        <time>2020-04-05T17:56:54Z</time>
      </trkpt>
      <trkpt lat="42.3383280" lon="-4.7167940">
        <ele>844.3</ele>
        <time>2020-04-05T17:56:56Z</time>
      </trkpt>
      <trkpt lat="42.3382930" lon="-4.7170360">
        <ele>844.3</ele>
        <time>2020-04-05T17:56:58Z</time>
      </trkpt>
      <trkpt lat="42.3382710" lon="-4.7171900">
        <ele>844.3</ele>
        <time>2020-04-05T17:57:00Z</time>
      </trkpt>
      <trkpt lat="42.3382500" lon="-4.7173390">
        <ele>844.3</ele>
        <time>2020-04-05T17:57:02Z</time>
      </trkpt>
      <trkpt lat="42.3382280" lon="-4.7174870">
        <ele>844.4</ele>
        <time>2020-04-05T17:57:04Z</time>
      </trkpt>
      <trkpt lat="42.3381800" lon="-4.7178240">
        <ele>844.4</ele>
        <time>2020-04-05T17:57:06Z</time>
      </trkpt>
      <trkpt lat="42.3381500" lon="-4.7180330">
        <ele>844.4</ele>
        <time>2020-04-05T17:57:08Z</time>
      </trkpt>
      <trkpt lat="42.3381280" lon="-4.7181810">
        <ele>844.4</ele>
        <time>2020-04-05T17:57:10Z</time>
      </trkpt>
      <trkpt lat="42.3381050" lon="-4.7183330">
        <ele>844.5</ele>
        <time>2020-04-05T17:57:12Z</time>
      </trkpt>
      <trkpt lat="42.3380820" lon="-4.7184880">
        <ele>844.6</ele>
        <time>2020-04-05T17:57:14Z</time>
      </trkpt>
      <trkpt lat="42.3380300" lon="-4.7188610">
        <ele>845.2</ele>
        <time>2020-04-05T17:57:16Z</time>
      </trkpt>
      <trkpt lat="42.3380120" lon="-4.7190260">
        <ele>845.3</ele>
        <time>2020-04-05T17:57:18Z</time>
      </trkpt>
      <trkpt lat="42.3379950" lon="-4.7191940">
        <ele>845.2</ele>
        <time>2020-04-05T17:57:20Z</time>
      </trkpt>
      <trkpt lat="42.3379410" lon="-4.7195520">
        <ele>844.5</ele>
        <time>2020-04-05T17:57:22Z</time>
      </trkpt>
      <trkpt lat="42.3379170" lon="-4.7197190">
        <ele>844.7</ele>
        <time>2020-04-05T17:57:24Z</time>
      </trkpt>
      <trkpt lat="42.3378780" lon="-4.7199970">
        <ele>845.1</ele>
        <time>2020-04-05T17:57:26Z</time>
      </trkpt>
      <trkpt lat="42.3378560" lon="-4.7201560">
        <ele>845.2</ele>
        <time>2020-04-05T17:57:28Z</time>
      </trkpt>
      <trkpt lat="42.3378350" lon="-4.7203120">
        <ele>845.0</ele>
        <time>2020-04-05T17:57:30Z</time>
      </trkpt>
      <trkpt lat="42.3378140" lon="-4.7204650">
        <ele>844.8</ele>
        <time>2020-04-05T17:57:32Z</time>
      </trkpt>
      <trkpt lat="42.3377930" lon="-4.7206150">
        <ele>845.0</ele>
        <time>2020-04-05T17:57:34Z</time>
      </trkpt>
      <trkpt lat="42.3377730" lon="-4.7207610">
        <ele>845.2</ele>
        <time>2020-04-05T17:57:36Z</time>
      </trkpt>
      <trkpt lat="42.3377100" lon="-4.7212120">
        <ele>845.6</ele>
        <time>2020-04-05T17:57:38Z</time>
      </trkpt>
      <trkpt lat="42.3376910" lon="-4.7213570">
        <ele>845.6</ele>
        <time>2020-04-05T17:57:40Z</time>
      </trkpt>
      <trkpt lat="42.3376710" lon="-4.7214970">
        <ele>845.6</ele>
        <time>2020-04-05T17:57:42Z</time>
      </trkpt>
      <trkpt lat="42.3376520" lon="-4.7216390">
        <ele>845.6</ele>
        <time>2020-04-05T17:57:44Z</time>
      </trkpt>
      <trkpt lat="42.3376320" lon="-4.7217780">
        <ele>845.6</ele>
        <time>2020-04-05T17:57:46Z</time>
      </trkpt>
      <trkpt lat="42.3376140" lon="-4.7219150">
        <ele>845.7</ele>
        <time>2020-04-05T17:57:48Z</time>
      </trkpt>
      <trkpt lat="42.3375520" lon="-4.7223580">
        <ele>846.0</ele>
        <time>2020-04-05T17:57:50Z</time>
      </trkpt>
      <trkpt lat="42.3375320" lon="-4.7224950">
        <ele>846.0</ele>
        <time>2020-04-05T17:57:52Z</time>
      </trkpt>
      <trkpt lat="42.3375120" lon="-4.7226320">
        <ele>845.9</ele>
        <time>2020-04-05T17:57:54Z</time>
      </trkpt>
      <trkpt lat="42.3374920" lon="-4.7227670">
        <ele>846.0</ele>
        <time>2020-04-05T17:57:56Z</time>
      </trkpt>
      <trkpt lat="42.3374730" lon="-4.7229000">
        <ele>846.1</ele>
        <time>2020-04-05T17:57:58Z</time>
      </trkpt>
      <trkpt lat="42.3374530" lon="-4.7230320">
        <ele>846.2</ele>
        <time>2020-04-05T17:58:00Z</time>
      </trkpt>
      <trkpt lat="42.3373920" lon="-4.7234490">
        <ele>845.9</ele>
        <time>2020-04-05T17:58:02Z</time>
      </trkpt>
      <trkpt lat="42.3373720" lon="-4.7235860">
        <ele>845.9</ele>
        <time>2020-04-05T17:58:04Z</time>
      </trkpt>
      <trkpt lat="42.3373520" lon="-4.7237260">
        <ele>846.1</ele>
        <time>2020-04-05T17:58:06Z</time>
      </trkpt>
      <trkpt lat="42.3373310" lon="-4.7238710">
        <ele>846.4</ele>
        <time>2020-04-05T17:58:08Z</time>
      </trkpt>
      <trkpt lat="42.3373100" lon="-4.7240170">
        <ele>846.6</ele>
        <time>2020-04-05T17:58:10Z</time>
      </trkpt>
      <trkpt lat="42.3372880" lon="-4.7241670">
        <ele>846.7</ele>
        <time>2020-04-05T17:58:12Z</time>
      </trkpt>
      <trkpt lat="42.3372250" lon="-4.7246020">
        <ele>846.7</ele>
        <time>2020-04-05T17:58:14Z</time>
      </trkpt>
      <trkpt lat="42.3372020" lon="-4.7247560">
        <ele>846.6</ele>
        <time>2020-04-05T17:58:16Z</time>
      </trkpt>
      <trkpt lat="42.3371790" lon="-4.7249130">
        <ele>846.4</ele>
        <time>2020-04-05T17:58:18Z</time>
      </trkpt>
      <trkpt lat="42.3371330" lon="-4.7252280">
        <ele>845.8</ele>
        <time>2020-04-05T17:58:20Z</time>
      </trkpt>
      <trkpt lat="42.3371100" lon="-4.7253820">
        <ele>845.8</ele>
        <time>2020-04-05T17:58:22Z</time>
      </trkpt>
      <trkpt lat="42.3370690" lon="-4.7256570">
        <ele>845.8</ele>
        <time>2020-04-05T17:58:24Z</time>
      </trkpt>
      <trkpt lat="42.3370460" lon="-4.7258070">
        <ele>845.8</ele>
        <time>2020-04-05T17:58:26Z</time>
      </trkpt>
      <trkpt lat="42.3370240" lon="-4.7259530">
        <ele>845.8</ele>
        <time>2020-04-05T17:58:28Z</time>
      </trkpt>
      <trkpt lat="42.3370030" lon="-4.7260980">
        <ele>845.8</ele>
        <time>2020-04-05T17:58:30Z</time>
      </trkpt>
      <trkpt lat="42.3369810" lon="-4.7262430">
        <ele>846.0</ele>
        <time>2020-04-05T17:58:32Z</time>
      </trkpt>
      <trkpt lat="42.3369170" lon="-4.7266680">
        <ele>845.9</ele>
        <time>2020-04-05T17:58:34Z</time>
      </trkpt>
      <trkpt lat="42.3368960" lon="-4.7268090">
        <ele>845.8</ele>
        <time>2020-04-05T17:58:36Z</time>
      </trkpt>
      <trkpt lat="42.3368750" lon="-4.7269490">
        <ele>845.8</ele>
        <time>2020-04-05T17:58:38Z</time>
      </trkpt>
      <trkpt lat="42.3368540" lon="-4.7270900">
        <ele>845.8</ele>
        <time>2020-04-05T17:58:40Z</time>
      </trkpt>
      <trkpt lat="42.3368330" lon="-4.7272310">
        <ele>845.9</ele>
        <time>2020-04-05T17:58:42Z</time>
      </trkpt>
      <trkpt lat="42.3368130" lon="-4.7273690">
        <ele>846.2</ele>
        <time>2020-04-05T17:58:44Z</time>
      </trkpt>
      <trkpt lat="42.3367500" lon="-4.7277890">
        <ele>847.5</ele>
        <time>2020-04-05T17:58:46Z</time>
      </trkpt>
      <trkpt lat="42.3367300" lon="-4.7279260">
        <ele>847.7</ele>
        <time>2020-04-05T17:58:48Z</time>
      </trkpt>
      <trkpt lat="42.3367090" lon="-4.7280630">
        <ele>847.8</ele>
        <time>2020-04-05T17:58:50Z</time>
      </trkpt>
      <trkpt lat="42.3366680" lon="-4.7283430">
        <ele>847.9</ele>
        <time>2020-04-05T17:58:52Z</time>
      </trkpt>
      <trkpt lat="42.3366480" lon="-4.7284800">
        <ele>847.9</ele>
        <time>2020-04-05T17:58:54Z</time>
      </trkpt>
      <trkpt lat="42.3366280" lon="-4.7286170">
        <ele>847.9</ele>
        <time>2020-04-05T17:58:56Z</time>
      </trkpt>
      <trkpt lat="42.3365870" lon="-4.7288940">
        <ele>847.9</ele>
        <time>2020-04-05T17:58:58Z</time>
      </trkpt>
      <trkpt lat="42.3365680" lon="-4.7290310">
        <ele>847.9</ele>
        <time>2020-04-05T17:59:00Z</time>
      </trkpt>
      <trkpt lat="42.3365480" lon="-4.7291710">
        <ele>847.8</ele>
        <time>2020-04-05T17:59:02Z</time>
      </trkpt>
      <trkpt lat="42.3365270" lon="-4.7293120">
        <ele>847.6</ele>
        <time>2020-04-05T17:59:04Z</time>
      </trkpt>
      <trkpt lat="42.3365070" lon="-4.7294530">
        <ele>847.3</ele>
        <time>2020-04-05T17:59:06Z</time>
      </trkpt>
      <trkpt lat="42.3364860" lon="-4.7295980">
        <ele>847.1</ele>
        <time>2020-04-05T17:59:08Z</time>
      </trkpt>
      <trkpt lat="42.3364240" lon="-4.7300260">
        <ele>847.3</ele>
        <time>2020-04-05T17:59:10Z</time>
      </trkpt>
      <trkpt lat="42.3363940" lon="-4.7302300">
        <ele>847.8</ele>
        <time>2020-04-05T17:59:12Z</time>
      </trkpt>
      <trkpt lat="42.3363720" lon="-4.7303750">
        <ele>848.2</ele>
        <time>2020-04-05T17:59:14Z</time>
      </trkpt>
      <trkpt lat="42.3363500" lon="-4.7305190">
        <ele>848.5</ele>
        <time>2020-04-05T17:59:16Z</time>
      </trkpt>
      <trkpt lat="42.3363280" lon="-4.7306650">
        <ele>848.8</ele>
        <time>2020-04-05T17:59:18Z</time>
      </trkpt>
      <trkpt lat="42.3362720" lon="-4.7310350">
        <ele>849.0</ele>
        <time>2020-04-05T17:59:20Z</time>
      </trkpt>
      <trkpt lat="42.3362500" lon="-4.7311780">
        <ele>849.0</ele>
        <time>2020-04-05T17:59:22Z</time>
      </trkpt>
      <trkpt lat="42.3362290" lon="-4.7313190">
        <ele>849.0</ele>
        <time>2020-04-05T17:59:24Z</time>
      </trkpt>
      <trkpt lat="42.3362080" lon="-4.7314560">
        <ele>849.0</ele>
        <time>2020-04-05T17:59:26Z</time>
      </trkpt>
      <trkpt lat="42.3361880" lon="-4.7315900">
        <ele>849.0</ele>
        <time>2020-04-05T17:59:28Z</time>
      </trkpt>
      <trkpt lat="42.3361680" lon="-4.7317210">
        <ele>849.0</ele>
        <time>2020-04-05T17:59:30Z</time>
      </trkpt>
      <trkpt lat="42.3361090" lon="-4.7321130">
        <ele>849.0</ele>
        <time>2020-04-05T17:59:32Z</time>
      </trkpt>
      <trkpt lat="42.3360900" lon="-4.7322410">
        <ele>849.0</ele>
        <time>2020-04-05T17:59:34Z</time>
      </trkpt>
      <trkpt lat="42.3360710" lon="-4.7323650">
        <ele>849.1</ele>
        <time>2020-04-05T17:59:36Z</time>
      </trkpt>
      <trkpt lat="42.3360530" lon="-4.7324890">
        <ele>849.1</ele>
        <time>2020-04-05T17:59:38Z</time>
      </trkpt>
      <trkpt lat="42.3360060" lon="-4.7327960">
        <ele>849.6</ele>
        <time>2020-04-05T17:59:40Z</time>
      </trkpt>
      <trkpt lat="42.3359860" lon="-4.7329220">
        <ele>849.8</ele>
        <time>2020-04-05T17:59:42Z</time>
      </trkpt>
      <trkpt lat="42.3359530" lon="-4.7331330">
        <ele>850.0</ele>
        <time>2020-04-05T17:59:44Z</time>
      </trkpt>
      <trkpt lat="42.3359320" lon="-4.7332650">
        <ele>850.0</ele>
        <time>2020-04-05T17:59:46Z</time>
      </trkpt>
      <trkpt lat="42.3359120" lon="-4.7333980">
        <ele>850.0</ele>
        <time>2020-04-05T17:59:48Z</time>
      </trkpt>
      <trkpt lat="42.3358910" lon="-4.7335340">
        <ele>850.0</ele>
        <time>2020-04-05T17:59:50Z</time>
      </trkpt>
      <trkpt lat="42.3358690" lon="-4.7336710">
        <ele>850.1</ele>
        <time>2020-04-05T17:59:52Z</time>
      </trkpt>
      <trkpt lat="42.3358070" lon="-4.7340730">
        <ele>850.1</ele>
        <time>2020-04-05T17:59:54Z</time>
      </trkpt>
      <trkpt lat="42.3357850" lon="-4.7342140">
        <ele>850.1</ele>
        <time>2020-04-05T17:59:56Z</time>
      </trkpt>
      <trkpt lat="42.3357620" lon="-4.7343580">
        <ele>850.1</ele>
        <time>2020-04-05T17:59:58Z</time>
      </trkpt>
      <trkpt lat="42.3357390" lon="-4.7345030">
        <ele>850.1</ele>
        <time>2020-04-05T18:00:00Z</time>
      </trkpt>
      <trkpt lat="42.3357160" lon="-4.7346500">
        <ele>850.1</ele>
        <time>2020-04-05T18:00:02Z</time>
      </trkpt>
      <trkpt lat="42.3356520" lon="-4.7350630">
        <ele>850.1</ele>
        <time>2020-04-05T18:00:04Z</time>
      </trkpt>
      <trkpt lat="42.3356220" lon="-4.7352590">
        <ele>850.1</ele>
        <time>2020-04-05T18:00:06Z</time>
      </trkpt>
      <trkpt lat="42.3355980" lon="-4.7354040">
        <ele>850.1</ele>
        <time>2020-04-05T18:00:08Z</time>
      </trkpt>
      <trkpt lat="42.3355760" lon="-4.7355440">
        <ele>850.1</ele>
        <time>2020-04-05T18:00:10Z</time>
      </trkpt>
      <trkpt lat="42.3355530" lon="-4.7356830">
        <ele>850.1</ele>
        <time>2020-04-05T18:00:12Z</time>
      </trkpt>
      <trkpt lat="42.3355310" lon="-4.7358190">
        <ele>850.1</ele>
        <time>2020-04-05T18:00:14Z</time>
      </trkpt>
      <trkpt lat="42.3354750" lon="-4.7361680">
        <ele>850.4</ele>
        <time>2020-04-05T18:00:16Z</time>
      </trkpt>
      <trkpt lat="42.3354540" lon="-4.7363000">
        <ele>850.6</ele>
        <time>2020-04-05T18:00:18Z</time>
      </trkpt>
      <trkpt lat="42.3354330" lon="-4.7364330">
        <ele>850.8</ele>
        <time>2020-04-05T18:00:20Z</time>
      </trkpt>
      <trkpt lat="42.3354110" lon="-4.7365650">
        <ele>850.9</ele>
        <time>2020-04-05T18:00:22Z</time>
      </trkpt>
      <trkpt lat="42.3353910" lon="-4.7366930">
        <ele>851.0</ele>
        <time>2020-04-05T18:00:24Z</time>
      </trkpt>
      <trkpt lat="42.3353700" lon="-4.7368210">
        <ele>851.1</ele>
        <time>2020-04-05T18:00:26Z</time>
      </trkpt>
      <trkpt lat="42.3353000" lon="-4.7372570">
        <ele>851.2</ele>
        <time>2020-04-05T18:00:28Z</time>
      </trkpt>
      <trkpt lat="42.3352790" lon="-4.7373850">
        <ele>851.2</ele>
        <time>2020-04-05T18:00:30Z</time>
      </trkpt>
      <trkpt lat="42.3352580" lon="-4.7375150">
        <ele>851.3</ele>
        <time>2020-04-05T18:00:32Z</time>
      </trkpt>
      <trkpt lat="42.3352370" lon="-4.7376480">
        <ele>851.3</ele>
        <time>2020-04-05T18:00:34Z</time>
      </trkpt>
      <trkpt lat="42.3352160" lon="-4.7377800">
        <ele>851.3</ele>
        <time>2020-04-05T18:00:36Z</time>
      </trkpt>
      <trkpt lat="42.3351940" lon="-4.7379150">
        <ele>851.3</ele>
        <time>2020-04-05T18:00:38Z</time>
      </trkpt>
      <trkpt lat="42.3351720" lon="-4.7380520">
        <ele>851.4</ele>
        <time>2020-04-05T18:00:40Z</time>
      </trkpt>
      <trkpt lat="42.3351010" lon="-4.7384940">
        <ele>851.4</ele>
        <time>2020-04-05T18:00:42Z</time>
      </trkpt>
      <trkpt lat="42.3350790" lon="-4.7386310">
        <ele>851.4</ele>
        <time>2020-04-05T18:00:44Z</time>
      </trkpt>
      <trkpt lat="42.3350570" lon="-4.7387670">
        <ele>851.4</ele>
        <time>2020-04-05T18:00:46Z</time>
      </trkpt>
      <trkpt lat="42.3350130" lon="-4.7390450">
        <ele>851.5</ele>
        <time>2020-04-05T18:00:48Z</time>
      </trkpt>
      <trkpt lat="42.3349900" lon="-4.7391860">
        <ele>851.5</ele>
        <time>2020-04-05T18:00:50Z</time>
      </trkpt>
      <trkpt lat="42.3349670" lon="-4.7393250">
        <ele>851.5</ele>
        <time>2020-04-05T18:00:52Z</time>
      </trkpt>
      <trkpt lat="42.3349160" lon="-4.7396350">
        <ele>851.5</ele>
        <time>2020-04-05T18:00:54Z</time>
      </trkpt>
      <trkpt lat="42.3348930" lon="-4.7397760">
        <ele>851.5</ele>
        <time>2020-04-05T18:00:56Z</time>
      </trkpt>
      <trkpt lat="42.3348710" lon="-4.7399160">
        <ele>851.5</ele>
        <time>2020-04-05T18:00:58Z</time>
      </trkpt>
      <trkpt lat="42.3348480" lon="-4.7400560">
        <ele>851.5</ele>
        <time>2020-04-05T18:01:00Z</time>
      </trkpt>
      <trkpt lat="42.3348250" lon="-4.7401970">
        <ele>851.5</ele>
        <time>2020-04-05T18:01:02Z</time>
      </trkpt>
      <trkpt lat="42.3348020" lon="-4.7403380">
        <ele>851.5</ele>
        <time>2020-04-05T18:01:04Z</time>
      </trkpt>
      <trkpt lat="42.3347300" lon="-4.7407830">
        <ele>852.2</ele>
        <time>2020-04-05T18:01:06Z</time>
      </trkpt>
      <trkpt lat="42.3347080" lon="-4.7409240">
        <ele>852.4</ele>
        <time>2020-04-05T18:01:08Z</time>
      </trkpt>
      <trkpt lat="42.3346850" lon="-4.7410620">
        <ele>852.5</ele>
        <time>2020-04-05T18:01:10Z</time>
      </trkpt>
      <trkpt lat="42.3346630" lon="-4.7411990">
        <ele>852.5</ele>
        <time>2020-04-05T18:01:12Z</time>
      </trkpt>
      <trkpt lat="42.3346410" lon="-4.7413330">
        <ele>852.5</ele>
        <time>2020-04-05T18:01:14Z</time>
      </trkpt>
      <trkpt lat="42.3346200" lon="-4.7414650">
        <ele>852.5</ele>
        <time>2020-04-05T18:01:16Z</time>
      </trkpt>
      <trkpt lat="42.3345990" lon="-4.7415980">
        <ele>852.5</ele>
        <time>2020-04-05T18:01:18Z</time>
      </trkpt>
      <trkpt lat="42.3345280" lon="-4.7420360">
        <ele>852.5</ele>
        <time>2020-04-05T18:01:20Z</time>
      </trkpt>
      <trkpt lat="42.3345070" lon="-4.7421650">
        <ele>852.6</ele>
        <time>2020-04-05T18:01:22Z</time>
      </trkpt>
      <trkpt lat="42.3344860" lon="-4.7422940">
        <ele>852.6</ele>
        <time>2020-04-05T18:01:24Z</time>
      </trkpt>
      <trkpt lat="42.3344380" lon="-4.7425860">
        <ele>852.6</ele>
        <time>2020-04-05T18:01:26Z</time>
      </trkpt>
      <trkpt lat="42.3344170" lon="-4.7427130">
        <ele>852.6</ele>
        <time>2020-04-05T18:01:28Z</time>
      </trkpt>
      <trkpt lat="42.3343960" lon="-4.7428400">
        <ele>852.6</ele>
        <time>2020-04-05T18:01:30Z</time>
      </trkpt>
      <trkpt lat="42.3343510" lon="-4.7431080">
        <ele>852.6</ele>
        <time>2020-04-05T18:01:32Z</time>
      </trkpt>
      <trkpt lat="42.3343300" lon="-4.7432350">
        <ele>852.6</ele>
        <time>2020-04-05T18:01:34Z</time>
      </trkpt>
      <trkpt lat="42.3343080" lon="-4.7433630">
        <ele>852.6</ele>
        <time>2020-04-05T18:01:36Z</time>
      </trkpt>
      <trkpt lat="42.3342870" lon="-4.7434920">
        <ele>852.6</ele>
        <time>2020-04-05T18:01:38Z</time>
      </trkpt>
      <trkpt lat="42.3342660" lon="-4.7436200">
        <ele>852.6</ele>
        <time>2020-04-05T18:01:40Z</time>
      </trkpt>
      <trkpt lat="42.3342440" lon="-4.7437510">
        <ele>852.6</ele>
        <time>2020-04-05T18:01:42Z</time>
      </trkpt>
      <trkpt lat="42.3342220" lon="-4.7438820">
        <ele>852.6</ele>
        <time>2020-04-05T18:01:44Z</time>
      </trkpt>
      <trkpt lat="42.3341490" lon="-4.7443200">
        <ele>852.6</ele>
        <time>2020-04-05T18:01:46Z</time>
      </trkpt>
      <trkpt lat="42.3341160" lon="-4.7445150">
        <ele>852.6</ele>
        <time>2020-04-05T18:01:48Z</time>
      </trkpt>
      <trkpt lat="42.3340960" lon="-4.7446470">
        <ele>852.6</ele>
        <time>2020-04-05T18:01:50Z</time>
      </trkpt>
      <trkpt lat="42.3340750" lon="-4.7447790">
        <ele>852.6</ele>
        <time>2020-04-05T18:01:52Z</time>
      </trkpt>
      <trkpt lat="42.3340540" lon="-4.7449120">
        <ele>852.6</ele>
        <time>2020-04-05T18:01:54Z</time>
      </trkpt>
      <trkpt lat="42.3340330" lon="-4.7450470">
        <ele>852.6</ele>
        <time>2020-04-05T18:01:56Z</time>
      </trkpt>
      <trkpt lat="42.3340130" lon="-4.7451770">
        <ele>852.6</ele>
        <time>2020-04-05T18:01:58Z</time>
      </trkpt>
      <trkpt lat="42.3339550" lon="-4.7455480">
        <ele>852.7</ele>
        <time>2020-04-05T18:02:00Z</time>
      </trkpt>
      <trkpt lat="42.3339350" lon="-4.7456770">
        <ele>852.7</ele>
        <time>2020-04-05T18:02:02Z</time>
      </trkpt>
      <trkpt lat="42.3338990" lon="-4.7459060">
        <ele>852.5</ele>
        <time>2020-04-05T18:02:04Z</time>
      </trkpt>
      <trkpt lat="42.3338790" lon="-4.7460320">
        <ele>852.3</ele>
        <time>2020-04-05T18:02:06Z</time>
      </trkpt>
      <trkpt lat="42.3338590" lon="-4.7461560">
        <ele>852.1</ele>
        <time>2020-04-05T18:02:08Z</time>
      </trkpt>
      <trkpt lat="42.3338400" lon="-4.7462790">
        <ele>851.9</ele>
        <time>2020-04-05T18:02:10Z</time>
      </trkpt>
      <trkpt lat="42.3338200" lon="-4.7463990">
        <ele>851.8</ele>
        <time>2020-04-05T18:02:12Z</time>
      </trkpt>
      <trkpt lat="42.3337680" lon="-4.7467300">
        <ele>851.8</ele>
        <time>2020-04-05T18:02:14Z</time>
      </trkpt>
      <trkpt lat="42.3337490" lon="-4.7468500">
        <ele>852.0</ele>
        <time>2020-04-05T18:02:16Z</time>
      </trkpt>
      <trkpt lat="42.3337310" lon="-4.7469700">
        <ele>852.2</ele>
        <time>2020-04-05T18:02:18Z</time>
      </trkpt>
      <trkpt lat="42.3337120" lon="-4.7470890">
        <ele>852.3</ele>
        <time>2020-04-05T18:02:20Z</time>
      </trkpt>
      <trkpt lat="42.3336940" lon="-4.7472060">
        <ele>852.3</ele>
        <time>2020-04-05T18:02:22Z</time>
      </trkpt>
      <trkpt lat="42.3336760" lon="-4.7473220">
        <ele>852.2</ele>
        <time>2020-04-05T18:02:24Z</time>
      </trkpt>
      <trkpt lat="42.3336570" lon="-4.7474380">
        <ele>852.2</ele>
        <time>2020-04-05T18:02:26Z</time>
      </trkpt>
      <trkpt lat="42.3335940" lon="-4.7478480">
        <ele>852.0</ele>
        <time>2020-04-05T18:02:28Z</time>
      </trkpt>
      <trkpt lat="42.3335750" lon="-4.7479740">
        <ele>852.1</ele>
        <time>2020-04-05T18:02:30Z</time>
      </trkpt>
      <trkpt lat="42.3335560" lon="-4.7481080">
        <ele>852.2</ele>
        <time>2020-04-05T18:02:32Z</time>
      </trkpt>
      <trkpt lat="42.3335350" lon="-4.7482490">
        <ele>852.2</ele>
        <time>2020-04-05T18:02:34Z</time>
      </trkpt>
      <trkpt lat="42.3335130" lon="-4.7483970">
        <ele>852.3</ele>
        <time>2020-04-05T18:02:36Z</time>
      </trkpt>
      <trkpt lat="42.3334910" lon="-4.7485490">
        <ele>852.4</ele>
        <time>2020-04-05T18:02:38Z</time>
      </trkpt>
      <trkpt lat="42.3334230" lon="-4.7490060">
        <ele>852.3</ele>
        <time>2020-04-05T18:02:40Z</time>
      </trkpt>
      <trkpt lat="42.3334000" lon="-4.7491680">
        <ele>851.3</ele>
        <time>2020-04-05T18:02:42Z</time>
      </trkpt>
      <trkpt lat="42.3333760" lon="-4.7493360">
        <ele>850.8</ele>
        <time>2020-04-05T18:02:44Z</time>
      </trkpt>
      <trkpt lat="42.3333520" lon="-4.7495060">
        <ele>850.6</ele>
        <time>2020-04-05T18:02:46Z</time>
      </trkpt>
      <trkpt lat="42.3332900" lon="-4.7499460">
        <ele>850.6</ele>
        <time>2020-04-05T18:02:48Z</time>
      </trkpt>
      <trkpt lat="42.3332620" lon="-4.7501470">
        <ele>850.4</ele>
        <time>2020-04-05T18:02:50Z</time>
      </trkpt>
      <trkpt lat="42.3332300" lon="-4.7503770">
        <ele>850.4</ele>
        <time>2020-04-05T18:02:52Z</time>
      </trkpt>
      <trkpt lat="42.3332080" lon="-4.7505390">
        <ele>850.5</ele>
        <time>2020-04-05T18:02:54Z</time>
      </trkpt>
      <trkpt lat="42.3331860" lon="-4.7506950">
        <ele>850.4</ele>
        <time>2020-04-05T18:02:56Z</time>
      </trkpt>
      <trkpt lat="42.3331420" lon="-4.7510220">
        <ele>850.6</ele>
        <time>2020-04-05T18:02:58Z</time>
      </trkpt>
      <trkpt lat="42.3331220" lon="-4.7511670">
        <ele>850.8</ele>
        <time>2020-04-05T18:03:00Z</time>
      </trkpt>
      <trkpt lat="42.3330900" lon="-4.7514150">
        <ele>851.1</ele>
        <time>2020-04-05T18:03:02Z</time>
      </trkpt>
      <trkpt lat="42.3330740" lon="-4.7515590">
        <ele>851.1</ele>
        <time>2020-04-05T18:03:04Z</time>
      </trkpt>
      <trkpt lat="42.3330570" lon="-4.7517060">
        <ele>851.0</ele>
        <time>2020-04-05T18:03:06Z</time>
      </trkpt>
      <trkpt lat="42.3330190" lon="-4.7520160">
        <ele>851.0</ele>
        <time>2020-04-05T18:03:08Z</time>
      </trkpt>
      <trkpt lat="42.3329970" lon="-4.7521680">
        <ele>851.0</ele>
        <time>2020-04-05T18:03:10Z</time>
      </trkpt>
      <trkpt lat="42.3329730" lon="-4.7523240">
        <ele>851.1</ele>
        <time>2020-04-05T18:03:12Z</time>
      </trkpt>
      <trkpt lat="42.3329500" lon="-4.7524800">
        <ele>851.1</ele>
        <time>2020-04-05T18:03:14Z</time>
      </trkpt>
      <trkpt lat="42.3329260" lon="-4.7526400">
        <ele>851.2</ele>
        <time>2020-04-05T18:03:16Z</time>
      </trkpt>
      <trkpt lat="42.3328600" lon="-4.7530790">
        <ele>851.1</ele>
        <time>2020-04-05T18:03:18Z</time>
      </trkpt>
      <trkpt lat="42.3328370" lon="-4.7532390">
        <ele>851.2</ele>
        <time>2020-04-05T18:03:20Z</time>
      </trkpt>
      <trkpt lat="42.3328140" lon="-4.7533970">
        <ele>851.3</ele>
        <time>2020-04-05T18:03:22Z</time>
      </trkpt>
      <trkpt lat="42.3327920" lon="-4.7535520">
        <ele>851.3</ele>
        <time>2020-04-05T18:03:24Z</time>
      </trkpt>
      <trkpt lat="42.3327420" lon="-4.7539070">
        <ele>851.3</ele>
        <time>2020-04-05T18:03:26Z</time>
      </trkpt>
      <trkpt lat="42.3327220" lon="-4.7540570">
        <ele>851.3</ele>
        <time>2020-04-05T18:03:28Z</time>
      </trkpt>
      <trkpt lat="42.3326980" lon="-4.7543010">
        <ele>851.5</ele>
        <time>2020-04-05T18:03:30Z</time>
      </trkpt>
      <trkpt lat="42.3326740" lon="-4.7545400">
        <ele>851.6</ele>
        <time>2020-04-05T18:03:32Z</time>
      </trkpt>
      <trkpt lat="42.3326390" lon="-4.7547490">
        <ele>851.7</ele>
        <time>2020-04-05T18:03:34Z</time>
      </trkpt>
      <trkpt lat="42.3326040" lon="-4.7549400">
        <ele>851.6</ele>
        <time>2020-04-05T18:03:36Z</time>
      </trkpt>
      <trkpt lat="42.3325840" lon="-4.7550790">
        <ele>851.7</ele>
        <time>2020-04-05T18:03:38Z</time>
      </trkpt>
      <trkpt lat="42.3325660" lon="-4.7552090">
        <ele>851.8</ele>
        <time>2020-04-05T18:03:40Z</time>
      </trkpt>
      <trkpt lat="42.3325500" lon="-4.7553280">
        <ele>852.0</ele>
        <time>2020-04-05T18:03:42Z</time>
      </trkpt>
      <trkpt lat="42.3325340" lon="-4.7554420">
        <ele>852.2</ele>
        <time>2020-04-05T18:03:44Z</time>
      </trkpt>
      <trkpt lat="42.3324890" lon="-4.7557600">
        <ele>852.6</ele>
        <time>2020-04-05T18:03:46Z</time>
      </trkpt>
      <trkpt lat="42.3324750" lon="-4.7558670">
        <ele>852.8</ele>
        <time>2020-04-05T18:03:48Z</time>
      </trkpt>
      <trkpt lat="42.3324600" lon="-4.7559710">
        <ele>852.9</ele>
        <time>2020-04-05T18:03:50Z</time>
      </trkpt>
      <trkpt lat="42.3324460" lon="-4.7560740">
        <ele>853.1</ele>
        <time>2020-04-05T18:03:52Z</time>
      </trkpt>
      <trkpt lat="42.3324310" lon="-4.7561780">
        <ele>853.1</ele>
        <time>2020-04-05T18:03:54Z</time>
      </trkpt>
      <trkpt lat="42.3324170" lon="-4.7562810">
        <ele>853.2</ele>
        <time>2020-04-05T18:03:56Z</time>
      </trkpt>
      <trkpt lat="42.3324020" lon="-4.7563840">
        <ele>853.2</ele>
        <time>2020-04-05T18:03:58Z</time>
      </trkpt>
      <trkpt lat="42.3323520" lon="-4.7567430">
        <ele>853.7</ele>
        <time>2020-04-05T18:04:00Z</time>
      </trkpt>
      <trkpt lat="42.3323380" lon="-4.7568470">
        <ele>853.8</ele>
        <time>2020-04-05T18:04:02Z</time>
      </trkpt>
      <trkpt lat="42.3323240" lon="-4.7569520">
        <ele>853.9</ele>
        <time>2020-04-05T18:04:04Z</time>
      </trkpt>
      <trkpt lat="42.3323090" lon="-4.7570580">
        <ele>854.0</ele>
        <time>2020-04-05T18:04:06Z</time>
      </trkpt>
      <trkpt lat="42.3322940" lon="-4.7571660">
        <ele>854.1</ele>
        <time>2020-04-05T18:04:08Z</time>
      </trkpt>
      <trkpt lat="42.3322790" lon="-4.7572740">
        <ele>854.3</ele>
        <time>2020-04-05T18:04:10Z</time>
      </trkpt>
      <trkpt lat="42.3322640" lon="-4.7573810">
        <ele>854.6</ele>
        <time>2020-04-05T18:04:12Z</time>
      </trkpt>
      <trkpt lat="42.3322130" lon="-4.7577480">
        <ele>855.8</ele>
        <time>2020-04-05T18:04:14Z</time>
      </trkpt>
      <trkpt lat="42.3321990" lon="-4.7578560">
        <ele>856.0</ele>
        <time>2020-04-05T18:04:16Z</time>
      </trkpt>
      <trkpt lat="42.3321840" lon="-4.7579640">
        <ele>856.2</ele>
        <time>2020-04-05T18:04:18Z</time>
      </trkpt>
      <trkpt lat="42.3321690" lon="-4.7580720">
        <ele>856.4</ele>
        <time>2020-04-05T18:04:20Z</time>
      </trkpt>
      <trkpt lat="42.3321540" lon="-4.7581800">
        <ele>856.6</ele>
        <time>2020-04-05T18:04:22Z</time>
      </trkpt>
      <trkpt lat="42.3321180" lon="-4.7584590">
        <ele>857.5</ele>
        <time>2020-04-05T18:04:24Z</time>
      </trkpt>
      <trkpt lat="42.3321050" lon="-4.7585740">
        <ele>857.9</ele>
        <time>2020-04-05T18:04:26Z</time>
      </trkpt>
      <trkpt lat="42.3320710" lon="-4.7587810">
        <ele>858.8</ele>
        <time>2020-04-05T18:04:28Z</time>
      </trkpt>
      <trkpt lat="42.3320470" lon="-4.7588980">
        <ele>859.3</ele>
        <time>2020-04-05T18:04:30Z</time>
      </trkpt>
      <trkpt lat="42.3320230" lon="-4.7590160">
        <ele>859.9</ele>
        <time>2020-04-05T18:04:32Z</time>
      </trkpt>
      <trkpt lat="42.3319750" lon="-4.7592490">
        <ele>860.4</ele>
        <time>2020-04-05T18:04:34Z</time>
      </trkpt>
      <trkpt lat="42.3319510" lon="-4.7593670">
        <ele>860.6</ele>
        <time>2020-04-05T18:04:36Z</time>
      </trkpt>
      <trkpt lat="42.3319260" lon="-4.7594850">
        <ele>860.7</ele>
        <time>2020-04-05T18:04:38Z</time>
      </trkpt>
      <trkpt lat="42.3318710" lon="-4.7597530">
        <ele>861.1</ele>
        <time>2020-04-05T18:04:40Z</time>
      </trkpt>
      <trkpt lat="42.3318420" lon="-4.7598910">
        <ele>861.1</ele>
        <time>2020-04-05T18:04:42Z</time>
      </trkpt>
      <trkpt lat="42.3318180" lon="-4.7600100">
        <ele>861.1</ele>
        <time>2020-04-05T18:04:44Z</time>
      </trkpt>
      <trkpt lat="42.3317930" lon="-4.7601350">
        <ele>861.2</ele>
        <time>2020-04-05T18:04:46Z</time>
      </trkpt>
      <trkpt lat="42.3317670" lon="-4.7602640">
        <ele>861.3</ele>
        <time>2020-04-05T18:04:48Z</time>
      </trkpt>
      <trkpt lat="42.3317410" lon="-4.7603970">
        <ele>861.4</ele>
        <time>2020-04-05T18:04:50Z</time>
      </trkpt>
      <trkpt lat="42.3317130" lon="-4.7605340">
        <ele>861.4</ele>
        <time>2020-04-05T18:04:52Z</time>
      </trkpt>
      <trkpt lat="42.3316280" lon="-4.7609610">
        <ele>860.5</ele>
        <time>2020-04-05T18:04:54Z</time>
      </trkpt>
      <trkpt lat="42.3315990" lon="-4.7611040">
        <ele>859.9</ele>
        <time>2020-04-05T18:04:56Z</time>
      </trkpt>
      <trkpt lat="42.3315560" lon="-4.7613220">
        <ele>859.0</ele>
        <time>2020-04-05T18:04:58Z</time>
      </trkpt>
      <trkpt lat="42.3315290" lon="-4.7614620">
        <ele>858.7</ele>
        <time>2020-04-05T18:05:00Z</time>
      </trkpt>
      <trkpt lat="42.3315020" lon="-4.7615980">
        <ele>858.6</ele>
        <time>2020-04-05T18:05:02Z</time>
      </trkpt>
      <trkpt lat="42.3314760" lon="-4.7617330">
        <ele>858.8</ele>
        <time>2020-04-05T18:05:04Z</time>
      </trkpt>
      <trkpt lat="42.3314090" lon="-4.7620790">
        <ele>859.1</ele>
        <time>2020-04-05T18:05:06Z</time>
      </trkpt>
      <trkpt lat="42.3313840" lon="-4.7622100">
        <ele>859.1</ele>
        <time>2020-04-05T18:05:08Z</time>
      </trkpt>
      <trkpt lat="42.3313590" lon="-4.7623390">
        <ele>859.1</ele>
        <time>2020-04-05T18:05:10Z</time>
      </trkpt>
      <trkpt lat="42.3313340" lon="-4.7624660">
        <ele>859.2</ele>
        <time>2020-04-05T18:05:12Z</time>
      </trkpt>
      <trkpt lat="42.3312730" lon="-4.7627800">
        <ele>860.0</ele>
        <time>2020-04-05T18:05:14Z</time>
      </trkpt>
      <trkpt lat="42.3312490" lon="-4.7629030">
        <ele>860.5</ele>
        <time>2020-04-05T18:05:16Z</time>
      </trkpt>
      <trkpt lat="42.3312250" lon="-4.7630240">
        <ele>860.8</ele>
        <time>2020-04-05T18:05:18Z</time>
      </trkpt>
      <trkpt lat="42.3311810" lon="-4.7632480">
        <ele>861.2</ele>
        <time>2020-04-05T18:05:20Z</time>
      </trkpt>
      <trkpt lat="42.3311580" lon="-4.7633710">
        <ele>861.4</ele>
        <time>2020-04-05T18:05:22Z</time>
      </trkpt>
      <trkpt lat="42.3311340" lon="-4.7634940">
        <ele>861.6</ele>
        <time>2020-04-05T18:05:24Z</time>
      </trkpt>
      <trkpt lat="42.3311100" lon="-4.7636160">
        <ele>861.8</ele>
        <time>2020-04-05T18:05:26Z</time>
      </trkpt>
      <trkpt lat="42.3310860" lon="-4.7637390">
        <ele>862.0</ele>
        <time>2020-04-05T18:05:28Z</time>
      </trkpt>
      <trkpt lat="42.3310630" lon="-4.7638620">
        <ele>862.0</ele>
        <time>2020-04-05T18:05:30Z</time>
      </trkpt>
      <trkpt lat="42.3309830" lon="-4.7642730">
        <ele>862.1</ele>
        <time>2020-04-05T18:05:32Z</time>
      </trkpt>
      <trkpt lat="42.3309590" lon="-4.7643960">
        <ele>862.1</ele>
        <time>2020-04-05T18:05:34Z</time>
      </trkpt>
      <trkpt lat="42.3309350" lon="-4.7645180">
        <ele>862.1</ele>
        <time>2020-04-05T18:05:36Z</time>
      </trkpt>
      <trkpt lat="42.3309110" lon="-4.7646410">
        <ele>862.1</ele>
        <time>2020-04-05T18:05:38Z</time>
      </trkpt>
      <trkpt lat="42.3308880" lon="-4.7647640">
        <ele>862.1</ele>
        <time>2020-04-05T18:05:40Z</time>
      </trkpt>
      <trkpt lat="42.3308640" lon="-4.7648860">
        <ele>862.1</ele>
        <time>2020-04-05T18:05:42Z</time>
      </trkpt>
      <trkpt lat="42.3308400" lon="-4.7650100">
        <ele>862.1</ele>
        <time>2020-04-05T18:05:44Z</time>
      </trkpt>
      <trkpt lat="42.3307600" lon="-4.7654230">
        <ele>862.2</ele>
        <time>2020-04-05T18:05:46Z</time>
      </trkpt>
      <trkpt lat="42.3307350" lon="-4.7655490">
        <ele>862.3</ele>
        <time>2020-04-05T18:05:48Z</time>
      </trkpt>
      <trkpt lat="42.3307100" lon="-4.7656760">
        <ele>862.6</ele>
        <time>2020-04-05T18:05:50Z</time>
      </trkpt>
      <trkpt lat="42.3306850" lon="-4.7658040">
        <ele>862.8</ele>
        <time>2020-04-05T18:05:52Z</time>
      </trkpt>
      <trkpt lat="42.3306600" lon="-4.7659340">
        <ele>863.0</ele>
        <time>2020-04-05T18:05:54Z</time>
      </trkpt>
      <trkpt lat="42.3306350" lon="-4.7660650">
        <ele>863.2</ele>
        <time>2020-04-05T18:05:56Z</time>
      </trkpt>
      <trkpt lat="42.3305530" lon="-4.7664850">
        <ele>863.2</ele>
        <time>2020-04-05T18:05:58Z</time>
      </trkpt>
      <trkpt lat="42.3305270" lon="-4.7666170">
        <ele>863.2</ele>
        <time>2020-04-05T18:06:00Z</time>
      </trkpt>
      <trkpt lat="42.3305010" lon="-4.7667510">
        <ele>863.1</ele>
        <time>2020-04-05T18:06:02Z</time>
      </trkpt>
      <trkpt lat="42.3304750" lon="-4.7668860">
        <ele>863.1</ele>
        <time>2020-04-05T18:06:04Z</time>
      </trkpt>
      <trkpt lat="42.3304490" lon="-4.7670200">
        <ele>863.1</ele>
        <time>2020-04-05T18:06:06Z</time>
      </trkpt>
      <trkpt lat="42.3303790" lon="-4.7673800">
        <ele>863.1</ele>
        <time>2020-04-05T18:06:08Z</time>
      </trkpt>
      <trkpt lat="42.3303400" lon="-4.7675730">
        <ele>863.1</ele>
        <time>2020-04-05T18:06:10Z</time>
      </trkpt>
      <trkpt lat="42.3303150" lon="-4.7676980">
        <ele>863.1</ele>
        <time>2020-04-05T18:06:12Z</time>
      </trkpt>
      <trkpt lat="42.3302910" lon="-4.7678180">
        <ele>863.1</ele>
        <time>2020-04-05T18:06:14Z</time>
      </trkpt>
      <trkpt lat="42.3302670" lon="-4.7679340">
        <ele>863.1</ele>
        <time>2020-04-05T18:06:16Z</time>
      </trkpt>
      <trkpt lat="42.3302450" lon="-4.7680460">
        <ele>863.2</ele>
        <time>2020-04-05T18:06:18Z</time>
      </trkpt>
      <trkpt lat="42.3302230" lon="-4.7681560">
        <ele>863.3</ele>
        <time>2020-04-05T18:06:20Z</time>
      </trkpt>
      <trkpt lat="42.3302010" lon="-4.7682640">
        <ele>863.4</ele>
        <time>2020-04-05T18:06:22Z</time>
      </trkpt>
      <trkpt lat="42.3301800" lon="-4.7683680">
        <ele>863.6</ele>
        <time>2020-04-05T18:06:24Z</time>
      </trkpt>
      <trkpt lat="42.3301010" lon="-4.7687600">
        <ele>864.2</ele>
        <time>2020-04-05T18:06:26Z</time>
      </trkpt>
      <trkpt lat="42.3300810" lon="-4.7688630">
        <ele>864.4</ele>
        <time>2020-04-05T18:06:28Z</time>
      </trkpt>
      <trkpt lat="42.3300600" lon="-4.7689670">
        <ele>864.6</ele>
        <time>2020-04-05T18:06:30Z</time>
      </trkpt>
      <trkpt lat="42.3300390" lon="-4.7690690">
        <ele>864.8</ele>
        <time>2020-04-05T18:06:32Z</time>
      </trkpt>
      <trkpt lat="42.3300180" lon="-4.7691750">
        <ele>865.0</ele>
        <time>2020-04-05T18:06:34Z</time>
      </trkpt>
      <trkpt lat="42.3299960" lon="-4.7692830">
        <ele>865.1</ele>
        <time>2020-04-05T18:06:36Z</time>
      </trkpt>
      <trkpt lat="42.3299740" lon="-4.7693940">
        <ele>865.4</ele>
        <time>2020-04-05T18:06:38Z</time>
      </trkpt>
      <trkpt lat="42.3298920" lon="-4.7697970">
        <ele>866.0</ele>
        <time>2020-04-05T18:06:40Z</time>
      </trkpt>
      <trkpt lat="42.3298610" lon="-4.7699560">
        <ele>866.2</ele>
        <time>2020-04-05T18:06:42Z</time>
      </trkpt>
      <trkpt lat="42.3298370" lon="-4.7700750">
        <ele>866.3</ele>
        <time>2020-04-05T18:06:44Z</time>
      </trkpt>
      <trkpt lat="42.3298120" lon="-4.7701950">
        <ele>866.5</ele>
        <time>2020-04-05T18:06:46Z</time>
      </trkpt>
      <trkpt lat="42.3297660" lon="-4.7704140">
        <ele>867.0</ele>
        <time>2020-04-05T18:06:48Z</time>
      </trkpt>
      <trkpt lat="42.3297290" lon="-4.7705970">
        <ele>867.5</ele>
        <time>2020-04-05T18:06:50Z</time>
      </trkpt>
      <trkpt lat="42.3297060" lon="-4.7707210">
        <ele>867.9</ele>
        <time>2020-04-05T18:06:52Z</time>
      </trkpt>
      <trkpt lat="42.3296690" lon="-4.7709380">
        <ele>868.2</ele>
        <time>2020-04-05T18:06:54Z</time>
      </trkpt>
      <trkpt lat="42.3296520" lon="-4.7710700">
        <ele>868.4</ele>
        <time>2020-04-05T18:06:56Z</time>
      </trkpt>
      <trkpt lat="42.3296350" lon="-4.7712060">
        <ele>868.5</ele>
        <time>2020-04-05T18:06:58Z</time>
      </trkpt>
      <trkpt lat="42.3296060" lon="-4.7714680">
        <ele>868.6</ele>
        <time>2020-04-05T18:07:00Z</time>
      </trkpt>
      <trkpt lat="42.3295930" lon="-4.7716110">
        <ele>868.5</ele>
        <time>2020-04-05T18:07:02Z</time>
      </trkpt>
      <trkpt lat="42.3295800" lon="-4.7717550">
        <ele>868.4</ele>
        <time>2020-04-05T18:07:04Z</time>
      </trkpt>
      <trkpt lat="42.3295670" lon="-4.7719010">
        <ele>868.4</ele>
        <time>2020-04-05T18:07:06Z</time>
      </trkpt>
      <trkpt lat="42.3295360" lon="-4.7722600">
        <ele>869.1</ele>
        <time>2020-04-05T18:07:08Z</time>
      </trkpt>
      <trkpt lat="42.3295170" lon="-4.7724750">
        <ele>869.2</ele>
        <time>2020-04-05T18:07:10Z</time>
      </trkpt>
      <trkpt lat="42.3295040" lon="-4.7726340">
        <ele>869.2</ele>
        <time>2020-04-05T18:07:12Z</time>
      </trkpt>
      <trkpt lat="42.3294900" lon="-4.7727960">
        <ele>869.1</ele>
        <time>2020-04-05T18:07:14Z</time>
      </trkpt>
      <trkpt lat="42.3294760" lon="-4.7729640">
        <ele>869.2</ele>
        <time>2020-04-05T18:07:16Z</time>
      </trkpt>
      <trkpt lat="42.3294610" lon="-4.7731350">
        <ele>869.3</ele>
        <time>2020-04-05T18:07:18Z</time>
      </trkpt>
      <trkpt lat="42.3294230" lon="-4.7735810">
        <ele>869.3</ele>
        <time>2020-04-05T18:07:20Z</time>
      </trkpt>
      <trkpt lat="42.3294090" lon="-4.7737530">
        <ele>869.3</ele>
        <time>2020-04-05T18:07:22Z</time>
      </trkpt>
      <trkpt lat="42.3293940" lon="-4.7739250">
        <ele>869.3</ele>
        <time>2020-04-05T18:07:24Z</time>
      </trkpt>
      <trkpt lat="42.3293790" lon="-4.7740980">
        <ele>869.3</ele>
        <time>2020-04-05T18:07:26Z</time>
      </trkpt>
      <trkpt lat="42.3293420" lon="-4.7745430">
        <ele>869.3</ele>
        <time>2020-04-05T18:07:28Z</time>
      </trkpt>
      <trkpt lat="42.3293290" lon="-4.7747150">
        <ele>869.3</ele>
        <time>2020-04-05T18:07:30Z</time>
      </trkpt>
      <trkpt lat="42.3293160" lon="-4.7748880">
        <ele>869.4</ele>
        <time>2020-04-05T18:07:32Z</time>
      </trkpt>
      <trkpt lat="42.3293030" lon="-4.7750610">
        <ele>869.6</ele>
        <time>2020-04-05T18:07:34Z</time>
      </trkpt>
      <trkpt lat="42.3292700" lon="-4.7754900">
        <ele>870.0</ele>
        <time>2020-04-05T18:07:36Z</time>
      </trkpt>
      <trkpt lat="42.3292570" lon="-4.7756610">
        <ele>870.3</ele>
        <time>2020-04-05T18:07:38Z</time>
      </trkpt>
      <trkpt lat="42.3292440" lon="-4.7758290">
        <ele>870.7</ele>
        <time>2020-04-05T18:07:40Z</time>
      </trkpt>
      <trkpt lat="42.3292320" lon="-4.7759940">
        <ele>871.0</ele>
        <time>2020-04-05T18:07:42Z</time>
      </trkpt>
      <trkpt lat="42.3292190" lon="-4.7761540">
        <ele>871.0</ele>
        <time>2020-04-05T18:07:44Z</time>
      </trkpt>
      <trkpt lat="42.3291880" lon="-4.7765720">
        <ele>870.4</ele>
        <time>2020-04-05T18:07:46Z</time>
      </trkpt>
      <trkpt lat="42.3291760" lon="-4.7767300">
        <ele>870.5</ele>
        <time>2020-04-05T18:07:48Z</time>
      </trkpt>
      <trkpt lat="42.3291640" lon="-4.7768870">
        <ele>870.9</ele>
        <time>2020-04-05T18:07:50Z</time>
      </trkpt>
      <trkpt lat="42.3291520" lon="-4.7770410">
        <ele>871.2</ele>
        <time>2020-04-05T18:07:52Z</time>
      </trkpt>
      <trkpt lat="42.3291210" lon="-4.7774510">
        <ele>871.7</ele>
        <time>2020-04-05T18:07:54Z</time>
      </trkpt>
      <trkpt lat="42.3291150" lon="-4.7776050">
        <ele>872.1</ele>
        <time>2020-04-05T18:07:56Z</time>
      </trkpt>
      <trkpt lat="42.3291100" lon="-4.7777620">
        <ele>872.5</ele>
        <time>2020-04-05T18:07:58Z</time>
      </trkpt>
      <trkpt lat="42.3291040" lon="-4.7779170">
        <ele>872.9</ele>
        <time>2020-04-05T18:08:00Z</time>
      </trkpt>
      <trkpt lat="42.3290900" lon="-4.7782980">
        <ele>873.3</ele>
        <time>2020-04-05T18:08:02Z</time>
      </trkpt>
      <trkpt lat="42.3290860" lon="-4.7784590">
        <ele>873.2</ele>
        <time>2020-04-05T18:08:04Z</time>
      </trkpt>
      <trkpt lat="42.3290820" lon="-4.7786200">
        <ele>873.0</ele>
        <time>2020-04-05T18:08:06Z</time>
      </trkpt>
      <trkpt lat="42.3290780" lon="-4.7787820">
        <ele>872.9</ele>
        <time>2020-04-05T18:08:08Z</time>
      </trkpt>
      <trkpt lat="42.3290690" lon="-4.7791660">
        <ele>873.3</ele>
        <time>2020-04-05T18:08:10Z</time>
      </trkpt>
      <trkpt lat="42.3290650" lon="-4.7793300">
        <ele>873.3</ele>
        <time>2020-04-05T18:08:12Z</time>
      </trkpt>
      <trkpt lat="42.3290620" lon="-4.7794990">
        <ele>873.3</ele>
        <time>2020-04-05T18:08:14Z</time>
      </trkpt>
      <trkpt lat="42.3290590" lon="-4.7796700">
        <ele>873.3</ele>
        <time>2020-04-05T18:08:16Z</time>
      </trkpt>
      <trkpt lat="42.3290530" lon="-4.7800420">
        <ele>873.2</ele>
        <time>2020-04-05T18:08:18Z</time>
      </trkpt>
      <trkpt lat="42.3290500" lon="-4.7802170">
        <ele>872.8</ele>
        <time>2020-04-05T18:08:20Z</time>
      </trkpt>
      <trkpt lat="42.3290470" lon="-4.7803950">
        <ele>872.3</ele>
        <time>2020-04-05T18:08:22Z</time>
      </trkpt>
      <trkpt lat="42.3290280" lon="-4.7808050">
        <ele>871.3</ele>
        <time>2020-04-05T18:08:24Z</time>
      </trkpt>
      <trkpt lat="42.3290270" lon="-4.7809800">
        <ele>871.3</ele>
        <time>2020-04-05T18:08:26Z</time>
      </trkpt>
      <trkpt lat="42.3290250" lon="-4.7811480">
        <ele>871.3</ele>
        <time>2020-04-05T18:08:28Z</time>
      </trkpt>
      <trkpt lat="42.3290240" lon="-4.7813140">
        <ele>871.3</ele>
        <time>2020-04-05T18:08:30Z</time>
      </trkpt>
      <trkpt lat="42.3290230" lon="-4.7814770">
        <ele>871.3</ele>
        <time>2020-04-05T18:08:32Z</time>
      </trkpt>
      <trkpt lat="42.3290190" lon="-4.7819300">
        <ele>871.3</ele>
        <time>2020-04-05T18:08:34Z</time>
      </trkpt>
      <trkpt lat="42.3290180" lon="-4.7820890">
        <ele>871.4</ele>
        <time>2020-04-05T18:08:36Z</time>
      </trkpt>
      <trkpt lat="42.3290160" lon="-4.7822500">
        <ele>871.6</ele>
        <time>2020-04-05T18:08:38Z</time>
      </trkpt>
      <trkpt lat="42.3290150" lon="-4.7824130">
        <ele>871.9</ele>
        <time>2020-04-05T18:08:40Z</time>
      </trkpt>
      <trkpt lat="42.3290140" lon="-4.7825780">
        <ele>872.1</ele>
        <time>2020-04-05T18:08:42Z</time>
      </trkpt>
      <trkpt lat="42.3290120" lon="-4.7827430">
        <ele>872.2</ele>
        <time>2020-04-05T18:08:44Z</time>
      </trkpt>
      <trkpt lat="42.3290090" lon="-4.7832030">
        <ele>872.2</ele>
        <time>2020-04-05T18:08:46Z</time>
      </trkpt>
      <trkpt lat="42.3290070" lon="-4.7834810">
        <ele>872.2</ele>
        <time>2020-04-05T18:08:48Z</time>
      </trkpt>
      <trkpt lat="42.3290040" lon="-4.7836500">
        <ele>872.2</ele>
        <time>2020-04-05T18:08:50Z</time>
      </trkpt>
      <trkpt lat="42.3290010" lon="-4.7838200">
        <ele>872.2</ele>
        <time>2020-04-05T18:08:52Z</time>
      </trkpt>
      <trkpt lat="42.3289960" lon="-4.7841730">
        <ele>872.2</ele>
        <time>2020-04-05T18:08:54Z</time>
      </trkpt>
      <trkpt lat="42.3289940" lon="-4.7843420">
        <ele>872.2</ele>
        <time>2020-04-05T18:08:56Z</time>
      </trkpt>
      <trkpt lat="42.3289920" lon="-4.7845090">
        <ele>872.2</ele>
        <time>2020-04-05T18:08:58Z</time>
      </trkpt>
      <trkpt lat="42.3289900" lon="-4.7846770">
        <ele>872.1</ele>
        <time>2020-04-05T18:09:00Z</time>
      </trkpt>
      <trkpt lat="42.3289890" lon="-4.7848450">
        <ele>872.1</ele>
        <time>2020-04-05T18:09:02Z</time>
      </trkpt>
      <trkpt lat="42.3289840" lon="-4.7853040">
        <ele>872.1</ele>
        <time>2020-04-05T18:09:04Z</time>
      </trkpt>
      <trkpt lat="42.3289820" lon="-4.7854730">
        <ele>872.1</ele>
        <time>2020-04-05T18:09:06Z</time>
      </trkpt>
      <trkpt lat="42.3289800" lon="-4.7856420">
        <ele>872.1</ele>
        <time>2020-04-05T18:09:08Z</time>
      </trkpt>
      <trkpt lat="42.3289790" lon="-4.7858110">
        <ele>872.1</ele>
        <time>2020-04-05T18:09:10Z</time>
      </trkpt>
      <trkpt lat="42.3289770" lon="-4.7859810">
        <ele>872.1</ele>
        <time>2020-04-05T18:09:12Z</time>
      </trkpt>
      <trkpt lat="42.3289720" lon="-4.7864440">
        <ele>872.1</ele>
        <time>2020-04-05T18:09:14Z</time>
      </trkpt>
      <trkpt lat="42.3289720" lon="-4.7866150">
        <ele>872.1</ele>
        <time>2020-04-05T18:09:16Z</time>
      </trkpt>
      <trkpt lat="42.3289730" lon="-4.7867880">
        <ele>872.0</ele>
        <time>2020-04-05T18:09:18Z</time>
      </trkpt>
      <trkpt lat="42.3289730" lon="-4.7871470">
        <ele>872.0</ele>
        <time>2020-04-05T18:09:20Z</time>
      </trkpt>
      <trkpt lat="42.3289770" lon="-4.7873180">
        <ele>872.0</ele>
        <time>2020-04-05T18:09:22Z</time>
      </trkpt>
      <trkpt lat="42.3289820" lon="-4.7876000">
        <ele>872.0</ele>
        <time>2020-04-05T18:09:24Z</time>
      </trkpt>
      <trkpt lat="42.3289860" lon="-4.7877690">
        <ele>872.0</ele>
        <time>2020-04-05T18:09:26Z</time>
      </trkpt>
      <trkpt lat="42.3289900" lon="-4.7879370">
        <ele>872.0</ele>
        <time>2020-04-05T18:09:28Z</time>
      </trkpt>
      <trkpt lat="42.3289930" lon="-4.7881020">
        <ele>872.0</ele>
        <time>2020-04-05T18:09:30Z</time>
      </trkpt>
      <trkpt lat="42.3290010" lon="-4.7884660">
        <ele>872.0</ele>
        <time>2020-04-05T18:09:32Z</time>
      </trkpt>
      <trkpt lat="42.3290060" lon="-4.7887300">
        <ele>872.0</ele>
        <time>2020-04-05T18:09:34Z</time>
      </trkpt>
      <trkpt lat="42.3290090" lon="-4.7888940">
        <ele>872.0</ele>
        <time>2020-04-05T18:09:36Z</time>
      </trkpt>
      <trkpt lat="42.3290130" lon="-4.7890590">
        <ele>871.9</ele>
        <time>2020-04-05T18:09:38Z</time>
      </trkpt>
      <trkpt lat="42.3290160" lon="-4.7892250">
        <ele>871.9</ele>
        <time>2020-04-05T18:09:40Z</time>
      </trkpt>
      <trkpt lat="42.3290200" lon="-4.7893880">
        <ele>871.9</ele>
        <time>2020-04-05T18:09:42Z</time>
      </trkpt>
      <trkpt lat="42.3290290" lon="-4.7898490">
        <ele>871.9</ele>
        <time>2020-04-05T18:09:44Z</time>
      </trkpt>
      <trkpt lat="42.3290330" lon="-4.7900120">
        <ele>871.9</ele>
        <time>2020-04-05T18:09:46Z</time>
      </trkpt>
      <trkpt lat="42.3290360" lon="-4.7901760">
        <ele>871.9</ele>
        <time>2020-04-05T18:09:48Z</time>
      </trkpt>
      <trkpt lat="42.3290390" lon="-4.7903370">
        <ele>871.9</ele>
        <time>2020-04-05T18:09:50Z</time>
      </trkpt>
      <trkpt lat="42.3290460" lon="-4.7906910">
        <ele>871.9</ele>
        <time>2020-04-05T18:09:52Z</time>
      </trkpt>
      <trkpt lat="42.3290490" lon="-4.7908560">
        <ele>871.9</ele>
        <time>2020-04-05T18:09:54Z</time>
      </trkpt>
      <trkpt lat="42.3290540" lon="-4.7911280">
        <ele>871.9</ele>
        <time>2020-04-05T18:09:56Z</time>
      </trkpt>
      <trkpt lat="42.3290580" lon="-4.7912920">
        <ele>871.9</ele>
        <time>2020-04-05T18:09:58Z</time>
      </trkpt>
      <trkpt lat="42.3290610" lon="-4.7914580">
        <ele>871.8</ele>
        <time>2020-04-05T18:10:00Z</time>
      </trkpt>
      <trkpt lat="42.3290640" lon="-4.7916260">
        <ele>871.8</ele>
        <time>2020-04-05T18:10:02Z</time>
      </trkpt>
      <trkpt lat="42.3290680" lon="-4.7917950">
        <ele>871.8</ele>
        <time>2020-04-05T18:10:04Z</time>
      </trkpt>
      <trkpt lat="42.3290700" lon="-4.7922600">
        <ele>871.8</ele>
        <time>2020-04-05T18:10:06Z</time>
      </trkpt>
      <trkpt lat="42.3290640" lon="-4.7924310">
        <ele>871.7</ele>
        <time>2020-04-05T18:10:08Z</time>
      </trkpt>
      <trkpt lat="42.3290590" lon="-4.7926030">
        <ele>871.6</ele>
        <time>2020-04-05T18:10:10Z</time>
      </trkpt>
      <trkpt lat="42.3290540" lon="-4.7927790">
        <ele>871.4</ele>
        <time>2020-04-05T18:10:12Z</time>
      </trkpt>
      <trkpt lat="42.3290490" lon="-4.7929560">
        <ele>871.2</ele>
        <time>2020-04-05T18:10:14Z</time>
      </trkpt>
      <trkpt lat="42.3290350" lon="-4.7934360">
        <ele>870.8</ele>
        <time>2020-04-05T18:10:16Z</time>
      </trkpt>
      <trkpt lat="42.3290300" lon="-4.7936160">
        <ele>870.8</ele>
        <time>2020-04-05T18:10:18Z</time>
      </trkpt>
      <trkpt lat="42.3290200" lon="-4.7939710">
        <ele>871.1</ele>
        <time>2020-04-05T18:10:20Z</time>
      </trkpt>
      <trkpt lat="42.3290140" lon="-4.7941500">
        <ele>871.2</ele>
        <time>2020-04-05T18:10:22Z</time>
      </trkpt>
      <trkpt lat="42.3290030" lon="-4.7944580">
        <ele>871.4</ele>
        <time>2020-04-05T18:10:24Z</time>
      </trkpt>
      <trkpt lat="42.3289970" lon="-4.7946400">
        <ele>871.5</ele>
        <time>2020-04-05T18:10:26Z</time>
      </trkpt>
      <trkpt lat="42.3289910" lon="-4.7948210">
        <ele>871.4</ele>
        <time>2020-04-05T18:10:28Z</time>
      </trkpt>
      <trkpt lat="42.3289850" lon="-4.7950030">
        <ele>871.2</ele>
        <time>2020-04-05T18:10:30Z</time>
      </trkpt>
      <trkpt lat="42.3289790" lon="-4.7951840">
        <ele>871.0</ele>
        <time>2020-04-05T18:10:32Z</time>
      </trkpt>
      <trkpt lat="42.3289630" lon="-4.7956700">
        <ele>870.7</ele>
        <time>2020-04-05T18:10:34Z</time>
      </trkpt>
      <trkpt lat="42.3289580" lon="-4.7958470">
        <ele>870.7</ele>
        <time>2020-04-05T18:10:36Z</time>
      </trkpt>
      <trkpt lat="42.3289520" lon="-4.7960180">
        <ele>870.7</ele>
        <time>2020-04-05T18:10:38Z</time>
      </trkpt>
      <trkpt lat="42.3289460" lon="-4.7961850">
        <ele>870.7</ele>
        <time>2020-04-05T18:10:40Z</time>
      </trkpt>
      <trkpt lat="42.3289410" lon="-4.7963460">
        <ele>870.7</ele>
        <time>2020-04-05T18:10:42Z</time>
      </trkpt>
      <trkpt lat="42.3289250" lon="-4.7968040">
        <ele>870.6</ele>
        <time>2020-04-05T18:10:44Z</time>
      </trkpt>
      <trkpt lat="42.3289210" lon="-4.7969570">
        <ele>870.6</ele>
        <time>2020-04-05T18:10:46Z</time>
      </trkpt>
      <trkpt lat="42.3289160" lon="-4.7971070">
        <ele>870.7</ele>
        <time>2020-04-05T18:10:48Z</time>
      </trkpt>
      <trkpt lat="42.3289110" lon="-4.7972540">
        <ele>870.7</ele>
        <time>2020-04-05T18:10:50Z</time>
      </trkpt>
      <trkpt lat="42.3289000" lon="-4.7975930">
        <ele>870.9</ele>
        <time>2020-04-05T18:10:52Z</time>
      </trkpt>
      <trkpt lat="42.3288950" lon="-4.7977350">
        <ele>871.0</ele>
        <time>2020-04-05T18:10:54Z</time>
      </trkpt>
      <trkpt lat="42.3288870" lon="-4.7979820">
        <ele>871.0</ele>
        <time>2020-04-05T18:10:56Z</time>
      </trkpt>
      <trkpt lat="42.3288820" lon="-4.7981310">
        <ele>870.9</ele>
        <time>2020-04-05T18:10:58Z</time>
      </trkpt>
      <trkpt lat="42.3288770" lon="-4.7982890">
        <ele>870.8</ele>
        <time>2020-04-05T18:11:00Z</time>
      </trkpt>
      <trkpt lat="42.3288710" lon="-4.7984550">
        <ele>870.7</ele>
        <time>2020-04-05T18:11:02Z</time>
      </trkpt>
      <trkpt lat="42.3288660" lon="-4.7986280">
        <ele>870.6</ele>
        <time>2020-04-05T18:11:04Z</time>
      </trkpt>
      <trkpt lat="42.3288520" lon="-4.7991090">
        <ele>870.3</ele>
        <time>2020-04-05T18:11:06Z</time>
      </trkpt>
      <trkpt lat="42.3288550" lon="-4.7992930">
        <ele>869.6</ele>
        <time>2020-04-05T18:11:08Z</time>
      </trkpt>
      <trkpt lat="42.3288700" lon="-4.7995600">
        <ele>868.4</ele>
        <time>2020-04-05T18:11:10Z</time>
      </trkpt>
      <trkpt lat="42.3288920" lon="-4.7998340">
        <ele>867.6</ele>
        <time>2020-04-05T18:11:12Z</time>
      </trkpt>
      <trkpt lat="42.3289090" lon="-4.8000360">
        <ele>867.7</ele>
        <time>2020-04-05T18:11:14Z</time>
      </trkpt>
      <trkpt lat="42.3289270" lon="-4.8002430">
        <ele>867.8</ele>
        <time>2020-04-05T18:11:16Z</time>
      </trkpt>
      <trkpt lat="42.3289450" lon="-4.8004580">
        <ele>867.7</ele>
        <time>2020-04-05T18:11:18Z</time>
      </trkpt>
      <trkpt lat="42.3289900" lon="-4.8009880">
        <ele>866.9</ele>
        <time>2020-04-05T18:11:20Z</time>
      </trkpt>
      <trkpt lat="42.3290090" lon="-4.8012130">
        <ele>866.3</ele>
        <time>2020-04-05T18:11:22Z</time>
      </trkpt>
      <trkpt lat="42.3290380" lon="-4.8015880">
        <ele>864.9</ele>
        <time>2020-04-05T18:11:24Z</time>
      </trkpt>
      <trkpt lat="42.3290520" lon="-4.8018000">
        <ele>863.6</ele>
        <time>2020-04-05T18:11:26Z</time>
      </trkpt>
      <trkpt lat="42.3290770" lon="-4.8021660">
        <ele>862.2</ele>
        <time>2020-04-05T18:11:28Z</time>
      </trkpt>
      <trkpt lat="42.3291110" lon="-4.8024230">
        <ele>862.1</ele>
        <time>2020-04-05T18:11:30Z</time>
      </trkpt>
      <trkpt lat="42.3291080" lon="-4.8026000">
        <ele>862.0</ele>
        <time>2020-04-05T18:11:32Z</time>
      </trkpt>
      <trkpt lat="42.3291140" lon="-4.8028480">
        <ele>861.9</ele>
        <time>2020-04-05T18:11:34Z</time>
      </trkpt>
      <trkpt lat="42.3291250" lon="-4.8031110">
        <ele>861.6</ele>
        <time>2020-04-05T18:11:36Z</time>
      </trkpt>
      <trkpt lat="42.3291410" lon="-4.8033700">
        <ele>861.0</ele>
        <time>2020-04-05T18:11:38Z</time>
      </trkpt>
      <trkpt lat="42.3291640" lon="-4.8036990">
        <ele>860.0</ele>
        <time>2020-04-05T18:11:40Z</time>
      </trkpt>
      <trkpt lat="42.3291790" lon="-4.8039530">
        <ele>859.1</ele>
        <time>2020-04-05T18:11:42Z</time>
      </trkpt>
      <trkpt lat="42.3292010" lon="-4.8042120">
        <ele>858.1</ele>
        <time>2020-04-05T18:11:44Z</time>
      </trkpt>
      <trkpt lat="42.3292300" lon="-4.8045540">
        <ele>856.8</ele>
        <time>2020-04-05T18:11:46Z</time>
      </trkpt>
      <trkpt lat="42.3292380" lon="-4.8047780">
        <ele>856.2</ele>
        <time>2020-04-05T18:11:48Z</time>
      </trkpt>
      <trkpt lat="42.3292510" lon="-4.8051670">
        <ele>855.4</ele>
        <time>2020-04-05T18:11:50Z</time>
      </trkpt>
      <trkpt lat="42.3292600" lon="-4.8054810">
        <ele>855.3</ele>
        <time>2020-04-05T18:11:52Z</time>
      </trkpt>
      <trkpt lat="42.3292670" lon="-4.8057100">
        <ele>855.2</ele>
        <time>2020-04-05T18:11:54Z</time>
      </trkpt>
      <trkpt lat="42.3292740" lon="-4.8059350">
        <ele>855.0</ele>
        <time>2020-04-05T18:11:57Z</time>
      </trkpt>
      <trkpt lat="42.3292880" lon="-4.8064080">
        <ele>854.1</ele>
        <time>2020-04-05T18:11:59Z</time>
      </trkpt>
      <trkpt lat="42.3293020" lon="-4.8067030">
        <ele>853.7</ele>
        <time>2020-04-05T18:12:01Z</time>
      </trkpt>
      <trkpt lat="42.3293140" lon="-4.8069250">
        <ele>853.5</ele>
        <time>2020-04-05T18:12:03Z</time>
      </trkpt>
      <trkpt lat="42.3293350" lon="-4.8072830">
        <ele>853.2</ele>
        <time>2020-04-05T18:12:05Z</time>
      </trkpt>
      <trkpt lat="42.3293470" lon="-4.8074940">
        <ele>853.2</ele>
        <time>2020-04-05T18:12:07Z</time>
      </trkpt>
      <trkpt lat="42.3293590" lon="-4.8076960">
        <ele>853.1</ele>
        <time>2020-04-05T18:12:09Z</time>
      </trkpt>
      <trkpt lat="42.3293730" lon="-4.8081020">
        <ele>853.0</ele>
        <time>2020-04-05T18:12:11Z</time>
      </trkpt>
      <trkpt lat="42.3293780" lon="-4.8083510">
        <ele>852.9</ele>
        <time>2020-04-05T18:12:13Z</time>
      </trkpt>
      <trkpt lat="42.3293820" lon="-4.8086590">
        <ele>852.5</ele>
        <time>2020-04-05T18:12:15Z</time>
      </trkpt>
      <trkpt lat="42.3293830" lon="-4.8088880">
        <ele>852.2</ele>
        <time>2020-04-05T18:12:17Z</time>
      </trkpt>
      <trkpt lat="42.3293860" lon="-4.8091490">
        <ele>852.3</ele>
        <time>2020-04-05T18:12:19Z</time>
      </trkpt>
      <trkpt lat="42.3294010" lon="-4.8093950">
        <ele>852.5</ele>
        <time>2020-04-05T18:12:21Z</time>
      </trkpt>
      <trkpt lat="42.3294290" lon="-4.8096290">
        <ele>852.5</ele>
        <time>2020-04-05T18:12:23Z</time>
      </trkpt>
      <trkpt lat="42.3294540" lon="-4.8098720">
        <ele>852.6</ele>
        <time>2020-04-05T18:12:25Z</time>
      </trkpt>
      <trkpt lat="42.3294720" lon="-4.8100950">
        <ele>852.8</ele>
        <time>2020-04-05T18:12:27Z</time>
      </trkpt>
      <trkpt lat="42.3294910" lon="-4.8103290">
        <ele>853.1</ele>
        <time>2020-04-05T18:12:29Z</time>
      </trkpt>
      <trkpt lat="42.3295110" lon="-4.8105930">
        <ele>853.4</ele>
        <time>2020-04-05T18:12:31Z</time>
      </trkpt>
      <trkpt lat="42.3295210" lon="-4.8107560">
        <ele>853.4</ele>
        <time>2020-04-05T18:12:33Z</time>
      </trkpt>
      <trkpt lat="42.3295410" lon="-4.8110380">
        <ele>853.4</ele>
        <time>2020-04-05T18:12:35Z</time>
      </trkpt>
      <trkpt lat="42.3295540" lon="-4.8111890">
        <ele>853.5</ele>
        <time>2020-04-05T18:12:37Z</time>
      </trkpt>
      <trkpt lat="42.3295660" lon="-4.8113380">
        <ele>853.6</ele>
        <time>2020-04-05T18:12:39Z</time>
      </trkpt>
      <trkpt lat="42.3295890" lon="-4.8116120">
        <ele>854.0</ele>
        <time>2020-04-05T18:12:41Z</time>
      </trkpt>
      <trkpt lat="42.3296040" lon="-4.8117630">
        <ele>854.2</ele>
        <time>2020-04-05T18:12:43Z</time>
      </trkpt>
      <trkpt lat="42.3296190" lon="-4.8119160">
        <ele>854.3</ele>
        <time>2020-04-05T18:12:45Z</time>
      </trkpt>
      <trkpt lat="42.3296680" lon="-4.8122240">
        <ele>854.4</ele>
        <time>2020-04-05T18:12:47Z</time>
      </trkpt>
      <trkpt lat="42.3297300" lon="-4.8124630">
        <ele>854.5</ele>
        <time>2020-04-05T18:12:49Z</time>
      </trkpt>
      <trkpt lat="42.3297850" lon="-4.8126120">
        <ele>854.6</ele>
        <time>2020-04-05T18:12:51Z</time>
      </trkpt>
      <trkpt lat="42.3298860" lon="-4.8128440">
        <ele>854.9</ele>
        <time>2020-04-05T18:12:53Z</time>
      </trkpt>
      <trkpt lat="42.3299970" lon="-4.8130460">
        <ele>855.2</ele>
        <time>2020-04-05T18:12:55Z</time>
      </trkpt>
      <trkpt lat="42.3300700" lon="-4.8131750">
        <ele>855.3</ele>
        <time>2020-04-05T18:12:57Z</time>
      </trkpt>
      <trkpt lat="42.3301900" lon="-4.8133860">
        <ele>855.4</ele>
        <time>2020-04-05T18:12:59Z</time>
      </trkpt>
      <trkpt lat="42.3302620" lon="-4.8135080">
        <ele>855.4</ele>
        <time>2020-04-05T18:13:01Z</time>
      </trkpt>
      <trkpt lat="42.3303350" lon="-4.8136300">
        <ele>855.4</ele>
        <time>2020-04-05T18:13:03Z</time>
      </trkpt>
      <trkpt lat="42.3304790" lon="-4.8138730">
        <ele>855.4</ele>
        <time>2020-04-05T18:13:05Z</time>
      </trkpt>
      <trkpt lat="42.3305520" lon="-4.8139950">
        <ele>855.4</ele>
        <time>2020-04-05T18:13:07Z</time>
      </trkpt>
      <trkpt lat="42.3306270" lon="-4.8141210">
        <ele>855.4</ele>
        <time>2020-04-05T18:13:09Z</time>
      </trkpt>
      <trkpt lat="42.3307640" lon="-4.8143510">
        <ele>855.4</ele>
        <time>2020-04-05T18:13:11Z</time>
      </trkpt>
      <trkpt lat="42.3308430" lon="-4.8144830">
        <ele>855.4</ele>
        <time>2020-04-05T18:13:13Z</time>
      </trkpt>
      <trkpt lat="42.3309250" lon="-4.8146190">
        <ele>855.4</ele>
        <time>2020-04-05T18:13:15Z</time>
      </trkpt>
      <trkpt lat="42.3310070" lon="-4.8147570">
        <ele>855.4</ele>
        <time>2020-04-05T18:13:17Z</time>
      </trkpt>
      <trkpt lat="42.3312250" lon="-4.8151240">
        <ele>854.9</ele>
        <time>2020-04-05T18:13:19Z</time>
      </trkpt>
      <trkpt lat="42.3313090" lon="-4.8152680">
        <ele>854.7</ele>
        <time>2020-04-05T18:13:21Z</time>
      </trkpt>
      <trkpt lat="42.3313960" lon="-4.8154140">
        <ele>854.5</ele>
        <time>2020-04-05T18:13:23Z</time>
      </trkpt>
      <trkpt lat="42.3314840" lon="-4.8155630">
        <ele>854.5</ele>
        <time>2020-04-05T18:13:25Z</time>
      </trkpt>
      <trkpt lat="42.3315720" lon="-4.8157130">
        <ele>854.4</ele>
        <time>2020-04-05T18:13:27Z</time>
      </trkpt>
      <trkpt lat="42.3317940" lon="-4.8160910">
        <ele>853.9</ele>
        <time>2020-04-05T18:13:29Z</time>
      </trkpt>
      <trkpt lat="42.3318810" lon="-4.8162380">
        <ele>853.7</ele>
        <time>2020-04-05T18:13:31Z</time>
      </trkpt>
      <trkpt lat="42.3319660" lon="-4.8163820">
        <ele>853.6</ele>
        <time>2020-04-05T18:13:33Z</time>
      </trkpt>
      <trkpt lat="42.3320500" lon="-4.8165240">
        <ele>853.5</ele>
        <time>2020-04-05T18:13:35Z</time>
      </trkpt>
      <trkpt lat="42.3322660" lon="-4.8168910">
        <ele>853.7</ele>
        <time>2020-04-05T18:13:37Z</time>
      </trkpt>
      <trkpt lat="42.3323470" lon="-4.8170290">
        <ele>853.9</ele>
        <time>2020-04-05T18:13:39Z</time>
      </trkpt>
      <trkpt lat="42.3324270" lon="-4.8171660">
        <ele>854.2</ele>
        <time>2020-04-05T18:13:41Z</time>
      </trkpt>
      <trkpt lat="42.3325070" lon="-4.8173020">
        <ele>854.4</ele>
        <time>2020-04-05T18:13:43Z</time>
      </trkpt>
      <trkpt lat="42.3325860" lon="-4.8174350">
        <ele>854.5</ele>
        <time>2020-04-05T18:13:45Z</time>
      </trkpt>
      <trkpt lat="42.3327960" lon="-4.8177980">
        <ele>854.5</ele>
        <time>2020-04-05T18:13:47Z</time>
      </trkpt>
      <trkpt lat="42.3328710" lon="-4.8179320">
        <ele>854.5</ele>
        <time>2020-04-05T18:13:49Z</time>
      </trkpt>
      <trkpt lat="42.3329440" lon="-4.8180620">
        <ele>854.6</ele>
        <time>2020-04-05T18:13:51Z</time>
      </trkpt>
      <trkpt lat="42.3330180" lon="-4.8181930">
        <ele>854.6</ele>
        <time>2020-04-05T18:13:53Z</time>
      </trkpt>
      <trkpt lat="42.3331850" lon="-4.8184980">
        <ele>855.1</ele>
        <time>2020-04-05T18:13:55Z</time>
      </trkpt>
      <trkpt lat="42.3332540" lon="-4.8186290">
        <ele>855.3</ele>
        <time>2020-04-05T18:13:57Z</time>
      </trkpt>
      <trkpt lat="42.3333220" lon="-4.8187570">
        <ele>855.4</ele>
        <time>2020-04-05T18:13:59Z</time>
      </trkpt>
      <trkpt lat="42.3334820" lon="-4.8190600">
        <ele>855.6</ele>
        <time>2020-04-05T18:14:01Z</time>
      </trkpt>
      <trkpt lat="42.3335490" lon="-4.8191860">
        <ele>855.6</ele>
        <time>2020-04-05T18:14:03Z</time>
      </trkpt>
      <trkpt lat="42.3336590" lon="-4.8193950">
        <ele>855.8</ele>
        <time>2020-04-05T18:14:05Z</time>
      </trkpt>
      <trkpt lat="42.3337240" lon="-4.8195200">
        <ele>856.0</ele>
        <time>2020-04-05T18:14:07Z</time>
      </trkpt>
      <trkpt lat="42.3338370" lon="-4.8197350">
        <ele>856.4</ele>
        <time>2020-04-05T18:14:09Z</time>
      </trkpt>
      <trkpt lat="42.3339000" lon="-4.8198560">
        <ele>856.7</ele>
        <time>2020-04-05T18:14:11Z</time>
      </trkpt>
      <trkpt lat="42.3339630" lon="-4.8199770">
        <ele>857.0</ele>
        <time>2020-04-05T18:14:13Z</time>
      </trkpt>
      <trkpt lat="42.3340240" lon="-4.8200940">
        <ele>857.2</ele>
        <time>2020-04-05T18:14:15Z</time>
      </trkpt>
      <trkpt lat="42.3341760" lon="-4.8203860">
        <ele>857.6</ele>
        <time>2020-04-05T18:14:17Z</time>
      </trkpt>
      <trkpt lat="42.3342380" lon="-4.8205030">
        <ele>857.7</ele>
        <time>2020-04-05T18:14:19Z</time>
      </trkpt>
      <trkpt lat="42.3343010" lon="-4.8206220">
        <ele>858.0</ele>
        <time>2020-04-05T18:14:21Z</time>
      </trkpt>
      <trkpt lat="42.3343650" lon="-4.8207430">
        <ele>858.2</ele>
        <time>2020-04-05T18:14:23Z</time>
      </trkpt>
      <trkpt lat="42.3344300" lon="-4.8208670">
        <ele>858.4</ele>
        <time>2020-04-05T18:14:25Z</time>
      </trkpt>
      <trkpt lat="42.3346080" lon="-4.8212040">
        <ele>858.5</ele>
        <time>2020-04-05T18:14:27Z</time>
      </trkpt>
      <trkpt lat="42.3346740" lon="-4.8213290">
        <ele>858.5</ele>
        <time>2020-04-05T18:14:29Z</time>
      </trkpt>
      <trkpt lat="42.3347410" lon="-4.8214570">
        <ele>858.8</ele>
        <time>2020-04-05T18:14:31Z</time>
      </trkpt>
      <trkpt lat="42.3348080" lon="-4.8215840">
        <ele>859.1</ele>
        <time>2020-04-05T18:14:33Z</time>
      </trkpt>
      <trkpt lat="42.3349560" lon="-4.8218640">
        <ele>859.3</ele>
        <time>2020-04-05T18:14:35Z</time>
      </trkpt>
      <trkpt lat="42.3350560" lon="-4.8220560">
        <ele>859.3</ele>
        <time>2020-04-05T18:14:37Z</time>
      </trkpt>
      <trkpt lat="42.3351240" lon="-4.8221860">
        <ele>859.2</ele>
        <time>2020-04-05T18:14:39Z</time>
      </trkpt>
      <trkpt lat="42.3351920" lon="-4.8223180">
        <ele>859.1</ele>
        <time>2020-04-05T18:14:41Z</time>
      </trkpt>
      <trkpt lat="42.3352610" lon="-4.8224490">
        <ele>858.9</ele>
        <time>2020-04-05T18:14:43Z</time>
      </trkpt>
      <trkpt lat="42.3353290" lon="-4.8225800">
        <ele>858.7</ele>
        <time>2020-04-05T18:14:45Z</time>
      </trkpt>
      <trkpt lat="42.3355090" lon="-4.8229260">
        <ele>858.4</ele>
        <time>2020-04-05T18:14:47Z</time>
      </trkpt>
      <trkpt lat="42.3355770" lon="-4.8230570">
        <ele>858.4</ele>
        <time>2020-04-05T18:14:49Z</time>
      </trkpt>
      <trkpt lat="42.3356460" lon="-4.8231890">
        <ele>858.4</ele>
        <time>2020-04-05T18:14:51Z</time>
      </trkpt>
      <trkpt lat="42.3357160" lon="-4.8233230">
        <ele>858.4</ele>
        <time>2020-04-05T18:14:53Z</time>
      </trkpt>
      <trkpt lat="42.3358970" lon="-4.8236700">
        <ele>858.4</ele>
        <time>2020-04-05T18:14:55Z</time>
      </trkpt>
      <trkpt lat="42.3359670" lon="-4.8238040">
        <ele>858.4</ele>
        <time>2020-04-05T18:14:57Z</time>
      </trkpt>
      <trkpt lat="42.3360370" lon="-4.8239380">
        <ele>858.4</ele>
        <time>2020-04-05T18:14:59Z</time>
      </trkpt>
      <trkpt lat="42.3361070" lon="-4.8240720">
        <ele>858.4</ele>
        <time>2020-04-05T18:15:01Z</time>
      </trkpt>
      <trkpt lat="42.3361780" lon="-4.8242080">
        <ele>858.4</ele>
        <time>2020-04-05T18:15:03Z</time>
      </trkpt>
      <trkpt lat="42.3363580" lon="-4.8245570">
        <ele>858.4</ele>
        <time>2020-04-05T18:15:05Z</time>
      </trkpt>
      <trkpt lat="42.3364240" lon="-4.8246870">
        <ele>858.4</ele>
        <time>2020-04-05T18:15:07Z</time>
      </trkpt>
      <trkpt lat="42.3364890" lon="-4.8248150">
        <ele>858.4</ele>
        <time>2020-04-05T18:15:09Z</time>
      </trkpt>
      <trkpt lat="42.3365530" lon="-4.8249410">
        <ele>858.4</ele>
        <time>2020-04-05T18:15:11Z</time>
      </trkpt>
      <trkpt lat="42.3366150" lon="-4.8250630">
        <ele>858.5</ele>
        <time>2020-04-05T18:15:13Z</time>
      </trkpt>
      <trkpt lat="42.3367890" lon="-4.8254060">
        <ele>859.1</ele>
        <time>2020-04-05T18:15:15Z</time>
      </trkpt>
      <trkpt lat="42.3368480" lon="-4.8255240">
        <ele>859.3</ele>
        <time>2020-04-05T18:15:17Z</time>
      </trkpt>
      <trkpt lat="42.3369070" lon="-4.8256400">
        <ele>859.5</ele>
        <time>2020-04-05T18:15:19Z</time>
      </trkpt>
      <trkpt lat="42.3369650" lon="-4.8257540">
        <ele>859.6</ele>
        <time>2020-04-05T18:15:21Z</time>
      </trkpt>
      <trkpt lat="42.3370210" lon="-4.8258650">
        <ele>859.8</ele>
        <time>2020-04-05T18:15:23Z</time>
      </trkpt>
      <trkpt lat="42.3371910" lon="-4.8262000">
        <ele>860.4</ele>
        <time>2020-04-05T18:15:25Z</time>
      </trkpt>
      <trkpt lat="42.3372450" lon="-4.8263130">
        <ele>860.4</ele>
        <time>2020-04-05T18:15:27Z</time>
      </trkpt>
      <trkpt lat="42.3373010" lon="-4.8264280">
        <ele>860.5</ele>
        <time>2020-04-05T18:15:29Z</time>
      </trkpt>
      <trkpt lat="42.3373580" lon="-4.8265450">
        <ele>860.7</ele>
        <time>2020-04-05T18:15:31Z</time>
      </trkpt>
      <trkpt lat="42.3374140" lon="-4.8266620">
        <ele>860.9</ele>
        <time>2020-04-05T18:15:33Z</time>
      </trkpt>
      <trkpt lat="42.3374720" lon="-4.8267810">
        <ele>861.1</ele>
        <time>2020-04-05T18:15:35Z</time>
      </trkpt>
      <trkpt lat="42.3376390" lon="-4.8271280">
        <ele>861.4</ele>
        <time>2020-04-05T18:15:37Z</time>
      </trkpt>
      <trkpt lat="42.3376990" lon="-4.8272510">
        <ele>861.5</ele>
        <time>2020-04-05T18:15:39Z</time>
      </trkpt>
      <trkpt lat="42.3377590" lon="-4.8273750">
        <ele>861.5</ele>
        <time>2020-04-05T18:15:41Z</time>
      </trkpt>
      <trkpt lat="42.3378870" lon="-4.8276400">
        <ele>861.5</ele>
        <time>2020-04-05T18:15:43Z</time>
      </trkpt>
      <trkpt lat="42.3379470" lon="-4.8277640">
        <ele>861.5</ele>
        <time>2020-04-05T18:15:45Z</time>
      </trkpt>
      <trkpt lat="42.3380480" lon="-4.8279730">
        <ele>861.5</ele>
        <time>2020-04-05T18:15:47Z</time>
      </trkpt>
      <trkpt lat="42.3381080" lon="-4.8280980">
        <ele>861.5</ele>
        <time>2020-04-05T18:15:49Z</time>
      </trkpt>
      <trkpt lat="42.3381700" lon="-4.8282250">
        <ele>861.5</ele>
        <time>2020-04-05T18:15:51Z</time>
      </trkpt>
      <trkpt lat="42.3382320" lon="-4.8283530">
        <ele>861.5</ele>
        <time>2020-04-05T18:15:53Z</time>
      </trkpt>
      <trkpt lat="42.3382930" lon="-4.8284800">
        <ele>861.5</ele>
        <time>2020-04-05T18:15:55Z</time>
      </trkpt>
      <trkpt lat="42.3384620" lon="-4.8288350">
        <ele>861.5</ele>
        <time>2020-04-05T18:15:57Z</time>
      </trkpt>
      <trkpt lat="42.3385190" lon="-4.8289670">
        <ele>861.5</ele>
        <time>2020-04-05T18:15:59Z</time>
      </trkpt>
      <trkpt lat="42.3385750" lon="-4.8290990">
        <ele>861.5</ele>
        <time>2020-04-05T18:16:01Z</time>
      </trkpt>
      <trkpt lat="42.3386880" lon="-4.8293630">
        <ele>861.5</ele>
        <time>2020-04-05T18:16:03Z</time>
      </trkpt>
      <trkpt lat="42.3387450" lon="-4.8294940">
        <ele>861.5</ele>
        <time>2020-04-05T18:16:05Z</time>
      </trkpt>
      <trkpt lat="42.3388390" lon="-4.8297140">
        <ele>861.6</ele>
        <time>2020-04-05T18:16:07Z</time>
      </trkpt>
      <trkpt lat="42.3389140" lon="-4.8298930">
        <ele>861.8</ele>
        <time>2020-04-05T18:16:09Z</time>
      </trkpt>
      <trkpt lat="42.3389700" lon="-4.8300240">
        <ele>862.0</ele>
        <time>2020-04-05T18:16:11Z</time>
      </trkpt>
      <trkpt lat="42.3390260" lon="-4.8301560">
        <ele>862.2</ele>
        <time>2020-04-05T18:16:13Z</time>
      </trkpt>
      <trkpt lat="42.3390820" lon="-4.8302880">
        <ele>862.3</ele>
        <time>2020-04-05T18:16:15Z</time>
      </trkpt>
      <trkpt lat="42.3391380" lon="-4.8304200">
        <ele>862.4</ele>
        <time>2020-04-05T18:16:17Z</time>
      </trkpt>
      <trkpt lat="42.3391940" lon="-4.8305530">
        <ele>862.4</ele>
        <time>2020-04-05T18:16:19Z</time>
      </trkpt>
      <trkpt lat="42.3393630" lon="-4.8309500">
        <ele>862.3</ele>
        <time>2020-04-05T18:16:21Z</time>
      </trkpt>
      <trkpt lat="42.3394550" lon="-4.8311660">
        <ele>862.3</ele>
        <time>2020-04-05T18:16:23Z</time>
      </trkpt>
      <trkpt lat="42.3395110" lon="-4.8312980">
        <ele>862.3</ele>
        <time>2020-04-05T18:16:25Z</time>
      </trkpt>
      <trkpt lat="42.3395670" lon="-4.8314310">
        <ele>862.3</ele>
        <time>2020-04-05T18:16:27Z</time>
      </trkpt>
      <trkpt lat="42.3396230" lon="-4.8315620">
        <ele>862.3</ele>
        <time>2020-04-05T18:16:29Z</time>
      </trkpt>
      <trkpt lat="42.3397560" lon="-4.8318780">
        <ele>862.2</ele>
        <time>2020-04-05T18:16:31Z</time>
      </trkpt>
      <trkpt lat="42.3398120" lon="-4.8320120">
        <ele>862.2</ele>
        <time>2020-04-05T18:16:33Z</time>
      </trkpt>
      <trkpt lat="42.3398680" lon="-4.8321460">
        <ele>862.2</ele>
        <time>2020-04-05T18:16:35Z</time>
      </trkpt>
      <trkpt lat="42.3399240" lon="-4.8322790">
        <ele>862.2</ele>
        <time>2020-04-05T18:16:37Z</time>
      </trkpt>
      <trkpt lat="42.3399810" lon="-4.8324130">
        <ele>862.3</ele>
        <time>2020-04-05T18:16:39Z</time>
      </trkpt>
      <trkpt lat="42.3400360" lon="-4.8325450">
        <ele>862.5</ele>
        <time>2020-04-05T18:16:41Z</time>
      </trkpt>
      <trkpt lat="42.3402020" lon="-4.8329470">
        <ele>863.0</ele>
        <time>2020-04-05T18:16:43Z</time>
      </trkpt>
      <trkpt lat="42.3402790" lon="-4.8331550">
        <ele>863.1</ele>
        <time>2020-04-05T18:16:45Z</time>
      </trkpt>
      <trkpt lat="42.3403330" lon="-4.8333470">
        <ele>863.1</ele>
        <time>2020-04-05T18:16:47Z</time>
      </trkpt>
      <trkpt lat="42.3403890" lon="-4.8335520">
        <ele>863.1</ele>
        <time>2020-04-05T18:16:49Z</time>
      </trkpt>
      <trkpt lat="42.3404190" lon="-4.8337020">
        <ele>863.0</ele>
        <time>2020-04-05T18:16:51Z</time>
      </trkpt>
      <trkpt lat="42.3404680" lon="-4.8339390">
        <ele>862.9</ele>
        <time>2020-04-05T18:16:53Z</time>
      </trkpt>
      <trkpt lat="42.3405140" lon="-4.8341520">
        <ele>862.9</ele>
        <time>2020-04-05T18:16:55Z</time>
      </trkpt>
      <trkpt lat="42.3405510" lon="-4.8343040">
        <ele>862.9</ele>
        <time>2020-04-05T18:16:57Z</time>
      </trkpt>
      <trkpt lat="42.3406170" lon="-4.8345410">
        <ele>862.9</ele>
        <time>2020-04-05T18:16:59Z</time>
      </trkpt>
      <trkpt lat="42.3406640" lon="-4.8346870">
        <ele>863.0</ele>
        <time>2020-04-05T18:17:01Z</time>
      </trkpt>
      <trkpt lat="42.3407490" lon="-4.8349360">
        <ele>863.0</ele>
        <time>2020-04-05T18:17:03Z</time>
      </trkpt>
      <trkpt lat="42.3408020" lon="-4.8350800">
        <ele>863.0</ele>
        <time>2020-04-05T18:17:05Z</time>
      </trkpt>
      <trkpt lat="42.3409010" lon="-4.8353490">
        <ele>863.0</ele>
        <time>2020-04-05T18:17:07Z</time>
      </trkpt>
      <trkpt lat="42.3409560" lon="-4.8354960">
        <ele>863.1</ele>
        <time>2020-04-05T18:17:09Z</time>
      </trkpt>
      <trkpt lat="42.3410110" lon="-4.8356430">
        <ele>863.3</ele>
        <time>2020-04-05T18:17:11Z</time>
      </trkpt>
      <trkpt lat="42.3411120" lon="-4.8359120">
        <ele>863.8</ele>
        <time>2020-04-05T18:17:13Z</time>
      </trkpt>
      <trkpt lat="42.3411650" lon="-4.8360540">
        <ele>863.9</ele>
        <time>2020-04-05T18:17:15Z</time>
      </trkpt>
      <trkpt lat="42.3412160" lon="-4.8361910">
        <ele>864.0</ele>
        <time>2020-04-05T18:17:17Z</time>
      </trkpt>
      <trkpt lat="42.3412660" lon="-4.8363240">
        <ele>864.0</ele>
        <time>2020-04-05T18:17:19Z</time>
      </trkpt>
      <trkpt lat="42.3413140" lon="-4.8364520">
        <ele>864.0</ele>
        <time>2020-04-05T18:17:21Z</time>
      </trkpt>
      <trkpt lat="42.3414580" lon="-4.8368240">
        <ele>864.0</ele>
        <time>2020-04-05T18:17:23Z</time>
      </trkpt>
      <trkpt lat="42.3415080" lon="-4.8369460">
        <ele>864.0</ele>
        <time>2020-04-05T18:17:25Z</time>
      </trkpt>
      <trkpt lat="42.3415570" lon="-4.8370640">
        <ele>864.0</ele>
        <time>2020-04-05T18:17:27Z</time>
      </trkpt>
      <trkpt lat="42.3416050" lon="-4.8371820">
        <ele>864.0</ele>
        <time>2020-04-05T18:17:29Z</time>
      </trkpt>
      <trkpt lat="42.3416530" lon="-4.8372970">
        <ele>864.0</ele>
        <time>2020-04-05T18:17:31Z</time>
      </trkpt>
      <trkpt lat="42.3417940" lon="-4.8376350">
        <ele>864.8</ele>
        <time>2020-04-05T18:17:33Z</time>
      </trkpt>
      <trkpt lat="42.3418430" lon="-4.8377430">
        <ele>865.3</ele>
        <time>2020-04-05T18:17:35Z</time>
      </trkpt>
      <trkpt lat="42.3418900" lon="-4.8378480">
        <ele>865.7</ele>
        <time>2020-04-05T18:17:37Z</time>
      </trkpt>
      <trkpt lat="42.3419360" lon="-4.8379490">
        <ele>866.1</ele>
        <time>2020-04-05T18:17:39Z</time>
      </trkpt>
      <trkpt lat="42.3419810" lon="-4.8380470">
        <ele>866.4</ele>
        <time>2020-04-05T18:17:41Z</time>
      </trkpt>
      <trkpt lat="42.3420240" lon="-4.8381440">
        <ele>866.7</ele>
        <time>2020-04-05T18:17:43Z</time>
      </trkpt>
      <trkpt lat="42.3421520" lon="-4.8384250">
        <ele>867.6</ele>
        <time>2020-04-05T18:17:45Z</time>
      </trkpt>
      <trkpt lat="42.3421940" lon="-4.8385180">
        <ele>868.0</ele>
        <time>2020-04-05T18:17:47Z</time>
      </trkpt>
      <trkpt lat="42.3422350" lon="-4.8386080">
        <ele>868.4</ele>
        <time>2020-04-05T18:17:49Z</time>
      </trkpt>
      <trkpt lat="42.3422750" lon="-4.8386980">
        <ele>868.8</ele>
        <time>2020-04-05T18:17:51Z</time>
      </trkpt>
      <trkpt lat="42.3423160" lon="-4.8387880">
        <ele>869.3</ele>
        <time>2020-04-05T18:17:53Z</time>
      </trkpt>
      <trkpt lat="42.3424400" lon="-4.8390660">
        <ele>870.7</ele>
        <time>2020-04-05T18:17:55Z</time>
      </trkpt>
      <trkpt lat="42.3424760" lon="-4.8391610">
        <ele>871.1</ele>
        <time>2020-04-05T18:17:57Z</time>
      </trkpt>
      <trkpt lat="42.3425130" lon="-4.8392600">
        <ele>871.5</ele>
        <time>2020-04-05T18:17:59Z</time>
      </trkpt>
      <trkpt lat="42.3425520" lon="-4.8393610">
        <ele>871.8</ele>
        <time>2020-04-05T18:18:01Z</time>
      </trkpt>
      <trkpt lat="42.3426440" lon="-4.8396050">
        <ele>872.1</ele>
        <time>2020-04-05T18:18:03Z</time>
      </trkpt>
      <trkpt lat="42.3426780" lon="-4.8397180">
        <ele>872.3</ele>
        <time>2020-04-05T18:18:05Z</time>
      </trkpt>
      <trkpt lat="42.3427120" lon="-4.8398270">
        <ele>872.6</ele>
        <time>2020-04-05T18:18:07Z</time>
      </trkpt>
      <trkpt lat="42.3427450" lon="-4.8399370">
        <ele>873.0</ele>
        <time>2020-04-05T18:18:09Z</time>
      </trkpt>
      <trkpt lat="42.3427790" lon="-4.8400500">
        <ele>873.4</ele>
        <time>2020-04-05T18:18:11Z</time>
      </trkpt>
      <trkpt lat="42.3428570" lon="-4.8403240">
        <ele>874.2</ele>
        <time>2020-04-05T18:18:13Z</time>
      </trkpt>
      <trkpt lat="42.3428850" lon="-4.8404360">
        <ele>874.3</ele>
        <time>2020-04-05T18:18:15Z</time>
      </trkpt>
      <trkpt lat="42.3429120" lon="-4.8405470">
        <ele>874.4</ele>
        <time>2020-04-05T18:18:17Z</time>
      </trkpt>
      <trkpt lat="42.3429390" lon="-4.8406560">
        <ele>874.5</ele>
        <time>2020-04-05T18:18:19Z</time>
      </trkpt>
      <trkpt lat="42.3430020" lon="-4.8409240">
        <ele>874.8</ele>
        <time>2020-04-05T18:18:21Z</time>
      </trkpt>
      <trkpt lat="42.3430250" lon="-4.8410310">
        <ele>874.9</ele>
        <time>2020-04-05T18:18:23Z</time>
      </trkpt>
      <trkpt lat="42.3430470" lon="-4.8411370">
        <ele>875.1</ele>
        <time>2020-04-05T18:18:25Z</time>
      </trkpt>
      <trkpt lat="42.3430970" lon="-4.8413780">
        <ele>875.5</ele>
        <time>2020-04-05T18:18:27Z</time>
      </trkpt>
      <trkpt lat="42.3431170" lon="-4.8414850">
        <ele>875.7</ele>
        <time>2020-04-05T18:18:29Z</time>
      </trkpt>
      <trkpt lat="42.3431500" lon="-4.8416690">
        <ele>876.0</ele>
        <time>2020-04-05T18:18:31Z</time>
      </trkpt>
      <trkpt lat="42.3431660" lon="-4.8417780">
        <ele>876.1</ele>
        <time>2020-04-05T18:18:33Z</time>
      </trkpt>
      <trkpt lat="42.3431820" lon="-4.8418900">
        <ele>876.2</ele>
        <time>2020-04-05T18:18:35Z</time>
      </trkpt>
      <trkpt lat="42.3432110" lon="-4.8421000">
        <ele>876.6</ele>
        <time>2020-04-05T18:18:37Z</time>
      </trkpt>
      <trkpt lat="42.3432250" lon="-4.8422150">
        <ele>876.9</ele>
        <time>2020-04-05T18:18:39Z</time>
      </trkpt>
      <trkpt lat="42.3432530" lon="-4.8424300">
        <ele>877.5</ele>
        <time>2020-04-05T18:18:41Z</time>
      </trkpt>
      <trkpt lat="42.3432710" lon="-4.8425450">
        <ele>877.9</ele>
        <time>2020-04-05T18:18:43Z</time>
      </trkpt>
      <trkpt lat="42.3432900" lon="-4.8426620">
        <ele>878.3</ele>
        <time>2020-04-05T18:18:45Z</time>
      </trkpt>
      <trkpt lat="42.3433100" lon="-4.8427790">
        <ele>878.7</ele>
        <time>2020-04-05T18:18:47Z</time>
      </trkpt>
      <trkpt lat="42.3433560" lon="-4.8430340">
        <ele>879.6</ele>
        <time>2020-04-05T18:18:49Z</time>
      </trkpt>
      <trkpt lat="42.3433790" lon="-4.8431350">
        <ele>880.0</ele>
        <time>2020-04-05T18:18:51Z</time>
      </trkpt>
      <trkpt lat="42.3434000" lon="-4.8432280">
        <ele>880.3</ele>
        <time>2020-04-05T18:18:53Z</time>
      </trkpt>
      <trkpt lat="42.3434180" lon="-4.8433130">
        <ele>880.6</ele>
        <time>2020-04-05T18:18:55Z</time>
      </trkpt>
      <trkpt lat="42.3434700" lon="-4.8435440">
        <ele>881.4</ele>
        <time>2020-04-05T18:18:57Z</time>
      </trkpt>
      <trkpt lat="42.3434900" lon="-4.8436170">
        <ele>881.7</ele>
        <time>2020-04-05T18:18:59Z</time>
      </trkpt>
      <trkpt lat="42.3435090" lon="-4.8436880">
        <ele>882.0</ele>
        <time>2020-04-05T18:19:01Z</time>
      </trkpt>
      <trkpt lat="42.3435270" lon="-4.8437560">
        <ele>882.4</ele>
        <time>2020-04-05T18:19:03Z</time>
      </trkpt>
      <trkpt lat="42.3435450" lon="-4.8438230">
        <ele>882.7</ele>
        <time>2020-04-05T18:19:05Z</time>
      </trkpt>
      <trkpt lat="42.3435620" lon="-4.8438890">
        <ele>883.1</ele>
        <time>2020-04-05T18:19:07Z</time>
      </trkpt>
      <trkpt lat="42.3435790" lon="-4.8439540">
        <ele>883.5</ele>
        <time>2020-04-05T18:19:09Z</time>
      </trkpt>
      <trkpt lat="42.3436410" lon="-4.8441720">
        <ele>884.8</ele>
        <time>2020-04-05T18:19:11Z</time>
      </trkpt>
      <trkpt lat="42.3436660" lon="-4.8442480">
        <ele>885.2</ele>
        <time>2020-04-05T18:19:13Z</time>
      </trkpt>
      <trkpt lat="42.3436930" lon="-4.8443280">
        <ele>885.7</ele>
        <time>2020-04-05T18:19:15Z</time>
      </trkpt>
      <trkpt lat="42.3437200" lon="-4.8444110">
        <ele>886.1</ele>
        <time>2020-04-05T18:19:17Z</time>
      </trkpt>
      <trkpt lat="42.3437480" lon="-4.8444950">
        <ele>886.6</ele>
        <time>2020-04-05T18:19:19Z</time>
      </trkpt>
      <trkpt lat="42.3437750" lon="-4.8445780">
        <ele>887.0</ele>
        <time>2020-04-05T18:19:21Z</time>
      </trkpt>
      <trkpt lat="42.3438030" lon="-4.8446620">
        <ele>887.4</ele>
        <time>2020-04-05T18:19:23Z</time>
      </trkpt>
      <trkpt lat="42.3438310" lon="-4.8447460">
        <ele>887.8</ele>
        <time>2020-04-05T18:19:25Z</time>
      </trkpt>
      <trkpt lat="42.3439380" lon="-4.8450720">
        <ele>889.3</ele>
        <time>2020-04-05T18:19:27Z</time>
      </trkpt>
      <trkpt lat="42.3439660" lon="-4.8451550">
        <ele>889.7</ele>
        <time>2020-04-05T18:19:29Z</time>
      </trkpt>
      <trkpt lat="42.3439940" lon="-4.8452400">
        <ele>890.1</ele>
        <time>2020-04-05T18:19:31Z</time>
      </trkpt>
      <trkpt lat="42.3440210" lon="-4.8453240">
        <ele>890.5</ele>
        <time>2020-04-05T18:19:33Z</time>
      </trkpt>
      <trkpt lat="42.3440490" lon="-4.8454080">
        <ele>891.0</ele>
        <time>2020-04-05T18:19:35Z</time>
      </trkpt>
      <trkpt lat="42.3440770" lon="-4.8454920">
        <ele>891.3</ele>
        <time>2020-04-05T18:19:37Z</time>
      </trkpt>
      <trkpt lat="42.3441050" lon="-4.8455760">
        <ele>891.7</ele>
        <time>2020-04-05T18:19:39Z</time>
      </trkpt>
      <trkpt lat="42.3441320" lon="-4.8456590">
        <ele>892.1</ele>
        <time>2020-04-05T18:19:41Z</time>
      </trkpt>
      <trkpt lat="42.3442400" lon="-4.8459860">
        <ele>893.2</ele>
        <time>2020-04-05T18:19:43Z</time>
      </trkpt>
      <trkpt lat="42.3442690" lon="-4.8460740">
        <ele>893.4</ele>
        <time>2020-04-05T18:19:45Z</time>
      </trkpt>
      <trkpt lat="42.3443000" lon="-4.8461660">
        <ele>893.6</ele>
        <time>2020-04-05T18:19:47Z</time>
      </trkpt>
      <trkpt lat="42.3443300" lon="-4.8462590">
        <ele>893.8</ele>
        <time>2020-04-05T18:19:49Z</time>
      </trkpt>
      <trkpt lat="42.3443620" lon="-4.8463550">
        <ele>894.0</ele>
        <time>2020-04-05T18:19:51Z</time>
      </trkpt>
      <trkpt lat="42.3443930" lon="-4.8464500">
        <ele>894.2</ele>
        <time>2020-04-05T18:19:53Z</time>
      </trkpt>
      <trkpt lat="42.3444250" lon="-4.8465470">
        <ele>894.3</ele>
        <time>2020-04-05T18:19:55Z</time>
      </trkpt>
      <trkpt lat="42.3445310" lon="-4.8468680">
        <ele>894.5</ele>
        <time>2020-04-05T18:19:57Z</time>
      </trkpt>
      <trkpt lat="42.3445690" lon="-4.8469820">
        <ele>894.9</ele>
        <time>2020-04-05T18:19:59Z</time>
      </trkpt>
      <trkpt lat="42.3446020" lon="-4.8470800">
        <ele>895.5</ele>
        <time>2020-04-05T18:20:01Z</time>
      </trkpt>
      <trkpt lat="42.3446340" lon="-4.8471790">
        <ele>896.0</ele>
        <time>2020-04-05T18:20:03Z</time>
      </trkpt>
      <trkpt lat="42.3446670" lon="-4.8472780">
        <ele>896.6</ele>
        <time>2020-04-05T18:20:05Z</time>
      </trkpt>
      <trkpt lat="42.3447000" lon="-4.8473760">
        <ele>897.3</ele>
        <time>2020-04-05T18:20:07Z</time>
      </trkpt>
      <trkpt lat="42.3447320" lon="-4.8474730">
        <ele>898.0</ele>
        <time>2020-04-05T18:20:09Z</time>
      </trkpt>
      <trkpt lat="42.3447650" lon="-4.8475710">
        <ele>898.5</ele>
        <time>2020-04-05T18:20:11Z</time>
      </trkpt>
      <trkpt lat="42.3448820" lon="-4.8479180">
        <ele>899.5</ele>
        <time>2020-04-05T18:20:13Z</time>
      </trkpt>
      <trkpt lat="42.3449190" lon="-4.8480240">
        <ele>899.5</ele>
        <time>2020-04-05T18:20:15Z</time>
      </trkpt>
      <trkpt lat="42.3449920" lon="-4.8482340">
        <ele>899.5</ele>
        <time>2020-04-05T18:20:17Z</time>
      </trkpt>
      <trkpt lat="42.3450350" lon="-4.8483490">
        <ele>899.5</ele>
        <time>2020-04-05T18:20:19Z</time>
      </trkpt>
      <trkpt lat="42.3450780" lon="-4.8484680">
        <ele>899.4</ele>
        <time>2020-04-05T18:20:21Z</time>
      </trkpt>
      <trkpt lat="42.3451230" lon="-4.8485900">
        <ele>899.4</ele>
        <time>2020-04-05T18:20:23Z</time>
      </trkpt>
      <trkpt lat="42.3451680" lon="-4.8487140">
        <ele>899.4</ele>
        <time>2020-04-05T18:20:25Z</time>
      </trkpt>
      <trkpt lat="42.3452800" lon="-4.8490190">
        <ele>899.7</ele>
        <time>2020-04-05T18:20:27Z</time>
      </trkpt>
      <trkpt lat="42.3453530" lon="-4.8492150">
        <ele>900.0</ele>
        <time>2020-04-05T18:20:29Z</time>
      </trkpt>
      <trkpt lat="42.3454000" lon="-4.8493440">
        <ele>900.2</ele>
        <time>2020-04-05T18:20:31Z</time>
      </trkpt>
      <trkpt lat="42.3454480" lon="-4.8494740">
        <ele>900.2</ele>
        <time>2020-04-05T18:20:33Z</time>
      </trkpt>
      <trkpt lat="42.3454970" lon="-4.8496070">
        <ele>900.2</ele>
        <time>2020-04-05T18:20:35Z</time>
      </trkpt>
      <trkpt lat="42.3455460" lon="-4.8497400">
        <ele>900.2</ele>
        <time>2020-04-05T18:20:37Z</time>
      </trkpt>
      <trkpt lat="42.3456780" lon="-4.8500920">
        <ele>900.3</ele>
        <time>2020-04-05T18:20:39Z</time>
      </trkpt>
      <trkpt lat="42.3457280" lon="-4.8502270">
        <ele>900.4</ele>
        <time>2020-04-05T18:20:41Z</time>
      </trkpt>
      <trkpt lat="42.3457790" lon="-4.8503630">
        <ele>900.7</ele>
        <time>2020-04-05T18:20:43Z</time>
      </trkpt>
      <trkpt lat="42.3458300" lon="-4.8504980">
        <ele>900.9</ele>
        <time>2020-04-05T18:20:45Z</time>
      </trkpt>
      <trkpt lat="42.3459520" lon="-4.8508230">
        <ele>901.2</ele>
        <time>2020-04-05T18:20:47Z</time>
      </trkpt>
      <trkpt lat="42.3460030" lon="-4.8509610">
        <ele>901.6</ele>
        <time>2020-04-05T18:20:49Z</time>
      </trkpt>
      <trkpt lat="42.3460850" lon="-4.8511830">
        <ele>901.9</ele>
        <time>2020-04-05T18:20:51Z</time>
      </trkpt>
      <trkpt lat="42.3461380" lon="-4.8513230">
        <ele>901.9</ele>
        <time>2020-04-05T18:20:53Z</time>
      </trkpt>
      <trkpt lat="42.3461910" lon="-4.8514650">
        <ele>901.9</ele>
        <time>2020-04-05T18:20:55Z</time>
      </trkpt>
      <trkpt lat="42.3463070" lon="-4.8517800">
        <ele>901.9</ele>
        <time>2020-04-05T18:20:57Z</time>
      </trkpt>
      <trkpt lat="42.3463590" lon="-4.8519250">
        <ele>902.1</ele>
        <time>2020-04-05T18:20:59Z</time>
      </trkpt>
      <trkpt lat="42.3464520" lon="-4.8521790">
        <ele>902.4</ele>
        <time>2020-04-05T18:21:01Z</time>
      </trkpt>
      <trkpt lat="42.3465070" lon="-4.8523260">
        <ele>902.5</ele>
        <time>2020-04-05T18:21:03Z</time>
      </trkpt>
      <trkpt lat="42.3465620" lon="-4.8524720">
        <ele>902.5</ele>
        <time>2020-04-05T18:21:05Z</time>
      </trkpt>
      <trkpt lat="42.3466170" lon="-4.8526180">
        <ele>902.4</ele>
        <time>2020-04-05T18:21:07Z</time>
      </trkpt>
      <trkpt lat="42.3466710" lon="-4.8527630">
        <ele>902.1</ele>
        <time>2020-04-05T18:21:09Z</time>
      </trkpt>
      <trkpt lat="42.3467240" lon="-4.8529060">
        <ele>901.9</ele>
        <time>2020-04-05T18:21:11Z</time>
      </trkpt>
      <trkpt lat="42.3468840" lon="-4.8533330">
        <ele>901.6</ele>
        <time>2020-04-05T18:21:13Z</time>
      </trkpt>
      <trkpt lat="42.3469370" lon="-4.8534770">
        <ele>901.6</ele>
        <time>2020-04-05T18:21:15Z</time>
      </trkpt>
      <trkpt lat="42.3469900" lon="-4.8536210">
        <ele>901.6</ele>
        <time>2020-04-05T18:21:17Z</time>
      </trkpt>
      <trkpt lat="42.3470430" lon="-4.8537660">
        <ele>901.6</ele>
        <time>2020-04-05T18:21:19Z</time>
      </trkpt>
      <trkpt lat="42.3470960" lon="-4.8539100">
        <ele>901.5</ele>
        <time>2020-04-05T18:21:21Z</time>
      </trkpt>
      <trkpt lat="42.3472520" lon="-4.8543320">
        <ele>901.6</ele>
        <time>2020-04-05T18:21:23Z</time>
      </trkpt>
      <trkpt lat="42.3473050" lon="-4.8544750">
        <ele>901.7</ele>
        <time>2020-04-05T18:21:25Z</time>
      </trkpt>
      <trkpt lat="42.3473580" lon="-4.8546190">
        <ele>901.9</ele>
        <time>2020-04-05T18:21:27Z</time>
      </trkpt>
      <trkpt lat="42.3474580" lon="-4.8548890">
        <ele>901.9</ele>
        <time>2020-04-05T18:21:29Z</time>
      </trkpt>
      <trkpt lat="42.3475120" lon="-4.8550320">
        <ele>901.9</ele>
        <time>2020-04-05T18:21:31Z</time>
      </trkpt>
      <trkpt lat="42.3475650" lon="-4.8551740">
        <ele>901.9</ele>
        <time>2020-04-05T18:21:33Z</time>
      </trkpt>
      <trkpt lat="42.3476770" lon="-4.8554710">
        <ele>901.9</ele>
        <time>2020-04-05T18:21:35Z</time>
      </trkpt>
      <trkpt lat="42.3477290" lon="-4.8556110">
        <ele>901.9</ele>
        <time>2020-04-05T18:21:37Z</time>
      </trkpt>
      <trkpt lat="42.3477810" lon="-4.8557490">
        <ele>901.9</ele>
        <time>2020-04-05T18:21:39Z</time>
      </trkpt>
      <trkpt lat="42.3478340" lon="-4.8558890">
        <ele>901.9</ele>
        <time>2020-04-05T18:21:41Z</time>
      </trkpt>
      <trkpt lat="42.3478860" lon="-4.8560280">
        <ele>901.8</ele>
        <time>2020-04-05T18:21:43Z</time>
      </trkpt>
      <trkpt lat="42.3480420" lon="-4.8564490">
        <ele>901.8</ele>
        <time>2020-04-05T18:21:45Z</time>
      </trkpt>
      <trkpt lat="42.3480810" lon="-4.8565960">
        <ele>901.9</ele>
        <time>2020-04-05T18:21:47Z</time>
      </trkpt>
      <trkpt lat="42.3481200" lon="-4.8567420">
        <ele>902.0</ele>
        <time>2020-04-05T18:21:49Z</time>
      </trkpt>
      <trkpt lat="42.3481960" lon="-4.8570390">
        <ele>902.5</ele>
        <time>2020-04-05T18:21:51Z</time>
      </trkpt>
      <trkpt lat="42.3482260" lon="-4.8571950">
        <ele>902.7</ele>
        <time>2020-04-05T18:21:53Z</time>
      </trkpt>
      <trkpt lat="42.3482590" lon="-4.8574360">
        <ele>902.7</ele>
        <time>2020-04-05T18:21:55Z</time>
      </trkpt>
      <trkpt lat="42.3482790" lon="-4.8576700">
        <ele>902.6</ele>
        <time>2020-04-05T18:21:57Z</time>
      </trkpt>
      <trkpt lat="42.3482890" lon="-4.8578990">
        <ele>902.2</ele>
        <time>2020-04-05T18:21:59Z</time>
      </trkpt>
      <trkpt lat="42.3482950" lon="-4.8581450">
        <ele>901.7</ele>
        <time>2020-04-05T18:22:01Z</time>
      </trkpt>
      <trkpt lat="42.3482880" lon="-4.8583260">
        <ele>901.3</ele>
        <time>2020-04-05T18:22:03Z</time>
      </trkpt>
      <trkpt lat="42.3482800" lon="-4.8585080">
        <ele>900.9</ele>
        <time>2020-04-05T18:22:05Z</time>
      </trkpt>
      <trkpt lat="42.3482720" lon="-4.8586980">
        <ele>900.4</ele>
        <time>2020-04-05T18:22:07Z</time>
      </trkpt>
      <trkpt lat="42.3482640" lon="-4.8588930">
        <ele>899.9</ele>
        <time>2020-04-05T18:22:09Z</time>
      </trkpt>
      <trkpt lat="42.3482460" lon="-4.8593690">
        <ele>898.2</ele>
        <time>2020-04-05T18:22:11Z</time>
      </trkpt>
      <trkpt lat="42.3482400" lon="-4.8597330">
        <ele>897.0</ele>
        <time>2020-04-05T18:22:13Z</time>
      </trkpt>
      <trkpt lat="42.3482440" lon="-4.8599840">
        <ele>896.1</ele>
        <time>2020-04-05T18:22:15Z</time>
      </trkpt>
      <trkpt lat="42.3482720" lon="-4.8603710">
        <ele>894.2</ele>
        <time>2020-04-05T18:22:17Z</time>
      </trkpt>
      <trkpt lat="42.3483280" lon="-4.8607300">
        <ele>892.5</ele>
        <time>2020-04-05T18:22:19Z</time>
      </trkpt>
      <trkpt lat="42.3484200" lon="-4.8610940">
        <ele>890.7</ele>
        <time>2020-04-05T18:22:21Z</time>
      </trkpt>
      <trkpt lat="42.3485810" lon="-4.8615210">
        <ele>888.5</ele>
        <time>2020-04-05T18:22:23Z</time>
      </trkpt>
      <trkpt lat="42.3487400" lon="-4.8618430">
        <ele>886.4</ele>
        <time>2020-04-05T18:22:25Z</time>
      </trkpt>
      <trkpt lat="42.3489250" lon="-4.8621310">
        <ele>884.4</ele>
        <time>2020-04-05T18:22:27Z</time>
      </trkpt>
      <trkpt lat="42.3491350" lon="-4.8623590">
        <ele>882.8</ele>
        <time>2020-04-05T18:22:29Z</time>
      </trkpt>
      <trkpt lat="42.3494110" lon="-4.8626120">
        <ele>881.3</ele>
        <time>2020-04-05T18:22:31Z</time>
      </trkpt>
      <trkpt lat="42.3496440" lon="-4.8628130">
        <ele>880.1</ele>
        <time>2020-04-05T18:22:33Z</time>
      </trkpt>
      <trkpt lat="42.3498210" lon="-4.8629660">
        <ele>879.3</ele>
        <time>2020-04-05T18:22:35Z</time>
      </trkpt>
      <trkpt lat="42.3499960" lon="-4.8631170">
        <ele>878.5</ele>
        <time>2020-04-05T18:22:37Z</time>
      </trkpt>
      <trkpt lat="42.3503250" lon="-4.8634150">
        <ele>876.6</ele>
        <time>2020-04-05T18:22:39Z</time>
      </trkpt>
      <trkpt lat="42.3504830" lon="-4.8635740">
        <ele>875.9</ele>
        <time>2020-04-05T18:22:41Z</time>
      </trkpt>
      <trkpt lat="42.3507770" lon="-4.8638690">
        <ele>874.0</ele>
        <time>2020-04-05T18:22:43Z</time>
      </trkpt>
      <trkpt lat="42.3509220" lon="-4.8640140">
        <ele>873.2</ele>
        <time>2020-04-05T18:22:45Z</time>
      </trkpt>
      <trkpt lat="42.3511620" lon="-4.8642550">
        <ele>872.4</ele>
        <time>2020-04-05T18:22:47Z</time>
      </trkpt>
      <trkpt lat="42.3513490" lon="-4.8644400">
        <ele>871.5</ele>
        <time>2020-04-05T18:22:49Z</time>
      </trkpt>
      <trkpt lat="42.3514800" lon="-4.8645780">
        <ele>871.2</ele>
        <time>2020-04-05T18:22:51Z</time>
      </trkpt>
      <trkpt lat="42.3516060" lon="-4.8647090">
        <ele>870.9</ele>
        <time>2020-04-05T18:22:53Z</time>
      </trkpt>
      <trkpt lat="42.3518600" lon="-4.8649750">
        <ele>870.5</ele>
        <time>2020-04-05T18:22:55Z</time>
      </trkpt>
      <trkpt lat="42.3519750" lon="-4.8650950">
        <ele>870.4</ele>
        <time>2020-04-05T18:22:57Z</time>
      </trkpt>
      <trkpt lat="42.3520870" lon="-4.8652110">
        <ele>870.4</ele>
        <time>2020-04-05T18:22:59Z</time>
      </trkpt>
      <trkpt lat="42.3523070" lon="-4.8654400">
        <ele>870.4</ele>
        <time>2020-04-05T18:23:01Z</time>
      </trkpt>
      <trkpt lat="42.3524430" lon="-4.8655800">
        <ele>870.4</ele>
        <time>2020-04-05T18:23:03Z</time>
      </trkpt>
      <trkpt lat="42.3526010" lon="-4.8657420">
        <ele>870.3</ele>
        <time>2020-04-05T18:23:05Z</time>
      </trkpt>
      <trkpt lat="42.3527520" lon="-4.8658980">
        <ele>870.3</ele>
        <time>2020-04-05T18:23:07Z</time>
      </trkpt>
      <trkpt lat="42.3528550" lon="-4.8660060">
        <ele>870.3</ele>
        <time>2020-04-05T18:23:09Z</time>
      </trkpt>
      <trkpt lat="42.3529580" lon="-4.8661130">
        <ele>870.3</ele>
        <time>2020-04-05T18:23:11Z</time>
      </trkpt>
      <trkpt lat="42.3531590" lon="-4.8663100">
        <ele>870.3</ele>
        <time>2020-04-05T18:23:13Z</time>
      </trkpt>
      <trkpt lat="42.3533200" lon="-4.8664430">
        <ele>870.3</ele>
        <time>2020-04-05T18:23:15Z</time>
      </trkpt>
      <trkpt lat="42.3534540" lon="-4.8665310">
        <ele>870.4</ele>
        <time>2020-04-05T18:23:17Z</time>
      </trkpt>
      <trkpt lat="42.3536000" lon="-4.8665930">
        <ele>870.6</ele>
        <time>2020-04-05T18:23:19Z</time>
      </trkpt>
      <trkpt lat="42.3537620" lon="-4.8666390">
        <ele>871.1</ele>
        <time>2020-04-05T18:23:21Z</time>
      </trkpt>
      <trkpt lat="42.3539260" lon="-4.8666610">
        <ele>871.4</ele>
        <time>2020-04-05T18:23:23Z</time>
      </trkpt>
      <trkpt lat="42.3541220" lon="-4.8666600">
        <ele>871.8</ele>
        <time>2020-04-05T18:23:25Z</time>
      </trkpt>
      <trkpt lat="42.3542350" lon="-4.8666400">
        <ele>872.2</ele>
        <time>2020-04-05T18:23:27Z</time>
      </trkpt>
      <trkpt lat="42.3543980" lon="-4.8666010">
        <ele>872.4</ele>
        <time>2020-04-05T18:23:29Z</time>
      </trkpt>
      <trkpt lat="42.3545010" lon="-4.8665690">
        <ele>872.5</ele>
        <time>2020-04-05T18:23:31Z</time>
      </trkpt>
      <trkpt lat="42.3546640" lon="-4.8665100">
        <ele>872.9</ele>
        <time>2020-04-05T18:23:33Z</time>
      </trkpt>
      <trkpt lat="42.3547580" lon="-4.8664720">
        <ele>873.2</ele>
        <time>2020-04-05T18:23:35Z</time>
      </trkpt>
      <trkpt lat="42.3549400" lon="-4.8663980">
        <ele>873.5</ele>
        <time>2020-04-05T18:23:37Z</time>
      </trkpt>
      <trkpt lat="42.3550290" lon="-4.8663610">
        <ele>873.6</ele>
        <time>2020-04-05T18:23:39Z</time>
      </trkpt>
      <trkpt lat="42.3551150" lon="-4.8663260">
        <ele>873.6</ele>
        <time>2020-04-05T18:23:41Z</time>
      </trkpt>
      <trkpt lat="42.3551990" lon="-4.8662920">
        <ele>873.6</ele>
        <time>2020-04-05T18:23:43Z</time>
      </trkpt>
      <trkpt lat="42.3552820" lon="-4.8662580">
        <ele>873.6</ele>
        <time>2020-04-05T18:23:45Z</time>
      </trkpt>
      <trkpt lat="42.3553630" lon="-4.8662250">
        <ele>873.6</ele>
        <time>2020-04-05T18:23:47Z</time>
      </trkpt>
      <trkpt lat="42.3556030" lon="-4.8661270">
        <ele>873.7</ele>
        <time>2020-04-05T18:23:49Z</time>
      </trkpt>
      <trkpt lat="42.3556810" lon="-4.8660940">
        <ele>873.8</ele>
        <time>2020-04-05T18:23:51Z</time>
      </trkpt>
      <trkpt lat="42.3558280" lon="-4.8660330">
        <ele>874.1</ele>
        <time>2020-04-05T18:23:53Z</time>
      </trkpt>
      <trkpt lat="42.3559100" lon="-4.8659980">
        <ele>874.2</ele>
        <time>2020-04-05T18:23:55Z</time>
      </trkpt>
      <trkpt lat="42.3559940" lon="-4.8659630">
        <ele>874.4</ele>
        <time>2020-04-05T18:23:57Z</time>
      </trkpt>
      <trkpt lat="42.3561630" lon="-4.8658920">
        <ele>874.5</ele>
        <time>2020-04-05T18:23:59Z</time>
      </trkpt>
      <trkpt lat="42.3562530" lon="-4.8658550">
        <ele>874.5</ele>
        <time>2020-04-05T18:24:01Z</time>
      </trkpt>
      <trkpt lat="42.3563440" lon="-4.8658170">
        <ele>874.5</ele>
        <time>2020-04-05T18:24:03Z</time>
      </trkpt>
      <trkpt lat="42.3564370" lon="-4.8657780">
        <ele>874.5</ele>
        <time>2020-04-05T18:24:05Z</time>
      </trkpt>
      <trkpt lat="42.3565310" lon="-4.8657390">
        <ele>874.5</ele>
        <time>2020-04-05T18:24:07Z</time>
      </trkpt>
      <trkpt lat="42.3567770" lon="-4.8656360">
        <ele>875.0</ele>
        <time>2020-04-05T18:24:09Z</time>
      </trkpt>
      <trkpt lat="42.3568650" lon="-4.8656000">
        <ele>875.2</ele>
        <time>2020-04-05T18:24:11Z</time>
      </trkpt>
      <trkpt lat="42.3569500" lon="-4.8655650">
        <ele>875.3</ele>
        <time>2020-04-05T18:24:13Z</time>
      </trkpt>
      <trkpt lat="42.3570300" lon="-4.8655310">
        <ele>875.3</ele>
        <time>2020-04-05T18:24:15Z</time>
      </trkpt>
      <trkpt lat="42.3571060" lon="-4.8655000">
        <ele>875.5</ele>
        <time>2020-04-05T18:24:17Z</time>
      </trkpt>
      <trkpt lat="42.3573340" lon="-4.8654090">
        <ele>876.5</ele>
        <time>2020-04-05T18:24:19Z</time>
      </trkpt>
      <trkpt lat="42.3574080" lon="-4.8653850">
        <ele>877.0</ele>
        <time>2020-04-05T18:24:21Z</time>
      </trkpt>
      <trkpt lat="42.3574790" lon="-4.8653620">
        <ele>877.4</ele>
        <time>2020-04-05T18:24:23Z</time>
      </trkpt>
      <trkpt lat="42.3576230" lon="-4.8653200">
        <ele>878.3</ele>
        <time>2020-04-05T18:24:25Z</time>
      </trkpt>
      <trkpt lat="42.3576920" lon="-4.8653040">
        <ele>878.6</ele>
        <time>2020-04-05T18:24:27Z</time>
      </trkpt>
      <trkpt lat="42.3578130" lon="-4.8652790">
        <ele>879.1</ele>
        <time>2020-04-05T18:24:29Z</time>
      </trkpt>
      <trkpt lat="42.3578760" lon="-4.8652700">
        <ele>879.4</ele>
        <time>2020-04-05T18:24:31Z</time>
      </trkpt>
      <trkpt lat="42.3579350" lon="-4.8652620">
        <ele>879.8</ele>
        <time>2020-04-05T18:24:33Z</time>
      </trkpt>
      <trkpt lat="42.3580630" lon="-4.8652490">
        <ele>880.1</ele>
        <time>2020-04-05T18:24:35Z</time>
      </trkpt>
      <trkpt lat="42.3581360" lon="-4.8652500">
        <ele>880.2</ele>
        <time>2020-04-05T18:24:37Z</time>
      </trkpt>
      <trkpt lat="42.3582170" lon="-4.8652510">
        <ele>880.1</ele>
        <time>2020-04-05T18:24:39Z</time>
      </trkpt>
      <trkpt lat="42.3583060" lon="-4.8652520">
        <ele>880.0</ele>
        <time>2020-04-05T18:24:41Z</time>
      </trkpt>
      <trkpt lat="42.3585150" lon="-4.8652610">
        <ele>879.6</ele>
        <time>2020-04-05T18:24:43Z</time>
      </trkpt>
      <trkpt lat="42.3586130" lon="-4.8652780">
        <ele>879.5</ele>
        <time>2020-04-05T18:24:45Z</time>
      </trkpt>
      <trkpt lat="42.3587160" lon="-4.8652950">
        <ele>879.3</ele>
        <time>2020-04-05T18:24:47Z</time>
      </trkpt>
      <trkpt lat="42.3589160" lon="-4.8653380">
        <ele>879.1</ele>
        <time>2020-04-05T18:24:49Z</time>
      </trkpt>
      <trkpt lat="42.3590260" lon="-4.8653670">
        <ele>879.0</ele>
        <time>2020-04-05T18:24:51Z</time>
      </trkpt>
      <trkpt lat="42.3591380" lon="-4.8653980">
        <ele>878.9</ele>
        <time>2020-04-05T18:24:53Z</time>
      </trkpt>
      <trkpt lat="42.3593890" lon="-4.8654670">
        <ele>878.7</ele>
        <time>2020-04-05T18:24:55Z</time>
      </trkpt>
      <trkpt lat="42.3595040" lon="-4.8655000">
        <ele>878.3</ele>
        <time>2020-04-05T18:24:57Z</time>
      </trkpt>
      <trkpt lat="42.3596220" lon="-4.8655340">
        <ele>878.0</ele>
        <time>2020-04-05T18:24:59Z</time>
      </trkpt>
      <trkpt lat="42.3597420" lon="-4.8655680">
        <ele>877.8</ele>
        <time>2020-04-05T18:25:01Z</time>
      </trkpt>
      <trkpt lat="42.3598620" lon="-4.8656030">
        <ele>877.7</ele>
        <time>2020-04-05T18:25:03Z</time>
      </trkpt>
      <trkpt lat="42.3599840" lon="-4.8656370">
        <ele>877.7</ele>
        <time>2020-04-05T18:25:05Z</time>
      </trkpt>
      <trkpt lat="42.3603380" lon="-4.8657390">
        <ele>877.6</ele>
        <time>2020-04-05T18:25:07Z</time>
      </trkpt>
      <trkpt lat="42.3604640" lon="-4.8657750">
        <ele>877.6</ele>
        <time>2020-04-05T18:25:09Z</time>
      </trkpt>
      <trkpt lat="42.3605920" lon="-4.8658110">
        <ele>877.6</ele>
        <time>2020-04-05T18:25:11Z</time>
      </trkpt>
      <trkpt lat="42.3607200" lon="-4.8658480">
        <ele>877.6</ele>
        <time>2020-04-05T18:25:13Z</time>
      </trkpt>
      <trkpt lat="42.3608500" lon="-4.8658850">
        <ele>877.5</ele>
        <time>2020-04-05T18:25:15Z</time>
      </trkpt>
      <trkpt lat="42.3612080" lon="-4.8659880">
        <ele>877.5</ele>
        <time>2020-04-05T18:25:17Z</time>
      </trkpt>
      <trkpt lat="42.3613370" lon="-4.8660240">
        <ele>877.5</ele>
        <time>2020-04-05T18:25:19Z</time>
      </trkpt>
      <trkpt lat="42.3614640" lon="-4.8660610">
        <ele>877.4</ele>
        <time>2020-04-05T18:25:21Z</time>
      </trkpt>
      <trkpt lat="42.3615930" lon="-4.8660980">
        <ele>877.4</ele>
        <time>2020-04-05T18:25:23Z</time>
      </trkpt>
      <trkpt lat="42.3617190" lon="-4.8661340">
        <ele>877.4</ele>
        <time>2020-04-05T18:25:25Z</time>
      </trkpt>
      <trkpt lat="42.3620750" lon="-4.8662420">
        <ele>877.4</ele>
        <time>2020-04-05T18:25:27Z</time>
      </trkpt>
      <trkpt lat="42.3622550" lon="-4.8663140">
        <ele>877.3</ele>
        <time>2020-04-05T18:25:29Z</time>
      </trkpt>
      <trkpt lat="42.3624370" lon="-4.8664140">
        <ele>877.3</ele>
        <time>2020-04-05T18:25:31Z</time>
      </trkpt>
      <trkpt lat="42.3625480" lon="-4.8665060">
        <ele>877.3</ele>
        <time>2020-04-05T18:25:33Z</time>
      </trkpt>
      <trkpt lat="42.3627400" lon="-4.8666660">
        <ele>877.3</ele>
        <time>2020-04-05T18:25:35Z</time>
      </trkpt>
      <trkpt lat="42.3628430" lon="-4.8667770">
        <ele>877.2</ele>
        <time>2020-04-05T18:25:37Z</time>
      </trkpt>
      <trkpt lat="42.3629850" lon="-4.8669470">
        <ele>876.9</ele>
        <time>2020-04-05T18:25:39Z</time>
      </trkpt>
      <trkpt lat="42.3631190" lon="-4.8671370">
        <ele>876.5</ele>
        <time>2020-04-05T18:25:41Z</time>
      </trkpt>
      <trkpt lat="42.3632320" lon="-4.8673400">
        <ele>876.2</ele>
        <time>2020-04-05T18:25:43Z</time>
      </trkpt>
      <trkpt lat="42.3633240" lon="-4.8675480">
        <ele>876.0</ele>
        <time>2020-04-05T18:25:45Z</time>
      </trkpt>
      <trkpt lat="42.3633890" lon="-4.8677130">
        <ele>875.8</ele>
        <time>2020-04-05T18:25:47Z</time>
      </trkpt>
      <trkpt lat="42.3634990" lon="-4.8679990">
        <ele>875.5</ele>
        <time>2020-04-05T18:25:49Z</time>
      </trkpt>
      <trkpt lat="42.3635610" lon="-4.8681650">
        <ele>875.3</ele>
        <time>2020-04-05T18:25:51Z</time>
      </trkpt>
      <trkpt lat="42.3636640" lon="-4.8684410">
        <ele>875.5</ele>
        <time>2020-04-05T18:25:53Z</time>
      </trkpt>
      <trkpt lat="42.3637250" lon="-4.8686020">
        <ele>875.8</ele>
        <time>2020-04-05T18:25:55Z</time>
      </trkpt>
      <trkpt lat="42.3637870" lon="-4.8687640">
        <ele>876.1</ele>
        <time>2020-04-05T18:25:57Z</time>
      </trkpt>
      <trkpt lat="42.3638470" lon="-4.8689220">
        <ele>876.2</ele>
        <time>2020-04-05T18:25:59Z</time>
      </trkpt>
      <trkpt lat="42.3639940" lon="-4.8693080">
        <ele>876.3</ele>
        <time>2020-04-05T18:26:01Z</time>
      </trkpt>
      <trkpt lat="42.3640540" lon="-4.8694640">
        <ele>876.4</ele>
        <time>2020-04-05T18:26:03Z</time>
      </trkpt>
      <trkpt lat="42.3641120" lon="-4.8696170">
        <ele>876.4</ele>
        <time>2020-04-05T18:26:05Z</time>
      </trkpt>
      <trkpt lat="42.3641700" lon="-4.8697680">
        <ele>876.4</ele>
        <time>2020-04-05T18:26:07Z</time>
      </trkpt>
      <trkpt lat="42.3643150" lon="-4.8701440">
        <ele>876.5</ele>
        <time>2020-04-05T18:26:09Z</time>
      </trkpt>
      <trkpt lat="42.3643740" lon="-4.8702870">
        <ele>876.4</ele>
        <time>2020-04-05T18:26:11Z</time>
      </trkpt>
      <trkpt lat="42.3644340" lon="-4.8704320">
        <ele>876.4</ele>
        <time>2020-04-05T18:26:13Z</time>
      </trkpt>
      <trkpt lat="42.3644920" lon="-4.8705740">
        <ele>876.4</ele>
        <time>2020-04-05T18:26:15Z</time>
      </trkpt>
      <trkpt lat="42.3646310" lon="-4.8709120">
        <ele>876.3</ele>
        <time>2020-04-05T18:26:17Z</time>
      </trkpt>
      <trkpt lat="42.3646890" lon="-4.8710500">
        <ele>876.3</ele>
        <time>2020-04-05T18:26:19Z</time>
      </trkpt>
      <trkpt lat="42.3647450" lon="-4.8711880">
        <ele>876.3</ele>
        <time>2020-04-05T18:26:21Z</time>
      </trkpt>
      <trkpt lat="42.3648010" lon="-4.8713220">
        <ele>876.4</ele>
        <time>2020-04-05T18:26:23Z</time>
      </trkpt>
      <trkpt lat="42.3649380" lon="-4.8716560">
        <ele>877.0</ele>
        <time>2020-04-05T18:26:25Z</time>
      </trkpt>
      <trkpt lat="42.3649920" lon="-4.8717930">
        <ele>877.2</ele>
        <time>2020-04-05T18:26:27Z</time>
      </trkpt>
      <trkpt lat="42.3650870" lon="-4.8720310">
        <ele>877.7</ele>
        <time>2020-04-05T18:26:29Z</time>
      </trkpt>
      <trkpt lat="42.3651380" lon="-4.8721620">
        <ele>878.2</ele>
        <time>2020-04-05T18:26:31Z</time>
      </trkpt>
      <trkpt lat="42.3652260" lon="-4.8723880">
        <ele>879.2</ele>
        <time>2020-04-05T18:26:33Z</time>
      </trkpt>
      <trkpt lat="42.3652740" lon="-4.8725150">
        <ele>879.5</ele>
        <time>2020-04-05T18:26:35Z</time>
      </trkpt>
      <trkpt lat="42.3653210" lon="-4.8726400">
        <ele>879.7</ele>
        <time>2020-04-05T18:26:37Z</time>
      </trkpt>
      <trkpt lat="42.3653680" lon="-4.8727620">
        <ele>880.0</ele>
        <time>2020-04-05T18:26:39Z</time>
      </trkpt>
      <trkpt lat="42.3654790" lon="-4.8730560">
        <ele>880.5</ele>
        <time>2020-04-05T18:26:41Z</time>
      </trkpt>
      <trkpt lat="42.3655240" lon="-4.8731740">
        <ele>880.8</ele>
        <time>2020-04-05T18:26:43Z</time>
      </trkpt>
      <trkpt lat="42.3655910" lon="-4.8733500">
        <ele>881.3</ele>
        <time>2020-04-05T18:26:45Z</time>
      </trkpt>
      <trkpt lat="42.3656300" lon="-4.8734510">
        <ele>881.7</ele>
        <time>2020-04-05T18:26:47Z</time>
      </trkpt>
      <trkpt lat="42.3656650" lon="-4.8735430">
        <ele>882.1</ele>
        <time>2020-04-05T18:26:49Z</time>
      </trkpt>
      <trkpt lat="42.3657450" lon="-4.8737530">
        <ele>883.0</ele>
        <time>2020-04-05T18:26:51Z</time>
      </trkpt>
      <trkpt lat="42.3657740" lon="-4.8738330">
        <ele>883.4</ele>
        <time>2020-04-05T18:26:53Z</time>
      </trkpt>
      <trkpt lat="42.3658010" lon="-4.8739060">
        <ele>883.8</ele>
        <time>2020-04-05T18:26:55Z</time>
      </trkpt>
      <trkpt lat="42.3658540" lon="-4.8740510">
        <ele>884.7</ele>
        <time>2020-04-05T18:26:57Z</time>
      </trkpt>
      <trkpt lat="42.3658890" lon="-4.8741540">
        <ele>885.7</ele>
        <time>2020-04-05T18:26:59Z</time>
      </trkpt>
      <trkpt lat="42.3659140" lon="-4.8742260">
        <ele>885.9</ele>
        <time>2020-04-05T18:27:01Z</time>
      </trkpt>
      <trkpt lat="42.3659510" lon="-4.8743330">
        <ele>886.1</ele>
        <time>2020-04-05T18:27:03Z</time>
      </trkpt>
      <trkpt lat="42.3659690" lon="-4.8744010">
        <ele>886.3</ele>
        <time>2020-04-05T18:27:05Z</time>
      </trkpt>
      <trkpt lat="42.3659970" lon="-4.8745130">
        <ele>886.6</ele>
        <time>2020-04-05T18:27:07Z</time>
      </trkpt>
      <trkpt lat="42.3660130" lon="-4.8745810">
        <ele>886.7</ele>
        <time>2020-04-05T18:27:09Z</time>
      </trkpt>
      <trkpt lat="42.3660400" lon="-4.8746970">
        <ele>887.0</ele>
        <time>2020-04-05T18:27:11Z</time>
      </trkpt>
      <trkpt lat="42.3660570" lon="-4.8747770">
        <ele>887.2</ele>
        <time>2020-04-05T18:27:13Z</time>
      </trkpt>
      <trkpt lat="42.3660830" lon="-4.8749220">
        <ele>887.6</ele>
        <time>2020-04-05T18:27:15Z</time>
      </trkpt>
      <trkpt lat="42.3660990" lon="-4.8750600">
        <ele>887.9</ele>
        <time>2020-04-05T18:27:17Z</time>
      </trkpt>
      <trkpt lat="42.3661130" lon="-4.8752130">
        <ele>888.3</ele>
        <time>2020-04-05T18:27:19Z</time>
      </trkpt>
      <trkpt lat="42.3661180" lon="-4.8753220">
        <ele>888.5</ele>
        <time>2020-04-05T18:27:21Z</time>
      </trkpt>
      <trkpt lat="42.3661210" lon="-4.8754730">
        <ele>888.8</ele>
        <time>2020-04-05T18:27:23Z</time>
      </trkpt>
      <trkpt lat="42.3661160" lon="-4.8756280">
        <ele>889.1</ele>
        <time>2020-04-05T18:27:25Z</time>
      </trkpt>
      <trkpt lat="42.3661050" lon="-4.8757870">
        <ele>889.4</ele>
        <time>2020-04-05T18:27:27Z</time>
      </trkpt>
      <trkpt lat="42.3660960" lon="-4.8758970">
        <ele>889.7</ele>
        <time>2020-04-05T18:27:29Z</time>
      </trkpt>
      <trkpt lat="42.3660790" lon="-4.8760740">
        <ele>890.1</ele>
        <time>2020-04-05T18:27:31Z</time>
      </trkpt>
      <trkpt lat="42.3660590" lon="-4.8762710">
        <ele>890.8</ele>
        <time>2020-04-05T18:27:33Z</time>
      </trkpt>
      <trkpt lat="42.3660430" lon="-4.8763920">
        <ele>890.8</ele>
        <time>2020-04-05T18:27:35Z</time>
      </trkpt>
      <trkpt lat="42.3660270" lon="-4.8765140">
        <ele>890.8</ele>
        <time>2020-04-05T18:27:37Z</time>
      </trkpt>
      <trkpt lat="42.3660120" lon="-4.8766340">
        <ele>890.8</ele>
        <time>2020-04-05T18:27:39Z</time>
      </trkpt>
      <trkpt lat="42.3659960" lon="-4.8767540">
        <ele>890.8</ele>
        <time>2020-04-05T18:27:41Z</time>
      </trkpt>
      <trkpt lat="42.3659810" lon="-4.8768720">
        <ele>890.8</ele>
        <time>2020-04-05T18:27:43Z</time>
      </trkpt>
      <trkpt lat="42.3659350" lon="-4.8772310">
        <ele>890.8</ele>
        <time>2020-04-05T18:27:45Z</time>
      </trkpt>
      <trkpt lat="42.3659180" lon="-4.8773520">
        <ele>890.8</ele>
        <time>2020-04-05T18:27:47Z</time>
      </trkpt>
      <trkpt lat="42.3659000" lon="-4.8774790">
        <ele>890.8</ele>
        <time>2020-04-05T18:27:49Z</time>
      </trkpt>
      <trkpt lat="42.3658820" lon="-4.8776100">
        <ele>890.9</ele>
        <time>2020-04-05T18:27:51Z</time>
      </trkpt>
      <trkpt lat="42.3658380" lon="-4.8779280">
        <ele>891.4</ele>
        <time>2020-04-05T18:27:53Z</time>
      </trkpt>
      <trkpt lat="42.3658140" lon="-4.8781260">
        <ele>891.7</ele>
        <time>2020-04-05T18:27:55Z</time>
      </trkpt>
      <trkpt lat="42.3657970" lon="-4.8782710">
        <ele>891.8</ele>
        <time>2020-04-05T18:27:57Z</time>
      </trkpt>
      <trkpt lat="42.3657670" lon="-4.8785200">
        <ele>891.9</ele>
        <time>2020-04-05T18:27:59Z</time>
      </trkpt>
      <trkpt lat="42.3657480" lon="-4.8786680">
        <ele>891.9</ele>
        <time>2020-04-05T18:28:01Z</time>
      </trkpt>
      <trkpt lat="42.3657300" lon="-4.8788150">
        <ele>891.9</ele>
        <time>2020-04-05T18:28:03Z</time>
      </trkpt>
      <trkpt lat="42.3656940" lon="-4.8790990">
        <ele>891.9</ele>
        <time>2020-04-05T18:28:05Z</time>
      </trkpt>
      <trkpt lat="42.3656760" lon="-4.8792440">
        <ele>891.9</ele>
        <time>2020-04-05T18:28:07Z</time>
      </trkpt>
      <trkpt lat="42.3656580" lon="-4.8793910">
        <ele>891.9</ele>
        <time>2020-04-05T18:28:09Z</time>
      </trkpt>
      <trkpt lat="42.3656400" lon="-4.8795370">
        <ele>891.9</ele>
        <time>2020-04-05T18:28:11Z</time>
      </trkpt>
      <trkpt lat="42.3656220" lon="-4.8796820">
        <ele>891.9</ele>
        <time>2020-04-05T18:28:13Z</time>
      </trkpt>
      <trkpt lat="42.3655730" lon="-4.8800690">
        <ele>891.9</ele>
        <time>2020-04-05T18:28:15Z</time>
      </trkpt>
      <trkpt lat="42.3655560" lon="-4.8802160">
        <ele>891.8</ele>
        <time>2020-04-05T18:28:17Z</time>
      </trkpt>
      <trkpt lat="42.3655390" lon="-4.8803660">
        <ele>891.6</ele>
        <time>2020-04-05T18:28:19Z</time>
      </trkpt>
      <trkpt lat="42.3655210" lon="-4.8805160">
        <ele>891.5</ele>
        <time>2020-04-05T18:28:21Z</time>
      </trkpt>
      <trkpt lat="42.3655030" lon="-4.8806670">
        <ele>891.4</ele>
        <time>2020-04-05T18:28:23Z</time>
      </trkpt>
      <trkpt lat="42.3654520" lon="-4.8811040">
        <ele>891.0</ele>
        <time>2020-04-05T18:28:25Z</time>
      </trkpt>
      <trkpt lat="42.3654350" lon="-4.8812540">
        <ele>891.0</ele>
        <time>2020-04-05T18:28:27Z</time>
      </trkpt>
      <trkpt lat="42.3654080" lon="-4.8814930">
        <ele>890.9</ele>
        <time>2020-04-05T18:28:29Z</time>
      </trkpt>
      <trkpt lat="42.3653890" lon="-4.8816530">
        <ele>890.8</ele>
        <time>2020-04-05T18:28:31Z</time>
      </trkpt>
      <trkpt lat="42.3653700" lon="-4.8818180">
        <ele>890.7</ele>
        <time>2020-04-05T18:28:33Z</time>
      </trkpt>
      <trkpt lat="42.3653280" lon="-4.8821860">
        <ele>890.5</ele>
        <time>2020-04-05T18:28:35Z</time>
      </trkpt>
      <trkpt lat="42.3653080" lon="-4.8823580">
        <ele>890.4</ele>
        <time>2020-04-05T18:28:37Z</time>
      </trkpt>
      <trkpt lat="42.3652880" lon="-4.8825350">
        <ele>890.3</ele>
        <time>2020-04-05T18:28:39Z</time>
      </trkpt>
      <trkpt lat="42.3652680" lon="-4.8827140">
        <ele>890.2</ele>
        <time>2020-04-05T18:28:41Z</time>
      </trkpt>
      <trkpt lat="42.3652470" lon="-4.8828960">
        <ele>890.1</ele>
        <time>2020-04-05T18:28:43Z</time>
      </trkpt>
      <trkpt lat="42.3651930" lon="-4.8833650">
        <ele>889.9</ele>
        <time>2020-04-05T18:28:45Z</time>
      </trkpt>
      <trkpt lat="42.3651740" lon="-4.8835390">
        <ele>889.8</ele>
        <time>2020-04-05T18:28:47Z</time>
      </trkpt>
      <trkpt lat="42.3651540" lon="-4.8837110">
        <ele>889.7</ele>
        <time>2020-04-05T18:28:49Z</time>
      </trkpt>
      <trkpt lat="42.3651340" lon="-4.8838810">
        <ele>889.7</ele>
        <time>2020-04-05T18:28:51Z</time>
      </trkpt>
      <trkpt lat="42.3650820" lon="-4.8843380">
        <ele>889.4</ele>
        <time>2020-04-05T18:28:53Z</time>
      </trkpt>
      <trkpt lat="42.3650630" lon="-4.8845040">
        <ele>889.3</ele>
        <time>2020-04-05T18:28:55Z</time>
      </trkpt>
      <trkpt lat="42.3650440" lon="-4.8846710">
        <ele>889.2</ele>
        <time>2020-04-05T18:28:57Z</time>
      </trkpt>
      <trkpt lat="42.3650250" lon="-4.8848350">
        <ele>889.1</ele>
        <time>2020-04-05T18:28:59Z</time>
      </trkpt>
      <trkpt lat="42.3649820" lon="-4.8852230">
        <ele>889.2</ele>
        <time>2020-04-05T18:29:01Z</time>
      </trkpt>
      <trkpt lat="42.3649550" lon="-4.8854480">
        <ele>889.4</ele>
        <time>2020-04-05T18:29:03Z</time>
      </trkpt>
      <trkpt lat="42.3649330" lon="-4.8856440">
        <ele>889.6</ele>
        <time>2020-04-05T18:29:05Z</time>
      </trkpt>
      <trkpt lat="42.3649140" lon="-4.8858030">
        <ele>889.5</ele>
        <time>2020-04-05T18:29:07Z</time>
      </trkpt>
      <trkpt lat="42.3648950" lon="-4.8859580">
        <ele>889.4</ele>
        <time>2020-04-05T18:29:09Z</time>
      </trkpt>
      <trkpt lat="42.3648760" lon="-4.8861110">
        <ele>889.3</ele>
        <time>2020-04-05T18:29:11Z</time>
      </trkpt>
      <trkpt lat="42.3648290" lon="-4.8864950">
        <ele>889.2</ele>
        <time>2020-04-05T18:29:13Z</time>
      </trkpt>
      <trkpt lat="42.3648100" lon="-4.8866600">
        <ele>889.5</ele>
        <time>2020-04-05T18:29:15Z</time>
      </trkpt>
      <trkpt lat="42.3647920" lon="-4.8868100">
        <ele>889.7</ele>
        <time>2020-04-05T18:29:17Z</time>
      </trkpt>
      <trkpt lat="42.3647750" lon="-4.8869610">
        <ele>889.9</ele>
        <time>2020-04-05T18:29:19Z</time>
      </trkpt>
      <trkpt lat="42.3647350" lon="-4.8873110">
        <ele>890.5</ele>
        <time>2020-04-05T18:29:21Z</time>
      </trkpt>
      <trkpt lat="42.3647180" lon="-4.8874610">
        <ele>890.5</ele>
        <time>2020-04-05T18:29:23Z</time>
      </trkpt>
      <trkpt lat="42.3646910" lon="-4.8876980">
        <ele>890.4</ele>
        <time>2020-04-05T18:29:25Z</time>
      </trkpt>
      <trkpt lat="42.3646650" lon="-4.8879230">
        <ele>890.1</ele>
        <time>2020-04-05T18:29:27Z</time>
      </trkpt>
      <trkpt lat="42.3646470" lon="-4.8880800">
        <ele>889.9</ele>
        <time>2020-04-05T18:29:29Z</time>
      </trkpt>
      <trkpt lat="42.3646280" lon="-4.8882470">
        <ele>889.5</ele>
        <time>2020-04-05T18:29:31Z</time>
      </trkpt>
      <trkpt lat="42.3646080" lon="-4.8884240">
        <ele>889.0</ele>
        <time>2020-04-05T18:29:33Z</time>
      </trkpt>
      <trkpt lat="42.3645650" lon="-4.8888210">
        <ele>887.6</ele>
        <time>2020-04-05T18:29:35Z</time>
      </trkpt>
      <trkpt lat="42.3645480" lon="-4.8890160">
        <ele>887.2</ele>
        <time>2020-04-05T18:29:37Z</time>
      </trkpt>
      <trkpt lat="42.3645310" lon="-4.8892180">
        <ele>886.7</ele>
        <time>2020-04-05T18:29:39Z</time>
      </trkpt>
      <trkpt lat="42.3644950" lon="-4.8896520">
        <ele>884.9</ele>
        <time>2020-04-05T18:29:41Z</time>
      </trkpt>
      <trkpt lat="42.3644830" lon="-4.8898650">
        <ele>884.3</ele>
        <time>2020-04-05T18:29:43Z</time>
      </trkpt>
      <trkpt lat="42.3644690" lon="-4.8900860">
        <ele>883.6</ele>
        <time>2020-04-05T18:29:45Z</time>
      </trkpt>
      <trkpt lat="42.3644560" lon="-4.8903110">
        <ele>883.0</ele>
        <time>2020-04-05T18:29:47Z</time>
      </trkpt>
      <trkpt lat="42.3644240" lon="-4.8908560">
        <ele>881.5</ele>
        <time>2020-04-05T18:29:49Z</time>
      </trkpt>
      <trkpt lat="42.3644060" lon="-4.8911740">
        <ele>880.2</ele>
        <time>2020-04-05T18:29:51Z</time>
      </trkpt>
      <trkpt lat="42.3643930" lon="-4.8914190">
        <ele>879.2</ele>
        <time>2020-04-05T18:29:53Z</time>
      </trkpt>
      <trkpt lat="42.3643790" lon="-4.8916720">
        <ele>878.1</ele>
        <time>2020-04-05T18:29:55Z</time>
      </trkpt>
      <trkpt lat="42.3643530" lon="-4.8921620">
        <ele>875.8</ele>
        <time>2020-04-05T18:29:57Z</time>
      </trkpt>
      <trkpt lat="42.3643380" lon="-4.8924280">
        <ele>874.4</ele>
        <time>2020-04-05T18:29:59Z</time>
      </trkpt>
      <trkpt lat="42.3643140" lon="-4.8928580">
        <ele>872.5</ele>
        <time>2020-04-05T18:30:01Z</time>
      </trkpt>
      <trkpt lat="42.3642900" lon="-4.8932810">
        <ele>871.4</ele>
        <time>2020-04-05T18:30:03Z</time>
      </trkpt>
      <trkpt lat="42.3642750" lon="-4.8935390">
        <ele>870.8</ele>
        <time>2020-04-05T18:30:05Z</time>
      </trkpt>
      <trkpt lat="42.3642610" lon="-4.8937830">
        <ele>870.3</ele>
        <time>2020-04-05T18:30:07Z</time>
      </trkpt>
      <trkpt lat="42.3642480" lon="-4.8940110">
        <ele>869.8</ele>
        <time>2020-04-05T18:30:09Z</time>
      </trkpt>
      <trkpt lat="42.3642180" lon="-4.8945410">
        <ele>868.4</ele>
        <time>2020-04-05T18:30:11Z</time>
      </trkpt>
      <trkpt lat="42.3642060" lon="-4.8947470">
        <ele>867.8</ele>
        <time>2020-04-05T18:30:13Z</time>
      </trkpt>
      <trkpt lat="42.3641950" lon="-4.8949450">
        <ele>867.3</ele>
        <time>2020-04-05T18:30:15Z</time>
      </trkpt>
      <trkpt lat="42.3641840" lon="-4.8951370">
        <ele>866.8</ele>
        <time>2020-04-05T18:30:17Z</time>
      </trkpt>
      <trkpt lat="42.3641560" lon="-4.8956370">
        <ele>865.8</ele>
        <time>2020-04-05T18:30:19Z</time>
      </trkpt>
      <trkpt lat="42.3641460" lon="-4.8958230">
        <ele>865.6</ele>
        <time>2020-04-05T18:30:21Z</time>
      </trkpt>
      <trkpt lat="42.3641350" lon="-4.8960130">
        <ele>865.4</ele>
        <time>2020-04-05T18:30:23Z</time>
      </trkpt>
      <trkpt lat="42.3641240" lon="-4.8962020">
        <ele>865.2</ele>
        <time>2020-04-05T18:30:25Z</time>
      </trkpt>
      <trkpt lat="42.3641140" lon="-4.8963920">
        <ele>865.0</ele>
        <time>2020-04-05T18:30:27Z</time>
      </trkpt>
      <trkpt lat="42.3640850" lon="-4.8968970">
        <ele>864.2</ele>
        <time>2020-04-05T18:30:29Z</time>
      </trkpt>
      <trkpt lat="42.3640750" lon="-4.8970880">
        <ele>863.9</ele>
        <time>2020-04-05T18:30:31Z</time>
      </trkpt>
      <trkpt lat="42.3640550" lon="-4.8974400">
        <ele>863.4</ele>
        <time>2020-04-05T18:30:33Z</time>
      </trkpt>
      <trkpt lat="42.3640440" lon="-4.8976350">
        <ele>863.4</ele>
        <time>2020-04-05T18:30:35Z</time>
      </trkpt>
      <trkpt lat="42.3640240" lon="-4.8979850">
        <ele>863.4</ele>
        <time>2020-04-05T18:30:37Z</time>
      </trkpt>
      <trkpt lat="42.3640130" lon="-4.8981790">
        <ele>863.3</ele>
        <time>2020-04-05T18:30:39Z</time>
      </trkpt>
      <trkpt lat="42.3640020" lon="-4.8983690">
        <ele>863.1</ele>
        <time>2020-04-05T18:30:41Z</time>
      </trkpt>
      <trkpt lat="42.3639910" lon="-4.8985540">
        <ele>862.8</ele>
        <time>2020-04-05T18:30:43Z</time>
      </trkpt>
      <trkpt lat="42.3639810" lon="-4.8987390">
        <ele>862.6</ele>
        <time>2020-04-05T18:30:45Z</time>
      </trkpt>
      <trkpt lat="42.3639530" lon="-4.8992350">
        <ele>862.2</ele>
        <time>2020-04-05T18:30:47Z</time>
      </trkpt>
      <trkpt lat="42.3639430" lon="-4.8994180">
        <ele>862.0</ele>
        <time>2020-04-05T18:30:49Z</time>
      </trkpt>
      <trkpt lat="42.3639250" lon="-4.8997430">
        <ele>861.2</ele>
        <time>2020-04-05T18:30:51Z</time>
      </trkpt>
      <trkpt lat="42.3639140" lon="-4.8999270">
        <ele>860.3</ele>
        <time>2020-04-05T18:30:53Z</time>
      </trkpt>
      <trkpt lat="42.3639000" lon="-4.9001910">
        <ele>859.2</ele>
        <time>2020-04-05T18:30:55Z</time>
      </trkpt>
      <trkpt lat="42.3638850" lon="-4.9004580">
        <ele>858.9</ele>
        <time>2020-04-05T18:30:57Z</time>
      </trkpt>
      <trkpt lat="42.3638750" lon="-4.9006240">
        <ele>858.9</ele>
        <time>2020-04-05T18:30:59Z</time>
      </trkpt>
      <trkpt lat="42.3638670" lon="-4.9007780">
        <ele>858.8</ele>
        <time>2020-04-05T18:31:01Z</time>
      </trkpt>
      <trkpt lat="42.3638580" lon="-4.9009250">
        <ele>858.7</ele>
        <time>2020-04-05T18:31:03Z</time>
      </trkpt>
      <trkpt lat="42.3638510" lon="-4.9010670">
        <ele>858.6</ele>
        <time>2020-04-05T18:31:05Z</time>
      </trkpt>
      <trkpt lat="42.3638430" lon="-4.9012070">
        <ele>858.4</ele>
        <time>2020-04-05T18:31:07Z</time>
      </trkpt>
      <trkpt lat="42.3638170" lon="-4.9016600">
        <ele>857.8</ele>
        <time>2020-04-05T18:31:09Z</time>
      </trkpt>
      <trkpt lat="42.3638100" lon="-4.9017980">
        <ele>857.7</ele>
        <time>2020-04-05T18:31:11Z</time>
      </trkpt>
      <trkpt lat="42.3638020" lon="-4.9019410">
        <ele>857.7</ele>
        <time>2020-04-05T18:31:13Z</time>
      </trkpt>
      <trkpt lat="42.3637940" lon="-4.9020850">
        <ele>857.7</ele>
        <time>2020-04-05T18:31:15Z</time>
      </trkpt>
      <trkpt lat="42.3637860" lon="-4.9022310">
        <ele>857.6</ele>
        <time>2020-04-05T18:31:17Z</time>
      </trkpt>
      <trkpt lat="42.3637770" lon="-4.9023770">
        <ele>857.6</ele>
        <time>2020-04-05T18:31:19Z</time>
      </trkpt>
      <trkpt lat="42.3637520" lon="-4.9028380">
        <ele>857.5</ele>
        <time>2020-04-05T18:31:21Z</time>
      </trkpt>
      <trkpt lat="42.3637430" lon="-4.9030110">
        <ele>856.7</ele>
        <time>2020-04-05T18:31:23Z</time>
      </trkpt>
      <trkpt lat="42.3637340" lon="-4.9031620">
        <ele>856.0</ele>
        <time>2020-04-05T18:31:25Z</time>
      </trkpt>
      <trkpt lat="42.3637250" lon="-4.9033140">
        <ele>855.7</ele>
        <time>2020-04-05T18:31:27Z</time>
      </trkpt>
      <trkpt lat="42.3637170" lon="-4.9034670">
        <ele>855.5</ele>
        <time>2020-04-05T18:31:29Z</time>
      </trkpt>
      <trkpt lat="42.3637080" lon="-4.9036200">
        <ele>855.5</ele>
        <time>2020-04-05T18:31:31Z</time>
      </trkpt>
      <trkpt lat="42.3636830" lon="-4.9040670">
        <ele>855.4</ele>
        <time>2020-04-05T18:31:33Z</time>
      </trkpt>
      <trkpt lat="42.3636740" lon="-4.9042230">
        <ele>855.4</ele>
        <time>2020-04-05T18:31:35Z</time>
      </trkpt>
      <trkpt lat="42.3636650" lon="-4.9043790">
        <ele>855.4</ele>
        <time>2020-04-05T18:31:37Z</time>
      </trkpt>
      <trkpt lat="42.3636570" lon="-4.9045340">
        <ele>855.4</ele>
        <time>2020-04-05T18:31:39Z</time>
      </trkpt>
      <trkpt lat="42.3636480" lon="-4.9046920">
        <ele>855.4</ele>
        <time>2020-04-05T18:31:41Z</time>
      </trkpt>
      <trkpt lat="42.3636390" lon="-4.9048520">
        <ele>855.3</ele>
        <time>2020-04-05T18:31:43Z</time>
      </trkpt>
      <trkpt lat="42.3636130" lon="-4.9053260">
        <ele>854.8</ele>
        <time>2020-04-05T18:31:45Z</time>
      </trkpt>
      <trkpt lat="42.3636040" lon="-4.9054850">
        <ele>854.4</ele>
        <time>2020-04-05T18:31:47Z</time>
      </trkpt>
      <trkpt lat="42.3635950" lon="-4.9056460">
        <ele>854.3</ele>
        <time>2020-04-05T18:31:49Z</time>
      </trkpt>
      <trkpt lat="42.3635760" lon="-4.9059940">
        <ele>854.3</ele>
        <time>2020-04-05T18:31:51Z</time>
      </trkpt>
      <trkpt lat="42.3635670" lon="-4.9061540">
        <ele>854.3</ele>
        <time>2020-04-05T18:31:53Z</time>
      </trkpt>
      <trkpt lat="42.3635500" lon="-4.9064400">
        <ele>854.2</ele>
        <time>2020-04-05T18:31:55Z</time>
      </trkpt>
      <trkpt lat="42.3635410" lon="-4.9065970">
        <ele>854.2</ele>
        <time>2020-04-05T18:31:57Z</time>
      </trkpt>
      <trkpt lat="42.3635320" lon="-4.9067530">
        <ele>854.1</ele>
        <time>2020-04-05T18:31:59Z</time>
      </trkpt>
      <trkpt lat="42.3635230" lon="-4.9069110">
        <ele>854.0</ele>
        <time>2020-04-05T18:32:01Z</time>
      </trkpt>
      <trkpt lat="42.3635140" lon="-4.9070700">
        <ele>853.8</ele>
        <time>2020-04-05T18:32:03Z</time>
      </trkpt>
      <trkpt lat="42.3635050" lon="-4.9072330">
        <ele>853.6</ele>
        <time>2020-04-05T18:32:05Z</time>
      </trkpt>
      <trkpt lat="42.3634770" lon="-4.9077110">
        <ele>853.3</ele>
        <time>2020-04-05T18:32:07Z</time>
      </trkpt>
      <trkpt lat="42.3634680" lon="-4.9078790">
        <ele>853.3</ele>
        <time>2020-04-05T18:32:09Z</time>
      </trkpt>
      <trkpt lat="42.3634580" lon="-4.9080480">
        <ele>853.3</ele>
        <time>2020-04-05T18:32:11Z</time>
      </trkpt>
      <trkpt lat="42.3634480" lon="-4.9082180">
        <ele>853.3</ele>
        <time>2020-04-05T18:32:13Z</time>
      </trkpt>
      <trkpt lat="42.3634390" lon="-4.9083910">
        <ele>853.3</ele>
        <time>2020-04-05T18:32:15Z</time>
      </trkpt>
      <trkpt lat="42.3634110" lon="-4.9088760">
        <ele>852.9</ele>
        <time>2020-04-05T18:32:17Z</time>
      </trkpt>
      <trkpt lat="42.3634010" lon="-4.9090440">
        <ele>852.7</ele>
        <time>2020-04-05T18:32:19Z</time>
      </trkpt>
      <trkpt lat="42.3633920" lon="-4.9092060">
        <ele>852.5</ele>
        <time>2020-04-05T18:32:21Z</time>
      </trkpt>
      <trkpt lat="42.3633830" lon="-4.9093650">
        <ele>852.4</ele>
        <time>2020-04-05T18:32:23Z</time>
      </trkpt>
      <trkpt lat="42.3633740" lon="-4.9095200">
        <ele>852.4</ele>
        <time>2020-04-05T18:32:25Z</time>
      </trkpt>
      <trkpt lat="42.3633480" lon="-4.9099850">
        <ele>852.4</ele>
        <time>2020-04-05T18:32:27Z</time>
      </trkpt>
      <trkpt lat="42.3633390" lon="-4.9101330">
        <ele>852.6</ele>
        <time>2020-04-05T18:32:29Z</time>
      </trkpt>
      <trkpt lat="42.3633310" lon="-4.9102800">
        <ele>853.0</ele>
        <time>2020-04-05T18:32:31Z</time>
      </trkpt>
      <trkpt lat="42.3633220" lon="-4.9104220">
        <ele>853.3</ele>
        <time>2020-04-05T18:32:33Z</time>
      </trkpt>
      <trkpt lat="42.3633140" lon="-4.9105640">
        <ele>853.6</ele>
        <time>2020-04-05T18:32:35Z</time>
      </trkpt>
      <trkpt lat="42.3633060" lon="-4.9107030">
        <ele>854.0</ele>
        <time>2020-04-05T18:32:37Z</time>
      </trkpt>
      <trkpt lat="42.3632800" lon="-4.9111460">
        <ele>854.7</ele>
        <time>2020-04-05T18:32:39Z</time>
      </trkpt>
      <trkpt lat="42.3632720" lon="-4.9112840">
        <ele>855.0</ele>
        <time>2020-04-05T18:32:41Z</time>
      </trkpt>
      <trkpt lat="42.3632640" lon="-4.9114290">
        <ele>855.2</ele>
        <time>2020-04-05T18:32:43Z</time>
      </trkpt>
      <trkpt lat="42.3632550" lon="-4.9115780">
        <ele>855.3</ele>
        <time>2020-04-05T18:32:45Z</time>
      </trkpt>
      <trkpt lat="42.3632460" lon="-4.9117300">
        <ele>855.4</ele>
        <time>2020-04-05T18:32:47Z</time>
      </trkpt>
      <trkpt lat="42.3632370" lon="-4.9118870">
        <ele>855.4</ele>
        <time>2020-04-05T18:32:49Z</time>
      </trkpt>
      <trkpt lat="42.3632100" lon="-4.9123510">
        <ele>855.3</ele>
        <time>2020-04-05T18:32:51Z</time>
      </trkpt>
      <trkpt lat="42.3632010" lon="-4.9125140">
        <ele>855.1</ele>
        <time>2020-04-05T18:32:53Z</time>
      </trkpt>
      <trkpt lat="42.3631910" lon="-4.9126790">
        <ele>854.8</ele>
        <time>2020-04-05T18:32:55Z</time>
      </trkpt>
      <trkpt lat="42.3631820" lon="-4.9128470">
        <ele>854.5</ele>
        <time>2020-04-05T18:32:57Z</time>
      </trkpt>
      <trkpt lat="42.3631720" lon="-4.9130140">
        <ele>854.0</ele>
        <time>2020-04-05T18:32:59Z</time>
      </trkpt>
      <trkpt lat="42.3631450" lon="-4.9134920">
        <ele>852.5</ele>
        <time>2020-04-05T18:33:01Z</time>
      </trkpt>
      <trkpt lat="42.3631350" lon="-4.9136660">
        <ele>851.8</ele>
        <time>2020-04-05T18:33:03Z</time>
      </trkpt>
      <trkpt lat="42.3631240" lon="-4.9138430">
        <ele>851.2</ele>
        <time>2020-04-05T18:33:05Z</time>
      </trkpt>
      <trkpt lat="42.3631140" lon="-4.9140210">
        <ele>850.7</ele>
        <time>2020-04-05T18:33:07Z</time>
      </trkpt>
      <trkpt lat="42.3631030" lon="-4.9142030">
        <ele>850.5</ele>
        <time>2020-04-05T18:33:09Z</time>
      </trkpt>
      <trkpt lat="42.3630750" lon="-4.9146920">
        <ele>850.4</ele>
        <time>2020-04-05T18:33:11Z</time>
      </trkpt>
      <trkpt lat="42.3630640" lon="-4.9148780">
        <ele>850.4</ele>
        <time>2020-04-05T18:33:13Z</time>
      </trkpt>
      <trkpt lat="42.3630530" lon="-4.9150680">
        <ele>850.4</ele>
        <time>2020-04-05T18:33:15Z</time>
      </trkpt>
      <trkpt lat="42.3630420" lon="-4.9152630">
        <ele>850.5</ele>
        <time>2020-04-05T18:33:17Z</time>
      </trkpt>
      <trkpt lat="42.3630310" lon="-4.9154610">
        <ele>850.5</ele>
        <time>2020-04-05T18:33:19Z</time>
      </trkpt>
      <trkpt lat="42.3630020" lon="-4.9159630">
        <ele>850.5</ele>
        <time>2020-04-05T18:33:21Z</time>
      </trkpt>
      <trkpt lat="42.3629910" lon="-4.9161520">
        <ele>850.5</ele>
        <time>2020-04-05T18:33:23Z</time>
      </trkpt>
      <trkpt lat="42.3629800" lon="-4.9163330">
        <ele>850.5</ele>
        <time>2020-04-05T18:33:25Z</time>
      </trkpt>
      <trkpt lat="42.3629700" lon="-4.9165070">
        <ele>850.5</ele>
        <time>2020-04-05T18:33:27Z</time>
      </trkpt>
      <trkpt lat="42.3629430" lon="-4.9169790">
        <ele>851.0</ele>
        <time>2020-04-05T18:33:29Z</time>
      </trkpt>
      <trkpt lat="42.3629330" lon="-4.9171420">
        <ele>851.3</ele>
        <time>2020-04-05T18:33:31Z</time>
      </trkpt>
      <trkpt lat="42.3629250" lon="-4.9172990">
        <ele>851.7</ele>
        <time>2020-04-05T18:33:33Z</time>
      </trkpt>
      <trkpt lat="42.3629160" lon="-4.9174530">
        <ele>852.1</ele>
        <time>2020-04-05T18:33:35Z</time>
      </trkpt>
      <trkpt lat="42.3628970" lon="-4.9177790">
        <ele>853.1</ele>
        <time>2020-04-05T18:33:37Z</time>
      </trkpt>
      <trkpt lat="42.3628880" lon="-4.9179270">
        <ele>853.6</ele>
        <time>2020-04-05T18:33:39Z</time>
      </trkpt>
      <trkpt lat="42.3628720" lon="-4.9181980">
        <ele>854.6</ele>
        <time>2020-04-05T18:33:41Z</time>
      </trkpt>
      <trkpt lat="42.3628630" lon="-4.9183380">
        <ele>855.2</ele>
        <time>2020-04-05T18:33:43Z</time>
      </trkpt>
      <trkpt lat="42.3628550" lon="-4.9184740">
        <ele>855.7</ele>
        <time>2020-04-05T18:33:45Z</time>
      </trkpt>
      <trkpt lat="42.3628470" lon="-4.9186060">
        <ele>856.3</ele>
        <time>2020-04-05T18:33:47Z</time>
      </trkpt>
      <trkpt lat="42.3628390" lon="-4.9187360">
        <ele>856.8</ele>
        <time>2020-04-05T18:33:49Z</time>
      </trkpt>
      <trkpt lat="42.3628320" lon="-4.9188630">
        <ele>857.2</ele>
        <time>2020-04-05T18:33:51Z</time>
      </trkpt>
      <trkpt lat="42.3628240" lon="-4.9189890">
        <ele>857.6</ele>
        <time>2020-04-05T18:33:53Z</time>
      </trkpt>
      <trkpt lat="42.3627990" lon="-4.9194160">
        <ele>859.1</ele>
        <time>2020-04-05T18:33:55Z</time>
      </trkpt>
      <trkpt lat="42.3627870" lon="-4.9196150">
        <ele>859.6</ele>
        <time>2020-04-05T18:33:57Z</time>
      </trkpt>
      <trkpt lat="42.3627810" lon="-4.9197350">
        <ele>859.9</ele>
        <time>2020-04-05T18:33:59Z</time>
      </trkpt>
      <trkpt lat="42.3627700" lon="-4.9199300">
        <ele>860.5</ele>
        <time>2020-04-05T18:34:01Z</time>
      </trkpt>
      <trkpt lat="42.3627630" lon="-4.9200470">
        <ele>860.8</ele>
        <time>2020-04-05T18:34:03Z</time>
      </trkpt>
      <trkpt lat="42.3627570" lon="-4.9201650">
        <ele>861.1</ele>
        <time>2020-04-05T18:34:05Z</time>
      </trkpt>
      <trkpt lat="42.3627500" lon="-4.9202830">
        <ele>861.3</ele>
        <time>2020-04-05T18:34:07Z</time>
      </trkpt>
      <trkpt lat="42.3627350" lon="-4.9205500">
        <ele>861.4</ele>
        <time>2020-04-05T18:34:09Z</time>
      </trkpt>
      <trkpt lat="42.3627290" lon="-4.9206660">
        <ele>861.4</ele>
        <time>2020-04-05T18:34:11Z</time>
      </trkpt>
      <trkpt lat="42.3627220" lon="-4.9207800">
        <ele>861.4</ele>
        <time>2020-04-05T18:34:13Z</time>
      </trkpt>
      <trkpt lat="42.3627080" lon="-4.9210370">
        <ele>861.5</ele>
        <time>2020-04-05T18:34:15Z</time>
      </trkpt>
      <trkpt lat="42.3627020" lon="-4.9211510">
        <ele>861.8</ele>
        <time>2020-04-05T18:34:17Z</time>
      </trkpt>
      <trkpt lat="42.3626950" lon="-4.9212650">
        <ele>862.1</ele>
        <time>2020-04-05T18:34:19Z</time>
      </trkpt>
      <trkpt lat="42.3626880" lon="-4.9213790">
        <ele>862.5</ele>
        <time>2020-04-05T18:34:21Z</time>
      </trkpt>
      <trkpt lat="42.3626710" lon="-4.9216540">
        <ele>863.2</ele>
        <time>2020-04-05T18:34:23Z</time>
      </trkpt>
      <trkpt lat="42.3626640" lon="-4.9217840">
        <ele>863.5</ele>
        <time>2020-04-05T18:34:25Z</time>
      </trkpt>
      <trkpt lat="42.3626570" lon="-4.9219040">
        <ele>863.7</ele>
        <time>2020-04-05T18:34:27Z</time>
      </trkpt>
      <trkpt lat="42.3626500" lon="-4.9220270">
        <ele>864.0</ele>
        <time>2020-04-05T18:34:29Z</time>
      </trkpt>
      <trkpt lat="42.3626420" lon="-4.9221530">
        <ele>864.2</ele>
        <time>2020-04-05T18:34:31Z</time>
      </trkpt>
      <trkpt lat="42.3626350" lon="-4.9222800">
        <ele>864.5</ele>
        <time>2020-04-05T18:34:33Z</time>
      </trkpt>
      <trkpt lat="42.3626270" lon="-4.9224100">
        <ele>864.7</ele>
        <time>2020-04-05T18:34:35Z</time>
      </trkpt>
      <trkpt lat="42.3626030" lon="-4.9228310">
        <ele>865.6</ele>
        <time>2020-04-05T18:34:37Z</time>
      </trkpt>
      <trkpt lat="42.3625950" lon="-4.9229620">
        <ele>865.9</ele>
        <time>2020-04-05T18:34:39Z</time>
      </trkpt>
      <trkpt lat="42.3625870" lon="-4.9230960">
        <ele>866.1</ele>
        <time>2020-04-05T18:34:41Z</time>
      </trkpt>
      <trkpt lat="42.3625800" lon="-4.9232300">
        <ele>866.4</ele>
        <time>2020-04-05T18:34:43Z</time>
      </trkpt>
      <trkpt lat="42.3625720" lon="-4.9233650">
        <ele>866.6</ele>
        <time>2020-04-05T18:34:45Z</time>
      </trkpt>
      <trkpt lat="42.3625640" lon="-4.9235000">
        <ele>866.9</ele>
        <time>2020-04-05T18:34:47Z</time>
      </trkpt>
      <trkpt lat="42.3625560" lon="-4.9236350">
        <ele>867.1</ele>
        <time>2020-04-05T18:34:49Z</time>
      </trkpt>
      <trkpt lat="42.3625300" lon="-4.9240770">
        <ele>867.9</ele>
        <time>2020-04-05T18:34:51Z</time>
      </trkpt>
      <trkpt lat="42.3625220" lon="-4.9242160">
        <ele>868.2</ele>
        <time>2020-04-05T18:34:53Z</time>
      </trkpt>
      <trkpt lat="42.3625140" lon="-4.9243560">
        <ele>868.5</ele>
        <time>2020-04-05T18:34:55Z</time>
      </trkpt>
      <trkpt lat="42.3625060" lon="-4.9244950">
        <ele>868.7</ele>
        <time>2020-04-05T18:34:57Z</time>
      </trkpt>
      <trkpt lat="42.3624870" lon="-4.9248260">
        <ele>869.1</ele>
        <time>2020-04-05T18:34:59Z</time>
      </trkpt>
      <trkpt lat="42.3624790" lon="-4.9249650">
        <ele>869.1</ele>
        <time>2020-04-05T18:35:01Z</time>
      </trkpt>
      <trkpt lat="42.3624640" lon="-4.9252140">
        <ele>869.0</ele>
        <time>2020-04-05T18:35:03Z</time>
      </trkpt>
      <trkpt lat="42.3624570" lon="-4.9253460">
        <ele>868.9</ele>
        <time>2020-04-05T18:35:05Z</time>
      </trkpt>
      <trkpt lat="42.3624450" lon="-4.9255640">
        <ele>868.9</ele>
        <time>2020-04-05T18:35:07Z</time>
      </trkpt>
      <trkpt lat="42.3624370" lon="-4.9256930">
        <ele>869.2</ele>
        <time>2020-04-05T18:35:09Z</time>
      </trkpt>
      <trkpt lat="42.3624290" lon="-4.9258280">
        <ele>869.6</ele>
        <time>2020-04-05T18:35:11Z</time>
      </trkpt>
      <trkpt lat="42.3624210" lon="-4.9259660">
        <ele>869.7</ele>
        <time>2020-04-05T18:35:13Z</time>
      </trkpt>
      <trkpt lat="42.3624010" lon="-4.9263210">
        <ele>869.8</ele>
        <time>2020-04-05T18:35:15Z</time>
      </trkpt>
      <trkpt lat="42.3623930" lon="-4.9264630">
        <ele>869.8</ele>
        <time>2020-04-05T18:35:17Z</time>
      </trkpt>
      <trkpt lat="42.3623840" lon="-4.9266070">
        <ele>869.7</ele>
        <time>2020-04-05T18:35:19Z</time>
      </trkpt>
      <trkpt lat="42.3623760" lon="-4.9267550">
        <ele>869.6</ele>
        <time>2020-04-05T18:35:21Z</time>
      </trkpt>
      <trkpt lat="42.3623580" lon="-4.9270760">
        <ele>869.3</ele>
        <time>2020-04-05T18:35:23Z</time>
      </trkpt>
      <trkpt lat="42.3623500" lon="-4.9272270">
        <ele>869.1</ele>
        <time>2020-04-05T18:35:25Z</time>
      </trkpt>
      <trkpt lat="42.3623360" lon="-4.9275090">
        <ele>868.7</ele>
        <time>2020-04-05T18:35:27Z</time>
      </trkpt>
      <trkpt lat="42.3623280" lon="-4.9276650">
        <ele>868.6</ele>
        <time>2020-04-05T18:35:29Z</time>
      </trkpt>
      <trkpt lat="42.3623200" lon="-4.9278250">
        <ele>868.6</ele>
        <time>2020-04-05T18:35:31Z</time>
      </trkpt>
      <trkpt lat="42.3623110" lon="-4.9279920">
        <ele>868.6</ele>
        <time>2020-04-05T18:35:33Z</time>
      </trkpt>
      <trkpt lat="42.3623030" lon="-4.9281620">
        <ele>868.6</ele>
        <time>2020-04-05T18:35:35Z</time>
      </trkpt>
      <trkpt lat="42.3622790" lon="-4.9286370">
        <ele>868.0</ele>
        <time>2020-04-05T18:35:37Z</time>
      </trkpt>
      <trkpt lat="42.3622840" lon="-4.9288180">
        <ele>867.1</ele>
        <time>2020-04-05T18:35:39Z</time>
      </trkpt>
      <trkpt lat="42.3623060" lon="-4.9290560">
        <ele>865.9</ele>
        <time>2020-04-05T18:35:41Z</time>
      </trkpt>
      <trkpt lat="42.3623420" lon="-4.9293070">
        <ele>865.0</ele>
        <time>2020-04-05T18:35:43Z</time>
      </trkpt>
      <trkpt lat="42.3623700" lon="-4.9294930">
        <ele>864.4</ele>
        <time>2020-04-05T18:35:45Z</time>
      </trkpt>
      <trkpt lat="42.3624220" lon="-4.9298230">
        <ele>863.9</ele>
        <time>2020-04-05T18:35:47Z</time>
      </trkpt>
      <trkpt lat="42.3624530" lon="-4.9300160">
        <ele>863.8</ele>
        <time>2020-04-05T18:35:49Z</time>
      </trkpt>
      <trkpt lat="42.3625090" lon="-4.9303640">
        <ele>863.7</ele>
        <time>2020-04-05T18:35:51Z</time>
      </trkpt>
      <trkpt lat="42.3625460" lon="-4.9305920">
        <ele>863.7</ele>
        <time>2020-04-05T18:35:53Z</time>
      </trkpt>
      <trkpt lat="42.3625760" lon="-4.9307770">
        <ele>863.7</ele>
        <time>2020-04-05T18:35:55Z</time>
      </trkpt>
      <trkpt lat="42.3626050" lon="-4.9309560">
        <ele>863.7</ele>
        <time>2020-04-05T18:35:57Z</time>
      </trkpt>
      <trkpt lat="42.3626330" lon="-4.9311280">
        <ele>863.7</ele>
        <time>2020-04-05T18:35:59Z</time>
      </trkpt>
      <trkpt lat="42.3627030" lon="-4.9315510">
        <ele>864.0</ele>
        <time>2020-04-05T18:36:01Z</time>
      </trkpt>
      <trkpt lat="42.3627290" lon="-4.9317120">
        <ele>864.3</ele>
        <time>2020-04-05T18:36:03Z</time>
      </trkpt>
      <trkpt lat="42.3627540" lon="-4.9318670">
        <ele>864.5</ele>
        <time>2020-04-05T18:36:05Z</time>
      </trkpt>
      <trkpt lat="42.3627790" lon="-4.9320190">
        <ele>864.7</ele>
        <time>2020-04-05T18:36:07Z</time>
      </trkpt>
      <trkpt lat="42.3628030" lon="-4.9321660">
        <ele>864.9</ele>
        <time>2020-04-05T18:36:09Z</time>
      </trkpt>
      <trkpt lat="42.3628740" lon="-4.9326020">
        <ele>865.6</ele>
        <time>2020-04-05T18:36:11Z</time>
      </trkpt>
      <trkpt lat="42.3628970" lon="-4.9327390">
        <ele>865.8</ele>
        <time>2020-04-05T18:36:13Z</time>
      </trkpt>
      <trkpt lat="42.3629190" lon="-4.9328700">
        <ele>866.0</ele>
        <time>2020-04-05T18:36:15Z</time>
      </trkpt>
      <trkpt lat="42.3629390" lon="-4.9329950">
        <ele>866.2</ele>
        <time>2020-04-05T18:36:17Z</time>
      </trkpt>
      <trkpt lat="42.3629590" lon="-4.9331170">
        <ele>866.4</ele>
        <time>2020-04-05T18:36:19Z</time>
      </trkpt>
      <trkpt lat="42.3630180" lon="-4.9334750">
        <ele>866.9</ele>
        <time>2020-04-05T18:36:21Z</time>
      </trkpt>
      <trkpt lat="42.3630450" lon="-4.9336480">
        <ele>867.2</ele>
        <time>2020-04-05T18:36:23Z</time>
      </trkpt>
      <trkpt lat="42.3630640" lon="-4.9337640">
        <ele>867.4</ele>
        <time>2020-04-05T18:36:25Z</time>
      </trkpt>
      <trkpt lat="42.3630830" lon="-4.9338800">
        <ele>867.6</ele>
        <time>2020-04-05T18:36:27Z</time>
      </trkpt>
      <trkpt lat="42.3631010" lon="-4.9339950">
        <ele>867.8</ele>
        <time>2020-04-05T18:36:29Z</time>
      </trkpt>
      <trkpt lat="42.3631190" lon="-4.9341110">
        <ele>868.0</ele>
        <time>2020-04-05T18:36:31Z</time>
      </trkpt>
      <trkpt lat="42.3631710" lon="-4.9344330">
        <ele>868.5</ele>
        <time>2020-04-05T18:36:33Z</time>
      </trkpt>
      <trkpt lat="42.3631900" lon="-4.9345480">
        <ele>868.6</ele>
        <time>2020-04-05T18:36:35Z</time>
      </trkpt>
      <trkpt lat="42.3632240" lon="-4.9347520">
        <ele>868.6</ele>
        <time>2020-04-05T18:36:37Z</time>
      </trkpt>
      <trkpt lat="42.3632430" lon="-4.9348710">
        <ele>868.6</ele>
        <time>2020-04-05T18:36:39Z</time>
      </trkpt>
      <trkpt lat="42.3632630" lon="-4.9349920">
        <ele>868.6</ele>
        <time>2020-04-05T18:36:41Z</time>
      </trkpt>
      <trkpt lat="42.3632840" lon="-4.9351150">
        <ele>868.7</ele>
        <time>2020-04-05T18:36:43Z</time>
      </trkpt>
      <trkpt lat="42.3633040" lon="-4.9352370">
        <ele>868.9</ele>
        <time>2020-04-05T18:36:45Z</time>
      </trkpt>
      <trkpt lat="42.3633240" lon="-4.9353580">
        <ele>869.1</ele>
        <time>2020-04-05T18:36:47Z</time>
      </trkpt>
      <trkpt lat="42.3633440" lon="-4.9354800">
        <ele>869.3</ele>
        <time>2020-04-05T18:36:49Z</time>
      </trkpt>
      <trkpt lat="42.3634130" lon="-4.9358960">
        <ele>870.1</ele>
        <time>2020-04-05T18:36:51Z</time>
      </trkpt>
      <trkpt lat="42.3634330" lon="-4.9360210">
        <ele>870.3</ele>
        <time>2020-04-05T18:36:53Z</time>
      </trkpt>
      <trkpt lat="42.3634550" lon="-4.9361490">
        <ele>870.4</ele>
        <time>2020-04-05T18:36:55Z</time>
      </trkpt>
      <trkpt lat="42.3634760" lon="-4.9362820">
        <ele>870.5</ele>
        <time>2020-04-05T18:36:57Z</time>
      </trkpt>
      <trkpt lat="42.3634990" lon="-4.9364180">
        <ele>870.5</ele>
        <time>2020-04-05T18:36:59Z</time>
      </trkpt>
      <trkpt lat="42.3635220" lon="-4.9365590">
        <ele>870.5</ele>
        <time>2020-04-05T18:37:01Z</time>
      </trkpt>
      <trkpt lat="42.3635940" lon="-4.9369910">
        <ele>870.5</ele>
        <time>2020-04-05T18:37:03Z</time>
      </trkpt>
      <trkpt lat="42.3636170" lon="-4.9371310">
        <ele>870.5</ele>
        <time>2020-04-05T18:37:05Z</time>
      </trkpt>
      <trkpt lat="42.3636400" lon="-4.9372720">
        <ele>870.5</ele>
        <time>2020-04-05T18:37:07Z</time>
      </trkpt>
      <trkpt lat="42.3636620" lon="-4.9374070">
        <ele>870.5</ele>
        <time>2020-04-05T18:37:09Z</time>
      </trkpt>
      <trkpt lat="42.3636850" lon="-4.9375430">
        <ele>870.5</ele>
        <time>2020-04-05T18:37:11Z</time>
      </trkpt>
      <trkpt lat="42.3637070" lon="-4.9376780">
        <ele>870.5</ele>
        <time>2020-04-05T18:37:13Z</time>
      </trkpt>
      <trkpt lat="42.3637770" lon="-4.9381010">
        <ele>870.5</ele>
        <time>2020-04-05T18:37:15Z</time>
      </trkpt>
      <trkpt lat="42.3637960" lon="-4.9382380">
        <ele>870.5</ele>
        <time>2020-04-05T18:37:17Z</time>
      </trkpt>
      <trkpt lat="42.3638150" lon="-4.9383770">
        <ele>870.4</ele>
        <time>2020-04-05T18:37:19Z</time>
      </trkpt>
      <trkpt lat="42.3638340" lon="-4.9385210">
        <ele>870.2</ele>
        <time>2020-04-05T18:37:21Z</time>
      </trkpt>
      <trkpt lat="42.3638540" lon="-4.9386670">
        <ele>869.9</ele>
        <time>2020-04-05T18:37:23Z</time>
      </trkpt>
      <trkpt lat="42.3638740" lon="-4.9388180">
        <ele>869.5</ele>
        <time>2020-04-05T18:37:25Z</time>
      </trkpt>
      <trkpt lat="42.3639340" lon="-4.9392610">
        <ele>868.5</ele>
        <time>2020-04-05T18:37:27Z</time>
      </trkpt>
      <trkpt lat="42.3639560" lon="-4.9394190">
        <ele>868.0</ele>
        <time>2020-04-05T18:37:29Z</time>
      </trkpt>
      <trkpt lat="42.3639780" lon="-4.9395790">
        <ele>867.6</ele>
        <time>2020-04-05T18:37:31Z</time>
      </trkpt>
      <trkpt lat="42.3639990" lon="-4.9397400">
        <ele>867.0</ele>
        <time>2020-04-05T18:37:33Z</time>
      </trkpt>
      <trkpt lat="42.3640220" lon="-4.9399050">
        <ele>866.5</ele>
        <time>2020-04-05T18:37:35Z</time>
      </trkpt>
      <trkpt lat="42.3640840" lon="-4.9403610">
        <ele>864.8</ele>
        <time>2020-04-05T18:37:37Z</time>
      </trkpt>
      <trkpt lat="42.3641080" lon="-4.9405360">
        <ele>864.3</ele>
        <time>2020-04-05T18:37:39Z</time>
      </trkpt>
      <trkpt lat="42.3641330" lon="-4.9407230">
        <ele>863.7</ele>
        <time>2020-04-05T18:37:41Z</time>
      </trkpt>
      <trkpt lat="42.3641600" lon="-4.9409190">
        <ele>863.0</ele>
        <time>2020-04-05T18:37:43Z</time>
      </trkpt>
      <trkpt lat="42.3641880" lon="-4.9411250">
        <ele>862.4</ele>
        <time>2020-04-05T18:37:46Z</time>
      </trkpt>
      <trkpt lat="42.3642570" lon="-4.9416280">
        <ele>861.0</ele>
        <time>2020-04-05T18:37:48Z</time>
      </trkpt>
      <trkpt lat="42.3643020" lon="-4.9419600">
        <ele>860.1</ele>
        <time>2020-04-05T18:37:50Z</time>
      </trkpt>
      <trkpt lat="42.3643330" lon="-4.9421880">
        <ele>859.5</ele>
        <time>2020-04-05T18:37:52Z</time>
      </trkpt>
      <trkpt lat="42.3643890" lon="-4.9425960">
        <ele>858.2</ele>
        <time>2020-04-05T18:37:54Z</time>
      </trkpt>
      <trkpt lat="42.3644200" lon="-4.9428260">
        <ele>857.4</ele>
        <time>2020-04-05T18:37:56Z</time>
      </trkpt>
      <trkpt lat="42.3644510" lon="-4.9430520">
        <ele>856.5</ele>
        <time>2020-04-05T18:37:58Z</time>
      </trkpt>
      <trkpt lat="42.3644810" lon="-4.9432720">
        <ele>855.8</ele>
        <time>2020-04-05T18:38:00Z</time>
      </trkpt>
      <trkpt lat="42.3645510" lon="-4.9437820">
        <ele>854.3</ele>
        <time>2020-04-05T18:38:02Z</time>
      </trkpt>
      <trkpt lat="42.3645810" lon="-4.9440020">
        <ele>853.6</ele>
        <time>2020-04-05T18:38:04Z</time>
      </trkpt>
      <trkpt lat="42.3646110" lon="-4.9442190">
        <ele>852.9</ele>
        <time>2020-04-05T18:38:06Z</time>
      </trkpt>
      <trkpt lat="42.3646410" lon="-4.9444360">
        <ele>852.4</ele>
        <time>2020-04-05T18:38:08Z</time>
      </trkpt>
      <trkpt lat="42.3647100" lon="-4.9449390">
        <ele>851.6</ele>
        <time>2020-04-05T18:38:10Z</time>
      </trkpt>
      <trkpt lat="42.3647370" lon="-4.9451400">
        <ele>851.5</ele>
        <time>2020-04-05T18:38:12Z</time>
      </trkpt>
      <trkpt lat="42.3647630" lon="-4.9453320">
        <ele>851.4</ele>
        <time>2020-04-05T18:38:14Z</time>
      </trkpt>
      <trkpt lat="42.3647890" lon="-4.9455190">
        <ele>851.2</ele>
        <time>2020-04-05T18:38:16Z</time>
      </trkpt>
      <trkpt lat="42.3648540" lon="-4.9459910">
        <ele>850.6</ele>
        <time>2020-04-05T18:38:18Z</time>
      </trkpt>
      <trkpt lat="42.3648870" lon="-4.9462390">
        <ele>850.6</ele>
        <time>2020-04-05T18:38:20Z</time>
      </trkpt>
      <trkpt lat="42.3649120" lon="-4.9464210">
        <ele>850.6</ele>
        <time>2020-04-05T18:38:22Z</time>
      </trkpt>
      <trkpt lat="42.3649360" lon="-4.9466050">
        <ele>850.5</ele>
        <time>2020-04-05T18:38:24Z</time>
      </trkpt>
      <trkpt lat="42.3649910" lon="-4.9470120">
        <ele>850.2</ele>
        <time>2020-04-05T18:38:26Z</time>
      </trkpt>
      <trkpt lat="42.3650160" lon="-4.9471990">
        <ele>849.7</ele>
        <time>2020-04-05T18:38:28Z</time>
      </trkpt>
      <trkpt lat="42.3650410" lon="-4.9473840">
        <ele>849.2</ele>
        <time>2020-04-05T18:38:30Z</time>
      </trkpt>
      <trkpt lat="42.3650660" lon="-4.9475720">
        <ele>848.8</ele>
        <time>2020-04-05T18:38:32Z</time>
      </trkpt>
      <trkpt lat="42.3650910" lon="-4.9477600">
        <ele>848.7</ele>
        <time>2020-04-05T18:38:34Z</time>
      </trkpt>
      <trkpt lat="42.3651550" lon="-4.9482320">
        <ele>848.6</ele>
        <time>2020-04-05T18:38:36Z</time>
      </trkpt>
      <trkpt lat="42.3651790" lon="-4.9484120">
        <ele>848.6</ele>
        <time>2020-04-05T18:38:38Z</time>
      </trkpt>
      <trkpt lat="42.3652020" lon="-4.9485850">
        <ele>848.6</ele>
        <time>2020-04-05T18:38:40Z</time>
      </trkpt>
      <trkpt lat="42.3652250" lon="-4.9487510">
        <ele>848.7</ele>
        <time>2020-04-05T18:38:42Z</time>
      </trkpt>
      <trkpt lat="42.3652820" lon="-4.9492020">
        <ele>848.6</ele>
        <time>2020-04-05T18:38:44Z</time>
      </trkpt>
      <trkpt lat="42.3652920" lon="-4.9493600">
        <ele>848.6</ele>
        <time>2020-04-05T18:38:46Z</time>
      </trkpt>
      <trkpt lat="42.3653050" lon="-4.9496210">
        <ele>848.4</ele>
        <time>2020-04-05T18:38:48Z</time>
      </trkpt>
      <trkpt lat="42.3653010" lon="-4.9498140">
        <ele>848.2</ele>
        <time>2020-04-05T18:38:50Z</time>
      </trkpt>
      <trkpt lat="42.3652860" lon="-4.9500060">
        <ele>848.2</ele>
        <time>2020-04-05T18:38:52Z</time>
      </trkpt>
      <trkpt lat="42.3652720" lon="-4.9501590">
        <ele>848.2</ele>
        <time>2020-04-05T18:38:54Z</time>
      </trkpt>
      <trkpt lat="42.3652580" lon="-4.9503170">
        <ele>848.2</ele>
        <time>2020-04-05T18:38:56Z</time>
      </trkpt>
      <trkpt lat="42.3652440" lon="-4.9504800">
        <ele>848.2</ele>
        <time>2020-04-05T18:38:58Z</time>
      </trkpt>
      <trkpt lat="42.3652060" lon="-4.9509150">
        <ele>848.0</ele>
        <time>2020-04-05T18:39:00Z</time>
      </trkpt>
      <trkpt lat="42.3651910" lon="-4.9510850">
        <ele>847.8</ele>
        <time>2020-04-05T18:39:02Z</time>
      </trkpt>
      <trkpt lat="42.3651760" lon="-4.9512570">
        <ele>847.5</ele>
        <time>2020-04-05T18:39:04Z</time>
      </trkpt>
      <trkpt lat="42.3651600" lon="-4.9514340">
        <ele>847.2</ele>
        <time>2020-04-05T18:39:06Z</time>
      </trkpt>
      <trkpt lat="42.3651270" lon="-4.9518090">
        <ele>846.3</ele>
        <time>2020-04-05T18:39:08Z</time>
      </trkpt>
      <trkpt lat="42.3651110" lon="-4.9519930">
        <ele>845.7</ele>
        <time>2020-04-05T18:39:10Z</time>
      </trkpt>
      <trkpt lat="42.3650940" lon="-4.9521820">
        <ele>845.1</ele>
        <time>2020-04-05T18:39:12Z</time>
      </trkpt>
      <trkpt lat="42.3650630" lon="-4.9526080">
        <ele>844.0</ele>
        <time>2020-04-05T18:39:14Z</time>
      </trkpt>
      <trkpt lat="42.3650620" lon="-4.9528050">
        <ele>843.5</ele>
        <time>2020-04-05T18:39:16Z</time>
      </trkpt>
      <trkpt lat="42.3650610" lon="-4.9531430">
        <ele>842.4</ele>
        <time>2020-04-05T18:39:18Z</time>
      </trkpt>
      <trkpt lat="42.3650600" lon="-4.9533460">
        <ele>841.9</ele>
        <time>2020-04-05T18:39:20Z</time>
      </trkpt>
      <trkpt lat="42.3650580" lon="-4.9536950">
        <ele>841.2</ele>
        <time>2020-04-05T18:39:22Z</time>
      </trkpt>
      <trkpt lat="42.3650570" lon="-4.9538970">
        <ele>840.8</ele>
        <time>2020-04-05T18:39:24Z</time>
      </trkpt>
      <trkpt lat="42.3650560" lon="-4.9540990">
        <ele>840.4</ele>
        <time>2020-04-05T18:39:26Z</time>
      </trkpt>
      <trkpt lat="42.3650530" lon="-4.9545020">
        <ele>840.2</ele>
        <time>2020-04-05T18:39:28Z</time>
      </trkpt>
      <trkpt lat="42.3650490" lon="-4.9547890">
        <ele>840.6</ele>
        <time>2020-04-05T18:39:30Z</time>
      </trkpt>
      <trkpt lat="42.3650500" lon="-4.9549840">
        <ele>840.7</ele>
        <time>2020-04-05T18:39:32Z</time>
      </trkpt>
      <trkpt lat="42.3650510" lon="-4.9551680">
        <ele>840.8</ele>
        <time>2020-04-05T18:39:34Z</time>
      </trkpt>
      <trkpt lat="42.3650520" lon="-4.9555080">
        <ele>841.2</ele>
        <time>2020-04-05T18:39:36Z</time>
      </trkpt>
      <trkpt lat="42.3650530" lon="-4.9556810">
        <ele>841.5</ele>
        <time>2020-04-05T18:39:38Z</time>
      </trkpt>
      <trkpt lat="42.3650540" lon="-4.9559730">
        <ele>841.9</ele>
        <time>2020-04-05T18:39:40Z</time>
      </trkpt>
      <trkpt lat="42.3650530" lon="-4.9561930">
        <ele>842.2</ele>
        <time>2020-04-05T18:39:42Z</time>
      </trkpt>
      <trkpt lat="42.3650510" lon="-4.9563550">
        <ele>842.4</ele>
        <time>2020-04-05T18:39:44Z</time>
      </trkpt>
      <trkpt lat="42.3650490" lon="-4.9565140">
        <ele>842.7</ele>
        <time>2020-04-05T18:39:46Z</time>
      </trkpt>
      <trkpt lat="42.3650480" lon="-4.9566690">
        <ele>843.0</ele>
        <time>2020-04-05T18:39:48Z</time>
      </trkpt>
      <trkpt lat="42.3650440" lon="-4.9570540">
        <ele>843.7</ele>
        <time>2020-04-05T18:39:50Z</time>
      </trkpt>
      <trkpt lat="42.3650420" lon="-4.9572060">
        <ele>844.0</ele>
        <time>2020-04-05T18:39:52Z</time>
      </trkpt>
      <trkpt lat="42.3650410" lon="-4.9573540">
        <ele>844.3</ele>
        <time>2020-04-05T18:39:54Z</time>
      </trkpt>
      <trkpt lat="42.3650390" lon="-4.9575020">
        <ele>844.7</ele>
        <time>2020-04-05T18:39:56Z</time>
      </trkpt>
      <trkpt lat="42.3650380" lon="-4.9576480">
        <ele>845.0</ele>
        <time>2020-04-05T18:39:58Z</time>
      </trkpt>
      <trkpt lat="42.3650340" lon="-4.9580780">
        <ele>846.1</ele>
        <time>2020-04-05T18:40:00Z</time>
      </trkpt>
      <trkpt lat="42.3650320" lon="-4.9582190">
        <ele>846.5</ele>
        <time>2020-04-05T18:40:02Z</time>
      </trkpt>
      <trkpt lat="42.3650310" lon="-4.9583580">
        <ele>846.8</ele>
        <time>2020-04-05T18:40:04Z</time>
      </trkpt>
      <trkpt lat="42.3650290" lon="-4.9584940">
        <ele>847.1</ele>
        <time>2020-04-05T18:40:06Z</time>
      </trkpt>
      <trkpt lat="42.3650260" lon="-4.9588380">
        <ele>847.8</ele>
        <time>2020-04-05T18:40:08Z</time>
      </trkpt>
      <trkpt lat="42.3650300" lon="-4.9589700">
        <ele>848.1</ele>
        <time>2020-04-05T18:40:10Z</time>
      </trkpt>
      <trkpt lat="42.3650360" lon="-4.9591770">
        <ele>848.5</ele>
        <time>2020-04-05T18:40:12Z</time>
      </trkpt>
      <trkpt lat="42.3650400" lon="-4.9593080">
        <ele>848.7</ele>
        <time>2020-04-05T18:40:14Z</time>
      </trkpt>
      <trkpt lat="42.3650510" lon="-4.9595060">
        <ele>848.9</ele>
        <time>2020-04-05T18:40:16Z</time>
      </trkpt>
      <trkpt lat="42.3650610" lon="-4.9596420">
        <ele>849.1</ele>
        <time>2020-04-05T18:40:18Z</time>
      </trkpt>
      <trkpt lat="42.3650710" lon="-4.9597820">
        <ele>849.3</ele>
        <time>2020-04-05T18:40:20Z</time>
      </trkpt>
      <trkpt lat="42.3650820" lon="-4.9599260">
        <ele>849.5</ele>
        <time>2020-04-05T18:40:22Z</time>
      </trkpt>
      <trkpt lat="42.3651090" lon="-4.9603030">
        <ele>850.0</ele>
        <time>2020-04-05T18:40:24Z</time>
      </trkpt>
      <trkpt lat="42.3651210" lon="-4.9604530">
        <ele>850.3</ele>
        <time>2020-04-05T18:40:26Z</time>
      </trkpt>
      <trkpt lat="42.3651320" lon="-4.9606040">
        <ele>850.5</ele>
        <time>2020-04-05T18:40:28Z</time>
      </trkpt>
      <trkpt lat="42.3651430" lon="-4.9607570">
        <ele>850.6</ele>
        <time>2020-04-05T18:40:30Z</time>
      </trkpt>
      <trkpt lat="42.3651550" lon="-4.9609130">
        <ele>850.7</ele>
        <time>2020-04-05T18:40:32Z</time>
      </trkpt>
      <trkpt lat="42.3651870" lon="-4.9613440">
        <ele>850.7</ele>
        <time>2020-04-05T18:40:34Z</time>
      </trkpt>
      <trkpt lat="42.3651990" lon="-4.9615270">
        <ele>850.8</ele>
        <time>2020-04-05T18:40:36Z</time>
      </trkpt>
      <trkpt lat="42.3652110" lon="-4.9616870">
        <ele>851.0</ele>
        <time>2020-04-05T18:40:38Z</time>
      </trkpt>
      <trkpt lat="42.3652220" lon="-4.9618480">
        <ele>851.2</ele>
        <time>2020-04-05T18:40:40Z</time>
      </trkpt>
      <trkpt lat="42.3652340" lon="-4.9620090">
        <ele>851.4</ele>
        <time>2020-04-05T18:40:42Z</time>
      </trkpt>
      <trkpt lat="42.3652460" lon="-4.9621730">
        <ele>851.6</ele>
        <time>2020-04-05T18:40:44Z</time>
      </trkpt>
      <trkpt lat="42.3652790" lon="-4.9626360">
        <ele>852.2</ele>
        <time>2020-04-05T18:40:46Z</time>
      </trkpt>
      <trkpt lat="42.3652910" lon="-4.9628000">
        <ele>852.5</ele>
        <time>2020-04-05T18:40:48Z</time>
      </trkpt>
      <trkpt lat="42.3653020" lon="-4.9629630">
        <ele>852.6</ele>
        <time>2020-04-05T18:40:50Z</time>
      </trkpt>
      <trkpt lat="42.3653140" lon="-4.9631280">
        <ele>852.6</ele>
        <time>2020-04-05T18:40:52Z</time>
      </trkpt>
      <trkpt lat="42.3653260" lon="-4.9632920">
        <ele>852.6</ele>
        <time>2020-04-05T18:40:54Z</time>
      </trkpt>
      <trkpt lat="42.3653610" lon="-4.9637680">
        <ele>852.6</ele>
        <time>2020-04-05T18:40:56Z</time>
      </trkpt>
      <trkpt lat="42.3653730" lon="-4.9639330">
        <ele>852.7</ele>
        <time>2020-04-05T18:40:58Z</time>
      </trkpt>
      <trkpt lat="42.3653840" lon="-4.9640980">
        <ele>852.7</ele>
        <time>2020-04-05T18:41:00Z</time>
      </trkpt>
      <trkpt lat="42.3653970" lon="-4.9642640">
        <ele>852.8</ele>
        <time>2020-04-05T18:41:02Z</time>
      </trkpt>
      <trkpt lat="42.3654090" lon="-4.9644320">
        <ele>853.0</ele>
        <time>2020-04-05T18:41:04Z</time>
      </trkpt>
      <trkpt lat="42.3654410" lon="-4.9648830">
        <ele>853.5</ele>
        <time>2020-04-05T18:41:06Z</time>
      </trkpt>
      <trkpt lat="42.3654530" lon="-4.9650500">
        <ele>853.6</ele>
        <time>2020-04-05T18:41:08Z</time>
      </trkpt>
      <trkpt lat="42.3654660" lon="-4.9652180">
        <ele>853.6</ele>
        <time>2020-04-05T18:41:10Z</time>
      </trkpt>
      <trkpt lat="42.3654780" lon="-4.9653860">
        <ele>853.6</ele>
        <time>2020-04-05T18:41:12Z</time>
      </trkpt>
      <trkpt lat="42.3654900" lon="-4.9655550">
        <ele>853.7</ele>
        <time>2020-04-05T18:41:14Z</time>
      </trkpt>
      <trkpt lat="42.3655240" lon="-4.9660200">
        <ele>854.4</ele>
        <time>2020-04-05T18:41:16Z</time>
      </trkpt>
      <trkpt lat="42.3655360" lon="-4.9661840">
        <ele>854.7</ele>
        <time>2020-04-05T18:41:18Z</time>
      </trkpt>
      <trkpt lat="42.3655470" lon="-4.9663440">
        <ele>855.0</ele>
        <time>2020-04-05T18:41:20Z</time>
      </trkpt>
      <trkpt lat="42.3655590" lon="-4.9665000">
        <ele>855.3</ele>
        <time>2020-04-05T18:41:22Z</time>
      </trkpt>
      <trkpt lat="42.3655700" lon="-4.9666530">
        <ele>855.6</ele>
        <time>2020-04-05T18:41:24Z</time>
      </trkpt>
      <trkpt lat="42.3655810" lon="-4.9668030">
        <ele>856.0</ele>
        <time>2020-04-05T18:41:26Z</time>
      </trkpt>
      <trkpt lat="42.3656130" lon="-4.9672490">
        <ele>857.0</ele>
        <time>2020-04-05T18:41:28Z</time>
      </trkpt>
      <trkpt lat="42.3656240" lon="-4.9673950">
        <ele>857.2</ele>
        <time>2020-04-05T18:41:30Z</time>
      </trkpt>
      <trkpt lat="42.3656350" lon="-4.9675380">
        <ele>857.4</ele>
        <time>2020-04-05T18:41:32Z</time>
      </trkpt>
      <trkpt lat="42.3656590" lon="-4.9678760">
        <ele>858.1</ele>
        <time>2020-04-05T18:41:34Z</time>
      </trkpt>
      <trkpt lat="42.3656690" lon="-4.9680170">
        <ele>858.4</ele>
        <time>2020-04-05T18:41:36Z</time>
      </trkpt>
      <trkpt lat="42.3656790" lon="-4.9681570">
        <ele>858.7</ele>
        <time>2020-04-05T18:41:38Z</time>
      </trkpt>
      <trkpt lat="42.3656960" lon="-4.9683980">
        <ele>859.2</ele>
        <time>2020-04-05T18:41:40Z</time>
      </trkpt>
      <trkpt lat="42.3657060" lon="-4.9685360">
        <ele>859.4</ele>
        <time>2020-04-05T18:41:42Z</time>
      </trkpt>
      <trkpt lat="42.3657160" lon="-4.9686750">
        <ele>859.5</ele>
        <time>2020-04-05T18:41:44Z</time>
      </trkpt>
      <trkpt lat="42.3657250" lon="-4.9688100">
        <ele>859.7</ele>
        <time>2020-04-05T18:41:46Z</time>
      </trkpt>
      <trkpt lat="42.3657350" lon="-4.9689450">
        <ele>859.9</ele>
        <time>2020-04-05T18:41:48Z</time>
      </trkpt>
      <trkpt lat="42.3657450" lon="-4.9690800">
        <ele>860.1</ele>
        <time>2020-04-05T18:41:50Z</time>
      </trkpt>
      <trkpt lat="42.3657760" lon="-4.9695130">
        <ele>861.0</ele>
        <time>2020-04-05T18:41:52Z</time>
      </trkpt>
      <trkpt lat="42.3657850" lon="-4.9696470">
        <ele>861.3</ele>
        <time>2020-04-05T18:41:54Z</time>
      </trkpt>
      <trkpt lat="42.3657940" lon="-4.9697820">
        <ele>861.6</ele>
        <time>2020-04-05T18:41:56Z</time>
      </trkpt>
      <trkpt lat="42.3658040" lon="-4.9699170">
        <ele>861.8</ele>
        <time>2020-04-05T18:41:58Z</time>
      </trkpt>
      <trkpt lat="42.3658130" lon="-4.9700520">
        <ele>862.1</ele>
        <time>2020-04-05T18:42:00Z</time>
      </trkpt>
      <trkpt lat="42.3658230" lon="-4.9701860">
        <ele>862.4</ele>
        <time>2020-04-05T18:42:02Z</time>
      </trkpt>
      <trkpt lat="42.3658530" lon="-4.9706180">
        <ele>863.7</ele>
        <time>2020-04-05T18:42:04Z</time>
      </trkpt>
      <trkpt lat="42.3658630" lon="-4.9707560">
        <ele>864.1</ele>
        <time>2020-04-05T18:42:06Z</time>
      </trkpt>
      <trkpt lat="42.3658740" lon="-4.9708950">
        <ele>864.3</ele>
        <time>2020-04-05T18:42:08Z</time>
      </trkpt>
      <trkpt lat="42.3658840" lon="-4.9710330">
        <ele>864.4</ele>
        <time>2020-04-05T18:42:10Z</time>
      </trkpt>
      <trkpt lat="42.3659100" lon="-4.9713930">
        <ele>864.4</ele>
        <time>2020-04-05T18:42:12Z</time>
      </trkpt>
      <trkpt lat="42.3659200" lon="-4.9715280">
        <ele>864.4</ele>
        <time>2020-04-05T18:42:14Z</time>
      </trkpt>
      <trkpt lat="42.3659310" lon="-4.9717140">
        <ele>864.4</ele>
        <time>2020-04-05T18:42:16Z</time>
      </trkpt>
      <trkpt lat="42.3659390" lon="-4.9718480">
        <ele>864.4</ele>
        <time>2020-04-05T18:42:18Z</time>
      </trkpt>
      <trkpt lat="42.3659470" lon="-4.9719810">
        <ele>864.4</ele>
        <time>2020-04-05T18:42:20Z</time>
      </trkpt>
      <trkpt lat="42.3659630" lon="-4.9722810">
        <ele>864.1</ele>
        <time>2020-04-05T18:42:22Z</time>
      </trkpt>
      <trkpt lat="42.3659660" lon="-4.9724570">
        <ele>863.7</ele>
        <time>2020-04-05T18:42:24Z</time>
      </trkpt>
      <trkpt lat="42.3659600" lon="-4.9726400">
        <ele>863.4</ele>
        <time>2020-04-05T18:42:26Z</time>
      </trkpt>
      <trkpt lat="42.3659550" lon="-4.9727830">
        <ele>863.4</ele>
        <time>2020-04-05T18:42:28Z</time>
      </trkpt>
      <trkpt lat="42.3659500" lon="-4.9729310">
        <ele>863.4</ele>
        <time>2020-04-05T18:42:30Z</time>
      </trkpt>
      <trkpt lat="42.3659450" lon="-4.9730820">
        <ele>863.3</ele>
        <time>2020-04-05T18:42:32Z</time>
      </trkpt>
      <trkpt lat="42.3659390" lon="-4.9732390">
        <ele>863.2</ele>
        <time>2020-04-05T18:42:34Z</time>
      </trkpt>
      <trkpt lat="42.3659220" lon="-4.9736790">
        <ele>862.6</ele>
        <time>2020-04-05T18:42:36Z</time>
      </trkpt>
      <trkpt lat="42.3659130" lon="-4.9738450">
        <ele>862.3</ele>
        <time>2020-04-05T18:42:38Z</time>
      </trkpt>
      <trkpt lat="42.3659030" lon="-4.9740220">
        <ele>861.6</ele>
        <time>2020-04-05T18:42:40Z</time>
      </trkpt>
      <trkpt lat="42.3658930" lon="-4.9742080">
        <ele>860.9</ele>
        <time>2020-04-05T18:42:42Z</time>
      </trkpt>
      <trkpt lat="42.3658690" lon="-4.9746410">
        <ele>859.9</ele>
        <time>2020-04-05T18:42:44Z</time>
      </trkpt>
      <trkpt lat="42.3658530" lon="-4.9749190">
        <ele>859.3</ele>
        <time>2020-04-05T18:42:46Z</time>
      </trkpt>
      <trkpt lat="42.3658410" lon="-4.9751280">
        <ele>858.8</ele>
        <time>2020-04-05T18:42:48Z</time>
      </trkpt>
      <trkpt lat="42.3658180" lon="-4.9755110">
        <ele>857.4</ele>
        <time>2020-04-05T18:42:50Z</time>
      </trkpt>
      <trkpt lat="42.3658040" lon="-4.9757350">
        <ele>856.6</ele>
        <time>2020-04-05T18:42:52Z</time>
      </trkpt>
      <trkpt lat="42.3657900" lon="-4.9759620">
        <ele>856.0</ele>
        <time>2020-04-05T18:42:54Z</time>
      </trkpt>
      <trkpt lat="42.3657620" lon="-4.9764310">
        <ele>854.7</ele>
        <time>2020-04-05T18:42:56Z</time>
      </trkpt>
      <trkpt lat="42.3657480" lon="-4.9766650">
        <ele>853.9</ele>
        <time>2020-04-05T18:42:58Z</time>
      </trkpt>
      <trkpt lat="42.3657340" lon="-4.9769030">
        <ele>853.0</ele>
        <time>2020-04-05T18:43:00Z</time>
      </trkpt>
      <trkpt lat="42.3657070" lon="-4.9773800">
        <ele>851.7</ele>
        <time>2020-04-05T18:43:02Z</time>
      </trkpt>
      <trkpt lat="42.3656960" lon="-4.9776240">
        <ele>851.1</ele>
        <time>2020-04-05T18:43:04Z</time>
      </trkpt>
      <trkpt lat="42.3656770" lon="-4.9780470">
        <ele>849.9</ele>
        <time>2020-04-05T18:43:06Z</time>
      </trkpt>
      <trkpt lat="42.3656650" lon="-4.9783000">
        <ele>849.0</ele>
        <time>2020-04-05T18:43:08Z</time>
      </trkpt>
      <trkpt lat="42.3656500" lon="-4.9787290">
        <ele>847.8</ele>
        <time>2020-04-05T18:43:10Z</time>
      </trkpt>
      <trkpt lat="42.3656500" lon="-4.9790860">
        <ele>847.7</ele>
        <time>2020-04-05T18:43:12Z</time>
      </trkpt>
      <trkpt lat="42.3656440" lon="-4.9793120">
        <ele>847.6</ele>
        <time>2020-04-05T18:43:14Z</time>
      </trkpt>
      <trkpt lat="42.3656380" lon="-4.9795250">
        <ele>847.5</ele>
        <time>2020-04-05T18:43:16Z</time>
      </trkpt>
      <trkpt lat="42.3656320" lon="-4.9797250">
        <ele>847.2</ele>
        <time>2020-04-05T18:43:18Z</time>
      </trkpt>
      <trkpt lat="42.3656170" lon="-4.9801460">
        <ele>846.6</ele>
        <time>2020-04-05T18:43:20Z</time>
      </trkpt>
      <trkpt lat="42.3656070" lon="-4.9804000">
        <ele>846.2</ele>
        <time>2020-04-05T18:43:22Z</time>
      </trkpt>
      <trkpt lat="42.3655990" lon="-4.9805880">
        <ele>846.0</ele>
        <time>2020-04-05T18:43:24Z</time>
      </trkpt>
      <trkpt lat="42.3655920" lon="-4.9807810">
        <ele>845.8</ele>
        <time>2020-04-05T18:43:26Z</time>
      </trkpt>
      <trkpt lat="42.3655780" lon="-4.9811830">
        <ele>844.4</ele>
        <time>2020-04-05T18:43:28Z</time>
      </trkpt>
      <trkpt lat="42.3655720" lon="-4.9815040">
        <ele>843.2</ele>
        <time>2020-04-05T18:43:30Z</time>
      </trkpt>
      <trkpt lat="42.3655760" lon="-4.9817120">
        <ele>842.3</ele>
        <time>2020-04-05T18:43:32Z</time>
      </trkpt>
      <trkpt lat="42.3655910" lon="-4.9820550">
        <ele>840.9</ele>
        <time>2020-04-05T18:43:34Z</time>
      </trkpt>
      <trkpt lat="42.3656200" lon="-4.9823790">
        <ele>839.5</ele>
        <time>2020-04-05T18:43:36Z</time>
      </trkpt>
      <trkpt lat="42.3656460" lon="-4.9826110">
        <ele>839.0</ele>
        <time>2020-04-05T18:43:38Z</time>
      </trkpt>
      <trkpt lat="42.3656880" lon="-4.9829880">
        <ele>838.1</ele>
        <time>2020-04-05T18:43:40Z</time>
      </trkpt>
      <trkpt lat="42.3657210" lon="-4.9832970">
        <ele>837.3</ele>
        <time>2020-04-05T18:43:42Z</time>
      </trkpt>
      <trkpt lat="42.3657450" lon="-4.9835440">
        <ele>836.5</ele>
        <time>2020-04-05T18:43:44Z</time>
      </trkpt>
      <trkpt lat="42.3657870" lon="-4.9839660">
        <ele>835.2</ele>
        <time>2020-04-05T18:43:46Z</time>
      </trkpt>
      <trkpt lat="42.3658190" lon="-4.9842790">
        <ele>834.2</ele>
        <time>2020-04-05T18:43:48Z</time>
      </trkpt>
      <trkpt lat="42.3658440" lon="-4.9845260">
        <ele>833.6</ele>
        <time>2020-04-05T18:43:50Z</time>
      </trkpt>
      <trkpt lat="42.3658860" lon="-4.9849440">
        <ele>832.4</ele>
        <time>2020-04-05T18:43:52Z</time>
      </trkpt>
      <trkpt lat="42.3659090" lon="-4.9851750">
        <ele>832.0</ele>
        <time>2020-04-05T18:43:54Z</time>
      </trkpt>
      <trkpt lat="42.3659520" lon="-4.9856260">
        <ele>831.3</ele>
        <time>2020-04-05T18:43:56Z</time>
      </trkpt>
      <trkpt lat="42.3659690" lon="-4.9858440">
        <ele>830.9</ele>
        <time>2020-04-05T18:43:58Z</time>
      </trkpt>
      <trkpt lat="42.3659850" lon="-4.9860540">
        <ele>830.5</ele>
        <time>2020-04-05T18:44:00Z</time>
      </trkpt>
      <trkpt lat="42.3660190" lon="-4.9864880">
        <ele>829.9</ele>
        <time>2020-04-05T18:44:02Z</time>
      </trkpt>
      <trkpt lat="42.3660350" lon="-4.9866920">
        <ele>829.6</ele>
        <time>2020-04-05T18:44:04Z</time>
      </trkpt>
      <trkpt lat="42.3660500" lon="-4.9868910">
        <ele>829.4</ele>
        <time>2020-04-05T18:44:06Z</time>
      </trkpt>
      <trkpt lat="42.3660650" lon="-4.9870880">
        <ele>829.1</ele>
        <time>2020-04-05T18:44:08Z</time>
      </trkpt>
      <trkpt lat="42.3661010" lon="-4.9875090">
        <ele>828.2</ele>
        <time>2020-04-05T18:44:10Z</time>
      </trkpt>
      <trkpt lat="42.3661210" lon="-4.9877010">
        <ele>827.8</ele>
        <time>2020-04-05T18:44:12Z</time>
      </trkpt>
      <trkpt lat="42.3661410" lon="-4.9878900">
        <ele>827.6</ele>
        <time>2020-04-05T18:44:14Z</time>
      </trkpt>
      <trkpt lat="42.3661600" lon="-4.9880770">
        <ele>827.4</ele>
        <time>2020-04-05T18:44:16Z</time>
      </trkpt>
      <trkpt lat="42.3662100" lon="-4.9885640">
        <ele>826.7</ele>
        <time>2020-04-05T18:44:18Z</time>
      </trkpt>
      <trkpt lat="42.3662290" lon="-4.9887520">
        <ele>826.7</ele>
        <time>2020-04-05T18:44:20Z</time>
      </trkpt>
      <trkpt lat="42.3662480" lon="-4.9889380">
        <ele>826.5</ele>
        <time>2020-04-05T18:44:22Z</time>
      </trkpt>
      <trkpt lat="42.3662670" lon="-4.9891260">
        <ele>826.2</ele>
        <time>2020-04-05T18:44:24Z</time>
      </trkpt>
      <trkpt lat="42.3662860" lon="-4.9893130">
        <ele>825.9</ele>
        <time>2020-04-05T18:44:26Z</time>
      </trkpt>
      <trkpt lat="42.3663360" lon="-4.9897990">
        <ele>825.6</ele>
        <time>2020-04-05T18:44:28Z</time>
      </trkpt>
      <trkpt lat="42.3663550" lon="-4.9899830">
        <ele>825.2</ele>
        <time>2020-04-05T18:44:30Z</time>
      </trkpt>
      <trkpt lat="42.3663920" lon="-4.9903410">
        <ele>824.8</ele>
        <time>2020-04-05T18:44:32Z</time>
      </trkpt>
      <trkpt lat="42.3664110" lon="-4.9905270">
        <ele>824.6</ele>
        <time>2020-04-05T18:44:34Z</time>
      </trkpt>
      <trkpt lat="42.3664440" lon="-4.9908380">
        <ele>823.6</ele>
        <time>2020-04-05T18:44:36Z</time>
      </trkpt>
      <trkpt lat="42.3664630" lon="-4.9910250">
        <ele>823.0</ele>
        <time>2020-04-05T18:44:38Z</time>
      </trkpt>
      <trkpt lat="42.3664830" lon="-4.9912100">
        <ele>822.5</ele>
        <time>2020-04-05T18:44:40Z</time>
      </trkpt>
      <trkpt lat="42.3665020" lon="-4.9913960">
        <ele>822.1</ele>
        <time>2020-04-05T18:44:42Z</time>
      </trkpt>
      <trkpt lat="42.3665220" lon="-4.9915830">
        <ele>821.9</ele>
        <time>2020-04-05T18:44:44Z</time>
      </trkpt>
      <trkpt lat="42.3665730" lon="-4.9920670">
        <ele>821.1</ele>
        <time>2020-04-05T18:44:46Z</time>
      </trkpt>
      <trkpt lat="42.3665930" lon="-4.9922550">
        <ele>820.9</ele>
        <time>2020-04-05T18:44:48Z</time>
      </trkpt>
      <trkpt lat="42.3666290" lon="-4.9925960">
        <ele>820.6</ele>
        <time>2020-04-05T18:44:50Z</time>
      </trkpt>
      <trkpt lat="42.3666490" lon="-4.9927920">
        <ele>820.1</ele>
        <time>2020-04-05T18:44:52Z</time>
      </trkpt>
      <trkpt lat="42.3666850" lon="-4.9931460">
        <ele>819.4</ele>
        <time>2020-04-05T18:44:54Z</time>
      </trkpt>
      <trkpt lat="42.3667060" lon="-4.9933550">
        <ele>818.9</ele>
        <time>2020-04-05T18:44:56Z</time>
      </trkpt>
      <trkpt lat="42.3667280" lon="-4.9935670">
        <ele>818.3</ele>
        <time>2020-04-05T18:44:58Z</time>
      </trkpt>
      <trkpt lat="42.3667510" lon="-4.9937860">
        <ele>817.9</ele>
        <time>2020-04-05T18:45:00Z</time>
      </trkpt>
      <trkpt lat="42.3668040" lon="-4.9943070">
        <ele>816.8</ele>
        <time>2020-04-05T18:45:02Z</time>
      </trkpt>
      <trkpt lat="42.3668270" lon="-4.9945350">
        <ele>816.2</ele>
        <time>2020-04-05T18:45:04Z</time>
      </trkpt>
      <trkpt lat="42.3668510" lon="-4.9947670">
        <ele>815.6</ele>
        <time>2020-04-05T18:45:06Z</time>
      </trkpt>
      <trkpt lat="42.3668750" lon="-4.9950020">
        <ele>814.9</ele>
        <time>2020-04-05T18:45:08Z</time>
      </trkpt>
      <trkpt lat="42.3669300" lon="-4.9955420">
        <ele>813.3</ele>
        <time>2020-04-05T18:45:10Z</time>
      </trkpt>
      <trkpt lat="42.3669550" lon="-4.9957850">
        <ele>812.6</ele>
        <time>2020-04-05T18:45:12Z</time>
      </trkpt>
      <trkpt lat="42.3670000" lon="-4.9962190">
        <ele>811.4</ele>
        <time>2020-04-05T18:45:14Z</time>
      </trkpt>
      <trkpt lat="42.3670360" lon="-4.9965660">
        <ele>810.9</ele>
        <time>2020-04-05T18:45:16Z</time>
      </trkpt>
      <trkpt lat="42.3670600" lon="-4.9967890">
        <ele>810.7</ele>
        <time>2020-04-05T18:45:18Z</time>
      </trkpt>
      <trkpt lat="42.3670830" lon="-4.9970040">
        <ele>810.5</ele>
        <time>2020-04-05T18:45:20Z</time>
      </trkpt>
      <trkpt lat="42.3671050" lon="-4.9972150">
        <ele>810.4</ele>
        <time>2020-04-05T18:45:22Z</time>
      </trkpt>
      <trkpt lat="42.3671580" lon="-4.9977220">
        <ele>810.0</ele>
        <time>2020-04-05T18:45:24Z</time>
      </trkpt>
      <trkpt lat="42.3671800" lon="-4.9979250">
        <ele>809.9</ele>
        <time>2020-04-05T18:45:26Z</time>
      </trkpt>
      <trkpt lat="42.3672000" lon="-4.9981190">
        <ele>809.9</ele>
        <time>2020-04-05T18:45:28Z</time>
      </trkpt>
      <trkpt lat="42.3672200" lon="-4.9983100">
        <ele>810.0</ele>
        <time>2020-04-05T18:45:30Z</time>
      </trkpt>
      <trkpt lat="42.3672390" lon="-4.9984920">
        <ele>810.2</ele>
        <time>2020-04-05T18:45:32Z</time>
      </trkpt>
      <trkpt lat="42.3672900" lon="-4.9989680">
        <ele>810.1</ele>
        <time>2020-04-05T18:45:34Z</time>
      </trkpt>
      <trkpt lat="42.3673080" lon="-4.9991410">
        <ele>810.0</ele>
        <time>2020-04-05T18:45:36Z</time>
      </trkpt>
      <trkpt lat="42.3673260" lon="-4.9993100">
        <ele>810.0</ele>
        <time>2020-04-05T18:45:38Z</time>
      </trkpt>
      <trkpt lat="42.3673640" lon="-4.9996830">
        <ele>810.1</ele>
        <time>2020-04-05T18:45:40Z</time>
      </trkpt>
      <trkpt lat="42.3673790" lon="-4.9998420">
        <ele>810.0</ele>
        <time>2020-04-05T18:45:42Z</time>
      </trkpt>
      <trkpt lat="42.3674970" lon="-4.9999440">
        <ele>810.0</ele>
        <time>2020-04-05T18:45:44Z</time>
      </trkpt>
      <trkpt lat="42.3676220" lon="-4.9999170">
        <ele>810.1</ele>
        <time>2020-04-05T18:45:46Z</time>
      </trkpt>
      <trkpt lat="42.3677690" lon="-4.9998980">
        <ele>810.4</ele>
        <time>2020-04-05T18:45:48Z</time>
      </trkpt>
      <trkpt lat="42.3678610" lon="-4.9998840">
        <ele>810.6</ele>
        <time>2020-04-05T18:45:50Z</time>
      </trkpt>
      <trkpt lat="42.3679480" lon="-4.9998710">
        <ele>810.7</ele>
        <time>2020-04-05T18:45:52Z</time>
      </trkpt>
      <trkpt lat="42.3680310" lon="-4.9998590">
        <ele>810.9</ele>
        <time>2020-04-05T18:45:54Z</time>
      </trkpt>
      <trkpt lat="42.3682380" lon="-4.9998280">
        <ele>811.5</ele>
        <time>2020-04-05T18:45:56Z</time>
      </trkpt>
      <trkpt lat="42.3683190" lon="-4.9998160">
        <ele>811.7</ele>
        <time>2020-04-05T18:45:58Z</time>
      </trkpt>
      <trkpt lat="42.3683990" lon="-4.9998040">
        <ele>812.0</ele>
        <time>2020-04-05T18:46:00Z</time>
      </trkpt>
      <trkpt lat="42.3684800" lon="-4.9997920">
        <ele>812.3</ele>
        <time>2020-04-05T18:46:02Z</time>
      </trkpt>
      <trkpt lat="42.3686630" lon="-4.9997650">
        <ele>812.7</ele>
        <time>2020-04-05T18:46:04Z</time>
      </trkpt>
      <trkpt lat="42.3687420" lon="-4.9997520">
        <ele>812.9</ele>
        <time>2020-04-05T18:46:06Z</time>
      </trkpt>
      <trkpt lat="42.3688220" lon="-4.9997400">
        <ele>813.1</ele>
        <time>2020-04-05T18:46:08Z</time>
      </trkpt>
      <trkpt lat="42.3689020" lon="-4.9997280">
        <ele>813.3</ele>
        <time>2020-04-05T18:46:10Z</time>
      </trkpt>
      <trkpt lat="42.3690970" lon="-4.9996980">
        <ele>813.7</ele>
        <time>2020-04-05T18:46:12Z</time>
      </trkpt>
      <trkpt lat="42.3691750" lon="-4.9996860">
        <ele>813.8</ele>
        <time>2020-04-05T18:46:14Z</time>
      </trkpt>
      <trkpt lat="42.3692540" lon="-4.9996740">
        <ele>814.0</ele>
        <time>2020-04-05T18:46:16Z</time>
      </trkpt>
      <trkpt lat="42.3693320" lon="-4.9996620">
        <ele>814.1</ele>
        <time>2020-04-05T18:46:18Z</time>
      </trkpt>
      <trkpt lat="42.3695140" lon="-4.9996340">
        <ele>814.3</ele>
        <time>2020-04-05T18:46:20Z</time>
      </trkpt>
      <trkpt lat="42.3695930" lon="-4.9996220">
        <ele>814.4</ele>
        <time>2020-04-05T18:46:22Z</time>
      </trkpt>
      <trkpt lat="42.3696710" lon="-4.9996090">
        <ele>814.4</ele>
        <time>2020-04-05T18:46:24Z</time>
      </trkpt>
      <trkpt lat="42.3697500" lon="-4.9995970">
        <ele>814.5</ele>
        <time>2020-04-05T18:46:26Z</time>
      </trkpt>
      <trkpt lat="42.3699430" lon="-4.9995680">
        <ele>814.7</ele>
        <time>2020-04-05T18:46:28Z</time>
      </trkpt>
      <trkpt lat="42.3700230" lon="-4.9995550">
        <ele>814.8</ele>
        <time>2020-04-05T18:46:30Z</time>
      </trkpt>
      <trkpt lat="42.3701030" lon="-4.9995430">
        <ele>815.0</ele>
        <time>2020-04-05T18:46:32Z</time>
      </trkpt>
      <trkpt lat="42.3702670" lon="-4.9995100">
        <ele>815.4</ele>
        <time>2020-04-05T18:46:34Z</time>
      </trkpt>
      <trkpt lat="42.3703860" lon="-4.9994740">
        <ele>815.8</ele>
        <time>2020-04-05T18:46:36Z</time>
      </trkpt>
      <trkpt lat="42.3704800" lon="-4.9994610">
        <ele>816.2</ele>
        <time>2020-04-05T18:46:38Z</time>
      </trkpt>
      <trkpt lat="42.3705630" lon="-4.9996010">
        <ele>816.4</ele>
        <time>2020-04-05T18:46:40Z</time>
      </trkpt>
      <trkpt lat="42.3706280" lon="-4.9997680">
        <ele>814.6</ele>
        <time>2020-04-05T18:46:42Z</time>
      </trkpt>
      <trkpt lat="42.3706040" lon="-4.9999680">
        <ele>812.5</ele>
        <time>2020-04-05T18:46:44Z</time>
      </trkpt>
      <trkpt lat="42.3705310" lon="-5.0001630">
        <ele>810.7</ele>
        <time>2020-04-05T18:46:46Z</time>
      </trkpt>
      <trkpt lat="42.3704230" lon="-5.0003140">
        <ele>809.4</ele>
        <time>2020-04-05T18:46:48Z</time>
      </trkpt>
      <trkpt lat="42.3702830" lon="-5.0004840">
        <ele>808.9</ele>
        <time>2020-04-05T18:46:50Z</time>
      </trkpt>
      <trkpt lat="42.3701860" lon="-5.0006010">
        <ele>809.1</ele>
        <time>2020-04-05T18:46:52Z</time>
      </trkpt>
      <trkpt lat="42.3700150" lon="-5.0008100">
        <ele>809.3</ele>
        <time>2020-04-05T18:46:54Z</time>
      </trkpt>
      <trkpt lat="42.3699360" lon="-5.0009300">
        <ele>809.3</ele>
        <time>2020-04-05T18:46:56Z</time>
      </trkpt>
      <trkpt lat="42.3698280" lon="-5.0011170">
        <ele>809.4</ele>
        <time>2020-04-05T18:46:58Z</time>
      </trkpt>
      <trkpt lat="42.3697760" lon="-5.0012420">
        <ele>809.6</ele>
        <time>2020-04-05T18:47:00Z</time>
      </trkpt>
      <trkpt lat="42.3697090" lon="-5.0014430">
        <ele>809.9</ele>
        <time>2020-04-05T18:47:02Z</time>
      </trkpt>
      <trkpt lat="42.3696780" lon="-5.0015740">
        <ele>810.1</ele>
        <time>2020-04-05T18:47:04Z</time>
      </trkpt>
      <trkpt lat="42.3696320" lon="-5.0017880">
        <ele>810.2</ele>
        <time>2020-04-05T18:47:06Z</time>
      </trkpt>
      <trkpt lat="42.3696050" lon="-5.0019230">
        <ele>810.3</ele>
        <time>2020-04-05T18:47:08Z</time>
      </trkpt>
      <trkpt lat="42.3695780" lon="-5.0020620">
        <ele>810.3</ele>
        <time>2020-04-05T18:47:10Z</time>
      </trkpt>
      <trkpt lat="42.3695170" lon="-5.0023690">
        <ele>810.3</ele>
        <time>2020-04-05T18:47:12Z</time>
      </trkpt>
      <trkpt lat="42.3694960" lon="-5.0025390">
        <ele>810.4</ele>
        <time>2020-04-05T18:47:14Z</time>
      </trkpt>
      <trkpt lat="42.3694820" lon="-5.0026810">
        <ele>810.6</ele>
        <time>2020-04-05T18:47:16Z</time>
      </trkpt>
      <trkpt lat="42.3694690" lon="-5.0029280">
        <ele>810.9</ele>
        <time>2020-04-05T18:47:18Z</time>
      </trkpt>
      <trkpt lat="42.3694700" lon="-5.0030660">
        <ele>811.1</ele>
        <time>2020-04-05T18:47:20Z</time>
      </trkpt>
      <trkpt lat="42.3694700" lon="-5.0032010">
        <ele>811.2</ele>
        <time>2020-04-05T18:47:22Z</time>
      </trkpt>
      <trkpt lat="42.3694700" lon="-5.0033310">
        <ele>811.2</ele>
        <time>2020-04-05T18:47:24Z</time>
      </trkpt>
      <trkpt lat="42.3694720" lon="-5.0036610">
        <ele>811.2</ele>
        <time>2020-04-05T18:47:26Z</time>
      </trkpt>
      <trkpt lat="42.3694730" lon="-5.0037890">
        <ele>811.2</ele>
        <time>2020-04-05T18:47:28Z</time>
      </trkpt>
      <trkpt lat="42.3694760" lon="-5.0039970">
        <ele>811.2</ele>
        <time>2020-04-05T18:47:30Z</time>
      </trkpt>
      <trkpt lat="42.3694720" lon="-5.0041730">
        <ele>811.2</ele>
        <time>2020-04-05T18:47:32Z</time>
      </trkpt>
      <trkpt lat="42.3694630" lon="-5.0043690">
        <ele>811.2</ele>
        <time>2020-04-05T18:47:34Z</time>
      </trkpt>
      <trkpt lat="42.3694630" lon="-5.0044890">
        <ele>811.2</ele>
        <time>2020-04-05T18:47:36Z</time>
      </trkpt>
      <trkpt lat="42.3694630" lon="-5.0046020">
        <ele>811.2</ele>
        <time>2020-04-05T18:47:38Z</time>
      </trkpt>
      <trkpt lat="42.3694640" lon="-5.0047100">
        <ele>811.2</ele>
        <time>2020-04-05T18:47:40Z</time>
      </trkpt>
      <trkpt lat="42.3694640" lon="-5.0049690">
        <ele>811.1</ele>
        <time>2020-04-05T18:47:42Z</time>
      </trkpt>
      <trkpt lat="42.3694630" lon="-5.0050670">
        <ele>811.2</ele>
        <time>2020-04-05T18:47:44Z</time>
      </trkpt>
      <trkpt lat="42.3694620" lon="-5.0051610">
        <ele>811.3</ele>
        <time>2020-04-05T18:47:46Z</time>
      </trkpt>
      <trkpt lat="42.3694610" lon="-5.0052520">
        <ele>811.4</ele>
        <time>2020-04-05T18:47:48Z</time>
      </trkpt>
      <trkpt lat="42.3694610" lon="-5.0053400">
        <ele>811.6</ele>
        <time>2020-04-05T18:47:50Z</time>
      </trkpt>
      <trkpt lat="42.3694600" lon="-5.0054250">
        <ele>811.8</ele>
        <time>2020-04-05T18:47:52Z</time>
      </trkpt>
      <trkpt lat="42.3694590" lon="-5.0055080">
        <ele>811.9</ele>
        <time>2020-04-05T18:47:54Z</time>
      </trkpt>
      <trkpt lat="42.3694590" lon="-5.0055900">
        <ele>812.0</ele>
        <time>2020-04-05T18:47:56Z</time>
      </trkpt>
      <trkpt lat="42.3694560" lon="-5.0059180">
        <ele>812.1</ele>
        <time>2020-04-05T18:47:58Z</time>
      </trkpt>
      <trkpt lat="42.3694550" lon="-5.0060020">
        <ele>812.1</ele>
        <time>2020-04-05T18:48:00Z</time>
      </trkpt>
      <trkpt lat="42.3694540" lon="-5.0060930">
        <ele>812.1</ele>
        <time>2020-04-05T18:48:02Z</time>
      </trkpt>
      <trkpt lat="42.3694540" lon="-5.0062900">
        <ele>812.1</ele>
        <time>2020-04-05T18:48:04Z</time>
      </trkpt>
      <trkpt lat="42.3694630" lon="-5.0063910">
        <ele>812.1</ele>
        <time>2020-04-05T18:48:06Z</time>
      </trkpt>
      <trkpt lat="42.3694730" lon="-5.0064970">
        <ele>812.1</ele>
        <time>2020-04-05T18:48:08Z</time>
      </trkpt>
      <trkpt lat="42.3694900" lon="-5.0066860">
        <ele>812.1</ele>
        <time>2020-04-05T18:48:10Z</time>
      </trkpt>
      <trkpt lat="42.3695100" lon="-5.0068730">
        <ele>812.1</ele>
        <time>2020-04-05T18:48:12Z</time>
      </trkpt>
      <trkpt lat="42.3695300" lon="-5.0070000">
        <ele>812.1</ele>
        <time>2020-04-05T18:48:14Z</time>
      </trkpt>
      <trkpt lat="42.3695660" lon="-5.0072260">
        <ele>812.3</ele>
        <time>2020-04-05T18:48:16Z</time>
      </trkpt>
      <trkpt lat="42.3695880" lon="-5.0073620">
        <ele>812.6</ele>
        <time>2020-04-05T18:48:18Z</time>
      </trkpt>
      <trkpt lat="42.3696100" lon="-5.0074980">
        <ele>813.0</ele>
        <time>2020-04-05T18:48:20Z</time>
      </trkpt>
      <trkpt lat="42.3696320" lon="-5.0076350">
        <ele>813.6</ele>
        <time>2020-04-05T18:48:22Z</time>
      </trkpt>
      <trkpt lat="42.3696540" lon="-5.0077700">
        <ele>813.9</ele>
        <time>2020-04-05T18:48:24Z</time>
      </trkpt>
      <trkpt lat="42.3696760" lon="-5.0079070">
        <ele>814.1</ele>
        <time>2020-04-05T18:48:26Z</time>
      </trkpt>
      <trkpt lat="42.3697430" lon="-5.0083360">
        <ele>814.7</ele>
        <time>2020-04-05T18:48:28Z</time>
      </trkpt>
      <trkpt lat="42.3697680" lon="-5.0085350">
        <ele>815.0</ele>
        <time>2020-04-05T18:48:30Z</time>
      </trkpt>
      <trkpt lat="42.3697790" lon="-5.0086730">
        <ele>815.0</ele>
        <time>2020-04-05T18:48:32Z</time>
      </trkpt>
      <trkpt lat="42.3697900" lon="-5.0088120">
        <ele>815.1</ele>
        <time>2020-04-05T18:48:34Z</time>
      </trkpt>
      <trkpt lat="42.3698010" lon="-5.0089500">
        <ele>815.4</ele>
        <time>2020-04-05T18:48:36Z</time>
      </trkpt>
      <trkpt lat="42.3698130" lon="-5.0090890">
        <ele>815.6</ele>
        <time>2020-04-05T18:48:38Z</time>
      </trkpt>
      <trkpt lat="42.3698240" lon="-5.0092280">
        <ele>815.9</ele>
        <time>2020-04-05T18:48:40Z</time>
      </trkpt>
      <trkpt lat="42.3698560" lon="-5.0096270">
        <ele>816.4</ele>
        <time>2020-04-05T18:48:42Z</time>
      </trkpt>
      <trkpt lat="42.3698670" lon="-5.0097650">
        <ele>816.7</ele>
        <time>2020-04-05T18:48:44Z</time>
      </trkpt>
      <trkpt lat="42.3698780" lon="-5.0099040">
        <ele>816.9</ele>
        <time>2020-04-05T18:48:46Z</time>
      </trkpt>
      <trkpt lat="42.3698890" lon="-5.0100430">
        <ele>817.0</ele>
        <time>2020-04-05T18:48:48Z</time>
      </trkpt>
      <trkpt lat="42.3699000" lon="-5.0101820">
        <ele>817.1</ele>
        <time>2020-04-05T18:48:50Z</time>
      </trkpt>
      <trkpt lat="42.3699310" lon="-5.0105800">
        <ele>817.8</ele>
        <time>2020-04-05T18:48:52Z</time>
      </trkpt>
      <trkpt lat="42.3699400" lon="-5.0107190">
        <ele>817.9</ele>
        <time>2020-04-05T18:48:54Z</time>
      </trkpt>
      <trkpt lat="42.3699490" lon="-5.0108590">
        <ele>818.0</ele>
        <time>2020-04-05T18:48:56Z</time>
      </trkpt>
      <trkpt lat="42.3699640" lon="-5.0111240">
        <ele>818.8</ele>
        <time>2020-04-05T18:48:58Z</time>
      </trkpt>
      <trkpt lat="42.3699710" lon="-5.0112680">
        <ele>819.3</ele>
        <time>2020-04-05T18:49:00Z</time>
      </trkpt>
      <trkpt lat="42.3699820" lon="-5.0115440">
        <ele>819.8</ele>
        <time>2020-04-05T18:49:02Z</time>
      </trkpt>
      <trkpt lat="42.3699840" lon="-5.0116870">
        <ele>819.9</ele>
        <time>2020-04-05T18:49:04Z</time>
      </trkpt>
      <trkpt lat="42.3699860" lon="-5.0118310">
        <ele>819.9</ele>
        <time>2020-04-05T18:49:06Z</time>
      </trkpt>
      <trkpt lat="42.3699960" lon="-5.0121180">
        <ele>820.0</ele>
        <time>2020-04-05T18:49:08Z</time>
      </trkpt>
      <trkpt lat="42.3700710" lon="-5.0122490">
        <ele>820.3</ele>
        <time>2020-04-05T18:49:10Z</time>
      </trkpt>
      <trkpt lat="42.3701740" lon="-5.0123970">
        <ele>820.7</ele>
        <time>2020-04-05T18:49:12Z</time>
      </trkpt>
      <trkpt lat="42.3702610" lon="-5.0125680">
        <ele>820.8</ele>
        <time>2020-04-05T18:49:14Z</time>
      </trkpt>
      <trkpt lat="42.3702520" lon="-5.0127890">
        <ele>820.9</ele>
        <time>2020-04-05T18:49:16Z</time>
      </trkpt>
      <trkpt lat="42.3701650" lon="-5.0128930">
        <ele>820.8</ele>
        <time>2020-04-05T18:49:18Z</time>
      </trkpt>
      <trkpt lat="42.3700460" lon="-5.0131040">
        <ele>820.7</ele>
        <time>2020-04-05T18:49:20Z</time>
      </trkpt>
      <trkpt lat="42.3700480" lon="-5.0133170">
        <ele>820.6</ele>
        <time>2020-04-05T18:49:22Z</time>
      </trkpt>
      <trkpt lat="42.3700650" lon="-5.0134760">
        <ele>820.5</ele>
        <time>2020-04-05T18:49:24Z</time>
      </trkpt>
      <trkpt lat="42.3700940" lon="-5.0137390">
        <ele>820.3</ele>
        <time>2020-04-05T18:49:26Z</time>
      </trkpt>
      <trkpt lat="42.3701130" lon="-5.0138910">
        <ele>820.5</ele>
        <time>2020-04-05T18:49:28Z</time>
      </trkpt>
      <trkpt lat="42.3701340" lon="-5.0141240">
        <ele>820.9</ele>
        <time>2020-04-05T18:49:30Z</time>
      </trkpt>
      <trkpt lat="42.3701390" lon="-5.0143370">
        <ele>821.1</ele>
        <time>2020-04-05T18:49:32Z</time>
      </trkpt>
      <trkpt lat="42.3701340" lon="-5.0145620">
        <ele>821.1</ele>
        <time>2020-04-05T18:49:34Z</time>
      </trkpt>
      <trkpt lat="42.3701190" lon="-5.0147120">
        <ele>821.0</ele>
        <time>2020-04-05T18:49:36Z</time>
      </trkpt>
      <trkpt lat="42.3700930" lon="-5.0149310">
        <ele>821.0</ele>
        <time>2020-04-05T18:49:38Z</time>
      </trkpt>
      <trkpt lat="42.3700700" lon="-5.0150770">
        <ele>821.1</ele>
        <time>2020-04-05T18:49:40Z</time>
      </trkpt>
      <trkpt lat="42.3700330" lon="-5.0153360">
        <ele>821.3</ele>
        <time>2020-04-05T18:49:42Z</time>
      </trkpt>
      <trkpt lat="42.3700210" lon="-5.0154830">
        <ele>821.3</ele>
        <time>2020-04-05T18:49:44Z</time>
      </trkpt>
      <trkpt lat="42.3700090" lon="-5.0156310">
        <ele>821.4</ele>
        <time>2020-04-05T18:49:46Z</time>
      </trkpt>
      <trkpt lat="42.3699940" lon="-5.0159150">
        <ele>821.8</ele>
        <time>2020-04-05T18:49:48Z</time>
      </trkpt>
      <trkpt lat="42.3699930" lon="-5.0160640">
        <ele>822.1</ele>
        <time>2020-04-05T18:49:50Z</time>
      </trkpt>
      <trkpt lat="42.3700000" lon="-5.0163040">
        <ele>822.4</ele>
        <time>2020-04-05T18:49:52Z</time>
      </trkpt>
      <trkpt lat="42.3700130" lon="-5.0165480">
        <ele>822.7</ele>
        <time>2020-04-05T18:49:54Z</time>
      </trkpt>
      <trkpt lat="42.3700210" lon="-5.0166960">
        <ele>823.0</ele>
        <time>2020-04-05T18:49:56Z</time>
      </trkpt>
      <trkpt lat="42.3700270" lon="-5.0169110">
        <ele>823.2</ele>
        <time>2020-04-05T18:49:58Z</time>
      </trkpt>
      <trkpt lat="42.3700280" lon="-5.0170600">
        <ele>823.3</ele>
        <time>2020-04-05T18:50:00Z</time>
      </trkpt>
      <trkpt lat="42.3700310" lon="-5.0173300">
        <ele>823.4</ele>
        <time>2020-04-05T18:50:02Z</time>
      </trkpt>
      <trkpt lat="42.3700320" lon="-5.0174750">
        <ele>823.4</ele>
        <time>2020-04-05T18:50:04Z</time>
      </trkpt>
      <trkpt lat="42.3700340" lon="-5.0176190">
        <ele>823.5</ele>
        <time>2020-04-05T18:50:06Z</time>
      </trkpt>
      <trkpt lat="42.3700360" lon="-5.0177630">
        <ele>823.5</ele>
        <time>2020-04-05T18:50:08Z</time>
      </trkpt>
      <trkpt lat="42.3700410" lon="-5.0181330">
        <ele>823.4</ele>
        <time>2020-04-05T18:50:10Z</time>
      </trkpt>
      <trkpt lat="42.3700470" lon="-5.0182760">
        <ele>823.8</ele>
        <time>2020-04-05T18:50:12Z</time>
      </trkpt>
      <trkpt lat="42.3700530" lon="-5.0184160">
        <ele>824.1</ele>
        <time>2020-04-05T18:50:14Z</time>
      </trkpt>
      <trkpt lat="42.3700650" lon="-5.0186720">
        <ele>824.7</ele>
        <time>2020-04-05T18:50:16Z</time>
      </trkpt>
      <trkpt lat="42.3700760" lon="-5.0188920">
        <ele>825.2</ele>
        <time>2020-04-05T18:50:18Z</time>
      </trkpt>
      <trkpt lat="42.3700830" lon="-5.0190270">
        <ele>825.4</ele>
        <time>2020-04-05T18:50:20Z</time>
      </trkpt>
      <trkpt lat="42.3700890" lon="-5.0191560">
        <ele>825.7</ele>
        <time>2020-04-05T18:50:22Z</time>
      </trkpt>
      <trkpt lat="42.3700960" lon="-5.0192790">
        <ele>825.9</ele>
        <time>2020-04-05T18:50:24Z</time>
      </trkpt>
      <trkpt lat="42.3701020" lon="-5.0193970">
        <ele>826.2</ele>
        <time>2020-04-05T18:50:26Z</time>
      </trkpt>
      <trkpt lat="42.3701190" lon="-5.0197090">
        <ele>827.1</ele>
        <time>2020-04-05T18:50:28Z</time>
      </trkpt>
      <trkpt lat="42.3701260" lon="-5.0198210">
        <ele>827.3</ele>
        <time>2020-04-05T18:50:30Z</time>
      </trkpt>
      <trkpt lat="42.3701330" lon="-5.0199330">
        <ele>827.4</ele>
        <time>2020-04-05T18:50:32Z</time>
      </trkpt>
      <trkpt lat="42.3701400" lon="-5.0200440">
        <ele>827.6</ele>
        <time>2020-04-05T18:50:34Z</time>
      </trkpt>
      <trkpt lat="42.3701470" lon="-5.0201520">
        <ele>827.8</ele>
        <time>2020-04-05T18:50:36Z</time>
      </trkpt>
      <trkpt lat="42.3701530" lon="-5.0202570">
        <ele>828.0</ele>
        <time>2020-04-05T18:50:38Z</time>
      </trkpt>
      <trkpt lat="42.3701600" lon="-5.0203600">
        <ele>828.2</ele>
        <time>2020-04-05T18:50:40Z</time>
      </trkpt>
      <trkpt lat="42.3701660" lon="-5.0204600">
        <ele>828.5</ele>
        <time>2020-04-05T18:50:42Z</time>
      </trkpt>
      <trkpt lat="42.3701880" lon="-5.0208720">
        <ele>829.1</ele>
        <time>2020-04-05T18:50:44Z</time>
      </trkpt>
      <trkpt lat="42.3701900" lon="-5.0209700">
        <ele>829.2</ele>
        <time>2020-04-05T18:50:46Z</time>
      </trkpt>
      <trkpt lat="42.3701910" lon="-5.0210680">
        <ele>829.3</ele>
        <time>2020-04-05T18:50:48Z</time>
      </trkpt>
      <trkpt lat="42.3701920" lon="-5.0211670">
        <ele>829.3</ele>
        <time>2020-04-05T18:50:50Z</time>
      </trkpt>
      <trkpt lat="42.3701940" lon="-5.0214080">
        <ele>829.3</ele>
        <time>2020-04-05T18:50:52Z</time>
      </trkpt>
      <trkpt lat="42.3701950" lon="-5.0215510">
        <ele>829.2</ele>
        <time>2020-04-05T18:50:54Z</time>
      </trkpt>
      <trkpt lat="42.3702020" lon="-5.0216500">
        <ele>829.7</ele>
        <time>2020-04-05T18:50:56Z</time>
      </trkpt>
      <trkpt lat="42.3702080" lon="-5.0217490">
        <ele>830.1</ele>
        <time>2020-04-05T18:50:58Z</time>
      </trkpt>
      <trkpt lat="42.3702120" lon="-5.0219470">
        <ele>831.0</ele>
        <time>2020-04-05T18:51:00Z</time>
      </trkpt>
      <trkpt lat="42.3702020" lon="-5.0220440">
        <ele>831.3</ele>
        <time>2020-04-05T18:51:02Z</time>
      </trkpt>
      <trkpt lat="42.3701930" lon="-5.0221420">
        <ele>831.6</ele>
        <time>2020-04-05T18:51:04Z</time>
      </trkpt>
      <trkpt lat="42.3701730" lon="-5.0223510">
        <ele>832.0</ele>
        <time>2020-04-05T18:51:06Z</time>
      </trkpt>
      <trkpt lat="42.3701710" lon="-5.0224570">
        <ele>832.1</ele>
        <time>2020-04-05T18:51:08Z</time>
      </trkpt>
      <trkpt lat="42.3701690" lon="-5.0225750">
        <ele>832.1</ele>
        <time>2020-04-05T18:51:10Z</time>
      </trkpt>
      <trkpt lat="42.3701850" lon="-5.0228060">
        <ele>832.3</ele>
        <time>2020-04-05T18:51:12Z</time>
      </trkpt>
      <trkpt lat="42.3702370" lon="-5.0229250">
        <ele>832.5</ele>
        <time>2020-04-05T18:51:14Z</time>
      </trkpt>
      <trkpt lat="42.3703210" lon="-5.0231070">
        <ele>832.7</ele>
        <time>2020-04-05T18:51:16Z</time>
      </trkpt>
      <trkpt lat="42.3703810" lon="-5.0232350">
        <ele>832.8</ele>
        <time>2020-04-05T18:51:18Z</time>
      </trkpt>
      <trkpt lat="42.3705040" lon="-5.0234830">
        <ele>833.1</ele>
        <time>2020-04-05T18:51:20Z</time>
      </trkpt>
      <trkpt lat="42.3706350" lon="-5.0236260">
        <ele>833.5</ele>
        <time>2020-04-05T18:51:22Z</time>
      </trkpt>
      <trkpt lat="42.3707330" lon="-5.0236980">
        <ele>833.7</ele>
        <time>2020-04-05T18:51:24Z</time>
      </trkpt>
      <trkpt lat="42.3708700" lon="-5.0238010">
        <ele>834.1</ele>
        <time>2020-04-05T18:51:26Z</time>
      </trkpt>
      <trkpt lat="42.3709720" lon="-5.0239330">
        <ele>834.4</ele>
        <time>2020-04-05T18:51:28Z</time>
      </trkpt>
      <trkpt lat="42.3710020" lon="-5.0240750">
        <ele>834.7</ele>
        <time>2020-04-05T18:51:30Z</time>
      </trkpt>
      <trkpt lat="42.3710200" lon="-5.0242300">
        <ele>835.0</ele>
        <time>2020-04-05T18:51:32Z</time>
      </trkpt>
      <trkpt lat="42.3710310" lon="-5.0243410">
        <ele>835.2</ele>
        <time>2020-04-05T18:51:34Z</time>
      </trkpt>
      <trkpt lat="42.3710530" lon="-5.0245490">
        <ele>835.7</ele>
        <time>2020-04-05T18:51:36Z</time>
      </trkpt>
      <trkpt lat="42.3710650" lon="-5.0246600">
        <ele>835.9</ele>
        <time>2020-04-05T18:51:38Z</time>
      </trkpt>
      <trkpt lat="42.3710770" lon="-5.0247790">
        <ele>836.2</ele>
        <time>2020-04-05T18:51:40Z</time>
      </trkpt>
      <trkpt lat="42.3710970" lon="-5.0250200">
        <ele>836.7</ele>
        <time>2020-04-05T18:51:42Z</time>
      </trkpt>
      <trkpt lat="42.3711230" lon="-5.0251840">
        <ele>837.1</ele>
        <time>2020-04-05T18:51:44Z</time>
      </trkpt>
      <trkpt lat="42.3711880" lon="-5.0253250">
        <ele>837.5</ele>
        <time>2020-04-05T18:51:46Z</time>
      </trkpt>
      <trkpt lat="42.3712380" lon="-5.0254300">
        <ele>837.7</ele>
        <time>2020-04-05T18:51:48Z</time>
      </trkpt>
      <trkpt lat="42.3712870" lon="-5.0255340">
        <ele>837.9</ele>
        <time>2020-04-05T18:51:50Z</time>
      </trkpt>
      <trkpt lat="42.3713360" lon="-5.0256350">
        <ele>838.1</ele>
        <time>2020-04-05T18:51:52Z</time>
      </trkpt>
      <trkpt lat="42.3714050" lon="-5.0258680">
        <ele>838.1</ele>
        <time>2020-04-05T18:51:54Z</time>
      </trkpt>
      <trkpt lat="42.3713320" lon="-5.0259390">
        <ele>838.1</ele>
        <time>2020-04-05T18:51:56Z</time>
      </trkpt>
      <trkpt lat="42.3712030" lon="-5.0260630">
        <ele>837.3</ele>
        <time>2020-04-05T18:51:58Z</time>
      </trkpt>
      <trkpt lat="42.3711280" lon="-5.0261400">
        <ele>837.1</ele>
        <time>2020-04-05T18:52:00Z</time>
      </trkpt>
      <trkpt lat="42.3710470" lon="-5.0262230">
        <ele>836.9</ele>
        <time>2020-04-05T18:52:02Z</time>
      </trkpt>
      <trkpt lat="42.3708770" lon="-5.0263770">
        <ele>836.4</ele>
        <time>2020-04-05T18:52:04Z</time>
      </trkpt>
      <trkpt lat="42.3707400" lon="-5.0264740">
        <ele>836.2</ele>
        <time>2020-04-05T18:52:06Z</time>
      </trkpt>
      <trkpt lat="42.3705860" lon="-5.0265340">
        <ele>836.0</ele>
        <time>2020-04-05T18:52:08Z</time>
      </trkpt>
      <trkpt lat="42.3704700" lon="-5.0265780">
        <ele>835.5</ele>
        <time>2020-04-05T18:52:10Z</time>
      </trkpt>
      <trkpt lat="42.3704350" lon="-5.0267410">
        <ele>835.3</ele>
        <time>2020-04-05T18:52:12Z</time>
      </trkpt>
      <trkpt lat="42.3704910" lon="-5.0269980">
        <ele>835.0</ele>
        <time>2020-04-05T18:52:14Z</time>
      </trkpt>
      <trkpt lat="42.3705260" lon="-5.0271810">
        <ele>834.5</ele>
        <time>2020-04-05T18:52:16Z</time>
      </trkpt>
      <trkpt lat="42.3705630" lon="-5.0273720">
        <ele>834.0</ele>
        <time>2020-04-05T18:52:18Z</time>
      </trkpt>
      <trkpt lat="42.3706700" lon="-5.0277400">
        <ele>833.2</ele>
        <time>2020-04-05T18:52:20Z</time>
      </trkpt>
      <trkpt lat="42.3708020" lon="-5.0279600">
        <ele>832.5</ele>
        <time>2020-04-05T18:52:22Z</time>
      </trkpt>
      <trkpt lat="42.3709560" lon="-5.0281850">
        <ele>831.5</ele>
        <time>2020-04-05T18:52:24Z</time>
      </trkpt>
      <trkpt lat="42.3711050" lon="-5.0284040">
        <ele>830.0</ele>
        <time>2020-04-05T18:52:26Z</time>
      </trkpt>
      <trkpt lat="42.3712030" lon="-5.0285670">
        <ele>829.0</ele>
        <time>2020-04-05T18:52:28Z</time>
      </trkpt>
      <trkpt lat="42.3714130" lon="-5.0287510">
        <ele>828.2</ele>
        <time>2020-04-05T18:52:30Z</time>
      </trkpt>
      <trkpt lat="42.3715440" lon="-5.0289570">
        <ele>827.4</ele>
        <time>2020-04-05T18:52:32Z</time>
      </trkpt>
      <trkpt lat="42.3716570" lon="-5.0291770">
        <ele>826.2</ele>
        <time>2020-04-05T18:52:34Z</time>
      </trkpt>
      <trkpt lat="42.3717620" lon="-5.0294380">
        <ele>825.3</ele>
        <time>2020-04-05T18:52:36Z</time>
      </trkpt>
      <trkpt lat="42.3718240" lon="-5.0297020">
        <ele>825.1</ele>
        <time>2020-04-05T18:52:38Z</time>
      </trkpt>
      <trkpt lat="42.3718790" lon="-5.0300620">
        <ele>824.6</ele>
        <time>2020-04-05T18:52:40Z</time>
      </trkpt>
      <trkpt lat="42.3719890" lon="-5.0303340">
        <ele>824.4</ele>
        <time>2020-04-05T18:52:42Z</time>
      </trkpt>
      <trkpt lat="42.3721090" lon="-5.0306280">
        <ele>823.4</ele>
        <time>2020-04-05T18:52:44Z</time>
      </trkpt>
      <trkpt lat="42.3721800" lon="-5.0308680">
        <ele>822.7</ele>
        <time>2020-04-05T18:52:46Z</time>
      </trkpt>
      <trkpt lat="42.3723090" lon="-5.0311650">
        <ele>822.2</ele>
        <time>2020-04-05T18:52:48Z</time>
      </trkpt>
      <trkpt lat="42.3722940" lon="-5.0314660">
        <ele>821.2</ele>
        <time>2020-04-05T18:52:50Z</time>
      </trkpt>
      <trkpt lat="42.3722090" lon="-5.0317220">
        <ele>820.2</ele>
        <time>2020-04-05T18:52:52Z</time>
      </trkpt>
      <trkpt lat="42.3721840" lon="-5.0320700">
        <ele>818.9</ele>
        <time>2020-04-05T18:52:54Z</time>
      </trkpt>
      <trkpt lat="42.3722570" lon="-5.0323790">
        <ele>817.6</ele>
        <time>2020-04-05T18:52:56Z</time>
      </trkpt>
      <trkpt lat="42.3723290" lon="-5.0326720">
        <ele>816.6</ele>
        <time>2020-04-05T18:52:58Z</time>
      </trkpt>
      <trkpt lat="42.3724530" lon="-5.0328590">
        <ele>816.1</ele>
        <time>2020-04-05T18:53:00Z</time>
      </trkpt>
      <trkpt lat="42.3726110" lon="-5.0328080">
        <ele>816.7</ele>
        <time>2020-04-05T18:53:02Z</time>
      </trkpt>
      <trkpt lat="42.3727630" lon="-5.0327590">
        <ele>817.0</ele>
        <time>2020-04-05T18:53:04Z</time>
      </trkpt>
      <trkpt lat="42.3730550" lon="-5.0326460">
        <ele>817.6</ele>
        <time>2020-04-05T18:53:06Z</time>
      </trkpt>
      <trkpt lat="42.3732620" lon="-5.0325310">
        <ele>817.6</ele>
        <time>2020-04-05T18:53:08Z</time>
      </trkpt>
      <trkpt lat="42.3733920" lon="-5.0324330">
        <ele>817.6</ele>
        <time>2020-04-05T18:53:10Z</time>
      </trkpt>
      <trkpt lat="42.3735950" lon="-5.0323540">
        <ele>817.5</ele>
        <time>2020-04-05T18:53:12Z</time>
      </trkpt>
      <trkpt lat="42.3736780" lon="-5.0325220">
        <ele>817.3</ele>
        <time>2020-04-05T18:53:14Z</time>
      </trkpt>
      <trkpt lat="42.3738160" lon="-5.0327920">
        <ele>816.2</ele>
        <time>2020-04-05T18:53:16Z</time>
      </trkpt>
      <trkpt lat="42.3739780" lon="-5.0329170">
        <ele>815.4</ele>
        <time>2020-04-05T18:53:18Z</time>
      </trkpt>
      <trkpt lat="42.3741870" lon="-5.0329590">
        <ele>814.8</ele>
        <time>2020-04-05T18:53:20Z</time>
      </trkpt>
      <trkpt lat="42.3743180" lon="-5.0331730">
        <ele>814.5</ele>
        <time>2020-04-05T18:53:22Z</time>
      </trkpt>
      <trkpt lat="42.3744600" lon="-5.0332600">
        <ele>814.3</ele>
        <time>2020-04-05T18:53:24Z</time>
      </trkpt>
      <trkpt lat="42.3746720" lon="-5.0332220">
        <ele>813.9</ele>
        <time>2020-04-05T18:53:26Z</time>
      </trkpt>
      <trkpt lat="42.3749450" lon="-5.0331690">
        <ele>812.8</ele>
        <time>2020-04-05T18:53:28Z</time>
      </trkpt>
      <trkpt lat="42.3751690" lon="-5.0332210">
        <ele>811.1</ele>
        <time>2020-04-05T18:53:30Z</time>
      </trkpt>
      <trkpt lat="42.3753870" lon="-5.0333450">
        <ele>809.7</ele>
        <time>2020-04-05T18:53:32Z</time>
      </trkpt>
      <trkpt lat="42.3755820" lon="-5.0335200">
        <ele>809.2</ele>
        <time>2020-04-05T18:53:34Z</time>
      </trkpt>
      <trkpt lat="42.3757180" lon="-5.0337760">
        <ele>808.7</ele>
        <time>2020-04-05T18:53:36Z</time>
      </trkpt>
      <trkpt lat="42.3758900" lon="-5.0338960">
        <ele>808.0</ele>
        <time>2020-04-05T18:53:38Z</time>
      </trkpt>
      <trkpt lat="42.3760830" lon="-5.0340010">
        <ele>807.4</ele>
        <time>2020-04-05T18:53:40Z</time>
      </trkpt>
      <trkpt lat="42.3762600" lon="-5.0341200">
        <ele>807.0</ele>
        <time>2020-04-05T18:53:42Z</time>
      </trkpt>
      <trkpt lat="42.3763830" lon="-5.0342180">
        <ele>806.8</ele>
        <time>2020-04-05T18:53:44Z</time>
      </trkpt>
      <trkpt lat="42.3765830" lon="-5.0343790">
        <ele>806.7</ele>
        <time>2020-04-05T18:53:46Z</time>
      </trkpt>
      <trkpt lat="42.3767280" lon="-5.0343590">
        <ele>806.8</ele>
        <time>2020-04-05T18:53:48Z</time>
      </trkpt>
      <trkpt lat="42.3768030" lon="-5.0341110">
        <ele>806.9</ele>
        <time>2020-04-05T18:53:50Z</time>
      </trkpt>
      <trkpt lat="42.3769340" lon="-5.0341110">
        <ele>806.8</ele>
        <time>2020-04-05T18:53:52Z</time>
      </trkpt>
      <trkpt lat="42.3771210" lon="-5.0341590">
        <ele>806.7</ele>
        <time>2020-04-05T18:53:54Z</time>
      </trkpt>
      <trkpt lat="42.3772150" lon="-5.0342060">
        <ele>806.5</ele>
        <time>2020-04-05T18:53:55Z</time>
      </trkpt>
      <trkpt lat="42.3772150" lon="-5.0342060">
        <ele>806.5</ele>
        <time>2020-04-05T18:53:55Z</time>
      </trkpt>
      <trkpt lat="42.3772150" lon="-5.0342060">
        <ele>806.5</ele>
        <time>2020-04-05T18:53:57Z</time>
      </trkpt>
      <trkpt lat="42.3772150" lon="-5.0342060">
        <ele>806.5</ele>
        <time>2020-04-05T18:53:59Z</time>
      </trkpt>
      <trkpt lat="42.3772150" lon="-5.0342060">
        <ele>806.5</ele>
        <time>2020-04-05T18:54:01Z</time>
      </trkpt>
      <trkpt lat="42.3772150" lon="-5.0342060">
        <ele>806.5</ele>
        <time>2020-04-05T18:54:03Z</time>
      </trkpt>
      <trkpt lat="42.3772150" lon="-5.0342060">
        <ele>806.5</ele>
        <time>2020-04-05T18:54:05Z</time>
      </trkpt>
      <trkpt lat="42.3772150" lon="-5.0342060">
        <ele>806.5</ele>
        <time>2020-04-05T18:54:07Z</time>
      </trkpt>
      <trkpt lat="42.3772150" lon="-5.0342060">
        <ele>806.5</ele>
        <time>2020-04-05T18:54:08Z</time>
      </trkpt>
      <trkpt lat="42.3694480" lon="-5.0300820">
        <ele>823.4</ele>
        <time>2020-04-07T17:11:27Z</time>
      </trkpt>
      <trkpt lat="42.3694480" lon="-5.0300820">
        <ele>823.4</ele>
        <time>2020-04-07T17:11:29Z</time>
      </trkpt>
      <trkpt lat="42.3694480" lon="-5.0300820">
        <ele>823.4</ele>
        <time>2020-04-07T17:11:31Z</time>
      </trkpt>
      <trkpt lat="42.3694480" lon="-5.0300820">
        <ele>823.4</ele>
        <time>2020-04-07T17:11:33Z</time>
      </trkpt>
      <trkpt lat="42.3694480" lon="-5.0300820">
        <ele>823.4</ele>
        <time>2020-04-07T17:11:35Z</time>
      </trkpt>
      <trkpt lat="42.3694480" lon="-5.0300820">
        <ele>823.4</ele>
        <time>2020-04-07T17:11:37Z</time>
      </trkpt>
      <trkpt lat="42.3694480" lon="-5.0300820">
        <ele>823.4</ele>
        <time>2020-04-07T17:11:39Z</time>
      </trkpt>
      <trkpt lat="42.3694480" lon="-5.0300820">
        <ele>823.4</ele>
        <time>2020-04-07T17:11:41Z</time>
      </trkpt>
      <trkpt lat="42.3694480" lon="-5.0300820">
        <ele>823.4</ele>
        <time>2020-04-07T17:11:43Z</time>
      </trkpt>
      <trkpt lat="42.3694480" lon="-5.0300820">
        <ele>823.4</ele>
        <time>2020-04-07T17:11:45Z</time>
      </trkpt>
      <trkpt lat="42.3694480" lon="-5.0300820">
        <ele>823.4</ele>
        <time>2020-04-07T17:11:47Z</time>
      </trkpt>
      <trkpt lat="42.3694480" lon="-5.0300820">
        <ele>823.4</ele>
        <time>2020-04-07T17:11:49Z</time>
      </trkpt>
      <trkpt lat="42.3694480" lon="-5.0300820">
        <ele>823.4</ele>
        <time>2020-04-07T17:11:51Z</time>
      </trkpt>
      <trkpt lat="42.3694480" lon="-5.0300820">
        <ele>823.4</ele>
        <time>2020-04-07T17:11:53Z</time>
      </trkpt>
      <trkpt lat="42.3694480" lon="-5.0300820">
        <ele>823.4</ele>
        <time>2020-04-07T17:11:55Z</time>
      </trkpt>
      <trkpt lat="42.3694480" lon="-5.0300820">
        <ele>823.4</ele>
        <time>2020-04-07T17:11:57Z</time>
      </trkpt>
      <trkpt lat="42.3694480" lon="-5.0300820">
        <ele>823.4</ele>
        <time>2020-04-07T17:11:59Z</time>
      </trkpt>
      <trkpt lat="42.3694480" lon="-5.0300820">
        <ele>823.4</ele>
        <time>2020-04-07T17:12:01Z</time>
      </trkpt>
      <trkpt lat="42.3694480" lon="-5.0300820">
        <ele>823.4</ele>
        <time>2020-04-07T17:12:03Z</time>
      </trkpt>
      <trkpt lat="42.3694480" lon="-5.0300820">
        <ele>823.4</ele>
        <time>2020-04-07T17:12:05Z</time>
      </trkpt>
      <trkpt lat="42.3694480" lon="-5.0300820">
        <ele>823.4</ele>
        <time>2020-04-07T17:12:07Z</time>
      </trkpt>
      <trkpt lat="42.3694480" lon="-5.0300820">
        <ele>823.4</ele>
        <time>2020-04-07T17:12:09Z</time>
      </trkpt>
      <trkpt lat="42.3694480" lon="-5.0300820">
        <ele>823.4</ele>
        <time>2020-04-07T17:12:11Z</time>
      </trkpt>
      <trkpt lat="42.3694480" lon="-5.0300820">
        <ele>823.4</ele>
        <time>2020-04-07T17:12:13Z</time>
      </trkpt>
      <trkpt lat="42.3694480" lon="-5.0300820">
        <ele>823.4</ele>
        <time>2020-04-07T17:12:15Z</time>
      </trkpt>
      <trkpt lat="42.3694480" lon="-5.0300820">
        <ele>823.4</ele>
        <time>2020-04-07T17:12:17Z</time>
      </trkpt>
      <trkpt lat="42.3694480" lon="-5.0300820">
        <ele>823.4</ele>
        <time>2020-04-07T17:12:19Z</time>
      </trkpt>
      <trkpt lat="42.3694480" lon="-5.0300820">
        <ele>823.4</ele>
        <time>2020-04-07T17:12:21Z</time>
      </trkpt>
      <trkpt lat="42.3694480" lon="-5.0300820">
        <ele>823.4</ele>
        <time>2020-04-07T17:12:23Z</time>
      </trkpt>
      <trkpt lat="42.3694480" lon="-5.0300820">
        <ele>823.4</ele>
        <time>2020-04-07T17:12:25Z</time>
      </trkpt>
      <trkpt lat="42.3694460" lon="-5.0300970">
        <ele>823.4</ele>
        <time>2020-04-07T17:12:27Z</time>
      </trkpt>
      <trkpt lat="42.3694410" lon="-5.0301340">
        <ele>823.4</ele>
        <time>2020-04-07T17:12:29Z</time>
      </trkpt>
      <trkpt lat="42.3694340" lon="-5.0301810">
        <ele>823.2</ele>
        <time>2020-04-07T17:12:31Z</time>
      </trkpt>
      <trkpt lat="42.3694260" lon="-5.0302340">
        <ele>823.2</ele>
        <time>2020-04-07T17:12:33Z</time>
      </trkpt>
      <trkpt lat="42.3694180" lon="-5.0302920">
        <ele>823.2</ele>
        <time>2020-04-07T17:12:35Z</time>
      </trkpt>
      <trkpt lat="42.3694080" lon="-5.0303600">
        <ele>823.2</ele>
        <time>2020-04-07T17:12:37Z</time>
      </trkpt>
      <trkpt lat="42.3693760" lon="-5.0305450">
        <ele>823.2</ele>
        <time>2020-04-07T17:12:39Z</time>
      </trkpt>
      <trkpt lat="42.3693550" lon="-5.0306300">
        <ele>823.2</ele>
        <time>2020-04-07T17:12:41Z</time>
      </trkpt>
      <trkpt lat="42.3693320" lon="-5.0307270">
        <ele>823.2</ele>
        <time>2020-04-07T17:12:43Z</time>
      </trkpt>
      <trkpt lat="42.3693070" lon="-5.0308310">
        <ele>823.2</ele>
        <time>2020-04-07T17:12:45Z</time>
      </trkpt>
      <trkpt lat="42.3692810" lon="-5.0309420">
        <ele>823.2</ele>
        <time>2020-04-07T17:12:47Z</time>
      </trkpt>
      <trkpt lat="42.3692530" lon="-5.0310570">
        <ele>823.0</ele>
        <time>2020-04-07T17:12:49Z</time>
      </trkpt>
      <trkpt lat="42.3692240" lon="-5.0311780">
        <ele>823.0</ele>
        <time>2020-04-07T17:12:51Z</time>
      </trkpt>
      <trkpt lat="42.3691300" lon="-5.0315610">
        <ele>822.8</ele>
        <time>2020-04-07T17:12:53Z</time>
      </trkpt>
      <trkpt lat="42.3690950" lon="-5.0317010">
        <ele>822.2</ele>
        <time>2020-04-07T17:12:55Z</time>
      </trkpt>
      <trkpt lat="42.3690570" lon="-5.0318530">
        <ele>821.8</ele>
        <time>2020-04-07T17:12:57Z</time>
      </trkpt>
      <trkpt lat="42.3690170" lon="-5.0320170">
        <ele>821.2</ele>
        <time>2020-04-07T17:12:59Z</time>
      </trkpt>
      <trkpt lat="42.3689210" lon="-5.0324100">
        <ele>820.0</ele>
        <time>2020-04-07T17:13:01Z</time>
      </trkpt>
      <trkpt lat="42.3688690" lon="-5.0326340">
        <ele>819.2</ele>
        <time>2020-04-07T17:13:03Z</time>
      </trkpt>
      <trkpt lat="42.3688050" lon="-5.0329160">
        <ele>818.4</ele>
        <time>2020-04-07T17:13:05Z</time>
      </trkpt>
      <trkpt lat="42.3688320" lon="-5.0331780">
        <ele>817.4</ele>
        <time>2020-04-07T17:13:07Z</time>
      </trkpt>
      <trkpt lat="42.3689150" lon="-5.0333420">
        <ele>816.8</ele>
        <time>2020-04-07T17:13:09Z</time>
      </trkpt>
      <trkpt lat="42.3691210" lon="-5.0334530">
        <ele>816.0</ele>
        <time>2020-04-07T17:13:11Z</time>
      </trkpt>
      <trkpt lat="42.3692810" lon="-5.0334960">
        <ele>815.4</ele>
        <time>2020-04-07T17:13:13Z</time>
      </trkpt>
      <trkpt lat="42.3695780" lon="-5.0335930">
        <ele>814.4</ele>
        <time>2020-04-07T17:13:15Z</time>
      </trkpt>
      <trkpt lat="42.3695850" lon="-5.0338900">
        <ele>813.6</ele>
        <time>2020-04-07T17:13:17Z</time>
      </trkpt>
      <trkpt lat="42.3695610" lon="-5.0341750">
        <ele>812.6</ele>
        <time>2020-04-07T17:13:19Z</time>
      </trkpt>
      <trkpt lat="42.3695360" lon="-5.0345160">
        <ele>811.6</ele>
        <time>2020-04-07T17:13:21Z</time>
      </trkpt>
      <trkpt lat="42.3695200" lon="-5.0347540">
        <ele>810.8</ele>
        <time>2020-04-07T17:13:23Z</time>
      </trkpt>
      <trkpt lat="42.3694880" lon="-5.0351550">
        <ele>809.2</ele>
        <time>2020-04-07T17:13:25Z</time>
      </trkpt>
      <trkpt lat="42.3693550" lon="-5.0354530">
        <ele>806.6</ele>
        <time>2020-04-07T17:13:27Z</time>
      </trkpt>
      <trkpt lat="42.3691040" lon="-5.0356120">
        <ele>803.8</ele>
        <time>2020-04-07T17:13:29Z</time>
      </trkpt>
      <trkpt lat="42.3688470" lon="-5.0357750">
        <ele>801.0</ele>
        <time>2020-04-07T17:13:31Z</time>
      </trkpt>
      <trkpt lat="42.3687470" lon="-5.0360770">
        <ele>799.2</ele>
        <time>2020-04-07T17:13:33Z</time>
      </trkpt>
      <trkpt lat="42.3687790" lon="-5.0363730">
        <ele>797.8</ele>
        <time>2020-04-07T17:13:35Z</time>
      </trkpt>
      <trkpt lat="42.3688700" lon="-5.0369100">
        <ele>795.2</ele>
        <time>2020-04-07T17:13:37Z</time>
      </trkpt>
      <trkpt lat="42.3689900" lon="-5.0372030">
        <ele>794.8</ele>
        <time>2020-04-07T17:13:39Z</time>
      </trkpt>
      <trkpt lat="42.3690900" lon="-5.0374490">
        <ele>794.8</ele>
        <time>2020-04-07T17:13:41Z</time>
      </trkpt>
      <trkpt lat="42.3692600" lon="-5.0378660">
        <ele>795.0</ele>
        <time>2020-04-07T17:13:43Z</time>
      </trkpt>
      <trkpt lat="42.3693860" lon="-5.0381740">
        <ele>795.0</ele>
        <time>2020-04-07T17:13:45Z</time>
      </trkpt>
      <trkpt lat="42.3695070" lon="-5.0384740">
        <ele>795.2</ele>
        <time>2020-04-07T17:13:47Z</time>
      </trkpt>
      <trkpt lat="42.3695920" lon="-5.0387130">
        <ele>795.4</ele>
        <time>2020-04-07T17:13:49Z</time>
      </trkpt>
      <trkpt lat="42.3696620" lon="-5.0389080">
        <ele>795.6</ele>
        <time>2020-04-07T17:13:51Z</time>
      </trkpt>
      <trkpt lat="42.3697940" lon="-5.0392670">
        <ele>796.0</ele>
        <time>2020-04-07T17:13:53Z</time>
      </trkpt>
      <trkpt lat="42.3698790" lon="-5.0394770">
        <ele>796.2</ele>
        <time>2020-04-07T17:13:55Z</time>
      </trkpt>
      <trkpt lat="42.3699460" lon="-5.0396420">
        <ele>796.4</ele>
        <time>2020-04-07T17:13:57Z</time>
      </trkpt>
      <trkpt lat="42.3700100" lon="-5.0398030">
        <ele>796.4</ele>
        <time>2020-04-07T17:13:59Z</time>
      </trkpt>
      <trkpt lat="42.3701540" lon="-5.0401590">
        <ele>796.8</ele>
        <time>2020-04-07T17:14:01Z</time>
      </trkpt>
      <trkpt lat="42.3702140" lon="-5.0403170">
        <ele>796.8</ele>
        <time>2020-04-07T17:14:03Z</time>
      </trkpt>
      <trkpt lat="42.3702710" lon="-5.0404670">
        <ele>796.8</ele>
        <time>2020-04-07T17:14:05Z</time>
      </trkpt>
      <trkpt lat="42.3703280" lon="-5.0406170">
        <ele>796.6</ele>
        <time>2020-04-07T17:14:07Z</time>
      </trkpt>
      <trkpt lat="42.3703850" lon="-5.0407680">
        <ele>796.6</ele>
        <time>2020-04-07T17:14:09Z</time>
      </trkpt>
      <trkpt lat="42.3705320" lon="-5.0411560">
        <ele>796.4</ele>
        <time>2020-04-07T17:14:11Z</time>
      </trkpt>
      <trkpt lat="42.3705900" lon="-5.0413070">
        <ele>796.4</ele>
        <time>2020-04-07T17:14:13Z</time>
      </trkpt>
      <trkpt lat="42.3706930" lon="-5.0415800">
        <ele>796.2</ele>
        <time>2020-04-07T17:14:15Z</time>
      </trkpt>
      <trkpt lat="42.3707680" lon="-5.0417760">
        <ele>796.0</ele>
        <time>2020-04-07T17:14:17Z</time>
      </trkpt>
      <trkpt lat="42.3708530" lon="-5.0419970">
        <ele>796.0</ele>
        <time>2020-04-07T17:14:19Z</time>
      </trkpt>
      <trkpt lat="42.3709090" lon="-5.0421420">
        <ele>796.4</ele>
        <time>2020-04-07T17:14:21Z</time>
      </trkpt>
      <trkpt lat="42.3709630" lon="-5.0422810">
        <ele>796.6</ele>
        <time>2020-04-07T17:14:23Z</time>
      </trkpt>
      <trkpt lat="42.3710130" lon="-5.0424130">
        <ele>797.0</ele>
        <time>2020-04-07T17:14:25Z</time>
      </trkpt>
      <trkpt lat="42.3710610" lon="-5.0425380">
        <ele>797.2</ele>
        <time>2020-04-07T17:14:27Z</time>
      </trkpt>
      <trkpt lat="42.3711980" lon="-5.0428930">
        <ele>798.0</ele>
        <time>2020-04-07T17:14:29Z</time>
      </trkpt>
      <trkpt lat="42.3712420" lon="-5.0430070">
        <ele>798.2</ele>
        <time>2020-04-07T17:14:31Z</time>
      </trkpt>
      <trkpt lat="42.3712840" lon="-5.0431170">
        <ele>798.6</ele>
        <time>2020-04-07T17:14:33Z</time>
      </trkpt>
      <trkpt lat="42.3713250" lon="-5.0432240">
        <ele>798.8</ele>
        <time>2020-04-07T17:14:35Z</time>
      </trkpt>
      <trkpt lat="42.3713660" lon="-5.0433280">
        <ele>799.0</ele>
        <time>2020-04-07T17:14:37Z</time>
      </trkpt>
      <trkpt lat="42.3714050" lon="-5.0434290">
        <ele>799.2</ele>
        <time>2020-04-07T17:14:39Z</time>
      </trkpt>
      <trkpt lat="42.3714430" lon="-5.0435280">
        <ele>799.4</ele>
        <time>2020-04-07T17:14:41Z</time>
      </trkpt>
      <trkpt lat="42.3715730" lon="-5.0438640">
        <ele>800.0</ele>
        <time>2020-04-07T17:14:43Z</time>
      </trkpt>
      <trkpt lat="42.3716130" lon="-5.0439700">
        <ele>800.2</ele>
        <time>2020-04-07T17:14:45Z</time>
      </trkpt>
      <trkpt lat="42.3716560" lon="-5.0440800">
        <ele>800.2</ele>
        <time>2020-04-07T17:14:47Z</time>
      </trkpt>
      <trkpt lat="42.3716990" lon="-5.0441940">
        <ele>800.2</ele>
        <time>2020-04-07T17:14:49Z</time>
      </trkpt>
      <trkpt lat="42.3718120" lon="-5.0444900">
        <ele>800.4</ele>
        <time>2020-04-07T17:14:51Z</time>
      </trkpt>
      <trkpt lat="42.3718560" lon="-5.0446090">
        <ele>800.4</ele>
        <time>2020-04-07T17:14:53Z</time>
      </trkpt>
      <trkpt lat="42.3719010" lon="-5.0447290">
        <ele>800.6</ele>
        <time>2020-04-07T17:14:55Z</time>
      </trkpt>
      <trkpt lat="42.3719470" lon="-5.0448520">
        <ele>800.6</ele>
        <time>2020-04-07T17:14:57Z</time>
      </trkpt>
      <trkpt lat="42.3719930" lon="-5.0449760">
        <ele>800.6</ele>
        <time>2020-04-07T17:14:59Z</time>
      </trkpt>
      <trkpt lat="42.3721130" lon="-5.0452760">
        <ele>800.8</ele>
        <time>2020-04-07T17:15:01Z</time>
      </trkpt>
      <trkpt lat="42.3721670" lon="-5.0453970">
        <ele>801.0</ele>
        <time>2020-04-07T17:15:03Z</time>
      </trkpt>
      <trkpt lat="42.3722190" lon="-5.0455150">
        <ele>801.0</ele>
        <time>2020-04-07T17:15:05Z</time>
      </trkpt>
      <trkpt lat="42.3723340" lon="-5.0457540">
        <ele>801.4</ele>
        <time>2020-04-07T17:15:07Z</time>
      </trkpt>
      <trkpt lat="42.3723930" lon="-5.0458670">
        <ele>801.4</ele>
        <time>2020-04-07T17:15:09Z</time>
      </trkpt>
      <trkpt lat="42.3724530" lon="-5.0459810">
        <ele>801.6</ele>
        <time>2020-04-07T17:15:11Z</time>
      </trkpt>
      <trkpt lat="42.3725110" lon="-5.0460930">
        <ele>801.6</ele>
        <time>2020-04-07T17:15:13Z</time>
      </trkpt>
      <trkpt lat="42.3725700" lon="-5.0462060">
        <ele>801.8</ele>
        <time>2020-04-07T17:15:15Z</time>
      </trkpt>
      <trkpt lat="42.3727390" lon="-5.0465290">
        <ele>802.0</ele>
        <time>2020-04-07T17:15:17Z</time>
      </trkpt>
      <trkpt lat="42.3728010" lon="-5.0466470">
        <ele>801.8</ele>
        <time>2020-04-07T17:15:19Z</time>
      </trkpt>
      <trkpt lat="42.3728660" lon="-5.0467700">
        <ele>801.8</ele>
        <time>2020-04-07T17:15:21Z</time>
      </trkpt>
      <trkpt lat="42.3729320" lon="-5.0468970">
        <ele>801.6</ele>
        <time>2020-04-07T17:15:23Z</time>
      </trkpt>
      <trkpt lat="42.3730000" lon="-5.0470280">
        <ele>801.4</ele>
        <time>2020-04-07T17:15:25Z</time>
      </trkpt>
      <trkpt lat="42.3731790" lon="-5.0473700">
        <ele>801.2</ele>
        <time>2020-04-07T17:15:27Z</time>
      </trkpt>
      <trkpt lat="42.3732500" lon="-5.0475060">
        <ele>801.0</ele>
        <time>2020-04-07T17:15:29Z</time>
      </trkpt>
      <trkpt lat="42.3733230" lon="-5.0476440">
        <ele>801.0</ele>
        <time>2020-04-07T17:15:31Z</time>
      </trkpt>
      <trkpt lat="42.3733960" lon="-5.0477830">
        <ele>800.8</ele>
        <time>2020-04-07T17:15:33Z</time>
      </trkpt>
      <trkpt lat="42.3735800" lon="-5.0481350">
        <ele>800.4</ele>
        <time>2020-04-07T17:15:35Z</time>
      </trkpt>
      <trkpt lat="42.3736560" lon="-5.0482810">
        <ele>800.2</ele>
        <time>2020-04-07T17:15:37Z</time>
      </trkpt>
      <trkpt lat="42.3737340" lon="-5.0484300">
        <ele>800.0</ele>
        <time>2020-04-07T17:15:39Z</time>
      </trkpt>
      <trkpt lat="42.3738130" lon="-5.0485810">
        <ele>799.8</ele>
        <time>2020-04-07T17:15:41Z</time>
      </trkpt>
      <trkpt lat="42.3740080" lon="-5.0489400">
        <ele>799.2</ele>
        <time>2020-04-07T17:15:43Z</time>
      </trkpt>
      <trkpt lat="42.3741660" lon="-5.0491440">
        <ele>798.8</ele>
        <time>2020-04-07T17:15:45Z</time>
      </trkpt>
      <trkpt lat="42.3743250" lon="-5.0492700">
        <ele>798.4</ele>
        <time>2020-04-07T17:15:47Z</time>
      </trkpt>
      <trkpt lat="42.3743700" lon="-5.0495190">
        <ele>798.0</ele>
        <time>2020-04-07T17:15:49Z</time>
      </trkpt>
      <trkpt lat="42.3742210" lon="-5.0497020">
        <ele>797.6</ele>
        <time>2020-04-07T17:15:51Z</time>
      </trkpt>
      <trkpt lat="42.3743560" lon="-5.0497530">
        <ele>797.2</ele>
        <time>2020-04-07T17:15:53Z</time>
      </trkpt>
      <trkpt lat="42.3744940" lon="-5.0499010">
        <ele>798.6</ele>
        <time>2020-04-07T17:15:55Z</time>
      </trkpt>
      <trkpt lat="42.3745730" lon="-5.0500460">
        <ele>798.6</ele>
        <time>2020-04-07T17:15:57Z</time>
      </trkpt>
      <trkpt lat="42.3746510" lon="-5.0501900">
        <ele>798.4</ele>
        <time>2020-04-07T17:15:59Z</time>
      </trkpt>
      <trkpt lat="42.3747300" lon="-5.0503360">
        <ele>798.4</ele>
        <time>2020-04-07T17:16:01Z</time>
      </trkpt>
      <trkpt lat="42.3749240" lon="-5.0506940">
        <ele>798.4</ele>
        <time>2020-04-07T17:16:03Z</time>
      </trkpt>
      <trkpt lat="42.3750030" lon="-5.0508390">
        <ele>798.4</ele>
        <time>2020-04-07T17:16:05Z</time>
      </trkpt>
      <trkpt lat="42.3750830" lon="-5.0509860">
        <ele>798.4</ele>
        <time>2020-04-07T17:16:07Z</time>
      </trkpt>
      <trkpt lat="42.3751630" lon="-5.0511330">
        <ele>798.2</ele>
        <time>2020-04-07T17:16:09Z</time>
      </trkpt>
      <trkpt lat="42.3753250" lon="-5.0514480">
        <ele>798.2</ele>
        <time>2020-04-07T17:16:11Z</time>
      </trkpt>
      <trkpt lat="42.3754230" lon="-5.0516740">
        <ele>798.0</ele>
        <time>2020-04-07T17:16:13Z</time>
      </trkpt>
      <trkpt lat="42.3755050" lon="-5.0518860">
        <ele>797.6</ele>
        <time>2020-04-07T17:16:15Z</time>
      </trkpt>
      <trkpt lat="42.3756100" lon="-5.0521630">
        <ele>797.2</ele>
        <time>2020-04-07T17:16:17Z</time>
      </trkpt>
      <trkpt lat="42.3756910" lon="-5.0524240">
        <ele>796.8</ele>
        <time>2020-04-07T17:16:19Z</time>
      </trkpt>
      <trkpt lat="42.3757510" lon="-5.0526810">
        <ele>796.4</ele>
        <time>2020-04-07T17:16:21Z</time>
      </trkpt>
      <trkpt lat="42.3758100" lon="-5.0529390">
        <ele>796.4</ele>
        <time>2020-04-07T17:16:23Z</time>
      </trkpt>
      <trkpt lat="42.3758490" lon="-5.0531280">
        <ele>796.4</ele>
        <time>2020-04-07T17:16:25Z</time>
      </trkpt>
      <trkpt lat="42.3759080" lon="-5.0534170">
        <ele>796.2</ele>
        <time>2020-04-07T17:16:27Z</time>
      </trkpt>
      <trkpt lat="42.3759450" lon="-5.0535990">
        <ele>796.2</ele>
        <time>2020-04-07T17:16:29Z</time>
      </trkpt>
      <trkpt lat="42.3759830" lon="-5.0537810">
        <ele>796.2</ele>
        <time>2020-04-07T17:16:31Z</time>
      </trkpt>
      <trkpt lat="42.3760560" lon="-5.0541510">
        <ele>796.2</ele>
        <time>2020-04-07T17:16:33Z</time>
      </trkpt>
      <trkpt lat="42.3760880" lon="-5.0543280">
        <ele>796.4</ele>
        <time>2020-04-07T17:16:35Z</time>
      </trkpt>
      <trkpt lat="42.3761190" lon="-5.0545020">
        <ele>796.6</ele>
        <time>2020-04-07T17:16:37Z</time>
      </trkpt>
      <trkpt lat="42.3761490" lon="-5.0546710">
        <ele>796.8</ele>
        <time>2020-04-07T17:16:39Z</time>
      </trkpt>
      <trkpt lat="42.3762290" lon="-5.0551160">
        <ele>797.2</ele>
        <time>2020-04-07T17:16:41Z</time>
      </trkpt>
      <trkpt lat="42.3762640" lon="-5.0553130">
        <ele>797.4</ele>
        <time>2020-04-07T17:16:43Z</time>
      </trkpt>
      <trkpt lat="42.3762930" lon="-5.0554750">
        <ele>797.6</ele>
        <time>2020-04-07T17:16:45Z</time>
      </trkpt>
      <trkpt lat="42.3763210" lon="-5.0556360">
        <ele>797.6</ele>
        <time>2020-04-07T17:16:47Z</time>
      </trkpt>
      <trkpt lat="42.3763480" lon="-5.0557950">
        <ele>797.8</ele>
        <time>2020-04-07T17:16:49Z</time>
      </trkpt>
      <trkpt lat="42.3764160" lon="-5.0561810">
        <ele>798.2</ele>
        <time>2020-04-07T17:16:51Z</time>
      </trkpt>
      <trkpt lat="42.3764520" lon="-5.0563700">
        <ele>798.4</ele>
        <time>2020-04-07T17:16:53Z</time>
      </trkpt>
      <trkpt lat="42.3764800" lon="-5.0565220">
        <ele>798.6</ele>
        <time>2020-04-07T17:16:55Z</time>
      </trkpt>
      <trkpt lat="42.3765080" lon="-5.0566710">
        <ele>798.8</ele>
        <time>2020-04-07T17:16:57Z</time>
      </trkpt>
      <trkpt lat="42.3765360" lon="-5.0568200">
        <ele>799.0</ele>
        <time>2020-04-07T17:16:59Z</time>
      </trkpt>
      <trkpt lat="42.3765640" lon="-5.0569670">
        <ele>799.2</ele>
        <time>2020-04-07T17:17:01Z</time>
      </trkpt>
      <trkpt lat="42.3766480" lon="-5.0574080">
        <ele>799.8</ele>
        <time>2020-04-07T17:17:03Z</time>
      </trkpt>
      <trkpt lat="42.3766820" lon="-5.0575480">
        <ele>800.0</ele>
        <time>2020-04-07T17:17:05Z</time>
      </trkpt>
      <trkpt lat="42.3767150" lon="-5.0576860">
        <ele>800.2</ele>
        <time>2020-04-07T17:17:07Z</time>
      </trkpt>
      <trkpt lat="42.3767480" lon="-5.0578240">
        <ele>800.4</ele>
        <time>2020-04-07T17:17:09Z</time>
      </trkpt>
      <trkpt lat="42.3767810" lon="-5.0579590">
        <ele>800.6</ele>
        <time>2020-04-07T17:17:11Z</time>
      </trkpt>
      <trkpt lat="42.3768130" lon="-5.0580930">
        <ele>800.8</ele>
        <time>2020-04-07T17:17:13Z</time>
      </trkpt>
      <trkpt lat="42.3769140" lon="-5.0585070">
        <ele>801.4</ele>
        <time>2020-04-07T17:17:15Z</time>
      </trkpt>
      <trkpt lat="42.3769480" lon="-5.0586370">
        <ele>801.6</ele>
        <time>2020-04-07T17:17:17Z</time>
      </trkpt>
      <trkpt lat="42.3769830" lon="-5.0587670">
        <ele>801.8</ele>
        <time>2020-04-07T17:17:19Z</time>
      </trkpt>
      <trkpt lat="42.3770170" lon="-5.0588960">
        <ele>802.0</ele>
        <time>2020-04-07T17:17:21Z</time>
      </trkpt>
      <trkpt lat="42.3770510" lon="-5.0590240">
        <ele>802.4</ele>
        <time>2020-04-07T17:17:23Z</time>
      </trkpt>
      <trkpt lat="42.3770850" lon="-5.0591510">
        <ele>802.6</ele>
        <time>2020-04-07T17:17:25Z</time>
      </trkpt>
      <trkpt lat="42.3771850" lon="-5.0595270">
        <ele>803.0</ele>
        <time>2020-04-07T17:17:27Z</time>
      </trkpt>
      <trkpt lat="42.3772200" lon="-5.0596580">
        <ele>803.2</ele>
        <time>2020-04-07T17:17:29Z</time>
      </trkpt>
      <trkpt lat="42.3772560" lon="-5.0597910">
        <ele>803.2</ele>
        <time>2020-04-07T17:17:31Z</time>
      </trkpt>
      <trkpt lat="42.3772920" lon="-5.0599270">
        <ele>803.4</ele>
        <time>2020-04-07T17:17:33Z</time>
      </trkpt>
      <trkpt lat="42.3773280" lon="-5.0600630">
        <ele>803.4</ele>
        <time>2020-04-07T17:17:35Z</time>
      </trkpt>
      <trkpt lat="42.3774310" lon="-5.0604490">
        <ele>803.8</ele>
        <time>2020-04-07T17:17:37Z</time>
      </trkpt>
      <trkpt lat="42.3774680" lon="-5.0605890">
        <ele>803.8</ele>
        <time>2020-04-07T17:17:39Z</time>
      </trkpt>
      <trkpt lat="42.3775060" lon="-5.0607300">
        <ele>804.0</ele>
        <time>2020-04-07T17:17:41Z</time>
      </trkpt>
      <trkpt lat="42.3775870" lon="-5.0610380">
        <ele>804.2</ele>
        <time>2020-04-07T17:17:43Z</time>
      </trkpt>
      <trkpt lat="42.3776240" lon="-5.0611810">
        <ele>804.2</ele>
        <time>2020-04-07T17:17:45Z</time>
      </trkpt>
      <trkpt lat="42.3776820" lon="-5.0614060">
        <ele>804.4</ele>
        <time>2020-04-07T17:17:47Z</time>
      </trkpt>
      <trkpt lat="42.3777200" lon="-5.0615510">
        <ele>804.6</ele>
        <time>2020-04-07T17:17:49Z</time>
      </trkpt>
      <trkpt lat="42.3777570" lon="-5.0616960">
        <ele>804.8</ele>
        <time>2020-04-07T17:17:51Z</time>
      </trkpt>
      <trkpt lat="42.3777950" lon="-5.0618420">
        <ele>804.8</ele>
        <time>2020-04-07T17:17:53Z</time>
      </trkpt>
      <trkpt lat="42.3778330" lon="-5.0619870">
        <ele>805.0</ele>
        <time>2020-04-07T17:17:55Z</time>
      </trkpt>
      <trkpt lat="42.3779380" lon="-5.0623810">
        <ele>805.4</ele>
        <time>2020-04-07T17:17:57Z</time>
      </trkpt>
      <trkpt lat="42.3779790" lon="-5.0625260">
        <ele>805.6</ele>
        <time>2020-04-07T17:17:59Z</time>
      </trkpt>
      <trkpt lat="42.3780200" lon="-5.0626710">
        <ele>805.6</ele>
        <time>2020-04-07T17:18:01Z</time>
      </trkpt>
      <trkpt lat="42.3781090" lon="-5.0629870">
        <ele>806.0</ele>
        <time>2020-04-07T17:18:03Z</time>
      </trkpt>
      <trkpt lat="42.3781730" lon="-5.0632080">
        <ele>806.2</ele>
        <time>2020-04-07T17:18:05Z</time>
      </trkpt>
      <trkpt lat="42.3782200" lon="-5.0633540">
        <ele>806.0</ele>
        <time>2020-04-07T17:18:07Z</time>
      </trkpt>
      <trkpt lat="42.3782990" lon="-5.0635900">
        <ele>805.8</ele>
        <time>2020-04-07T17:18:09Z</time>
      </trkpt>
      <trkpt lat="42.3783570" lon="-5.0637410">
        <ele>805.8</ele>
        <time>2020-04-07T17:18:11Z</time>
      </trkpt>
      <trkpt lat="42.3784610" lon="-5.0639950">
        <ele>805.6</ele>
        <time>2020-04-07T17:18:13Z</time>
      </trkpt>
      <trkpt lat="42.3785310" lon="-5.0641460">
        <ele>805.4</ele>
        <time>2020-04-07T17:18:15Z</time>
      </trkpt>
      <trkpt lat="42.3786600" lon="-5.0644150">
        <ele>805.2</ele>
        <time>2020-04-07T17:18:17Z</time>
      </trkpt>
      <trkpt lat="42.3787430" lon="-5.0645650">
        <ele>804.8</ele>
        <time>2020-04-07T17:18:19Z</time>
      </trkpt>
      <trkpt lat="42.3788950" lon="-5.0648390">
        <ele>804.4</ele>
        <time>2020-04-07T17:18:21Z</time>
      </trkpt>
      <trkpt lat="42.3789900" lon="-5.0649910">
        <ele>804.0</ele>
        <time>2020-04-07T17:18:23Z</time>
      </trkpt>
      <trkpt lat="42.3790860" lon="-5.0651470">
        <ele>803.6</ele>
        <time>2020-04-07T17:18:25Z</time>
      </trkpt>
      <trkpt lat="42.3791840" lon="-5.0653050">
        <ele>803.4</ele>
        <time>2020-04-07T17:18:27Z</time>
      </trkpt>
      <trkpt lat="42.3794010" lon="-5.0656580">
        <ele>802.8</ele>
        <time>2020-04-07T17:18:29Z</time>
      </trkpt>
      <trkpt lat="42.3794990" lon="-5.0658160">
        <ele>802.8</ele>
        <time>2020-04-07T17:18:31Z</time>
      </trkpt>
      <trkpt lat="42.3795960" lon="-5.0659730">
        <ele>802.8</ele>
        <time>2020-04-07T17:18:33Z</time>
      </trkpt>
      <trkpt lat="42.3798090" lon="-5.0663180">
        <ele>802.8</ele>
        <time>2020-04-07T17:18:35Z</time>
      </trkpt>
      <trkpt lat="42.3799030" lon="-5.0664710">
        <ele>803.0</ele>
        <time>2020-04-07T17:18:37Z</time>
      </trkpt>
      <trkpt lat="42.3799950" lon="-5.0666220">
        <ele>803.0</ele>
        <time>2020-04-07T17:18:39Z</time>
      </trkpt>
      <trkpt lat="42.3800870" lon="-5.0667720">
        <ele>803.0</ele>
        <time>2020-04-07T17:18:41Z</time>
      </trkpt>
      <trkpt lat="42.3802960" lon="-5.0671120">
        <ele>803.0</ele>
        <time>2020-04-07T17:18:43Z</time>
      </trkpt>
      <trkpt lat="42.3803870" lon="-5.0672600">
        <ele>803.0</ele>
        <time>2020-04-07T17:18:45Z</time>
      </trkpt>
      <trkpt lat="42.3804770" lon="-5.0674070">
        <ele>802.8</ele>
        <time>2020-04-07T17:18:47Z</time>
      </trkpt>
      <trkpt lat="42.3806720" lon="-5.0677320">
        <ele>802.8</ele>
        <time>2020-04-07T17:18:49Z</time>
      </trkpt>
      <trkpt lat="42.3807550" lon="-5.0678850">
        <ele>802.8</ele>
        <time>2020-04-07T17:18:51Z</time>
      </trkpt>
      <trkpt lat="42.3808840" lon="-5.0681330">
        <ele>802.8</ele>
        <time>2020-04-07T17:18:53Z</time>
      </trkpt>
      <trkpt lat="42.3809970" lon="-5.0683710">
        <ele>802.6</ele>
        <time>2020-04-07T17:18:55Z</time>
      </trkpt>
      <trkpt lat="42.3810640" lon="-5.0685370">
        <ele>802.6</ele>
        <time>2020-04-07T17:18:57Z</time>
      </trkpt>
      <trkpt lat="42.3811620" lon="-5.0687880">
        <ele>802.6</ele>
        <time>2020-04-07T17:18:59Z</time>
      </trkpt>
      <trkpt lat="42.3812240" lon="-5.0689570">
        <ele>802.6</ele>
        <time>2020-04-07T17:19:01Z</time>
      </trkpt>
      <trkpt lat="42.3813220" lon="-5.0692340">
        <ele>802.6</ele>
        <time>2020-04-07T17:19:03Z</time>
      </trkpt>
      <trkpt lat="42.3814080" lon="-5.0694900">
        <ele>802.6</ele>
        <time>2020-04-07T17:19:05Z</time>
      </trkpt>
      <trkpt lat="42.3814650" lon="-5.0696630">
        <ele>802.4</ele>
        <time>2020-04-07T17:19:07Z</time>
      </trkpt>
      <trkpt lat="42.3815640" lon="-5.0699620">
        <ele>802.6</ele>
        <time>2020-04-07T17:19:09Z</time>
      </trkpt>
      <trkpt lat="42.3816190" lon="-5.0701260">
        <ele>803.0</ele>
        <time>2020-04-07T17:19:11Z</time>
      </trkpt>
      <trkpt lat="42.3816700" lon="-5.0702820">
        <ele>803.6</ele>
        <time>2020-04-07T17:19:13Z</time>
      </trkpt>
      <trkpt lat="42.3817200" lon="-5.0704300">
        <ele>804.0</ele>
        <time>2020-04-07T17:19:15Z</time>
      </trkpt>
      <trkpt lat="42.3818370" lon="-5.0707830">
        <ele>804.8</ele>
        <time>2020-04-07T17:19:17Z</time>
      </trkpt>
      <trkpt lat="42.3818820" lon="-5.0709170">
        <ele>805.2</ele>
        <time>2020-04-07T17:19:19Z</time>
      </trkpt>
      <trkpt lat="42.3819250" lon="-5.0710480">
        <ele>805.6</ele>
        <time>2020-04-07T17:19:21Z</time>
      </trkpt>
      <trkpt lat="42.3820070" lon="-5.0713040">
        <ele>806.2</ele>
        <time>2020-04-07T17:19:23Z</time>
      </trkpt>
      <trkpt lat="42.3820460" lon="-5.0714330">
        <ele>806.4</ele>
        <time>2020-04-07T17:19:25Z</time>
      </trkpt>
      <trkpt lat="42.3821030" lon="-5.0716510">
        <ele>806.8</ele>
        <time>2020-04-07T17:19:27Z</time>
      </trkpt>
      <trkpt lat="42.3821460" lon="-5.0718560">
        <ele>807.2</ele>
        <time>2020-04-07T17:19:29Z</time>
      </trkpt>
      <trkpt lat="42.3821760" lon="-5.0720510">
        <ele>807.4</ele>
        <time>2020-04-07T17:19:31Z</time>
      </trkpt>
      <trkpt lat="42.3821880" lon="-5.0721930">
        <ele>807.6</ele>
        <time>2020-04-07T17:19:33Z</time>
      </trkpt>
      <trkpt lat="42.3822050" lon="-5.0724190">
        <ele>808.0</ele>
        <time>2020-04-07T17:19:35Z</time>
      </trkpt>
      <trkpt lat="42.3822090" lon="-5.0725560">
        <ele>808.2</ele>
        <time>2020-04-07T17:19:37Z</time>
      </trkpt>
      <trkpt lat="42.3822120" lon="-5.0726920">
        <ele>808.4</ele>
        <time>2020-04-07T17:19:39Z</time>
      </trkpt>
      <trkpt lat="42.3822160" lon="-5.0728280">
        <ele>808.6</ele>
        <time>2020-04-07T17:19:41Z</time>
      </trkpt>
      <trkpt lat="42.3822240" lon="-5.0731630">
        <ele>809.2</ele>
        <time>2020-04-07T17:19:43Z</time>
      </trkpt>
      <trkpt lat="42.3822280" lon="-5.0733000">
        <ele>809.4</ele>
        <time>2020-04-07T17:19:45Z</time>
      </trkpt>
      <trkpt lat="42.3822320" lon="-5.0734360">
        <ele>809.6</ele>
        <time>2020-04-07T17:19:47Z</time>
      </trkpt>
      <trkpt lat="42.3822370" lon="-5.0735720">
        <ele>809.8</ele>
        <time>2020-04-07T17:19:49Z</time>
      </trkpt>
      <trkpt lat="42.3822410" lon="-5.0737080">
        <ele>810.0</ele>
        <time>2020-04-07T17:19:51Z</time>
      </trkpt>
      <trkpt lat="42.3823340" lon="-5.0740000">
        <ele>810.4</ele>
        <time>2020-04-07T17:19:53Z</time>
      </trkpt>
      <trkpt lat="42.3823550" lon="-5.0741590">
        <ele>810.8</ele>
        <time>2020-04-07T17:19:55Z</time>
      </trkpt>
      <trkpt lat="42.3823600" lon="-5.0742920">
        <ele>810.8</ele>
        <time>2020-04-07T17:19:57Z</time>
      </trkpt>
      <trkpt lat="42.3823660" lon="-5.0744240">
        <ele>811.0</ele>
        <time>2020-04-07T17:19:59Z</time>
      </trkpt>
      <trkpt lat="42.3823710" lon="-5.0745550">
        <ele>811.2</ele>
        <time>2020-04-07T17:20:01Z</time>
      </trkpt>
      <trkpt lat="42.3823840" lon="-5.0748730">
        <ele>811.6</ele>
        <time>2020-04-07T17:20:03Z</time>
      </trkpt>
      <trkpt lat="42.3823900" lon="-5.0750040">
        <ele>811.8</ele>
        <time>2020-04-07T17:20:05Z</time>
      </trkpt>
      <trkpt lat="42.3823950" lon="-5.0751350">
        <ele>812.0</ele>
        <time>2020-04-07T17:20:07Z</time>
      </trkpt>
      <trkpt lat="42.3824010" lon="-5.0752640">
        <ele>812.2</ele>
        <time>2020-04-07T17:20:09Z</time>
      </trkpt>
      <trkpt lat="42.3824140" lon="-5.0755820">
        <ele>812.6</ele>
        <time>2020-04-07T17:20:11Z</time>
      </trkpt>
      <trkpt lat="42.3824190" lon="-5.0757140">
        <ele>812.6</ele>
        <time>2020-04-07T17:20:13Z</time>
      </trkpt>
      <trkpt lat="42.3824250" lon="-5.0758490">
        <ele>812.8</ele>
        <time>2020-04-07T17:20:15Z</time>
      </trkpt>
      <trkpt lat="42.3824300" lon="-5.0759850">
        <ele>812.8</ele>
        <time>2020-04-07T17:20:17Z</time>
      </trkpt>
      <trkpt lat="42.3824490" lon="-5.0762980">
        <ele>813.0</ele>
        <time>2020-04-07T17:20:19Z</time>
      </trkpt>
      <trkpt lat="42.3824070" lon="-5.0765050">
        <ele>813.2</ele>
        <time>2020-04-07T17:20:21Z</time>
      </trkpt>
      <trkpt lat="42.3824430" lon="-5.0766350">
        <ele>813.2</ele>
        <time>2020-04-07T17:20:23Z</time>
      </trkpt>
      <trkpt lat="42.3825190" lon="-5.0768410">
        <ele>813.4</ele>
        <time>2020-04-07T17:20:25Z</time>
      </trkpt>
      <trkpt lat="42.3824760" lon="-5.0769920">
        <ele>813.6</ele>
        <time>2020-04-07T17:20:27Z</time>
      </trkpt>
      <trkpt lat="42.3824150" lon="-5.0771680">
        <ele>813.8</ele>
        <time>2020-04-07T17:20:29Z</time>
      </trkpt>
      <trkpt lat="42.3824140" lon="-5.0773130">
        <ele>814.0</ele>
        <time>2020-04-07T17:20:31Z</time>
      </trkpt>
      <trkpt lat="42.3824660" lon="-5.0774830">
        <ele>814.4</ele>
        <time>2020-04-07T17:20:33Z</time>
      </trkpt>
      <trkpt lat="42.3825320" lon="-5.0775840">
        <ele>814.6</ele>
        <time>2020-04-07T17:20:35Z</time>
      </trkpt>
      <trkpt lat="42.3826500" lon="-5.0777630">
        <ele>814.8</ele>
        <time>2020-04-07T17:20:37Z</time>
      </trkpt>
      <trkpt lat="42.3827150" lon="-5.0778630">
        <ele>815.0</ele>
        <time>2020-04-07T17:20:39Z</time>
      </trkpt>
      <trkpt lat="42.3828300" lon="-5.0780460">
        <ele>815.2</ele>
        <time>2020-04-07T17:20:41Z</time>
      </trkpt>
      <trkpt lat="42.3828840" lon="-5.0781970">
        <ele>815.2</ele>
        <time>2020-04-07T17:20:43Z</time>
      </trkpt>
      <trkpt lat="42.3829210" lon="-5.0783810">
        <ele>815.4</ele>
        <time>2020-04-07T17:20:45Z</time>
      </trkpt>
      <trkpt lat="42.3829450" lon="-5.0785220">
        <ele>815.4</ele>
        <time>2020-04-07T17:20:47Z</time>
      </trkpt>
      <trkpt lat="42.3829700" lon="-5.0786680">
        <ele>815.4</ele>
        <time>2020-04-07T17:20:49Z</time>
      </trkpt>
      <trkpt lat="42.3829950" lon="-5.0788160">
        <ele>815.4</ele>
        <time>2020-04-07T17:20:51Z</time>
      </trkpt>
      <trkpt lat="42.3830570" lon="-5.0791790">
        <ele>815.6</ele>
        <time>2020-04-07T17:20:53Z</time>
      </trkpt>
      <trkpt lat="42.3830830" lon="-5.0793290">
        <ele>815.6</ele>
        <time>2020-04-07T17:20:55Z</time>
      </trkpt>
      <trkpt lat="42.3831090" lon="-5.0794820">
        <ele>815.8</ele>
        <time>2020-04-07T17:20:57Z</time>
      </trkpt>
      <trkpt lat="42.3831350" lon="-5.0796330">
        <ele>815.8</ele>
        <time>2020-04-07T17:20:59Z</time>
      </trkpt>
      <trkpt lat="42.3831610" lon="-5.0797860">
        <ele>816.0</ele>
        <time>2020-04-07T17:21:01Z</time>
      </trkpt>
      <trkpt lat="42.3832320" lon="-5.0801990">
        <ele>816.2</ele>
        <time>2020-04-07T17:21:03Z</time>
      </trkpt>
      <trkpt lat="42.3832580" lon="-5.0803510">
        <ele>816.2</ele>
        <time>2020-04-07T17:21:05Z</time>
      </trkpt>
      <trkpt lat="42.3832850" lon="-5.0805060">
        <ele>816.4</ele>
        <time>2020-04-07T17:21:07Z</time>
      </trkpt>
      <trkpt lat="42.3833120" lon="-5.0806610">
        <ele>816.4</ele>
        <time>2020-04-07T17:21:09Z</time>
      </trkpt>
      <trkpt lat="42.3833720" lon="-5.0810180">
        <ele>816.6</ele>
        <time>2020-04-07T17:21:11Z</time>
      </trkpt>
      <trkpt lat="42.3834080" lon="-5.0812360">
        <ele>816.6</ele>
        <time>2020-04-07T17:21:13Z</time>
      </trkpt>
      <trkpt lat="42.3834350" lon="-5.0813950">
        <ele>816.6</ele>
        <time>2020-04-07T17:21:15Z</time>
      </trkpt>
      <trkpt lat="42.3834620" lon="-5.0815570">
        <ele>816.6</ele>
        <time>2020-04-07T17:21:17Z</time>
      </trkpt>
      <trkpt lat="42.3834890" lon="-5.0817200">
        <ele>816.6</ele>
        <time>2020-04-07T17:21:19Z</time>
      </trkpt>
      <trkpt lat="42.3835590" lon="-5.0821450">
        <ele>816.8</ele>
        <time>2020-04-07T17:21:21Z</time>
      </trkpt>
      <trkpt lat="42.3835850" lon="-5.0823110">
        <ele>816.8</ele>
        <time>2020-04-07T17:21:23Z</time>
      </trkpt>
      <trkpt lat="42.3836120" lon="-5.0824780">
        <ele>816.8</ele>
        <time>2020-04-07T17:21:25Z</time>
      </trkpt>
      <trkpt lat="42.3836570" lon="-5.0827900">
        <ele>816.8</ele>
        <time>2020-04-07T17:21:27Z</time>
      </trkpt>
      <trkpt lat="42.3836910" lon="-5.0830460">
        <ele>817.0</ele>
        <time>2020-04-07T17:21:29Z</time>
      </trkpt>
      <trkpt lat="42.3837130" lon="-5.0832160">
        <ele>817.0</ele>
        <time>2020-04-07T17:21:31Z</time>
      </trkpt>
      <trkpt lat="42.3837360" lon="-5.0833860">
        <ele>817.0</ele>
        <time>2020-04-07T17:21:33Z</time>
      </trkpt>
      <trkpt lat="42.3837590" lon="-5.0835570">
        <ele>817.0</ele>
        <time>2020-04-07T17:21:35Z</time>
      </trkpt>
      <trkpt lat="42.3838020" lon="-5.0839590">
        <ele>817.2</ele>
        <time>2020-04-07T17:21:37Z</time>
      </trkpt>
      <trkpt lat="42.3838120" lon="-5.0841310">
        <ele>817.4</ele>
        <time>2020-04-07T17:21:39Z</time>
      </trkpt>
      <trkpt lat="42.3838230" lon="-5.0843000">
        <ele>817.4</ele>
        <time>2020-04-07T17:21:41Z</time>
      </trkpt>
      <trkpt lat="42.3838340" lon="-5.0844690">
        <ele>817.6</ele>
        <time>2020-04-07T17:21:43Z</time>
      </trkpt>
      <trkpt lat="42.3838440" lon="-5.0846370">
        <ele>817.6</ele>
        <time>2020-04-07T17:21:45Z</time>
      </trkpt>
      <trkpt lat="42.3838740" lon="-5.0851170">
        <ele>817.8</ele>
        <time>2020-04-07T17:21:47Z</time>
      </trkpt>
      <trkpt lat="42.3838850" lon="-5.0852850">
        <ele>817.8</ele>
        <time>2020-04-07T17:21:49Z</time>
      </trkpt>
      <trkpt lat="42.3838950" lon="-5.0854540">
        <ele>818.0</ele>
        <time>2020-04-07T17:21:51Z</time>
      </trkpt>
      <trkpt lat="42.3839060" lon="-5.0856230">
        <ele>818.0</ele>
        <time>2020-04-07T17:21:53Z</time>
      </trkpt>
      <trkpt lat="42.3839160" lon="-5.0857920">
        <ele>818.0</ele>
        <time>2020-04-07T17:21:55Z</time>
      </trkpt>
      <trkpt lat="42.3839470" lon="-5.0862760">
        <ele>818.0</ele>
        <time>2020-04-07T17:21:57Z</time>
      </trkpt>
      <trkpt lat="42.3839570" lon="-5.0864470">
        <ele>818.0</ele>
        <time>2020-04-07T17:21:59Z</time>
      </trkpt>
      <trkpt lat="42.3839680" lon="-5.0866190">
        <ele>818.0</ele>
        <time>2020-04-07T17:22:01Z</time>
      </trkpt>
      <trkpt lat="42.3839780" lon="-5.0867910">
        <ele>818.2</ele>
        <time>2020-04-07T17:22:03Z</time>
      </trkpt>
      <trkpt lat="42.3839890" lon="-5.0869620">
        <ele>818.2</ele>
        <time>2020-04-07T17:22:05Z</time>
      </trkpt>
      <trkpt lat="42.3840190" lon="-5.0874480">
        <ele>818.2</ele>
        <time>2020-04-07T17:22:07Z</time>
      </trkpt>
      <trkpt lat="42.3840300" lon="-5.0876220">
        <ele>818.2</ele>
        <time>2020-04-07T17:22:09Z</time>
      </trkpt>
      <trkpt lat="42.3840410" lon="-5.0877960">
        <ele>818.2</ele>
        <time>2020-04-07T17:22:11Z</time>
      </trkpt>
      <trkpt lat="42.3840520" lon="-5.0879720">
        <ele>818.2</ele>
        <time>2020-04-07T17:22:13Z</time>
      </trkpt>
      <trkpt lat="42.3840630" lon="-5.0881510">
        <ele>818.2</ele>
        <time>2020-04-07T17:22:15Z</time>
      </trkpt>
      <trkpt lat="42.3840940" lon="-5.0886440">
        <ele>818.0</ele>
        <time>2020-04-07T17:22:17Z</time>
      </trkpt>
      <trkpt lat="42.3841050" lon="-5.0888240">
        <ele>818.0</ele>
        <time>2020-04-07T17:22:19Z</time>
      </trkpt>
      <trkpt lat="42.3841160" lon="-5.0890040">
        <ele>818.0</ele>
        <time>2020-04-07T17:22:21Z</time>
      </trkpt>
      <trkpt lat="42.3841280" lon="-5.0891840">
        <ele>818.0</ele>
        <time>2020-04-07T17:22:23Z</time>
      </trkpt>
      <trkpt lat="42.3841390" lon="-5.0893660">
        <ele>818.0</ele>
        <time>2020-04-07T17:22:25Z</time>
      </trkpt>
      <trkpt lat="42.3841660" lon="-5.0898620">
        <ele>818.0</ele>
        <time>2020-04-07T17:22:27Z</time>
      </trkpt>
      <trkpt lat="42.3841640" lon="-5.0900440">
        <ele>818.0</ele>
        <time>2020-04-07T17:22:29Z</time>
      </trkpt>
      <trkpt lat="42.3841580" lon="-5.0903390">
        <ele>818.0</ele>
        <time>2020-04-07T17:22:31Z</time>
      </trkpt>
      <trkpt lat="42.3841520" lon="-5.0905200">
        <ele>818.0</ele>
        <time>2020-04-07T17:22:33Z</time>
      </trkpt>
      <trkpt lat="42.3841420" lon="-5.0908000">
        <ele>818.0</ele>
        <time>2020-04-07T17:22:35Z</time>
      </trkpt>
      <trkpt lat="42.3841360" lon="-5.0909810">
        <ele>818.0</ele>
        <time>2020-04-07T17:22:37Z</time>
      </trkpt>
      <trkpt lat="42.3841290" lon="-5.0911610">
        <ele>818.0</ele>
        <time>2020-04-07T17:22:39Z</time>
      </trkpt>
      <trkpt lat="42.3841160" lon="-5.0915530">
        <ele>818.2</ele>
        <time>2020-04-07T17:22:41Z</time>
      </trkpt>
      <trkpt lat="42.3841100" lon="-5.0917310">
        <ele>818.2</ele>
        <time>2020-04-07T17:22:43Z</time>
      </trkpt>
      <trkpt lat="42.3841040" lon="-5.0919040">
        <ele>818.4</ele>
        <time>2020-04-07T17:22:45Z</time>
      </trkpt>
      <trkpt lat="42.3840920" lon="-5.0922910">
        <ele>818.6</ele>
        <time>2020-04-07T17:22:47Z</time>
      </trkpt>
      <trkpt lat="42.3840850" lon="-5.0924710">
        <ele>818.8</ele>
        <time>2020-04-07T17:22:49Z</time>
      </trkpt>
      <trkpt lat="42.3840790" lon="-5.0926410">
        <ele>818.8</ele>
        <time>2020-04-07T17:22:51Z</time>
      </trkpt>
      <trkpt lat="42.3840730" lon="-5.0928100">
        <ele>819.0</ele>
        <time>2020-04-07T17:22:53Z</time>
      </trkpt>
      <trkpt lat="42.3840660" lon="-5.0929780">
        <ele>819.0</ele>
        <time>2020-04-07T17:22:55Z</time>
      </trkpt>
      <trkpt lat="42.3840500" lon="-5.0934360">
        <ele>819.4</ele>
        <time>2020-04-07T17:22:57Z</time>
      </trkpt>
      <trkpt lat="42.3840440" lon="-5.0936030">
        <ele>819.4</ele>
        <time>2020-04-07T17:22:59Z</time>
      </trkpt>
      <trkpt lat="42.3840380" lon="-5.0937690">
        <ele>819.6</ele>
        <time>2020-04-07T17:23:01Z</time>
      </trkpt>
      <trkpt lat="42.3840320" lon="-5.0939330">
        <ele>819.6</ele>
        <time>2020-04-07T17:23:03Z</time>
      </trkpt>
      <trkpt lat="42.3840260" lon="-5.0940970">
        <ele>819.6</ele>
        <time>2020-04-07T17:23:05Z</time>
      </trkpt>
      <trkpt lat="42.3840200" lon="-5.0942610">
        <ele>819.8</ele>
        <time>2020-04-07T17:23:07Z</time>
      </trkpt>
      <trkpt lat="42.3840030" lon="-5.0947240">
        <ele>820.0</ele>
        <time>2020-04-07T17:23:09Z</time>
      </trkpt>
      <trkpt lat="42.3839980" lon="-5.0948870">
        <ele>820.0</ele>
        <time>2020-04-07T17:23:11Z</time>
      </trkpt>
      <trkpt lat="42.3839920" lon="-5.0950500">
        <ele>820.2</ele>
        <time>2020-04-07T17:23:13Z</time>
      </trkpt>
      <trkpt lat="42.3839860" lon="-5.0952120">
        <ele>820.2</ele>
        <time>2020-04-07T17:23:15Z</time>
      </trkpt>
      <trkpt lat="42.3839800" lon="-5.0953750">
        <ele>820.2</ele>
        <time>2020-04-07T17:23:17Z</time>
      </trkpt>
      <trkpt lat="42.3839640" lon="-5.0958380">
        <ele>820.4</ele>
        <time>2020-04-07T17:23:19Z</time>
      </trkpt>
      <trkpt lat="42.3839540" lon="-5.0961010">
        <ele>820.2</ele>
        <time>2020-04-07T17:23:21Z</time>
      </trkpt>
      <trkpt lat="42.3839470" lon="-5.0962700">
        <ele>820.2</ele>
        <time>2020-04-07T17:23:23Z</time>
      </trkpt>
      <trkpt lat="42.3839400" lon="-5.0964440">
        <ele>820.2</ele>
        <time>2020-04-07T17:23:25Z</time>
      </trkpt>
      <trkpt lat="42.3839320" lon="-5.0966190">
        <ele>820.2</ele>
        <time>2020-04-07T17:23:27Z</time>
      </trkpt>
      <trkpt lat="42.3839260" lon="-5.0970000">
        <ele>820.0</ele>
        <time>2020-04-07T17:23:29Z</time>
      </trkpt>
      <trkpt lat="42.3839360" lon="-5.0972570">
        <ele>820.0</ele>
        <time>2020-04-07T17:23:31Z</time>
      </trkpt>
      <trkpt lat="42.3839470" lon="-5.0974330">
        <ele>820.2</ele>
        <time>2020-04-07T17:23:33Z</time>
      </trkpt>
      <trkpt lat="42.3839580" lon="-5.0976030">
        <ele>820.4</ele>
        <time>2020-04-07T17:23:35Z</time>
      </trkpt>
      <trkpt lat="42.3839690" lon="-5.0977720">
        <ele>820.6</ele>
        <time>2020-04-07T17:23:37Z</time>
      </trkpt>
      <trkpt lat="42.3839790" lon="-5.0979390">
        <ele>820.8</ele>
        <time>2020-04-07T17:23:39Z</time>
      </trkpt>
      <trkpt lat="42.3840080" lon="-5.0983890">
        <ele>821.2</ele>
        <time>2020-04-07T17:23:41Z</time>
      </trkpt>
      <trkpt lat="42.3840180" lon="-5.0985510">
        <ele>821.4</ele>
        <time>2020-04-07T17:23:43Z</time>
      </trkpt>
      <trkpt lat="42.3840280" lon="-5.0987120">
        <ele>821.6</ele>
        <time>2020-04-07T17:23:45Z</time>
      </trkpt>
      <trkpt lat="42.3840380" lon="-5.0988710">
        <ele>821.8</ele>
        <time>2020-04-07T17:23:47Z</time>
      </trkpt>
      <trkpt lat="42.3840480" lon="-5.0990280">
        <ele>822.0</ele>
        <time>2020-04-07T17:23:49Z</time>
      </trkpt>
      <trkpt lat="42.3840760" lon="-5.0994720">
        <ele>822.4</ele>
        <time>2020-04-07T17:23:51Z</time>
      </trkpt>
      <trkpt lat="42.3840860" lon="-5.0996330">
        <ele>822.4</ele>
        <time>2020-04-07T17:23:53Z</time>
      </trkpt>
      <trkpt lat="42.3840960" lon="-5.0997950">
        <ele>822.2</ele>
        <time>2020-04-07T17:23:55Z</time>
      </trkpt>
      <trkpt lat="42.3841070" lon="-5.0999620">
        <ele>822.2</ele>
        <time>2020-04-07T17:23:57Z</time>
      </trkpt>
      <trkpt lat="42.3841170" lon="-5.1001300">
        <ele>822.2</ele>
        <time>2020-04-07T17:23:59Z</time>
      </trkpt>
      <trkpt lat="42.3841460" lon="-5.1005850">
        <ele>822.2</ele>
        <time>2020-04-07T17:24:01Z</time>
      </trkpt>
      <trkpt lat="42.3841570" lon="-5.1007570">
        <ele>822.2</ele>
        <time>2020-04-07T17:24:03Z</time>
      </trkpt>
      <trkpt lat="42.3841680" lon="-5.1009300">
        <ele>822.2</ele>
        <time>2020-04-07T17:24:05Z</time>
      </trkpt>
      <trkpt lat="42.3841790" lon="-5.1011030">
        <ele>822.2</ele>
        <time>2020-04-07T17:24:07Z</time>
      </trkpt>
      <trkpt lat="42.3842080" lon="-5.1015650">
        <ele>822.2</ele>
        <time>2020-04-07T17:24:09Z</time>
      </trkpt>
      <trkpt lat="42.3842190" lon="-5.1017400">
        <ele>822.4</ele>
        <time>2020-04-07T17:24:11Z</time>
      </trkpt>
      <trkpt lat="42.3842300" lon="-5.1019150">
        <ele>822.4</ele>
        <time>2020-04-07T17:24:13Z</time>
      </trkpt>
      <trkpt lat="42.3842410" lon="-5.1020870">
        <ele>822.4</ele>
        <time>2020-04-07T17:24:15Z</time>
      </trkpt>
      <trkpt lat="42.3842510" lon="-5.1022600">
        <ele>822.6</ele>
        <time>2020-04-07T17:24:17Z</time>
      </trkpt>
      <trkpt lat="42.3842800" lon="-5.1027170">
        <ele>822.8</ele>
        <time>2020-04-07T17:24:19Z</time>
      </trkpt>
      <trkpt lat="42.3842910" lon="-5.1028880">
        <ele>822.8</ele>
        <time>2020-04-07T17:24:21Z</time>
      </trkpt>
      <trkpt lat="42.3843020" lon="-5.1030590">
        <ele>823.0</ele>
        <time>2020-04-07T17:24:23Z</time>
      </trkpt>
      <trkpt lat="42.3843250" lon="-5.1034260">
        <ele>823.0</ele>
        <time>2020-04-07T17:24:25Z</time>
      </trkpt>
      <trkpt lat="42.3843370" lon="-5.1035980">
        <ele>823.0</ele>
        <time>2020-04-07T17:24:27Z</time>
      </trkpt>
      <trkpt lat="42.3843540" lon="-5.1038610">
        <ele>823.0</ele>
        <time>2020-04-07T17:24:29Z</time>
      </trkpt>
      <trkpt lat="42.3843650" lon="-5.1040360">
        <ele>823.0</ele>
        <time>2020-04-07T17:24:31Z</time>
      </trkpt>
      <trkpt lat="42.3843770" lon="-5.1042140">
        <ele>822.8</ele>
        <time>2020-04-07T17:24:33Z</time>
      </trkpt>
      <trkpt lat="42.3843890" lon="-5.1043940">
        <ele>822.8</ele>
        <time>2020-04-07T17:24:35Z</time>
      </trkpt>
      <trkpt lat="42.3844190" lon="-5.1048610">
        <ele>822.8</ele>
        <time>2020-04-07T17:24:37Z</time>
      </trkpt>
      <trkpt lat="42.3844310" lon="-5.1050430">
        <ele>822.6</ele>
        <time>2020-04-07T17:24:39Z</time>
      </trkpt>
      <trkpt lat="42.3844440" lon="-5.1052270">
        <ele>822.6</ele>
        <time>2020-04-07T17:24:41Z</time>
      </trkpt>
      <trkpt lat="42.3844560" lon="-5.1054110">
        <ele>822.6</ele>
        <time>2020-04-07T17:24:43Z</time>
      </trkpt>
      <trkpt lat="42.3844680" lon="-5.1055950">
        <ele>822.6</ele>
        <time>2020-04-07T17:24:45Z</time>
      </trkpt>
      <trkpt lat="42.3845020" lon="-5.1061180">
        <ele>822.4</ele>
        <time>2020-04-07T17:24:47Z</time>
      </trkpt>
      <trkpt lat="42.3845140" lon="-5.1063010">
        <ele>822.6</ele>
        <time>2020-04-07T17:24:49Z</time>
      </trkpt>
      <trkpt lat="42.3845250" lon="-5.1064840">
        <ele>822.6</ele>
        <time>2020-04-07T17:24:51Z</time>
      </trkpt>
      <trkpt lat="42.3845360" lon="-5.1066660">
        <ele>822.6</ele>
        <time>2020-04-07T17:24:53Z</time>
      </trkpt>
      <trkpt lat="42.3845620" lon="-5.1070820">
        <ele>822.8</ele>
        <time>2020-04-07T17:24:55Z</time>
      </trkpt>
      <trkpt lat="42.3845730" lon="-5.1072600">
        <ele>823.0</ele>
        <time>2020-04-07T17:24:57Z</time>
      </trkpt>
      <trkpt lat="42.3845840" lon="-5.1074380">
        <ele>823.0</ele>
        <time>2020-04-07T17:24:59Z</time>
      </trkpt>
      <trkpt lat="42.3845950" lon="-5.1076140">
        <ele>823.2</ele>
        <time>2020-04-07T17:25:01Z</time>
      </trkpt>
      <trkpt lat="42.3846060" lon="-5.1077900">
        <ele>823.2</ele>
        <time>2020-04-07T17:25:03Z</time>
      </trkpt>
      <trkpt lat="42.3846350" lon="-5.1082520">
        <ele>823.2</ele>
        <time>2020-04-07T17:25:05Z</time>
      </trkpt>
      <trkpt lat="42.3846460" lon="-5.1084290">
        <ele>823.2</ele>
        <time>2020-04-07T17:25:07Z</time>
      </trkpt>
      <trkpt lat="42.3846670" lon="-5.1087690">
        <ele>823.0</ele>
        <time>2020-04-07T17:25:09Z</time>
      </trkpt>
      <trkpt lat="42.3846800" lon="-5.1089920">
        <ele>823.0</ele>
        <time>2020-04-07T17:25:11Z</time>
      </trkpt>
      <trkpt lat="42.3846900" lon="-5.1091770">
        <ele>822.8</ele>
        <time>2020-04-07T17:25:13Z</time>
      </trkpt>
      <trkpt lat="42.3846990" lon="-5.1094830">
        <ele>822.8</ele>
        <time>2020-04-07T17:25:15Z</time>
      </trkpt>
      <trkpt lat="42.3847030" lon="-5.1096710">
        <ele>822.6</ele>
        <time>2020-04-07T17:25:17Z</time>
      </trkpt>
      <trkpt lat="42.3847090" lon="-5.1099890">
        <ele>822.8</ele>
        <time>2020-04-07T17:25:19Z</time>
      </trkpt>
      <trkpt lat="42.3847130" lon="-5.1101720">
        <ele>823.0</ele>
        <time>2020-04-07T17:25:21Z</time>
      </trkpt>
      <trkpt lat="42.3847230" lon="-5.1105150">
        <ele>823.4</ele>
        <time>2020-04-07T17:25:23Z</time>
      </trkpt>
      <trkpt lat="42.3847410" lon="-5.1107410">
        <ele>823.6</ele>
        <time>2020-04-07T17:25:25Z</time>
      </trkpt>
      <trkpt lat="42.3847630" lon="-5.1109550">
        <ele>823.8</ele>
        <time>2020-04-07T17:25:27Z</time>
      </trkpt>
      <trkpt lat="42.3848000" lon="-5.1111800">
        <ele>823.8</ele>
        <time>2020-04-07T17:25:29Z</time>
      </trkpt>
      <trkpt lat="42.3848540" lon="-5.1114370">
        <ele>823.8</ele>
        <time>2020-04-07T17:25:31Z</time>
      </trkpt>
      <trkpt lat="42.3849010" lon="-5.1115990">
        <ele>823.8</ele>
        <time>2020-04-07T17:25:33Z</time>
      </trkpt>
      <trkpt lat="42.3849490" lon="-5.1117650">
        <ele>823.6</ele>
        <time>2020-04-07T17:25:35Z</time>
      </trkpt>
      <trkpt lat="42.3849980" lon="-5.1119320">
        <ele>823.6</ele>
        <time>2020-04-07T17:25:37Z</time>
      </trkpt>
      <trkpt lat="42.3850470" lon="-5.1121010">
        <ele>823.6</ele>
        <time>2020-04-07T17:25:39Z</time>
      </trkpt>
      <trkpt lat="42.3851700" lon="-5.1125370">
        <ele>823.4</ele>
        <time>2020-04-07T17:25:41Z</time>
      </trkpt>
      <trkpt lat="42.3852170" lon="-5.1127100">
        <ele>823.4</ele>
        <time>2020-04-07T17:25:43Z</time>
      </trkpt>
      <trkpt lat="42.3852640" lon="-5.1128830">
        <ele>823.2</ele>
        <time>2020-04-07T17:25:45Z</time>
      </trkpt>
      <trkpt lat="42.3853520" lon="-5.1132290">
        <ele>823.2</ele>
        <time>2020-04-07T17:25:47Z</time>
      </trkpt>
      <trkpt lat="42.3854170" lon="-5.1135080">
        <ele>823.0</ele>
        <time>2020-04-07T17:25:49Z</time>
      </trkpt>
      <trkpt lat="42.3854770" lon="-5.1137610">
        <ele>823.0</ele>
        <time>2020-04-07T17:25:51Z</time>
      </trkpt>
      <trkpt lat="42.3855190" lon="-5.1139400">
        <ele>823.0</ele>
        <time>2020-04-07T17:25:53Z</time>
      </trkpt>
      <trkpt lat="42.3855600" lon="-5.1141170">
        <ele>823.0</ele>
        <time>2020-04-07T17:25:55Z</time>
      </trkpt>
      <trkpt lat="42.3856020" lon="-5.1142950">
        <ele>823.0</ele>
        <time>2020-04-07T17:25:57Z</time>
      </trkpt>
      <trkpt lat="42.3856860" lon="-5.1146740">
        <ele>822.8</ele>
        <time>2020-04-07T17:25:59Z</time>
      </trkpt>
      <trkpt lat="42.3857230" lon="-5.1148520">
        <ele>822.8</ele>
        <time>2020-04-07T17:26:01Z</time>
      </trkpt>
      <trkpt lat="42.3857600" lon="-5.1150310">
        <ele>822.8</ele>
        <time>2020-04-07T17:26:03Z</time>
      </trkpt>
      <trkpt lat="42.3858360" lon="-5.1154110">
        <ele>822.8</ele>
        <time>2020-04-07T17:26:05Z</time>
      </trkpt>
      <trkpt lat="42.3858840" lon="-5.1156530">
        <ele>823.0</ele>
        <time>2020-04-07T17:26:07Z</time>
      </trkpt>
      <trkpt lat="42.3859190" lon="-5.1158280">
        <ele>823.0</ele>
        <time>2020-04-07T17:26:09Z</time>
      </trkpt>
      <trkpt lat="42.3859530" lon="-5.1160020">
        <ele>823.2</ele>
        <time>2020-04-07T17:26:11Z</time>
      </trkpt>
      <trkpt lat="42.3859870" lon="-5.1161740">
        <ele>823.2</ele>
        <time>2020-04-07T17:26:13Z</time>
      </trkpt>
      <trkpt lat="42.3860730" lon="-5.1166070">
        <ele>823.6</ele>
        <time>2020-04-07T17:26:15Z</time>
      </trkpt>
      <trkpt lat="42.3861060" lon="-5.1167750">
        <ele>823.6</ele>
        <time>2020-04-07T17:26:17Z</time>
      </trkpt>
      <trkpt lat="42.3861400" lon="-5.1169420">
        <ele>823.8</ele>
        <time>2020-04-07T17:26:19Z</time>
      </trkpt>
      <trkpt lat="42.3862110" lon="-5.1172920">
        <ele>824.0</ele>
        <time>2020-04-07T17:26:21Z</time>
      </trkpt>
      <trkpt lat="42.3862640" lon="-5.1175290">
        <ele>824.2</ele>
        <time>2020-04-07T17:26:23Z</time>
      </trkpt>
      <trkpt lat="42.3863150" lon="-5.1176870">
        <ele>824.4</ele>
        <time>2020-04-07T17:26:25Z</time>
      </trkpt>
      <trkpt lat="42.3863870" lon="-5.1179070">
        <ele>824.6</ele>
        <time>2020-04-07T17:26:27Z</time>
      </trkpt>
      <trkpt lat="42.3864360" lon="-5.1180610">
        <ele>824.8</ele>
        <time>2020-04-07T17:26:29Z</time>
      </trkpt>
      <trkpt lat="42.3864850" lon="-5.1182150">
        <ele>824.8</ele>
        <time>2020-04-07T17:26:31Z</time>
      </trkpt>
      <trkpt lat="42.3865940" lon="-5.1185510">
        <ele>825.2</ele>
        <time>2020-04-07T17:26:33Z</time>
      </trkpt>
      <trkpt lat="42.3866430" lon="-5.1187040">
        <ele>825.2</ele>
        <time>2020-04-07T17:26:35Z</time>
      </trkpt>
      <trkpt lat="42.3866910" lon="-5.1188550">
        <ele>825.4</ele>
        <time>2020-04-07T17:26:37Z</time>
      </trkpt>
      <trkpt lat="42.3867400" lon="-5.1190070">
        <ele>825.4</ele>
        <time>2020-04-07T17:26:39Z</time>
      </trkpt>
      <trkpt lat="42.3867890" lon="-5.1191580">
        <ele>825.4</ele>
        <time>2020-04-07T17:26:41Z</time>
      </trkpt>
      <trkpt lat="42.3869140" lon="-5.1195580">
        <ele>825.8</ele>
        <time>2020-04-07T17:26:43Z</time>
      </trkpt>
      <trkpt lat="42.3869700" lon="-5.1197750">
        <ele>825.8</ele>
        <time>2020-04-07T17:26:45Z</time>
      </trkpt>
      <trkpt lat="42.3870050" lon="-5.1199320">
        <ele>826.0</ele>
        <time>2020-04-07T17:26:47Z</time>
      </trkpt>
      <trkpt lat="42.3870650" lon="-5.1202090">
        <ele>826.2</ele>
        <time>2020-04-07T17:26:49Z</time>
      </trkpt>
      <trkpt lat="42.3870970" lon="-5.1203660">
        <ele>826.4</ele>
        <time>2020-04-07T17:26:51Z</time>
      </trkpt>
      <trkpt lat="42.3871300" lon="-5.1205240">
        <ele>826.6</ele>
        <time>2020-04-07T17:26:53Z</time>
      </trkpt>
      <trkpt lat="42.3871630" lon="-5.1206830">
        <ele>826.6</ele>
        <time>2020-04-07T17:26:55Z</time>
      </trkpt>
      <trkpt lat="42.3872370" lon="-5.1210470">
        <ele>826.8</ele>
        <time>2020-04-07T17:26:57Z</time>
      </trkpt>
      <trkpt lat="42.3872880" lon="-5.1213060">
        <ele>827.0</ele>
        <time>2020-04-07T17:26:59Z</time>
      </trkpt>
      <trkpt lat="42.3873210" lon="-5.1214680">
        <ele>827.0</ele>
        <time>2020-04-07T17:27:01Z</time>
      </trkpt>
      <trkpt lat="42.3873530" lon="-5.1216290">
        <ele>827.0</ele>
        <time>2020-04-07T17:27:03Z</time>
      </trkpt>
      <trkpt lat="42.3873860" lon="-5.1217940">
        <ele>827.0</ele>
        <time>2020-04-07T17:27:05Z</time>
      </trkpt>
      <trkpt lat="42.3874190" lon="-5.1219590">
        <ele>827.0</ele>
        <time>2020-04-07T17:27:07Z</time>
      </trkpt>
      <trkpt lat="42.3874520" lon="-5.1221250">
        <ele>827.0</ele>
        <time>2020-04-07T17:27:09Z</time>
      </trkpt>
      <trkpt lat="42.3875470" lon="-5.1225970">
        <ele>827.2</ele>
        <time>2020-04-07T17:27:11Z</time>
      </trkpt>
      <trkpt lat="42.3875800" lon="-5.1227610">
        <ele>827.4</ele>
        <time>2020-04-07T17:27:13Z</time>
      </trkpt>
      <trkpt lat="42.3876130" lon="-5.1229250">
        <ele>827.4</ele>
        <time>2020-04-07T17:27:15Z</time>
      </trkpt>
      <trkpt lat="42.3876460" lon="-5.1230870">
        <ele>827.6</ele>
        <time>2020-04-07T17:27:17Z</time>
      </trkpt>
      <trkpt lat="42.3876780" lon="-5.1232480">
        <ele>827.8</ele>
        <time>2020-04-07T17:27:19Z</time>
      </trkpt>
      <trkpt lat="42.3877710" lon="-5.1237130">
        <ele>828.2</ele>
        <time>2020-04-07T17:27:21Z</time>
      </trkpt>
      <trkpt lat="42.3878030" lon="-5.1238710">
        <ele>828.2</ele>
        <time>2020-04-07T17:27:23Z</time>
      </trkpt>
      <trkpt lat="42.3878550" lon="-5.1241320">
        <ele>828.4</ele>
        <time>2020-04-07T17:27:25Z</time>
      </trkpt>
      <trkpt lat="42.3878870" lon="-5.1242910">
        <ele>828.6</ele>
        <time>2020-04-07T17:27:27Z</time>
      </trkpt>
      <trkpt lat="42.3879180" lon="-5.1244490">
        <ele>828.8</ele>
        <time>2020-04-07T17:27:29Z</time>
      </trkpt>
      <trkpt lat="42.3879900" lon="-5.1248100">
        <ele>829.0</ele>
        <time>2020-04-07T17:27:31Z</time>
      </trkpt>
      <trkpt lat="42.3880220" lon="-5.1249690">
        <ele>829.0</ele>
        <time>2020-04-07T17:27:33Z</time>
      </trkpt>
      <trkpt lat="42.3880530" lon="-5.1251290">
        <ele>829.0</ele>
        <time>2020-04-07T17:27:35Z</time>
      </trkpt>
      <trkpt lat="42.3880860" lon="-5.1252910">
        <ele>829.0</ele>
        <time>2020-04-07T17:27:37Z</time>
      </trkpt>
      <trkpt lat="42.3881190" lon="-5.1254560">
        <ele>829.0</ele>
        <time>2020-04-07T17:27:39Z</time>
      </trkpt>
      <trkpt lat="42.3881520" lon="-5.1256220">
        <ele>829.0</ele>
        <time>2020-04-07T17:27:41Z</time>
      </trkpt>
      <trkpt lat="42.3882460" lon="-5.1260930">
        <ele>829.0</ele>
        <time>2020-04-07T17:27:43Z</time>
      </trkpt>
      <trkpt lat="42.3882790" lon="-5.1262620">
        <ele>829.0</ele>
        <time>2020-04-07T17:27:45Z</time>
      </trkpt>
      <trkpt lat="42.3883130" lon="-5.1264320">
        <ele>829.0</ele>
        <time>2020-04-07T17:27:47Z</time>
      </trkpt>
      <trkpt lat="42.3883460" lon="-5.1266010">
        <ele>829.0</ele>
        <time>2020-04-07T17:27:49Z</time>
      </trkpt>
      <trkpt lat="42.3883800" lon="-5.1267720">
        <ele>829.0</ele>
        <time>2020-04-07T17:27:51Z</time>
      </trkpt>
      <trkpt lat="42.3884740" lon="-5.1272500">
        <ele>829.2</ele>
        <time>2020-04-07T17:27:53Z</time>
      </trkpt>
      <trkpt lat="42.3885060" lon="-5.1274200">
        <ele>829.2</ele>
        <time>2020-04-07T17:27:55Z</time>
      </trkpt>
      <trkpt lat="42.3885390" lon="-5.1275910">
        <ele>829.2</ele>
        <time>2020-04-07T17:27:57Z</time>
      </trkpt>
      <trkpt lat="42.3885710" lon="-5.1277590">
        <ele>829.4</ele>
        <time>2020-04-07T17:27:59Z</time>
      </trkpt>
      <trkpt lat="42.3886500" lon="-5.1281790">
        <ele>829.6</ele>
        <time>2020-04-07T17:28:01Z</time>
      </trkpt>
      <trkpt lat="42.3886830" lon="-5.1283490">
        <ele>829.6</ele>
        <time>2020-04-07T17:28:03Z</time>
      </trkpt>
      <trkpt lat="42.3887140" lon="-5.1285170">
        <ele>829.6</ele>
        <time>2020-04-07T17:28:05Z</time>
      </trkpt>
      <trkpt lat="42.3887760" lon="-5.1288460">
        <ele>830.0</ele>
        <time>2020-04-07T17:28:07Z</time>
      </trkpt>
      <trkpt lat="42.3888220" lon="-5.1290970">
        <ele>830.4</ele>
        <time>2020-04-07T17:28:09Z</time>
      </trkpt>
      <trkpt lat="42.3888510" lon="-5.1292540">
        <ele>830.6</ele>
        <time>2020-04-07T17:28:11Z</time>
      </trkpt>
      <trkpt lat="42.3888800" lon="-5.1294090">
        <ele>830.8</ele>
        <time>2020-04-07T17:28:13Z</time>
      </trkpt>
      <trkpt lat="42.3889080" lon="-5.1295600">
        <ele>831.2</ele>
        <time>2020-04-07T17:28:15Z</time>
      </trkpt>
      <trkpt lat="42.3889350" lon="-5.1297090">
        <ele>831.4</ele>
        <time>2020-04-07T17:28:17Z</time>
      </trkpt>
      <trkpt lat="42.3890100" lon="-5.1301070">
        <ele>832.0</ele>
        <time>2020-04-07T17:28:19Z</time>
      </trkpt>
      <trkpt lat="42.3890560" lon="-5.1303360">
        <ele>832.2</ele>
        <time>2020-04-07T17:28:21Z</time>
      </trkpt>
      <trkpt lat="42.3890930" lon="-5.1304800">
        <ele>832.4</ele>
        <time>2020-04-07T17:28:23Z</time>
      </trkpt>
      <trkpt lat="42.3891300" lon="-5.1306250">
        <ele>832.6</ele>
        <time>2020-04-07T17:28:25Z</time>
      </trkpt>
      <trkpt lat="42.3891660" lon="-5.1307690">
        <ele>832.6</ele>
        <time>2020-04-07T17:28:27Z</time>
      </trkpt>
      <trkpt lat="42.3892390" lon="-5.1310760">
        <ele>833.0</ele>
        <time>2020-04-07T17:28:29Z</time>
      </trkpt>
      <trkpt lat="42.3892870" lon="-5.1313010">
        <ele>833.0</ele>
        <time>2020-04-07T17:28:31Z</time>
      </trkpt>
      <trkpt lat="42.3893200" lon="-5.1314560">
        <ele>833.0</ele>
        <time>2020-04-07T17:28:33Z</time>
      </trkpt>
      <trkpt lat="42.3893540" lon="-5.1316170">
        <ele>832.8</ele>
        <time>2020-04-07T17:28:35Z</time>
      </trkpt>
      <trkpt lat="42.3894210" lon="-5.1319550">
        <ele>832.4</ele>
        <time>2020-04-07T17:28:37Z</time>
      </trkpt>
      <trkpt lat="42.3894480" lon="-5.1321320">
        <ele>832.2</ele>
        <time>2020-04-07T17:28:39Z</time>
      </trkpt>
      <trkpt lat="42.3894850" lon="-5.1324640">
        <ele>831.8</ele>
        <time>2020-04-07T17:28:41Z</time>
      </trkpt>
      <trkpt lat="42.3894550" lon="-5.1327190">
        <ele>831.6</ele>
        <time>2020-04-07T17:28:43Z</time>
      </trkpt>
      <trkpt lat="42.3894230" lon="-5.1329790">
        <ele>831.4</ele>
        <time>2020-04-07T17:28:45Z</time>
      </trkpt>
      <trkpt lat="42.3893850" lon="-5.1332150">
        <ele>831.2</ele>
        <time>2020-04-07T17:28:47Z</time>
      </trkpt>
      <trkpt lat="42.3893540" lon="-5.1334110">
        <ele>831.0</ele>
        <time>2020-04-07T17:28:49Z</time>
      </trkpt>
      <trkpt lat="42.3893230" lon="-5.1336080">
        <ele>830.8</ele>
        <time>2020-04-07T17:28:51Z</time>
      </trkpt>
      <trkpt lat="42.3892610" lon="-5.1339840">
        <ele>830.4</ele>
        <time>2020-04-07T17:28:53Z</time>
      </trkpt>
      <trkpt lat="42.3892280" lon="-5.1341820">
        <ele>830.2</ele>
        <time>2020-04-07T17:28:55Z</time>
      </trkpt>
      <trkpt lat="42.3891940" lon="-5.1343820">
        <ele>830.2</ele>
        <time>2020-04-07T17:28:57Z</time>
      </trkpt>
      <trkpt lat="42.3891600" lon="-5.1345810">
        <ele>830.0</ele>
        <time>2020-04-07T17:28:59Z</time>
      </trkpt>
      <trkpt lat="42.3890750" lon="-5.1350860">
        <ele>830.0</ele>
        <time>2020-04-07T17:29:01Z</time>
      </trkpt>
      <trkpt lat="42.3890440" lon="-5.1352720">
        <ele>830.6</ele>
        <time>2020-04-07T17:29:03Z</time>
      </trkpt>
      <trkpt lat="42.3890150" lon="-5.1354430">
        <ele>831.2</ele>
        <time>2020-04-07T17:29:05Z</time>
      </trkpt>
      <trkpt lat="42.3889870" lon="-5.1356040">
        <ele>831.8</ele>
        <time>2020-04-07T17:29:07Z</time>
      </trkpt>
      <trkpt lat="42.3889620" lon="-5.1357540">
        <ele>832.2</ele>
        <time>2020-04-07T17:29:09Z</time>
      </trkpt>
      <trkpt lat="42.3888860" lon="-5.1362020">
        <ele>833.8</ele>
        <time>2020-04-07T17:29:11Z</time>
      </trkpt>
      <trkpt lat="42.3888640" lon="-5.1363370">
        <ele>834.2</ele>
        <time>2020-04-07T17:29:13Z</time>
      </trkpt>
      <trkpt lat="42.3888420" lon="-5.1364650">
        <ele>834.6</ele>
        <time>2020-04-07T17:29:15Z</time>
      </trkpt>
      <trkpt lat="42.3888210" lon="-5.1365880">
        <ele>835.0</ele>
        <time>2020-04-07T17:29:17Z</time>
      </trkpt>
      <trkpt lat="42.3888010" lon="-5.1367070">
        <ele>835.4</ele>
        <time>2020-04-07T17:29:19Z</time>
      </trkpt>
      <trkpt lat="42.3887820" lon="-5.1368230">
        <ele>835.8</ele>
        <time>2020-04-07T17:29:21Z</time>
      </trkpt>
      <trkpt lat="42.3887170" lon="-5.1372060">
        <ele>837.0</ele>
        <time>2020-04-07T17:29:23Z</time>
      </trkpt>
      <trkpt lat="42.3886930" lon="-5.1373500">
        <ele>837.4</ele>
        <time>2020-04-07T17:29:25Z</time>
      </trkpt>
      <trkpt lat="42.3886740" lon="-5.1374640">
        <ele>837.6</ele>
        <time>2020-04-07T17:29:27Z</time>
      </trkpt>
      <trkpt lat="42.3886530" lon="-5.1375820">
        <ele>837.8</ele>
        <time>2020-04-07T17:29:29Z</time>
      </trkpt>
      <trkpt lat="42.3886330" lon="-5.1377040">
        <ele>838.0</ele>
        <time>2020-04-07T17:29:31Z</time>
      </trkpt>
      <trkpt lat="42.3886120" lon="-5.1378280">
        <ele>838.2</ele>
        <time>2020-04-07T17:29:33Z</time>
      </trkpt>
      <trkpt lat="42.3885900" lon="-5.1379540">
        <ele>838.4</ele>
        <time>2020-04-07T17:29:35Z</time>
      </trkpt>
      <trkpt lat="42.3885680" lon="-5.1380820">
        <ele>838.6</ele>
        <time>2020-04-07T17:29:37Z</time>
      </trkpt>
      <trkpt lat="42.3884940" lon="-5.1385180">
        <ele>839.4</ele>
        <time>2020-04-07T17:29:39Z</time>
      </trkpt>
      <trkpt lat="42.3884720" lon="-5.1386480">
        <ele>839.6</ele>
        <time>2020-04-07T17:29:41Z</time>
      </trkpt>
      <trkpt lat="42.3884500" lon="-5.1387790">
        <ele>839.8</ele>
        <time>2020-04-07T17:29:43Z</time>
      </trkpt>
      <trkpt lat="42.3884280" lon="-5.1389110">
        <ele>840.0</ele>
        <time>2020-04-07T17:29:45Z</time>
      </trkpt>
      <trkpt lat="42.3884060" lon="-5.1390430">
        <ele>840.2</ele>
        <time>2020-04-07T17:29:47Z</time>
      </trkpt>
      <trkpt lat="42.3883830" lon="-5.1391770">
        <ele>840.4</ele>
        <time>2020-04-07T17:29:49Z</time>
      </trkpt>
      <trkpt lat="42.3883130" lon="-5.1395870">
        <ele>841.0</ele>
        <time>2020-04-07T17:29:51Z</time>
      </trkpt>
      <trkpt lat="42.3882840" lon="-5.1397510">
        <ele>841.2</ele>
        <time>2020-04-07T17:29:53Z</time>
      </trkpt>
      <trkpt lat="42.3882610" lon="-5.1398840">
        <ele>841.4</ele>
        <time>2020-04-07T17:29:55Z</time>
      </trkpt>
      <trkpt lat="42.3882380" lon="-5.1400200">
        <ele>841.6</ele>
        <time>2020-04-07T17:29:57Z</time>
      </trkpt>
      <trkpt lat="42.3881880" lon="-5.1403070">
        <ele>842.2</ele>
        <time>2020-04-07T17:29:59Z</time>
      </trkpt>
      <trkpt lat="42.3881650" lon="-5.1404420">
        <ele>842.4</ele>
        <time>2020-04-07T17:30:01Z</time>
      </trkpt>
      <trkpt lat="42.3881280" lon="-5.1406880">
        <ele>842.6</ele>
        <time>2020-04-07T17:30:03Z</time>
      </trkpt>
      <trkpt lat="42.3881060" lon="-5.1408680">
        <ele>843.0</ele>
        <time>2020-04-07T17:30:05Z</time>
      </trkpt>
      <trkpt lat="42.3881010" lon="-5.1410340">
        <ele>843.2</ele>
        <time>2020-04-07T17:30:07Z</time>
      </trkpt>
      <trkpt lat="42.3880830" lon="-5.1412170">
        <ele>843.4</ele>
        <time>2020-04-07T17:30:09Z</time>
      </trkpt>
      <trkpt lat="42.3880580" lon="-5.1414340">
        <ele>843.6</ele>
        <time>2020-04-07T17:30:11Z</time>
      </trkpt>
      <trkpt lat="42.3880460" lon="-5.1415790">
        <ele>843.6</ele>
        <time>2020-04-07T17:30:13Z</time>
      </trkpt>
      <trkpt lat="42.3880340" lon="-5.1417260">
        <ele>843.8</ele>
        <time>2020-04-07T17:30:15Z</time>
      </trkpt>
      <trkpt lat="42.3880220" lon="-5.1418740">
        <ele>844.0</ele>
        <time>2020-04-07T17:30:17Z</time>
      </trkpt>
      <trkpt lat="42.3880100" lon="-5.1420230">
        <ele>844.2</ele>
        <time>2020-04-07T17:30:19Z</time>
      </trkpt>
      <trkpt lat="42.3879670" lon="-5.1423920">
        <ele>844.8</ele>
        <time>2020-04-07T17:30:21Z</time>
      </trkpt>
      <trkpt lat="42.3879320" lon="-5.1426070">
        <ele>845.4</ele>
        <time>2020-04-07T17:30:23Z</time>
      </trkpt>
      <trkpt lat="42.3879140" lon="-5.1427390">
        <ele>845.8</ele>
        <time>2020-04-07T17:30:25Z</time>
      </trkpt>
      <trkpt lat="42.3878970" lon="-5.1428650">
        <ele>846.2</ele>
        <time>2020-04-07T17:30:27Z</time>
      </trkpt>
      <trkpt lat="42.3878620" lon="-5.1431380">
        <ele>847.0</ele>
        <time>2020-04-07T17:30:29Z</time>
      </trkpt>
      <trkpt lat="42.3878610" lon="-5.1432590">
        <ele>847.4</ele>
        <time>2020-04-07T17:30:31Z</time>
      </trkpt>
      <trkpt lat="42.3878190" lon="-5.1434540">
        <ele>848.0</ele>
        <time>2020-04-07T17:30:33Z</time>
      </trkpt>
      <trkpt lat="42.3878120" lon="-5.1435740">
        <ele>848.2</ele>
        <time>2020-04-07T17:30:35Z</time>
      </trkpt>
      <trkpt lat="42.3877840" lon="-5.1437840">
        <ele>848.2</ele>
        <time>2020-04-07T17:30:37Z</time>
      </trkpt>
      <trkpt lat="42.3877610" lon="-5.1439170">
        <ele>848.2</ele>
        <time>2020-04-07T17:30:39Z</time>
      </trkpt>
      <trkpt lat="42.3877200" lon="-5.1441560">
        <ele>848.2</ele>
        <time>2020-04-07T17:30:41Z</time>
      </trkpt>
      <trkpt lat="42.3877050" lon="-5.1443030">
        <ele>848.2</ele>
        <time>2020-04-07T17:30:43Z</time>
      </trkpt>
      <trkpt lat="42.3876880" lon="-5.1445380">
        <ele>848.2</ele>
        <time>2020-04-07T17:30:45Z</time>
      </trkpt>
      <trkpt lat="42.3876900" lon="-5.1447600">
        <ele>848.4</ele>
        <time>2020-04-07T17:30:47Z</time>
      </trkpt>
      <trkpt lat="42.3877390" lon="-5.1449440">
        <ele>848.6</ele>
        <time>2020-04-07T17:30:49Z</time>
      </trkpt>
      <trkpt lat="42.3878270" lon="-5.1451340">
        <ele>849.0</ele>
        <time>2020-04-07T17:30:51Z</time>
      </trkpt>
      <trkpt lat="42.3878870" lon="-5.1452850">
        <ele>849.2</ele>
        <time>2020-04-07T17:30:53Z</time>
      </trkpt>
      <trkpt lat="42.3879390" lon="-5.1454180">
        <ele>849.4</ele>
        <time>2020-04-07T17:30:55Z</time>
      </trkpt>
      <trkpt lat="42.3880620" lon="-5.1456550">
        <ele>849.8</ele>
        <time>2020-04-07T17:30:57Z</time>
      </trkpt>
      <trkpt lat="42.3881560" lon="-5.1458120">
        <ele>850.0</ele>
        <time>2020-04-07T17:30:59Z</time>
      </trkpt>
      <trkpt lat="42.3882370" lon="-5.1459210">
        <ele>849.8</ele>
        <time>2020-04-07T17:31:01Z</time>
      </trkpt>
      <trkpt lat="42.3883620" lon="-5.1461430">
        <ele>849.4</ele>
        <time>2020-04-07T17:31:03Z</time>
      </trkpt>
      <trkpt lat="42.3884370" lon="-5.1462830">
        <ele>849.2</ele>
        <time>2020-04-07T17:31:05Z</time>
      </trkpt>
      <trkpt lat="42.3885670" lon="-5.1464680">
        <ele>848.8</ele>
        <time>2020-04-07T17:31:07Z</time>
      </trkpt>
      <trkpt lat="42.3887250" lon="-5.1466370">
        <ele>848.4</ele>
        <time>2020-04-07T17:31:09Z</time>
      </trkpt>
      <trkpt lat="42.3888980" lon="-5.1467920">
        <ele>847.8</ele>
        <time>2020-04-07T17:31:11Z</time>
      </trkpt>
      <trkpt lat="42.3890660" lon="-5.1469380">
        <ele>847.0</ele>
        <time>2020-04-07T17:31:13Z</time>
      </trkpt>
      <trkpt lat="42.3892600" lon="-5.1470950">
        <ele>846.0</ele>
        <time>2020-04-07T17:31:15Z</time>
      </trkpt>
      <trkpt lat="42.3894440" lon="-5.1472820">
        <ele>844.8</ele>
        <time>2020-04-07T17:31:17Z</time>
      </trkpt>
      <trkpt lat="42.3895750" lon="-5.1474420">
        <ele>844.0</ele>
        <time>2020-04-07T17:31:19Z</time>
      </trkpt>
      <trkpt lat="42.3897140" lon="-5.1477080">
        <ele>843.2</ele>
        <time>2020-04-07T17:31:21Z</time>
      </trkpt>
      <trkpt lat="42.3898220" lon="-5.1478850">
        <ele>843.0</ele>
        <time>2020-04-07T17:31:23Z</time>
      </trkpt>
      <trkpt lat="42.3900160" lon="-5.1482030">
        <ele>842.8</ele>
        <time>2020-04-07T17:31:25Z</time>
      </trkpt>
      <trkpt lat="42.3901170" lon="-5.1483690">
        <ele>842.6</ele>
        <time>2020-04-07T17:31:27Z</time>
      </trkpt>
      <trkpt lat="42.3902160" lon="-5.1485310">
        <ele>842.4</ele>
        <time>2020-04-07T17:31:29Z</time>
      </trkpt>
      <trkpt lat="42.3903970" lon="-5.1488460">
        <ele>842.4</ele>
        <time>2020-04-07T17:31:31Z</time>
      </trkpt>
      <trkpt lat="42.3905130" lon="-5.1490810">
        <ele>843.0</ele>
        <time>2020-04-07T17:31:33Z</time>
      </trkpt>
      <trkpt lat="42.3905900" lon="-5.1492360">
        <ele>843.4</ele>
        <time>2020-04-07T17:31:35Z</time>
      </trkpt>
      <trkpt lat="42.3906990" lon="-5.1494680">
        <ele>843.8</ele>
        <time>2020-04-07T17:31:37Z</time>
      </trkpt>
      <trkpt lat="42.3907650" lon="-5.1496150">
        <ele>844.2</ele>
        <time>2020-04-07T17:31:39Z</time>
      </trkpt>
      <trkpt lat="42.3908730" lon="-5.1498720">
        <ele>844.8</ele>
        <time>2020-04-07T17:31:41Z</time>
      </trkpt>
      <trkpt lat="42.3909260" lon="-5.1500140">
        <ele>845.0</ele>
        <time>2020-04-07T17:31:43Z</time>
      </trkpt>
      <trkpt lat="42.3909790" lon="-5.1501530">
        <ele>845.2</ele>
        <time>2020-04-07T17:31:45Z</time>
      </trkpt>
      <trkpt lat="42.3910310" lon="-5.1502900">
        <ele>845.4</ele>
        <time>2020-04-07T17:31:47Z</time>
      </trkpt>
      <trkpt lat="42.3911570" lon="-5.1506240">
        <ele>846.0</ele>
        <time>2020-04-07T17:31:49Z</time>
      </trkpt>
      <trkpt lat="42.3912060" lon="-5.1507550">
        <ele>846.4</ele>
        <time>2020-04-07T17:31:51Z</time>
      </trkpt>
      <trkpt lat="42.3912550" lon="-5.1508860">
        <ele>846.6</ele>
        <time>2020-04-07T17:31:53Z</time>
      </trkpt>
      <trkpt lat="42.3913030" lon="-5.1510130">
        <ele>846.8</ele>
        <time>2020-04-07T17:31:55Z</time>
      </trkpt>
      <trkpt lat="42.3914290" lon="-5.1513380">
        <ele>847.4</ele>
        <time>2020-04-07T17:31:57Z</time>
      </trkpt>
      <trkpt lat="42.3914840" lon="-5.1514600">
        <ele>847.6</ele>
        <time>2020-04-07T17:31:59Z</time>
      </trkpt>
      <trkpt lat="42.3915850" lon="-5.1516820">
        <ele>847.8</ele>
        <time>2020-04-07T17:32:01Z</time>
      </trkpt>
      <trkpt lat="42.3916490" lon="-5.1518010">
        <ele>848.0</ele>
        <time>2020-04-07T17:32:03Z</time>
      </trkpt>
      <trkpt lat="42.3917120" lon="-5.1519170">
        <ele>848.2</ele>
        <time>2020-04-07T17:32:05Z</time>
      </trkpt>
      <trkpt lat="42.3917750" lon="-5.1520330">
        <ele>848.4</ele>
        <time>2020-04-07T17:32:07Z</time>
      </trkpt>
      <trkpt lat="42.3918370" lon="-5.1521480">
        <ele>848.6</ele>
        <time>2020-04-07T17:32:09Z</time>
      </trkpt>
      <trkpt lat="42.3919000" lon="-5.1522650">
        <ele>848.8</ele>
        <time>2020-04-07T17:32:11Z</time>
      </trkpt>
      <trkpt lat="42.3920900" lon="-5.1526160">
        <ele>849.2</ele>
        <time>2020-04-07T17:32:13Z</time>
      </trkpt>
      <trkpt lat="42.3921520" lon="-5.1527310">
        <ele>849.4</ele>
        <time>2020-04-07T17:32:15Z</time>
      </trkpt>
      <trkpt lat="42.3922150" lon="-5.1528470">
        <ele>849.6</ele>
        <time>2020-04-07T17:32:17Z</time>
      </trkpt>
      <trkpt lat="42.3922780" lon="-5.1529630">
        <ele>849.8</ele>
        <time>2020-04-07T17:32:19Z</time>
      </trkpt>
      <trkpt lat="42.3923420" lon="-5.1530800">
        <ele>850.0</ele>
        <time>2020-04-07T17:32:21Z</time>
      </trkpt>
      <trkpt lat="42.3924050" lon="-5.1531970">
        <ele>850.2</ele>
        <time>2020-04-07T17:32:23Z</time>
      </trkpt>
      <trkpt lat="42.3925960" lon="-5.1535490">
        <ele>850.6</ele>
        <time>2020-04-07T17:32:25Z</time>
      </trkpt>
      <trkpt lat="42.3926590" lon="-5.1536660">
        <ele>850.8</ele>
        <time>2020-04-07T17:32:27Z</time>
      </trkpt>
      <trkpt lat="42.3927220" lon="-5.1537830">
        <ele>851.0</ele>
        <time>2020-04-07T17:32:29Z</time>
      </trkpt>
      <trkpt lat="42.3927850" lon="-5.1538990">
        <ele>851.2</ele>
        <time>2020-04-07T17:32:31Z</time>
      </trkpt>
      <trkpt lat="42.3929420" lon="-5.1541880">
        <ele>851.6</ele>
        <time>2020-04-07T17:32:33Z</time>
      </trkpt>
      <trkpt lat="42.3930070" lon="-5.1543060">
        <ele>851.6</ele>
        <time>2020-04-07T17:32:35Z</time>
      </trkpt>
      <trkpt lat="42.3931090" lon="-5.1544890">
        <ele>851.8</ele>
        <time>2020-04-07T17:32:37Z</time>
      </trkpt>
      <trkpt lat="42.3931760" lon="-5.1546100">
        <ele>851.8</ele>
        <time>2020-04-07T17:32:39Z</time>
      </trkpt>
      <trkpt lat="42.3932440" lon="-5.1547310">
        <ele>852.0</ele>
        <time>2020-04-07T17:32:41Z</time>
      </trkpt>
      <trkpt lat="42.3933130" lon="-5.1548550">
        <ele>852.0</ele>
        <time>2020-04-07T17:32:43Z</time>
      </trkpt>
      <trkpt lat="42.3934900" lon="-5.1551740">
        <ele>852.2</ele>
        <time>2020-04-07T17:32:45Z</time>
      </trkpt>
      <trkpt lat="42.3935810" lon="-5.1553380">
        <ele>852.4</ele>
        <time>2020-04-07T17:32:47Z</time>
      </trkpt>
      <trkpt lat="42.3936510" lon="-5.1554650">
        <ele>852.4</ele>
        <time>2020-04-07T17:32:49Z</time>
      </trkpt>
      <trkpt lat="42.3937230" lon="-5.1555940">
        <ele>852.4</ele>
        <time>2020-04-07T17:32:51Z</time>
      </trkpt>
      <trkpt lat="42.3937950" lon="-5.1557240">
        <ele>852.4</ele>
        <time>2020-04-07T17:32:53Z</time>
      </trkpt>
      <trkpt lat="42.3938690" lon="-5.1558560">
        <ele>852.4</ele>
        <time>2020-04-07T17:32:55Z</time>
      </trkpt>
      <trkpt lat="42.3940710" lon="-5.1562250">
        <ele>852.4</ele>
        <time>2020-04-07T17:32:57Z</time>
      </trkpt>
      <trkpt lat="42.3941390" lon="-5.1563670">
        <ele>852.4</ele>
        <time>2020-04-07T17:32:59Z</time>
      </trkpt>
      <trkpt lat="42.3942070" lon="-5.1565090">
        <ele>852.6</ele>
        <time>2020-04-07T17:33:01Z</time>
      </trkpt>
      <trkpt lat="42.3942760" lon="-5.1566520">
        <ele>852.6</ele>
        <time>2020-04-07T17:33:03Z</time>
      </trkpt>
      <trkpt lat="42.3944250" lon="-5.1569760">
        <ele>852.8</ele>
        <time>2020-04-07T17:33:05Z</time>
      </trkpt>
      <trkpt lat="42.3944870" lon="-5.1571210">
        <ele>853.0</ele>
        <time>2020-04-07T17:33:07Z</time>
      </trkpt>
      <trkpt lat="42.3945480" lon="-5.1572640">
        <ele>853.0</ele>
        <time>2020-04-07T17:33:09Z</time>
      </trkpt>
      <trkpt lat="42.3946080" lon="-5.1574040">
        <ele>853.2</ele>
        <time>2020-04-07T17:33:11Z</time>
      </trkpt>
      <trkpt lat="42.3946670" lon="-5.1575440">
        <ele>853.4</ele>
        <time>2020-04-07T17:33:13Z</time>
      </trkpt>
      <trkpt lat="42.3948380" lon="-5.1579430">
        <ele>854.0</ele>
        <time>2020-04-07T17:33:15Z</time>
      </trkpt>
      <trkpt lat="42.3948960" lon="-5.1580800">
        <ele>854.2</ele>
        <time>2020-04-07T17:33:17Z</time>
      </trkpt>
      <trkpt lat="42.3949540" lon="-5.1582150">
        <ele>854.2</ele>
        <time>2020-04-07T17:33:19Z</time>
      </trkpt>
      <trkpt lat="42.3950680" lon="-5.1584820">
        <ele>854.6</ele>
        <time>2020-04-07T17:33:21Z</time>
      </trkpt>
      <trkpt lat="42.3951260" lon="-5.1586160">
        <ele>854.8</ele>
        <time>2020-04-07T17:33:23Z</time>
      </trkpt>
      <trkpt lat="42.3952380" lon="-5.1588770">
        <ele>855.2</ele>
        <time>2020-04-07T17:33:25Z</time>
      </trkpt>
      <trkpt lat="42.3952940" lon="-5.1590080">
        <ele>855.4</ele>
        <time>2020-04-07T17:33:27Z</time>
      </trkpt>
      <trkpt lat="42.3953490" lon="-5.1591370">
        <ele>855.6</ele>
        <time>2020-04-07T17:33:29Z</time>
      </trkpt>
      <trkpt lat="42.3954040" lon="-5.1592630">
        <ele>855.8</ele>
        <time>2020-04-07T17:33:31Z</time>
      </trkpt>
      <trkpt lat="42.3954570" lon="-5.1593870">
        <ele>856.0</ele>
        <time>2020-04-07T17:33:33Z</time>
      </trkpt>
      <trkpt lat="42.3955100" lon="-5.1595110">
        <ele>856.4</ele>
        <time>2020-04-07T17:33:35Z</time>
      </trkpt>
      <trkpt lat="42.3956750" lon="-5.1598950">
        <ele>857.0</ele>
        <time>2020-04-07T17:33:37Z</time>
      </trkpt>
      <trkpt lat="42.3957270" lon="-5.1600160">
        <ele>857.4</ele>
        <time>2020-04-07T17:33:39Z</time>
      </trkpt>
      <trkpt lat="42.3957790" lon="-5.1601350">
        <ele>857.6</ele>
        <time>2020-04-07T17:33:41Z</time>
      </trkpt>
      <trkpt lat="42.3958300" lon="-5.1602540">
        <ele>857.8</ele>
        <time>2020-04-07T17:33:43Z</time>
      </trkpt>
      <trkpt lat="42.3959560" lon="-5.1605470">
        <ele>858.2</ele>
        <time>2020-04-07T17:33:45Z</time>
      </trkpt>
      <trkpt lat="42.3960080" lon="-5.1606670">
        <ele>858.4</ele>
        <time>2020-04-07T17:33:47Z</time>
      </trkpt>
      <trkpt lat="42.3960990" lon="-5.1608800">
        <ele>858.4</ele>
        <time>2020-04-07T17:33:49Z</time>
      </trkpt>
      <trkpt lat="42.3961540" lon="-5.1610080">
        <ele>858.6</ele>
        <time>2020-04-07T17:33:51Z</time>
      </trkpt>
      <trkpt lat="42.3962090" lon="-5.1611370">
        <ele>858.6</ele>
        <time>2020-04-07T17:33:53Z</time>
      </trkpt>
      <trkpt lat="42.3962650" lon="-5.1612670">
        <ele>858.6</ele>
        <time>2020-04-07T17:33:55Z</time>
      </trkpt>
      <trkpt lat="42.3963200" lon="-5.1613960">
        <ele>858.8</ele>
        <time>2020-04-07T17:33:57Z</time>
      </trkpt>
      <trkpt lat="42.3963750" lon="-5.1615240">
        <ele>858.8</ele>
        <time>2020-04-07T17:33:59Z</time>
      </trkpt>
      <trkpt lat="42.3965430" lon="-5.1619140">
        <ele>858.8</ele>
        <time>2020-04-07T17:34:01Z</time>
      </trkpt>
      <trkpt lat="42.3965990" lon="-5.1620450">
        <ele>858.8</ele>
        <time>2020-04-07T17:34:03Z</time>
      </trkpt>
      <trkpt lat="42.3966570" lon="-5.1621810">
        <ele>858.6</ele>
        <time>2020-04-07T17:34:05Z</time>
      </trkpt>
      <trkpt lat="42.3967160" lon="-5.1623180">
        <ele>858.4</ele>
        <time>2020-04-07T17:34:07Z</time>
      </trkpt>
      <trkpt lat="42.3967770" lon="-5.1624590">
        <ele>858.4</ele>
        <time>2020-04-07T17:34:09Z</time>
      </trkpt>
      <trkpt lat="42.3968390" lon="-5.1626030">
        <ele>858.2</ele>
        <time>2020-04-07T17:34:11Z</time>
      </trkpt>
      <trkpt lat="42.3970110" lon="-5.1630130">
        <ele>857.8</ele>
        <time>2020-04-07T17:34:13Z</time>
      </trkpt>
      <trkpt lat="42.3970980" lon="-5.1632460">
        <ele>857.4</ele>
        <time>2020-04-07T17:34:15Z</time>
      </trkpt>
      <trkpt lat="42.3971500" lon="-5.1634050">
        <ele>857.4</ele>
        <time>2020-04-07T17:34:17Z</time>
      </trkpt>
      <trkpt lat="42.3972190" lon="-5.1636660">
        <ele>856.8</ele>
        <time>2020-04-07T17:34:19Z</time>
      </trkpt>
      <trkpt lat="42.3972600" lon="-5.1638440">
        <ele>856.4</ele>
        <time>2020-04-07T17:34:21Z</time>
      </trkpt>
      <trkpt lat="42.3973040" lon="-5.1640290">
        <ele>855.8</ele>
        <time>2020-04-07T17:34:23Z</time>
      </trkpt>
      <trkpt lat="42.3974040" lon="-5.1644570">
        <ele>854.8</ele>
        <time>2020-04-07T17:34:25Z</time>
      </trkpt>
      <trkpt lat="42.3974490" lon="-5.1646520">
        <ele>854.2</ele>
        <time>2020-04-07T17:34:27Z</time>
      </trkpt>
      <trkpt lat="42.3974960" lon="-5.1648530">
        <ele>853.8</ele>
        <time>2020-04-07T17:34:29Z</time>
      </trkpt>
      <trkpt lat="42.3975440" lon="-5.1650580">
        <ele>853.2</ele>
        <time>2020-04-07T17:34:31Z</time>
      </trkpt>
      <trkpt lat="42.3976470" lon="-5.1655000">
        <ele>852.2</ele>
        <time>2020-04-07T17:34:33Z</time>
      </trkpt>
      <trkpt lat="42.3976950" lon="-5.1657090">
        <ele>851.6</ele>
        <time>2020-04-07T17:34:35Z</time>
      </trkpt>
      <trkpt lat="42.3977440" lon="-5.1659170">
        <ele>851.2</ele>
        <time>2020-04-07T17:34:37Z</time>
      </trkpt>
      <trkpt lat="42.3978500" lon="-5.1663620">
        <ele>850.4</ele>
        <time>2020-04-07T17:34:39Z</time>
      </trkpt>
      <trkpt lat="42.3979300" lon="-5.1666530">
        <ele>850.0</ele>
        <time>2020-04-07T17:34:41Z</time>
      </trkpt>
      <trkpt lat="42.3979920" lon="-5.1668440">
        <ele>849.8</ele>
        <time>2020-04-07T17:34:43Z</time>
      </trkpt>
      <trkpt lat="42.3980930" lon="-5.1671210">
        <ele>849.8</ele>
        <time>2020-04-07T17:34:45Z</time>
      </trkpt>
      <trkpt lat="42.3981580" lon="-5.1672850">
        <ele>849.8</ele>
        <time>2020-04-07T17:34:47Z</time>
      </trkpt>
      <trkpt lat="42.3982200" lon="-5.1674420">
        <ele>849.8</ele>
        <time>2020-04-07T17:34:49Z</time>
      </trkpt>
      <trkpt lat="42.3982800" lon="-5.1675940">
        <ele>849.6</ele>
        <time>2020-04-07T17:34:51Z</time>
      </trkpt>
      <trkpt lat="42.3984410" lon="-5.1680010">
        <ele>849.6</ele>
        <time>2020-04-07T17:34:53Z</time>
      </trkpt>
      <trkpt lat="42.3984990" lon="-5.1681480">
        <ele>849.8</ele>
        <time>2020-04-07T17:34:55Z</time>
      </trkpt>
      <trkpt lat="42.3985560" lon="-5.1682920">
        <ele>849.8</ele>
        <time>2020-04-07T17:34:57Z</time>
      </trkpt>
      <trkpt lat="42.3986110" lon="-5.1684340">
        <ele>850.0</ele>
        <time>2020-04-07T17:34:59Z</time>
      </trkpt>
      <trkpt lat="42.3986660" lon="-5.1685720">
        <ele>850.0</ele>
        <time>2020-04-07T17:35:01Z</time>
      </trkpt>
      <trkpt lat="42.3988210" lon="-5.1689650">
        <ele>850.4</ele>
        <time>2020-04-07T17:35:03Z</time>
      </trkpt>
      <trkpt lat="42.3988740" lon="-5.1690990">
        <ele>850.4</ele>
        <time>2020-04-07T17:35:05Z</time>
      </trkpt>
      <trkpt lat="42.3989280" lon="-5.1692350">
        <ele>850.6</ele>
        <time>2020-04-07T17:35:07Z</time>
      </trkpt>
      <trkpt lat="42.3989820" lon="-5.1693710">
        <ele>850.6</ele>
        <time>2020-04-07T17:35:09Z</time>
      </trkpt>
      <trkpt lat="42.3990360" lon="-5.1695080">
        <ele>850.8</ele>
        <time>2020-04-07T17:35:11Z</time>
      </trkpt>
      <trkpt lat="42.3990900" lon="-5.1696440">
        <ele>850.8</ele>
        <time>2020-04-07T17:35:13Z</time>
      </trkpt>
      <trkpt lat="42.3992440" lon="-5.1700350">
        <ele>851.4</ele>
        <time>2020-04-07T17:35:15Z</time>
      </trkpt>
      <trkpt lat="42.3992950" lon="-5.1701640">
        <ele>851.8</ele>
        <time>2020-04-07T17:35:17Z</time>
      </trkpt>
      <trkpt lat="42.3993440" lon="-5.1702870">
        <ele>852.2</ele>
        <time>2020-04-07T17:35:19Z</time>
      </trkpt>
      <trkpt lat="42.3993900" lon="-5.1704060">
        <ele>852.4</ele>
        <time>2020-04-07T17:35:21Z</time>
      </trkpt>
      <trkpt lat="42.3994360" lon="-5.1705220">
        <ele>852.8</ele>
        <time>2020-04-07T17:35:23Z</time>
      </trkpt>
      <trkpt lat="42.3995820" lon="-5.1708910">
        <ele>854.0</ele>
        <time>2020-04-07T17:35:25Z</time>
      </trkpt>
      <trkpt lat="42.3996250" lon="-5.1710010">
        <ele>854.2</ele>
        <time>2020-04-07T17:35:27Z</time>
      </trkpt>
      <trkpt lat="42.3996680" lon="-5.1711090">
        <ele>854.6</ele>
        <time>2020-04-07T17:35:29Z</time>
      </trkpt>
      <trkpt lat="42.3997100" lon="-5.1712150">
        <ele>854.8</ele>
        <time>2020-04-07T17:35:31Z</time>
      </trkpt>
      <trkpt lat="42.3997520" lon="-5.1713210">
        <ele>855.2</ele>
        <time>2020-04-07T17:35:33Z</time>
      </trkpt>
      <trkpt lat="42.3997930" lon="-5.1714250">
        <ele>855.4</ele>
        <time>2020-04-07T17:35:35Z</time>
      </trkpt>
      <trkpt lat="42.3998330" lon="-5.1715270">
        <ele>855.8</ele>
        <time>2020-04-07T17:35:37Z</time>
      </trkpt>
      <trkpt lat="42.3999750" lon="-5.1718850">
        <ele>856.8</ele>
        <time>2020-04-07T17:35:39Z</time>
      </trkpt>
      <trkpt lat="42.4000140" lon="-5.1719860">
        <ele>857.2</ele>
        <time>2020-04-07T17:35:41Z</time>
      </trkpt>
      <trkpt lat="42.4000540" lon="-5.1720860">
        <ele>857.4</ele>
        <time>2020-04-07T17:35:43Z</time>
      </trkpt>
      <trkpt lat="42.4000930" lon="-5.1721860">
        <ele>857.6</ele>
        <time>2020-04-07T17:35:45Z</time>
      </trkpt>
      <trkpt lat="42.4001320" lon="-5.1722850">
        <ele>858.0</ele>
        <time>2020-04-07T17:35:47Z</time>
      </trkpt>
      <trkpt lat="42.4001720" lon="-5.1723840">
        <ele>858.2</ele>
        <time>2020-04-07T17:35:49Z</time>
      </trkpt>
      <trkpt lat="42.4002110" lon="-5.1724830">
        <ele>858.4</ele>
        <time>2020-04-07T17:35:51Z</time>
      </trkpt>
      <trkpt lat="42.4002500" lon="-5.1725820">
        <ele>858.8</ele>
        <time>2020-04-07T17:35:53Z</time>
      </trkpt>
      <trkpt lat="42.4003900" lon="-5.1729360">
        <ele>859.8</ele>
        <time>2020-04-07T17:35:55Z</time>
      </trkpt>
      <trkpt lat="42.4004290" lon="-5.1730350">
        <ele>860.0</ele>
        <time>2020-04-07T17:35:57Z</time>
      </trkpt>
      <trkpt lat="42.4004670" lon="-5.1731330">
        <ele>860.2</ele>
        <time>2020-04-07T17:35:59Z</time>
      </trkpt>
      <trkpt lat="42.4005060" lon="-5.1732300">
        <ele>860.6</ele>
        <time>2020-04-07T17:36:01Z</time>
      </trkpt>
      <trkpt lat="42.4005450" lon="-5.1733280">
        <ele>860.8</ele>
        <time>2020-04-07T17:36:03Z</time>
      </trkpt>
      <trkpt lat="42.4006520" lon="-5.1736080">
        <ele>861.6</ele>
        <time>2020-04-07T17:36:05Z</time>
      </trkpt>
      <trkpt lat="42.4006880" lon="-5.1737080">
        <ele>861.8</ele>
        <time>2020-04-07T17:36:07Z</time>
      </trkpt>
      <trkpt lat="42.4007530" lon="-5.1738860">
        <ele>862.2</ele>
        <time>2020-04-07T17:36:09Z</time>
      </trkpt>
      <trkpt lat="42.4007960" lon="-5.1739940">
        <ele>862.2</ele>
        <time>2020-04-07T17:36:11Z</time>
      </trkpt>
      <trkpt lat="42.4008420" lon="-5.1741060">
        <ele>862.2</ele>
        <time>2020-04-07T17:36:13Z</time>
      </trkpt>
      <trkpt lat="42.4008890" lon="-5.1742230">
        <ele>862.4</ele>
        <time>2020-04-07T17:36:15Z</time>
      </trkpt>
      <trkpt lat="42.4009390" lon="-5.1743460">
        <ele>862.4</ele>
        <time>2020-04-07T17:36:17Z</time>
      </trkpt>
      <trkpt lat="42.4009890" lon="-5.1744720">
        <ele>862.4</ele>
        <time>2020-04-07T17:36:19Z</time>
      </trkpt>
      <trkpt lat="42.4011470" lon="-5.1748630">
        <ele>862.6</ele>
        <time>2020-04-07T17:36:21Z</time>
      </trkpt>
      <trkpt lat="42.4012000" lon="-5.1749940">
        <ele>862.8</ele>
        <time>2020-04-07T17:36:23Z</time>
      </trkpt>
      <trkpt lat="42.4012530" lon="-5.1751270">
        <ele>862.8</ele>
        <time>2020-04-07T17:36:25Z</time>
      </trkpt>
      <trkpt lat="42.4013080" lon="-5.1752610">
        <ele>862.8</ele>
        <time>2020-04-07T17:36:27Z</time>
      </trkpt>
      <trkpt lat="42.4013620" lon="-5.1753970">
        <ele>863.0</ele>
        <time>2020-04-07T17:36:29Z</time>
      </trkpt>
      <trkpt lat="42.4015100" lon="-5.1757630">
        <ele>863.2</ele>
        <time>2020-04-07T17:36:31Z</time>
      </trkpt>
      <trkpt lat="42.4015790" lon="-5.1759380">
        <ele>863.2</ele>
        <time>2020-04-07T17:36:33Z</time>
      </trkpt>
      <trkpt lat="42.4016360" lon="-5.1760800">
        <ele>863.2</ele>
        <time>2020-04-07T17:36:35Z</time>
      </trkpt>
      <trkpt lat="42.4016930" lon="-5.1762250">
        <ele>863.2</ele>
        <time>2020-04-07T17:36:37Z</time>
      </trkpt>
      <trkpt lat="42.4017510" lon="-5.1763700">
        <ele>863.2</ele>
        <time>2020-04-07T17:36:39Z</time>
      </trkpt>
      <trkpt lat="42.4018100" lon="-5.1765180">
        <ele>863.2</ele>
        <time>2020-04-07T17:36:41Z</time>
      </trkpt>
      <trkpt lat="42.4019740" lon="-5.1769310">
        <ele>863.4</ele>
        <time>2020-04-07T17:36:43Z</time>
      </trkpt>
      <trkpt lat="42.4020330" lon="-5.1770790">
        <ele>863.4</ele>
        <time>2020-04-07T17:36:45Z</time>
      </trkpt>
      <trkpt lat="42.4020920" lon="-5.1772270">
        <ele>863.6</ele>
        <time>2020-04-07T17:36:47Z</time>
      </trkpt>
      <trkpt lat="42.4021500" lon="-5.1773740">
        <ele>863.6</ele>
        <time>2020-04-07T17:36:49Z</time>
      </trkpt>
      <trkpt lat="42.4022080" lon="-5.1775210">
        <ele>863.6</ele>
        <time>2020-04-07T17:36:51Z</time>
      </trkpt>
      <trkpt lat="42.4023720" lon="-5.1779330">
        <ele>864.0</ele>
        <time>2020-04-07T17:36:53Z</time>
      </trkpt>
      <trkpt lat="42.4024300" lon="-5.1780790">
        <ele>864.0</ele>
        <time>2020-04-07T17:36:55Z</time>
      </trkpt>
      <trkpt lat="42.4024890" lon="-5.1782260">
        <ele>864.2</ele>
        <time>2020-04-07T17:36:57Z</time>
      </trkpt>
      <trkpt lat="42.4025470" lon="-5.1783720">
        <ele>864.2</ele>
        <time>2020-04-07T17:36:59Z</time>
      </trkpt>
      <trkpt lat="42.4026050" lon="-5.1785180">
        <ele>864.4</ele>
        <time>2020-04-07T17:37:01Z</time>
      </trkpt>
      <trkpt lat="42.4027680" lon="-5.1789290">
        <ele>864.6</ele>
        <time>2020-04-07T17:37:03Z</time>
      </trkpt>
      <trkpt lat="42.4028260" lon="-5.1790750">
        <ele>864.6</ele>
        <time>2020-04-07T17:37:05Z</time>
      </trkpt>
      <trkpt lat="42.4028840" lon="-5.1792210">
        <ele>864.6</ele>
        <time>2020-04-07T17:37:07Z</time>
      </trkpt>
      <trkpt lat="42.4029430" lon="-5.1793690">
        <ele>864.6</ele>
        <time>2020-04-07T17:37:09Z</time>
      </trkpt>
      <trkpt lat="42.4030020" lon="-5.1795170">
        <ele>864.8</ele>
        <time>2020-04-07T17:37:11Z</time>
      </trkpt>
      <trkpt lat="42.4031660" lon="-5.1799290">
        <ele>864.8</ele>
        <time>2020-04-07T17:37:13Z</time>
      </trkpt>
      <trkpt lat="42.4032250" lon="-5.1800780">
        <ele>865.0</ele>
        <time>2020-04-07T17:37:15Z</time>
      </trkpt>
      <trkpt lat="42.4032850" lon="-5.1802280">
        <ele>865.0</ele>
        <time>2020-04-07T17:37:17Z</time>
      </trkpt>
      <trkpt lat="42.4033440" lon="-5.1803770">
        <ele>865.0</ele>
        <time>2020-04-07T17:37:19Z</time>
      </trkpt>
      <trkpt lat="42.4034030" lon="-5.1805260">
        <ele>865.0</ele>
        <time>2020-04-07T17:37:21Z</time>
      </trkpt>
      <trkpt lat="42.4035680" lon="-5.1809410">
        <ele>865.2</ele>
        <time>2020-04-07T17:37:23Z</time>
      </trkpt>
      <trkpt lat="42.4036270" lon="-5.1810900">
        <ele>865.4</ele>
        <time>2020-04-07T17:37:25Z</time>
      </trkpt>
      <trkpt lat="42.4036870" lon="-5.1812400">
        <ele>865.4</ele>
        <time>2020-04-07T17:37:27Z</time>
      </trkpt>
      <trkpt lat="42.4037470" lon="-5.1813910">
        <ele>865.4</ele>
        <time>2020-04-07T17:37:29Z</time>
      </trkpt>
      <trkpt lat="42.4038070" lon="-5.1815400">
        <ele>865.6</ele>
        <time>2020-04-07T17:37:31Z</time>
      </trkpt>
      <trkpt lat="42.4039720" lon="-5.1819550">
        <ele>865.8</ele>
        <time>2020-04-07T17:37:33Z</time>
      </trkpt>
      <trkpt lat="42.4040320" lon="-5.1821060">
        <ele>865.8</ele>
        <time>2020-04-07T17:37:35Z</time>
      </trkpt>
      <trkpt lat="42.4040920" lon="-5.1822570">
        <ele>865.8</ele>
        <time>2020-04-07T17:37:37Z</time>
      </trkpt>
      <trkpt lat="42.4041510" lon="-5.1824070">
        <ele>866.0</ele>
        <time>2020-04-07T17:37:39Z</time>
      </trkpt>
      <trkpt lat="42.4042110" lon="-5.1825580">
        <ele>866.0</ele>
        <time>2020-04-07T17:37:41Z</time>
      </trkpt>
      <trkpt lat="42.4043770" lon="-5.1829740">
        <ele>866.2</ele>
        <time>2020-04-07T17:37:43Z</time>
      </trkpt>
      <trkpt lat="42.4044370" lon="-5.1831250">
        <ele>866.4</ele>
        <time>2020-04-07T17:37:45Z</time>
      </trkpt>
      <trkpt lat="42.4044960" lon="-5.1832750">
        <ele>866.4</ele>
        <time>2020-04-07T17:37:47Z</time>
      </trkpt>
      <trkpt lat="42.4045550" lon="-5.1834240">
        <ele>866.6</ele>
        <time>2020-04-07T17:37:49Z</time>
      </trkpt>
      <trkpt lat="42.4047020" lon="-5.1837900">
        <ele>866.8</ele>
        <time>2020-04-07T17:37:51Z</time>
      </trkpt>
      <trkpt lat="42.4047810" lon="-5.1839830">
        <ele>866.8</ele>
        <time>2020-04-07T17:37:53Z</time>
      </trkpt>
      <trkpt lat="42.4048690" lon="-5.1841950">
        <ele>867.0</ele>
        <time>2020-04-07T17:37:55Z</time>
      </trkpt>
      <trkpt lat="42.4049350" lon="-5.1843380">
        <ele>867.0</ele>
        <time>2020-04-07T17:37:57Z</time>
      </trkpt>
      <trkpt lat="42.4050020" lon="-5.1844820">
        <ele>867.0</ele>
        <time>2020-04-07T17:37:59Z</time>
      </trkpt>
      <trkpt lat="42.4051400" lon="-5.1847810">
        <ele>867.0</ele>
        <time>2020-04-07T17:38:02Z</time>
      </trkpt>
      <trkpt lat="42.4052110" lon="-5.1849280">
        <ele>867.0</ele>
        <time>2020-04-07T17:38:04Z</time>
      </trkpt>
      <trkpt lat="42.4052810" lon="-5.1850730">
        <ele>867.0</ele>
        <time>2020-04-07T17:38:06Z</time>
      </trkpt>
      <trkpt lat="42.4053510" lon="-5.1852180">
        <ele>867.2</ele>
        <time>2020-04-07T17:38:08Z</time>
      </trkpt>
      <trkpt lat="42.4055110" lon="-5.1855490">
        <ele>867.2</ele>
        <time>2020-04-07T17:38:10Z</time>
      </trkpt>
      <trkpt lat="42.4055810" lon="-5.1856930">
        <ele>867.4</ele>
        <time>2020-04-07T17:38:12Z</time>
      </trkpt>
      <trkpt lat="42.4056500" lon="-5.1858360">
        <ele>867.4</ele>
        <time>2020-04-07T17:38:14Z</time>
      </trkpt>
      <trkpt lat="42.4057180" lon="-5.1859770">
        <ele>867.6</ele>
        <time>2020-04-07T17:38:16Z</time>
      </trkpt>
      <trkpt lat="42.4058750" lon="-5.1863040">
        <ele>867.8</ele>
        <time>2020-04-07T17:38:18Z</time>
      </trkpt>
      <trkpt lat="42.4059410" lon="-5.1864440">
        <ele>868.0</ele>
        <time>2020-04-07T17:38:20Z</time>
      </trkpt>
      <trkpt lat="42.4060060" lon="-5.1865840">
        <ele>868.2</ele>
        <time>2020-04-07T17:38:22Z</time>
      </trkpt>
      <trkpt lat="42.4060710" lon="-5.1867210">
        <ele>868.2</ele>
        <time>2020-04-07T17:38:24Z</time>
      </trkpt>
      <trkpt lat="42.4062420" lon="-5.1870850">
        <ele>868.6</ele>
        <time>2020-04-07T17:38:26Z</time>
      </trkpt>
      <trkpt lat="42.4063060" lon="-5.1872220">
        <ele>868.8</ele>
        <time>2020-04-07T17:38:28Z</time>
      </trkpt>
      <trkpt lat="42.4063700" lon="-5.1873580">
        <ele>869.0</ele>
        <time>2020-04-07T17:38:30Z</time>
      </trkpt>
      <trkpt lat="42.4064340" lon="-5.1874930">
        <ele>869.0</ele>
        <time>2020-04-07T17:38:32Z</time>
      </trkpt>
      <trkpt lat="42.4064980" lon="-5.1876290">
        <ele>869.2</ele>
        <time>2020-04-07T17:38:34Z</time>
      </trkpt>
      <trkpt lat="42.4066670" lon="-5.1879900">
        <ele>869.6</ele>
        <time>2020-04-07T17:38:36Z</time>
      </trkpt>
      <trkpt lat="42.4067300" lon="-5.1881240">
        <ele>869.8</ele>
        <time>2020-04-07T17:38:38Z</time>
      </trkpt>
      <trkpt lat="42.4067940" lon="-5.1882590">
        <ele>869.8</ele>
        <time>2020-04-07T17:38:40Z</time>
      </trkpt>
      <trkpt lat="42.4068570" lon="-5.1883940">
        <ele>870.0</ele>
        <time>2020-04-07T17:38:42Z</time>
      </trkpt>
      <trkpt lat="42.4069190" lon="-5.1885270">
        <ele>870.2</ele>
        <time>2020-04-07T17:38:44Z</time>
      </trkpt>
      <trkpt lat="42.4070880" lon="-5.1888860">
        <ele>870.6</ele>
        <time>2020-04-07T17:38:46Z</time>
      </trkpt>
      <trkpt lat="42.4071500" lon="-5.1890180">
        <ele>870.6</ele>
        <time>2020-04-07T17:38:48Z</time>
      </trkpt>
      <trkpt lat="42.4072110" lon="-5.1891470">
        <ele>870.8</ele>
        <time>2020-04-07T17:38:50Z</time>
      </trkpt>
      <trkpt lat="42.4072710" lon="-5.1892750">
        <ele>870.8</ele>
        <time>2020-04-07T17:38:52Z</time>
      </trkpt>
      <trkpt lat="42.4074210" lon="-5.1895960">
        <ele>871.0</ele>
        <time>2020-04-07T17:38:54Z</time>
      </trkpt>
      <trkpt lat="42.4074940" lon="-5.1897550">
        <ele>871.2</ele>
        <time>2020-04-07T17:38:56Z</time>
      </trkpt>
      <trkpt lat="42.4075510" lon="-5.1898800">
        <ele>871.2</ele>
        <time>2020-04-07T17:38:58Z</time>
      </trkpt>
      <trkpt lat="42.4076080" lon="-5.1900040">
        <ele>871.2</ele>
        <time>2020-04-07T17:39:00Z</time>
      </trkpt>
      <trkpt lat="42.4076660" lon="-5.1901290">
        <ele>871.4</ele>
        <time>2020-04-07T17:39:02Z</time>
      </trkpt>
      <trkpt lat="42.4077220" lon="-5.1902510">
        <ele>871.4</ele>
        <time>2020-04-07T17:39:04Z</time>
      </trkpt>
      <trkpt lat="42.4078830" lon="-5.1906030">
        <ele>871.6</ele>
        <time>2020-04-07T17:39:06Z</time>
      </trkpt>
      <trkpt lat="42.4079400" lon="-5.1907270">
        <ele>871.6</ele>
        <time>2020-04-07T17:39:08Z</time>
      </trkpt>
      <trkpt lat="42.4079980" lon="-5.1908520">
        <ele>871.6</ele>
        <time>2020-04-07T17:39:10Z</time>
      </trkpt>
      <trkpt lat="42.4080560" lon="-5.1909780">
        <ele>871.6</ele>
        <time>2020-04-07T17:39:12Z</time>
      </trkpt>
      <trkpt lat="42.4081140" lon="-5.1911060">
        <ele>871.6</ele>
        <time>2020-04-07T17:39:14Z</time>
      </trkpt>
      <trkpt lat="42.4081740" lon="-5.1912360">
        <ele>871.6</ele>
        <time>2020-04-07T17:39:16Z</time>
      </trkpt>
      <trkpt lat="42.4083510" lon="-5.1916220">
        <ele>871.6</ele>
        <time>2020-04-07T17:39:18Z</time>
      </trkpt>
      <trkpt lat="42.4084120" lon="-5.1917540">
        <ele>871.6</ele>
        <time>2020-04-07T17:39:20Z</time>
      </trkpt>
      <trkpt lat="42.4084720" lon="-5.1918860">
        <ele>871.6</ele>
        <time>2020-04-07T17:39:22Z</time>
      </trkpt>
      <trkpt lat="42.4085330" lon="-5.1920180">
        <ele>871.6</ele>
        <time>2020-04-07T17:39:24Z</time>
      </trkpt>
      <trkpt lat="42.4085940" lon="-5.1921490">
        <ele>871.6</ele>
        <time>2020-04-07T17:39:26Z</time>
      </trkpt>
      <trkpt lat="42.4087730" lon="-5.1925400">
        <ele>871.6</ele>
        <time>2020-04-07T17:39:28Z</time>
      </trkpt>
      <trkpt lat="42.4088340" lon="-5.1926730">
        <ele>871.6</ele>
        <time>2020-04-07T17:39:30Z</time>
      </trkpt>
      <trkpt lat="42.4088950" lon="-5.1928060">
        <ele>871.6</ele>
        <time>2020-04-07T17:39:32Z</time>
      </trkpt>
      <trkpt lat="42.4089570" lon="-5.1929400">
        <ele>871.6</ele>
        <time>2020-04-07T17:39:34Z</time>
      </trkpt>
      <trkpt lat="42.4090180" lon="-5.1930740">
        <ele>871.6</ele>
        <time>2020-04-07T17:39:36Z</time>
      </trkpt>
      <trkpt lat="42.4090800" lon="-5.1932090">
        <ele>871.6</ele>
        <time>2020-04-07T17:39:38Z</time>
      </trkpt>
      <trkpt lat="42.4092600" lon="-5.1936010">
        <ele>871.6</ele>
        <time>2020-04-07T17:39:40Z</time>
      </trkpt>
      <trkpt lat="42.4093230" lon="-5.1937370">
        <ele>871.6</ele>
        <time>2020-04-07T17:39:42Z</time>
      </trkpt>
      <trkpt lat="42.4093850" lon="-5.1938740">
        <ele>871.6</ele>
        <time>2020-04-07T17:39:44Z</time>
      </trkpt>
      <trkpt lat="42.4094490" lon="-5.1940130">
        <ele>871.8</ele>
        <time>2020-04-07T17:39:46Z</time>
      </trkpt>
      <trkpt lat="42.4095130" lon="-5.1941520">
        <ele>871.8</ele>
        <time>2020-04-07T17:39:48Z</time>
      </trkpt>
      <trkpt lat="42.4096950" lon="-5.1945490">
        <ele>871.6</ele>
        <time>2020-04-07T17:39:50Z</time>
      </trkpt>
      <trkpt lat="42.4097620" lon="-5.1946930">
        <ele>871.6</ele>
        <time>2020-04-07T17:39:52Z</time>
      </trkpt>
      <trkpt lat="42.4098290" lon="-5.1948400">
        <ele>871.4</ele>
        <time>2020-04-07T17:39:54Z</time>
      </trkpt>
      <trkpt lat="42.4098980" lon="-5.1949900">
        <ele>871.2</ele>
        <time>2020-04-07T17:39:56Z</time>
      </trkpt>
      <trkpt lat="42.4099680" lon="-5.1951420">
        <ele>871.0</ele>
        <time>2020-04-07T17:39:58Z</time>
      </trkpt>
      <trkpt lat="42.4101570" lon="-5.1955540">
        <ele>870.6</ele>
        <time>2020-04-07T17:40:00Z</time>
      </trkpt>
      <trkpt lat="42.4102290" lon="-5.1957100">
        <ele>870.6</ele>
        <time>2020-04-07T17:40:02Z</time>
      </trkpt>
      <trkpt lat="42.4103010" lon="-5.1958680">
        <ele>870.4</ele>
        <time>2020-04-07T17:40:04Z</time>
      </trkpt>
      <trkpt lat="42.4103740" lon="-5.1960260">
        <ele>870.2</ele>
        <time>2020-04-07T17:40:06Z</time>
      </trkpt>
      <trkpt lat="42.4105660" lon="-5.1964430">
        <ele>869.8</ele>
        <time>2020-04-07T17:40:08Z</time>
      </trkpt>
      <trkpt lat="42.4106400" lon="-5.1966050">
        <ele>869.6</ele>
        <time>2020-04-07T17:40:10Z</time>
      </trkpt>
      <trkpt lat="42.4107140" lon="-5.1967680">
        <ele>869.4</ele>
        <time>2020-04-07T17:40:12Z</time>
      </trkpt>
      <trkpt lat="42.4107870" lon="-5.1969300">
        <ele>869.2</ele>
        <time>2020-04-07T17:40:14Z</time>
      </trkpt>
      <trkpt lat="42.4108620" lon="-5.1970940">
        <ele>869.0</ele>
        <time>2020-04-07T17:40:16Z</time>
      </trkpt>
      <trkpt lat="42.4110550" lon="-5.1975160">
        <ele>868.8</ele>
        <time>2020-04-07T17:40:18Z</time>
      </trkpt>
      <trkpt lat="42.4111280" lon="-5.1976770">
        <ele>868.8</ele>
        <time>2020-04-07T17:40:20Z</time>
      </trkpt>
      <trkpt lat="42.4112010" lon="-5.1978370">
        <ele>868.8</ele>
        <time>2020-04-07T17:40:22Z</time>
      </trkpt>
      <trkpt lat="42.4112740" lon="-5.1979950">
        <ele>868.8</ele>
        <time>2020-04-07T17:40:24Z</time>
      </trkpt>
      <trkpt lat="42.4114630" lon="-5.1984090">
        <ele>868.8</ele>
        <time>2020-04-07T17:40:26Z</time>
      </trkpt>
      <trkpt lat="42.4115270" lon="-5.1985670">
        <ele>868.8</ele>
        <time>2020-04-07T17:40:28Z</time>
      </trkpt>
      <trkpt lat="42.4115910" lon="-5.1987260">
        <ele>868.8</ele>
        <time>2020-04-07T17:40:30Z</time>
      </trkpt>
      <trkpt lat="42.4117070" lon="-5.1990140">
        <ele>868.8</ele>
        <time>2020-04-07T17:40:32Z</time>
      </trkpt>
      <trkpt lat="42.4117710" lon="-5.1991690">
        <ele>868.8</ele>
        <time>2020-04-07T17:40:34Z</time>
      </trkpt>
      <trkpt lat="42.4118830" lon="-5.1994400">
        <ele>868.8</ele>
        <time>2020-04-07T17:40:36Z</time>
      </trkpt>
      <trkpt lat="42.4119460" lon="-5.1995930">
        <ele>868.8</ele>
        <time>2020-04-07T17:40:38Z</time>
      </trkpt>
      <trkpt lat="42.4120100" lon="-5.1997470">
        <ele>869.0</ele>
        <time>2020-04-07T17:40:40Z</time>
      </trkpt>
      <trkpt lat="42.4120730" lon="-5.1998980">
        <ele>869.0</ele>
        <time>2020-04-07T17:40:42Z</time>
      </trkpt>
      <trkpt lat="42.4121360" lon="-5.2000500">
        <ele>869.0</ele>
        <time>2020-04-07T17:40:44Z</time>
      </trkpt>
      <trkpt lat="42.4123010" lon="-5.2004490">
        <ele>869.0</ele>
        <time>2020-04-07T17:40:46Z</time>
      </trkpt>
      <trkpt lat="42.4123640" lon="-5.2006010">
        <ele>869.0</ele>
        <time>2020-04-07T17:40:48Z</time>
      </trkpt>
      <trkpt lat="42.4124780" lon="-5.2008760">
        <ele>869.0</ele>
        <time>2020-04-07T17:40:50Z</time>
      </trkpt>
      <trkpt lat="42.4125430" lon="-5.2010310">
        <ele>868.8</ele>
        <time>2020-04-07T17:40:52Z</time>
      </trkpt>
      <trkpt lat="42.4126650" lon="-5.2013110">
        <ele>868.4</ele>
        <time>2020-04-07T17:40:54Z</time>
      </trkpt>
      <trkpt lat="42.4127390" lon="-5.2014640">
        <ele>868.4</ele>
        <time>2020-04-07T17:40:56Z</time>
      </trkpt>
      <trkpt lat="42.4128630" lon="-5.2017140">
        <ele>868.0</ele>
        <time>2020-04-07T17:40:58Z</time>
      </trkpt>
      <trkpt lat="42.4129420" lon="-5.2018680">
        <ele>867.8</ele>
        <time>2020-04-07T17:41:00Z</time>
      </trkpt>
      <trkpt lat="42.4130210" lon="-5.2020240">
        <ele>867.6</ele>
        <time>2020-04-07T17:41:02Z</time>
      </trkpt>
      <trkpt lat="42.4131780" lon="-5.2023300">
        <ele>867.4</ele>
        <time>2020-04-07T17:41:04Z</time>
      </trkpt>
      <trkpt lat="42.4132540" lon="-5.2024790">
        <ele>867.4</ele>
        <time>2020-04-07T17:41:06Z</time>
      </trkpt>
      <trkpt lat="42.4133290" lon="-5.2026260">
        <ele>867.4</ele>
        <time>2020-04-07T17:41:08Z</time>
      </trkpt>
      <trkpt lat="42.4134030" lon="-5.2027700">
        <ele>867.4</ele>
        <time>2020-04-07T17:41:10Z</time>
      </trkpt>
      <trkpt lat="42.4136040" lon="-5.2031630">
        <ele>867.4</ele>
        <time>2020-04-07T17:41:12Z</time>
      </trkpt>
      <trkpt lat="42.4136740" lon="-5.2033080">
        <ele>867.4</ele>
        <time>2020-04-07T17:41:14Z</time>
      </trkpt>
      <trkpt lat="42.4137440" lon="-5.2034530">
        <ele>867.4</ele>
        <time>2020-04-07T17:41:16Z</time>
      </trkpt>
      <trkpt lat="42.4138140" lon="-5.2035980">
        <ele>867.4</ele>
        <time>2020-04-07T17:41:18Z</time>
      </trkpt>
      <trkpt lat="42.4139760" lon="-5.2039300">
        <ele>867.4</ele>
        <time>2020-04-07T17:41:20Z</time>
      </trkpt>
      <trkpt lat="42.4140650" lon="-5.2041160">
        <ele>867.4</ele>
        <time>2020-04-07T17:41:22Z</time>
      </trkpt>
      <trkpt lat="42.4141340" lon="-5.2042600">
        <ele>867.4</ele>
        <time>2020-04-07T17:41:24Z</time>
      </trkpt>
      <trkpt lat="42.4142040" lon="-5.2044070">
        <ele>867.2</ele>
        <time>2020-04-07T17:41:26Z</time>
      </trkpt>
      <trkpt lat="42.4143440" lon="-5.2047030">
        <ele>867.2</ele>
        <time>2020-04-07T17:41:28Z</time>
      </trkpt>
      <trkpt lat="42.4144150" lon="-5.2048510">
        <ele>867.2</ele>
        <time>2020-04-07T17:41:30Z</time>
      </trkpt>
      <trkpt lat="42.4144850" lon="-5.2049970">
        <ele>867.2</ele>
        <time>2020-04-07T17:41:32Z</time>
      </trkpt>
      <trkpt lat="42.4146470" lon="-5.2053350">
        <ele>867.0</ele>
        <time>2020-04-07T17:41:34Z</time>
      </trkpt>
      <trkpt lat="42.4147210" lon="-5.2054820">
        <ele>866.8</ele>
        <time>2020-04-07T17:41:36Z</time>
      </trkpt>
      <trkpt lat="42.4147960" lon="-5.2056320">
        <ele>866.8</ele>
        <time>2020-04-07T17:41:38Z</time>
      </trkpt>
      <trkpt lat="42.4148710" lon="-5.2057840">
        <ele>866.6</ele>
        <time>2020-04-07T17:41:40Z</time>
      </trkpt>
      <trkpt lat="42.4150540" lon="-5.2061450">
        <ele>866.2</ele>
        <time>2020-04-07T17:41:42Z</time>
      </trkpt>
      <trkpt lat="42.4151470" lon="-5.2063280">
        <ele>866.0</ele>
        <time>2020-04-07T17:41:44Z</time>
      </trkpt>
      <trkpt lat="42.4152590" lon="-5.2065460">
        <ele>865.8</ele>
        <time>2020-04-07T17:41:46Z</time>
      </trkpt>
      <trkpt lat="42.4153380" lon="-5.2066990">
        <ele>865.8</ele>
        <time>2020-04-07T17:41:48Z</time>
      </trkpt>
      <trkpt lat="42.4154180" lon="-5.2068550">
        <ele>865.6</ele>
        <time>2020-04-07T17:41:50Z</time>
      </trkpt>
      <trkpt lat="42.4155690" lon="-5.2071480">
        <ele>865.4</ele>
        <time>2020-04-07T17:41:52Z</time>
      </trkpt>
      <trkpt lat="42.4156480" lon="-5.2073000">
        <ele>865.6</ele>
        <time>2020-04-07T17:41:54Z</time>
      </trkpt>
      <trkpt lat="42.4157240" lon="-5.2074490">
        <ele>865.6</ele>
        <time>2020-04-07T17:41:56Z</time>
      </trkpt>
      <trkpt lat="42.4158010" lon="-5.2075980">
        <ele>865.6</ele>
        <time>2020-04-07T17:41:58Z</time>
      </trkpt>
      <trkpt lat="42.4159960" lon="-5.2079560">
        <ele>865.8</ele>
        <time>2020-04-07T17:42:00Z</time>
      </trkpt>
      <trkpt lat="42.4160790" lon="-5.2080940">
        <ele>865.8</ele>
        <time>2020-04-07T17:42:02Z</time>
      </trkpt>
      <trkpt lat="42.4161610" lon="-5.2082300">
        <ele>865.8</ele>
        <time>2020-04-07T17:42:04Z</time>
      </trkpt>
      <trkpt lat="42.4162430" lon="-5.2083650">
        <ele>865.8</ele>
        <time>2020-04-07T17:42:06Z</time>
      </trkpt>
      <trkpt lat="42.4164510" lon="-5.2087090">
        <ele>866.0</ele>
        <time>2020-04-07T17:42:08Z</time>
      </trkpt>
      <trkpt lat="42.4165320" lon="-5.2088430">
        <ele>866.0</ele>
        <time>2020-04-07T17:42:10Z</time>
      </trkpt>
      <trkpt lat="42.4166120" lon="-5.2089770">
        <ele>866.0</ele>
        <time>2020-04-07T17:42:12Z</time>
      </trkpt>
      <trkpt lat="42.4166920" lon="-5.2091090">
        <ele>866.0</ele>
        <time>2020-04-07T17:42:14Z</time>
      </trkpt>
      <trkpt lat="42.4168980" lon="-5.2094500">
        <ele>866.0</ele>
        <time>2020-04-07T17:42:16Z</time>
      </trkpt>
      <trkpt lat="42.4169780" lon="-5.2095820">
        <ele>866.2</ele>
        <time>2020-04-07T17:42:18Z</time>
      </trkpt>
      <trkpt lat="42.4170580" lon="-5.2097140">
        <ele>866.2</ele>
        <time>2020-04-07T17:42:20Z</time>
      </trkpt>
      <trkpt lat="42.4171380" lon="-5.2098460">
        <ele>866.2</ele>
        <time>2020-04-07T17:42:22Z</time>
      </trkpt>
      <trkpt lat="42.4172170" lon="-5.2099770">
        <ele>866.2</ele>
        <time>2020-04-07T17:42:24Z</time>
      </trkpt>
      <trkpt lat="42.4174210" lon="-5.2103190">
        <ele>866.4</ele>
        <time>2020-04-07T17:42:26Z</time>
      </trkpt>
      <trkpt lat="42.4174950" lon="-5.2104500">
        <ele>866.4</ele>
        <time>2020-04-07T17:42:28Z</time>
      </trkpt>
      <trkpt lat="42.4175690" lon="-5.2105810">
        <ele>866.6</ele>
        <time>2020-04-07T17:42:30Z</time>
      </trkpt>
      <trkpt lat="42.4177320" lon="-5.2108690">
        <ele>866.8</ele>
        <time>2020-04-07T17:42:32Z</time>
      </trkpt>
      <trkpt lat="42.4178050" lon="-5.2109970">
        <ele>867.0</ele>
        <time>2020-04-07T17:42:34Z</time>
      </trkpt>
      <trkpt lat="42.4178760" lon="-5.2111230">
        <ele>867.2</ele>
        <time>2020-04-07T17:42:36Z</time>
      </trkpt>
      <trkpt lat="42.4179470" lon="-5.2112490">
        <ele>867.2</ele>
        <time>2020-04-07T17:42:38Z</time>
      </trkpt>
      <trkpt lat="42.4181070" lon="-5.2115370">
        <ele>867.4</ele>
        <time>2020-04-07T17:42:40Z</time>
      </trkpt>
      <trkpt lat="42.4181760" lon="-5.2116670">
        <ele>867.4</ele>
        <time>2020-04-07T17:42:42Z</time>
      </trkpt>
      <trkpt lat="42.4182450" lon="-5.2117990">
        <ele>867.4</ele>
        <time>2020-04-07T17:42:44Z</time>
      </trkpt>
      <trkpt lat="42.4183160" lon="-5.2119320">
        <ele>867.4</ele>
        <time>2020-04-07T17:42:46Z</time>
      </trkpt>
      <trkpt lat="42.4184910" lon="-5.2122690">
        <ele>867.2</ele>
        <time>2020-04-07T17:42:48Z</time>
      </trkpt>
      <trkpt lat="42.4185590" lon="-5.2124090">
        <ele>867.2</ele>
        <time>2020-04-07T17:42:50Z</time>
      </trkpt>
      <trkpt lat="42.4186280" lon="-5.2125500">
        <ele>867.2</ele>
        <time>2020-04-07T17:42:52Z</time>
      </trkpt>
      <trkpt lat="42.4186970" lon="-5.2126930">
        <ele>867.2</ele>
        <time>2020-04-07T17:42:54Z</time>
      </trkpt>
      <trkpt lat="42.4188710" lon="-5.2130510">
        <ele>867.2</ele>
        <time>2020-04-07T17:42:56Z</time>
      </trkpt>
      <trkpt lat="42.4189400" lon="-5.2131940">
        <ele>867.2</ele>
        <time>2020-04-07T17:42:58Z</time>
      </trkpt>
      <trkpt lat="42.4190080" lon="-5.2133340">
        <ele>867.4</ele>
        <time>2020-04-07T17:43:00Z</time>
      </trkpt>
      <trkpt lat="42.4190760" lon="-5.2134730">
        <ele>867.4</ele>
        <time>2020-04-07T17:43:02Z</time>
      </trkpt>
      <trkpt lat="42.4191430" lon="-5.2136110">
        <ele>867.6</ele>
        <time>2020-04-07T17:43:04Z</time>
      </trkpt>
      <trkpt lat="42.4193130" lon="-5.2139620">
        <ele>868.0</ele>
        <time>2020-04-07T17:43:06Z</time>
      </trkpt>
      <trkpt lat="42.4193790" lon="-5.2140960">
        <ele>868.0</ele>
        <time>2020-04-07T17:43:08Z</time>
      </trkpt>
      <trkpt lat="42.4194440" lon="-5.2142300">
        <ele>868.2</ele>
        <time>2020-04-07T17:43:10Z</time>
      </trkpt>
      <trkpt lat="42.4195080" lon="-5.2143620">
        <ele>868.2</ele>
        <time>2020-04-07T17:43:12Z</time>
      </trkpt>
      <trkpt lat="42.4196770" lon="-5.2147060">
        <ele>868.6</ele>
        <time>2020-04-07T17:43:14Z</time>
      </trkpt>
      <trkpt lat="42.4197450" lon="-5.2148290">
        <ele>869.0</ele>
        <time>2020-04-07T17:43:16Z</time>
      </trkpt>
      <trkpt lat="42.4198120" lon="-5.2149470">
        <ele>869.2</ele>
        <time>2020-04-07T17:43:18Z</time>
      </trkpt>
      <trkpt lat="42.4198770" lon="-5.2150620">
        <ele>869.4</ele>
        <time>2020-04-07T17:43:20Z</time>
      </trkpt>
      <trkpt lat="42.4200430" lon="-5.2153170">
        <ele>870.2</ele>
        <time>2020-04-07T17:43:22Z</time>
      </trkpt>
      <trkpt lat="42.4201340" lon="-5.2154240">
        <ele>870.4</ele>
        <time>2020-04-07T17:43:24Z</time>
      </trkpt>
      <trkpt lat="42.4201920" lon="-5.2155340">
        <ele>870.6</ele>
        <time>2020-04-07T17:43:26Z</time>
      </trkpt>
      <trkpt lat="42.4202510" lon="-5.2156430">
        <ele>871.0</ele>
        <time>2020-04-07T17:43:28Z</time>
      </trkpt>
      <trkpt lat="42.4203070" lon="-5.2157500">
        <ele>871.2</ele>
        <time>2020-04-07T17:43:30Z</time>
      </trkpt>
      <trkpt lat="42.4203640" lon="-5.2158560">
        <ele>871.4</ele>
        <time>2020-04-07T17:43:32Z</time>
      </trkpt>
      <trkpt lat="42.4205190" lon="-5.2161550">
        <ele>872.0</ele>
        <time>2020-04-07T17:43:34Z</time>
      </trkpt>
      <trkpt lat="42.4205750" lon="-5.2162720">
        <ele>872.0</ele>
        <time>2020-04-07T17:43:36Z</time>
      </trkpt>
      <trkpt lat="42.4206320" lon="-5.2163930">
        <ele>871.8</ele>
        <time>2020-04-07T17:43:38Z</time>
      </trkpt>
      <trkpt lat="42.4206920" lon="-5.2165190">
        <ele>871.8</ele>
        <time>2020-04-07T17:43:40Z</time>
      </trkpt>
      <trkpt lat="42.4207530" lon="-5.2166490">
        <ele>871.8</ele>
        <time>2020-04-07T17:43:42Z</time>
      </trkpt>
      <trkpt lat="42.4209200" lon="-5.2169990">
        <ele>871.8</ele>
        <time>2020-04-07T17:43:44Z</time>
      </trkpt>
      <trkpt lat="42.4209840" lon="-5.2171350">
        <ele>871.8</ele>
        <time>2020-04-07T17:43:46Z</time>
      </trkpt>
      <trkpt lat="42.4210500" lon="-5.2172730">
        <ele>871.8</ele>
        <time>2020-04-07T17:43:48Z</time>
      </trkpt>
      <trkpt lat="42.4211160" lon="-5.2174130">
        <ele>871.6</ele>
        <time>2020-04-07T17:43:50Z</time>
      </trkpt>
      <trkpt lat="42.4212890" lon="-5.2177730">
        <ele>871.6</ele>
        <time>2020-04-07T17:43:52Z</time>
      </trkpt>
      <trkpt lat="42.4213600" lon="-5.2179130">
        <ele>871.8</ele>
        <time>2020-04-07T17:43:54Z</time>
      </trkpt>
      <trkpt lat="42.4214310" lon="-5.2180510">
        <ele>871.8</ele>
        <time>2020-04-07T17:43:56Z</time>
      </trkpt>
      <trkpt lat="42.4215020" lon="-5.2181890">
        <ele>871.8</ele>
        <time>2020-04-07T17:43:58Z</time>
      </trkpt>
      <trkpt lat="42.4216620" lon="-5.2185020">
        <ele>872.0</ele>
        <time>2020-04-07T17:44:00Z</time>
      </trkpt>
      <trkpt lat="42.4217330" lon="-5.2186400">
        <ele>872.2</ele>
        <time>2020-04-07T17:44:02Z</time>
      </trkpt>
      <trkpt lat="42.4218030" lon="-5.2187780">
        <ele>872.2</ele>
        <time>2020-04-07T17:44:04Z</time>
      </trkpt>
      <trkpt lat="42.4218730" lon="-5.2189150">
        <ele>872.2</ele>
        <time>2020-04-07T17:44:06Z</time>
      </trkpt>
      <trkpt lat="42.4220300" lon="-5.2192310">
        <ele>872.4</ele>
        <time>2020-04-07T17:44:08Z</time>
      </trkpt>
      <trkpt lat="42.4220960" lon="-5.2193700">
        <ele>872.4</ele>
        <time>2020-04-07T17:44:10Z</time>
      </trkpt>
      <trkpt lat="42.4221620" lon="-5.2195100">
        <ele>872.4</ele>
        <time>2020-04-07T17:44:12Z</time>
      </trkpt>
      <trkpt lat="42.4223200" lon="-5.2198480">
        <ele>872.6</ele>
        <time>2020-04-07T17:44:14Z</time>
      </trkpt>
      <trkpt lat="42.4223770" lon="-5.2199970">
        <ele>872.6</ele>
        <time>2020-04-07T17:44:16Z</time>
      </trkpt>
      <trkpt lat="42.4224730" lon="-5.2202540">
        <ele>872.6</ele>
        <time>2020-04-07T17:44:18Z</time>
      </trkpt>
      <trkpt lat="42.4225040" lon="-5.2204190">
        <ele>872.6</ele>
        <time>2020-04-07T17:44:20Z</time>
      </trkpt>
      <trkpt lat="42.4225350" lon="-5.2205870">
        <ele>872.6</ele>
        <time>2020-04-07T17:44:22Z</time>
      </trkpt>
      <trkpt lat="42.4225970" lon="-5.2209170">
        <ele>872.4</ele>
        <time>2020-04-07T17:44:24Z</time>
      </trkpt>
      <trkpt lat="42.4226300" lon="-5.2210900">
        <ele>872.2</ele>
        <time>2020-04-07T17:44:26Z</time>
      </trkpt>
      <trkpt lat="42.4226870" lon="-5.2214000">
        <ele>872.0</ele>
        <time>2020-04-07T17:44:28Z</time>
      </trkpt>
      <trkpt lat="42.4227340" lon="-5.2216420">
        <ele>872.0</ele>
        <time>2020-04-07T17:44:30Z</time>
      </trkpt>
      <trkpt lat="42.4227860" lon="-5.2218170">
        <ele>871.8</ele>
        <time>2020-04-07T17:44:32Z</time>
      </trkpt>
      <trkpt lat="42.4228680" lon="-5.2220750">
        <ele>871.6</ele>
        <time>2020-04-07T17:44:34Z</time>
      </trkpt>
      <trkpt lat="42.4229630" lon="-5.2223600">
        <ele>871.4</ele>
        <time>2020-04-07T17:44:36Z</time>
      </trkpt>
      <trkpt lat="42.4230710" lon="-5.2225520">
        <ele>871.2</ele>
        <time>2020-04-07T17:44:38Z</time>
      </trkpt>
      <trkpt lat="42.4232160" lon="-5.2227000">
        <ele>871.0</ele>
        <time>2020-04-07T17:44:40Z</time>
      </trkpt>
      <trkpt lat="42.4233830" lon="-5.2228800">
        <ele>870.8</ele>
        <time>2020-04-07T17:44:42Z</time>
      </trkpt>
      <trkpt lat="42.4234900" lon="-5.2230130">
        <ele>870.6</ele>
        <time>2020-04-07T17:44:44Z</time>
      </trkpt>
      <trkpt lat="42.4235980" lon="-5.2231460">
        <ele>870.4</ele>
        <time>2020-04-07T17:44:46Z</time>
      </trkpt>
      <trkpt lat="42.4238140" lon="-5.2233960">
        <ele>870.2</ele>
        <time>2020-04-07T17:44:48Z</time>
      </trkpt>
      <trkpt lat="42.4239590" lon="-5.2236010">
        <ele>870.0</ele>
        <time>2020-04-07T17:44:50Z</time>
      </trkpt>
      <trkpt lat="42.4240760" lon="-5.2238250">
        <ele>869.8</ele>
        <time>2020-04-07T17:44:52Z</time>
      </trkpt>
      <trkpt lat="42.4241590" lon="-5.2239840">
        <ele>869.8</ele>
        <time>2020-04-07T17:44:54Z</time>
      </trkpt>
      <trkpt lat="42.4242990" lon="-5.2242510">
        <ele>870.0</ele>
        <time>2020-04-07T17:44:56Z</time>
      </trkpt>
      <trkpt lat="42.4243790" lon="-5.2244030">
        <ele>870.0</ele>
        <time>2020-04-07T17:44:58Z</time>
      </trkpt>
      <trkpt lat="42.4244580" lon="-5.2245530">
        <ele>870.0</ele>
        <time>2020-04-07T17:45:00Z</time>
      </trkpt>
      <trkpt lat="42.4245360" lon="-5.2247020">
        <ele>870.0</ele>
        <time>2020-04-07T17:45:02Z</time>
      </trkpt>
      <trkpt lat="42.4247050" lon="-5.2250240">
        <ele>870.2</ele>
        <time>2020-04-07T17:45:04Z</time>
      </trkpt>
      <trkpt lat="42.4247820" lon="-5.2251710">
        <ele>870.2</ele>
        <time>2020-04-07T17:45:06Z</time>
      </trkpt>
      <trkpt lat="42.4248580" lon="-5.2253170">
        <ele>870.2</ele>
        <time>2020-04-07T17:45:08Z</time>
      </trkpt>
      <trkpt lat="42.4250330" lon="-5.2256300">
        <ele>870.2</ele>
        <time>2020-04-07T17:45:10Z</time>
      </trkpt>
      <trkpt lat="42.4251220" lon="-5.2257600">
        <ele>870.2</ele>
        <time>2020-04-07T17:45:12Z</time>
      </trkpt>
      <trkpt lat="42.4252100" lon="-5.2258900">
        <ele>870.2</ele>
        <time>2020-04-07T17:45:14Z</time>
      </trkpt>
      <trkpt lat="42.4252980" lon="-5.2260190">
        <ele>870.2</ele>
        <time>2020-04-07T17:45:16Z</time>
      </trkpt>
      <trkpt lat="42.4253870" lon="-5.2261480">
        <ele>870.2</ele>
        <time>2020-04-07T17:45:18Z</time>
      </trkpt>
      <trkpt lat="42.4256180" lon="-5.2264860">
        <ele>870.2</ele>
        <time>2020-04-07T17:45:20Z</time>
      </trkpt>
      <trkpt lat="42.4257060" lon="-5.2266150">
        <ele>870.2</ele>
        <time>2020-04-07T17:45:22Z</time>
      </trkpt>
      <trkpt lat="42.4257940" lon="-5.2267440">
        <ele>870.4</ele>
        <time>2020-04-07T17:45:24Z</time>
      </trkpt>
      <trkpt lat="42.4258810" lon="-5.2268710">
        <ele>870.4</ele>
        <time>2020-04-07T17:45:26Z</time>
      </trkpt>
      <trkpt lat="42.4261140" lon="-5.2272120">
        <ele>870.4</ele>
        <time>2020-04-07T17:45:28Z</time>
      </trkpt>
      <trkpt lat="42.4262020" lon="-5.2273390">
        <ele>870.4</ele>
        <time>2020-04-07T17:45:30Z</time>
      </trkpt>
      <trkpt lat="42.4263530" lon="-5.2275600">
        <ele>870.6</ele>
        <time>2020-04-07T17:45:32Z</time>
      </trkpt>
      <trkpt lat="42.4264420" lon="-5.2276900">
        <ele>870.4</ele>
        <time>2020-04-07T17:45:34Z</time>
      </trkpt>
      <trkpt lat="42.4265320" lon="-5.2278210">
        <ele>870.2</ele>
        <time>2020-04-07T17:45:36Z</time>
      </trkpt>
      <trkpt lat="42.4266920" lon="-5.2280850">
        <ele>870.0</ele>
        <time>2020-04-07T17:45:38Z</time>
      </trkpt>
      <trkpt lat="42.4267660" lon="-5.2282380">
        <ele>870.0</ele>
        <time>2020-04-07T17:45:40Z</time>
      </trkpt>
      <trkpt lat="42.4268400" lon="-5.2283910">
        <ele>869.8</ele>
        <time>2020-04-07T17:45:42Z</time>
      </trkpt>
      <trkpt lat="42.4269140" lon="-5.2285460">
        <ele>869.8</ele>
        <time>2020-04-07T17:45:44Z</time>
      </trkpt>
      <trkpt lat="42.4271030" lon="-5.2289390">
        <ele>869.6</ele>
        <time>2020-04-07T17:45:46Z</time>
      </trkpt>
      <trkpt lat="42.4271780" lon="-5.2290940">
        <ele>869.6</ele>
        <time>2020-04-07T17:45:48Z</time>
      </trkpt>
      <trkpt lat="42.4272520" lon="-5.2292460">
        <ele>869.6</ele>
        <time>2020-04-07T17:45:50Z</time>
      </trkpt>
      <trkpt lat="42.4273250" lon="-5.2293980">
        <ele>869.6</ele>
        <time>2020-04-07T17:45:52Z</time>
      </trkpt>
      <trkpt lat="42.4273980" lon="-5.2295500">
        <ele>869.6</ele>
        <time>2020-04-07T17:45:54Z</time>
      </trkpt>
      <trkpt lat="42.4275850" lon="-5.2299370">
        <ele>869.6</ele>
        <time>2020-04-07T17:45:56Z</time>
      </trkpt>
      <trkpt lat="42.4276570" lon="-5.2300860">
        <ele>869.6</ele>
        <time>2020-04-07T17:45:58Z</time>
      </trkpt>
      <trkpt lat="42.4277290" lon="-5.2302350">
        <ele>869.6</ele>
        <time>2020-04-07T17:46:00Z</time>
      </trkpt>
      <trkpt lat="42.4278000" lon="-5.2303840">
        <ele>869.6</ele>
        <time>2020-04-07T17:46:02Z</time>
      </trkpt>
      <trkpt lat="42.4279860" lon="-5.2307690">
        <ele>869.6</ele>
        <time>2020-04-07T17:46:04Z</time>
      </trkpt>
      <trkpt lat="42.4280570" lon="-5.2309160">
        <ele>869.8</ele>
        <time>2020-04-07T17:46:06Z</time>
      </trkpt>
      <trkpt lat="42.4281270" lon="-5.2310610">
        <ele>869.8</ele>
        <time>2020-04-07T17:46:08Z</time>
      </trkpt>
      <trkpt lat="42.4281960" lon="-5.2312050">
        <ele>870.0</ele>
        <time>2020-04-07T17:46:10Z</time>
      </trkpt>
      <trkpt lat="42.4282650" lon="-5.2313480">
        <ele>870.0</ele>
        <time>2020-04-07T17:46:12Z</time>
      </trkpt>
      <trkpt lat="42.4284470" lon="-5.2317240">
        <ele>870.2</ele>
        <time>2020-04-07T17:46:14Z</time>
      </trkpt>
      <trkpt lat="42.4285120" lon="-5.2318610">
        <ele>870.2</ele>
        <time>2020-04-07T17:46:16Z</time>
      </trkpt>
      <trkpt lat="42.4285780" lon="-5.2319970">
        <ele>870.4</ele>
        <time>2020-04-07T17:46:18Z</time>
      </trkpt>
      <trkpt lat="42.4286430" lon="-5.2321310">
        <ele>870.4</ele>
        <time>2020-04-07T17:46:20Z</time>
      </trkpt>
      <trkpt lat="42.4287070" lon="-5.2322640">
        <ele>870.4</ele>
        <time>2020-04-07T17:46:22Z</time>
      </trkpt>
      <trkpt lat="42.4288840" lon="-5.2326320">
        <ele>870.6</ele>
        <time>2020-04-07T17:46:24Z</time>
      </trkpt>
      <trkpt lat="42.4289480" lon="-5.2327640">
        <ele>870.6</ele>
        <time>2020-04-07T17:46:26Z</time>
      </trkpt>
      <trkpt lat="42.4290110" lon="-5.2328950">
        <ele>870.6</ele>
        <time>2020-04-07T17:46:28Z</time>
      </trkpt>
      <trkpt lat="42.4290740" lon="-5.2330260">
        <ele>870.6</ele>
        <time>2020-04-07T17:46:30Z</time>
      </trkpt>
      <trkpt lat="42.4291370" lon="-5.2331560">
        <ele>870.6</ele>
        <time>2020-04-07T17:46:32Z</time>
      </trkpt>
      <trkpt lat="42.4293150" lon="-5.2335250">
        <ele>870.6</ele>
        <time>2020-04-07T17:46:34Z</time>
      </trkpt>
      <trkpt lat="42.4293790" lon="-5.2336570">
        <ele>870.6</ele>
        <time>2020-04-07T17:46:36Z</time>
      </trkpt>
      <trkpt lat="42.4294940" lon="-5.2338990">
        <ele>870.6</ele>
        <time>2020-04-07T17:46:38Z</time>
      </trkpt>
      <trkpt lat="42.4295570" lon="-5.2340330">
        <ele>870.6</ele>
        <time>2020-04-07T17:46:40Z</time>
      </trkpt>
      <trkpt lat="42.4296710" lon="-5.2342770">
        <ele>870.6</ele>
        <time>2020-04-07T17:46:42Z</time>
      </trkpt>
      <trkpt lat="42.4297330" lon="-5.2344100">
        <ele>870.6</ele>
        <time>2020-04-07T17:46:44Z</time>
      </trkpt>
      <trkpt lat="42.4297960" lon="-5.2345430">
        <ele>870.6</ele>
        <time>2020-04-07T17:46:46Z</time>
      </trkpt>
      <trkpt lat="42.4298580" lon="-5.2346760">
        <ele>870.6</ele>
        <time>2020-04-07T17:46:48Z</time>
      </trkpt>
      <trkpt lat="42.4299210" lon="-5.2348100">
        <ele>870.4</ele>
        <time>2020-04-07T17:46:50Z</time>
      </trkpt>
      <trkpt lat="42.4300870" lon="-5.2351650">
        <ele>870.4</ele>
        <time>2020-04-07T17:46:52Z</time>
      </trkpt>
      <trkpt lat="42.4301490" lon="-5.2352990">
        <ele>870.4</ele>
        <time>2020-04-07T17:46:54Z</time>
      </trkpt>
      <trkpt lat="42.4302120" lon="-5.2354330">
        <ele>870.4</ele>
        <time>2020-04-07T17:46:56Z</time>
      </trkpt>
      <trkpt lat="42.4302750" lon="-5.2355670">
        <ele>870.4</ele>
        <time>2020-04-07T17:46:58Z</time>
      </trkpt>
      <trkpt lat="42.4303370" lon="-5.2357010">
        <ele>870.4</ele>
        <time>2020-04-07T17:47:00Z</time>
      </trkpt>
      <trkpt lat="42.4305040" lon="-5.2360560">
        <ele>870.2</ele>
        <time>2020-04-07T17:47:02Z</time>
      </trkpt>
      <trkpt lat="42.4305670" lon="-5.2361910">
        <ele>870.2</ele>
        <time>2020-04-07T17:47:04Z</time>
      </trkpt>
      <trkpt lat="42.4306300" lon="-5.2363250">
        <ele>870.2</ele>
        <time>2020-04-07T17:47:06Z</time>
      </trkpt>
      <trkpt lat="42.4306930" lon="-5.2364600">
        <ele>870.2</ele>
        <time>2020-04-07T17:47:08Z</time>
      </trkpt>
      <trkpt lat="42.4308590" lon="-5.2368140">
        <ele>870.2</ele>
        <time>2020-04-07T17:47:10Z</time>
      </trkpt>
      <trkpt lat="42.4309220" lon="-5.2369480">
        <ele>870.2</ele>
        <time>2020-04-07T17:47:12Z</time>
      </trkpt>
      <trkpt lat="42.4310260" lon="-5.2371900">
        <ele>870.2</ele>
        <time>2020-04-07T17:47:14Z</time>
      </trkpt>
      <trkpt lat="42.4310780" lon="-5.2373410">
        <ele>870.0</ele>
        <time>2020-04-07T17:47:16Z</time>
      </trkpt>
      <trkpt lat="42.4311280" lon="-5.2374850">
        <ele>870.0</ele>
        <time>2020-04-07T17:47:18Z</time>
      </trkpt>
      <trkpt lat="42.4311780" lon="-5.2376290">
        <ele>870.0</ele>
        <time>2020-04-07T17:47:20Z</time>
      </trkpt>
      <trkpt lat="42.4312850" lon="-5.2379400">
        <ele>870.0</ele>
        <time>2020-04-07T17:47:22Z</time>
      </trkpt>
      <trkpt lat="42.4313350" lon="-5.2380870">
        <ele>869.8</ele>
        <time>2020-04-07T17:47:24Z</time>
      </trkpt>
      <trkpt lat="42.4313870" lon="-5.2382370">
        <ele>869.6</ele>
        <time>2020-04-07T17:47:26Z</time>
      </trkpt>
      <trkpt lat="42.4314990" lon="-5.2385630">
        <ele>869.4</ele>
        <time>2020-04-07T17:47:28Z</time>
      </trkpt>
      <trkpt lat="42.4315500" lon="-5.2387170">
        <ele>869.2</ele>
        <time>2020-04-07T17:47:30Z</time>
      </trkpt>
      <trkpt lat="42.4316020" lon="-5.2388730">
        <ele>869.2</ele>
        <time>2020-04-07T17:47:32Z</time>
      </trkpt>
      <trkpt lat="42.4316550" lon="-5.2390310">
        <ele>869.0</ele>
        <time>2020-04-07T17:47:34Z</time>
      </trkpt>
      <trkpt lat="42.4317080" lon="-5.2391900">
        <ele>868.8</ele>
        <time>2020-04-07T17:47:36Z</time>
      </trkpt>
      <trkpt lat="42.4318570" lon="-5.2396360">
        <ele>868.4</ele>
        <time>2020-04-07T17:47:38Z</time>
      </trkpt>
      <trkpt lat="42.4319110" lon="-5.2397980">
        <ele>868.4</ele>
        <time>2020-04-07T17:47:40Z</time>
      </trkpt>
      <trkpt lat="42.4319660" lon="-5.2399610">
        <ele>868.2</ele>
        <time>2020-04-07T17:47:42Z</time>
      </trkpt>
      <trkpt lat="42.4320200" lon="-5.2401240">
        <ele>868.0</ele>
        <time>2020-04-07T17:47:44Z</time>
      </trkpt>
      <trkpt lat="42.4320750" lon="-5.2402910">
        <ele>867.8</ele>
        <time>2020-04-07T17:47:46Z</time>
      </trkpt>
      <trkpt lat="42.4322260" lon="-5.2407420">
        <ele>867.4</ele>
        <time>2020-04-07T17:47:48Z</time>
      </trkpt>
      <trkpt lat="42.4322820" lon="-5.2409100">
        <ele>867.2</ele>
        <time>2020-04-07T17:47:50Z</time>
      </trkpt>
      <trkpt lat="42.4323380" lon="-5.2410780">
        <ele>867.2</ele>
        <time>2020-04-07T17:47:52Z</time>
      </trkpt>
      <trkpt lat="42.4323950" lon="-5.2412470">
        <ele>867.0</ele>
        <time>2020-04-07T17:47:54Z</time>
      </trkpt>
      <trkpt lat="42.4324510" lon="-5.2414160">
        <ele>866.8</ele>
        <time>2020-04-07T17:47:56Z</time>
      </trkpt>
      <trkpt lat="42.4326030" lon="-5.2418710">
        <ele>866.4</ele>
        <time>2020-04-07T17:47:58Z</time>
      </trkpt>
      <trkpt lat="42.4326600" lon="-5.2420430">
        <ele>866.2</ele>
        <time>2020-04-07T17:48:00Z</time>
      </trkpt>
      <trkpt lat="42.4327170" lon="-5.2422130">
        <ele>866.0</ele>
        <time>2020-04-07T17:48:02Z</time>
      </trkpt>
      <trkpt lat="42.4327750" lon="-5.2423860">
        <ele>865.8</ele>
        <time>2020-04-07T17:48:04Z</time>
      </trkpt>
      <trkpt lat="42.4328320" lon="-5.2425590">
        <ele>865.6</ele>
        <time>2020-04-07T17:48:06Z</time>
      </trkpt>
      <trkpt lat="42.4329850" lon="-5.2430160">
        <ele>865.2</ele>
        <time>2020-04-07T17:48:08Z</time>
      </trkpt>
      <trkpt lat="42.4330690" lon="-5.2432710">
        <ele>864.8</ele>
        <time>2020-04-07T17:48:10Z</time>
      </trkpt>
      <trkpt lat="42.4331280" lon="-5.2434520">
        <ele>864.4</ele>
        <time>2020-04-07T17:48:12Z</time>
      </trkpt>
      <trkpt lat="42.4331880" lon="-5.2436380">
        <ele>863.8</ele>
        <time>2020-04-07T17:48:14Z</time>
      </trkpt>
      <trkpt lat="42.4333170" lon="-5.2440340">
        <ele>862.8</ele>
        <time>2020-04-07T17:48:16Z</time>
      </trkpt>
      <trkpt lat="42.4333810" lon="-5.2442290">
        <ele>862.2</ele>
        <time>2020-04-07T17:48:18Z</time>
      </trkpt>
      <trkpt lat="42.4334460" lon="-5.2444290">
        <ele>861.6</ele>
        <time>2020-04-07T17:48:20Z</time>
      </trkpt>
      <trkpt lat="42.4335860" lon="-5.2448520">
        <ele>860.8</ele>
        <time>2020-04-07T17:48:22Z</time>
      </trkpt>
      <trkpt lat="42.4336920" lon="-5.2450950">
        <ele>861.2</ele>
        <time>2020-04-07T17:48:24Z</time>
      </trkpt>
      <trkpt lat="42.4337830" lon="-5.2452510">
        <ele>861.6</ele>
        <time>2020-04-07T17:48:26Z</time>
      </trkpt>
      <trkpt lat="42.4338710" lon="-5.2453990">
        <ele>861.8</ele>
        <time>2020-04-07T17:48:28Z</time>
      </trkpt>
      <trkpt lat="42.4339540" lon="-5.2455400">
        <ele>862.2</ele>
        <time>2020-04-07T17:48:30Z</time>
      </trkpt>
      <trkpt lat="42.4340330" lon="-5.2456740">
        <ele>862.4</ele>
        <time>2020-04-07T17:48:32Z</time>
      </trkpt>
      <trkpt lat="42.4342470" lon="-5.2460350">
        <ele>863.2</ele>
        <time>2020-04-07T17:48:34Z</time>
      </trkpt>
      <trkpt lat="42.4343200" lon="-5.2461600">
        <ele>863.4</ele>
        <time>2020-04-07T17:48:36Z</time>
      </trkpt>
      <trkpt lat="42.4343910" lon="-5.2462810">
        <ele>863.6</ele>
        <time>2020-04-07T17:48:38Z</time>
      </trkpt>
      <trkpt lat="42.4344610" lon="-5.2463990">
        <ele>863.8</ele>
        <time>2020-04-07T17:48:40Z</time>
      </trkpt>
      <trkpt lat="42.4345290" lon="-5.2465150">
        <ele>864.0</ele>
        <time>2020-04-07T17:48:42Z</time>
      </trkpt>
      <trkpt lat="42.4347330" lon="-5.2468610">
        <ele>864.6</ele>
        <time>2020-04-07T17:48:44Z</time>
      </trkpt>
      <trkpt lat="42.4347980" lon="-5.2469700">
        <ele>864.8</ele>
        <time>2020-04-07T17:48:46Z</time>
      </trkpt>
      <trkpt lat="42.4348620" lon="-5.2470790">
        <ele>865.0</ele>
        <time>2020-04-07T17:48:48Z</time>
      </trkpt>
      <trkpt lat="42.4349250" lon="-5.2471860">
        <ele>865.2</ele>
        <time>2020-04-07T17:48:50Z</time>
      </trkpt>
      <trkpt lat="42.4350710" lon="-5.2474330">
        <ele>865.6</ele>
        <time>2020-04-07T17:48:52Z</time>
      </trkpt>
      <trkpt lat="42.4351350" lon="-5.2475400">
        <ele>865.6</ele>
        <time>2020-04-07T17:48:54Z</time>
      </trkpt>
      <trkpt lat="42.4352530" lon="-5.2477410">
        <ele>865.8</ele>
        <time>2020-04-07T17:48:56Z</time>
      </trkpt>
      <trkpt lat="42.4353170" lon="-5.2478490">
        <ele>865.8</ele>
        <time>2020-04-07T17:48:58Z</time>
      </trkpt>
      <trkpt lat="42.4353820" lon="-5.2479600">
        <ele>865.8</ele>
        <time>2020-04-07T17:49:00Z</time>
      </trkpt>
      <trkpt lat="42.4354480" lon="-5.2480710">
        <ele>866.0</ele>
        <time>2020-04-07T17:49:02Z</time>
      </trkpt>
      <trkpt lat="42.4355140" lon="-5.2481830">
        <ele>866.0</ele>
        <time>2020-04-07T17:49:04Z</time>
      </trkpt>
      <trkpt lat="42.4355790" lon="-5.2482940">
        <ele>866.0</ele>
        <time>2020-04-07T17:49:06Z</time>
      </trkpt>
      <trkpt lat="42.4357840" lon="-5.2486400">
        <ele>866.2</ele>
        <time>2020-04-07T17:49:08Z</time>
      </trkpt>
      <trkpt lat="42.4358520" lon="-5.2487560">
        <ele>866.2</ele>
        <time>2020-04-07T17:49:10Z</time>
      </trkpt>
      <trkpt lat="42.4359210" lon="-5.2488740">
        <ele>866.2</ele>
        <time>2020-04-07T17:49:12Z</time>
      </trkpt>
      <trkpt lat="42.4359920" lon="-5.2489940">
        <ele>866.2</ele>
        <time>2020-04-07T17:49:14Z</time>
      </trkpt>
      <trkpt lat="42.4360630" lon="-5.2491150">
        <ele>866.2</ele>
        <time>2020-04-07T17:49:16Z</time>
      </trkpt>
      <trkpt lat="42.4361360" lon="-5.2492390">
        <ele>866.0</ele>
        <time>2020-04-07T17:49:18Z</time>
      </trkpt>
      <trkpt lat="42.4363480" lon="-5.2495980">
        <ele>866.0</ele>
        <time>2020-04-07T17:49:20Z</time>
      </trkpt>
      <trkpt lat="42.4364230" lon="-5.2497240">
        <ele>866.0</ele>
        <time>2020-04-07T17:49:22Z</time>
      </trkpt>
      <trkpt lat="42.4364970" lon="-5.2498500">
        <ele>866.0</ele>
        <time>2020-04-07T17:49:24Z</time>
      </trkpt>
      <trkpt lat="42.4365730" lon="-5.2499790">
        <ele>865.8</ele>
        <time>2020-04-07T17:49:26Z</time>
      </trkpt>
      <trkpt lat="42.4366500" lon="-5.2501090">
        <ele>865.8</ele>
        <time>2020-04-07T17:49:28Z</time>
      </trkpt>
      <trkpt lat="42.4368650" lon="-5.2504730">
        <ele>865.8</ele>
        <time>2020-04-07T17:49:30Z</time>
      </trkpt>
      <trkpt lat="42.4369400" lon="-5.2506010">
        <ele>866.0</ele>
        <time>2020-04-07T17:49:32Z</time>
      </trkpt>
      <trkpt lat="42.4370150" lon="-5.2507270">
        <ele>866.0</ele>
        <time>2020-04-07T17:49:34Z</time>
      </trkpt>
      <trkpt lat="42.4370880" lon="-5.2508510">
        <ele>866.2</ele>
        <time>2020-04-07T17:49:36Z</time>
      </trkpt>
      <trkpt lat="42.4371600" lon="-5.2509740">
        <ele>866.4</ele>
        <time>2020-04-07T17:49:38Z</time>
      </trkpt>
      <trkpt lat="42.4373740" lon="-5.2513350">
        <ele>866.6</ele>
        <time>2020-04-07T17:49:40Z</time>
      </trkpt>
      <trkpt lat="42.4374450" lon="-5.2514560">
        <ele>866.8</ele>
        <time>2020-04-07T17:49:42Z</time>
      </trkpt>
      <trkpt lat="42.4375160" lon="-5.2515760">
        <ele>867.0</ele>
        <time>2020-04-07T17:49:44Z</time>
      </trkpt>
      <trkpt lat="42.4375850" lon="-5.2516950">
        <ele>867.0</ele>
        <time>2020-04-07T17:49:46Z</time>
      </trkpt>
      <trkpt lat="42.4377500" lon="-5.2519750">
        <ele>867.2</ele>
        <time>2020-04-07T17:49:48Z</time>
      </trkpt>
      <trkpt lat="42.4378190" lon="-5.2520950">
        <ele>867.4</ele>
        <time>2020-04-07T17:49:50Z</time>
      </trkpt>
      <trkpt lat="42.4379300" lon="-5.2522850">
        <ele>867.6</ele>
        <time>2020-04-07T17:49:52Z</time>
      </trkpt>
      <trkpt lat="42.4380000" lon="-5.2524050">
        <ele>867.6</ele>
        <time>2020-04-07T17:49:54Z</time>
      </trkpt>
      <trkpt lat="42.4380700" lon="-5.2525260">
        <ele>867.8</ele>
        <time>2020-04-07T17:49:56Z</time>
      </trkpt>
      <trkpt lat="42.4381410" lon="-5.2526470">
        <ele>867.8</ele>
        <time>2020-04-07T17:49:58Z</time>
      </trkpt>
      <trkpt lat="42.4382120" lon="-5.2527690">
        <ele>867.8</ele>
        <time>2020-04-07T17:50:00Z</time>
      </trkpt>
      <trkpt lat="42.4384220" lon="-5.2531300">
        <ele>868.0</ele>
        <time>2020-04-07T17:50:02Z</time>
      </trkpt>
      <trkpt lat="42.4384930" lon="-5.2532520">
        <ele>868.2</ele>
        <time>2020-04-07T17:50:04Z</time>
      </trkpt>
      <trkpt lat="42.4385650" lon="-5.2533750">
        <ele>868.2</ele>
        <time>2020-04-07T17:50:06Z</time>
      </trkpt>
      <trkpt lat="42.4386370" lon="-5.2534990">
        <ele>868.4</ele>
        <time>2020-04-07T17:50:08Z</time>
      </trkpt>
      <trkpt lat="42.4387090" lon="-5.2536230">
        <ele>868.4</ele>
        <time>2020-04-07T17:50:10Z</time>
      </trkpt>
      <trkpt lat="42.4387810" lon="-5.2537460">
        <ele>868.4</ele>
        <time>2020-04-07T17:50:12Z</time>
      </trkpt>
      <trkpt lat="42.4389920" lon="-5.2541100">
        <ele>868.6</ele>
        <time>2020-04-07T17:50:14Z</time>
      </trkpt>
      <trkpt lat="42.4390650" lon="-5.2542350">
        <ele>868.6</ele>
        <time>2020-04-07T17:50:16Z</time>
      </trkpt>
      <trkpt lat="42.4391400" lon="-5.2543630">
        <ele>868.6</ele>
        <time>2020-04-07T17:50:18Z</time>
      </trkpt>
      <trkpt lat="42.4392140" lon="-5.2544920">
        <ele>868.6</ele>
        <time>2020-04-07T17:50:20Z</time>
      </trkpt>
      <trkpt lat="42.4392900" lon="-5.2546220">
        <ele>868.6</ele>
        <time>2020-04-07T17:50:22Z</time>
      </trkpt>
      <trkpt lat="42.4395100" lon="-5.2549850">
        <ele>868.6</ele>
        <time>2020-04-07T17:50:24Z</time>
      </trkpt>
      <trkpt lat="42.4395950" lon="-5.2551060">
        <ele>868.6</ele>
        <time>2020-04-07T17:50:26Z</time>
      </trkpt>
      <trkpt lat="42.4396800" lon="-5.2552280">
        <ele>868.6</ele>
        <time>2020-04-07T17:50:28Z</time>
      </trkpt>
      <trkpt lat="42.4397650" lon="-5.2553510">
        <ele>868.6</ele>
        <time>2020-04-07T17:50:30Z</time>
      </trkpt>
      <trkpt lat="42.4398510" lon="-5.2554750">
        <ele>868.6</ele>
        <time>2020-04-07T17:50:32Z</time>
      </trkpt>
      <trkpt lat="42.4400940" lon="-5.2558240">
        <ele>868.6</ele>
        <time>2020-04-07T17:50:34Z</time>
      </trkpt>
      <trkpt lat="42.4401800" lon="-5.2559470">
        <ele>868.6</ele>
        <time>2020-04-07T17:50:36Z</time>
      </trkpt>
      <trkpt lat="42.4402670" lon="-5.2560720">
        <ele>868.8</ele>
        <time>2020-04-07T17:50:38Z</time>
      </trkpt>
      <trkpt lat="42.4403540" lon="-5.2561970">
        <ele>868.8</ele>
        <time>2020-04-07T17:50:40Z</time>
      </trkpt>
      <trkpt lat="42.4404400" lon="-5.2563210">
        <ele>868.8</ele>
        <time>2020-04-07T17:50:42Z</time>
      </trkpt>
      <trkpt lat="42.4406840" lon="-5.2566720">
        <ele>868.8</ele>
        <time>2020-04-07T17:50:44Z</time>
      </trkpt>
      <trkpt lat="42.4408060" lon="-5.2568460">
        <ele>868.8</ele>
        <time>2020-04-07T17:50:46Z</time>
      </trkpt>
      <trkpt lat="42.4408940" lon="-5.2569720">
        <ele>869.0</ele>
        <time>2020-04-07T17:50:48Z</time>
      </trkpt>
      <trkpt lat="42.4409810" lon="-5.2570970">
        <ele>869.0</ele>
        <time>2020-04-07T17:50:50Z</time>
      </trkpt>
      <trkpt lat="42.4411450" lon="-5.2573340">
        <ele>869.0</ele>
        <time>2020-04-07T17:50:52Z</time>
      </trkpt>
      <trkpt lat="42.4412780" lon="-5.2575270">
        <ele>869.0</ele>
        <time>2020-04-07T17:50:54Z</time>
      </trkpt>
      <trkpt lat="42.4413650" lon="-5.2576540">
        <ele>869.0</ele>
        <time>2020-04-07T17:50:56Z</time>
      </trkpt>
      <trkpt lat="42.4414520" lon="-5.2577800">
        <ele>869.0</ele>
        <time>2020-04-07T17:50:58Z</time>
      </trkpt>
      <trkpt lat="42.4415400" lon="-5.2579070">
        <ele>869.0</ele>
        <time>2020-04-07T17:51:00Z</time>
      </trkpt>
      <trkpt lat="42.4416270" lon="-5.2580330">
        <ele>869.0</ele>
        <time>2020-04-07T17:51:02Z</time>
      </trkpt>
      <trkpt lat="42.4418700" lon="-5.2583870">
        <ele>869.0</ele>
        <time>2020-04-07T17:51:04Z</time>
      </trkpt>
      <trkpt lat="42.4419570" lon="-5.2585130">
        <ele>869.2</ele>
        <time>2020-04-07T17:51:06Z</time>
      </trkpt>
      <trkpt lat="42.4420450" lon="-5.2586400">
        <ele>869.2</ele>
        <time>2020-04-07T17:51:08Z</time>
      </trkpt>
      <trkpt lat="42.4421320" lon="-5.2587670">
        <ele>869.2</ele>
        <time>2020-04-07T17:51:10Z</time>
      </trkpt>
      <trkpt lat="42.4422200" lon="-5.2588940">
        <ele>869.2</ele>
        <time>2020-04-07T17:51:12Z</time>
      </trkpt>
      <trkpt lat="42.4424650" lon="-5.2592480">
        <ele>869.2</ele>
        <time>2020-04-07T17:51:14Z</time>
      </trkpt>
      <trkpt lat="42.4425550" lon="-5.2593760">
        <ele>869.0</ele>
        <time>2020-04-07T17:51:16Z</time>
      </trkpt>
      <trkpt lat="42.4426470" lon="-5.2595060">
        <ele>868.8</ele>
        <time>2020-04-07T17:51:18Z</time>
      </trkpt>
      <trkpt lat="42.4427390" lon="-5.2596370">
        <ele>868.8</ele>
        <time>2020-04-07T17:51:20Z</time>
      </trkpt>
      <trkpt lat="42.4428330" lon="-5.2597700">
        <ele>868.6</ele>
        <time>2020-04-07T17:51:22Z</time>
      </trkpt>
      <trkpt lat="42.4430830" lon="-5.2601260">
        <ele>868.2</ele>
        <time>2020-04-07T17:51:24Z</time>
      </trkpt>
      <trkpt lat="42.4431770" lon="-5.2602580">
        <ele>868.2</ele>
        <time>2020-04-07T17:51:26Z</time>
      </trkpt>
      <trkpt lat="42.4433190" lon="-5.2604620">
        <ele>868.0</ele>
        <time>2020-04-07T17:51:28Z</time>
      </trkpt>
      <trkpt lat="42.4434120" lon="-5.2605960">
        <ele>867.8</ele>
        <time>2020-04-07T17:51:30Z</time>
      </trkpt>
      <trkpt lat="42.4435040" lon="-5.2607280">
        <ele>867.6</ele>
        <time>2020-04-07T17:51:32Z</time>
      </trkpt>
      <trkpt lat="42.4437050" lon="-5.2610190">
        <ele>867.2</ele>
        <time>2020-04-07T17:51:34Z</time>
      </trkpt>
      <trkpt lat="42.4438020" lon="-5.2611580">
        <ele>866.8</ele>
        <time>2020-04-07T17:51:36Z</time>
      </trkpt>
      <trkpt lat="42.4439020" lon="-5.2613020">
        <ele>866.2</ele>
        <time>2020-04-07T17:51:38Z</time>
      </trkpt>
      <trkpt lat="42.4440050" lon="-5.2614500">
        <ele>865.8</ele>
        <time>2020-04-07T17:51:40Z</time>
      </trkpt>
      <trkpt lat="42.4442660" lon="-5.2618260">
        <ele>864.6</ele>
        <time>2020-04-07T17:51:42Z</time>
      </trkpt>
      <trkpt lat="42.4443720" lon="-5.2619790">
        <ele>864.0</ele>
        <time>2020-04-07T17:51:44Z</time>
      </trkpt>
      <trkpt lat="42.4444810" lon="-5.2621360">
        <ele>863.6</ele>
        <time>2020-04-07T17:51:46Z</time>
      </trkpt>
      <trkpt lat="42.4446960" lon="-5.2624480">
        <ele>862.6</ele>
        <time>2020-04-07T17:51:48Z</time>
      </trkpt>
      <trkpt lat="42.4448570" lon="-5.2626930">
        <ele>861.8</ele>
        <time>2020-04-07T17:51:50Z</time>
      </trkpt>
      <trkpt lat="42.4449590" lon="-5.2628610">
        <ele>861.8</ele>
        <time>2020-04-07T17:51:52Z</time>
      </trkpt>
      <trkpt lat="42.4450930" lon="-5.2630860">
        <ele>862.0</ele>
        <time>2020-04-07T17:51:54Z</time>
      </trkpt>
      <trkpt lat="42.4451850" lon="-5.2632430">
        <ele>862.0</ele>
        <time>2020-04-07T17:51:56Z</time>
      </trkpt>
      <trkpt lat="42.4453720" lon="-5.2635600">
        <ele>862.2</ele>
        <time>2020-04-07T17:51:58Z</time>
      </trkpt>
      <trkpt lat="42.4454820" lon="-5.2637460">
        <ele>862.2</ele>
        <time>2020-04-07T17:52:00Z</time>
      </trkpt>
      <trkpt lat="42.4455690" lon="-5.2638950">
        <ele>861.8</ele>
        <time>2020-04-07T17:52:02Z</time>
      </trkpt>
      <trkpt lat="42.4456590" lon="-5.2640460">
        <ele>861.4</ele>
        <time>2020-04-07T17:52:04Z</time>
      </trkpt>
      <trkpt lat="42.4457500" lon="-5.2642010">
        <ele>861.2</ele>
        <time>2020-04-07T17:52:06Z</time>
      </trkpt>
      <trkpt lat="42.4459570" lon="-5.2645530">
        <ele>860.2</ele>
        <time>2020-04-07T17:52:08Z</time>
      </trkpt>
      <trkpt lat="42.4460520" lon="-5.2647130">
        <ele>859.8</ele>
        <time>2020-04-07T17:52:10Z</time>
      </trkpt>
      <trkpt lat="42.4461480" lon="-5.2648750">
        <ele>859.4</ele>
        <time>2020-04-07T17:52:12Z</time>
      </trkpt>
      <trkpt lat="42.4462440" lon="-5.2650390">
        <ele>859.0</ele>
        <time>2020-04-07T17:52:14Z</time>
      </trkpt>
      <trkpt lat="42.4464790" lon="-5.2654370">
        <ele>858.4</ele>
        <time>2020-04-07T17:52:16Z</time>
      </trkpt>
      <trkpt lat="42.4465720" lon="-5.2655940">
        <ele>858.6</ele>
        <time>2020-04-07T17:52:18Z</time>
      </trkpt>
      <trkpt lat="42.4466600" lon="-5.2657440">
        <ele>858.8</ele>
        <time>2020-04-07T17:52:20Z</time>
      </trkpt>
      <trkpt lat="42.4467450" lon="-5.2658880">
        <ele>859.0</ele>
        <time>2020-04-07T17:52:22Z</time>
      </trkpt>
      <trkpt lat="42.4469660" lon="-5.2662620">
        <ele>859.6</ele>
        <time>2020-04-07T17:52:24Z</time>
      </trkpt>
      <trkpt lat="42.4470670" lon="-5.2664330">
        <ele>859.8</ele>
        <time>2020-04-07T17:52:26Z</time>
      </trkpt>
      <trkpt lat="42.4471480" lon="-5.2665700">
        <ele>859.8</ele>
        <time>2020-04-07T17:52:28Z</time>
      </trkpt>
      <trkpt lat="42.4472290" lon="-5.2667060">
        <ele>860.0</ele>
        <time>2020-04-07T17:52:30Z</time>
      </trkpt>
      <trkpt lat="42.4473100" lon="-5.2668420">
        <ele>860.0</ele>
        <time>2020-04-07T17:52:32Z</time>
      </trkpt>
      <trkpt lat="42.4475090" lon="-5.2671760">
        <ele>860.2</ele>
        <time>2020-04-07T17:52:34Z</time>
      </trkpt>
      <trkpt lat="42.4475900" lon="-5.2673110">
        <ele>860.2</ele>
        <time>2020-04-07T17:52:36Z</time>
      </trkpt>
      <trkpt lat="42.4476700" lon="-5.2674460">
        <ele>860.4</ele>
        <time>2020-04-07T17:52:38Z</time>
      </trkpt>
      <trkpt lat="42.4477500" lon="-5.2675800">
        <ele>860.4</ele>
        <time>2020-04-07T17:52:40Z</time>
      </trkpt>
      <trkpt lat="42.4479340" lon="-5.2679010">
        <ele>860.6</ele>
        <time>2020-04-07T17:52:42Z</time>
      </trkpt>
      <trkpt lat="42.4480340" lon="-5.2681030">
        <ele>860.4</ele>
        <time>2020-04-07T17:52:44Z</time>
      </trkpt>
      <trkpt lat="42.4481270" lon="-5.2683110">
        <ele>860.4</ele>
        <time>2020-04-07T17:52:46Z</time>
      </trkpt>
      <trkpt lat="42.4481900" lon="-5.2684680">
        <ele>860.4</ele>
        <time>2020-04-07T17:52:48Z</time>
      </trkpt>
      <trkpt lat="42.4482540" lon="-5.2686270">
        <ele>860.4</ele>
        <time>2020-04-07T17:52:50Z</time>
      </trkpt>
      <trkpt lat="42.4483880" lon="-5.2689620">
        <ele>860.4</ele>
        <time>2020-04-07T17:52:52Z</time>
      </trkpt>
      <trkpt lat="42.4484600" lon="-5.2691410">
        <ele>860.2</ele>
        <time>2020-04-07T17:52:54Z</time>
      </trkpt>
      <trkpt lat="42.4485260" lon="-5.2693060">
        <ele>860.0</ele>
        <time>2020-04-07T17:52:56Z</time>
      </trkpt>
      <trkpt lat="42.4485930" lon="-5.2694730">
        <ele>860.0</ele>
        <time>2020-04-07T17:52:58Z</time>
      </trkpt>
      <trkpt lat="42.4487480" lon="-5.2698570">
        <ele>859.6</ele>
        <time>2020-04-07T17:53:00Z</time>
      </trkpt>
      <trkpt lat="42.4488160" lon="-5.2700270">
        <ele>859.4</ele>
        <time>2020-04-07T17:53:02Z</time>
      </trkpt>
      <trkpt lat="42.4488860" lon="-5.2701990">
        <ele>859.4</ele>
        <time>2020-04-07T17:53:04Z</time>
      </trkpt>
      <trkpt lat="42.4490340" lon="-5.2705660">
        <ele>859.0</ele>
        <time>2020-04-07T17:53:06Z</time>
      </trkpt>
      <trkpt lat="42.4491200" lon="-5.2707800">
        <ele>859.0</ele>
        <time>2020-04-07T17:53:08Z</time>
      </trkpt>
      <trkpt lat="42.4491910" lon="-5.2709540">
        <ele>859.0</ele>
        <time>2020-04-07T17:53:10Z</time>
      </trkpt>
      <trkpt lat="42.4492600" lon="-5.2711260">
        <ele>859.0</ele>
        <time>2020-04-07T17:53:12Z</time>
      </trkpt>
      <trkpt lat="42.4493290" lon="-5.2712950">
        <ele>859.0</ele>
        <time>2020-04-07T17:53:14Z</time>
      </trkpt>
      <trkpt lat="42.4494920" lon="-5.2716970">
        <ele>859.0</ele>
        <time>2020-04-07T17:53:16Z</time>
      </trkpt>
      <trkpt lat="42.4495600" lon="-5.2718640">
        <ele>859.0</ele>
        <time>2020-04-07T17:53:18Z</time>
      </trkpt>
      <trkpt lat="42.4496280" lon="-5.2720320">
        <ele>859.0</ele>
        <time>2020-04-07T17:53:20Z</time>
      </trkpt>
      <trkpt lat="42.4496960" lon="-5.2721980">
        <ele>859.0</ele>
        <time>2020-04-07T17:53:22Z</time>
      </trkpt>
      <trkpt lat="42.4498570" lon="-5.2725970">
        <ele>859.0</ele>
        <time>2020-04-07T17:53:24Z</time>
      </trkpt>
      <trkpt lat="42.4499230" lon="-5.2727600">
        <ele>859.0</ele>
        <time>2020-04-07T17:53:26Z</time>
      </trkpt>
      <trkpt lat="42.4499880" lon="-5.2729240">
        <ele>859.2</ele>
        <time>2020-04-07T17:53:28Z</time>
      </trkpt>
      <trkpt lat="42.4500530" lon="-5.2730870">
        <ele>859.2</ele>
        <time>2020-04-07T17:53:30Z</time>
      </trkpt>
      <trkpt lat="42.4501170" lon="-5.2732470">
        <ele>859.2</ele>
        <time>2020-04-07T17:53:32Z</time>
      </trkpt>
      <trkpt lat="42.4502920" lon="-5.2736860">
        <ele>859.4</ele>
        <time>2020-04-07T17:53:34Z</time>
      </trkpt>
      <trkpt lat="42.4503560" lon="-5.2738450">
        <ele>859.4</ele>
        <time>2020-04-07T17:53:36Z</time>
      </trkpt>
      <trkpt lat="42.4504200" lon="-5.2740050">
        <ele>859.6</ele>
        <time>2020-04-07T17:53:38Z</time>
      </trkpt>
      <trkpt lat="42.4504830" lon="-5.2741620">
        <ele>859.6</ele>
        <time>2020-04-07T17:53:40Z</time>
      </trkpt>
      <trkpt lat="42.4506570" lon="-5.2745970">
        <ele>859.8</ele>
        <time>2020-04-07T17:53:42Z</time>
      </trkpt>
      <trkpt lat="42.4507200" lon="-5.2747540">
        <ele>859.8</ele>
        <time>2020-04-07T17:53:44Z</time>
      </trkpt>
      <trkpt lat="42.4507830" lon="-5.2749120">
        <ele>859.8</ele>
        <time>2020-04-07T17:53:46Z</time>
      </trkpt>
      <trkpt lat="42.4508450" lon="-5.2750670">
        <ele>859.8</ele>
        <time>2020-04-07T17:53:48Z</time>
      </trkpt>
      <trkpt lat="42.4509070" lon="-5.2752240">
        <ele>859.8</ele>
        <time>2020-04-07T17:53:50Z</time>
      </trkpt>
      <trkpt lat="42.4510810" lon="-5.2756580">
        <ele>860.0</ele>
        <time>2020-04-07T17:53:52Z</time>
      </trkpt>
      <trkpt lat="42.4511430" lon="-5.2758130">
        <ele>860.0</ele>
        <time>2020-04-07T17:53:54Z</time>
      </trkpt>
      <trkpt lat="42.4512050" lon="-5.2759690">
        <ele>860.0</ele>
        <time>2020-04-07T17:53:56Z</time>
      </trkpt>
      <trkpt lat="42.4513320" lon="-5.2762870">
        <ele>860.2</ele>
        <time>2020-04-07T17:53:58Z</time>
      </trkpt>
      <trkpt lat="42.4513930" lon="-5.2764400">
        <ele>860.2</ele>
        <time>2020-04-07T17:54:00Z</time>
      </trkpt>
      <trkpt lat="42.4514540" lon="-5.2765910">
        <ele>860.2</ele>
        <time>2020-04-07T17:54:02Z</time>
      </trkpt>
      <trkpt lat="42.4515590" lon="-5.2768520">
        <ele>860.4</ele>
        <time>2020-04-07T17:54:04Z</time>
      </trkpt>
      <trkpt lat="42.4516190" lon="-5.2770010">
        <ele>860.4</ele>
        <time>2020-04-07T17:54:06Z</time>
      </trkpt>
      <trkpt lat="42.4516780" lon="-5.2771490">
        <ele>860.4</ele>
        <time>2020-04-07T17:54:08Z</time>
      </trkpt>
      <trkpt lat="42.4517370" lon="-5.2772970">
        <ele>860.6</ele>
        <time>2020-04-07T17:54:10Z</time>
      </trkpt>
      <trkpt lat="42.4517960" lon="-5.2774450">
        <ele>860.6</ele>
        <time>2020-04-07T17:54:12Z</time>
      </trkpt>
      <trkpt lat="42.4519670" lon="-5.2778690">
        <ele>860.6</ele>
        <time>2020-04-07T17:54:14Z</time>
      </trkpt>
      <trkpt lat="42.4520280" lon="-5.2780200">
        <ele>860.4</ele>
        <time>2020-04-07T17:54:16Z</time>
      </trkpt>
      <trkpt lat="42.4520900" lon="-5.2781770">
        <ele>860.2</ele>
        <time>2020-04-07T17:54:18Z</time>
      </trkpt>
      <trkpt lat="42.4521540" lon="-5.2783360">
        <ele>860.0</ele>
        <time>2020-04-07T17:54:20Z</time>
      </trkpt>
      <trkpt lat="42.4522190" lon="-5.2784960">
        <ele>859.8</ele>
        <time>2020-04-07T17:54:22Z</time>
      </trkpt>
      <trkpt lat="42.4523960" lon="-5.2789340">
        <ele>859.2</ele>
        <time>2020-04-07T17:54:24Z</time>
      </trkpt>
      <trkpt lat="42.4524640" lon="-5.2790960">
        <ele>859.0</ele>
        <time>2020-04-07T17:54:26Z</time>
      </trkpt>
      <trkpt lat="42.4525320" lon="-5.2792570">
        <ele>858.8</ele>
        <time>2020-04-07T17:54:28Z</time>
      </trkpt>
      <trkpt lat="42.4526010" lon="-5.2794220">
        <ele>858.6</ele>
        <time>2020-04-07T17:54:30Z</time>
      </trkpt>
      <trkpt lat="42.4526700" lon="-5.2795860">
        <ele>858.4</ele>
        <time>2020-04-07T17:54:32Z</time>
      </trkpt>
      <trkpt lat="42.4528540" lon="-5.2800250">
        <ele>857.8</ele>
        <time>2020-04-07T17:54:34Z</time>
      </trkpt>
      <trkpt lat="42.4529240" lon="-5.2801910">
        <ele>857.6</ele>
        <time>2020-04-07T17:54:36Z</time>
      </trkpt>
      <trkpt lat="42.4529940" lon="-5.2803570">
        <ele>857.2</ele>
        <time>2020-04-07T17:54:38Z</time>
      </trkpt>
      <trkpt lat="42.4530650" lon="-5.2805250">
        <ele>857.0</ele>
        <time>2020-04-07T17:54:40Z</time>
      </trkpt>
      <trkpt lat="42.4532490" lon="-5.2809650">
        <ele>856.4</ele>
        <time>2020-04-07T17:54:42Z</time>
      </trkpt>
      <trkpt lat="42.4533200" lon="-5.2811340">
        <ele>856.2</ele>
        <time>2020-04-07T17:54:44Z</time>
      </trkpt>
      <trkpt lat="42.4533920" lon="-5.2813030">
        <ele>856.0</ele>
        <time>2020-04-07T17:54:46Z</time>
      </trkpt>
      <trkpt lat="42.4534620" lon="-5.2814720">
        <ele>855.8</ele>
        <time>2020-04-07T17:54:48Z</time>
      </trkpt>
      <trkpt lat="42.4535340" lon="-5.2816420">
        <ele>855.6</ele>
        <time>2020-04-07T17:54:50Z</time>
      </trkpt>
      <trkpt lat="42.4537190" lon="-5.2820840">
        <ele>855.0</ele>
        <time>2020-04-07T17:54:52Z</time>
      </trkpt>
      <trkpt lat="42.4537860" lon="-5.2822420">
        <ele>855.0</ele>
        <time>2020-04-07T17:54:54Z</time>
      </trkpt>
      <trkpt lat="42.4538490" lon="-5.2823920">
        <ele>855.0</ele>
        <time>2020-04-07T17:54:56Z</time>
      </trkpt>
      <trkpt lat="42.4539090" lon="-5.2825370">
        <ele>855.0</ele>
        <time>2020-04-07T17:54:58Z</time>
      </trkpt>
      <trkpt lat="42.4539690" lon="-5.2826790">
        <ele>855.0</ele>
        <time>2020-04-07T17:55:00Z</time>
      </trkpt>
      <trkpt lat="42.4541420" lon="-5.2830920">
        <ele>855.0</ele>
        <time>2020-04-07T17:55:02Z</time>
      </trkpt>
      <trkpt lat="42.4542000" lon="-5.2832320">
        <ele>855.0</ele>
        <time>2020-04-07T17:55:04Z</time>
      </trkpt>
      <trkpt lat="42.4542580" lon="-5.2833710">
        <ele>855.0</ele>
        <time>2020-04-07T17:55:06Z</time>
      </trkpt>
      <trkpt lat="42.4543160" lon="-5.2835090">
        <ele>855.0</ele>
        <time>2020-04-07T17:55:08Z</time>
      </trkpt>
      <trkpt lat="42.4543740" lon="-5.2836460">
        <ele>855.0</ele>
        <time>2020-04-07T17:55:10Z</time>
      </trkpt>
      <trkpt lat="42.4545460" lon="-5.2840580">
        <ele>855.0</ele>
        <time>2020-04-07T17:55:12Z</time>
      </trkpt>
      <trkpt lat="42.4546030" lon="-5.2841950">
        <ele>855.0</ele>
        <time>2020-04-07T17:55:14Z</time>
      </trkpt>
      <trkpt lat="42.4546600" lon="-5.2843310">
        <ele>855.2</ele>
        <time>2020-04-07T17:55:16Z</time>
      </trkpt>
      <trkpt lat="42.4547160" lon="-5.2844650">
        <ele>855.2</ele>
        <time>2020-04-07T17:55:18Z</time>
      </trkpt>
      <trkpt lat="42.4547720" lon="-5.2845970">
        <ele>855.2</ele>
        <time>2020-04-07T17:55:20Z</time>
      </trkpt>
      <trkpt lat="42.4548260" lon="-5.2847280">
        <ele>855.4</ele>
        <time>2020-04-07T17:55:22Z</time>
      </trkpt>
      <trkpt lat="42.4549950" lon="-5.2851300">
        <ele>855.6</ele>
        <time>2020-04-07T17:55:24Z</time>
      </trkpt>
      <trkpt lat="42.4550480" lon="-5.2852580">
        <ele>855.6</ele>
        <time>2020-04-07T17:55:26Z</time>
      </trkpt>
      <trkpt lat="42.4551020" lon="-5.2853850">
        <ele>855.8</ele>
        <time>2020-04-07T17:55:28Z</time>
      </trkpt>
      <trkpt lat="42.4551540" lon="-5.2855110">
        <ele>855.8</ele>
        <time>2020-04-07T17:55:30Z</time>
      </trkpt>
      <trkpt lat="42.4552820" lon="-5.2858140">
        <ele>856.0</ele>
        <time>2020-04-07T17:55:32Z</time>
      </trkpt>
      <trkpt lat="42.4553340" lon="-5.2859390">
        <ele>856.0</ele>
        <time>2020-04-07T17:55:34Z</time>
      </trkpt>
      <trkpt lat="42.4554270" lon="-5.2861580">
        <ele>856.2</ele>
        <time>2020-04-07T17:55:36Z</time>
      </trkpt>
      <trkpt lat="42.4554800" lon="-5.2862830">
        <ele>856.2</ele>
        <time>2020-04-07T17:55:38Z</time>
      </trkpt>
      <trkpt lat="42.4555330" lon="-5.2864090">
        <ele>856.2</ele>
        <time>2020-04-07T17:55:40Z</time>
      </trkpt>
      <trkpt lat="42.4555870" lon="-5.2865360">
        <ele>856.2</ele>
        <time>2020-04-07T17:55:42Z</time>
      </trkpt>
      <trkpt lat="42.4556410" lon="-5.2866640">
        <ele>856.2</ele>
        <time>2020-04-07T17:55:44Z</time>
      </trkpt>
      <trkpt lat="42.4556950" lon="-5.2867930">
        <ele>856.2</ele>
        <time>2020-04-07T17:55:46Z</time>
      </trkpt>
      <trkpt lat="42.4558650" lon="-5.2871940">
        <ele>856.4</ele>
        <time>2020-04-07T17:55:48Z</time>
      </trkpt>
      <trkpt lat="42.4559200" lon="-5.2873250">
        <ele>856.4</ele>
        <time>2020-04-07T17:55:50Z</time>
      </trkpt>
      <trkpt lat="42.4559750" lon="-5.2874540">
        <ele>856.4</ele>
        <time>2020-04-07T17:55:52Z</time>
      </trkpt>
      <trkpt lat="42.4560310" lon="-5.2875870">
        <ele>856.4</ele>
        <time>2020-04-07T17:55:54Z</time>
      </trkpt>
      <trkpt lat="42.4560870" lon="-5.2877190">
        <ele>856.4</ele>
        <time>2020-04-07T17:55:56Z</time>
      </trkpt>
      <trkpt lat="42.4561430" lon="-5.2878530">
        <ele>856.4</ele>
        <time>2020-04-07T17:55:58Z</time>
      </trkpt>
      <trkpt lat="42.4563160" lon="-5.2882630">
        <ele>856.4</ele>
        <time>2020-04-07T17:56:00Z</time>
      </trkpt>
      <trkpt lat="42.4563740" lon="-5.2884040">
        <ele>856.4</ele>
        <time>2020-04-07T17:56:02Z</time>
      </trkpt>
      <trkpt lat="42.4564330" lon="-5.2885480">
        <ele>856.2</ele>
        <time>2020-04-07T17:56:04Z</time>
      </trkpt>
      <trkpt lat="42.4564950" lon="-5.2886960">
        <ele>856.2</ele>
        <time>2020-04-07T17:56:06Z</time>
      </trkpt>
      <trkpt lat="42.4565570" lon="-5.2888480">
        <ele>856.2</ele>
        <time>2020-04-07T17:56:08Z</time>
      </trkpt>
      <trkpt lat="42.4567190" lon="-5.2892390">
        <ele>856.0</ele>
        <time>2020-04-07T17:56:10Z</time>
      </trkpt>
      <trkpt lat="42.4567820" lon="-5.2893940">
        <ele>856.0</ele>
        <time>2020-04-07T17:56:12Z</time>
      </trkpt>
      <trkpt lat="42.4568470" lon="-5.2895520">
        <ele>855.8</ele>
        <time>2020-04-07T17:56:14Z</time>
      </trkpt>
      <trkpt lat="42.4569130" lon="-5.2897110">
        <ele>855.8</ele>
        <time>2020-04-07T17:56:16Z</time>
      </trkpt>
      <trkpt lat="42.4570770" lon="-5.2901080">
        <ele>855.8</ele>
        <time>2020-04-07T17:56:18Z</time>
      </trkpt>
      <trkpt lat="42.4571410" lon="-5.2902640">
        <ele>855.8</ele>
        <time>2020-04-07T17:56:20Z</time>
      </trkpt>
      <trkpt lat="42.4572040" lon="-5.2904180">
        <ele>856.0</ele>
        <time>2020-04-07T17:56:22Z</time>
      </trkpt>
      <trkpt lat="42.4572660" lon="-5.2905670">
        <ele>856.0</ele>
        <time>2020-04-07T17:56:24Z</time>
      </trkpt>
      <trkpt lat="42.4574260" lon="-5.2909540">
        <ele>856.4</ele>
        <time>2020-04-07T17:56:26Z</time>
      </trkpt>
      <trkpt lat="42.4575030" lon="-5.2911400">
        <ele>856.4</ele>
        <time>2020-04-07T17:56:28Z</time>
      </trkpt>
      <trkpt lat="42.4575640" lon="-5.2912830">
        <ele>856.6</ele>
        <time>2020-04-07T17:56:30Z</time>
      </trkpt>
      <trkpt lat="42.4576240" lon="-5.2914250">
        <ele>856.6</ele>
        <time>2020-04-07T17:56:32Z</time>
      </trkpt>
      <trkpt lat="42.4576830" lon="-5.2915660">
        <ele>856.8</ele>
        <time>2020-04-07T17:56:34Z</time>
      </trkpt>
      <trkpt lat="42.4578250" lon="-5.2919020">
        <ele>857.0</ele>
        <time>2020-04-07T17:56:36Z</time>
      </trkpt>
      <trkpt lat="42.4578850" lon="-5.2920440">
        <ele>856.8</ele>
        <time>2020-04-07T17:56:38Z</time>
      </trkpt>
      <trkpt lat="42.4579460" lon="-5.2921870">
        <ele>856.8</ele>
        <time>2020-04-07T17:56:40Z</time>
      </trkpt>
      <trkpt lat="42.4580070" lon="-5.2923310">
        <ele>856.8</ele>
        <time>2020-04-07T17:56:42Z</time>
      </trkpt>
      <trkpt lat="42.4580690" lon="-5.2924770">
        <ele>856.8</ele>
        <time>2020-04-07T17:56:44Z</time>
      </trkpt>
      <trkpt lat="42.4582310" lon="-5.2928610">
        <ele>856.6</ele>
        <time>2020-04-07T17:56:46Z</time>
      </trkpt>
      <trkpt lat="42.4582940" lon="-5.2930100">
        <ele>856.6</ele>
        <time>2020-04-07T17:56:48Z</time>
      </trkpt>
      <trkpt lat="42.4583580" lon="-5.2931590">
        <ele>856.4</ele>
        <time>2020-04-07T17:56:50Z</time>
      </trkpt>
      <trkpt lat="42.4584870" lon="-5.2934740">
        <ele>856.4</ele>
        <time>2020-04-07T17:56:52Z</time>
      </trkpt>
      <trkpt lat="42.4585720" lon="-5.2937070">
        <ele>856.2</ele>
        <time>2020-04-07T17:56:54Z</time>
      </trkpt>
      <trkpt lat="42.4586200" lon="-5.2938750">
        <ele>856.0</ele>
        <time>2020-04-07T17:56:56Z</time>
      </trkpt>
      <trkpt lat="42.4586690" lon="-5.2940460">
        <ele>855.8</ele>
        <time>2020-04-07T17:56:58Z</time>
      </trkpt>
      <trkpt lat="42.4587190" lon="-5.2942200">
        <ele>855.6</ele>
        <time>2020-04-07T17:57:00Z</time>
      </trkpt>
      <trkpt lat="42.4588460" lon="-5.2946640">
        <ele>855.0</ele>
        <time>2020-04-07T17:57:02Z</time>
      </trkpt>
      <trkpt lat="42.4588970" lon="-5.2948420">
        <ele>854.8</ele>
        <time>2020-04-07T17:57:04Z</time>
      </trkpt>
      <trkpt lat="42.4589490" lon="-5.2950250">
        <ele>854.4</ele>
        <time>2020-04-07T17:57:06Z</time>
      </trkpt>
      <trkpt lat="42.4590010" lon="-5.2952090">
        <ele>854.2</ele>
        <time>2020-04-07T17:57:08Z</time>
      </trkpt>
      <trkpt lat="42.4590540" lon="-5.2953950">
        <ele>854.0</ele>
        <time>2020-04-07T17:57:10Z</time>
      </trkpt>
      <trkpt lat="42.4591830" lon="-5.2958440">
        <ele>853.6</ele>
        <time>2020-04-07T17:57:12Z</time>
      </trkpt>
      <trkpt lat="42.4592340" lon="-5.2960240">
        <ele>853.4</ele>
        <time>2020-04-07T17:57:14Z</time>
      </trkpt>
      <trkpt lat="42.4592850" lon="-5.2962010">
        <ele>853.4</ele>
        <time>2020-04-07T17:57:16Z</time>
      </trkpt>
      <trkpt lat="42.4593340" lon="-5.2963750">
        <ele>853.4</ele>
        <time>2020-04-07T17:57:18Z</time>
      </trkpt>
      <trkpt lat="42.4594600" lon="-5.2968160">
        <ele>853.2</ele>
        <time>2020-04-07T17:57:20Z</time>
      </trkpt>
      <trkpt lat="42.4595100" lon="-5.2969890">
        <ele>853.0</ele>
        <time>2020-04-07T17:57:22Z</time>
      </trkpt>
      <trkpt lat="42.4595910" lon="-5.2972740">
        <ele>853.4</ele>
        <time>2020-04-07T17:57:24Z</time>
      </trkpt>
      <trkpt lat="42.4596370" lon="-5.2974330">
        <ele>853.8</ele>
        <time>2020-04-07T17:57:26Z</time>
      </trkpt>
      <trkpt lat="42.4597230" lon="-5.2977330">
        <ele>854.6</ele>
        <time>2020-04-07T17:57:28Z</time>
      </trkpt>
      <trkpt lat="42.4597640" lon="-5.2978740">
        <ele>855.0</ele>
        <time>2020-04-07T17:57:30Z</time>
      </trkpt>
      <trkpt lat="42.4598030" lon="-5.2980100">
        <ele>855.2</ele>
        <time>2020-04-07T17:57:32Z</time>
      </trkpt>
      <trkpt lat="42.4598400" lon="-5.2981390">
        <ele>855.6</ele>
        <time>2020-04-07T17:57:34Z</time>
      </trkpt>
      <trkpt lat="42.4598760" lon="-5.2982630">
        <ele>856.0</ele>
        <time>2020-04-07T17:57:36Z</time>
      </trkpt>
      <trkpt lat="42.4599100" lon="-5.2983830">
        <ele>856.2</ele>
        <time>2020-04-07T17:57:38Z</time>
      </trkpt>
      <trkpt lat="42.4600200" lon="-5.2987640">
        <ele>857.2</ele>
        <time>2020-04-07T17:57:40Z</time>
      </trkpt>
      <trkpt lat="42.4600550" lon="-5.2988850">
        <ele>857.0</ele>
        <time>2020-04-07T17:57:42Z</time>
      </trkpt>
      <trkpt lat="42.4600910" lon="-5.2990130">
        <ele>857.0</ele>
        <time>2020-04-07T17:57:44Z</time>
      </trkpt>
      <trkpt lat="42.4601300" lon="-5.2991460">
        <ele>857.0</ele>
        <time>2020-04-07T17:57:46Z</time>
      </trkpt>
      <trkpt lat="42.4601690" lon="-5.2992840">
        <ele>857.0</ele>
        <time>2020-04-07T17:57:48Z</time>
      </trkpt>
      <trkpt lat="42.4602100" lon="-5.2994260">
        <ele>856.8</ele>
        <time>2020-04-07T17:57:50Z</time>
      </trkpt>
      <trkpt lat="42.4603320" lon="-5.2998380">
        <ele>856.6</ele>
        <time>2020-04-07T17:57:52Z</time>
      </trkpt>
      <trkpt lat="42.4603790" lon="-5.2999850">
        <ele>856.6</ele>
        <time>2020-04-07T17:57:54Z</time>
      </trkpt>
      <trkpt lat="42.4604270" lon="-5.3001360">
        <ele>856.6</ele>
        <time>2020-04-07T17:57:56Z</time>
      </trkpt>
      <trkpt lat="42.4604760" lon="-5.3002870">
        <ele>856.4</ele>
        <time>2020-04-07T17:57:58Z</time>
      </trkpt>
      <trkpt lat="42.4605260" lon="-5.3004420">
        <ele>856.4</ele>
        <time>2020-04-07T17:58:00Z</time>
      </trkpt>
      <trkpt lat="42.4606650" lon="-5.3008750">
        <ele>856.2</ele>
        <time>2020-04-07T17:58:02Z</time>
      </trkpt>
      <trkpt lat="42.4607150" lon="-5.3010300">
        <ele>856.4</ele>
        <time>2020-04-07T17:58:04Z</time>
      </trkpt>
      <trkpt lat="42.4607640" lon="-5.3011830">
        <ele>856.4</ele>
        <time>2020-04-07T17:58:06Z</time>
      </trkpt>
      <trkpt lat="42.4608130" lon="-5.3013350">
        <ele>856.6</ele>
        <time>2020-04-07T17:58:08Z</time>
      </trkpt>
      <trkpt lat="42.4608610" lon="-5.3014860">
        <ele>856.6</ele>
        <time>2020-04-07T17:58:10Z</time>
      </trkpt>
      <trkpt lat="42.4609990" lon="-5.3019130">
        <ele>856.8</ele>
        <time>2020-04-07T17:58:12Z</time>
      </trkpt>
      <trkpt lat="42.4610470" lon="-5.3020630">
        <ele>856.8</ele>
        <time>2020-04-07T17:58:14Z</time>
      </trkpt>
      <trkpt lat="42.4610940" lon="-5.3022110">
        <ele>857.0</ele>
        <time>2020-04-07T17:58:16Z</time>
      </trkpt>
      <trkpt lat="42.4611420" lon="-5.3023580">
        <ele>857.0</ele>
        <time>2020-04-07T17:58:18Z</time>
      </trkpt>
      <trkpt lat="42.4611890" lon="-5.3025060">
        <ele>857.2</ele>
        <time>2020-04-07T17:58:20Z</time>
      </trkpt>
      <trkpt lat="42.4613250" lon="-5.3029290">
        <ele>857.4</ele>
        <time>2020-04-07T17:58:22Z</time>
      </trkpt>
      <trkpt lat="42.4613720" lon="-5.3030780">
        <ele>857.2</ele>
        <time>2020-04-07T17:58:24Z</time>
      </trkpt>
      <trkpt lat="42.4614220" lon="-5.3032300">
        <ele>857.0</ele>
        <time>2020-04-07T17:58:26Z</time>
      </trkpt>
      <trkpt lat="42.4614720" lon="-5.3033860">
        <ele>857.0</ele>
        <time>2020-04-07T17:58:28Z</time>
      </trkpt>
      <trkpt lat="42.4615230" lon="-5.3035450">
        <ele>856.8</ele>
        <time>2020-04-07T17:58:30Z</time>
      </trkpt>
      <trkpt lat="42.4616640" lon="-5.3039850">
        <ele>856.4</ele>
        <time>2020-04-07T17:58:32Z</time>
      </trkpt>
      <trkpt lat="42.4617170" lon="-5.3041500">
        <ele>856.2</ele>
        <time>2020-04-07T17:58:34Z</time>
      </trkpt>
      <trkpt lat="42.4617710" lon="-5.3043180">
        <ele>856.2</ele>
        <time>2020-04-07T17:58:36Z</time>
      </trkpt>
      <trkpt lat="42.4618260" lon="-5.3044880">
        <ele>856.0</ele>
        <time>2020-04-07T17:58:38Z</time>
      </trkpt>
      <trkpt lat="42.4619540" lon="-5.3048900">
        <ele>855.6</ele>
        <time>2020-04-07T17:58:40Z</time>
      </trkpt>
      <trkpt lat="42.4620240" lon="-5.3051140">
        <ele>855.2</ele>
        <time>2020-04-07T17:58:42Z</time>
      </trkpt>
      <trkpt lat="42.4620810" lon="-5.3052940">
        <ele>855.0</ele>
        <time>2020-04-07T17:58:44Z</time>
      </trkpt>
      <trkpt lat="42.4621380" lon="-5.3054780">
        <ele>854.6</ele>
        <time>2020-04-07T17:58:46Z</time>
      </trkpt>
      <trkpt lat="42.4621960" lon="-5.3056630">
        <ele>854.4</ele>
        <time>2020-04-07T17:58:48Z</time>
      </trkpt>
      <trkpt lat="42.4623420" lon="-5.3061310">
        <ele>853.6</ele>
        <time>2020-04-07T17:58:50Z</time>
      </trkpt>
      <trkpt lat="42.4624020" lon="-5.3063190">
        <ele>853.6</ele>
        <time>2020-04-07T17:58:52Z</time>
      </trkpt>
      <trkpt lat="42.4624610" lon="-5.3065060">
        <ele>853.4</ele>
        <time>2020-04-07T17:58:54Z</time>
      </trkpt>
      <trkpt lat="42.4625190" lon="-5.3066910">
        <ele>853.2</ele>
        <time>2020-04-07T17:58:56Z</time>
      </trkpt>
      <trkpt lat="42.4626600" lon="-5.3071370">
        <ele>853.0</ele>
        <time>2020-04-07T17:58:58Z</time>
      </trkpt>
      <trkpt lat="42.4627180" lon="-5.3073210">
        <ele>852.8</ele>
        <time>2020-04-07T17:59:00Z</time>
      </trkpt>
      <trkpt lat="42.4627760" lon="-5.3075060">
        <ele>852.6</ele>
        <time>2020-04-07T17:59:02Z</time>
      </trkpt>
      <trkpt lat="42.4628340" lon="-5.3076880">
        <ele>852.6</ele>
        <time>2020-04-07T17:59:04Z</time>
      </trkpt>
      <trkpt lat="42.4629740" lon="-5.3081330">
        <ele>852.2</ele>
        <time>2020-04-07T17:59:06Z</time>
      </trkpt>
      <trkpt lat="42.4630330" lon="-5.3083190">
        <ele>852.0</ele>
        <time>2020-04-07T17:59:08Z</time>
      </trkpt>
      <trkpt lat="42.4630920" lon="-5.3085070">
        <ele>851.6</ele>
        <time>2020-04-07T17:59:10Z</time>
      </trkpt>
      <trkpt lat="42.4631520" lon="-5.3086950">
        <ele>851.4</ele>
        <time>2020-04-07T17:59:12Z</time>
      </trkpt>
      <trkpt lat="42.4632940" lon="-5.3091450">
        <ele>850.8</ele>
        <time>2020-04-07T17:59:14Z</time>
      </trkpt>
      <trkpt lat="42.4633540" lon="-5.3093350">
        <ele>850.6</ele>
        <time>2020-04-07T17:59:16Z</time>
      </trkpt>
      <trkpt lat="42.4634130" lon="-5.3095230">
        <ele>850.2</ele>
        <time>2020-04-07T17:59:18Z</time>
      </trkpt>
      <trkpt lat="42.4635270" lon="-5.3098790">
        <ele>849.8</ele>
        <time>2020-04-07T17:59:20Z</time>
      </trkpt>
      <trkpt lat="42.4636230" lon="-5.3101770">
        <ele>849.4</ele>
        <time>2020-04-07T17:59:22Z</time>
      </trkpt>
      <trkpt lat="42.4636790" lon="-5.3103580">
        <ele>849.4</ele>
        <time>2020-04-07T17:59:24Z</time>
      </trkpt>
      <trkpt lat="42.4637330" lon="-5.3105350">
        <ele>849.2</ele>
        <time>2020-04-07T17:59:26Z</time>
      </trkpt>
      <trkpt lat="42.4637860" lon="-5.3107060">
        <ele>849.2</ele>
        <time>2020-04-07T17:59:28Z</time>
      </trkpt>
      <trkpt lat="42.4639050" lon="-5.3111190">
        <ele>849.0</ele>
        <time>2020-04-07T17:59:30Z</time>
      </trkpt>
      <trkpt lat="42.4639390" lon="-5.3112930">
        <ele>848.8</ele>
        <time>2020-04-07T17:59:32Z</time>
      </trkpt>
      <trkpt lat="42.4639720" lon="-5.3114630">
        <ele>848.8</ele>
        <time>2020-04-07T17:59:34Z</time>
      </trkpt>
      <trkpt lat="42.4640050" lon="-5.3116340">
        <ele>848.6</ele>
        <time>2020-04-07T17:59:36Z</time>
      </trkpt>
      <trkpt lat="42.4640780" lon="-5.3120150">
        <ele>848.2</ele>
        <time>2020-04-07T17:59:38Z</time>
      </trkpt>
      <trkpt lat="42.4641260" lon="-5.3122590">
        <ele>847.8</ele>
        <time>2020-04-07T17:59:40Z</time>
      </trkpt>
      <trkpt lat="42.4641800" lon="-5.3125380">
        <ele>847.2</ele>
        <time>2020-04-07T17:59:42Z</time>
      </trkpt>
      <trkpt lat="42.4642330" lon="-5.3128150">
        <ele>846.6</ele>
        <time>2020-04-07T17:59:44Z</time>
      </trkpt>
      <trkpt lat="42.4642700" lon="-5.3130080">
        <ele>846.2</ele>
        <time>2020-04-07T17:59:46Z</time>
      </trkpt>
      <trkpt lat="42.4643240" lon="-5.3132830">
        <ele>845.8</ele>
        <time>2020-04-07T17:59:48Z</time>
      </trkpt>
      <trkpt lat="42.4643580" lon="-5.3134640">
        <ele>845.8</ele>
        <time>2020-04-07T17:59:50Z</time>
      </trkpt>
      <trkpt lat="42.4643920" lon="-5.3136390">
        <ele>845.8</ele>
        <time>2020-04-07T17:59:52Z</time>
      </trkpt>
      <trkpt lat="42.4644250" lon="-5.3138110">
        <ele>845.6</ele>
        <time>2020-04-07T17:59:54Z</time>
      </trkpt>
      <trkpt lat="42.4645110" lon="-5.3142550">
        <ele>845.6</ele>
        <time>2020-04-07T17:59:56Z</time>
      </trkpt>
      <trkpt lat="42.4645440" lon="-5.3144250">
        <ele>845.4</ele>
        <time>2020-04-07T17:59:58Z</time>
      </trkpt>
      <trkpt lat="42.4645760" lon="-5.3145920">
        <ele>845.4</ele>
        <time>2020-04-07T18:00:00Z</time>
      </trkpt>
      <trkpt lat="42.4646080" lon="-5.3147590">
        <ele>845.4</ele>
        <time>2020-04-07T18:00:02Z</time>
      </trkpt>
      <trkpt lat="42.4646400" lon="-5.3149260">
        <ele>845.2</ele>
        <time>2020-04-07T18:00:04Z</time>
      </trkpt>
      <trkpt lat="42.4647240" lon="-5.3153630">
        <ele>845.2</ele>
        <time>2020-04-07T18:00:06Z</time>
      </trkpt>
      <trkpt lat="42.4647560" lon="-5.3155280">
        <ele>845.2</ele>
        <time>2020-04-07T18:00:08Z</time>
      </trkpt>
      <trkpt lat="42.4647880" lon="-5.3156910">
        <ele>845.2</ele>
        <time>2020-04-07T18:00:10Z</time>
      </trkpt>
      <trkpt lat="42.4648190" lon="-5.3158520">
        <ele>845.2</ele>
        <time>2020-04-07T18:00:12Z</time>
      </trkpt>
      <trkpt lat="42.4649030" lon="-5.3162850">
        <ele>845.2</ele>
        <time>2020-04-07T18:00:14Z</time>
      </trkpt>
      <trkpt lat="42.4649340" lon="-5.3164460">
        <ele>845.2</ele>
        <time>2020-04-07T18:00:16Z</time>
      </trkpt>
      <trkpt lat="42.4649650" lon="-5.3166050">
        <ele>845.2</ele>
        <time>2020-04-07T18:00:18Z</time>
      </trkpt>
      <trkpt lat="42.4649950" lon="-5.3167650">
        <ele>845.2</ele>
        <time>2020-04-07T18:00:20Z</time>
      </trkpt>
      <trkpt lat="42.4650260" lon="-5.3169230">
        <ele>845.2</ele>
        <time>2020-04-07T18:00:22Z</time>
      </trkpt>
      <trkpt lat="42.4651090" lon="-5.3173530">
        <ele>845.2</ele>
        <time>2020-04-07T18:00:24Z</time>
      </trkpt>
      <trkpt lat="42.4651390" lon="-5.3175090">
        <ele>845.4</ele>
        <time>2020-04-07T18:00:26Z</time>
      </trkpt>
      <trkpt lat="42.4651680" lon="-5.3176610">
        <ele>845.4</ele>
        <time>2020-04-07T18:00:28Z</time>
      </trkpt>
      <trkpt lat="42.4651970" lon="-5.3178120">
        <ele>845.4</ele>
        <time>2020-04-07T18:00:30Z</time>
      </trkpt>
      <trkpt lat="42.4652260" lon="-5.3179620">
        <ele>845.6</ele>
        <time>2020-04-07T18:00:32Z</time>
      </trkpt>
      <trkpt lat="42.4653030" lon="-5.3183830">
        <ele>845.8</ele>
        <time>2020-04-07T18:00:34Z</time>
      </trkpt>
      <trkpt lat="42.4653200" lon="-5.3185820">
        <ele>845.8</ele>
        <time>2020-04-07T18:00:36Z</time>
      </trkpt>
      <trkpt lat="42.4653230" lon="-5.3187750">
        <ele>846.0</ele>
        <time>2020-04-07T18:00:38Z</time>
      </trkpt>
      <trkpt lat="42.4653170" lon="-5.3190020">
        <ele>846.0</ele>
        <time>2020-04-07T18:00:40Z</time>
      </trkpt>
      <trkpt lat="42.4653030" lon="-5.3191520">
        <ele>846.0</ele>
        <time>2020-04-07T18:00:42Z</time>
      </trkpt>
      <trkpt lat="42.4652890" lon="-5.3193070">
        <ele>845.8</ele>
        <time>2020-04-07T18:00:44Z</time>
      </trkpt>
      <trkpt lat="42.4652740" lon="-5.3194650">
        <ele>845.6</ele>
        <time>2020-04-07T18:00:46Z</time>
      </trkpt>
      <trkpt lat="42.4652590" lon="-5.3196250">
        <ele>845.6</ele>
        <time>2020-04-07T18:00:48Z</time>
      </trkpt>
      <trkpt lat="42.4652200" lon="-5.3200360">
        <ele>845.2</ele>
        <time>2020-04-07T18:00:50Z</time>
      </trkpt>
      <trkpt lat="42.4652040" lon="-5.3202010">
        <ele>845.0</ele>
        <time>2020-04-07T18:00:52Z</time>
      </trkpt>
      <trkpt lat="42.4651880" lon="-5.3203700">
        <ele>845.0</ele>
        <time>2020-04-07T18:00:54Z</time>
      </trkpt>
      <trkpt lat="42.4651720" lon="-5.3205390">
        <ele>844.8</ele>
        <time>2020-04-07T18:00:56Z</time>
      </trkpt>
      <trkpt lat="42.4651290" lon="-5.3209920">
        <ele>844.4</ele>
        <time>2020-04-07T18:00:58Z</time>
      </trkpt>
      <trkpt lat="42.4651130" lon="-5.3211630">
        <ele>844.4</ele>
        <time>2020-04-07T18:01:00Z</time>
      </trkpt>
      <trkpt lat="42.4650970" lon="-5.3213300">
        <ele>844.4</ele>
        <time>2020-04-07T18:01:02Z</time>
      </trkpt>
      <trkpt lat="42.4650810" lon="-5.3214980">
        <ele>844.4</ele>
        <time>2020-04-07T18:01:04Z</time>
      </trkpt>
      <trkpt lat="42.4650650" lon="-5.3216620">
        <ele>844.4</ele>
        <time>2020-04-07T18:01:06Z</time>
      </trkpt>
      <trkpt lat="42.4650230" lon="-5.3221070">
        <ele>844.4</ele>
        <time>2020-04-07T18:01:08Z</time>
      </trkpt>
      <trkpt lat="42.4650080" lon="-5.3222710">
        <ele>844.2</ele>
        <time>2020-04-07T18:01:10Z</time>
      </trkpt>
      <trkpt lat="42.4649810" lon="-5.3225390">
        <ele>844.2</ele>
        <time>2020-04-07T18:01:12Z</time>
      </trkpt>
      <trkpt lat="42.4649580" lon="-5.3227550">
        <ele>844.4</ele>
        <time>2020-04-07T18:01:14Z</time>
      </trkpt>
      <trkpt lat="42.4649420" lon="-5.3229170">
        <ele>844.4</ele>
        <time>2020-04-07T18:01:16Z</time>
      </trkpt>
      <trkpt lat="42.4649140" lon="-5.3231990">
        <ele>844.8</ele>
        <time>2020-04-07T18:01:18Z</time>
      </trkpt>
      <trkpt lat="42.4648990" lon="-5.3233530">
        <ele>844.8</ele>
        <time>2020-04-07T18:01:20Z</time>
      </trkpt>
      <trkpt lat="42.4648840" lon="-5.3235050">
        <ele>845.0</ele>
        <time>2020-04-07T18:01:22Z</time>
      </trkpt>
      <trkpt lat="42.4648690" lon="-5.3236560">
        <ele>845.2</ele>
        <time>2020-04-07T18:01:24Z</time>
      </trkpt>
      <trkpt lat="42.4648550" lon="-5.3238040">
        <ele>845.4</ele>
        <time>2020-04-07T18:01:26Z</time>
      </trkpt>
      <trkpt lat="42.4648130" lon="-5.3242320">
        <ele>845.6</ele>
        <time>2020-04-07T18:01:28Z</time>
      </trkpt>
      <trkpt lat="42.4647990" lon="-5.3243800">
        <ele>845.6</ele>
        <time>2020-04-07T18:01:30Z</time>
      </trkpt>
      <trkpt lat="42.4647840" lon="-5.3245280">
        <ele>845.6</ele>
        <time>2020-04-07T18:01:32Z</time>
      </trkpt>
      <trkpt lat="42.4647700" lon="-5.3246810">
        <ele>845.6</ele>
        <time>2020-04-07T18:01:34Z</time>
      </trkpt>
      <trkpt lat="42.4647540" lon="-5.3248360">
        <ele>845.6</ele>
        <time>2020-04-07T18:01:36Z</time>
      </trkpt>
      <trkpt lat="42.4647120" lon="-5.3252740">
        <ele>845.4</ele>
        <time>2020-04-07T18:01:38Z</time>
      </trkpt>
      <trkpt lat="42.4646960" lon="-5.3254320">
        <ele>845.4</ele>
        <time>2020-04-07T18:01:40Z</time>
      </trkpt>
      <trkpt lat="42.4646810" lon="-5.3255920">
        <ele>845.4</ele>
        <time>2020-04-07T18:01:42Z</time>
      </trkpt>
      <trkpt lat="42.4646650" lon="-5.3257520">
        <ele>845.4</ele>
        <time>2020-04-07T18:01:44Z</time>
      </trkpt>
      <trkpt lat="42.4646490" lon="-5.3259140">
        <ele>845.4</ele>
        <time>2020-04-07T18:01:46Z</time>
      </trkpt>
      <trkpt lat="42.4646060" lon="-5.3263580">
        <ele>845.2</ele>
        <time>2020-04-07T18:01:48Z</time>
      </trkpt>
      <trkpt lat="42.4645900" lon="-5.3265210">
        <ele>845.2</ele>
        <time>2020-04-07T18:01:50Z</time>
      </trkpt>
      <trkpt lat="42.4645740" lon="-5.3266850">
        <ele>845.2</ele>
        <time>2020-04-07T18:01:52Z</time>
      </trkpt>
      <trkpt lat="42.4645580" lon="-5.3268500">
        <ele>845.2</ele>
        <time>2020-04-07T18:01:54Z</time>
      </trkpt>
      <trkpt lat="42.4645420" lon="-5.3270160">
        <ele>845.2</ele>
        <time>2020-04-07T18:01:56Z</time>
      </trkpt>
      <trkpt lat="42.4645010" lon="-5.3274640">
        <ele>845.2</ele>
        <time>2020-04-07T18:01:58Z</time>
      </trkpt>
      <trkpt lat="42.4644890" lon="-5.3277000">
        <ele>845.0</ele>
        <time>2020-04-07T18:02:00Z</time>
      </trkpt>
      <trkpt lat="42.4644990" lon="-5.3279230">
        <ele>845.0</ele>
        <time>2020-04-07T18:02:02Z</time>
      </trkpt>
      <trkpt lat="42.4645430" lon="-5.3281200">
        <ele>845.2</ele>
        <time>2020-04-07T18:02:04Z</time>
      </trkpt>
      <trkpt lat="42.4646120" lon="-5.3283200">
        <ele>845.2</ele>
        <time>2020-04-07T18:02:06Z</time>
      </trkpt>
      <trkpt lat="42.4647230" lon="-5.3285310">
        <ele>845.2</ele>
        <time>2020-04-07T18:02:08Z</time>
      </trkpt>
      <trkpt lat="42.4648410" lon="-5.3286780">
        <ele>845.4</ele>
        <time>2020-04-07T18:02:10Z</time>
      </trkpt>
      <trkpt lat="42.4649670" lon="-5.3287810">
        <ele>845.4</ele>
        <time>2020-04-07T18:02:12Z</time>
      </trkpt>
      <trkpt lat="42.4651090" lon="-5.3288530">
        <ele>845.2</ele>
        <time>2020-04-07T18:02:14Z</time>
      </trkpt>
      <trkpt lat="42.4652280" lon="-5.3289000">
        <ele>845.2</ele>
        <time>2020-04-07T18:02:16Z</time>
      </trkpt>
      <trkpt lat="42.4654310" lon="-5.3289710">
        <ele>844.8</ele>
        <time>2020-04-07T18:02:18Z</time>
      </trkpt>
      <trkpt lat="42.4656200" lon="-5.3290330">
        <ele>844.6</ele>
        <time>2020-04-07T18:02:20Z</time>
      </trkpt>
      <trkpt lat="42.4657460" lon="-5.3290810">
        <ele>844.4</ele>
        <time>2020-04-07T18:02:22Z</time>
      </trkpt>
      <trkpt lat="42.4659540" lon="-5.3291570">
        <ele>844.2</ele>
        <time>2020-04-07T18:02:24Z</time>
      </trkpt>
      <trkpt lat="42.4661470" lon="-5.3292250">
        <ele>843.8</ele>
        <time>2020-04-07T18:02:26Z</time>
      </trkpt>
      <trkpt lat="42.4662850" lon="-5.3292730">
        <ele>843.0</ele>
        <time>2020-04-07T18:02:28Z</time>
      </trkpt>
      <trkpt lat="42.4664340" lon="-5.3293250">
        <ele>842.0</ele>
        <time>2020-04-07T18:02:30Z</time>
      </trkpt>
      <trkpt lat="42.4667470" lon="-5.3294350">
        <ele>840.0</ele>
        <time>2020-04-07T18:02:32Z</time>
      </trkpt>
      <trkpt lat="42.4669130" lon="-5.3294930">
        <ele>838.8</ele>
        <time>2020-04-07T18:02:34Z</time>
      </trkpt>
      <trkpt lat="42.4671710" lon="-5.3295840">
        <ele>837.2</ele>
        <time>2020-04-07T18:02:36Z</time>
      </trkpt>
      <trkpt lat="42.4674390" lon="-5.3297220">
        <ele>836.0</ele>
        <time>2020-04-07T18:02:38Z</time>
      </trkpt>
      <trkpt lat="42.4676500" lon="-5.3299050">
        <ele>835.2</ele>
        <time>2020-04-07T18:02:40Z</time>
      </trkpt>
      <trkpt lat="42.4678360" lon="-5.3301200">
        <ele>834.4</ele>
        <time>2020-04-07T18:02:42Z</time>
      </trkpt>
      <trkpt lat="42.4679650" lon="-5.3303680">
        <ele>833.8</ele>
        <time>2020-04-07T18:02:44Z</time>
      </trkpt>
      <trkpt lat="42.4680580" lon="-5.3306400">
        <ele>833.6</ele>
        <time>2020-04-07T18:02:46Z</time>
      </trkpt>
      <trkpt lat="42.4681180" lon="-5.3308540">
        <ele>833.6</ele>
        <time>2020-04-07T18:02:48Z</time>
      </trkpt>
      <trkpt lat="42.4682060" lon="-5.3312070">
        <ele>833.6</ele>
        <time>2020-04-07T18:02:50Z</time>
      </trkpt>
      <trkpt lat="42.4682820" lon="-5.3315260">
        <ele>833.6</ele>
        <time>2020-04-07T18:02:52Z</time>
      </trkpt>
      <trkpt lat="42.4683330" lon="-5.3317670">
        <ele>833.6</ele>
        <time>2020-04-07T18:02:54Z</time>
      </trkpt>
      <trkpt lat="42.4683610" lon="-5.3320860">
        <ele>833.4</ele>
        <time>2020-04-07T18:02:56Z</time>
      </trkpt>
      <trkpt lat="42.4683600" lon="-5.3322930">
        <ele>833.0</ele>
        <time>2020-04-07T18:02:58Z</time>
      </trkpt>
      <trkpt lat="42.4683590" lon="-5.3325010">
        <ele>832.6</ele>
        <time>2020-04-07T18:03:00Z</time>
      </trkpt>
      <trkpt lat="42.4683570" lon="-5.3329370">
        <ele>831.8</ele>
        <time>2020-04-07T18:03:02Z</time>
      </trkpt>
      <trkpt lat="42.4683560" lon="-5.3332320">
        <ele>831.2</ele>
        <time>2020-04-07T18:03:04Z</time>
      </trkpt>
      <trkpt lat="42.4683560" lon="-5.3334390">
        <ele>831.2</ele>
        <time>2020-04-07T18:03:06Z</time>
      </trkpt>
      <trkpt lat="42.4683550" lon="-5.3336380">
        <ele>831.2</ele>
        <time>2020-04-07T18:03:08Z</time>
      </trkpt>
      <trkpt lat="42.4683550" lon="-5.3338380">
        <ele>831.2</ele>
        <time>2020-04-07T18:03:10Z</time>
      </trkpt>
      <trkpt lat="42.4683550" lon="-5.3340360">
        <ele>831.2</ele>
        <time>2020-04-07T18:03:12Z</time>
      </trkpt>
      <trkpt lat="42.4683540" lon="-5.3345350">
        <ele>831.2</ele>
        <time>2020-04-07T18:03:14Z</time>
      </trkpt>
      <trkpt lat="42.4683540" lon="-5.3347310">
        <ele>831.0</ele>
        <time>2020-04-07T18:03:16Z</time>
      </trkpt>
      <trkpt lat="42.4683530" lon="-5.3349260">
        <ele>831.0</ele>
        <time>2020-04-07T18:03:18Z</time>
      </trkpt>
      <trkpt lat="42.4683530" lon="-5.3353590">
        <ele>831.0</ele>
        <time>2020-04-07T18:03:20Z</time>
      </trkpt>
      <trkpt lat="42.4683530" lon="-5.3356160">
        <ele>831.0</ele>
        <time>2020-04-07T18:03:22Z</time>
      </trkpt>
      <trkpt lat="42.4683540" lon="-5.3358080">
        <ele>831.0</ele>
        <time>2020-04-07T18:03:24Z</time>
      </trkpt>
      <trkpt lat="42.4683540" lon="-5.3359990">
        <ele>831.0</ele>
        <time>2020-04-07T18:03:26Z</time>
      </trkpt>
      <trkpt lat="42.4683550" lon="-5.3361870">
        <ele>831.2</ele>
        <time>2020-04-07T18:03:28Z</time>
      </trkpt>
      <trkpt lat="42.4683550" lon="-5.3363750">
        <ele>831.2</ele>
        <time>2020-04-07T18:03:30Z</time>
      </trkpt>
      <trkpt lat="42.4683650" lon="-5.3369240">
        <ele>831.4</ele>
        <time>2020-04-07T18:03:32Z</time>
      </trkpt>
      <trkpt lat="42.4683950" lon="-5.3371600">
        <ele>831.4</ele>
        <time>2020-04-07T18:03:34Z</time>
      </trkpt>
      <trkpt lat="42.4684410" lon="-5.3373850">
        <ele>831.4</ele>
        <time>2020-04-07T18:03:36Z</time>
      </trkpt>
      <trkpt lat="42.4685150" lon="-5.3376230">
        <ele>831.6</ele>
        <time>2020-04-07T18:03:38Z</time>
      </trkpt>
      <trkpt lat="42.4686060" lon="-5.3378580">
        <ele>831.6</ele>
        <time>2020-04-07T18:03:40Z</time>
      </trkpt>
      <trkpt lat="42.4687220" lon="-5.3380290">
        <ele>831.8</ele>
        <time>2020-04-07T18:03:42Z</time>
      </trkpt>
      <trkpt lat="42.4688290" lon="-5.3381370">
        <ele>832.0</ele>
        <time>2020-04-07T18:03:44Z</time>
      </trkpt>
      <trkpt lat="42.4689340" lon="-5.3382440">
        <ele>832.0</ele>
        <time>2020-04-07T18:03:46Z</time>
      </trkpt>
      <trkpt lat="42.4691560" lon="-5.3384710">
        <ele>832.4</ele>
        <time>2020-04-07T18:03:48Z</time>
      </trkpt>
      <trkpt lat="42.4692850" lon="-5.3386060">
        <ele>832.6</ele>
        <time>2020-04-07T18:03:50Z</time>
      </trkpt>
      <trkpt lat="42.4693810" lon="-5.3387120">
        <ele>833.0</ele>
        <time>2020-04-07T18:03:52Z</time>
      </trkpt>
      <trkpt lat="42.4694730" lon="-5.3388130">
        <ele>833.4</ele>
        <time>2020-04-07T18:03:54Z</time>
      </trkpt>
      <trkpt lat="42.4696580" lon="-5.3390180">
        <ele>834.4</ele>
        <time>2020-04-07T18:03:56Z</time>
      </trkpt>
      <trkpt lat="42.4697430" lon="-5.3391120">
        <ele>834.8</ele>
        <time>2020-04-07T18:03:58Z</time>
      </trkpt>
      <trkpt lat="42.4698240" lon="-5.3392020">
        <ele>835.0</ele>
        <time>2020-04-07T18:04:00Z</time>
      </trkpt>
      <trkpt lat="42.4699040" lon="-5.3392900">
        <ele>835.4</ele>
        <time>2020-04-07T18:04:02Z</time>
      </trkpt>
      <trkpt lat="42.4701070" lon="-5.3395160">
        <ele>836.4</ele>
        <time>2020-04-07T18:04:04Z</time>
      </trkpt>
      <trkpt lat="42.4701950" lon="-5.3396440">
        <ele>836.8</ele>
        <time>2020-04-07T18:04:06Z</time>
      </trkpt>
      <trkpt lat="42.4702730" lon="-5.3397740">
        <ele>837.6</ele>
        <time>2020-04-07T18:04:08Z</time>
      </trkpt>
      <trkpt lat="42.4703340" lon="-5.3399000">
        <ele>838.2</ele>
        <time>2020-04-07T18:04:10Z</time>
      </trkpt>
      <trkpt lat="42.4703760" lon="-5.3400320">
        <ele>838.8</ele>
        <time>2020-04-07T18:04:12Z</time>
      </trkpt>
      <trkpt lat="42.4704180" lon="-5.3401960">
        <ele>839.4</ele>
        <time>2020-04-07T18:04:14Z</time>
      </trkpt>
      <trkpt lat="42.4704490" lon="-5.3403420">
        <ele>840.0</ele>
        <time>2020-04-07T18:04:16Z</time>
      </trkpt>
      <trkpt lat="42.4704680" lon="-5.3404410">
        <ele>840.4</ele>
        <time>2020-04-07T18:04:18Z</time>
      </trkpt>
      <trkpt lat="42.4704990" lon="-5.3406050">
        <ele>841.2</ele>
        <time>2020-04-07T18:04:20Z</time>
      </trkpt>
      <trkpt lat="42.4705100" lon="-5.3407020">
        <ele>841.6</ele>
        <time>2020-04-07T18:04:22Z</time>
      </trkpt>
      <trkpt lat="42.4705250" lon="-5.3408590">
        <ele>842.2</ele>
        <time>2020-04-07T18:04:24Z</time>
      </trkpt>
      <trkpt lat="42.4705340" lon="-5.3409640">
        <ele>842.4</ele>
        <time>2020-04-07T18:04:26Z</time>
      </trkpt>
      <trkpt lat="42.4705440" lon="-5.3410780">
        <ele>842.6</ele>
        <time>2020-04-07T18:04:28Z</time>
      </trkpt>
      <trkpt lat="42.4705540" lon="-5.3411980">
        <ele>842.8</ele>
        <time>2020-04-07T18:04:30Z</time>
      </trkpt>
      <trkpt lat="42.4705640" lon="-5.3413210">
        <ele>843.0</ele>
        <time>2020-04-07T18:04:32Z</time>
      </trkpt>
      <trkpt lat="42.4705740" lon="-5.3414460">
        <ele>843.2</ele>
        <time>2020-04-07T18:04:34Z</time>
      </trkpt>
      <trkpt lat="42.4706040" lon="-5.3418000">
        <ele>843.8</ele>
        <time>2020-04-07T18:04:36Z</time>
      </trkpt>
      <trkpt lat="42.4706220" lon="-5.3420040">
        <ele>844.2</ele>
        <time>2020-04-07T18:04:38Z</time>
      </trkpt>
      <trkpt lat="42.4706320" lon="-5.3421350">
        <ele>844.4</ele>
        <time>2020-04-07T18:04:40Z</time>
      </trkpt>
      <trkpt lat="42.4706420" lon="-5.3422650">
        <ele>844.8</ele>
        <time>2020-04-07T18:04:42Z</time>
      </trkpt>
      <trkpt lat="42.4706520" lon="-5.3423980">
        <ele>845.0</ele>
        <time>2020-04-07T18:04:44Z</time>
      </trkpt>
      <trkpt lat="42.4706770" lon="-5.3426930">
        <ele>845.4</ele>
        <time>2020-04-07T18:04:46Z</time>
      </trkpt>
      <trkpt lat="42.4706910" lon="-5.3428340">
        <ele>845.4</ele>
        <time>2020-04-07T18:04:48Z</time>
      </trkpt>
      <trkpt lat="42.4707050" lon="-5.3429810">
        <ele>845.4</ele>
        <time>2020-04-07T18:04:50Z</time>
      </trkpt>
      <trkpt lat="42.4707320" lon="-5.3432940">
        <ele>845.4</ele>
        <time>2020-04-07T18:04:52Z</time>
      </trkpt>
      <trkpt lat="42.4707360" lon="-5.3435080">
        <ele>845.4</ele>
        <time>2020-04-07T18:04:54Z</time>
      </trkpt>
      <trkpt lat="42.4707310" lon="-5.3436690">
        <ele>845.4</ele>
        <time>2020-04-07T18:04:56Z</time>
      </trkpt>
      <trkpt lat="42.4707220" lon="-5.3439550">
        <ele>845.4</ele>
        <time>2020-04-07T18:04:58Z</time>
      </trkpt>
      <trkpt lat="42.4707150" lon="-5.3441230">
        <ele>845.4</ele>
        <time>2020-04-07T18:05:00Z</time>
      </trkpt>
      <trkpt lat="42.4707070" lon="-5.3442950">
        <ele>845.4</ele>
        <time>2020-04-07T18:05:02Z</time>
      </trkpt>
      <trkpt lat="42.4706910" lon="-5.3446400">
        <ele>845.4</ele>
        <time>2020-04-07T18:05:04Z</time>
      </trkpt>
      <trkpt lat="42.4706830" lon="-5.3448150">
        <ele>845.4</ele>
        <time>2020-04-07T18:05:06Z</time>
      </trkpt>
      <trkpt lat="42.4706750" lon="-5.3449880">
        <ele>845.4</ele>
        <time>2020-04-07T18:05:08Z</time>
      </trkpt>
      <trkpt lat="42.4706670" lon="-5.3451580">
        <ele>845.2</ele>
        <time>2020-04-07T18:05:10Z</time>
      </trkpt>
      <trkpt lat="42.4706470" lon="-5.3455640">
        <ele>845.0</ele>
        <time>2020-04-07T18:05:12Z</time>
      </trkpt>
      <trkpt lat="42.4706340" lon="-5.3457840">
        <ele>844.6</ele>
        <time>2020-04-07T18:05:14Z</time>
      </trkpt>
      <trkpt lat="42.4706250" lon="-5.3459580">
        <ele>844.4</ele>
        <time>2020-04-07T18:05:16Z</time>
      </trkpt>
      <trkpt lat="42.4706140" lon="-5.3461390">
        <ele>844.0</ele>
        <time>2020-04-07T18:05:18Z</time>
      </trkpt>
      <trkpt lat="42.4705990" lon="-5.3465090">
        <ele>843.4</ele>
        <time>2020-04-07T18:05:20Z</time>
      </trkpt>
      <trkpt lat="42.4705950" lon="-5.3468080">
        <ele>842.8</ele>
        <time>2020-04-07T18:05:22Z</time>
      </trkpt>
      <trkpt lat="42.4706150" lon="-5.3470710">
        <ele>842.4</ele>
        <time>2020-04-07T18:05:24Z</time>
      </trkpt>
      <trkpt lat="42.4706330" lon="-5.3472670">
        <ele>842.0</ele>
        <time>2020-04-07T18:05:26Z</time>
      </trkpt>
      <trkpt lat="42.4706790" lon="-5.3475930">
        <ele>841.4</ele>
        <time>2020-04-07T18:05:28Z</time>
      </trkpt>
      <trkpt lat="42.4707410" lon="-5.3478370">
        <ele>840.8</ele>
        <time>2020-04-07T18:05:30Z</time>
      </trkpt>
      <trkpt lat="42.4708390" lon="-5.3481080">
        <ele>840.2</ele>
        <time>2020-04-07T18:05:32Z</time>
      </trkpt>
      <trkpt lat="42.4709140" lon="-5.3482960">
        <ele>839.4</ele>
        <time>2020-04-07T18:05:34Z</time>
      </trkpt>
      <trkpt lat="42.4710330" lon="-5.3485960">
        <ele>838.4</ele>
        <time>2020-04-07T18:05:36Z</time>
      </trkpt>
      <trkpt lat="42.4711380" lon="-5.3488650">
        <ele>837.4</ele>
        <time>2020-04-07T18:05:38Z</time>
      </trkpt>
      <trkpt lat="42.4712160" lon="-5.3490700">
        <ele>836.8</ele>
        <time>2020-04-07T18:05:40Z</time>
      </trkpt>
      <trkpt lat="42.4713460" lon="-5.3493950">
        <ele>835.4</ele>
        <time>2020-04-07T18:05:42Z</time>
      </trkpt>
      <trkpt lat="42.4714900" lon="-5.3497470">
        <ele>834.0</ele>
        <time>2020-04-07T18:05:44Z</time>
      </trkpt>
      <trkpt lat="42.4715780" lon="-5.3499610">
        <ele>833.2</ele>
        <time>2020-04-07T18:05:46Z</time>
      </trkpt>
      <trkpt lat="42.4717210" lon="-5.3503230">
        <ele>831.8</ele>
        <time>2020-04-07T18:05:48Z</time>
      </trkpt>
      <trkpt lat="42.4718200" lon="-5.3506430">
        <ele>830.8</ele>
        <time>2020-04-07T18:05:50Z</time>
      </trkpt>
      <trkpt lat="42.4718730" lon="-5.3508800">
        <ele>830.2</ele>
        <time>2020-04-07T18:05:52Z</time>
      </trkpt>
      <trkpt lat="42.4719270" lon="-5.3511160">
        <ele>829.6</ele>
        <time>2020-04-07T18:05:54Z</time>
      </trkpt>
      <trkpt lat="42.4719810" lon="-5.3513500">
        <ele>829.0</ele>
        <time>2020-04-07T18:05:56Z</time>
      </trkpt>
      <trkpt lat="42.4721150" lon="-5.3518790">
        <ele>827.8</ele>
        <time>2020-04-07T18:05:58Z</time>
      </trkpt>
      <trkpt lat="42.4722240" lon="-5.3521470">
        <ele>827.6</ele>
        <time>2020-04-07T18:06:00Z</time>
      </trkpt>
      <trkpt lat="42.4723400" lon="-5.3523850">
        <ele>827.4</ele>
        <time>2020-04-07T18:06:02Z</time>
      </trkpt>
      <trkpt lat="42.4724720" lon="-5.3526700">
        <ele>827.0</ele>
        <time>2020-04-07T18:06:04Z</time>
      </trkpt>
      <trkpt lat="42.4724920" lon="-5.3529150">
        <ele>826.8</ele>
        <time>2020-04-07T18:06:06Z</time>
      </trkpt>
      <trkpt lat="42.4725900" lon="-5.3531470">
        <ele>826.0</ele>
        <time>2020-04-07T18:06:08Z</time>
      </trkpt>
      <trkpt lat="42.4727270" lon="-5.3533250">
        <ele>825.2</ele>
        <time>2020-04-07T18:06:10Z</time>
      </trkpt>
      <trkpt lat="42.4728980" lon="-5.3535770">
        <ele>824.2</ele>
        <time>2020-04-07T18:06:12Z</time>
      </trkpt>
      <trkpt lat="42.4730380" lon="-5.3537960">
        <ele>823.4</ele>
        <time>2020-04-07T18:06:14Z</time>
      </trkpt>
      <trkpt lat="42.4731370" lon="-5.3540440">
        <ele>822.6</ele>
        <time>2020-04-07T18:06:16Z</time>
      </trkpt>
      <trkpt lat="42.4732000" lon="-5.3542560">
        <ele>822.0</ele>
        <time>2020-04-07T18:06:18Z</time>
      </trkpt>
      <trkpt lat="42.4733280" lon="-5.3546430">
        <ele>820.6</ele>
        <time>2020-04-07T18:06:20Z</time>
      </trkpt>
      <trkpt lat="42.4734700" lon="-5.3548840">
        <ele>819.8</ele>
        <time>2020-04-07T18:06:22Z</time>
      </trkpt>
      <trkpt lat="42.4736220" lon="-5.3551170">
        <ele>818.8</ele>
        <time>2020-04-07T18:06:24Z</time>
      </trkpt>
      <trkpt lat="42.4738220" lon="-5.3553430">
        <ele>817.8</ele>
        <time>2020-04-07T18:06:26Z</time>
      </trkpt>
      <trkpt lat="42.4739560" lon="-5.3555020">
        <ele>817.0</ele>
        <time>2020-04-07T18:06:28Z</time>
      </trkpt>
      <trkpt lat="42.4741520" lon="-5.3558170">
        <ele>815.8</ele>
        <time>2020-04-07T18:06:30Z</time>
      </trkpt>
      <trkpt lat="42.4742710" lon="-5.3560640">
        <ele>815.2</ele>
        <time>2020-04-07T18:06:32Z</time>
      </trkpt>
      <trkpt lat="42.4743610" lon="-5.3562610">
        <ele>815.0</ele>
        <time>2020-04-07T18:06:34Z</time>
      </trkpt>
      <trkpt lat="42.4744450" lon="-5.3564470">
        <ele>814.8</ele>
        <time>2020-04-07T18:06:36Z</time>
      </trkpt>
      <trkpt lat="42.4745260" lon="-5.3566230">
        <ele>814.8</ele>
        <time>2020-04-07T18:06:38Z</time>
      </trkpt>
      <trkpt lat="42.4747300" lon="-5.3570490">
        <ele>814.4</ele>
        <time>2020-04-07T18:06:40Z</time>
      </trkpt>
      <trkpt lat="42.4748210" lon="-5.3571990">
        <ele>814.2</ele>
        <time>2020-04-07T18:06:42Z</time>
      </trkpt>
      <trkpt lat="42.4749840" lon="-5.3574550">
        <ele>814.0</ele>
        <time>2020-04-07T18:06:44Z</time>
      </trkpt>
      <trkpt lat="42.4750890" lon="-5.3575790">
        <ele>813.6</ele>
        <time>2020-04-07T18:06:46Z</time>
      </trkpt>
      <trkpt lat="42.4751960" lon="-5.3577060">
        <ele>813.4</ele>
        <time>2020-04-07T18:06:48Z</time>
      </trkpt>
      <trkpt lat="42.4753050" lon="-5.3578340">
        <ele>813.0</ele>
        <time>2020-04-07T18:06:50Z</time>
      </trkpt>
      <trkpt lat="42.4754150" lon="-5.3579640">
        <ele>812.8</ele>
        <time>2020-04-07T18:06:52Z</time>
      </trkpt>
      <trkpt lat="42.4756970" lon="-5.3582770">
        <ele>812.0</ele>
        <time>2020-04-07T18:06:54Z</time>
      </trkpt>
      <trkpt lat="42.4758950" lon="-5.3584780">
        <ele>811.4</ele>
        <time>2020-04-07T18:06:56Z</time>
      </trkpt>
      <trkpt lat="42.4760110" lon="-5.3586230">
        <ele>811.4</ele>
        <time>2020-04-07T18:06:58Z</time>
      </trkpt>
      <trkpt lat="42.4761230" lon="-5.3588300">
        <ele>811.8</ele>
        <time>2020-04-07T18:07:00Z</time>
      </trkpt>
      <trkpt lat="42.4762310" lon="-5.3590820">
        <ele>812.0</ele>
        <time>2020-04-07T18:07:02Z</time>
      </trkpt>
      <trkpt lat="42.4763320" lon="-5.3592870">
        <ele>812.2</ele>
        <time>2020-04-07T18:07:04Z</time>
      </trkpt>
      <trkpt lat="42.4763990" lon="-5.3594310">
        <ele>812.4</ele>
        <time>2020-04-07T18:07:06Z</time>
      </trkpt>
      <trkpt lat="42.4765140" lon="-5.3596750">
        <ele>812.8</ele>
        <time>2020-04-07T18:07:08Z</time>
      </trkpt>
      <trkpt lat="42.4765780" lon="-5.3598120">
        <ele>812.6</ele>
        <time>2020-04-07T18:07:10Z</time>
      </trkpt>
      <trkpt lat="42.4766430" lon="-5.3599500">
        <ele>812.6</ele>
        <time>2020-04-07T18:07:12Z</time>
      </trkpt>
      <trkpt lat="42.4767080" lon="-5.3600900">
        <ele>812.4</ele>
        <time>2020-04-07T18:07:14Z</time>
      </trkpt>
      <trkpt lat="42.4767740" lon="-5.3602300">
        <ele>812.4</ele>
        <time>2020-04-07T18:07:16Z</time>
      </trkpt>
      <trkpt lat="42.4768400" lon="-5.3603720">
        <ele>812.2</ele>
        <time>2020-04-07T18:07:18Z</time>
      </trkpt>
      <trkpt lat="42.4770270" lon="-5.3607690">
        <ele>812.0</ele>
        <time>2020-04-07T18:07:20Z</time>
      </trkpt>
      <trkpt lat="42.4770940" lon="-5.3609130">
        <ele>812.0</ele>
        <time>2020-04-07T18:07:22Z</time>
      </trkpt>
      <trkpt lat="42.4771610" lon="-5.3610550">
        <ele>811.8</ele>
        <time>2020-04-07T18:07:24Z</time>
      </trkpt>
      <trkpt lat="42.4772290" lon="-5.3612000">
        <ele>811.8</ele>
        <time>2020-04-07T18:07:26Z</time>
      </trkpt>
      <trkpt lat="42.4772970" lon="-5.3613450">
        <ele>811.8</ele>
        <time>2020-04-07T18:07:28Z</time>
      </trkpt>
      <trkpt lat="42.4774850" lon="-5.3617450">
        <ele>811.6</ele>
        <time>2020-04-07T18:07:30Z</time>
      </trkpt>
      <trkpt lat="42.4775520" lon="-5.3618870">
        <ele>811.4</ele>
        <time>2020-04-07T18:07:32Z</time>
      </trkpt>
      <trkpt lat="42.4776180" lon="-5.3620280">
        <ele>811.4</ele>
        <time>2020-04-07T18:07:34Z</time>
      </trkpt>
      <trkpt lat="42.4776830" lon="-5.3621660">
        <ele>811.4</ele>
        <time>2020-04-07T18:07:36Z</time>
      </trkpt>
      <trkpt lat="42.4777490" lon="-5.3623060">
        <ele>811.4</ele>
        <time>2020-04-07T18:07:38Z</time>
      </trkpt>
      <trkpt lat="42.4779350" lon="-5.3627010">
        <ele>811.4</ele>
        <time>2020-04-07T18:07:40Z</time>
      </trkpt>
      <trkpt lat="42.4780230" lon="-5.3628910">
        <ele>811.2</ele>
        <time>2020-04-07T18:07:42Z</time>
      </trkpt>
      <trkpt lat="42.4780860" lon="-5.3630290">
        <ele>811.2</ele>
        <time>2020-04-07T18:07:44Z</time>
      </trkpt>
      <trkpt lat="42.4781500" lon="-5.3631690">
        <ele>811.2</ele>
        <time>2020-04-07T18:07:46Z</time>
      </trkpt>
      <trkpt lat="42.4782140" lon="-5.3633100">
        <ele>811.2</ele>
        <time>2020-04-07T18:07:48Z</time>
      </trkpt>
      <trkpt lat="42.4783720" lon="-5.3636550">
        <ele>811.0</ele>
        <time>2020-04-07T18:07:50Z</time>
      </trkpt>
      <trkpt lat="42.4784370" lon="-5.3637980">
        <ele>810.8</ele>
        <time>2020-04-07T18:07:52Z</time>
      </trkpt>
      <trkpt lat="42.4785040" lon="-5.3639430">
        <ele>810.6</ele>
        <time>2020-04-07T18:07:54Z</time>
      </trkpt>
      <trkpt lat="42.4785710" lon="-5.3640910">
        <ele>810.4</ele>
        <time>2020-04-07T18:07:56Z</time>
      </trkpt>
      <trkpt lat="42.4787330" lon="-5.3644460">
        <ele>810.0</ele>
        <time>2020-04-07T18:07:58Z</time>
      </trkpt>
      <trkpt lat="42.4788030" lon="-5.3645980">
        <ele>809.8</ele>
        <time>2020-04-07T18:08:00Z</time>
      </trkpt>
      <trkpt lat="42.4788740" lon="-5.3647540">
        <ele>809.6</ele>
        <time>2020-04-07T18:08:02Z</time>
      </trkpt>
      <trkpt lat="42.4789470" lon="-5.3649120">
        <ele>809.4</ele>
        <time>2020-04-07T18:08:04Z</time>
      </trkpt>
      <trkpt lat="42.4791020" lon="-5.3652850">
        <ele>809.0</ele>
        <time>2020-04-07T18:08:06Z</time>
      </trkpt>
      <trkpt lat="42.4791720" lon="-5.3655180">
        <ele>808.6</ele>
        <time>2020-04-07T18:08:08Z</time>
      </trkpt>
      <trkpt lat="42.4792230" lon="-5.3656980">
        <ele>808.4</ele>
        <time>2020-04-07T18:08:10Z</time>
      </trkpt>
      <trkpt lat="42.4792740" lon="-5.3658800">
        <ele>808.0</ele>
        <time>2020-04-07T18:08:12Z</time>
      </trkpt>
      <trkpt lat="42.4793830" lon="-5.3662590">
        <ele>807.6</ele>
        <time>2020-04-07T18:08:14Z</time>
      </trkpt>
      <trkpt lat="42.4794690" lon="-5.3665110">
        <ele>807.2</ele>
        <time>2020-04-07T18:08:16Z</time>
      </trkpt>
      <trkpt lat="42.4795360" lon="-5.3666900">
        <ele>807.0</ele>
        <time>2020-04-07T18:08:18Z</time>
      </trkpt>
      <trkpt lat="42.4796030" lon="-5.3668700">
        <ele>806.6</ele>
        <time>2020-04-07T18:08:20Z</time>
      </trkpt>
      <trkpt lat="42.4797350" lon="-5.3672470">
        <ele>806.0</ele>
        <time>2020-04-07T18:08:22Z</time>
      </trkpt>
      <trkpt lat="42.4797940" lon="-5.3674400">
        <ele>805.4</ele>
        <time>2020-04-07T18:08:24Z</time>
      </trkpt>
      <trkpt lat="42.4798550" lon="-5.3676370">
        <ele>805.0</ele>
        <time>2020-04-07T18:08:26Z</time>
      </trkpt>
      <trkpt lat="42.4799160" lon="-5.3678360">
        <ele>804.4</ele>
        <time>2020-04-07T18:08:28Z</time>
      </trkpt>
      <trkpt lat="42.4800580" lon="-5.3682990">
        <ele>803.2</ele>
        <time>2020-04-07T18:08:30Z</time>
      </trkpt>
      <trkpt lat="42.4801210" lon="-5.3685050">
        <ele>802.8</ele>
        <time>2020-04-07T18:08:32Z</time>
      </trkpt>
      <trkpt lat="42.4801850" lon="-5.3687130">
        <ele>802.2</ele>
        <time>2020-04-07T18:08:34Z</time>
      </trkpt>
      <trkpt lat="42.4803360" lon="-5.3692030">
        <ele>801.2</ele>
        <time>2020-04-07T18:08:36Z</time>
      </trkpt>
      <trkpt lat="42.4803980" lon="-5.3694060">
        <ele>801.6</ele>
        <time>2020-04-07T18:08:38Z</time>
      </trkpt>
      <trkpt lat="42.4804570" lon="-5.3695960">
        <ele>801.8</ele>
        <time>2020-04-07T18:08:40Z</time>
      </trkpt>
      <trkpt lat="42.4805120" lon="-5.3697740">
        <ele>802.2</ele>
        <time>2020-04-07T18:08:42Z</time>
      </trkpt>
      <trkpt lat="42.4806390" lon="-5.3701850">
        <ele>802.8</ele>
        <time>2020-04-07T18:08:44Z</time>
      </trkpt>
      <trkpt lat="42.4806900" lon="-5.3703490">
        <ele>803.2</ele>
        <time>2020-04-07T18:08:46Z</time>
      </trkpt>
      <trkpt lat="42.4807380" lon="-5.3705050">
        <ele>803.4</ele>
        <time>2020-04-07T18:08:48Z</time>
      </trkpt>
      <trkpt lat="42.4807840" lon="-5.3706530">
        <ele>803.6</ele>
        <time>2020-04-07T18:08:50Z</time>
      </trkpt>
      <trkpt lat="42.4808940" lon="-5.3710090">
        <ele>804.0</ele>
        <time>2020-04-07T18:08:52Z</time>
      </trkpt>
      <trkpt lat="42.4809570" lon="-5.3712110">
        <ele>803.8</ele>
        <time>2020-04-07T18:08:54Z</time>
      </trkpt>
      <trkpt lat="42.4810030" lon="-5.3713620">
        <ele>803.8</ele>
        <time>2020-04-07T18:08:56Z</time>
      </trkpt>
      <trkpt lat="42.4810520" lon="-5.3715180">
        <ele>803.6</ele>
        <time>2020-04-07T18:08:58Z</time>
      </trkpt>
      <trkpt lat="42.4811000" lon="-5.3716750">
        <ele>803.6</ele>
        <time>2020-04-07T18:09:00Z</time>
      </trkpt>
      <trkpt lat="42.4812300" lon="-5.3720950">
        <ele>803.2</ele>
        <time>2020-04-07T18:09:02Z</time>
      </trkpt>
      <trkpt lat="42.4812800" lon="-5.3722560">
        <ele>803.2</ele>
        <time>2020-04-07T18:09:04Z</time>
      </trkpt>
      <trkpt lat="42.4813290" lon="-5.3724180">
        <ele>803.0</ele>
        <time>2020-04-07T18:09:06Z</time>
      </trkpt>
      <trkpt lat="42.4813800" lon="-5.3725820">
        <ele>803.0</ele>
        <time>2020-04-07T18:09:08Z</time>
      </trkpt>
      <trkpt lat="42.4814310" lon="-5.3727480">
        <ele>803.0</ele>
        <time>2020-04-07T18:09:10Z</time>
      </trkpt>
      <trkpt lat="42.4815690" lon="-5.3731930">
        <ele>802.6</ele>
        <time>2020-04-07T18:09:12Z</time>
      </trkpt>
      <trkpt lat="42.4816470" lon="-5.3734430">
        <ele>802.6</ele>
        <time>2020-04-07T18:09:14Z</time>
      </trkpt>
      <trkpt lat="42.4816980" lon="-5.3736120">
        <ele>802.4</ele>
        <time>2020-04-07T18:09:16Z</time>
      </trkpt>
      <trkpt lat="42.4817490" lon="-5.3737820">
        <ele>802.4</ele>
        <time>2020-04-07T18:09:18Z</time>
      </trkpt>
      <trkpt lat="42.4818520" lon="-5.3741260">
        <ele>802.2</ele>
        <time>2020-04-07T18:09:20Z</time>
      </trkpt>
      <trkpt lat="42.4819100" lon="-5.3743150">
        <ele>802.2</ele>
        <time>2020-04-07T18:09:22Z</time>
      </trkpt>
      <trkpt lat="42.4819620" lon="-5.3744820">
        <ele>802.0</ele>
        <time>2020-04-07T18:09:24Z</time>
      </trkpt>
      <trkpt lat="42.4820130" lon="-5.3746460">
        <ele>802.0</ele>
        <time>2020-04-07T18:09:26Z</time>
      </trkpt>
      <trkpt lat="42.4820640" lon="-5.3748110">
        <ele>802.0</ele>
        <time>2020-04-07T18:09:28Z</time>
      </trkpt>
      <trkpt lat="42.4822000" lon="-5.3752510">
        <ele>801.8</ele>
        <time>2020-04-07T18:09:30Z</time>
      </trkpt>
      <trkpt lat="42.4822490" lon="-5.3754090">
        <ele>801.6</ele>
        <time>2020-04-07T18:09:32Z</time>
      </trkpt>
      <trkpt lat="42.4822990" lon="-5.3755680">
        <ele>801.6</ele>
        <time>2020-04-07T18:09:34Z</time>
      </trkpt>
      <trkpt lat="42.4823490" lon="-5.3757280">
        <ele>801.6</ele>
        <time>2020-04-07T18:09:36Z</time>
      </trkpt>
      <trkpt lat="42.4823980" lon="-5.3758890">
        <ele>801.4</ele>
        <time>2020-04-07T18:09:38Z</time>
      </trkpt>
      <trkpt lat="42.4825340" lon="-5.3763260">
        <ele>801.4</ele>
        <time>2020-04-07T18:09:40Z</time>
      </trkpt>
      <trkpt lat="42.4825830" lon="-5.3764850">
        <ele>801.4</ele>
        <time>2020-04-07T18:09:42Z</time>
      </trkpt>
      <trkpt lat="42.4826320" lon="-5.3766430">
        <ele>801.4</ele>
        <time>2020-04-07T18:09:44Z</time>
      </trkpt>
      <trkpt lat="42.4826800" lon="-5.3767970">
        <ele>801.4</ele>
        <time>2020-04-07T18:09:46Z</time>
      </trkpt>
      <trkpt lat="42.4827280" lon="-5.3769520">
        <ele>801.4</ele>
        <time>2020-04-07T18:09:48Z</time>
      </trkpt>
      <trkpt lat="42.4828620" lon="-5.3773820">
        <ele>801.6</ele>
        <time>2020-04-07T18:09:50Z</time>
      </trkpt>
      <trkpt lat="42.4829090" lon="-5.3775340">
        <ele>801.6</ele>
        <time>2020-04-07T18:09:52Z</time>
      </trkpt>
      <trkpt lat="42.4829770" lon="-5.3777550">
        <ele>801.6</ele>
        <time>2020-04-07T18:09:54Z</time>
      </trkpt>
      <trkpt lat="42.4830230" lon="-5.3779060">
        <ele>801.8</ele>
        <time>2020-04-07T18:09:56Z</time>
      </trkpt>
      <trkpt lat="42.4830680" lon="-5.3780560">
        <ele>801.8</ele>
        <time>2020-04-07T18:09:58Z</time>
      </trkpt>
      <trkpt lat="42.4831150" lon="-5.3782080">
        <ele>801.8</ele>
        <time>2020-04-07T18:10:00Z</time>
      </trkpt>
      <trkpt lat="42.4832240" lon="-5.3785670">
        <ele>801.8</ele>
        <time>2020-04-07T18:10:02Z</time>
      </trkpt>
      <trkpt lat="42.4832720" lon="-5.3787250">
        <ele>801.6</ele>
        <time>2020-04-07T18:10:04Z</time>
      </trkpt>
      <trkpt lat="42.4833210" lon="-5.3788850">
        <ele>801.4</ele>
        <time>2020-04-07T18:10:06Z</time>
      </trkpt>
      <trkpt lat="42.4833700" lon="-5.3790490">
        <ele>801.2</ele>
        <time>2020-04-07T18:10:08Z</time>
      </trkpt>
      <trkpt lat="42.4835050" lon="-5.3794920">
        <ele>800.8</ele>
        <time>2020-04-07T18:10:10Z</time>
      </trkpt>
      <trkpt lat="42.4835570" lon="-5.3796610">
        <ele>800.6</ele>
        <time>2020-04-07T18:10:12Z</time>
      </trkpt>
      <trkpt lat="42.4836350" lon="-5.3799170">
        <ele>800.2</ele>
        <time>2020-04-07T18:10:14Z</time>
      </trkpt>
      <trkpt lat="42.4836870" lon="-5.3800900">
        <ele>800.0</ele>
        <time>2020-04-07T18:10:16Z</time>
      </trkpt>
      <trkpt lat="42.4837390" lon="-5.3802610">
        <ele>800.0</ele>
        <time>2020-04-07T18:10:18Z</time>
      </trkpt>
      <trkpt lat="42.4838500" lon="-5.3806270">
        <ele>799.6</ele>
        <time>2020-04-07T18:10:20Z</time>
      </trkpt>
      <trkpt lat="42.4839020" lon="-5.3807970">
        <ele>799.6</ele>
        <time>2020-04-07T18:10:22Z</time>
      </trkpt>
      <trkpt lat="42.4839530" lon="-5.3809640">
        <ele>799.4</ele>
        <time>2020-04-07T18:10:24Z</time>
      </trkpt>
      <trkpt lat="42.4840030" lon="-5.3811290">
        <ele>799.4</ele>
        <time>2020-04-07T18:10:26Z</time>
      </trkpt>
      <trkpt lat="42.4840520" lon="-5.3812910">
        <ele>799.4</ele>
        <time>2020-04-07T18:10:28Z</time>
      </trkpt>
      <trkpt lat="42.4841860" lon="-5.3817340">
        <ele>799.2</ele>
        <time>2020-04-07T18:10:30Z</time>
      </trkpt>
      <trkpt lat="42.4842360" lon="-5.3818970">
        <ele>799.2</ele>
        <time>2020-04-07T18:10:32Z</time>
      </trkpt>
      <trkpt lat="42.4842860" lon="-5.3820600">
        <ele>799.2</ele>
        <time>2020-04-07T18:10:34Z</time>
      </trkpt>
      <trkpt lat="42.4843360" lon="-5.3822250">
        <ele>799.2</ele>
        <time>2020-04-07T18:10:36Z</time>
      </trkpt>
      <trkpt lat="42.4844700" lon="-5.3826680">
        <ele>799.0</ele>
        <time>2020-04-07T18:10:38Z</time>
      </trkpt>
      <trkpt lat="42.4845200" lon="-5.3828320">
        <ele>799.0</ele>
        <time>2020-04-07T18:10:40Z</time>
      </trkpt>
      <trkpt lat="42.4845700" lon="-5.3829940">
        <ele>799.0</ele>
        <time>2020-04-07T18:10:42Z</time>
      </trkpt>
      <trkpt lat="42.4846190" lon="-5.3831570">
        <ele>799.0</ele>
        <time>2020-04-07T18:10:44Z</time>
      </trkpt>
      <trkpt lat="42.4846690" lon="-5.3833190">
        <ele>799.0</ele>
        <time>2020-04-07T18:10:46Z</time>
      </trkpt>
      <trkpt lat="42.4848030" lon="-5.3837590">
        <ele>799.0</ele>
        <time>2020-04-07T18:10:48Z</time>
      </trkpt>
      <trkpt lat="42.4848520" lon="-5.3839200">
        <ele>799.0</ele>
        <time>2020-04-07T18:10:50Z</time>
      </trkpt>
      <trkpt lat="42.4849010" lon="-5.3840810">
        <ele>799.0</ele>
        <time>2020-04-07T18:10:52Z</time>
      </trkpt>
      <trkpt lat="42.4849500" lon="-5.3842420">
        <ele>799.0</ele>
        <time>2020-04-07T18:10:54Z</time>
      </trkpt>
      <trkpt lat="42.4849980" lon="-5.3844020">
        <ele>799.0</ele>
        <time>2020-04-07T18:10:56Z</time>
      </trkpt>
      <trkpt lat="42.4851310" lon="-5.3848410">
        <ele>799.0</ele>
        <time>2020-04-07T18:10:58Z</time>
      </trkpt>
      <trkpt lat="42.4851790" lon="-5.3850020">
        <ele>799.0</ele>
        <time>2020-04-07T18:11:00Z</time>
      </trkpt>
      <trkpt lat="42.4852280" lon="-5.3851660">
        <ele>798.8</ele>
        <time>2020-04-07T18:11:02Z</time>
      </trkpt>
      <trkpt lat="42.4852770" lon="-5.3853300">
        <ele>798.8</ele>
        <time>2020-04-07T18:11:04Z</time>
      </trkpt>
      <trkpt lat="42.4854010" lon="-5.3857380">
        <ele>798.6</ele>
        <time>2020-04-07T18:11:06Z</time>
      </trkpt>
      <trkpt lat="42.4854620" lon="-5.3858990">
        <ele>798.4</ele>
        <time>2020-04-07T18:11:08Z</time>
      </trkpt>
      <trkpt lat="42.4855690" lon="-5.3861760">
        <ele>798.2</ele>
        <time>2020-04-07T18:11:10Z</time>
      </trkpt>
      <trkpt lat="42.4856340" lon="-5.3863340">
        <ele>798.2</ele>
        <time>2020-04-07T18:11:12Z</time>
      </trkpt>
      <trkpt lat="42.4857440" lon="-5.3865980">
        <ele>798.0</ele>
        <time>2020-04-07T18:11:14Z</time>
      </trkpt>
      <trkpt lat="42.4858130" lon="-5.3867580">
        <ele>797.8</ele>
        <time>2020-04-07T18:11:16Z</time>
      </trkpt>
      <trkpt lat="42.4858830" lon="-5.3869220">
        <ele>797.6</ele>
        <time>2020-04-07T18:11:18Z</time>
      </trkpt>
      <trkpt lat="42.4859540" lon="-5.3870880">
        <ele>797.4</ele>
        <time>2020-04-07T18:11:20Z</time>
      </trkpt>
      <trkpt lat="42.4860260" lon="-5.3872550">
        <ele>797.2</ele>
        <time>2020-04-07T18:11:22Z</time>
      </trkpt>
      <trkpt lat="42.4862130" lon="-5.3876910">
        <ele>796.6</ele>
        <time>2020-04-07T18:11:24Z</time>
      </trkpt>
      <trkpt lat="42.4862860" lon="-5.3878610">
        <ele>796.4</ele>
        <time>2020-04-07T18:11:26Z</time>
      </trkpt>
      <trkpt lat="42.4863600" lon="-5.3880320">
        <ele>796.0</ele>
        <time>2020-04-07T18:11:28Z</time>
      </trkpt>
      <trkpt lat="42.4864330" lon="-5.3882040">
        <ele>795.8</ele>
        <time>2020-04-07T18:11:30Z</time>
      </trkpt>
      <trkpt lat="42.4866250" lon="-5.3886530">
        <ele>795.4</ele>
        <time>2020-04-07T18:11:32Z</time>
      </trkpt>
      <trkpt lat="42.4866990" lon="-5.3888230">
        <ele>795.6</ele>
        <time>2020-04-07T18:11:34Z</time>
      </trkpt>
      <trkpt lat="42.4867690" lon="-5.3889880">
        <ele>795.6</ele>
        <time>2020-04-07T18:11:36Z</time>
      </trkpt>
      <trkpt lat="42.4868380" lon="-5.3891470">
        <ele>795.8</ele>
        <time>2020-04-07T18:11:38Z</time>
      </trkpt>
      <trkpt lat="42.4869050" lon="-5.3893030">
        <ele>796.0</ele>
        <time>2020-04-07T18:11:40Z</time>
      </trkpt>
      <trkpt lat="42.4870890" lon="-5.3897310">
        <ele>796.2</ele>
        <time>2020-04-07T18:11:42Z</time>
      </trkpt>
      <trkpt lat="42.4871530" lon="-5.3898800">
        <ele>796.4</ele>
        <time>2020-04-07T18:11:44Z</time>
      </trkpt>
      <trkpt lat="42.4872160" lon="-5.3900260">
        <ele>796.6</ele>
        <time>2020-04-07T18:11:46Z</time>
      </trkpt>
      <trkpt lat="42.4872780" lon="-5.3901710">
        <ele>796.6</ele>
        <time>2020-04-07T18:11:48Z</time>
      </trkpt>
      <trkpt lat="42.4873390" lon="-5.3903140">
        <ele>796.8</ele>
        <time>2020-04-07T18:11:50Z</time>
      </trkpt>
      <trkpt lat="42.4875170" lon="-5.3907300">
        <ele>797.2</ele>
        <time>2020-04-07T18:11:52Z</time>
      </trkpt>
      <trkpt lat="42.4875760" lon="-5.3908690">
        <ele>797.2</ele>
        <time>2020-04-07T18:11:54Z</time>
      </trkpt>
      <trkpt lat="42.4876360" lon="-5.3910090">
        <ele>797.2</ele>
        <time>2020-04-07T18:11:56Z</time>
      </trkpt>
      <trkpt lat="42.4876950" lon="-5.3911480">
        <ele>797.4</ele>
        <time>2020-04-07T18:11:58Z</time>
      </trkpt>
      <trkpt lat="42.4877540" lon="-5.3912850">
        <ele>797.4</ele>
        <time>2020-04-07T18:12:00Z</time>
      </trkpt>
      <trkpt lat="42.4878130" lon="-5.3914240">
        <ele>797.4</ele>
        <time>2020-04-07T18:12:02Z</time>
      </trkpt>
      <trkpt lat="42.4879890" lon="-5.3918380">
        <ele>797.8</ele>
        <time>2020-04-07T18:12:04Z</time>
      </trkpt>
      <trkpt lat="42.4880480" lon="-5.3919760">
        <ele>797.8</ele>
        <time>2020-04-07T18:12:06Z</time>
      </trkpt>
      <trkpt lat="42.4881070" lon="-5.3921130">
        <ele>797.8</ele>
        <time>2020-04-07T18:12:08Z</time>
      </trkpt>
      <trkpt lat="42.4881650" lon="-5.3922490">
        <ele>798.0</ele>
        <time>2020-04-07T18:12:10Z</time>
      </trkpt>
      <trkpt lat="42.4882230" lon="-5.3923860">
        <ele>798.0</ele>
        <time>2020-04-07T18:12:12Z</time>
      </trkpt>
      <trkpt lat="42.4882820" lon="-5.3925230">
        <ele>798.0</ele>
        <time>2020-04-07T18:12:14Z</time>
      </trkpt>
      <trkpt lat="42.4884580" lon="-5.3929360">
        <ele>798.2</ele>
        <time>2020-04-07T18:12:16Z</time>
      </trkpt>
      <trkpt lat="42.4885170" lon="-5.3930750">
        <ele>798.2</ele>
        <time>2020-04-07T18:12:18Z</time>
      </trkpt>
      <trkpt lat="42.4885770" lon="-5.3932150">
        <ele>798.2</ele>
        <time>2020-04-07T18:12:20Z</time>
      </trkpt>
      <trkpt lat="42.4886380" lon="-5.3933580">
        <ele>798.2</ele>
        <time>2020-04-07T18:12:22Z</time>
      </trkpt>
      <trkpt lat="42.4886990" lon="-5.3935010">
        <ele>798.2</ele>
        <time>2020-04-07T18:12:24Z</time>
      </trkpt>
      <trkpt lat="42.4888790" lon="-5.3939210">
        <ele>798.0</ele>
        <time>2020-04-07T18:12:26Z</time>
      </trkpt>
      <trkpt lat="42.4889580" lon="-5.3941060">
        <ele>798.0</ele>
        <time>2020-04-07T18:12:28Z</time>
      </trkpt>
      <trkpt lat="42.4890210" lon="-5.3942530">
        <ele>798.0</ele>
        <time>2020-04-07T18:12:30Z</time>
      </trkpt>
      <trkpt lat="42.4890830" lon="-5.3944000">
        <ele>798.0</ele>
        <time>2020-04-07T18:12:32Z</time>
      </trkpt>
      <trkpt lat="42.4891470" lon="-5.3945490">
        <ele>798.0</ele>
        <time>2020-04-07T18:12:34Z</time>
      </trkpt>
      <trkpt lat="42.4893120" lon="-5.3949350">
        <ele>797.8</ele>
        <time>2020-04-07T18:12:36Z</time>
      </trkpt>
      <trkpt lat="42.4893760" lon="-5.3950860">
        <ele>797.8</ele>
        <time>2020-04-07T18:12:38Z</time>
      </trkpt>
      <trkpt lat="42.4894410" lon="-5.3952370">
        <ele>797.6</ele>
        <time>2020-04-07T18:12:40Z</time>
      </trkpt>
      <trkpt lat="42.4895060" lon="-5.3953890">
        <ele>797.6</ele>
        <time>2020-04-07T18:12:42Z</time>
      </trkpt>
      <trkpt lat="42.4895710" lon="-5.3955430">
        <ele>797.6</ele>
        <time>2020-04-07T18:12:44Z</time>
      </trkpt>
      <trkpt lat="42.4897550" lon="-5.3959720">
        <ele>797.4</ele>
        <time>2020-04-07T18:12:46Z</time>
      </trkpt>
      <trkpt lat="42.4898210" lon="-5.3961270">
        <ele>797.2</ele>
        <time>2020-04-07T18:12:48Z</time>
      </trkpt>
      <trkpt lat="42.4898870" lon="-5.3962820">
        <ele>797.2</ele>
        <time>2020-04-07T18:12:50Z</time>
      </trkpt>
      <trkpt lat="42.4900120" lon="-5.3965730">
        <ele>797.0</ele>
        <time>2020-04-07T18:12:52Z</time>
      </trkpt>
      <trkpt lat="42.4900800" lon="-5.3967310">
        <ele>797.0</ele>
        <time>2020-04-07T18:12:54Z</time>
      </trkpt>
      <trkpt lat="42.4902080" lon="-5.3970290">
        <ele>796.8</ele>
        <time>2020-04-07T18:12:56Z</time>
      </trkpt>
      <trkpt lat="42.4902760" lon="-5.3971860">
        <ele>796.8</ele>
        <time>2020-04-07T18:12:58Z</time>
      </trkpt>
      <trkpt lat="42.4903430" lon="-5.3973430">
        <ele>796.8</ele>
        <time>2020-04-07T18:13:00Z</time>
      </trkpt>
      <trkpt lat="42.4904110" lon="-5.3975000">
        <ele>796.8</ele>
        <time>2020-04-07T18:13:02Z</time>
      </trkpt>
      <trkpt lat="42.4904780" lon="-5.3976560">
        <ele>796.6</ele>
        <time>2020-04-07T18:13:04Z</time>
      </trkpt>
      <trkpt lat="42.4906640" lon="-5.3980880">
        <ele>796.6</ele>
        <time>2020-04-07T18:13:06Z</time>
      </trkpt>
      <trkpt lat="42.4907310" lon="-5.3982440">
        <ele>796.6</ele>
        <time>2020-04-07T18:13:08Z</time>
      </trkpt>
      <trkpt lat="42.4907990" lon="-5.3984010">
        <ele>796.6</ele>
        <time>2020-04-07T18:13:10Z</time>
      </trkpt>
      <trkpt lat="42.4908650" lon="-5.3985560">
        <ele>796.6</ele>
        <time>2020-04-07T18:13:12Z</time>
      </trkpt>
      <trkpt lat="42.4909330" lon="-5.3987130">
        <ele>796.4</ele>
        <time>2020-04-07T18:13:14Z</time>
      </trkpt>
      <trkpt lat="42.4911180" lon="-5.3991440">
        <ele>796.4</ele>
        <time>2020-04-07T18:13:16Z</time>
      </trkpt>
      <trkpt lat="42.4911840" lon="-5.3992970">
        <ele>796.4</ele>
        <time>2020-04-07T18:13:18Z</time>
      </trkpt>
      <trkpt lat="42.4912510" lon="-5.3994510">
        <ele>796.6</ele>
        <time>2020-04-07T18:13:20Z</time>
      </trkpt>
      <trkpt lat="42.4913170" lon="-5.3996040">
        <ele>796.6</ele>
        <time>2020-04-07T18:13:22Z</time>
      </trkpt>
      <trkpt lat="42.4913820" lon="-5.3997560">
        <ele>796.6</ele>
        <time>2020-04-07T18:13:25Z</time>
      </trkpt>
      <trkpt lat="42.4915650" lon="-5.4001800">
        <ele>796.6</ele>
        <time>2020-04-07T18:13:27Z</time>
      </trkpt>
      <trkpt lat="42.4916280" lon="-5.4003320">
        <ele>796.6</ele>
        <time>2020-04-07T18:13:29Z</time>
      </trkpt>
      <trkpt lat="42.4916910" lon="-5.4004820">
        <ele>796.8</ele>
        <time>2020-04-07T18:13:31Z</time>
      </trkpt>
      <trkpt lat="42.4917540" lon="-5.4006330">
        <ele>796.8</ele>
        <time>2020-04-07T18:13:33Z</time>
      </trkpt>
      <trkpt lat="42.4919080" lon="-5.4010010">
        <ele>796.8</ele>
        <time>2020-04-07T18:13:35Z</time>
      </trkpt>
      <trkpt lat="42.4919710" lon="-5.4011510">
        <ele>796.8</ele>
        <time>2020-04-07T18:13:37Z</time>
      </trkpt>
      <trkpt lat="42.4920330" lon="-5.4012990">
        <ele>796.8</ele>
        <time>2020-04-07T18:13:39Z</time>
      </trkpt>
      <trkpt lat="42.4920950" lon="-5.4014470">
        <ele>797.0</ele>
        <time>2020-04-07T18:13:41Z</time>
      </trkpt>
      <trkpt lat="42.4922490" lon="-5.4018130">
        <ele>797.0</ele>
        <time>2020-04-07T18:13:43Z</time>
      </trkpt>
      <trkpt lat="42.4923100" lon="-5.4019590">
        <ele>797.0</ele>
        <time>2020-04-07T18:13:45Z</time>
      </trkpt>
      <trkpt lat="42.4923720" lon="-5.4021070">
        <ele>797.0</ele>
        <time>2020-04-07T18:13:47Z</time>
      </trkpt>
      <trkpt lat="42.4924920" lon="-5.4023940">
        <ele>797.0</ele>
        <time>2020-04-07T18:13:49Z</time>
      </trkpt>
      <trkpt lat="42.4925860" lon="-5.4026190">
        <ele>797.0</ele>
        <time>2020-04-07T18:13:51Z</time>
      </trkpt>
      <trkpt lat="42.4926480" lon="-5.4027650">
        <ele>797.0</ele>
        <time>2020-04-07T18:13:53Z</time>
      </trkpt>
      <trkpt lat="42.4927090" lon="-5.4029120">
        <ele>797.0</ele>
        <time>2020-04-07T18:13:55Z</time>
      </trkpt>
      <trkpt lat="42.4927710" lon="-5.4030600">
        <ele>797.0</ele>
        <time>2020-04-07T18:13:57Z</time>
      </trkpt>
      <trkpt lat="42.4928320" lon="-5.4032060">
        <ele>797.0</ele>
        <time>2020-04-07T18:13:59Z</time>
      </trkpt>
      <trkpt lat="42.4929880" lon="-5.4035690">
        <ele>797.0</ele>
        <time>2020-04-07T18:14:01Z</time>
      </trkpt>
      <trkpt lat="42.4930530" lon="-5.4037140">
        <ele>797.0</ele>
        <time>2020-04-07T18:14:03Z</time>
      </trkpt>
      <trkpt lat="42.4931180" lon="-5.4038580">
        <ele>797.0</ele>
        <time>2020-04-07T18:14:05Z</time>
      </trkpt>
      <trkpt lat="42.4931830" lon="-5.4040010">
        <ele>797.0</ele>
        <time>2020-04-07T18:14:07Z</time>
      </trkpt>
      <trkpt lat="42.4933570" lon="-5.4043880">
        <ele>797.0</ele>
        <time>2020-04-07T18:14:09Z</time>
      </trkpt>
      <trkpt lat="42.4934220" lon="-5.4045320">
        <ele>797.0</ele>
        <time>2020-04-07T18:14:11Z</time>
      </trkpt>
      <trkpt lat="42.4934890" lon="-5.4046790">
        <ele>797.0</ele>
        <time>2020-04-07T18:14:13Z</time>
      </trkpt>
      <trkpt lat="42.4935560" lon="-5.4048280">
        <ele>797.0</ele>
        <time>2020-04-07T18:14:15Z</time>
      </trkpt>
      <trkpt lat="42.4936240" lon="-5.4049770">
        <ele>796.8</ele>
        <time>2020-04-07T18:14:17Z</time>
      </trkpt>
      <trkpt lat="42.4938090" lon="-5.4053640">
        <ele>796.6</ele>
        <time>2020-04-07T18:14:19Z</time>
      </trkpt>
      <trkpt lat="42.4939070" lon="-5.4055540">
        <ele>796.6</ele>
        <time>2020-04-07T18:14:21Z</time>
      </trkpt>
      <trkpt lat="42.4939770" lon="-5.4057050">
        <ele>796.6</ele>
        <time>2020-04-07T18:14:23Z</time>
      </trkpt>
      <trkpt lat="42.4940940" lon="-5.4059640">
        <ele>796.6</ele>
        <time>2020-04-07T18:14:25Z</time>
      </trkpt>
      <trkpt lat="42.4941610" lon="-5.4061140">
        <ele>796.8</ele>
        <time>2020-04-07T18:14:27Z</time>
      </trkpt>
      <trkpt lat="42.4942250" lon="-5.4062610">
        <ele>796.8</ele>
        <time>2020-04-07T18:14:29Z</time>
      </trkpt>
      <trkpt lat="42.4943720" lon="-5.4065940">
        <ele>797.2</ele>
        <time>2020-04-07T18:14:31Z</time>
      </trkpt>
      <trkpt lat="42.4944350" lon="-5.4067370">
        <ele>797.2</ele>
        <time>2020-04-07T18:14:33Z</time>
      </trkpt>
      <trkpt lat="42.4945330" lon="-5.4069600">
        <ele>797.4</ele>
        <time>2020-04-07T18:14:35Z</time>
      </trkpt>
      <trkpt lat="42.4946300" lon="-5.4071780">
        <ele>797.6</ele>
        <time>2020-04-07T18:14:37Z</time>
      </trkpt>
      <trkpt lat="42.4947330" lon="-5.4072820">
        <ele>797.4</ele>
        <time>2020-04-07T18:14:39Z</time>
      </trkpt>
      <trkpt lat="42.4948800" lon="-5.4072970">
        <ele>797.4</ele>
        <time>2020-04-07T18:14:41Z</time>
      </trkpt>
      <trkpt lat="42.4950060" lon="-5.4073100">
        <ele>797.4</ele>
        <time>2020-04-07T18:14:43Z</time>
      </trkpt>
      <trkpt lat="42.4951330" lon="-5.4073230">
        <ele>797.4</ele>
        <time>2020-04-07T18:14:45Z</time>
      </trkpt>
      <trkpt lat="42.4954150" lon="-5.4073580">
        <ele>797.4</ele>
        <time>2020-04-07T18:14:47Z</time>
      </trkpt>
      <trkpt lat="42.4955460" lon="-5.4073790">
        <ele>797.4</ele>
        <time>2020-04-07T18:14:49Z</time>
      </trkpt>
      <trkpt lat="42.4956750" lon="-5.4074010">
        <ele>797.4</ele>
        <time>2020-04-07T18:14:51Z</time>
      </trkpt>
      <trkpt lat="42.4959660" lon="-5.4074520">
        <ele>797.2</ele>
        <time>2020-04-07T18:14:53Z</time>
      </trkpt>
      <trkpt lat="42.4960960" lon="-5.4074900">
        <ele>797.2</ele>
        <time>2020-04-07T18:14:55Z</time>
      </trkpt>
      <trkpt lat="42.4962280" lon="-5.4075290">
        <ele>797.2</ele>
        <time>2020-04-07T18:14:57Z</time>
      </trkpt>
      <trkpt lat="42.4963600" lon="-5.4075680">
        <ele>797.2</ele>
        <time>2020-04-07T18:14:59Z</time>
      </trkpt>
      <trkpt lat="42.4966790" lon="-5.4076650">
        <ele>797.2</ele>
        <time>2020-04-07T18:15:01Z</time>
      </trkpt>
      <trkpt lat="42.4968070" lon="-5.4077210">
        <ele>797.2</ele>
        <time>2020-04-07T18:15:03Z</time>
      </trkpt>
      <trkpt lat="42.4969350" lon="-5.4077770">
        <ele>797.4</ele>
        <time>2020-04-07T18:15:05Z</time>
      </trkpt>
      <trkpt lat="42.4971760" lon="-5.4078840">
        <ele>797.4</ele>
        <time>2020-04-07T18:15:07Z</time>
      </trkpt>
      <trkpt lat="42.4973020" lon="-5.4079420">
        <ele>797.6</ele>
        <time>2020-04-07T18:15:09Z</time>
      </trkpt>
      <trkpt lat="42.4975420" lon="-5.4080530">
        <ele>797.6</ele>
        <time>2020-04-07T18:15:11Z</time>
      </trkpt>
      <trkpt lat="42.4976650" lon="-5.4081190">
        <ele>797.6</ele>
        <time>2020-04-07T18:15:13Z</time>
      </trkpt>
      <trkpt lat="42.4978670" lon="-5.4082300">
        <ele>797.4</ele>
        <time>2020-04-07T18:15:15Z</time>
      </trkpt>
      <trkpt lat="42.4980410" lon="-5.4083360">
        <ele>797.4</ele>
        <time>2020-04-07T18:15:17Z</time>
      </trkpt>
      <trkpt lat="42.4981660" lon="-5.4084150">
        <ele>797.2</ele>
        <time>2020-04-07T18:15:19Z</time>
      </trkpt>
      <trkpt lat="42.4982920" lon="-5.4084950">
        <ele>797.2</ele>
        <time>2020-04-07T18:15:21Z</time>
      </trkpt>
      <trkpt lat="42.4985230" lon="-5.4086510">
        <ele>797.2</ele>
        <time>2020-04-07T18:15:23Z</time>
      </trkpt>
      <trkpt lat="42.4986410" lon="-5.4087400">
        <ele>797.6</ele>
        <time>2020-04-07T18:15:25Z</time>
      </trkpt>
      <trkpt lat="42.4988460" lon="-5.4088930">
        <ele>798.0</ele>
        <time>2020-04-07T18:15:27Z</time>
      </trkpt>
      <trkpt lat="42.4989570" lon="-5.4089730">
        <ele>798.2</ele>
        <time>2020-04-07T18:15:29Z</time>
      </trkpt>
      <trkpt lat="42.4991440" lon="-5.4091160">
        <ele>798.8</ele>
        <time>2020-04-07T18:15:31Z</time>
      </trkpt>
      <trkpt lat="42.4992710" lon="-5.4092260">
        <ele>799.0</ele>
        <time>2020-04-07T18:15:33Z</time>
      </trkpt>
      <trkpt lat="42.4993690" lon="-5.4093120">
        <ele>799.4</ele>
        <time>2020-04-07T18:15:35Z</time>
      </trkpt>
      <trkpt lat="42.4995500" lon="-5.4094730">
        <ele>799.6</ele>
        <time>2020-04-07T18:15:37Z</time>
      </trkpt>
      <trkpt lat="42.4996490" lon="-5.4095730">
        <ele>799.0</ele>
        <time>2020-04-07T18:15:39Z</time>
      </trkpt>
      <trkpt lat="42.4998150" lon="-5.4097460">
        <ele>798.2</ele>
        <time>2020-04-07T18:15:41Z</time>
      </trkpt>
      <trkpt lat="42.4999820" lon="-5.4099270">
        <ele>797.2</ele>
        <time>2020-04-07T18:15:43Z</time>
      </trkpt>
      <trkpt lat="42.5001170" lon="-5.4100830">
        <ele>796.4</ele>
        <time>2020-04-07T18:15:45Z</time>
      </trkpt>
      <trkpt lat="42.5002860" lon="-5.4102790">
        <ele>795.4</ele>
        <time>2020-04-07T18:15:47Z</time>
      </trkpt>
      <trkpt lat="42.5004590" lon="-5.4104810">
        <ele>794.6</ele>
        <time>2020-04-07T18:15:49Z</time>
      </trkpt>
      <trkpt lat="42.5006250" lon="-5.4107000">
        <ele>794.4</ele>
        <time>2020-04-07T18:15:51Z</time>
      </trkpt>
      <trkpt lat="42.5007770" lon="-5.4109140">
        <ele>794.0</ele>
        <time>2020-04-07T18:15:53Z</time>
      </trkpt>
      <trkpt lat="42.5009240" lon="-5.4111250">
        <ele>793.8</ele>
        <time>2020-04-07T18:15:55Z</time>
      </trkpt>
      <trkpt lat="42.5010570" lon="-5.4113200">
        <ele>793.6</ele>
        <time>2020-04-07T18:15:57Z</time>
      </trkpt>
      <trkpt lat="42.5012210" lon="-5.4115670">
        <ele>793.2</ele>
        <time>2020-04-07T18:15:59Z</time>
      </trkpt>
      <trkpt lat="42.5013650" lon="-5.4117980">
        <ele>793.2</ele>
        <time>2020-04-07T18:16:01Z</time>
      </trkpt>
      <trkpt lat="42.5014870" lon="-5.4120130">
        <ele>793.0</ele>
        <time>2020-04-07T18:16:03Z</time>
      </trkpt>
      <trkpt lat="42.5015730" lon="-5.4121800">
        <ele>793.0</ele>
        <time>2020-04-07T18:16:05Z</time>
      </trkpt>
      <trkpt lat="42.5017260" lon="-5.4124770">
        <ele>792.8</ele>
        <time>2020-04-07T18:16:07Z</time>
      </trkpt>
      <trkpt lat="42.5018090" lon="-5.4126380">
        <ele>793.0</ele>
        <time>2020-04-07T18:16:09Z</time>
      </trkpt>
      <trkpt lat="42.5018910" lon="-5.4127960">
        <ele>793.2</ele>
        <time>2020-04-07T18:16:11Z</time>
      </trkpt>
      <trkpt lat="42.5020370" lon="-5.4130930">
        <ele>793.4</ele>
        <time>2020-04-07T18:16:13Z</time>
      </trkpt>
      <trkpt lat="42.5021080" lon="-5.4132530">
        <ele>793.4</ele>
        <time>2020-04-07T18:16:15Z</time>
      </trkpt>
      <trkpt lat="42.5022390" lon="-5.4135500">
        <ele>793.6</ele>
        <time>2020-04-07T18:16:17Z</time>
      </trkpt>
      <trkpt lat="42.5023020" lon="-5.4137110">
        <ele>793.8</ele>
        <time>2020-04-07T18:16:19Z</time>
      </trkpt>
      <trkpt lat="42.5023650" lon="-5.4138700">
        <ele>794.0</ele>
        <time>2020-04-07T18:16:21Z</time>
      </trkpt>
      <trkpt lat="42.5024980" lon="-5.4142080">
        <ele>794.2</ele>
        <time>2020-04-07T18:16:23Z</time>
      </trkpt>
      <trkpt lat="42.5025520" lon="-5.4143710">
        <ele>794.2</ele>
        <time>2020-04-07T18:16:25Z</time>
      </trkpt>
      <trkpt lat="42.5026040" lon="-5.4145300">
        <ele>794.4</ele>
        <time>2020-04-07T18:16:27Z</time>
      </trkpt>
      <trkpt lat="42.5026970" lon="-5.4148230">
        <ele>794.4</ele>
        <time>2020-04-07T18:16:29Z</time>
      </trkpt>
      <trkpt lat="42.5027460" lon="-5.4149890">
        <ele>794.4</ele>
        <time>2020-04-07T18:16:31Z</time>
      </trkpt>
      <trkpt lat="42.5028440" lon="-5.4153210">
        <ele>794.0</ele>
        <time>2020-04-07T18:16:33Z</time>
      </trkpt>
      <trkpt lat="42.5028880" lon="-5.4154960">
        <ele>793.8</ele>
        <time>2020-04-07T18:16:35Z</time>
      </trkpt>
      <trkpt lat="42.5029340" lon="-5.4156760">
        <ele>793.8</ele>
        <time>2020-04-07T18:16:37Z</time>
      </trkpt>
      <trkpt lat="42.5029810" lon="-5.4158580">
        <ele>793.6</ele>
        <time>2020-04-07T18:16:39Z</time>
      </trkpt>
      <trkpt lat="42.5030890" lon="-5.4162810">
        <ele>793.2</ele>
        <time>2020-04-07T18:16:41Z</time>
      </trkpt>
      <trkpt lat="42.5031360" lon="-5.4164690">
        <ele>793.0</ele>
        <time>2020-04-07T18:16:43Z</time>
      </trkpt>
      <trkpt lat="42.5031850" lon="-5.4166610">
        <ele>792.6</ele>
        <time>2020-04-07T18:16:45Z</time>
      </trkpt>
      <trkpt lat="42.5032350" lon="-5.4168560">
        <ele>792.4</ele>
        <time>2020-04-07T18:16:47Z</time>
      </trkpt>
      <trkpt lat="42.5033460" lon="-5.4172930">
        <ele>791.8</ele>
        <time>2020-04-07T18:16:49Z</time>
      </trkpt>
      <trkpt lat="42.5034200" lon="-5.4175770">
        <ele>791.4</ele>
        <time>2020-04-07T18:16:51Z</time>
      </trkpt>
      <trkpt lat="42.5034750" lon="-5.4177780">
        <ele>791.0</ele>
        <time>2020-04-07T18:16:53Z</time>
      </trkpt>
      <trkpt lat="42.5035770" lon="-5.4181350">
        <ele>790.4</ele>
        <time>2020-04-07T18:16:55Z</time>
      </trkpt>
      <trkpt lat="42.5036680" lon="-5.4184020">
        <ele>790.0</ele>
        <time>2020-04-07T18:16:57Z</time>
      </trkpt>
      <trkpt lat="42.5037360" lon="-5.4186020">
        <ele>789.6</ele>
        <time>2020-04-07T18:16:59Z</time>
      </trkpt>
      <trkpt lat="42.5038050" lon="-5.4188020">
        <ele>789.2</ele>
        <time>2020-04-07T18:17:01Z</time>
      </trkpt>
      <trkpt lat="42.5039480" lon="-5.4191980">
        <ele>788.6</ele>
        <time>2020-04-07T18:17:03Z</time>
      </trkpt>
      <trkpt lat="42.5040270" lon="-5.4193910">
        <ele>788.0</ele>
        <time>2020-04-07T18:17:05Z</time>
      </trkpt>
      <trkpt lat="42.5041080" lon="-5.4195860">
        <ele>787.6</ele>
        <time>2020-04-07T18:17:07Z</time>
      </trkpt>
      <trkpt lat="42.5042850" lon="-5.4200070">
        <ele>786.8</ele>
        <time>2020-04-07T18:17:09Z</time>
      </trkpt>
      <trkpt lat="42.5044130" lon="-5.4202670">
        <ele>786.2</ele>
        <time>2020-04-07T18:17:11Z</time>
      </trkpt>
      <trkpt lat="42.5045130" lon="-5.4204400">
        <ele>786.4</ele>
        <time>2020-04-07T18:17:13Z</time>
      </trkpt>
      <trkpt lat="42.5046090" lon="-5.4206060">
        <ele>786.6</ele>
        <time>2020-04-07T18:17:15Z</time>
      </trkpt>
      <trkpt lat="42.5047010" lon="-5.4207650">
        <ele>786.6</ele>
        <time>2020-04-07T18:17:17Z</time>
      </trkpt>
      <trkpt lat="42.5049150" lon="-5.4211290">
        <ele>787.0</ele>
        <time>2020-04-07T18:17:19Z</time>
      </trkpt>
      <trkpt lat="42.5050050" lon="-5.4212720">
        <ele>787.2</ele>
        <time>2020-04-07T18:17:21Z</time>
      </trkpt>
      <trkpt lat="42.5050920" lon="-5.4214120">
        <ele>787.2</ele>
        <time>2020-04-07T18:17:23Z</time>
      </trkpt>
      <trkpt lat="42.5052860" lon="-5.4217230">
        <ele>787.4</ele>
        <time>2020-04-07T18:17:25Z</time>
      </trkpt>
      <trkpt lat="42.5053680" lon="-5.4218560">
        <ele>787.4</ele>
        <time>2020-04-07T18:17:27Z</time>
      </trkpt>
      <trkpt lat="42.5055010" lon="-5.4220650">
        <ele>787.6</ele>
        <time>2020-04-07T18:17:29Z</time>
      </trkpt>
      <trkpt lat="42.5055880" lon="-5.4221920">
        <ele>787.6</ele>
        <time>2020-04-07T18:17:31Z</time>
      </trkpt>
      <trkpt lat="42.5057380" lon="-5.4224030">
        <ele>787.6</ele>
        <time>2020-04-07T18:17:33Z</time>
      </trkpt>
      <trkpt lat="42.5058280" lon="-5.4225200">
        <ele>787.6</ele>
        <time>2020-04-07T18:17:35Z</time>
      </trkpt>
      <trkpt lat="42.5059880" lon="-5.4227300">
        <ele>787.6</ele>
        <time>2020-04-07T18:17:37Z</time>
      </trkpt>
      <trkpt lat="42.5060760" lon="-5.4228500">
        <ele>787.4</ele>
        <time>2020-04-07T18:17:39Z</time>
      </trkpt>
      <trkpt lat="42.5061670" lon="-5.4229750">
        <ele>787.2</ele>
        <time>2020-04-07T18:17:41Z</time>
      </trkpt>
      <trkpt lat="42.5063470" lon="-5.4232100">
        <ele>786.8</ele>
        <time>2020-04-07T18:17:43Z</time>
      </trkpt>
      <trkpt lat="42.5064510" lon="-5.4233270">
        <ele>786.6</ele>
        <time>2020-04-07T18:17:45Z</time>
      </trkpt>
      <trkpt lat="42.5066350" lon="-5.4235280">
        <ele>786.0</ele>
        <time>2020-04-07T18:17:47Z</time>
      </trkpt>
      <trkpt lat="42.5068080" lon="-5.4236980">
        <ele>785.6</ele>
        <time>2020-04-07T18:17:49Z</time>
      </trkpt>
      <trkpt lat="42.5069260" lon="-5.4238080">
        <ele>785.8</ele>
        <time>2020-04-07T18:17:51Z</time>
      </trkpt>
      <trkpt lat="42.5070370" lon="-5.4239120">
        <ele>785.8</ele>
        <time>2020-04-07T18:17:53Z</time>
      </trkpt>
      <trkpt lat="42.5072430" lon="-5.4241000">
        <ele>786.2</ele>
        <time>2020-04-07T18:17:55Z</time>
      </trkpt>
      <trkpt lat="42.5073760" lon="-5.4242180">
        <ele>786.2</ele>
        <time>2020-04-07T18:17:57Z</time>
      </trkpt>
      <trkpt lat="42.5074800" lon="-5.4243100">
        <ele>786.4</ele>
        <time>2020-04-07T18:17:59Z</time>
      </trkpt>
      <trkpt lat="42.5075830" lon="-5.4244000">
        <ele>786.4</ele>
        <time>2020-04-07T18:18:01Z</time>
      </trkpt>
      <trkpt lat="42.5078120" lon="-5.4245930">
        <ele>786.8</ele>
        <time>2020-04-07T18:18:03Z</time>
      </trkpt>
      <trkpt lat="42.5079170" lon="-5.4246660">
        <ele>787.0</ele>
        <time>2020-04-07T18:18:05Z</time>
      </trkpt>
      <trkpt lat="42.5080170" lon="-5.4247360">
        <ele>787.2</ele>
        <time>2020-04-07T18:18:07Z</time>
      </trkpt>
      <trkpt lat="42.5081160" lon="-5.4248050">
        <ele>787.2</ele>
        <time>2020-04-07T18:18:09Z</time>
      </trkpt>
      <trkpt lat="42.5082120" lon="-5.4248730">
        <ele>787.4</ele>
        <time>2020-04-07T18:18:11Z</time>
      </trkpt>
      <trkpt lat="42.5083050" lon="-5.4249380">
        <ele>787.6</ele>
        <time>2020-04-07T18:18:13Z</time>
      </trkpt>
      <trkpt lat="42.5086160" lon="-5.4251570">
        <ele>788.2</ele>
        <time>2020-04-07T18:18:15Z</time>
      </trkpt>
      <trkpt lat="42.5087110" lon="-5.4252270">
        <ele>788.0</ele>
        <time>2020-04-07T18:18:17Z</time>
      </trkpt>
      <trkpt lat="42.5088100" lon="-5.4253000">
        <ele>787.8</ele>
        <time>2020-04-07T18:18:19Z</time>
      </trkpt>
      <trkpt lat="42.5090220" lon="-5.4254560">
        <ele>787.6</ele>
        <time>2020-04-07T18:18:21Z</time>
      </trkpt>
      <trkpt lat="42.5091270" lon="-5.4255330">
        <ele>787.4</ele>
        <time>2020-04-07T18:18:23Z</time>
      </trkpt>
      <trkpt lat="42.5093040" lon="-5.4256640">
        <ele>787.2</ele>
        <time>2020-04-07T18:18:25Z</time>
      </trkpt>
      <trkpt lat="42.5094130" lon="-5.4257440">
        <ele>787.0</ele>
        <time>2020-04-07T18:18:27Z</time>
      </trkpt>
      <trkpt lat="42.5095240" lon="-5.4258250">
        <ele>786.8</ele>
        <time>2020-04-07T18:18:29Z</time>
      </trkpt>
      <trkpt lat="42.5097630" lon="-5.4260010">
        <ele>786.6</ele>
        <time>2020-04-07T18:18:31Z</time>
      </trkpt>
      <trkpt lat="42.5098770" lon="-5.4260810">
        <ele>786.4</ele>
        <time>2020-04-07T18:18:33Z</time>
      </trkpt>
      <trkpt lat="42.5100660" lon="-5.4262140">
        <ele>786.4</ele>
        <time>2020-04-07T18:18:35Z</time>
      </trkpt>
      <trkpt lat="42.5101830" lon="-5.4262960">
        <ele>786.4</ele>
        <time>2020-04-07T18:18:37Z</time>
      </trkpt>
      <trkpt lat="42.5103010" lon="-5.4263790">
        <ele>786.4</ele>
        <time>2020-04-07T18:18:39Z</time>
      </trkpt>
      <trkpt lat="42.5104200" lon="-5.4264630">
        <ele>786.2</ele>
        <time>2020-04-07T18:18:41Z</time>
      </trkpt>
      <trkpt lat="42.5106800" lon="-5.4266510">
        <ele>786.2</ele>
        <time>2020-04-07T18:18:43Z</time>
      </trkpt>
      <trkpt lat="42.5108610" lon="-5.4267880">
        <ele>786.2</ele>
        <time>2020-04-07T18:18:45Z</time>
      </trkpt>
      <trkpt lat="42.5109830" lon="-5.4268800">
        <ele>786.2</ele>
        <time>2020-04-07T18:18:47Z</time>
      </trkpt>
      <trkpt lat="42.5111060" lon="-5.4269720">
        <ele>786.2</ele>
        <time>2020-04-07T18:18:49Z</time>
      </trkpt>
      <trkpt lat="42.5112280" lon="-5.4270640">
        <ele>786.2</ele>
        <time>2020-04-07T18:18:51Z</time>
      </trkpt>
      <trkpt lat="42.5115480" lon="-5.4273060">
        <ele>786.2</ele>
        <time>2020-04-07T18:18:53Z</time>
      </trkpt>
      <trkpt lat="42.5116950" lon="-5.4274150">
        <ele>786.2</ele>
        <time>2020-04-07T18:18:55Z</time>
      </trkpt>
      <trkpt lat="42.5118180" lon="-5.4275040">
        <ele>786.2</ele>
        <time>2020-04-07T18:18:57Z</time>
      </trkpt>
      <trkpt lat="42.5119400" lon="-5.4275930">
        <ele>786.2</ele>
        <time>2020-04-07T18:18:59Z</time>
      </trkpt>
      <trkpt lat="42.5120610" lon="-5.4276810">
        <ele>786.4</ele>
        <time>2020-04-07T18:19:01Z</time>
      </trkpt>
      <trkpt lat="42.5123580" lon="-5.4278960">
        <ele>786.4</ele>
        <time>2020-04-07T18:19:03Z</time>
      </trkpt>
      <trkpt lat="42.5124790" lon="-5.4279840">
        <ele>786.6</ele>
        <time>2020-04-07T18:19:05Z</time>
      </trkpt>
      <trkpt lat="42.5126020" lon="-5.4280730">
        <ele>786.6</ele>
        <time>2020-04-07T18:19:07Z</time>
      </trkpt>
      <trkpt lat="42.5127250" lon="-5.4281620">
        <ele>786.6</ele>
        <time>2020-04-07T18:19:09Z</time>
      </trkpt>
      <trkpt lat="42.5128470" lon="-5.4282510">
        <ele>786.6</ele>
        <time>2020-04-07T18:19:11Z</time>
      </trkpt>
      <trkpt lat="42.5131670" lon="-5.4284830">
        <ele>786.8</ele>
        <time>2020-04-07T18:19:13Z</time>
      </trkpt>
      <trkpt lat="42.5132850" lon="-5.4285680">
        <ele>786.8</ele>
        <time>2020-04-07T18:19:15Z</time>
      </trkpt>
      <trkpt lat="42.5134030" lon="-5.4286540">
        <ele>787.0</ele>
        <time>2020-04-07T18:19:17Z</time>
      </trkpt>
      <trkpt lat="42.5135190" lon="-5.4287370">
        <ele>787.0</ele>
        <time>2020-04-07T18:19:19Z</time>
      </trkpt>
      <trkpt lat="42.5138340" lon="-5.4289660">
        <ele>787.2</ele>
        <time>2020-04-07T18:19:21Z</time>
      </trkpt>
      <trkpt lat="42.5139700" lon="-5.4290660">
        <ele>787.2</ele>
        <time>2020-04-07T18:19:23Z</time>
      </trkpt>
      <trkpt lat="42.5140830" lon="-5.4291490">
        <ele>787.4</ele>
        <time>2020-04-07T18:19:25Z</time>
      </trkpt>
      <trkpt lat="42.5141940" lon="-5.4292310">
        <ele>787.4</ele>
        <time>2020-04-07T18:19:27Z</time>
      </trkpt>
      <trkpt lat="42.5143060" lon="-5.4293130">
        <ele>787.4</ele>
        <time>2020-04-07T18:19:29Z</time>
      </trkpt>
      <trkpt lat="42.5145940" lon="-5.4295250">
        <ele>787.6</ele>
        <time>2020-04-07T18:19:31Z</time>
      </trkpt>
      <trkpt lat="42.5147040" lon="-5.4296060">
        <ele>787.8</ele>
        <time>2020-04-07T18:19:33Z</time>
      </trkpt>
      <trkpt lat="42.5148140" lon="-5.4296870">
        <ele>787.8</ele>
        <time>2020-04-07T18:19:35Z</time>
      </trkpt>
      <trkpt lat="42.5149220" lon="-5.4297670">
        <ele>788.0</ele>
        <time>2020-04-07T18:19:37Z</time>
      </trkpt>
      <trkpt lat="42.5150300" lon="-5.4298460">
        <ele>788.0</ele>
        <time>2020-04-07T18:19:39Z</time>
      </trkpt>
      <trkpt lat="42.5153360" lon="-5.4300720">
        <ele>788.2</ele>
        <time>2020-04-07T18:19:41Z</time>
      </trkpt>
      <trkpt lat="42.5154420" lon="-5.4301500">
        <ele>788.4</ele>
        <time>2020-04-07T18:19:43Z</time>
      </trkpt>
      <trkpt lat="42.5155490" lon="-5.4302290">
        <ele>788.4</ele>
        <time>2020-04-07T18:19:45Z</time>
      </trkpt>
      <trkpt lat="42.5156560" lon="-5.4303080">
        <ele>788.4</ele>
        <time>2020-04-07T18:19:47Z</time>
      </trkpt>
      <trkpt lat="42.5158950" lon="-5.4304840">
        <ele>788.6</ele>
        <time>2020-04-07T18:19:49Z</time>
      </trkpt>
      <trkpt lat="42.5160030" lon="-5.4305620">
        <ele>788.6</ele>
        <time>2020-04-07T18:19:51Z</time>
      </trkpt>
      <trkpt lat="42.5161780" lon="-5.4306910">
        <ele>788.6</ele>
        <time>2020-04-07T18:19:53Z</time>
      </trkpt>
      <trkpt lat="42.5162880" lon="-5.4307720">
        <ele>788.6</ele>
        <time>2020-04-07T18:19:55Z</time>
      </trkpt>
      <trkpt lat="42.5163980" lon="-5.4308530">
        <ele>788.6</ele>
        <time>2020-04-07T18:19:57Z</time>
      </trkpt>
      <trkpt lat="42.5165070" lon="-5.4309340">
        <ele>788.6</ele>
        <time>2020-04-07T18:19:59Z</time>
      </trkpt>
      <trkpt lat="42.5166190" lon="-5.4310160">
        <ele>788.6</ele>
        <time>2020-04-07T18:20:01Z</time>
      </trkpt>
      <trkpt lat="42.5169280" lon="-5.4312430">
        <ele>789.0</ele>
        <time>2020-04-07T18:20:03Z</time>
      </trkpt>
      <trkpt lat="42.5170350" lon="-5.4313210">
        <ele>789.2</ele>
        <time>2020-04-07T18:20:05Z</time>
      </trkpt>
      <trkpt lat="42.5171390" lon="-5.4313970">
        <ele>789.4</ele>
        <time>2020-04-07T18:20:07Z</time>
      </trkpt>
      <trkpt lat="42.5172400" lon="-5.4314720">
        <ele>789.8</ele>
        <time>2020-04-07T18:20:09Z</time>
      </trkpt>
      <trkpt lat="42.5173390" lon="-5.4315440">
        <ele>790.0</ele>
        <time>2020-04-07T18:20:11Z</time>
      </trkpt>
      <trkpt lat="42.5176340" lon="-5.4317610">
        <ele>790.8</ele>
        <time>2020-04-07T18:20:13Z</time>
      </trkpt>
      <trkpt lat="42.5177680" lon="-5.4318600">
        <ele>791.0</ele>
        <time>2020-04-07T18:20:15Z</time>
      </trkpt>
      <trkpt lat="42.5178620" lon="-5.4319300">
        <ele>791.0</ele>
        <time>2020-04-07T18:20:17Z</time>
      </trkpt>
      <trkpt lat="42.5179590" lon="-5.4320010">
        <ele>791.2</ele>
        <time>2020-04-07T18:20:19Z</time>
      </trkpt>
      <trkpt lat="42.5180570" lon="-5.4320740">
        <ele>791.2</ele>
        <time>2020-04-07T18:20:21Z</time>
      </trkpt>
      <trkpt lat="42.5181560" lon="-5.4321470">
        <ele>791.4</ele>
        <time>2020-04-07T18:20:23Z</time>
      </trkpt>
      <trkpt lat="42.5184170" lon="-5.4323410">
        <ele>791.6</ele>
        <time>2020-04-07T18:20:25Z</time>
      </trkpt>
      <trkpt lat="42.5185190" lon="-5.4324160">
        <ele>791.6</ele>
        <time>2020-04-07T18:20:27Z</time>
      </trkpt>
      <trkpt lat="42.5186980" lon="-5.4325480">
        <ele>791.8</ele>
        <time>2020-04-07T18:20:29Z</time>
      </trkpt>
      <trkpt lat="42.5188020" lon="-5.4326250">
        <ele>791.8</ele>
        <time>2020-04-07T18:20:31Z</time>
      </trkpt>
      <trkpt lat="42.5189070" lon="-5.4327010">
        <ele>791.8</ele>
        <time>2020-04-07T18:20:33Z</time>
      </trkpt>
      <trkpt lat="42.5191340" lon="-5.4328660">
        <ele>792.0</ele>
        <time>2020-04-07T18:20:35Z</time>
      </trkpt>
      <trkpt lat="42.5192410" lon="-5.4329450">
        <ele>792.2</ele>
        <time>2020-04-07T18:20:37Z</time>
      </trkpt>
      <trkpt lat="42.5193480" lon="-5.4330220">
        <ele>792.2</ele>
        <time>2020-04-07T18:20:39Z</time>
      </trkpt>
      <trkpt lat="42.5194570" lon="-5.4331020">
        <ele>792.2</ele>
        <time>2020-04-07T18:20:41Z</time>
      </trkpt>
      <trkpt lat="42.5195670" lon="-5.4331820">
        <ele>792.2</ele>
        <time>2020-04-07T18:20:43Z</time>
      </trkpt>
      <trkpt lat="42.5198750" lon="-5.4334060">
        <ele>792.4</ele>
        <time>2020-04-07T18:20:45Z</time>
      </trkpt>
      <trkpt lat="42.5199860" lon="-5.4334870">
        <ele>792.4</ele>
        <time>2020-04-07T18:20:47Z</time>
      </trkpt>
      <trkpt lat="42.5201650" lon="-5.4336170">
        <ele>792.4</ele>
        <time>2020-04-07T18:20:49Z</time>
      </trkpt>
      <trkpt lat="42.5202750" lon="-5.4336990">
        <ele>792.6</ele>
        <time>2020-04-07T18:20:51Z</time>
      </trkpt>
      <trkpt lat="42.5203860" lon="-5.4337800">
        <ele>792.6</ele>
        <time>2020-04-07T18:20:53Z</time>
      </trkpt>
      <trkpt lat="42.5204960" lon="-5.4338610">
        <ele>792.8</ele>
        <time>2020-04-07T18:20:55Z</time>
      </trkpt>
      <trkpt lat="42.5207380" lon="-5.4338300">
        <ele>793.0</ele>
        <time>2020-04-07T18:20:57Z</time>
      </trkpt>
      <trkpt lat="42.5209040" lon="-5.4337800">
        <ele>793.2</ele>
        <time>2020-04-07T18:20:59Z</time>
      </trkpt>
      <trkpt lat="42.5210600" lon="-5.4338720">
        <ele>793.2</ele>
        <time>2020-04-07T18:21:01Z</time>
      </trkpt>
      <trkpt lat="42.5211460" lon="-5.4340730">
        <ele>793.2</ele>
        <time>2020-04-07T18:21:03Z</time>
      </trkpt>
      <trkpt lat="42.5211300" lon="-5.4342750">
        <ele>793.4</ele>
        <time>2020-04-07T18:21:05Z</time>
      </trkpt>
      <trkpt lat="42.5212220" lon="-5.4343950">
        <ele>793.4</ele>
        <time>2020-04-07T18:21:07Z</time>
      </trkpt>
      <trkpt lat="42.5213340" lon="-5.4344780">
        <ele>793.4</ele>
        <time>2020-04-07T18:21:09Z</time>
      </trkpt>
      <trkpt lat="42.5215600" lon="-5.4346440">
        <ele>793.6</ele>
        <time>2020-04-07T18:21:11Z</time>
      </trkpt>
      <trkpt lat="42.5216720" lon="-5.4347270">
        <ele>793.6</ele>
        <time>2020-04-07T18:21:13Z</time>
      </trkpt>
      <trkpt lat="42.5217840" lon="-5.4348090">
        <ele>793.8</ele>
        <time>2020-04-07T18:21:15Z</time>
      </trkpt>
      <trkpt lat="42.5219870" lon="-5.4349570">
        <ele>793.8</ele>
        <time>2020-04-07T18:21:17Z</time>
      </trkpt>
      <trkpt lat="42.5220980" lon="-5.4350390">
        <ele>794.0</ele>
        <time>2020-04-07T18:21:19Z</time>
      </trkpt>
      <trkpt lat="42.5222080" lon="-5.4351190">
        <ele>794.0</ele>
        <time>2020-04-07T18:21:21Z</time>
      </trkpt>
      <trkpt lat="42.5223170" lon="-5.4352000">
        <ele>794.2</ele>
        <time>2020-04-07T18:21:23Z</time>
      </trkpt>
      <trkpt lat="42.5225920" lon="-5.4354020">
        <ele>794.4</ele>
        <time>2020-04-07T18:21:25Z</time>
      </trkpt>
      <trkpt lat="42.5227420" lon="-5.4355120">
        <ele>794.4</ele>
        <time>2020-04-07T18:21:27Z</time>
      </trkpt>
      <trkpt lat="42.5228510" lon="-5.4355930">
        <ele>794.6</ele>
        <time>2020-04-07T18:21:29Z</time>
      </trkpt>
      <trkpt lat="42.5230360" lon="-5.4357290">
        <ele>794.8</ele>
        <time>2020-04-07T18:21:31Z</time>
      </trkpt>
      <trkpt lat="42.5231450" lon="-5.4358090">
        <ele>794.8</ele>
        <time>2020-04-07T18:21:33Z</time>
      </trkpt>
      <trkpt lat="42.5232560" lon="-5.4358900">
        <ele>794.8</ele>
        <time>2020-04-07T18:21:35Z</time>
      </trkpt>
      <trkpt lat="42.5234950" lon="-5.4360670">
        <ele>795.0</ele>
        <time>2020-04-07T18:21:37Z</time>
      </trkpt>
      <trkpt lat="42.5236060" lon="-5.4361480">
        <ele>795.0</ele>
        <time>2020-04-07T18:21:39Z</time>
      </trkpt>
      <trkpt lat="42.5237190" lon="-5.4362310">
        <ele>795.0</ele>
        <time>2020-04-07T18:21:41Z</time>
      </trkpt>
      <trkpt lat="42.5238330" lon="-5.4363150">
        <ele>795.0</ele>
        <time>2020-04-07T18:21:43Z</time>
      </trkpt>
      <trkpt lat="42.5239480" lon="-5.4363990">
        <ele>795.0</ele>
        <time>2020-04-07T18:21:45Z</time>
      </trkpt>
      <trkpt lat="42.5242680" lon="-5.4366350">
        <ele>795.0</ele>
        <time>2020-04-07T18:21:47Z</time>
      </trkpt>
      <trkpt lat="42.5243830" lon="-5.4367200">
        <ele>795.0</ele>
        <time>2020-04-07T18:21:49Z</time>
      </trkpt>
      <trkpt lat="42.5245640" lon="-5.4368530">
        <ele>794.8</ele>
        <time>2020-04-07T18:21:51Z</time>
      </trkpt>
      <trkpt lat="42.5246820" lon="-5.4369390">
        <ele>794.8</ele>
        <time>2020-04-07T18:21:53Z</time>
      </trkpt>
      <trkpt lat="42.5248020" lon="-5.4370260">
        <ele>794.8</ele>
        <time>2020-04-07T18:21:55Z</time>
      </trkpt>
      <trkpt lat="42.5250640" lon="-5.4372170">
        <ele>794.6</ele>
        <time>2020-04-07T18:21:57Z</time>
      </trkpt>
      <trkpt lat="42.5251850" lon="-5.4373060">
        <ele>794.6</ele>
        <time>2020-04-07T18:21:59Z</time>
      </trkpt>
      <trkpt lat="42.5253060" lon="-5.4373940">
        <ele>794.6</ele>
        <time>2020-04-07T18:22:01Z</time>
      </trkpt>
      <trkpt lat="42.5255570" lon="-5.4375780">
        <ele>794.4</ele>
        <time>2020-04-07T18:22:03Z</time>
      </trkpt>
      <trkpt lat="42.5256800" lon="-5.4376670">
        <ele>794.4</ele>
        <time>2020-04-07T18:22:05Z</time>
      </trkpt>
      <trkpt lat="42.5258800" lon="-5.4378150">
        <ele>794.2</ele>
        <time>2020-04-07T18:22:07Z</time>
      </trkpt>
      <trkpt lat="42.5260040" lon="-5.4379060">
        <ele>794.2</ele>
        <time>2020-04-07T18:22:09Z</time>
      </trkpt>
      <trkpt lat="42.5261270" lon="-5.4379970">
        <ele>794.2</ele>
        <time>2020-04-07T18:22:11Z</time>
      </trkpt>
      <trkpt lat="42.5262520" lon="-5.4380880">
        <ele>794.2</ele>
        <time>2020-04-07T18:22:13Z</time>
      </trkpt>
      <trkpt lat="42.5263770" lon="-5.4381800">
        <ele>794.0</ele>
        <time>2020-04-07T18:22:15Z</time>
      </trkpt>
      <trkpt lat="42.5267050" lon="-5.4384220">
        <ele>794.0</ele>
        <time>2020-04-07T18:22:17Z</time>
      </trkpt>
      <trkpt lat="42.5268290" lon="-5.4385120">
        <ele>794.0</ele>
        <time>2020-04-07T18:22:19Z</time>
      </trkpt>
      <trkpt lat="42.5269520" lon="-5.4386030">
        <ele>794.0</ele>
        <time>2020-04-07T18:22:21Z</time>
      </trkpt>
      <trkpt lat="42.5270740" lon="-5.4386930">
        <ele>794.2</ele>
        <time>2020-04-07T18:22:23Z</time>
      </trkpt>
      <trkpt lat="42.5274010" lon="-5.4389330">
        <ele>794.2</ele>
        <time>2020-04-07T18:22:25Z</time>
      </trkpt>
      <trkpt lat="42.5275220" lon="-5.4390220">
        <ele>794.2</ele>
        <time>2020-04-07T18:22:27Z</time>
      </trkpt>
      <trkpt lat="42.5276430" lon="-5.4391110">
        <ele>794.2</ele>
        <time>2020-04-07T18:22:29Z</time>
      </trkpt>
      <trkpt lat="42.5277640" lon="-5.4392000">
        <ele>794.2</ele>
        <time>2020-04-07T18:22:31Z</time>
      </trkpt>
      <trkpt lat="42.5278830" lon="-5.4392880">
        <ele>794.2</ele>
        <time>2020-04-07T18:22:33Z</time>
      </trkpt>
      <trkpt lat="42.5282080" lon="-5.4395270">
        <ele>794.4</ele>
        <time>2020-04-07T18:22:35Z</time>
      </trkpt>
      <trkpt lat="42.5283280" lon="-5.4396150">
        <ele>794.4</ele>
        <time>2020-04-07T18:22:37Z</time>
      </trkpt>
      <trkpt lat="42.5284450" lon="-5.4397020">
        <ele>794.4</ele>
        <time>2020-04-07T18:22:39Z</time>
      </trkpt>
      <trkpt lat="42.5285640" lon="-5.4397890">
        <ele>794.4</ele>
        <time>2020-04-07T18:22:41Z</time>
      </trkpt>
      <trkpt lat="42.5286830" lon="-5.4398760">
        <ele>794.4</ele>
        <time>2020-04-07T18:22:43Z</time>
      </trkpt>
      <trkpt lat="42.5290060" lon="-5.4401140">
        <ele>794.4</ele>
        <time>2020-04-07T18:22:45Z</time>
      </trkpt>
      <trkpt lat="42.5291240" lon="-5.4402010">
        <ele>794.4</ele>
        <time>2020-04-07T18:22:47Z</time>
      </trkpt>
      <trkpt lat="42.5292420" lon="-5.4402870">
        <ele>794.4</ele>
        <time>2020-04-07T18:22:49Z</time>
      </trkpt>
      <trkpt lat="42.5293600" lon="-5.4403740">
        <ele>794.4</ele>
        <time>2020-04-07T18:22:51Z</time>
      </trkpt>
      <trkpt lat="42.5294780" lon="-5.4404610">
        <ele>794.4</ele>
        <time>2020-04-07T18:22:53Z</time>
      </trkpt>
      <trkpt lat="42.5298000" lon="-5.4406980">
        <ele>794.2</ele>
        <time>2020-04-07T18:22:55Z</time>
      </trkpt>
      <trkpt lat="42.5299190" lon="-5.4407850">
        <ele>794.2</ele>
        <time>2020-04-07T18:22:57Z</time>
      </trkpt>
      <trkpt lat="42.5300380" lon="-5.4408730">
        <ele>794.2</ele>
        <time>2020-04-07T18:22:59Z</time>
      </trkpt>
      <trkpt lat="42.5301580" lon="-5.4409610">
        <ele>794.2</ele>
        <time>2020-04-07T18:23:01Z</time>
      </trkpt>
      <trkpt lat="42.5304840" lon="-5.4412000">
        <ele>794.2</ele>
        <time>2020-04-07T18:23:03Z</time>
      </trkpt>
      <trkpt lat="42.5306040" lon="-5.4412880">
        <ele>794.2</ele>
        <time>2020-04-07T18:23:05Z</time>
      </trkpt>
      <trkpt lat="42.5307240" lon="-5.4413770">
        <ele>794.2</ele>
        <time>2020-04-07T18:23:07Z</time>
      </trkpt>
      <trkpt lat="42.5308450" lon="-5.4414660">
        <ele>794.0</ele>
        <time>2020-04-07T18:23:09Z</time>
      </trkpt>
      <trkpt lat="42.5309650" lon="-5.4415550">
        <ele>794.0</ele>
        <time>2020-04-07T18:23:11Z</time>
      </trkpt>
      <trkpt lat="42.5312930" lon="-5.4417960">
        <ele>794.0</ele>
        <time>2020-04-07T18:23:13Z</time>
      </trkpt>
      <trkpt lat="42.5314120" lon="-5.4418830">
        <ele>794.2</ele>
        <time>2020-04-07T18:23:15Z</time>
      </trkpt>
      <trkpt lat="42.5315300" lon="-5.4419700">
        <ele>794.4</ele>
        <time>2020-04-07T18:23:17Z</time>
      </trkpt>
      <trkpt lat="42.5316450" lon="-5.4420540">
        <ele>794.4</ele>
        <time>2020-04-07T18:23:19Z</time>
      </trkpt>
      <trkpt lat="42.5317600" lon="-5.4421380">
        <ele>794.6</ele>
        <time>2020-04-07T18:23:21Z</time>
      </trkpt>
      <trkpt lat="42.5320600" lon="-5.4423580">
        <ele>795.0</ele>
        <time>2020-04-07T18:23:23Z</time>
      </trkpt>
      <trkpt lat="42.5321720" lon="-5.4424400">
        <ele>795.2</ele>
        <time>2020-04-07T18:23:25Z</time>
      </trkpt>
      <trkpt lat="42.5323740" lon="-5.4425870">
        <ele>795.4</ele>
        <time>2020-04-07T18:23:27Z</time>
      </trkpt>
      <trkpt lat="42.5325230" lon="-5.4426930">
        <ele>795.6</ele>
        <time>2020-04-07T18:23:29Z</time>
      </trkpt>
      <trkpt lat="42.5326740" lon="-5.4428030">
        <ele>795.8</ele>
        <time>2020-04-07T18:23:31Z</time>
      </trkpt>
      <trkpt lat="42.5328000" lon="-5.4428950">
        <ele>795.8</ele>
        <time>2020-04-07T18:23:33Z</time>
      </trkpt>
      <trkpt lat="42.5329090" lon="-5.4429750">
        <ele>796.0</ele>
        <time>2020-04-07T18:23:35Z</time>
      </trkpt>
      <trkpt lat="42.5330190" lon="-5.4430550">
        <ele>796.0</ele>
        <time>2020-04-07T18:23:37Z</time>
      </trkpt>
      <trkpt lat="42.5331290" lon="-5.4431350">
        <ele>796.0</ele>
        <time>2020-04-07T18:23:39Z</time>
      </trkpt>
      <trkpt lat="42.5334280" lon="-5.4433540">
        <ele>796.2</ele>
        <time>2020-04-07T18:23:41Z</time>
      </trkpt>
      <trkpt lat="42.5335370" lon="-5.4434340">
        <ele>796.2</ele>
        <time>2020-04-07T18:23:43Z</time>
      </trkpt>
      <trkpt lat="42.5336480" lon="-5.4435150">
        <ele>796.4</ele>
        <time>2020-04-07T18:23:45Z</time>
      </trkpt>
      <trkpt lat="42.5337590" lon="-5.4435960">
        <ele>796.4</ele>
        <time>2020-04-07T18:23:47Z</time>
      </trkpt>
      <trkpt lat="42.5338710" lon="-5.4436780">
        <ele>796.4</ele>
        <time>2020-04-07T18:23:49Z</time>
      </trkpt>
      <trkpt lat="42.5341710" lon="-5.4438970">
        <ele>796.6</ele>
        <time>2020-04-07T18:23:51Z</time>
      </trkpt>
      <trkpt lat="42.5342830" lon="-5.4439800">
        <ele>796.6</ele>
        <time>2020-04-07T18:23:53Z</time>
      </trkpt>
      <trkpt lat="42.5343950" lon="-5.4440620">
        <ele>796.6</ele>
        <time>2020-04-07T18:23:55Z</time>
      </trkpt>
      <trkpt lat="42.5345080" lon="-5.4441450">
        <ele>796.6</ele>
        <time>2020-04-07T18:23:57Z</time>
      </trkpt>
      <trkpt lat="42.5346220" lon="-5.4442280">
        <ele>796.6</ele>
        <time>2020-04-07T18:23:59Z</time>
      </trkpt>
      <trkpt lat="42.5349260" lon="-5.4444510">
        <ele>796.8</ele>
        <time>2020-04-07T18:24:01Z</time>
      </trkpt>
      <trkpt lat="42.5350410" lon="-5.4445350">
        <ele>796.8</ele>
        <time>2020-04-07T18:24:03Z</time>
      </trkpt>
      <trkpt lat="42.5351570" lon="-5.4446190">
        <ele>796.8</ele>
        <time>2020-04-07T18:24:05Z</time>
      </trkpt>
      <trkpt lat="42.5353930" lon="-5.4447920">
        <ele>796.8</ele>
        <time>2020-04-07T18:24:07Z</time>
      </trkpt>
      <trkpt lat="42.5355090" lon="-5.4448780">
        <ele>796.8</ele>
        <time>2020-04-07T18:24:09Z</time>
      </trkpt>
      <trkpt lat="42.5356920" lon="-5.4450120">
        <ele>796.8</ele>
        <time>2020-04-07T18:24:11Z</time>
      </trkpt>
      <trkpt lat="42.5358070" lon="-5.4450970">
        <ele>797.0</ele>
        <time>2020-04-07T18:24:13Z</time>
      </trkpt>
      <trkpt lat="42.5359220" lon="-5.4451830">
        <ele>797.0</ele>
        <time>2020-04-07T18:24:15Z</time>
      </trkpt>
      <trkpt lat="42.5360370" lon="-5.4452670">
        <ele>797.0</ele>
        <time>2020-04-07T18:24:17Z</time>
      </trkpt>
      <trkpt lat="42.5363400" lon="-5.4454910">
        <ele>797.2</ele>
        <time>2020-04-07T18:24:19Z</time>
      </trkpt>
      <trkpt lat="42.5364530" lon="-5.4455740">
        <ele>797.4</ele>
        <time>2020-04-07T18:24:21Z</time>
      </trkpt>
      <trkpt lat="42.5366410" lon="-5.4457130">
        <ele>797.4</ele>
        <time>2020-04-07T18:24:23Z</time>
      </trkpt>
      <trkpt lat="42.5367520" lon="-5.4457940">
        <ele>797.4</ele>
        <time>2020-04-07T18:24:25Z</time>
      </trkpt>
      <trkpt lat="42.5368620" lon="-5.4458750">
        <ele>797.6</ele>
        <time>2020-04-07T18:24:27Z</time>
      </trkpt>
      <trkpt lat="42.5370860" lon="-5.4460390">
        <ele>797.6</ele>
        <time>2020-04-07T18:24:29Z</time>
      </trkpt>
      <trkpt lat="42.5371980" lon="-5.4461220">
        <ele>797.4</ele>
        <time>2020-04-07T18:24:31Z</time>
      </trkpt>
      <trkpt lat="42.5373110" lon="-5.4462050">
        <ele>797.4</ele>
        <time>2020-04-07T18:24:33Z</time>
      </trkpt>
      <trkpt lat="42.5374260" lon="-5.4462890">
        <ele>797.2</ele>
        <time>2020-04-07T18:24:35Z</time>
      </trkpt>
      <trkpt lat="42.5377060" lon="-5.4464930">
        <ele>797.0</ele>
        <time>2020-04-07T18:24:37Z</time>
      </trkpt>
      <trkpt lat="42.5378500" lon="-5.4465980">
        <ele>796.8</ele>
        <time>2020-04-07T18:24:39Z</time>
      </trkpt>
      <trkpt lat="42.5379700" lon="-5.4466860">
        <ele>796.6</ele>
        <time>2020-04-07T18:24:41Z</time>
      </trkpt>
      <trkpt lat="42.5380900" lon="-5.4467740">
        <ele>796.6</ele>
        <time>2020-04-07T18:24:43Z</time>
      </trkpt>
      <trkpt lat="42.5382100" lon="-5.4468620">
        <ele>796.4</ele>
        <time>2020-04-07T18:24:45Z</time>
      </trkpt>
      <trkpt lat="42.5385100" lon="-5.4470830">
        <ele>796.2</ele>
        <time>2020-04-07T18:24:47Z</time>
      </trkpt>
      <trkpt lat="42.5386340" lon="-5.4471740">
        <ele>796.2</ele>
        <time>2020-04-07T18:24:49Z</time>
      </trkpt>
      <trkpt lat="42.5387570" lon="-5.4472650">
        <ele>796.0</ele>
        <time>2020-04-07T18:24:51Z</time>
      </trkpt>
      <trkpt lat="42.5388820" lon="-5.4473570">
        <ele>796.0</ele>
        <time>2020-04-07T18:24:53Z</time>
      </trkpt>
      <trkpt lat="42.5391870" lon="-5.4475810">
        <ele>795.6</ele>
        <time>2020-04-07T18:24:55Z</time>
      </trkpt>
      <trkpt lat="42.5393730" lon="-5.4477170">
        <ele>795.6</ele>
        <time>2020-04-07T18:24:57Z</time>
      </trkpt>
      <trkpt lat="42.5394990" lon="-5.4478080">
        <ele>795.4</ele>
        <time>2020-04-07T18:24:59Z</time>
      </trkpt>
      <trkpt lat="42.5396240" lon="-5.4478990">
        <ele>795.4</ele>
        <time>2020-04-07T18:25:01Z</time>
      </trkpt>
      <trkpt lat="42.5398720" lon="-5.4480770">
        <ele>795.2</ele>
        <time>2020-04-07T18:25:03Z</time>
      </trkpt>
      <trkpt lat="42.5399950" lon="-5.4481630">
        <ele>795.2</ele>
        <time>2020-04-07T18:25:05Z</time>
      </trkpt>
      <trkpt lat="42.5402050" lon="-5.4482990">
        <ele>795.0</ele>
        <time>2020-04-07T18:25:07Z</time>
      </trkpt>
      <trkpt lat="42.5403870" lon="-5.4484020">
        <ele>795.0</ele>
        <time>2020-04-07T18:25:09Z</time>
      </trkpt>
      <trkpt lat="42.5405620" lon="-5.4484950">
        <ele>795.0</ele>
        <time>2020-04-07T18:25:11Z</time>
      </trkpt>
      <trkpt lat="42.5407390" lon="-5.4485680">
        <ele>794.8</ele>
        <time>2020-04-07T18:25:13Z</time>
      </trkpt>
      <trkpt lat="42.5408720" lon="-5.4486130">
        <ele>795.0</ele>
        <time>2020-04-07T18:25:15Z</time>
      </trkpt>
      <trkpt lat="42.5410830" lon="-5.4486780">
        <ele>795.0</ele>
        <time>2020-04-07T18:25:17Z</time>
      </trkpt>
      <trkpt lat="42.5412180" lon="-5.4487160">
        <ele>795.2</ele>
        <time>2020-04-07T18:25:19Z</time>
      </trkpt>
      <trkpt lat="42.5414590" lon="-5.4487850">
        <ele>795.2</ele>
        <time>2020-04-07T18:25:21Z</time>
      </trkpt>
      <trkpt lat="42.5415940" lon="-5.4488260">
        <ele>795.2</ele>
        <time>2020-04-07T18:25:23Z</time>
      </trkpt>
      <trkpt lat="42.5418300" lon="-5.4489060">
        <ele>795.6</ele>
        <time>2020-04-07T18:25:25Z</time>
      </trkpt>
      <trkpt lat="42.5420130" lon="-5.4489890">
        <ele>796.0</ele>
        <time>2020-04-07T18:25:27Z</time>
      </trkpt>
      <trkpt lat="42.5421710" lon="-5.4490860">
        <ele>796.4</ele>
        <time>2020-04-07T18:25:29Z</time>
      </trkpt>
      <trkpt lat="42.5423230" lon="-5.4491950">
        <ele>796.8</ele>
        <time>2020-04-07T18:25:31Z</time>
      </trkpt>
      <trkpt lat="42.5424620" lon="-5.4493130">
        <ele>797.2</ele>
        <time>2020-04-07T18:25:33Z</time>
      </trkpt>
      <trkpt lat="42.5426040" lon="-5.4494500">
        <ele>797.6</ele>
        <time>2020-04-07T18:25:35Z</time>
      </trkpt>
      <trkpt lat="42.5427310" lon="-5.4495870">
        <ele>797.8</ele>
        <time>2020-04-07T18:25:37Z</time>
      </trkpt>
      <trkpt lat="42.5428490" lon="-5.4497460">
        <ele>798.0</ele>
        <time>2020-04-07T18:25:39Z</time>
      </trkpt>
      <trkpt lat="42.5429510" lon="-5.4499050">
        <ele>798.2</ele>
        <time>2020-04-07T18:25:41Z</time>
      </trkpt>
      <trkpt lat="42.5430480" lon="-5.4500810">
        <ele>798.4</ele>
        <time>2020-04-07T18:25:43Z</time>
      </trkpt>
      <trkpt lat="42.5431520" lon="-5.4502940">
        <ele>798.6</ele>
        <time>2020-04-07T18:25:45Z</time>
      </trkpt>
      <trkpt lat="42.5432100" lon="-5.4504360">
        <ele>798.8</ele>
        <time>2020-04-07T18:25:47Z</time>
      </trkpt>
      <trkpt lat="42.5433040" lon="-5.4506920">
        <ele>799.0</ele>
        <time>2020-04-07T18:25:49Z</time>
      </trkpt>
      <trkpt lat="42.5433470" lon="-5.4508420">
        <ele>799.2</ele>
        <time>2020-04-07T18:25:51Z</time>
      </trkpt>
      <trkpt lat="42.5433900" lon="-5.4509910">
        <ele>799.4</ele>
        <time>2020-04-07T18:25:53Z</time>
      </trkpt>
      <trkpt lat="42.5434700" lon="-5.4512690">
        <ele>799.6</ele>
        <time>2020-04-07T18:25:55Z</time>
      </trkpt>
      <trkpt lat="42.5435130" lon="-5.4514180">
        <ele>799.8</ele>
        <time>2020-04-07T18:25:57Z</time>
      </trkpt>
      <trkpt lat="42.5435850" lon="-5.4516970">
        <ele>800.0</ele>
        <time>2020-04-07T18:25:59Z</time>
      </trkpt>
      <trkpt lat="42.5436200" lon="-5.4519100">
        <ele>800.2</ele>
        <time>2020-04-07T18:26:01Z</time>
      </trkpt>
      <trkpt lat="42.5436350" lon="-5.4521060">
        <ele>800.2</ele>
        <time>2020-04-07T18:26:03Z</time>
      </trkpt>
      <trkpt lat="42.5436540" lon="-5.4523350">
        <ele>800.2</ele>
        <time>2020-04-07T18:26:05Z</time>
      </trkpt>
      <trkpt lat="42.5436800" lon="-5.4525680">
        <ele>800.4</ele>
        <time>2020-04-07T18:26:07Z</time>
      </trkpt>
      <trkpt lat="42.5437060" lon="-5.4528130">
        <ele>800.4</ele>
        <time>2020-04-07T18:26:09Z</time>
      </trkpt>
      <trkpt lat="42.5437270" lon="-5.4529790">
        <ele>800.4</ele>
        <time>2020-04-07T18:26:11Z</time>
      </trkpt>
      <trkpt lat="42.5437640" lon="-5.4532620">
        <ele>800.4</ele>
        <time>2020-04-07T18:26:13Z</time>
      </trkpt>
      <trkpt lat="42.5437900" lon="-5.4534290">
        <ele>800.6</ele>
        <time>2020-04-07T18:26:15Z</time>
      </trkpt>
      <trkpt lat="42.5438160" lon="-5.4535960">
        <ele>800.6</ele>
        <time>2020-04-07T18:26:17Z</time>
      </trkpt>
      <trkpt lat="42.5438730" lon="-5.4539480">
        <ele>800.8</ele>
        <time>2020-04-07T18:26:19Z</time>
      </trkpt>
      <trkpt lat="42.5439030" lon="-5.4541140">
        <ele>801.0</ele>
        <time>2020-04-07T18:26:21Z</time>
      </trkpt>
      <trkpt lat="42.5439320" lon="-5.4542780">
        <ele>801.0</ele>
        <time>2020-04-07T18:26:23Z</time>
      </trkpt>
      <trkpt lat="42.5439620" lon="-5.4544440">
        <ele>801.2</ele>
        <time>2020-04-07T18:26:25Z</time>
      </trkpt>
      <trkpt lat="42.5440310" lon="-5.4547930">
        <ele>801.4</ele>
        <time>2020-04-07T18:26:27Z</time>
      </trkpt>
      <trkpt lat="42.5440830" lon="-5.4550210">
        <ele>801.6</ele>
        <time>2020-04-07T18:26:29Z</time>
      </trkpt>
      <trkpt lat="42.5441210" lon="-5.4551800">
        <ele>801.8</ele>
        <time>2020-04-07T18:26:31Z</time>
      </trkpt>
      <trkpt lat="42.5441880" lon="-5.4554710">
        <ele>802.2</ele>
        <time>2020-04-07T18:26:33Z</time>
      </trkpt>
      <trkpt lat="42.5442260" lon="-5.4557030">
        <ele>802.4</ele>
        <time>2020-04-07T18:26:35Z</time>
      </trkpt>
      <trkpt lat="42.5442500" lon="-5.4558610">
        <ele>802.6</ele>
        <time>2020-04-07T18:26:37Z</time>
      </trkpt>
      <trkpt lat="42.5442890" lon="-5.4561170">
        <ele>803.0</ele>
        <time>2020-04-07T18:26:39Z</time>
      </trkpt>
      <trkpt lat="42.5443210" lon="-5.4563440">
        <ele>803.2</ele>
        <time>2020-04-07T18:26:41Z</time>
      </trkpt>
      <trkpt lat="42.5443450" lon="-5.4564970">
        <ele>803.4</ele>
        <time>2020-04-07T18:26:43Z</time>
      </trkpt>
      <trkpt lat="42.5443690" lon="-5.4566500">
        <ele>803.6</ele>
        <time>2020-04-07T18:26:45Z</time>
      </trkpt>
      <trkpt lat="42.5443930" lon="-5.4568040">
        <ele>803.8</ele>
        <time>2020-04-07T18:26:47Z</time>
      </trkpt>
      <trkpt lat="42.5444500" lon="-5.4571270">
        <ele>804.0</ele>
        <time>2020-04-07T18:26:49Z</time>
      </trkpt>
      <trkpt lat="42.5445010" lon="-5.4573740">
        <ele>804.2</ele>
        <time>2020-04-07T18:26:51Z</time>
      </trkpt>
      <trkpt lat="42.5445470" lon="-5.4575570">
        <ele>804.4</ele>
        <time>2020-04-07T18:26:53Z</time>
      </trkpt>
      <trkpt lat="42.5446030" lon="-5.4577380">
        <ele>804.6</ele>
        <time>2020-04-07T18:26:55Z</time>
      </trkpt>
      <trkpt lat="42.5446890" lon="-5.4579580">
        <ele>804.8</ele>
        <time>2020-04-07T18:26:57Z</time>
      </trkpt>
      <trkpt lat="42.5447780" lon="-5.4581210">
        <ele>805.0</ele>
        <time>2020-04-07T18:26:59Z</time>
      </trkpt>
      <trkpt lat="42.5448730" lon="-5.4582670">
        <ele>805.0</ele>
        <time>2020-04-07T18:27:01Z</time>
      </trkpt>
      <trkpt lat="42.5449530" lon="-5.4583890">
        <ele>805.2</ele>
        <time>2020-04-07T18:27:03Z</time>
      </trkpt>
      <trkpt lat="42.5450920" lon="-5.4585910">
        <ele>805.2</ele>
        <time>2020-04-07T18:27:05Z</time>
      </trkpt>
      <trkpt lat="42.5451790" lon="-5.4587110">
        <ele>805.2</ele>
        <time>2020-04-07T18:27:07Z</time>
      </trkpt>
      <trkpt lat="42.5453450" lon="-5.4589400">
        <ele>805.4</ele>
        <time>2020-04-07T18:27:09Z</time>
      </trkpt>
      <trkpt lat="42.5454540" lon="-5.4590900">
        <ele>805.4</ele>
        <time>2020-04-07T18:27:11Z</time>
      </trkpt>
      <trkpt lat="42.5455420" lon="-5.4592120">
        <ele>805.4</ele>
        <time>2020-04-07T18:27:13Z</time>
      </trkpt>
      <trkpt lat="42.5456990" lon="-5.4594300">
        <ele>805.4</ele>
        <time>2020-04-07T18:27:15Z</time>
      </trkpt>
      <trkpt lat="42.5457870" lon="-5.4595560">
        <ele>805.4</ele>
        <time>2020-04-07T18:27:17Z</time>
      </trkpt>
      <trkpt lat="42.5459200" lon="-5.4597500">
        <ele>805.4</ele>
        <time>2020-04-07T18:27:19Z</time>
      </trkpt>
      <trkpt lat="42.5460460" lon="-5.4599330">
        <ele>805.6</ele>
        <time>2020-04-07T18:27:21Z</time>
      </trkpt>
      <trkpt lat="42.5461340" lon="-5.4600610">
        <ele>805.6</ele>
        <time>2020-04-07T18:27:23Z</time>
      </trkpt>
      <trkpt lat="42.5462840" lon="-5.4602750">
        <ele>805.6</ele>
        <time>2020-04-07T18:27:25Z</time>
      </trkpt>
      <trkpt lat="42.5464080" lon="-5.4604460">
        <ele>805.6</ele>
        <time>2020-04-07T18:27:27Z</time>
      </trkpt>
      <trkpt lat="42.5465010" lon="-5.4605730">
        <ele>805.6</ele>
        <time>2020-04-07T18:27:29Z</time>
      </trkpt>
      <trkpt lat="42.5465920" lon="-5.4606990">
        <ele>805.6</ele>
        <time>2020-04-07T18:27:31Z</time>
      </trkpt>
      <trkpt lat="42.5466840" lon="-5.4608260">
        <ele>805.6</ele>
        <time>2020-04-07T18:27:33Z</time>
      </trkpt>
      <trkpt lat="42.5469100" lon="-5.4611360">
        <ele>805.6</ele>
        <time>2020-04-07T18:27:35Z</time>
      </trkpt>
      <trkpt lat="42.5470030" lon="-5.4612650">
        <ele>805.6</ele>
        <time>2020-04-07T18:27:37Z</time>
      </trkpt>
      <trkpt lat="42.5470970" lon="-5.4613940">
        <ele>805.6</ele>
        <time>2020-04-07T18:27:39Z</time>
      </trkpt>
      <trkpt lat="42.5471910" lon="-5.4615240">
        <ele>805.6</ele>
        <time>2020-04-07T18:27:41Z</time>
      </trkpt>
      <trkpt lat="42.5474210" lon="-5.4618410">
        <ele>805.4</ele>
        <time>2020-04-07T18:27:43Z</time>
      </trkpt>
      <trkpt lat="42.5475470" lon="-5.4620150">
        <ele>805.4</ele>
        <time>2020-04-07T18:27:45Z</time>
      </trkpt>
      <trkpt lat="42.5476410" lon="-5.4621460">
        <ele>805.4</ele>
        <time>2020-04-07T18:27:47Z</time>
      </trkpt>
      <trkpt lat="42.5477350" lon="-5.4622760">
        <ele>805.2</ele>
        <time>2020-04-07T18:27:49Z</time>
      </trkpt>
      <trkpt lat="42.5479540" lon="-5.4623870">
        <ele>805.2</ele>
        <time>2020-04-07T18:27:51Z</time>
      </trkpt>
      <trkpt lat="42.5480440" lon="-5.4625140">
        <ele>805.2</ele>
        <time>2020-04-07T18:27:53Z</time>
      </trkpt>
      <trkpt lat="42.5481740" lon="-5.4626960">
        <ele>805.2</ele>
        <time>2020-04-07T18:27:55Z</time>
      </trkpt>
      <trkpt lat="42.5482620" lon="-5.4628210">
        <ele>805.2</ele>
        <time>2020-04-07T18:27:57Z</time>
      </trkpt>
      <trkpt lat="42.5483500" lon="-5.4629450">
        <ele>805.2</ele>
        <time>2020-04-07T18:27:59Z</time>
      </trkpt>
      <trkpt lat="42.5484370" lon="-5.4630670">
        <ele>805.2</ele>
        <time>2020-04-07T18:28:01Z</time>
      </trkpt>
      <trkpt lat="42.5486710" lon="-5.4633970">
        <ele>805.2</ele>
        <time>2020-04-07T18:28:03Z</time>
      </trkpt>
      <trkpt lat="42.5487580" lon="-5.4635200">
        <ele>805.2</ele>
        <time>2020-04-07T18:28:05Z</time>
      </trkpt>
      <trkpt lat="42.5488460" lon="-5.4636450">
        <ele>805.0</ele>
        <time>2020-04-07T18:28:07Z</time>
      </trkpt>
      <trkpt lat="42.5489360" lon="-5.4637720">
        <ele>804.8</ele>
        <time>2020-04-07T18:28:09Z</time>
      </trkpt>
      <trkpt lat="42.5490270" lon="-5.4639000">
        <ele>804.8</ele>
        <time>2020-04-07T18:28:11Z</time>
      </trkpt>
      <trkpt lat="42.5492660" lon="-5.4642360">
        <ele>804.4</ele>
        <time>2020-04-07T18:28:13Z</time>
      </trkpt>
      <trkpt lat="42.5493580" lon="-5.4643670">
        <ele>804.2</ele>
        <time>2020-04-07T18:28:15Z</time>
      </trkpt>
      <trkpt lat="42.5495340" lon="-5.4646130">
        <ele>804.0</ele>
        <time>2020-04-07T18:28:17Z</time>
      </trkpt>
      <trkpt lat="42.5496520" lon="-5.4647800">
        <ele>803.8</ele>
        <time>2020-04-07T18:28:19Z</time>
      </trkpt>
      <trkpt lat="42.5497860" lon="-5.4649690">
        <ele>803.6</ele>
        <time>2020-04-07T18:28:21Z</time>
      </trkpt>
      <trkpt lat="42.5498780" lon="-5.4650990">
        <ele>803.8</ele>
        <time>2020-04-07T18:28:23Z</time>
      </trkpt>
      <trkpt lat="42.5499670" lon="-5.4652240">
        <ele>804.0</ele>
        <time>2020-04-07T18:28:25Z</time>
      </trkpt>
      <trkpt lat="42.5500530" lon="-5.4653450">
        <ele>804.2</ele>
        <time>2020-04-07T18:28:27Z</time>
      </trkpt>
      <trkpt lat="42.5502540" lon="-5.4656270">
        <ele>804.6</ele>
        <time>2020-04-07T18:28:29Z</time>
      </trkpt>
      <trkpt lat="42.5503640" lon="-5.4657830">
        <ele>805.0</ele>
        <time>2020-04-07T18:28:31Z</time>
      </trkpt>
      <trkpt lat="42.5504440" lon="-5.4658950">
        <ele>805.2</ele>
        <time>2020-04-07T18:28:33Z</time>
      </trkpt>
      <trkpt lat="42.5505210" lon="-5.4660050">
        <ele>805.2</ele>
        <time>2020-04-07T18:28:35Z</time>
      </trkpt>
      <trkpt lat="42.5506710" lon="-5.4662150">
        <ele>805.6</ele>
        <time>2020-04-07T18:28:37Z</time>
      </trkpt>
      <trkpt lat="42.5507460" lon="-5.4663220">
        <ele>805.6</ele>
        <time>2020-04-07T18:28:39Z</time>
      </trkpt>
      <trkpt lat="42.5508970" lon="-5.4665120">
        <ele>805.8</ele>
        <time>2020-04-07T18:28:41Z</time>
      </trkpt>
      <trkpt lat="42.5510190" lon="-5.4664310">
        <ele>806.0</ele>
        <time>2020-04-07T18:28:43Z</time>
      </trkpt>
      <trkpt lat="42.5511650" lon="-5.4664400">
        <ele>806.0</ele>
        <time>2020-04-07T18:28:45Z</time>
      </trkpt>
      <trkpt lat="42.5512840" lon="-5.4665080">
        <ele>806.2</ele>
        <time>2020-04-07T18:28:47Z</time>
      </trkpt>
      <trkpt lat="42.5514080" lon="-5.4666180">
        <ele>806.2</ele>
        <time>2020-04-07T18:28:49Z</time>
      </trkpt>
      <trkpt lat="42.5515230" lon="-5.4667420">
        <ele>806.4</ele>
        <time>2020-04-07T18:28:51Z</time>
      </trkpt>
      <trkpt lat="42.5516020" lon="-5.4668310">
        <ele>806.4</ele>
        <time>2020-04-07T18:28:53Z</time>
      </trkpt>
      <trkpt lat="42.5516800" lon="-5.4669210">
        <ele>806.6</ele>
        <time>2020-04-07T18:28:55Z</time>
      </trkpt>
      <trkpt lat="42.5517560" lon="-5.4670070">
        <ele>806.6</ele>
        <time>2020-04-07T18:28:57Z</time>
      </trkpt>
      <trkpt lat="42.5518340" lon="-5.4670970">
        <ele>806.8</ele>
        <time>2020-04-07T18:28:59Z</time>
      </trkpt>
      <trkpt lat="42.5520490" lon="-5.4673380">
        <ele>807.0</ele>
        <time>2020-04-07T18:29:01Z</time>
      </trkpt>
      <trkpt lat="42.5521310" lon="-5.4674220">
        <ele>807.2</ele>
        <time>2020-04-07T18:29:03Z</time>
      </trkpt>
      <trkpt lat="42.5522680" lon="-5.4675640">
        <ele>807.4</ele>
        <time>2020-04-07T18:29:05Z</time>
      </trkpt>
      <trkpt lat="42.5523480" lon="-5.4676520">
        <ele>807.4</ele>
        <time>2020-04-07T18:29:07Z</time>
      </trkpt>
      <trkpt lat="42.5524860" lon="-5.4678030">
        <ele>807.6</ele>
        <time>2020-04-07T18:29:09Z</time>
      </trkpt>
      <trkpt lat="42.5526100" lon="-5.4679320">
        <ele>808.0</ele>
        <time>2020-04-07T18:29:11Z</time>
      </trkpt>
      <trkpt lat="42.5526930" lon="-5.4680110">
        <ele>808.2</ele>
        <time>2020-04-07T18:29:13Z</time>
      </trkpt>
      <trkpt lat="42.5527700" lon="-5.4680850">
        <ele>808.6</ele>
        <time>2020-04-07T18:29:15Z</time>
      </trkpt>
      <trkpt lat="42.5528450" lon="-5.4681570">
        <ele>809.0</ele>
        <time>2020-04-07T18:29:17Z</time>
      </trkpt>
      <trkpt lat="42.5529170" lon="-5.4682260">
        <ele>809.4</ele>
        <time>2020-04-07T18:29:19Z</time>
      </trkpt>
      <trkpt lat="42.5531160" lon="-5.4684170">
        <ele>810.2</ele>
        <time>2020-04-07T18:29:21Z</time>
      </trkpt>
      <trkpt lat="42.5531990" lon="-5.4684950">
        <ele>810.6</ele>
        <time>2020-04-07T18:29:23Z</time>
      </trkpt>
      <trkpt lat="42.5532650" lon="-5.4685570">
        <ele>811.0</ele>
        <time>2020-04-07T18:29:25Z</time>
      </trkpt>
      <trkpt lat="42.5533300" lon="-5.4686170">
        <ele>811.2</ele>
        <time>2020-04-07T18:29:27Z</time>
      </trkpt>
      <trkpt lat="42.5533940" lon="-5.4686770">
        <ele>811.4</ele>
        <time>2020-04-07T18:29:29Z</time>
      </trkpt>
      <trkpt lat="42.5534560" lon="-5.4687350">
        <ele>811.8</ele>
        <time>2020-04-07T18:29:31Z</time>
      </trkpt>
      <trkpt lat="42.5536300" lon="-5.4689090">
        <ele>812.6</ele>
        <time>2020-04-07T18:29:33Z</time>
      </trkpt>
      <trkpt lat="42.5536850" lon="-5.4689780">
        <ele>812.8</ele>
        <time>2020-04-07T18:29:35Z</time>
      </trkpt>
      <trkpt lat="42.5537740" lon="-5.4690980">
        <ele>813.2</ele>
        <time>2020-04-07T18:29:37Z</time>
      </trkpt>
      <trkpt lat="42.5538310" lon="-5.4691810">
        <ele>813.2</ele>
        <time>2020-04-07T18:29:39Z</time>
      </trkpt>
      <trkpt lat="42.5539420" lon="-5.4693420">
        <ele>813.6</ele>
        <time>2020-04-07T18:29:41Z</time>
      </trkpt>
      <trkpt lat="42.5540030" lon="-5.4694310">
        <ele>813.6</ele>
        <time>2020-04-07T18:29:43Z</time>
      </trkpt>
      <trkpt lat="42.5540660" lon="-5.4695220">
        <ele>813.8</ele>
        <time>2020-04-07T18:29:45Z</time>
      </trkpt>
      <trkpt lat="42.5541300" lon="-5.4696150">
        <ele>813.8</ele>
        <time>2020-04-07T18:29:47Z</time>
      </trkpt>
      <trkpt lat="42.5542820" lon="-5.4698250">
        <ele>814.2</ele>
        <time>2020-04-07T18:29:49Z</time>
      </trkpt>
      <trkpt lat="42.5543950" lon="-5.4699250">
        <ele>814.4</ele>
        <time>2020-04-07T18:29:51Z</time>
      </trkpt>
      <trkpt lat="42.5544680" lon="-5.4700510">
        <ele>814.4</ele>
        <time>2020-04-07T18:29:53Z</time>
      </trkpt>
      <trkpt lat="42.5545630" lon="-5.4701490">
        <ele>814.6</ele>
        <time>2020-04-07T18:29:55Z</time>
      </trkpt>
      <trkpt lat="42.5546450" lon="-5.4702280">
        <ele>814.6</ele>
        <time>2020-04-07T18:29:57Z</time>
      </trkpt>
      <trkpt lat="42.5547770" lon="-5.4704020">
        <ele>814.6</ele>
        <time>2020-04-07T18:29:59Z</time>
      </trkpt>
      <trkpt lat="42.5548440" lon="-5.4705940">
        <ele>814.6</ele>
        <time>2020-04-07T18:30:01Z</time>
      </trkpt>
      <trkpt lat="42.5549410" lon="-5.4707260">
        <ele>814.8</ele>
        <time>2020-04-07T18:30:03Z</time>
      </trkpt>
      <trkpt lat="42.5550560" lon="-5.4708700">
        <ele>814.8</ele>
        <time>2020-04-07T18:30:05Z</time>
      </trkpt>
      <trkpt lat="42.5551520" lon="-5.4710190">
        <ele>814.8</ele>
        <time>2020-04-07T18:30:07Z</time>
      </trkpt>
      <trkpt lat="42.5552220" lon="-5.4711360">
        <ele>814.8</ele>
        <time>2020-04-07T18:30:09Z</time>
      </trkpt>
      <trkpt lat="42.5552930" lon="-5.4712550">
        <ele>815.0</ele>
        <time>2020-04-07T18:30:11Z</time>
      </trkpt>
      <trkpt lat="42.5554320" lon="-5.4714930">
        <ele>815.0</ele>
        <time>2020-04-07T18:30:13Z</time>
      </trkpt>
      <trkpt lat="42.5554980" lon="-5.4716170">
        <ele>815.0</ele>
        <time>2020-04-07T18:30:15Z</time>
      </trkpt>
      <trkpt lat="42.5555650" lon="-5.4717430">
        <ele>815.2</ele>
        <time>2020-04-07T18:30:17Z</time>
      </trkpt>
      <trkpt lat="42.5556320" lon="-5.4718700">
        <ele>815.2</ele>
        <time>2020-04-07T18:30:19Z</time>
      </trkpt>
      <trkpt lat="42.5557680" lon="-5.4721620">
        <ele>815.4</ele>
        <time>2020-04-07T18:30:21Z</time>
      </trkpt>
      <trkpt lat="42.5558210" lon="-5.4723000">
        <ele>815.4</ele>
        <time>2020-04-07T18:30:23Z</time>
      </trkpt>
      <trkpt lat="42.5559350" lon="-5.4725690">
        <ele>815.6</ele>
        <time>2020-04-07T18:30:25Z</time>
      </trkpt>
      <trkpt lat="42.5560180" lon="-5.4727240">
        <ele>815.8</ele>
        <time>2020-04-07T18:30:27Z</time>
      </trkpt>
      <trkpt lat="42.5560910" lon="-5.4728400">
        <ele>815.8</ele>
        <time>2020-04-07T18:30:29Z</time>
      </trkpt>
      <trkpt lat="42.5562170" lon="-5.4730460">
        <ele>816.0</ele>
        <time>2020-04-07T18:30:31Z</time>
      </trkpt>
      <trkpt lat="42.5562850" lon="-5.4732090">
        <ele>816.0</ele>
        <time>2020-04-07T18:30:33Z</time>
      </trkpt>
      <trkpt lat="42.5563380" lon="-5.4733870">
        <ele>816.2</ele>
        <time>2020-04-07T18:30:35Z</time>
      </trkpt>
      <trkpt lat="42.5563780" lon="-5.4735300">
        <ele>816.2</ele>
        <time>2020-04-07T18:30:37Z</time>
      </trkpt>
      <trkpt lat="42.5564180" lon="-5.4736720">
        <ele>816.2</ele>
        <time>2020-04-07T18:30:39Z</time>
      </trkpt>
      <trkpt lat="42.5564570" lon="-5.4738140">
        <ele>816.4</ele>
        <time>2020-04-07T18:30:41Z</time>
      </trkpt>
      <trkpt lat="42.5565570" lon="-5.4741620">
        <ele>816.4</ele>
        <time>2020-04-07T18:30:43Z</time>
      </trkpt>
      <trkpt lat="42.5566420" lon="-5.4743820">
        <ele>816.6</ele>
        <time>2020-04-07T18:30:45Z</time>
      </trkpt>
      <trkpt lat="42.5566940" lon="-5.4745200">
        <ele>816.6</ele>
        <time>2020-04-07T18:30:47Z</time>
      </trkpt>
      <trkpt lat="42.5567460" lon="-5.4746590">
        <ele>816.6</ele>
        <time>2020-04-07T18:30:49Z</time>
      </trkpt>
      <trkpt lat="42.5567990" lon="-5.4747980">
        <ele>816.8</ele>
        <time>2020-04-07T18:30:51Z</time>
      </trkpt>
      <trkpt lat="42.5568520" lon="-5.4749370">
        <ele>816.8</ele>
        <time>2020-04-07T18:30:53Z</time>
      </trkpt>
      <trkpt lat="42.5569910" lon="-5.4752840">
        <ele>817.0</ele>
        <time>2020-04-07T18:30:55Z</time>
      </trkpt>
      <trkpt lat="42.5570790" lon="-5.4754630">
        <ele>817.0</ele>
        <time>2020-04-07T18:30:57Z</time>
      </trkpt>
      <trkpt lat="42.5571870" lon="-5.4756410">
        <ele>817.2</ele>
        <time>2020-04-07T18:30:59Z</time>
      </trkpt>
      <trkpt lat="42.5572780" lon="-5.4757710">
        <ele>817.4</ele>
        <time>2020-04-07T18:31:01Z</time>
      </trkpt>
      <trkpt lat="42.5573560" lon="-5.4758810">
        <ele>817.4</ele>
        <time>2020-04-07T18:31:03Z</time>
      </trkpt>
      <trkpt lat="42.5574330" lon="-5.4759900">
        <ele>817.6</ele>
        <time>2020-04-07T18:31:05Z</time>
      </trkpt>
      <trkpt lat="42.5575950" lon="-5.4762180">
        <ele>817.8</ele>
        <time>2020-04-07T18:31:07Z</time>
      </trkpt>
      <trkpt lat="42.5576710" lon="-5.4763250">
        <ele>818.0</ele>
        <time>2020-04-07T18:31:09Z</time>
      </trkpt>
      <trkpt lat="42.5578080" lon="-5.4765240">
        <ele>818.2</ele>
        <time>2020-04-07T18:31:11Z</time>
      </trkpt>
      <trkpt lat="42.5578790" lon="-5.4766370">
        <ele>818.4</ele>
        <time>2020-04-07T18:31:13Z</time>
      </trkpt>
      <trkpt lat="42.5579500" lon="-5.4767500">
        <ele>818.6</ele>
        <time>2020-04-07T18:31:15Z</time>
      </trkpt>
      <trkpt lat="42.5580970" lon="-5.4769870">
        <ele>818.8</ele>
        <time>2020-04-07T18:31:17Z</time>
      </trkpt>
      <trkpt lat="42.5581660" lon="-5.4771020">
        <ele>818.8</ele>
        <time>2020-04-07T18:31:19Z</time>
      </trkpt>
      <trkpt lat="42.5582340" lon="-5.4772180">
        <ele>818.8</ele>
        <time>2020-04-07T18:31:21Z</time>
      </trkpt>
      <trkpt lat="42.5583770" lon="-5.4774610">
        <ele>819.0</ele>
        <time>2020-04-07T18:31:23Z</time>
      </trkpt>
      <trkpt lat="42.5584440" lon="-5.4775790">
        <ele>819.0</ele>
        <time>2020-04-07T18:31:25Z</time>
      </trkpt>
      <trkpt lat="42.5585130" lon="-5.4776990">
        <ele>819.2</ele>
        <time>2020-04-07T18:31:27Z</time>
      </trkpt>
      <trkpt lat="42.5586510" lon="-5.4779450">
        <ele>819.4</ele>
        <time>2020-04-07T18:31:29Z</time>
      </trkpt>
      <trkpt lat="42.5587130" lon="-5.4780670">
        <ele>819.4</ele>
        <time>2020-04-07T18:31:31Z</time>
      </trkpt>
      <trkpt lat="42.5588180" lon="-5.4782780">
        <ele>819.8</ele>
        <time>2020-04-07T18:31:33Z</time>
      </trkpt>
      <trkpt lat="42.5588740" lon="-5.4784000">
        <ele>820.0</ele>
        <time>2020-04-07T18:31:35Z</time>
      </trkpt>
      <trkpt lat="42.5589300" lon="-5.4785210">
        <ele>820.2</ele>
        <time>2020-04-07T18:31:37Z</time>
      </trkpt>
      <trkpt lat="42.5589840" lon="-5.4786390">
        <ele>820.4</ele>
        <time>2020-04-07T18:31:39Z</time>
      </trkpt>
      <trkpt lat="42.5591170" lon="-5.4789220">
        <ele>820.8</ele>
        <time>2020-04-07T18:31:41Z</time>
      </trkpt>
      <trkpt lat="42.5592020" lon="-5.4790830">
        <ele>821.0</ele>
        <time>2020-04-07T18:31:43Z</time>
      </trkpt>
      <trkpt lat="42.5592620" lon="-5.4791870">
        <ele>821.2</ele>
        <time>2020-04-07T18:31:45Z</time>
      </trkpt>
      <trkpt lat="42.5593640" lon="-5.4793540">
        <ele>821.8</ele>
        <time>2020-04-07T18:31:47Z</time>
      </trkpt>
      <trkpt lat="42.5594280" lon="-5.4794460">
        <ele>822.0</ele>
        <time>2020-04-07T18:31:49Z</time>
      </trkpt>
      <trkpt lat="42.5595410" lon="-5.4795940">
        <ele>822.6</ele>
        <time>2020-04-07T18:31:51Z</time>
      </trkpt>
      <trkpt lat="42.5596120" lon="-5.4796670">
        <ele>822.8</ele>
        <time>2020-04-07T18:31:53Z</time>
      </trkpt>
      <trkpt lat="42.5596810" lon="-5.4797370">
        <ele>823.0</ele>
        <time>2020-04-07T18:31:55Z</time>
      </trkpt>
      <trkpt lat="42.5597500" lon="-5.4798080">
        <ele>823.4</ele>
        <time>2020-04-07T18:31:57Z</time>
      </trkpt>
      <trkpt lat="42.5599110" lon="-5.4799680">
        <ele>823.6</ele>
        <time>2020-04-07T18:31:59Z</time>
      </trkpt>
      <trkpt lat="42.5599840" lon="-5.4800390">
        <ele>823.8</ele>
        <time>2020-04-07T18:32:01Z</time>
      </trkpt>
      <trkpt lat="42.5600570" lon="-5.4801110">
        <ele>823.8</ele>
        <time>2020-04-07T18:32:03Z</time>
      </trkpt>
      <trkpt lat="42.5601320" lon="-5.4801830">
        <ele>823.8</ele>
        <time>2020-04-07T18:32:05Z</time>
      </trkpt>
      <trkpt lat="42.5603360" lon="-5.4803810">
        <ele>823.8</ele>
        <time>2020-04-07T18:32:07Z</time>
      </trkpt>
      <trkpt lat="42.5604340" lon="-5.4804780">
        <ele>824.0</ele>
        <time>2020-04-07T18:32:09Z</time>
      </trkpt>
      <trkpt lat="42.5605080" lon="-5.4805540">
        <ele>824.0</ele>
        <time>2020-04-07T18:32:11Z</time>
      </trkpt>
      <trkpt lat="42.5605840" lon="-5.4806310">
        <ele>824.0</ele>
        <time>2020-04-07T18:32:13Z</time>
      </trkpt>
      <trkpt lat="42.5606600" lon="-5.4807090">
        <ele>824.0</ele>
        <time>2020-04-07T18:32:15Z</time>
      </trkpt>
      <trkpt lat="42.5608400" lon="-5.4809010">
        <ele>824.0</ele>
        <time>2020-04-07T18:32:17Z</time>
      </trkpt>
      <trkpt lat="42.5609390" lon="-5.4810360">
        <ele>824.2</ele>
        <time>2020-04-07T18:32:19Z</time>
      </trkpt>
      <trkpt lat="42.5610050" lon="-5.4811390">
        <ele>824.0</ele>
        <time>2020-04-07T18:32:21Z</time>
      </trkpt>
      <trkpt lat="42.5610740" lon="-5.4812450">
        <ele>823.8</ele>
        <time>2020-04-07T18:32:23Z</time>
      </trkpt>
      <trkpt lat="42.5612160" lon="-5.4814620">
        <ele>823.2</ele>
        <time>2020-04-07T18:32:25Z</time>
      </trkpt>
      <trkpt lat="42.5613190" lon="-5.4816170">
        <ele>823.0</ele>
        <time>2020-04-07T18:32:27Z</time>
      </trkpt>
      <trkpt lat="42.5614020" lon="-5.4817340">
        <ele>822.8</ele>
        <time>2020-04-07T18:32:29Z</time>
      </trkpt>
      <trkpt lat="42.5614870" lon="-5.4818520">
        <ele>822.4</ele>
        <time>2020-04-07T18:32:31Z</time>
      </trkpt>
      <trkpt lat="42.5616500" lon="-5.4820750">
        <ele>822.2</ele>
        <time>2020-04-07T18:32:33Z</time>
      </trkpt>
      <trkpt lat="42.5617360" lon="-5.4821870">
        <ele>822.4</ele>
        <time>2020-04-07T18:32:35Z</time>
      </trkpt>
      <trkpt lat="42.5618190" lon="-5.4822940">
        <ele>822.6</ele>
        <time>2020-04-07T18:32:37Z</time>
      </trkpt>
      <trkpt lat="42.5618990" lon="-5.4823990">
        <ele>822.6</ele>
        <time>2020-04-07T18:32:39Z</time>
      </trkpt>
      <trkpt lat="42.5620960" lon="-5.4826540">
        <ele>823.0</ele>
        <time>2020-04-07T18:32:41Z</time>
      </trkpt>
      <trkpt lat="42.5621720" lon="-5.4827530">
        <ele>823.0</ele>
        <time>2020-04-07T18:32:43Z</time>
      </trkpt>
      <trkpt lat="42.5622470" lon="-5.4828500">
        <ele>823.2</ele>
        <time>2020-04-07T18:32:45Z</time>
      </trkpt>
      <trkpt lat="42.5623190" lon="-5.4829440">
        <ele>823.4</ele>
        <time>2020-04-07T18:32:47Z</time>
      </trkpt>
      <trkpt lat="42.5625150" lon="-5.4831730">
        <ele>823.6</ele>
        <time>2020-04-07T18:32:49Z</time>
      </trkpt>
      <trkpt lat="42.5626110" lon="-5.4832870">
        <ele>823.8</ele>
        <time>2020-04-07T18:32:51Z</time>
      </trkpt>
      <trkpt lat="42.5626530" lon="-5.4834060">
        <ele>823.8</ele>
        <time>2020-04-07T18:32:53Z</time>
      </trkpt>
      <trkpt lat="42.5626950" lon="-5.4835240">
        <ele>823.8</ele>
        <time>2020-04-07T18:32:55Z</time>
      </trkpt>
      <trkpt lat="42.5627370" lon="-5.4836420">
        <ele>824.0</ele>
        <time>2020-04-07T18:32:57Z</time>
      </trkpt>
      <trkpt lat="42.5628340" lon="-5.4839160">
        <ele>824.0</ele>
        <time>2020-04-07T18:32:59Z</time>
      </trkpt>
      <trkpt lat="42.5628760" lon="-5.4840350">
        <ele>824.2</ele>
        <time>2020-04-07T18:33:01Z</time>
      </trkpt>
      <trkpt lat="42.5629180" lon="-5.4841520">
        <ele>824.2</ele>
        <time>2020-04-07T18:33:03Z</time>
      </trkpt>
      <trkpt lat="42.5630060" lon="-5.4844000">
        <ele>824.4</ele>
        <time>2020-04-07T18:33:05Z</time>
      </trkpt>
      <trkpt lat="42.5630480" lon="-5.4845180">
        <ele>824.4</ele>
        <time>2020-04-07T18:33:07Z</time>
      </trkpt>
      <trkpt lat="42.5630900" lon="-5.4846350">
        <ele>824.4</ele>
        <time>2020-04-07T18:33:09Z</time>
      </trkpt>
      <trkpt lat="42.5631310" lon="-5.4847500">
        <ele>824.4</ele>
        <time>2020-04-07T18:33:11Z</time>
      </trkpt>
      <trkpt lat="42.5631720" lon="-5.4848650">
        <ele>824.4</ele>
        <time>2020-04-07T18:33:13Z</time>
      </trkpt>
      <trkpt lat="42.5632130" lon="-5.4849810">
        <ele>824.6</ele>
        <time>2020-04-07T18:33:15Z</time>
      </trkpt>
      <trkpt lat="42.5632550" lon="-5.4850980">
        <ele>824.6</ele>
        <time>2020-04-07T18:33:17Z</time>
      </trkpt>
      <trkpt lat="42.5634050" lon="-5.4854960">
        <ele>824.6</ele>
        <time>2020-04-07T18:33:19Z</time>
      </trkpt>
      <trkpt lat="42.5635010" lon="-5.4856470">
        <ele>824.6</ele>
        <time>2020-04-07T18:33:21Z</time>
      </trkpt>
      <trkpt lat="42.5635890" lon="-5.4857100">
        <ele>824.6</ele>
        <time>2020-04-07T18:33:23Z</time>
      </trkpt>
      <trkpt lat="42.5637350" lon="-5.4858160">
        <ele>824.4</ele>
        <time>2020-04-07T18:33:25Z</time>
      </trkpt>
      <trkpt lat="42.5638270" lon="-5.4858850">
        <ele>824.2</ele>
        <time>2020-04-07T18:33:27Z</time>
      </trkpt>
      <trkpt lat="42.5639200" lon="-5.4859550">
        <ele>824.2</ele>
        <time>2020-04-07T18:33:29Z</time>
      </trkpt>
      <trkpt lat="42.5640160" lon="-5.4860260">
        <ele>824.0</ele>
        <time>2020-04-07T18:33:31Z</time>
      </trkpt>
      <trkpt lat="42.5642390" lon="-5.4862040">
        <ele>823.8</ele>
        <time>2020-04-07T18:33:33Z</time>
      </trkpt>
      <trkpt lat="42.5643720" lon="-5.4863420">
        <ele>823.8</ele>
        <time>2020-04-07T18:33:35Z</time>
      </trkpt>
      <trkpt lat="42.5644230" lon="-5.4865300">
        <ele>823.8</ele>
        <time>2020-04-07T18:33:37Z</time>
      </trkpt>
      <trkpt lat="42.5644230" lon="-5.4866930">
        <ele>823.6</ele>
        <time>2020-04-07T18:33:39Z</time>
      </trkpt>
      <trkpt lat="42.5644220" lon="-5.4868460">
        <ele>823.6</ele>
        <time>2020-04-07T18:33:41Z</time>
      </trkpt>
      <trkpt lat="42.5644170" lon="-5.4871390">
        <ele>823.6</ele>
        <time>2020-04-07T18:33:43Z</time>
      </trkpt>
      <trkpt lat="42.5644100" lon="-5.4873570">
        <ele>823.4</ele>
        <time>2020-04-07T18:33:45Z</time>
      </trkpt>
      <trkpt lat="42.5644050" lon="-5.4875060">
        <ele>823.6</ele>
        <time>2020-04-07T18:33:47Z</time>
      </trkpt>
      <trkpt lat="42.5644000" lon="-5.4876520">
        <ele>823.6</ele>
        <time>2020-04-07T18:33:49Z</time>
      </trkpt>
      <trkpt lat="42.5643950" lon="-5.4877960">
        <ele>823.8</ele>
        <time>2020-04-07T18:33:51Z</time>
      </trkpt>
      <trkpt lat="42.5643900" lon="-5.4879390">
        <ele>823.8</ele>
        <time>2020-04-07T18:33:53Z</time>
      </trkpt>
      <trkpt lat="42.5644190" lon="-5.4883190">
        <ele>824.2</ele>
        <time>2020-04-07T18:33:55Z</time>
      </trkpt>
      <trkpt lat="42.5644660" lon="-5.4884490">
        <ele>824.4</ele>
        <time>2020-04-07T18:33:57Z</time>
      </trkpt>
      <trkpt lat="42.5645130" lon="-5.4885800">
        <ele>824.4</ele>
        <time>2020-04-07T18:33:59Z</time>
      </trkpt>
      <trkpt lat="42.5645610" lon="-5.4887130">
        <ele>824.6</ele>
        <time>2020-04-07T18:34:01Z</time>
      </trkpt>
      <trkpt lat="42.5646100" lon="-5.4888480">
        <ele>824.6</ele>
        <time>2020-04-07T18:34:03Z</time>
      </trkpt>
      <trkpt lat="42.5647320" lon="-5.4891880">
        <ele>825.0</ele>
        <time>2020-04-07T18:34:05Z</time>
      </trkpt>
      <trkpt lat="42.5647800" lon="-5.4893210">
        <ele>825.4</ele>
        <time>2020-04-07T18:34:07Z</time>
      </trkpt>
      <trkpt lat="42.5648280" lon="-5.4894540">
        <ele>825.6</ele>
        <time>2020-04-07T18:34:09Z</time>
      </trkpt>
      <trkpt lat="42.5648750" lon="-5.4895830">
        <ele>825.8</ele>
        <time>2020-04-07T18:34:11Z</time>
      </trkpt>
      <trkpt lat="42.5649950" lon="-5.4899180">
        <ele>826.4</ele>
        <time>2020-04-07T18:34:13Z</time>
      </trkpt>
      <trkpt lat="42.5650420" lon="-5.4900480">
        <ele>826.6</ele>
        <time>2020-04-07T18:34:15Z</time>
      </trkpt>
      <trkpt lat="42.5650890" lon="-5.4901770">
        <ele>826.8</ele>
        <time>2020-04-07T18:34:17Z</time>
      </trkpt>
      <trkpt lat="42.5651830" lon="-5.4904490">
        <ele>827.4</ele>
        <time>2020-04-07T18:34:19Z</time>
      </trkpt>
      <trkpt lat="42.5652380" lon="-5.4906420">
        <ele>827.6</ele>
        <time>2020-04-07T18:34:21Z</time>
      </trkpt>
      <trkpt lat="42.5652760" lon="-5.4907720">
        <ele>828.0</ele>
        <time>2020-04-07T18:34:23Z</time>
      </trkpt>
      <trkpt lat="42.5653130" lon="-5.4909020">
        <ele>828.2</ele>
        <time>2020-04-07T18:34:25Z</time>
      </trkpt>
      <trkpt lat="42.5653490" lon="-5.4910300">
        <ele>828.4</ele>
        <time>2020-04-07T18:34:27Z</time>
      </trkpt>
      <trkpt lat="42.5653860" lon="-5.4911570">
        <ele>828.8</ele>
        <time>2020-04-07T18:34:29Z</time>
      </trkpt>
      <trkpt lat="42.5654210" lon="-5.4912820">
        <ele>829.0</ele>
        <time>2020-04-07T18:34:31Z</time>
      </trkpt>
      <trkpt lat="42.5655310" lon="-5.4916520">
        <ele>829.6</ele>
        <time>2020-04-07T18:34:33Z</time>
      </trkpt>
      <trkpt lat="42.5655710" lon="-5.4917760">
        <ele>830.0</ele>
        <time>2020-04-07T18:34:35Z</time>
      </trkpt>
      <trkpt lat="42.5656110" lon="-5.4919010">
        <ele>830.2</ele>
        <time>2020-04-07T18:34:37Z</time>
      </trkpt>
      <trkpt lat="42.5656870" lon="-5.4921550">
        <ele>830.8</ele>
        <time>2020-04-07T18:34:39Z</time>
      </trkpt>
      <trkpt lat="42.5657220" lon="-5.4922820">
        <ele>831.0</ele>
        <time>2020-04-07T18:34:41Z</time>
      </trkpt>
      <trkpt lat="42.5657930" lon="-5.4925110">
        <ele>831.6</ele>
        <time>2020-04-07T18:34:43Z</time>
      </trkpt>
      <trkpt lat="42.5658410" lon="-5.4926280">
        <ele>831.8</ele>
        <time>2020-04-07T18:34:45Z</time>
      </trkpt>
      <trkpt lat="42.5658880" lon="-5.4927430">
        <ele>832.0</ele>
        <time>2020-04-07T18:34:47Z</time>
      </trkpt>
      <trkpt lat="42.5659840" lon="-5.4929590">
        <ele>832.6</ele>
        <time>2020-04-07T18:34:49Z</time>
      </trkpt>
      <trkpt lat="42.5660380" lon="-5.4930680">
        <ele>832.8</ele>
        <time>2020-04-07T18:34:51Z</time>
      </trkpt>
      <trkpt lat="42.5660920" lon="-5.4931770">
        <ele>833.0</ele>
        <time>2020-04-07T18:34:53Z</time>
      </trkpt>
      <trkpt lat="42.5662170" lon="-5.4934150">
        <ele>834.4</ele>
        <time>2020-04-07T18:34:55Z</time>
      </trkpt>
      <trkpt lat="42.5662650" lon="-5.4934980">
        <ele>835.2</ele>
        <time>2020-04-07T18:34:57Z</time>
      </trkpt>
      <trkpt lat="42.5663060" lon="-5.4935690">
        <ele>835.8</ele>
        <time>2020-04-07T18:34:59Z</time>
      </trkpt>
      <trkpt lat="42.5663420" lon="-5.4936310">
        <ele>836.4</ele>
        <time>2020-04-07T18:35:01Z</time>
      </trkpt>
      <trkpt lat="42.5663740" lon="-5.4936860">
        <ele>837.0</ele>
        <time>2020-04-07T18:35:03Z</time>
      </trkpt>
      <trkpt lat="42.5664040" lon="-5.4937380">
        <ele>837.6</ele>
        <time>2020-04-07T18:35:05Z</time>
      </trkpt>
      <trkpt lat="42.5665020" lon="-5.4939270">
        <ele>839.2</ele>
        <time>2020-04-07T18:35:07Z</time>
      </trkpt>
      <trkpt lat="42.5665180" lon="-5.4939850">
        <ele>839.8</ele>
        <time>2020-04-07T18:35:09Z</time>
      </trkpt>
      <trkpt lat="42.5665340" lon="-5.4940410">
        <ele>840.2</ele>
        <time>2020-04-07T18:35:11Z</time>
      </trkpt>
      <trkpt lat="42.5665500" lon="-5.4940970">
        <ele>840.6</ele>
        <time>2020-04-07T18:35:13Z</time>
      </trkpt>
      <trkpt lat="42.5665660" lon="-5.4941540">
        <ele>841.2</ele>
        <time>2020-04-07T18:35:15Z</time>
      </trkpt>
      <trkpt lat="42.5665810" lon="-5.4942100">
        <ele>841.6</ele>
        <time>2020-04-07T18:35:17Z</time>
      </trkpt>
      <trkpt lat="42.5666330" lon="-5.4943930">
        <ele>843.0</ele>
        <time>2020-04-07T18:35:19Z</time>
      </trkpt>
      <trkpt lat="42.5666520" lon="-5.4944600">
        <ele>843.4</ele>
        <time>2020-04-07T18:35:21Z</time>
      </trkpt>
      <trkpt lat="42.5666720" lon="-5.4945330">
        <ele>843.8</ele>
        <time>2020-04-07T18:35:23Z</time>
      </trkpt>
      <trkpt lat="42.5666930" lon="-5.4946090">
        <ele>844.2</ele>
        <time>2020-04-07T18:35:25Z</time>
      </trkpt>
      <trkpt lat="42.5667140" lon="-5.4946860">
        <ele>844.6</ele>
        <time>2020-04-07T18:35:27Z</time>
      </trkpt>
      <trkpt lat="42.5667360" lon="-5.4947620">
        <ele>845.0</ele>
        <time>2020-04-07T18:35:29Z</time>
      </trkpt>
      <trkpt lat="42.5667570" lon="-5.4948410">
        <ele>845.4</ele>
        <time>2020-04-07T18:35:31Z</time>
      </trkpt>
      <trkpt lat="42.5668330" lon="-5.4950850">
        <ele>846.8</ele>
        <time>2020-04-07T18:35:33Z</time>
      </trkpt>
      <trkpt lat="42.5668740" lon="-5.4951890">
        <ele>847.4</ele>
        <time>2020-04-07T18:35:35Z</time>
      </trkpt>
      <trkpt lat="42.5669030" lon="-5.4952630">
        <ele>847.8</ele>
        <time>2020-04-07T18:35:37Z</time>
      </trkpt>
      <trkpt lat="42.5669310" lon="-5.4953360">
        <ele>848.2</ele>
        <time>2020-04-07T18:35:39Z</time>
      </trkpt>
      <trkpt lat="42.5669600" lon="-5.4954100">
        <ele>848.6</ele>
        <time>2020-04-07T18:35:41Z</time>
      </trkpt>
      <trkpt lat="42.5670350" lon="-5.4956060">
        <ele>849.6</ele>
        <time>2020-04-07T18:35:43Z</time>
      </trkpt>
      <trkpt lat="42.5670630" lon="-5.4956800">
        <ele>850.0</ele>
        <time>2020-04-07T18:35:45Z</time>
      </trkpt>
      <trkpt lat="42.5670760" lon="-5.4957920">
        <ele>850.8</ele>
        <time>2020-04-07T18:35:47Z</time>
      </trkpt>
      <trkpt lat="42.5670220" lon="-5.4958730">
        <ele>851.4</ele>
        <time>2020-04-07T18:35:49Z</time>
      </trkpt>
      <trkpt lat="42.5670770" lon="-5.4959340">
        <ele>851.4</ele>
        <time>2020-04-07T18:35:51Z</time>
      </trkpt>
      <trkpt lat="42.5671380" lon="-5.4960030">
        <ele>851.4</ele>
        <time>2020-04-07T18:35:53Z</time>
      </trkpt>
      <trkpt lat="42.5672080" lon="-5.4960800">
        <ele>851.4</ele>
        <time>2020-04-07T18:35:55Z</time>
      </trkpt>
      <trkpt lat="42.5672830" lon="-5.4961640">
        <ele>851.4</ele>
        <time>2020-04-07T18:35:57Z</time>
      </trkpt>
      <trkpt lat="42.5674550" lon="-5.4963860">
        <ele>851.2</ele>
        <time>2020-04-07T18:35:59Z</time>
      </trkpt>
      <trkpt lat="42.5674940" lon="-5.4965190">
        <ele>851.2</ele>
        <time>2020-04-07T18:36:01Z</time>
      </trkpt>
      <trkpt lat="42.5675340" lon="-5.4966540">
        <ele>851.2</ele>
        <time>2020-04-07T18:36:03Z</time>
      </trkpt>
      <trkpt lat="42.5676020" lon="-5.4969140">
        <ele>851.2</ele>
        <time>2020-04-07T18:36:05Z</time>
      </trkpt>
      <trkpt lat="42.5676520" lon="-5.4971510">
        <ele>851.0</ele>
        <time>2020-04-07T18:36:07Z</time>
      </trkpt>
      <trkpt lat="42.5676640" lon="-5.4973130">
        <ele>850.8</ele>
        <time>2020-04-07T18:36:09Z</time>
      </trkpt>
      <trkpt lat="42.5676700" lon="-5.4974720">
        <ele>850.6</ele>
        <time>2020-04-07T18:36:11Z</time>
      </trkpt>
      <trkpt lat="42.5676850" lon="-5.4977680">
        <ele>850.2</ele>
        <time>2020-04-07T18:36:13Z</time>
      </trkpt>
      <trkpt lat="42.5677030" lon="-5.4980030">
        <ele>850.0</ele>
        <time>2020-04-07T18:36:15Z</time>
      </trkpt>
      <trkpt lat="42.5677200" lon="-5.4981710">
        <ele>849.8</ele>
        <time>2020-04-07T18:36:17Z</time>
      </trkpt>
      <trkpt lat="42.5677380" lon="-5.4983400">
        <ele>849.4</ele>
        <time>2020-04-07T18:36:19Z</time>
      </trkpt>
      <trkpt lat="42.5677560" lon="-5.4985120">
        <ele>849.2</ele>
        <time>2020-04-07T18:36:21Z</time>
      </trkpt>
      <trkpt lat="42.5677970" lon="-5.4988840">
        <ele>848.6</ele>
        <time>2020-04-07T18:36:23Z</time>
      </trkpt>
      <trkpt lat="42.5678170" lon="-5.4990620">
        <ele>848.4</ele>
        <time>2020-04-07T18:36:25Z</time>
      </trkpt>
      <trkpt lat="42.5678390" lon="-5.4992430">
        <ele>848.0</ele>
        <time>2020-04-07T18:36:27Z</time>
      </trkpt>
      <trkpt lat="42.5678600" lon="-5.4994270">
        <ele>847.6</ele>
        <time>2020-04-07T18:36:29Z</time>
      </trkpt>
      <trkpt lat="42.5679150" lon="-5.4998950">
        <ele>846.6</ele>
        <time>2020-04-07T18:36:31Z</time>
      </trkpt>
      <trkpt lat="42.5679370" lon="-5.5000860">
        <ele>846.2</ele>
        <time>2020-04-07T18:36:33Z</time>
      </trkpt>
      <trkpt lat="42.5679600" lon="-5.5002790">
        <ele>845.8</ele>
        <time>2020-04-07T18:36:35Z</time>
      </trkpt>
      <trkpt lat="42.5679820" lon="-5.5004740">
        <ele>845.6</ele>
        <time>2020-04-07T18:36:37Z</time>
      </trkpt>
      <trkpt lat="42.5680420" lon="-5.5009480">
        <ele>844.8</ele>
        <time>2020-04-07T18:36:39Z</time>
      </trkpt>
      <trkpt lat="42.5680710" lon="-5.5011330">
        <ele>845.0</ele>
        <time>2020-04-07T18:36:41Z</time>
      </trkpt>
      <trkpt lat="42.5680980" lon="-5.5013090">
        <ele>845.2</ele>
        <time>2020-04-07T18:36:43Z</time>
      </trkpt>
      <trkpt lat="42.5681590" lon="-5.5016990">
        <ele>845.6</ele>
        <time>2020-04-07T18:36:45Z</time>
      </trkpt>
      <trkpt lat="42.5681850" lon="-5.5018590">
        <ele>845.8</ele>
        <time>2020-04-07T18:36:47Z</time>
      </trkpt>
      <trkpt lat="42.5682090" lon="-5.5020130">
        <ele>846.0</ele>
        <time>2020-04-07T18:36:49Z</time>
      </trkpt>
      <trkpt lat="42.5682590" lon="-5.5023240">
        <ele>846.2</ele>
        <time>2020-04-07T18:36:51Z</time>
      </trkpt>
      <trkpt lat="42.5682890" lon="-5.5025270">
        <ele>846.4</ele>
        <time>2020-04-07T18:36:53Z</time>
      </trkpt>
      <trkpt lat="42.5683100" lon="-5.5026690">
        <ele>846.4</ele>
        <time>2020-04-07T18:36:55Z</time>
      </trkpt>
      <trkpt lat="42.5683310" lon="-5.5028070">
        <ele>846.4</ele>
        <time>2020-04-07T18:36:57Z</time>
      </trkpt>
      <trkpt lat="42.5683730" lon="-5.5030730">
        <ele>846.4</ele>
        <time>2020-04-07T18:36:59Z</time>
      </trkpt>
      <trkpt lat="42.5683990" lon="-5.5032100">
        <ele>846.4</ele>
        <time>2020-04-07T18:37:01Z</time>
      </trkpt>
      <trkpt lat="42.5684450" lon="-5.5034370">
        <ele>846.4</ele>
        <time>2020-04-07T18:37:03Z</time>
      </trkpt>
      <trkpt lat="42.5684760" lon="-5.5035720">
        <ele>846.4</ele>
        <time>2020-04-07T18:37:05Z</time>
      </trkpt>
      <trkpt lat="42.5685340" lon="-5.5037960">
        <ele>846.4</ele>
        <time>2020-04-07T18:37:07Z</time>
      </trkpt>
      <trkpt lat="42.5685740" lon="-5.5039260">
        <ele>846.4</ele>
        <time>2020-04-07T18:37:09Z</time>
      </trkpt>
      <trkpt lat="42.5686130" lon="-5.5040560">
        <ele>846.4</ele>
        <time>2020-04-07T18:37:11Z</time>
      </trkpt>
      <trkpt lat="42.5686530" lon="-5.5041850">
        <ele>846.4</ele>
        <time>2020-04-07T18:37:13Z</time>
      </trkpt>
      <trkpt lat="42.5686920" lon="-5.5043150">
        <ele>846.4</ele>
        <time>2020-04-07T18:37:15Z</time>
      </trkpt>
      <trkpt lat="42.5687320" lon="-5.5044440">
        <ele>846.6</ele>
        <time>2020-04-07T18:37:17Z</time>
      </trkpt>
      <trkpt lat="42.5688610" lon="-5.5048680">
        <ele>846.6</ele>
        <time>2020-04-07T18:37:19Z</time>
      </trkpt>
      <trkpt lat="42.5689010" lon="-5.5049980">
        <ele>846.6</ele>
        <time>2020-04-07T18:37:21Z</time>
      </trkpt>
      <trkpt lat="42.5689710" lon="-5.5052070">
        <ele>846.6</ele>
        <time>2020-04-07T18:37:23Z</time>
      </trkpt>
      <trkpt lat="42.5690200" lon="-5.5053300">
        <ele>846.6</ele>
        <time>2020-04-07T18:37:25Z</time>
      </trkpt>
      <trkpt lat="42.5690690" lon="-5.5054520">
        <ele>846.6</ele>
        <time>2020-04-07T18:37:27Z</time>
      </trkpt>
      <trkpt lat="42.5691690" lon="-5.5057000">
        <ele>846.6</ele>
        <time>2020-04-07T18:37:29Z</time>
      </trkpt>
      <trkpt lat="42.5692190" lon="-5.5058220">
        <ele>846.6</ele>
        <time>2020-04-07T18:37:31Z</time>
      </trkpt>
      <trkpt lat="42.5692690" lon="-5.5059450">
        <ele>846.6</ele>
        <time>2020-04-07T18:37:33Z</time>
      </trkpt>
      <trkpt lat="42.5693590" lon="-5.5061870">
        <ele>846.6</ele>
        <time>2020-04-07T18:37:35Z</time>
      </trkpt>
      <trkpt lat="42.5694020" lon="-5.5063140">
        <ele>846.6</ele>
        <time>2020-04-07T18:37:37Z</time>
      </trkpt>
      <trkpt lat="42.5694680" lon="-5.5065380">
        <ele>846.6</ele>
        <time>2020-04-07T18:37:39Z</time>
      </trkpt>
      <trkpt lat="42.5695010" lon="-5.5066690">
        <ele>846.6</ele>
        <time>2020-04-07T18:37:41Z</time>
      </trkpt>
      <trkpt lat="42.5695590" lon="-5.5069120">
        <ele>846.6</ele>
        <time>2020-04-07T18:37:43Z</time>
      </trkpt>
      <trkpt lat="42.5695880" lon="-5.5070460">
        <ele>846.6</ele>
        <time>2020-04-07T18:37:45Z</time>
      </trkpt>
      <trkpt lat="42.5696370" lon="-5.5072790">
        <ele>847.0</ele>
        <time>2020-04-07T18:37:47Z</time>
      </trkpt>
      <trkpt lat="42.5696640" lon="-5.5074060">
        <ele>847.4</ele>
        <time>2020-04-07T18:37:49Z</time>
      </trkpt>
      <trkpt lat="42.5696890" lon="-5.5075240">
        <ele>848.0</ele>
        <time>2020-04-07T18:37:51Z</time>
      </trkpt>
      <trkpt lat="42.5697130" lon="-5.5076350">
        <ele>848.4</ele>
        <time>2020-04-07T18:37:53Z</time>
      </trkpt>
      <trkpt lat="42.5697360" lon="-5.5077410">
        <ele>848.8</ele>
        <time>2020-04-07T18:37:55Z</time>
      </trkpt>
      <trkpt lat="42.5698020" lon="-5.5080500">
        <ele>850.0</ele>
        <time>2020-04-07T18:37:57Z</time>
      </trkpt>
      <trkpt lat="42.5698240" lon="-5.5081460">
        <ele>850.4</ele>
        <time>2020-04-07T18:37:59Z</time>
      </trkpt>
      <trkpt lat="42.5698450" lon="-5.5082400">
        <ele>850.8</ele>
        <time>2020-04-07T18:38:01Z</time>
      </trkpt>
      <trkpt lat="42.5698650" lon="-5.5083320">
        <ele>851.2</ele>
        <time>2020-04-07T18:38:03Z</time>
      </trkpt>
      <trkpt lat="42.5698850" lon="-5.5084200">
        <ele>851.4</ele>
        <time>2020-04-07T18:38:05Z</time>
      </trkpt>
      <trkpt lat="42.5699040" lon="-5.5085080">
        <ele>851.8</ele>
        <time>2020-04-07T18:38:07Z</time>
      </trkpt>
      <trkpt lat="42.5699690" lon="-5.5088010">
        <ele>853.0</ele>
        <time>2020-04-07T18:38:09Z</time>
      </trkpt>
      <trkpt lat="42.5699900" lon="-5.5088950">
        <ele>853.2</ele>
        <time>2020-04-07T18:38:11Z</time>
      </trkpt>
      <trkpt lat="42.5700120" lon="-5.5089950">
        <ele>853.4</ele>
        <time>2020-04-07T18:38:13Z</time>
      </trkpt>
      <trkpt lat="42.5700350" lon="-5.5090960">
        <ele>853.6</ele>
        <time>2020-04-07T18:38:15Z</time>
      </trkpt>
      <trkpt lat="42.5700580" lon="-5.5092010">
        <ele>853.8</ele>
        <time>2020-04-07T18:38:17Z</time>
      </trkpt>
      <trkpt lat="42.5700810" lon="-5.5093060">
        <ele>854.2</ele>
        <time>2020-04-07T18:38:19Z</time>
      </trkpt>
      <trkpt lat="42.5701540" lon="-5.5096370">
        <ele>855.0</ele>
        <time>2020-04-07T18:38:21Z</time>
      </trkpt>
      <trkpt lat="42.5701760" lon="-5.5097420">
        <ele>855.2</ele>
        <time>2020-04-07T18:38:23Z</time>
      </trkpt>
      <trkpt lat="42.5701970" lon="-5.5098460">
        <ele>855.4</ele>
        <time>2020-04-07T18:38:25Z</time>
      </trkpt>
      <trkpt lat="42.5702190" lon="-5.5099520">
        <ele>855.8</ele>
        <time>2020-04-07T18:38:27Z</time>
      </trkpt>
      <trkpt lat="42.5702400" lon="-5.5100580">
        <ele>856.0</ele>
        <time>2020-04-07T18:38:29Z</time>
      </trkpt>
      <trkpt lat="42.5703000" lon="-5.5103520">
        <ele>856.8</ele>
        <time>2020-04-07T18:38:31Z</time>
      </trkpt>
      <trkpt lat="42.5703210" lon="-5.5104550">
        <ele>857.0</ele>
        <time>2020-04-07T18:38:33Z</time>
      </trkpt>
      <trkpt lat="42.5703420" lon="-5.5105550">
        <ele>857.4</ele>
        <time>2020-04-07T18:38:35Z</time>
      </trkpt>
      <trkpt lat="42.5703620" lon="-5.5106520">
        <ele>857.8</ele>
        <time>2020-04-07T18:38:37Z</time>
      </trkpt>
      <trkpt lat="42.5703810" lon="-5.5107460">
        <ele>858.0</ele>
        <time>2020-04-07T18:38:39Z</time>
      </trkpt>
      <trkpt lat="42.5704000" lon="-5.5108390">
        <ele>858.4</ele>
        <time>2020-04-07T18:38:41Z</time>
      </trkpt>
      <trkpt lat="42.5704190" lon="-5.5109300">
        <ele>858.8</ele>
        <time>2020-04-07T18:38:43Z</time>
      </trkpt>
      <trkpt lat="42.5704840" lon="-5.5112520">
        <ele>859.8</ele>
        <time>2020-04-07T18:38:45Z</time>
      </trkpt>
      <trkpt lat="42.5705030" lon="-5.5113420">
        <ele>860.2</ele>
        <time>2020-04-07T18:38:47Z</time>
      </trkpt>
      <trkpt lat="42.5705210" lon="-5.5114300">
        <ele>860.6</ele>
        <time>2020-04-07T18:38:49Z</time>
      </trkpt>
      <trkpt lat="42.5705600" lon="-5.5116160">
        <ele>861.2</ele>
        <time>2020-04-07T18:38:51Z</time>
      </trkpt>
      <trkpt lat="42.5705800" lon="-5.5117070">
        <ele>861.4</ele>
        <time>2020-04-07T18:38:53Z</time>
      </trkpt>
      <trkpt lat="42.5706010" lon="-5.5117990">
        <ele>861.8</ele>
        <time>2020-04-07T18:38:55Z</time>
      </trkpt>
      <trkpt lat="42.5706220" lon="-5.5118930">
        <ele>862.0</ele>
        <time>2020-04-07T18:38:57Z</time>
      </trkpt>
      <trkpt lat="42.5706730" lon="-5.5121200">
        <ele>862.6</ele>
        <time>2020-04-07T18:38:59Z</time>
      </trkpt>
      <trkpt lat="42.5706950" lon="-5.5122150">
        <ele>863.0</ele>
        <time>2020-04-07T18:39:01Z</time>
      </trkpt>
      <trkpt lat="42.5707170" lon="-5.5123130">
        <ele>863.2</ele>
        <time>2020-04-07T18:39:03Z</time>
      </trkpt>
      <trkpt lat="42.5707410" lon="-5.5124150">
        <ele>863.6</ele>
        <time>2020-04-07T18:39:06Z</time>
      </trkpt>
      <trkpt lat="42.5707640" lon="-5.5125170">
        <ele>863.8</ele>
        <time>2020-04-07T18:39:08Z</time>
      </trkpt>
      <trkpt lat="42.5708290" lon="-5.5128040">
        <ele>864.8</ele>
        <time>2020-04-07T18:39:10Z</time>
      </trkpt>
      <trkpt lat="42.5708540" lon="-5.5129390">
        <ele>865.2</ele>
        <time>2020-04-07T18:39:12Z</time>
      </trkpt>
      <trkpt lat="42.5708720" lon="-5.5130390">
        <ele>865.6</ele>
        <time>2020-04-07T18:39:14Z</time>
      </trkpt>
      <trkpt lat="42.5709020" lon="-5.5131870">
        <ele>866.2</ele>
        <time>2020-04-07T18:39:16Z</time>
      </trkpt>
      <trkpt lat="42.5709210" lon="-5.5132750">
        <ele>866.6</ele>
        <time>2020-04-07T18:39:18Z</time>
      </trkpt>
      <trkpt lat="42.5709400" lon="-5.5133610">
        <ele>867.0</ele>
        <time>2020-04-07T18:39:20Z</time>
      </trkpt>
      <trkpt lat="42.5709810" lon="-5.5135470">
        <ele>867.8</ele>
        <time>2020-04-07T18:39:22Z</time>
      </trkpt>
      <trkpt lat="42.5710000" lon="-5.5136290">
        <ele>868.2</ele>
        <time>2020-04-07T18:39:24Z</time>
      </trkpt>
      <trkpt lat="42.5710320" lon="-5.5137700">
        <ele>868.8</ele>
        <time>2020-04-07T18:39:26Z</time>
      </trkpt>
      <trkpt lat="42.5710510" lon="-5.5138510">
        <ele>869.0</ele>
        <time>2020-04-07T18:39:28Z</time>
      </trkpt>
      <trkpt lat="42.5710690" lon="-5.5139310">
        <ele>869.4</ele>
        <time>2020-04-07T18:39:30Z</time>
      </trkpt>
      <trkpt lat="42.5710870" lon="-5.5140110">
        <ele>869.8</ele>
        <time>2020-04-07T18:39:32Z</time>
      </trkpt>
      <trkpt lat="42.5711320" lon="-5.5142070">
        <ele>870.6</ele>
        <time>2020-04-07T18:39:34Z</time>
      </trkpt>
      <trkpt lat="42.5711480" lon="-5.5142770">
        <ele>871.2</ele>
        <time>2020-04-07T18:39:36Z</time>
      </trkpt>
      <trkpt lat="42.5711620" lon="-5.5143390">
        <ele>871.8</ele>
        <time>2020-04-07T18:39:38Z</time>
      </trkpt>
      <trkpt lat="42.5711740" lon="-5.5143940">
        <ele>872.2</ele>
        <time>2020-04-07T18:39:40Z</time>
      </trkpt>
      <trkpt lat="42.5711850" lon="-5.5144470">
        <ele>872.6</ele>
        <time>2020-04-07T18:39:42Z</time>
      </trkpt>
      <trkpt lat="42.5712180" lon="-5.5145970">
        <ele>873.8</ele>
        <time>2020-04-07T18:39:44Z</time>
      </trkpt>
      <trkpt lat="42.5712290" lon="-5.5146470">
        <ele>874.2</ele>
        <time>2020-04-07T18:39:46Z</time>
      </trkpt>
      <trkpt lat="42.5712400" lon="-5.5146970">
        <ele>874.6</ele>
        <time>2020-04-07T18:39:48Z</time>
      </trkpt>
      <trkpt lat="42.5712520" lon="-5.5147480">
        <ele>875.0</ele>
        <time>2020-04-07T18:39:50Z</time>
      </trkpt>
      <trkpt lat="42.5712630" lon="-5.5147980">
        <ele>875.4</ele>
        <time>2020-04-07T18:39:52Z</time>
      </trkpt>
      <trkpt lat="42.5712740" lon="-5.5148470">
        <ele>875.8</ele>
        <time>2020-04-07T18:39:54Z</time>
      </trkpt>
      <trkpt lat="42.5712850" lon="-5.5148970">
        <ele>876.2</ele>
        <time>2020-04-07T18:39:56Z</time>
      </trkpt>
      <trkpt lat="42.5712950" lon="-5.5149470">
        <ele>876.6</ele>
        <time>2020-04-07T18:39:58Z</time>
      </trkpt>
      <trkpt lat="42.5713060" lon="-5.5149960">
        <ele>876.8</ele>
        <time>2020-04-07T18:40:00Z</time>
      </trkpt>
      <trkpt lat="42.5713170" lon="-5.5150460">
        <ele>877.2</ele>
        <time>2020-04-07T18:40:02Z</time>
      </trkpt>
      <trkpt lat="42.5713280" lon="-5.5150960">
        <ele>877.6</ele>
        <time>2020-04-07T18:40:04Z</time>
      </trkpt>
      <trkpt lat="42.5713390" lon="-5.5151450">
        <ele>878.0</ele>
        <time>2020-04-07T18:40:06Z</time>
      </trkpt>
      <trkpt lat="42.5713500" lon="-5.5151950">
        <ele>878.4</ele>
        <time>2020-04-07T18:40:08Z</time>
      </trkpt>
      <trkpt lat="42.5713610" lon="-5.5152440">
        <ele>878.8</ele>
        <time>2020-04-07T18:40:10Z</time>
      </trkpt>
      <trkpt lat="42.5714280" lon="-5.5155470">
        <ele>881.0</ele>
        <time>2020-04-07T18:40:12Z</time>
      </trkpt>
      <trkpt lat="42.5714450" lon="-5.5156260">
        <ele>881.2</ele>
        <time>2020-04-07T18:40:14Z</time>
      </trkpt>
      <trkpt lat="42.5714650" lon="-5.5157160">
        <ele>881.4</ele>
        <time>2020-04-07T18:40:16Z</time>
      </trkpt>
      <trkpt lat="42.5715050" lon="-5.5158940">
        <ele>882.0</ele>
        <time>2020-04-07T18:40:18Z</time>
      </trkpt>
      <trkpt lat="42.5715280" lon="-5.5159920">
        <ele>882.2</ele>
        <time>2020-04-07T18:40:20Z</time>
      </trkpt>
      <trkpt lat="42.5715510" lon="-5.5160920">
        <ele>882.4</ele>
        <time>2020-04-07T18:40:22Z</time>
      </trkpt>
      <trkpt lat="42.5715740" lon="-5.5161920">
        <ele>882.8</ele>
        <time>2020-04-07T18:40:24Z</time>
      </trkpt>
      <trkpt lat="42.5716360" lon="-5.5164560">
        <ele>883.4</ele>
        <time>2020-04-07T18:40:26Z</time>
      </trkpt>
      <trkpt lat="42.5716590" lon="-5.5165570">
        <ele>883.8</ele>
        <time>2020-04-07T18:40:28Z</time>
      </trkpt>
      <trkpt lat="42.5716830" lon="-5.5166590">
        <ele>884.0</ele>
        <time>2020-04-07T18:40:30Z</time>
      </trkpt>
      <trkpt lat="42.5717290" lon="-5.5168630">
        <ele>884.4</ele>
        <time>2020-04-07T18:40:32Z</time>
      </trkpt>
      <trkpt lat="42.5717540" lon="-5.5169760">
        <ele>884.4</ele>
        <time>2020-04-07T18:40:34Z</time>
      </trkpt>
      <trkpt lat="42.5717800" lon="-5.5170970">
        <ele>884.6</ele>
        <time>2020-04-07T18:40:36Z</time>
      </trkpt>
      <trkpt lat="42.5718080" lon="-5.5172240">
        <ele>884.6</ele>
        <time>2020-04-07T18:40:38Z</time>
      </trkpt>
      <trkpt lat="42.5718670" lon="-5.5174990">
        <ele>884.6</ele>
        <time>2020-04-07T18:40:40Z</time>
      </trkpt>
      <trkpt lat="42.5718950" lon="-5.5176290">
        <ele>884.6</ele>
        <time>2020-04-07T18:40:42Z</time>
      </trkpt>
      <trkpt lat="42.5719230" lon="-5.5177610">
        <ele>884.6</ele>
        <time>2020-04-07T18:40:44Z</time>
      </trkpt>
      <trkpt lat="42.5719520" lon="-5.5178950">
        <ele>884.8</ele>
        <time>2020-04-07T18:40:46Z</time>
      </trkpt>
      <trkpt lat="42.5719810" lon="-5.5180310">
        <ele>884.8</ele>
        <time>2020-04-07T18:40:48Z</time>
      </trkpt>
      <trkpt lat="42.5720650" lon="-5.5184120">
        <ele>884.8</ele>
        <time>2020-04-07T18:40:50Z</time>
      </trkpt>
      <trkpt lat="42.5720970" lon="-5.5185480">
        <ele>884.8</ele>
        <time>2020-04-07T18:40:52Z</time>
      </trkpt>
      <trkpt lat="42.5721300" lon="-5.5186850">
        <ele>884.8</ele>
        <time>2020-04-07T18:40:54Z</time>
      </trkpt>
      <trkpt lat="42.5721640" lon="-5.5188280">
        <ele>884.6</ele>
        <time>2020-04-07T18:40:56Z</time>
      </trkpt>
      <trkpt lat="42.5721980" lon="-5.5189680">
        <ele>884.6</ele>
        <time>2020-04-07T18:40:58Z</time>
      </trkpt>
      <trkpt lat="42.5722320" lon="-5.5191110">
        <ele>884.6</ele>
        <time>2020-04-07T18:41:00Z</time>
      </trkpt>
      <trkpt lat="42.5723380" lon="-5.5195530">
        <ele>884.6</ele>
        <time>2020-04-07T18:41:02Z</time>
      </trkpt>
      <trkpt lat="42.5723740" lon="-5.5197000">
        <ele>884.4</ele>
        <time>2020-04-07T18:41:04Z</time>
      </trkpt>
      <trkpt lat="42.5724090" lon="-5.5198460">
        <ele>884.4</ele>
        <time>2020-04-07T18:41:06Z</time>
      </trkpt>
      <trkpt lat="42.5724440" lon="-5.5199940">
        <ele>884.4</ele>
        <time>2020-04-07T18:41:08Z</time>
      </trkpt>
      <trkpt lat="42.5724800" lon="-5.5201420">
        <ele>884.4</ele>
        <time>2020-04-07T18:41:10Z</time>
      </trkpt>
      <trkpt lat="42.5725820" lon="-5.5205870">
        <ele>884.2</ele>
        <time>2020-04-07T18:41:12Z</time>
      </trkpt>
      <trkpt lat="42.5725970" lon="-5.5208050">
        <ele>883.6</ele>
        <time>2020-04-07T18:41:14Z</time>
      </trkpt>
      <trkpt lat="42.5725700" lon="-5.5210420">
        <ele>883.2</ele>
        <time>2020-04-07T18:41:16Z</time>
      </trkpt>
      <trkpt lat="42.5726250" lon="-5.5212280">
        <ele>882.6</ele>
        <time>2020-04-07T18:41:18Z</time>
      </trkpt>
      <trkpt lat="42.5727360" lon="-5.5214450">
        <ele>882.0</ele>
        <time>2020-04-07T18:41:20Z</time>
      </trkpt>
      <trkpt lat="42.5728110" lon="-5.5217030">
        <ele>881.2</ele>
        <time>2020-04-07T18:41:22Z</time>
      </trkpt>
      <trkpt lat="42.5728490" lon="-5.5218850">
        <ele>881.4</ele>
        <time>2020-04-07T18:41:24Z</time>
      </trkpt>
      <trkpt lat="42.5728870" lon="-5.5220600">
        <ele>881.4</ele>
        <time>2020-04-07T18:41:26Z</time>
      </trkpt>
      <trkpt lat="42.5729230" lon="-5.5222310">
        <ele>881.6</ele>
        <time>2020-04-07T18:41:28Z</time>
      </trkpt>
      <trkpt lat="42.5730040" lon="-5.5226100">
        <ele>881.8</ele>
        <time>2020-04-07T18:41:30Z</time>
      </trkpt>
      <trkpt lat="42.5730380" lon="-5.5227700">
        <ele>882.0</ele>
        <time>2020-04-07T18:41:32Z</time>
      </trkpt>
      <trkpt lat="42.5730720" lon="-5.5229270">
        <ele>882.0</ele>
        <time>2020-04-07T18:41:34Z</time>
      </trkpt>
      <trkpt lat="42.5731040" lon="-5.5230790">
        <ele>882.0</ele>
        <time>2020-04-07T18:41:36Z</time>
      </trkpt>
      <trkpt lat="42.5731810" lon="-5.5234420">
        <ele>882.6</ele>
        <time>2020-04-07T18:41:38Z</time>
      </trkpt>
      <trkpt lat="42.5732110" lon="-5.5235810">
        <ele>882.8</ele>
        <time>2020-04-07T18:41:40Z</time>
      </trkpt>
      <trkpt lat="42.5732380" lon="-5.5237110">
        <ele>883.2</ele>
        <time>2020-04-07T18:41:42Z</time>
      </trkpt>
      <trkpt lat="42.5732650" lon="-5.5238350">
        <ele>883.4</ele>
        <time>2020-04-07T18:41:44Z</time>
      </trkpt>
      <trkpt lat="42.5733110" lon="-5.5241590">
        <ele>884.4</ele>
        <time>2020-04-07T18:41:46Z</time>
      </trkpt>
      <trkpt lat="42.5732370" lon="-5.5242340">
        <ele>884.6</ele>
        <time>2020-04-07T18:41:48Z</time>
      </trkpt>
      <trkpt lat="42.5731650" lon="-5.5243070">
        <ele>885.0</ele>
        <time>2020-04-07T18:41:50Z</time>
      </trkpt>
      <trkpt lat="42.5730930" lon="-5.5243790">
        <ele>885.2</ele>
        <time>2020-04-07T18:41:52Z</time>
      </trkpt>
      <trkpt lat="42.5730210" lon="-5.5244510">
        <ele>885.6</ele>
        <time>2020-04-07T18:41:54Z</time>
      </trkpt>
      <trkpt lat="42.5729500" lon="-5.5245230">
        <ele>885.8</ele>
        <time>2020-04-07T18:41:56Z</time>
      </trkpt>
      <trkpt lat="42.5728800" lon="-5.5245940">
        <ele>886.0</ele>
        <time>2020-04-07T18:41:58Z</time>
      </trkpt>
      <trkpt lat="42.5726390" lon="-5.5248370">
        <ele>886.8</ele>
        <time>2020-04-07T18:42:00Z</time>
      </trkpt>
      <trkpt lat="42.5725630" lon="-5.5249130">
        <ele>887.0</ele>
        <time>2020-04-07T18:42:02Z</time>
      </trkpt>
      <trkpt lat="42.5724820" lon="-5.5249940">
        <ele>887.0</ele>
        <time>2020-04-07T18:42:04Z</time>
      </trkpt>
      <trkpt lat="42.5724000" lon="-5.5250780">
        <ele>887.0</ele>
        <time>2020-04-07T18:42:06Z</time>
      </trkpt>
      <trkpt lat="42.5723140" lon="-5.5251630">
        <ele>887.2</ele>
        <time>2020-04-07T18:42:08Z</time>
      </trkpt>
      <trkpt lat="42.5722270" lon="-5.5252520">
        <ele>887.2</ele>
        <time>2020-04-07T18:42:10Z</time>
      </trkpt>
      <trkpt lat="42.5719580" lon="-5.5255650">
        <ele>887.4</ele>
        <time>2020-04-07T18:42:12Z</time>
      </trkpt>
      <trkpt lat="42.5719300" lon="-5.5257300">
        <ele>887.4</ele>
        <time>2020-04-07T18:42:14Z</time>
      </trkpt>
      <trkpt lat="42.5719570" lon="-5.5259220">
        <ele>887.8</ele>
        <time>2020-04-07T18:42:16Z</time>
      </trkpt>
      <trkpt lat="42.5719890" lon="-5.5260650">
        <ele>888.0</ele>
        <time>2020-04-07T18:42:18Z</time>
      </trkpt>
      <trkpt lat="42.5720200" lon="-5.5262040">
        <ele>888.4</ele>
        <time>2020-04-07T18:42:20Z</time>
      </trkpt>
      <trkpt lat="42.5720500" lon="-5.5263400">
        <ele>888.6</ele>
        <time>2020-04-07T18:42:22Z</time>
      </trkpt>
      <trkpt lat="42.5720800" lon="-5.5264710">
        <ele>889.0</ele>
        <time>2020-04-07T18:42:24Z</time>
      </trkpt>
      <trkpt lat="42.5721920" lon="-5.5268240">
        <ele>890.0</ele>
        <time>2020-04-07T18:42:26Z</time>
      </trkpt>
      <trkpt lat="42.5722920" lon="-5.5268700">
        <ele>890.4</ele>
        <time>2020-04-07T18:42:28Z</time>
      </trkpt>
      <trkpt lat="42.5723360" lon="-5.5269860">
        <ele>890.6</ele>
        <time>2020-04-07T18:42:30Z</time>
      </trkpt>
      <trkpt lat="42.5724200" lon="-5.5271740">
        <ele>891.2</ele>
        <time>2020-04-07T18:42:32Z</time>
      </trkpt>
      <trkpt lat="42.5724780" lon="-5.5272580">
        <ele>891.8</ele>
        <time>2020-04-07T18:42:34Z</time>
      </trkpt>
      <trkpt lat="42.5725830" lon="-5.5273370">
        <ele>892.8</ele>
        <time>2020-04-07T18:42:36Z</time>
      </trkpt>
      <trkpt lat="42.5726820" lon="-5.5273540">
        <ele>893.4</ele>
        <time>2020-04-07T18:42:38Z</time>
      </trkpt>
      <trkpt lat="42.5727470" lon="-5.5273590">
        <ele>893.8</ele>
        <time>2020-04-07T18:42:40Z</time>
      </trkpt>
      <trkpt lat="42.5728080" lon="-5.5273640">
        <ele>894.4</ele>
        <time>2020-04-07T18:42:42Z</time>
      </trkpt>
      <trkpt lat="42.5729310" lon="-5.5273930">
        <ele>895.2</ele>
        <time>2020-04-07T18:42:44Z</time>
      </trkpt>
      <trkpt lat="42.5730030" lon="-5.5274460">
        <ele>895.8</ele>
        <time>2020-04-07T18:42:46Z</time>
      </trkpt>
      <trkpt lat="42.5730450" lon="-5.5274930">
        <ele>896.2</ele>
        <time>2020-04-07T18:42:48Z</time>
      </trkpt>
      <trkpt lat="42.5730870" lon="-5.5275400">
        <ele>896.6</ele>
        <time>2020-04-07T18:42:50Z</time>
      </trkpt>
      <trkpt lat="42.5731550" lon="-5.5276480">
        <ele>897.2</ele>
        <time>2020-04-07T18:42:52Z</time>
      </trkpt>
      <trkpt lat="42.5731770" lon="-5.5277150">
        <ele>897.6</ele>
        <time>2020-04-07T18:42:54Z</time>
      </trkpt>
      <trkpt lat="42.5732120" lon="-5.5278420">
        <ele>898.2</ele>
        <time>2020-04-07T18:42:56Z</time>
      </trkpt>
      <trkpt lat="42.5732200" lon="-5.5279300">
        <ele>898.2</ele>
        <time>2020-04-07T18:42:58Z</time>
      </trkpt>
      <trkpt lat="42.5732300" lon="-5.5280360">
        <ele>898.0</ele>
        <time>2020-04-07T18:43:00Z</time>
      </trkpt>
      <trkpt lat="42.5732410" lon="-5.5281540">
        <ele>898.0</ele>
        <time>2020-04-07T18:43:02Z</time>
      </trkpt>
      <trkpt lat="42.5732540" lon="-5.5282850">
        <ele>898.0</ele>
        <time>2020-04-07T18:43:04Z</time>
      </trkpt>
      <trkpt lat="42.5732670" lon="-5.5284250">
        <ele>897.8</ele>
        <time>2020-04-07T18:43:06Z</time>
      </trkpt>
      <trkpt lat="42.5733080" lon="-5.5288250">
        <ele>897.4</ele>
        <time>2020-04-07T18:43:08Z</time>
      </trkpt>
      <trkpt lat="42.5733510" lon="-5.5290180">
        <ele>897.4</ele>
        <time>2020-04-07T18:43:10Z</time>
      </trkpt>
      <trkpt lat="42.5733980" lon="-5.5291650">
        <ele>897.2</ele>
        <time>2020-04-07T18:43:12Z</time>
      </trkpt>
      <trkpt lat="42.5734870" lon="-5.5294050">
        <ele>896.8</ele>
        <time>2020-04-07T18:43:14Z</time>
      </trkpt>
      <trkpt lat="42.5735830" lon="-5.5295950">
        <ele>896.4</ele>
        <time>2020-04-07T18:43:16Z</time>
      </trkpt>
      <trkpt lat="42.5736620" lon="-5.5297420">
        <ele>896.0</ele>
        <time>2020-04-07T18:43:18Z</time>
      </trkpt>
      <trkpt lat="42.5737430" lon="-5.5298920">
        <ele>895.8</ele>
        <time>2020-04-07T18:43:20Z</time>
      </trkpt>
      <trkpt lat="42.5738710" lon="-5.5302260">
        <ele>895.0</ele>
        <time>2020-04-07T18:43:22Z</time>
      </trkpt>
      <trkpt lat="42.5738610" lon="-5.5304030">
        <ele>894.8</ele>
        <time>2020-04-07T18:43:24Z</time>
      </trkpt>
      <trkpt lat="42.5737940" lon="-5.5303450">
        <ele>895.2</ele>
        <time>2020-04-07T18:43:26Z</time>
      </trkpt>
      <trkpt lat="42.5738540" lon="-5.5304960">
        <ele>895.2</ele>
        <time>2020-04-07T18:43:28Z</time>
      </trkpt>
      <trkpt lat="42.5739130" lon="-5.5306420">
        <ele>895.4</ele>
        <time>2020-04-07T18:43:30Z</time>
      </trkpt>
      <trkpt lat="42.5739520" lon="-5.5309040">
        <ele>895.8</ele>
        <time>2020-04-07T18:43:32Z</time>
      </trkpt>
      <trkpt lat="42.5738580" lon="-5.5309900">
        <ele>896.0</ele>
        <time>2020-04-07T18:43:34Z</time>
      </trkpt>
      <trkpt lat="42.5737800" lon="-5.5311590">
        <ele>896.2</ele>
        <time>2020-04-07T18:43:36Z</time>
      </trkpt>
      <trkpt lat="42.5738340" lon="-5.5312850">
        <ele>896.4</ele>
        <time>2020-04-07T18:43:38Z</time>
      </trkpt>
      <trkpt lat="42.5738880" lon="-5.5314090">
        <ele>896.4</ele>
        <time>2020-04-07T18:43:40Z</time>
      </trkpt>
      <trkpt lat="42.5739950" lon="-5.5316680">
        <ele>896.6</ele>
        <time>2020-04-07T18:43:42Z</time>
      </trkpt>
      <trkpt lat="42.5740420" lon="-5.5317930">
        <ele>896.8</ele>
        <time>2020-04-07T18:43:44Z</time>
      </trkpt>
      <trkpt lat="42.5741130" lon="-5.5320040">
        <ele>897.0</ele>
        <time>2020-04-07T18:43:46Z</time>
      </trkpt>
      <trkpt lat="42.5741480" lon="-5.5321320">
        <ele>897.0</ele>
        <time>2020-04-07T18:43:48Z</time>
      </trkpt>
      <trkpt lat="42.5741820" lon="-5.5322580">
        <ele>897.2</ele>
        <time>2020-04-07T18:43:50Z</time>
      </trkpt>
      <trkpt lat="42.5742560" lon="-5.5325410">
        <ele>897.2</ele>
        <time>2020-04-07T18:43:52Z</time>
      </trkpt>
      <trkpt lat="42.5742860" lon="-5.5326890">
        <ele>896.2</ele>
        <time>2020-04-07T18:43:54Z</time>
      </trkpt>
      <trkpt lat="42.5743200" lon="-5.5328620">
        <ele>895.2</ele>
        <time>2020-04-07T18:43:56Z</time>
      </trkpt>
      <trkpt lat="42.5743600" lon="-5.5330580">
        <ele>893.8</ele>
        <time>2020-04-07T18:43:58Z</time>
      </trkpt>
      <trkpt lat="42.5744020" lon="-5.5332690">
        <ele>892.4</ele>
        <time>2020-04-07T18:44:00Z</time>
      </trkpt>
      <trkpt lat="42.5744440" lon="-5.5338470">
        <ele>888.6</ele>
        <time>2020-04-07T18:44:02Z</time>
      </trkpt>
      <trkpt lat="42.5744770" lon="-5.5340960">
        <ele>887.0</ele>
        <time>2020-04-07T18:44:04Z</time>
      </trkpt>
      <trkpt lat="42.5745350" lon="-5.5345260">
        <ele>884.0</ele>
        <time>2020-04-07T18:44:06Z</time>
      </trkpt>
      <trkpt lat="42.5745720" lon="-5.5348040">
        <ele>882.0</ele>
        <time>2020-04-07T18:44:08Z</time>
      </trkpt>
      <trkpt lat="42.5746570" lon="-5.5352470">
        <ele>878.8</ele>
        <time>2020-04-07T18:44:10Z</time>
      </trkpt>
      <trkpt lat="42.5747300" lon="-5.5356430">
        <ele>876.4</ele>
        <time>2020-04-07T18:44:12Z</time>
      </trkpt>
      <trkpt lat="42.5747510" lon="-5.5360490">
        <ele>874.2</ele>
        <time>2020-04-07T18:44:14Z</time>
      </trkpt>
      <trkpt lat="42.5747900" lon="-5.5363500">
        <ele>872.8</ele>
        <time>2020-04-07T18:44:16Z</time>
      </trkpt>
      <trkpt lat="42.5748620" lon="-5.5369060">
        <ele>870.0</ele>
        <time>2020-04-07T18:44:18Z</time>
      </trkpt>
      <trkpt lat="42.5749000" lon="-5.5371990">
        <ele>868.8</ele>
        <time>2020-04-07T18:44:20Z</time>
      </trkpt>
      <trkpt lat="42.5749370" lon="-5.5374830">
        <ele>867.8</ele>
        <time>2020-04-07T18:44:22Z</time>
      </trkpt>
      <trkpt lat="42.5749850" lon="-5.5380190">
        <ele>865.8</ele>
        <time>2020-04-07T18:44:24Z</time>
      </trkpt>
      <trkpt lat="42.5749770" lon="-5.5384140">
        <ele>864.2</ele>
        <time>2020-04-07T18:44:26Z</time>
      </trkpt>
      <trkpt lat="42.5749730" lon="-5.5388510">
        <ele>862.6</ele>
        <time>2020-04-07T18:44:28Z</time>
      </trkpt>
      <trkpt lat="42.5750870" lon="-5.5391450">
        <ele>861.4</ele>
        <time>2020-04-07T18:44:30Z</time>
      </trkpt>
      <trkpt lat="42.5752600" lon="-5.5394750">
        <ele>859.8</ele>
        <time>2020-04-07T18:44:32Z</time>
      </trkpt>
      <trkpt lat="42.5753480" lon="-5.5398120">
        <ele>857.8</ele>
        <time>2020-04-07T18:44:34Z</time>
      </trkpt>
      <trkpt lat="42.5754330" lon="-5.5402300">
        <ele>855.6</ele>
        <time>2020-04-07T18:44:36Z</time>
      </trkpt>
      <trkpt lat="42.5755270" lon="-5.5406450">
        <ele>853.2</ele>
        <time>2020-04-07T18:44:38Z</time>
      </trkpt>
      <trkpt lat="42.5755830" lon="-5.5409310">
        <ele>852.4</ele>
        <time>2020-04-07T18:44:40Z</time>
      </trkpt>
      <trkpt lat="42.5756810" lon="-5.5414220">
        <ele>850.8</ele>
        <time>2020-04-07T18:44:42Z</time>
      </trkpt>
      <trkpt lat="42.5757710" lon="-5.5416690">
        <ele>849.8</ele>
        <time>2020-04-07T18:44:44Z</time>
      </trkpt>
      <trkpt lat="42.5759060" lon="-5.5420070">
        <ele>849.0</ele>
        <time>2020-04-07T18:44:46Z</time>
      </trkpt>
      <trkpt lat="42.5759970" lon="-5.5422190">
        <ele>848.8</ele>
        <time>2020-04-07T18:44:48Z</time>
      </trkpt>
      <trkpt lat="42.5760820" lon="-5.5424180">
        <ele>848.6</ele>
        <time>2020-04-07T18:44:50Z</time>
      </trkpt>
      <trkpt lat="42.5762910" lon="-5.5428590">
        <ele>847.8</ele>
        <time>2020-04-07T18:44:52Z</time>
      </trkpt>
      <trkpt lat="42.5764040" lon="-5.5430670">
        <ele>847.6</ele>
        <time>2020-04-07T18:44:54Z</time>
      </trkpt>
      <trkpt lat="42.5764680" lon="-5.5432630">
        <ele>847.0</ele>
        <time>2020-04-07T18:44:56Z</time>
      </trkpt>
      <trkpt lat="42.5765240" lon="-5.5435510">
        <ele>846.2</ele>
        <time>2020-04-07T18:44:58Z</time>
      </trkpt>
      <trkpt lat="42.5765550" lon="-5.5437650">
        <ele>845.4</ele>
        <time>2020-04-07T18:45:00Z</time>
      </trkpt>
      <trkpt lat="42.5767070" lon="-5.5439250">
        <ele>844.8</ele>
        <time>2020-04-07T18:45:02Z</time>
      </trkpt>
      <trkpt lat="42.5768730" lon="-5.5440970">
        <ele>844.0</ele>
        <time>2020-04-07T18:45:04Z</time>
      </trkpt>
      <trkpt lat="42.5770070" lon="-5.5443750">
        <ele>842.8</ele>
        <time>2020-04-07T18:45:06Z</time>
      </trkpt>
      <trkpt lat="42.5771360" lon="-5.5444610">
        <ele>842.0</ele>
        <time>2020-04-07T18:45:08Z</time>
      </trkpt>
      <trkpt lat="42.5772570" lon="-5.5447210">
        <ele>841.0</ele>
        <time>2020-04-07T18:45:10Z</time>
      </trkpt>
      <trkpt lat="42.5773470" lon="-5.5449240">
        <ele>840.4</ele>
        <time>2020-04-07T18:45:12Z</time>
      </trkpt>
      <trkpt lat="42.5775200" lon="-5.5453130">
        <ele>838.8</ele>
        <time>2020-04-07T18:45:14Z</time>
      </trkpt>
      <trkpt lat="42.5776180" lon="-5.5455200">
        <ele>838.0</ele>
        <time>2020-04-07T18:45:16Z</time>
      </trkpt>
      <trkpt lat="42.5777170" lon="-5.5457320">
        <ele>837.0</ele>
        <time>2020-04-07T18:45:18Z</time>
      </trkpt>
      <trkpt lat="42.5779190" lon="-5.5461630">
        <ele>835.0</ele>
        <time>2020-04-07T18:45:20Z</time>
      </trkpt>
      <trkpt lat="42.5780210" lon="-5.5463800">
        <ele>834.0</ele>
        <time>2020-04-07T18:45:22Z</time>
      </trkpt>
      <trkpt lat="42.5781240" lon="-5.5466000">
        <ele>833.2</ele>
        <time>2020-04-07T18:45:24Z</time>
      </trkpt>
      <trkpt lat="42.5783680" lon="-5.5469090">
        <ele>831.2</ele>
        <time>2020-04-07T18:45:26Z</time>
      </trkpt>
      <trkpt lat="42.5784670" lon="-5.5471230">
        <ele>831.0</ele>
        <time>2020-04-07T18:45:28Z</time>
      </trkpt>
      <trkpt lat="42.5785610" lon="-5.5473230">
        <ele>830.8</ele>
        <time>2020-04-07T18:45:30Z</time>
      </trkpt>
      <trkpt lat="42.5786490" lon="-5.5475120">
        <ele>830.6</ele>
        <time>2020-04-07T18:45:32Z</time>
      </trkpt>
      <trkpt lat="42.5788510" lon="-5.5479440">
        <ele>830.0</ele>
        <time>2020-04-07T18:45:34Z</time>
      </trkpt>
      <trkpt lat="42.5789310" lon="-5.5481150">
        <ele>829.8</ele>
        <time>2020-04-07T18:45:36Z</time>
      </trkpt>
      <trkpt lat="42.5790080" lon="-5.5482800">
        <ele>829.6</ele>
        <time>2020-04-07T18:45:38Z</time>
      </trkpt>
      <trkpt lat="42.5790840" lon="-5.5484420">
        <ele>829.4</ele>
        <time>2020-04-07T18:45:40Z</time>
      </trkpt>
      <trkpt lat="42.5792780" lon="-5.5488590">
        <ele>829.0</ele>
        <time>2020-04-07T18:45:42Z</time>
      </trkpt>
      <trkpt lat="42.5793560" lon="-5.5490250">
        <ele>828.6</ele>
        <time>2020-04-07T18:45:44Z</time>
      </trkpt>
      <trkpt lat="42.5794340" lon="-5.5491930">
        <ele>828.2</ele>
        <time>2020-04-07T18:45:46Z</time>
      </trkpt>
      <trkpt lat="42.5795130" lon="-5.5493630">
        <ele>827.6</ele>
        <time>2020-04-07T18:45:48Z</time>
      </trkpt>
      <trkpt lat="42.5797140" lon="-5.5497920">
        <ele>826.6</ele>
        <time>2020-04-07T18:45:50Z</time>
      </trkpt>
      <trkpt lat="42.5797950" lon="-5.5499670">
        <ele>826.2</ele>
        <time>2020-04-07T18:45:52Z</time>
      </trkpt>
      <trkpt lat="42.5798780" lon="-5.5501430">
        <ele>825.8</ele>
        <time>2020-04-07T18:45:54Z</time>
      </trkpt>
      <trkpt lat="42.5799610" lon="-5.5503210">
        <ele>825.4</ele>
        <time>2020-04-07T18:45:56Z</time>
      </trkpt>
      <trkpt lat="42.5801640" lon="-5.5507570">
        <ele>824.2</ele>
        <time>2020-04-07T18:45:58Z</time>
      </trkpt>
      <trkpt lat="42.5802480" lon="-5.5509370">
        <ele>824.0</ele>
        <time>2020-04-07T18:46:00Z</time>
      </trkpt>
      <trkpt lat="42.5803330" lon="-5.5511190">
        <ele>823.6</ele>
        <time>2020-04-07T18:46:02Z</time>
      </trkpt>
      <trkpt lat="42.5804180" lon="-5.5512990">
        <ele>823.2</ele>
        <time>2020-04-07T18:46:04Z</time>
      </trkpt>
      <trkpt lat="42.5806220" lon="-5.5517360">
        <ele>822.4</ele>
        <time>2020-04-07T18:46:06Z</time>
      </trkpt>
      <trkpt lat="42.5807070" lon="-5.5519150">
        <ele>822.0</ele>
        <time>2020-04-07T18:46:08Z</time>
      </trkpt>
      <trkpt lat="42.5807920" lon="-5.5520950">
        <ele>821.6</ele>
        <time>2020-04-07T18:46:10Z</time>
      </trkpt>
      <trkpt lat="42.5808770" lon="-5.5522740">
        <ele>821.2</ele>
        <time>2020-04-07T18:46:12Z</time>
      </trkpt>
      <trkpt lat="42.5810770" lon="-5.5526960">
        <ele>820.2</ele>
        <time>2020-04-07T18:46:14Z</time>
      </trkpt>
      <trkpt lat="42.5811640" lon="-5.5528770">
        <ele>819.8</ele>
        <time>2020-04-07T18:46:16Z</time>
      </trkpt>
      <trkpt lat="42.5812510" lon="-5.5530620">
        <ele>819.2</ele>
        <time>2020-04-07T18:46:18Z</time>
      </trkpt>
      <trkpt lat="42.5813400" lon="-5.5532490">
        <ele>818.6</ele>
        <time>2020-04-07T18:46:20Z</time>
      </trkpt>
      <trkpt lat="42.5815450" lon="-5.5536800">
        <ele>817.4</ele>
        <time>2020-04-07T18:46:22Z</time>
      </trkpt>
      <trkpt lat="42.5816350" lon="-5.5538710">
        <ele>816.8</ele>
        <time>2020-04-07T18:46:24Z</time>
      </trkpt>
      <trkpt lat="42.5817250" lon="-5.5540610">
        <ele>816.4</ele>
        <time>2020-04-07T18:46:26Z</time>
      </trkpt>
      <trkpt lat="42.5819330" lon="-5.5544960">
        <ele>815.4</ele>
        <time>2020-04-07T18:46:28Z</time>
      </trkpt>
      <trkpt lat="42.5820230" lon="-5.5546770">
        <ele>815.6</ele>
        <time>2020-04-07T18:46:30Z</time>
      </trkpt>
      <trkpt lat="42.5821070" lon="-5.5548470">
        <ele>815.8</ele>
        <time>2020-04-07T18:46:32Z</time>
      </trkpt>
      <trkpt lat="42.5822850" lon="-5.5552060">
        <ele>816.4</ele>
        <time>2020-04-07T18:46:34Z</time>
      </trkpt>
      <trkpt lat="42.5823620" lon="-5.5553590">
        <ele>816.8</ele>
        <time>2020-04-07T18:46:36Z</time>
      </trkpt>
      <trkpt lat="42.5824350" lon="-5.5555060">
        <ele>817.0</ele>
        <time>2020-04-07T18:46:38Z</time>
      </trkpt>
      <trkpt lat="42.5825050" lon="-5.5556490">
        <ele>817.2</ele>
        <time>2020-04-07T18:46:40Z</time>
      </trkpt>
      <trkpt lat="42.5826770" lon="-5.5559800">
        <ele>817.6</ele>
        <time>2020-04-07T18:46:42Z</time>
      </trkpt>
      <trkpt lat="42.5827950" lon="-5.5561420">
        <ele>817.8</ele>
        <time>2020-04-07T18:46:44Z</time>
      </trkpt>
      <trkpt lat="42.5828970" lon="-5.5562740">
        <ele>818.0</ele>
        <time>2020-04-07T18:46:46Z</time>
      </trkpt>
      <trkpt lat="42.5829860" lon="-5.5563900">
        <ele>818.0</ele>
        <time>2020-04-07T18:46:48Z</time>
      </trkpt>
      <trkpt lat="42.5831510" lon="-5.5565840">
        <ele>818.2</ele>
        <time>2020-04-07T18:46:50Z</time>
      </trkpt>
      <trkpt lat="42.5832490" lon="-5.5566850">
        <ele>818.2</ele>
        <time>2020-04-07T18:46:52Z</time>
      </trkpt>
      <trkpt lat="42.5834360" lon="-5.5568760">
        <ele>818.4</ele>
        <time>2020-04-07T18:46:54Z</time>
      </trkpt>
      <trkpt lat="42.5835390" lon="-5.5569740">
        <ele>818.2</ele>
        <time>2020-04-07T18:46:56Z</time>
      </trkpt>
      <trkpt lat="42.5836470" lon="-5.5570770">
        <ele>817.8</ele>
        <time>2020-04-07T18:46:58Z</time>
      </trkpt>
      <trkpt lat="42.5837580" lon="-5.5571830">
        <ele>817.6</ele>
        <time>2020-04-07T18:47:00Z</time>
      </trkpt>
      <trkpt lat="42.5838720" lon="-5.5572920">
        <ele>817.4</ele>
        <time>2020-04-07T18:47:02Z</time>
      </trkpt>
      <trkpt lat="42.5841770" lon="-5.5575800">
        <ele>816.8</ele>
        <time>2020-04-07T18:47:04Z</time>
      </trkpt>
      <trkpt lat="42.5843450" lon="-5.5577350">
        <ele>816.6</ele>
        <time>2020-04-07T18:47:06Z</time>
      </trkpt>
      <trkpt lat="42.5844630" lon="-5.5578440">
        <ele>816.8</ele>
        <time>2020-04-07T18:47:08Z</time>
      </trkpt>
      <trkpt lat="42.5845780" lon="-5.5579500">
        <ele>816.8</ele>
        <time>2020-04-07T18:47:10Z</time>
      </trkpt>
      <trkpt lat="42.5848340" lon="-5.5581860">
        <ele>817.0</ele>
        <time>2020-04-07T18:47:12Z</time>
      </trkpt>
      <trkpt lat="42.5849650" lon="-5.5583070">
        <ele>817.2</ele>
        <time>2020-04-07T18:47:14Z</time>
      </trkpt>
      <trkpt lat="42.5851130" lon="-5.5584400">
        <ele>817.2</ele>
        <time>2020-04-07T18:47:16Z</time>
      </trkpt>
      <trkpt lat="42.5852830" lon="-5.5585930">
        <ele>817.4</ele>
        <time>2020-04-07T18:47:18Z</time>
      </trkpt>
      <trkpt lat="42.5854250" lon="-5.5587220">
        <ele>817.4</ele>
        <time>2020-04-07T18:47:20Z</time>
      </trkpt>
      <trkpt lat="42.5855790" lon="-5.5588620">
        <ele>817.4</ele>
        <time>2020-04-07T18:47:22Z</time>
      </trkpt>
      <trkpt lat="42.5856900" lon="-5.5589640">
        <ele>817.2</ele>
        <time>2020-04-07T18:47:24Z</time>
      </trkpt>
      <trkpt lat="42.5858660" lon="-5.5591260">
        <ele>817.2</ele>
        <time>2020-04-07T18:47:26Z</time>
      </trkpt>
      <trkpt lat="42.5859780" lon="-5.5592320">
        <ele>817.0</ele>
        <time>2020-04-07T18:47:28Z</time>
      </trkpt>
      <trkpt lat="42.5860920" lon="-5.5593380">
        <ele>817.0</ele>
        <time>2020-04-07T18:47:30Z</time>
      </trkpt>
      <trkpt lat="42.5863310" lon="-5.5595610">
        <ele>816.8</ele>
        <time>2020-04-07T18:47:32Z</time>
      </trkpt>
      <trkpt lat="42.5864450" lon="-5.5596690">
        <ele>816.8</ele>
        <time>2020-04-07T18:47:34Z</time>
      </trkpt>
      <trkpt lat="42.5866480" lon="-5.5598590">
        <ele>816.8</ele>
        <time>2020-04-07T18:47:36Z</time>
      </trkpt>
      <trkpt lat="42.5867620" lon="-5.5599680">
        <ele>816.8</ele>
        <time>2020-04-07T18:47:38Z</time>
      </trkpt>
      <trkpt lat="42.5869530" lon="-5.5601380">
        <ele>816.6</ele>
        <time>2020-04-07T18:47:40Z</time>
      </trkpt>
      <trkpt lat="42.5871400" lon="-5.5602170">
        <ele>816.8</ele>
        <time>2020-04-07T18:47:42Z</time>
      </trkpt>
      <trkpt lat="42.5873330" lon="-5.5601790">
        <ele>817.4</ele>
        <time>2020-04-07T18:47:44Z</time>
      </trkpt>
      <trkpt lat="42.5874780" lon="-5.5602240">
        <ele>817.8</ele>
        <time>2020-04-07T18:47:46Z</time>
      </trkpt>
      <trkpt lat="42.5875780" lon="-5.5603640">
        <ele>818.2</ele>
        <time>2020-04-07T18:47:48Z</time>
      </trkpt>
      <trkpt lat="42.5876560" lon="-5.5605830">
        <ele>818.8</ele>
        <time>2020-04-07T18:47:50Z</time>
      </trkpt>
      <trkpt lat="42.5876510" lon="-5.5607680">
        <ele>819.2</ele>
        <time>2020-04-07T18:47:52Z</time>
      </trkpt>
      <trkpt lat="42.5875840" lon="-5.5609420">
        <ele>819.4</ele>
        <time>2020-04-07T18:47:54Z</time>
      </trkpt>
      <trkpt lat="42.5876790" lon="-5.5609990">
        <ele>818.6</ele>
        <time>2020-04-07T18:47:56Z</time>
      </trkpt>
      <trkpt lat="42.5878270" lon="-5.5611030">
        <ele>819.0</ele>
        <time>2020-04-07T18:47:58Z</time>
      </trkpt>
      <trkpt lat="42.5879230" lon="-5.5611910">
        <ele>819.4</ele>
        <time>2020-04-07T18:48:00Z</time>
      </trkpt>
      <trkpt lat="42.5880860" lon="-5.5613320">
        <ele>820.2</ele>
        <time>2020-04-07T18:48:02Z</time>
      </trkpt>
      <trkpt lat="42.5881800" lon="-5.5614010">
        <ele>820.6</ele>
        <time>2020-04-07T18:48:04Z</time>
      </trkpt>
      <trkpt lat="42.5882690" lon="-5.5614670">
        <ele>820.8</ele>
        <time>2020-04-07T18:48:06Z</time>
      </trkpt>
      <trkpt lat="42.5883560" lon="-5.5615310">
        <ele>821.2</ele>
        <time>2020-04-07T18:48:08Z</time>
      </trkpt>
      <trkpt lat="42.5884400" lon="-5.5615930">
        <ele>821.6</ele>
        <time>2020-04-07T18:48:10Z</time>
      </trkpt>
      <trkpt lat="42.5885220" lon="-5.5616540">
        <ele>821.8</ele>
        <time>2020-04-07T18:48:12Z</time>
      </trkpt>
      <trkpt lat="42.5888050" lon="-5.5618630">
        <ele>823.0</ele>
        <time>2020-04-07T18:48:14Z</time>
      </trkpt>
      <trkpt lat="42.5888860" lon="-5.5619150">
        <ele>823.4</ele>
        <time>2020-04-07T18:48:16Z</time>
      </trkpt>
      <trkpt lat="42.5889680" lon="-5.5619660">
        <ele>823.6</ele>
        <time>2020-04-07T18:48:18Z</time>
      </trkpt>
      <trkpt lat="42.5890490" lon="-5.5620170">
        <ele>823.8</ele>
        <time>2020-04-07T18:48:20Z</time>
      </trkpt>
      <trkpt lat="42.5892280" lon="-5.5621360">
        <ele>824.4</ele>
        <time>2020-04-07T18:48:22Z</time>
      </trkpt>
      <trkpt lat="42.5893060" lon="-5.5621940">
        <ele>824.8</ele>
        <time>2020-04-07T18:48:24Z</time>
      </trkpt>
      <trkpt lat="42.5893830" lon="-5.5622520">
        <ele>825.0</ele>
        <time>2020-04-07T18:48:26Z</time>
      </trkpt>
      <trkpt lat="42.5894600" lon="-5.5623090">
        <ele>825.2</ele>
        <time>2020-04-07T18:48:28Z</time>
      </trkpt>
      <trkpt lat="42.5895380" lon="-5.5623670">
        <ele>825.6</ele>
        <time>2020-04-07T18:48:30Z</time>
      </trkpt>
      <trkpt lat="42.5896160" lon="-5.5624260">
        <ele>825.8</ele>
        <time>2020-04-07T18:48:32Z</time>
      </trkpt>
      <trkpt lat="42.5896960" lon="-5.5624850">
        <ele>826.0</ele>
        <time>2020-04-07T18:48:34Z</time>
      </trkpt>
      <trkpt lat="42.5899630" lon="-5.5626930">
        <ele>826.4</ele>
        <time>2020-04-07T18:48:36Z</time>
      </trkpt>
      <trkpt lat="42.5900540" lon="-5.5627720">
        <ele>826.2</ele>
        <time>2020-04-07T18:48:38Z</time>
      </trkpt>
      <trkpt lat="42.5901540" lon="-5.5628590">
        <ele>825.8</ele>
        <time>2020-04-07T18:48:40Z</time>
      </trkpt>
      <trkpt lat="42.5903520" lon="-5.5630560">
        <ele>825.0</ele>
        <time>2020-04-07T18:48:42Z</time>
      </trkpt>
      <trkpt lat="42.5904540" lon="-5.5631750">
        <ele>824.6</ele>
        <time>2020-04-07T18:48:44Z</time>
      </trkpt>
      <trkpt lat="42.5906330" lon="-5.5634020">
        <ele>824.0</ele>
        <time>2020-04-07T18:48:46Z</time>
      </trkpt>
      <trkpt lat="42.5907610" lon="-5.5635870">
        <ele>823.8</ele>
        <time>2020-04-07T18:48:48Z</time>
      </trkpt>
      <trkpt lat="42.5908580" lon="-5.5637280">
        <ele>824.0</ele>
        <time>2020-04-07T18:48:50Z</time>
      </trkpt>
      <trkpt lat="42.5910480" lon="-5.5640040">
        <ele>824.4</ele>
        <time>2020-04-07T18:48:52Z</time>
      </trkpt>
      <trkpt lat="42.5911390" lon="-5.5641360">
        <ele>824.6</ele>
        <time>2020-04-07T18:48:54Z</time>
      </trkpt>
      <trkpt lat="42.5912290" lon="-5.5642670">
        <ele>824.8</ele>
        <time>2020-04-07T18:48:56Z</time>
      </trkpt>
      <trkpt lat="42.5914140" lon="-5.5645360">
        <ele>825.2</ele>
        <time>2020-04-07T18:48:58Z</time>
      </trkpt>
      <trkpt lat="42.5914970" lon="-5.5646660">
        <ele>825.4</ele>
        <time>2020-04-07T18:49:00Z</time>
      </trkpt>
      <trkpt lat="42.5915800" lon="-5.5647950">
        <ele>825.6</ele>
        <time>2020-04-07T18:49:02Z</time>
      </trkpt>
      <trkpt lat="42.5916610" lon="-5.5649220">
        <ele>825.8</ele>
        <time>2020-04-07T18:49:04Z</time>
      </trkpt>
      <trkpt lat="42.5918620" lon="-5.5651850">
        <ele>826.2</ele>
        <time>2020-04-07T18:49:06Z</time>
      </trkpt>
      <trkpt lat="42.5919800" lon="-5.5651780">
        <ele>826.4</ele>
        <time>2020-04-07T18:49:08Z</time>
      </trkpt>
      <trkpt lat="42.5920310" lon="-5.5653280">
        <ele>826.6</ele>
        <time>2020-04-07T18:49:10Z</time>
      </trkpt>
      <trkpt lat="42.5920820" lon="-5.5654770">
        <ele>826.8</ele>
        <time>2020-04-07T18:49:12Z</time>
      </trkpt>
      <trkpt lat="42.5921330" lon="-5.5656250">
        <ele>827.0</ele>
        <time>2020-04-07T18:49:14Z</time>
      </trkpt>
      <trkpt lat="42.5922810" lon="-5.5659430">
        <ele>827.6</ele>
        <time>2020-04-07T18:49:16Z</time>
      </trkpt>
      <trkpt lat="42.5923570" lon="-5.5660520">
        <ele>828.0</ele>
        <time>2020-04-07T18:49:18Z</time>
      </trkpt>
      <trkpt lat="42.5924330" lon="-5.5662640">
        <ele>829.0</ele>
        <time>2020-04-07T18:49:20Z</time>
      </trkpt>
      <trkpt lat="42.5925070" lon="-5.5663600">
        <ele>829.4</ele>
        <time>2020-04-07T18:49:22Z</time>
      </trkpt>
      <trkpt lat="42.5925770" lon="-5.5664510">
        <ele>829.8</ele>
        <time>2020-04-07T18:49:24Z</time>
      </trkpt>
      <trkpt lat="42.5926460" lon="-5.5665410">
        <ele>830.2</ele>
        <time>2020-04-07T18:49:26Z</time>
      </trkpt>
      <trkpt lat="42.5927140" lon="-5.5666290">
        <ele>830.6</ele>
        <time>2020-04-07T18:49:28Z</time>
      </trkpt>
      <trkpt lat="42.5928930" lon="-5.5668620">
        <ele>831.6</ele>
        <time>2020-04-07T18:49:30Z</time>
      </trkpt>
      <trkpt lat="42.5929620" lon="-5.5669510">
        <ele>831.6</ele>
        <time>2020-04-07T18:49:32Z</time>
      </trkpt>
      <trkpt lat="42.5930350" lon="-5.5670460">
        <ele>831.6</ele>
        <time>2020-04-07T18:49:34Z</time>
      </trkpt>
      <trkpt lat="42.5931110" lon="-5.5671450">
        <ele>831.6</ele>
        <time>2020-04-07T18:49:36Z</time>
      </trkpt>
      <trkpt lat="42.5933050" lon="-5.5673980">
        <ele>831.6</ele>
        <time>2020-04-07T18:49:38Z</time>
      </trkpt>
      <trkpt lat="42.5933870" lon="-5.5675040">
        <ele>831.6</ele>
        <time>2020-04-07T18:49:40Z</time>
      </trkpt>
      <trkpt lat="42.5934710" lon="-5.5676140">
        <ele>831.6</ele>
        <time>2020-04-07T18:49:42Z</time>
      </trkpt>
      <trkpt lat="42.5935570" lon="-5.5677250">
        <ele>831.6</ele>
        <time>2020-04-07T18:49:44Z</time>
      </trkpt>
      <trkpt lat="42.5937600" lon="-5.5679850">
        <ele>831.6</ele>
        <time>2020-04-07T18:49:46Z</time>
      </trkpt>
      <trkpt lat="42.5938560" lon="-5.5680960">
        <ele>831.4</ele>
        <time>2020-04-07T18:49:48Z</time>
      </trkpt>
      <trkpt lat="42.5939540" lon="-5.5682100">
        <ele>831.2</ele>
        <time>2020-04-07T18:49:50Z</time>
      </trkpt>
      <trkpt lat="42.5941700" lon="-5.5684590">
        <ele>830.8</ele>
        <time>2020-04-07T18:49:52Z</time>
      </trkpt>
      <trkpt lat="42.5942820" lon="-5.5685660">
        <ele>830.4</ele>
        <time>2020-04-07T18:49:54Z</time>
      </trkpt>
      <trkpt lat="42.5943970" lon="-5.5686750">
        <ele>830.2</ele>
        <time>2020-04-07T18:49:56Z</time>
      </trkpt>
      <trkpt lat="42.5946210" lon="-5.5688890">
        <ele>830.0</ele>
        <time>2020-04-07T18:49:58Z</time>
      </trkpt>
      <trkpt lat="42.5947340" lon="-5.5689960">
        <ele>830.4</ele>
        <time>2020-04-07T18:50:00Z</time>
      </trkpt>
      <trkpt lat="42.5948420" lon="-5.5690990">
        <ele>830.6</ele>
        <time>2020-04-07T18:50:02Z</time>
      </trkpt>
      <trkpt lat="42.5950540" lon="-5.5693000">
        <ele>831.2</ele>
        <time>2020-04-07T18:50:04Z</time>
      </trkpt>
      <trkpt lat="42.5952030" lon="-5.5694530">
        <ele>831.6</ele>
        <time>2020-04-07T18:50:06Z</time>
      </trkpt>
      <trkpt lat="42.5953400" lon="-5.5695800">
        <ele>832.0</ele>
        <time>2020-04-07T18:50:08Z</time>
      </trkpt>
      <trkpt lat="42.5954590" lon="-5.5696640">
        <ele>832.4</ele>
        <time>2020-04-07T18:50:10Z</time>
      </trkpt>
      <trkpt lat="42.5956010" lon="-5.5697000">
        <ele>832.8</ele>
        <time>2020-04-07T18:50:12Z</time>
      </trkpt>
      <trkpt lat="42.5957090" lon="-5.5697130">
        <ele>833.2</ele>
        <time>2020-04-07T18:50:14Z</time>
      </trkpt>
      <trkpt lat="42.5958130" lon="-5.5697250">
        <ele>833.4</ele>
        <time>2020-04-07T18:50:16Z</time>
      </trkpt>
      <trkpt lat="42.5960510" lon="-5.5697540">
        <ele>834.2</ele>
        <time>2020-04-07T18:50:18Z</time>
      </trkpt>
      <trkpt lat="42.5961490" lon="-5.5697720">
        <ele>834.6</ele>
        <time>2020-04-07T18:50:20Z</time>
      </trkpt>
      <trkpt lat="42.5962450" lon="-5.5697900">
        <ele>834.8</ele>
        <time>2020-04-07T18:50:22Z</time>
      </trkpt>
      <trkpt lat="42.5963380" lon="-5.5698080">
        <ele>835.2</ele>
        <time>2020-04-07T18:50:24Z</time>
      </trkpt>
      <trkpt lat="42.5965570" lon="-5.5698530">
        <ele>835.8</ele>
        <time>2020-04-07T18:50:26Z</time>
      </trkpt>
      <trkpt lat="42.5966530" lon="-5.5698790">
        <ele>835.8</ele>
        <time>2020-04-07T18:50:28Z</time>
      </trkpt>
      <trkpt lat="42.5967530" lon="-5.5699070">
        <ele>835.8</ele>
        <time>2020-04-07T18:50:30Z</time>
      </trkpt>
      <trkpt lat="42.5969620" lon="-5.5699400">
        <ele>835.8</ele>
        <time>2020-04-07T18:50:32Z</time>
      </trkpt>
      <trkpt lat="42.5970930" lon="-5.5699590">
        <ele>836.0</ele>
        <time>2020-04-07T18:50:34Z</time>
      </trkpt>
      <trkpt lat="42.5972000" lon="-5.5699950">
        <ele>836.0</ele>
        <time>2020-04-07T18:50:36Z</time>
      </trkpt>
      <trkpt lat="42.5973950" lon="-5.5700530">
        <ele>836.0</ele>
        <time>2020-04-07T18:50:38Z</time>
      </trkpt>
      <trkpt lat="42.5975080" lon="-5.5700770">
        <ele>836.0</ele>
        <time>2020-04-07T18:50:40Z</time>
      </trkpt>
      <trkpt lat="42.5976960" lon="-5.5701330">
        <ele>836.2</ele>
        <time>2020-04-07T18:50:42Z</time>
      </trkpt>
      <trkpt lat="42.5978040" lon="-5.5701790">
        <ele>836.6</ele>
        <time>2020-04-07T18:50:44Z</time>
      </trkpt>
      <trkpt lat="42.5979090" lon="-5.5702250">
        <ele>836.8</ele>
        <time>2020-04-07T18:50:46Z</time>
      </trkpt>
      <trkpt lat="42.5980930" lon="-5.5702020">
        <ele>837.2</ele>
        <time>2020-04-07T18:50:48Z</time>
      </trkpt>
      <trkpt lat="42.5981420" lon="-5.5700720">
        <ele>837.4</ele>
        <time>2020-04-07T18:50:50Z</time>
      </trkpt>
      <trkpt lat="42.5981910" lon="-5.5699440">
        <ele>837.8</ele>
        <time>2020-04-07T18:50:52Z</time>
      </trkpt>
      <trkpt lat="42.5982790" lon="-5.5696700">
        <ele>838.2</ele>
        <time>2020-04-07T18:50:54Z</time>
      </trkpt>
      <trkpt lat="42.5983080" lon="-5.5695350">
        <ele>838.4</ele>
        <time>2020-04-07T18:50:56Z</time>
      </trkpt>
      <trkpt lat="42.5983370" lon="-5.5694010">
        <ele>838.8</ele>
        <time>2020-04-07T18:50:58Z</time>
      </trkpt>
      <trkpt lat="42.5983640" lon="-5.5692720">
        <ele>839.0</ele>
        <time>2020-04-07T18:51:00Z</time>
      </trkpt>
      <trkpt lat="42.5983920" lon="-5.5691420">
        <ele>839.2</ele>
        <time>2020-04-07T18:51:02Z</time>
      </trkpt>
      <trkpt lat="42.5984200" lon="-5.5690140">
        <ele>839.6</ele>
        <time>2020-04-07T18:51:04Z</time>
      </trkpt>
      <trkpt lat="42.5985110" lon="-5.5685860">
        <ele>840.4</ele>
        <time>2020-04-07T18:51:06Z</time>
      </trkpt>
      <trkpt lat="42.5985380" lon="-5.5684610">
        <ele>840.6</ele>
        <time>2020-04-07T18:51:08Z</time>
      </trkpt>
      <trkpt lat="42.5985650" lon="-5.5683360">
        <ele>840.8</ele>
        <time>2020-04-07T18:51:10Z</time>
      </trkpt>
      <trkpt lat="42.5985920" lon="-5.5682110">
        <ele>841.2</ele>
        <time>2020-04-07T18:51:12Z</time>
      </trkpt>
      <trkpt lat="42.5986180" lon="-5.5680870">
        <ele>841.4</ele>
        <time>2020-04-07T18:51:14Z</time>
      </trkpt>
      <trkpt lat="42.5986440" lon="-5.5679640">
        <ele>841.6</ele>
        <time>2020-04-07T18:51:16Z</time>
      </trkpt>
      <trkpt lat="42.5986700" lon="-5.5678430">
        <ele>841.8</ele>
        <time>2020-04-07T18:51:18Z</time>
      </trkpt>
      <trkpt lat="42.5987850" lon="-5.5674770">
        <ele>842.6</ele>
        <time>2020-04-07T18:51:20Z</time>
      </trkpt>
      <trkpt lat="42.5988770" lon="-5.5674950">
        <ele>842.6</ele>
        <time>2020-04-07T18:51:22Z</time>
      </trkpt>
      <trkpt lat="42.5989710" lon="-5.5675130">
        <ele>842.6</ele>
        <time>2020-04-07T18:51:24Z</time>
      </trkpt>
      <trkpt lat="42.5990680" lon="-5.5675320">
        <ele>842.6</ele>
        <time>2020-04-07T18:51:26Z</time>
      </trkpt>
      <trkpt lat="42.5993080" lon="-5.5675850">
        <ele>842.4</ele>
        <time>2020-04-07T18:51:28Z</time>
      </trkpt>
      <trkpt lat="42.5992670" lon="-5.5677140">
        <ele>842.4</ele>
        <time>2020-04-07T18:51:30Z</time>
      </trkpt>
      <trkpt lat="42.5992260" lon="-5.5678440">
        <ele>842.4</ele>
        <time>2020-04-07T18:51:32Z</time>
      </trkpt>
      <trkpt lat="42.5992210" lon="-5.5680760">
        <ele>842.4</ele>
        <time>2020-04-07T18:51:34Z</time>
      </trkpt>
      <trkpt lat="42.5992940" lon="-5.5682690">
        <ele>842.4</ele>
        <time>2020-04-07T18:51:36Z</time>
      </trkpt>
      <trkpt lat="42.5992620" lon="-5.5684160">
        <ele>842.0</ele>
        <time>2020-04-07T18:51:38Z</time>
      </trkpt>
      <trkpt lat="42.5992300" lon="-5.5685700">
        <ele>841.8</ele>
        <time>2020-04-07T18:51:40Z</time>
      </trkpt>
      <trkpt lat="42.5991960" lon="-5.5687310">
        <ele>841.4</ele>
        <time>2020-04-07T18:51:42Z</time>
      </trkpt>
      <trkpt lat="42.5991600" lon="-5.5688990">
        <ele>841.2</ele>
        <time>2020-04-07T18:51:44Z</time>
      </trkpt>
      <trkpt lat="42.5991260" lon="-5.5692940">
        <ele>840.4</ele>
        <time>2020-04-07T18:51:46Z</time>
      </trkpt>
      <trkpt lat="42.5990930" lon="-5.5695260">
        <ele>839.8</ele>
        <time>2020-04-07T18:51:48Z</time>
      </trkpt>
      <trkpt lat="42.5990900" lon="-5.5697970">
        <ele>839.4</ele>
        <time>2020-04-07T18:51:50Z</time>
      </trkpt>
      <trkpt lat="42.5990760" lon="-5.5700330">
        <ele>839.0</ele>
        <time>2020-04-07T18:51:52Z</time>
      </trkpt>
      <trkpt lat="42.5992060" lon="-5.5700980">
        <ele>839.0</ele>
        <time>2020-04-07T18:51:54Z</time>
      </trkpt>
      <trkpt lat="42.5994160" lon="-5.5702040">
        <ele>839.2</ele>
        <time>2020-04-07T18:51:56Z</time>
      </trkpt>
      <trkpt lat="42.5995390" lon="-5.5702690">
        <ele>839.4</ele>
        <time>2020-04-07T18:51:58Z</time>
      </trkpt>
      <trkpt lat="42.5996580" lon="-5.5703320">
        <ele>839.4</ele>
        <time>2020-04-07T18:52:00Z</time>
      </trkpt>
      <trkpt lat="42.5997770" lon="-5.5703940">
        <ele>839.4</ele>
        <time>2020-04-07T18:52:02Z</time>
      </trkpt>
      <trkpt lat="42.6000390" lon="-5.5705320">
        <ele>839.8</ele>
        <time>2020-04-07T18:52:04Z</time>
      </trkpt>
      <trkpt lat="42.6001500" lon="-5.5705910">
        <ele>840.0</ele>
        <time>2020-04-07T18:52:06Z</time>
      </trkpt>
      <trkpt lat="42.6002560" lon="-5.5706470">
        <ele>840.4</ele>
        <time>2020-04-07T18:52:08Z</time>
      </trkpt>
      <trkpt lat="42.6004960" lon="-5.5707460">
        <ele>840.8</ele>
        <time>2020-04-07T18:52:10Z</time>
      </trkpt>
      <trkpt lat="42.6005300" lon="-5.5706090">
        <ele>841.0</ele>
        <time>2020-04-07T18:52:12Z</time>
      </trkpt>
      <trkpt lat="42.6006300" lon="-5.5704840">
        <ele>841.4</ele>
        <time>2020-04-07T18:52:14Z</time>
      </trkpt>
      <trkpt lat="42.6007930" lon="-5.5704710">
        <ele>841.8</ele>
        <time>2020-04-07T18:52:16Z</time>
      </trkpt>
      <trkpt lat="42.6008920" lon="-5.5705120">
        <ele>841.8</ele>
        <time>2020-04-07T18:52:18Z</time>
      </trkpt>
      <trkpt lat="42.6010610" lon="-5.5705800">
        <ele>842.0</ele>
        <time>2020-04-07T18:52:20Z</time>
      </trkpt>
      <trkpt lat="42.6011560" lon="-5.5706330">
        <ele>842.0</ele>
        <time>2020-04-07T18:52:22Z</time>
      </trkpt>
      <trkpt lat="42.6012510" lon="-5.5706860">
        <ele>842.2</ele>
        <time>2020-04-07T18:52:24Z</time>
      </trkpt>
      <trkpt lat="42.6013470" lon="-5.5707380">
        <ele>842.2</ele>
        <time>2020-04-07T18:52:26Z</time>
      </trkpt>
      <trkpt lat="42.6014440" lon="-5.5707920">
        <ele>842.4</ele>
        <time>2020-04-07T18:52:28Z</time>
      </trkpt>
      <trkpt lat="42.6016550" lon="-5.5709790">
        <ele>842.4</ele>
        <time>2020-04-07T18:52:30Z</time>
      </trkpt>
      <trkpt lat="42.6016830" lon="-5.5711270">
        <ele>842.2</ele>
        <time>2020-04-07T18:52:32Z</time>
      </trkpt>
      <trkpt lat="42.6017250" lon="-5.5713960">
        <ele>841.6</ele>
        <time>2020-04-07T18:52:34Z</time>
      </trkpt>
      <trkpt lat="42.6017360" lon="-5.5715650">
        <ele>841.2</ele>
        <time>2020-04-07T18:52:36Z</time>
      </trkpt>
      <trkpt lat="42.6017480" lon="-5.5717400">
        <ele>841.0</ele>
        <time>2020-04-07T18:52:38Z</time>
      </trkpt>
      <trkpt lat="42.6018590" lon="-5.5720160">
        <ele>840.2</ele>
        <time>2020-04-07T18:52:40Z</time>
      </trkpt>
      <trkpt lat="42.6018690" lon="-5.5722370">
        <ele>840.4</ele>
        <time>2020-04-07T18:52:42Z</time>
      </trkpt>
      <trkpt lat="42.6018680" lon="-5.5724110">
        <ele>840.6</ele>
        <time>2020-04-07T18:52:44Z</time>
      </trkpt>
      <trkpt lat="42.6018670" lon="-5.5725800">
        <ele>840.8</ele>
        <time>2020-04-07T18:52:46Z</time>
      </trkpt>
      <trkpt lat="42.6018680" lon="-5.5729320">
        <ele>841.4</ele>
        <time>2020-04-07T18:52:48Z</time>
      </trkpt>
      <trkpt lat="42.6018710" lon="-5.5730890">
        <ele>841.6</ele>
        <time>2020-04-07T18:52:50Z</time>
      </trkpt>
      <trkpt lat="42.6018740" lon="-5.5732400">
        <ele>841.8</ele>
        <time>2020-04-07T18:52:52Z</time>
      </trkpt>
      <trkpt lat="42.6018800" lon="-5.5735680">
        <ele>842.2</ele>
        <time>2020-04-07T18:52:54Z</time>
      </trkpt>
      <trkpt lat="42.6018800" lon="-5.5737170">
        <ele>842.2</ele>
        <time>2020-04-07T18:52:56Z</time>
      </trkpt>
      <trkpt lat="42.6018800" lon="-5.5738660">
        <ele>842.2</ele>
        <time>2020-04-07T18:52:58Z</time>
      </trkpt>
      <trkpt lat="42.6018800" lon="-5.5741900">
        <ele>842.4</ele>
        <time>2020-04-07T18:53:00Z</time>
      </trkpt>
      <trkpt lat="42.6018800" lon="-5.5743430">
        <ele>842.4</ele>
        <time>2020-04-07T18:53:02Z</time>
      </trkpt>
      <trkpt lat="42.6018800" lon="-5.5744990">
        <ele>842.4</ele>
        <time>2020-04-07T18:53:04Z</time>
      </trkpt>
      <trkpt lat="42.6018760" lon="-5.5748270">
        <ele>842.4</ele>
        <time>2020-04-07T18:53:06Z</time>
      </trkpt>
      <trkpt lat="42.6018450" lon="-5.5749780">
        <ele>842.4</ele>
        <time>2020-04-07T18:53:08Z</time>
      </trkpt>
      <trkpt lat="42.6017970" lon="-5.5752050">
        <ele>842.4</ele>
        <time>2020-04-07T18:53:10Z</time>
      </trkpt>
      <trkpt lat="42.6017820" lon="-5.5754110">
        <ele>842.4</ele>
        <time>2020-04-07T18:53:12Z</time>
      </trkpt>
      <trkpt lat="42.6017840" lon="-5.5755750">
        <ele>842.2</ele>
        <time>2020-04-07T18:53:14Z</time>
      </trkpt>
      <trkpt lat="42.6017860" lon="-5.5757430">
        <ele>842.0</ele>
        <time>2020-04-07T18:53:16Z</time>
      </trkpt>
      <trkpt lat="42.6017880" lon="-5.5759160">
        <ele>841.8</ele>
        <time>2020-04-07T18:53:18Z</time>
      </trkpt>
      <trkpt lat="42.6017900" lon="-5.5760900">
        <ele>841.6</ele>
        <time>2020-04-07T18:53:20Z</time>
      </trkpt>
      <trkpt lat="42.6017960" lon="-5.5765890">
        <ele>841.0</ele>
        <time>2020-04-07T18:53:22Z</time>
      </trkpt>
      <trkpt lat="42.6017980" lon="-5.5767660">
        <ele>840.8</ele>
        <time>2020-04-07T18:53:24Z</time>
      </trkpt>
      <trkpt lat="42.6018000" lon="-5.5769440">
        <ele>840.6</ele>
        <time>2020-04-07T18:53:26Z</time>
      </trkpt>
      <trkpt lat="42.6018030" lon="-5.5771220">
        <ele>840.4</ele>
        <time>2020-04-07T18:53:28Z</time>
      </trkpt>
      <trkpt lat="42.6018050" lon="-5.5773020">
        <ele>840.2</ele>
        <time>2020-04-07T18:53:30Z</time>
      </trkpt>
      <trkpt lat="42.6018150" lon="-5.5778070">
        <ele>839.6</ele>
        <time>2020-04-07T18:53:32Z</time>
      </trkpt>
      <trkpt lat="42.6018240" lon="-5.5779920">
        <ele>839.2</ele>
        <time>2020-04-07T18:53:34Z</time>
      </trkpt>
      <trkpt lat="42.6018340" lon="-5.5781830">
        <ele>838.8</ele>
        <time>2020-04-07T18:53:36Z</time>
      </trkpt>
      <trkpt lat="42.6018550" lon="-5.5785790">
        <ele>837.8</ele>
        <time>2020-04-07T18:53:38Z</time>
      </trkpt>
      <trkpt lat="42.6018660" lon="-5.5787800">
        <ele>837.2</ele>
        <time>2020-04-07T18:53:40Z</time>
      </trkpt>
      <trkpt lat="42.6018770" lon="-5.5789850">
        <ele>836.8</ele>
        <time>2020-04-07T18:53:42Z</time>
      </trkpt>
      <trkpt lat="42.6018900" lon="-5.5793940">
        <ele>835.8</ele>
        <time>2020-04-07T18:53:44Z</time>
      </trkpt>
      <trkpt lat="42.6018860" lon="-5.5797140">
        <ele>835.0</ele>
        <time>2020-04-07T18:53:46Z</time>
      </trkpt>
      <trkpt lat="42.6018330" lon="-5.5799760">
        <ele>835.0</ele>
        <time>2020-04-07T18:53:48Z</time>
      </trkpt>
      <trkpt lat="42.6017330" lon="-5.5801660">
        <ele>835.0</ele>
        <time>2020-04-07T18:53:50Z</time>
      </trkpt>
      <trkpt lat="42.6018190" lon="-5.5803290">
        <ele>835.0</ele>
        <time>2020-04-07T18:53:52Z</time>
      </trkpt>
      <trkpt lat="42.6017850" lon="-5.5804860">
        <ele>835.0</ele>
        <time>2020-04-07T18:53:54Z</time>
      </trkpt>
      <trkpt lat="42.6017270" lon="-5.5807580">
        <ele>834.8</ele>
        <time>2020-04-07T18:53:56Z</time>
      </trkpt>
      <trkpt lat="42.6017010" lon="-5.5809170">
        <ele>834.6</ele>
        <time>2020-04-07T18:53:58Z</time>
      </trkpt>
      <trkpt lat="42.6016750" lon="-5.5810820">
        <ele>834.2</ele>
        <time>2020-04-07T18:54:00Z</time>
      </trkpt>
      <trkpt lat="42.6016470" lon="-5.5812530">
        <ele>833.8</ele>
        <time>2020-04-07T18:54:02Z</time>
      </trkpt>
      <trkpt lat="42.6015800" lon="-5.5816650">
        <ele>833.0</ele>
        <time>2020-04-07T18:54:04Z</time>
      </trkpt>
      <trkpt lat="42.6015510" lon="-5.5818470">
        <ele>832.6</ele>
        <time>2020-04-07T18:54:06Z</time>
      </trkpt>
      <trkpt lat="42.6015210" lon="-5.5820320">
        <ele>832.2</ele>
        <time>2020-04-07T18:54:08Z</time>
      </trkpt>
      <trkpt lat="42.6014900" lon="-5.5822200">
        <ele>831.8</ele>
        <time>2020-04-07T18:54:10Z</time>
      </trkpt>
      <trkpt lat="42.6014000" lon="-5.5826350">
        <ele>831.2</ele>
        <time>2020-04-07T18:54:12Z</time>
      </trkpt>
      <trkpt lat="42.6013380" lon="-5.5827990">
        <ele>831.0</ele>
        <time>2020-04-07T18:54:14Z</time>
      </trkpt>
      <trkpt lat="42.6012790" lon="-5.5829540">
        <ele>831.0</ele>
        <time>2020-04-07T18:54:16Z</time>
      </trkpt>
      <trkpt lat="42.6012210" lon="-5.5831070">
        <ele>831.0</ele>
        <time>2020-04-07T18:54:19Z</time>
      </trkpt>
      <trkpt lat="42.6011640" lon="-5.5832590">
        <ele>830.8</ele>
        <time>2020-04-07T18:54:21Z</time>
      </trkpt>
      <trkpt lat="42.6010050" lon="-5.5836790">
        <ele>830.6</ele>
        <time>2020-04-07T18:54:23Z</time>
      </trkpt>
      <trkpt lat="42.6009480" lon="-5.5838300">
        <ele>830.6</ele>
        <time>2020-04-07T18:54:25Z</time>
      </trkpt>
      <trkpt lat="42.6008910" lon="-5.5839810">
        <ele>830.6</ele>
        <time>2020-04-07T18:54:27Z</time>
      </trkpt>
      <trkpt lat="42.6008330" lon="-5.5841320">
        <ele>830.6</ele>
        <time>2020-04-07T18:54:29Z</time>
      </trkpt>
      <trkpt lat="42.6007760" lon="-5.5842840">
        <ele>830.4</ele>
        <time>2020-04-07T18:54:31Z</time>
      </trkpt>
      <trkpt lat="42.6006160" lon="-5.5847060">
        <ele>830.6</ele>
        <time>2020-04-07T18:54:33Z</time>
      </trkpt>
      <trkpt lat="42.6005610" lon="-5.5848510">
        <ele>830.8</ele>
        <time>2020-04-07T18:54:35Z</time>
      </trkpt>
      <trkpt lat="42.6005080" lon="-5.5849900">
        <ele>831.0</ele>
        <time>2020-04-07T18:54:37Z</time>
      </trkpt>
      <trkpt lat="42.6004580" lon="-5.5851240">
        <ele>831.2</ele>
        <time>2020-04-07T18:54:39Z</time>
      </trkpt>
      <trkpt lat="42.6004090" lon="-5.5852540">
        <ele>831.6</ele>
        <time>2020-04-07T18:54:41Z</time>
      </trkpt>
      <trkpt lat="42.6002940" lon="-5.5856320">
        <ele>832.2</ele>
        <time>2020-04-07T18:54:43Z</time>
      </trkpt>
      <trkpt lat="42.6004120" lon="-5.5857440">
        <ele>832.6</ele>
        <time>2020-04-07T18:54:45Z</time>
      </trkpt>
      <trkpt lat="42.6004380" lon="-5.5859140">
        <ele>832.8</ele>
        <time>2020-04-07T18:54:47Z</time>
      </trkpt>
      <trkpt lat="42.6003790" lon="-5.5860630">
        <ele>833.0</ele>
        <time>2020-04-07T18:54:49Z</time>
      </trkpt>
      <trkpt lat="42.6002630" lon="-5.5861380">
        <ele>833.4</ele>
        <time>2020-04-07T18:54:51Z</time>
      </trkpt>
      <trkpt lat="42.6001490" lon="-5.5861310">
        <ele>833.6</ele>
        <time>2020-04-07T18:54:53Z</time>
      </trkpt>
      <trkpt lat="42.6000680" lon="-5.5862500">
        <ele>833.6</ele>
        <time>2020-04-07T18:54:55Z</time>
      </trkpt>
      <trkpt lat="42.6000240" lon="-5.5863730">
        <ele>833.4</ele>
        <time>2020-04-07T18:54:57Z</time>
      </trkpt>
      <trkpt lat="42.5999780" lon="-5.5864990">
        <ele>833.4</ele>
        <time>2020-04-07T18:54:59Z</time>
      </trkpt>
      <trkpt lat="42.5999310" lon="-5.5866290">
        <ele>833.4</ele>
        <time>2020-04-07T18:55:01Z</time>
      </trkpt>
      <trkpt lat="42.5998830" lon="-5.5867650">
        <ele>833.4</ele>
        <time>2020-04-07T18:55:03Z</time>
      </trkpt>
      <trkpt lat="42.5998330" lon="-5.5869030">
        <ele>833.4</ele>
        <time>2020-04-07T18:55:05Z</time>
      </trkpt>
      <trkpt lat="42.5996780" lon="-5.5873320">
        <ele>833.0</ele>
        <time>2020-04-07T18:55:07Z</time>
      </trkpt>
      <trkpt lat="42.5996240" lon="-5.5874830">
        <ele>832.6</ele>
        <time>2020-04-07T18:55:09Z</time>
      </trkpt>
      <trkpt lat="42.5995660" lon="-5.5876430">
        <ele>832.0</ele>
        <time>2020-04-07T18:55:11Z</time>
      </trkpt>
      <trkpt lat="42.5995050" lon="-5.5878120">
        <ele>831.6</ele>
        <time>2020-04-07T18:55:13Z</time>
      </trkpt>
      <trkpt lat="42.5994410" lon="-5.5879890">
        <ele>831.0</ele>
        <time>2020-04-07T18:55:15Z</time>
      </trkpt>
      <trkpt lat="42.5992700" lon="-5.5884620">
        <ele>829.4</ele>
        <time>2020-04-07T18:55:17Z</time>
      </trkpt>
      <trkpt lat="42.5992010" lon="-5.5886530">
        <ele>828.8</ele>
        <time>2020-04-07T18:55:19Z</time>
      </trkpt>
      <trkpt lat="42.5991300" lon="-5.5888510">
        <ele>828.2</ele>
        <time>2020-04-07T18:55:21Z</time>
      </trkpt>
      <trkpt lat="42.5990570" lon="-5.5890520">
        <ele>827.6</ele>
        <time>2020-04-07T18:55:23Z</time>
      </trkpt>
      <trkpt lat="42.5988820" lon="-5.5895430">
        <ele>826.6</ele>
        <time>2020-04-07T18:55:25Z</time>
      </trkpt>
      <trkpt lat="42.5987880" lon="-5.5898330">
        <ele>827.2</ele>
        <time>2020-04-07T18:55:27Z</time>
      </trkpt>
      <trkpt lat="42.5987560" lon="-5.5900740">
        <ele>827.8</ele>
        <time>2020-04-07T18:55:29Z</time>
      </trkpt>
      <trkpt lat="42.5987470" lon="-5.5902580">
        <ele>828.2</ele>
        <time>2020-04-07T18:55:31Z</time>
      </trkpt>
      <trkpt lat="42.5987380" lon="-5.5904310">
        <ele>828.6</ele>
        <time>2020-04-07T18:55:33Z</time>
      </trkpt>
      <trkpt lat="42.5987300" lon="-5.5905950">
        <ele>829.0</ele>
        <time>2020-04-07T18:55:35Z</time>
      </trkpt>
      <trkpt lat="42.5987100" lon="-5.5909790">
        <ele>829.6</ele>
        <time>2020-04-07T18:55:37Z</time>
      </trkpt>
      <trkpt lat="42.5987020" lon="-5.5911380">
        <ele>829.6</ele>
        <time>2020-04-07T18:55:39Z</time>
      </trkpt>
      <trkpt lat="42.5986940" lon="-5.5913000">
        <ele>829.4</ele>
        <time>2020-04-07T18:55:41Z</time>
      </trkpt>
      <trkpt lat="42.5986860" lon="-5.5914640">
        <ele>829.4</ele>
        <time>2020-04-07T18:55:43Z</time>
      </trkpt>
      <trkpt lat="42.5986660" lon="-5.5918560">
        <ele>829.2</ele>
        <time>2020-04-07T18:55:45Z</time>
      </trkpt>
      <trkpt lat="42.5986580" lon="-5.5920250">
        <ele>829.2</ele>
        <time>2020-04-07T18:55:47Z</time>
      </trkpt>
      <trkpt lat="42.5986490" lon="-5.5921930">
        <ele>829.2</ele>
        <time>2020-04-07T18:55:49Z</time>
      </trkpt>
      <trkpt lat="42.5986290" lon="-5.5925920">
        <ele>829.0</ele>
        <time>2020-04-07T18:55:51Z</time>
      </trkpt>
      <trkpt lat="42.5986200" lon="-5.5927630">
        <ele>829.0</ele>
        <time>2020-04-07T18:55:53Z</time>
      </trkpt>
      <trkpt lat="42.5986100" lon="-5.5929330">
        <ele>829.0</ele>
        <time>2020-04-07T18:55:55Z</time>
      </trkpt>
      <trkpt lat="42.5986010" lon="-5.5931020">
        <ele>829.0</ele>
        <time>2020-04-07T18:55:57Z</time>
      </trkpt>
      <trkpt lat="42.5985920" lon="-5.5932720">
        <ele>829.0</ele>
        <time>2020-04-07T18:55:59Z</time>
      </trkpt>
      <trkpt lat="42.5985670" lon="-5.5937160">
        <ele>829.0</ele>
        <time>2020-04-07T18:56:01Z</time>
      </trkpt>
      <trkpt lat="42.5985580" lon="-5.5938830">
        <ele>829.0</ele>
        <time>2020-04-07T18:56:03Z</time>
      </trkpt>
      <trkpt lat="42.5985490" lon="-5.5940500">
        <ele>829.0</ele>
        <time>2020-04-07T18:56:05Z</time>
      </trkpt>
      <trkpt lat="42.5985390" lon="-5.5942150">
        <ele>829.0</ele>
        <time>2020-04-07T18:56:07Z</time>
      </trkpt>
      <trkpt lat="42.5985300" lon="-5.5943800">
        <ele>829.0</ele>
        <time>2020-04-07T18:56:09Z</time>
      </trkpt>
      <trkpt lat="42.5985060" lon="-5.5948210">
        <ele>829.0</ele>
        <time>2020-04-07T18:56:11Z</time>
      </trkpt>
      <trkpt lat="42.5984970" lon="-5.5949850">
        <ele>829.0</ele>
        <time>2020-04-07T18:56:13Z</time>
      </trkpt>
      <trkpt lat="42.5984880" lon="-5.5951500">
        <ele>829.0</ele>
        <time>2020-04-07T18:56:15Z</time>
      </trkpt>
      <trkpt lat="42.5984790" lon="-5.5953140">
        <ele>829.0</ele>
        <time>2020-04-07T18:56:17Z</time>
      </trkpt>
      <trkpt lat="42.5984540" lon="-5.5957550">
        <ele>829.0</ele>
        <time>2020-04-07T18:56:19Z</time>
      </trkpt>
      <trkpt lat="42.5984450" lon="-5.5959190">
        <ele>829.0</ele>
        <time>2020-04-07T18:56:21Z</time>
      </trkpt>
      <trkpt lat="42.5984360" lon="-5.5960840">
        <ele>829.0</ele>
        <time>2020-04-07T18:56:23Z</time>
      </trkpt>
      <trkpt lat="42.5984270" lon="-5.5962480">
        <ele>829.0</ele>
        <time>2020-04-07T18:56:25Z</time>
      </trkpt>
      <trkpt lat="42.5984180" lon="-5.5964120">
        <ele>829.0</ele>
        <time>2020-04-07T18:56:27Z</time>
      </trkpt>
      <trkpt lat="42.5983940" lon="-5.5968510">
        <ele>829.0</ele>
        <time>2020-04-07T18:56:29Z</time>
      </trkpt>
      <trkpt lat="42.5983840" lon="-5.5970150">
        <ele>829.2</ele>
        <time>2020-04-07T18:56:31Z</time>
      </trkpt>
      <trkpt lat="42.5983760" lon="-5.5971780">
        <ele>829.2</ele>
        <time>2020-04-07T18:56:33Z</time>
      </trkpt>
      <trkpt lat="42.5983670" lon="-5.5973390">
        <ele>829.4</ele>
        <time>2020-04-07T18:56:35Z</time>
      </trkpt>
      <trkpt lat="42.5983580" lon="-5.5975000">
        <ele>829.6</ele>
        <time>2020-04-07T18:56:37Z</time>
      </trkpt>
      <trkpt lat="42.5983610" lon="-5.5979330">
        <ele>829.8</ele>
        <time>2020-04-07T18:56:39Z</time>
      </trkpt>
      <trkpt lat="42.5984170" lon="-5.5981650">
        <ele>830.0</ele>
        <time>2020-04-07T18:56:41Z</time>
      </trkpt>
      <trkpt lat="42.5984950" lon="-5.5982810">
        <ele>830.2</ele>
        <time>2020-04-07T18:56:43Z</time>
      </trkpt>
      <trkpt lat="42.5985730" lon="-5.5983970">
        <ele>830.4</ele>
        <time>2020-04-07T18:56:45Z</time>
      </trkpt>
      <trkpt lat="42.5986960" lon="-5.5986450">
        <ele>830.6</ele>
        <time>2020-04-07T18:56:47Z</time>
      </trkpt>
      <trkpt lat="42.5987430" lon="-5.5988240">
        <ele>830.4</ele>
        <time>2020-04-07T18:56:49Z</time>
      </trkpt>
      <trkpt lat="42.5987930" lon="-5.5989810">
        <ele>830.0</ele>
        <time>2020-04-07T18:56:51Z</time>
      </trkpt>
      <trkpt lat="42.5988740" lon="-5.5992810">
        <ele>829.6</ele>
        <time>2020-04-07T18:56:53Z</time>
      </trkpt>
      <trkpt lat="42.5988900" lon="-5.5995140">
        <ele>829.2</ele>
        <time>2020-04-07T18:56:55Z</time>
      </trkpt>
      <trkpt lat="42.5988900" lon="-5.5998200">
        <ele>828.6</ele>
        <time>2020-04-07T18:56:57Z</time>
      </trkpt>
      <trkpt lat="42.5988330" lon="-5.6000550">
        <ele>828.2</ele>
        <time>2020-04-07T18:56:59Z</time>
      </trkpt>
      <trkpt lat="42.5987490" lon="-5.6003050">
        <ele>827.8</ele>
        <time>2020-04-07T18:57:01Z</time>
      </trkpt>
      <trkpt lat="42.5986300" lon="-5.6005240">
        <ele>827.6</ele>
        <time>2020-04-07T18:57:03Z</time>
      </trkpt>
      <trkpt lat="42.5984780" lon="-5.6007110">
        <ele>827.6</ele>
        <time>2020-04-07T18:57:05Z</time>
      </trkpt>
      <trkpt lat="42.5983530" lon="-5.6008320">
        <ele>827.4</ele>
        <time>2020-04-07T18:57:07Z</time>
      </trkpt>
      <trkpt lat="42.5982280" lon="-5.6009550">
        <ele>827.2</ele>
        <time>2020-04-07T18:57:09Z</time>
      </trkpt>
      <trkpt lat="42.5980010" lon="-5.6012080">
        <ele>827.2</ele>
        <time>2020-04-07T18:57:11Z</time>
      </trkpt>
      <trkpt lat="42.5978920" lon="-5.6014710">
        <ele>827.4</ele>
        <time>2020-04-07T18:57:13Z</time>
      </trkpt>
      <trkpt lat="42.5978150" lon="-5.6017190">
        <ele>827.6</ele>
        <time>2020-04-07T18:57:15Z</time>
      </trkpt>
      <trkpt lat="42.5977670" lon="-5.6019080">
        <ele>827.6</ele>
        <time>2020-04-07T18:57:17Z</time>
      </trkpt>
      <trkpt lat="42.5976780" lon="-5.6022470">
        <ele>828.0</ele>
        <time>2020-04-07T18:57:19Z</time>
      </trkpt>
      <trkpt lat="42.5976230" lon="-5.6024230">
        <ele>828.4</ele>
        <time>2020-04-07T18:57:21Z</time>
      </trkpt>
      <trkpt lat="42.5975700" lon="-5.6025920">
        <ele>828.6</ele>
        <time>2020-04-07T18:57:23Z</time>
      </trkpt>
      <trkpt lat="42.5975180" lon="-5.6027560">
        <ele>829.0</ele>
        <time>2020-04-07T18:57:25Z</time>
      </trkpt>
      <trkpt lat="42.5973900" lon="-5.6031570">
        <ele>829.8</ele>
        <time>2020-04-07T18:57:27Z</time>
      </trkpt>
      <trkpt lat="42.5973340" lon="-5.6033080">
        <ele>830.2</ele>
        <time>2020-04-07T18:57:29Z</time>
      </trkpt>
      <trkpt lat="42.5972800" lon="-5.6034550">
        <ele>830.6</ele>
        <time>2020-04-07T18:57:31Z</time>
      </trkpt>
      <trkpt lat="42.5972260" lon="-5.6036000">
        <ele>830.8</ele>
        <time>2020-04-07T18:57:33Z</time>
      </trkpt>
      <trkpt lat="42.5971730" lon="-5.6037430">
        <ele>831.2</ele>
        <time>2020-04-07T18:57:35Z</time>
      </trkpt>
      <trkpt lat="42.5970280" lon="-5.6041350">
        <ele>832.0</ele>
        <time>2020-04-07T18:57:37Z</time>
      </trkpt>
      <trkpt lat="42.5969770" lon="-5.6042750">
        <ele>832.4</ele>
        <time>2020-04-07T18:57:39Z</time>
      </trkpt>
      <trkpt lat="42.5969260" lon="-5.6044110">
        <ele>832.6</ele>
        <time>2020-04-07T18:57:41Z</time>
      </trkpt>
      <trkpt lat="42.5968760" lon="-5.6045480">
        <ele>833.0</ele>
        <time>2020-04-07T18:57:43Z</time>
      </trkpt>
      <trkpt lat="42.5968260" lon="-5.6046830">
        <ele>833.2</ele>
        <time>2020-04-07T18:57:45Z</time>
      </trkpt>
      <trkpt lat="42.5966840" lon="-5.6050690">
        <ele>834.2</ele>
        <time>2020-04-07T18:57:47Z</time>
      </trkpt>
      <trkpt lat="42.5966430" lon="-5.6052050">
        <ele>834.4</ele>
        <time>2020-04-07T18:57:49Z</time>
      </trkpt>
      <trkpt lat="42.5966020" lon="-5.6053420">
        <ele>834.8</ele>
        <time>2020-04-07T18:57:51Z</time>
      </trkpt>
      <trkpt lat="42.5965620" lon="-5.6054750">
        <ele>835.0</ele>
        <time>2020-04-07T18:57:53Z</time>
      </trkpt>
      <trkpt lat="42.5964880" lon="-5.6057810">
        <ele>835.6</ele>
        <time>2020-04-07T18:57:55Z</time>
      </trkpt>
      <trkpt lat="42.5964700" lon="-5.6059260">
        <ele>835.8</ele>
        <time>2020-04-07T18:57:57Z</time>
      </trkpt>
      <trkpt lat="42.5964520" lon="-5.6060730">
        <ele>836.0</ele>
        <time>2020-04-07T18:57:59Z</time>
      </trkpt>
      <trkpt lat="42.5964340" lon="-5.6062220">
        <ele>836.2</ele>
        <time>2020-04-07T18:58:01Z</time>
      </trkpt>
      <trkpt lat="42.5964150" lon="-5.6063730">
        <ele>836.4</ele>
        <time>2020-04-07T18:58:03Z</time>
      </trkpt>
      <trkpt lat="42.5963640" lon="-5.6068030">
        <ele>836.8</ele>
        <time>2020-04-07T18:58:05Z</time>
      </trkpt>
      <trkpt lat="42.5963490" lon="-5.6069570">
        <ele>837.0</ele>
        <time>2020-04-07T18:58:07Z</time>
      </trkpt>
      <trkpt lat="42.5963340" lon="-5.6071120">
        <ele>837.2</ele>
        <time>2020-04-07T18:58:09Z</time>
      </trkpt>
      <trkpt lat="42.5963190" lon="-5.6072660">
        <ele>837.4</ele>
        <time>2020-04-07T18:58:11Z</time>
      </trkpt>
      <trkpt lat="42.5963040" lon="-5.6074220">
        <ele>837.6</ele>
        <time>2020-04-07T18:58:13Z</time>
      </trkpt>
      <trkpt lat="42.5962890" lon="-5.6075790">
        <ele>837.8</ele>
        <time>2020-04-07T18:58:15Z</time>
      </trkpt>
      <trkpt lat="42.5962430" lon="-5.6080480">
        <ele>838.2</ele>
        <time>2020-04-07T18:58:17Z</time>
      </trkpt>
      <trkpt lat="42.5962270" lon="-5.6082120">
        <ele>838.2</ele>
        <time>2020-04-07T18:58:19Z</time>
      </trkpt>
      <trkpt lat="42.5962110" lon="-5.6083800">
        <ele>838.2</ele>
        <time>2020-04-07T18:58:21Z</time>
      </trkpt>
      <trkpt lat="42.5961940" lon="-5.6085510">
        <ele>838.2</ele>
        <time>2020-04-07T18:58:23Z</time>
      </trkpt>
      <trkpt lat="42.5961770" lon="-5.6087270">
        <ele>838.2</ele>
        <time>2020-04-07T18:58:25Z</time>
      </trkpt>
      <trkpt lat="42.5961280" lon="-5.6092180">
        <ele>838.2</ele>
        <time>2020-04-07T18:58:27Z</time>
      </trkpt>
      <trkpt lat="42.5961070" lon="-5.6093980">
        <ele>838.2</ele>
        <time>2020-04-07T18:58:29Z</time>
      </trkpt>
      <trkpt lat="42.5960860" lon="-5.6095800">
        <ele>838.2</ele>
        <time>2020-04-07T18:58:31Z</time>
      </trkpt>
      <trkpt lat="42.5960650" lon="-5.6097640">
        <ele>838.2</ele>
        <time>2020-04-07T18:58:33Z</time>
      </trkpt>
      <trkpt lat="42.5960140" lon="-5.6102130">
        <ele>838.6</ele>
        <time>2020-04-07T18:58:35Z</time>
      </trkpt>
      <trkpt lat="42.5959940" lon="-5.6103880">
        <ele>839.0</ele>
        <time>2020-04-07T18:58:37Z</time>
      </trkpt>
      <trkpt lat="42.5959750" lon="-5.6105550">
        <ele>839.6</ele>
        <time>2020-04-07T18:58:39Z</time>
      </trkpt>
      <trkpt lat="42.5959570" lon="-5.6107140">
        <ele>840.0</ele>
        <time>2020-04-07T18:58:41Z</time>
      </trkpt>
      <trkpt lat="42.5959090" lon="-5.6111330">
        <ele>841.4</ele>
        <time>2020-04-07T18:58:43Z</time>
      </trkpt>
      <trkpt lat="42.5958850" lon="-5.6112760">
        <ele>841.8</ele>
        <time>2020-04-07T18:58:45Z</time>
      </trkpt>
      <trkpt lat="42.5958300" lon="-5.6114670">
        <ele>842.4</ele>
        <time>2020-04-07T18:58:47Z</time>
      </trkpt>
      <trkpt lat="42.5957830" lon="-5.6115910">
        <ele>842.8</ele>
        <time>2020-04-07T18:58:49Z</time>
      </trkpt>
      <trkpt lat="42.5956850" lon="-5.6118020">
        <ele>843.6</ele>
        <time>2020-04-07T18:58:51Z</time>
      </trkpt>
      <trkpt lat="42.5956160" lon="-5.6118850">
        <ele>844.4</ele>
        <time>2020-04-07T18:58:53Z</time>
      </trkpt>
      <trkpt lat="42.5955020" lon="-5.6119870">
        <ele>845.2</ele>
        <time>2020-04-07T18:58:55Z</time>
      </trkpt>
      <trkpt lat="42.5954310" lon="-5.6120360">
        <ele>845.8</ele>
        <time>2020-04-07T18:58:57Z</time>
      </trkpt>
      <trkpt lat="42.5953000" lon="-5.6121060">
        <ele>846.8</ele>
        <time>2020-04-07T18:58:59Z</time>
      </trkpt>
      <trkpt lat="42.5952290" lon="-5.6121170">
        <ele>847.4</ele>
        <time>2020-04-07T18:59:01Z</time>
      </trkpt>
      <trkpt lat="42.5951590" lon="-5.6121270">
        <ele>847.8</ele>
        <time>2020-04-07T18:59:03Z</time>
      </trkpt>
      <trkpt lat="42.5950920" lon="-5.6121370">
        <ele>848.4</ele>
        <time>2020-04-07T18:59:05Z</time>
      </trkpt>
      <trkpt lat="42.5949200" lon="-5.6121570">
        <ele>849.6</ele>
        <time>2020-04-07T18:59:07Z</time>
      </trkpt>
      <trkpt lat="42.5948560" lon="-5.6121490">
        <ele>850.0</ele>
        <time>2020-04-07T18:59:09Z</time>
      </trkpt>
      <trkpt lat="42.5947510" lon="-5.6121400">
        <ele>850.6</ele>
        <time>2020-04-07T18:59:11Z</time>
      </trkpt>
      <trkpt lat="42.5946480" lon="-5.6121320">
        <ele>851.0</ele>
        <time>2020-04-07T18:59:13Z</time>
      </trkpt>
      <trkpt lat="42.5945690" lon="-5.6121120">
        <ele>851.2</ele>
        <time>2020-04-07T18:59:15Z</time>
      </trkpt>
      <trkpt lat="42.5944870" lon="-5.6120920">
        <ele>851.6</ele>
        <time>2020-04-07T18:59:17Z</time>
      </trkpt>
      <trkpt lat="42.5944030" lon="-5.6120710">
        <ele>852.0</ele>
        <time>2020-04-07T18:59:19Z</time>
      </trkpt>
      <trkpt lat="42.5942140" lon="-5.6120130">
        <ele>852.6</ele>
        <time>2020-04-07T18:59:21Z</time>
      </trkpt>
      <trkpt lat="42.5941300" lon="-5.6119790">
        <ele>853.0</ele>
        <time>2020-04-07T18:59:23Z</time>
      </trkpt>
      <trkpt lat="42.5940460" lon="-5.6119440">
        <ele>853.4</ele>
        <time>2020-04-07T18:59:25Z</time>
      </trkpt>
      <trkpt lat="42.5938590" lon="-5.6118700">
        <ele>854.0</ele>
        <time>2020-04-07T18:59:27Z</time>
      </trkpt>
      <trkpt lat="42.5937700" lon="-5.6118410">
        <ele>854.4</ele>
        <time>2020-04-07T18:59:29Z</time>
      </trkpt>
      <trkpt lat="42.5936790" lon="-5.6118120">
        <ele>854.6</ele>
        <time>2020-04-07T18:59:31Z</time>
      </trkpt>
      <trkpt lat="42.5935870" lon="-5.6117820">
        <ele>854.8</ele>
        <time>2020-04-07T18:59:33Z</time>
      </trkpt>
      <trkpt lat="42.5933680" lon="-5.6117110">
        <ele>855.6</ele>
        <time>2020-04-07T18:59:35Z</time>
      </trkpt>
      <trkpt lat="42.5932730" lon="-5.6116810">
        <ele>855.8</ele>
        <time>2020-04-07T18:59:37Z</time>
      </trkpt>
      <trkpt lat="42.5931790" lon="-5.6116500">
        <ele>856.2</ele>
        <time>2020-04-07T18:59:39Z</time>
      </trkpt>
      <trkpt lat="42.5930820" lon="-5.6116190">
        <ele>856.4</ele>
        <time>2020-04-07T18:59:41Z</time>
      </trkpt>
      <trkpt lat="42.5928580" lon="-5.6115520">
        <ele>857.0</ele>
        <time>2020-04-07T18:59:43Z</time>
      </trkpt>
      <trkpt lat="42.5927070" lon="-5.6115210">
        <ele>857.6</ele>
        <time>2020-04-07T18:59:45Z</time>
      </trkpt>
      <trkpt lat="42.5926120" lon="-5.6115230">
        <ele>858.2</ele>
        <time>2020-04-07T18:59:47Z</time>
      </trkpt>
      <trkpt lat="42.5925210" lon="-5.6115260">
        <ele>858.6</ele>
        <time>2020-04-07T18:59:49Z</time>
      </trkpt>
      <trkpt lat="42.5923470" lon="-5.6115530">
        <ele>859.6</ele>
        <time>2020-04-07T18:59:51Z</time>
      </trkpt>
      <trkpt lat="42.5922480" lon="-5.6116290">
        <ele>860.2</ele>
        <time>2020-04-07T18:59:53Z</time>
      </trkpt>
      <trkpt lat="42.5921480" lon="-5.6117230">
        <ele>861.0</ele>
        <time>2020-04-07T18:59:55Z</time>
      </trkpt>
      <trkpt lat="42.5920900" lon="-5.6117950">
        <ele>861.4</ele>
        <time>2020-04-07T18:59:57Z</time>
      </trkpt>
      <trkpt lat="42.5920330" lon="-5.6118660">
        <ele>861.8</ele>
        <time>2020-04-07T18:59:59Z</time>
      </trkpt>
      <trkpt lat="42.5919580" lon="-5.6120120">
        <ele>862.6</ele>
        <time>2020-04-07T19:00:01Z</time>
      </trkpt>
      <trkpt lat="42.5919250" lon="-5.6121040">
        <ele>863.0</ele>
        <time>2020-04-07T19:00:03Z</time>
      </trkpt>
      <trkpt lat="42.5918600" lon="-5.6122900">
        <ele>864.0</ele>
        <time>2020-04-07T19:00:05Z</time>
      </trkpt>
      <trkpt lat="42.5918600" lon="-5.6122900">
        <ele>864.0</ele>
        <time>2020-04-07T19:00:07Z</time>
      </trkpt>
      <trkpt lat="42.5918600" lon="-5.6122900">
        <ele>864.0</ele>
        <time>2020-04-07T19:00:09Z</time>
      </trkpt>
      <trkpt lat="42.5918600" lon="-5.6122900">
        <ele>864.0</ele>
        <time>2020-04-07T19:00:11Z</time>
      </trkpt>
      <trkpt lat="42.5918600" lon="-5.6122900">
        <ele>864.0</ele>
        <time>2020-04-07T19:00:13Z</time>
      </trkpt>
      <trkpt lat="42.5918600" lon="-5.6122900">
        <ele>864.0</ele>
        <time>2020-04-07T19:00:15Z</time>
      </trkpt>
      <trkpt lat="42.5918600" lon="-5.6122900">
        <ele>864.0</ele>
        <time>2020-04-07T19:00:17Z</time>
      </trkpt>
      <trkpt lat="42.5918600" lon="-5.6122900">
        <ele>864.0</ele>
        <time>2020-04-07T19:00:19Z</time>
      </trkpt>
      <trkpt lat="42.5918600" lon="-5.6122900">
        <ele>864.0</ele>
        <time>2020-04-07T19:00:21Z</time>
      </trkpt>
      <trkpt lat="42.5918600" lon="-5.6122900">
        <ele>864.0</ele>
        <time>2020-04-07T19:00:23Z</time>
      </trkpt>
      <trkpt lat="42.5918600" lon="-5.6122900">
        <ele>864.0</ele>
        <time>2020-04-07T19:00:25Z</time>
      </trkpt>
      <trkpt lat="42.5918600" lon="-5.6122900">
        <ele>864.0</ele>
        <time>2020-04-07T19:00:27Z</time>
      </trkpt>
      <trkpt lat="42.5918600" lon="-5.6122900">
        <ele>864.0</ele>
        <time>2020-04-07T19:00:29Z</time>
      </trkpt>
      <trkpt lat="42.5918600" lon="-5.6122900">
        <ele>864.0</ele>
        <time>2020-04-07T19:00:31Z</time>
      </trkpt>
      <trkpt lat="42.5918600" lon="-5.6122900">
        <ele>864.0</ele>
        <time>2020-04-07T19:00:33Z</time>
      </trkpt>
      <trkpt lat="42.5918600" lon="-5.6122900">
        <ele>864.0</ele>
        <time>2020-04-07T19:00:35Z</time>
      </trkpt>
      <trkpt lat="42.5918600" lon="-5.6122900">
        <ele>864.0</ele>
        <time>2020-04-07T19:00:37Z</time>
      </trkpt>
      <trkpt lat="42.5918600" lon="-5.6122900">
        <ele>864.0</ele>
        <time>2020-04-07T19:00:39Z</time>
      </trkpt>
      <trkpt lat="42.5918600" lon="-5.6122900">
        <ele>864.0</ele>
        <time>2020-04-07T19:00:41Z</time>
      </trkpt>
      <trkpt lat="42.5918600" lon="-5.6122900">
        <ele>864.0</ele>
        <time>2020-04-07T19:00:43Z</time>
      </trkpt>
      <trkpt lat="42.5918600" lon="-5.6122900">
        <ele>864.0</ele>
        <time>2020-04-07T19:00:45Z</time>
      </trkpt>
      <trkpt lat="42.5918600" lon="-5.6122900">
        <ele>864.0</ele>
        <time>2020-04-07T19:00:47Z</time>
      </trkpt>
      <trkpt lat="42.5918600" lon="-5.6122900">
        <ele>864.0</ele>
        <time>2020-04-07T19:00:49Z</time>
      </trkpt>
      <trkpt lat="42.5918600" lon="-5.6122900">
        <ele>864.0</ele>
        <time>2020-04-07T19:00:51Z</time>
      </trkpt>
      <trkpt lat="42.5918600" lon="-5.6122900">
        <ele>864.0</ele>
        <time>2020-04-07T19:00:53Z</time>
      </trkpt>
      <trkpt lat="42.5918600" lon="-5.6122900">
        <ele>864.0</ele>
        <time>2020-04-07T19:00:55Z</time>
      </trkpt>
      <trkpt lat="42.5918600" lon="-5.6122900">
        <ele>864.0</ele>
        <time>2020-04-07T19:00:57Z</time>
      </trkpt>
      <trkpt lat="42.5910330" lon="-5.6140020">
        <ele>866.5</ele>
        <time>2020-04-09T17:15:00Z</time>
      </trkpt>
      <trkpt lat="42.5910330" lon="-5.6140020">
        <ele>866.5</ele>
        <time>2020-04-09T17:15:02Z</time>
      </trkpt>
      <trkpt lat="42.5910330" lon="-5.6140020">
        <ele>866.5</ele>
        <time>2020-04-09T17:15:04Z</time>
      </trkpt>
      <trkpt lat="42.5910330" lon="-5.6140020">
        <ele>866.5</ele>
        <time>2020-04-09T17:15:06Z</time>
      </trkpt>
      <trkpt lat="42.5910330" lon="-5.6140020">
        <ele>866.5</ele>
        <time>2020-04-09T17:15:08Z</time>
      </trkpt>
      <trkpt lat="42.5910330" lon="-5.6140020">
        <ele>866.5</ele>
        <time>2020-04-09T17:15:10Z</time>
      </trkpt>
      <trkpt lat="42.5910330" lon="-5.6140020">
        <ele>866.5</ele>
        <time>2020-04-09T17:15:12Z</time>
      </trkpt>
      <trkpt lat="42.5910330" lon="-5.6140020">
        <ele>866.5</ele>
        <time>2020-04-09T17:15:14Z</time>
      </trkpt>
      <trkpt lat="42.5910330" lon="-5.6140020">
        <ele>866.5</ele>
        <time>2020-04-09T17:15:16Z</time>
      </trkpt>
      <trkpt lat="42.5910330" lon="-5.6140020">
        <ele>866.5</ele>
        <time>2020-04-09T17:15:18Z</time>
      </trkpt>
      <trkpt lat="42.5910330" lon="-5.6140020">
        <ele>866.5</ele>
        <time>2020-04-09T17:15:20Z</time>
      </trkpt>
      <trkpt lat="42.5910330" lon="-5.6140020">
        <ele>866.5</ele>
        <time>2020-04-09T17:15:22Z</time>
      </trkpt>
      <trkpt lat="42.5910330" lon="-5.6140020">
        <ele>866.5</ele>
        <time>2020-04-09T17:15:24Z</time>
      </trkpt>
      <trkpt lat="42.5910330" lon="-5.6140020">
        <ele>866.5</ele>
        <time>2020-04-09T17:15:26Z</time>
      </trkpt>
      <trkpt lat="42.5910330" lon="-5.6140020">
        <ele>866.5</ele>
        <time>2020-04-09T17:15:28Z</time>
      </trkpt>
      <trkpt lat="42.5910330" lon="-5.6140020">
        <ele>866.5</ele>
        <time>2020-04-09T17:15:30Z</time>
      </trkpt>
      <trkpt lat="42.5910330" lon="-5.6140020">
        <ele>866.5</ele>
        <time>2020-04-09T17:15:32Z</time>
      </trkpt>
      <trkpt lat="42.5910330" lon="-5.6140020">
        <ele>866.5</ele>
        <time>2020-04-09T17:15:34Z</time>
      </trkpt>
      <trkpt lat="42.5910330" lon="-5.6140020">
        <ele>866.5</ele>
        <time>2020-04-09T17:15:36Z</time>
      </trkpt>
      <trkpt lat="42.5910330" lon="-5.6140020">
        <ele>866.5</ele>
        <time>2020-04-09T17:15:38Z</time>
      </trkpt>
      <trkpt lat="42.5910330" lon="-5.6140020">
        <ele>866.5</ele>
        <time>2020-04-09T17:15:40Z</time>
      </trkpt>
      <trkpt lat="42.5910330" lon="-5.6140020">
        <ele>866.5</ele>
        <time>2020-04-09T17:15:42Z</time>
      </trkpt>
      <trkpt lat="42.5910330" lon="-5.6140020">
        <ele>866.5</ele>
        <time>2020-04-09T17:15:44Z</time>
      </trkpt>
      <trkpt lat="42.5910330" lon="-5.6140020">
        <ele>866.5</ele>
        <time>2020-04-09T17:15:46Z</time>
      </trkpt>
      <trkpt lat="42.5910330" lon="-5.6140020">
        <ele>866.5</ele>
        <time>2020-04-09T17:15:48Z</time>
      </trkpt>
      <trkpt lat="42.5910330" lon="-5.6140020">
        <ele>866.5</ele>
        <time>2020-04-09T17:15:50Z</time>
      </trkpt>
      <trkpt lat="42.5910330" lon="-5.6140020">
        <ele>866.5</ele>
        <time>2020-04-09T17:15:52Z</time>
      </trkpt>
      <trkpt lat="42.5910330" lon="-5.6140020">
        <ele>866.5</ele>
        <time>2020-04-09T17:15:54Z</time>
      </trkpt>
      <trkpt lat="42.5910330" lon="-5.6140020">
        <ele>866.5</ele>
        <time>2020-04-09T17:15:56Z</time>
      </trkpt>
      <trkpt lat="42.5910330" lon="-5.6140020">
        <ele>866.5</ele>
        <time>2020-04-09T17:15:58Z</time>
      </trkpt>
      <trkpt lat="42.5910330" lon="-5.6140020">
        <ele>866.5</ele>
        <time>2020-04-09T17:16:00Z</time>
      </trkpt>
      <trkpt lat="42.5910330" lon="-5.6140020">
        <ele>866.5</ele>
        <time>2020-04-09T17:16:02Z</time>
      </trkpt>
      <trkpt lat="42.5910330" lon="-5.6140020">
        <ele>866.5</ele>
        <time>2020-04-09T17:16:04Z</time>
      </trkpt>
      <trkpt lat="42.5910330" lon="-5.6140020">
        <ele>866.5</ele>
        <time>2020-04-09T17:16:06Z</time>
      </trkpt>
      <trkpt lat="42.5910330" lon="-5.6140020">
        <ele>866.5</ele>
        <time>2020-04-09T17:16:08Z</time>
      </trkpt>
      <trkpt lat="42.5910330" lon="-5.6140020">
        <ele>866.5</ele>
        <time>2020-04-09T17:16:10Z</time>
      </trkpt>
      <trkpt lat="42.5910330" lon="-5.6140020">
        <ele>866.5</ele>
        <time>2020-04-09T17:16:12Z</time>
      </trkpt>
      <trkpt lat="42.5910330" lon="-5.6140020">
        <ele>866.5</ele>
        <time>2020-04-09T17:16:14Z</time>
      </trkpt>
      <trkpt lat="42.5910330" lon="-5.6140020">
        <ele>866.5</ele>
        <time>2020-04-09T17:16:16Z</time>
      </trkpt>
      <trkpt lat="42.5910330" lon="-5.6140020">
        <ele>866.5</ele>
        <time>2020-04-09T17:16:18Z</time>
      </trkpt>
      <trkpt lat="42.5910330" lon="-5.6140020">
        <ele>866.5</ele>
        <time>2020-04-09T17:16:20Z</time>
      </trkpt>
      <trkpt lat="42.5910330" lon="-5.6140020">
        <ele>866.5</ele>
        <time>2020-04-09T17:16:21Z</time>
      </trkpt>
      <trkpt lat="42.5910330" lon="-5.6140020">
        <ele>866.5</ele>
        <time>2020-04-09T17:16:21Z</time>
      </trkpt>
      <trkpt lat="42.5910330" lon="-5.6140020">
        <ele>866.5</ele>
        <time>2020-04-09T17:16:23Z</time>
      </trkpt>
      <trkpt lat="42.5910370" lon="-5.6139650">
        <ele>866.4</ele>
        <time>2020-04-09T17:16:25Z</time>
      </trkpt>
      <trkpt lat="42.5910390" lon="-5.6139080">
        <ele>866.2</ele>
        <time>2020-04-09T17:16:27Z</time>
      </trkpt>
      <trkpt lat="42.5910430" lon="-5.6138020">
        <ele>866.0</ele>
        <time>2020-04-09T17:16:29Z</time>
      </trkpt>
      <trkpt lat="42.5910440" lon="-5.6137230">
        <ele>865.8</ele>
        <time>2020-04-09T17:16:31Z</time>
      </trkpt>
      <trkpt lat="42.5910440" lon="-5.6136310">
        <ele>865.6</ele>
        <time>2020-04-09T17:16:33Z</time>
      </trkpt>
      <trkpt lat="42.5910410" lon="-5.6134470">
        <ele>865.2</ele>
        <time>2020-04-09T17:16:35Z</time>
      </trkpt>
      <trkpt lat="42.5910230" lon="-5.6132580">
        <ele>864.8</ele>
        <time>2020-04-09T17:16:37Z</time>
      </trkpt>
      <trkpt lat="42.5909960" lon="-5.6130910">
        <ele>864.7</ele>
        <time>2020-04-09T17:16:39Z</time>
      </trkpt>
      <trkpt lat="42.5909620" lon="-5.6129040">
        <ele>864.6</ele>
        <time>2020-04-09T17:16:41Z</time>
      </trkpt>
      <trkpt lat="42.5909660" lon="-5.6127600">
        <ele>864.7</ele>
        <time>2020-04-09T17:16:43Z</time>
      </trkpt>
      <trkpt lat="42.5910380" lon="-5.6128350">
        <ele>864.8</ele>
        <time>2020-04-09T17:16:45Z</time>
      </trkpt>
      <trkpt lat="42.5910760" lon="-5.6130230">
        <ele>864.8</ele>
        <time>2020-04-09T17:16:47Z</time>
      </trkpt>
      <trkpt lat="42.5911040" lon="-5.6132150">
        <ele>865.0</ele>
        <time>2020-04-09T17:16:49Z</time>
      </trkpt>
      <trkpt lat="42.5911270" lon="-5.6134350">
        <ele>865.5</ele>
        <time>2020-04-09T17:16:51Z</time>
      </trkpt>
      <trkpt lat="42.5911330" lon="-5.6136040">
        <ele>866.0</ele>
        <time>2020-04-09T17:16:53Z</time>
      </trkpt>
      <trkpt lat="42.5911320" lon="-5.6137470">
        <ele>866.3</ele>
        <time>2020-04-09T17:16:55Z</time>
      </trkpt>
      <trkpt lat="42.5911250" lon="-5.6140060">
        <ele>866.9</ele>
        <time>2020-04-09T17:16:57Z</time>
      </trkpt>
      <trkpt lat="42.5911090" lon="-5.6141850">
        <ele>867.2</ele>
        <time>2020-04-09T17:16:59Z</time>
      </trkpt>
      <trkpt lat="42.5910840" lon="-5.6143940">
        <ele>867.4</ele>
        <time>2020-04-09T17:17:01Z</time>
      </trkpt>
      <trkpt lat="42.5910650" lon="-5.6145340">
        <ele>867.5</ele>
        <time>2020-04-09T17:17:03Z</time>
      </trkpt>
      <trkpt lat="42.5910050" lon="-5.6147610">
        <ele>867.6</ele>
        <time>2020-04-09T17:17:05Z</time>
      </trkpt>
      <trkpt lat="42.5909580" lon="-5.6148880">
        <ele>867.7</ele>
        <time>2020-04-09T17:17:07Z</time>
      </trkpt>
      <trkpt lat="42.5908880" lon="-5.6150830">
        <ele>867.8</ele>
        <time>2020-04-09T17:17:09Z</time>
      </trkpt>
      <trkpt lat="42.5908420" lon="-5.6152140">
        <ele>867.8</ele>
        <time>2020-04-09T17:17:11Z</time>
      </trkpt>
      <trkpt lat="42.5907950" lon="-5.6153470">
        <ele>867.9</ele>
        <time>2020-04-09T17:17:13Z</time>
      </trkpt>
      <trkpt lat="42.5907480" lon="-5.6154790">
        <ele>868.0</ele>
        <time>2020-04-09T17:17:15Z</time>
      </trkpt>
      <trkpt lat="42.5907010" lon="-5.6156150">
        <ele>868.2</ele>
        <time>2020-04-09T17:17:17Z</time>
      </trkpt>
      <trkpt lat="42.5906530" lon="-5.6157500">
        <ele>868.4</ele>
        <time>2020-04-09T17:17:19Z</time>
      </trkpt>
      <trkpt lat="42.5905020" lon="-5.6161800">
        <ele>868.8</ele>
        <time>2020-04-09T17:17:21Z</time>
      </trkpt>
      <trkpt lat="42.5904370" lon="-5.6163590">
        <ele>869.1</ele>
        <time>2020-04-09T17:17:23Z</time>
      </trkpt>
      <trkpt lat="42.5903860" lon="-5.6165020">
        <ele>869.4</ele>
        <time>2020-04-09T17:17:25Z</time>
      </trkpt>
      <trkpt lat="42.5903340" lon="-5.6166430">
        <ele>869.6</ele>
        <time>2020-04-09T17:17:27Z</time>
      </trkpt>
      <trkpt lat="42.5902830" lon="-5.6167860">
        <ele>869.6</ele>
        <time>2020-04-09T17:17:29Z</time>
      </trkpt>
      <trkpt lat="42.5901400" lon="-5.6171780">
        <ele>869.3</ele>
        <time>2020-04-09T17:17:31Z</time>
      </trkpt>
      <trkpt lat="42.5900890" lon="-5.6173200">
        <ele>869.1</ele>
        <time>2020-04-09T17:17:33Z</time>
      </trkpt>
      <trkpt lat="42.5900370" lon="-5.6174640">
        <ele>869.0</ele>
        <time>2020-04-09T17:17:35Z</time>
      </trkpt>
      <trkpt lat="42.5899850" lon="-5.6176060">
        <ele>868.9</ele>
        <time>2020-04-09T17:17:37Z</time>
      </trkpt>
      <trkpt lat="42.5899330" lon="-5.6177500">
        <ele>868.9</ele>
        <time>2020-04-09T17:17:39Z</time>
      </trkpt>
      <trkpt lat="42.5898810" lon="-5.6178940">
        <ele>868.8</ele>
        <time>2020-04-09T17:17:41Z</time>
      </trkpt>
      <trkpt lat="42.5897250" lon="-5.6183260">
        <ele>868.8</ele>
        <time>2020-04-09T17:17:43Z</time>
      </trkpt>
      <trkpt lat="42.5896730" lon="-5.6184710">
        <ele>868.8</ele>
        <time>2020-04-09T17:17:45Z</time>
      </trkpt>
      <trkpt lat="42.5896200" lon="-5.6186170">
        <ele>868.8</ele>
        <time>2020-04-09T17:17:47Z</time>
      </trkpt>
      <trkpt lat="42.5895670" lon="-5.6187640">
        <ele>868.8</ele>
        <time>2020-04-09T17:17:49Z</time>
      </trkpt>
      <trkpt lat="42.5894410" lon="-5.6191110">
        <ele>868.9</ele>
        <time>2020-04-09T17:17:51Z</time>
      </trkpt>
      <trkpt lat="42.5893580" lon="-5.6193400">
        <ele>869.2</ele>
        <time>2020-04-09T17:17:53Z</time>
      </trkpt>
      <trkpt lat="42.5893070" lon="-5.6194810">
        <ele>869.4</ele>
        <time>2020-04-09T17:17:55Z</time>
      </trkpt>
      <trkpt lat="42.5892570" lon="-5.6196200">
        <ele>869.5</ele>
        <time>2020-04-09T17:17:57Z</time>
      </trkpt>
      <trkpt lat="42.5892070" lon="-5.6197570">
        <ele>869.7</ele>
        <time>2020-04-09T17:17:59Z</time>
      </trkpt>
      <trkpt lat="42.5891580" lon="-5.6198930">
        <ele>869.8</ele>
        <time>2020-04-09T17:18:01Z</time>
      </trkpt>
      <trkpt lat="42.5891090" lon="-5.6200270">
        <ele>869.9</ele>
        <time>2020-04-09T17:18:03Z</time>
      </trkpt>
      <trkpt lat="42.5889580" lon="-5.6204460">
        <ele>870.5</ele>
        <time>2020-04-09T17:18:05Z</time>
      </trkpt>
      <trkpt lat="42.5889110" lon="-5.6205750">
        <ele>870.8</ele>
        <time>2020-04-09T17:18:07Z</time>
      </trkpt>
      <trkpt lat="42.5888660" lon="-5.6206990">
        <ele>871.0</ele>
        <time>2020-04-09T17:18:09Z</time>
      </trkpt>
      <trkpt lat="42.5888230" lon="-5.6208180">
        <ele>871.4</ele>
        <time>2020-04-09T17:18:11Z</time>
      </trkpt>
      <trkpt lat="42.5887810" lon="-5.6209340">
        <ele>871.8</ele>
        <time>2020-04-09T17:18:13Z</time>
      </trkpt>
      <trkpt lat="42.5887410" lon="-5.6210470">
        <ele>872.1</ele>
        <time>2020-04-09T17:18:15Z</time>
      </trkpt>
      <trkpt lat="42.5887010" lon="-5.6211570">
        <ele>872.6</ele>
        <time>2020-04-09T17:18:17Z</time>
      </trkpt>
      <trkpt lat="42.5885570" lon="-5.6215520">
        <ele>874.0</ele>
        <time>2020-04-09T17:18:19Z</time>
      </trkpt>
      <trkpt lat="42.5885170" lon="-5.6216580">
        <ele>874.3</ele>
        <time>2020-04-09T17:18:21Z</time>
      </trkpt>
      <trkpt lat="42.5884780" lon="-5.6217640">
        <ele>874.5</ele>
        <time>2020-04-09T17:18:23Z</time>
      </trkpt>
      <trkpt lat="42.5884390" lon="-5.6218690">
        <ele>874.8</ele>
        <time>2020-04-09T17:18:25Z</time>
      </trkpt>
      <trkpt lat="42.5883430" lon="-5.6221260">
        <ele>875.5</ele>
        <time>2020-04-09T17:18:27Z</time>
      </trkpt>
      <trkpt lat="42.5883060" lon="-5.6222270">
        <ele>875.7</ele>
        <time>2020-04-09T17:18:29Z</time>
      </trkpt>
      <trkpt lat="42.5882700" lon="-5.6223240">
        <ele>875.9</ele>
        <time>2020-04-09T17:18:31Z</time>
      </trkpt>
      <trkpt lat="42.5882350" lon="-5.6224200">
        <ele>876.1</ele>
        <time>2020-04-09T17:18:33Z</time>
      </trkpt>
      <trkpt lat="42.5881560" lon="-5.6226340">
        <ele>876.6</ele>
        <time>2020-04-09T17:18:35Z</time>
      </trkpt>
      <trkpt lat="42.5881220" lon="-5.6227260">
        <ele>876.8</ele>
        <time>2020-04-09T17:18:37Z</time>
      </trkpt>
      <trkpt lat="42.5880890" lon="-5.6228170">
        <ele>877.0</ele>
        <time>2020-04-09T17:18:39Z</time>
      </trkpt>
      <trkpt lat="42.5880190" lon="-5.6230060">
        <ele>877.8</ele>
        <time>2020-04-09T17:18:41Z</time>
      </trkpt>
      <trkpt lat="42.5879860" lon="-5.6230950">
        <ele>878.0</ele>
        <time>2020-04-09T17:18:43Z</time>
      </trkpt>
      <trkpt lat="42.5879540" lon="-5.6231830">
        <ele>878.2</ele>
        <time>2020-04-09T17:18:45Z</time>
      </trkpt>
      <trkpt lat="42.5879220" lon="-5.6232700">
        <ele>878.4</ele>
        <time>2020-04-09T17:18:47Z</time>
      </trkpt>
      <trkpt lat="42.5878900" lon="-5.6233580">
        <ele>878.7</ele>
        <time>2020-04-09T17:18:49Z</time>
      </trkpt>
      <trkpt lat="42.5877930" lon="-5.6236220">
        <ele>879.6</ele>
        <time>2020-04-09T17:18:51Z</time>
      </trkpt>
      <trkpt lat="42.5877610" lon="-5.6237090">
        <ele>879.9</ele>
        <time>2020-04-09T17:18:53Z</time>
      </trkpt>
      <trkpt lat="42.5877290" lon="-5.6237960">
        <ele>880.3</ele>
        <time>2020-04-09T17:18:55Z</time>
      </trkpt>
      <trkpt lat="42.5876970" lon="-5.6238820">
        <ele>880.5</ele>
        <time>2020-04-09T17:18:57Z</time>
      </trkpt>
      <trkpt lat="42.5876650" lon="-5.6239680">
        <ele>880.7</ele>
        <time>2020-04-09T17:18:59Z</time>
      </trkpt>
      <trkpt lat="42.5876340" lon="-5.6240530">
        <ele>880.9</ele>
        <time>2020-04-09T17:19:01Z</time>
      </trkpt>
      <trkpt lat="42.5876020" lon="-5.6241410">
        <ele>881.1</ele>
        <time>2020-04-09T17:19:03Z</time>
      </trkpt>
      <trkpt lat="42.5875670" lon="-5.6242370">
        <ele>881.3</ele>
        <time>2020-04-09T17:19:05Z</time>
      </trkpt>
      <trkpt lat="42.5875320" lon="-5.6243300">
        <ele>881.5</ele>
        <time>2020-04-09T17:19:07Z</time>
      </trkpt>
      <trkpt lat="42.5873970" lon="-5.6246970">
        <ele>882.7</ele>
        <time>2020-04-09T17:19:09Z</time>
      </trkpt>
      <trkpt lat="42.5873640" lon="-5.6247880">
        <ele>883.0</ele>
        <time>2020-04-09T17:19:11Z</time>
      </trkpt>
      <trkpt lat="42.5873100" lon="-5.6249350">
        <ele>883.3</ele>
        <time>2020-04-09T17:19:13Z</time>
      </trkpt>
      <trkpt lat="42.5872730" lon="-5.6250350">
        <ele>883.5</ele>
        <time>2020-04-09T17:19:15Z</time>
      </trkpt>
      <trkpt lat="42.5872340" lon="-5.6251400">
        <ele>883.8</ele>
        <time>2020-04-09T17:19:17Z</time>
      </trkpt>
      <trkpt lat="42.5871940" lon="-5.6252470">
        <ele>883.9</ele>
        <time>2020-04-09T17:19:19Z</time>
      </trkpt>
      <trkpt lat="42.5871530" lon="-5.6253580">
        <ele>884.1</ele>
        <time>2020-04-09T17:19:21Z</time>
      </trkpt>
      <trkpt lat="42.5871120" lon="-5.6254690">
        <ele>884.1</ele>
        <time>2020-04-09T17:19:23Z</time>
      </trkpt>
      <trkpt lat="42.5869890" lon="-5.6258010">
        <ele>884.4</ele>
        <time>2020-04-09T17:19:25Z</time>
      </trkpt>
      <trkpt lat="42.5869470" lon="-5.6259150">
        <ele>884.6</ele>
        <time>2020-04-09T17:19:27Z</time>
      </trkpt>
      <trkpt lat="42.5869050" lon="-5.6260280">
        <ele>884.8</ele>
        <time>2020-04-09T17:19:29Z</time>
      </trkpt>
      <trkpt lat="42.5868630" lon="-5.6261430">
        <ele>885.0</ele>
        <time>2020-04-09T17:19:31Z</time>
      </trkpt>
      <trkpt lat="42.5868200" lon="-5.6262580">
        <ele>885.0</ele>
        <time>2020-04-09T17:19:33Z</time>
      </trkpt>
      <trkpt lat="42.5867780" lon="-5.6263740">
        <ele>885.0</ele>
        <time>2020-04-09T17:19:35Z</time>
      </trkpt>
      <trkpt lat="42.5866330" lon="-5.6267660">
        <ele>885.4</ele>
        <time>2020-04-09T17:19:37Z</time>
      </trkpt>
      <trkpt lat="42.5865900" lon="-5.6268830">
        <ele>885.6</ele>
        <time>2020-04-09T17:19:39Z</time>
      </trkpt>
      <trkpt lat="42.5865460" lon="-5.6270020">
        <ele>885.8</ele>
        <time>2020-04-09T17:19:41Z</time>
      </trkpt>
      <trkpt lat="42.5865020" lon="-5.6271200">
        <ele>885.9</ele>
        <time>2020-04-09T17:19:43Z</time>
      </trkpt>
      <trkpt lat="42.5864570" lon="-5.6272400">
        <ele>885.9</ele>
        <time>2020-04-09T17:19:45Z</time>
      </trkpt>
      <trkpt lat="42.5864130" lon="-5.6273600">
        <ele>886.0</ele>
        <time>2020-04-09T17:19:47Z</time>
      </trkpt>
      <trkpt lat="42.5863680" lon="-5.6274820">
        <ele>886.1</ele>
        <time>2020-04-09T17:19:49Z</time>
      </trkpt>
      <trkpt lat="42.5862210" lon="-5.6278810">
        <ele>886.8</ele>
        <time>2020-04-09T17:19:51Z</time>
      </trkpt>
      <trkpt lat="42.5861760" lon="-5.6280030">
        <ele>887.0</ele>
        <time>2020-04-09T17:19:53Z</time>
      </trkpt>
      <trkpt lat="42.5861300" lon="-5.6281260">
        <ele>887.3</ele>
        <time>2020-04-09T17:19:55Z</time>
      </trkpt>
      <trkpt lat="42.5860850" lon="-5.6282490">
        <ele>887.5</ele>
        <time>2020-04-09T17:19:57Z</time>
      </trkpt>
      <trkpt lat="42.5860390" lon="-5.6283730">
        <ele>887.7</ele>
        <time>2020-04-09T17:19:59Z</time>
      </trkpt>
      <trkpt lat="42.5859940" lon="-5.6284970">
        <ele>887.9</ele>
        <time>2020-04-09T17:20:01Z</time>
      </trkpt>
      <trkpt lat="42.5858480" lon="-5.6288950">
        <ele>889.0</ele>
        <time>2020-04-09T17:20:03Z</time>
      </trkpt>
      <trkpt lat="42.5858070" lon="-5.6290120">
        <ele>889.4</ele>
        <time>2020-04-09T17:20:05Z</time>
      </trkpt>
      <trkpt lat="42.5857670" lon="-5.6291240">
        <ele>889.7</ele>
        <time>2020-04-09T17:20:07Z</time>
      </trkpt>
      <trkpt lat="42.5857300" lon="-5.6292300">
        <ele>889.9</ele>
        <time>2020-04-09T17:20:09Z</time>
      </trkpt>
      <trkpt lat="42.5856930" lon="-5.6293320">
        <ele>890.2</ele>
        <time>2020-04-09T17:20:11Z</time>
      </trkpt>
      <trkpt lat="42.5855890" lon="-5.6296270">
        <ele>890.9</ele>
        <time>2020-04-09T17:20:13Z</time>
      </trkpt>
      <trkpt lat="42.5855560" lon="-5.6297230">
        <ele>891.2</ele>
        <time>2020-04-09T17:20:15Z</time>
      </trkpt>
      <trkpt lat="42.5855230" lon="-5.6298160">
        <ele>891.4</ele>
        <time>2020-04-09T17:20:17Z</time>
      </trkpt>
      <trkpt lat="42.5854910" lon="-5.6299080">
        <ele>891.6</ele>
        <time>2020-04-09T17:20:19Z</time>
      </trkpt>
      <trkpt lat="42.5854590" lon="-5.6299980">
        <ele>891.8</ele>
        <time>2020-04-09T17:20:21Z</time>
      </trkpt>
      <trkpt lat="42.5854280" lon="-5.6300860">
        <ele>892.0</ele>
        <time>2020-04-09T17:20:23Z</time>
      </trkpt>
      <trkpt lat="42.5853280" lon="-5.6303700">
        <ele>892.5</ele>
        <time>2020-04-09T17:20:25Z</time>
      </trkpt>
      <trkpt lat="42.5852930" lon="-5.6304710">
        <ele>892.7</ele>
        <time>2020-04-09T17:20:27Z</time>
      </trkpt>
      <trkpt lat="42.5852550" lon="-5.6305780">
        <ele>892.9</ele>
        <time>2020-04-09T17:20:29Z</time>
      </trkpt>
      <trkpt lat="42.5852140" lon="-5.6306930">
        <ele>893.2</ele>
        <time>2020-04-09T17:20:31Z</time>
      </trkpt>
      <trkpt lat="42.5851710" lon="-5.6308150">
        <ele>893.5</ele>
        <time>2020-04-09T17:20:33Z</time>
      </trkpt>
      <trkpt lat="42.5850560" lon="-5.6311370">
        <ele>894.3</ele>
        <time>2020-04-09T17:20:35Z</time>
      </trkpt>
      <trkpt lat="42.5850060" lon="-5.6312660">
        <ele>894.5</ele>
        <time>2020-04-09T17:20:37Z</time>
      </trkpt>
      <trkpt lat="42.5849540" lon="-5.6313980">
        <ele>894.7</ele>
        <time>2020-04-09T17:20:39Z</time>
      </trkpt>
      <trkpt lat="42.5849020" lon="-5.6315340">
        <ele>894.9</ele>
        <time>2020-04-09T17:20:41Z</time>
      </trkpt>
      <trkpt lat="42.5848480" lon="-5.6316710">
        <ele>895.1</ele>
        <time>2020-04-09T17:20:43Z</time>
      </trkpt>
      <trkpt lat="42.5846900" lon="-5.6320810">
        <ele>895.6</ele>
        <time>2020-04-09T17:20:45Z</time>
      </trkpt>
      <trkpt lat="42.5846310" lon="-5.6322400">
        <ele>895.7</ele>
        <time>2020-04-09T17:20:47Z</time>
      </trkpt>
      <trkpt lat="42.5845820" lon="-5.6323720">
        <ele>896.0</ele>
        <time>2020-04-09T17:20:49Z</time>
      </trkpt>
      <trkpt lat="42.5845340" lon="-5.6325000">
        <ele>896.3</ele>
        <time>2020-04-09T17:20:51Z</time>
      </trkpt>
      <trkpt lat="42.5844870" lon="-5.6326250">
        <ele>896.5</ele>
        <time>2020-04-09T17:20:53Z</time>
      </trkpt>
      <trkpt lat="42.5844420" lon="-5.6327460">
        <ele>896.7</ele>
        <time>2020-04-09T17:20:55Z</time>
      </trkpt>
      <trkpt lat="42.5843030" lon="-5.6331160">
        <ele>897.4</ele>
        <time>2020-04-09T17:20:57Z</time>
      </trkpt>
      <trkpt lat="42.5842600" lon="-5.6332300">
        <ele>897.6</ele>
        <time>2020-04-09T17:20:59Z</time>
      </trkpt>
      <trkpt lat="42.5842200" lon="-5.6333390">
        <ele>897.9</ele>
        <time>2020-04-09T17:21:01Z</time>
      </trkpt>
      <trkpt lat="42.5841820" lon="-5.6334410">
        <ele>898.2</ele>
        <time>2020-04-09T17:21:03Z</time>
      </trkpt>
      <trkpt lat="42.5841440" lon="-5.6335400">
        <ele>898.5</ele>
        <time>2020-04-09T17:21:05Z</time>
      </trkpt>
      <trkpt lat="42.5841090" lon="-5.6336350">
        <ele>898.9</ele>
        <time>2020-04-09T17:21:07Z</time>
      </trkpt>
      <trkpt lat="42.5840740" lon="-5.6337280">
        <ele>899.2</ele>
        <time>2020-04-09T17:21:09Z</time>
      </trkpt>
      <trkpt lat="42.5840400" lon="-5.6338190">
        <ele>899.5</ele>
        <time>2020-04-09T17:21:11Z</time>
      </trkpt>
      <trkpt lat="42.5839050" lon="-5.6341800">
        <ele>900.9</ele>
        <time>2020-04-09T17:21:13Z</time>
      </trkpt>
      <trkpt lat="42.5838720" lon="-5.6342670">
        <ele>901.2</ele>
        <time>2020-04-09T17:21:15Z</time>
      </trkpt>
      <trkpt lat="42.5838410" lon="-5.6343520">
        <ele>901.5</ele>
        <time>2020-04-09T17:21:17Z</time>
      </trkpt>
      <trkpt lat="42.5838100" lon="-5.6344360">
        <ele>901.8</ele>
        <time>2020-04-09T17:21:19Z</time>
      </trkpt>
      <trkpt lat="42.5837340" lon="-5.6346380">
        <ele>902.5</ele>
        <time>2020-04-09T17:21:21Z</time>
      </trkpt>
      <trkpt lat="42.5837020" lon="-5.6347200">
        <ele>902.8</ele>
        <time>2020-04-09T17:21:23Z</time>
      </trkpt>
      <trkpt lat="42.5836710" lon="-5.6348020">
        <ele>903.1</ele>
        <time>2020-04-09T17:21:25Z</time>
      </trkpt>
      <trkpt lat="42.5836400" lon="-5.6348840">
        <ele>903.4</ele>
        <time>2020-04-09T17:21:27Z</time>
      </trkpt>
      <trkpt lat="42.5836090" lon="-5.6349660">
        <ele>903.7</ele>
        <time>2020-04-09T17:21:29Z</time>
      </trkpt>
      <trkpt lat="42.5835200" lon="-5.6352010">
        <ele>904.8</ele>
        <time>2020-04-09T17:21:31Z</time>
      </trkpt>
      <trkpt lat="42.5834820" lon="-5.6352920">
        <ele>905.0</ele>
        <time>2020-04-09T17:21:33Z</time>
      </trkpt>
      <trkpt lat="42.5834420" lon="-5.6353840">
        <ele>905.3</ele>
        <time>2020-04-09T17:21:35Z</time>
      </trkpt>
      <trkpt lat="42.5834000" lon="-5.6354810">
        <ele>905.7</ele>
        <time>2020-04-09T17:21:37Z</time>
      </trkpt>
      <trkpt lat="42.5833550" lon="-5.6355830">
        <ele>906.1</ele>
        <time>2020-04-09T17:21:39Z</time>
      </trkpt>
      <trkpt lat="42.5832440" lon="-5.6358080">
        <ele>906.9</ele>
        <time>2020-04-09T17:21:41Z</time>
      </trkpt>
      <trkpt lat="42.5831890" lon="-5.6359080">
        <ele>907.1</ele>
        <time>2020-04-09T17:21:43Z</time>
      </trkpt>
      <trkpt lat="42.5831330" lon="-5.6360080">
        <ele>907.2</ele>
        <time>2020-04-09T17:21:45Z</time>
      </trkpt>
      <trkpt lat="42.5830760" lon="-5.6361100">
        <ele>907.3</ele>
        <time>2020-04-09T17:21:47Z</time>
      </trkpt>
      <trkpt lat="42.5829310" lon="-5.6363650">
        <ele>907.5</ele>
        <time>2020-04-09T17:21:49Z</time>
      </trkpt>
      <trkpt lat="42.5828700" lon="-5.6364640">
        <ele>907.7</ele>
        <time>2020-04-09T17:21:51Z</time>
      </trkpt>
      <trkpt lat="42.5827630" lon="-5.6366360">
        <ele>907.9</ele>
        <time>2020-04-09T17:21:53Z</time>
      </trkpt>
      <trkpt lat="42.5827010" lon="-5.6367340">
        <ele>908.0</ele>
        <time>2020-04-09T17:21:55Z</time>
      </trkpt>
      <trkpt lat="42.5826400" lon="-5.6368310">
        <ele>908.0</ele>
        <time>2020-04-09T17:21:57Z</time>
      </trkpt>
      <trkpt lat="42.5825780" lon="-5.6369270">
        <ele>908.0</ele>
        <time>2020-04-09T17:21:59Z</time>
      </trkpt>
      <trkpt lat="42.5825180" lon="-5.6370220">
        <ele>907.9</ele>
        <time>2020-04-09T17:22:01Z</time>
      </trkpt>
      <trkpt lat="42.5824570" lon="-5.6371180">
        <ele>907.9</ele>
        <time>2020-04-09T17:22:03Z</time>
      </trkpt>
      <trkpt lat="42.5822550" lon="-5.6374340">
        <ele>908.0</ele>
        <time>2020-04-09T17:22:05Z</time>
      </trkpt>
      <trkpt lat="42.5821960" lon="-5.6375290">
        <ele>908.0</ele>
        <time>2020-04-09T17:22:07Z</time>
      </trkpt>
      <trkpt lat="42.5821370" lon="-5.6376220">
        <ele>908.0</ele>
        <time>2020-04-09T17:22:09Z</time>
      </trkpt>
      <trkpt lat="42.5820790" lon="-5.6377140">
        <ele>908.0</ele>
        <time>2020-04-09T17:22:11Z</time>
      </trkpt>
      <trkpt lat="42.5820210" lon="-5.6378060">
        <ele>908.0</ele>
        <time>2020-04-09T17:22:13Z</time>
      </trkpt>
      <trkpt lat="42.5818700" lon="-5.6380500">
        <ele>908.1</ele>
        <time>2020-04-09T17:22:15Z</time>
      </trkpt>
      <trkpt lat="42.5818110" lon="-5.6381510">
        <ele>908.2</ele>
        <time>2020-04-09T17:22:17Z</time>
      </trkpt>
      <trkpt lat="42.5817060" lon="-5.6383330">
        <ele>908.4</ele>
        <time>2020-04-09T17:22:19Z</time>
      </trkpt>
      <trkpt lat="42.5816260" lon="-5.6384610">
        <ele>908.6</ele>
        <time>2020-04-09T17:22:21Z</time>
      </trkpt>
      <trkpt lat="42.5815580" lon="-5.6385680">
        <ele>908.8</ele>
        <time>2020-04-09T17:22:23Z</time>
      </trkpt>
      <trkpt lat="42.5814870" lon="-5.6386790">
        <ele>909.0</ele>
        <time>2020-04-09T17:22:25Z</time>
      </trkpt>
      <trkpt lat="42.5814130" lon="-5.6387930">
        <ele>909.3</ele>
        <time>2020-04-09T17:22:27Z</time>
      </trkpt>
      <trkpt lat="42.5813390" lon="-5.6389100">
        <ele>909.6</ele>
        <time>2020-04-09T17:22:29Z</time>
      </trkpt>
      <trkpt lat="42.5811290" lon="-5.6392420">
        <ele>910.3</ele>
        <time>2020-04-09T17:22:31Z</time>
      </trkpt>
      <trkpt lat="42.5810530" lon="-5.6393630">
        <ele>910.4</ele>
        <time>2020-04-09T17:22:34Z</time>
      </trkpt>
      <trkpt lat="42.5809770" lon="-5.6394870">
        <ele>910.4</ele>
        <time>2020-04-09T17:22:36Z</time>
      </trkpt>
      <trkpt lat="42.5808980" lon="-5.6396130">
        <ele>910.4</ele>
        <time>2020-04-09T17:22:38Z</time>
      </trkpt>
      <trkpt lat="42.5808200" lon="-5.6397390">
        <ele>910.3</ele>
        <time>2020-04-09T17:22:40Z</time>
      </trkpt>
      <trkpt lat="42.5806000" lon="-5.6400940">
        <ele>910.1</ele>
        <time>2020-04-09T17:22:42Z</time>
      </trkpt>
      <trkpt lat="42.5805210" lon="-5.6402220">
        <ele>909.9</ele>
        <time>2020-04-09T17:22:44Z</time>
      </trkpt>
      <trkpt lat="42.5804390" lon="-5.6403530">
        <ele>909.7</ele>
        <time>2020-04-09T17:22:46Z</time>
      </trkpt>
      <trkpt lat="42.5802560" lon="-5.6406480">
        <ele>909.3</ele>
        <time>2020-04-09T17:22:48Z</time>
      </trkpt>
      <trkpt lat="42.5801420" lon="-5.6408220">
        <ele>909.2</ele>
        <time>2020-04-09T17:22:50Z</time>
      </trkpt>
      <trkpt lat="42.5800520" lon="-5.6409680">
        <ele>909.0</ele>
        <time>2020-04-09T17:22:52Z</time>
      </trkpt>
      <trkpt lat="42.5799640" lon="-5.6411100">
        <ele>908.7</ele>
        <time>2020-04-09T17:22:54Z</time>
      </trkpt>
      <trkpt lat="42.5798730" lon="-5.6412560">
        <ele>908.4</ele>
        <time>2020-04-09T17:22:56Z</time>
      </trkpt>
      <trkpt lat="42.5797790" lon="-5.6414090">
        <ele>908.0</ele>
        <time>2020-04-09T17:22:58Z</time>
      </trkpt>
      <trkpt lat="42.5795200" lon="-5.6416420">
        <ele>906.8</ele>
        <time>2020-04-09T17:23:00Z</time>
      </trkpt>
      <trkpt lat="42.5793340" lon="-5.6417190">
        <ele>906.7</ele>
        <time>2020-04-09T17:23:02Z</time>
      </trkpt>
      <trkpt lat="42.5792100" lon="-5.6419500">
        <ele>905.7</ele>
        <time>2020-04-09T17:23:04Z</time>
      </trkpt>
      <trkpt lat="42.5790600" lon="-5.6421420">
        <ele>903.7</ele>
        <time>2020-04-09T17:23:06Z</time>
      </trkpt>
      <trkpt lat="42.5789240" lon="-5.6423270">
        <ele>902.1</ele>
        <time>2020-04-09T17:23:08Z</time>
      </trkpt>
      <trkpt lat="42.5786940" lon="-5.6426420">
        <ele>899.7</ele>
        <time>2020-04-09T17:23:10Z</time>
      </trkpt>
      <trkpt lat="42.5784770" lon="-5.6429730">
        <ele>897.4</ele>
        <time>2020-04-09T17:23:12Z</time>
      </trkpt>
      <trkpt lat="42.5783040" lon="-5.6432940">
        <ele>895.6</ele>
        <time>2020-04-09T17:23:14Z</time>
      </trkpt>
      <trkpt lat="42.5781760" lon="-5.6435550">
        <ele>892.9</ele>
        <time>2020-04-09T17:23:16Z</time>
      </trkpt>
      <trkpt lat="42.5779870" lon="-5.6440690">
        <ele>889.4</ele>
        <time>2020-04-09T17:23:18Z</time>
      </trkpt>
      <trkpt lat="42.5778760" lon="-5.6444360">
        <ele>889.6</ele>
        <time>2020-04-09T17:23:20Z</time>
      </trkpt>
      <trkpt lat="42.5778090" lon="-5.6448070">
        <ele>890.0</ele>
        <time>2020-04-09T17:23:22Z</time>
      </trkpt>
      <trkpt lat="42.5777660" lon="-5.6451350">
        <ele>890.3</ele>
        <time>2020-04-09T17:23:24Z</time>
      </trkpt>
      <trkpt lat="42.5777370" lon="-5.6453770">
        <ele>890.5</ele>
        <time>2020-04-09T17:23:26Z</time>
      </trkpt>
      <trkpt lat="42.5777100" lon="-5.6455970">
        <ele>890.8</ele>
        <time>2020-04-09T17:23:28Z</time>
      </trkpt>
      <trkpt lat="42.5775180" lon="-5.6458970">
        <ele>891.4</ele>
        <time>2020-04-09T17:23:30Z</time>
      </trkpt>
      <trkpt lat="42.5774720" lon="-5.6461240">
        <ele>891.5</ele>
        <time>2020-04-09T17:23:32Z</time>
      </trkpt>
      <trkpt lat="42.5775450" lon="-5.6463300">
        <ele>891.8</ele>
        <time>2020-04-09T17:23:34Z</time>
      </trkpt>
      <trkpt lat="42.5775940" lon="-5.6465480">
        <ele>892.6</ele>
        <time>2020-04-09T17:23:36Z</time>
      </trkpt>
      <trkpt lat="42.5775760" lon="-5.6467180">
        <ele>893.3</ele>
        <time>2020-04-09T17:23:38Z</time>
      </trkpt>
      <trkpt lat="42.5775480" lon="-5.6469090">
        <ele>894.3</ele>
        <time>2020-04-09T17:23:40Z</time>
      </trkpt>
      <trkpt lat="42.5775270" lon="-5.6470440">
        <ele>894.8</ele>
        <time>2020-04-09T17:23:42Z</time>
      </trkpt>
      <trkpt lat="42.5774830" lon="-5.6473070">
        <ele>895.6</ele>
        <time>2020-04-09T17:23:44Z</time>
      </trkpt>
      <trkpt lat="42.5774560" lon="-5.6474330">
        <ele>896.0</ele>
        <time>2020-04-09T17:23:46Z</time>
      </trkpt>
      <trkpt lat="42.5774090" lon="-5.6476460">
        <ele>896.6</ele>
        <time>2020-04-09T17:23:48Z</time>
      </trkpt>
      <trkpt lat="42.5773650" lon="-5.6477970">
        <ele>897.2</ele>
        <time>2020-04-09T17:23:50Z</time>
      </trkpt>
      <trkpt lat="42.5773040" lon="-5.6479540">
        <ele>897.7</ele>
        <time>2020-04-09T17:23:52Z</time>
      </trkpt>
      <trkpt lat="42.5772310" lon="-5.6480760">
        <ele>898.2</ele>
        <time>2020-04-09T17:23:54Z</time>
      </trkpt>
      <trkpt lat="42.5771570" lon="-5.6481720">
        <ele>898.7</ele>
        <time>2020-04-09T17:23:56Z</time>
      </trkpt>
      <trkpt lat="42.5770740" lon="-5.6482650">
        <ele>899.0</ele>
        <time>2020-04-09T17:23:58Z</time>
      </trkpt>
      <trkpt lat="42.5769920" lon="-5.6483720">
        <ele>899.2</ele>
        <time>2020-04-09T17:24:00Z</time>
      </trkpt>
      <trkpt lat="42.5769430" lon="-5.6484700">
        <ele>899.4</ele>
        <time>2020-04-09T17:24:02Z</time>
      </trkpt>
      <trkpt lat="42.5769030" lon="-5.6485820">
        <ele>899.7</ele>
        <time>2020-04-09T17:24:04Z</time>
      </trkpt>
      <trkpt lat="42.5768760" lon="-5.6487320">
        <ele>899.9</ele>
        <time>2020-04-09T17:24:06Z</time>
      </trkpt>
      <trkpt lat="42.5768700" lon="-5.6488570">
        <ele>900.1</ele>
        <time>2020-04-09T17:24:08Z</time>
      </trkpt>
      <trkpt lat="42.5768740" lon="-5.6489490">
        <ele>900.2</ele>
        <time>2020-04-09T17:24:10Z</time>
      </trkpt>
      <trkpt lat="42.5768770" lon="-5.6491010">
        <ele>900.5</ele>
        <time>2020-04-09T17:24:12Z</time>
      </trkpt>
      <trkpt lat="42.5768730" lon="-5.6492360">
        <ele>900.9</ele>
        <time>2020-04-09T17:24:14Z</time>
      </trkpt>
      <trkpt lat="42.5768610" lon="-5.6493770">
        <ele>901.3</ele>
        <time>2020-04-09T17:24:16Z</time>
      </trkpt>
      <trkpt lat="42.5768440" lon="-5.6494940">
        <ele>901.6</ele>
        <time>2020-04-09T17:24:18Z</time>
      </trkpt>
      <trkpt lat="42.5768090" lon="-5.6496850">
        <ele>902.0</ele>
        <time>2020-04-09T17:24:20Z</time>
      </trkpt>
      <trkpt lat="42.5767670" lon="-5.6498620">
        <ele>902.4</ele>
        <time>2020-04-09T17:24:22Z</time>
      </trkpt>
      <trkpt lat="42.5767130" lon="-5.6500320">
        <ele>902.9</ele>
        <time>2020-04-09T17:24:24Z</time>
      </trkpt>
      <trkpt lat="42.5766670" lon="-5.6501520">
        <ele>903.1</ele>
        <time>2020-04-09T17:24:26Z</time>
      </trkpt>
      <trkpt lat="42.5765820" lon="-5.6503650">
        <ele>903.8</ele>
        <time>2020-04-09T17:24:28Z</time>
      </trkpt>
      <trkpt lat="42.5765250" lon="-5.6504770">
        <ele>904.2</ele>
        <time>2020-04-09T17:24:30Z</time>
      </trkpt>
      <trkpt lat="42.5764680" lon="-5.6505890">
        <ele>904.5</ele>
        <time>2020-04-09T17:24:32Z</time>
      </trkpt>
      <trkpt lat="42.5763590" lon="-5.6508000">
        <ele>905.1</ele>
        <time>2020-04-09T17:24:34Z</time>
      </trkpt>
      <trkpt lat="42.5762720" lon="-5.6509630">
        <ele>905.2</ele>
        <time>2020-04-09T17:24:36Z</time>
      </trkpt>
      <trkpt lat="42.5762140" lon="-5.6510730">
        <ele>905.0</ele>
        <time>2020-04-09T17:24:38Z</time>
      </trkpt>
      <trkpt lat="42.5761560" lon="-5.6511830">
        <ele>904.7</ele>
        <time>2020-04-09T17:24:40Z</time>
      </trkpt>
      <trkpt lat="42.5760510" lon="-5.6513920">
        <ele>904.1</ele>
        <time>2020-04-09T17:24:42Z</time>
      </trkpt>
      <trkpt lat="42.5759570" lon="-5.6515840">
        <ele>903.6</ele>
        <time>2020-04-09T17:24:44Z</time>
      </trkpt>
      <trkpt lat="42.5758940" lon="-5.6516960">
        <ele>903.7</ele>
        <time>2020-04-09T17:24:46Z</time>
      </trkpt>
      <trkpt lat="42.5757850" lon="-5.6518920">
        <ele>903.8</ele>
        <time>2020-04-09T17:24:48Z</time>
      </trkpt>
      <trkpt lat="42.5757300" lon="-5.6520170">
        <ele>903.9</ele>
        <time>2020-04-09T17:24:50Z</time>
      </trkpt>
      <trkpt lat="42.5756760" lon="-5.6521420">
        <ele>904.0</ele>
        <time>2020-04-09T17:24:52Z</time>
      </trkpt>
      <trkpt lat="42.5755630" lon="-5.6523860">
        <ele>904.2</ele>
        <time>2020-04-09T17:24:54Z</time>
      </trkpt>
      <trkpt lat="42.5755010" lon="-5.6525070">
        <ele>904.4</ele>
        <time>2020-04-09T17:24:56Z</time>
      </trkpt>
      <trkpt lat="42.5753890" lon="-5.6527240">
        <ele>904.6</ele>
        <time>2020-04-09T17:24:58Z</time>
      </trkpt>
      <trkpt lat="42.5753300" lon="-5.6528450">
        <ele>904.6</ele>
        <time>2020-04-09T17:25:00Z</time>
      </trkpt>
      <trkpt lat="42.5752260" lon="-5.6530540">
        <ele>904.6</ele>
        <time>2020-04-09T17:25:02Z</time>
      </trkpt>
      <trkpt lat="42.5751630" lon="-5.6531670">
        <ele>904.7</ele>
        <time>2020-04-09T17:25:04Z</time>
      </trkpt>
      <trkpt lat="42.5751000" lon="-5.6532800">
        <ele>904.8</ele>
        <time>2020-04-09T17:25:06Z</time>
      </trkpt>
      <trkpt lat="42.5749850" lon="-5.6534900">
        <ele>905.0</ele>
        <time>2020-04-09T17:25:08Z</time>
      </trkpt>
      <trkpt lat="42.5748900" lon="-5.6536690">
        <ele>904.9</ele>
        <time>2020-04-09T17:25:10Z</time>
      </trkpt>
      <trkpt lat="42.5748200" lon="-5.6537820">
        <ele>904.8</ele>
        <time>2020-04-09T17:25:12Z</time>
      </trkpt>
      <trkpt lat="42.5747010" lon="-5.6539660">
        <ele>904.8</ele>
        <time>2020-04-09T17:25:14Z</time>
      </trkpt>
      <trkpt lat="42.5745800" lon="-5.6541560">
        <ele>904.6</ele>
        <time>2020-04-09T17:25:16Z</time>
      </trkpt>
      <trkpt lat="42.5744970" lon="-5.6543130">
        <ele>903.8</ele>
        <time>2020-04-09T17:25:18Z</time>
      </trkpt>
      <trkpt lat="42.5743700" lon="-5.6545990">
        <ele>901.7</ele>
        <time>2020-04-09T17:25:20Z</time>
      </trkpt>
      <trkpt lat="42.5742790" lon="-5.6548800">
        <ele>900.0</ele>
        <time>2020-04-09T17:25:22Z</time>
      </trkpt>
      <trkpt lat="42.5741740" lon="-5.6551590">
        <ele>899.0</ele>
        <time>2020-04-09T17:25:24Z</time>
      </trkpt>
      <trkpt lat="42.5741050" lon="-5.6553640">
        <ele>897.9</ele>
        <time>2020-04-09T17:25:26Z</time>
      </trkpt>
      <trkpt lat="42.5740150" lon="-5.6556680">
        <ele>896.6</ele>
        <time>2020-04-09T17:25:28Z</time>
      </trkpt>
      <trkpt lat="42.5739250" lon="-5.6560140">
        <ele>895.1</ele>
        <time>2020-04-09T17:25:30Z</time>
      </trkpt>
      <trkpt lat="42.5738710" lon="-5.6562460">
        <ele>893.9</ele>
        <time>2020-04-09T17:25:32Z</time>
      </trkpt>
      <trkpt lat="42.5737710" lon="-5.6566290">
        <ele>890.3</ele>
        <time>2020-04-09T17:25:34Z</time>
      </trkpt>
      <trkpt lat="42.5736000" lon="-5.6568910">
        <ele>885.8</ele>
        <time>2020-04-09T17:25:36Z</time>
      </trkpt>
      <trkpt lat="42.5734330" lon="-5.6572190">
        <ele>884.0</ele>
        <time>2020-04-09T17:25:38Z</time>
      </trkpt>
      <trkpt lat="42.5733230" lon="-5.6575600">
        <ele>883.5</ele>
        <time>2020-04-09T17:25:40Z</time>
      </trkpt>
      <trkpt lat="42.5731920" lon="-5.6578580">
        <ele>883.4</ele>
        <time>2020-04-09T17:25:42Z</time>
      </trkpt>
      <trkpt lat="42.5730360" lon="-5.6581140">
        <ele>883.5</ele>
        <time>2020-04-09T17:25:44Z</time>
      </trkpt>
      <trkpt lat="42.5728260" lon="-5.6583510">
        <ele>884.1</ele>
        <time>2020-04-09T17:25:46Z</time>
      </trkpt>
      <trkpt lat="42.5726220" lon="-5.6584090">
        <ele>885.1</ele>
        <time>2020-04-09T17:25:48Z</time>
      </trkpt>
      <trkpt lat="42.5724190" lon="-5.6584230">
        <ele>886.0</ele>
        <time>2020-04-09T17:25:50Z</time>
      </trkpt>
      <trkpt lat="42.5722670" lon="-5.6584360">
        <ele>886.7</ele>
        <time>2020-04-09T17:25:52Z</time>
      </trkpt>
      <trkpt lat="42.5719800" lon="-5.6584610">
        <ele>887.3</ele>
        <time>2020-04-09T17:25:54Z</time>
      </trkpt>
      <trkpt lat="42.5718420" lon="-5.6584730">
        <ele>887.5</ele>
        <time>2020-04-09T17:25:56Z</time>
      </trkpt>
      <trkpt lat="42.5717080" lon="-5.6584850">
        <ele>887.7</ele>
        <time>2020-04-09T17:25:58Z</time>
      </trkpt>
      <trkpt lat="42.5715780" lon="-5.6584960">
        <ele>887.8</ele>
        <time>2020-04-09T17:26:00Z</time>
      </trkpt>
      <trkpt lat="42.5712690" lon="-5.6584940">
        <ele>887.6</ele>
        <time>2020-04-09T17:26:02Z</time>
      </trkpt>
      <trkpt lat="42.5711240" lon="-5.6584110">
        <ele>887.1</ele>
        <time>2020-04-09T17:26:04Z</time>
      </trkpt>
      <trkpt lat="42.5710010" lon="-5.6582250">
        <ele>885.9</ele>
        <time>2020-04-09T17:26:06Z</time>
      </trkpt>
      <trkpt lat="42.5709730" lon="-5.6579820">
        <ele>884.6</ele>
        <time>2020-04-09T17:26:08Z</time>
      </trkpt>
      <trkpt lat="42.5708850" lon="-5.6577810">
        <ele>883.9</ele>
        <time>2020-04-09T17:26:10Z</time>
      </trkpt>
      <trkpt lat="42.5707280" lon="-5.6577470">
        <ele>884.0</ele>
        <time>2020-04-09T17:26:12Z</time>
      </trkpt>
      <trkpt lat="42.5705850" lon="-5.6578790">
        <ele>884.4</ele>
        <time>2020-04-09T17:26:14Z</time>
      </trkpt>
      <trkpt lat="42.5704850" lon="-5.6579970">
        <ele>885.1</ele>
        <time>2020-04-09T17:26:16Z</time>
      </trkpt>
      <trkpt lat="42.5703830" lon="-5.6581170">
        <ele>885.7</ele>
        <time>2020-04-09T17:26:18Z</time>
      </trkpt>
      <trkpt lat="42.5701740" lon="-5.6583600">
        <ele>886.4</ele>
        <time>2020-04-09T17:26:20Z</time>
      </trkpt>
      <trkpt lat="42.5702700" lon="-5.6585180">
        <ele>886.9</ele>
        <time>2020-04-09T17:26:22Z</time>
      </trkpt>
      <trkpt lat="42.5703280" lon="-5.6586290">
        <ele>887.3</ele>
        <time>2020-04-09T17:26:24Z</time>
      </trkpt>
      <trkpt lat="42.5704090" lon="-5.6587830">
        <ele>888.0</ele>
        <time>2020-04-09T17:26:26Z</time>
      </trkpt>
      <trkpt lat="42.5704540" lon="-5.6588690">
        <ele>888.5</ele>
        <time>2020-04-09T17:26:28Z</time>
      </trkpt>
      <trkpt lat="42.5705400" lon="-5.6590200">
        <ele>889.5</ele>
        <time>2020-04-09T17:26:30Z</time>
      </trkpt>
      <trkpt lat="42.5706010" lon="-5.6590800">
        <ele>890.2</ele>
        <time>2020-04-09T17:26:32Z</time>
      </trkpt>
      <trkpt lat="42.5707050" lon="-5.6591830">
        <ele>891.3</ele>
        <time>2020-04-09T17:26:34Z</time>
      </trkpt>
      <trkpt lat="42.5707570" lon="-5.6592560">
        <ele>891.9</ele>
        <time>2020-04-09T17:26:36Z</time>
      </trkpt>
      <trkpt lat="42.5708080" lon="-5.6593280">
        <ele>892.3</ele>
        <time>2020-04-09T17:26:38Z</time>
      </trkpt>
      <trkpt lat="42.5709070" lon="-5.6594730">
        <ele>893.0</ele>
        <time>2020-04-09T17:26:40Z</time>
      </trkpt>
      <trkpt lat="42.5709500" lon="-5.6595530">
        <ele>893.2</ele>
        <time>2020-04-09T17:26:42Z</time>
      </trkpt>
      <trkpt lat="42.5709930" lon="-5.6596320">
        <ele>893.3</ele>
        <time>2020-04-09T17:26:44Z</time>
      </trkpt>
      <trkpt lat="42.5710760" lon="-5.6597750">
        <ele>893.5</ele>
        <time>2020-04-09T17:26:46Z</time>
      </trkpt>
      <trkpt lat="42.5711220" lon="-5.6598480">
        <ele>893.7</ele>
        <time>2020-04-09T17:26:48Z</time>
      </trkpt>
      <trkpt lat="42.5711680" lon="-5.6599200">
        <ele>893.9</ele>
        <time>2020-04-09T17:26:50Z</time>
      </trkpt>
      <trkpt lat="42.5712130" lon="-5.6599920">
        <ele>894.1</ele>
        <time>2020-04-09T17:26:52Z</time>
      </trkpt>
      <trkpt lat="42.5712570" lon="-5.6600620">
        <ele>894.2</ele>
        <time>2020-04-09T17:26:54Z</time>
      </trkpt>
      <trkpt lat="42.5713000" lon="-5.6601320">
        <ele>894.2</ele>
        <time>2020-04-09T17:26:56Z</time>
      </trkpt>
      <trkpt lat="42.5714450" lon="-5.6603500">
        <ele>894.4</ele>
        <time>2020-04-09T17:26:58Z</time>
      </trkpt>
      <trkpt lat="42.5714940" lon="-5.6604120">
        <ele>894.4</ele>
        <time>2020-04-09T17:27:00Z</time>
      </trkpt>
      <trkpt lat="42.5715900" lon="-5.6605320">
        <ele>894.7</ele>
        <time>2020-04-09T17:27:02Z</time>
      </trkpt>
      <trkpt lat="42.5716450" lon="-5.6605810">
        <ele>894.9</ele>
        <time>2020-04-09T17:27:04Z</time>
      </trkpt>
      <trkpt lat="42.5717010" lon="-5.6606310">
        <ele>895.1</ele>
        <time>2020-04-09T17:27:06Z</time>
      </trkpt>
      <trkpt lat="42.5718050" lon="-5.6607270">
        <ele>895.4</ele>
        <time>2020-04-09T17:27:08Z</time>
      </trkpt>
      <trkpt lat="42.5718580" lon="-5.6607800">
        <ele>895.7</ele>
        <time>2020-04-09T17:27:10Z</time>
      </trkpt>
      <trkpt lat="42.5719280" lon="-5.6608800">
        <ele>896.2</ele>
        <time>2020-04-09T17:27:12Z</time>
      </trkpt>
      <trkpt lat="42.5719600" lon="-5.6609420">
        <ele>896.5</ele>
        <time>2020-04-09T17:27:14Z</time>
      </trkpt>
      <trkpt lat="42.5720130" lon="-5.6610510">
        <ele>897.2</ele>
        <time>2020-04-09T17:27:16Z</time>
      </trkpt>
      <trkpt lat="42.5720390" lon="-5.6611060">
        <ele>897.6</ele>
        <time>2020-04-09T17:27:18Z</time>
      </trkpt>
      <trkpt lat="42.5720640" lon="-5.6611610">
        <ele>898.1</ele>
        <time>2020-04-09T17:27:20Z</time>
      </trkpt>
      <trkpt lat="42.5720890" lon="-5.6612140">
        <ele>898.6</ele>
        <time>2020-04-09T17:27:22Z</time>
      </trkpt>
      <trkpt lat="42.5721120" lon="-5.6612630">
        <ele>899.1</ele>
        <time>2020-04-09T17:27:24Z</time>
      </trkpt>
      <trkpt lat="42.5721790" lon="-5.6614130">
        <ele>900.6</ele>
        <time>2020-04-09T17:27:26Z</time>
      </trkpt>
      <trkpt lat="42.5721980" lon="-5.6614640">
        <ele>901.1</ele>
        <time>2020-04-09T17:27:28Z</time>
      </trkpt>
      <trkpt lat="42.5722180" lon="-5.6615550">
        <ele>902.0</ele>
        <time>2020-04-09T17:27:30Z</time>
      </trkpt>
      <trkpt lat="42.5722160" lon="-5.6616110">
        <ele>902.5</ele>
        <time>2020-04-09T17:27:32Z</time>
      </trkpt>
      <trkpt lat="42.5721920" lon="-5.6616900">
        <ele>903.2</ele>
        <time>2020-04-09T17:27:34Z</time>
      </trkpt>
      <trkpt lat="42.5721670" lon="-5.6617340">
        <ele>903.5</ele>
        <time>2020-04-09T17:27:36Z</time>
      </trkpt>
      <trkpt lat="42.5721240" lon="-5.6618010">
        <ele>904.0</ele>
        <time>2020-04-09T17:27:38Z</time>
      </trkpt>
      <trkpt lat="42.5720950" lon="-5.6618400">
        <ele>904.2</ele>
        <time>2020-04-09T17:27:40Z</time>
      </trkpt>
      <trkpt lat="42.5720450" lon="-5.6619230">
        <ele>904.7</ele>
        <time>2020-04-09T17:27:42Z</time>
      </trkpt>
      <trkpt lat="42.5720220" lon="-5.6619810">
        <ele>904.9</ele>
        <time>2020-04-09T17:27:44Z</time>
      </trkpt>
      <trkpt lat="42.5719980" lon="-5.6620420">
        <ele>905.2</ele>
        <time>2020-04-09T17:27:46Z</time>
      </trkpt>
      <trkpt lat="42.5719550" lon="-5.6621690">
        <ele>905.6</ele>
        <time>2020-04-09T17:27:48Z</time>
      </trkpt>
      <trkpt lat="42.5719390" lon="-5.6622370">
        <ele>905.8</ele>
        <time>2020-04-09T17:27:50Z</time>
      </trkpt>
      <trkpt lat="42.5719230" lon="-5.6623070">
        <ele>906.0</ele>
        <time>2020-04-09T17:27:52Z</time>
      </trkpt>
      <trkpt lat="42.5718980" lon="-5.6624490">
        <ele>906.4</ele>
        <time>2020-04-09T17:27:54Z</time>
      </trkpt>
      <trkpt lat="42.5718900" lon="-5.6625220">
        <ele>906.7</ele>
        <time>2020-04-09T17:27:56Z</time>
      </trkpt>
      <trkpt lat="42.5718810" lon="-5.6625940">
        <ele>906.9</ele>
        <time>2020-04-09T17:27:58Z</time>
      </trkpt>
      <trkpt lat="42.5718720" lon="-5.6626670">
        <ele>907.2</ele>
        <time>2020-04-09T17:28:00Z</time>
      </trkpt>
      <trkpt lat="42.5718640" lon="-5.6627400">
        <ele>907.5</ele>
        <time>2020-04-09T17:28:02Z</time>
      </trkpt>
      <trkpt lat="42.5718370" lon="-5.6629610">
        <ele>908.4</ele>
        <time>2020-04-09T17:28:04Z</time>
      </trkpt>
      <trkpt lat="42.5718240" lon="-5.6630320">
        <ele>908.6</ele>
        <time>2020-04-09T17:28:06Z</time>
      </trkpt>
      <trkpt lat="42.5718100" lon="-5.6631030">
        <ele>908.9</ele>
        <time>2020-04-09T17:28:08Z</time>
      </trkpt>
      <trkpt lat="42.5717960" lon="-5.6631730">
        <ele>909.2</ele>
        <time>2020-04-09T17:28:10Z</time>
      </trkpt>
      <trkpt lat="42.5717780" lon="-5.6633320">
        <ele>909.8</ele>
        <time>2020-04-09T17:28:12Z</time>
      </trkpt>
      <trkpt lat="42.5717750" lon="-5.6634290">
        <ele>910.2</ele>
        <time>2020-04-09T17:28:14Z</time>
      </trkpt>
      <trkpt lat="42.5717720" lon="-5.6635340">
        <ele>910.6</ele>
        <time>2020-04-09T17:28:16Z</time>
      </trkpt>
      <trkpt lat="42.5717530" lon="-5.6637470">
        <ele>911.1</ele>
        <time>2020-04-09T17:28:18Z</time>
      </trkpt>
      <trkpt lat="42.5717370" lon="-5.6638600">
        <ele>911.3</ele>
        <time>2020-04-09T17:28:20Z</time>
      </trkpt>
      <trkpt lat="42.5717200" lon="-5.6639750">
        <ele>911.6</ele>
        <time>2020-04-09T17:28:22Z</time>
      </trkpt>
      <trkpt lat="42.5717040" lon="-5.6640900">
        <ele>911.8</ele>
        <time>2020-04-09T17:28:24Z</time>
      </trkpt>
      <trkpt lat="42.5716650" lon="-5.6643720">
        <ele>912.1</ele>
        <time>2020-04-09T17:28:26Z</time>
      </trkpt>
      <trkpt lat="42.5716510" lon="-5.6644900">
        <ele>912.1</ele>
        <time>2020-04-09T17:28:28Z</time>
      </trkpt>
      <trkpt lat="42.5716240" lon="-5.6647120">
        <ele>912.0</ele>
        <time>2020-04-09T17:28:30Z</time>
      </trkpt>
      <trkpt lat="42.5716080" lon="-5.6648420">
        <ele>912.0</ele>
        <time>2020-04-09T17:28:32Z</time>
      </trkpt>
      <trkpt lat="42.5715910" lon="-5.6649830">
        <ele>911.8</ele>
        <time>2020-04-09T17:28:34Z</time>
      </trkpt>
      <trkpt lat="42.5715730" lon="-5.6651320">
        <ele>911.5</ele>
        <time>2020-04-09T17:28:36Z</time>
      </trkpt>
      <trkpt lat="42.5715530" lon="-5.6652900">
        <ele>911.2</ele>
        <time>2020-04-09T17:28:38Z</time>
      </trkpt>
      <trkpt lat="42.5715060" lon="-5.6657210">
        <ele>910.9</ele>
        <time>2020-04-09T17:28:40Z</time>
      </trkpt>
      <trkpt lat="42.5715000" lon="-5.6659380">
        <ele>910.6</ele>
        <time>2020-04-09T17:28:42Z</time>
      </trkpt>
      <trkpt lat="42.5714990" lon="-5.6661150">
        <ele>910.3</ele>
        <time>2020-04-09T17:28:44Z</time>
      </trkpt>
      <trkpt lat="42.5715060" lon="-5.6664060">
        <ele>910.0</ele>
        <time>2020-04-09T17:28:46Z</time>
      </trkpt>
      <trkpt lat="42.5715160" lon="-5.6666930">
        <ele>909.7</ele>
        <time>2020-04-09T17:28:48Z</time>
      </trkpt>
      <trkpt lat="42.5715200" lon="-5.6669950">
        <ele>908.9</ele>
        <time>2020-04-09T17:28:50Z</time>
      </trkpt>
      <trkpt lat="42.5715140" lon="-5.6672040">
        <ele>908.3</ele>
        <time>2020-04-09T17:28:52Z</time>
      </trkpt>
      <trkpt lat="42.5714990" lon="-5.6675420">
        <ele>907.3</ele>
        <time>2020-04-09T17:28:54Z</time>
      </trkpt>
      <trkpt lat="42.5714850" lon="-5.6677590">
        <ele>906.3</ele>
        <time>2020-04-09T17:28:56Z</time>
      </trkpt>
      <trkpt lat="42.5714550" lon="-5.6681160">
        <ele>904.0</ele>
        <time>2020-04-09T17:28:58Z</time>
      </trkpt>
      <trkpt lat="42.5715470" lon="-5.6683470">
        <ele>902.1</ele>
        <time>2020-04-09T17:29:00Z</time>
      </trkpt>
      <trkpt lat="42.5715200" lon="-5.6685690">
        <ele>901.5</ele>
        <time>2020-04-09T17:29:02Z</time>
      </trkpt>
      <trkpt lat="42.5714840" lon="-5.6689210">
        <ele>900.5</ele>
        <time>2020-04-09T17:29:04Z</time>
      </trkpt>
      <trkpt lat="42.5714680" lon="-5.6692570">
        <ele>900.3</ele>
        <time>2020-04-09T17:29:06Z</time>
      </trkpt>
      <trkpt lat="42.5714720" lon="-5.6694890">
        <ele>900.1</ele>
        <time>2020-04-09T17:29:08Z</time>
      </trkpt>
      <trkpt lat="42.5714780" lon="-5.6698970">
        <ele>898.9</ele>
        <time>2020-04-09T17:29:10Z</time>
      </trkpt>
      <trkpt lat="42.5714800" lon="-5.6701860">
        <ele>898.5</ele>
        <time>2020-04-09T17:29:12Z</time>
      </trkpt>
      <trkpt lat="42.5714820" lon="-5.6704090">
        <ele>898.5</ele>
        <time>2020-04-09T17:29:14Z</time>
      </trkpt>
      <trkpt lat="42.5714840" lon="-5.6706170">
        <ele>898.5</ele>
        <time>2020-04-09T17:29:16Z</time>
      </trkpt>
      <trkpt lat="42.5714880" lon="-5.6710460">
        <ele>898.5</ele>
        <time>2020-04-09T17:29:18Z</time>
      </trkpt>
      <trkpt lat="42.5714870" lon="-5.6712380">
        <ele>898.5</ele>
        <time>2020-04-09T17:29:20Z</time>
      </trkpt>
      <trkpt lat="42.5714860" lon="-5.6714250">
        <ele>898.3</ele>
        <time>2020-04-09T17:29:22Z</time>
      </trkpt>
      <trkpt lat="42.5714850" lon="-5.6718340">
        <ele>897.7</ele>
        <time>2020-04-09T17:29:24Z</time>
      </trkpt>
      <trkpt lat="42.5714840" lon="-5.6720140">
        <ele>897.7</ele>
        <time>2020-04-09T17:29:26Z</time>
      </trkpt>
      <trkpt lat="42.5714840" lon="-5.6721930">
        <ele>897.7</ele>
        <time>2020-04-09T17:29:28Z</time>
      </trkpt>
      <trkpt lat="42.5714840" lon="-5.6723670">
        <ele>897.8</ele>
        <time>2020-04-09T17:29:30Z</time>
      </trkpt>
      <trkpt lat="42.5714830" lon="-5.6727640">
        <ele>898.6</ele>
        <time>2020-04-09T17:29:32Z</time>
      </trkpt>
      <trkpt lat="42.5714830" lon="-5.6729340">
        <ele>898.7</ele>
        <time>2020-04-09T17:29:34Z</time>
      </trkpt>
      <trkpt lat="42.5714820" lon="-5.6731020">
        <ele>898.8</ele>
        <time>2020-04-09T17:29:36Z</time>
      </trkpt>
      <trkpt lat="42.5714820" lon="-5.6732680">
        <ele>898.8</ele>
        <time>2020-04-09T17:29:38Z</time>
      </trkpt>
      <trkpt lat="42.5714850" lon="-5.6736580">
        <ele>899.4</ele>
        <time>2020-04-09T17:29:40Z</time>
      </trkpt>
      <trkpt lat="42.5714880" lon="-5.6738240">
        <ele>899.5</ele>
        <time>2020-04-09T17:29:42Z</time>
      </trkpt>
      <trkpt lat="42.5714910" lon="-5.6739920">
        <ele>899.4</ele>
        <time>2020-04-09T17:29:44Z</time>
      </trkpt>
      <trkpt lat="42.5714940" lon="-5.6741570">
        <ele>899.2</ele>
        <time>2020-04-09T17:29:46Z</time>
      </trkpt>
      <trkpt lat="42.5714530" lon="-5.6745510">
        <ele>899.1</ele>
        <time>2020-04-09T17:29:48Z</time>
      </trkpt>
      <trkpt lat="42.5714050" lon="-5.6747010">
        <ele>899.4</ele>
        <time>2020-04-09T17:29:50Z</time>
      </trkpt>
      <trkpt lat="42.5713200" lon="-5.6749770">
        <ele>899.8</ele>
        <time>2020-04-09T17:29:52Z</time>
      </trkpt>
      <trkpt lat="42.5712790" lon="-5.6751290">
        <ele>899.9</ele>
        <time>2020-04-09T17:29:54Z</time>
      </trkpt>
      <trkpt lat="42.5712380" lon="-5.6752820">
        <ele>899.9</ele>
        <time>2020-04-09T17:29:56Z</time>
      </trkpt>
      <trkpt lat="42.5711560" lon="-5.6755930">
        <ele>899.9</ele>
        <time>2020-04-09T17:29:58Z</time>
      </trkpt>
      <trkpt lat="42.5711190" lon="-5.6757440">
        <ele>899.9</ele>
        <time>2020-04-09T17:30:00Z</time>
      </trkpt>
      <trkpt lat="42.5710510" lon="-5.6760130">
        <ele>899.8</ele>
        <time>2020-04-09T17:30:02Z</time>
      </trkpt>
      <trkpt lat="42.5710110" lon="-5.6761550">
        <ele>899.8</ele>
        <time>2020-04-09T17:30:04Z</time>
      </trkpt>
      <trkpt lat="42.5709720" lon="-5.6762950">
        <ele>899.8</ele>
        <time>2020-04-09T17:30:06Z</time>
      </trkpt>
      <trkpt lat="42.5709330" lon="-5.6764330">
        <ele>899.8</ele>
        <time>2020-04-09T17:30:08Z</time>
      </trkpt>
      <trkpt lat="42.5708950" lon="-5.6765700">
        <ele>899.8</ele>
        <time>2020-04-09T17:30:10Z</time>
      </trkpt>
      <trkpt lat="42.5707910" lon="-5.6769410">
        <ele>900.6</ele>
        <time>2020-04-09T17:30:12Z</time>
      </trkpt>
      <trkpt lat="42.5707520" lon="-5.6770830">
        <ele>901.2</ele>
        <time>2020-04-09T17:30:14Z</time>
      </trkpt>
      <trkpt lat="42.5707100" lon="-5.6772310">
        <ele>901.6</ele>
        <time>2020-04-09T17:30:16Z</time>
      </trkpt>
      <trkpt lat="42.5706680" lon="-5.6773820">
        <ele>901.7</ele>
        <time>2020-04-09T17:30:18Z</time>
      </trkpt>
      <trkpt lat="42.5705600" lon="-5.6777750">
        <ele>901.0</ele>
        <time>2020-04-09T17:30:20Z</time>
      </trkpt>
      <trkpt lat="42.5705160" lon="-5.6779350">
        <ele>900.5</ele>
        <time>2020-04-09T17:30:22Z</time>
      </trkpt>
      <trkpt lat="42.5704710" lon="-5.6780980">
        <ele>900.2</ele>
        <time>2020-04-09T17:30:24Z</time>
      </trkpt>
      <trkpt lat="42.5704260" lon="-5.6782650">
        <ele>899.9</ele>
        <time>2020-04-09T17:30:26Z</time>
      </trkpt>
      <trkpt lat="42.5703310" lon="-5.6786690">
        <ele>899.0</ele>
        <time>2020-04-09T17:30:28Z</time>
      </trkpt>
      <trkpt lat="42.5702920" lon="-5.6788580">
        <ele>898.4</ele>
        <time>2020-04-09T17:30:30Z</time>
      </trkpt>
      <trkpt lat="42.5702390" lon="-5.6790460">
        <ele>897.6</ele>
        <time>2020-04-09T17:30:32Z</time>
      </trkpt>
      <trkpt lat="42.5701830" lon="-5.6792440">
        <ele>897.0</ele>
        <time>2020-04-09T17:30:34Z</time>
      </trkpt>
      <trkpt lat="42.5700640" lon="-5.6796680">
        <ele>895.4</ele>
        <time>2020-04-09T17:30:36Z</time>
      </trkpt>
      <trkpt lat="42.5700040" lon="-5.6798840">
        <ele>894.5</ele>
        <time>2020-04-09T17:30:38Z</time>
      </trkpt>
      <trkpt lat="42.5699420" lon="-5.6801030">
        <ele>893.7</ele>
        <time>2020-04-09T17:30:40Z</time>
      </trkpt>
      <trkpt lat="42.5698190" lon="-5.6805430">
        <ele>891.9</ele>
        <time>2020-04-09T17:30:42Z</time>
      </trkpt>
      <trkpt lat="42.5697590" lon="-5.6807550">
        <ele>891.2</ele>
        <time>2020-04-09T17:30:44Z</time>
      </trkpt>
      <trkpt lat="42.5696420" lon="-5.6811740">
        <ele>889.8</ele>
        <time>2020-04-09T17:30:46Z</time>
      </trkpt>
      <trkpt lat="42.5695730" lon="-5.6813680">
        <ele>889.1</ele>
        <time>2020-04-09T17:30:48Z</time>
      </trkpt>
      <trkpt lat="42.5694620" lon="-5.6816720">
        <ele>888.3</ele>
        <time>2020-04-09T17:30:50Z</time>
      </trkpt>
      <trkpt lat="42.5693880" lon="-5.6818450">
        <ele>888.0</ele>
        <time>2020-04-09T17:30:52Z</time>
      </trkpt>
      <trkpt lat="42.5693190" lon="-5.6820090">
        <ele>887.7</ele>
        <time>2020-04-09T17:30:54Z</time>
      </trkpt>
      <trkpt lat="42.5692520" lon="-5.6821670">
        <ele>887.6</ele>
        <time>2020-04-09T17:30:56Z</time>
      </trkpt>
      <trkpt lat="42.5691860" lon="-5.6823230">
        <ele>887.6</ele>
        <time>2020-04-09T17:30:58Z</time>
      </trkpt>
      <trkpt lat="42.5691050" lon="-5.6827160">
        <ele>887.7</ele>
        <time>2020-04-09T17:31:00Z</time>
      </trkpt>
      <trkpt lat="42.5690390" lon="-5.6828700">
        <ele>887.9</ele>
        <time>2020-04-09T17:31:02Z</time>
      </trkpt>
      <trkpt lat="42.5689740" lon="-5.6830200">
        <ele>888.0</ele>
        <time>2020-04-09T17:31:04Z</time>
      </trkpt>
      <trkpt lat="42.5688300" lon="-5.6833550">
        <ele>888.6</ele>
        <time>2020-04-09T17:31:06Z</time>
      </trkpt>
      <trkpt lat="42.5687480" lon="-5.6835460">
        <ele>889.1</ele>
        <time>2020-04-09T17:31:08Z</time>
      </trkpt>
      <trkpt lat="42.5686630" lon="-5.6837440">
        <ele>889.6</ele>
        <time>2020-04-09T17:31:10Z</time>
      </trkpt>
      <trkpt lat="42.5685950" lon="-5.6838990">
        <ele>890.2</ele>
        <time>2020-04-09T17:31:12Z</time>
      </trkpt>
      <trkpt lat="42.5685370" lon="-5.6840340">
        <ele>890.5</ele>
        <time>2020-04-09T17:31:14Z</time>
      </trkpt>
      <trkpt lat="42.5684810" lon="-5.6841640">
        <ele>890.8</ele>
        <time>2020-04-09T17:31:16Z</time>
      </trkpt>
      <trkpt lat="42.5683570" lon="-5.6844530">
        <ele>891.5</ele>
        <time>2020-04-09T17:31:18Z</time>
      </trkpt>
      <trkpt lat="42.5682830" lon="-5.6846250">
        <ele>892.2</ele>
        <time>2020-04-09T17:31:20Z</time>
      </trkpt>
      <trkpt lat="42.5682310" lon="-5.6847450">
        <ele>892.9</ele>
        <time>2020-04-09T17:31:22Z</time>
      </trkpt>
      <trkpt lat="42.5681800" lon="-5.6848640">
        <ele>893.3</ele>
        <time>2020-04-09T17:31:24Z</time>
      </trkpt>
      <trkpt lat="42.5681300" lon="-5.6849810">
        <ele>894.0</ele>
        <time>2020-04-09T17:31:26Z</time>
      </trkpt>
      <trkpt lat="42.5680810" lon="-5.6850950">
        <ele>894.7</ele>
        <time>2020-04-09T17:31:28Z</time>
      </trkpt>
      <trkpt lat="42.5679520" lon="-5.6853930">
        <ele>895.9</ele>
        <time>2020-04-09T17:31:30Z</time>
      </trkpt>
      <trkpt lat="42.5678880" lon="-5.6855450">
        <ele>896.2</ele>
        <time>2020-04-09T17:31:32Z</time>
      </trkpt>
      <trkpt lat="42.5678440" lon="-5.6856470">
        <ele>896.3</ele>
        <time>2020-04-09T17:31:34Z</time>
      </trkpt>
      <trkpt lat="42.5678020" lon="-5.6857460">
        <ele>896.4</ele>
        <time>2020-04-09T17:31:36Z</time>
      </trkpt>
      <trkpt lat="42.5677610" lon="-5.6858420">
        <ele>896.7</ele>
        <time>2020-04-09T17:31:38Z</time>
      </trkpt>
      <trkpt lat="42.5677210" lon="-5.6859360">
        <ele>897.1</ele>
        <time>2020-04-09T17:31:40Z</time>
      </trkpt>
      <trkpt lat="42.5676000" lon="-5.6862180">
        <ele>898.6</ele>
        <time>2020-04-09T17:31:42Z</time>
      </trkpt>
      <trkpt lat="42.5675620" lon="-5.6863080">
        <ele>899.0</ele>
        <time>2020-04-09T17:31:44Z</time>
      </trkpt>
      <trkpt lat="42.5675240" lon="-5.6863970">
        <ele>899.4</ele>
        <time>2020-04-09T17:31:46Z</time>
      </trkpt>
      <trkpt lat="42.5674540" lon="-5.6865580">
        <ele>900.2</ele>
        <time>2020-04-09T17:31:48Z</time>
      </trkpt>
      <trkpt lat="42.5674120" lon="-5.6866540">
        <ele>900.6</ele>
        <time>2020-04-09T17:31:50Z</time>
      </trkpt>
      <trkpt lat="42.5673680" lon="-5.6867520">
        <ele>901.1</ele>
        <time>2020-04-09T17:31:52Z</time>
      </trkpt>
      <trkpt lat="42.5673230" lon="-5.6868540">
        <ele>901.6</ele>
        <time>2020-04-09T17:31:54Z</time>
      </trkpt>
      <trkpt lat="42.5672030" lon="-5.6871180">
        <ele>902.9</ele>
        <time>2020-04-09T17:31:56Z</time>
      </trkpt>
      <trkpt lat="42.5671540" lon="-5.6872200">
        <ele>903.4</ele>
        <time>2020-04-09T17:31:58Z</time>
      </trkpt>
      <trkpt lat="42.5671040" lon="-5.6873210">
        <ele>903.8</ele>
        <time>2020-04-09T17:32:00Z</time>
      </trkpt>
      <trkpt lat="42.5670540" lon="-5.6874240">
        <ele>904.1</ele>
        <time>2020-04-09T17:32:02Z</time>
      </trkpt>
      <trkpt lat="42.5669270" lon="-5.6876810">
        <ele>905.5</ele>
        <time>2020-04-09T17:32:04Z</time>
      </trkpt>
      <trkpt lat="42.5668730" lon="-5.6877880">
        <ele>906.2</ele>
        <time>2020-04-09T17:32:06Z</time>
      </trkpt>
      <trkpt lat="42.5668170" lon="-5.6879000">
        <ele>906.8</ele>
        <time>2020-04-09T17:32:08Z</time>
      </trkpt>
      <trkpt lat="42.5667570" lon="-5.6880200">
        <ele>907.3</ele>
        <time>2020-04-09T17:32:10Z</time>
      </trkpt>
      <trkpt lat="42.5666160" lon="-5.6882950">
        <ele>907.6</ele>
        <time>2020-04-09T17:32:12Z</time>
      </trkpt>
      <trkpt lat="42.5665480" lon="-5.6884190">
        <ele>907.6</ele>
        <time>2020-04-09T17:32:14Z</time>
      </trkpt>
      <trkpt lat="42.5664790" lon="-5.6885450">
        <ele>907.6</ele>
        <time>2020-04-09T17:32:16Z</time>
      </trkpt>
      <trkpt lat="42.5664100" lon="-5.6886700">
        <ele>907.5</ele>
        <time>2020-04-09T17:32:18Z</time>
      </trkpt>
      <trkpt lat="42.5663410" lon="-5.6887970">
        <ele>907.2</ele>
        <time>2020-04-09T17:32:20Z</time>
      </trkpt>
      <trkpt lat="42.5662720" lon="-5.6889230">
        <ele>906.8</ele>
        <time>2020-04-09T17:32:22Z</time>
      </trkpt>
      <trkpt lat="42.5660720" lon="-5.6892930">
        <ele>905.7</ele>
        <time>2020-04-09T17:32:24Z</time>
      </trkpt>
      <trkpt lat="42.5660020" lon="-5.6894270">
        <ele>905.8</ele>
        <time>2020-04-09T17:32:26Z</time>
      </trkpt>
      <trkpt lat="42.5659300" lon="-5.6895650">
        <ele>905.8</ele>
        <time>2020-04-09T17:32:28Z</time>
      </trkpt>
      <trkpt lat="42.5658570" lon="-5.6897040">
        <ele>905.8</ele>
        <time>2020-04-09T17:32:30Z</time>
      </trkpt>
      <trkpt lat="42.5656600" lon="-5.6900810">
        <ele>905.8</ele>
        <time>2020-04-09T17:32:32Z</time>
      </trkpt>
      <trkpt lat="42.5655850" lon="-5.6902260">
        <ele>905.7</ele>
        <time>2020-04-09T17:32:34Z</time>
      </trkpt>
      <trkpt lat="42.5655080" lon="-5.6903730">
        <ele>905.4</ele>
        <time>2020-04-09T17:32:36Z</time>
      </trkpt>
      <trkpt lat="42.5653450" lon="-5.6906870">
        <ele>904.6</ele>
        <time>2020-04-09T17:32:38Z</time>
      </trkpt>
      <trkpt lat="42.5652640" lon="-5.6908350">
        <ele>904.2</ele>
        <time>2020-04-09T17:32:40Z</time>
      </trkpt>
      <trkpt lat="42.5651460" lon="-5.6910550">
        <ele>903.5</ele>
        <time>2020-04-09T17:32:42Z</time>
      </trkpt>
      <trkpt lat="42.5650620" lon="-5.6912120">
        <ele>903.0</ele>
        <time>2020-04-09T17:32:44Z</time>
      </trkpt>
      <trkpt lat="42.5649760" lon="-5.6913720">
        <ele>902.7</ele>
        <time>2020-04-09T17:32:46Z</time>
      </trkpt>
      <trkpt lat="42.5648870" lon="-5.6915370">
        <ele>902.2</ele>
        <time>2020-04-09T17:32:48Z</time>
      </trkpt>
      <trkpt lat="42.5646710" lon="-5.6919370">
        <ele>900.5</ele>
        <time>2020-04-09T17:32:50Z</time>
      </trkpt>
      <trkpt lat="42.5645340" lon="-5.6921880">
        <ele>899.7</ele>
        <time>2020-04-09T17:32:52Z</time>
      </trkpt>
      <trkpt lat="42.5644430" lon="-5.6923570">
        <ele>899.7</ele>
        <time>2020-04-09T17:32:54Z</time>
      </trkpt>
      <trkpt lat="42.5643550" lon="-5.6925210">
        <ele>899.6</ele>
        <time>2020-04-09T17:32:56Z</time>
      </trkpt>
      <trkpt lat="42.5641830" lon="-5.6928430">
        <ele>899.3</ele>
        <time>2020-04-09T17:32:58Z</time>
      </trkpt>
      <trkpt lat="42.5641000" lon="-5.6929990">
        <ele>899.1</ele>
        <time>2020-04-09T17:33:00Z</time>
      </trkpt>
      <trkpt lat="42.5639590" lon="-5.6932620">
        <ele>899.2</ele>
        <time>2020-04-09T17:33:02Z</time>
      </trkpt>
      <trkpt lat="42.5638790" lon="-5.6934120">
        <ele>899.7</ele>
        <time>2020-04-09T17:33:04Z</time>
      </trkpt>
      <trkpt lat="42.5637280" lon="-5.6936930">
        <ele>900.7</ele>
        <time>2020-04-09T17:33:06Z</time>
      </trkpt>
      <trkpt lat="42.5636500" lon="-5.6938390">
        <ele>901.2</ele>
        <time>2020-04-09T17:33:08Z</time>
      </trkpt>
      <trkpt lat="42.5635720" lon="-5.6939870">
        <ele>901.7</ele>
        <time>2020-04-09T17:33:10Z</time>
      </trkpt>
      <trkpt lat="42.5634940" lon="-5.6941320">
        <ele>902.2</ele>
        <time>2020-04-09T17:33:12Z</time>
      </trkpt>
      <trkpt lat="42.5633200" lon="-5.6944580">
        <ele>902.8</ele>
        <time>2020-04-09T17:33:14Z</time>
      </trkpt>
      <trkpt lat="42.5632070" lon="-5.6946690">
        <ele>902.7</ele>
        <time>2020-04-09T17:33:16Z</time>
      </trkpt>
      <trkpt lat="42.5631280" lon="-5.6948170">
        <ele>902.5</ele>
        <time>2020-04-09T17:33:18Z</time>
      </trkpt>
      <trkpt lat="42.5630480" lon="-5.6949680">
        <ele>902.1</ele>
        <time>2020-04-09T17:33:20Z</time>
      </trkpt>
      <trkpt lat="42.5629670" lon="-5.6951200">
        <ele>901.7</ele>
        <time>2020-04-09T17:33:22Z</time>
      </trkpt>
      <trkpt lat="42.5628850" lon="-5.6952750">
        <ele>901.6</ele>
        <time>2020-04-09T17:33:24Z</time>
      </trkpt>
      <trkpt lat="42.5626490" lon="-5.6957190">
        <ele>899.4</ele>
        <time>2020-04-09T17:33:26Z</time>
      </trkpt>
      <trkpt lat="42.5625650" lon="-5.6958770">
        <ele>899.1</ele>
        <time>2020-04-09T17:33:28Z</time>
      </trkpt>
      <trkpt lat="42.5624810" lon="-5.6960360">
        <ele>898.7</ele>
        <time>2020-04-09T17:33:30Z</time>
      </trkpt>
      <trkpt lat="42.5623960" lon="-5.6961950">
        <ele>898.4</ele>
        <time>2020-04-09T17:33:32Z</time>
      </trkpt>
      <trkpt lat="42.5622030" lon="-5.6965590">
        <ele>897.8</ele>
        <time>2020-04-09T17:33:34Z</time>
      </trkpt>
      <trkpt lat="42.5620890" lon="-5.6967730">
        <ele>897.6</ele>
        <time>2020-04-09T17:33:36Z</time>
      </trkpt>
      <trkpt lat="42.5619680" lon="-5.6970010">
        <ele>897.4</ele>
        <time>2020-04-09T17:33:38Z</time>
      </trkpt>
      <trkpt lat="42.5618800" lon="-5.6971660">
        <ele>897.3</ele>
        <time>2020-04-09T17:33:40Z</time>
      </trkpt>
      <trkpt lat="42.5617210" lon="-5.6974620">
        <ele>897.4</ele>
        <time>2020-04-09T17:33:42Z</time>
      </trkpt>
      <trkpt lat="42.5616140" lon="-5.6976630">
        <ele>897.4</ele>
        <time>2020-04-09T17:33:44Z</time>
      </trkpt>
      <trkpt lat="42.5615270" lon="-5.6978260">
        <ele>897.4</ele>
        <time>2020-04-09T17:33:46Z</time>
      </trkpt>
      <trkpt lat="42.5614430" lon="-5.6979850">
        <ele>897.4</ele>
        <time>2020-04-09T17:33:48Z</time>
      </trkpt>
      <trkpt lat="42.5612470" lon="-5.6983520">
        <ele>897.5</ele>
        <time>2020-04-09T17:33:50Z</time>
      </trkpt>
      <trkpt lat="42.5611650" lon="-5.6985060">
        <ele>897.6</ele>
        <time>2020-04-09T17:33:52Z</time>
      </trkpt>
      <trkpt lat="42.5610850" lon="-5.6986570">
        <ele>897.7</ele>
        <time>2020-04-09T17:33:54Z</time>
      </trkpt>
      <trkpt lat="42.5610050" lon="-5.6988080">
        <ele>897.8</ele>
        <time>2020-04-09T17:33:56Z</time>
      </trkpt>
      <trkpt lat="42.5608160" lon="-5.6991630">
        <ele>898.3</ele>
        <time>2020-04-09T17:33:58Z</time>
      </trkpt>
      <trkpt lat="42.5607150" lon="-5.6993500">
        <ele>898.4</ele>
        <time>2020-04-09T17:34:00Z</time>
      </trkpt>
      <trkpt lat="42.5606380" lon="-5.6994950">
        <ele>898.4</ele>
        <time>2020-04-09T17:34:02Z</time>
      </trkpt>
      <trkpt lat="42.5605630" lon="-5.6996360">
        <ele>898.4</ele>
        <time>2020-04-09T17:34:04Z</time>
      </trkpt>
      <trkpt lat="42.5604890" lon="-5.6997760">
        <ele>898.4</ele>
        <time>2020-04-09T17:34:06Z</time>
      </trkpt>
      <trkpt lat="42.5604160" lon="-5.6999130">
        <ele>898.3</ele>
        <time>2020-04-09T17:34:08Z</time>
      </trkpt>
      <trkpt lat="42.5602130" lon="-5.7002950">
        <ele>898.3</ele>
        <time>2020-04-09T17:34:10Z</time>
      </trkpt>
      <trkpt lat="42.5601420" lon="-5.7004290">
        <ele>898.3</ele>
        <time>2020-04-09T17:34:12Z</time>
      </trkpt>
      <trkpt lat="42.5600360" lon="-5.7006580">
        <ele>898.5</ele>
        <time>2020-04-09T17:34:14Z</time>
      </trkpt>
      <trkpt lat="42.5599790" lon="-5.7007950">
        <ele>898.6</ele>
        <time>2020-04-09T17:34:16Z</time>
      </trkpt>
      <trkpt lat="42.5599180" lon="-5.7010770">
        <ele>899.0</ele>
        <time>2020-04-09T17:34:18Z</time>
      </trkpt>
      <trkpt lat="42.5598640" lon="-5.7012430">
        <ele>899.3</ele>
        <time>2020-04-09T17:34:20Z</time>
      </trkpt>
      <trkpt lat="42.5597250" lon="-5.7012110">
        <ele>899.2</ele>
        <time>2020-04-09T17:34:22Z</time>
      </trkpt>
      <trkpt lat="42.5596630" lon="-5.7013280">
        <ele>899.1</ele>
        <time>2020-04-09T17:34:24Z</time>
      </trkpt>
      <trkpt lat="42.5596020" lon="-5.7014430">
        <ele>899.2</ele>
        <time>2020-04-09T17:34:26Z</time>
      </trkpt>
      <trkpt lat="42.5595420" lon="-5.7015570">
        <ele>899.4</ele>
        <time>2020-04-09T17:34:28Z</time>
      </trkpt>
      <trkpt lat="42.5594100" lon="-5.7018050">
        <ele>900.3</ele>
        <time>2020-04-09T17:34:30Z</time>
      </trkpt>
      <trkpt lat="42.5593480" lon="-5.7019200">
        <ele>900.8</ele>
        <time>2020-04-09T17:34:32Z</time>
      </trkpt>
      <trkpt lat="42.5592380" lon="-5.7021260">
        <ele>901.3</ele>
        <time>2020-04-09T17:34:34Z</time>
      </trkpt>
      <trkpt lat="42.5591760" lon="-5.7022420">
        <ele>901.6</ele>
        <time>2020-04-09T17:34:36Z</time>
      </trkpt>
      <trkpt lat="42.5590770" lon="-5.7024280">
        <ele>902.3</ele>
        <time>2020-04-09T17:34:38Z</time>
      </trkpt>
      <trkpt lat="42.5590130" lon="-5.7025470">
        <ele>902.7</ele>
        <time>2020-04-09T17:34:40Z</time>
      </trkpt>
      <trkpt lat="42.5589500" lon="-5.7026660">
        <ele>903.2</ele>
        <time>2020-04-09T17:34:42Z</time>
      </trkpt>
      <trkpt lat="42.5588860" lon="-5.7027850">
        <ele>903.6</ele>
        <time>2020-04-09T17:34:44Z</time>
      </trkpt>
      <trkpt lat="42.5587290" lon="-5.7030790">
        <ele>904.7</ele>
        <time>2020-04-09T17:34:46Z</time>
      </trkpt>
      <trkpt lat="42.5586670" lon="-5.7031950">
        <ele>905.2</ele>
        <time>2020-04-09T17:34:48Z</time>
      </trkpt>
      <trkpt lat="42.5586070" lon="-5.7033070">
        <ele>905.6</ele>
        <time>2020-04-09T17:34:50Z</time>
      </trkpt>
      <trkpt lat="42.5585480" lon="-5.7034170">
        <ele>906.0</ele>
        <time>2020-04-09T17:34:52Z</time>
      </trkpt>
      <trkpt lat="42.5584910" lon="-5.7035250">
        <ele>906.4</ele>
        <time>2020-04-09T17:34:54Z</time>
      </trkpt>
      <trkpt lat="42.5584340" lon="-5.7036310">
        <ele>906.9</ele>
        <time>2020-04-09T17:34:56Z</time>
      </trkpt>
      <trkpt lat="42.5582480" lon="-5.7039800">
        <ele>908.3</ele>
        <time>2020-04-09T17:34:58Z</time>
      </trkpt>
      <trkpt lat="42.5581920" lon="-5.7040840">
        <ele>908.7</ele>
        <time>2020-04-09T17:35:00Z</time>
      </trkpt>
      <trkpt lat="42.5581370" lon="-5.7041870">
        <ele>909.1</ele>
        <time>2020-04-09T17:35:02Z</time>
      </trkpt>
      <trkpt lat="42.5580830" lon="-5.7042880">
        <ele>909.5</ele>
        <time>2020-04-09T17:35:04Z</time>
      </trkpt>
      <trkpt lat="42.5580290" lon="-5.7043900">
        <ele>909.9</ele>
        <time>2020-04-09T17:35:06Z</time>
      </trkpt>
      <trkpt lat="42.5579760" lon="-5.7044900">
        <ele>910.3</ele>
        <time>2020-04-09T17:35:08Z</time>
      </trkpt>
      <trkpt lat="42.5579230" lon="-5.7045890">
        <ele>910.6</ele>
        <time>2020-04-09T17:35:10Z</time>
      </trkpt>
      <trkpt lat="42.5577390" lon="-5.7049340">
        <ele>911.8</ele>
        <time>2020-04-09T17:35:12Z</time>
      </trkpt>
      <trkpt lat="42.5576850" lon="-5.7050350">
        <ele>912.2</ele>
        <time>2020-04-09T17:35:14Z</time>
      </trkpt>
      <trkpt lat="42.5576310" lon="-5.7051370">
        <ele>912.6</ele>
        <time>2020-04-09T17:35:16Z</time>
      </trkpt>
      <trkpt lat="42.5575770" lon="-5.7052390">
        <ele>913.0</ele>
        <time>2020-04-09T17:35:18Z</time>
      </trkpt>
      <trkpt lat="42.5575220" lon="-5.7053420">
        <ele>913.4</ele>
        <time>2020-04-09T17:35:20Z</time>
      </trkpt>
      <trkpt lat="42.5574670" lon="-5.7054450">
        <ele>913.8</ele>
        <time>2020-04-09T17:35:22Z</time>
      </trkpt>
      <trkpt lat="42.5572760" lon="-5.7057730">
        <ele>914.9</ele>
        <time>2020-04-09T17:35:24Z</time>
      </trkpt>
      <trkpt lat="42.5571680" lon="-5.7057860">
        <ele>914.4</ele>
        <time>2020-04-09T17:35:26Z</time>
      </trkpt>
      <trkpt lat="42.5570980" lon="-5.7059230">
        <ele>915.3</ele>
        <time>2020-04-09T17:35:28Z</time>
      </trkpt>
      <trkpt lat="42.5570460" lon="-5.7060230">
        <ele>916.0</ele>
        <time>2020-04-09T17:35:30Z</time>
      </trkpt>
      <trkpt lat="42.5569970" lon="-5.7061210">
        <ele>916.5</ele>
        <time>2020-04-09T17:35:32Z</time>
      </trkpt>
      <trkpt lat="42.5569480" lon="-5.7062170">
        <ele>916.9</ele>
        <time>2020-04-09T17:35:34Z</time>
      </trkpt>
      <trkpt lat="42.5568330" lon="-5.7064450">
        <ele>917.9</ele>
        <time>2020-04-09T17:35:36Z</time>
      </trkpt>
      <trkpt lat="42.5567890" lon="-5.7065400">
        <ele>918.3</ele>
        <time>2020-04-09T17:35:38Z</time>
      </trkpt>
      <trkpt lat="42.5567450" lon="-5.7066340">
        <ele>918.6</ele>
        <time>2020-04-09T17:35:40Z</time>
      </trkpt>
      <trkpt lat="42.5567020" lon="-5.7067260">
        <ele>918.9</ele>
        <time>2020-04-09T17:35:42Z</time>
      </trkpt>
      <trkpt lat="42.5565880" lon="-5.7069660">
        <ele>919.5</ele>
        <time>2020-04-09T17:35:44Z</time>
      </trkpt>
      <trkpt lat="42.5565420" lon="-5.7070630">
        <ele>919.5</ele>
        <time>2020-04-09T17:35:46Z</time>
      </trkpt>
      <trkpt lat="42.5564930" lon="-5.7071680">
        <ele>919.6</ele>
        <time>2020-04-09T17:35:48Z</time>
      </trkpt>
      <trkpt lat="42.5564400" lon="-5.7072810">
        <ele>919.7</ele>
        <time>2020-04-09T17:35:50Z</time>
      </trkpt>
      <trkpt lat="42.5563150" lon="-5.7075460">
        <ele>920.2</ele>
        <time>2020-04-09T17:35:52Z</time>
      </trkpt>
      <trkpt lat="42.5562600" lon="-5.7076660">
        <ele>920.3</ele>
        <time>2020-04-09T17:35:54Z</time>
      </trkpt>
      <trkpt lat="42.5562050" lon="-5.7077880">
        <ele>920.2</ele>
        <time>2020-04-09T17:35:56Z</time>
      </trkpt>
      <trkpt lat="42.5561490" lon="-5.7079110">
        <ele>920.0</ele>
        <time>2020-04-09T17:35:58Z</time>
      </trkpt>
      <trkpt lat="42.5560920" lon="-5.7080360">
        <ele>919.8</ele>
        <time>2020-04-09T17:36:00Z</time>
      </trkpt>
      <trkpt lat="42.5560350" lon="-5.7081610">
        <ele>919.7</ele>
        <time>2020-04-09T17:36:02Z</time>
      </trkpt>
      <trkpt lat="42.5558570" lon="-5.7085540">
        <ele>919.7</ele>
        <time>2020-04-09T17:36:04Z</time>
      </trkpt>
      <trkpt lat="42.5557980" lon="-5.7086870">
        <ele>919.7</ele>
        <time>2020-04-09T17:36:06Z</time>
      </trkpt>
      <trkpt lat="42.5557360" lon="-5.7088270">
        <ele>919.7</ele>
        <time>2020-04-09T17:36:08Z</time>
      </trkpt>
      <trkpt lat="42.5556710" lon="-5.7089730">
        <ele>919.7</ele>
        <time>2020-04-09T17:36:10Z</time>
      </trkpt>
      <trkpt lat="42.5556030" lon="-5.7091250">
        <ele>919.4</ele>
        <time>2020-04-09T17:36:12Z</time>
      </trkpt>
      <trkpt lat="42.5554210" lon="-5.7095290">
        <ele>918.0</ele>
        <time>2020-04-09T17:36:14Z</time>
      </trkpt>
      <trkpt lat="42.5553480" lon="-5.7096870">
        <ele>917.4</ele>
        <time>2020-04-09T17:36:16Z</time>
      </trkpt>
      <trkpt lat="42.5552730" lon="-5.7098510">
        <ele>916.9</ele>
        <time>2020-04-09T17:36:18Z</time>
      </trkpt>
      <trkpt lat="42.5551160" lon="-5.7101940">
        <ele>915.8</ele>
        <time>2020-04-09T17:36:20Z</time>
      </trkpt>
      <trkpt lat="42.5550430" lon="-5.7103580">
        <ele>915.5</ele>
        <time>2020-04-09T17:36:22Z</time>
      </trkpt>
      <trkpt lat="42.5549350" lon="-5.7105990">
        <ele>915.0</ele>
        <time>2020-04-09T17:36:24Z</time>
      </trkpt>
      <trkpt lat="42.5548640" lon="-5.7107570">
        <ele>914.7</ele>
        <time>2020-04-09T17:36:26Z</time>
      </trkpt>
      <trkpt lat="42.5547930" lon="-5.7109150">
        <ele>914.3</ele>
        <time>2020-04-09T17:36:28Z</time>
      </trkpt>
      <trkpt lat="42.5547230" lon="-5.7110720">
        <ele>914.1</ele>
        <time>2020-04-09T17:36:30Z</time>
      </trkpt>
      <trkpt lat="42.5545390" lon="-5.7114840">
        <ele>913.6</ele>
        <time>2020-04-09T17:36:32Z</time>
      </trkpt>
      <trkpt lat="42.5544710" lon="-5.7116370">
        <ele>913.4</ele>
        <time>2020-04-09T17:36:34Z</time>
      </trkpt>
      <trkpt lat="42.5544040" lon="-5.7117870">
        <ele>913.0</ele>
        <time>2020-04-09T17:36:36Z</time>
      </trkpt>
      <trkpt lat="42.5543390" lon="-5.7119330">
        <ele>912.8</ele>
        <time>2020-04-09T17:36:38Z</time>
      </trkpt>
      <trkpt lat="42.5542740" lon="-5.7120790">
        <ele>912.7</ele>
        <time>2020-04-09T17:36:40Z</time>
      </trkpt>
      <trkpt lat="42.5540940" lon="-5.7124810">
        <ele>912.9</ele>
        <time>2020-04-09T17:36:42Z</time>
      </trkpt>
      <trkpt lat="42.5540310" lon="-5.7126230">
        <ele>913.0</ele>
        <time>2020-04-09T17:36:44Z</time>
      </trkpt>
      <trkpt lat="42.5539200" lon="-5.7128710">
        <ele>913.1</ele>
        <time>2020-04-09T17:36:46Z</time>
      </trkpt>
      <trkpt lat="42.5538550" lon="-5.7130160">
        <ele>913.1</ele>
        <time>2020-04-09T17:36:48Z</time>
      </trkpt>
      <trkpt lat="42.5537890" lon="-5.7131620">
        <ele>913.2</ele>
        <time>2020-04-09T17:36:50Z</time>
      </trkpt>
      <trkpt lat="42.5536550" lon="-5.7134620">
        <ele>913.5</ele>
        <time>2020-04-09T17:36:52Z</time>
      </trkpt>
      <trkpt lat="42.5535910" lon="-5.7136040">
        <ele>913.7</ele>
        <time>2020-04-09T17:36:54Z</time>
      </trkpt>
      <trkpt lat="42.5535290" lon="-5.7137430">
        <ele>914.0</ele>
        <time>2020-04-09T17:36:56Z</time>
      </trkpt>
      <trkpt lat="42.5534680" lon="-5.7138780">
        <ele>914.1</ele>
        <time>2020-04-09T17:36:58Z</time>
      </trkpt>
      <trkpt lat="42.5534090" lon="-5.7140100">
        <ele>914.2</ele>
        <time>2020-04-09T17:37:00Z</time>
      </trkpt>
      <trkpt lat="42.5532350" lon="-5.7143950">
        <ele>914.2</ele>
        <time>2020-04-09T17:37:02Z</time>
      </trkpt>
      <trkpt lat="42.5531240" lon="-5.7144830">
        <ele>914.2</ele>
        <time>2020-04-09T17:37:04Z</time>
      </trkpt>
      <trkpt lat="42.5530550" lon="-5.7146250">
        <ele>914.1</ele>
        <time>2020-04-09T17:37:06Z</time>
      </trkpt>
      <trkpt lat="42.5530000" lon="-5.7147530">
        <ele>914.1</ele>
        <time>2020-04-09T17:37:08Z</time>
      </trkpt>
      <trkpt lat="42.5529450" lon="-5.7148800">
        <ele>914.1</ele>
        <time>2020-04-09T17:37:10Z</time>
      </trkpt>
      <trkpt lat="42.5528310" lon="-5.7151470">
        <ele>914.6</ele>
        <time>2020-04-09T17:37:12Z</time>
      </trkpt>
      <trkpt lat="42.5527770" lon="-5.7152730">
        <ele>915.1</ele>
        <time>2020-04-09T17:37:14Z</time>
      </trkpt>
      <trkpt lat="42.5527220" lon="-5.7154020">
        <ele>915.5</ele>
        <time>2020-04-09T17:37:16Z</time>
      </trkpt>
      <trkpt lat="42.5526190" lon="-5.7156770">
        <ele>915.8</ele>
        <time>2020-04-09T17:37:18Z</time>
      </trkpt>
      <trkpt lat="42.5525500" lon="-5.7158590">
        <ele>916.2</ele>
        <time>2020-04-09T17:37:20Z</time>
      </trkpt>
      <trkpt lat="42.5524890" lon="-5.7159820">
        <ele>916.6</ele>
        <time>2020-04-09T17:37:22Z</time>
      </trkpt>
      <trkpt lat="42.5524280" lon="-5.7161060">
        <ele>916.8</ele>
        <time>2020-04-09T17:37:24Z</time>
      </trkpt>
      <trkpt lat="42.5522950" lon="-5.7163790">
        <ele>917.1</ele>
        <time>2020-04-09T17:37:26Z</time>
      </trkpt>
      <trkpt lat="42.5522400" lon="-5.7165070">
        <ele>917.2</ele>
        <time>2020-04-09T17:37:28Z</time>
      </trkpt>
      <trkpt lat="42.5521850" lon="-5.7166320">
        <ele>917.4</ele>
        <time>2020-04-09T17:37:30Z</time>
      </trkpt>
      <trkpt lat="42.5520690" lon="-5.7168990">
        <ele>917.8</ele>
        <time>2020-04-09T17:37:32Z</time>
      </trkpt>
      <trkpt lat="42.5520130" lon="-5.7170210">
        <ele>917.9</ele>
        <time>2020-04-09T17:37:34Z</time>
      </trkpt>
      <trkpt lat="42.5519560" lon="-5.7171440">
        <ele>918.0</ele>
        <time>2020-04-09T17:37:36Z</time>
      </trkpt>
      <trkpt lat="42.5519000" lon="-5.7172660">
        <ele>918.0</ele>
        <time>2020-04-09T17:37:38Z</time>
      </trkpt>
      <trkpt lat="42.5518440" lon="-5.7173870">
        <ele>918.2</ele>
        <time>2020-04-09T17:37:40Z</time>
      </trkpt>
      <trkpt lat="42.5516990" lon="-5.7177030">
        <ele>919.0</ele>
        <time>2020-04-09T17:37:42Z</time>
      </trkpt>
      <trkpt lat="42.5516150" lon="-5.7178850">
        <ele>919.4</ele>
        <time>2020-04-09T17:37:44Z</time>
      </trkpt>
      <trkpt lat="42.5515570" lon="-5.7180120">
        <ele>919.6</ele>
        <time>2020-04-09T17:37:46Z</time>
      </trkpt>
      <trkpt lat="42.5514980" lon="-5.7181410">
        <ele>919.7</ele>
        <time>2020-04-09T17:37:48Z</time>
      </trkpt>
      <trkpt lat="42.5514380" lon="-5.7182720">
        <ele>919.9</ele>
        <time>2020-04-09T17:37:50Z</time>
      </trkpt>
      <trkpt lat="42.5513780" lon="-5.7184040">
        <ele>919.9</ele>
        <time>2020-04-09T17:37:52Z</time>
      </trkpt>
      <trkpt lat="42.5513170" lon="-5.7185370">
        <ele>920.0</ele>
        <time>2020-04-09T17:37:54Z</time>
      </trkpt>
      <trkpt lat="42.5511240" lon="-5.7189370">
        <ele>919.8</ele>
        <time>2020-04-09T17:37:56Z</time>
      </trkpt>
      <trkpt lat="42.5510450" lon="-5.7190780">
        <ele>919.6</ele>
        <time>2020-04-09T17:37:58Z</time>
      </trkpt>
      <trkpt lat="42.5509610" lon="-5.7192290">
        <ele>919.3</ele>
        <time>2020-04-09T17:38:00Z</time>
      </trkpt>
      <trkpt lat="42.5508720" lon="-5.7193880">
        <ele>919.1</ele>
        <time>2020-04-09T17:38:02Z</time>
      </trkpt>
      <trkpt lat="42.5506630" lon="-5.7197760">
        <ele>918.3</ele>
        <time>2020-04-09T17:38:04Z</time>
      </trkpt>
      <trkpt lat="42.5505750" lon="-5.7199600">
        <ele>917.7</ele>
        <time>2020-04-09T17:38:06Z</time>
      </trkpt>
      <trkpt lat="42.5504400" lon="-5.7202870">
        <ele>916.3</ele>
        <time>2020-04-09T17:38:08Z</time>
      </trkpt>
      <trkpt lat="42.5502890" lon="-5.7204900">
        <ele>915.2</ele>
        <time>2020-04-09T17:38:10Z</time>
      </trkpt>
      <trkpt lat="42.5501730" lon="-5.7206550">
        <ele>914.5</ele>
        <time>2020-04-09T17:38:12Z</time>
      </trkpt>
      <trkpt lat="42.5500560" lon="-5.7208220">
        <ele>913.8</ele>
        <time>2020-04-09T17:38:14Z</time>
      </trkpt>
      <trkpt lat="42.5497920" lon="-5.7211980">
        <ele>912.6</ele>
        <time>2020-04-09T17:38:16Z</time>
      </trkpt>
      <trkpt lat="42.5496780" lon="-5.7213600">
        <ele>912.3</ele>
        <time>2020-04-09T17:38:18Z</time>
      </trkpt>
      <trkpt lat="42.5495700" lon="-5.7215140">
        <ele>912.1</ele>
        <time>2020-04-09T17:38:20Z</time>
      </trkpt>
      <trkpt lat="42.5494680" lon="-5.7216600">
        <ele>911.9</ele>
        <time>2020-04-09T17:38:22Z</time>
      </trkpt>
      <trkpt lat="42.5492160" lon="-5.7220020">
        <ele>911.5</ele>
        <time>2020-04-09T17:38:24Z</time>
      </trkpt>
      <trkpt lat="42.5490700" lon="-5.7221150">
        <ele>911.5</ele>
        <time>2020-04-09T17:38:26Z</time>
      </trkpt>
      <trkpt lat="42.5488990" lon="-5.7222380">
        <ele>911.5</ele>
        <time>2020-04-09T17:38:28Z</time>
      </trkpt>
      <trkpt lat="42.5487540" lon="-5.7223950">
        <ele>911.7</ele>
        <time>2020-04-09T17:38:30Z</time>
      </trkpt>
      <trkpt lat="42.5486590" lon="-5.7225030">
        <ele>911.9</ele>
        <time>2020-04-09T17:38:32Z</time>
      </trkpt>
      <trkpt lat="42.5485110" lon="-5.7226810">
        <ele>912.2</ele>
        <time>2020-04-09T17:38:34Z</time>
      </trkpt>
      <trkpt lat="42.5484330" lon="-5.7228030">
        <ele>912.4</ele>
        <time>2020-04-09T17:38:36Z</time>
      </trkpt>
      <trkpt lat="42.5483200" lon="-5.7229870">
        <ele>912.8</ele>
        <time>2020-04-09T17:38:38Z</time>
      </trkpt>
      <trkpt lat="42.5481940" lon="-5.7231970">
        <ele>913.3</ele>
        <time>2020-04-09T17:38:40Z</time>
      </trkpt>
      <trkpt lat="42.5481200" lon="-5.7233320">
        <ele>913.5</ele>
        <time>2020-04-09T17:38:42Z</time>
      </trkpt>
      <trkpt lat="42.5480460" lon="-5.7234690">
        <ele>913.7</ele>
        <time>2020-04-09T17:38:44Z</time>
      </trkpt>
      <trkpt lat="42.5479060" lon="-5.7237080">
        <ele>914.0</ele>
        <time>2020-04-09T17:38:46Z</time>
      </trkpt>
      <trkpt lat="42.5478280" lon="-5.7238320">
        <ele>914.1</ele>
        <time>2020-04-09T17:38:48Z</time>
      </trkpt>
      <trkpt lat="42.5476880" lon="-5.7240420">
        <ele>914.2</ele>
        <time>2020-04-09T17:38:50Z</time>
      </trkpt>
      <trkpt lat="42.5476080" lon="-5.7241560">
        <ele>914.1</ele>
        <time>2020-04-09T17:38:52Z</time>
      </trkpt>
      <trkpt lat="42.5475280" lon="-5.7242680">
        <ele>914.0</ele>
        <time>2020-04-09T17:38:54Z</time>
      </trkpt>
      <trkpt lat="42.5474500" lon="-5.7243790">
        <ele>913.9</ele>
        <time>2020-04-09T17:38:56Z</time>
      </trkpt>
      <trkpt lat="42.5472550" lon="-5.7246520">
        <ele>913.7</ele>
        <time>2020-04-09T17:38:58Z</time>
      </trkpt>
      <trkpt lat="42.5471440" lon="-5.7248030">
        <ele>913.7</ele>
        <time>2020-04-09T17:39:00Z</time>
      </trkpt>
      <trkpt lat="42.5470650" lon="-5.7249110">
        <ele>913.7</ele>
        <time>2020-04-09T17:39:02Z</time>
      </trkpt>
      <trkpt lat="42.5469860" lon="-5.7250200">
        <ele>913.7</ele>
        <time>2020-04-09T17:39:04Z</time>
      </trkpt>
      <trkpt lat="42.5469050" lon="-5.7251310">
        <ele>913.7</ele>
        <time>2020-04-09T17:39:06Z</time>
      </trkpt>
      <trkpt lat="42.5468240" lon="-5.7252420">
        <ele>913.7</ele>
        <time>2020-04-09T17:39:08Z</time>
      </trkpt>
      <trkpt lat="42.5465900" lon="-5.7255610">
        <ele>913.6</ele>
        <time>2020-04-09T17:39:10Z</time>
      </trkpt>
      <trkpt lat="42.5464820" lon="-5.7257110">
        <ele>913.6</ele>
        <time>2020-04-09T17:39:12Z</time>
      </trkpt>
      <trkpt lat="42.5463690" lon="-5.7258670">
        <ele>913.4</ele>
        <time>2020-04-09T17:39:14Z</time>
      </trkpt>
      <trkpt lat="42.5462860" lon="-5.7259810">
        <ele>913.3</ele>
        <time>2020-04-09T17:39:16Z</time>
      </trkpt>
      <trkpt lat="42.5462020" lon="-5.7260970">
        <ele>913.1</ele>
        <time>2020-04-09T17:39:18Z</time>
      </trkpt>
      <trkpt lat="42.5460230" lon="-5.7263430">
        <ele>912.6</ele>
        <time>2020-04-09T17:39:20Z</time>
      </trkpt>
      <trkpt lat="42.5459390" lon="-5.7264600">
        <ele>912.8</ele>
        <time>2020-04-09T17:39:22Z</time>
      </trkpt>
      <trkpt lat="42.5458540" lon="-5.7265770">
        <ele>912.9</ele>
        <time>2020-04-09T17:39:24Z</time>
      </trkpt>
      <trkpt lat="42.5457690" lon="-5.7266940">
        <ele>912.8</ele>
        <time>2020-04-09T17:39:26Z</time>
      </trkpt>
      <trkpt lat="42.5456850" lon="-5.7268110">
        <ele>912.6</ele>
        <time>2020-04-09T17:39:28Z</time>
      </trkpt>
      <trkpt lat="42.5454500" lon="-5.7271350">
        <ele>912.0</ele>
        <time>2020-04-09T17:39:30Z</time>
      </trkpt>
      <trkpt lat="42.5453630" lon="-5.7272510">
        <ele>911.9</ele>
        <time>2020-04-09T17:39:32Z</time>
      </trkpt>
      <trkpt lat="42.5452760" lon="-5.7273670">
        <ele>911.7</ele>
        <time>2020-04-09T17:39:34Z</time>
      </trkpt>
      <trkpt lat="42.5450950" lon="-5.7276080">
        <ele>911.3</ele>
        <time>2020-04-09T17:39:36Z</time>
      </trkpt>
      <trkpt lat="42.5450090" lon="-5.7277250">
        <ele>911.2</ele>
        <time>2020-04-09T17:39:38Z</time>
      </trkpt>
      <trkpt lat="42.5448830" lon="-5.7278970">
        <ele>911.0</ele>
        <time>2020-04-09T17:39:40Z</time>
      </trkpt>
      <trkpt lat="42.5447970" lon="-5.7280140">
        <ele>910.9</ele>
        <time>2020-04-09T17:39:42Z</time>
      </trkpt>
      <trkpt lat="42.5447110" lon="-5.7281310">
        <ele>910.9</ele>
        <time>2020-04-09T17:39:44Z</time>
      </trkpt>
      <trkpt lat="42.5446240" lon="-5.7282490">
        <ele>910.9</ele>
        <time>2020-04-09T17:39:46Z</time>
      </trkpt>
      <trkpt lat="42.5444060" lon="-5.7285470">
        <ele>910.8</ele>
        <time>2020-04-09T17:39:48Z</time>
      </trkpt>
      <trkpt lat="42.5443210" lon="-5.7286650">
        <ele>910.8</ele>
        <time>2020-04-09T17:39:50Z</time>
      </trkpt>
      <trkpt lat="42.5442370" lon="-5.7287820">
        <ele>910.8</ele>
        <time>2020-04-09T17:39:52Z</time>
      </trkpt>
      <trkpt lat="42.5441550" lon="-5.7288970">
        <ele>910.7</ele>
        <time>2020-04-09T17:39:54Z</time>
      </trkpt>
      <trkpt lat="42.5439410" lon="-5.7291950">
        <ele>910.7</ele>
        <time>2020-04-09T17:39:56Z</time>
      </trkpt>
      <trkpt lat="42.5438600" lon="-5.7293060">
        <ele>910.6</ele>
        <time>2020-04-09T17:39:58Z</time>
      </trkpt>
      <trkpt lat="42.5437360" lon="-5.7294780">
        <ele>910.4</ele>
        <time>2020-04-09T17:40:00Z</time>
      </trkpt>
      <trkpt lat="42.5436530" lon="-5.7295930">
        <ele>910.3</ele>
        <time>2020-04-09T17:40:02Z</time>
      </trkpt>
      <trkpt lat="42.5435690" lon="-5.7297090">
        <ele>910.1</ele>
        <time>2020-04-09T17:40:04Z</time>
      </trkpt>
      <trkpt lat="42.5433930" lon="-5.7299510">
        <ele>909.7</ele>
        <time>2020-04-09T17:40:06Z</time>
      </trkpt>
      <trkpt lat="42.5433070" lon="-5.7300690">
        <ele>909.7</ele>
        <time>2020-04-09T17:40:08Z</time>
      </trkpt>
      <trkpt lat="42.5432220" lon="-5.7301880">
        <ele>909.6</ele>
        <time>2020-04-09T17:40:10Z</time>
      </trkpt>
      <trkpt lat="42.5431350" lon="-5.7303070">
        <ele>909.5</ele>
        <time>2020-04-09T17:40:12Z</time>
      </trkpt>
      <trkpt lat="42.5429150" lon="-5.7306110">
        <ele>909.5</ele>
        <time>2020-04-09T17:40:14Z</time>
      </trkpt>
      <trkpt lat="42.5428270" lon="-5.7307340">
        <ele>909.4</ele>
        <time>2020-04-09T17:40:16Z</time>
      </trkpt>
      <trkpt lat="42.5427360" lon="-5.7308580">
        <ele>909.4</ele>
        <time>2020-04-09T17:40:18Z</time>
      </trkpt>
      <trkpt lat="42.5426450" lon="-5.7309850">
        <ele>909.3</ele>
        <time>2020-04-09T17:40:20Z</time>
      </trkpt>
      <trkpt lat="42.5424200" lon="-5.7312950">
        <ele>908.8</ele>
        <time>2020-04-09T17:40:22Z</time>
      </trkpt>
      <trkpt lat="42.5423290" lon="-5.7314260">
        <ele>908.6</ele>
        <time>2020-04-09T17:40:24Z</time>
      </trkpt>
      <trkpt lat="42.5421980" lon="-5.7316220">
        <ele>908.4</ele>
        <time>2020-04-09T17:40:26Z</time>
      </trkpt>
      <trkpt lat="42.5421070" lon="-5.7317600">
        <ele>908.2</ele>
        <time>2020-04-09T17:40:28Z</time>
      </trkpt>
      <trkpt lat="42.5420170" lon="-5.7318970">
        <ele>907.9</ele>
        <time>2020-04-09T17:40:30Z</time>
      </trkpt>
      <trkpt lat="42.5418250" lon="-5.7321910">
        <ele>907.4</ele>
        <time>2020-04-09T17:40:32Z</time>
      </trkpt>
      <trkpt lat="42.5416740" lon="-5.7324180">
        <ele>906.8</ele>
        <time>2020-04-09T17:40:34Z</time>
      </trkpt>
      <trkpt lat="42.5415650" lon="-5.7325700">
        <ele>906.4</ele>
        <time>2020-04-09T17:40:36Z</time>
      </trkpt>
      <trkpt lat="42.5413590" lon="-5.7328540">
        <ele>905.3</ele>
        <time>2020-04-09T17:40:38Z</time>
      </trkpt>
      <trkpt lat="42.5412320" lon="-5.7330010">
        <ele>904.5</ele>
        <time>2020-04-09T17:40:40Z</time>
      </trkpt>
      <trkpt lat="42.5410440" lon="-5.7332430">
        <ele>902.7</ele>
        <time>2020-04-09T17:40:42Z</time>
      </trkpt>
      <trkpt lat="42.5409150" lon="-5.7333840">
        <ele>901.9</ele>
        <time>2020-04-09T17:40:44Z</time>
      </trkpt>
      <trkpt lat="42.5407910" lon="-5.7335190">
        <ele>901.7</ele>
        <time>2020-04-09T17:40:46Z</time>
      </trkpt>
      <trkpt lat="42.5405540" lon="-5.7337790">
        <ele>901.2</ele>
        <time>2020-04-09T17:40:48Z</time>
      </trkpt>
      <trkpt lat="42.5404400" lon="-5.7339030">
        <ele>900.8</ele>
        <time>2020-04-09T17:40:50Z</time>
      </trkpt>
      <trkpt lat="42.5402110" lon="-5.7341550">
        <ele>900.3</ele>
        <time>2020-04-09T17:40:52Z</time>
      </trkpt>
      <trkpt lat="42.5401100" lon="-5.7342840">
        <ele>900.6</ele>
        <time>2020-04-09T17:40:54Z</time>
      </trkpt>
      <trkpt lat="42.5399720" lon="-5.7344780">
        <ele>900.9</ele>
        <time>2020-04-09T17:40:56Z</time>
      </trkpt>
      <trkpt lat="42.5398840" lon="-5.7346110">
        <ele>901.0</ele>
        <time>2020-04-09T17:40:58Z</time>
      </trkpt>
      <trkpt lat="42.5397980" lon="-5.7347420">
        <ele>901.1</ele>
        <time>2020-04-09T17:41:00Z</time>
      </trkpt>
      <trkpt lat="42.5396250" lon="-5.7350370">
        <ele>901.8</ele>
        <time>2020-04-09T17:41:02Z</time>
      </trkpt>
      <trkpt lat="42.5395670" lon="-5.7351860">
        <ele>902.0</ele>
        <time>2020-04-09T17:41:04Z</time>
      </trkpt>
      <trkpt lat="42.5395110" lon="-5.7353320">
        <ele>902.1</ele>
        <time>2020-04-09T17:41:06Z</time>
      </trkpt>
      <trkpt lat="42.5394550" lon="-5.7354770">
        <ele>902.2</ele>
        <time>2020-04-09T17:41:08Z</time>
      </trkpt>
      <trkpt lat="42.5393100" lon="-5.7357950">
        <ele>902.5</ele>
        <time>2020-04-09T17:41:10Z</time>
      </trkpt>
      <trkpt lat="42.5392380" lon="-5.7359250">
        <ele>902.7</ele>
        <time>2020-04-09T17:41:12Z</time>
      </trkpt>
      <trkpt lat="42.5391660" lon="-5.7360540">
        <ele>902.8</ele>
        <time>2020-04-09T17:41:14Z</time>
      </trkpt>
      <trkpt lat="42.5390940" lon="-5.7361840">
        <ele>903.0</ele>
        <time>2020-04-09T17:41:16Z</time>
      </trkpt>
      <trkpt lat="42.5389050" lon="-5.7365250">
        <ele>903.1</ele>
        <time>2020-04-09T17:41:18Z</time>
      </trkpt>
      <trkpt lat="42.5388090" lon="-5.7366790">
        <ele>902.9</ele>
        <time>2020-04-09T17:41:20Z</time>
      </trkpt>
      <trkpt lat="42.5386790" lon="-5.7368670">
        <ele>902.4</ele>
        <time>2020-04-09T17:41:22Z</time>
      </trkpt>
      <trkpt lat="42.5385820" lon="-5.7369630">
        <ele>901.9</ele>
        <time>2020-04-09T17:41:24Z</time>
      </trkpt>
      <trkpt lat="42.5384410" lon="-5.7371090">
        <ele>901.8</ele>
        <time>2020-04-09T17:41:26Z</time>
      </trkpt>
      <trkpt lat="42.5383460" lon="-5.7372120">
        <ele>901.8</ele>
        <time>2020-04-09T17:41:28Z</time>
      </trkpt>
      <trkpt lat="42.5381820" lon="-5.7374030">
        <ele>901.7</ele>
        <time>2020-04-09T17:41:30Z</time>
      </trkpt>
      <trkpt lat="42.5380580" lon="-5.7375760">
        <ele>901.5</ele>
        <time>2020-04-09T17:41:32Z</time>
      </trkpt>
      <trkpt lat="42.5379740" lon="-5.7376990">
        <ele>901.4</ele>
        <time>2020-04-09T17:41:34Z</time>
      </trkpt>
      <trkpt lat="42.5378890" lon="-5.7378230">
        <ele>901.2</ele>
        <time>2020-04-09T17:41:36Z</time>
      </trkpt>
      <trkpt lat="42.5378030" lon="-5.7379480">
        <ele>901.1</ele>
        <time>2020-04-09T17:41:38Z</time>
      </trkpt>
      <trkpt lat="42.5376020" lon="-5.7382430">
        <ele>901.0</ele>
        <time>2020-04-09T17:41:40Z</time>
      </trkpt>
      <trkpt lat="42.5375180" lon="-5.7383660">
        <ele>900.9</ele>
        <time>2020-04-09T17:41:42Z</time>
      </trkpt>
      <trkpt lat="42.5374350" lon="-5.7384870">
        <ele>900.9</ele>
        <time>2020-04-09T17:41:44Z</time>
      </trkpt>
      <trkpt lat="42.5373540" lon="-5.7386070">
        <ele>900.7</ele>
        <time>2020-04-09T17:41:46Z</time>
      </trkpt>
      <trkpt lat="42.5372740" lon="-5.7387240">
        <ele>900.6</ele>
        <time>2020-04-09T17:41:48Z</time>
      </trkpt>
      <trkpt lat="42.5370410" lon="-5.7390630">
        <ele>900.7</ele>
        <time>2020-04-09T17:41:50Z</time>
      </trkpt>
      <trkpt lat="42.5369610" lon="-5.7391760">
        <ele>900.8</ele>
        <time>2020-04-09T17:41:52Z</time>
      </trkpt>
      <trkpt lat="42.5368820" lon="-5.7392880">
        <ele>900.9</ele>
        <time>2020-04-09T17:41:54Z</time>
      </trkpt>
      <trkpt lat="42.5368030" lon="-5.7393990">
        <ele>900.9</ele>
        <time>2020-04-09T17:41:56Z</time>
      </trkpt>
      <trkpt lat="42.5366160" lon="-5.7396650">
        <ele>900.9</ele>
        <time>2020-04-09T17:41:58Z</time>
      </trkpt>
      <trkpt lat="42.5365370" lon="-5.7397760">
        <ele>900.9</ele>
        <time>2020-04-09T17:42:00Z</time>
      </trkpt>
      <trkpt lat="42.5364590" lon="-5.7398870">
        <ele>900.8</ele>
        <time>2020-04-09T17:42:02Z</time>
      </trkpt>
      <trkpt lat="42.5363070" lon="-5.7400990">
        <ele>900.5</ele>
        <time>2020-04-09T17:42:04Z</time>
      </trkpt>
      <trkpt lat="42.5361920" lon="-5.7402540">
        <ele>900.5</ele>
        <time>2020-04-09T17:42:06Z</time>
      </trkpt>
      <trkpt lat="42.5361130" lon="-5.7403600">
        <ele>900.6</ele>
        <time>2020-04-09T17:42:08Z</time>
      </trkpt>
      <trkpt lat="42.5359850" lon="-5.7405370">
        <ele>900.7</ele>
        <time>2020-04-09T17:42:10Z</time>
      </trkpt>
      <trkpt lat="42.5359110" lon="-5.7406460">
        <ele>900.8</ele>
        <time>2020-04-09T17:42:12Z</time>
      </trkpt>
      <trkpt lat="42.5357800" lon="-5.7408410">
        <ele>900.9</ele>
        <time>2020-04-09T17:42:14Z</time>
      </trkpt>
      <trkpt lat="42.5357080" lon="-5.7409590">
        <ele>900.9</ele>
        <time>2020-04-09T17:42:16Z</time>
      </trkpt>
      <trkpt lat="42.5356350" lon="-5.7410790">
        <ele>900.8</ele>
        <time>2020-04-09T17:42:18Z</time>
      </trkpt>
      <trkpt lat="42.5354790" lon="-5.7413340">
        <ele>900.5</ele>
        <time>2020-04-09T17:42:20Z</time>
      </trkpt>
      <trkpt lat="42.5354050" lon="-5.7414560">
        <ele>900.5</ele>
        <time>2020-04-09T17:42:22Z</time>
      </trkpt>
      <trkpt lat="42.5353300" lon="-5.7415800">
        <ele>900.4</ele>
        <time>2020-04-09T17:42:24Z</time>
      </trkpt>
      <trkpt lat="42.5351700" lon="-5.7418360">
        <ele>900.1</ele>
        <time>2020-04-09T17:42:26Z</time>
      </trkpt>
      <trkpt lat="42.5350860" lon="-5.7419520">
        <ele>900.0</ele>
        <time>2020-04-09T17:42:28Z</time>
      </trkpt>
      <trkpt lat="42.5350020" lon="-5.7420690">
        <ele>900.0</ele>
        <time>2020-04-09T17:42:31Z</time>
      </trkpt>
      <trkpt lat="42.5349180" lon="-5.7421860">
        <ele>900.0</ele>
        <time>2020-04-09T17:42:33Z</time>
      </trkpt>
      <trkpt lat="42.5348340" lon="-5.7423030">
        <ele>900.0</ele>
        <time>2020-04-09T17:42:35Z</time>
      </trkpt>
      <trkpt lat="42.5346180" lon="-5.7426040">
        <ele>900.0</ele>
        <time>2020-04-09T17:42:37Z</time>
      </trkpt>
      <trkpt lat="42.5345340" lon="-5.7427210">
        <ele>899.8</ele>
        <time>2020-04-09T17:42:39Z</time>
      </trkpt>
      <trkpt lat="42.5344500" lon="-5.7428390">
        <ele>899.6</ele>
        <time>2020-04-09T17:42:41Z</time>
      </trkpt>
      <trkpt lat="42.5343650" lon="-5.7429570">
        <ele>899.4</ele>
        <time>2020-04-09T17:42:43Z</time>
      </trkpt>
      <trkpt lat="42.5341470" lon="-5.7432590">
        <ele>899.4</ele>
        <time>2020-04-09T17:42:45Z</time>
      </trkpt>
      <trkpt lat="42.5340630" lon="-5.7433770">
        <ele>899.5</ele>
        <time>2020-04-09T17:42:47Z</time>
      </trkpt>
      <trkpt lat="42.5339790" lon="-5.7434930">
        <ele>899.5</ele>
        <time>2020-04-09T17:42:49Z</time>
      </trkpt>
      <trkpt lat="42.5338950" lon="-5.7436100">
        <ele>899.5</ele>
        <time>2020-04-09T17:42:51Z</time>
      </trkpt>
      <trkpt lat="42.5338110" lon="-5.7437270">
        <ele>899.7</ele>
        <time>2020-04-09T17:42:53Z</time>
      </trkpt>
      <trkpt lat="42.5335450" lon="-5.7440310">
        <ele>899.8</ele>
        <time>2020-04-09T17:42:55Z</time>
      </trkpt>
      <trkpt lat="42.5334590" lon="-5.7441470">
        <ele>899.8</ele>
        <time>2020-04-09T17:42:57Z</time>
      </trkpt>
      <trkpt lat="42.5333740" lon="-5.7442610">
        <ele>899.8</ele>
        <time>2020-04-09T17:42:59Z</time>
      </trkpt>
      <trkpt lat="42.5332900" lon="-5.7443740">
        <ele>899.9</ele>
        <time>2020-04-09T17:43:01Z</time>
      </trkpt>
      <trkpt lat="42.5331160" lon="-5.7446080">
        <ele>900.2</ele>
        <time>2020-04-09T17:43:03Z</time>
      </trkpt>
      <trkpt lat="42.5330340" lon="-5.7447180">
        <ele>900.4</ele>
        <time>2020-04-09T17:43:05Z</time>
      </trkpt>
      <trkpt lat="42.5329530" lon="-5.7448280">
        <ele>900.5</ele>
        <time>2020-04-09T17:43:07Z</time>
      </trkpt>
      <trkpt lat="42.5327760" lon="-5.7450540">
        <ele>900.3</ele>
        <time>2020-04-09T17:43:09Z</time>
      </trkpt>
      <trkpt lat="42.5326910" lon="-5.7451570">
        <ele>900.1</ele>
        <time>2020-04-09T17:43:11Z</time>
      </trkpt>
      <trkpt lat="42.5325440" lon="-5.7453370">
        <ele>900.1</ele>
        <time>2020-04-09T17:43:13Z</time>
      </trkpt>
      <trkpt lat="42.5324600" lon="-5.7454390">
        <ele>900.1</ele>
        <time>2020-04-09T17:43:15Z</time>
      </trkpt>
      <trkpt lat="42.5323010" lon="-5.7456320">
        <ele>900.0</ele>
        <time>2020-04-09T17:43:17Z</time>
      </trkpt>
      <trkpt lat="42.5322180" lon="-5.7457350">
        <ele>900.0</ele>
        <time>2020-04-09T17:43:19Z</time>
      </trkpt>
      <trkpt lat="42.5321340" lon="-5.7458390">
        <ele>900.0</ele>
        <time>2020-04-09T17:43:21Z</time>
      </trkpt>
      <trkpt lat="42.5320500" lon="-5.7459420">
        <ele>900.0</ele>
        <time>2020-04-09T17:43:23Z</time>
      </trkpt>
      <trkpt lat="42.5319660" lon="-5.7460440">
        <ele>900.0</ele>
        <time>2020-04-09T17:43:25Z</time>
      </trkpt>
      <trkpt lat="42.5317490" lon="-5.7463170">
        <ele>900.0</ele>
        <time>2020-04-09T17:43:27Z</time>
      </trkpt>
      <trkpt lat="42.5316660" lon="-5.7464250">
        <ele>900.0</ele>
        <time>2020-04-09T17:43:29Z</time>
      </trkpt>
      <trkpt lat="42.5315820" lon="-5.7465350">
        <ele>900.0</ele>
        <time>2020-04-09T17:43:31Z</time>
      </trkpt>
      <trkpt lat="42.5313870" lon="-5.7467900">
        <ele>900.0</ele>
        <time>2020-04-09T17:43:33Z</time>
      </trkpt>
      <trkpt lat="42.5313060" lon="-5.7469130">
        <ele>900.0</ele>
        <time>2020-04-09T17:43:35Z</time>
      </trkpt>
      <trkpt lat="42.5312260" lon="-5.7470330">
        <ele>900.0</ele>
        <time>2020-04-09T17:43:37Z</time>
      </trkpt>
      <trkpt lat="42.5311450" lon="-5.7471550">
        <ele>900.0</ele>
        <time>2020-04-09T17:43:39Z</time>
      </trkpt>
      <trkpt lat="42.5310640" lon="-5.7472780">
        <ele>900.0</ele>
        <time>2020-04-09T17:43:41Z</time>
      </trkpt>
      <trkpt lat="42.5308650" lon="-5.7475810">
        <ele>899.9</ele>
        <time>2020-04-09T17:43:43Z</time>
      </trkpt>
      <trkpt lat="42.5307840" lon="-5.7477030">
        <ele>899.9</ele>
        <time>2020-04-09T17:43:45Z</time>
      </trkpt>
      <trkpt lat="42.5307050" lon="-5.7478230">
        <ele>899.9</ele>
        <time>2020-04-09T17:43:47Z</time>
      </trkpt>
      <trkpt lat="42.5306250" lon="-5.7479430">
        <ele>899.9</ele>
        <time>2020-04-09T17:43:49Z</time>
      </trkpt>
      <trkpt lat="42.5304270" lon="-5.7482430">
        <ele>899.9</ele>
        <time>2020-04-09T17:43:51Z</time>
      </trkpt>
      <trkpt lat="42.5303500" lon="-5.7483610">
        <ele>899.9</ele>
        <time>2020-04-09T17:43:53Z</time>
      </trkpt>
      <trkpt lat="42.5302710" lon="-5.7484800">
        <ele>899.9</ele>
        <time>2020-04-09T17:43:55Z</time>
      </trkpt>
      <trkpt lat="42.5301930" lon="-5.7485980">
        <ele>899.9</ele>
        <time>2020-04-09T17:43:57Z</time>
      </trkpt>
      <trkpt lat="42.5299960" lon="-5.7488960">
        <ele>899.9</ele>
        <time>2020-04-09T17:43:59Z</time>
      </trkpt>
      <trkpt lat="42.5299180" lon="-5.7490150">
        <ele>899.9</ele>
        <time>2020-04-09T17:44:01Z</time>
      </trkpt>
      <trkpt lat="42.5298380" lon="-5.7491360">
        <ele>899.9</ele>
        <time>2020-04-09T17:44:03Z</time>
      </trkpt>
      <trkpt lat="42.5297570" lon="-5.7492590">
        <ele>899.9</ele>
        <time>2020-04-09T17:44:05Z</time>
      </trkpt>
      <trkpt lat="42.5295530" lon="-5.7495620">
        <ele>899.8</ele>
        <time>2020-04-09T17:44:07Z</time>
      </trkpt>
      <trkpt lat="42.5294630" lon="-5.7496790">
        <ele>899.8</ele>
        <time>2020-04-09T17:44:09Z</time>
      </trkpt>
      <trkpt lat="42.5293710" lon="-5.7497980">
        <ele>899.8</ele>
        <time>2020-04-09T17:44:11Z</time>
      </trkpt>
      <trkpt lat="42.5292780" lon="-5.7499180">
        <ele>899.8</ele>
        <time>2020-04-09T17:44:13Z</time>
      </trkpt>
      <trkpt lat="42.5291840" lon="-5.7500390">
        <ele>899.8</ele>
        <time>2020-04-09T17:44:15Z</time>
      </trkpt>
      <trkpt lat="42.5289490" lon="-5.7503430">
        <ele>899.5</ele>
        <time>2020-04-09T17:44:17Z</time>
      </trkpt>
      <trkpt lat="42.5288570" lon="-5.7504620">
        <ele>899.3</ele>
        <time>2020-04-09T17:44:19Z</time>
      </trkpt>
      <trkpt lat="42.5287660" lon="-5.7505800">
        <ele>899.1</ele>
        <time>2020-04-09T17:44:21Z</time>
      </trkpt>
      <trkpt lat="42.5286760" lon="-5.7506960">
        <ele>898.9</ele>
        <time>2020-04-09T17:44:23Z</time>
      </trkpt>
      <trkpt lat="42.5284360" lon="-5.7509810">
        <ele>898.8</ele>
        <time>2020-04-09T17:44:25Z</time>
      </trkpt>
      <trkpt lat="42.5283330" lon="-5.7510710">
        <ele>898.8</ele>
        <time>2020-04-09T17:44:27Z</time>
      </trkpt>
      <trkpt lat="42.5281940" lon="-5.7512530">
        <ele>898.8</ele>
        <time>2020-04-09T17:44:29Z</time>
      </trkpt>
      <trkpt lat="42.5281220" lon="-5.7513860">
        <ele>898.8</ele>
        <time>2020-04-09T17:44:31Z</time>
      </trkpt>
      <trkpt lat="42.5280510" lon="-5.7515170">
        <ele>898.9</ele>
        <time>2020-04-09T17:44:33Z</time>
      </trkpt>
      <trkpt lat="42.5279050" lon="-5.7517870">
        <ele>899.1</ele>
        <time>2020-04-09T17:44:35Z</time>
      </trkpt>
      <trkpt lat="42.5278340" lon="-5.7519180">
        <ele>899.2</ele>
        <time>2020-04-09T17:44:37Z</time>
      </trkpt>
      <trkpt lat="42.5276900" lon="-5.7521830">
        <ele>899.1</ele>
        <time>2020-04-09T17:44:39Z</time>
      </trkpt>
      <trkpt lat="42.5276060" lon="-5.7522970">
        <ele>899.0</ele>
        <time>2020-04-09T17:44:41Z</time>
      </trkpt>
      <trkpt lat="42.5275220" lon="-5.7524110">
        <ele>898.9</ele>
        <time>2020-04-09T17:44:43Z</time>
      </trkpt>
      <trkpt lat="42.5274390" lon="-5.7525240">
        <ele>898.8</ele>
        <time>2020-04-09T17:44:45Z</time>
      </trkpt>
      <trkpt lat="42.5272440" lon="-5.7527890">
        <ele>898.7</ele>
        <time>2020-04-09T17:44:47Z</time>
      </trkpt>
      <trkpt lat="42.5271610" lon="-5.7529020">
        <ele>898.7</ele>
        <time>2020-04-09T17:44:49Z</time>
      </trkpt>
      <trkpt lat="42.5270780" lon="-5.7530160">
        <ele>898.7</ele>
        <time>2020-04-09T17:44:51Z</time>
      </trkpt>
      <trkpt lat="42.5269940" lon="-5.7531310">
        <ele>898.7</ele>
        <time>2020-04-09T17:44:53Z</time>
      </trkpt>
      <trkpt lat="42.5267950" lon="-5.7533860">
        <ele>898.6</ele>
        <time>2020-04-09T17:44:55Z</time>
      </trkpt>
      <trkpt lat="42.5267030" lon="-5.7534880">
        <ele>898.6</ele>
        <time>2020-04-09T17:44:57Z</time>
      </trkpt>
      <trkpt lat="42.5265550" lon="-5.7536780">
        <ele>898.5</ele>
        <time>2020-04-09T17:44:59Z</time>
      </trkpt>
      <trkpt lat="42.5264790" lon="-5.7538010">
        <ele>898.5</ele>
        <time>2020-04-09T17:45:01Z</time>
      </trkpt>
      <trkpt lat="42.5264030" lon="-5.7539240">
        <ele>898.4</ele>
        <time>2020-04-09T17:45:03Z</time>
      </trkpt>
      <trkpt lat="42.5263290" lon="-5.7540440">
        <ele>898.4</ele>
        <time>2020-04-09T17:45:05Z</time>
      </trkpt>
      <trkpt lat="42.5261350" lon="-5.7543490">
        <ele>898.5</ele>
        <time>2020-04-09T17:45:07Z</time>
      </trkpt>
      <trkpt lat="42.5260550" lon="-5.7544620">
        <ele>898.6</ele>
        <time>2020-04-09T17:45:09Z</time>
      </trkpt>
      <trkpt lat="42.5259770" lon="-5.7545720">
        <ele>898.7</ele>
        <time>2020-04-09T17:45:11Z</time>
      </trkpt>
      <trkpt lat="42.5258990" lon="-5.7546840">
        <ele>898.7</ele>
        <time>2020-04-09T17:45:13Z</time>
      </trkpt>
      <trkpt lat="42.5258200" lon="-5.7547950">
        <ele>898.7</ele>
        <time>2020-04-09T17:45:15Z</time>
      </trkpt>
      <trkpt lat="42.5257420" lon="-5.7549050">
        <ele>898.7</ele>
        <time>2020-04-09T17:45:17Z</time>
      </trkpt>
      <trkpt lat="42.5255110" lon="-5.7552330">
        <ele>898.8</ele>
        <time>2020-04-09T17:45:19Z</time>
      </trkpt>
      <trkpt lat="42.5254310" lon="-5.7553470">
        <ele>898.8</ele>
        <time>2020-04-09T17:45:21Z</time>
      </trkpt>
      <trkpt lat="42.5253500" lon="-5.7554630">
        <ele>898.7</ele>
        <time>2020-04-09T17:45:23Z</time>
      </trkpt>
      <trkpt lat="42.5252670" lon="-5.7555800">
        <ele>898.7</ele>
        <time>2020-04-09T17:45:25Z</time>
      </trkpt>
      <trkpt lat="42.5251840" lon="-5.7556990">
        <ele>898.7</ele>
        <time>2020-04-09T17:45:27Z</time>
      </trkpt>
      <trkpt lat="42.5249350" lon="-5.7560170">
        <ele>898.5</ele>
        <time>2020-04-09T17:45:29Z</time>
      </trkpt>
      <trkpt lat="42.5248060" lon="-5.7561570">
        <ele>898.3</ele>
        <time>2020-04-09T17:45:31Z</time>
      </trkpt>
      <trkpt lat="42.5246950" lon="-5.7563100">
        <ele>898.2</ele>
        <time>2020-04-09T17:45:33Z</time>
      </trkpt>
      <trkpt lat="42.5245840" lon="-5.7564790">
        <ele>898.1</ele>
        <time>2020-04-09T17:45:35Z</time>
      </trkpt>
      <trkpt lat="42.5245060" lon="-5.7566030">
        <ele>898.1</ele>
        <time>2020-04-09T17:45:37Z</time>
      </trkpt>
      <trkpt lat="42.5244290" lon="-5.7567250">
        <ele>898.0</ele>
        <time>2020-04-09T17:45:39Z</time>
      </trkpt>
      <trkpt lat="42.5243510" lon="-5.7568480">
        <ele>898.0</ele>
        <time>2020-04-09T17:45:41Z</time>
      </trkpt>
      <trkpt lat="42.5241490" lon="-5.7571690">
        <ele>897.9</ele>
        <time>2020-04-09T17:45:43Z</time>
      </trkpt>
      <trkpt lat="42.5240690" lon="-5.7572960">
        <ele>897.9</ele>
        <time>2020-04-09T17:45:45Z</time>
      </trkpt>
      <trkpt lat="42.5239880" lon="-5.7574250">
        <ele>897.9</ele>
        <time>2020-04-09T17:45:47Z</time>
      </trkpt>
      <trkpt lat="42.5239050" lon="-5.7575570">
        <ele>897.8</ele>
        <time>2020-04-09T17:45:49Z</time>
      </trkpt>
      <trkpt lat="42.5236940" lon="-5.7578850">
        <ele>897.9</ele>
        <time>2020-04-09T17:45:51Z</time>
      </trkpt>
      <trkpt lat="42.5235660" lon="-5.7580560">
        <ele>898.0</ele>
        <time>2020-04-09T17:45:53Z</time>
      </trkpt>
      <trkpt lat="42.5234740" lon="-5.7581870">
        <ele>897.7</ele>
        <time>2020-04-09T17:45:55Z</time>
      </trkpt>
      <trkpt lat="42.5233130" lon="-5.7584170">
        <ele>897.3</ele>
        <time>2020-04-09T17:45:57Z</time>
      </trkpt>
      <trkpt lat="42.5232220" lon="-5.7585470">
        <ele>897.2</ele>
        <time>2020-04-09T17:45:59Z</time>
      </trkpt>
      <trkpt lat="42.5231300" lon="-5.7586780">
        <ele>897.0</ele>
        <time>2020-04-09T17:46:01Z</time>
      </trkpt>
      <trkpt lat="42.5230390" lon="-5.7588070">
        <ele>896.9</ele>
        <time>2020-04-09T17:46:03Z</time>
      </trkpt>
      <trkpt lat="42.5228460" lon="-5.7590820">
        <ele>896.8</ele>
        <time>2020-04-09T17:46:05Z</time>
      </trkpt>
      <trkpt lat="42.5227530" lon="-5.7592140">
        <ele>896.8</ele>
        <time>2020-04-09T17:46:07Z</time>
      </trkpt>
      <trkpt lat="42.5226610" lon="-5.7593460">
        <ele>896.8</ele>
        <time>2020-04-09T17:46:09Z</time>
      </trkpt>
      <trkpt lat="42.5224440" lon="-5.7596550">
        <ele>896.9</ele>
        <time>2020-04-09T17:46:11Z</time>
      </trkpt>
      <trkpt lat="42.5223500" lon="-5.7597890">
        <ele>896.9</ele>
        <time>2020-04-09T17:46:13Z</time>
      </trkpt>
      <trkpt lat="42.5222570" lon="-5.7599220">
        <ele>896.9</ele>
        <time>2020-04-09T17:46:15Z</time>
      </trkpt>
      <trkpt lat="42.5221620" lon="-5.7600570">
        <ele>896.9</ele>
        <time>2020-04-09T17:46:17Z</time>
      </trkpt>
      <trkpt lat="42.5219410" lon="-5.7603730">
        <ele>896.9</ele>
        <time>2020-04-09T17:46:19Z</time>
      </trkpt>
      <trkpt lat="42.5218470" lon="-5.7605090">
        <ele>897.0</ele>
        <time>2020-04-09T17:46:21Z</time>
      </trkpt>
      <trkpt lat="42.5217510" lon="-5.7606460">
        <ele>897.0</ele>
        <time>2020-04-09T17:46:23Z</time>
      </trkpt>
      <trkpt lat="42.5215530" lon="-5.7609290">
        <ele>896.9</ele>
        <time>2020-04-09T17:46:25Z</time>
      </trkpt>
      <trkpt lat="42.5214370" lon="-5.7610940">
        <ele>896.6</ele>
        <time>2020-04-09T17:46:27Z</time>
      </trkpt>
      <trkpt lat="42.5213400" lon="-5.7612340">
        <ele>896.4</ele>
        <time>2020-04-09T17:46:29Z</time>
      </trkpt>
      <trkpt lat="42.5211710" lon="-5.7614850">
        <ele>896.1</ele>
        <time>2020-04-09T17:46:31Z</time>
      </trkpt>
      <trkpt lat="42.5210410" lon="-5.7617130">
        <ele>895.8</ele>
        <time>2020-04-09T17:46:33Z</time>
      </trkpt>
      <trkpt lat="42.5209670" lon="-5.7618850">
        <ele>895.5</ele>
        <time>2020-04-09T17:46:35Z</time>
      </trkpt>
      <trkpt lat="42.5208920" lon="-5.7620610">
        <ele>895.2</ele>
        <time>2020-04-09T17:46:37Z</time>
      </trkpt>
      <trkpt lat="42.5207290" lon="-5.7624460">
        <ele>894.7</ele>
        <time>2020-04-09T17:46:39Z</time>
      </trkpt>
      <trkpt lat="42.5206570" lon="-5.7626340">
        <ele>894.2</ele>
        <time>2020-04-09T17:46:41Z</time>
      </trkpt>
      <trkpt lat="42.5205850" lon="-5.7628250">
        <ele>893.6</ele>
        <time>2020-04-09T17:46:43Z</time>
      </trkpt>
      <trkpt lat="42.5204750" lon="-5.7631790">
        <ele>892.8</ele>
        <time>2020-04-09T17:46:45Z</time>
      </trkpt>
      <trkpt lat="42.5203920" lon="-5.7634340">
        <ele>892.2</ele>
        <time>2020-04-09T17:46:47Z</time>
      </trkpt>
      <trkpt lat="42.5202810" lon="-5.7636920">
        <ele>891.7</ele>
        <time>2020-04-09T17:46:49Z</time>
      </trkpt>
      <trkpt lat="42.5201550" lon="-5.7639480">
        <ele>891.1</ele>
        <time>2020-04-09T17:46:51Z</time>
      </trkpt>
      <trkpt lat="42.5200380" lon="-5.7641440">
        <ele>890.7</ele>
        <time>2020-04-09T17:46:53Z</time>
      </trkpt>
      <trkpt lat="42.5198860" lon="-5.7643230">
        <ele>891.0</ele>
        <time>2020-04-09T17:46:55Z</time>
      </trkpt>
      <trkpt lat="42.5197760" lon="-5.7644270">
        <ele>891.3</ele>
        <time>2020-04-09T17:46:57Z</time>
      </trkpt>
      <trkpt lat="42.5196710" lon="-5.7645250">
        <ele>891.5</ele>
        <time>2020-04-09T17:46:59Z</time>
      </trkpt>
      <trkpt lat="42.5194710" lon="-5.7647050">
        <ele>892.0</ele>
        <time>2020-04-09T17:47:01Z</time>
      </trkpt>
      <trkpt lat="42.5193360" lon="-5.7648170">
        <ele>892.4</ele>
        <time>2020-04-09T17:47:03Z</time>
      </trkpt>
      <trkpt lat="42.5192000" lon="-5.7649080">
        <ele>892.8</ele>
        <time>2020-04-09T17:47:05Z</time>
      </trkpt>
      <trkpt lat="42.5190950" lon="-5.7649600">
        <ele>893.2</ele>
        <time>2020-04-09T17:47:07Z</time>
      </trkpt>
      <trkpt lat="42.5189890" lon="-5.7650130">
        <ele>893.5</ele>
        <time>2020-04-09T17:47:09Z</time>
      </trkpt>
      <trkpt lat="42.5188680" lon="-5.7651950">
        <ele>894.4</ele>
        <time>2020-04-09T17:47:11Z</time>
      </trkpt>
      <trkpt lat="42.5187650" lon="-5.7652890">
        <ele>894.5</ele>
        <time>2020-04-09T17:47:13Z</time>
      </trkpt>
      <trkpt lat="42.5186570" lon="-5.7653320">
        <ele>894.4</ele>
        <time>2020-04-09T17:47:15Z</time>
      </trkpt>
      <trkpt lat="42.5184810" lon="-5.7654910">
        <ele>894.5</ele>
        <time>2020-04-09T17:47:17Z</time>
      </trkpt>
      <trkpt lat="42.5183920" lon="-5.7656380">
        <ele>895.3</ele>
        <time>2020-04-09T17:47:19Z</time>
      </trkpt>
      <trkpt lat="42.5183170" lon="-5.7657530">
        <ele>896.4</ele>
        <time>2020-04-09T17:47:21Z</time>
      </trkpt>
      <trkpt lat="42.5182440" lon="-5.7658650">
        <ele>897.2</ele>
        <time>2020-04-09T17:47:23Z</time>
      </trkpt>
      <trkpt lat="42.5181720" lon="-5.7659760">
        <ele>897.7</ele>
        <time>2020-04-09T17:47:25Z</time>
      </trkpt>
      <trkpt lat="42.5181000" lon="-5.7660860">
        <ele>898.1</ele>
        <time>2020-04-09T17:47:27Z</time>
      </trkpt>
      <trkpt lat="42.5178950" lon="-5.7663990">
        <ele>898.8</ele>
        <time>2020-04-09T17:47:29Z</time>
      </trkpt>
      <trkpt lat="42.5178250" lon="-5.7665060">
        <ele>899.1</ele>
        <time>2020-04-09T17:47:31Z</time>
      </trkpt>
      <trkpt lat="42.5177090" lon="-5.7666820">
        <ele>899.4</ele>
        <time>2020-04-09T17:47:33Z</time>
      </trkpt>
      <trkpt lat="42.5176380" lon="-5.7667870">
        <ele>899.4</ele>
        <time>2020-04-09T17:47:35Z</time>
      </trkpt>
      <trkpt lat="42.5175670" lon="-5.7668910">
        <ele>899.4</ele>
        <time>2020-04-09T17:47:37Z</time>
      </trkpt>
      <trkpt lat="42.5174070" lon="-5.7671240">
        <ele>899.0</ele>
        <time>2020-04-09T17:47:39Z</time>
      </trkpt>
      <trkpt lat="42.5173210" lon="-5.7672290">
        <ele>898.7</ele>
        <time>2020-04-09T17:47:41Z</time>
      </trkpt>
      <trkpt lat="42.5172240" lon="-5.7673480">
        <ele>898.3</ele>
        <time>2020-04-09T17:47:43Z</time>
      </trkpt>
      <trkpt lat="42.5170330" lon="-5.7675950">
        <ele>897.3</ele>
        <time>2020-04-09T17:47:45Z</time>
      </trkpt>
      <trkpt lat="42.5168640" lon="-5.7678130">
        <ele>895.8</ele>
        <time>2020-04-09T17:47:47Z</time>
      </trkpt>
      <trkpt lat="42.5167470" lon="-5.7679860">
        <ele>894.2</ele>
        <time>2020-04-09T17:47:49Z</time>
      </trkpt>
      <trkpt lat="42.5166230" lon="-5.7681690">
        <ele>892.3</ele>
        <time>2020-04-09T17:47:51Z</time>
      </trkpt>
      <trkpt lat="42.5164110" lon="-5.7685350">
        <ele>889.2</ele>
        <time>2020-04-09T17:47:53Z</time>
      </trkpt>
      <trkpt lat="42.5162770" lon="-5.7688650">
        <ele>886.6</ele>
        <time>2020-04-09T17:47:55Z</time>
      </trkpt>
      <trkpt lat="42.5161970" lon="-5.7692350">
        <ele>884.6</ele>
        <time>2020-04-09T17:47:57Z</time>
      </trkpt>
      <trkpt lat="42.5161790" lon="-5.7695990">
        <ele>883.6</ele>
        <time>2020-04-09T17:47:59Z</time>
      </trkpt>
      <trkpt lat="42.5161380" lon="-5.7698500">
        <ele>883.0</ele>
        <time>2020-04-09T17:48:01Z</time>
      </trkpt>
      <trkpt lat="42.5160990" lon="-5.7700870">
        <ele>882.7</ele>
        <time>2020-04-09T17:48:03Z</time>
      </trkpt>
      <trkpt lat="42.5159450" lon="-5.7705080">
        <ele>882.1</ele>
        <time>2020-04-09T17:48:05Z</time>
      </trkpt>
      <trkpt lat="42.5159040" lon="-5.7707950">
        <ele>881.0</ele>
        <time>2020-04-09T17:48:07Z</time>
      </trkpt>
      <trkpt lat="42.5157770" lon="-5.7710210">
        <ele>880.5</ele>
        <time>2020-04-09T17:48:09Z</time>
      </trkpt>
      <trkpt lat="42.5156810" lon="-5.7711790">
        <ele>880.4</ele>
        <time>2020-04-09T17:48:11Z</time>
      </trkpt>
      <trkpt lat="42.5155880" lon="-5.7713320">
        <ele>880.0</ele>
        <time>2020-04-09T17:48:13Z</time>
      </trkpt>
      <trkpt lat="42.5154030" lon="-5.7716380">
        <ele>878.5</ele>
        <time>2020-04-09T17:48:15Z</time>
      </trkpt>
      <trkpt lat="42.5153130" lon="-5.7717880">
        <ele>878.2</ele>
        <time>2020-04-09T17:48:17Z</time>
      </trkpt>
      <trkpt lat="42.5151680" lon="-5.7720320">
        <ele>878.2</ele>
        <time>2020-04-09T17:48:19Z</time>
      </trkpt>
      <trkpt lat="42.5150800" lon="-5.7721810">
        <ele>878.4</ele>
        <time>2020-04-09T17:48:21Z</time>
      </trkpt>
      <trkpt lat="42.5149350" lon="-5.7724290">
        <ele>878.5</ele>
        <time>2020-04-09T17:48:23Z</time>
      </trkpt>
      <trkpt lat="42.5148520" lon="-5.7725710">
        <ele>878.5</ele>
        <time>2020-04-09T17:48:25Z</time>
      </trkpt>
      <trkpt lat="42.5147700" lon="-5.7727110">
        <ele>878.5</ele>
        <time>2020-04-09T17:48:27Z</time>
      </trkpt>
      <trkpt lat="42.5145780" lon="-5.7730430">
        <ele>878.5</ele>
        <time>2020-04-09T17:48:29Z</time>
      </trkpt>
      <trkpt lat="42.5145050" lon="-5.7731880">
        <ele>878.5</ele>
        <time>2020-04-09T17:48:31Z</time>
      </trkpt>
      <trkpt lat="42.5144040" lon="-5.7733930">
        <ele>878.5</ele>
        <time>2020-04-09T17:48:33Z</time>
      </trkpt>
      <trkpt lat="42.5143340" lon="-5.7735370">
        <ele>878.5</ele>
        <time>2020-04-09T17:48:35Z</time>
      </trkpt>
      <trkpt lat="42.5142640" lon="-5.7736810">
        <ele>878.5</ele>
        <time>2020-04-09T17:48:37Z</time>
      </trkpt>
      <trkpt lat="42.5140750" lon="-5.7739830">
        <ele>878.4</ele>
        <time>2020-04-09T17:48:39Z</time>
      </trkpt>
      <trkpt lat="42.5139180" lon="-5.7739870">
        <ele>878.2</ele>
        <time>2020-04-09T17:48:41Z</time>
      </trkpt>
      <trkpt lat="42.5138100" lon="-5.7739090">
        <ele>878.0</ele>
        <time>2020-04-09T17:48:43Z</time>
      </trkpt>
      <trkpt lat="42.5136300" lon="-5.7737750">
        <ele>877.7</ele>
        <time>2020-04-09T17:48:45Z</time>
      </trkpt>
      <trkpt lat="42.5135140" lon="-5.7736380">
        <ele>877.9</ele>
        <time>2020-04-09T17:48:47Z</time>
      </trkpt>
      <trkpt lat="42.5134400" lon="-5.7736890">
        <ele>877.9</ele>
        <time>2020-04-09T17:48:49Z</time>
      </trkpt>
      <trkpt lat="42.5133910" lon="-5.7738350">
        <ele>877.3</ele>
        <time>2020-04-09T17:48:51Z</time>
      </trkpt>
      <trkpt lat="42.5133410" lon="-5.7739820">
        <ele>877.2</ele>
        <time>2020-04-09T17:48:53Z</time>
      </trkpt>
      <trkpt lat="42.5132920" lon="-5.7741270">
        <ele>877.2</ele>
        <time>2020-04-09T17:48:55Z</time>
      </trkpt>
      <trkpt lat="42.5132420" lon="-5.7742740">
        <ele>877.2</ele>
        <time>2020-04-09T17:48:57Z</time>
      </trkpt>
      <trkpt lat="42.5131070" lon="-5.7746750">
        <ele>877.2</ele>
        <time>2020-04-09T17:48:59Z</time>
      </trkpt>
      <trkpt lat="42.5130570" lon="-5.7748230">
        <ele>877.2</ele>
        <time>2020-04-09T17:49:01Z</time>
      </trkpt>
      <trkpt lat="42.5130080" lon="-5.7749700">
        <ele>877.2</ele>
        <time>2020-04-09T17:49:03Z</time>
      </trkpt>
      <trkpt lat="42.5129580" lon="-5.7751190">
        <ele>877.2</ele>
        <time>2020-04-09T17:49:05Z</time>
      </trkpt>
      <trkpt lat="42.5129080" lon="-5.7752670">
        <ele>877.2</ele>
        <time>2020-04-09T17:49:07Z</time>
      </trkpt>
      <trkpt lat="42.5127670" lon="-5.7756860">
        <ele>877.2</ele>
        <time>2020-04-09T17:49:09Z</time>
      </trkpt>
      <trkpt lat="42.5127170" lon="-5.7758370">
        <ele>877.2</ele>
        <time>2020-04-09T17:49:11Z</time>
      </trkpt>
      <trkpt lat="42.5126650" lon="-5.7759900">
        <ele>877.2</ele>
        <time>2020-04-09T17:49:13Z</time>
      </trkpt>
      <trkpt lat="42.5126130" lon="-5.7761450">
        <ele>877.1</ele>
        <time>2020-04-09T17:49:15Z</time>
      </trkpt>
      <trkpt lat="42.5125600" lon="-5.7763020">
        <ele>877.0</ele>
        <time>2020-04-09T17:49:17Z</time>
      </trkpt>
      <trkpt lat="42.5124130" lon="-5.7767320">
        <ele>876.3</ele>
        <time>2020-04-09T17:49:19Z</time>
      </trkpt>
      <trkpt lat="42.5123560" lon="-5.7768900">
        <ele>876.2</ele>
        <time>2020-04-09T17:49:21Z</time>
      </trkpt>
      <trkpt lat="42.5122620" lon="-5.7771320">
        <ele>876.2</ele>
        <time>2020-04-09T17:49:23Z</time>
      </trkpt>
      <trkpt lat="42.5121530" lon="-5.7773820">
        <ele>876.1</ele>
        <time>2020-04-09T17:49:25Z</time>
      </trkpt>
      <trkpt lat="42.5120760" lon="-5.7775240">
        <ele>875.8</ele>
        <time>2020-04-09T17:49:27Z</time>
      </trkpt>
      <trkpt lat="42.5120000" lon="-5.7776620">
        <ele>875.5</ele>
        <time>2020-04-09T17:49:29Z</time>
      </trkpt>
      <trkpt lat="42.5119270" lon="-5.7777950">
        <ele>875.3</ele>
        <time>2020-04-09T17:49:31Z</time>
      </trkpt>
      <trkpt lat="42.5118560" lon="-5.7779260">
        <ele>875.3</ele>
        <time>2020-04-09T17:49:33Z</time>
      </trkpt>
      <trkpt lat="42.5117840" lon="-5.7780560">
        <ele>875.3</ele>
        <time>2020-04-09T17:49:35Z</time>
      </trkpt>
      <trkpt lat="42.5115780" lon="-5.7784320">
        <ele>875.3</ele>
        <time>2020-04-09T17:49:37Z</time>
      </trkpt>
      <trkpt lat="42.5114750" lon="-5.7786220">
        <ele>875.3</ele>
        <time>2020-04-09T17:49:39Z</time>
      </trkpt>
      <trkpt lat="42.5114020" lon="-5.7787550">
        <ele>875.3</ele>
        <time>2020-04-09T17:49:41Z</time>
      </trkpt>
      <trkpt lat="42.5113280" lon="-5.7788910">
        <ele>875.3</ele>
        <time>2020-04-09T17:49:43Z</time>
      </trkpt>
      <trkpt lat="42.5112530" lon="-5.7790290">
        <ele>875.3</ele>
        <time>2020-04-09T17:49:45Z</time>
      </trkpt>
      <trkpt lat="42.5110760" lon="-5.7793550">
        <ele>875.2</ele>
        <time>2020-04-09T17:49:47Z</time>
      </trkpt>
      <trkpt lat="42.5109990" lon="-5.7794980">
        <ele>875.0</ele>
        <time>2020-04-09T17:49:49Z</time>
      </trkpt>
      <trkpt lat="42.5109210" lon="-5.7796420">
        <ele>874.6</ele>
        <time>2020-04-09T17:49:51Z</time>
      </trkpt>
      <trkpt lat="42.5107390" lon="-5.7799770">
        <ele>874.3</ele>
        <time>2020-04-09T17:49:53Z</time>
      </trkpt>
      <trkpt lat="42.5106600" lon="-5.7801210">
        <ele>874.3</ele>
        <time>2020-04-09T17:49:55Z</time>
      </trkpt>
      <trkpt lat="42.5105510" lon="-5.7803220">
        <ele>874.3</ele>
        <time>2020-04-09T17:49:57Z</time>
      </trkpt>
      <trkpt lat="42.5104740" lon="-5.7804640">
        <ele>874.3</ele>
        <time>2020-04-09T17:49:59Z</time>
      </trkpt>
      <trkpt lat="42.5103990" lon="-5.7806030">
        <ele>874.3</ele>
        <time>2020-04-09T17:50:01Z</time>
      </trkpt>
      <trkpt lat="42.5103230" lon="-5.7807430">
        <ele>874.3</ele>
        <time>2020-04-09T17:50:03Z</time>
      </trkpt>
      <trkpt lat="42.5102470" lon="-5.7808840">
        <ele>874.3</ele>
        <time>2020-04-09T17:50:05Z</time>
      </trkpt>
      <trkpt lat="42.5100370" lon="-5.7812730">
        <ele>874.3</ele>
        <time>2020-04-09T17:50:07Z</time>
      </trkpt>
      <trkpt lat="42.5099580" lon="-5.7814170">
        <ele>874.2</ele>
        <time>2020-04-09T17:50:09Z</time>
      </trkpt>
      <trkpt lat="42.5098790" lon="-5.7815640">
        <ele>873.9</ele>
        <time>2020-04-09T17:50:11Z</time>
      </trkpt>
      <trkpt lat="42.5097990" lon="-5.7817120">
        <ele>873.6</ele>
        <time>2020-04-09T17:50:13Z</time>
      </trkpt>
      <trkpt lat="42.5095840" lon="-5.7821080">
        <ele>873.4</ele>
        <time>2020-04-09T17:50:15Z</time>
      </trkpt>
      <trkpt lat="42.5095020" lon="-5.7822590">
        <ele>873.4</ele>
        <time>2020-04-09T17:50:17Z</time>
      </trkpt>
      <trkpt lat="42.5094200" lon="-5.7824120">
        <ele>873.3</ele>
        <time>2020-04-09T17:50:19Z</time>
      </trkpt>
      <trkpt lat="42.5093360" lon="-5.7825660">
        <ele>873.2</ele>
        <time>2020-04-09T17:50:21Z</time>
      </trkpt>
      <trkpt lat="42.5092530" lon="-5.7827210">
        <ele>872.9</ele>
        <time>2020-04-09T17:50:23Z</time>
      </trkpt>
      <trkpt lat="42.5090360" lon="-5.7831220">
        <ele>872.4</ele>
        <time>2020-04-09T17:50:25Z</time>
      </trkpt>
      <trkpt lat="42.5089550" lon="-5.7832710">
        <ele>872.4</ele>
        <time>2020-04-09T17:50:27Z</time>
      </trkpt>
      <trkpt lat="42.5088770" lon="-5.7834150">
        <ele>872.4</ele>
        <time>2020-04-09T17:50:29Z</time>
      </trkpt>
      <trkpt lat="42.5088010" lon="-5.7835550">
        <ele>872.3</ele>
        <time>2020-04-09T17:50:31Z</time>
      </trkpt>
      <trkpt lat="42.5087270" lon="-5.7836910">
        <ele>872.1</ele>
        <time>2020-04-09T17:50:33Z</time>
      </trkpt>
      <trkpt lat="42.5085210" lon="-5.7840710">
        <ele>871.7</ele>
        <time>2020-04-09T17:50:35Z</time>
      </trkpt>
      <trkpt lat="42.5084520" lon="-5.7842000">
        <ele>871.6</ele>
        <time>2020-04-09T17:50:37Z</time>
      </trkpt>
      <trkpt lat="42.5083230" lon="-5.7844380">
        <ele>871.6</ele>
        <time>2020-04-09T17:50:39Z</time>
      </trkpt>
      <trkpt lat="42.5082530" lon="-5.7845660">
        <ele>871.6</ele>
        <time>2020-04-09T17:50:41Z</time>
      </trkpt>
      <trkpt lat="42.5081830" lon="-5.7846950">
        <ele>871.6</ele>
        <time>2020-04-09T17:50:43Z</time>
      </trkpt>
      <trkpt lat="42.5080370" lon="-5.7849640">
        <ele>871.6</ele>
        <time>2020-04-09T17:50:45Z</time>
      </trkpt>
      <trkpt lat="42.5079640" lon="-5.7850980">
        <ele>871.6</ele>
        <time>2020-04-09T17:50:47Z</time>
      </trkpt>
      <trkpt lat="42.5078900" lon="-5.7852340">
        <ele>871.6</ele>
        <time>2020-04-09T17:50:49Z</time>
      </trkpt>
      <trkpt lat="42.5078160" lon="-5.7853710">
        <ele>871.7</ele>
        <time>2020-04-09T17:50:51Z</time>
      </trkpt>
      <trkpt lat="42.5077400" lon="-5.7855100">
        <ele>871.6</ele>
        <time>2020-04-09T17:50:53Z</time>
      </trkpt>
      <trkpt lat="42.5075300" lon="-5.7858970">
        <ele>871.0</ele>
        <time>2020-04-09T17:50:55Z</time>
      </trkpt>
      <trkpt lat="42.5074550" lon="-5.7860350">
        <ele>870.8</ele>
        <time>2020-04-09T17:50:57Z</time>
      </trkpt>
      <trkpt lat="42.5073810" lon="-5.7861700">
        <ele>870.8</ele>
        <time>2020-04-09T17:50:59Z</time>
      </trkpt>
      <trkpt lat="42.5073090" lon="-5.7863040">
        <ele>870.8</ele>
        <time>2020-04-09T17:51:01Z</time>
      </trkpt>
      <trkpt lat="42.5072370" lon="-5.7864360">
        <ele>870.9</ele>
        <time>2020-04-09T17:51:03Z</time>
      </trkpt>
      <trkpt lat="42.5070310" lon="-5.7868150">
        <ele>871.7</ele>
        <time>2020-04-09T17:51:05Z</time>
      </trkpt>
      <trkpt lat="42.5069610" lon="-5.7869440">
        <ele>871.7</ele>
        <time>2020-04-09T17:51:07Z</time>
      </trkpt>
      <trkpt lat="42.5068910" lon="-5.7870730">
        <ele>871.5</ele>
        <time>2020-04-09T17:51:09Z</time>
      </trkpt>
      <trkpt lat="42.5067640" lon="-5.7873090">
        <ele>871.0</ele>
        <time>2020-04-09T17:51:11Z</time>
      </trkpt>
      <trkpt lat="42.5066960" lon="-5.7874360">
        <ele>870.9</ele>
        <time>2020-04-09T17:51:13Z</time>
      </trkpt>
      <trkpt lat="42.5066280" lon="-5.7875620">
        <ele>870.9</ele>
        <time>2020-04-09T17:51:15Z</time>
      </trkpt>
      <trkpt lat="42.5064850" lon="-5.7878290">
        <ele>870.9</ele>
        <time>2020-04-09T17:51:17Z</time>
      </trkpt>
      <trkpt lat="42.5064160" lon="-5.7879580">
        <ele>870.8</ele>
        <time>2020-04-09T17:51:19Z</time>
      </trkpt>
      <trkpt lat="42.5063460" lon="-5.7880890">
        <ele>870.7</ele>
        <time>2020-04-09T17:51:21Z</time>
      </trkpt>
      <trkpt lat="42.5062760" lon="-5.7882210">
        <ele>870.6</ele>
        <time>2020-04-09T17:51:23Z</time>
      </trkpt>
      <trkpt lat="42.5062050" lon="-5.7883540">
        <ele>870.5</ele>
        <time>2020-04-09T17:51:25Z</time>
      </trkpt>
      <trkpt lat="42.5059980" lon="-5.7887410">
        <ele>870.3</ele>
        <time>2020-04-09T17:51:27Z</time>
      </trkpt>
      <trkpt lat="42.5059260" lon="-5.7888780">
        <ele>870.2</ele>
        <time>2020-04-09T17:51:29Z</time>
      </trkpt>
      <trkpt lat="42.5058090" lon="-5.7890950">
        <ele>870.2</ele>
        <time>2020-04-09T17:51:31Z</time>
      </trkpt>
      <trkpt lat="42.5057340" lon="-5.7892320">
        <ele>870.2</ele>
        <time>2020-04-09T17:51:33Z</time>
      </trkpt>
      <trkpt lat="42.5056590" lon="-5.7893700">
        <ele>870.2</ele>
        <time>2020-04-09T17:51:35Z</time>
      </trkpt>
      <trkpt lat="42.5054910" lon="-5.7896760">
        <ele>870.2</ele>
        <time>2020-04-09T17:51:37Z</time>
      </trkpt>
      <trkpt lat="42.5054160" lon="-5.7898140">
        <ele>870.2</ele>
        <time>2020-04-09T17:51:39Z</time>
      </trkpt>
      <trkpt lat="42.5053420" lon="-5.7899490">
        <ele>870.3</ele>
        <time>2020-04-09T17:51:41Z</time>
      </trkpt>
      <trkpt lat="42.5052690" lon="-5.7900830">
        <ele>870.3</ele>
        <time>2020-04-09T17:51:43Z</time>
      </trkpt>
      <trkpt lat="42.5051970" lon="-5.7902160">
        <ele>870.3</ele>
        <time>2020-04-09T17:51:45Z</time>
      </trkpt>
      <trkpt lat="42.5051250" lon="-5.7903480">
        <ele>870.3</ele>
        <time>2020-04-09T17:51:47Z</time>
      </trkpt>
      <trkpt lat="42.5049170" lon="-5.7907280">
        <ele>870.4</ele>
        <time>2020-04-09T17:51:49Z</time>
      </trkpt>
      <trkpt lat="42.5048470" lon="-5.7908580">
        <ele>870.4</ele>
        <time>2020-04-09T17:51:51Z</time>
      </trkpt>
      <trkpt lat="42.5047150" lon="-5.7911010">
        <ele>870.4</ele>
        <time>2020-04-09T17:51:53Z</time>
      </trkpt>
      <trkpt lat="42.5046450" lon="-5.7912300">
        <ele>870.4</ele>
        <time>2020-04-09T17:51:55Z</time>
      </trkpt>
      <trkpt lat="42.5045750" lon="-5.7913580">
        <ele>870.4</ele>
        <time>2020-04-09T17:51:57Z</time>
      </trkpt>
      <trkpt lat="42.5044310" lon="-5.7916240">
        <ele>870.4</ele>
        <time>2020-04-09T17:51:59Z</time>
      </trkpt>
      <trkpt lat="42.5043600" lon="-5.7917550">
        <ele>870.4</ele>
        <time>2020-04-09T17:52:01Z</time>
      </trkpt>
      <trkpt lat="42.5042890" lon="-5.7918870">
        <ele>870.4</ele>
        <time>2020-04-09T17:52:03Z</time>
      </trkpt>
      <trkpt lat="42.5042160" lon="-5.7920210">
        <ele>870.4</ele>
        <time>2020-04-09T17:52:05Z</time>
      </trkpt>
      <trkpt lat="42.5041420" lon="-5.7921580">
        <ele>870.4</ele>
        <time>2020-04-09T17:52:07Z</time>
      </trkpt>
      <trkpt lat="42.5039310" lon="-5.7925470">
        <ele>870.2</ele>
        <time>2020-04-09T17:52:09Z</time>
      </trkpt>
      <trkpt lat="42.5038570" lon="-5.7926840">
        <ele>870.2</ele>
        <time>2020-04-09T17:52:11Z</time>
      </trkpt>
      <trkpt lat="42.5037820" lon="-5.7928240">
        <ele>870.0</ele>
        <time>2020-04-09T17:52:13Z</time>
      </trkpt>
      <trkpt lat="42.5037060" lon="-5.7929640">
        <ele>869.9</ele>
        <time>2020-04-09T17:52:15Z</time>
      </trkpt>
      <trkpt lat="42.5036300" lon="-5.7931050">
        <ele>869.7</ele>
        <time>2020-04-09T17:52:17Z</time>
      </trkpt>
      <trkpt lat="42.5034180" lon="-5.7934980">
        <ele>869.4</ele>
        <time>2020-04-09T17:52:19Z</time>
      </trkpt>
      <trkpt lat="42.5033430" lon="-5.7936360">
        <ele>869.3</ele>
        <time>2020-04-09T17:52:21Z</time>
      </trkpt>
      <trkpt lat="42.5032700" lon="-5.7937700">
        <ele>869.3</ele>
        <time>2020-04-09T17:52:23Z</time>
      </trkpt>
      <trkpt lat="42.5031980" lon="-5.7939040">
        <ele>869.3</ele>
        <time>2020-04-09T17:52:25Z</time>
      </trkpt>
      <trkpt lat="42.5031270" lon="-5.7940350">
        <ele>869.3</ele>
        <time>2020-04-09T17:52:27Z</time>
      </trkpt>
      <trkpt lat="42.5030570" lon="-5.7941650">
        <ele>869.3</ele>
        <time>2020-04-09T17:52:29Z</time>
      </trkpt>
      <trkpt lat="42.5028520" lon="-5.7945460">
        <ele>869.2</ele>
        <time>2020-04-09T17:52:31Z</time>
      </trkpt>
      <trkpt lat="42.5027810" lon="-5.7946760">
        <ele>869.2</ele>
        <time>2020-04-09T17:52:33Z</time>
      </trkpt>
      <trkpt lat="42.5027100" lon="-5.7948080">
        <ele>869.2</ele>
        <time>2020-04-09T17:52:35Z</time>
      </trkpt>
      <trkpt lat="42.5025590" lon="-5.7950880">
        <ele>869.1</ele>
        <time>2020-04-09T17:52:37Z</time>
      </trkpt>
      <trkpt lat="42.5024880" lon="-5.7952170">
        <ele>868.9</ele>
        <time>2020-04-09T17:52:39Z</time>
      </trkpt>
      <trkpt lat="42.5023650" lon="-5.7954450">
        <ele>868.7</ele>
        <time>2020-04-09T17:52:41Z</time>
      </trkpt>
      <trkpt lat="42.5022950" lon="-5.7955730">
        <ele>868.5</ele>
        <time>2020-04-09T17:52:43Z</time>
      </trkpt>
      <trkpt lat="42.5022240" lon="-5.7957030">
        <ele>868.3</ele>
        <time>2020-04-09T17:52:45Z</time>
      </trkpt>
      <trkpt lat="42.5021540" lon="-5.7958320">
        <ele>868.2</ele>
        <time>2020-04-09T17:52:47Z</time>
      </trkpt>
      <trkpt lat="42.5020850" lon="-5.7959600">
        <ele>868.0</ele>
        <time>2020-04-09T17:52:49Z</time>
      </trkpt>
      <trkpt lat="42.5018790" lon="-5.7963390">
        <ele>868.0</ele>
        <time>2020-04-09T17:52:51Z</time>
      </trkpt>
      <trkpt lat="42.5018110" lon="-5.7964670">
        <ele>868.0</ele>
        <time>2020-04-09T17:52:53Z</time>
      </trkpt>
      <trkpt lat="42.5017420" lon="-5.7965970">
        <ele>868.0</ele>
        <time>2020-04-09T17:52:55Z</time>
      </trkpt>
      <trkpt lat="42.5016720" lon="-5.7967280">
        <ele>867.9</ele>
        <time>2020-04-09T17:52:57Z</time>
      </trkpt>
      <trkpt lat="42.5016020" lon="-5.7968590">
        <ele>867.9</ele>
        <time>2020-04-09T17:52:59Z</time>
      </trkpt>
      <trkpt lat="42.5015310" lon="-5.7969920">
        <ele>867.8</ele>
        <time>2020-04-09T17:53:01Z</time>
      </trkpt>
      <trkpt lat="42.5013250" lon="-5.7973790">
        <ele>867.4</ele>
        <time>2020-04-09T17:53:03Z</time>
      </trkpt>
      <trkpt lat="42.5012510" lon="-5.7975200">
        <ele>867.2</ele>
        <time>2020-04-09T17:53:05Z</time>
      </trkpt>
      <trkpt lat="42.5011040" lon="-5.7977980">
        <ele>867.1</ele>
        <time>2020-04-09T17:53:07Z</time>
      </trkpt>
      <trkpt lat="42.5010240" lon="-5.7979450">
        <ele>867.1</ele>
        <time>2020-04-09T17:53:09Z</time>
      </trkpt>
      <trkpt lat="42.5009440" lon="-5.7980930">
        <ele>867.1</ele>
        <time>2020-04-09T17:53:11Z</time>
      </trkpt>
      <trkpt lat="42.5007980" lon="-5.7983620">
        <ele>867.1</ele>
        <time>2020-04-09T17:53:13Z</time>
      </trkpt>
      <trkpt lat="42.5006910" lon="-5.7985600">
        <ele>867.0</ele>
        <time>2020-04-09T17:53:15Z</time>
      </trkpt>
      <trkpt lat="42.5006110" lon="-5.7987070">
        <ele>867.0</ele>
        <time>2020-04-09T17:53:17Z</time>
      </trkpt>
      <trkpt lat="42.5005340" lon="-5.7988510">
        <ele>867.0</ele>
        <time>2020-04-09T17:53:19Z</time>
      </trkpt>
      <trkpt lat="42.5003470" lon="-5.7991960">
        <ele>866.7</ele>
        <time>2020-04-09T17:53:21Z</time>
      </trkpt>
      <trkpt lat="42.5002710" lon="-5.7993360">
        <ele>866.6</ele>
        <time>2020-04-09T17:53:23Z</time>
      </trkpt>
      <trkpt lat="42.5001950" lon="-5.7994780">
        <ele>866.4</ele>
        <time>2020-04-09T17:53:25Z</time>
      </trkpt>
      <trkpt lat="42.5001200" lon="-5.7996160">
        <ele>866.3</ele>
        <time>2020-04-09T17:53:27Z</time>
      </trkpt>
      <trkpt lat="42.5000450" lon="-5.7997550">
        <ele>866.1</ele>
        <time>2020-04-09T17:53:29Z</time>
      </trkpt>
      <trkpt lat="42.4999700" lon="-5.7998950">
        <ele>866.1</ele>
        <time>2020-04-09T17:53:31Z</time>
      </trkpt>
      <trkpt lat="42.4997590" lon="-5.8002860">
        <ele>866.1</ele>
        <time>2020-04-09T17:53:33Z</time>
      </trkpt>
      <trkpt lat="42.4996830" lon="-5.8004260">
        <ele>866.1</ele>
        <time>2020-04-09T17:53:35Z</time>
      </trkpt>
      <trkpt lat="42.4996070" lon="-5.8005670">
        <ele>866.1</ele>
        <time>2020-04-09T17:53:37Z</time>
      </trkpt>
      <trkpt lat="42.4995300" lon="-5.8007090">
        <ele>866.0</ele>
        <time>2020-04-09T17:53:39Z</time>
      </trkpt>
      <trkpt lat="42.4993330" lon="-5.8010740">
        <ele>865.9</ele>
        <time>2020-04-09T17:53:41Z</time>
      </trkpt>
      <trkpt lat="42.4992550" lon="-5.8012170">
        <ele>865.9</ele>
        <time>2020-04-09T17:53:43Z</time>
      </trkpt>
      <trkpt lat="42.4991780" lon="-5.8013600">
        <ele>865.8</ele>
        <time>2020-04-09T17:53:45Z</time>
      </trkpt>
      <trkpt lat="42.4991010" lon="-5.8015040">
        <ele>865.8</ele>
        <time>2020-04-09T17:53:47Z</time>
      </trkpt>
      <trkpt lat="42.4989010" lon="-5.8018750">
        <ele>865.8</ele>
        <time>2020-04-09T17:53:49Z</time>
      </trkpt>
      <trkpt lat="42.4988230" lon="-5.8020180">
        <ele>865.8</ele>
        <time>2020-04-09T17:53:51Z</time>
      </trkpt>
      <trkpt lat="42.4987460" lon="-5.8021600">
        <ele>865.8</ele>
        <time>2020-04-09T17:53:53Z</time>
      </trkpt>
      <trkpt lat="42.4986700" lon="-5.8023010">
        <ele>865.8</ele>
        <time>2020-04-09T17:53:55Z</time>
      </trkpt>
      <trkpt lat="42.4985940" lon="-5.8024410">
        <ele>865.8</ele>
        <time>2020-04-09T17:53:57Z</time>
      </trkpt>
      <trkpt lat="42.4983990" lon="-5.8028000">
        <ele>866.2</ele>
        <time>2020-04-09T17:53:59Z</time>
      </trkpt>
      <trkpt lat="42.4983240" lon="-5.8029400">
        <ele>866.2</ele>
        <time>2020-04-09T17:54:01Z</time>
      </trkpt>
      <trkpt lat="42.4981850" lon="-5.8031940">
        <ele>866.0</ele>
        <time>2020-04-09T17:54:03Z</time>
      </trkpt>
      <trkpt lat="42.4981080" lon="-5.8033280">
        <ele>865.8</ele>
        <time>2020-04-09T17:54:05Z</time>
      </trkpt>
      <trkpt lat="42.4979730" lon="-5.8035640">
        <ele>865.8</ele>
        <time>2020-04-09T17:54:07Z</time>
      </trkpt>
      <trkpt lat="42.4978990" lon="-5.8036950">
        <ele>866.1</ele>
        <time>2020-04-09T17:54:09Z</time>
      </trkpt>
      <trkpt lat="42.4977910" lon="-5.8038900">
        <ele>866.6</ele>
        <time>2020-04-09T17:54:11Z</time>
      </trkpt>
      <trkpt lat="42.4977220" lon="-5.8040210">
        <ele>866.6</ele>
        <time>2020-04-09T17:54:13Z</time>
      </trkpt>
      <trkpt lat="42.4976530" lon="-5.8041510">
        <ele>866.6</ele>
        <time>2020-04-09T17:54:15Z</time>
      </trkpt>
      <trkpt lat="42.4974960" lon="-5.8044370">
        <ele>866.6</ele>
        <time>2020-04-09T17:54:17Z</time>
      </trkpt>
      <trkpt lat="42.4974210" lon="-5.8045610">
        <ele>866.7</ele>
        <time>2020-04-09T17:54:19Z</time>
      </trkpt>
      <trkpt lat="42.4973440" lon="-5.8046870">
        <ele>866.7</ele>
        <time>2020-04-09T17:54:21Z</time>
      </trkpt>
      <trkpt lat="42.4972660" lon="-5.8048140">
        <ele>866.7</ele>
        <time>2020-04-09T17:54:23Z</time>
      </trkpt>
      <trkpt lat="42.4971890" lon="-5.8049420">
        <ele>866.7</ele>
        <time>2020-04-09T17:54:25Z</time>
      </trkpt>
      <trkpt lat="42.4969640" lon="-5.8053120">
        <ele>866.7</ele>
        <time>2020-04-09T17:54:27Z</time>
      </trkpt>
      <trkpt lat="42.4968840" lon="-5.8054430">
        <ele>866.7</ele>
        <time>2020-04-09T17:54:29Z</time>
      </trkpt>
      <trkpt lat="42.4968040" lon="-5.8055750">
        <ele>866.8</ele>
        <time>2020-04-09T17:54:31Z</time>
      </trkpt>
      <trkpt lat="42.4967230" lon="-5.8057070">
        <ele>866.8</ele>
        <time>2020-04-09T17:54:33Z</time>
      </trkpt>
      <trkpt lat="42.4966420" lon="-5.8058400">
        <ele>866.8</ele>
        <time>2020-04-09T17:54:35Z</time>
      </trkpt>
      <trkpt lat="42.4965610" lon="-5.8059750">
        <ele>866.8</ele>
        <time>2020-04-09T17:54:37Z</time>
      </trkpt>
      <trkpt lat="42.4963340" lon="-5.8063480">
        <ele>866.8</ele>
        <time>2020-04-09T17:54:39Z</time>
      </trkpt>
      <trkpt lat="42.4962540" lon="-5.8064800">
        <ele>866.9</ele>
        <time>2020-04-09T17:54:41Z</time>
      </trkpt>
      <trkpt lat="42.4961750" lon="-5.8066090">
        <ele>866.9</ele>
        <time>2020-04-09T17:54:43Z</time>
      </trkpt>
      <trkpt lat="42.4960970" lon="-5.8067380">
        <ele>866.9</ele>
        <time>2020-04-09T17:54:45Z</time>
      </trkpt>
      <trkpt lat="42.4960190" lon="-5.8068650">
        <ele>866.9</ele>
        <time>2020-04-09T17:54:47Z</time>
      </trkpt>
      <trkpt lat="42.4957970" lon="-5.8072300">
        <ele>866.9</ele>
        <time>2020-04-09T17:54:49Z</time>
      </trkpt>
      <trkpt lat="42.4957210" lon="-5.8073560">
        <ele>867.0</ele>
        <time>2020-04-09T17:54:51Z</time>
      </trkpt>
      <trkpt lat="42.4956450" lon="-5.8074810">
        <ele>867.0</ele>
        <time>2020-04-09T17:54:53Z</time>
      </trkpt>
      <trkpt lat="42.4955700" lon="-5.8076050">
        <ele>867.1</ele>
        <time>2020-04-09T17:54:55Z</time>
      </trkpt>
      <trkpt lat="42.4954950" lon="-5.8077280">
        <ele>867.3</ele>
        <time>2020-04-09T17:54:57Z</time>
      </trkpt>
      <trkpt lat="42.4953000" lon="-5.8081030">
        <ele>868.0</ele>
        <time>2020-04-09T17:54:59Z</time>
      </trkpt>
      <trkpt lat="42.4952410" lon="-5.8082900">
        <ele>868.2</ele>
        <time>2020-04-09T17:55:01Z</time>
      </trkpt>
      <trkpt lat="42.4951470" lon="-5.8084390">
        <ele>868.3</ele>
        <time>2020-04-09T17:55:03Z</time>
      </trkpt>
      <trkpt lat="42.4950690" lon="-5.8085620">
        <ele>868.4</ele>
        <time>2020-04-09T17:55:05Z</time>
      </trkpt>
      <trkpt lat="42.4949910" lon="-5.8086860">
        <ele>868.5</ele>
        <time>2020-04-09T17:55:07Z</time>
      </trkpt>
      <trkpt lat="42.4948110" lon="-5.8089740">
        <ele>868.8</ele>
        <time>2020-04-09T17:55:09Z</time>
      </trkpt>
      <trkpt lat="42.4947210" lon="-5.8091220">
        <ele>868.7</ele>
        <time>2020-04-09T17:55:11Z</time>
      </trkpt>
      <trkpt lat="42.4946390" lon="-5.8092560">
        <ele>868.7</ele>
        <time>2020-04-09T17:55:13Z</time>
      </trkpt>
      <trkpt lat="42.4945530" lon="-5.8093970">
        <ele>868.5</ele>
        <time>2020-04-09T17:55:15Z</time>
      </trkpt>
      <trkpt lat="42.4943750" lon="-5.8096880">
        <ele>868.1</ele>
        <time>2020-04-09T17:55:17Z</time>
      </trkpt>
      <trkpt lat="42.4942850" lon="-5.8098360">
        <ele>867.8</ele>
        <time>2020-04-09T17:55:19Z</time>
      </trkpt>
      <trkpt lat="42.4941930" lon="-5.8099870">
        <ele>867.5</ele>
        <time>2020-04-09T17:55:21Z</time>
      </trkpt>
      <trkpt lat="42.4939940" lon="-5.8103460">
        <ele>866.4</ele>
        <time>2020-04-09T17:55:23Z</time>
      </trkpt>
      <trkpt lat="42.4939080" lon="-5.8105250">
        <ele>864.9</ele>
        <time>2020-04-09T17:55:25Z</time>
      </trkpt>
      <trkpt lat="42.4938160" lon="-5.8107150">
        <ele>863.9</ele>
        <time>2020-04-09T17:55:27Z</time>
      </trkpt>
      <trkpt lat="42.4936340" lon="-5.8110950">
        <ele>862.3</ele>
        <time>2020-04-09T17:55:29Z</time>
      </trkpt>
      <trkpt lat="42.4935330" lon="-5.8113050">
        <ele>861.2</ele>
        <time>2020-04-09T17:55:31Z</time>
      </trkpt>
      <trkpt lat="42.4933410" lon="-5.8117060">
        <ele>858.1</ele>
        <time>2020-04-09T17:55:33Z</time>
      </trkpt>
      <trkpt lat="42.4932250" lon="-5.8119450">
        <ele>857.1</ele>
        <time>2020-04-09T17:55:35Z</time>
      </trkpt>
      <trkpt lat="42.4931250" lon="-5.8121540">
        <ele>856.1</ele>
        <time>2020-04-09T17:55:37Z</time>
      </trkpt>
      <trkpt lat="42.4930300" lon="-5.8123520">
        <ele>855.0</ele>
        <time>2020-04-09T17:55:39Z</time>
      </trkpt>
      <trkpt lat="42.4928180" lon="-5.8127960">
        <ele>853.7</ele>
        <time>2020-04-09T17:55:41Z</time>
      </trkpt>
      <trkpt lat="42.4927260" lon="-5.8129860">
        <ele>853.5</ele>
        <time>2020-04-09T17:55:43Z</time>
      </trkpt>
      <trkpt lat="42.4925780" lon="-5.8132960">
        <ele>853.5</ele>
        <time>2020-04-09T17:55:45Z</time>
      </trkpt>
      <trkpt lat="42.4926980" lon="-5.8135350">
        <ele>853.8</ele>
        <time>2020-04-09T17:55:47Z</time>
      </trkpt>
      <trkpt lat="42.4928400" lon="-5.8137210">
        <ele>853.9</ele>
        <time>2020-04-09T17:55:49Z</time>
      </trkpt>
      <trkpt lat="42.4927390" lon="-5.8139280">
        <ele>853.1</ele>
        <time>2020-04-09T17:55:51Z</time>
      </trkpt>
      <trkpt lat="42.4926360" lon="-5.8141330">
        <ele>852.1</ele>
        <time>2020-04-09T17:55:53Z</time>
      </trkpt>
      <trkpt lat="42.4925140" lon="-5.8143860">
        <ele>851.1</ele>
        <time>2020-04-09T17:55:55Z</time>
      </trkpt>
      <trkpt lat="42.4924420" lon="-5.8145350">
        <ele>850.8</ele>
        <time>2020-04-09T17:55:57Z</time>
      </trkpt>
      <trkpt lat="42.4923730" lon="-5.8146790">
        <ele>850.9</ele>
        <time>2020-04-09T17:55:59Z</time>
      </trkpt>
      <trkpt lat="42.4922360" lon="-5.8149570">
        <ele>851.0</ele>
        <time>2020-04-09T17:56:01Z</time>
      </trkpt>
      <trkpt lat="42.4921680" lon="-5.8150850">
        <ele>851.0</ele>
        <time>2020-04-09T17:56:03Z</time>
      </trkpt>
      <trkpt lat="42.4921020" lon="-5.8152100">
        <ele>850.9</ele>
        <time>2020-04-09T17:56:05Z</time>
      </trkpt>
      <trkpt lat="42.4919690" lon="-5.8154500">
        <ele>850.4</ele>
        <time>2020-04-09T17:56:07Z</time>
      </trkpt>
      <trkpt lat="42.4919010" lon="-5.8155620">
        <ele>850.2</ele>
        <time>2020-04-09T17:56:09Z</time>
      </trkpt>
      <trkpt lat="42.4917740" lon="-5.8157560">
        <ele>849.9</ele>
        <time>2020-04-09T17:56:11Z</time>
      </trkpt>
      <trkpt lat="42.4916580" lon="-5.8158790">
        <ele>849.6</ele>
        <time>2020-04-09T17:56:13Z</time>
      </trkpt>
      <trkpt lat="42.4915590" lon="-5.8159370">
        <ele>849.4</ele>
        <time>2020-04-09T17:56:15Z</time>
      </trkpt>
      <trkpt lat="42.4913850" lon="-5.8160440">
        <ele>849.3</ele>
        <time>2020-04-09T17:56:17Z</time>
      </trkpt>
      <trkpt lat="42.4912980" lon="-5.8161800">
        <ele>849.2</ele>
        <time>2020-04-09T17:56:19Z</time>
      </trkpt>
      <trkpt lat="42.4912090" lon="-5.8163540">
        <ele>849.0</ele>
        <time>2020-04-09T17:56:21Z</time>
      </trkpt>
      <trkpt lat="42.4911120" lon="-5.8165570">
        <ele>848.8</ele>
        <time>2020-04-09T17:56:23Z</time>
      </trkpt>
      <trkpt lat="42.4910420" lon="-5.8166940">
        <ele>848.6</ele>
        <time>2020-04-09T17:56:25Z</time>
      </trkpt>
      <trkpt lat="42.4909190" lon="-5.8169300">
        <ele>848.1</ele>
        <time>2020-04-09T17:56:27Z</time>
      </trkpt>
      <trkpt lat="42.4908230" lon="-5.8171100">
        <ele>847.9</ele>
        <time>2020-04-09T17:56:29Z</time>
      </trkpt>
      <trkpt lat="42.4907550" lon="-5.8172380">
        <ele>847.7</ele>
        <time>2020-04-09T17:56:31Z</time>
      </trkpt>
      <trkpt lat="42.4906900" lon="-5.8173620">
        <ele>847.5</ele>
        <time>2020-04-09T17:56:33Z</time>
      </trkpt>
      <trkpt lat="42.4906250" lon="-5.8174840">
        <ele>847.3</ele>
        <time>2020-04-09T17:56:35Z</time>
      </trkpt>
      <trkpt lat="42.4905610" lon="-5.8176050">
        <ele>847.1</ele>
        <time>2020-04-09T17:56:37Z</time>
      </trkpt>
      <trkpt lat="42.4904970" lon="-5.8177260">
        <ele>846.8</ele>
        <time>2020-04-09T17:56:39Z</time>
      </trkpt>
      <trkpt lat="42.4903000" lon="-5.8180980">
        <ele>846.4</ele>
        <time>2020-04-09T17:56:41Z</time>
      </trkpt>
      <trkpt lat="42.4902370" lon="-5.8182160">
        <ele>846.5</ele>
        <time>2020-04-09T17:56:43Z</time>
      </trkpt>
      <trkpt lat="42.4901760" lon="-5.8183310">
        <ele>846.6</ele>
        <time>2020-04-09T17:56:45Z</time>
      </trkpt>
      <trkpt lat="42.4901140" lon="-5.8184460">
        <ele>846.8</ele>
        <time>2020-04-09T17:56:47Z</time>
      </trkpt>
      <trkpt lat="42.4900530" lon="-5.8185600">
        <ele>847.0</ele>
        <time>2020-04-09T17:56:49Z</time>
      </trkpt>
      <trkpt lat="42.4899920" lon="-5.8186750">
        <ele>847.1</ele>
        <time>2020-04-09T17:56:51Z</time>
      </trkpt>
      <trkpt lat="42.4898090" lon="-5.8190180">
        <ele>847.7</ele>
        <time>2020-04-09T17:56:53Z</time>
      </trkpt>
      <trkpt lat="42.4897290" lon="-5.8191690">
        <ele>847.7</ele>
        <time>2020-04-09T17:56:55Z</time>
      </trkpt>
      <trkpt lat="42.4896690" lon="-5.8192800">
        <ele>847.6</ele>
        <time>2020-04-09T17:56:57Z</time>
      </trkpt>
      <trkpt lat="42.4896090" lon="-5.8193920">
        <ele>847.5</ele>
        <time>2020-04-09T17:56:59Z</time>
      </trkpt>
      <trkpt lat="42.4895500" lon="-5.8195030">
        <ele>847.3</ele>
        <time>2020-04-09T17:57:01Z</time>
      </trkpt>
      <trkpt lat="42.4893870" lon="-5.8198060">
        <ele>847.4</ele>
        <time>2020-04-09T17:57:03Z</time>
      </trkpt>
      <trkpt lat="42.4893280" lon="-5.8199170">
        <ele>847.5</ele>
        <time>2020-04-09T17:57:05Z</time>
      </trkpt>
      <trkpt lat="42.4892680" lon="-5.8200290">
        <ele>847.7</ele>
        <time>2020-04-09T17:57:07Z</time>
      </trkpt>
      <trkpt lat="42.4892090" lon="-5.8201400">
        <ele>847.8</ele>
        <time>2020-04-09T17:57:09Z</time>
      </trkpt>
      <trkpt lat="42.4891490" lon="-5.8202530">
        <ele>847.9</ele>
        <time>2020-04-09T17:57:11Z</time>
      </trkpt>
      <trkpt lat="42.4889960" lon="-5.8205380">
        <ele>848.0</ele>
        <time>2020-04-09T17:57:13Z</time>
      </trkpt>
      <trkpt lat="42.4889060" lon="-5.8207080">
        <ele>848.0</ele>
        <time>2020-04-09T17:57:15Z</time>
      </trkpt>
      <trkpt lat="42.4888450" lon="-5.8208220">
        <ele>848.0</ele>
        <time>2020-04-09T17:57:17Z</time>
      </trkpt>
      <trkpt lat="42.4887830" lon="-5.8209370">
        <ele>847.9</ele>
        <time>2020-04-09T17:57:19Z</time>
      </trkpt>
      <trkpt lat="42.4887220" lon="-5.8210520">
        <ele>847.9</ele>
        <time>2020-04-09T17:57:21Z</time>
      </trkpt>
      <trkpt lat="42.4886600" lon="-5.8211670">
        <ele>847.9</ele>
        <time>2020-04-09T17:57:23Z</time>
      </trkpt>
      <trkpt lat="42.4885980" lon="-5.8212830">
        <ele>847.9</ele>
        <time>2020-04-09T17:57:25Z</time>
      </trkpt>
      <trkpt lat="42.4884130" lon="-5.8216300">
        <ele>847.9</ele>
        <time>2020-04-09T17:57:27Z</time>
      </trkpt>
      <trkpt lat="42.4883500" lon="-5.8217480">
        <ele>847.9</ele>
        <time>2020-04-09T17:57:29Z</time>
      </trkpt>
      <trkpt lat="42.4882870" lon="-5.8218660">
        <ele>847.9</ele>
        <time>2020-04-09T17:57:31Z</time>
      </trkpt>
      <trkpt lat="42.4882240" lon="-5.8219830">
        <ele>847.9</ele>
        <time>2020-04-09T17:57:33Z</time>
      </trkpt>
      <trkpt lat="42.4881620" lon="-5.8220990">
        <ele>847.9</ele>
        <time>2020-04-09T17:57:35Z</time>
      </trkpt>
      <trkpt lat="42.4879770" lon="-5.8224450">
        <ele>847.9</ele>
        <time>2020-04-09T17:57:37Z</time>
      </trkpt>
      <trkpt lat="42.4879150" lon="-5.8225620">
        <ele>848.0</ele>
        <time>2020-04-09T17:57:39Z</time>
      </trkpt>
      <trkpt lat="42.4878530" lon="-5.8226790">
        <ele>848.0</ele>
        <time>2020-04-09T17:57:41Z</time>
      </trkpt>
      <trkpt lat="42.4877900" lon="-5.8227960">
        <ele>847.9</ele>
        <time>2020-04-09T17:57:43Z</time>
      </trkpt>
      <trkpt lat="42.4877270" lon="-5.8229150">
        <ele>847.9</ele>
        <time>2020-04-09T17:57:45Z</time>
      </trkpt>
      <trkpt lat="42.4876640" lon="-5.8230330">
        <ele>847.8</ele>
        <time>2020-04-09T17:57:47Z</time>
      </trkpt>
      <trkpt lat="42.4874750" lon="-5.8233780">
        <ele>847.5</ele>
        <time>2020-04-09T17:57:49Z</time>
      </trkpt>
      <trkpt lat="42.4873650" lon="-5.8235670">
        <ele>847.1</ele>
        <time>2020-04-09T17:57:51Z</time>
      </trkpt>
      <trkpt lat="42.4873030" lon="-5.8236960">
        <ele>846.9</ele>
        <time>2020-04-09T17:57:53Z</time>
      </trkpt>
      <trkpt lat="42.4872080" lon="-5.8238860">
        <ele>846.7</ele>
        <time>2020-04-09T17:57:55Z</time>
      </trkpt>
      <trkpt lat="42.4871410" lon="-5.8240110">
        <ele>846.6</ele>
        <time>2020-04-09T17:57:57Z</time>
      </trkpt>
      <trkpt lat="42.4870730" lon="-5.8241370">
        <ele>846.4</ele>
        <time>2020-04-09T17:57:59Z</time>
      </trkpt>
      <trkpt lat="42.4870040" lon="-5.8242650">
        <ele>846.2</ele>
        <time>2020-04-09T17:58:01Z</time>
      </trkpt>
      <trkpt lat="42.4868320" lon="-5.8245860">
        <ele>846.4</ele>
        <time>2020-04-09T17:58:03Z</time>
      </trkpt>
      <trkpt lat="42.4867630" lon="-5.8247140">
        <ele>846.6</ele>
        <time>2020-04-09T17:58:05Z</time>
      </trkpt>
      <trkpt lat="42.4866950" lon="-5.8248420">
        <ele>846.6</ele>
        <time>2020-04-09T17:58:07Z</time>
      </trkpt>
      <trkpt lat="42.4866270" lon="-5.8249690">
        <ele>846.4</ele>
        <time>2020-04-09T17:58:09Z</time>
      </trkpt>
      <trkpt lat="42.4865590" lon="-5.8250950">
        <ele>846.2</ele>
        <time>2020-04-09T17:58:11Z</time>
      </trkpt>
      <trkpt lat="42.4863680" lon="-5.8254550">
        <ele>846.0</ele>
        <time>2020-04-09T17:58:13Z</time>
      </trkpt>
      <trkpt lat="42.4863360" lon="-5.8256460">
        <ele>845.8</ele>
        <time>2020-04-09T17:58:15Z</time>
      </trkpt>
      <trkpt lat="42.4863310" lon="-5.8258560">
        <ele>845.8</ele>
        <time>2020-04-09T17:58:17Z</time>
      </trkpt>
      <trkpt lat="42.4862430" lon="-5.8260370">
        <ele>845.7</ele>
        <time>2020-04-09T17:58:19Z</time>
      </trkpt>
      <trkpt lat="42.4861660" lon="-5.8261590">
        <ele>845.5</ele>
        <time>2020-04-09T17:58:21Z</time>
      </trkpt>
      <trkpt lat="42.4860480" lon="-5.8263750">
        <ele>845.4</ele>
        <time>2020-04-09T17:58:23Z</time>
      </trkpt>
      <trkpt lat="42.4859950" lon="-5.8265160">
        <ele>845.4</ele>
        <time>2020-04-09T17:58:25Z</time>
      </trkpt>
      <trkpt lat="42.4859060" lon="-5.8267530">
        <ele>845.6</ele>
        <time>2020-04-09T17:58:27Z</time>
      </trkpt>
      <trkpt lat="42.4858540" lon="-5.8268940">
        <ele>845.7</ele>
        <time>2020-04-09T17:58:29Z</time>
      </trkpt>
      <trkpt lat="42.4857790" lon="-5.8271140">
        <ele>845.7</ele>
        <time>2020-04-09T17:58:31Z</time>
      </trkpt>
      <trkpt lat="42.4857180" lon="-5.8273150">
        <ele>845.5</ele>
        <time>2020-04-09T17:58:33Z</time>
      </trkpt>
      <trkpt lat="42.4856570" lon="-5.8275380">
        <ele>845.3</ele>
        <time>2020-04-09T17:58:35Z</time>
      </trkpt>
      <trkpt lat="42.4856160" lon="-5.8276910">
        <ele>845.2</ele>
        <time>2020-04-09T17:58:37Z</time>
      </trkpt>
      <trkpt lat="42.4855750" lon="-5.8278470">
        <ele>845.2</ele>
        <time>2020-04-09T17:58:39Z</time>
      </trkpt>
      <trkpt lat="42.4854960" lon="-5.8281940">
        <ele>844.9</ele>
        <time>2020-04-09T17:58:41Z</time>
      </trkpt>
      <trkpt lat="42.4854190" lon="-5.8283990">
        <ele>844.8</ele>
        <time>2020-04-09T17:58:43Z</time>
      </trkpt>
      <trkpt lat="42.4853840" lon="-5.8285650">
        <ele>844.7</ele>
        <time>2020-04-09T17:58:45Z</time>
      </trkpt>
      <trkpt lat="42.4853490" lon="-5.8287320">
        <ele>844.6</ele>
        <time>2020-04-09T17:58:47Z</time>
      </trkpt>
      <trkpt lat="42.4852760" lon="-5.8290800">
        <ele>844.5</ele>
        <time>2020-04-09T17:58:49Z</time>
      </trkpt>
      <trkpt lat="42.4852460" lon="-5.8292930">
        <ele>844.5</ele>
        <time>2020-04-09T17:58:51Z</time>
      </trkpt>
      <trkpt lat="42.4851250" lon="-5.8292610">
        <ele>844.3</ele>
        <time>2020-04-09T17:58:53Z</time>
      </trkpt>
      <trkpt lat="42.4850040" lon="-5.8292060">
        <ele>844.3</ele>
        <time>2020-04-09T17:58:55Z</time>
      </trkpt>
      <trkpt lat="42.4848810" lon="-5.8291510">
        <ele>844.4</ele>
        <time>2020-04-09T17:58:57Z</time>
      </trkpt>
      <trkpt lat="42.4845980" lon="-5.8290400">
        <ele>844.5</ele>
        <time>2020-04-09T17:58:59Z</time>
      </trkpt>
      <trkpt lat="42.4844620" lon="-5.8290210">
        <ele>844.5</ele>
        <time>2020-04-09T17:59:01Z</time>
      </trkpt>
      <trkpt lat="42.4843890" lon="-5.8291580">
        <ele>844.6</ele>
        <time>2020-04-09T17:59:03Z</time>
      </trkpt>
      <trkpt lat="42.4843170" lon="-5.8292920">
        <ele>844.7</ele>
        <time>2020-04-09T17:59:05Z</time>
      </trkpt>
      <trkpt lat="42.4842460" lon="-5.8294230">
        <ele>844.7</ele>
        <time>2020-04-09T17:59:07Z</time>
      </trkpt>
      <trkpt lat="42.4841770" lon="-5.8295520">
        <ele>844.7</ele>
        <time>2020-04-09T17:59:09Z</time>
      </trkpt>
      <trkpt lat="42.4839850" lon="-5.8299100">
        <ele>844.6</ele>
        <time>2020-04-09T17:59:11Z</time>
      </trkpt>
      <trkpt lat="42.4839140" lon="-5.8300420">
        <ele>844.4</ele>
        <time>2020-04-09T17:59:13Z</time>
      </trkpt>
      <trkpt lat="42.4838420" lon="-5.8301770">
        <ele>844.3</ele>
        <time>2020-04-09T17:59:15Z</time>
      </trkpt>
      <trkpt lat="42.4837670" lon="-5.8303160">
        <ele>844.1</ele>
        <time>2020-04-09T17:59:17Z</time>
      </trkpt>
      <trkpt lat="42.4836910" lon="-5.8304590">
        <ele>843.9</ele>
        <time>2020-04-09T17:59:19Z</time>
      </trkpt>
      <trkpt lat="42.4834890" lon="-5.8308350">
        <ele>843.5</ele>
        <time>2020-04-09T17:59:21Z</time>
      </trkpt>
      <trkpt lat="42.4834100" lon="-5.8309830">
        <ele>843.3</ele>
        <time>2020-04-09T17:59:23Z</time>
      </trkpt>
      <trkpt lat="42.4833290" lon="-5.8311330">
        <ele>843.1</ele>
        <time>2020-04-09T17:59:25Z</time>
      </trkpt>
      <trkpt lat="42.4832480" lon="-5.8312840">
        <ele>843.0</ele>
        <time>2020-04-09T17:59:27Z</time>
      </trkpt>
      <trkpt lat="42.4830430" lon="-5.8316690">
        <ele>842.6</ele>
        <time>2020-04-09T17:59:29Z</time>
      </trkpt>
      <trkpt lat="42.4829620" lon="-5.8318260">
        <ele>842.5</ele>
        <time>2020-04-09T17:59:31Z</time>
      </trkpt>
      <trkpt lat="42.4828820" lon="-5.8319840">
        <ele>842.3</ele>
        <time>2020-04-09T17:59:33Z</time>
      </trkpt>
      <trkpt lat="42.4827280" lon="-5.8322850">
        <ele>842.0</ele>
        <time>2020-04-09T17:59:35Z</time>
      </trkpt>
      <trkpt lat="42.4826470" lon="-5.8324440">
        <ele>841.7</ele>
        <time>2020-04-09T17:59:37Z</time>
      </trkpt>
      <trkpt lat="42.4824920" lon="-5.8327430">
        <ele>841.4</ele>
        <time>2020-04-09T17:59:39Z</time>
      </trkpt>
      <trkpt lat="42.4824080" lon="-5.8328970">
        <ele>841.1</ele>
        <time>2020-04-09T17:59:41Z</time>
      </trkpt>
      <trkpt lat="42.4823250" lon="-5.8330480">
        <ele>841.0</ele>
        <time>2020-04-09T17:59:43Z</time>
      </trkpt>
      <trkpt lat="42.4822420" lon="-5.8331970">
        <ele>840.9</ele>
        <time>2020-04-09T17:59:45Z</time>
      </trkpt>
      <trkpt lat="42.4821600" lon="-5.8333460">
        <ele>840.8</ele>
        <time>2020-04-09T17:59:47Z</time>
      </trkpt>
      <trkpt lat="42.4819400" lon="-5.8337460">
        <ele>840.7</ele>
        <time>2020-04-09T17:59:49Z</time>
      </trkpt>
      <trkpt lat="42.4818580" lon="-5.8338950">
        <ele>840.7</ele>
        <time>2020-04-09T17:59:51Z</time>
      </trkpt>
      <trkpt lat="42.4817770" lon="-5.8340430">
        <ele>840.7</ele>
        <time>2020-04-09T17:59:53Z</time>
      </trkpt>
      <trkpt lat="42.4816170" lon="-5.8343370">
        <ele>840.7</ele>
        <time>2020-04-09T17:59:55Z</time>
      </trkpt>
      <trkpt lat="42.4815370" lon="-5.8344860">
        <ele>840.7</ele>
        <time>2020-04-09T17:59:57Z</time>
      </trkpt>
      <trkpt lat="42.4813980" lon="-5.8347440">
        <ele>840.7</ele>
        <time>2020-04-09T17:59:59Z</time>
      </trkpt>
      <trkpt lat="42.4813200" lon="-5.8348910">
        <ele>840.7</ele>
        <time>2020-04-09T18:00:01Z</time>
      </trkpt>
      <trkpt lat="42.4812420" lon="-5.8350370">
        <ele>840.7</ele>
        <time>2020-04-09T18:00:03Z</time>
      </trkpt>
      <trkpt lat="42.4811650" lon="-5.8351800">
        <ele>840.7</ele>
        <time>2020-04-09T18:00:05Z</time>
      </trkpt>
      <trkpt lat="42.4809540" lon="-5.8355760">
        <ele>840.7</ele>
        <time>2020-04-09T18:00:07Z</time>
      </trkpt>
      <trkpt lat="42.4808630" lon="-5.8357760">
        <ele>841.3</ele>
        <time>2020-04-09T18:00:09Z</time>
      </trkpt>
      <trkpt lat="42.4807830" lon="-5.8359160">
        <ele>841.6</ele>
        <time>2020-04-09T18:00:11Z</time>
      </trkpt>
      <trkpt lat="42.4806960" lon="-5.8361350">
        <ele>841.9</ele>
        <time>2020-04-09T18:00:13Z</time>
      </trkpt>
      <trkpt lat="42.4805740" lon="-5.8363250">
        <ele>841.9</ele>
        <time>2020-04-09T18:00:15Z</time>
      </trkpt>
      <trkpt lat="42.4804870" lon="-5.8364770">
        <ele>841.7</ele>
        <time>2020-04-09T18:00:17Z</time>
      </trkpt>
      <trkpt lat="42.4804140" lon="-5.8366130">
        <ele>841.4</ele>
        <time>2020-04-09T18:00:19Z</time>
      </trkpt>
      <trkpt lat="42.4803420" lon="-5.8367460">
        <ele>841.2</ele>
        <time>2020-04-09T18:00:21Z</time>
      </trkpt>
      <trkpt lat="42.4802720" lon="-5.8368780">
        <ele>841.1</ele>
        <time>2020-04-09T18:00:23Z</time>
      </trkpt>
      <trkpt lat="42.4802010" lon="-5.8370080">
        <ele>841.0</ele>
        <time>2020-04-09T18:00:25Z</time>
      </trkpt>
      <trkpt lat="42.4800090" lon="-5.8373660">
        <ele>841.0</ele>
        <time>2020-04-09T18:00:27Z</time>
      </trkpt>
      <trkpt lat="42.4799400" lon="-5.8374930">
        <ele>840.9</ele>
        <time>2020-04-09T18:00:29Z</time>
      </trkpt>
      <trkpt lat="42.4798730" lon="-5.8376190">
        <ele>840.9</ele>
        <time>2020-04-09T18:00:31Z</time>
      </trkpt>
      <trkpt lat="42.4798050" lon="-5.8377450">
        <ele>840.9</ele>
        <time>2020-04-09T18:00:33Z</time>
      </trkpt>
      <trkpt lat="42.4797380" lon="-5.8378700">
        <ele>840.9</ele>
        <time>2020-04-09T18:00:35Z</time>
      </trkpt>
      <trkpt lat="42.4795380" lon="-5.8382410">
        <ele>840.9</ele>
        <time>2020-04-09T18:00:37Z</time>
      </trkpt>
      <trkpt lat="42.4794710" lon="-5.8383670">
        <ele>840.9</ele>
        <time>2020-04-09T18:00:39Z</time>
      </trkpt>
      <trkpt lat="42.4794020" lon="-5.8384950">
        <ele>840.9</ele>
        <time>2020-04-09T18:00:41Z</time>
      </trkpt>
      <trkpt lat="42.4793330" lon="-5.8386230">
        <ele>840.9</ele>
        <time>2020-04-09T18:00:43Z</time>
      </trkpt>
      <trkpt lat="42.4792630" lon="-5.8387540">
        <ele>840.9</ele>
        <time>2020-04-09T18:00:45Z</time>
      </trkpt>
      <trkpt lat="42.4791920" lon="-5.8388870">
        <ele>840.9</ele>
        <time>2020-04-09T18:00:47Z</time>
      </trkpt>
      <trkpt lat="42.4789870" lon="-5.8392680">
        <ele>840.9</ele>
        <time>2020-04-09T18:00:49Z</time>
      </trkpt>
      <trkpt lat="42.4789160" lon="-5.8394010">
        <ele>840.9</ele>
        <time>2020-04-09T18:00:51Z</time>
      </trkpt>
      <trkpt lat="42.4788460" lon="-5.8395310">
        <ele>840.9</ele>
        <time>2020-04-09T18:00:53Z</time>
      </trkpt>
      <trkpt lat="42.4787770" lon="-5.8396590">
        <ele>840.9</ele>
        <time>2020-04-09T18:00:55Z</time>
      </trkpt>
      <trkpt lat="42.4787090" lon="-5.8397860">
        <ele>840.9</ele>
        <time>2020-04-09T18:00:57Z</time>
      </trkpt>
      <trkpt lat="42.4785080" lon="-5.8401600">
        <ele>840.8</ele>
        <time>2020-04-09T18:00:59Z</time>
      </trkpt>
      <trkpt lat="42.4784400" lon="-5.8402870">
        <ele>840.6</ele>
        <time>2020-04-09T18:01:01Z</time>
      </trkpt>
      <trkpt lat="42.4783700" lon="-5.8404170">
        <ele>840.4</ele>
        <time>2020-04-09T18:01:03Z</time>
      </trkpt>
      <trkpt lat="42.4782990" lon="-5.8405480">
        <ele>840.2</ele>
        <time>2020-04-09T18:01:05Z</time>
      </trkpt>
      <trkpt lat="42.4782280" lon="-5.8406800">
        <ele>840.0</ele>
        <time>2020-04-09T18:01:07Z</time>
      </trkpt>
      <trkpt lat="42.4780230" lon="-5.8410610">
        <ele>839.8</ele>
        <time>2020-04-09T18:01:09Z</time>
      </trkpt>
      <trkpt lat="42.4779500" lon="-5.8411970">
        <ele>839.8</ele>
        <time>2020-04-09T18:01:11Z</time>
      </trkpt>
      <trkpt lat="42.4778770" lon="-5.8413330">
        <ele>839.7</ele>
        <time>2020-04-09T18:01:13Z</time>
      </trkpt>
      <trkpt lat="42.4778040" lon="-5.8414700">
        <ele>839.6</ele>
        <time>2020-04-09T18:01:15Z</time>
      </trkpt>
      <trkpt lat="42.4777300" lon="-5.8416070">
        <ele>839.4</ele>
        <time>2020-04-09T18:01:17Z</time>
      </trkpt>
      <trkpt lat="42.4775240" lon="-5.8419910">
        <ele>839.0</ele>
        <time>2020-04-09T18:01:19Z</time>
      </trkpt>
      <trkpt lat="42.4774490" lon="-5.8421310">
        <ele>838.9</ele>
        <time>2020-04-09T18:01:21Z</time>
      </trkpt>
      <trkpt lat="42.4773720" lon="-5.8422740">
        <ele>838.8</ele>
        <time>2020-04-09T18:01:23Z</time>
      </trkpt>
      <trkpt lat="42.4772950" lon="-5.8424190">
        <ele>838.8</ele>
        <time>2020-04-09T18:01:25Z</time>
      </trkpt>
      <trkpt lat="42.4772150" lon="-5.8425680">
        <ele>838.8</ele>
        <time>2020-04-09T18:01:27Z</time>
      </trkpt>
      <trkpt lat="42.4770020" lon="-5.8429680">
        <ele>838.7</ele>
        <time>2020-04-09T18:01:29Z</time>
      </trkpt>
      <trkpt lat="42.4769250" lon="-5.8431250">
        <ele>838.6</ele>
        <time>2020-04-09T18:01:31Z</time>
      </trkpt>
      <trkpt lat="42.4768460" lon="-5.8432830">
        <ele>838.3</ele>
        <time>2020-04-09T18:01:33Z</time>
      </trkpt>
      <trkpt lat="42.4766760" lon="-5.8436240">
        <ele>837.1</ele>
        <time>2020-04-09T18:01:35Z</time>
      </trkpt>
      <trkpt lat="42.4765930" lon="-5.8437790">
        <ele>836.5</ele>
        <time>2020-04-09T18:01:37Z</time>
      </trkpt>
      <trkpt lat="42.4765110" lon="-5.8439330">
        <ele>836.1</ele>
        <time>2020-04-09T18:01:39Z</time>
      </trkpt>
      <trkpt lat="42.4764300" lon="-5.8440850">
        <ele>835.8</ele>
        <time>2020-04-09T18:01:41Z</time>
      </trkpt>
      <trkpt lat="42.4763500" lon="-5.8442340">
        <ele>835.4</ele>
        <time>2020-04-09T18:01:43Z</time>
      </trkpt>
      <trkpt lat="42.4761350" lon="-5.8446360">
        <ele>834.8</ele>
        <time>2020-04-09T18:01:45Z</time>
      </trkpt>
      <trkpt lat="42.4760540" lon="-5.8447840">
        <ele>834.7</ele>
        <time>2020-04-09T18:01:47Z</time>
      </trkpt>
      <trkpt lat="42.4759730" lon="-5.8449330">
        <ele>834.5</ele>
        <time>2020-04-09T18:01:49Z</time>
      </trkpt>
      <trkpt lat="42.4758110" lon="-5.8452290">
        <ele>833.7</ele>
        <time>2020-04-09T18:01:51Z</time>
      </trkpt>
      <trkpt lat="42.4756880" lon="-5.8454560">
        <ele>833.2</ele>
        <time>2020-04-09T18:01:53Z</time>
      </trkpt>
      <trkpt lat="42.4756110" lon="-5.8456010">
        <ele>833.2</ele>
        <time>2020-04-09T18:01:55Z</time>
      </trkpt>
      <trkpt lat="42.4755330" lon="-5.8457440">
        <ele>833.3</ele>
        <time>2020-04-09T18:01:57Z</time>
      </trkpt>
      <trkpt lat="42.4754570" lon="-5.8458870">
        <ele>833.3</ele>
        <time>2020-04-09T18:01:59Z</time>
      </trkpt>
      <trkpt lat="42.4753800" lon="-5.8460300">
        <ele>833.0</ele>
        <time>2020-04-09T18:02:01Z</time>
      </trkpt>
      <trkpt lat="42.4751740" lon="-5.8464140">
        <ele>832.7</ele>
        <time>2020-04-09T18:02:03Z</time>
      </trkpt>
      <trkpt lat="42.4750970" lon="-5.8465570">
        <ele>832.7</ele>
        <time>2020-04-09T18:02:05Z</time>
      </trkpt>
      <trkpt lat="42.4750190" lon="-5.8467010">
        <ele>832.7</ele>
        <time>2020-04-09T18:02:07Z</time>
      </trkpt>
      <trkpt lat="42.4749410" lon="-5.8468460">
        <ele>832.7</ele>
        <time>2020-04-09T18:02:09Z</time>
      </trkpt>
      <trkpt lat="42.4748630" lon="-5.8469910">
        <ele>832.7</ele>
        <time>2020-04-09T18:02:11Z</time>
      </trkpt>
      <trkpt lat="42.4746550" lon="-5.8473780">
        <ele>832.7</ele>
        <time>2020-04-09T18:02:13Z</time>
      </trkpt>
      <trkpt lat="42.4745770" lon="-5.8475230">
        <ele>832.7</ele>
        <time>2020-04-09T18:02:15Z</time>
      </trkpt>
      <trkpt lat="42.4744980" lon="-5.8476690">
        <ele>832.7</ele>
        <time>2020-04-09T18:02:17Z</time>
      </trkpt>
      <trkpt lat="42.4744200" lon="-5.8478150">
        <ele>832.7</ele>
        <time>2020-04-09T18:02:19Z</time>
      </trkpt>
      <trkpt lat="42.4743410" lon="-5.8479620">
        <ele>832.6</ele>
        <time>2020-04-09T18:02:21Z</time>
      </trkpt>
      <trkpt lat="42.4741330" lon="-5.8483480">
        <ele>832.0</ele>
        <time>2020-04-09T18:02:23Z</time>
      </trkpt>
      <trkpt lat="42.4740580" lon="-5.8484870">
        <ele>831.8</ele>
        <time>2020-04-09T18:02:25Z</time>
      </trkpt>
      <trkpt lat="42.4739860" lon="-5.8486220">
        <ele>831.8</ele>
        <time>2020-04-09T18:02:27Z</time>
      </trkpt>
      <trkpt lat="42.4739140" lon="-5.8487570">
        <ele>831.8</ele>
        <time>2020-04-09T18:02:29Z</time>
      </trkpt>
      <trkpt lat="42.4737220" lon="-5.8491370">
        <ele>831.7</ele>
        <time>2020-04-09T18:02:31Z</time>
      </trkpt>
      <trkpt lat="42.4736320" lon="-5.8492820">
        <ele>831.5</ele>
        <time>2020-04-09T18:02:33Z</time>
      </trkpt>
      <trkpt lat="42.4735180" lon="-5.8494640">
        <ele>831.3</ele>
        <time>2020-04-09T18:02:35Z</time>
      </trkpt>
      <trkpt lat="42.4734470" lon="-5.8495960">
        <ele>831.1</ele>
        <time>2020-04-09T18:02:37Z</time>
      </trkpt>
      <trkpt lat="42.4733760" lon="-5.8497290">
        <ele>831.0</ele>
        <time>2020-04-09T18:02:39Z</time>
      </trkpt>
      <trkpt lat="42.4733060" lon="-5.8498610">
        <ele>830.9</ele>
        <time>2020-04-09T18:02:41Z</time>
      </trkpt>
      <trkpt lat="42.4732350" lon="-5.8499930">
        <ele>830.8</ele>
        <time>2020-04-09T18:02:43Z</time>
      </trkpt>
      <trkpt lat="42.4731650" lon="-5.8501250">
        <ele>830.8</ele>
        <time>2020-04-09T18:02:45Z</time>
      </trkpt>
      <trkpt lat="42.4729570" lon="-5.8505140">
        <ele>830.8</ele>
        <time>2020-04-09T18:02:47Z</time>
      </trkpt>
      <trkpt lat="42.4728860" lon="-5.8506450">
        <ele>830.8</ele>
        <time>2020-04-09T18:02:49Z</time>
      </trkpt>
      <trkpt lat="42.4728150" lon="-5.8507790">
        <ele>830.8</ele>
        <time>2020-04-09T18:02:51Z</time>
      </trkpt>
      <trkpt lat="42.4727430" lon="-5.8509140">
        <ele>830.8</ele>
        <time>2020-04-09T18:02:53Z</time>
      </trkpt>
      <trkpt lat="42.4726700" lon="-5.8510490">
        <ele>830.8</ele>
        <time>2020-04-09T18:02:55Z</time>
      </trkpt>
      <trkpt lat="42.4724600" lon="-5.8514420">
        <ele>830.6</ele>
        <time>2020-04-09T18:02:57Z</time>
      </trkpt>
      <trkpt lat="42.4723870" lon="-5.8515780">
        <ele>830.6</ele>
        <time>2020-04-09T18:02:59Z</time>
      </trkpt>
      <trkpt lat="42.4723140" lon="-5.8517150">
        <ele>830.6</ele>
        <time>2020-04-09T18:03:01Z</time>
      </trkpt>
      <trkpt lat="42.4722410" lon="-5.8518520">
        <ele>830.6</ele>
        <time>2020-04-09T18:03:03Z</time>
      </trkpt>
      <trkpt lat="42.4721680" lon="-5.8519890">
        <ele>830.6</ele>
        <time>2020-04-09T18:03:05Z</time>
      </trkpt>
      <trkpt lat="42.4719570" lon="-5.8523830">
        <ele>830.3</ele>
        <time>2020-04-09T18:03:07Z</time>
      </trkpt>
      <trkpt lat="42.4718840" lon="-5.8525190">
        <ele>830.2</ele>
        <time>2020-04-09T18:03:09Z</time>
      </trkpt>
      <trkpt lat="42.4718110" lon="-5.8526550">
        <ele>830.2</ele>
        <time>2020-04-09T18:03:11Z</time>
      </trkpt>
      <trkpt lat="42.4717390" lon="-5.8527910">
        <ele>830.2</ele>
        <time>2020-04-09T18:03:13Z</time>
      </trkpt>
      <trkpt lat="42.4716670" lon="-5.8529260">
        <ele>830.2</ele>
        <time>2020-04-09T18:03:15Z</time>
      </trkpt>
      <trkpt lat="42.4715950" lon="-5.8530600">
        <ele>830.1</ele>
        <time>2020-04-09T18:03:17Z</time>
      </trkpt>
      <trkpt lat="42.4713690" lon="-5.8534850">
        <ele>830.0</ele>
        <time>2020-04-09T18:03:19Z</time>
      </trkpt>
      <trkpt lat="42.4712970" lon="-5.8536190">
        <ele>830.0</ele>
        <time>2020-04-09T18:03:21Z</time>
      </trkpt>
      <trkpt lat="42.4712240" lon="-5.8537540">
        <ele>829.9</ele>
        <time>2020-04-09T18:03:23Z</time>
      </trkpt>
      <trkpt lat="42.4711510" lon="-5.8538910">
        <ele>829.9</ele>
        <time>2020-04-09T18:03:25Z</time>
      </trkpt>
      <trkpt lat="42.4710790" lon="-5.8540260">
        <ele>829.9</ele>
        <time>2020-04-09T18:03:27Z</time>
      </trkpt>
      <trkpt lat="42.4708870" lon="-5.8543830">
        <ele>829.9</ele>
        <time>2020-04-09T18:03:29Z</time>
      </trkpt>
      <trkpt lat="42.4708130" lon="-5.8545210">
        <ele>829.7</ele>
        <time>2020-04-09T18:03:31Z</time>
      </trkpt>
      <trkpt lat="42.4707390" lon="-5.8546570">
        <ele>829.5</ele>
        <time>2020-04-09T18:03:33Z</time>
      </trkpt>
      <trkpt lat="42.4706650" lon="-5.8547950">
        <ele>829.3</ele>
        <time>2020-04-09T18:03:35Z</time>
      </trkpt>
      <trkpt lat="42.4705910" lon="-5.8549330">
        <ele>829.2</ele>
        <time>2020-04-09T18:03:37Z</time>
      </trkpt>
      <trkpt lat="42.4703780" lon="-5.8553280">
        <ele>829.6</ele>
        <time>2020-04-09T18:03:39Z</time>
      </trkpt>
      <trkpt lat="42.4703050" lon="-5.8554650">
        <ele>829.8</ele>
        <time>2020-04-09T18:03:41Z</time>
      </trkpt>
      <trkpt lat="42.4702320" lon="-5.8556020">
        <ele>829.9</ele>
        <time>2020-04-09T18:03:43Z</time>
      </trkpt>
      <trkpt lat="42.4701590" lon="-5.8557370">
        <ele>829.9</ele>
        <time>2020-04-09T18:03:45Z</time>
      </trkpt>
      <trkpt lat="42.4700870" lon="-5.8558710">
        <ele>830.0</ele>
        <time>2020-04-09T18:03:47Z</time>
      </trkpt>
      <trkpt lat="42.4700150" lon="-5.8560050">
        <ele>829.9</ele>
        <time>2020-04-09T18:03:49Z</time>
      </trkpt>
      <trkpt lat="42.4698070" lon="-5.8563940">
        <ele>829.8</ele>
        <time>2020-04-09T18:03:51Z</time>
      </trkpt>
      <trkpt lat="42.4697060" lon="-5.8565830">
        <ele>829.7</ele>
        <time>2020-04-09T18:03:53Z</time>
      </trkpt>
      <trkpt lat="42.4696340" lon="-5.8567160">
        <ele>829.7</ele>
        <time>2020-04-09T18:03:55Z</time>
      </trkpt>
      <trkpt lat="42.4695620" lon="-5.8568490">
        <ele>829.7</ele>
        <time>2020-04-09T18:03:57Z</time>
      </trkpt>
      <trkpt lat="42.4694910" lon="-5.8569810">
        <ele>829.6</ele>
        <time>2020-04-09T18:03:59Z</time>
      </trkpt>
      <trkpt lat="42.4693110" lon="-5.8573140">
        <ele>829.5</ele>
        <time>2020-04-09T18:04:01Z</time>
      </trkpt>
      <trkpt lat="42.4692390" lon="-5.8574490">
        <ele>829.5</ele>
        <time>2020-04-09T18:04:03Z</time>
      </trkpt>
      <trkpt lat="42.4691650" lon="-5.8575860">
        <ele>829.5</ele>
        <time>2020-04-09T18:04:05Z</time>
      </trkpt>
      <trkpt lat="42.4690900" lon="-5.8577250">
        <ele>829.5</ele>
        <time>2020-04-09T18:04:07Z</time>
      </trkpt>
      <trkpt lat="42.4690140" lon="-5.8578660">
        <ele>829.4</ele>
        <time>2020-04-09T18:04:09Z</time>
      </trkpt>
      <trkpt lat="42.4688000" lon="-5.8582650">
        <ele>829.0</ele>
        <time>2020-04-09T18:04:11Z</time>
      </trkpt>
      <trkpt lat="42.4686940" lon="-5.8584640">
        <ele>829.0</ele>
        <time>2020-04-09T18:04:13Z</time>
      </trkpt>
      <trkpt lat="42.4686180" lon="-5.8586050">
        <ele>828.7</ele>
        <time>2020-04-09T18:04:15Z</time>
      </trkpt>
      <trkpt lat="42.4685440" lon="-5.8587430">
        <ele>828.5</ele>
        <time>2020-04-09T18:04:17Z</time>
      </trkpt>
      <trkpt lat="42.4684710" lon="-5.8588790">
        <ele>828.3</ele>
        <time>2020-04-09T18:04:19Z</time>
      </trkpt>
      <trkpt lat="42.4682900" lon="-5.8592180">
        <ele>828.1</ele>
        <time>2020-04-09T18:04:21Z</time>
      </trkpt>
      <trkpt lat="42.4682180" lon="-5.8593530">
        <ele>828.1</ele>
        <time>2020-04-09T18:04:23Z</time>
      </trkpt>
      <trkpt lat="42.4681460" lon="-5.8594890">
        <ele>828.0</ele>
        <time>2020-04-09T18:04:25Z</time>
      </trkpt>
      <trkpt lat="42.4680740" lon="-5.8596250">
        <ele>828.0</ele>
        <time>2020-04-09T18:04:27Z</time>
      </trkpt>
      <trkpt lat="42.4680020" lon="-5.8597600">
        <ele>827.9</ele>
        <time>2020-04-09T18:04:29Z</time>
      </trkpt>
      <trkpt lat="42.4679300" lon="-5.8598950">
        <ele>827.9</ele>
        <time>2020-04-09T18:04:31Z</time>
      </trkpt>
      <trkpt lat="42.4677210" lon="-5.8602870">
        <ele>827.7</ele>
        <time>2020-04-09T18:04:33Z</time>
      </trkpt>
      <trkpt lat="42.4676500" lon="-5.8604210">
        <ele>827.7</ele>
        <time>2020-04-09T18:04:35Z</time>
      </trkpt>
      <trkpt lat="42.4675780" lon="-5.8605550">
        <ele>827.8</ele>
        <time>2020-04-09T18:04:37Z</time>
      </trkpt>
      <trkpt lat="42.4675060" lon="-5.8606900">
        <ele>827.8</ele>
        <time>2020-04-09T18:04:39Z</time>
      </trkpt>
      <trkpt lat="42.4674350" lon="-5.8608240">
        <ele>827.8</ele>
        <time>2020-04-09T18:04:41Z</time>
      </trkpt>
      <trkpt lat="42.4672270" lon="-5.8612130">
        <ele>827.9</ele>
        <time>2020-04-09T18:04:43Z</time>
      </trkpt>
      <trkpt lat="42.4671560" lon="-5.8613470">
        <ele>827.8</ele>
        <time>2020-04-09T18:04:45Z</time>
      </trkpt>
      <trkpt lat="42.4670850" lon="-5.8614800">
        <ele>827.8</ele>
        <time>2020-04-09T18:04:47Z</time>
      </trkpt>
      <trkpt lat="42.4670150" lon="-5.8616120">
        <ele>827.8</ele>
        <time>2020-04-09T18:04:49Z</time>
      </trkpt>
      <trkpt lat="42.4669440" lon="-5.8617440">
        <ele>827.7</ele>
        <time>2020-04-09T18:04:51Z</time>
      </trkpt>
      <trkpt lat="42.4667350" lon="-5.8621320">
        <ele>827.7</ele>
        <time>2020-04-09T18:04:53Z</time>
      </trkpt>
      <trkpt lat="42.4666620" lon="-5.8622610">
        <ele>827.8</ele>
        <time>2020-04-09T18:04:55Z</time>
      </trkpt>
      <trkpt lat="42.4665870" lon="-5.8623900">
        <ele>827.9</ele>
        <time>2020-04-09T18:04:57Z</time>
      </trkpt>
      <trkpt lat="42.4665130" lon="-5.8625190">
        <ele>827.9</ele>
        <time>2020-04-09T18:04:59Z</time>
      </trkpt>
      <trkpt lat="42.4663340" lon="-5.8628290">
        <ele>828.0</ele>
        <time>2020-04-09T18:05:01Z</time>
      </trkpt>
      <trkpt lat="42.4662640" lon="-5.8629630">
        <ele>828.0</ele>
        <time>2020-04-09T18:05:03Z</time>
      </trkpt>
      <trkpt lat="42.4661940" lon="-5.8630950">
        <ele>827.9</ele>
        <time>2020-04-09T18:05:05Z</time>
      </trkpt>
      <trkpt lat="42.4661240" lon="-5.8632280">
        <ele>827.8</ele>
        <time>2020-04-09T18:05:07Z</time>
      </trkpt>
      <trkpt lat="42.4659580" lon="-5.8635450">
        <ele>827.5</ele>
        <time>2020-04-09T18:05:09Z</time>
      </trkpt>
      <trkpt lat="42.4658880" lon="-5.8636770">
        <ele>827.3</ele>
        <time>2020-04-09T18:05:11Z</time>
      </trkpt>
      <trkpt lat="42.4658180" lon="-5.8638120">
        <ele>827.2</ele>
        <time>2020-04-09T18:05:13Z</time>
      </trkpt>
      <trkpt lat="42.4657470" lon="-5.8639460">
        <ele>827.0</ele>
        <time>2020-04-09T18:05:15Z</time>
      </trkpt>
      <trkpt lat="42.4655810" lon="-5.8642630">
        <ele>826.9</ele>
        <time>2020-04-09T18:05:17Z</time>
      </trkpt>
      <trkpt lat="42.4655110" lon="-5.8643950">
        <ele>826.9</ele>
        <time>2020-04-09T18:05:19Z</time>
      </trkpt>
      <trkpt lat="42.4654420" lon="-5.8645270">
        <ele>826.9</ele>
        <time>2020-04-09T18:05:21Z</time>
      </trkpt>
      <trkpt lat="42.4653720" lon="-5.8646600">
        <ele>827.0</ele>
        <time>2020-04-09T18:05:23Z</time>
      </trkpt>
      <trkpt lat="42.4652050" lon="-5.8649740">
        <ele>827.2</ele>
        <time>2020-04-09T18:05:25Z</time>
      </trkpt>
      <trkpt lat="42.4651320" lon="-5.8651070">
        <ele>827.3</ele>
        <time>2020-04-09T18:05:27Z</time>
      </trkpt>
      <trkpt lat="42.4650590" lon="-5.8652420">
        <ele>827.3</ele>
        <time>2020-04-09T18:05:29Z</time>
      </trkpt>
      <trkpt lat="42.4649840" lon="-5.8653780">
        <ele>827.3</ele>
        <time>2020-04-09T18:05:31Z</time>
      </trkpt>
      <trkpt lat="42.4649090" lon="-5.8655150">
        <ele>827.2</ele>
        <time>2020-04-09T18:05:33Z</time>
      </trkpt>
      <trkpt lat="42.4647060" lon="-5.8658950">
        <ele>827.3</ele>
        <time>2020-04-09T18:05:35Z</time>
      </trkpt>
      <trkpt lat="42.4646060" lon="-5.8661080">
        <ele>827.4</ele>
        <time>2020-04-09T18:05:37Z</time>
      </trkpt>
      <trkpt lat="42.4645670" lon="-5.8663320">
        <ele>828.1</ele>
        <time>2020-04-09T18:05:39Z</time>
      </trkpt>
      <trkpt lat="42.4645980" lon="-5.8664990">
        <ele>828.7</ele>
        <time>2020-04-09T18:05:41Z</time>
      </trkpt>
      <trkpt lat="42.4646290" lon="-5.8666620">
        <ele>829.0</ele>
        <time>2020-04-09T18:05:43Z</time>
      </trkpt>
      <trkpt lat="42.4646790" lon="-5.8669650">
        <ele>829.2</ele>
        <time>2020-04-09T18:05:45Z</time>
      </trkpt>
      <trkpt lat="42.4647030" lon="-5.8671790">
        <ele>829.1</ele>
        <time>2020-04-09T18:05:47Z</time>
      </trkpt>
      <trkpt lat="42.4647070" lon="-5.8674100">
        <ele>829.0</ele>
        <time>2020-04-09T18:05:49Z</time>
      </trkpt>
      <trkpt lat="42.4646880" lon="-5.8676270">
        <ele>828.8</ele>
        <time>2020-04-09T18:05:51Z</time>
      </trkpt>
      <trkpt lat="42.4646670" lon="-5.8677870">
        <ele>828.7</ele>
        <time>2020-04-09T18:05:53Z</time>
      </trkpt>
      <trkpt lat="42.4646450" lon="-5.8679520">
        <ele>828.7</ele>
        <time>2020-04-09T18:05:55Z</time>
      </trkpt>
      <trkpt lat="42.4646230" lon="-5.8681200">
        <ele>828.8</ele>
        <time>2020-04-09T18:05:57Z</time>
      </trkpt>
      <trkpt lat="42.4646010" lon="-5.8682920">
        <ele>828.9</ele>
        <time>2020-04-09T18:05:59Z</time>
      </trkpt>
      <trkpt lat="42.4645390" lon="-5.8687660">
        <ele>828.8</ele>
        <time>2020-04-09T18:06:01Z</time>
      </trkpt>
      <trkpt lat="42.4645160" lon="-5.8689440">
        <ele>828.6</ele>
        <time>2020-04-09T18:06:03Z</time>
      </trkpt>
      <trkpt lat="42.4644930" lon="-5.8691230">
        <ele>828.5</ele>
        <time>2020-04-09T18:06:05Z</time>
      </trkpt>
      <trkpt lat="42.4644690" lon="-5.8693060">
        <ele>828.7</ele>
        <time>2020-04-09T18:06:07Z</time>
      </trkpt>
      <trkpt lat="42.4644150" lon="-5.8697280">
        <ele>828.5</ele>
        <time>2020-04-09T18:06:09Z</time>
      </trkpt>
      <trkpt lat="42.4643940" lon="-5.8699050">
        <ele>828.2</ele>
        <time>2020-04-09T18:06:11Z</time>
      </trkpt>
      <trkpt lat="42.4643720" lon="-5.8700790">
        <ele>828.0</ele>
        <time>2020-04-09T18:06:13Z</time>
      </trkpt>
      <trkpt lat="42.4643510" lon="-5.8702540">
        <ele>827.8</ele>
        <time>2020-04-09T18:06:15Z</time>
      </trkpt>
      <trkpt lat="42.4643000" lon="-5.8706710">
        <ele>827.4</ele>
        <time>2020-04-09T18:06:17Z</time>
      </trkpt>
      <trkpt lat="42.4642780" lon="-5.8708450">
        <ele>827.3</ele>
        <time>2020-04-09T18:06:19Z</time>
      </trkpt>
      <trkpt lat="42.4642570" lon="-5.8710200">
        <ele>827.3</ele>
        <time>2020-04-09T18:06:21Z</time>
      </trkpt>
      <trkpt lat="42.4642360" lon="-5.8711910">
        <ele>827.2</ele>
        <time>2020-04-09T18:06:23Z</time>
      </trkpt>
      <trkpt lat="42.4641850" lon="-5.8716090">
        <ele>826.9</ele>
        <time>2020-04-09T18:06:25Z</time>
      </trkpt>
      <trkpt lat="42.4641630" lon="-5.8717890">
        <ele>826.8</ele>
        <time>2020-04-09T18:06:27Z</time>
      </trkpt>
      <trkpt lat="42.4641400" lon="-5.8719710">
        <ele>826.6</ele>
        <time>2020-04-09T18:06:29Z</time>
      </trkpt>
      <trkpt lat="42.4640830" lon="-5.8723980">
        <ele>825.9</ele>
        <time>2020-04-09T18:06:31Z</time>
      </trkpt>
      <trkpt lat="42.4640370" lon="-5.8726440">
        <ele>825.5</ele>
        <time>2020-04-09T18:06:33Z</time>
      </trkpt>
      <trkpt lat="42.4639970" lon="-5.8729050">
        <ele>825.2</ele>
        <time>2020-04-09T18:06:35Z</time>
      </trkpt>
      <trkpt lat="42.4639710" lon="-5.8731560">
        <ele>824.9</ele>
        <time>2020-04-09T18:06:37Z</time>
      </trkpt>
      <trkpt lat="42.4639530" lon="-5.8733840">
        <ele>824.5</ele>
        <time>2020-04-09T18:06:39Z</time>
      </trkpt>
      <trkpt lat="42.4639350" lon="-5.8735820">
        <ele>824.2</ele>
        <time>2020-04-09T18:06:41Z</time>
      </trkpt>
      <trkpt lat="42.4639120" lon="-5.8739530">
        <ele>824.3</ele>
        <time>2020-04-09T18:06:43Z</time>
      </trkpt>
      <trkpt lat="42.4639140" lon="-5.8741450">
        <ele>824.4</ele>
        <time>2020-04-09T18:06:45Z</time>
      </trkpt>
      <trkpt lat="42.4639180" lon="-5.8744980">
        <ele>824.7</ele>
        <time>2020-04-09T18:06:47Z</time>
      </trkpt>
      <trkpt lat="42.4639140" lon="-5.8746880">
        <ele>824.9</ele>
        <time>2020-04-09T18:06:49Z</time>
      </trkpt>
      <trkpt lat="42.4639100" lon="-5.8748830">
        <ele>825.0</ele>
        <time>2020-04-09T18:06:51Z</time>
      </trkpt>
      <trkpt lat="42.4639050" lon="-5.8752680">
        <ele>825.2</ele>
        <time>2020-04-09T18:06:53Z</time>
      </trkpt>
      <trkpt lat="42.4639100" lon="-5.8754680">
        <ele>825.4</ele>
        <time>2020-04-09T18:06:55Z</time>
      </trkpt>
      <trkpt lat="42.4639150" lon="-5.8756710">
        <ele>825.5</ele>
        <time>2020-04-09T18:06:57Z</time>
      </trkpt>
      <trkpt lat="42.4639190" lon="-5.8758750">
        <ele>825.6</ele>
        <time>2020-04-09T18:06:59Z</time>
      </trkpt>
      <trkpt lat="42.4639270" lon="-5.8763600">
        <ele>825.6</ele>
        <time>2020-04-09T18:07:01Z</time>
      </trkpt>
      <trkpt lat="42.4639260" lon="-5.8765750">
        <ele>824.9</ele>
        <time>2020-04-09T18:07:03Z</time>
      </trkpt>
      <trkpt lat="42.4639220" lon="-5.8769700">
        <ele>823.5</ele>
        <time>2020-04-09T18:07:05Z</time>
      </trkpt>
      <trkpt lat="42.4639200" lon="-5.8771990">
        <ele>821.7</ele>
        <time>2020-04-09T18:07:07Z</time>
      </trkpt>
      <trkpt lat="42.4639500" lon="-5.8775850">
        <ele>819.1</ele>
        <time>2020-04-09T18:07:09Z</time>
      </trkpt>
      <trkpt lat="42.4639650" lon="-5.8778100">
        <ele>820.2</ele>
        <time>2020-04-09T18:07:11Z</time>
      </trkpt>
      <trkpt lat="42.4639790" lon="-5.8780220">
        <ele>820.9</ele>
        <time>2020-04-09T18:07:13Z</time>
      </trkpt>
      <trkpt lat="42.4640130" lon="-5.8784300">
        <ele>822.0</ele>
        <time>2020-04-09T18:07:15Z</time>
      </trkpt>
      <trkpt lat="42.4640370" lon="-5.8786880">
        <ele>822.6</ele>
        <time>2020-04-09T18:07:17Z</time>
      </trkpt>
      <trkpt lat="42.4640430" lon="-5.8789420">
        <ele>822.7</ele>
        <time>2020-04-09T18:07:19Z</time>
      </trkpt>
      <trkpt lat="42.4640440" lon="-5.8791170">
        <ele>822.7</ele>
        <time>2020-04-09T18:07:21Z</time>
      </trkpt>
      <trkpt lat="42.4640300" lon="-5.8794010">
        <ele>822.5</ele>
        <time>2020-04-09T18:07:23Z</time>
      </trkpt>
      <trkpt lat="42.4640080" lon="-5.8795610">
        <ele>822.3</ele>
        <time>2020-04-09T18:07:25Z</time>
      </trkpt>
      <trkpt lat="42.4639870" lon="-5.8797160">
        <ele>822.2</ele>
        <time>2020-04-09T18:07:27Z</time>
      </trkpt>
      <trkpt lat="42.4639660" lon="-5.8798690">
        <ele>821.8</ele>
        <time>2020-04-09T18:07:29Z</time>
      </trkpt>
      <trkpt lat="42.4639110" lon="-5.8802320">
        <ele>821.2</ele>
        <time>2020-04-09T18:07:31Z</time>
      </trkpt>
      <trkpt lat="42.4638840" lon="-5.8803870">
        <ele>821.2</ele>
        <time>2020-04-09T18:07:33Z</time>
      </trkpt>
      <trkpt lat="42.4638570" lon="-5.8805450">
        <ele>821.3</ele>
        <time>2020-04-09T18:07:35Z</time>
      </trkpt>
      <trkpt lat="42.4638300" lon="-5.8807060">
        <ele>821.4</ele>
        <time>2020-04-09T18:07:37Z</time>
      </trkpt>
      <trkpt lat="42.4637610" lon="-5.8811070">
        <ele>821.8</ele>
        <time>2020-04-09T18:07:39Z</time>
      </trkpt>
      <trkpt lat="42.4637260" lon="-5.8813040">
        <ele>821.9</ele>
        <time>2020-04-09T18:07:41Z</time>
      </trkpt>
      <trkpt lat="42.4636850" lon="-5.8815310">
        <ele>821.9</ele>
        <time>2020-04-09T18:07:44Z</time>
      </trkpt>
      <trkpt lat="42.4636360" lon="-5.8818090">
        <ele>821.9</ele>
        <time>2020-04-09T18:07:46Z</time>
      </trkpt>
      <trkpt lat="42.4636070" lon="-5.8820290">
        <ele>822.3</ele>
        <time>2020-04-09T18:07:48Z</time>
      </trkpt>
      <trkpt lat="42.4635890" lon="-5.8822110">
        <ele>822.4</ele>
        <time>2020-04-09T18:07:50Z</time>
      </trkpt>
      <trkpt lat="42.4635710" lon="-5.8823920">
        <ele>822.5</ele>
        <time>2020-04-09T18:07:52Z</time>
      </trkpt>
      <trkpt lat="42.4635470" lon="-5.8827530">
        <ele>822.3</ele>
        <time>2020-04-09T18:07:54Z</time>
      </trkpt>
      <trkpt lat="42.4635430" lon="-5.8829390">
        <ele>822.2</ele>
        <time>2020-04-09T18:07:56Z</time>
      </trkpt>
      <trkpt lat="42.4635390" lon="-5.8831280">
        <ele>822.0</ele>
        <time>2020-04-09T18:07:58Z</time>
      </trkpt>
      <trkpt lat="42.4635290" lon="-5.8835660">
        <ele>821.9</ele>
        <time>2020-04-09T18:08:00Z</time>
      </trkpt>
      <trkpt lat="42.4635150" lon="-5.8837540">
        <ele>822.0</ele>
        <time>2020-04-09T18:08:02Z</time>
      </trkpt>
      <trkpt lat="42.4635010" lon="-5.8839430">
        <ele>822.0</ele>
        <time>2020-04-09T18:08:04Z</time>
      </trkpt>
      <trkpt lat="42.4634870" lon="-5.8841330">
        <ele>822.1</ele>
        <time>2020-04-09T18:08:06Z</time>
      </trkpt>
      <trkpt lat="42.4634540" lon="-5.8845700">
        <ele>822.5</ele>
        <time>2020-04-09T18:08:08Z</time>
      </trkpt>
      <trkpt lat="42.4634380" lon="-5.8847580">
        <ele>822.7</ele>
        <time>2020-04-09T18:08:10Z</time>
      </trkpt>
      <trkpt lat="42.4634230" lon="-5.8849450">
        <ele>823.0</ele>
        <time>2020-04-09T18:08:12Z</time>
      </trkpt>
      <trkpt lat="42.4633800" lon="-5.8853170">
        <ele>823.3</ele>
        <time>2020-04-09T18:08:14Z</time>
      </trkpt>
      <trkpt lat="42.4633380" lon="-5.8855620">
        <ele>823.3</ele>
        <time>2020-04-09T18:08:16Z</time>
      </trkpt>
      <trkpt lat="42.4633160" lon="-5.8858170">
        <ele>823.3</ele>
        <time>2020-04-09T18:08:18Z</time>
      </trkpt>
      <trkpt lat="42.4633090" lon="-5.8860110">
        <ele>823.3</ele>
        <time>2020-04-09T18:08:20Z</time>
      </trkpt>
      <trkpt lat="42.4633020" lon="-5.8862090">
        <ele>823.3</ele>
        <time>2020-04-09T18:08:22Z</time>
      </trkpt>
      <trkpt lat="42.4632950" lon="-5.8864080">
        <ele>823.3</ele>
        <time>2020-04-09T18:08:24Z</time>
      </trkpt>
      <trkpt lat="42.4632650" lon="-5.8868960">
        <ele>823.0</ele>
        <time>2020-04-09T18:08:26Z</time>
      </trkpt>
      <trkpt lat="42.4632270" lon="-5.8870910">
        <ele>822.6</ele>
        <time>2020-04-09T18:08:28Z</time>
      </trkpt>
      <trkpt lat="42.4631580" lon="-5.8874200">
        <ele>821.8</ele>
        <time>2020-04-09T18:08:30Z</time>
      </trkpt>
      <trkpt lat="42.4631100" lon="-5.8876160">
        <ele>821.3</ele>
        <time>2020-04-09T18:08:32Z</time>
      </trkpt>
      <trkpt lat="42.4630630" lon="-5.8878100">
        <ele>820.9</ele>
        <time>2020-04-09T18:08:34Z</time>
      </trkpt>
      <trkpt lat="42.4630940" lon="-5.8881180">
        <ele>820.5</ele>
        <time>2020-04-09T18:08:36Z</time>
      </trkpt>
      <trkpt lat="42.4632330" lon="-5.8881900">
        <ele>820.7</ele>
        <time>2020-04-09T18:08:38Z</time>
      </trkpt>
      <trkpt lat="42.4633690" lon="-5.8882590">
        <ele>820.8</ele>
        <time>2020-04-09T18:08:40Z</time>
      </trkpt>
      <trkpt lat="42.4635010" lon="-5.8883270">
        <ele>820.8</ele>
        <time>2020-04-09T18:08:42Z</time>
      </trkpt>
      <trkpt lat="42.4638370" lon="-5.8885130">
        <ele>820.9</ele>
        <time>2020-04-09T18:08:44Z</time>
      </trkpt>
      <trkpt lat="42.4639650" lon="-5.8886570">
        <ele>821.0</ele>
        <time>2020-04-09T18:08:46Z</time>
      </trkpt>
      <trkpt lat="42.4640730" lon="-5.8888310">
        <ele>821.0</ele>
        <time>2020-04-09T18:08:48Z</time>
      </trkpt>
      <trkpt lat="42.4641560" lon="-5.8889740">
        <ele>820.9</ele>
        <time>2020-04-09T18:08:50Z</time>
      </trkpt>
      <trkpt lat="42.4642390" lon="-5.8891160">
        <ele>820.8</ele>
        <time>2020-04-09T18:08:52Z</time>
      </trkpt>
      <trkpt lat="42.4643220" lon="-5.8892580">
        <ele>820.6</ele>
        <time>2020-04-09T18:08:54Z</time>
      </trkpt>
      <trkpt lat="42.4645410" lon="-5.8896310">
        <ele>820.3</ele>
        <time>2020-04-09T18:08:56Z</time>
      </trkpt>
      <trkpt lat="42.4646230" lon="-5.8897710">
        <ele>820.5</ele>
        <time>2020-04-09T18:08:58Z</time>
      </trkpt>
      <trkpt lat="42.4647040" lon="-5.8899100">
        <ele>820.7</ele>
        <time>2020-04-09T18:09:00Z</time>
      </trkpt>
      <trkpt lat="42.4647850" lon="-5.8900490">
        <ele>821.0</ele>
        <time>2020-04-09T18:09:02Z</time>
      </trkpt>
      <trkpt lat="42.4648650" lon="-5.8901860">
        <ele>821.2</ele>
        <time>2020-04-09T18:09:04Z</time>
      </trkpt>
      <trkpt lat="42.4650800" lon="-5.8905530">
        <ele>821.4</ele>
        <time>2020-04-09T18:09:06Z</time>
      </trkpt>
      <trkpt lat="42.4651590" lon="-5.8906880">
        <ele>821.4</ele>
        <time>2020-04-09T18:09:08Z</time>
      </trkpt>
      <trkpt lat="42.4652380" lon="-5.8908230">
        <ele>821.3</ele>
        <time>2020-04-09T18:09:10Z</time>
      </trkpt>
      <trkpt lat="42.4653170" lon="-5.8909570">
        <ele>821.2</ele>
        <time>2020-04-09T18:09:12Z</time>
      </trkpt>
      <trkpt lat="42.4653950" lon="-5.8910900">
        <ele>821.2</ele>
        <time>2020-04-09T18:09:14Z</time>
      </trkpt>
      <trkpt lat="42.4656080" lon="-5.8914540">
        <ele>821.1</ele>
        <time>2020-04-09T18:09:16Z</time>
      </trkpt>
      <trkpt lat="42.4656860" lon="-5.8915870">
        <ele>821.3</ele>
        <time>2020-04-09T18:09:18Z</time>
      </trkpt>
      <trkpt lat="42.4657630" lon="-5.8917190">
        <ele>821.6</ele>
        <time>2020-04-09T18:09:20Z</time>
      </trkpt>
      <trkpt lat="42.4658400" lon="-5.8918510">
        <ele>821.8</ele>
        <time>2020-04-09T18:09:22Z</time>
      </trkpt>
      <trkpt lat="42.4660520" lon="-5.8922130">
        <ele>822.4</ele>
        <time>2020-04-09T18:09:24Z</time>
      </trkpt>
      <trkpt lat="42.4661230" lon="-5.8923510">
        <ele>822.2</ele>
        <time>2020-04-09T18:09:26Z</time>
      </trkpt>
      <trkpt lat="42.4661940" lon="-5.8924870">
        <ele>822.1</ele>
        <time>2020-04-09T18:09:28Z</time>
      </trkpt>
      <trkpt lat="42.4662650" lon="-5.8926240">
        <ele>822.0</ele>
        <time>2020-04-09T18:09:30Z</time>
      </trkpt>
      <trkpt lat="42.4664340" lon="-5.8929510">
        <ele>821.9</ele>
        <time>2020-04-09T18:09:32Z</time>
      </trkpt>
      <trkpt lat="42.4665050" lon="-5.8930870">
        <ele>821.9</ele>
        <time>2020-04-09T18:09:34Z</time>
      </trkpt>
      <trkpt lat="42.4665750" lon="-5.8932230">
        <ele>821.9</ele>
        <time>2020-04-09T18:09:36Z</time>
      </trkpt>
      <trkpt lat="42.4666450" lon="-5.8933570">
        <ele>821.9</ele>
        <time>2020-04-09T18:09:38Z</time>
      </trkpt>
      <trkpt lat="42.4668120" lon="-5.8936790">
        <ele>821.8</ele>
        <time>2020-04-09T18:09:40Z</time>
      </trkpt>
      <trkpt lat="42.4668810" lon="-5.8938140">
        <ele>821.7</ele>
        <time>2020-04-09T18:09:42Z</time>
      </trkpt>
      <trkpt lat="42.4669500" lon="-5.8939460">
        <ele>821.6</ele>
        <time>2020-04-09T18:09:44Z</time>
      </trkpt>
      <trkpt lat="42.4670190" lon="-5.8940790">
        <ele>821.5</ele>
        <time>2020-04-09T18:09:46Z</time>
      </trkpt>
      <trkpt lat="42.4671810" lon="-5.8944040">
        <ele>820.9</ele>
        <time>2020-04-09T18:09:48Z</time>
      </trkpt>
      <trkpt lat="42.4672200" lon="-5.8946080">
        <ele>820.7</ele>
        <time>2020-04-09T18:09:50Z</time>
      </trkpt>
      <trkpt lat="42.4672120" lon="-5.8948170">
        <ele>820.8</ele>
        <time>2020-04-09T18:09:52Z</time>
      </trkpt>
      <trkpt lat="42.4671980" lon="-5.8949920">
        <ele>820.9</ele>
        <time>2020-04-09T18:09:54Z</time>
      </trkpt>
      <trkpt lat="42.4671830" lon="-5.8951750">
        <ele>821.0</ele>
        <time>2020-04-09T18:09:56Z</time>
      </trkpt>
      <trkpt lat="42.4671680" lon="-5.8953630">
        <ele>821.0</ele>
        <time>2020-04-09T18:09:58Z</time>
      </trkpt>
      <trkpt lat="42.4671120" lon="-5.8958410">
        <ele>821.0</ele>
        <time>2020-04-09T18:10:00Z</time>
      </trkpt>
      <trkpt lat="42.4671350" lon="-5.8960340">
        <ele>820.8</ele>
        <time>2020-04-09T18:10:02Z</time>
      </trkpt>
      <trkpt lat="42.4671570" lon="-5.8962250">
        <ele>820.6</ele>
        <time>2020-04-09T18:10:04Z</time>
      </trkpt>
      <trkpt lat="42.4671790" lon="-5.8964130">
        <ele>820.5</ele>
        <time>2020-04-09T18:10:06Z</time>
      </trkpt>
      <trkpt lat="42.4672010" lon="-5.8965990">
        <ele>820.4</ele>
        <time>2020-04-09T18:10:08Z</time>
      </trkpt>
      <trkpt lat="42.4672570" lon="-5.8970860">
        <ele>820.0</ele>
        <time>2020-04-09T18:10:10Z</time>
      </trkpt>
      <trkpt lat="42.4672780" lon="-5.8972690">
        <ele>820.0</ele>
        <time>2020-04-09T18:10:12Z</time>
      </trkpt>
      <trkpt lat="42.4672990" lon="-5.8974500">
        <ele>820.1</ele>
        <time>2020-04-09T18:10:14Z</time>
      </trkpt>
      <trkpt lat="42.4673200" lon="-5.8976290">
        <ele>820.3</ele>
        <time>2020-04-09T18:10:16Z</time>
      </trkpt>
      <trkpt lat="42.4673410" lon="-5.8978080">
        <ele>820.5</ele>
        <time>2020-04-09T18:10:18Z</time>
      </trkpt>
      <trkpt lat="42.4673970" lon="-5.8982870">
        <ele>821.0</ele>
        <time>2020-04-09T18:10:20Z</time>
      </trkpt>
      <trkpt lat="42.4674170" lon="-5.8984620">
        <ele>821.0</ele>
        <time>2020-04-09T18:10:22Z</time>
      </trkpt>
      <trkpt lat="42.4674370" lon="-5.8986340">
        <ele>821.0</ele>
        <time>2020-04-09T18:10:24Z</time>
      </trkpt>
      <trkpt lat="42.4674570" lon="-5.8988080">
        <ele>821.1</ele>
        <time>2020-04-09T18:10:26Z</time>
      </trkpt>
      <trkpt lat="42.4674770" lon="-5.8989780">
        <ele>821.1</ele>
        <time>2020-04-09T18:10:28Z</time>
      </trkpt>
      <trkpt lat="42.4675320" lon="-5.8994500">
        <ele>821.1</ele>
        <time>2020-04-09T18:10:30Z</time>
      </trkpt>
      <trkpt lat="42.4675510" lon="-5.8996180">
        <ele>820.7</ele>
        <time>2020-04-09T18:10:32Z</time>
      </trkpt>
      <trkpt lat="42.4675710" lon="-5.8997850">
        <ele>820.2</ele>
        <time>2020-04-09T18:10:34Z</time>
      </trkpt>
      <trkpt lat="42.4675900" lon="-5.8999490">
        <ele>820.2</ele>
        <time>2020-04-09T18:10:36Z</time>
      </trkpt>
      <trkpt lat="42.4676090" lon="-5.9001130">
        <ele>820.6</ele>
        <time>2020-04-09T18:10:38Z</time>
      </trkpt>
      <trkpt lat="42.4676630" lon="-5.9005790">
        <ele>822.0</ele>
        <time>2020-04-09T18:10:40Z</time>
      </trkpt>
      <trkpt lat="42.4676820" lon="-5.9007430">
        <ele>822.1</ele>
        <time>2020-04-09T18:10:42Z</time>
      </trkpt>
      <trkpt lat="42.4677010" lon="-5.9009080">
        <ele>821.9</ele>
        <time>2020-04-09T18:10:44Z</time>
      </trkpt>
      <trkpt lat="42.4677210" lon="-5.9010750">
        <ele>821.7</ele>
        <time>2020-04-09T18:10:46Z</time>
      </trkpt>
      <trkpt lat="42.4677400" lon="-5.9012410">
        <ele>821.5</ele>
        <time>2020-04-09T18:10:48Z</time>
      </trkpt>
      <trkpt lat="42.4677950" lon="-5.9017120">
        <ele>821.5</ele>
        <time>2020-04-09T18:10:50Z</time>
      </trkpt>
      <trkpt lat="42.4678140" lon="-5.9018800">
        <ele>821.5</ele>
        <time>2020-04-09T18:10:52Z</time>
      </trkpt>
      <trkpt lat="42.4678340" lon="-5.9020490">
        <ele>821.4</ele>
        <time>2020-04-09T18:10:54Z</time>
      </trkpt>
      <trkpt lat="42.4678530" lon="-5.9022180">
        <ele>821.1</ele>
        <time>2020-04-09T18:10:56Z</time>
      </trkpt>
      <trkpt lat="42.4678730" lon="-5.9023860">
        <ele>820.8</ele>
        <time>2020-04-09T18:10:58Z</time>
      </trkpt>
      <trkpt lat="42.4679280" lon="-5.9028580">
        <ele>821.7</ele>
        <time>2020-04-09T18:11:00Z</time>
      </trkpt>
      <trkpt lat="42.4679470" lon="-5.9030250">
        <ele>821.9</ele>
        <time>2020-04-09T18:11:02Z</time>
      </trkpt>
      <trkpt lat="42.4679660" lon="-5.9031890">
        <ele>822.1</ele>
        <time>2020-04-09T18:11:04Z</time>
      </trkpt>
      <trkpt lat="42.4679850" lon="-5.9033510">
        <ele>822.4</ele>
        <time>2020-04-09T18:11:06Z</time>
      </trkpt>
      <trkpt lat="42.4680040" lon="-5.9035130">
        <ele>822.8</ele>
        <time>2020-04-09T18:11:08Z</time>
      </trkpt>
      <trkpt lat="42.4680560" lon="-5.9039770">
        <ele>823.9</ele>
        <time>2020-04-09T18:11:10Z</time>
      </trkpt>
      <trkpt lat="42.4680690" lon="-5.9041360">
        <ele>823.9</ele>
        <time>2020-04-09T18:11:12Z</time>
      </trkpt>
      <trkpt lat="42.4680830" lon="-5.9042940">
        <ele>823.9</ele>
        <time>2020-04-09T18:11:14Z</time>
      </trkpt>
      <trkpt lat="42.4680960" lon="-5.9044510">
        <ele>823.9</ele>
        <time>2020-04-09T18:11:16Z</time>
      </trkpt>
      <trkpt lat="42.4681090" lon="-5.9046090">
        <ele>823.9</ele>
        <time>2020-04-09T18:11:18Z</time>
      </trkpt>
      <trkpt lat="42.4681450" lon="-5.9050300">
        <ele>824.0</ele>
        <time>2020-04-09T18:11:20Z</time>
      </trkpt>
      <trkpt lat="42.4681590" lon="-5.9051890">
        <ele>824.4</ele>
        <time>2020-04-09T18:11:22Z</time>
      </trkpt>
      <trkpt lat="42.4681720" lon="-5.9053490">
        <ele>824.9</ele>
        <time>2020-04-09T18:11:24Z</time>
      </trkpt>
      <trkpt lat="42.4681860" lon="-5.9055090">
        <ele>824.8</ele>
        <time>2020-04-09T18:11:26Z</time>
      </trkpt>
      <trkpt lat="42.4682220" lon="-5.9059340">
        <ele>824.6</ele>
        <time>2020-04-09T18:11:28Z</time>
      </trkpt>
      <trkpt lat="42.4682360" lon="-5.9060970">
        <ele>824.5</ele>
        <time>2020-04-09T18:11:30Z</time>
      </trkpt>
      <trkpt lat="42.4682500" lon="-5.9062600">
        <ele>824.4</ele>
        <time>2020-04-09T18:11:32Z</time>
      </trkpt>
      <trkpt lat="42.4682640" lon="-5.9064240">
        <ele>824.2</ele>
        <time>2020-04-09T18:11:34Z</time>
      </trkpt>
      <trkpt lat="42.4682780" lon="-5.9065890">
        <ele>824.1</ele>
        <time>2020-04-09T18:11:36Z</time>
      </trkpt>
      <trkpt lat="42.4683140" lon="-5.9070150">
        <ele>823.8</ele>
        <time>2020-04-09T18:11:38Z</time>
      </trkpt>
      <trkpt lat="42.4683280" lon="-5.9071760">
        <ele>823.8</ele>
        <time>2020-04-09T18:11:40Z</time>
      </trkpt>
      <trkpt lat="42.4683410" lon="-5.9073350">
        <ele>823.8</ele>
        <time>2020-04-09T18:11:42Z</time>
      </trkpt>
      <trkpt lat="42.4683540" lon="-5.9074910">
        <ele>823.9</ele>
        <time>2020-04-09T18:11:44Z</time>
      </trkpt>
      <trkpt lat="42.4683680" lon="-5.9076460">
        <ele>824.0</ele>
        <time>2020-04-09T18:11:46Z</time>
      </trkpt>
      <trkpt lat="42.4683960" lon="-5.9080630">
        <ele>824.5</ele>
        <time>2020-04-09T18:11:48Z</time>
      </trkpt>
      <trkpt lat="42.4683940" lon="-5.9083110">
        <ele>825.0</ele>
        <time>2020-04-09T18:11:50Z</time>
      </trkpt>
      <trkpt lat="42.4684270" lon="-5.9084950">
        <ele>825.4</ele>
        <time>2020-04-09T18:11:52Z</time>
      </trkpt>
      <trkpt lat="42.4684600" lon="-5.9086410">
        <ele>825.6</ele>
        <time>2020-04-09T18:11:54Z</time>
      </trkpt>
      <trkpt lat="42.4685210" lon="-5.9088980">
        <ele>825.9</ele>
        <time>2020-04-09T18:11:56Z</time>
      </trkpt>
      <trkpt lat="42.4685630" lon="-5.9090370">
        <ele>826.4</ele>
        <time>2020-04-09T18:11:58Z</time>
      </trkpt>
      <trkpt lat="42.4686040" lon="-5.9091760">
        <ele>827.0</ele>
        <time>2020-04-09T18:12:00Z</time>
      </trkpt>
      <trkpt lat="42.4686460" lon="-5.9093160">
        <ele>827.3</ele>
        <time>2020-04-09T18:12:02Z</time>
      </trkpt>
      <trkpt lat="42.4686870" lon="-5.9094540">
        <ele>827.6</ele>
        <time>2020-04-09T18:12:04Z</time>
      </trkpt>
      <trkpt lat="42.4687850" lon="-5.9098430">
        <ele>828.3</ele>
        <time>2020-04-09T18:12:06Z</time>
      </trkpt>
      <trkpt lat="42.4688420" lon="-5.9099690">
        <ele>828.4</ele>
        <time>2020-04-09T18:12:08Z</time>
      </trkpt>
      <trkpt lat="42.4688990" lon="-5.9100950">
        <ele>828.5</ele>
        <time>2020-04-09T18:12:10Z</time>
      </trkpt>
      <trkpt lat="42.4690370" lon="-5.9102870">
        <ele>828.7</ele>
        <time>2020-04-09T18:12:12Z</time>
      </trkpt>
      <trkpt lat="42.4691320" lon="-5.9103580">
        <ele>828.7</ele>
        <time>2020-04-09T18:12:14Z</time>
      </trkpt>
      <trkpt lat="42.4693150" lon="-5.9104620">
        <ele>828.7</ele>
        <time>2020-04-09T18:12:16Z</time>
      </trkpt>
      <trkpt lat="42.4694250" lon="-5.9104670">
        <ele>828.8</ele>
        <time>2020-04-09T18:12:18Z</time>
      </trkpt>
      <trkpt lat="42.4696240" lon="-5.9105330">
        <ele>828.9</ele>
        <time>2020-04-09T18:12:20Z</time>
      </trkpt>
      <trkpt lat="42.4697180" lon="-5.9106230">
        <ele>828.9</ele>
        <time>2020-04-09T18:12:22Z</time>
      </trkpt>
      <trkpt lat="42.4698410" lon="-5.9107870">
        <ele>829.0</ele>
        <time>2020-04-09T18:12:24Z</time>
      </trkpt>
      <trkpt lat="42.4698870" lon="-5.9109340">
        <ele>829.0</ele>
        <time>2020-04-09T18:12:26Z</time>
      </trkpt>
      <trkpt lat="42.4699810" lon="-5.9111580">
        <ele>829.0</ele>
        <time>2020-04-09T18:12:28Z</time>
      </trkpt>
      <trkpt lat="42.4700920" lon="-5.9113240">
        <ele>829.1</ele>
        <time>2020-04-09T18:12:30Z</time>
      </trkpt>
      <trkpt lat="42.4702300" lon="-5.9114870">
        <ele>829.1</ele>
        <time>2020-04-09T18:12:32Z</time>
      </trkpt>
      <trkpt lat="42.4703670" lon="-5.9115900">
        <ele>829.1</ele>
        <time>2020-04-09T18:12:34Z</time>
      </trkpt>
      <trkpt lat="42.4703210" lon="-5.9117420">
        <ele>829.1</ele>
        <time>2020-04-09T18:12:36Z</time>
      </trkpt>
      <trkpt lat="42.4702760" lon="-5.9118920">
        <ele>829.1</ele>
        <time>2020-04-09T18:12:38Z</time>
      </trkpt>
      <trkpt lat="42.4702020" lon="-5.9122110">
        <ele>829.1</ele>
        <time>2020-04-09T18:12:40Z</time>
      </trkpt>
      <trkpt lat="42.4702620" lon="-5.9123790">
        <ele>829.1</ele>
        <time>2020-04-09T18:12:42Z</time>
      </trkpt>
      <trkpt lat="42.4703540" lon="-5.9125550">
        <ele>829.1</ele>
        <time>2020-04-09T18:12:44Z</time>
      </trkpt>
      <trkpt lat="42.4704250" lon="-5.9126820">
        <ele>829.2</ele>
        <time>2020-04-09T18:12:46Z</time>
      </trkpt>
      <trkpt lat="42.4704950" lon="-5.9128060">
        <ele>829.4</ele>
        <time>2020-04-09T18:12:48Z</time>
      </trkpt>
      <trkpt lat="42.4705630" lon="-5.9129270">
        <ele>829.6</ele>
        <time>2020-04-09T18:12:50Z</time>
      </trkpt>
      <trkpt lat="42.4706300" lon="-5.9130460">
        <ele>829.9</ele>
        <time>2020-04-09T18:12:52Z</time>
      </trkpt>
      <trkpt lat="42.4706960" lon="-5.9131640">
        <ele>830.2</ele>
        <time>2020-04-09T18:12:54Z</time>
      </trkpt>
      <trkpt lat="42.4707660" lon="-5.9135300">
        <ele>830.9</ele>
        <time>2020-04-09T18:12:56Z</time>
      </trkpt>
      <trkpt lat="42.4707060" lon="-5.9136780">
        <ele>831.4</ele>
        <time>2020-04-09T18:12:58Z</time>
      </trkpt>
      <trkpt lat="42.4706520" lon="-5.9137980">
        <ele>831.6</ele>
        <time>2020-04-09T18:13:00Z</time>
      </trkpt>
      <trkpt lat="42.4705850" lon="-5.9140150">
        <ele>831.9</ele>
        <time>2020-04-09T18:13:02Z</time>
      </trkpt>
      <trkpt lat="42.4705590" lon="-5.9141450">
        <ele>832.2</ele>
        <time>2020-04-09T18:13:04Z</time>
      </trkpt>
      <trkpt lat="42.4705760" lon="-5.9143590">
        <ele>832.9</ele>
        <time>2020-04-09T18:13:06Z</time>
      </trkpt>
      <trkpt lat="42.4706130" lon="-5.9144780">
        <ele>833.2</ele>
        <time>2020-04-09T18:13:08Z</time>
      </trkpt>
      <trkpt lat="42.4706490" lon="-5.9145980">
        <ele>833.4</ele>
        <time>2020-04-09T18:13:10Z</time>
      </trkpt>
      <trkpt lat="42.4706850" lon="-5.9147150">
        <ele>833.5</ele>
        <time>2020-04-09T18:13:12Z</time>
      </trkpt>
      <trkpt lat="42.4707210" lon="-5.9148310">
        <ele>833.6</ele>
        <time>2020-04-09T18:13:14Z</time>
      </trkpt>
      <trkpt lat="42.4707700" lon="-5.9151800">
        <ele>833.6</ele>
        <time>2020-04-09T18:13:16Z</time>
      </trkpt>
      <trkpt lat="42.4706770" lon="-5.9152440">
        <ele>833.8</ele>
        <time>2020-04-09T18:13:18Z</time>
      </trkpt>
      <trkpt lat="42.4705950" lon="-5.9152940">
        <ele>834.1</ele>
        <time>2020-04-09T18:13:20Z</time>
      </trkpt>
      <trkpt lat="42.4705150" lon="-5.9153440">
        <ele>834.4</ele>
        <time>2020-04-09T18:13:22Z</time>
      </trkpt>
      <trkpt lat="42.4703520" lon="-5.9154730">
        <ele>835.2</ele>
        <time>2020-04-09T18:13:24Z</time>
      </trkpt>
      <trkpt lat="42.4702790" lon="-5.9155960">
        <ele>835.4</ele>
        <time>2020-04-09T18:13:26Z</time>
      </trkpt>
      <trkpt lat="42.4702330" lon="-5.9156950">
        <ele>835.5</ele>
        <time>2020-04-09T18:13:28Z</time>
      </trkpt>
      <trkpt lat="42.4701870" lon="-5.9157940">
        <ele>835.6</ele>
        <time>2020-04-09T18:13:30Z</time>
      </trkpt>
      <trkpt lat="42.4700780" lon="-5.9160060">
        <ele>836.1</ele>
        <time>2020-04-09T18:13:32Z</time>
      </trkpt>
      <trkpt lat="42.4699970" lon="-5.9160480">
        <ele>836.5</ele>
        <time>2020-04-09T18:13:34Z</time>
      </trkpt>
      <trkpt lat="42.4699150" lon="-5.9160910">
        <ele>836.8</ele>
        <time>2020-04-09T18:13:36Z</time>
      </trkpt>
      <trkpt lat="42.4697630" lon="-5.9161760">
        <ele>836.7</ele>
        <time>2020-04-09T18:13:38Z</time>
      </trkpt>
      <trkpt lat="42.4696740" lon="-5.9162800">
        <ele>836.7</ele>
        <time>2020-04-09T18:13:40Z</time>
      </trkpt>
      <trkpt lat="42.4696210" lon="-5.9163810">
        <ele>837.1</ele>
        <time>2020-04-09T18:13:42Z</time>
      </trkpt>
      <trkpt lat="42.4695170" lon="-5.9165410">
        <ele>838.1</ele>
        <time>2020-04-09T18:13:44Z</time>
      </trkpt>
      <trkpt lat="42.4694430" lon="-5.9166130">
        <ele>838.4</ele>
        <time>2020-04-09T18:13:46Z</time>
      </trkpt>
      <trkpt lat="42.4693690" lon="-5.9166850">
        <ele>838.7</ele>
        <time>2020-04-09T18:13:48Z</time>
      </trkpt>
      <trkpt lat="42.4692930" lon="-5.9167570">
        <ele>838.9</ele>
        <time>2020-04-09T18:13:50Z</time>
      </trkpt>
      <trkpt lat="42.4691080" lon="-5.9169360">
        <ele>839.2</ele>
        <time>2020-04-09T18:13:52Z</time>
      </trkpt>
      <trkpt lat="42.4690340" lon="-5.9170080">
        <ele>839.4</ele>
        <time>2020-04-09T18:13:54Z</time>
      </trkpt>
      <trkpt lat="42.4689580" lon="-5.9170800">
        <ele>839.7</ele>
        <time>2020-04-09T18:13:56Z</time>
      </trkpt>
      <trkpt lat="42.4688830" lon="-5.9171530">
        <ele>839.9</ele>
        <time>2020-04-09T18:13:58Z</time>
      </trkpt>
      <trkpt lat="42.4686990" lon="-5.9173330">
        <ele>840.3</ele>
        <time>2020-04-09T18:14:00Z</time>
      </trkpt>
      <trkpt lat="42.4686270" lon="-5.9174130">
        <ele>840.6</ele>
        <time>2020-04-09T18:14:02Z</time>
      </trkpt>
      <trkpt lat="42.4685080" lon="-5.9175530">
        <ele>841.1</ele>
        <time>2020-04-09T18:14:04Z</time>
      </trkpt>
      <trkpt lat="42.4684450" lon="-5.9176450">
        <ele>841.4</ele>
        <time>2020-04-09T18:14:06Z</time>
      </trkpt>
      <trkpt lat="42.4683820" lon="-5.9177390">
        <ele>841.7</ele>
        <time>2020-04-09T18:14:08Z</time>
      </trkpt>
      <trkpt lat="42.4682420" lon="-5.9178790">
        <ele>842.2</ele>
        <time>2020-04-09T18:14:10Z</time>
      </trkpt>
      <trkpt lat="42.4680820" lon="-5.9179320">
        <ele>842.3</ele>
        <time>2020-04-09T18:14:12Z</time>
      </trkpt>
      <trkpt lat="42.4679770" lon="-5.9179640">
        <ele>842.3</ele>
        <time>2020-04-09T18:14:14Z</time>
      </trkpt>
      <trkpt lat="42.4678700" lon="-5.9179950">
        <ele>842.3</ele>
        <time>2020-04-09T18:14:16Z</time>
      </trkpt>
      <trkpt lat="42.4677610" lon="-5.9180280">
        <ele>842.4</ele>
        <time>2020-04-09T18:14:18Z</time>
      </trkpt>
      <trkpt lat="42.4676510" lon="-5.9180610">
        <ele>842.4</ele>
        <time>2020-04-09T18:14:20Z</time>
      </trkpt>
      <trkpt lat="42.4675390" lon="-5.9180940">
        <ele>842.2</ele>
        <time>2020-04-09T18:14:22Z</time>
      </trkpt>
      <trkpt lat="42.4672290" lon="-5.9181860">
        <ele>841.5</ele>
        <time>2020-04-09T18:14:24Z</time>
      </trkpt>
      <trkpt lat="42.4671150" lon="-5.9182200">
        <ele>841.5</ele>
        <time>2020-04-09T18:14:26Z</time>
      </trkpt>
      <trkpt lat="42.4669990" lon="-5.9182550">
        <ele>841.6</ele>
        <time>2020-04-09T18:14:28Z</time>
      </trkpt>
      <trkpt lat="42.4668820" lon="-5.9182890">
        <ele>841.6</ele>
        <time>2020-04-09T18:14:30Z</time>
      </trkpt>
      <trkpt lat="42.4665680" lon="-5.9183830">
        <ele>841.3</ele>
        <time>2020-04-09T18:14:32Z</time>
      </trkpt>
      <trkpt lat="42.4664470" lon="-5.9184190">
        <ele>841.0</ele>
        <time>2020-04-09T18:14:34Z</time>
      </trkpt>
      <trkpt lat="42.4663270" lon="-5.9184550">
        <ele>840.6</ele>
        <time>2020-04-09T18:14:36Z</time>
      </trkpt>
      <trkpt lat="42.4662080" lon="-5.9184900">
        <ele>840.3</ele>
        <time>2020-04-09T18:14:38Z</time>
      </trkpt>
      <trkpt lat="42.4660870" lon="-5.9185260">
        <ele>839.9</ele>
        <time>2020-04-09T18:14:40Z</time>
      </trkpt>
      <trkpt lat="42.4657710" lon="-5.9186200">
        <ele>838.9</ele>
        <time>2020-04-09T18:14:42Z</time>
      </trkpt>
      <trkpt lat="42.4656530" lon="-5.9186550">
        <ele>838.7</ele>
        <time>2020-04-09T18:14:44Z</time>
      </trkpt>
      <trkpt lat="42.4655380" lon="-5.9186900">
        <ele>838.7</ele>
        <time>2020-04-09T18:14:46Z</time>
      </trkpt>
      <trkpt lat="42.4654250" lon="-5.9187230">
        <ele>838.7</ele>
        <time>2020-04-09T18:14:48Z</time>
      </trkpt>
      <trkpt lat="42.4653140" lon="-5.9187560">
        <ele>838.6</ele>
        <time>2020-04-09T18:14:50Z</time>
      </trkpt>
      <trkpt lat="42.4650090" lon="-5.9188470">
        <ele>838.2</ele>
        <time>2020-04-09T18:14:52Z</time>
      </trkpt>
      <trkpt lat="42.4649000" lon="-5.9188780">
        <ele>838.0</ele>
        <time>2020-04-09T18:14:54Z</time>
      </trkpt>
      <trkpt lat="42.4647930" lon="-5.9189100">
        <ele>837.9</ele>
        <time>2020-04-09T18:14:56Z</time>
      </trkpt>
      <trkpt lat="42.4646840" lon="-5.9189420">
        <ele>837.8</ele>
        <time>2020-04-09T18:14:58Z</time>
      </trkpt>
      <trkpt lat="42.4643920" lon="-5.9190270">
        <ele>837.8</ele>
        <time>2020-04-09T18:15:00Z</time>
      </trkpt>
      <trkpt lat="42.4642860" lon="-5.9190580">
        <ele>837.8</ele>
        <time>2020-04-09T18:15:02Z</time>
      </trkpt>
      <trkpt lat="42.4641850" lon="-5.9190880">
        <ele>837.8</ele>
        <time>2020-04-09T18:15:04Z</time>
      </trkpt>
      <trkpt lat="42.4640860" lon="-5.9191170">
        <ele>837.8</ele>
        <time>2020-04-09T18:15:06Z</time>
      </trkpt>
      <trkpt lat="42.4639900" lon="-5.9191450">
        <ele>837.8</ele>
        <time>2020-04-09T18:15:08Z</time>
      </trkpt>
      <trkpt lat="42.4638960" lon="-5.9191730">
        <ele>837.8</ele>
        <time>2020-04-09T18:15:10Z</time>
      </trkpt>
      <trkpt lat="42.4637000" lon="-5.9193480">
        <ele>838.1</ele>
        <time>2020-04-09T18:15:12Z</time>
      </trkpt>
      <trkpt lat="42.4637040" lon="-5.9195580">
        <ele>838.8</ele>
        <time>2020-04-09T18:15:14Z</time>
      </trkpt>
      <trkpt lat="42.4637140" lon="-5.9196730">
        <ele>839.5</ele>
        <time>2020-04-09T18:15:16Z</time>
      </trkpt>
      <trkpt lat="42.4637230" lon="-5.9197660">
        <ele>840.1</ele>
        <time>2020-04-09T18:15:18Z</time>
      </trkpt>
      <trkpt lat="42.4637300" lon="-5.9198430">
        <ele>840.6</ele>
        <time>2020-04-09T18:15:20Z</time>
      </trkpt>
      <trkpt lat="42.4637360" lon="-5.9199090">
        <ele>841.0</ele>
        <time>2020-04-09T18:15:22Z</time>
      </trkpt>
      <trkpt lat="42.4637420" lon="-5.9199680">
        <ele>841.3</ele>
        <time>2020-04-09T18:15:24Z</time>
      </trkpt>
      <trkpt lat="42.4637470" lon="-5.9200240">
        <ele>841.7</ele>
        <time>2020-04-09T18:15:26Z</time>
      </trkpt>
      <trkpt lat="42.4637520" lon="-5.9200770">
        <ele>842.0</ele>
        <time>2020-04-09T18:15:28Z</time>
      </trkpt>
      <trkpt lat="42.4637570" lon="-5.9201300">
        <ele>842.3</ele>
        <time>2020-04-09T18:15:30Z</time>
      </trkpt>
      <trkpt lat="42.4637620" lon="-5.9201830">
        <ele>842.7</ele>
        <time>2020-04-09T18:15:32Z</time>
      </trkpt>
      <trkpt lat="42.4637910" lon="-5.9204840">
        <ele>845.7</ele>
        <time>2020-04-09T18:15:34Z</time>
      </trkpt>
      <trkpt lat="42.4638070" lon="-5.9205330">
        <ele>846.3</ele>
        <time>2020-04-09T18:15:36Z</time>
      </trkpt>
      <trkpt lat="42.4638220" lon="-5.9205810">
        <ele>847.0</ele>
        <time>2020-04-09T18:15:38Z</time>
      </trkpt>
      <trkpt lat="42.4638370" lon="-5.9206300">
        <ele>847.7</ele>
        <time>2020-04-09T18:15:40Z</time>
      </trkpt>
      <trkpt lat="42.4638520" lon="-5.9206790">
        <ele>848.4</ele>
        <time>2020-04-09T18:15:42Z</time>
      </trkpt>
      <trkpt lat="42.4638680" lon="-5.9207270">
        <ele>849.1</ele>
        <time>2020-04-09T18:15:44Z</time>
      </trkpt>
      <trkpt lat="42.4638830" lon="-5.9207750">
        <ele>849.7</ele>
        <time>2020-04-09T18:15:46Z</time>
      </trkpt>
      <trkpt lat="42.4638980" lon="-5.9208240">
        <ele>850.4</ele>
        <time>2020-04-09T18:15:48Z</time>
      </trkpt>
      <trkpt lat="42.4639130" lon="-5.9208720">
        <ele>851.0</ele>
        <time>2020-04-09T18:15:50Z</time>
      </trkpt>
      <trkpt lat="42.4639280" lon="-5.9209200">
        <ele>851.5</ele>
        <time>2020-04-09T18:15:52Z</time>
      </trkpt>
      <trkpt lat="42.4639430" lon="-5.9209680">
        <ele>852.1</ele>
        <time>2020-04-09T18:15:54Z</time>
      </trkpt>
      <trkpt lat="42.4639580" lon="-5.9210150">
        <ele>852.7</ele>
        <time>2020-04-09T18:15:56Z</time>
      </trkpt>
      <trkpt lat="42.4640370" lon="-5.9212640">
        <ele>855.6</ele>
        <time>2020-04-09T18:15:58Z</time>
      </trkpt>
      <trkpt lat="42.4640550" lon="-5.9213220">
        <ele>856.2</ele>
        <time>2020-04-09T18:16:00Z</time>
      </trkpt>
      <trkpt lat="42.4640750" lon="-5.9213870">
        <ele>857.0</ele>
        <time>2020-04-09T18:16:02Z</time>
      </trkpt>
      <trkpt lat="42.4640970" lon="-5.9214560">
        <ele>857.8</ele>
        <time>2020-04-09T18:16:04Z</time>
      </trkpt>
      <trkpt lat="42.4641190" lon="-5.9215260">
        <ele>858.6</ele>
        <time>2020-04-09T18:16:06Z</time>
      </trkpt>
      <trkpt lat="42.4641410" lon="-5.9215950">
        <ele>859.3</ele>
        <time>2020-04-09T18:16:08Z</time>
      </trkpt>
      <trkpt lat="42.4641630" lon="-5.9216650">
        <ele>860.1</ele>
        <time>2020-04-09T18:16:10Z</time>
      </trkpt>
      <trkpt lat="42.4641850" lon="-5.9217350">
        <ele>860.9</ele>
        <time>2020-04-09T18:16:12Z</time>
      </trkpt>
      <trkpt lat="42.4642070" lon="-5.9218050">
        <ele>861.5</ele>
        <time>2020-04-09T18:16:14Z</time>
      </trkpt>
      <trkpt lat="42.4642930" lon="-5.9220770">
        <ele>863.2</ele>
        <time>2020-04-09T18:16:16Z</time>
      </trkpt>
      <trkpt lat="42.4643150" lon="-5.9221470">
        <ele>863.6</ele>
        <time>2020-04-09T18:16:18Z</time>
      </trkpt>
      <trkpt lat="42.4643370" lon="-5.9222170">
        <ele>863.9</ele>
        <time>2020-04-09T18:16:20Z</time>
      </trkpt>
      <trkpt lat="42.4643590" lon="-5.9222870">
        <ele>864.3</ele>
        <time>2020-04-09T18:16:22Z</time>
      </trkpt>
      <trkpt lat="42.4643810" lon="-5.9223570">
        <ele>864.7</ele>
        <time>2020-04-09T18:16:24Z</time>
      </trkpt>
      <trkpt lat="42.4644030" lon="-5.9224270">
        <ele>865.1</ele>
        <time>2020-04-09T18:16:26Z</time>
      </trkpt>
      <trkpt lat="42.4644250" lon="-5.9224970">
        <ele>865.7</ele>
        <time>2020-04-09T18:16:28Z</time>
      </trkpt>
      <trkpt lat="42.4644470" lon="-5.9225670">
        <ele>866.2</ele>
        <time>2020-04-09T18:16:30Z</time>
      </trkpt>
      <trkpt lat="42.4645290" lon="-5.9228400">
        <ele>868.2</ele>
        <time>2020-04-09T18:16:32Z</time>
      </trkpt>
      <trkpt lat="42.4645460" lon="-5.9229130">
        <ele>868.6</ele>
        <time>2020-04-09T18:16:34Z</time>
      </trkpt>
      <trkpt lat="42.4645660" lon="-5.9230320">
        <ele>869.3</ele>
        <time>2020-04-09T18:16:36Z</time>
      </trkpt>
      <trkpt lat="42.4645740" lon="-5.9231070">
        <ele>869.7</ele>
        <time>2020-04-09T18:16:38Z</time>
      </trkpt>
      <trkpt lat="42.4645780" lon="-5.9232420">
        <ele>870.3</ele>
        <time>2020-04-09T18:16:40Z</time>
      </trkpt>
      <trkpt lat="42.4645750" lon="-5.9233460">
        <ele>870.7</ele>
        <time>2020-04-09T18:16:42Z</time>
      </trkpt>
      <trkpt lat="42.4645710" lon="-5.9234620">
        <ele>871.2</ele>
        <time>2020-04-09T18:16:44Z</time>
      </trkpt>
      <trkpt lat="42.4645680" lon="-5.9235850">
        <ele>871.7</ele>
        <time>2020-04-09T18:16:46Z</time>
      </trkpt>
      <trkpt lat="42.4645520" lon="-5.9238970">
        <ele>872.6</ele>
        <time>2020-04-09T18:16:48Z</time>
      </trkpt>
      <trkpt lat="42.4645240" lon="-5.9240260">
        <ele>872.6</ele>
        <time>2020-04-09T18:16:50Z</time>
      </trkpt>
      <trkpt lat="42.4644620" lon="-5.9242080">
        <ele>872.3</ele>
        <time>2020-04-09T18:16:52Z</time>
      </trkpt>
      <trkpt lat="42.4644110" lon="-5.9243350">
        <ele>871.9</ele>
        <time>2020-04-09T18:16:54Z</time>
      </trkpt>
      <trkpt lat="42.4643580" lon="-5.9244660">
        <ele>871.2</ele>
        <time>2020-04-09T18:16:56Z</time>
      </trkpt>
      <trkpt lat="42.4642570" lon="-5.9247540">
        <ele>869.6</ele>
        <time>2020-04-09T18:16:58Z</time>
      </trkpt>
      <trkpt lat="42.4642040" lon="-5.9249320">
        <ele>868.3</ele>
        <time>2020-04-09T18:17:00Z</time>
      </trkpt>
      <trkpt lat="42.4641430" lon="-5.9251330">
        <ele>866.8</ele>
        <time>2020-04-09T18:17:02Z</time>
      </trkpt>
      <trkpt lat="42.4639980" lon="-5.9256070">
        <ele>862.6</ele>
        <time>2020-04-09T18:17:04Z</time>
      </trkpt>
      <trkpt lat="42.4639020" lon="-5.9258310">
        <ele>860.7</ele>
        <time>2020-04-09T18:17:06Z</time>
      </trkpt>
      <trkpt lat="42.4637350" lon="-5.9262150">
        <ele>857.8</ele>
        <time>2020-04-09T18:17:08Z</time>
      </trkpt>
      <trkpt lat="42.4636250" lon="-5.9264490">
        <ele>856.5</ele>
        <time>2020-04-09T18:17:10Z</time>
      </trkpt>
      <trkpt lat="42.4635140" lon="-5.9266850">
        <ele>855.5</ele>
        <time>2020-04-09T18:17:12Z</time>
      </trkpt>
      <trkpt lat="42.4632950" lon="-5.9271330">
        <ele>853.6</ele>
        <time>2020-04-09T18:17:14Z</time>
      </trkpt>
      <trkpt lat="42.4631770" lon="-5.9273620">
        <ele>852.5</ele>
        <time>2020-04-09T18:17:16Z</time>
      </trkpt>
      <trkpt lat="42.4629650" lon="-5.9277700">
        <ele>850.5</ele>
        <time>2020-04-09T18:17:18Z</time>
      </trkpt>
      <trkpt lat="42.4628530" lon="-5.9279880">
        <ele>849.6</ele>
        <time>2020-04-09T18:17:20Z</time>
      </trkpt>
      <trkpt lat="42.4626510" lon="-5.9283740">
        <ele>848.8</ele>
        <time>2020-04-09T18:17:22Z</time>
      </trkpt>
      <trkpt lat="42.4624890" lon="-5.9285940">
        <ele>848.1</ele>
        <time>2020-04-09T18:17:24Z</time>
      </trkpt>
      <trkpt lat="42.4622980" lon="-5.9287030">
        <ele>847.6</ele>
        <time>2020-04-09T18:17:26Z</time>
      </trkpt>
      <trkpt lat="42.4620980" lon="-5.9287320">
        <ele>847.0</ele>
        <time>2020-04-09T18:17:28Z</time>
      </trkpt>
      <trkpt lat="42.4618390" lon="-5.9287580">
        <ele>846.7</ele>
        <time>2020-04-09T18:17:30Z</time>
      </trkpt>
      <trkpt lat="42.4616890" lon="-5.9287960">
        <ele>846.5</ele>
        <time>2020-04-09T18:17:32Z</time>
      </trkpt>
      <trkpt lat="42.4615440" lon="-5.9288330">
        <ele>846.3</ele>
        <time>2020-04-09T18:17:34Z</time>
      </trkpt>
      <trkpt lat="42.4612820" lon="-5.9289000">
        <ele>846.1</ele>
        <time>2020-04-09T18:17:36Z</time>
      </trkpt>
      <trkpt lat="42.4611480" lon="-5.9289340">
        <ele>846.1</ele>
        <time>2020-04-09T18:17:38Z</time>
      </trkpt>
      <trkpt lat="42.4608960" lon="-5.9290010">
        <ele>846.1</ele>
        <time>2020-04-09T18:17:40Z</time>
      </trkpt>
      <trkpt lat="42.4607720" lon="-5.9290430">
        <ele>846.2</ele>
        <time>2020-04-09T18:17:42Z</time>
      </trkpt>
      <trkpt lat="42.4605920" lon="-5.9291500">
        <ele>846.5</ele>
        <time>2020-04-09T18:17:44Z</time>
      </trkpt>
      <trkpt lat="42.4605150" lon="-5.9292730">
        <ele>846.6</ele>
        <time>2020-04-09T18:17:46Z</time>
      </trkpt>
      <trkpt lat="42.4603790" lon="-5.9294760">
        <ele>847.0</ele>
        <time>2020-04-09T18:17:48Z</time>
      </trkpt>
      <trkpt lat="42.4602690" lon="-5.9295770">
        <ele>847.2</ele>
        <time>2020-04-09T18:17:50Z</time>
      </trkpt>
      <trkpt lat="42.4601750" lon="-5.9296540">
        <ele>847.6</ele>
        <time>2020-04-09T18:17:52Z</time>
      </trkpt>
      <trkpt lat="42.4600850" lon="-5.9297280">
        <ele>848.0</ele>
        <time>2020-04-09T18:17:54Z</time>
      </trkpt>
      <trkpt lat="42.4598920" lon="-5.9298960">
        <ele>848.7</ele>
        <time>2020-04-09T18:17:56Z</time>
      </trkpt>
      <trkpt lat="42.4598020" lon="-5.9299830">
        <ele>848.8</ele>
        <time>2020-04-09T18:17:58Z</time>
      </trkpt>
      <trkpt lat="42.4596230" lon="-5.9301380">
        <ele>849.1</ele>
        <time>2020-04-09T18:18:00Z</time>
      </trkpt>
      <trkpt lat="42.4595050" lon="-5.9301770">
        <ele>849.2</ele>
        <time>2020-04-09T18:18:02Z</time>
      </trkpt>
      <trkpt lat="42.4593070" lon="-5.9302200">
        <ele>849.1</ele>
        <time>2020-04-09T18:18:04Z</time>
      </trkpt>
      <trkpt lat="42.4591770" lon="-5.9302200">
        <ele>849.0</ele>
        <time>2020-04-09T18:18:06Z</time>
      </trkpt>
      <trkpt lat="42.4589770" lon="-5.9302030">
        <ele>848.7</ele>
        <time>2020-04-09T18:18:08Z</time>
      </trkpt>
      <trkpt lat="42.4587900" lon="-5.9302120">
        <ele>848.8</ele>
        <time>2020-04-09T18:18:10Z</time>
      </trkpt>
      <trkpt lat="42.4586700" lon="-5.9302750">
        <ele>849.1</ele>
        <time>2020-04-09T18:18:12Z</time>
      </trkpt>
      <trkpt lat="42.4585570" lon="-5.9302950">
        <ele>849.1</ele>
        <time>2020-04-09T18:18:14Z</time>
      </trkpt>
      <trkpt lat="42.4584140" lon="-5.9303910">
        <ele>849.2</ele>
        <time>2020-04-09T18:18:16Z</time>
      </trkpt>
      <trkpt lat="42.4584230" lon="-5.9305350">
        <ele>850.0</ele>
        <time>2020-04-09T18:18:18Z</time>
      </trkpt>
      <trkpt lat="42.4584310" lon="-5.9306750">
        <ele>850.4</ele>
        <time>2020-04-09T18:18:20Z</time>
      </trkpt>
      <trkpt lat="42.4584960" lon="-5.9309550">
        <ele>851.4</ele>
        <time>2020-04-09T18:18:22Z</time>
      </trkpt>
      <trkpt lat="42.4585600" lon="-5.9310540">
        <ele>851.8</ele>
        <time>2020-04-09T18:18:24Z</time>
      </trkpt>
      <trkpt lat="42.4586200" lon="-5.9311480">
        <ele>852.2</ele>
        <time>2020-04-09T18:18:26Z</time>
      </trkpt>
      <trkpt lat="42.4586780" lon="-5.9312370">
        <ele>852.6</ele>
        <time>2020-04-09T18:18:28Z</time>
      </trkpt>
      <trkpt lat="42.4587820" lon="-5.9314520">
        <ele>853.3</ele>
        <time>2020-04-09T18:18:30Z</time>
      </trkpt>
      <trkpt lat="42.4588140" lon="-5.9315530">
        <ele>853.6</ele>
        <time>2020-04-09T18:18:32Z</time>
      </trkpt>
      <trkpt lat="42.4588440" lon="-5.9316510">
        <ele>853.7</ele>
        <time>2020-04-09T18:18:34Z</time>
      </trkpt>
      <trkpt lat="42.4589180" lon="-5.9318790">
        <ele>854.0</ele>
        <time>2020-04-09T18:18:36Z</time>
      </trkpt>
      <trkpt lat="42.4589570" lon="-5.9319660">
        <ele>854.2</ele>
        <time>2020-04-09T18:18:38Z</time>
      </trkpt>
      <trkpt lat="42.4589960" lon="-5.9320530">
        <ele>854.6</ele>
        <time>2020-04-09T18:18:40Z</time>
      </trkpt>
      <trkpt lat="42.4590730" lon="-5.9322010">
        <ele>855.3</ele>
        <time>2020-04-09T18:18:42Z</time>
      </trkpt>
      <trkpt lat="42.4591200" lon="-5.9322790">
        <ele>855.6</ele>
        <time>2020-04-09T18:18:44Z</time>
      </trkpt>
      <trkpt lat="42.4591680" lon="-5.9323570">
        <ele>855.9</ele>
        <time>2020-04-09T18:18:46Z</time>
      </trkpt>
      <trkpt lat="42.4592150" lon="-5.9324340">
        <ele>856.2</ele>
        <time>2020-04-09T18:18:48Z</time>
      </trkpt>
      <trkpt lat="42.4592630" lon="-5.9325130">
        <ele>856.5</ele>
        <time>2020-04-09T18:18:50Z</time>
      </trkpt>
      <trkpt lat="42.4593110" lon="-5.9325910">
        <ele>856.7</ele>
        <time>2020-04-09T18:18:52Z</time>
      </trkpt>
      <trkpt lat="42.4594640" lon="-5.9328430">
        <ele>858.7</ele>
        <time>2020-04-09T18:18:54Z</time>
      </trkpt>
      <trkpt lat="42.4595120" lon="-5.9329210">
        <ele>859.2</ele>
        <time>2020-04-09T18:18:56Z</time>
      </trkpt>
      <trkpt lat="42.4595580" lon="-5.9329970">
        <ele>859.7</ele>
        <time>2020-04-09T18:18:58Z</time>
      </trkpt>
      <trkpt lat="42.4596040" lon="-5.9330730">
        <ele>860.1</ele>
        <time>2020-04-09T18:19:00Z</time>
      </trkpt>
      <trkpt lat="42.4596500" lon="-5.9331480">
        <ele>860.5</ele>
        <time>2020-04-09T18:19:02Z</time>
      </trkpt>
      <trkpt lat="42.4596950" lon="-5.9332220">
        <ele>860.8</ele>
        <time>2020-04-09T18:19:04Z</time>
      </trkpt>
      <trkpt lat="42.4598440" lon="-5.9334710">
        <ele>861.6</ele>
        <time>2020-04-09T18:19:06Z</time>
      </trkpt>
      <trkpt lat="42.4598780" lon="-5.9335590">
        <ele>861.8</ele>
        <time>2020-04-09T18:19:08Z</time>
      </trkpt>
      <trkpt lat="42.4599120" lon="-5.9336500">
        <ele>862.0</ele>
        <time>2020-04-09T18:19:10Z</time>
      </trkpt>
      <trkpt lat="42.4599480" lon="-5.9337440">
        <ele>862.2</ele>
        <time>2020-04-09T18:19:12Z</time>
      </trkpt>
      <trkpt lat="42.4599840" lon="-5.9338370">
        <ele>862.4</ele>
        <time>2020-04-09T18:19:14Z</time>
      </trkpt>
      <trkpt lat="42.4600760" lon="-5.9340790">
        <ele>862.7</ele>
        <time>2020-04-09T18:19:16Z</time>
      </trkpt>
      <trkpt lat="42.4601120" lon="-5.9341750">
        <ele>862.8</ele>
        <time>2020-04-09T18:19:18Z</time>
      </trkpt>
      <trkpt lat="42.4601490" lon="-5.9342710">
        <ele>863.0</ele>
        <time>2020-04-09T18:19:20Z</time>
      </trkpt>
      <trkpt lat="42.4601860" lon="-5.9343680">
        <ele>863.2</ele>
        <time>2020-04-09T18:19:22Z</time>
      </trkpt>
      <trkpt lat="42.4602830" lon="-5.9346100">
        <ele>863.8</ele>
        <time>2020-04-09T18:19:24Z</time>
      </trkpt>
      <trkpt lat="42.4603380" lon="-5.9346920">
        <ele>863.8</ele>
        <time>2020-04-09T18:19:26Z</time>
      </trkpt>
      <trkpt lat="42.4604310" lon="-5.9348160">
        <ele>863.9</ele>
        <time>2020-04-09T18:19:28Z</time>
      </trkpt>
      <trkpt lat="42.4604960" lon="-5.9348870">
        <ele>864.0</ele>
        <time>2020-04-09T18:19:30Z</time>
      </trkpt>
      <trkpt lat="42.4605620" lon="-5.9349610">
        <ele>864.1</ele>
        <time>2020-04-09T18:19:32Z</time>
      </trkpt>
      <trkpt lat="42.4606980" lon="-5.9351200">
        <ele>864.3</ele>
        <time>2020-04-09T18:19:34Z</time>
      </trkpt>
      <trkpt lat="42.4607580" lon="-5.9352060">
        <ele>864.4</ele>
        <time>2020-04-09T18:19:36Z</time>
      </trkpt>
      <trkpt lat="42.4608190" lon="-5.9352910">
        <ele>864.7</ele>
        <time>2020-04-09T18:19:38Z</time>
      </trkpt>
      <trkpt lat="42.4609430" lon="-5.9354770">
        <ele>865.1</ele>
        <time>2020-04-09T18:19:40Z</time>
      </trkpt>
      <trkpt lat="42.4609940" lon="-5.9355780">
        <ele>865.3</ele>
        <time>2020-04-09T18:19:42Z</time>
      </trkpt>
      <trkpt lat="42.4610460" lon="-5.9356830">
        <ele>865.9</ele>
        <time>2020-04-09T18:19:44Z</time>
      </trkpt>
      <trkpt lat="42.4611570" lon="-5.9358970">
        <ele>866.9</ele>
        <time>2020-04-09T18:19:46Z</time>
      </trkpt>
      <trkpt lat="42.4612190" lon="-5.9359970">
        <ele>866.9</ele>
        <time>2020-04-09T18:19:48Z</time>
      </trkpt>
      <trkpt lat="42.4612820" lon="-5.9360980">
        <ele>867.0</ele>
        <time>2020-04-09T18:19:50Z</time>
      </trkpt>
      <trkpt lat="42.4613460" lon="-5.9362010">
        <ele>867.1</ele>
        <time>2020-04-09T18:19:52Z</time>
      </trkpt>
      <trkpt lat="42.4614100" lon="-5.9363040">
        <ele>867.2</ele>
        <time>2020-04-09T18:19:54Z</time>
      </trkpt>
      <trkpt lat="42.4615620" lon="-5.9365810">
        <ele>867.8</ele>
        <time>2020-04-09T18:19:56Z</time>
      </trkpt>
      <trkpt lat="42.4616130" lon="-5.9367020">
        <ele>868.1</ele>
        <time>2020-04-09T18:19:58Z</time>
      </trkpt>
      <trkpt lat="42.4616820" lon="-5.9369140">
        <ele>868.5</ele>
        <time>2020-04-09T18:20:00Z</time>
      </trkpt>
      <trkpt lat="42.4617140" lon="-5.9370410">
        <ele>868.8</ele>
        <time>2020-04-09T18:20:02Z</time>
      </trkpt>
      <trkpt lat="42.4617460" lon="-5.9371650">
        <ele>868.9</ele>
        <time>2020-04-09T18:20:04Z</time>
      </trkpt>
      <trkpt lat="42.4618350" lon="-5.9374490">
        <ele>869.3</ele>
        <time>2020-04-09T18:20:06Z</time>
      </trkpt>
      <trkpt lat="42.4618930" lon="-5.9375490">
        <ele>869.5</ele>
        <time>2020-04-09T18:20:08Z</time>
      </trkpt>
      <trkpt lat="42.4619500" lon="-5.9376460">
        <ele>869.7</ele>
        <time>2020-04-09T18:20:10Z</time>
      </trkpt>
      <trkpt lat="42.4620050" lon="-5.9377420">
        <ele>869.9</ele>
        <time>2020-04-09T18:20:12Z</time>
      </trkpt>
      <trkpt lat="42.4621320" lon="-5.9379440">
        <ele>870.2</ele>
        <time>2020-04-09T18:20:14Z</time>
      </trkpt>
      <trkpt lat="42.4621950" lon="-5.9380330">
        <ele>870.3</ele>
        <time>2020-04-09T18:20:16Z</time>
      </trkpt>
      <trkpt lat="42.4622580" lon="-5.9381220">
        <ele>870.5</ele>
        <time>2020-04-09T18:20:18Z</time>
      </trkpt>
      <trkpt lat="42.4624040" lon="-5.9383240">
        <ele>870.8</ele>
        <time>2020-04-09T18:20:20Z</time>
      </trkpt>
      <trkpt lat="42.4624770" lon="-5.9384010">
        <ele>870.9</ele>
        <time>2020-04-09T18:20:22Z</time>
      </trkpt>
      <trkpt lat="42.4625510" lon="-5.9384790">
        <ele>871.1</ele>
        <time>2020-04-09T18:20:24Z</time>
      </trkpt>
      <trkpt lat="42.4626250" lon="-5.9385560">
        <ele>871.3</ele>
        <time>2020-04-09T18:20:26Z</time>
      </trkpt>
      <trkpt lat="42.4627000" lon="-5.9386340">
        <ele>871.6</ele>
        <time>2020-04-09T18:20:28Z</time>
      </trkpt>
      <trkpt lat="42.4628890" lon="-5.9388220">
        <ele>872.5</ele>
        <time>2020-04-09T18:20:30Z</time>
      </trkpt>
      <trkpt lat="42.4629700" lon="-5.9388950">
        <ele>872.9</ele>
        <time>2020-04-09T18:20:32Z</time>
      </trkpt>
      <trkpt lat="42.4630520" lon="-5.9389690">
        <ele>873.4</ele>
        <time>2020-04-09T18:20:34Z</time>
      </trkpt>
      <trkpt lat="42.4631350" lon="-5.9390440">
        <ele>874.3</ele>
        <time>2020-04-09T18:20:36Z</time>
      </trkpt>
      <trkpt lat="42.4632200" lon="-5.9391200">
        <ele>875.2</ele>
        <time>2020-04-09T18:20:38Z</time>
      </trkpt>
      <trkpt lat="42.4634570" lon="-5.9393490">
        <ele>877.2</ele>
        <time>2020-04-09T18:20:40Z</time>
      </trkpt>
      <trkpt lat="42.4635310" lon="-5.9394460">
        <ele>877.6</ele>
        <time>2020-04-09T18:20:42Z</time>
      </trkpt>
      <trkpt lat="42.4636050" lon="-5.9395420">
        <ele>878.3</ele>
        <time>2020-04-09T18:20:44Z</time>
      </trkpt>
      <trkpt lat="42.4636820" lon="-5.9396420">
        <ele>878.8</ele>
        <time>2020-04-09T18:20:46Z</time>
      </trkpt>
      <trkpt lat="42.4638550" lon="-5.9398820">
        <ele>878.0</ele>
        <time>2020-04-09T18:20:48Z</time>
      </trkpt>
      <trkpt lat="42.4639230" lon="-5.9399920">
        <ele>876.9</ele>
        <time>2020-04-09T18:20:50Z</time>
      </trkpt>
      <trkpt lat="42.4640290" lon="-5.9401880">
        <ele>875.4</ele>
        <time>2020-04-09T18:20:52Z</time>
      </trkpt>
      <trkpt lat="42.4640820" lon="-5.9403080">
        <ele>874.5</ele>
        <time>2020-04-09T18:20:54Z</time>
      </trkpt>
      <trkpt lat="42.4641330" lon="-5.9404240">
        <ele>873.8</ele>
        <time>2020-04-09T18:20:56Z</time>
      </trkpt>
      <trkpt lat="42.4641830" lon="-5.9405380">
        <ele>873.0</ele>
        <time>2020-04-09T18:20:58Z</time>
      </trkpt>
      <trkpt lat="42.4642330" lon="-5.9406510">
        <ele>871.9</ele>
        <time>2020-04-09T18:21:00Z</time>
      </trkpt>
      <trkpt lat="42.4642810" lon="-5.9407610">
        <ele>871.0</ele>
        <time>2020-04-09T18:21:02Z</time>
      </trkpt>
      <trkpt lat="42.4644260" lon="-5.9411200">
        <ele>868.5</ele>
        <time>2020-04-09T18:21:04Z</time>
      </trkpt>
      <trkpt lat="42.4644800" lon="-5.9413110">
        <ele>868.0</ele>
        <time>2020-04-09T18:21:06Z</time>
      </trkpt>
      <trkpt lat="42.4644930" lon="-5.9414330">
        <ele>868.3</ele>
        <time>2020-04-09T18:21:08Z</time>
      </trkpt>
      <trkpt lat="42.4645190" lon="-5.9416280">
        <ele>869.3</ele>
        <time>2020-04-09T18:21:10Z</time>
      </trkpt>
      <trkpt lat="42.4645570" lon="-5.9417400">
        <ele>870.2</ele>
        <time>2020-04-09T18:21:12Z</time>
      </trkpt>
      <trkpt lat="42.4646240" lon="-5.9419250">
        <ele>872.1</ele>
        <time>2020-04-09T18:21:14Z</time>
      </trkpt>
      <trkpt lat="42.4646740" lon="-5.9420120">
        <ele>873.4</ele>
        <time>2020-04-09T18:21:16Z</time>
      </trkpt>
      <trkpt lat="42.4647180" lon="-5.9420890">
        <ele>874.6</ele>
        <time>2020-04-09T18:21:18Z</time>
      </trkpt>
      <trkpt lat="42.4647580" lon="-5.9421600">
        <ele>875.5</ele>
        <time>2020-04-09T18:21:20Z</time>
      </trkpt>
      <trkpt lat="42.4647950" lon="-5.9422240">
        <ele>876.4</ele>
        <time>2020-04-09T18:21:22Z</time>
      </trkpt>
      <trkpt lat="42.4648300" lon="-5.9422840">
        <ele>877.5</ele>
        <time>2020-04-09T18:21:24Z</time>
      </trkpt>
      <trkpt lat="42.4648630" lon="-5.9423420">
        <ele>878.6</ele>
        <time>2020-04-09T18:21:26Z</time>
      </trkpt>
      <trkpt lat="42.4648940" lon="-5.9423970">
        <ele>879.6</ele>
        <time>2020-04-09T18:21:28Z</time>
      </trkpt>
      <trkpt lat="42.4649250" lon="-5.9424520">
        <ele>880.7</ele>
        <time>2020-04-09T18:21:30Z</time>
      </trkpt>
      <trkpt lat="42.4650720" lon="-5.9427050">
        <ele>885.5</ele>
        <time>2020-04-09T18:21:32Z</time>
      </trkpt>
      <trkpt lat="42.4651040" lon="-5.9427550">
        <ele>886.2</ele>
        <time>2020-04-09T18:21:34Z</time>
      </trkpt>
      <trkpt lat="42.4651360" lon="-5.9428060">
        <ele>886.8</ele>
        <time>2020-04-09T18:21:36Z</time>
      </trkpt>
      <trkpt lat="42.4651680" lon="-5.9428570">
        <ele>887.2</ele>
        <time>2020-04-09T18:21:38Z</time>
      </trkpt>
      <trkpt lat="42.4652010" lon="-5.9429080">
        <ele>887.6</ele>
        <time>2020-04-09T18:21:40Z</time>
      </trkpt>
      <trkpt lat="42.4652350" lon="-5.9429620">
        <ele>888.0</ele>
        <time>2020-04-09T18:21:42Z</time>
      </trkpt>
      <trkpt lat="42.4653300" lon="-5.9431340">
        <ele>889.6</ele>
        <time>2020-04-09T18:21:44Z</time>
      </trkpt>
      <trkpt lat="42.4653600" lon="-5.9432190">
        <ele>890.1</ele>
        <time>2020-04-09T18:21:46Z</time>
      </trkpt>
      <trkpt lat="42.4653960" lon="-5.9433170">
        <ele>890.4</ele>
        <time>2020-04-09T18:21:48Z</time>
      </trkpt>
      <trkpt lat="42.4654350" lon="-5.9434240">
        <ele>890.6</ele>
        <time>2020-04-09T18:21:50Z</time>
      </trkpt>
      <trkpt lat="42.4654770" lon="-5.9435410">
        <ele>890.6</ele>
        <time>2020-04-09T18:21:52Z</time>
      </trkpt>
      <trkpt lat="42.4655220" lon="-5.9436670">
        <ele>890.5</ele>
        <time>2020-04-09T18:21:54Z</time>
      </trkpt>
      <trkpt lat="42.4656570" lon="-5.9440450">
        <ele>890.0</ele>
        <time>2020-04-09T18:21:56Z</time>
      </trkpt>
      <trkpt lat="42.4656980" lon="-5.9441890">
        <ele>889.6</ele>
        <time>2020-04-09T18:21:58Z</time>
      </trkpt>
      <trkpt lat="42.4657400" lon="-5.9443390">
        <ele>889.1</ele>
        <time>2020-04-09T18:22:00Z</time>
      </trkpt>
      <trkpt lat="42.4658120" lon="-5.9446230">
        <ele>888.2</ele>
        <time>2020-04-09T18:22:02Z</time>
      </trkpt>
      <trkpt lat="42.4658800" lon="-5.9449220">
        <ele>887.3</ele>
        <time>2020-04-09T18:22:04Z</time>
      </trkpt>
      <trkpt lat="42.4658900" lon="-5.9451310">
        <ele>886.1</ele>
        <time>2020-04-09T18:22:06Z</time>
      </trkpt>
      <trkpt lat="42.4659000" lon="-5.9453530">
        <ele>884.9</ele>
        <time>2020-04-09T18:22:08Z</time>
      </trkpt>
      <trkpt lat="42.4659210" lon="-5.9458180">
        <ele>882.2</ele>
        <time>2020-04-09T18:22:10Z</time>
      </trkpt>
      <trkpt lat="42.4658810" lon="-5.9460890">
        <ele>880.5</ele>
        <time>2020-04-09T18:22:12Z</time>
      </trkpt>
      <trkpt lat="42.4658250" lon="-5.9464130">
        <ele>878.4</ele>
        <time>2020-04-09T18:22:14Z</time>
      </trkpt>
      <trkpt lat="42.4657700" lon="-5.9467670">
        <ele>876.3</ele>
        <time>2020-04-09T18:22:16Z</time>
      </trkpt>
      <trkpt lat="42.4657080" lon="-5.9471830">
        <ele>874.4</ele>
        <time>2020-04-09T18:22:18Z</time>
      </trkpt>
      <trkpt lat="42.4656730" lon="-5.9475110">
        <ele>873.1</ele>
        <time>2020-04-09T18:22:20Z</time>
      </trkpt>
      <trkpt lat="42.4656320" lon="-5.9478980">
        <ele>871.8</ele>
        <time>2020-04-09T18:22:22Z</time>
      </trkpt>
      <trkpt lat="42.4655980" lon="-5.9482260">
        <ele>870.6</ele>
        <time>2020-04-09T18:22:24Z</time>
      </trkpt>
      <trkpt lat="42.4655680" lon="-5.9484620">
        <ele>870.6</ele>
        <time>2020-04-09T18:22:26Z</time>
      </trkpt>
      <trkpt lat="42.4655120" lon="-5.9488410">
        <ele>870.3</ele>
        <time>2020-04-09T18:22:28Z</time>
      </trkpt>
      <trkpt lat="42.4655230" lon="-5.9491380">
        <ele>870.3</ele>
        <time>2020-04-09T18:22:30Z</time>
      </trkpt>
      <trkpt lat="42.4655220" lon="-5.9493980">
        <ele>869.3</ele>
        <time>2020-04-09T18:22:32Z</time>
      </trkpt>
      <trkpt lat="42.4654710" lon="-5.9496550">
        <ele>868.4</ele>
        <time>2020-04-09T18:22:34Z</time>
      </trkpt>
      <trkpt lat="42.4654040" lon="-5.9498770">
        <ele>868.2</ele>
        <time>2020-04-09T18:22:36Z</time>
      </trkpt>
      <trkpt lat="42.4653420" lon="-5.9500960">
        <ele>868.2</ele>
        <time>2020-04-09T18:22:38Z</time>
      </trkpt>
      <trkpt lat="42.4652630" lon="-5.9502910">
        <ele>868.9</ele>
        <time>2020-04-09T18:22:40Z</time>
      </trkpt>
      <trkpt lat="42.4652240" lon="-5.9504320">
        <ele>869.3</ele>
        <time>2020-04-09T18:22:42Z</time>
      </trkpt>
      <trkpt lat="42.4651950" lon="-5.9506720">
        <ele>870.3</ele>
        <time>2020-04-09T18:22:44Z</time>
      </trkpt>
      <trkpt lat="42.4651950" lon="-5.9508080">
        <ele>870.7</ele>
        <time>2020-04-09T18:22:46Z</time>
      </trkpt>
      <trkpt lat="42.4651940" lon="-5.9509390">
        <ele>871.1</ele>
        <time>2020-04-09T18:22:48Z</time>
      </trkpt>
      <trkpt lat="42.4651940" lon="-5.9511730">
        <ele>871.8</ele>
        <time>2020-04-09T18:22:50Z</time>
      </trkpt>
      <trkpt lat="42.4651930" lon="-5.9512990">
        <ele>872.2</ele>
        <time>2020-04-09T18:22:52Z</time>
      </trkpt>
      <trkpt lat="42.4651930" lon="-5.9514220">
        <ele>872.6</ele>
        <time>2020-04-09T18:22:54Z</time>
      </trkpt>
      <trkpt lat="42.4651930" lon="-5.9515440">
        <ele>872.9</ele>
        <time>2020-04-09T18:22:56Z</time>
      </trkpt>
      <trkpt lat="42.4651930" lon="-5.9516630">
        <ele>873.2</ele>
        <time>2020-04-09T18:22:58Z</time>
      </trkpt>
      <trkpt lat="42.4651890" lon="-5.9520290">
        <ele>874.1</ele>
        <time>2020-04-09T18:23:00Z</time>
      </trkpt>
      <trkpt lat="42.4651780" lon="-5.9521430">
        <ele>874.3</ele>
        <time>2020-04-09T18:23:02Z</time>
      </trkpt>
      <trkpt lat="42.4651610" lon="-5.9523420">
        <ele>874.8</ele>
        <time>2020-04-09T18:23:04Z</time>
      </trkpt>
      <trkpt lat="42.4651640" lon="-5.9524560">
        <ele>875.0</ele>
        <time>2020-04-09T18:23:06Z</time>
      </trkpt>
      <trkpt lat="42.4651660" lon="-5.9525700">
        <ele>875.2</ele>
        <time>2020-04-09T18:23:08Z</time>
      </trkpt>
      <trkpt lat="42.4651680" lon="-5.9528010">
        <ele>876.2</ele>
        <time>2020-04-09T18:23:10Z</time>
      </trkpt>
      <trkpt lat="42.4651560" lon="-5.9529110">
        <ele>876.7</ele>
        <time>2020-04-09T18:23:12Z</time>
      </trkpt>
      <trkpt lat="42.4651390" lon="-5.9530930">
        <ele>877.3</ele>
        <time>2020-04-09T18:23:14Z</time>
      </trkpt>
      <trkpt lat="42.4651390" lon="-5.9532030">
        <ele>877.5</ele>
        <time>2020-04-09T18:23:16Z</time>
      </trkpt>
      <trkpt lat="42.4651400" lon="-5.9533130">
        <ele>877.8</ele>
        <time>2020-04-09T18:23:18Z</time>
      </trkpt>
      <trkpt lat="42.4651400" lon="-5.9534220">
        <ele>878.0</ele>
        <time>2020-04-09T18:23:20Z</time>
      </trkpt>
      <trkpt lat="42.4651570" lon="-5.9536690">
        <ele>878.8</ele>
        <time>2020-04-09T18:23:22Z</time>
      </trkpt>
      <trkpt lat="42.4651780" lon="-5.9537750">
        <ele>879.3</ele>
        <time>2020-04-09T18:23:24Z</time>
      </trkpt>
      <trkpt lat="42.4651980" lon="-5.9538820">
        <ele>879.8</ele>
        <time>2020-04-09T18:23:26Z</time>
      </trkpt>
      <trkpt lat="42.4652460" lon="-5.9541230">
        <ele>880.7</ele>
        <time>2020-04-09T18:23:28Z</time>
      </trkpt>
      <trkpt lat="42.4652750" lon="-5.9542270">
        <ele>881.1</ele>
        <time>2020-04-09T18:23:30Z</time>
      </trkpt>
      <trkpt lat="42.4653210" lon="-5.9543920">
        <ele>881.6</ele>
        <time>2020-04-09T18:23:32Z</time>
      </trkpt>
      <trkpt lat="42.4653540" lon="-5.9544990">
        <ele>881.9</ele>
        <time>2020-04-09T18:23:34Z</time>
      </trkpt>
      <trkpt lat="42.4653880" lon="-5.9546070">
        <ele>882.0</ele>
        <time>2020-04-09T18:23:36Z</time>
      </trkpt>
      <trkpt lat="42.4654210" lon="-5.9547170">
        <ele>882.2</ele>
        <time>2020-04-09T18:23:38Z</time>
      </trkpt>
      <trkpt lat="42.4654550" lon="-5.9548260">
        <ele>882.3</ele>
        <time>2020-04-09T18:23:40Z</time>
      </trkpt>
      <trkpt lat="42.4655340" lon="-5.9551280">
        <ele>883.1</ele>
        <time>2020-04-09T18:23:42Z</time>
      </trkpt>
      <trkpt lat="42.4655560" lon="-5.9552430">
        <ele>883.2</ele>
        <time>2020-04-09T18:23:44Z</time>
      </trkpt>
      <trkpt lat="42.4655940" lon="-5.9554570">
        <ele>883.4</ele>
        <time>2020-04-09T18:23:46Z</time>
      </trkpt>
      <trkpt lat="42.4656140" lon="-5.9555770">
        <ele>883.5</ele>
        <time>2020-04-09T18:23:48Z</time>
      </trkpt>
      <trkpt lat="42.4656330" lon="-5.9556970">
        <ele>883.6</ele>
        <time>2020-04-09T18:23:50Z</time>
      </trkpt>
      <trkpt lat="42.4656530" lon="-5.9558200">
        <ele>883.8</ele>
        <time>2020-04-09T18:23:52Z</time>
      </trkpt>
      <trkpt lat="42.4657050" lon="-5.9561230">
        <ele>884.1</ele>
        <time>2020-04-09T18:23:54Z</time>
      </trkpt>
      <trkpt lat="42.4657370" lon="-5.9562620">
        <ele>884.3</ele>
        <time>2020-04-09T18:23:56Z</time>
      </trkpt>
      <trkpt lat="42.4657730" lon="-5.9564370">
        <ele>884.8</ele>
        <time>2020-04-09T18:23:58Z</time>
      </trkpt>
      <trkpt lat="42.4657940" lon="-5.9565610">
        <ele>885.1</ele>
        <time>2020-04-09T18:24:00Z</time>
      </trkpt>
      <trkpt lat="42.4658140" lon="-5.9566840">
        <ele>885.3</ele>
        <time>2020-04-09T18:24:02Z</time>
      </trkpt>
      <trkpt lat="42.4658350" lon="-5.9568080">
        <ele>885.5</ele>
        <time>2020-04-09T18:24:04Z</time>
      </trkpt>
      <trkpt lat="42.4658850" lon="-5.9571000">
        <ele>885.9</ele>
        <time>2020-04-09T18:24:06Z</time>
      </trkpt>
      <trkpt lat="42.4659170" lon="-5.9572680">
        <ele>886.3</ele>
        <time>2020-04-09T18:24:08Z</time>
      </trkpt>
      <trkpt lat="42.4659390" lon="-5.9573820">
        <ele>886.3</ele>
        <time>2020-04-09T18:24:10Z</time>
      </trkpt>
      <trkpt lat="42.4659590" lon="-5.9574880">
        <ele>886.3</ele>
        <time>2020-04-09T18:24:12Z</time>
      </trkpt>
      <trkpt lat="42.4659780" lon="-5.9575880">
        <ele>886.3</ele>
        <time>2020-04-09T18:24:14Z</time>
      </trkpt>
      <trkpt lat="42.4660290" lon="-5.9578500">
        <ele>886.4</ele>
        <time>2020-04-09T18:24:16Z</time>
      </trkpt>
      <trkpt lat="42.4660510" lon="-5.9579410">
        <ele>886.5</ele>
        <time>2020-04-09T18:24:18Z</time>
      </trkpt>
      <trkpt lat="42.4660710" lon="-5.9580290">
        <ele>886.5</ele>
        <time>2020-04-09T18:24:20Z</time>
      </trkpt>
      <trkpt lat="42.4661160" lon="-5.9582140">
        <ele>886.6</ele>
        <time>2020-04-09T18:24:22Z</time>
      </trkpt>
      <trkpt lat="42.4661380" lon="-5.9582960">
        <ele>886.7</ele>
        <time>2020-04-09T18:24:24Z</time>
      </trkpt>
      <trkpt lat="42.4661760" lon="-5.9584330">
        <ele>886.9</ele>
        <time>2020-04-09T18:24:26Z</time>
      </trkpt>
      <trkpt lat="42.4661990" lon="-5.9585160">
        <ele>887.1</ele>
        <time>2020-04-09T18:24:28Z</time>
      </trkpt>
      <trkpt lat="42.4662220" lon="-5.9585990">
        <ele>887.5</ele>
        <time>2020-04-09T18:24:30Z</time>
      </trkpt>
      <trkpt lat="42.4662450" lon="-5.9586840">
        <ele>887.8</ele>
        <time>2020-04-09T18:24:32Z</time>
      </trkpt>
      <trkpt lat="42.4662690" lon="-5.9587690">
        <ele>888.6</ele>
        <time>2020-04-09T18:24:34Z</time>
      </trkpt>
      <trkpt lat="42.4663380" lon="-5.9590170">
        <ele>891.1</ele>
        <time>2020-04-09T18:24:36Z</time>
      </trkpt>
      <trkpt lat="42.4663640" lon="-5.9591010">
        <ele>891.8</ele>
        <time>2020-04-09T18:24:38Z</time>
      </trkpt>
      <trkpt lat="42.4663910" lon="-5.9591860">
        <ele>892.3</ele>
        <time>2020-04-09T18:24:40Z</time>
      </trkpt>
      <trkpt lat="42.4664410" lon="-5.9593450">
        <ele>893.3</ele>
        <time>2020-04-09T18:24:42Z</time>
      </trkpt>
      <trkpt lat="42.4664680" lon="-5.9594300">
        <ele>894.0</ele>
        <time>2020-04-09T18:24:44Z</time>
      </trkpt>
      <trkpt lat="42.4664990" lon="-5.9595700">
        <ele>895.1</ele>
        <time>2020-04-09T18:24:46Z</time>
      </trkpt>
      <trkpt lat="42.4665120" lon="-5.9596590">
        <ele>895.7</ele>
        <time>2020-04-09T18:24:48Z</time>
      </trkpt>
      <trkpt lat="42.4665260" lon="-5.9597490">
        <ele>896.0</ele>
        <time>2020-04-09T18:24:50Z</time>
      </trkpt>
      <trkpt lat="42.4665400" lon="-5.9598400">
        <ele>896.1</ele>
        <time>2020-04-09T18:24:52Z</time>
      </trkpt>
      <trkpt lat="42.4665540" lon="-5.9599290">
        <ele>896.1</ele>
        <time>2020-04-09T18:24:54Z</time>
      </trkpt>
      <trkpt lat="42.4665930" lon="-5.9601840">
        <ele>895.9</ele>
        <time>2020-04-09T18:24:56Z</time>
      </trkpt>
      <trkpt lat="42.4666070" lon="-5.9602780">
        <ele>896.0</ele>
        <time>2020-04-09T18:24:58Z</time>
      </trkpt>
      <trkpt lat="42.4666220" lon="-5.9603730">
        <ele>896.2</ele>
        <time>2020-04-09T18:25:00Z</time>
      </trkpt>
      <trkpt lat="42.4666370" lon="-5.9604680">
        <ele>896.8</ele>
        <time>2020-04-09T18:25:02Z</time>
      </trkpt>
      <trkpt lat="42.4666520" lon="-5.9605650">
        <ele>897.4</ele>
        <time>2020-04-09T18:25:04Z</time>
      </trkpt>
      <trkpt lat="42.4666970" lon="-5.9608550">
        <ele>899.7</ele>
        <time>2020-04-09T18:25:06Z</time>
      </trkpt>
      <trkpt lat="42.4667120" lon="-5.9609780">
        <ele>900.1</ele>
        <time>2020-04-09T18:25:08Z</time>
      </trkpt>
      <trkpt lat="42.4667270" lon="-5.9611140">
        <ele>900.4</ele>
        <time>2020-04-09T18:25:10Z</time>
      </trkpt>
      <trkpt lat="42.4667290" lon="-5.9612120">
        <ele>900.5</ele>
        <time>2020-04-09T18:25:12Z</time>
      </trkpt>
      <trkpt lat="42.4667370" lon="-5.9613630">
        <ele>900.6</ele>
        <time>2020-04-09T18:25:14Z</time>
      </trkpt>
      <trkpt lat="42.4667470" lon="-5.9614610">
        <ele>900.7</ele>
        <time>2020-04-09T18:25:16Z</time>
      </trkpt>
      <trkpt lat="42.4667710" lon="-5.9616340">
        <ele>901.0</ele>
        <time>2020-04-09T18:25:18Z</time>
      </trkpt>
      <trkpt lat="42.4667910" lon="-5.9617300">
        <ele>901.1</ele>
        <time>2020-04-09T18:25:20Z</time>
      </trkpt>
      <trkpt lat="42.4668310" lon="-5.9618900">
        <ele>901.6</ele>
        <time>2020-04-09T18:25:22Z</time>
      </trkpt>
      <trkpt lat="42.4668630" lon="-5.9619730">
        <ele>901.7</ele>
        <time>2020-04-09T18:25:24Z</time>
      </trkpt>
      <trkpt lat="42.4669230" lon="-5.9621210">
        <ele>901.8</ele>
        <time>2020-04-09T18:25:26Z</time>
      </trkpt>
      <trkpt lat="42.4669530" lon="-5.9621980">
        <ele>902.5</ele>
        <time>2020-04-09T18:25:28Z</time>
      </trkpt>
      <trkpt lat="42.4669830" lon="-5.9622730">
        <ele>903.1</ele>
        <time>2020-04-09T18:25:30Z</time>
      </trkpt>
      <trkpt lat="42.4670400" lon="-5.9624150">
        <ele>903.8</ele>
        <time>2020-04-09T18:25:32Z</time>
      </trkpt>
      <trkpt lat="42.4670800" lon="-5.9625120">
        <ele>904.3</ele>
        <time>2020-04-09T18:25:34Z</time>
      </trkpt>
      <trkpt lat="42.4670970" lon="-5.9626080">
        <ele>904.6</ele>
        <time>2020-04-09T18:25:36Z</time>
      </trkpt>
      <trkpt lat="42.4671120" lon="-5.9627330">
        <ele>905.1</ele>
        <time>2020-04-09T18:25:38Z</time>
      </trkpt>
      <trkpt lat="42.4671370" lon="-5.9628330">
        <ele>905.5</ele>
        <time>2020-04-09T18:25:40Z</time>
      </trkpt>
      <trkpt lat="42.4671710" lon="-5.9629350">
        <ele>905.9</ele>
        <time>2020-04-09T18:25:42Z</time>
      </trkpt>
      <trkpt lat="42.4671880" lon="-5.9630190">
        <ele>906.1</ele>
        <time>2020-04-09T18:25:44Z</time>
      </trkpt>
      <trkpt lat="42.4672050" lon="-5.9631060">
        <ele>906.3</ele>
        <time>2020-04-09T18:25:46Z</time>
      </trkpt>
      <trkpt lat="42.4672230" lon="-5.9631930">
        <ele>906.6</ele>
        <time>2020-04-09T18:25:48Z</time>
      </trkpt>
      <trkpt lat="42.4672550" lon="-5.9633840">
        <ele>907.3</ele>
        <time>2020-04-09T18:25:50Z</time>
      </trkpt>
      <trkpt lat="42.4672700" lon="-5.9635280">
        <ele>907.8</ele>
        <time>2020-04-09T18:25:52Z</time>
      </trkpt>
      <trkpt lat="42.4672790" lon="-5.9636190">
        <ele>908.2</ele>
        <time>2020-04-09T18:25:54Z</time>
      </trkpt>
      <trkpt lat="42.4672870" lon="-5.9637100">
        <ele>908.5</ele>
        <time>2020-04-09T18:25:56Z</time>
      </trkpt>
      <trkpt lat="42.4672960" lon="-5.9638010">
        <ele>908.8</ele>
        <time>2020-04-09T18:25:58Z</time>
      </trkpt>
      <trkpt lat="42.4673040" lon="-5.9638920">
        <ele>909.2</ele>
        <time>2020-04-09T18:26:00Z</time>
      </trkpt>
      <trkpt lat="42.4673140" lon="-5.9641300">
        <ele>910.0</ele>
        <time>2020-04-09T18:26:02Z</time>
      </trkpt>
      <trkpt lat="42.4672930" lon="-5.9642620">
        <ele>910.4</ele>
        <time>2020-04-09T18:26:04Z</time>
      </trkpt>
      <trkpt lat="42.4672790" lon="-5.9643530">
        <ele>910.7</ele>
        <time>2020-04-09T18:26:06Z</time>
      </trkpt>
      <trkpt lat="42.4672660" lon="-5.9644430">
        <ele>911.0</ele>
        <time>2020-04-09T18:26:08Z</time>
      </trkpt>
      <trkpt lat="42.4672520" lon="-5.9645340">
        <ele>911.3</ele>
        <time>2020-04-09T18:26:10Z</time>
      </trkpt>
      <trkpt lat="42.4672230" lon="-5.9647430">
        <ele>911.9</ele>
        <time>2020-04-09T18:26:12Z</time>
      </trkpt>
      <trkpt lat="42.4672130" lon="-5.9648750">
        <ele>912.4</ele>
        <time>2020-04-09T18:26:14Z</time>
      </trkpt>
      <trkpt lat="42.4672210" lon="-5.9649680">
        <ele>912.7</ele>
        <time>2020-04-09T18:26:16Z</time>
      </trkpt>
      <trkpt lat="42.4672330" lon="-5.9651210">
        <ele>913.2</ele>
        <time>2020-04-09T18:26:18Z</time>
      </trkpt>
      <trkpt lat="42.4672380" lon="-5.9652140">
        <ele>913.5</ele>
        <time>2020-04-09T18:26:20Z</time>
      </trkpt>
      <trkpt lat="42.4672530" lon="-5.9653730">
        <ele>914.0</ele>
        <time>2020-04-09T18:26:22Z</time>
      </trkpt>
      <trkpt lat="42.4672800" lon="-5.9654990">
        <ele>914.3</ele>
        <time>2020-04-09T18:26:24Z</time>
      </trkpt>
      <trkpt lat="42.4672880" lon="-5.9656180">
        <ele>914.7</ele>
        <time>2020-04-09T18:26:26Z</time>
      </trkpt>
      <trkpt lat="42.4673030" lon="-5.9657460">
        <ele>914.9</ele>
        <time>2020-04-09T18:26:28Z</time>
      </trkpt>
      <trkpt lat="42.4673140" lon="-5.9658850">
        <ele>915.2</ele>
        <time>2020-04-09T18:26:30Z</time>
      </trkpt>
      <trkpt lat="42.4673510" lon="-5.9660250">
        <ele>915.6</ele>
        <time>2020-04-09T18:26:32Z</time>
      </trkpt>
      <trkpt lat="42.4674050" lon="-5.9661860">
        <ele>916.2</ele>
        <time>2020-04-09T18:26:34Z</time>
      </trkpt>
      <trkpt lat="42.4674290" lon="-5.9662960">
        <ele>916.6</ele>
        <time>2020-04-09T18:26:36Z</time>
      </trkpt>
      <trkpt lat="42.4674530" lon="-5.9664080">
        <ele>917.1</ele>
        <time>2020-04-09T18:26:38Z</time>
      </trkpt>
      <trkpt lat="42.4675050" lon="-5.9666270">
        <ele>917.9</ele>
        <time>2020-04-09T18:26:40Z</time>
      </trkpt>
      <trkpt lat="42.4675670" lon="-5.9667740">
        <ele>918.4</ele>
        <time>2020-04-09T18:26:42Z</time>
      </trkpt>
      <trkpt lat="42.4675940" lon="-5.9668960">
        <ele>918.7</ele>
        <time>2020-04-09T18:26:44Z</time>
      </trkpt>
      <trkpt lat="42.4675690" lon="-5.9670950">
        <ele>919.1</ele>
        <time>2020-04-09T18:26:46Z</time>
      </trkpt>
      <trkpt lat="42.4674760" lon="-5.9672190">
        <ele>919.5</ele>
        <time>2020-04-09T18:26:48Z</time>
      </trkpt>
      <trkpt lat="42.4674370" lon="-5.9673790">
        <ele>919.5</ele>
        <time>2020-04-09T18:26:50Z</time>
      </trkpt>
      <trkpt lat="42.4674210" lon="-5.9675250">
        <ele>919.4</ele>
        <time>2020-04-09T18:26:52Z</time>
      </trkpt>
      <trkpt lat="42.4673910" lon="-5.9677750">
        <ele>919.4</ele>
        <time>2020-04-09T18:26:54Z</time>
      </trkpt>
      <trkpt lat="42.4673710" lon="-5.9679280">
        <ele>919.3</ele>
        <time>2020-04-09T18:26:56Z</time>
      </trkpt>
      <trkpt lat="42.4673380" lon="-5.9682040">
        <ele>919.2</ele>
        <time>2020-04-09T18:26:58Z</time>
      </trkpt>
      <trkpt lat="42.4673190" lon="-5.9683800">
        <ele>918.9</ele>
        <time>2020-04-09T18:27:00Z</time>
      </trkpt>
      <trkpt lat="42.4672790" lon="-5.9687100">
        <ele>916.9</ele>
        <time>2020-04-09T18:27:02Z</time>
      </trkpt>
      <trkpt lat="42.4672420" lon="-5.9689920">
        <ele>914.7</ele>
        <time>2020-04-09T18:27:04Z</time>
      </trkpt>
      <trkpt lat="42.4671240" lon="-5.9692740">
        <ele>913.0</ele>
        <time>2020-04-09T18:27:06Z</time>
      </trkpt>
      <trkpt lat="42.4670290" lon="-5.9695580">
        <ele>912.1</ele>
        <time>2020-04-09T18:27:08Z</time>
      </trkpt>
      <trkpt lat="42.4669600" lon="-5.9698080">
        <ele>910.8</ele>
        <time>2020-04-09T18:27:10Z</time>
      </trkpt>
      <trkpt lat="42.4670760" lon="-5.9700200">
        <ele>909.8</ele>
        <time>2020-04-09T18:27:12Z</time>
      </trkpt>
      <trkpt lat="42.4670460" lon="-5.9702130">
        <ele>909.5</ele>
        <time>2020-04-09T18:27:14Z</time>
      </trkpt>
      <trkpt lat="42.4669930" lon="-5.9705010">
        <ele>909.6</ele>
        <time>2020-04-09T18:27:16Z</time>
      </trkpt>
      <trkpt lat="42.4669090" lon="-5.9706890">
        <ele>910.0</ele>
        <time>2020-04-09T18:27:18Z</time>
      </trkpt>
      <trkpt lat="42.4668190" lon="-5.9708600">
        <ele>910.8</ele>
        <time>2020-04-09T18:27:20Z</time>
      </trkpt>
      <trkpt lat="42.4667750" lon="-5.9709750">
        <ele>911.5</ele>
        <time>2020-04-09T18:27:22Z</time>
      </trkpt>
      <trkpt lat="42.4667360" lon="-5.9710760">
        <ele>912.4</ele>
        <time>2020-04-09T18:27:24Z</time>
      </trkpt>
      <trkpt lat="42.4667030" lon="-5.9711640">
        <ele>913.3</ele>
        <time>2020-04-09T18:27:26Z</time>
      </trkpt>
      <trkpt lat="42.4666130" lon="-5.9713820">
        <ele>915.3</ele>
        <time>2020-04-09T18:27:28Z</time>
      </trkpt>
      <trkpt lat="42.4665560" lon="-5.9714760">
        <ele>916.5</ele>
        <time>2020-04-09T18:27:30Z</time>
      </trkpt>
      <trkpt lat="42.4665140" lon="-5.9715210">
        <ele>917.0</ele>
        <time>2020-04-09T18:27:32Z</time>
      </trkpt>
      <trkpt lat="42.4664500" lon="-5.9715860">
        <ele>917.5</ele>
        <time>2020-04-09T18:27:34Z</time>
      </trkpt>
      <trkpt lat="42.4664090" lon="-5.9716220">
        <ele>917.8</ele>
        <time>2020-04-09T18:27:36Z</time>
      </trkpt>
      <trkpt lat="42.4663440" lon="-5.9716950">
        <ele>918.2</ele>
        <time>2020-04-09T18:27:38Z</time>
      </trkpt>
      <trkpt lat="42.4663040" lon="-5.9717620">
        <ele>918.4</ele>
        <time>2020-04-09T18:27:40Z</time>
      </trkpt>
      <trkpt lat="42.4662370" lon="-5.9718980">
        <ele>918.9</ele>
        <time>2020-04-09T18:27:42Z</time>
      </trkpt>
      <trkpt lat="42.4662020" lon="-5.9719990">
        <ele>919.0</ele>
        <time>2020-04-09T18:27:44Z</time>
      </trkpt>
      <trkpt lat="42.4661660" lon="-5.9721050">
        <ele>919.2</ele>
        <time>2020-04-09T18:27:46Z</time>
      </trkpt>
      <trkpt lat="42.4661050" lon="-5.9723140">
        <ele>919.5</ele>
        <time>2020-04-09T18:27:48Z</time>
      </trkpt>
      <trkpt lat="42.4660500" lon="-5.9724750">
        <ele>919.6</ele>
        <time>2020-04-09T18:27:50Z</time>
      </trkpt>
      <trkpt lat="42.4659950" lon="-5.9725720">
        <ele>919.7</ele>
        <time>2020-04-09T18:27:52Z</time>
      </trkpt>
      <trkpt lat="42.4659400" lon="-5.9726690">
        <ele>919.8</ele>
        <time>2020-04-09T18:27:54Z</time>
      </trkpt>
      <trkpt lat="42.4658200" lon="-5.9728830">
        <ele>919.8</ele>
        <time>2020-04-09T18:27:56Z</time>
      </trkpt>
      <trkpt lat="42.4657690" lon="-5.9729930">
        <ele>919.8</ele>
        <time>2020-04-09T18:27:58Z</time>
      </trkpt>
      <trkpt lat="42.4657120" lon="-5.9731180">
        <ele>919.8</ele>
        <time>2020-04-09T18:28:00Z</time>
      </trkpt>
      <trkpt lat="42.4655950" lon="-5.9733660">
        <ele>919.6</ele>
        <time>2020-04-09T18:28:02Z</time>
      </trkpt>
      <trkpt lat="42.4655200" lon="-5.9735090">
        <ele>919.4</ele>
        <time>2020-04-09T18:28:04Z</time>
      </trkpt>
      <trkpt lat="42.4654410" lon="-5.9736610">
        <ele>919.2</ele>
        <time>2020-04-09T18:28:06Z</time>
      </trkpt>
      <trkpt lat="42.4652690" lon="-5.9739870">
        <ele>918.9</ele>
        <time>2020-04-09T18:28:08Z</time>
      </trkpt>
      <trkpt lat="42.4651490" lon="-5.9742080">
        <ele>918.2</ele>
        <time>2020-04-09T18:28:10Z</time>
      </trkpt>
      <trkpt lat="42.4650520" lon="-5.9743860">
        <ele>916.5</ele>
        <time>2020-04-09T18:28:12Z</time>
      </trkpt>
      <trkpt lat="42.4648770" lon="-5.9747010">
        <ele>912.6</ele>
        <time>2020-04-09T18:28:14Z</time>
      </trkpt>
      <trkpt lat="42.4647090" lon="-5.9749470">
        <ele>909.6</ele>
        <time>2020-04-09T18:28:16Z</time>
      </trkpt>
      <trkpt lat="42.4645160" lon="-5.9751710">
        <ele>907.2</ele>
        <time>2020-04-09T18:28:18Z</time>
      </trkpt>
      <trkpt lat="42.4643490" lon="-5.9753220">
        <ele>906.0</ele>
        <time>2020-04-09T18:28:20Z</time>
      </trkpt>
      <trkpt lat="42.4640800" lon="-5.9755350">
        <ele>904.7</ele>
        <time>2020-04-09T18:28:22Z</time>
      </trkpt>
      <trkpt lat="42.4638860" lon="-5.9756770">
        <ele>903.6</ele>
        <time>2020-04-09T18:28:24Z</time>
      </trkpt>
      <trkpt lat="42.4635510" lon="-5.9760210">
        <ele>899.8</ele>
        <time>2020-04-09T18:28:26Z</time>
      </trkpt>
      <trkpt lat="42.4633870" lon="-5.9763500">
        <ele>895.8</ele>
        <time>2020-04-09T18:28:28Z</time>
      </trkpt>
      <trkpt lat="42.4632880" lon="-5.9766320">
        <ele>893.3</ele>
        <time>2020-04-09T18:28:30Z</time>
      </trkpt>
      <trkpt lat="42.4631150" lon="-5.9771340">
        <ele>890.8</ele>
        <time>2020-04-09T18:28:32Z</time>
      </trkpt>
      <trkpt lat="42.4630240" lon="-5.9774360">
        <ele>890.3</ele>
        <time>2020-04-09T18:28:34Z</time>
      </trkpt>
      <trkpt lat="42.4629230" lon="-5.9777890">
        <ele>890.3</ele>
        <time>2020-04-09T18:28:36Z</time>
      </trkpt>
      <trkpt lat="42.4628290" lon="-5.9780820">
        <ele>891.4</ele>
        <time>2020-04-09T18:28:38Z</time>
      </trkpt>
      <trkpt lat="42.4627510" lon="-5.9782530">
        <ele>892.0</ele>
        <time>2020-04-09T18:28:40Z</time>
      </trkpt>
      <trkpt lat="42.4626260" lon="-5.9785180">
        <ele>893.5</ele>
        <time>2020-04-09T18:28:42Z</time>
      </trkpt>
      <trkpt lat="42.4625570" lon="-5.9786370">
        <ele>894.5</ele>
        <time>2020-04-09T18:28:44Z</time>
      </trkpt>
      <trkpt lat="42.4624960" lon="-5.9787430">
        <ele>895.2</ele>
        <time>2020-04-09T18:28:46Z</time>
      </trkpt>
      <trkpt lat="42.4624440" lon="-5.9788350">
        <ele>895.8</ele>
        <time>2020-04-09T18:28:48Z</time>
      </trkpt>
      <trkpt lat="42.4623960" lon="-5.9789160">
        <ele>896.2</ele>
        <time>2020-04-09T18:28:50Z</time>
      </trkpt>
      <trkpt lat="42.4622540" lon="-5.9791640">
        <ele>897.4</ele>
        <time>2020-04-09T18:28:52Z</time>
      </trkpt>
      <trkpt lat="42.4622130" lon="-5.9792360">
        <ele>897.7</ele>
        <time>2020-04-09T18:28:54Z</time>
      </trkpt>
      <trkpt lat="42.4621690" lon="-5.9793130">
        <ele>898.0</ele>
        <time>2020-04-09T18:28:56Z</time>
      </trkpt>
      <trkpt lat="42.4620950" lon="-5.9794490">
        <ele>898.7</ele>
        <time>2020-04-09T18:28:58Z</time>
      </trkpt>
      <trkpt lat="42.4620520" lon="-5.9795320">
        <ele>899.3</ele>
        <time>2020-04-09T18:29:00Z</time>
      </trkpt>
      <trkpt lat="42.4620080" lon="-5.9796150">
        <ele>899.7</ele>
        <time>2020-04-09T18:29:02Z</time>
      </trkpt>
      <trkpt lat="42.4619650" lon="-5.9796980">
        <ele>900.1</ele>
        <time>2020-04-09T18:29:04Z</time>
      </trkpt>
      <trkpt lat="42.4618520" lon="-5.9798980">
        <ele>901.7</ele>
        <time>2020-04-09T18:29:06Z</time>
      </trkpt>
      <trkpt lat="42.4618020" lon="-5.9799750">
        <ele>902.3</ele>
        <time>2020-04-09T18:29:08Z</time>
      </trkpt>
      <trkpt lat="42.4617520" lon="-5.9800510">
        <ele>902.8</ele>
        <time>2020-04-09T18:29:10Z</time>
      </trkpt>
      <trkpt lat="42.4617020" lon="-5.9801270">
        <ele>903.3</ele>
        <time>2020-04-09T18:29:12Z</time>
      </trkpt>
      <trkpt lat="42.4615890" lon="-5.9803010">
        <ele>904.8</ele>
        <time>2020-04-09T18:29:14Z</time>
      </trkpt>
      <trkpt lat="42.4615460" lon="-5.9803670">
        <ele>905.2</ele>
        <time>2020-04-09T18:29:16Z</time>
      </trkpt>
      <trkpt lat="42.4615070" lon="-5.9804280">
        <ele>905.6</ele>
        <time>2020-04-09T18:29:18Z</time>
      </trkpt>
      <trkpt lat="42.4614690" lon="-5.9804860">
        <ele>906.0</ele>
        <time>2020-04-09T18:29:20Z</time>
      </trkpt>
      <trkpt lat="42.4613660" lon="-5.9806460">
        <ele>907.4</ele>
        <time>2020-04-09T18:29:22Z</time>
      </trkpt>
      <trkpt lat="42.4613320" lon="-5.9807010">
        <ele>908.0</ele>
        <time>2020-04-09T18:29:24Z</time>
      </trkpt>
      <trkpt lat="42.4612780" lon="-5.9807890">
        <ele>908.6</ele>
        <time>2020-04-09T18:29:26Z</time>
      </trkpt>
      <trkpt lat="42.4612460" lon="-5.9808430">
        <ele>908.9</ele>
        <time>2020-04-09T18:29:28Z</time>
      </trkpt>
      <trkpt lat="42.4612140" lon="-5.9808960">
        <ele>909.2</ele>
        <time>2020-04-09T18:29:30Z</time>
      </trkpt>
      <trkpt lat="42.4611830" lon="-5.9809480">
        <ele>909.5</ele>
        <time>2020-04-09T18:29:32Z</time>
      </trkpt>
      <trkpt lat="42.4611100" lon="-5.9810730">
        <ele>910.2</ele>
        <time>2020-04-09T18:29:34Z</time>
      </trkpt>
      <trkpt lat="42.4610810" lon="-5.9811270">
        <ele>910.6</ele>
        <time>2020-04-09T18:29:36Z</time>
      </trkpt>
      <trkpt lat="42.4610530" lon="-5.9811810">
        <ele>911.1</ele>
        <time>2020-04-09T18:29:38Z</time>
      </trkpt>
      <trkpt lat="42.4610240" lon="-5.9812350">
        <ele>911.6</ele>
        <time>2020-04-09T18:29:40Z</time>
      </trkpt>
      <trkpt lat="42.4609580" lon="-5.9813750">
        <ele>912.7</ele>
        <time>2020-04-09T18:29:42Z</time>
      </trkpt>
      <trkpt lat="42.4609290" lon="-5.9814550">
        <ele>913.3</ele>
        <time>2020-04-09T18:29:44Z</time>
      </trkpt>
      <trkpt lat="42.4608960" lon="-5.9815460">
        <ele>914.1</ele>
        <time>2020-04-09T18:29:46Z</time>
      </trkpt>
      <trkpt lat="42.4608440" lon="-5.9817220">
        <ele>915.3</ele>
        <time>2020-04-09T18:29:48Z</time>
      </trkpt>
      <trkpt lat="42.4608090" lon="-5.9818660">
        <ele>915.9</ele>
        <time>2020-04-09T18:29:50Z</time>
      </trkpt>
      <trkpt lat="42.4607820" lon="-5.9819750">
        <ele>916.2</ele>
        <time>2020-04-09T18:29:52Z</time>
      </trkpt>
      <trkpt lat="42.4607560" lon="-5.9820840">
        <ele>916.4</ele>
        <time>2020-04-09T18:29:54Z</time>
      </trkpt>
      <trkpt lat="42.4607290" lon="-5.9821950">
        <ele>916.6</ele>
        <time>2020-04-09T18:29:56Z</time>
      </trkpt>
      <trkpt lat="42.4607010" lon="-5.9823070">
        <ele>916.8</ele>
        <time>2020-04-09T18:29:58Z</time>
      </trkpt>
      <trkpt lat="42.4606740" lon="-5.9824200">
        <ele>917.1</ele>
        <time>2020-04-09T18:30:00Z</time>
      </trkpt>
      <trkpt lat="42.4605890" lon="-5.9827690">
        <ele>917.7</ele>
        <time>2020-04-09T18:30:02Z</time>
      </trkpt>
      <trkpt lat="42.4605580" lon="-5.9828950">
        <ele>917.7</ele>
        <time>2020-04-09T18:30:04Z</time>
      </trkpt>
      <trkpt lat="42.4605260" lon="-5.9830270">
        <ele>917.7</ele>
        <time>2020-04-09T18:30:06Z</time>
      </trkpt>
      <trkpt lat="42.4604940" lon="-5.9831600">
        <ele>917.8</ele>
        <time>2020-04-09T18:30:08Z</time>
      </trkpt>
      <trkpt lat="42.4604610" lon="-5.9832970">
        <ele>917.8</ele>
        <time>2020-04-09T18:30:10Z</time>
      </trkpt>
      <trkpt lat="42.4603750" lon="-5.9836670">
        <ele>917.8</ele>
        <time>2020-04-09T18:30:12Z</time>
      </trkpt>
      <trkpt lat="42.4603460" lon="-5.9838060">
        <ele>917.8</ele>
        <time>2020-04-09T18:30:14Z</time>
      </trkpt>
      <trkpt lat="42.4603170" lon="-5.9839440">
        <ele>917.8</ele>
        <time>2020-04-09T18:30:16Z</time>
      </trkpt>
      <trkpt lat="42.4602880" lon="-5.9840830">
        <ele>917.9</ele>
        <time>2020-04-09T18:30:18Z</time>
      </trkpt>
      <trkpt lat="42.4602600" lon="-5.9842200">
        <ele>917.9</ele>
        <time>2020-04-09T18:30:20Z</time>
      </trkpt>
      <trkpt lat="42.4601750" lon="-5.9846080">
        <ele>917.9</ele>
        <time>2020-04-09T18:30:22Z</time>
      </trkpt>
      <trkpt lat="42.4601280" lon="-5.9847950">
        <ele>917.9</ele>
        <time>2020-04-09T18:30:24Z</time>
      </trkpt>
      <trkpt lat="42.4600930" lon="-5.9849380">
        <ele>918.0</ele>
        <time>2020-04-09T18:30:26Z</time>
      </trkpt>
      <trkpt lat="42.4600570" lon="-5.9850850">
        <ele>918.1</ele>
        <time>2020-04-09T18:30:28Z</time>
      </trkpt>
      <trkpt lat="42.4600200" lon="-5.9852330">
        <ele>918.4</ele>
        <time>2020-04-09T18:30:30Z</time>
      </trkpt>
      <trkpt lat="42.4599350" lon="-5.9855930">
        <ele>918.7</ele>
        <time>2020-04-09T18:30:32Z</time>
      </trkpt>
      <trkpt lat="42.4599030" lon="-5.9857490">
        <ele>918.5</ele>
        <time>2020-04-09T18:30:34Z</time>
      </trkpt>
      <trkpt lat="42.4598700" lon="-5.9859070">
        <ele>918.4</ele>
        <time>2020-04-09T18:30:36Z</time>
      </trkpt>
      <trkpt lat="42.4598040" lon="-5.9862440">
        <ele>918.4</ele>
        <time>2020-04-09T18:30:38Z</time>
      </trkpt>
      <trkpt lat="42.4597790" lon="-5.9864020">
        <ele>918.3</ele>
        <time>2020-04-09T18:30:40Z</time>
      </trkpt>
      <trkpt lat="42.4597530" lon="-5.9865570">
        <ele>918.3</ele>
        <time>2020-04-09T18:30:42Z</time>
      </trkpt>
      <trkpt lat="42.4597280" lon="-5.9867080">
        <ele>918.2</ele>
        <time>2020-04-09T18:30:44Z</time>
      </trkpt>
      <trkpt lat="42.4597040" lon="-5.9868580">
        <ele>918.2</ele>
        <time>2020-04-09T18:30:46Z</time>
      </trkpt>
      <trkpt lat="42.4596790" lon="-5.9870050">
        <ele>918.2</ele>
        <time>2020-04-09T18:30:48Z</time>
      </trkpt>
      <trkpt lat="42.4596050" lon="-5.9874560">
        <ele>918.2</ele>
        <time>2020-04-09T18:30:50Z</time>
      </trkpt>
      <trkpt lat="42.4595820" lon="-5.9876000">
        <ele>918.2</ele>
        <time>2020-04-09T18:30:52Z</time>
      </trkpt>
      <trkpt lat="42.4595580" lon="-5.9877440">
        <ele>918.2</ele>
        <time>2020-04-09T18:30:54Z</time>
      </trkpt>
      <trkpt lat="42.4595340" lon="-5.9878890">
        <ele>918.2</ele>
        <time>2020-04-09T18:30:56Z</time>
      </trkpt>
      <trkpt lat="42.4595110" lon="-5.9880320">
        <ele>918.2</ele>
        <time>2020-04-09T18:30:58Z</time>
      </trkpt>
      <trkpt lat="42.4594870" lon="-5.9881770">
        <ele>918.2</ele>
        <time>2020-04-09T18:31:00Z</time>
      </trkpt>
      <trkpt lat="42.4594130" lon="-5.9886260">
        <ele>918.2</ele>
        <time>2020-04-09T18:31:02Z</time>
      </trkpt>
      <trkpt lat="42.4593900" lon="-5.9887670">
        <ele>918.2</ele>
        <time>2020-04-09T18:31:04Z</time>
      </trkpt>
      <trkpt lat="42.4593670" lon="-5.9889070">
        <ele>918.2</ele>
        <time>2020-04-09T18:31:06Z</time>
      </trkpt>
      <trkpt lat="42.4593440" lon="-5.9890480">
        <ele>918.2</ele>
        <time>2020-04-09T18:31:08Z</time>
      </trkpt>
      <trkpt lat="42.4593210" lon="-5.9891880">
        <ele>918.2</ele>
        <time>2020-04-09T18:31:10Z</time>
      </trkpt>
      <trkpt lat="42.4592980" lon="-5.9893280">
        <ele>918.2</ele>
        <time>2020-04-09T18:31:12Z</time>
      </trkpt>
      <trkpt lat="42.4592240" lon="-5.9897750">
        <ele>918.1</ele>
        <time>2020-04-09T18:31:14Z</time>
      </trkpt>
      <trkpt lat="42.4592010" lon="-5.9899150">
        <ele>918.1</ele>
        <time>2020-04-09T18:31:16Z</time>
      </trkpt>
      <trkpt lat="42.4591780" lon="-5.9900550">
        <ele>918.1</ele>
        <time>2020-04-09T18:31:18Z</time>
      </trkpt>
      <trkpt lat="42.4591550" lon="-5.9901960">
        <ele>918.2</ele>
        <time>2020-04-09T18:31:20Z</time>
      </trkpt>
      <trkpt lat="42.4591320" lon="-5.9903360">
        <ele>918.3</ele>
        <time>2020-04-09T18:31:22Z</time>
      </trkpt>
      <trkpt lat="42.4591090" lon="-5.9904730">
        <ele>918.3</ele>
        <time>2020-04-09T18:31:24Z</time>
      </trkpt>
      <trkpt lat="42.4590350" lon="-5.9909190">
        <ele>918.4</ele>
        <time>2020-04-09T18:31:26Z</time>
      </trkpt>
      <trkpt lat="42.4590100" lon="-5.9910620">
        <ele>918.4</ele>
        <time>2020-04-09T18:31:28Z</time>
      </trkpt>
      <trkpt lat="42.4589860" lon="-5.9912080">
        <ele>918.4</ele>
        <time>2020-04-09T18:31:30Z</time>
      </trkpt>
      <trkpt lat="42.4589610" lon="-5.9913590">
        <ele>918.4</ele>
        <time>2020-04-09T18:31:32Z</time>
      </trkpt>
      <trkpt lat="42.4589350" lon="-5.9915110">
        <ele>918.4</ele>
        <time>2020-04-09T18:31:34Z</time>
      </trkpt>
      <trkpt lat="42.4588740" lon="-5.9919210">
        <ele>918.5</ele>
        <time>2020-04-09T18:31:36Z</time>
      </trkpt>
      <trkpt lat="42.4587630" lon="-5.9921110">
        <ele>918.9</ele>
        <time>2020-04-09T18:31:38Z</time>
      </trkpt>
      <trkpt lat="42.4586810" lon="-5.9922130">
        <ele>919.2</ele>
        <time>2020-04-09T18:31:40Z</time>
      </trkpt>
      <trkpt lat="42.4586020" lon="-5.9923110">
        <ele>919.3</ele>
        <time>2020-04-09T18:31:42Z</time>
      </trkpt>
      <trkpt lat="42.4585250" lon="-5.9924080">
        <ele>919.3</ele>
        <time>2020-04-09T18:31:44Z</time>
      </trkpt>
      <trkpt lat="42.4584510" lon="-5.9925000">
        <ele>919.2</ele>
        <time>2020-04-09T18:31:46Z</time>
      </trkpt>
      <trkpt lat="42.4583780" lon="-5.9925920">
        <ele>919.0</ele>
        <time>2020-04-09T18:31:48Z</time>
      </trkpt>
      <trkpt lat="42.4583070" lon="-5.9926810">
        <ele>918.8</ele>
        <time>2020-04-09T18:31:50Z</time>
      </trkpt>
      <trkpt lat="42.4580630" lon="-5.9929850">
        <ele>918.4</ele>
        <time>2020-04-09T18:31:52Z</time>
      </trkpt>
      <trkpt lat="42.4579850" lon="-5.9930830">
        <ele>918.4</ele>
        <time>2020-04-09T18:31:54Z</time>
      </trkpt>
      <trkpt lat="42.4578990" lon="-5.9931900">
        <ele>918.4</ele>
        <time>2020-04-09T18:31:56Z</time>
      </trkpt>
      <trkpt lat="42.4578080" lon="-5.9933030">
        <ele>918.4</ele>
        <time>2020-04-09T18:31:58Z</time>
      </trkpt>
      <trkpt lat="42.4577130" lon="-5.9934230">
        <ele>918.3</ele>
        <time>2020-04-09T18:32:00Z</time>
      </trkpt>
      <trkpt lat="42.4574550" lon="-5.9937450">
        <ele>917.8</ele>
        <time>2020-04-09T18:32:02Z</time>
      </trkpt>
      <trkpt lat="42.4573160" lon="-5.9939200">
        <ele>917.5</ele>
        <time>2020-04-09T18:32:04Z</time>
      </trkpt>
      <trkpt lat="42.4572180" lon="-5.9940450">
        <ele>917.4</ele>
        <time>2020-04-09T18:32:06Z</time>
      </trkpt>
      <trkpt lat="42.4571230" lon="-5.9941660">
        <ele>917.4</ele>
        <time>2020-04-09T18:32:08Z</time>
      </trkpt>
      <trkpt lat="42.4569110" lon="-5.9944350">
        <ele>917.3</ele>
        <time>2020-04-09T18:32:10Z</time>
      </trkpt>
      <trkpt lat="42.4568170" lon="-5.9945540">
        <ele>917.2</ele>
        <time>2020-04-09T18:32:12Z</time>
      </trkpt>
      <trkpt lat="42.4567240" lon="-5.9946730">
        <ele>917.0</ele>
        <time>2020-04-09T18:32:14Z</time>
      </trkpt>
      <trkpt lat="42.4566310" lon="-5.9947910">
        <ele>916.8</ele>
        <time>2020-04-09T18:32:16Z</time>
      </trkpt>
      <trkpt lat="42.4565390" lon="-5.9949080">
        <ele>916.5</ele>
        <time>2020-04-09T18:32:18Z</time>
      </trkpt>
      <trkpt lat="42.4562980" lon="-5.9952300">
        <ele>916.3</ele>
        <time>2020-04-09T18:32:20Z</time>
      </trkpt>
      <trkpt lat="42.4562180" lon="-5.9953560">
        <ele>916.3</ele>
        <time>2020-04-09T18:32:22Z</time>
      </trkpt>
      <trkpt lat="42.4561400" lon="-5.9954800">
        <ele>916.3</ele>
        <time>2020-04-09T18:32:24Z</time>
      </trkpt>
      <trkpt lat="42.4560640" lon="-5.9956010">
        <ele>916.3</ele>
        <time>2020-04-09T18:32:26Z</time>
      </trkpt>
      <trkpt lat="42.4559890" lon="-5.9957200">
        <ele>916.3</ele>
        <time>2020-04-09T18:32:28Z</time>
      </trkpt>
      <trkpt lat="42.4557780" lon="-5.9960530">
        <ele>916.1</ele>
        <time>2020-04-09T18:32:30Z</time>
      </trkpt>
      <trkpt lat="42.4557050" lon="-5.9961700">
        <ele>916.0</ele>
        <time>2020-04-09T18:32:32Z</time>
      </trkpt>
      <trkpt lat="42.4556330" lon="-5.9962830">
        <ele>916.0</ele>
        <time>2020-04-09T18:32:34Z</time>
      </trkpt>
      <trkpt lat="42.4555630" lon="-5.9963950">
        <ele>916.0</ele>
        <time>2020-04-09T18:32:36Z</time>
      </trkpt>
      <trkpt lat="42.4554910" lon="-5.9965080">
        <ele>916.0</ele>
        <time>2020-04-09T18:32:38Z</time>
      </trkpt>
      <trkpt lat="42.4552880" lon="-5.9968340">
        <ele>915.6</ele>
        <time>2020-04-09T18:32:40Z</time>
      </trkpt>
      <trkpt lat="42.4552210" lon="-5.9969470">
        <ele>915.5</ele>
        <time>2020-04-09T18:32:42Z</time>
      </trkpt>
      <trkpt lat="42.4551520" lon="-5.9970630">
        <ele>915.4</ele>
        <time>2020-04-09T18:32:44Z</time>
      </trkpt>
      <trkpt lat="42.4550840" lon="-5.9971800">
        <ele>915.5</ele>
        <time>2020-04-09T18:32:46Z</time>
      </trkpt>
      <trkpt lat="42.4550130" lon="-5.9972990">
        <ele>915.6</ele>
        <time>2020-04-09T18:32:48Z</time>
      </trkpt>
      <trkpt lat="42.4548310" lon="-5.9976090">
        <ele>915.7</ele>
        <time>2020-04-09T18:32:50Z</time>
      </trkpt>
      <trkpt lat="42.4547610" lon="-5.9977280">
        <ele>915.6</ele>
        <time>2020-04-09T18:32:52Z</time>
      </trkpt>
      <trkpt lat="42.4546890" lon="-5.9978500">
        <ele>915.5</ele>
        <time>2020-04-09T18:32:54Z</time>
      </trkpt>
      <trkpt lat="42.4546180" lon="-5.9979710">
        <ele>915.6</ele>
        <time>2020-04-09T18:32:56Z</time>
      </trkpt>
      <trkpt lat="42.4544340" lon="-5.9982840">
        <ele>915.5</ele>
        <time>2020-04-09T18:32:58Z</time>
      </trkpt>
      <trkpt lat="42.4543590" lon="-5.9984120">
        <ele>915.5</ele>
        <time>2020-04-09T18:33:00Z</time>
      </trkpt>
      <trkpt lat="42.4542250" lon="-5.9986410">
        <ele>915.6</ele>
        <time>2020-04-09T18:33:02Z</time>
      </trkpt>
      <trkpt lat="42.4541450" lon="-5.9987800">
        <ele>915.5</ele>
        <time>2020-04-09T18:33:04Z</time>
      </trkpt>
      <trkpt lat="42.4540300" lon="-5.9990350">
        <ele>915.3</ele>
        <time>2020-04-09T18:33:06Z</time>
      </trkpt>
      <trkpt lat="42.4539770" lon="-5.9992410">
        <ele>915.2</ele>
        <time>2020-04-09T18:33:08Z</time>
      </trkpt>
      <trkpt lat="42.4539480" lon="-5.9994960">
        <ele>915.1</ele>
        <time>2020-04-09T18:33:10Z</time>
      </trkpt>
      <trkpt lat="42.4538970" lon="-5.9997570">
        <ele>914.8</ele>
        <time>2020-04-09T18:33:12Z</time>
      </trkpt>
      <trkpt lat="42.4538930" lon="-6.0000640">
        <ele>913.1</ele>
        <time>2020-04-09T18:33:14Z</time>
      </trkpt>
      <trkpt lat="42.4539230" lon="-6.0003020">
        <ele>911.5</ele>
        <time>2020-04-09T18:33:16Z</time>
      </trkpt>
      <trkpt lat="42.4539880" lon="-6.0007440">
        <ele>907.9</ele>
        <time>2020-04-09T18:33:18Z</time>
      </trkpt>
      <trkpt lat="42.4540890" lon="-6.0010780">
        <ele>905.2</ele>
        <time>2020-04-09T18:33:20Z</time>
      </trkpt>
      <trkpt lat="42.4542360" lon="-6.0014900">
        <ele>900.3</ele>
        <time>2020-04-09T18:33:22Z</time>
      </trkpt>
      <trkpt lat="42.4542900" lon="-6.0019170">
        <ele>894.9</ele>
        <time>2020-04-09T18:33:24Z</time>
      </trkpt>
      <trkpt lat="42.4543530" lon="-6.0023290">
        <ele>890.0</ele>
        <time>2020-04-09T18:33:26Z</time>
      </trkpt>
      <trkpt lat="42.4544330" lon="-6.0026870">
        <ele>886.3</ele>
        <time>2020-04-09T18:33:28Z</time>
      </trkpt>
      <trkpt lat="42.4545440" lon="-6.0033950">
        <ele>879.3</ele>
        <time>2020-04-09T18:33:30Z</time>
      </trkpt>
      <trkpt lat="42.4545020" lon="-6.0039010">
        <ele>875.6</ele>
        <time>2020-04-09T18:33:32Z</time>
      </trkpt>
      <trkpt lat="42.4544730" lon="-6.0042560">
        <ele>873.1</ele>
        <time>2020-04-09T18:33:34Z</time>
      </trkpt>
      <trkpt lat="42.4544230" lon="-6.0048090">
        <ele>869.7</ele>
        <time>2020-04-09T18:33:36Z</time>
      </trkpt>
      <trkpt lat="42.4543770" lon="-6.0052210">
        <ele>867.9</ele>
        <time>2020-04-09T18:33:38Z</time>
      </trkpt>
      <trkpt lat="42.4543220" lon="-6.0057190">
        <ele>865.7</ele>
        <time>2020-04-09T18:33:40Z</time>
      </trkpt>
      <trkpt lat="42.4543100" lon="-6.0061430">
        <ele>864.0</ele>
        <time>2020-04-09T18:33:42Z</time>
      </trkpt>
      <trkpt lat="42.4543380" lon="-6.0065180">
        <ele>862.5</ele>
        <time>2020-04-09T18:33:44Z</time>
      </trkpt>
      <trkpt lat="42.4543460" lon="-6.0068210">
        <ele>861.8</ele>
        <time>2020-04-09T18:33:46Z</time>
      </trkpt>
      <trkpt lat="42.4543530" lon="-6.0071140">
        <ele>861.2</ele>
        <time>2020-04-09T18:33:48Z</time>
      </trkpt>
      <trkpt lat="42.4543040" lon="-6.0076920">
        <ele>859.9</ele>
        <time>2020-04-09T18:33:50Z</time>
      </trkpt>
      <trkpt lat="42.4543150" lon="-6.0080520">
        <ele>859.0</ele>
        <time>2020-04-09T18:33:52Z</time>
      </trkpt>
      <trkpt lat="42.4543120" lon="-6.0084150">
        <ele>858.0</ele>
        <time>2020-04-09T18:33:54Z</time>
      </trkpt>
      <trkpt lat="42.4543090" lon="-6.0087290">
        <ele>857.5</ele>
        <time>2020-04-09T18:33:56Z</time>
      </trkpt>
      <trkpt lat="42.4543040" lon="-6.0089550">
        <ele>857.1</ele>
        <time>2020-04-09T18:33:58Z</time>
      </trkpt>
      <trkpt lat="42.4543000" lon="-6.0091670">
        <ele>856.8</ele>
        <time>2020-04-09T18:34:00Z</time>
      </trkpt>
      <trkpt lat="42.4542920" lon="-6.0095910">
        <ele>856.3</ele>
        <time>2020-04-09T18:34:02Z</time>
      </trkpt>
      <trkpt lat="42.4542890" lon="-6.0097800">
        <ele>856.1</ele>
        <time>2020-04-09T18:34:04Z</time>
      </trkpt>
      <trkpt lat="42.4542860" lon="-6.0099640">
        <ele>856.0</ele>
        <time>2020-04-09T18:34:06Z</time>
      </trkpt>
      <trkpt lat="42.4542830" lon="-6.0101430">
        <ele>855.9</ele>
        <time>2020-04-09T18:34:08Z</time>
      </trkpt>
      <trkpt lat="42.4542800" lon="-6.0103200">
        <ele>855.7</ele>
        <time>2020-04-09T18:34:10Z</time>
      </trkpt>
      <trkpt lat="42.4542700" lon="-6.0108100">
        <ele>855.2</ele>
        <time>2020-04-09T18:34:12Z</time>
      </trkpt>
      <trkpt lat="42.4542660" lon="-6.0109960">
        <ele>855.0</ele>
        <time>2020-04-09T18:34:14Z</time>
      </trkpt>
      <trkpt lat="42.4542630" lon="-6.0111870">
        <ele>855.0</ele>
        <time>2020-04-09T18:34:16Z</time>
      </trkpt>
      <trkpt lat="42.4542590" lon="-6.0113840">
        <ele>854.9</ele>
        <time>2020-04-09T18:34:18Z</time>
      </trkpt>
      <trkpt lat="42.4542530" lon="-6.0118990">
        <ele>855.2</ele>
        <time>2020-04-09T18:34:20Z</time>
      </trkpt>
      <trkpt lat="42.4542490" lon="-6.0121130">
        <ele>855.2</ele>
        <time>2020-04-09T18:34:22Z</time>
      </trkpt>
      <trkpt lat="42.4542430" lon="-6.0123190">
        <ele>855.2</ele>
        <time>2020-04-09T18:34:24Z</time>
      </trkpt>
      <trkpt lat="42.4542310" lon="-6.0127210">
        <ele>854.8</ele>
        <time>2020-04-09T18:34:26Z</time>
      </trkpt>
      <trkpt lat="42.4542230" lon="-6.0129300">
        <ele>854.4</ele>
        <time>2020-04-09T18:34:28Z</time>
      </trkpt>
      <trkpt lat="42.4542140" lon="-6.0131390">
        <ele>854.1</ele>
        <time>2020-04-09T18:34:30Z</time>
      </trkpt>
      <trkpt lat="42.4541980" lon="-6.0135800">
        <ele>853.5</ele>
        <time>2020-04-09T18:34:32Z</time>
      </trkpt>
      <trkpt lat="42.4541950" lon="-6.0137890">
        <ele>853.2</ele>
        <time>2020-04-09T18:34:34Z</time>
      </trkpt>
      <trkpt lat="42.4541920" lon="-6.0139960">
        <ele>853.1</ele>
        <time>2020-04-09T18:34:36Z</time>
      </trkpt>
      <trkpt lat="42.4541890" lon="-6.0142030">
        <ele>852.9</ele>
        <time>2020-04-09T18:34:38Z</time>
      </trkpt>
      <trkpt lat="42.4541850" lon="-6.0146910">
        <ele>851.7</ele>
        <time>2020-04-09T18:34:40Z</time>
      </trkpt>
      <trkpt lat="42.4541940" lon="-6.0149830">
        <ele>851.1</ele>
        <time>2020-04-09T18:34:42Z</time>
      </trkpt>
      <trkpt lat="42.4542210" lon="-6.0151850">
        <ele>850.8</ele>
        <time>2020-04-09T18:34:44Z</time>
      </trkpt>
      <trkpt lat="42.4542660" lon="-6.0155150">
        <ele>850.7</ele>
        <time>2020-04-09T18:34:46Z</time>
      </trkpt>
      <trkpt lat="42.4543070" lon="-6.0158080">
        <ele>850.4</ele>
        <time>2020-04-09T18:34:48Z</time>
      </trkpt>
      <trkpt lat="42.4543320" lon="-6.0161020">
        <ele>849.6</ele>
        <time>2020-04-09T18:34:51Z</time>
      </trkpt>
      <trkpt lat="42.4543380" lon="-6.0163220">
        <ele>849.3</ele>
        <time>2020-04-09T18:34:53Z</time>
      </trkpt>
      <trkpt lat="42.4543440" lon="-6.0165430">
        <ele>848.9</ele>
        <time>2020-04-09T18:34:55Z</time>
      </trkpt>
      <trkpt lat="42.4543480" lon="-6.0169340">
        <ele>848.1</ele>
        <time>2020-04-09T18:34:57Z</time>
      </trkpt>
      <trkpt lat="42.4543530" lon="-6.0172860">
        <ele>846.9</ele>
        <time>2020-04-09T18:34:59Z</time>
      </trkpt>
      <trkpt lat="42.4543640" lon="-6.0176510">
        <ele>844.8</ele>
        <time>2020-04-09T18:35:01Z</time>
      </trkpt>
      <trkpt lat="42.4543780" lon="-6.0179500">
        <ele>843.2</ele>
        <time>2020-04-09T18:35:03Z</time>
      </trkpt>
      <trkpt lat="42.4543970" lon="-6.0182950">
        <ele>842.1</ele>
        <time>2020-04-09T18:35:05Z</time>
      </trkpt>
      <trkpt lat="42.4544110" lon="-6.0185330">
        <ele>841.4</ele>
        <time>2020-04-09T18:35:07Z</time>
      </trkpt>
      <trkpt lat="42.4544230" lon="-6.0187560">
        <ele>840.9</ele>
        <time>2020-04-09T18:35:09Z</time>
      </trkpt>
      <trkpt lat="42.4544520" lon="-6.0192500">
        <ele>839.7</ele>
        <time>2020-04-09T18:35:11Z</time>
      </trkpt>
      <trkpt lat="42.4544630" lon="-6.0194470">
        <ele>839.1</ele>
        <time>2020-04-09T18:35:13Z</time>
      </trkpt>
      <trkpt lat="42.4544740" lon="-6.0196370">
        <ele>839.1</ele>
        <time>2020-04-09T18:35:15Z</time>
      </trkpt>
      <trkpt lat="42.4544840" lon="-6.0198190">
        <ele>839.1</ele>
        <time>2020-04-09T18:35:17Z</time>
      </trkpt>
      <trkpt lat="42.4545110" lon="-6.0202820">
        <ele>839.0</ele>
        <time>2020-04-09T18:35:19Z</time>
      </trkpt>
      <trkpt lat="42.4545210" lon="-6.0204850">
        <ele>839.0</ele>
        <time>2020-04-09T18:35:21Z</time>
      </trkpt>
      <trkpt lat="42.4545300" lon="-6.0206650">
        <ele>839.0</ele>
        <time>2020-04-09T18:35:23Z</time>
      </trkpt>
      <trkpt lat="42.4545380" lon="-6.0208410">
        <ele>839.1</ele>
        <time>2020-04-09T18:35:25Z</time>
      </trkpt>
      <trkpt lat="42.4545470" lon="-6.0210190">
        <ele>839.3</ele>
        <time>2020-04-09T18:35:27Z</time>
      </trkpt>
      <trkpt lat="42.4546110" lon="-6.0214870">
        <ele>839.5</ele>
        <time>2020-04-09T18:35:29Z</time>
      </trkpt>
      <trkpt lat="42.4546210" lon="-6.0216560">
        <ele>839.4</ele>
        <time>2020-04-09T18:35:31Z</time>
      </trkpt>
      <trkpt lat="42.4546360" lon="-6.0219230">
        <ele>839.1</ele>
        <time>2020-04-09T18:35:33Z</time>
      </trkpt>
      <trkpt lat="42.4546460" lon="-6.0221450">
        <ele>839.0</ele>
        <time>2020-04-09T18:35:35Z</time>
      </trkpt>
      <trkpt lat="42.4546490" lon="-6.0223490">
        <ele>838.8</ele>
        <time>2020-04-09T18:35:37Z</time>
      </trkpt>
      <trkpt lat="42.4546250" lon="-6.0225920">
        <ele>838.9</ele>
        <time>2020-04-09T18:35:39Z</time>
      </trkpt>
      <trkpt lat="42.4545580" lon="-6.0227520">
        <ele>838.9</ele>
        <time>2020-04-09T18:35:41Z</time>
      </trkpt>
      <trkpt lat="42.4544580" lon="-6.0229170">
        <ele>838.9</ele>
        <time>2020-04-09T18:35:43Z</time>
      </trkpt>
      <trkpt lat="42.4543430" lon="-6.0230490">
        <ele>839.0</ele>
        <time>2020-04-09T18:35:45Z</time>
      </trkpt>
      <trkpt lat="42.4542550" lon="-6.0231460">
        <ele>839.3</ele>
        <time>2020-04-09T18:35:47Z</time>
      </trkpt>
      <trkpt lat="42.4541630" lon="-6.0232470">
        <ele>839.5</ele>
        <time>2020-04-09T18:35:49Z</time>
      </trkpt>
      <trkpt lat="42.4540670" lon="-6.0233520">
        <ele>839.6</ele>
        <time>2020-04-09T18:35:51Z</time>
      </trkpt>
      <trkpt lat="42.4538660" lon="-6.0236250">
        <ele>839.7</ele>
        <time>2020-04-09T18:35:53Z</time>
      </trkpt>
      <trkpt lat="42.4538320" lon="-6.0238730">
        <ele>839.7</ele>
        <time>2020-04-09T18:35:55Z</time>
      </trkpt>
      <trkpt lat="42.4538360" lon="-6.0241290">
        <ele>839.8</ele>
        <time>2020-04-09T18:35:57Z</time>
      </trkpt>
      <trkpt lat="42.4538450" lon="-6.0243120">
        <ele>839.7</ele>
        <time>2020-04-09T18:35:59Z</time>
      </trkpt>
      <trkpt lat="42.4538540" lon="-6.0244970">
        <ele>839.5</ele>
        <time>2020-04-09T18:36:01Z</time>
      </trkpt>
      <trkpt lat="42.4538620" lon="-6.0246820">
        <ele>839.2</ele>
        <time>2020-04-09T18:36:03Z</time>
      </trkpt>
      <trkpt lat="42.4538820" lon="-6.0250930">
        <ele>839.0</ele>
        <time>2020-04-09T18:36:05Z</time>
      </trkpt>
      <trkpt lat="42.4538950" lon="-6.0253200">
        <ele>839.0</ele>
        <time>2020-04-09T18:36:07Z</time>
      </trkpt>
      <trkpt lat="42.4538620" lon="-6.0255530">
        <ele>839.0</ele>
        <time>2020-04-09T18:36:09Z</time>
      </trkpt>
      <trkpt lat="42.4538690" lon="-6.0257400">
        <ele>839.4</ele>
        <time>2020-04-09T18:36:11Z</time>
      </trkpt>
      <trkpt lat="42.4538770" lon="-6.0259240">
        <ele>839.6</ele>
        <time>2020-04-09T18:36:13Z</time>
      </trkpt>
      <trkpt lat="42.4538910" lon="-6.0262680">
        <ele>839.4</ele>
        <time>2020-04-09T18:36:15Z</time>
      </trkpt>
      <trkpt lat="42.4538980" lon="-6.0264500">
        <ele>839.1</ele>
        <time>2020-04-09T18:36:17Z</time>
      </trkpt>
      <trkpt lat="42.4539060" lon="-6.0266310">
        <ele>838.9</ele>
        <time>2020-04-09T18:36:19Z</time>
      </trkpt>
      <trkpt lat="42.4539130" lon="-6.0268100">
        <ele>838.9</ele>
        <time>2020-04-09T18:36:21Z</time>
      </trkpt>
      <trkpt lat="42.4539330" lon="-6.0272870">
        <ele>838.6</ele>
        <time>2020-04-09T18:36:23Z</time>
      </trkpt>
      <trkpt lat="42.4539400" lon="-6.0274630">
        <ele>838.5</ele>
        <time>2020-04-09T18:36:25Z</time>
      </trkpt>
      <trkpt lat="42.4539470" lon="-6.0276390">
        <ele>838.5</ele>
        <time>2020-04-09T18:36:27Z</time>
      </trkpt>
      <trkpt lat="42.4539540" lon="-6.0278130">
        <ele>838.7</ele>
        <time>2020-04-09T18:36:29Z</time>
      </trkpt>
      <trkpt lat="42.4539610" lon="-6.0279860">
        <ele>838.8</ele>
        <time>2020-04-09T18:36:31Z</time>
      </trkpt>
      <trkpt lat="42.4539800" lon="-6.0284600">
        <ele>838.9</ele>
        <time>2020-04-09T18:36:33Z</time>
      </trkpt>
      <trkpt lat="42.4539870" lon="-6.0286330">
        <ele>838.9</ele>
        <time>2020-04-09T18:36:35Z</time>
      </trkpt>
      <trkpt lat="42.4539940" lon="-6.0288070">
        <ele>838.9</ele>
        <time>2020-04-09T18:36:37Z</time>
      </trkpt>
      <trkpt lat="42.4540020" lon="-6.0289800">
        <ele>838.9</ele>
        <time>2020-04-09T18:36:39Z</time>
      </trkpt>
      <trkpt lat="42.4540090" lon="-6.0291520">
        <ele>838.9</ele>
        <time>2020-04-09T18:36:41Z</time>
      </trkpt>
      <trkpt lat="42.4540280" lon="-6.0296250">
        <ele>838.7</ele>
        <time>2020-04-09T18:36:43Z</time>
      </trkpt>
      <trkpt lat="42.4540350" lon="-6.0297980">
        <ele>838.6</ele>
        <time>2020-04-09T18:36:45Z</time>
      </trkpt>
      <trkpt lat="42.4540420" lon="-6.0299700">
        <ele>838.7</ele>
        <time>2020-04-09T18:36:47Z</time>
      </trkpt>
      <trkpt lat="42.4540500" lon="-6.0301450">
        <ele>839.0</ele>
        <time>2020-04-09T18:36:49Z</time>
      </trkpt>
      <trkpt lat="42.4540570" lon="-6.0303180">
        <ele>839.0</ele>
        <time>2020-04-09T18:36:51Z</time>
      </trkpt>
      <trkpt lat="42.4540760" lon="-6.0307900">
        <ele>838.7</ele>
        <time>2020-04-09T18:36:53Z</time>
      </trkpt>
      <trkpt lat="42.4540830" lon="-6.0309610">
        <ele>838.8</ele>
        <time>2020-04-09T18:36:55Z</time>
      </trkpt>
      <trkpt lat="42.4540900" lon="-6.0311340">
        <ele>838.9</ele>
        <time>2020-04-09T18:36:57Z</time>
      </trkpt>
      <trkpt lat="42.4540970" lon="-6.0313050">
        <ele>838.9</ele>
        <time>2020-04-09T18:36:59Z</time>
      </trkpt>
      <trkpt lat="42.4541040" lon="-6.0314750">
        <ele>838.9</ele>
        <time>2020-04-09T18:37:01Z</time>
      </trkpt>
      <trkpt lat="42.4541230" lon="-6.0319440">
        <ele>839.0</ele>
        <time>2020-04-09T18:37:03Z</time>
      </trkpt>
      <trkpt lat="42.4541300" lon="-6.0321160">
        <ele>839.2</ele>
        <time>2020-04-09T18:37:05Z</time>
      </trkpt>
      <trkpt lat="42.4541370" lon="-6.0322920">
        <ele>839.3</ele>
        <time>2020-04-09T18:37:07Z</time>
      </trkpt>
      <trkpt lat="42.4541450" lon="-6.0324730">
        <ele>839.5</ele>
        <time>2020-04-09T18:37:09Z</time>
      </trkpt>
      <trkpt lat="42.4541520" lon="-6.0326540">
        <ele>839.8</ele>
        <time>2020-04-09T18:37:11Z</time>
      </trkpt>
      <trkpt lat="42.4541740" lon="-6.0331650">
        <ele>841.0</ele>
        <time>2020-04-09T18:37:13Z</time>
      </trkpt>
      <trkpt lat="42.4541830" lon="-6.0333460">
        <ele>841.0</ele>
        <time>2020-04-09T18:37:15Z</time>
      </trkpt>
      <trkpt lat="42.4541910" lon="-6.0335260">
        <ele>841.1</ele>
        <time>2020-04-09T18:37:17Z</time>
      </trkpt>
      <trkpt lat="42.4542000" lon="-6.0337030">
        <ele>841.2</ele>
        <time>2020-04-09T18:37:19Z</time>
      </trkpt>
      <trkpt lat="42.4542210" lon="-6.0341450">
        <ele>841.4</ele>
        <time>2020-04-09T18:37:21Z</time>
      </trkpt>
      <trkpt lat="42.4542290" lon="-6.0343170">
        <ele>841.5</ele>
        <time>2020-04-09T18:37:23Z</time>
      </trkpt>
      <trkpt lat="42.4542370" lon="-6.0344860">
        <ele>841.6</ele>
        <time>2020-04-09T18:37:25Z</time>
      </trkpt>
      <trkpt lat="42.4542460" lon="-6.0346540">
        <ele>841.6</ele>
        <time>2020-04-09T18:37:27Z</time>
      </trkpt>
      <trkpt lat="42.4542540" lon="-6.0348220">
        <ele>841.6</ele>
        <time>2020-04-09T18:37:29Z</time>
      </trkpt>
      <trkpt lat="42.4542740" lon="-6.0352870">
        <ele>841.6</ele>
        <time>2020-04-09T18:37:31Z</time>
      </trkpt>
      <trkpt lat="42.4542810" lon="-6.0354580">
        <ele>841.4</ele>
        <time>2020-04-09T18:37:33Z</time>
      </trkpt>
      <trkpt lat="42.4542880" lon="-6.0356350">
        <ele>841.3</ele>
        <time>2020-04-09T18:37:35Z</time>
      </trkpt>
      <trkpt lat="42.4542950" lon="-6.0358210">
        <ele>841.2</ele>
        <time>2020-04-09T18:37:37Z</time>
      </trkpt>
      <trkpt lat="42.4543030" lon="-6.0360120">
        <ele>841.3</ele>
        <time>2020-04-09T18:37:39Z</time>
      </trkpt>
      <trkpt lat="42.4543220" lon="-6.0365000">
        <ele>841.4</ele>
        <time>2020-04-09T18:37:41Z</time>
      </trkpt>
      <trkpt lat="42.4543300" lon="-6.0367000">
        <ele>841.4</ele>
        <time>2020-04-09T18:37:43Z</time>
      </trkpt>
      <trkpt lat="42.4543380" lon="-6.0369040">
        <ele>841.4</ele>
        <time>2020-04-09T18:37:45Z</time>
      </trkpt>
      <trkpt lat="42.4543460" lon="-6.0371110">
        <ele>841.3</ele>
        <time>2020-04-09T18:37:47Z</time>
      </trkpt>
      <trkpt lat="42.4543670" lon="-6.0376350">
        <ele>841.0</ele>
        <time>2020-04-09T18:37:49Z</time>
      </trkpt>
      <trkpt lat="42.4543750" lon="-6.0378430">
        <ele>840.9</ele>
        <time>2020-04-09T18:37:51Z</time>
      </trkpt>
      <trkpt lat="42.4543820" lon="-6.0380460">
        <ele>840.7</ele>
        <time>2020-04-09T18:37:53Z</time>
      </trkpt>
      <trkpt lat="42.4543890" lon="-6.0382450">
        <ele>840.5</ele>
        <time>2020-04-09T18:37:55Z</time>
      </trkpt>
      <trkpt lat="42.4544070" lon="-6.0387170">
        <ele>839.8</ele>
        <time>2020-04-09T18:37:57Z</time>
      </trkpt>
      <trkpt lat="42.4544160" lon="-6.0389810">
        <ele>839.7</ele>
        <time>2020-04-09T18:37:59Z</time>
      </trkpt>
      <trkpt lat="42.4544310" lon="-6.0392680">
        <ele>840.0</ele>
        <time>2020-04-09T18:38:01Z</time>
      </trkpt>
      <trkpt lat="42.4545830" lon="-6.0393800">
        <ele>840.5</ele>
        <time>2020-04-09T18:38:03Z</time>
      </trkpt>
      <trkpt lat="42.4545800" lon="-6.0396260">
        <ele>840.9</ele>
        <time>2020-04-09T18:38:05Z</time>
      </trkpt>
      <trkpt lat="42.4544120" lon="-6.0397260">
        <ele>841.2</ele>
        <time>2020-04-09T18:38:07Z</time>
      </trkpt>
      <trkpt lat="42.4542740" lon="-6.0395570">
        <ele>841.2</ele>
        <time>2020-04-09T18:38:09Z</time>
      </trkpt>
      <trkpt lat="42.4540990" lon="-6.0395560">
        <ele>841.0</ele>
        <time>2020-04-09T18:38:11Z</time>
      </trkpt>
      <trkpt lat="42.4538920" lon="-6.0396010">
        <ele>840.9</ele>
        <time>2020-04-09T18:38:13Z</time>
      </trkpt>
      <trkpt lat="42.4537490" lon="-6.0396580">
        <ele>841.1</ele>
        <time>2020-04-09T18:38:15Z</time>
      </trkpt>
      <trkpt lat="42.4535350" lon="-6.0397710">
        <ele>841.0</ele>
        <time>2020-04-09T18:38:17Z</time>
      </trkpt>
      <trkpt lat="42.4534110" lon="-6.0398600">
        <ele>840.7</ele>
        <time>2020-04-09T18:38:19Z</time>
      </trkpt>
      <trkpt lat="42.4531930" lon="-6.0400300">
        <ele>840.5</ele>
        <time>2020-04-09T18:38:21Z</time>
      </trkpt>
      <trkpt lat="42.4530820" lon="-6.0401350">
        <ele>840.4</ele>
        <time>2020-04-09T18:38:23Z</time>
      </trkpt>
      <trkpt lat="42.4528840" lon="-6.0403320">
        <ele>840.0</ele>
        <time>2020-04-09T18:38:25Z</time>
      </trkpt>
      <trkpt lat="42.4527890" lon="-6.0404630">
        <ele>839.6</ele>
        <time>2020-04-09T18:38:27Z</time>
      </trkpt>
      <trkpt lat="42.4526900" lon="-6.0405990">
        <ele>839.3</ele>
        <time>2020-04-09T18:38:29Z</time>
      </trkpt>
      <trkpt lat="42.4525290" lon="-6.0408710">
        <ele>839.2</ele>
        <time>2020-04-09T18:38:31Z</time>
      </trkpt>
      <trkpt lat="42.4524520" lon="-6.0410400">
        <ele>839.1</ele>
        <time>2020-04-09T18:38:33Z</time>
      </trkpt>
      <trkpt lat="42.4523260" lon="-6.0413570">
        <ele>839.3</ele>
        <time>2020-04-09T18:38:35Z</time>
      </trkpt>
      <trkpt lat="42.4522470" lon="-6.0416380">
        <ele>839.6</ele>
        <time>2020-04-09T18:38:37Z</time>
      </trkpt>
      <trkpt lat="42.4522080" lon="-6.0418250">
        <ele>839.7</ele>
        <time>2020-04-09T18:38:39Z</time>
      </trkpt>
      <trkpt lat="42.4521570" lon="-6.0421180">
        <ele>839.7</ele>
        <time>2020-04-09T18:38:41Z</time>
      </trkpt>
      <trkpt lat="42.4521380" lon="-6.0423790">
        <ele>839.6</ele>
        <time>2020-04-09T18:38:43Z</time>
      </trkpt>
      <trkpt lat="42.4521370" lon="-6.0425700">
        <ele>839.6</ele>
        <time>2020-04-09T18:38:45Z</time>
      </trkpt>
      <trkpt lat="42.4521490" lon="-6.0428850">
        <ele>839.5</ele>
        <time>2020-04-09T18:38:47Z</time>
      </trkpt>
      <trkpt lat="42.4521800" lon="-6.0431340">
        <ele>839.5</ele>
        <time>2020-04-09T18:38:49Z</time>
      </trkpt>
      <trkpt lat="42.4522060" lon="-6.0433060">
        <ele>839.9</ele>
        <time>2020-04-09T18:38:51Z</time>
      </trkpt>
      <trkpt lat="42.4522690" lon="-6.0435800">
        <ele>840.6</ele>
        <time>2020-04-09T18:38:53Z</time>
      </trkpt>
      <trkpt lat="42.4523180" lon="-6.0437330">
        <ele>840.9</ele>
        <time>2020-04-09T18:38:55Z</time>
      </trkpt>
      <trkpt lat="42.4524140" lon="-6.0440260">
        <ele>841.3</ele>
        <time>2020-04-09T18:38:57Z</time>
      </trkpt>
      <trkpt lat="42.4524820" lon="-6.0441640">
        <ele>841.4</ele>
        <time>2020-04-09T18:38:59Z</time>
      </trkpt>
      <trkpt lat="42.4525500" lon="-6.0443010">
        <ele>841.5</ele>
        <time>2020-04-09T18:39:01Z</time>
      </trkpt>
      <trkpt lat="42.4526190" lon="-6.0444410">
        <ele>841.5</ele>
        <time>2020-04-09T18:39:03Z</time>
      </trkpt>
      <trkpt lat="42.4527740" lon="-6.0447460">
        <ele>841.5</ele>
        <time>2020-04-09T18:39:05Z</time>
      </trkpt>
      <trkpt lat="42.4528490" lon="-6.0448850">
        <ele>841.5</ele>
        <time>2020-04-09T18:39:07Z</time>
      </trkpt>
      <trkpt lat="42.4529250" lon="-6.0450260">
        <ele>841.5</ele>
        <time>2020-04-09T18:39:09Z</time>
      </trkpt>
      <trkpt lat="42.4530940" lon="-6.0453380">
        <ele>841.6</ele>
        <time>2020-04-09T18:39:11Z</time>
      </trkpt>
      <trkpt lat="42.4531940" lon="-6.0455230">
        <ele>841.6</ele>
        <time>2020-04-09T18:39:13Z</time>
      </trkpt>
      <trkpt lat="42.4532730" lon="-6.0456670">
        <ele>841.6</ele>
        <time>2020-04-09T18:39:15Z</time>
      </trkpt>
      <trkpt lat="42.4533520" lon="-6.0458120">
        <ele>841.6</ele>
        <time>2020-04-09T18:39:17Z</time>
      </trkpt>
      <trkpt lat="42.4534310" lon="-6.0459580">
        <ele>841.8</ele>
        <time>2020-04-09T18:39:19Z</time>
      </trkpt>
      <trkpt lat="42.4536250" lon="-6.0463140">
        <ele>842.4</ele>
        <time>2020-04-09T18:39:21Z</time>
      </trkpt>
      <trkpt lat="42.4537380" lon="-6.0465230">
        <ele>842.9</ele>
        <time>2020-04-09T18:39:23Z</time>
      </trkpt>
      <trkpt lat="42.4538180" lon="-6.0466720">
        <ele>842.9</ele>
        <time>2020-04-09T18:39:25Z</time>
      </trkpt>
      <trkpt lat="42.4538990" lon="-6.0468210">
        <ele>842.6</ele>
        <time>2020-04-09T18:39:27Z</time>
      </trkpt>
      <trkpt lat="42.4540590" lon="-6.0471200">
        <ele>842.1</ele>
        <time>2020-04-09T18:39:29Z</time>
      </trkpt>
      <trkpt lat="42.4541380" lon="-6.0472670">
        <ele>841.9</ele>
        <time>2020-04-09T18:39:31Z</time>
      </trkpt>
      <trkpt lat="42.4542720" lon="-6.0475250">
        <ele>841.6</ele>
        <time>2020-04-09T18:39:33Z</time>
      </trkpt>
      <trkpt lat="42.4543410" lon="-6.0476810">
        <ele>841.4</ele>
        <time>2020-04-09T18:39:35Z</time>
      </trkpt>
      <trkpt lat="42.4544730" lon="-6.0478980">
        <ele>841.3</ele>
        <time>2020-04-09T18:39:37Z</time>
      </trkpt>
      <trkpt lat="42.4546490" lon="-6.0479200">
        <ele>841.7</ele>
        <time>2020-04-09T18:39:39Z</time>
      </trkpt>
      <trkpt lat="42.4547250" lon="-6.0481090">
        <ele>842.0</ele>
        <time>2020-04-09T18:39:41Z</time>
      </trkpt>
      <trkpt lat="42.4546690" lon="-6.0482970">
        <ele>842.2</ele>
        <time>2020-04-09T18:39:43Z</time>
      </trkpt>
      <trkpt lat="42.4545380" lon="-6.0483620">
        <ele>841.9</ele>
        <time>2020-04-09T18:39:45Z</time>
      </trkpt>
      <trkpt lat="42.4544010" lon="-6.0482960">
        <ele>841.6</ele>
        <time>2020-04-09T18:39:47Z</time>
      </trkpt>
      <trkpt lat="42.4542830" lon="-6.0483990">
        <ele>841.7</ele>
        <time>2020-04-09T18:39:49Z</time>
      </trkpt>
      <trkpt lat="42.4542070" lon="-6.0484820">
        <ele>841.8</ele>
        <time>2020-04-09T18:39:51Z</time>
      </trkpt>
      <trkpt lat="42.4540970" lon="-6.0486150">
        <ele>842.6</ele>
        <time>2020-04-09T18:39:53Z</time>
      </trkpt>
      <trkpt lat="42.4540370" lon="-6.0487050">
        <ele>843.6</ele>
        <time>2020-04-09T18:39:55Z</time>
      </trkpt>
      <trkpt lat="42.4539510" lon="-6.0488520">
        <ele>845.2</ele>
        <time>2020-04-09T18:39:57Z</time>
      </trkpt>
      <trkpt lat="42.4538730" lon="-6.0490040">
        <ele>846.7</ele>
        <time>2020-04-09T18:39:59Z</time>
      </trkpt>
      <trkpt lat="42.4538330" lon="-6.0491020">
        <ele>847.6</ele>
        <time>2020-04-09T18:40:01Z</time>
      </trkpt>
      <trkpt lat="42.4537750" lon="-6.0492580">
        <ele>848.9</ele>
        <time>2020-04-09T18:40:03Z</time>
      </trkpt>
      <trkpt lat="42.4537500" lon="-6.0493590">
        <ele>849.7</ele>
        <time>2020-04-09T18:40:05Z</time>
      </trkpt>
      <trkpt lat="42.4537050" lon="-6.0495340">
        <ele>850.9</ele>
        <time>2020-04-09T18:40:07Z</time>
      </trkpt>
      <trkpt lat="42.4536770" lon="-6.0496240">
        <ele>851.4</ele>
        <time>2020-04-09T18:40:09Z</time>
      </trkpt>
      <trkpt lat="42.4536510" lon="-6.0497070">
        <ele>851.9</ele>
        <time>2020-04-09T18:40:11Z</time>
      </trkpt>
      <trkpt lat="42.4536280" lon="-6.0497830">
        <ele>852.4</ele>
        <time>2020-04-09T18:40:13Z</time>
      </trkpt>
      <trkpt lat="42.4536050" lon="-6.0498550">
        <ele>852.8</ele>
        <time>2020-04-09T18:40:15Z</time>
      </trkpt>
      <trkpt lat="42.4535830" lon="-6.0499250">
        <ele>853.2</ele>
        <time>2020-04-09T18:40:17Z</time>
      </trkpt>
      <trkpt lat="42.4535620" lon="-6.0499940">
        <ele>853.7</ele>
        <time>2020-04-09T18:40:19Z</time>
      </trkpt>
      <trkpt lat="42.4535410" lon="-6.0500610">
        <ele>854.2</ele>
        <time>2020-04-09T18:40:21Z</time>
      </trkpt>
      <trkpt lat="42.4535200" lon="-6.0501280">
        <ele>854.6</ele>
        <time>2020-04-09T18:40:23Z</time>
      </trkpt>
      <trkpt lat="42.4534040" lon="-6.0503360">
        <ele>856.2</ele>
        <time>2020-04-09T18:40:25Z</time>
      </trkpt>
      <trkpt lat="42.4533530" lon="-6.0503180">
        <ele>856.2</ele>
        <time>2020-04-09T18:40:27Z</time>
      </trkpt>
      <trkpt lat="42.4533030" lon="-6.0503010">
        <ele>856.1</ele>
        <time>2020-04-09T18:40:29Z</time>
      </trkpt>
      <trkpt lat="42.4532520" lon="-6.0502820">
        <ele>856.1</ele>
        <time>2020-04-09T18:40:31Z</time>
      </trkpt>
      <trkpt lat="42.4531140" lon="-6.0502340">
        <ele>855.9</ele>
        <time>2020-04-09T18:40:33Z</time>
      </trkpt>
      <trkpt lat="42.4530450" lon="-6.0502240">
        <ele>855.9</ele>
        <time>2020-04-09T18:40:35Z</time>
      </trkpt>
      <trkpt lat="42.4529810" lon="-6.0502180">
        <ele>855.8</ele>
        <time>2020-04-09T18:40:37Z</time>
      </trkpt>
      <trkpt lat="42.4528600" lon="-6.0502240">
        <ele>855.6</ele>
        <time>2020-04-09T18:40:39Z</time>
      </trkpt>
      <trkpt lat="42.4528400" lon="-6.0502270">
        <ele>855.6</ele>
        <time>2020-04-09T18:40:41Z</time>
      </trkpt>
      <trkpt lat="42.4529100" lon="-6.0502790">
        <ele>856.8</ele>
        <time>2020-04-09T18:40:43Z</time>
      </trkpt>
      <trkpt lat="42.4529370" lon="-6.0503840">
        <ele>857.7</ele>
        <time>2020-04-09T18:40:45Z</time>
      </trkpt>
      <trkpt lat="42.4529820" lon="-6.0504200">
        <ele>858.3</ele>
        <time>2020-04-09T18:40:47Z</time>
      </trkpt>
      <trkpt lat="42.4530520" lon="-6.0504800">
        <ele>859.2</ele>
        <time>2020-04-09T18:40:49Z</time>
      </trkpt>
      <trkpt lat="42.4530800" lon="-6.0505120">
        <ele>859.6</ele>
        <time>2020-04-09T18:40:51Z</time>
      </trkpt>
      <trkpt lat="42.4531070" lon="-6.0505420">
        <ele>860.0</ele>
        <time>2020-04-09T18:40:53Z</time>
      </trkpt>
      <trkpt lat="42.4531500" lon="-6.0506210">
        <ele>861.0</ele>
        <time>2020-04-09T18:40:55Z</time>
      </trkpt>
      <trkpt lat="42.4531410" lon="-6.0507380">
        <ele>861.4</ele>
        <time>2020-04-09T18:40:57Z</time>
      </trkpt>
      <trkpt lat="42.4531160" lon="-6.0508690">
        <ele>863.5</ele>
        <time>2020-04-09T18:40:59Z</time>
      </trkpt>
      <trkpt lat="42.4530970" lon="-6.0509740">
        <ele>864.1</ele>
        <time>2020-04-09T18:41:01Z</time>
      </trkpt>
      <trkpt lat="42.4530770" lon="-6.0510830">
        <ele>864.6</ele>
        <time>2020-04-09T18:41:03Z</time>
      </trkpt>
      <trkpt lat="42.4530370" lon="-6.0513130">
        <ele>865.9</ele>
        <time>2020-04-09T18:41:05Z</time>
      </trkpt>
      <trkpt lat="42.4530720" lon="-6.0514620">
        <ele>866.1</ele>
        <time>2020-04-09T18:41:07Z</time>
      </trkpt>
      <trkpt lat="42.4531710" lon="-6.0515510">
        <ele>866.5</ele>
        <time>2020-04-09T18:41:09Z</time>
      </trkpt>
      <trkpt lat="42.4532700" lon="-6.0516400">
        <ele>867.1</ele>
        <time>2020-04-09T18:41:11Z</time>
      </trkpt>
      <trkpt lat="42.4533410" lon="-6.0517110">
        <ele>867.1</ele>
        <time>2020-04-09T18:41:13Z</time>
      </trkpt>
      <trkpt lat="42.4534470" lon="-6.0518180">
        <ele>867.6</ele>
        <time>2020-04-09T18:41:15Z</time>
      </trkpt>
      <trkpt lat="42.4535580" lon="-6.0519300">
        <ele>868.1</ele>
        <time>2020-04-09T18:41:17Z</time>
      </trkpt>
      <trkpt lat="42.4536560" lon="-6.0520290">
        <ele>868.7</ele>
        <time>2020-04-09T18:41:19Z</time>
      </trkpt>
      <trkpt lat="42.4537200" lon="-6.0521140">
        <ele>869.1</ele>
        <time>2020-04-09T18:41:21Z</time>
      </trkpt>
      <trkpt lat="42.4537850" lon="-6.0521970">
        <ele>869.5</ele>
        <time>2020-04-09T18:41:23Z</time>
      </trkpt>
      <trkpt lat="42.4538500" lon="-6.0522820">
        <ele>869.8</ele>
        <time>2020-04-09T18:41:25Z</time>
      </trkpt>
      <trkpt lat="42.4539140" lon="-6.0523660">
        <ele>870.1</ele>
        <time>2020-04-09T18:41:27Z</time>
      </trkpt>
      <trkpt lat="42.4540860" lon="-6.0525830">
        <ele>871.1</ele>
        <time>2020-04-09T18:41:29Z</time>
      </trkpt>
      <trkpt lat="42.4542020" lon="-6.0527110">
        <ele>871.6</ele>
        <time>2020-04-09T18:41:31Z</time>
      </trkpt>
      <trkpt lat="42.4542990" lon="-6.0527910">
        <ele>872.0</ele>
        <time>2020-04-09T18:41:33Z</time>
      </trkpt>
      <trkpt lat="42.4544670" lon="-6.0528960">
        <ele>872.6</ele>
        <time>2020-04-09T18:41:35Z</time>
      </trkpt>
      <trkpt lat="42.4546520" lon="-6.0529740">
        <ele>872.9</ele>
        <time>2020-04-09T18:41:37Z</time>
      </trkpt>
      <trkpt lat="42.4547800" lon="-6.0530290">
        <ele>873.0</ele>
        <time>2020-04-09T18:41:39Z</time>
      </trkpt>
      <trkpt lat="42.4548450" lon="-6.0531980">
        <ele>873.4</ele>
        <time>2020-04-09T18:41:41Z</time>
      </trkpt>
      <trkpt lat="42.4547690" lon="-6.0534380">
        <ele>874.1</ele>
        <time>2020-04-09T18:41:43Z</time>
      </trkpt>
      <trkpt lat="42.4548680" lon="-6.0535060">
        <ele>874.2</ele>
        <time>2020-04-09T18:41:45Z</time>
      </trkpt>
      <trkpt lat="42.4549650" lon="-6.0535730">
        <ele>874.2</ele>
        <time>2020-04-09T18:41:47Z</time>
      </trkpt>
      <trkpt lat="42.4550600" lon="-6.0536390">
        <ele>874.2</ele>
        <time>2020-04-09T18:41:49Z</time>
      </trkpt>
      <trkpt lat="42.4552710" lon="-6.0537810">
        <ele>874.6</ele>
        <time>2020-04-09T18:41:51Z</time>
      </trkpt>
      <trkpt lat="42.4554110" lon="-6.0538690">
        <ele>874.9</ele>
        <time>2020-04-09T18:41:53Z</time>
      </trkpt>
      <trkpt lat="42.4555060" lon="-6.0539270">
        <ele>874.8</ele>
        <time>2020-04-09T18:41:55Z</time>
      </trkpt>
      <trkpt lat="42.4556430" lon="-6.0540270">
        <ele>874.3</ele>
        <time>2020-04-09T18:41:57Z</time>
      </trkpt>
      <trkpt lat="42.4557790" lon="-6.0541190">
        <ele>873.6</ele>
        <time>2020-04-09T18:41:59Z</time>
      </trkpt>
      <trkpt lat="42.4558810" lon="-6.0541710">
        <ele>873.6</ele>
        <time>2020-04-09T18:42:01Z</time>
      </trkpt>
      <trkpt lat="42.4559860" lon="-6.0542260">
        <ele>873.5</ele>
        <time>2020-04-09T18:42:03Z</time>
      </trkpt>
      <trkpt lat="42.4561790" lon="-6.0543850">
        <ele>873.1</ele>
        <time>2020-04-09T18:42:05Z</time>
      </trkpt>
      <trkpt lat="42.4562450" lon="-6.0546040">
        <ele>872.9</ele>
        <time>2020-04-09T18:42:07Z</time>
      </trkpt>
      <trkpt lat="42.4563030" lon="-6.0548170">
        <ele>872.5</ele>
        <time>2020-04-09T18:42:09Z</time>
      </trkpt>
      <trkpt lat="42.4563140" lon="-6.0550460">
        <ele>871.9</ele>
        <time>2020-04-09T18:42:11Z</time>
      </trkpt>
      <trkpt lat="42.4563280" lon="-6.0552750">
        <ele>871.3</ele>
        <time>2020-04-09T18:42:13Z</time>
      </trkpt>
      <trkpt lat="42.4564210" lon="-6.0554810">
        <ele>870.6</ele>
        <time>2020-04-09T18:42:15Z</time>
      </trkpt>
      <trkpt lat="42.4565360" lon="-6.0556100">
        <ele>870.4</ele>
        <time>2020-04-09T18:42:17Z</time>
      </trkpt>
      <trkpt lat="42.4566810" lon="-6.0557290">
        <ele>870.7</ele>
        <time>2020-04-09T18:42:19Z</time>
      </trkpt>
      <trkpt lat="42.4567920" lon="-6.0558340">
        <ele>871.2</ele>
        <time>2020-04-09T18:42:21Z</time>
      </trkpt>
      <trkpt lat="42.4568980" lon="-6.0557580">
        <ele>871.1</ele>
        <time>2020-04-09T18:42:23Z</time>
      </trkpt>
      <trkpt lat="42.4569910" lon="-6.0556930">
        <ele>870.9</ele>
        <time>2020-04-09T18:42:25Z</time>
      </trkpt>
      <trkpt lat="42.4571510" lon="-6.0555880">
        <ele>870.7</ele>
        <time>2020-04-09T18:42:27Z</time>
      </trkpt>
      <trkpt lat="42.4572120" lon="-6.0556500">
        <ele>870.6</ele>
        <time>2020-04-09T18:42:29Z</time>
      </trkpt>
      <trkpt lat="42.4572280" lon="-6.0558640">
        <ele>871.3</ele>
        <time>2020-04-09T18:42:31Z</time>
      </trkpt>
      <trkpt lat="42.4572540" lon="-6.0560930">
        <ele>871.7</ele>
        <time>2020-04-09T18:42:33Z</time>
      </trkpt>
      <trkpt lat="42.4572740" lon="-6.0562620">
        <ele>872.0</ele>
        <time>2020-04-09T18:42:35Z</time>
      </trkpt>
      <trkpt lat="42.4573040" lon="-6.0564830">
        <ele>872.5</ele>
        <time>2020-04-09T18:42:37Z</time>
      </trkpt>
      <trkpt lat="42.4573850" lon="-6.0566370">
        <ele>872.5</ele>
        <time>2020-04-09T18:42:39Z</time>
      </trkpt>
      <trkpt lat="42.4574500" lon="-6.0568040">
        <ele>872.4</ele>
        <time>2020-04-09T18:42:41Z</time>
      </trkpt>
      <trkpt lat="42.4573560" lon="-6.0569350">
        <ele>872.4</ele>
        <time>2020-04-09T18:42:43Z</time>
      </trkpt>
      <trkpt lat="42.4573690" lon="-6.0570540">
        <ele>873.1</ele>
        <time>2020-04-09T18:42:45Z</time>
      </trkpt>
      <trkpt lat="42.4573590" lon="-6.0571870">
        <ele>873.1</ele>
        <time>2020-04-09T18:42:47Z</time>
      </trkpt>
      <trkpt lat="42.4572960" lon="-6.0572700">
        <ele>873.2</ele>
        <time>2020-04-09T18:42:49Z</time>
      </trkpt>
      <trkpt lat="42.4572330" lon="-6.0573520">
        <ele>873.2</ele>
        <time>2020-04-09T18:42:51Z</time>
      </trkpt>
      <trkpt lat="42.4571710" lon="-6.0574350">
        <ele>873.3</ele>
        <time>2020-04-09T18:42:53Z</time>
      </trkpt>
      <trkpt lat="42.4570250" lon="-6.0576660">
        <ele>873.6</ele>
        <time>2020-04-09T18:42:55Z</time>
      </trkpt>
      <trkpt lat="42.4569560" lon="-6.0577380">
        <ele>873.7</ele>
        <time>2020-04-09T18:42:57Z</time>
      </trkpt>
      <trkpt lat="42.4568880" lon="-6.0578090">
        <ele>873.8</ele>
        <time>2020-04-09T18:42:59Z</time>
      </trkpt>
      <trkpt lat="42.4568200" lon="-6.0578810">
        <ele>874.1</ele>
        <time>2020-04-09T18:43:01Z</time>
      </trkpt>
      <trkpt lat="42.4567500" lon="-6.0579540">
        <ele>874.3</ele>
        <time>2020-04-09T18:43:03Z</time>
      </trkpt>
      <trkpt lat="42.4566810" lon="-6.0580260">
        <ele>874.5</ele>
        <time>2020-04-09T18:43:05Z</time>
      </trkpt>
      <trkpt lat="42.4564870" lon="-6.0582690">
        <ele>874.7</ele>
        <time>2020-04-09T18:43:07Z</time>
      </trkpt>
      <trkpt lat="42.4564240" lon="-6.0583260">
        <ele>874.6</ele>
        <time>2020-04-09T18:43:09Z</time>
      </trkpt>
      <trkpt lat="42.4563200" lon="-6.0582110">
        <ele>874.5</ele>
        <time>2020-04-09T18:43:11Z</time>
      </trkpt>
      <trkpt lat="42.4561800" lon="-6.0580280">
        <ele>874.2</ele>
        <time>2020-04-09T18:43:13Z</time>
      </trkpt>
      <trkpt lat="42.4560970" lon="-6.0578900">
        <ele>874.0</ele>
        <time>2020-04-09T18:43:15Z</time>
      </trkpt>
      <trkpt lat="42.4560100" lon="-6.0577460">
        <ele>873.8</ele>
        <time>2020-04-09T18:43:17Z</time>
      </trkpt>
      <trkpt lat="42.4559320" lon="-6.0576170">
        <ele>873.0</ele>
        <time>2020-04-09T18:43:18Z</time>
      </trkpt>
      <trkpt lat="42.4559320" lon="-6.0576170">
        <ele>873.0</ele>
        <time>2020-04-09T18:43:18Z</time>
      </trkpt>
      <trkpt lat="42.4559320" lon="-6.0576170">
        <ele>873.0</ele>
        <time>2020-04-09T18:43:20Z</time>
      </trkpt>
      <trkpt lat="42.4559320" lon="-6.0576170">
        <ele>873.0</ele>
        <time>2020-04-09T18:43:22Z</time>
      </trkpt>
      <trkpt lat="42.4559320" lon="-6.0576170">
        <ele>873.0</ele>
        <time>2020-04-09T18:43:23Z</time>
      </trkpt>
      <trkpt lat="42.4594700" lon="-6.0640200">
        <ele>878.5</ele>
        <time>2020-04-11T17:23:34Z</time>
      </trkpt>
      <trkpt lat="42.4594700" lon="-6.0640200">
        <ele>878.5</ele>
        <time>2020-04-11T17:23:36Z</time>
      </trkpt>
      <trkpt lat="42.4594700" lon="-6.0640200">
        <ele>878.5</ele>
        <time>2020-04-11T17:23:38Z</time>
      </trkpt>
      <trkpt lat="42.4594700" lon="-6.0640200">
        <ele>878.5</ele>
        <time>2020-04-11T17:23:40Z</time>
      </trkpt>
      <trkpt lat="42.4594700" lon="-6.0640200">
        <ele>878.5</ele>
        <time>2020-04-11T17:23:42Z</time>
      </trkpt>
      <trkpt lat="42.4594700" lon="-6.0640200">
        <ele>878.5</ele>
        <time>2020-04-11T17:23:44Z</time>
      </trkpt>
      <trkpt lat="42.4594700" lon="-6.0640200">
        <ele>878.5</ele>
        <time>2020-04-11T17:23:46Z</time>
      </trkpt>
      <trkpt lat="42.4594700" lon="-6.0640200">
        <ele>878.5</ele>
        <time>2020-04-11T17:23:48Z</time>
      </trkpt>
      <trkpt lat="42.4594700" lon="-6.0640200">
        <ele>878.5</ele>
        <time>2020-04-11T17:23:50Z</time>
      </trkpt>
      <trkpt lat="42.4594700" lon="-6.0640200">
        <ele>878.5</ele>
        <time>2020-04-11T17:23:52Z</time>
      </trkpt>
      <trkpt lat="42.4594700" lon="-6.0640200">
        <ele>878.5</ele>
        <time>2020-04-11T17:23:54Z</time>
      </trkpt>
      <trkpt lat="42.4594700" lon="-6.0640200">
        <ele>878.5</ele>
        <time>2020-04-11T17:23:56Z</time>
      </trkpt>
      <trkpt lat="42.4594700" lon="-6.0640200">
        <ele>878.5</ele>
        <time>2020-04-11T17:23:58Z</time>
      </trkpt>
      <trkpt lat="42.4594700" lon="-6.0640200">
        <ele>878.5</ele>
        <time>2020-04-11T17:24:00Z</time>
      </trkpt>
      <trkpt lat="42.4594700" lon="-6.0640200">
        <ele>878.5</ele>
        <time>2020-04-11T17:24:02Z</time>
      </trkpt>
      <trkpt lat="42.4594700" lon="-6.0640200">
        <ele>878.5</ele>
        <time>2020-04-11T17:24:04Z</time>
      </trkpt>
      <trkpt lat="42.4594700" lon="-6.0640200">
        <ele>878.5</ele>
        <time>2020-04-11T17:24:06Z</time>
      </trkpt>
      <trkpt lat="42.4594700" lon="-6.0640200">
        <ele>878.5</ele>
        <time>2020-04-11T17:24:08Z</time>
      </trkpt>
      <trkpt lat="42.4594700" lon="-6.0640200">
        <ele>878.5</ele>
        <time>2020-04-11T17:24:10Z</time>
      </trkpt>
      <trkpt lat="42.4594700" lon="-6.0640200">
        <ele>878.5</ele>
        <time>2020-04-11T17:24:12Z</time>
      </trkpt>
      <trkpt lat="42.4594700" lon="-6.0640200">
        <ele>878.5</ele>
        <time>2020-04-11T17:24:14Z</time>
      </trkpt>
      <trkpt lat="42.4594700" lon="-6.0640200">
        <ele>878.5</ele>
        <time>2020-04-11T17:24:16Z</time>
      </trkpt>
      <trkpt lat="42.4594700" lon="-6.0640200">
        <ele>878.5</ele>
        <time>2020-04-11T17:24:18Z</time>
      </trkpt>
      <trkpt lat="42.4594700" lon="-6.0640200">
        <ele>878.5</ele>
        <time>2020-04-11T17:24:20Z</time>
      </trkpt>
      <trkpt lat="42.4594700" lon="-6.0640200">
        <ele>878.5</ele>
        <time>2020-04-11T17:24:22Z</time>
      </trkpt>
      <trkpt lat="42.4594700" lon="-6.0640200">
        <ele>878.5</ele>
        <time>2020-04-11T17:24:24Z</time>
      </trkpt>
      <trkpt lat="42.4594700" lon="-6.0640200">
        <ele>878.5</ele>
        <time>2020-04-11T17:24:26Z</time>
      </trkpt>
      <trkpt lat="42.4594700" lon="-6.0640200">
        <ele>878.5</ele>
        <time>2020-04-11T17:24:28Z</time>
      </trkpt>
      <trkpt lat="42.4594700" lon="-6.0640200">
        <ele>878.5</ele>
        <time>2020-04-11T17:24:30Z</time>
      </trkpt>
      <trkpt lat="42.4594700" lon="-6.0640200">
        <ele>878.5</ele>
        <time>2020-04-11T17:24:32Z</time>
      </trkpt>
      <trkpt lat="42.4594700" lon="-6.0640200">
        <ele>878.5</ele>
        <time>2020-04-11T17:24:34Z</time>
      </trkpt>
      <trkpt lat="42.4594700" lon="-6.0640200">
        <ele>878.5</ele>
        <time>2020-04-11T17:24:36Z</time>
      </trkpt>
      <trkpt lat="42.4594700" lon="-6.0640200">
        <ele>878.5</ele>
        <time>2020-04-11T17:24:38Z</time>
      </trkpt>
      <trkpt lat="42.4594700" lon="-6.0640200">
        <ele>878.5</ele>
        <time>2020-04-11T17:24:40Z</time>
      </trkpt>
      <trkpt lat="42.4594700" lon="-6.0640200">
        <ele>878.5</ele>
        <time>2020-04-11T17:24:42Z</time>
      </trkpt>
      <trkpt lat="42.4594700" lon="-6.0640200">
        <ele>878.5</ele>
        <time>2020-04-11T17:24:44Z</time>
      </trkpt>
      <trkpt lat="42.4594700" lon="-6.0640200">
        <ele>878.5</ele>
        <time>2020-04-11T17:24:44Z</time>
      </trkpt>
      <trkpt lat="42.4594700" lon="-6.0640200">
        <ele>878.5</ele>
        <time>2020-04-11T17:24:46Z</time>
      </trkpt>
      <trkpt lat="42.4594660" lon="-6.0640170">
        <ele>878.4</ele>
        <time>2020-04-11T17:24:48Z</time>
      </trkpt>
      <trkpt lat="42.4594430" lon="-6.0639990">
        <ele>878.4</ele>
        <time>2020-04-11T17:24:50Z</time>
      </trkpt>
      <trkpt lat="42.4594130" lon="-6.0639740">
        <ele>878.3</ele>
        <time>2020-04-11T17:24:52Z</time>
      </trkpt>
      <trkpt lat="42.4593790" lon="-6.0639460">
        <ele>878.2</ele>
        <time>2020-04-11T17:24:54Z</time>
      </trkpt>
      <trkpt lat="42.4593410" lon="-6.0639160">
        <ele>878.1</ele>
        <time>2020-04-11T17:24:56Z</time>
      </trkpt>
      <trkpt lat="42.4592990" lon="-6.0638820">
        <ele>878.0</ele>
        <time>2020-04-11T17:24:58Z</time>
      </trkpt>
      <trkpt lat="42.4592550" lon="-6.0638470">
        <ele>877.9</ele>
        <time>2020-04-11T17:25:00Z</time>
      </trkpt>
      <trkpt lat="42.4592080" lon="-6.0638090">
        <ele>877.9</ele>
        <time>2020-04-11T17:25:02Z</time>
      </trkpt>
      <trkpt lat="42.4591580" lon="-6.0637690">
        <ele>877.8</ele>
        <time>2020-04-11T17:25:04Z</time>
      </trkpt>
      <trkpt lat="42.4591070" lon="-6.0637270">
        <ele>877.8</ele>
        <time>2020-04-11T17:25:06Z</time>
      </trkpt>
      <trkpt lat="42.4590530" lon="-6.0636840">
        <ele>877.8</ele>
        <time>2020-04-11T17:25:08Z</time>
      </trkpt>
      <trkpt lat="42.4588450" lon="-6.0635430">
        <ele>877.4</ele>
        <time>2020-04-11T17:25:10Z</time>
      </trkpt>
      <trkpt lat="42.4588260" lon="-6.0636310">
        <ele>877.4</ele>
        <time>2020-04-11T17:25:12Z</time>
      </trkpt>
      <trkpt lat="42.4588060" lon="-6.0637210">
        <ele>877.4</ele>
        <time>2020-04-11T17:25:14Z</time>
      </trkpt>
      <trkpt lat="42.4587860" lon="-6.0638130">
        <ele>877.5</ele>
        <time>2020-04-11T17:25:16Z</time>
      </trkpt>
      <trkpt lat="42.4587650" lon="-6.0639100">
        <ele>877.5</ele>
        <time>2020-04-11T17:25:18Z</time>
      </trkpt>
      <trkpt lat="42.4587430" lon="-6.0640120">
        <ele>877.5</ele>
        <time>2020-04-11T17:25:20Z</time>
      </trkpt>
      <trkpt lat="42.4587190" lon="-6.0641230">
        <ele>877.6</ele>
        <time>2020-04-11T17:25:22Z</time>
      </trkpt>
      <trkpt lat="42.4586930" lon="-6.0642420">
        <ele>877.6</ele>
        <time>2020-04-11T17:25:24Z</time>
      </trkpt>
      <trkpt lat="42.4586110" lon="-6.0646480">
        <ele>877.6</ele>
        <time>2020-04-11T17:25:26Z</time>
      </trkpt>
      <trkpt lat="42.4585930" lon="-6.0647940">
        <ele>877.4</ele>
        <time>2020-04-11T17:25:28Z</time>
      </trkpt>
      <trkpt lat="42.4585720" lon="-6.0650610">
        <ele>876.5</ele>
        <time>2020-04-11T17:25:30Z</time>
      </trkpt>
      <trkpt lat="42.4585760" lon="-6.0652380">
        <ele>875.6</ele>
        <time>2020-04-11T17:25:32Z</time>
      </trkpt>
      <trkpt lat="42.4585800" lon="-6.0654230">
        <ele>874.7</ele>
        <time>2020-04-11T17:25:34Z</time>
      </trkpt>
      <trkpt lat="42.4585840" lon="-6.0656190">
        <ele>873.8</ele>
        <time>2020-04-11T17:25:36Z</time>
      </trkpt>
      <trkpt lat="42.4585950" lon="-6.0661000">
        <ele>872.7</ele>
        <time>2020-04-11T17:25:38Z</time>
      </trkpt>
      <trkpt lat="42.4585990" lon="-6.0663110">
        <ele>872.2</ele>
        <time>2020-04-11T17:25:40Z</time>
      </trkpt>
      <trkpt lat="42.4586040" lon="-6.0665280">
        <ele>871.7</ele>
        <time>2020-04-11T17:25:42Z</time>
      </trkpt>
      <trkpt lat="42.4586090" lon="-6.0667520">
        <ele>870.8</ele>
        <time>2020-04-11T17:25:44Z</time>
      </trkpt>
      <trkpt lat="42.4586200" lon="-6.0672580">
        <ele>869.1</ele>
        <time>2020-04-11T17:25:46Z</time>
      </trkpt>
      <trkpt lat="42.4586250" lon="-6.0674900">
        <ele>868.4</ele>
        <time>2020-04-11T17:25:48Z</time>
      </trkpt>
      <trkpt lat="42.4586310" lon="-6.0677270">
        <ele>867.7</ele>
        <time>2020-04-11T17:25:50Z</time>
      </trkpt>
      <trkpt lat="42.4586500" lon="-6.0682430">
        <ele>866.4</ele>
        <time>2020-04-11T17:25:52Z</time>
      </trkpt>
      <trkpt lat="42.4586760" lon="-6.0684750">
        <ele>865.8</ele>
        <time>2020-04-11T17:25:54Z</time>
      </trkpt>
      <trkpt lat="42.4587010" lon="-6.0687010">
        <ele>865.0</ele>
        <time>2020-04-11T17:25:56Z</time>
      </trkpt>
      <trkpt lat="42.4587520" lon="-6.0691640">
        <ele>864.2</ele>
        <time>2020-04-11T17:25:58Z</time>
      </trkpt>
      <trkpt lat="42.4587790" lon="-6.0693870">
        <ele>863.9</ele>
        <time>2020-04-11T17:26:00Z</time>
      </trkpt>
      <trkpt lat="42.4588050" lon="-6.0696110">
        <ele>863.6</ele>
        <time>2020-04-11T17:26:02Z</time>
      </trkpt>
      <trkpt lat="42.4588310" lon="-6.0698340">
        <ele>863.4</ele>
        <time>2020-04-11T17:26:04Z</time>
      </trkpt>
      <trkpt lat="42.4588920" lon="-6.0703420">
        <ele>862.3</ele>
        <time>2020-04-11T17:26:06Z</time>
      </trkpt>
      <trkpt lat="42.4589170" lon="-6.0705610">
        <ele>862.1</ele>
        <time>2020-04-11T17:26:08Z</time>
      </trkpt>
      <trkpt lat="42.4589430" lon="-6.0707790">
        <ele>861.9</ele>
        <time>2020-04-11T17:26:10Z</time>
      </trkpt>
      <trkpt lat="42.4590050" lon="-6.0712860">
        <ele>861.3</ele>
        <time>2020-04-11T17:26:12Z</time>
      </trkpt>
      <trkpt lat="42.4590420" lon="-6.0715010">
        <ele>861.3</ele>
        <time>2020-04-11T17:26:14Z</time>
      </trkpt>
      <trkpt lat="42.4590790" lon="-6.0717150">
        <ele>861.2</ele>
        <time>2020-04-11T17:26:16Z</time>
      </trkpt>
      <trkpt lat="42.4591160" lon="-6.0719300">
        <ele>861.1</ele>
        <time>2020-04-11T17:26:18Z</time>
      </trkpt>
      <trkpt lat="42.4591960" lon="-6.0723930">
        <ele>861.0</ele>
        <time>2020-04-11T17:26:20Z</time>
      </trkpt>
      <trkpt lat="42.4592310" lon="-6.0725990">
        <ele>860.9</ele>
        <time>2020-04-11T17:26:22Z</time>
      </trkpt>
      <trkpt lat="42.4592660" lon="-6.0727990">
        <ele>860.8</ele>
        <time>2020-04-11T17:26:24Z</time>
      </trkpt>
      <trkpt lat="42.4593310" lon="-6.0732500">
        <ele>860.5</ele>
        <time>2020-04-11T17:26:26Z</time>
      </trkpt>
      <trkpt lat="42.4593350" lon="-6.0734520">
        <ele>860.5</ele>
        <time>2020-04-11T17:26:28Z</time>
      </trkpt>
      <trkpt lat="42.4593350" lon="-6.0738050">
        <ele>860.3</ele>
        <time>2020-04-11T17:26:30Z</time>
      </trkpt>
      <trkpt lat="42.4593170" lon="-6.0740030">
        <ele>860.2</ele>
        <time>2020-04-11T17:26:32Z</time>
      </trkpt>
      <trkpt lat="42.4592990" lon="-6.0742010">
        <ele>860.1</ele>
        <time>2020-04-11T17:26:34Z</time>
      </trkpt>
      <trkpt lat="42.4592810" lon="-6.0743990">
        <ele>860.0</ele>
        <time>2020-04-11T17:26:36Z</time>
      </trkpt>
      <trkpt lat="42.4592630" lon="-6.0745960">
        <ele>859.9</ele>
        <time>2020-04-11T17:26:38Z</time>
      </trkpt>
      <trkpt lat="42.4592180" lon="-6.0750970">
        <ele>859.9</ele>
        <time>2020-04-11T17:26:40Z</time>
      </trkpt>
      <trkpt lat="42.4592000" lon="-6.0752950">
        <ele>859.9</ele>
        <time>2020-04-11T17:26:42Z</time>
      </trkpt>
      <trkpt lat="42.4591820" lon="-6.0754900">
        <ele>860.0</ele>
        <time>2020-04-11T17:26:44Z</time>
      </trkpt>
      <trkpt lat="42.4591650" lon="-6.0756870">
        <ele>860.0</ele>
        <time>2020-04-11T17:26:46Z</time>
      </trkpt>
      <trkpt lat="42.4591280" lon="-6.0761890">
        <ele>860.2</ele>
        <time>2020-04-11T17:26:48Z</time>
      </trkpt>
      <trkpt lat="42.4591240" lon="-6.0763800">
        <ele>860.2</ele>
        <time>2020-04-11T17:26:50Z</time>
      </trkpt>
      <trkpt lat="42.4591240" lon="-6.0766910">
        <ele>860.3</ele>
        <time>2020-04-11T17:26:52Z</time>
      </trkpt>
      <trkpt lat="42.4591280" lon="-6.0768680">
        <ele>860.3</ele>
        <time>2020-04-11T17:26:54Z</time>
      </trkpt>
      <trkpt lat="42.4591330" lon="-6.0770390">
        <ele>860.3</ele>
        <time>2020-04-11T17:26:56Z</time>
      </trkpt>
      <trkpt lat="42.4591380" lon="-6.0772040">
        <ele>860.3</ele>
        <time>2020-04-11T17:26:58Z</time>
      </trkpt>
      <trkpt lat="42.4591500" lon="-6.0776510">
        <ele>860.3</ele>
        <time>2020-04-11T17:27:00Z</time>
      </trkpt>
      <trkpt lat="42.4591540" lon="-6.0778100">
        <ele>860.4</ele>
        <time>2020-04-11T17:27:02Z</time>
      </trkpt>
      <trkpt lat="42.4591590" lon="-6.0779680">
        <ele>860.4</ele>
        <time>2020-04-11T17:27:04Z</time>
      </trkpt>
      <trkpt lat="42.4591630" lon="-6.0781240">
        <ele>860.6</ele>
        <time>2020-04-11T17:27:06Z</time>
      </trkpt>
      <trkpt lat="42.4591670" lon="-6.0782800">
        <ele>860.8</ele>
        <time>2020-04-11T17:27:08Z</time>
      </trkpt>
      <trkpt lat="42.4591720" lon="-6.0784340">
        <ele>860.9</ele>
        <time>2020-04-11T17:27:10Z</time>
      </trkpt>
      <trkpt lat="42.4591840" lon="-6.0788750">
        <ele>861.1</ele>
        <time>2020-04-11T17:27:12Z</time>
      </trkpt>
      <trkpt lat="42.4591880" lon="-6.0790290">
        <ele>861.2</ele>
        <time>2020-04-11T17:27:14Z</time>
      </trkpt>
      <trkpt lat="42.4591920" lon="-6.0791830">
        <ele>861.3</ele>
        <time>2020-04-11T17:27:16Z</time>
      </trkpt>
      <trkpt lat="42.4591960" lon="-6.0793370">
        <ele>861.3</ele>
        <time>2020-04-11T17:27:18Z</time>
      </trkpt>
      <trkpt lat="42.4592010" lon="-6.0794900">
        <ele>861.4</ele>
        <time>2020-04-11T17:27:20Z</time>
      </trkpt>
      <trkpt lat="42.4592130" lon="-6.0799290">
        <ele>861.6</ele>
        <time>2020-04-11T17:27:22Z</time>
      </trkpt>
      <trkpt lat="42.4592170" lon="-6.0800810">
        <ele>861.7</ele>
        <time>2020-04-11T17:27:24Z</time>
      </trkpt>
      <trkpt lat="42.4592210" lon="-6.0802330">
        <ele>861.8</ele>
        <time>2020-04-11T17:27:26Z</time>
      </trkpt>
      <trkpt lat="42.4592250" lon="-6.0803850">
        <ele>861.9</ele>
        <time>2020-04-11T17:27:28Z</time>
      </trkpt>
      <trkpt lat="42.4592290" lon="-6.0805390">
        <ele>862.0</ele>
        <time>2020-04-11T17:27:30Z</time>
      </trkpt>
      <trkpt lat="42.4592500" lon="-6.0809750">
        <ele>861.9</ele>
        <time>2020-04-11T17:27:32Z</time>
      </trkpt>
      <trkpt lat="42.4592770" lon="-6.0811240">
        <ele>862.0</ele>
        <time>2020-04-11T17:27:34Z</time>
      </trkpt>
      <trkpt lat="42.4593030" lon="-6.0812720">
        <ele>862.1</ele>
        <time>2020-04-11T17:27:36Z</time>
      </trkpt>
      <trkpt lat="42.4593300" lon="-6.0814190">
        <ele>862.2</ele>
        <time>2020-04-11T17:27:38Z</time>
      </trkpt>
      <trkpt lat="42.4593560" lon="-6.0815670">
        <ele>862.2</ele>
        <time>2020-04-11T17:27:40Z</time>
      </trkpt>
      <trkpt lat="42.4594280" lon="-6.0819460">
        <ele>862.3</ele>
        <time>2020-04-11T17:27:42Z</time>
      </trkpt>
      <trkpt lat="42.4594580" lon="-6.0820890">
        <ele>862.5</ele>
        <time>2020-04-11T17:27:44Z</time>
      </trkpt>
      <trkpt lat="42.4594880" lon="-6.0822280">
        <ele>862.6</ele>
        <time>2020-04-11T17:27:46Z</time>
      </trkpt>
      <trkpt lat="42.4595170" lon="-6.0823670">
        <ele>862.9</ele>
        <time>2020-04-11T17:27:48Z</time>
      </trkpt>
      <trkpt lat="42.4595460" lon="-6.0825050">
        <ele>863.3</ele>
        <time>2020-04-11T17:27:50Z</time>
      </trkpt>
      <trkpt lat="42.4596330" lon="-6.0829200">
        <ele>864.9</ele>
        <time>2020-04-11T17:27:52Z</time>
      </trkpt>
      <trkpt lat="42.4596610" lon="-6.0830540">
        <ele>865.5</ele>
        <time>2020-04-11T17:27:54Z</time>
      </trkpt>
      <trkpt lat="42.4596890" lon="-6.0831880">
        <ele>866.2</ele>
        <time>2020-04-11T17:27:56Z</time>
      </trkpt>
      <trkpt lat="42.4597170" lon="-6.0833210">
        <ele>866.9</ele>
        <time>2020-04-11T17:27:58Z</time>
      </trkpt>
      <trkpt lat="42.4597440" lon="-6.0834510">
        <ele>867.5</ele>
        <time>2020-04-11T17:28:00Z</time>
      </trkpt>
      <trkpt lat="42.4597710" lon="-6.0835820">
        <ele>868.1</ele>
        <time>2020-04-11T17:28:02Z</time>
      </trkpt>
      <trkpt lat="42.4598570" lon="-6.0839910">
        <ele>869.3</ele>
        <time>2020-04-11T17:28:04Z</time>
      </trkpt>
      <trkpt lat="42.4598850" lon="-6.0841240">
        <ele>869.5</ele>
        <time>2020-04-11T17:28:06Z</time>
      </trkpt>
      <trkpt lat="42.4599130" lon="-6.0842590">
        <ele>869.6</ele>
        <time>2020-04-11T17:28:08Z</time>
      </trkpt>
      <trkpt lat="42.4599430" lon="-6.0843980">
        <ele>869.8</ele>
        <time>2020-04-11T17:28:10Z</time>
      </trkpt>
      <trkpt lat="42.4599720" lon="-6.0845400">
        <ele>869.9</ele>
        <time>2020-04-11T17:28:12Z</time>
      </trkpt>
      <trkpt lat="42.4600020" lon="-6.0846820">
        <ele>870.0</ele>
        <time>2020-04-11T17:28:14Z</time>
      </trkpt>
      <trkpt lat="42.4600910" lon="-6.0851070">
        <ele>869.9</ele>
        <time>2020-04-11T17:28:16Z</time>
      </trkpt>
      <trkpt lat="42.4601220" lon="-6.0852540">
        <ele>869.6</ele>
        <time>2020-04-11T17:28:18Z</time>
      </trkpt>
      <trkpt lat="42.4601530" lon="-6.0854030">
        <ele>869.3</ele>
        <time>2020-04-11T17:28:20Z</time>
      </trkpt>
      <trkpt lat="42.4601840" lon="-6.0855520">
        <ele>868.9</ele>
        <time>2020-04-11T17:28:22Z</time>
      </trkpt>
      <trkpt lat="42.4602160" lon="-6.0857040">
        <ele>868.4</ele>
        <time>2020-04-11T17:28:24Z</time>
      </trkpt>
      <trkpt lat="42.4603070" lon="-6.0861350">
        <ele>867.0</ele>
        <time>2020-04-11T17:28:26Z</time>
      </trkpt>
      <trkpt lat="42.4603380" lon="-6.0862840">
        <ele>866.7</ele>
        <time>2020-04-11T17:28:28Z</time>
      </trkpt>
      <trkpt lat="42.4603680" lon="-6.0864300">
        <ele>866.4</ele>
        <time>2020-04-11T17:28:30Z</time>
      </trkpt>
      <trkpt lat="42.4603990" lon="-6.0865740">
        <ele>866.2</ele>
        <time>2020-04-11T17:28:32Z</time>
      </trkpt>
      <trkpt lat="42.4604280" lon="-6.0867150">
        <ele>866.1</ele>
        <time>2020-04-11T17:28:34Z</time>
      </trkpt>
      <trkpt lat="42.4604570" lon="-6.0868520">
        <ele>866.1</ele>
        <time>2020-04-11T17:28:36Z</time>
      </trkpt>
      <trkpt lat="42.4605440" lon="-6.0872690">
        <ele>866.1</ele>
        <time>2020-04-11T17:28:38Z</time>
      </trkpt>
      <trkpt lat="42.4605730" lon="-6.0874050">
        <ele>866.1</ele>
        <time>2020-04-11T17:28:40Z</time>
      </trkpt>
      <trkpt lat="42.4606010" lon="-6.0875380">
        <ele>866.1</ele>
        <time>2020-04-11T17:28:42Z</time>
      </trkpt>
      <trkpt lat="42.4606280" lon="-6.0876710">
        <ele>866.1</ele>
        <time>2020-04-11T17:28:44Z</time>
      </trkpt>
      <trkpt lat="42.4606560" lon="-6.0878030">
        <ele>866.2</ele>
        <time>2020-04-11T17:28:46Z</time>
      </trkpt>
      <trkpt lat="42.4607420" lon="-6.0882130">
        <ele>866.5</ele>
        <time>2020-04-11T17:28:48Z</time>
      </trkpt>
      <trkpt lat="42.4607690" lon="-6.0883430">
        <ele>866.7</ele>
        <time>2020-04-11T17:28:50Z</time>
      </trkpt>
      <trkpt lat="42.4607970" lon="-6.0884740">
        <ele>866.9</ele>
        <time>2020-04-11T17:28:52Z</time>
      </trkpt>
      <trkpt lat="42.4608240" lon="-6.0886060">
        <ele>867.0</ele>
        <time>2020-04-11T17:28:54Z</time>
      </trkpt>
      <trkpt lat="42.4608520" lon="-6.0887370">
        <ele>867.1</ele>
        <time>2020-04-11T17:28:56Z</time>
      </trkpt>
      <trkpt lat="42.4608790" lon="-6.0888690">
        <ele>867.2</ele>
        <time>2020-04-11T17:28:58Z</time>
      </trkpt>
      <trkpt lat="42.4609660" lon="-6.0892810">
        <ele>867.5</ele>
        <time>2020-04-11T17:29:00Z</time>
      </trkpt>
      <trkpt lat="42.4609940" lon="-6.0894140">
        <ele>867.5</ele>
        <time>2020-04-11T17:29:02Z</time>
      </trkpt>
      <trkpt lat="42.4610210" lon="-6.0895460">
        <ele>867.6</ele>
        <time>2020-04-11T17:29:04Z</time>
      </trkpt>
      <trkpt lat="42.4610490" lon="-6.0896800">
        <ele>867.6</ele>
        <time>2020-04-11T17:29:06Z</time>
      </trkpt>
      <trkpt lat="42.4610780" lon="-6.0898130">
        <ele>867.7</ele>
        <time>2020-04-11T17:29:08Z</time>
      </trkpt>
      <trkpt lat="42.4611060" lon="-6.0899480">
        <ele>867.7</ele>
        <time>2020-04-11T17:29:10Z</time>
      </trkpt>
      <trkpt lat="42.4611920" lon="-6.0903610">
        <ele>867.9</ele>
        <time>2020-04-11T17:29:12Z</time>
      </trkpt>
      <trkpt lat="42.4612200" lon="-6.0904950">
        <ele>868.0</ele>
        <time>2020-04-11T17:29:14Z</time>
      </trkpt>
      <trkpt lat="42.4612480" lon="-6.0906290">
        <ele>868.1</ele>
        <time>2020-04-11T17:29:16Z</time>
      </trkpt>
      <trkpt lat="42.4612770" lon="-6.0907630">
        <ele>868.2</ele>
        <time>2020-04-11T17:29:18Z</time>
      </trkpt>
      <trkpt lat="42.4613050" lon="-6.0908970">
        <ele>868.2</ele>
        <time>2020-04-11T17:29:20Z</time>
      </trkpt>
      <trkpt lat="42.4613330" lon="-6.0910320">
        <ele>868.3</ele>
        <time>2020-04-11T17:29:22Z</time>
      </trkpt>
      <trkpt lat="42.4614160" lon="-6.0914480">
        <ele>868.3</ele>
        <time>2020-04-11T17:29:24Z</time>
      </trkpt>
      <trkpt lat="42.4614320" lon="-6.0915860">
        <ele>868.4</ele>
        <time>2020-04-11T17:29:26Z</time>
      </trkpt>
      <trkpt lat="42.4614490" lon="-6.0917270">
        <ele>868.4</ele>
        <time>2020-04-11T17:29:28Z</time>
      </trkpt>
      <trkpt lat="42.4614820" lon="-6.0920220">
        <ele>868.5</ele>
        <time>2020-04-11T17:29:30Z</time>
      </trkpt>
      <trkpt lat="42.4614910" lon="-6.0921670">
        <ele>868.5</ele>
        <time>2020-04-11T17:29:32Z</time>
      </trkpt>
      <trkpt lat="42.4614990" lon="-6.0923130">
        <ele>868.5</ele>
        <time>2020-04-11T17:29:34Z</time>
      </trkpt>
      <trkpt lat="42.4615070" lon="-6.0924610">
        <ele>868.6</ele>
        <time>2020-04-11T17:29:36Z</time>
      </trkpt>
      <trkpt lat="42.4615150" lon="-6.0926100">
        <ele>868.6</ele>
        <time>2020-04-11T17:29:38Z</time>
      </trkpt>
      <trkpt lat="42.4615350" lon="-6.0929910">
        <ele>868.7</ele>
        <time>2020-04-11T17:29:40Z</time>
      </trkpt>
      <trkpt lat="42.4615410" lon="-6.0931400">
        <ele>868.7</ele>
        <time>2020-04-11T17:29:42Z</time>
      </trkpt>
      <trkpt lat="42.4615460" lon="-6.0932890">
        <ele>868.7</ele>
        <time>2020-04-11T17:29:44Z</time>
      </trkpt>
      <trkpt lat="42.4615520" lon="-6.0934390">
        <ele>868.8</ele>
        <time>2020-04-11T17:29:46Z</time>
      </trkpt>
      <trkpt lat="42.4615680" lon="-6.0938320">
        <ele>869.5</ele>
        <time>2020-04-11T17:29:48Z</time>
      </trkpt>
      <trkpt lat="42.4615740" lon="-6.0939790">
        <ele>869.6</ele>
        <time>2020-04-11T17:29:50Z</time>
      </trkpt>
      <trkpt lat="42.4615800" lon="-6.0941270">
        <ele>869.7</ele>
        <time>2020-04-11T17:29:52Z</time>
      </trkpt>
      <trkpt lat="42.4615850" lon="-6.0942740">
        <ele>869.7</ele>
        <time>2020-04-11T17:29:54Z</time>
      </trkpt>
      <trkpt lat="42.4615910" lon="-6.0944220">
        <ele>869.8</ele>
        <time>2020-04-11T17:29:56Z</time>
      </trkpt>
      <trkpt lat="42.4616070" lon="-6.0948150">
        <ele>869.9</ele>
        <time>2020-04-11T17:29:58Z</time>
      </trkpt>
      <trkpt lat="42.4616130" lon="-6.0949640">
        <ele>870.0</ele>
        <time>2020-04-11T17:30:00Z</time>
      </trkpt>
      <trkpt lat="42.4616180" lon="-6.0951130">
        <ele>870.1</ele>
        <time>2020-04-11T17:30:02Z</time>
      </trkpt>
      <trkpt lat="42.4616240" lon="-6.0952620">
        <ele>870.3</ele>
        <time>2020-04-11T17:30:04Z</time>
      </trkpt>
      <trkpt lat="42.4616300" lon="-6.0954110">
        <ele>870.5</ele>
        <time>2020-04-11T17:30:06Z</time>
      </trkpt>
      <trkpt lat="42.4616360" lon="-6.0958030">
        <ele>870.9</ele>
        <time>2020-04-11T17:30:08Z</time>
      </trkpt>
      <trkpt lat="42.4616240" lon="-6.0960450">
        <ele>871.0</ele>
        <time>2020-04-11T17:30:10Z</time>
      </trkpt>
      <trkpt lat="42.4615880" lon="-6.0961860">
        <ele>871.1</ele>
        <time>2020-04-11T17:30:12Z</time>
      </trkpt>
      <trkpt lat="42.4615530" lon="-6.0963270">
        <ele>871.2</ele>
        <time>2020-04-11T17:30:14Z</time>
      </trkpt>
      <trkpt lat="42.4614700" lon="-6.0965690">
        <ele>871.2</ele>
        <time>2020-04-11T17:30:16Z</time>
      </trkpt>
      <trkpt lat="42.4614130" lon="-6.0966950">
        <ele>871.3</ele>
        <time>2020-04-11T17:30:18Z</time>
      </trkpt>
      <trkpt lat="42.4613550" lon="-6.0968210">
        <ele>871.3</ele>
        <time>2020-04-11T17:30:20Z</time>
      </trkpt>
      <trkpt lat="42.4612980" lon="-6.0969460">
        <ele>871.4</ele>
        <time>2020-04-11T17:30:22Z</time>
      </trkpt>
      <trkpt lat="42.4612410" lon="-6.0970720">
        <ele>871.4</ele>
        <time>2020-04-11T17:30:24Z</time>
      </trkpt>
      <trkpt lat="42.4611840" lon="-6.0971980">
        <ele>871.5</ele>
        <time>2020-04-11T17:30:26Z</time>
      </trkpt>
      <trkpt lat="42.4610060" lon="-6.0975880">
        <ele>871.4</ele>
        <time>2020-04-11T17:30:28Z</time>
      </trkpt>
      <trkpt lat="42.4609500" lon="-6.0977110">
        <ele>871.5</ele>
        <time>2020-04-11T17:30:30Z</time>
      </trkpt>
      <trkpt lat="42.4608950" lon="-6.0978330">
        <ele>871.5</ele>
        <time>2020-04-11T17:30:32Z</time>
      </trkpt>
      <trkpt lat="42.4608400" lon="-6.0979530">
        <ele>871.6</ele>
        <time>2020-04-11T17:30:34Z</time>
      </trkpt>
      <trkpt lat="42.4607850" lon="-6.0980730">
        <ele>871.6</ele>
        <time>2020-04-11T17:30:36Z</time>
      </trkpt>
      <trkpt lat="42.4607310" lon="-6.0981910">
        <ele>871.6</ele>
        <time>2020-04-11T17:30:38Z</time>
      </trkpt>
      <trkpt lat="42.4605690" lon="-6.0985820">
        <ele>871.7</ele>
        <time>2020-04-11T17:30:40Z</time>
      </trkpt>
      <trkpt lat="42.4605090" lon="-6.0987890">
        <ele>871.8</ele>
        <time>2020-04-11T17:30:42Z</time>
      </trkpt>
      <trkpt lat="42.4604990" lon="-6.0989250">
        <ele>871.8</ele>
        <time>2020-04-11T17:30:44Z</time>
      </trkpt>
      <trkpt lat="42.4604880" lon="-6.0990640">
        <ele>871.8</ele>
        <time>2020-04-11T17:30:46Z</time>
      </trkpt>
      <trkpt lat="42.4604770" lon="-6.0992030">
        <ele>871.9</ele>
        <time>2020-04-11T17:30:48Z</time>
      </trkpt>
      <trkpt lat="42.4604560" lon="-6.0995120">
        <ele>872.1</ele>
        <time>2020-04-11T17:30:50Z</time>
      </trkpt>
      <trkpt lat="42.4604500" lon="-6.0996540">
        <ele>872.1</ele>
        <time>2020-04-11T17:30:52Z</time>
      </trkpt>
      <trkpt lat="42.4604440" lon="-6.0997960">
        <ele>872.1</ele>
        <time>2020-04-11T17:30:54Z</time>
      </trkpt>
      <trkpt lat="42.4604380" lon="-6.0999390">
        <ele>872.2</ele>
        <time>2020-04-11T17:30:56Z</time>
      </trkpt>
      <trkpt lat="42.4604230" lon="-6.1003100">
        <ele>872.7</ele>
        <time>2020-04-11T17:30:58Z</time>
      </trkpt>
      <trkpt lat="42.4604170" lon="-6.1004530">
        <ele>872.8</ele>
        <time>2020-04-11T17:31:00Z</time>
      </trkpt>
      <trkpt lat="42.4604110" lon="-6.1005940">
        <ele>873.0</ele>
        <time>2020-04-11T17:31:02Z</time>
      </trkpt>
      <trkpt lat="42.4604050" lon="-6.1007350">
        <ele>873.2</ele>
        <time>2020-04-11T17:31:04Z</time>
      </trkpt>
      <trkpt lat="42.4603990" lon="-6.1008740">
        <ele>873.3</ele>
        <time>2020-04-11T17:31:06Z</time>
      </trkpt>
      <trkpt lat="42.4603840" lon="-6.1012400">
        <ele>873.7</ele>
        <time>2020-04-11T17:31:08Z</time>
      </trkpt>
      <trkpt lat="42.4603780" lon="-6.1013770">
        <ele>873.8</ele>
        <time>2020-04-11T17:31:10Z</time>
      </trkpt>
      <trkpt lat="42.4603720" lon="-6.1015120">
        <ele>873.9</ele>
        <time>2020-04-11T17:31:12Z</time>
      </trkpt>
      <trkpt lat="42.4603660" lon="-6.1016470">
        <ele>874.3</ele>
        <time>2020-04-11T17:31:14Z</time>
      </trkpt>
      <trkpt lat="42.4603610" lon="-6.1017820">
        <ele>874.7</ele>
        <time>2020-04-11T17:31:16Z</time>
      </trkpt>
      <trkpt lat="42.4602870" lon="-6.1021170">
        <ele>875.6</ele>
        <time>2020-04-11T17:31:18Z</time>
      </trkpt>
      <trkpt lat="42.4602460" lon="-6.1022780">
        <ele>875.9</ele>
        <time>2020-04-11T17:31:20Z</time>
      </trkpt>
      <trkpt lat="42.4602210" lon="-6.1024010">
        <ele>876.1</ele>
        <time>2020-04-11T17:31:22Z</time>
      </trkpt>
      <trkpt lat="42.4601960" lon="-6.1025230">
        <ele>876.4</ele>
        <time>2020-04-11T17:31:24Z</time>
      </trkpt>
      <trkpt lat="42.4601720" lon="-6.1026410">
        <ele>876.7</ele>
        <time>2020-04-11T17:31:26Z</time>
      </trkpt>
      <trkpt lat="42.4601480" lon="-6.1027590">
        <ele>877.1</ele>
        <time>2020-04-11T17:31:28Z</time>
      </trkpt>
      <trkpt lat="42.4601250" lon="-6.1028750">
        <ele>877.4</ele>
        <time>2020-04-11T17:31:30Z</time>
      </trkpt>
      <trkpt lat="42.4601010" lon="-6.1029900">
        <ele>877.8</ele>
        <time>2020-04-11T17:31:32Z</time>
      </trkpt>
      <trkpt lat="42.4600150" lon="-6.1033820">
        <ele>879.4</ele>
        <time>2020-04-11T17:31:34Z</time>
      </trkpt>
      <trkpt lat="42.4599860" lon="-6.1034870">
        <ele>879.8</ele>
        <time>2020-04-11T17:31:36Z</time>
      </trkpt>
      <trkpt lat="42.4599580" lon="-6.1035900">
        <ele>880.2</ele>
        <time>2020-04-11T17:31:38Z</time>
      </trkpt>
      <trkpt lat="42.4599020" lon="-6.1038060">
        <ele>881.1</ele>
        <time>2020-04-11T17:31:40Z</time>
      </trkpt>
      <trkpt lat="42.4598780" lon="-6.1039050">
        <ele>881.4</ele>
        <time>2020-04-11T17:31:42Z</time>
      </trkpt>
      <trkpt lat="42.4598540" lon="-6.1040020">
        <ele>881.7</ele>
        <time>2020-04-11T17:31:44Z</time>
      </trkpt>
      <trkpt lat="42.4598310" lon="-6.1040980">
        <ele>882.0</ele>
        <time>2020-04-11T17:31:46Z</time>
      </trkpt>
      <trkpt lat="42.4598090" lon="-6.1041920">
        <ele>882.2</ele>
        <time>2020-04-11T17:31:48Z</time>
      </trkpt>
      <trkpt lat="42.4597860" lon="-6.1042850">
        <ele>882.4</ele>
        <time>2020-04-11T17:31:50Z</time>
      </trkpt>
      <trkpt lat="42.4597640" lon="-6.1043780">
        <ele>882.6</ele>
        <time>2020-04-11T17:31:52Z</time>
      </trkpt>
      <trkpt lat="42.4597420" lon="-6.1044690">
        <ele>882.9</ele>
        <time>2020-04-11T17:31:54Z</time>
      </trkpt>
      <trkpt lat="42.4596490" lon="-6.1048540">
        <ele>883.7</ele>
        <time>2020-04-11T17:31:56Z</time>
      </trkpt>
      <trkpt lat="42.4596300" lon="-6.1049500">
        <ele>883.7</ele>
        <time>2020-04-11T17:31:58Z</time>
      </trkpt>
      <trkpt lat="42.4596100" lon="-6.1050520">
        <ele>883.9</ele>
        <time>2020-04-11T17:32:00Z</time>
      </trkpt>
      <trkpt lat="42.4595900" lon="-6.1051560">
        <ele>884.0</ele>
        <time>2020-04-11T17:32:02Z</time>
      </trkpt>
      <trkpt lat="42.4595690" lon="-6.1052630">
        <ele>884.1</ele>
        <time>2020-04-11T17:32:04Z</time>
      </trkpt>
      <trkpt lat="42.4595470" lon="-6.1053710">
        <ele>884.2</ele>
        <time>2020-04-11T17:32:06Z</time>
      </trkpt>
      <trkpt lat="42.4594880" lon="-6.1056720">
        <ele>884.8</ele>
        <time>2020-04-11T17:32:08Z</time>
      </trkpt>
      <trkpt lat="42.4594660" lon="-6.1057810">
        <ele>884.9</ele>
        <time>2020-04-11T17:32:10Z</time>
      </trkpt>
      <trkpt lat="42.4594450" lon="-6.1058910">
        <ele>885.0</ele>
        <time>2020-04-11T17:32:12Z</time>
      </trkpt>
      <trkpt lat="42.4594230" lon="-6.1060010">
        <ele>885.2</ele>
        <time>2020-04-11T17:32:14Z</time>
      </trkpt>
      <trkpt lat="42.4594010" lon="-6.1061100">
        <ele>885.3</ele>
        <time>2020-04-11T17:32:16Z</time>
      </trkpt>
      <trkpt lat="42.4593440" lon="-6.1064160">
        <ele>885.9</ele>
        <time>2020-04-11T17:32:18Z</time>
      </trkpt>
      <trkpt lat="42.4593240" lon="-6.1065370">
        <ele>886.1</ele>
        <time>2020-04-11T17:32:20Z</time>
      </trkpt>
      <trkpt lat="42.4593030" lon="-6.1066630">
        <ele>886.3</ele>
        <time>2020-04-11T17:32:22Z</time>
      </trkpt>
      <trkpt lat="42.4592810" lon="-6.1067920">
        <ele>886.5</ele>
        <time>2020-04-11T17:32:24Z</time>
      </trkpt>
      <trkpt lat="42.4592280" lon="-6.1071150">
        <ele>887.0</ele>
        <time>2020-04-11T17:32:26Z</time>
      </trkpt>
      <trkpt lat="42.4592050" lon="-6.1072510">
        <ele>887.1</ele>
        <time>2020-04-11T17:32:28Z</time>
      </trkpt>
      <trkpt lat="42.4591820" lon="-6.1073890">
        <ele>887.2</ele>
        <time>2020-04-11T17:32:30Z</time>
      </trkpt>
      <trkpt lat="42.4591580" lon="-6.1075300">
        <ele>887.3</ele>
        <time>2020-04-11T17:32:32Z</time>
      </trkpt>
      <trkpt lat="42.4591030" lon="-6.1078620">
        <ele>887.4</ele>
        <time>2020-04-11T17:32:34Z</time>
      </trkpt>
      <trkpt lat="42.4590790" lon="-6.1080020">
        <ele>887.6</ele>
        <time>2020-04-11T17:32:36Z</time>
      </trkpt>
      <trkpt lat="42.4590560" lon="-6.1081400">
        <ele>887.8</ele>
        <time>2020-04-11T17:32:38Z</time>
      </trkpt>
      <trkpt lat="42.4590330" lon="-6.1082770">
        <ele>888.0</ele>
        <time>2020-04-11T17:32:40Z</time>
      </trkpt>
      <trkpt lat="42.4590100" lon="-6.1084140">
        <ele>888.2</ele>
        <time>2020-04-11T17:32:42Z</time>
      </trkpt>
      <trkpt lat="42.4589870" lon="-6.1085490">
        <ele>888.3</ele>
        <time>2020-04-11T17:32:44Z</time>
      </trkpt>
      <trkpt lat="42.4589170" lon="-6.1089680">
        <ele>888.7</ele>
        <time>2020-04-11T17:32:46Z</time>
      </trkpt>
      <trkpt lat="42.4588950" lon="-6.1090930">
        <ele>888.8</ele>
        <time>2020-04-11T17:32:48Z</time>
      </trkpt>
      <trkpt lat="42.4588750" lon="-6.1092160">
        <ele>888.9</ele>
        <time>2020-04-11T17:32:50Z</time>
      </trkpt>
      <trkpt lat="42.4588540" lon="-6.1093390">
        <ele>889.1</ele>
        <time>2020-04-11T17:32:52Z</time>
      </trkpt>
      <trkpt lat="42.4588330" lon="-6.1094620">
        <ele>889.2</ele>
        <time>2020-04-11T17:32:54Z</time>
      </trkpt>
      <trkpt lat="42.4588130" lon="-6.1095840">
        <ele>889.4</ele>
        <time>2020-04-11T17:32:56Z</time>
      </trkpt>
      <trkpt lat="42.4587430" lon="-6.1100010">
        <ele>889.8</ele>
        <time>2020-04-11T17:32:58Z</time>
      </trkpt>
      <trkpt lat="42.4587210" lon="-6.1101260">
        <ele>890.0</ele>
        <time>2020-04-11T17:33:00Z</time>
      </trkpt>
      <trkpt lat="42.4587000" lon="-6.1102530">
        <ele>890.1</ele>
        <time>2020-04-11T17:33:02Z</time>
      </trkpt>
      <trkpt lat="42.4586790" lon="-6.1103800">
        <ele>890.3</ele>
        <time>2020-04-11T17:33:04Z</time>
      </trkpt>
      <trkpt lat="42.4586570" lon="-6.1105070">
        <ele>890.4</ele>
        <time>2020-04-11T17:33:06Z</time>
      </trkpt>
      <trkpt lat="42.4586360" lon="-6.1106350">
        <ele>890.6</ele>
        <time>2020-04-11T17:33:08Z</time>
      </trkpt>
      <trkpt lat="42.4586140" lon="-6.1107640">
        <ele>890.7</ele>
        <time>2020-04-11T17:33:10Z</time>
      </trkpt>
      <trkpt lat="42.4585430" lon="-6.1111860">
        <ele>891.1</ele>
        <time>2020-04-11T17:33:12Z</time>
      </trkpt>
      <trkpt lat="42.4585210" lon="-6.1113130">
        <ele>891.3</ele>
        <time>2020-04-11T17:33:14Z</time>
      </trkpt>
      <trkpt lat="42.4585000" lon="-6.1114420">
        <ele>891.4</ele>
        <time>2020-04-11T17:33:16Z</time>
      </trkpt>
      <trkpt lat="42.4584780" lon="-6.1115710">
        <ele>891.5</ele>
        <time>2020-04-11T17:33:18Z</time>
      </trkpt>
      <trkpt lat="42.4584570" lon="-6.1116990">
        <ele>891.7</ele>
        <time>2020-04-11T17:33:20Z</time>
      </trkpt>
      <trkpt lat="42.4584350" lon="-6.1118280">
        <ele>891.9</ele>
        <time>2020-04-11T17:33:22Z</time>
      </trkpt>
      <trkpt lat="42.4583640" lon="-6.1122490">
        <ele>892.5</ele>
        <time>2020-04-11T17:33:24Z</time>
      </trkpt>
      <trkpt lat="42.4583420" lon="-6.1123780">
        <ele>892.7</ele>
        <time>2020-04-11T17:33:26Z</time>
      </trkpt>
      <trkpt lat="42.4583200" lon="-6.1125070">
        <ele>893.0</ele>
        <time>2020-04-11T17:33:28Z</time>
      </trkpt>
      <trkpt lat="42.4582990" lon="-6.1126360">
        <ele>893.2</ele>
        <time>2020-04-11T17:33:30Z</time>
      </trkpt>
      <trkpt lat="42.4582770" lon="-6.1127660">
        <ele>893.5</ele>
        <time>2020-04-11T17:33:32Z</time>
      </trkpt>
      <trkpt lat="42.4582550" lon="-6.1128950">
        <ele>893.8</ele>
        <time>2020-04-11T17:33:34Z</time>
      </trkpt>
      <trkpt lat="42.4582330" lon="-6.1130250">
        <ele>894.1</ele>
        <time>2020-04-11T17:33:36Z</time>
      </trkpt>
      <trkpt lat="42.4581620" lon="-6.1134470">
        <ele>895.1</ele>
        <time>2020-04-11T17:33:38Z</time>
      </trkpt>
      <trkpt lat="42.4581410" lon="-6.1135730">
        <ele>895.4</ele>
        <time>2020-04-11T17:33:40Z</time>
      </trkpt>
      <trkpt lat="42.4581200" lon="-6.1136960">
        <ele>895.6</ele>
        <time>2020-04-11T17:33:42Z</time>
      </trkpt>
      <trkpt lat="42.4581000" lon="-6.1138180">
        <ele>895.9</ele>
        <time>2020-04-11T17:33:44Z</time>
      </trkpt>
      <trkpt lat="42.4580790" lon="-6.1139380">
        <ele>896.1</ele>
        <time>2020-04-11T17:33:46Z</time>
      </trkpt>
      <trkpt lat="42.4580590" lon="-6.1140570">
        <ele>896.4</ele>
        <time>2020-04-11T17:33:48Z</time>
      </trkpt>
      <trkpt lat="42.4579900" lon="-6.1144670">
        <ele>897.0</ele>
        <time>2020-04-11T17:33:50Z</time>
      </trkpt>
      <trkpt lat="42.4579710" lon="-6.1145840">
        <ele>897.2</ele>
        <time>2020-04-11T17:33:52Z</time>
      </trkpt>
      <trkpt lat="42.4579510" lon="-6.1146990">
        <ele>897.4</ele>
        <time>2020-04-11T17:33:54Z</time>
      </trkpt>
      <trkpt lat="42.4579320" lon="-6.1148140">
        <ele>897.6</ele>
        <time>2020-04-11T17:33:56Z</time>
      </trkpt>
      <trkpt lat="42.4579120" lon="-6.1149290">
        <ele>897.8</ele>
        <time>2020-04-11T17:33:58Z</time>
      </trkpt>
      <trkpt lat="42.4578930" lon="-6.1150440">
        <ele>897.9</ele>
        <time>2020-04-11T17:34:00Z</time>
      </trkpt>
      <trkpt lat="42.4578740" lon="-6.1151580">
        <ele>898.1</ele>
        <time>2020-04-11T17:34:02Z</time>
      </trkpt>
      <trkpt lat="42.4578550" lon="-6.1152710">
        <ele>898.2</ele>
        <time>2020-04-11T17:34:04Z</time>
      </trkpt>
      <trkpt lat="42.4577860" lon="-6.1156780">
        <ele>898.9</ele>
        <time>2020-04-11T17:34:06Z</time>
      </trkpt>
      <trkpt lat="42.4577670" lon="-6.1157950">
        <ele>899.0</ele>
        <time>2020-04-11T17:34:08Z</time>
      </trkpt>
      <trkpt lat="42.4577470" lon="-6.1159120">
        <ele>899.1</ele>
        <time>2020-04-11T17:34:10Z</time>
      </trkpt>
      <trkpt lat="42.4577270" lon="-6.1160320">
        <ele>899.3</ele>
        <time>2020-04-11T17:34:12Z</time>
      </trkpt>
      <trkpt lat="42.4577060" lon="-6.1161520">
        <ele>899.5</ele>
        <time>2020-04-11T17:34:14Z</time>
      </trkpt>
      <trkpt lat="42.4576860" lon="-6.1162730">
        <ele>899.7</ele>
        <time>2020-04-11T17:34:16Z</time>
      </trkpt>
      <trkpt lat="42.4576660" lon="-6.1163930">
        <ele>899.9</ele>
        <time>2020-04-11T17:34:18Z</time>
      </trkpt>
      <trkpt lat="42.4575960" lon="-6.1168070">
        <ele>900.6</ele>
        <time>2020-04-11T17:34:20Z</time>
      </trkpt>
      <trkpt lat="42.4575750" lon="-6.1169290">
        <ele>900.8</ele>
        <time>2020-04-11T17:34:22Z</time>
      </trkpt>
      <trkpt lat="42.4575550" lon="-6.1170510">
        <ele>900.9</ele>
        <time>2020-04-11T17:34:24Z</time>
      </trkpt>
      <trkpt lat="42.4575340" lon="-6.1171730">
        <ele>901.1</ele>
        <time>2020-04-11T17:34:26Z</time>
      </trkpt>
      <trkpt lat="42.4575140" lon="-6.1172950">
        <ele>901.3</ele>
        <time>2020-04-11T17:34:28Z</time>
      </trkpt>
      <trkpt lat="42.4574930" lon="-6.1174180">
        <ele>901.6</ele>
        <time>2020-04-11T17:34:30Z</time>
      </trkpt>
      <trkpt lat="42.4574230" lon="-6.1178330">
        <ele>902.1</ele>
        <time>2020-04-11T17:34:32Z</time>
      </trkpt>
      <trkpt lat="42.4574030" lon="-6.1179530">
        <ele>902.3</ele>
        <time>2020-04-11T17:34:34Z</time>
      </trkpt>
      <trkpt lat="42.4573830" lon="-6.1180700">
        <ele>902.5</ele>
        <time>2020-04-11T17:34:36Z</time>
      </trkpt>
      <trkpt lat="42.4573640" lon="-6.1181830">
        <ele>902.7</ele>
        <time>2020-04-11T17:34:38Z</time>
      </trkpt>
      <trkpt lat="42.4573450" lon="-6.1182950">
        <ele>902.9</ele>
        <time>2020-04-11T17:34:40Z</time>
      </trkpt>
      <trkpt lat="42.4573270" lon="-6.1184040">
        <ele>903.2</ele>
        <time>2020-04-11T17:34:42Z</time>
      </trkpt>
      <trkpt lat="42.4573090" lon="-6.1185110">
        <ele>903.4</ele>
        <time>2020-04-11T17:34:44Z</time>
      </trkpt>
      <trkpt lat="42.4572910" lon="-6.1186160">
        <ele>903.6</ele>
        <time>2020-04-11T17:34:46Z</time>
      </trkpt>
      <trkpt lat="42.4572200" lon="-6.1190120">
        <ele>904.6</ele>
        <time>2020-04-11T17:34:48Z</time>
      </trkpt>
      <trkpt lat="42.4571970" lon="-6.1191140">
        <ele>904.8</ele>
        <time>2020-04-11T17:34:50Z</time>
      </trkpt>
      <trkpt lat="42.4571750" lon="-6.1192150">
        <ele>905.1</ele>
        <time>2020-04-11T17:34:52Z</time>
      </trkpt>
      <trkpt lat="42.4571520" lon="-6.1193160">
        <ele>905.3</ele>
        <time>2020-04-11T17:34:54Z</time>
      </trkpt>
      <trkpt lat="42.4571300" lon="-6.1194170">
        <ele>905.6</ele>
        <time>2020-04-11T17:34:56Z</time>
      </trkpt>
      <trkpt lat="42.4571080" lon="-6.1195180">
        <ele>905.8</ele>
        <time>2020-04-11T17:34:58Z</time>
      </trkpt>
      <trkpt lat="42.4570860" lon="-6.1196180">
        <ele>906.1</ele>
        <time>2020-04-11T17:35:00Z</time>
      </trkpt>
      <trkpt lat="42.4570640" lon="-6.1197190">
        <ele>906.4</ele>
        <time>2020-04-11T17:35:02Z</time>
      </trkpt>
      <trkpt lat="42.4569770" lon="-6.1201100">
        <ele>907.5</ele>
        <time>2020-04-11T17:35:04Z</time>
      </trkpt>
      <trkpt lat="42.4569520" lon="-6.1202230">
        <ele>907.8</ele>
        <time>2020-04-11T17:35:06Z</time>
      </trkpt>
      <trkpt lat="42.4569270" lon="-6.1203400">
        <ele>908.1</ele>
        <time>2020-04-11T17:35:08Z</time>
      </trkpt>
      <trkpt lat="42.4569000" lon="-6.1204590">
        <ele>908.4</ele>
        <time>2020-04-11T17:35:10Z</time>
      </trkpt>
      <trkpt lat="42.4568730" lon="-6.1205820">
        <ele>908.7</ele>
        <time>2020-04-11T17:35:12Z</time>
      </trkpt>
      <trkpt lat="42.4568460" lon="-6.1207060">
        <ele>909.0</ele>
        <time>2020-04-11T17:35:14Z</time>
      </trkpt>
      <trkpt lat="42.4567540" lon="-6.1211190">
        <ele>910.0</ele>
        <time>2020-04-11T17:35:16Z</time>
      </trkpt>
      <trkpt lat="42.4567260" lon="-6.1212480">
        <ele>910.3</ele>
        <time>2020-04-11T17:35:18Z</time>
      </trkpt>
      <trkpt lat="42.4566970" lon="-6.1213770">
        <ele>910.6</ele>
        <time>2020-04-11T17:35:20Z</time>
      </trkpt>
      <trkpt lat="42.4566690" lon="-6.1215070">
        <ele>910.9</ele>
        <time>2020-04-11T17:35:22Z</time>
      </trkpt>
      <trkpt lat="42.4566400" lon="-6.1216390">
        <ele>911.1</ele>
        <time>2020-04-11T17:35:24Z</time>
      </trkpt>
      <trkpt lat="42.4566100" lon="-6.1217710">
        <ele>911.4</ele>
        <time>2020-04-11T17:35:26Z</time>
      </trkpt>
      <trkpt lat="42.4565810" lon="-6.1219040">
        <ele>911.6</ele>
        <time>2020-04-11T17:35:28Z</time>
      </trkpt>
      <trkpt lat="42.4564880" lon="-6.1223250">
        <ele>911.9</ele>
        <time>2020-04-11T17:35:30Z</time>
      </trkpt>
      <trkpt lat="42.4564580" lon="-6.1224600">
        <ele>912.0</ele>
        <time>2020-04-11T17:35:32Z</time>
      </trkpt>
      <trkpt lat="42.4564290" lon="-6.1225950">
        <ele>912.1</ele>
        <time>2020-04-11T17:35:34Z</time>
      </trkpt>
      <trkpt lat="42.4563990" lon="-6.1227300">
        <ele>912.1</ele>
        <time>2020-04-11T17:35:36Z</time>
      </trkpt>
      <trkpt lat="42.4563690" lon="-6.1228650">
        <ele>912.1</ele>
        <time>2020-04-11T17:35:38Z</time>
      </trkpt>
      <trkpt lat="42.4563390" lon="-6.1230010">
        <ele>912.2</ele>
        <time>2020-04-11T17:35:40Z</time>
      </trkpt>
      <trkpt lat="42.4562450" lon="-6.1234240">
        <ele>912.2</ele>
        <time>2020-04-11T17:35:42Z</time>
      </trkpt>
      <trkpt lat="42.4562160" lon="-6.1235590">
        <ele>912.2</ele>
        <time>2020-04-11T17:35:44Z</time>
      </trkpt>
      <trkpt lat="42.4561860" lon="-6.1236930">
        <ele>912.3</ele>
        <time>2020-04-11T17:35:46Z</time>
      </trkpt>
      <trkpt lat="42.4561570" lon="-6.1238250">
        <ele>912.4</ele>
        <time>2020-04-11T17:35:48Z</time>
      </trkpt>
      <trkpt lat="42.4561280" lon="-6.1239570">
        <ele>912.5</ele>
        <time>2020-04-11T17:35:50Z</time>
      </trkpt>
      <trkpt lat="42.4560990" lon="-6.1240890">
        <ele>912.6</ele>
        <time>2020-04-11T17:35:52Z</time>
      </trkpt>
      <trkpt lat="42.4560060" lon="-6.1245080">
        <ele>912.8</ele>
        <time>2020-04-11T17:35:54Z</time>
      </trkpt>
      <trkpt lat="42.4559760" lon="-6.1246390">
        <ele>912.8</ele>
        <time>2020-04-11T17:35:56Z</time>
      </trkpt>
      <trkpt lat="42.4559470" lon="-6.1247700">
        <ele>913.0</ele>
        <time>2020-04-11T17:35:58Z</time>
      </trkpt>
      <trkpt lat="42.4559170" lon="-6.1249010">
        <ele>913.2</ele>
        <time>2020-04-11T17:36:00Z</time>
      </trkpt>
      <trkpt lat="42.4558410" lon="-6.1252420">
        <ele>913.8</ele>
        <time>2020-04-11T17:36:02Z</time>
      </trkpt>
      <trkpt lat="42.4558120" lon="-6.1253700">
        <ele>914.0</ele>
        <time>2020-04-11T17:36:04Z</time>
      </trkpt>
      <trkpt lat="42.4557830" lon="-6.1254980">
        <ele>914.2</ele>
        <time>2020-04-11T17:36:06Z</time>
      </trkpt>
      <trkpt lat="42.4557550" lon="-6.1256240">
        <ele>914.4</ele>
        <time>2020-04-11T17:36:08Z</time>
      </trkpt>
      <trkpt lat="42.4557260" lon="-6.1257500">
        <ele>914.7</ele>
        <time>2020-04-11T17:36:10Z</time>
      </trkpt>
      <trkpt lat="42.4556510" lon="-6.1260840">
        <ele>915.3</ele>
        <time>2020-04-11T17:36:12Z</time>
      </trkpt>
      <trkpt lat="42.4556230" lon="-6.1262070">
        <ele>915.5</ele>
        <time>2020-04-11T17:36:14Z</time>
      </trkpt>
      <trkpt lat="42.4555960" lon="-6.1263300">
        <ele>915.8</ele>
        <time>2020-04-11T17:36:16Z</time>
      </trkpt>
      <trkpt lat="42.4555680" lon="-6.1264510">
        <ele>916.0</ele>
        <time>2020-04-11T17:36:18Z</time>
      </trkpt>
      <trkpt lat="42.4555410" lon="-6.1265730">
        <ele>916.3</ele>
        <time>2020-04-11T17:36:20Z</time>
      </trkpt>
      <trkpt lat="42.4554770" lon="-6.1269070">
        <ele>916.9</ele>
        <time>2020-04-11T17:36:22Z</time>
      </trkpt>
      <trkpt lat="42.4554620" lon="-6.1270350">
        <ele>917.1</ele>
        <time>2020-04-11T17:36:24Z</time>
      </trkpt>
      <trkpt lat="42.4554470" lon="-6.1271630">
        <ele>917.3</ele>
        <time>2020-04-11T17:36:26Z</time>
      </trkpt>
      <trkpt lat="42.4554310" lon="-6.1272930">
        <ele>917.5</ele>
        <time>2020-04-11T17:36:28Z</time>
      </trkpt>
      <trkpt lat="42.4554150" lon="-6.1274240">
        <ele>917.7</ele>
        <time>2020-04-11T17:36:30Z</time>
      </trkpt>
      <trkpt lat="42.4554000" lon="-6.1275540">
        <ele>918.0</ele>
        <time>2020-04-11T17:36:32Z</time>
      </trkpt>
      <trkpt lat="42.4553510" lon="-6.1279580">
        <ele>918.8</ele>
        <time>2020-04-11T17:36:34Z</time>
      </trkpt>
      <trkpt lat="42.4553350" lon="-6.1280910">
        <ele>919.1</ele>
        <time>2020-04-11T17:36:36Z</time>
      </trkpt>
      <trkpt lat="42.4553190" lon="-6.1282250">
        <ele>919.4</ele>
        <time>2020-04-11T17:36:38Z</time>
      </trkpt>
      <trkpt lat="42.4553030" lon="-6.1283580">
        <ele>919.7</ele>
        <time>2020-04-11T17:36:40Z</time>
      </trkpt>
      <trkpt lat="42.4552870" lon="-6.1284920">
        <ele>920.0</ele>
        <time>2020-04-11T17:36:42Z</time>
      </trkpt>
      <trkpt lat="42.4552390" lon="-6.1288990">
        <ele>920.7</ele>
        <time>2020-04-11T17:36:44Z</time>
      </trkpt>
      <trkpt lat="42.4552230" lon="-6.1290320">
        <ele>921.0</ele>
        <time>2020-04-11T17:36:46Z</time>
      </trkpt>
      <trkpt lat="42.4552070" lon="-6.1291650">
        <ele>921.2</ele>
        <time>2020-04-11T17:36:48Z</time>
      </trkpt>
      <trkpt lat="42.4551910" lon="-6.1292960">
        <ele>921.3</ele>
        <time>2020-04-11T17:36:50Z</time>
      </trkpt>
      <trkpt lat="42.4551760" lon="-6.1294260">
        <ele>921.5</ele>
        <time>2020-04-11T17:36:52Z</time>
      </trkpt>
      <trkpt lat="42.4551600" lon="-6.1295540">
        <ele>921.7</ele>
        <time>2020-04-11T17:36:54Z</time>
      </trkpt>
      <trkpt lat="42.4551130" lon="-6.1299530">
        <ele>922.4</ele>
        <time>2020-04-11T17:36:56Z</time>
      </trkpt>
      <trkpt lat="42.4550970" lon="-6.1300800">
        <ele>922.6</ele>
        <time>2020-04-11T17:36:58Z</time>
      </trkpt>
      <trkpt lat="42.4550820" lon="-6.1302060">
        <ele>922.9</ele>
        <time>2020-04-11T17:37:00Z</time>
      </trkpt>
      <trkpt lat="42.4550670" lon="-6.1303330">
        <ele>923.2</ele>
        <time>2020-04-11T17:37:02Z</time>
      </trkpt>
      <trkpt lat="42.4550520" lon="-6.1304580">
        <ele>923.5</ele>
        <time>2020-04-11T17:37:04Z</time>
      </trkpt>
      <trkpt lat="42.4550370" lon="-6.1305840">
        <ele>923.8</ele>
        <time>2020-04-11T17:37:06Z</time>
      </trkpt>
      <trkpt lat="42.4549900" lon="-6.1309800">
        <ele>924.8</ele>
        <time>2020-04-11T17:37:08Z</time>
      </trkpt>
      <trkpt lat="42.4549750" lon="-6.1311040">
        <ele>925.1</ele>
        <time>2020-04-11T17:37:10Z</time>
      </trkpt>
      <trkpt lat="42.4549600" lon="-6.1312250">
        <ele>925.3</ele>
        <time>2020-04-11T17:37:12Z</time>
      </trkpt>
      <trkpt lat="42.4549460" lon="-6.1313450">
        <ele>925.6</ele>
        <time>2020-04-11T17:37:14Z</time>
      </trkpt>
      <trkpt lat="42.4549320" lon="-6.1314630">
        <ele>925.9</ele>
        <time>2020-04-11T17:37:16Z</time>
      </trkpt>
      <trkpt lat="42.4549180" lon="-6.1315800">
        <ele>926.1</ele>
        <time>2020-04-11T17:37:18Z</time>
      </trkpt>
      <trkpt lat="42.4549040" lon="-6.1316960">
        <ele>926.3</ele>
        <time>2020-04-11T17:37:20Z</time>
      </trkpt>
      <trkpt lat="42.4548710" lon="-6.1320840">
        <ele>927.1</ele>
        <time>2020-04-11T17:37:22Z</time>
      </trkpt>
      <trkpt lat="42.4548710" lon="-6.1322010">
        <ele>927.4</ele>
        <time>2020-04-11T17:37:24Z</time>
      </trkpt>
      <trkpt lat="42.4548720" lon="-6.1323170">
        <ele>927.7</ele>
        <time>2020-04-11T17:37:26Z</time>
      </trkpt>
      <trkpt lat="42.4548730" lon="-6.1324330">
        <ele>927.9</ele>
        <time>2020-04-11T17:37:28Z</time>
      </trkpt>
      <trkpt lat="42.4548740" lon="-6.1325470">
        <ele>928.1</ele>
        <time>2020-04-11T17:37:30Z</time>
      </trkpt>
      <trkpt lat="42.4548750" lon="-6.1326630">
        <ele>928.4</ele>
        <time>2020-04-11T17:37:32Z</time>
      </trkpt>
      <trkpt lat="42.4548770" lon="-6.1330250">
        <ele>929.4</ele>
        <time>2020-04-11T17:37:34Z</time>
      </trkpt>
      <trkpt lat="42.4548780" lon="-6.1331370">
        <ele>929.8</ele>
        <time>2020-04-11T17:37:36Z</time>
      </trkpt>
      <trkpt lat="42.4548790" lon="-6.1332460">
        <ele>930.2</ele>
        <time>2020-04-11T17:37:38Z</time>
      </trkpt>
      <trkpt lat="42.4548800" lon="-6.1333530">
        <ele>930.6</ele>
        <time>2020-04-11T17:37:40Z</time>
      </trkpt>
      <trkpt lat="42.4548800" lon="-6.1334590">
        <ele>931.0</ele>
        <time>2020-04-11T17:37:42Z</time>
      </trkpt>
      <trkpt lat="42.4548810" lon="-6.1335620">
        <ele>931.5</ele>
        <time>2020-04-11T17:37:44Z</time>
      </trkpt>
      <trkpt lat="42.4548840" lon="-6.1339120">
        <ele>932.7</ele>
        <time>2020-04-11T17:37:46Z</time>
      </trkpt>
      <trkpt lat="42.4548840" lon="-6.1340140">
        <ele>933.1</ele>
        <time>2020-04-11T17:37:48Z</time>
      </trkpt>
      <trkpt lat="42.4548850" lon="-6.1341150">
        <ele>933.4</ele>
        <time>2020-04-11T17:37:50Z</time>
      </trkpt>
      <trkpt lat="42.4548860" lon="-6.1342150">
        <ele>933.7</ele>
        <time>2020-04-11T17:37:52Z</time>
      </trkpt>
      <trkpt lat="42.4548860" lon="-6.1343150">
        <ele>933.9</ele>
        <time>2020-04-11T17:37:54Z</time>
      </trkpt>
      <trkpt lat="42.4548870" lon="-6.1344150">
        <ele>934.1</ele>
        <time>2020-04-11T17:37:56Z</time>
      </trkpt>
      <trkpt lat="42.4548880" lon="-6.1345140">
        <ele>934.3</ele>
        <time>2020-04-11T17:37:58Z</time>
      </trkpt>
      <trkpt lat="42.4548840" lon="-6.1348590">
        <ele>934.7</ele>
        <time>2020-04-11T17:38:00Z</time>
      </trkpt>
      <trkpt lat="42.4548720" lon="-6.1349490">
        <ele>934.7</ele>
        <time>2020-04-11T17:38:02Z</time>
      </trkpt>
      <trkpt lat="42.4548690" lon="-6.1350850">
        <ele>934.8</ele>
        <time>2020-04-11T17:38:04Z</time>
      </trkpt>
      <trkpt lat="42.4548820" lon="-6.1351600">
        <ele>934.8</ele>
        <time>2020-04-11T17:38:06Z</time>
      </trkpt>
      <trkpt lat="42.4548940" lon="-6.1352320">
        <ele>934.9</ele>
        <time>2020-04-11T17:38:08Z</time>
      </trkpt>
      <trkpt lat="42.4549200" lon="-6.1353950">
        <ele>935.2</ele>
        <time>2020-04-11T17:38:10Z</time>
      </trkpt>
      <trkpt lat="42.4549240" lon="-6.1354630">
        <ele>935.3</ele>
        <time>2020-04-11T17:38:12Z</time>
      </trkpt>
      <trkpt lat="42.4549270" lon="-6.1355310">
        <ele>935.6</ele>
        <time>2020-04-11T17:38:14Z</time>
      </trkpt>
      <trkpt lat="42.4549300" lon="-6.1355970">
        <ele>935.8</ele>
        <time>2020-04-11T17:38:16Z</time>
      </trkpt>
      <trkpt lat="42.4549340" lon="-6.1356630">
        <ele>936.1</ele>
        <time>2020-04-11T17:38:18Z</time>
      </trkpt>
      <trkpt lat="42.4549370" lon="-6.1357280">
        <ele>936.4</ele>
        <time>2020-04-11T17:38:20Z</time>
      </trkpt>
      <trkpt lat="42.4549400" lon="-6.1357930">
        <ele>936.7</ele>
        <time>2020-04-11T17:38:22Z</time>
      </trkpt>
      <trkpt lat="42.4549500" lon="-6.1360150">
        <ele>937.9</ele>
        <time>2020-04-11T17:38:24Z</time>
      </trkpt>
      <trkpt lat="42.4549510" lon="-6.1360790">
        <ele>938.2</ele>
        <time>2020-04-11T17:38:26Z</time>
      </trkpt>
      <trkpt lat="42.4549510" lon="-6.1361460">
        <ele>938.6</ele>
        <time>2020-04-11T17:38:28Z</time>
      </trkpt>
      <trkpt lat="42.4549510" lon="-6.1362120">
        <ele>938.9</ele>
        <time>2020-04-11T17:38:30Z</time>
      </trkpt>
      <trkpt lat="42.4549520" lon="-6.1362780">
        <ele>939.2</ele>
        <time>2020-04-11T17:38:32Z</time>
      </trkpt>
      <trkpt lat="42.4549520" lon="-6.1363450">
        <ele>939.6</ele>
        <time>2020-04-11T17:38:34Z</time>
      </trkpt>
      <trkpt lat="42.4549530" lon="-6.1364120">
        <ele>939.9</ele>
        <time>2020-04-11T17:38:36Z</time>
      </trkpt>
      <trkpt lat="42.4549530" lon="-6.1364800">
        <ele>940.2</ele>
        <time>2020-04-11T17:38:38Z</time>
      </trkpt>
      <trkpt lat="42.4549540" lon="-6.1365470">
        <ele>940.5</ele>
        <time>2020-04-11T17:38:40Z</time>
      </trkpt>
      <trkpt lat="42.4549540" lon="-6.1366160">
        <ele>940.9</ele>
        <time>2020-04-11T17:38:42Z</time>
      </trkpt>
      <trkpt lat="42.4549540" lon="-6.1366860">
        <ele>941.2</ele>
        <time>2020-04-11T17:38:44Z</time>
      </trkpt>
      <trkpt lat="42.4549550" lon="-6.1367550">
        <ele>941.5</ele>
        <time>2020-04-11T17:38:46Z</time>
      </trkpt>
      <trkpt lat="42.4549570" lon="-6.1371080">
        <ele>942.7</ele>
        <time>2020-04-11T17:38:48Z</time>
      </trkpt>
      <trkpt lat="42.4549580" lon="-6.1372040">
        <ele>943.0</ele>
        <time>2020-04-11T17:38:50Z</time>
      </trkpt>
      <trkpt lat="42.4549580" lon="-6.1373060">
        <ele>943.3</ele>
        <time>2020-04-11T17:38:52Z</time>
      </trkpt>
      <trkpt lat="42.4549590" lon="-6.1374100">
        <ele>943.6</ele>
        <time>2020-04-11T17:38:54Z</time>
      </trkpt>
      <trkpt lat="42.4549600" lon="-6.1375170">
        <ele>943.9</ele>
        <time>2020-04-11T17:38:56Z</time>
      </trkpt>
      <trkpt lat="42.4549600" lon="-6.1376250">
        <ele>944.2</ele>
        <time>2020-04-11T17:38:58Z</time>
      </trkpt>
      <trkpt lat="42.4549610" lon="-6.1377350">
        <ele>944.5</ele>
        <time>2020-04-11T17:39:00Z</time>
      </trkpt>
      <trkpt lat="42.4549640" lon="-6.1381160">
        <ele>945.4</ele>
        <time>2020-04-11T17:39:02Z</time>
      </trkpt>
      <trkpt lat="42.4549640" lon="-6.1382270">
        <ele>945.7</ele>
        <time>2020-04-11T17:39:04Z</time>
      </trkpt>
      <trkpt lat="42.4549650" lon="-6.1383380">
        <ele>945.9</ele>
        <time>2020-04-11T17:39:06Z</time>
      </trkpt>
      <trkpt lat="42.4549660" lon="-6.1384490">
        <ele>946.1</ele>
        <time>2020-04-11T17:39:08Z</time>
      </trkpt>
      <trkpt lat="42.4549670" lon="-6.1385600">
        <ele>946.3</ele>
        <time>2020-04-11T17:39:10Z</time>
      </trkpt>
      <trkpt lat="42.4549670" lon="-6.1386710">
        <ele>946.5</ele>
        <time>2020-04-11T17:39:12Z</time>
      </trkpt>
      <trkpt lat="42.4549680" lon="-6.1387830">
        <ele>946.8</ele>
        <time>2020-04-11T17:39:14Z</time>
      </trkpt>
      <trkpt lat="42.4549700" lon="-6.1391660">
        <ele>947.7</ele>
        <time>2020-04-11T17:39:16Z</time>
      </trkpt>
      <trkpt lat="42.4549710" lon="-6.1392790">
        <ele>947.9</ele>
        <time>2020-04-11T17:39:18Z</time>
      </trkpt>
      <trkpt lat="42.4549720" lon="-6.1393910">
        <ele>948.1</ele>
        <time>2020-04-11T17:39:20Z</time>
      </trkpt>
      <trkpt lat="42.4549730" lon="-6.1395040">
        <ele>948.3</ele>
        <time>2020-04-11T17:39:22Z</time>
      </trkpt>
      <trkpt lat="42.4549730" lon="-6.1396160">
        <ele>948.6</ele>
        <time>2020-04-11T17:39:24Z</time>
      </trkpt>
      <trkpt lat="42.4549740" lon="-6.1397280">
        <ele>948.8</ele>
        <time>2020-04-11T17:39:26Z</time>
      </trkpt>
      <trkpt lat="42.4549750" lon="-6.1398410">
        <ele>949.1</ele>
        <time>2020-04-11T17:39:28Z</time>
      </trkpt>
      <trkpt lat="42.4549770" lon="-6.1402240">
        <ele>949.9</ele>
        <time>2020-04-11T17:39:30Z</time>
      </trkpt>
      <trkpt lat="42.4549780" lon="-6.1403360">
        <ele>950.2</ele>
        <time>2020-04-11T17:39:32Z</time>
      </trkpt>
      <trkpt lat="42.4549790" lon="-6.1404480">
        <ele>950.5</ele>
        <time>2020-04-11T17:39:34Z</time>
      </trkpt>
      <trkpt lat="42.4549790" lon="-6.1405600">
        <ele>950.9</ele>
        <time>2020-04-11T17:39:36Z</time>
      </trkpt>
      <trkpt lat="42.4549800" lon="-6.1406720">
        <ele>951.2</ele>
        <time>2020-04-11T17:39:38Z</time>
      </trkpt>
      <trkpt lat="42.4549810" lon="-6.1407840">
        <ele>951.6</ele>
        <time>2020-04-11T17:39:40Z</time>
      </trkpt>
      <trkpt lat="42.4549820" lon="-6.1408950">
        <ele>952.0</ele>
        <time>2020-04-11T17:39:42Z</time>
      </trkpt>
      <trkpt lat="42.4549840" lon="-6.1412790">
        <ele>953.3</ele>
        <time>2020-04-11T17:39:44Z</time>
      </trkpt>
      <trkpt lat="42.4549850" lon="-6.1413920">
        <ele>953.7</ele>
        <time>2020-04-11T17:39:46Z</time>
      </trkpt>
      <trkpt lat="42.4549850" lon="-6.1415040">
        <ele>954.1</ele>
        <time>2020-04-11T17:39:48Z</time>
      </trkpt>
      <trkpt lat="42.4549860" lon="-6.1416150">
        <ele>954.4</ele>
        <time>2020-04-11T17:39:50Z</time>
      </trkpt>
      <trkpt lat="42.4549870" lon="-6.1417260">
        <ele>954.8</ele>
        <time>2020-04-11T17:39:52Z</time>
      </trkpt>
      <trkpt lat="42.4549880" lon="-6.1418380">
        <ele>955.2</ele>
        <time>2020-04-11T17:39:54Z</time>
      </trkpt>
      <trkpt lat="42.4549900" lon="-6.1422220">
        <ele>956.3</ele>
        <time>2020-04-11T17:39:56Z</time>
      </trkpt>
      <trkpt lat="42.4549860" lon="-6.1423370">
        <ele>956.6</ele>
        <time>2020-04-11T17:39:58Z</time>
      </trkpt>
      <trkpt lat="42.4549780" lon="-6.1425330">
        <ele>957.3</ele>
        <time>2020-04-11T17:40:00Z</time>
      </trkpt>
      <trkpt lat="42.4549690" lon="-6.1426530">
        <ele>957.6</ele>
        <time>2020-04-11T17:40:02Z</time>
      </trkpt>
      <trkpt lat="42.4549600" lon="-6.1427740">
        <ele>957.9</ele>
        <time>2020-04-11T17:40:04Z</time>
      </trkpt>
      <trkpt lat="42.4549510" lon="-6.1428960">
        <ele>958.2</ele>
        <time>2020-04-11T17:40:06Z</time>
      </trkpt>
      <trkpt lat="42.4549420" lon="-6.1430200">
        <ele>958.4</ele>
        <time>2020-04-11T17:40:08Z</time>
      </trkpt>
      <trkpt lat="42.4549320" lon="-6.1431450">
        <ele>958.6</ele>
        <time>2020-04-11T17:40:10Z</time>
      </trkpt>
      <trkpt lat="42.4549230" lon="-6.1432700">
        <ele>958.8</ele>
        <time>2020-04-11T17:40:12Z</time>
      </trkpt>
      <trkpt lat="42.4548910" lon="-6.1436920">
        <ele>959.3</ele>
        <time>2020-04-11T17:40:14Z</time>
      </trkpt>
      <trkpt lat="42.4548820" lon="-6.1438190">
        <ele>959.5</ele>
        <time>2020-04-11T17:40:16Z</time>
      </trkpt>
      <trkpt lat="42.4548720" lon="-6.1439450">
        <ele>959.6</ele>
        <time>2020-04-11T17:40:18Z</time>
      </trkpt>
      <trkpt lat="42.4548620" lon="-6.1440730">
        <ele>959.7</ele>
        <time>2020-04-11T17:40:20Z</time>
      </trkpt>
      <trkpt lat="42.4548530" lon="-6.1442010">
        <ele>959.9</ele>
        <time>2020-04-11T17:40:22Z</time>
      </trkpt>
      <trkpt lat="42.4548430" lon="-6.1443290">
        <ele>960.0</ele>
        <time>2020-04-11T17:40:24Z</time>
      </trkpt>
      <trkpt lat="42.4548340" lon="-6.1444560">
        <ele>960.2</ele>
        <time>2020-04-11T17:40:26Z</time>
      </trkpt>
      <trkpt lat="42.4548100" lon="-6.1448810">
        <ele>960.8</ele>
        <time>2020-04-11T17:40:28Z</time>
      </trkpt>
      <trkpt lat="42.4548140" lon="-6.1450830">
        <ele>961.1</ele>
        <time>2020-04-11T17:40:30Z</time>
      </trkpt>
      <trkpt lat="42.4548280" lon="-6.1452070">
        <ele>961.4</ele>
        <time>2020-04-11T17:40:32Z</time>
      </trkpt>
      <trkpt lat="42.4548570" lon="-6.1453960">
        <ele>961.9</ele>
        <time>2020-04-11T17:40:34Z</time>
      </trkpt>
      <trkpt lat="42.4548810" lon="-6.1455130">
        <ele>962.1</ele>
        <time>2020-04-11T17:40:36Z</time>
      </trkpt>
      <trkpt lat="42.4549050" lon="-6.1456270">
        <ele>962.4</ele>
        <time>2020-04-11T17:40:38Z</time>
      </trkpt>
      <trkpt lat="42.4549270" lon="-6.1457400">
        <ele>962.7</ele>
        <time>2020-04-11T17:40:40Z</time>
      </trkpt>
      <trkpt lat="42.4549500" lon="-6.1458510">
        <ele>962.9</ele>
        <time>2020-04-11T17:40:42Z</time>
      </trkpt>
      <trkpt lat="42.4549730" lon="-6.1459620">
        <ele>963.3</ele>
        <time>2020-04-11T17:40:44Z</time>
      </trkpt>
      <trkpt lat="42.4549950" lon="-6.1460700">
        <ele>963.7</ele>
        <time>2020-04-11T17:40:46Z</time>
      </trkpt>
      <trkpt lat="42.4550750" lon="-6.1464640">
        <ele>965.4</ele>
        <time>2020-04-11T17:40:48Z</time>
      </trkpt>
      <trkpt lat="42.4550990" lon="-6.1465820">
        <ele>965.9</ele>
        <time>2020-04-11T17:40:50Z</time>
      </trkpt>
      <trkpt lat="42.4551240" lon="-6.1467040">
        <ele>966.3</ele>
        <time>2020-04-11T17:40:52Z</time>
      </trkpt>
      <trkpt lat="42.4551500" lon="-6.1468300">
        <ele>966.7</ele>
        <time>2020-04-11T17:40:54Z</time>
      </trkpt>
      <trkpt lat="42.4551760" lon="-6.1469610">
        <ele>967.0</ele>
        <time>2020-04-11T17:40:56Z</time>
      </trkpt>
      <trkpt lat="42.4552030" lon="-6.1470940">
        <ele>967.3</ele>
        <time>2020-04-11T17:40:58Z</time>
      </trkpt>
      <trkpt lat="42.4552850" lon="-6.1475140">
        <ele>968.0</ele>
        <time>2020-04-11T17:41:00Z</time>
      </trkpt>
      <trkpt lat="42.4553010" lon="-6.1476550">
        <ele>968.3</ele>
        <time>2020-04-11T17:41:02Z</time>
      </trkpt>
      <trkpt lat="42.4553300" lon="-6.1479140">
        <ele>968.8</ele>
        <time>2020-04-11T17:41:04Z</time>
      </trkpt>
      <trkpt lat="42.4553410" lon="-6.1480600">
        <ele>969.0</ele>
        <time>2020-04-11T17:41:06Z</time>
      </trkpt>
      <trkpt lat="42.4553510" lon="-6.1482060">
        <ele>969.2</ele>
        <time>2020-04-11T17:41:08Z</time>
      </trkpt>
      <trkpt lat="42.4553610" lon="-6.1483540">
        <ele>969.4</ele>
        <time>2020-04-11T17:41:10Z</time>
      </trkpt>
      <trkpt lat="42.4553720" lon="-6.1485030">
        <ele>969.5</ele>
        <time>2020-04-11T17:41:12Z</time>
      </trkpt>
      <trkpt lat="42.4553930" lon="-6.1488770">
        <ele>969.8</ele>
        <time>2020-04-11T17:41:14Z</time>
      </trkpt>
      <trkpt lat="42.4553960" lon="-6.1490270">
        <ele>969.9</ele>
        <time>2020-04-11T17:41:16Z</time>
      </trkpt>
      <trkpt lat="42.4553940" lon="-6.1492950">
        <ele>970.1</ele>
        <time>2020-04-11T17:41:18Z</time>
      </trkpt>
      <trkpt lat="42.4553850" lon="-6.1494460">
        <ele>970.3</ele>
        <time>2020-04-11T17:41:20Z</time>
      </trkpt>
      <trkpt lat="42.4553760" lon="-6.1495970">
        <ele>970.4</ele>
        <time>2020-04-11T17:41:22Z</time>
      </trkpt>
      <trkpt lat="42.4553670" lon="-6.1497480">
        <ele>970.5</ele>
        <time>2020-04-11T17:41:24Z</time>
      </trkpt>
      <trkpt lat="42.4553450" lon="-6.1501140">
        <ele>970.6</ele>
        <time>2020-04-11T17:41:26Z</time>
      </trkpt>
      <trkpt lat="42.4553360" lon="-6.1502640">
        <ele>970.7</ele>
        <time>2020-04-11T17:41:28Z</time>
      </trkpt>
      <trkpt lat="42.4553260" lon="-6.1504120">
        <ele>970.7</ele>
        <time>2020-04-11T17:41:30Z</time>
      </trkpt>
      <trkpt lat="42.4553170" lon="-6.1505620">
        <ele>970.8</ele>
        <time>2020-04-11T17:41:32Z</time>
      </trkpt>
      <trkpt lat="42.4552990" lon="-6.1509260">
        <ele>971.1</ele>
        <time>2020-04-11T17:41:34Z</time>
      </trkpt>
      <trkpt lat="42.4552980" lon="-6.1510690">
        <ele>971.2</ele>
        <time>2020-04-11T17:41:36Z</time>
      </trkpt>
      <trkpt lat="42.4552970" lon="-6.1512060">
        <ele>971.4</ele>
        <time>2020-04-11T17:41:38Z</time>
      </trkpt>
      <trkpt lat="42.4552950" lon="-6.1513400">
        <ele>971.6</ele>
        <time>2020-04-11T17:41:40Z</time>
      </trkpt>
      <trkpt lat="42.4552940" lon="-6.1514700">
        <ele>971.8</ele>
        <time>2020-04-11T17:41:42Z</time>
      </trkpt>
      <trkpt lat="42.4552930" lon="-6.1515950">
        <ele>972.0</ele>
        <time>2020-04-11T17:41:44Z</time>
      </trkpt>
      <trkpt lat="42.4552890" lon="-6.1520000">
        <ele>972.7</ele>
        <time>2020-04-11T17:41:46Z</time>
      </trkpt>
      <trkpt lat="42.4552880" lon="-6.1521210">
        <ele>972.9</ele>
        <time>2020-04-11T17:41:48Z</time>
      </trkpt>
      <trkpt lat="42.4552870" lon="-6.1522400">
        <ele>973.1</ele>
        <time>2020-04-11T17:41:50Z</time>
      </trkpt>
      <trkpt lat="42.4552860" lon="-6.1523570">
        <ele>973.4</ele>
        <time>2020-04-11T17:41:52Z</time>
      </trkpt>
      <trkpt lat="42.4552850" lon="-6.1524730">
        <ele>973.6</ele>
        <time>2020-04-11T17:41:54Z</time>
      </trkpt>
      <trkpt lat="42.4552840" lon="-6.1525880">
        <ele>973.9</ele>
        <time>2020-04-11T17:41:56Z</time>
      </trkpt>
      <trkpt lat="42.4552830" lon="-6.1527020">
        <ele>974.1</ele>
        <time>2020-04-11T17:41:58Z</time>
      </trkpt>
      <trkpt lat="42.4552770" lon="-6.1531000">
        <ele>974.7</ele>
        <time>2020-04-11T17:42:00Z</time>
      </trkpt>
      <trkpt lat="42.4552730" lon="-6.1532220">
        <ele>975.0</ele>
        <time>2020-04-11T17:42:02Z</time>
      </trkpt>
      <trkpt lat="42.4552690" lon="-6.1533470">
        <ele>975.3</ele>
        <time>2020-04-11T17:42:04Z</time>
      </trkpt>
      <trkpt lat="42.4552650" lon="-6.1534770">
        <ele>975.6</ele>
        <time>2020-04-11T17:42:06Z</time>
      </trkpt>
      <trkpt lat="42.4552540" lon="-6.1538160">
        <ele>976.2</ele>
        <time>2020-04-11T17:42:08Z</time>
      </trkpt>
      <trkpt lat="42.4552500" lon="-6.1539510">
        <ele>976.5</ele>
        <time>2020-04-11T17:42:10Z</time>
      </trkpt>
      <trkpt lat="42.4552450" lon="-6.1540890">
        <ele>976.7</ele>
        <time>2020-04-11T17:42:12Z</time>
      </trkpt>
      <trkpt lat="42.4552410" lon="-6.1542300">
        <ele>977.0</ele>
        <time>2020-04-11T17:42:14Z</time>
      </trkpt>
      <trkpt lat="42.4552290" lon="-6.1545770">
        <ele>977.4</ele>
        <time>2020-04-11T17:42:16Z</time>
      </trkpt>
      <trkpt lat="42.4552210" lon="-6.1547210">
        <ele>977.5</ele>
        <time>2020-04-11T17:42:18Z</time>
      </trkpt>
      <trkpt lat="42.4552120" lon="-6.1548690">
        <ele>977.6</ele>
        <time>2020-04-11T17:42:20Z</time>
      </trkpt>
      <trkpt lat="42.4552030" lon="-6.1550200">
        <ele>977.7</ele>
        <time>2020-04-11T17:42:22Z</time>
      </trkpt>
      <trkpt lat="42.4551930" lon="-6.1551740">
        <ele>977.8</ele>
        <time>2020-04-11T17:42:24Z</time>
      </trkpt>
      <trkpt lat="42.4551840" lon="-6.1553290">
        <ele>977.9</ele>
        <time>2020-04-11T17:42:26Z</time>
      </trkpt>
      <trkpt lat="42.4551500" lon="-6.1557880">
        <ele>978.0</ele>
        <time>2020-04-11T17:42:28Z</time>
      </trkpt>
      <trkpt lat="42.4551020" lon="-6.1559920">
        <ele>978.1</ele>
        <time>2020-04-11T17:42:30Z</time>
      </trkpt>
      <trkpt lat="42.4550370" lon="-6.1561910">
        <ele>978.1</ele>
        <time>2020-04-11T17:42:32Z</time>
      </trkpt>
      <trkpt lat="42.4550330" lon="-6.1563960">
        <ele>978.2</ele>
        <time>2020-04-11T17:42:34Z</time>
      </trkpt>
      <trkpt lat="42.4550390" lon="-6.1565480">
        <ele>978.2</ele>
        <time>2020-04-11T17:42:36Z</time>
      </trkpt>
      <trkpt lat="42.4550450" lon="-6.1566960">
        <ele>978.3</ele>
        <time>2020-04-11T17:42:38Z</time>
      </trkpt>
      <trkpt lat="42.4550570" lon="-6.1570100">
        <ele>978.5</ele>
        <time>2020-04-11T17:42:40Z</time>
      </trkpt>
      <trkpt lat="42.4550620" lon="-6.1571520">
        <ele>978.7</ele>
        <time>2020-04-11T17:42:42Z</time>
      </trkpt>
      <trkpt lat="42.4550670" lon="-6.1572900">
        <ele>978.8</ele>
        <time>2020-04-11T17:42:44Z</time>
      </trkpt>
      <trkpt lat="42.4550730" lon="-6.1574260">
        <ele>979.0</ele>
        <time>2020-04-11T17:42:46Z</time>
      </trkpt>
      <trkpt lat="42.4550960" lon="-6.1577290">
        <ele>979.2</ele>
        <time>2020-04-11T17:42:48Z</time>
      </trkpt>
      <trkpt lat="42.4551190" lon="-6.1579100">
        <ele>979.2</ele>
        <time>2020-04-11T17:42:50Z</time>
      </trkpt>
      <trkpt lat="42.4551320" lon="-6.1580320">
        <ele>979.2</ele>
        <time>2020-04-11T17:42:52Z</time>
      </trkpt>
      <trkpt lat="42.4551450" lon="-6.1581490">
        <ele>979.3</ele>
        <time>2020-04-11T17:42:54Z</time>
      </trkpt>
      <trkpt lat="42.4551750" lon="-6.1584060">
        <ele>979.5</ele>
        <time>2020-04-11T17:42:56Z</time>
      </trkpt>
      <trkpt lat="42.4551930" lon="-6.1585170">
        <ele>979.8</ele>
        <time>2020-04-11T17:42:58Z</time>
      </trkpt>
      <trkpt lat="42.4552100" lon="-6.1586270">
        <ele>979.9</ele>
        <time>2020-04-11T17:43:00Z</time>
      </trkpt>
      <trkpt lat="42.4552260" lon="-6.1587360">
        <ele>980.1</ele>
        <time>2020-04-11T17:43:02Z</time>
      </trkpt>
      <trkpt lat="42.4552430" lon="-6.1588430">
        <ele>980.3</ele>
        <time>2020-04-11T17:43:04Z</time>
      </trkpt>
      <trkpt lat="42.4552910" lon="-6.1591540">
        <ele>980.9</ele>
        <time>2020-04-11T17:43:06Z</time>
      </trkpt>
      <trkpt lat="42.4553080" lon="-6.1592650">
        <ele>981.1</ele>
        <time>2020-04-11T17:43:08Z</time>
      </trkpt>
      <trkpt lat="42.4553260" lon="-6.1593860">
        <ele>981.5</ele>
        <time>2020-04-11T17:43:10Z</time>
      </trkpt>
      <trkpt lat="42.4553460" lon="-6.1595130">
        <ele>981.7</ele>
        <time>2020-04-11T17:43:12Z</time>
      </trkpt>
      <trkpt lat="42.4553660" lon="-6.1596470">
        <ele>982.0</ele>
        <time>2020-04-11T17:43:14Z</time>
      </trkpt>
      <trkpt lat="42.4554140" lon="-6.1599900">
        <ele>982.3</ele>
        <time>2020-04-11T17:43:16Z</time>
      </trkpt>
      <trkpt lat="42.4554240" lon="-6.1601340">
        <ele>982.5</ele>
        <time>2020-04-11T17:43:18Z</time>
      </trkpt>
      <trkpt lat="42.4554340" lon="-6.1602820">
        <ele>982.5</ele>
        <time>2020-04-11T17:43:20Z</time>
      </trkpt>
      <trkpt lat="42.4554450" lon="-6.1604310">
        <ele>982.5</ele>
        <time>2020-04-11T17:43:22Z</time>
      </trkpt>
      <trkpt lat="42.4554750" lon="-6.1607740">
        <ele>982.8</ele>
        <time>2020-04-11T17:43:24Z</time>
      </trkpt>
      <trkpt lat="42.4554950" lon="-6.1609320">
        <ele>982.9</ele>
        <time>2020-04-11T17:43:26Z</time>
      </trkpt>
      <trkpt lat="42.4555150" lon="-6.1610950">
        <ele>983.1</ele>
        <time>2020-04-11T17:43:28Z</time>
      </trkpt>
      <trkpt lat="42.4555590" lon="-6.1614750">
        <ele>983.3</ele>
        <time>2020-04-11T17:43:30Z</time>
      </trkpt>
      <trkpt lat="42.4555540" lon="-6.1616490">
        <ele>983.3</ele>
        <time>2020-04-11T17:43:32Z</time>
      </trkpt>
      <trkpt lat="42.4555480" lon="-6.1618250">
        <ele>983.3</ele>
        <time>2020-04-11T17:43:34Z</time>
      </trkpt>
      <trkpt lat="42.4555430" lon="-6.1620020">
        <ele>983.3</ele>
        <time>2020-04-11T17:43:36Z</time>
      </trkpt>
      <trkpt lat="42.4555350" lon="-6.1624290">
        <ele>983.3</ele>
        <time>2020-04-11T17:43:38Z</time>
      </trkpt>
      <trkpt lat="42.4555690" lon="-6.1626040">
        <ele>983.3</ele>
        <time>2020-04-11T17:43:40Z</time>
      </trkpt>
      <trkpt lat="42.4556030" lon="-6.1627790">
        <ele>983.4</ele>
        <time>2020-04-11T17:43:42Z</time>
      </trkpt>
      <trkpt lat="42.4556360" lon="-6.1629520">
        <ele>983.5</ele>
        <time>2020-04-11T17:43:44Z</time>
      </trkpt>
      <trkpt lat="42.4556700" lon="-6.1631260">
        <ele>983.5</ele>
        <time>2020-04-11T17:43:46Z</time>
      </trkpt>
      <trkpt lat="42.4557620" lon="-6.1636000">
        <ele>983.7</ele>
        <time>2020-04-11T17:43:48Z</time>
      </trkpt>
      <trkpt lat="42.4557950" lon="-6.1637720">
        <ele>983.9</ele>
        <time>2020-04-11T17:43:50Z</time>
      </trkpt>
      <trkpt lat="42.4558280" lon="-6.1639450">
        <ele>984.2</ele>
        <time>2020-04-11T17:43:52Z</time>
      </trkpt>
      <trkpt lat="42.4558610" lon="-6.1641170">
        <ele>984.5</ele>
        <time>2020-04-11T17:43:54Z</time>
      </trkpt>
      <trkpt lat="42.4558940" lon="-6.1642890">
        <ele>984.8</ele>
        <time>2020-04-11T17:43:56Z</time>
      </trkpt>
      <trkpt lat="42.4559860" lon="-6.1647610">
        <ele>985.4</ele>
        <time>2020-04-11T17:43:58Z</time>
      </trkpt>
      <trkpt lat="42.4560180" lon="-6.1649310">
        <ele>985.7</ele>
        <time>2020-04-11T17:44:00Z</time>
      </trkpt>
      <trkpt lat="42.4560510" lon="-6.1650990">
        <ele>985.9</ele>
        <time>2020-04-11T17:44:02Z</time>
      </trkpt>
      <trkpt lat="42.4560830" lon="-6.1652650">
        <ele>986.2</ele>
        <time>2020-04-11T17:44:04Z</time>
      </trkpt>
      <trkpt lat="42.4561150" lon="-6.1654300">
        <ele>986.4</ele>
        <time>2020-04-11T17:44:06Z</time>
      </trkpt>
      <trkpt lat="42.4562040" lon="-6.1658940">
        <ele>986.8</ele>
        <time>2020-04-11T17:44:08Z</time>
      </trkpt>
      <trkpt lat="42.4562350" lon="-6.1660560">
        <ele>987.0</ele>
        <time>2020-04-11T17:44:10Z</time>
      </trkpt>
      <trkpt lat="42.4562660" lon="-6.1662150">
        <ele>987.2</ele>
        <time>2020-04-11T17:44:12Z</time>
      </trkpt>
      <trkpt lat="42.4562970" lon="-6.1663750">
        <ele>987.4</ele>
        <time>2020-04-11T17:44:14Z</time>
      </trkpt>
      <trkpt lat="42.4563270" lon="-6.1665340">
        <ele>987.5</ele>
        <time>2020-04-11T17:44:16Z</time>
      </trkpt>
      <trkpt lat="42.4563580" lon="-6.1666900">
        <ele>987.5</ele>
        <time>2020-04-11T17:44:18Z</time>
      </trkpt>
      <trkpt lat="42.4564460" lon="-6.1671490">
        <ele>987.7</ele>
        <time>2020-04-11T17:44:20Z</time>
      </trkpt>
      <trkpt lat="42.4564770" lon="-6.1673060">
        <ele>987.7</ele>
        <time>2020-04-11T17:44:22Z</time>
      </trkpt>
      <trkpt lat="42.4565070" lon="-6.1674630">
        <ele>987.8</ele>
        <time>2020-04-11T17:44:24Z</time>
      </trkpt>
      <trkpt lat="42.4565370" lon="-6.1676170">
        <ele>987.7</ele>
        <time>2020-04-11T17:44:26Z</time>
      </trkpt>
      <trkpt lat="42.4565670" lon="-6.1677730">
        <ele>987.7</ele>
        <time>2020-04-11T17:44:28Z</time>
      </trkpt>
      <trkpt lat="42.4566550" lon="-6.1682300">
        <ele>987.6</ele>
        <time>2020-04-11T17:44:30Z</time>
      </trkpt>
      <trkpt lat="42.4566850" lon="-6.1683870">
        <ele>987.6</ele>
        <time>2020-04-11T17:44:32Z</time>
      </trkpt>
      <trkpt lat="42.4567150" lon="-6.1685450">
        <ele>987.7</ele>
        <time>2020-04-11T17:44:34Z</time>
      </trkpt>
      <trkpt lat="42.4567460" lon="-6.1687050">
        <ele>987.7</ele>
        <time>2020-04-11T17:44:36Z</time>
      </trkpt>
      <trkpt lat="42.4567780" lon="-6.1688670">
        <ele>987.7</ele>
        <time>2020-04-11T17:44:38Z</time>
      </trkpt>
      <trkpt lat="42.4568670" lon="-6.1693310">
        <ele>987.7</ele>
        <time>2020-04-11T17:44:40Z</time>
      </trkpt>
      <trkpt lat="42.4568990" lon="-6.1694940">
        <ele>987.7</ele>
        <time>2020-04-11T17:44:42Z</time>
      </trkpt>
      <trkpt lat="42.4569300" lon="-6.1696580">
        <ele>987.7</ele>
        <time>2020-04-11T17:44:44Z</time>
      </trkpt>
      <trkpt lat="42.4569620" lon="-6.1698230">
        <ele>987.8</ele>
        <time>2020-04-11T17:44:46Z</time>
      </trkpt>
      <trkpt lat="42.4569940" lon="-6.1699870">
        <ele>987.8</ele>
        <time>2020-04-11T17:44:48Z</time>
      </trkpt>
      <trkpt lat="42.4570840" lon="-6.1704550">
        <ele>987.8</ele>
        <time>2020-04-11T17:44:50Z</time>
      </trkpt>
      <trkpt lat="42.4571160" lon="-6.1706210">
        <ele>987.8</ele>
        <time>2020-04-11T17:44:52Z</time>
      </trkpt>
      <trkpt lat="42.4571480" lon="-6.1707860">
        <ele>987.9</ele>
        <time>2020-04-11T17:44:54Z</time>
      </trkpt>
      <trkpt lat="42.4571800" lon="-6.1709510">
        <ele>987.9</ele>
        <time>2020-04-11T17:44:56Z</time>
      </trkpt>
      <trkpt lat="42.4572110" lon="-6.1711150">
        <ele>988.0</ele>
        <time>2020-04-11T17:44:58Z</time>
      </trkpt>
      <trkpt lat="42.4572430" lon="-6.1712800">
        <ele>988.1</ele>
        <time>2020-04-11T17:45:00Z</time>
      </trkpt>
      <trkpt lat="42.4573330" lon="-6.1717440">
        <ele>988.3</ele>
        <time>2020-04-11T17:45:02Z</time>
      </trkpt>
      <trkpt lat="42.4573640" lon="-6.1719080">
        <ele>988.5</ele>
        <time>2020-04-11T17:45:04Z</time>
      </trkpt>
      <trkpt lat="42.4573960" lon="-6.1720720">
        <ele>988.6</ele>
        <time>2020-04-11T17:45:06Z</time>
      </trkpt>
      <trkpt lat="42.4574270" lon="-6.1722350">
        <ele>988.8</ele>
        <time>2020-04-11T17:45:08Z</time>
      </trkpt>
      <trkpt lat="42.4574580" lon="-6.1723970">
        <ele>988.9</ele>
        <time>2020-04-11T17:45:10Z</time>
      </trkpt>
      <trkpt lat="42.4575480" lon="-6.1728590">
        <ele>989.4</ele>
        <time>2020-04-11T17:45:12Z</time>
      </trkpt>
      <trkpt lat="42.4575770" lon="-6.1730110">
        <ele>989.6</ele>
        <time>2020-04-11T17:45:14Z</time>
      </trkpt>
      <trkpt lat="42.4576050" lon="-6.1731550">
        <ele>989.8</ele>
        <time>2020-04-11T17:45:16Z</time>
      </trkpt>
      <trkpt lat="42.4576310" lon="-6.1732930">
        <ele>990.0</ele>
        <time>2020-04-11T17:45:18Z</time>
      </trkpt>
      <trkpt lat="42.4576570" lon="-6.1734260">
        <ele>990.2</ele>
        <time>2020-04-11T17:45:20Z</time>
      </trkpt>
      <trkpt lat="42.4576820" lon="-6.1735540">
        <ele>990.5</ele>
        <time>2020-04-11T17:45:22Z</time>
      </trkpt>
      <trkpt lat="42.4577630" lon="-6.1739780">
        <ele>991.6</ele>
        <time>2020-04-11T17:45:24Z</time>
      </trkpt>
      <trkpt lat="42.4577870" lon="-6.1740990">
        <ele>991.9</ele>
        <time>2020-04-11T17:45:26Z</time>
      </trkpt>
      <trkpt lat="42.4578100" lon="-6.1742180">
        <ele>992.3</ele>
        <time>2020-04-11T17:45:28Z</time>
      </trkpt>
      <trkpt lat="42.4578320" lon="-6.1743340">
        <ele>992.6</ele>
        <time>2020-04-11T17:45:30Z</time>
      </trkpt>
      <trkpt lat="42.4578540" lon="-6.1744480">
        <ele>992.9</ele>
        <time>2020-04-11T17:45:32Z</time>
      </trkpt>
      <trkpt lat="42.4578760" lon="-6.1745600">
        <ele>993.2</ele>
        <time>2020-04-11T17:45:34Z</time>
      </trkpt>
      <trkpt lat="42.4578970" lon="-6.1746710">
        <ele>993.6</ele>
        <time>2020-04-11T17:45:36Z</time>
      </trkpt>
      <trkpt lat="42.4579760" lon="-6.1750810">
        <ele>994.9</ele>
        <time>2020-04-11T17:45:38Z</time>
      </trkpt>
      <trkpt lat="42.4579980" lon="-6.1751950">
        <ele>995.3</ele>
        <time>2020-04-11T17:45:40Z</time>
      </trkpt>
      <trkpt lat="42.4580210" lon="-6.1753130">
        <ele>995.6</ele>
        <time>2020-04-11T17:45:42Z</time>
      </trkpt>
      <trkpt lat="42.4580440" lon="-6.1754320">
        <ele>995.9</ele>
        <time>2020-04-11T17:45:44Z</time>
      </trkpt>
      <trkpt lat="42.4580670" lon="-6.1755550">
        <ele>996.2</ele>
        <time>2020-04-11T17:45:46Z</time>
      </trkpt>
      <trkpt lat="42.4580910" lon="-6.1756790">
        <ele>996.5</ele>
        <time>2020-04-11T17:45:48Z</time>
      </trkpt>
      <trkpt lat="42.4581160" lon="-6.1758050">
        <ele>996.8</ele>
        <time>2020-04-11T17:45:50Z</time>
      </trkpt>
      <trkpt lat="42.4581970" lon="-6.1762320">
        <ele>997.4</ele>
        <time>2020-04-11T17:45:52Z</time>
      </trkpt>
      <trkpt lat="42.4582170" lon="-6.1763610">
        <ele>997.5</ele>
        <time>2020-04-11T17:45:54Z</time>
      </trkpt>
      <trkpt lat="42.4582380" lon="-6.1764910">
        <ele>997.6</ele>
        <time>2020-04-11T17:45:56Z</time>
      </trkpt>
      <trkpt lat="42.4582580" lon="-6.1766220">
        <ele>997.6</ele>
        <time>2020-04-11T17:45:58Z</time>
      </trkpt>
      <trkpt lat="42.4582790" lon="-6.1767540">
        <ele>997.6</ele>
        <time>2020-04-11T17:46:00Z</time>
      </trkpt>
      <trkpt lat="42.4583390" lon="-6.1771290">
        <ele>997.8</ele>
        <time>2020-04-11T17:46:02Z</time>
      </trkpt>
      <trkpt lat="42.4583600" lon="-6.1772650">
        <ele>997.9</ele>
        <time>2020-04-11T17:46:04Z</time>
      </trkpt>
      <trkpt lat="42.4583820" lon="-6.1774060">
        <ele>998.0</ele>
        <time>2020-04-11T17:46:06Z</time>
      </trkpt>
      <trkpt lat="42.4584060" lon="-6.1775520">
        <ele>998.0</ele>
        <time>2020-04-11T17:46:08Z</time>
      </trkpt>
      <trkpt lat="42.4584300" lon="-6.1777040">
        <ele>998.1</ele>
        <time>2020-04-11T17:46:10Z</time>
      </trkpt>
      <trkpt lat="42.4584930" lon="-6.1781020">
        <ele>998.2</ele>
        <time>2020-04-11T17:46:12Z</time>
      </trkpt>
      <trkpt lat="42.4585180" lon="-6.1782600">
        <ele>998.3</ele>
        <time>2020-04-11T17:46:14Z</time>
      </trkpt>
      <trkpt lat="42.4585430" lon="-6.1784210">
        <ele>998.3</ele>
        <time>2020-04-11T17:46:16Z</time>
      </trkpt>
      <trkpt lat="42.4585690" lon="-6.1785850">
        <ele>998.3</ele>
        <time>2020-04-11T17:46:18Z</time>
      </trkpt>
      <trkpt lat="42.4586340" lon="-6.1789930">
        <ele>998.4</ele>
        <time>2020-04-11T17:46:20Z</time>
      </trkpt>
      <trkpt lat="42.4586600" lon="-6.1791610">
        <ele>998.4</ele>
        <time>2020-04-11T17:46:22Z</time>
      </trkpt>
      <trkpt lat="42.4586860" lon="-6.1793310">
        <ele>998.4</ele>
        <time>2020-04-11T17:46:24Z</time>
      </trkpt>
      <trkpt lat="42.4587130" lon="-6.1795020">
        <ele>998.4</ele>
        <time>2020-04-11T17:46:26Z</time>
      </trkpt>
      <trkpt lat="42.4587390" lon="-6.1796730">
        <ele>998.4</ele>
        <time>2020-04-11T17:46:28Z</time>
      </trkpt>
      <trkpt lat="42.4588090" lon="-6.1801210">
        <ele>998.7</ele>
        <time>2020-04-11T17:46:30Z</time>
      </trkpt>
      <trkpt lat="42.4588360" lon="-6.1802960">
        <ele>999.0</ele>
        <time>2020-04-11T17:46:32Z</time>
      </trkpt>
      <trkpt lat="42.4588630" lon="-6.1804710">
        <ele>999.2</ele>
        <time>2020-04-11T17:46:34Z</time>
      </trkpt>
      <trkpt lat="42.4588910" lon="-6.1806470">
        <ele>999.4</ele>
        <time>2020-04-11T17:46:36Z</time>
      </trkpt>
      <trkpt lat="42.4589610" lon="-6.1810980">
        <ele>999.6</ele>
        <time>2020-04-11T17:46:38Z</time>
      </trkpt>
      <trkpt lat="42.4589890" lon="-6.1812750">
        <ele>999.6</ele>
        <time>2020-04-11T17:46:40Z</time>
      </trkpt>
      <trkpt lat="42.4590160" lon="-6.1814540">
        <ele>999.7</ele>
        <time>2020-04-11T17:46:42Z</time>
      </trkpt>
      <trkpt lat="42.4590440" lon="-6.1816320">
        <ele>999.8</ele>
        <time>2020-04-11T17:46:44Z</time>
      </trkpt>
      <trkpt lat="42.4590720" lon="-6.1818110">
        <ele>999.8</ele>
        <time>2020-04-11T17:46:46Z</time>
      </trkpt>
      <trkpt lat="42.4591420" lon="-6.1822620">
        <ele>1000.0</ele>
        <time>2020-04-11T17:46:48Z</time>
      </trkpt>
      <trkpt lat="42.4591700" lon="-6.1824410">
        <ele>1000.1</ele>
        <time>2020-04-11T17:46:50Z</time>
      </trkpt>
      <trkpt lat="42.4591980" lon="-6.1826200">
        <ele>1000.1</ele>
        <time>2020-04-11T17:46:52Z</time>
      </trkpt>
      <trkpt lat="42.4592260" lon="-6.1828010">
        <ele>1000.2</ele>
        <time>2020-04-11T17:46:54Z</time>
      </trkpt>
      <trkpt lat="42.4593080" lon="-6.1832490">
        <ele>1000.1</ele>
        <time>2020-04-11T17:46:56Z</time>
      </trkpt>
      <trkpt lat="42.4593560" lon="-6.1834210">
        <ele>1000.1</ele>
        <time>2020-04-11T17:46:58Z</time>
      </trkpt>
      <trkpt lat="42.4594040" lon="-6.1835920">
        <ele>1000.0</ele>
        <time>2020-04-11T17:47:00Z</time>
      </trkpt>
      <trkpt lat="42.4595110" lon="-6.1839570">
        <ele>1000.1</ele>
        <time>2020-04-11T17:47:02Z</time>
      </trkpt>
      <trkpt lat="42.4595730" lon="-6.1841210">
        <ele>1000.1</ele>
        <time>2020-04-11T17:47:04Z</time>
      </trkpt>
      <trkpt lat="42.4596340" lon="-6.1842850">
        <ele>1000.1</ele>
        <time>2020-04-11T17:47:06Z</time>
      </trkpt>
      <trkpt lat="42.4596960" lon="-6.1844490">
        <ele>1000.2</ele>
        <time>2020-04-11T17:47:08Z</time>
      </trkpt>
      <trkpt lat="42.4598220" lon="-6.1848280">
        <ele>1000.4</ele>
        <time>2020-04-11T17:47:10Z</time>
      </trkpt>
      <trkpt lat="42.4598650" lon="-6.1849990">
        <ele>1000.5</ele>
        <time>2020-04-11T17:47:12Z</time>
      </trkpt>
      <trkpt lat="42.4599220" lon="-6.1852880">
        <ele>1000.7</ele>
        <time>2020-04-11T17:47:14Z</time>
      </trkpt>
      <trkpt lat="42.4599480" lon="-6.1854610">
        <ele>1000.9</ele>
        <time>2020-04-11T17:47:16Z</time>
      </trkpt>
      <trkpt lat="42.4599730" lon="-6.1856310">
        <ele>1001.1</ele>
        <time>2020-04-11T17:47:18Z</time>
      </trkpt>
      <trkpt lat="42.4599980" lon="-6.1858000">
        <ele>1001.3</ele>
        <time>2020-04-11T17:47:20Z</time>
      </trkpt>
      <trkpt lat="42.4600590" lon="-6.1862040">
        <ele>1001.8</ele>
        <time>2020-04-11T17:47:22Z</time>
      </trkpt>
      <trkpt lat="42.4600820" lon="-6.1863600">
        <ele>1002.1</ele>
        <time>2020-04-11T17:47:24Z</time>
      </trkpt>
      <trkpt lat="42.4601040" lon="-6.1865090">
        <ele>1002.5</ele>
        <time>2020-04-11T17:47:26Z</time>
      </trkpt>
      <trkpt lat="42.4601260" lon="-6.1866530">
        <ele>1002.8</ele>
        <time>2020-04-11T17:47:28Z</time>
      </trkpt>
      <trkpt lat="42.4601820" lon="-6.1870320">
        <ele>1003.7</ele>
        <time>2020-04-11T17:47:30Z</time>
      </trkpt>
      <trkpt lat="42.4602020" lon="-6.1871670">
        <ele>1004.0</ele>
        <time>2020-04-11T17:47:32Z</time>
      </trkpt>
      <trkpt lat="42.4602220" lon="-6.1872970">
        <ele>1004.3</ele>
        <time>2020-04-11T17:47:34Z</time>
      </trkpt>
      <trkpt lat="42.4602410" lon="-6.1874250">
        <ele>1004.6</ele>
        <time>2020-04-11T17:47:36Z</time>
      </trkpt>
      <trkpt lat="42.4602590" lon="-6.1875490">
        <ele>1004.8</ele>
        <time>2020-04-11T17:47:38Z</time>
      </trkpt>
      <trkpt lat="42.4603130" lon="-6.1879130">
        <ele>1005.6</ele>
        <time>2020-04-11T17:47:40Z</time>
      </trkpt>
      <trkpt lat="42.4603310" lon="-6.1880360">
        <ele>1005.6</ele>
        <time>2020-04-11T17:47:42Z</time>
      </trkpt>
      <trkpt lat="42.4603490" lon="-6.1881590">
        <ele>1005.8</ele>
        <time>2020-04-11T17:47:44Z</time>
      </trkpt>
      <trkpt lat="42.4603670" lon="-6.1882830">
        <ele>1006.1</ele>
        <time>2020-04-11T17:47:46Z</time>
      </trkpt>
      <trkpt lat="42.4603850" lon="-6.1884070">
        <ele>1006.3</ele>
        <time>2020-04-11T17:47:48Z</time>
      </trkpt>
      <trkpt lat="42.4604030" lon="-6.1885310">
        <ele>1006.5</ele>
        <time>2020-04-11T17:47:50Z</time>
      </trkpt>
      <trkpt lat="42.4604200" lon="-6.1886540">
        <ele>1006.7</ele>
        <time>2020-04-11T17:47:52Z</time>
      </trkpt>
      <trkpt lat="42.4604820" lon="-6.1890830">
        <ele>1007.4</ele>
        <time>2020-04-11T17:47:54Z</time>
      </trkpt>
      <trkpt lat="42.4605000" lon="-6.1892070">
        <ele>1007.6</ele>
        <time>2020-04-11T17:47:56Z</time>
      </trkpt>
      <trkpt lat="42.4605180" lon="-6.1893310">
        <ele>1007.8</ele>
        <time>2020-04-11T17:47:58Z</time>
      </trkpt>
      <trkpt lat="42.4605360" lon="-6.1894550">
        <ele>1008.1</ele>
        <time>2020-04-11T17:48:00Z</time>
      </trkpt>
      <trkpt lat="42.4605540" lon="-6.1895780">
        <ele>1008.3</ele>
        <time>2020-04-11T17:48:02Z</time>
      </trkpt>
      <trkpt lat="42.4605720" lon="-6.1897020">
        <ele>1008.5</ele>
        <time>2020-04-11T17:48:04Z</time>
      </trkpt>
      <trkpt lat="42.4605890" lon="-6.1898250">
        <ele>1008.7</ele>
        <time>2020-04-11T17:48:06Z</time>
      </trkpt>
      <trkpt lat="42.4606510" lon="-6.1902540">
        <ele>1009.2</ele>
        <time>2020-04-11T17:48:08Z</time>
      </trkpt>
      <trkpt lat="42.4606700" lon="-6.1903830">
        <ele>1009.2</ele>
        <time>2020-04-11T17:48:10Z</time>
      </trkpt>
      <trkpt lat="42.4606890" lon="-6.1905180">
        <ele>1009.3</ele>
        <time>2020-04-11T17:48:12Z</time>
      </trkpt>
      <trkpt lat="42.4607100" lon="-6.1906570">
        <ele>1009.4</ele>
        <time>2020-04-11T17:48:14Z</time>
      </trkpt>
      <trkpt lat="42.4607300" lon="-6.1908000">
        <ele>1009.7</ele>
        <time>2020-04-11T17:48:16Z</time>
      </trkpt>
      <trkpt lat="42.4607510" lon="-6.1909470">
        <ele>1009.9</ele>
        <time>2020-04-11T17:48:18Z</time>
      </trkpt>
      <trkpt lat="42.4608170" lon="-6.1913990">
        <ele>1010.2</ele>
        <time>2020-04-11T17:48:20Z</time>
      </trkpt>
      <trkpt lat="42.4608390" lon="-6.1915520">
        <ele>1010.2</ele>
        <time>2020-04-11T17:48:22Z</time>
      </trkpt>
      <trkpt lat="42.4608610" lon="-6.1917060">
        <ele>1010.3</ele>
        <time>2020-04-11T17:48:24Z</time>
      </trkpt>
      <trkpt lat="42.4608840" lon="-6.1918620">
        <ele>1010.3</ele>
        <time>2020-04-11T17:48:26Z</time>
      </trkpt>
      <trkpt lat="42.4609060" lon="-6.1920190">
        <ele>1010.4</ele>
        <time>2020-04-11T17:48:28Z</time>
      </trkpt>
      <trkpt lat="42.4609290" lon="-6.1921780">
        <ele>1010.4</ele>
        <time>2020-04-11T17:48:30Z</time>
      </trkpt>
      <trkpt lat="42.4609850" lon="-6.1926450">
        <ele>1010.7</ele>
        <time>2020-04-11T17:48:32Z</time>
      </trkpt>
      <trkpt lat="42.4609930" lon="-6.1928070">
        <ele>1010.8</ele>
        <time>2020-04-11T17:48:34Z</time>
      </trkpt>
      <trkpt lat="42.4609980" lon="-6.1930820">
        <ele>1011.0</ele>
        <time>2020-04-11T17:48:36Z</time>
      </trkpt>
      <trkpt lat="42.4609960" lon="-6.1932430">
        <ele>1011.0</ele>
        <time>2020-04-11T17:48:38Z</time>
      </trkpt>
      <trkpt lat="42.4609940" lon="-6.1934020">
        <ele>1011.1</ele>
        <time>2020-04-11T17:48:40Z</time>
      </trkpt>
      <trkpt lat="42.4609930" lon="-6.1935560">
        <ele>1011.2</ele>
        <time>2020-04-11T17:48:42Z</time>
      </trkpt>
      <trkpt lat="42.4609910" lon="-6.1937100">
        <ele>1011.3</ele>
        <time>2020-04-11T17:48:44Z</time>
      </trkpt>
      <trkpt lat="42.4609850" lon="-6.1941530">
        <ele>1011.5</ele>
        <time>2020-04-11T17:48:46Z</time>
      </trkpt>
      <trkpt lat="42.4609830" lon="-6.1943000">
        <ele>1011.6</ele>
        <time>2020-04-11T17:48:48Z</time>
      </trkpt>
      <trkpt lat="42.4609810" lon="-6.1944480">
        <ele>1011.7</ele>
        <time>2020-04-11T17:48:50Z</time>
      </trkpt>
      <trkpt lat="42.4609790" lon="-6.1945940">
        <ele>1011.7</ele>
        <time>2020-04-11T17:48:52Z</time>
      </trkpt>
      <trkpt lat="42.4609780" lon="-6.1947390">
        <ele>1011.9</ele>
        <time>2020-04-11T17:48:54Z</time>
      </trkpt>
      <trkpt lat="42.4609760" lon="-6.1948820">
        <ele>1012.0</ele>
        <time>2020-04-11T17:48:56Z</time>
      </trkpt>
      <trkpt lat="42.4609700" lon="-6.1953180">
        <ele>1012.5</ele>
        <time>2020-04-11T17:48:58Z</time>
      </trkpt>
      <trkpt lat="42.4609690" lon="-6.1954590">
        <ele>1012.6</ele>
        <time>2020-04-11T17:49:00Z</time>
      </trkpt>
      <trkpt lat="42.4609670" lon="-6.1955990">
        <ele>1012.8</ele>
        <time>2020-04-11T17:49:02Z</time>
      </trkpt>
      <trkpt lat="42.4609650" lon="-6.1957370">
        <ele>1013.0</ele>
        <time>2020-04-11T17:49:04Z</time>
      </trkpt>
      <trkpt lat="42.4609630" lon="-6.1958760">
        <ele>1013.3</ele>
        <time>2020-04-11T17:49:06Z</time>
      </trkpt>
      <trkpt lat="42.4609620" lon="-6.1960140">
        <ele>1013.5</ele>
        <time>2020-04-11T17:49:08Z</time>
      </trkpt>
      <trkpt lat="42.4609560" lon="-6.1964420">
        <ele>1013.8</ele>
        <time>2020-04-11T17:49:10Z</time>
      </trkpt>
      <trkpt lat="42.4609550" lon="-6.1965760">
        <ele>1014.0</ele>
        <time>2020-04-11T17:49:12Z</time>
      </trkpt>
      <trkpt lat="42.4609530" lon="-6.1967070">
        <ele>1014.2</ele>
        <time>2020-04-11T17:49:14Z</time>
      </trkpt>
      <trkpt lat="42.4609510" lon="-6.1968370">
        <ele>1014.4</ele>
        <time>2020-04-11T17:49:16Z</time>
      </trkpt>
      <trkpt lat="42.4609500" lon="-6.1969660">
        <ele>1014.6</ele>
        <time>2020-04-11T17:49:18Z</time>
      </trkpt>
      <trkpt lat="42.4609480" lon="-6.1970940">
        <ele>1014.8</ele>
        <time>2020-04-11T17:49:20Z</time>
      </trkpt>
      <trkpt lat="42.4609430" lon="-6.1975140">
        <ele>1015.4</ele>
        <time>2020-04-11T17:49:22Z</time>
      </trkpt>
      <trkpt lat="42.4609410" lon="-6.1976410">
        <ele>1015.6</ele>
        <time>2020-04-11T17:49:24Z</time>
      </trkpt>
      <trkpt lat="42.4609400" lon="-6.1977670">
        <ele>1015.8</ele>
        <time>2020-04-11T17:49:26Z</time>
      </trkpt>
      <trkpt lat="42.4609380" lon="-6.1978920">
        <ele>1016.0</ele>
        <time>2020-04-11T17:49:28Z</time>
      </trkpt>
      <trkpt lat="42.4609370" lon="-6.1980170">
        <ele>1016.2</ele>
        <time>2020-04-11T17:49:30Z</time>
      </trkpt>
      <trkpt lat="42.4609350" lon="-6.1981390">
        <ele>1016.4</ele>
        <time>2020-04-11T17:49:32Z</time>
      </trkpt>
      <trkpt lat="42.4609320" lon="-6.1985540">
        <ele>1016.9</ele>
        <time>2020-04-11T17:49:34Z</time>
      </trkpt>
      <trkpt lat="42.4609500" lon="-6.1987300">
        <ele>1017.0</ele>
        <time>2020-04-11T17:49:36Z</time>
      </trkpt>
      <trkpt lat="42.4609770" lon="-6.1988590">
        <ele>1017.1</ele>
        <time>2020-04-11T17:49:38Z</time>
      </trkpt>
      <trkpt lat="42.4610040" lon="-6.1989930">
        <ele>1017.2</ele>
        <time>2020-04-11T17:49:40Z</time>
      </trkpt>
      <trkpt lat="42.4610330" lon="-6.1991320">
        <ele>1017.2</ele>
        <time>2020-04-11T17:49:42Z</time>
      </trkpt>
      <trkpt lat="42.4610630" lon="-6.1992760">
        <ele>1017.3</ele>
        <time>2020-04-11T17:49:44Z</time>
      </trkpt>
      <trkpt lat="42.4611350" lon="-6.1996250">
        <ele>1017.3</ele>
        <time>2020-04-11T17:49:46Z</time>
      </trkpt>
      <trkpt lat="42.4611660" lon="-6.1997750">
        <ele>1017.3</ele>
        <time>2020-04-11T17:49:48Z</time>
      </trkpt>
      <trkpt lat="42.4611970" lon="-6.1999280">
        <ele>1017.3</ele>
        <time>2020-04-11T17:49:50Z</time>
      </trkpt>
      <trkpt lat="42.4612700" lon="-6.2002880">
        <ele>1017.3</ele>
        <time>2020-04-11T17:49:52Z</time>
      </trkpt>
      <trkpt lat="42.4612790" lon="-6.2004500">
        <ele>1017.3</ele>
        <time>2020-04-11T17:49:54Z</time>
      </trkpt>
      <trkpt lat="42.4612870" lon="-6.2006160">
        <ele>1017.3</ele>
        <time>2020-04-11T17:49:56Z</time>
      </trkpt>
      <trkpt lat="42.4612950" lon="-6.2007840">
        <ele>1017.2</ele>
        <time>2020-04-11T17:49:58Z</time>
      </trkpt>
      <trkpt lat="42.4613040" lon="-6.2009520">
        <ele>1017.1</ele>
        <time>2020-04-11T17:50:00Z</time>
      </trkpt>
      <trkpt lat="42.4613130" lon="-6.2011240">
        <ele>1017.0</ele>
        <time>2020-04-11T17:50:02Z</time>
      </trkpt>
      <trkpt lat="42.4613590" lon="-6.2016040">
        <ele>1016.8</ele>
        <time>2020-04-11T17:50:04Z</time>
      </trkpt>
      <trkpt lat="42.4613940" lon="-6.2017710">
        <ele>1016.6</ele>
        <time>2020-04-11T17:50:06Z</time>
      </trkpt>
      <trkpt lat="42.4614290" lon="-6.2019360">
        <ele>1016.6</ele>
        <time>2020-04-11T17:50:08Z</time>
      </trkpt>
      <trkpt lat="42.4614650" lon="-6.2021030">
        <ele>1016.6</ele>
        <time>2020-04-11T17:50:10Z</time>
      </trkpt>
      <trkpt lat="42.4615540" lon="-6.2025200">
        <ele>1016.6</ele>
        <time>2020-04-11T17:50:12Z</time>
      </trkpt>
      <trkpt lat="42.4615900" lon="-6.2026870">
        <ele>1016.5</ele>
        <time>2020-04-11T17:50:14Z</time>
      </trkpt>
      <trkpt lat="42.4616250" lon="-6.2028520">
        <ele>1016.5</ele>
        <time>2020-04-11T17:50:16Z</time>
      </trkpt>
      <trkpt lat="42.4616600" lon="-6.2030180">
        <ele>1016.5</ele>
        <time>2020-04-11T17:50:18Z</time>
      </trkpt>
      <trkpt lat="42.4617490" lon="-6.2034330">
        <ele>1016.4</ele>
        <time>2020-04-11T17:50:20Z</time>
      </trkpt>
      <trkpt lat="42.4617830" lon="-6.2035940">
        <ele>1016.3</ele>
        <time>2020-04-11T17:50:22Z</time>
      </trkpt>
      <trkpt lat="42.4618170" lon="-6.2037550">
        <ele>1016.2</ele>
        <time>2020-04-11T17:50:24Z</time>
      </trkpt>
      <trkpt lat="42.4618510" lon="-6.2039130">
        <ele>1016.1</ele>
        <time>2020-04-11T17:50:26Z</time>
      </trkpt>
      <trkpt lat="42.4618840" lon="-6.2040690">
        <ele>1016.0</ele>
        <time>2020-04-11T17:50:28Z</time>
      </trkpt>
      <trkpt lat="42.4620110" lon="-6.2044420">
        <ele>1015.9</ele>
        <time>2020-04-11T17:50:30Z</time>
      </trkpt>
      <trkpt lat="42.4620870" lon="-6.2045620">
        <ele>1015.9</ele>
        <time>2020-04-11T17:50:32Z</time>
      </trkpt>
      <trkpt lat="42.4621630" lon="-6.2046820">
        <ele>1015.9</ele>
        <time>2020-04-11T17:50:34Z</time>
      </trkpt>
      <trkpt lat="42.4622380" lon="-6.2048000">
        <ele>1015.9</ele>
        <time>2020-04-11T17:50:36Z</time>
      </trkpt>
      <trkpt lat="42.4624240" lon="-6.2051110">
        <ele>1016.0</ele>
        <time>2020-04-11T17:50:38Z</time>
      </trkpt>
      <trkpt lat="42.4624860" lon="-6.2052410">
        <ele>1016.2</ele>
        <time>2020-04-11T17:50:40Z</time>
      </trkpt>
      <trkpt lat="42.4625960" lon="-6.2054810">
        <ele>1016.4</ele>
        <time>2020-04-11T17:50:42Z</time>
      </trkpt>
      <trkpt lat="42.4626370" lon="-6.2056210">
        <ele>1016.6</ele>
        <time>2020-04-11T17:50:44Z</time>
      </trkpt>
      <trkpt lat="42.4626790" lon="-6.2057610">
        <ele>1016.7</ele>
        <time>2020-04-11T17:50:46Z</time>
      </trkpt>
      <trkpt lat="42.4627200" lon="-6.2059010">
        <ele>1016.7</ele>
        <time>2020-04-11T17:50:48Z</time>
      </trkpt>
      <trkpt lat="42.4627900" lon="-6.2062460">
        <ele>1016.7</ele>
        <time>2020-04-11T17:50:50Z</time>
      </trkpt>
      <trkpt lat="42.4627790" lon="-6.2064350">
        <ele>1016.7</ele>
        <time>2020-04-11T17:50:52Z</time>
      </trkpt>
      <trkpt lat="42.4627580" lon="-6.2065830">
        <ele>1016.7</ele>
        <time>2020-04-11T17:50:54Z</time>
      </trkpt>
      <trkpt lat="42.4627600" lon="-6.2068210">
        <ele>1016.6</ele>
        <time>2020-04-11T17:50:56Z</time>
      </trkpt>
      <trkpt lat="42.4627870" lon="-6.2069640">
        <ele>1016.6</ele>
        <time>2020-04-11T17:50:58Z</time>
      </trkpt>
      <trkpt lat="42.4628590" lon="-6.2071930">
        <ele>1016.5</ele>
        <time>2020-04-11T17:51:00Z</time>
      </trkpt>
      <trkpt lat="42.4629410" lon="-6.2073840">
        <ele>1016.5</ele>
        <time>2020-04-11T17:51:02Z</time>
      </trkpt>
      <trkpt lat="42.4630020" lon="-6.2075880">
        <ele>1016.6</ele>
        <time>2020-04-11T17:51:04Z</time>
      </trkpt>
      <trkpt lat="42.4630200" lon="-6.2077780">
        <ele>1016.7</ele>
        <time>2020-04-11T17:51:06Z</time>
      </trkpt>
      <trkpt lat="42.4630200" lon="-6.2079260">
        <ele>1016.7</ele>
        <time>2020-04-11T17:51:08Z</time>
      </trkpt>
      <trkpt lat="42.4629770" lon="-6.2081410">
        <ele>1016.5</ele>
        <time>2020-04-11T17:51:10Z</time>
      </trkpt>
      <trkpt lat="42.4628970" lon="-6.2082550">
        <ele>1016.1</ele>
        <time>2020-04-11T17:51:12Z</time>
      </trkpt>
      <trkpt lat="42.4627330" lon="-6.2083770">
        <ele>1015.4</ele>
        <time>2020-04-11T17:51:14Z</time>
      </trkpt>
      <trkpt lat="42.4625750" lon="-6.2084440">
        <ele>1014.7</ele>
        <time>2020-04-11T17:51:16Z</time>
      </trkpt>
      <trkpt lat="42.4625940" lon="-6.2086240">
        <ele>1014.5</ele>
        <time>2020-04-11T17:51:18Z</time>
      </trkpt>
      <trkpt lat="42.4626140" lon="-6.2088080">
        <ele>1014.3</ele>
        <time>2020-04-11T17:51:20Z</time>
      </trkpt>
      <trkpt lat="42.4626340" lon="-6.2089990">
        <ele>1014.3</ele>
        <time>2020-04-11T17:51:22Z</time>
      </trkpt>
      <trkpt lat="42.4626830" lon="-6.2094640">
        <ele>1014.3</ele>
        <time>2020-04-11T17:51:24Z</time>
      </trkpt>
      <trkpt lat="42.4626980" lon="-6.2096560">
        <ele>1014.3</ele>
        <time>2020-04-11T17:51:26Z</time>
      </trkpt>
      <trkpt lat="42.4627130" lon="-6.2098390">
        <ele>1014.2</ele>
        <time>2020-04-11T17:51:28Z</time>
      </trkpt>
      <trkpt lat="42.4627400" lon="-6.2101810">
        <ele>1014.2</ele>
        <time>2020-04-11T17:51:30Z</time>
      </trkpt>
      <trkpt lat="42.4627540" lon="-6.2103570">
        <ele>1014.3</ele>
        <time>2020-04-11T17:51:32Z</time>
      </trkpt>
      <trkpt lat="42.4627810" lon="-6.2106930">
        <ele>1014.3</ele>
        <time>2020-04-11T17:51:34Z</time>
      </trkpt>
      <trkpt lat="42.4627910" lon="-6.2108680">
        <ele>1014.3</ele>
        <time>2020-04-11T17:51:36Z</time>
      </trkpt>
      <trkpt lat="42.4628020" lon="-6.2110440">
        <ele>1014.3</ele>
        <time>2020-04-11T17:51:38Z</time>
      </trkpt>
      <trkpt lat="42.4628130" lon="-6.2112210">
        <ele>1014.2</ele>
        <time>2020-04-11T17:51:41Z</time>
      </trkpt>
      <trkpt lat="42.4628240" lon="-6.2114000">
        <ele>1014.2</ele>
        <time>2020-04-11T17:51:43Z</time>
      </trkpt>
      <trkpt lat="42.4628530" lon="-6.2118830">
        <ele>1013.9</ele>
        <time>2020-04-11T17:51:45Z</time>
      </trkpt>
      <trkpt lat="42.4628640" lon="-6.2120630">
        <ele>1013.8</ele>
        <time>2020-04-11T17:51:47Z</time>
      </trkpt>
      <trkpt lat="42.4628750" lon="-6.2122430">
        <ele>1013.7</ele>
        <time>2020-04-11T17:51:49Z</time>
      </trkpt>
      <trkpt lat="42.4628860" lon="-6.2124240">
        <ele>1013.6</ele>
        <time>2020-04-11T17:51:51Z</time>
      </trkpt>
      <trkpt lat="42.4628970" lon="-6.2126060">
        <ele>1013.5</ele>
        <time>2020-04-11T17:51:53Z</time>
      </trkpt>
      <trkpt lat="42.4629260" lon="-6.2130890">
        <ele>1013.0</ele>
        <time>2020-04-11T17:51:55Z</time>
      </trkpt>
      <trkpt lat="42.4629370" lon="-6.2132680">
        <ele>1012.9</ele>
        <time>2020-04-11T17:51:57Z</time>
      </trkpt>
      <trkpt lat="42.4629480" lon="-6.2134440">
        <ele>1012.6</ele>
        <time>2020-04-11T17:51:59Z</time>
      </trkpt>
      <trkpt lat="42.4629580" lon="-6.2136170">
        <ele>1012.4</ele>
        <time>2020-04-11T17:52:01Z</time>
      </trkpt>
      <trkpt lat="42.4629690" lon="-6.2137870">
        <ele>1012.1</ele>
        <time>2020-04-11T17:52:03Z</time>
      </trkpt>
      <trkpt lat="42.4629970" lon="-6.2142610">
        <ele>1011.6</ele>
        <time>2020-04-11T17:52:05Z</time>
      </trkpt>
      <trkpt lat="42.4630080" lon="-6.2144320">
        <ele>1011.7</ele>
        <time>2020-04-11T17:52:07Z</time>
      </trkpt>
      <trkpt lat="42.4630180" lon="-6.2146030">
        <ele>1011.7</ele>
        <time>2020-04-11T17:52:09Z</time>
      </trkpt>
      <trkpt lat="42.4630290" lon="-6.2147730">
        <ele>1011.9</ele>
        <time>2020-04-11T17:52:11Z</time>
      </trkpt>
      <trkpt lat="42.4630390" lon="-6.2149420">
        <ele>1012.1</ele>
        <time>2020-04-11T17:52:13Z</time>
      </trkpt>
      <trkpt lat="42.4630790" lon="-6.2154120">
        <ele>1013.0</ele>
        <time>2020-04-11T17:52:15Z</time>
      </trkpt>
      <trkpt lat="42.4631210" lon="-6.2156430">
        <ele>1013.4</ele>
        <time>2020-04-11T17:52:17Z</time>
      </trkpt>
      <trkpt lat="42.4631570" lon="-6.2158060">
        <ele>1013.8</ele>
        <time>2020-04-11T17:52:19Z</time>
      </trkpt>
      <trkpt lat="42.4631930" lon="-6.2159680">
        <ele>1014.1</ele>
        <time>2020-04-11T17:52:21Z</time>
      </trkpt>
      <trkpt lat="42.4632290" lon="-6.2161310">
        <ele>1014.5</ele>
        <time>2020-04-11T17:52:23Z</time>
      </trkpt>
      <trkpt lat="42.4633150" lon="-6.2165160">
        <ele>1015.0</ele>
        <time>2020-04-11T17:52:25Z</time>
      </trkpt>
      <trkpt lat="42.4633510" lon="-6.2166790">
        <ele>1015.1</ele>
        <time>2020-04-11T17:52:27Z</time>
      </trkpt>
      <trkpt lat="42.4633870" lon="-6.2168410">
        <ele>1015.1</ele>
        <time>2020-04-11T17:52:29Z</time>
      </trkpt>
      <trkpt lat="42.4634230" lon="-6.2170020">
        <ele>1015.1</ele>
        <time>2020-04-11T17:52:31Z</time>
      </trkpt>
      <trkpt lat="42.4635240" lon="-6.2173800">
        <ele>1014.7</ele>
        <time>2020-04-11T17:52:33Z</time>
      </trkpt>
      <trkpt lat="42.4636330" lon="-6.2175970">
        <ele>1014.5</ele>
        <time>2020-04-11T17:52:35Z</time>
      </trkpt>
      <trkpt lat="42.4637290" lon="-6.2177090">
        <ele>1014.4</ele>
        <time>2020-04-11T17:52:37Z</time>
      </trkpt>
      <trkpt lat="42.4638250" lon="-6.2178210">
        <ele>1014.4</ele>
        <time>2020-04-11T17:52:39Z</time>
      </trkpt>
      <trkpt lat="42.4639220" lon="-6.2179340">
        <ele>1014.3</ele>
        <time>2020-04-11T17:52:41Z</time>
      </trkpt>
      <trkpt lat="42.4640190" lon="-6.2180470">
        <ele>1014.3</ele>
        <time>2020-04-11T17:52:43Z</time>
      </trkpt>
      <trkpt lat="42.4642880" lon="-6.2183650">
        <ele>1014.3</ele>
        <time>2020-04-11T17:52:45Z</time>
      </trkpt>
      <trkpt lat="42.4643940" lon="-6.2185380">
        <ele>1014.3</ele>
        <time>2020-04-11T17:52:47Z</time>
      </trkpt>
      <trkpt lat="42.4644150" lon="-6.2187480">
        <ele>1014.4</ele>
        <time>2020-04-11T17:52:49Z</time>
      </trkpt>
      <trkpt lat="42.4643910" lon="-6.2188950">
        <ele>1014.5</ele>
        <time>2020-04-11T17:52:51Z</time>
      </trkpt>
      <trkpt lat="42.4643680" lon="-6.2190330">
        <ele>1014.8</ele>
        <time>2020-04-11T17:52:53Z</time>
      </trkpt>
      <trkpt lat="42.4643450" lon="-6.2191660">
        <ele>1015.0</ele>
        <time>2020-04-11T17:52:55Z</time>
      </trkpt>
      <trkpt lat="42.4643240" lon="-6.2192950">
        <ele>1015.1</ele>
        <time>2020-04-11T17:52:57Z</time>
      </trkpt>
      <trkpt lat="42.4642640" lon="-6.2196530">
        <ele>1015.8</ele>
        <time>2020-04-11T17:52:59Z</time>
      </trkpt>
      <trkpt lat="42.4642440" lon="-6.2197710">
        <ele>1016.2</ele>
        <time>2020-04-11T17:53:01Z</time>
      </trkpt>
      <trkpt lat="42.4642250" lon="-6.2198850">
        <ele>1016.6</ele>
        <time>2020-04-11T17:53:03Z</time>
      </trkpt>
      <trkpt lat="42.4642070" lon="-6.2199960">
        <ele>1017.0</ele>
        <time>2020-04-11T17:53:05Z</time>
      </trkpt>
      <trkpt lat="42.4641890" lon="-6.2201030">
        <ele>1017.4</ele>
        <time>2020-04-11T17:53:07Z</time>
      </trkpt>
      <trkpt lat="42.4641710" lon="-6.2202080">
        <ele>1017.8</ele>
        <time>2020-04-11T17:53:09Z</time>
      </trkpt>
      <trkpt lat="42.4641150" lon="-6.2205440">
        <ele>1019.0</ele>
        <time>2020-04-11T17:53:11Z</time>
      </trkpt>
      <trkpt lat="42.4640980" lon="-6.2206450">
        <ele>1019.4</ele>
        <time>2020-04-11T17:53:13Z</time>
      </trkpt>
      <trkpt lat="42.4640820" lon="-6.2207430">
        <ele>1019.7</ele>
        <time>2020-04-11T17:53:15Z</time>
      </trkpt>
      <trkpt lat="42.4640650" lon="-6.2208400">
        <ele>1020.1</ele>
        <time>2020-04-11T17:53:17Z</time>
      </trkpt>
      <trkpt lat="42.4640490" lon="-6.2209370">
        <ele>1020.4</ele>
        <time>2020-04-11T17:53:19Z</time>
      </trkpt>
      <trkpt lat="42.4640330" lon="-6.2210320">
        <ele>1020.7</ele>
        <time>2020-04-11T17:53:21Z</time>
      </trkpt>
      <trkpt lat="42.4640170" lon="-6.2211280">
        <ele>1020.9</ele>
        <time>2020-04-11T17:53:23Z</time>
      </trkpt>
      <trkpt lat="42.4639650" lon="-6.2214580">
        <ele>1022.0</ele>
        <time>2020-04-11T17:53:25Z</time>
      </trkpt>
      <trkpt lat="42.4639550" lon="-6.2215540">
        <ele>1022.3</ele>
        <time>2020-04-11T17:53:27Z</time>
      </trkpt>
      <trkpt lat="42.4639450" lon="-6.2216490">
        <ele>1022.6</ele>
        <time>2020-04-11T17:53:29Z</time>
      </trkpt>
      <trkpt lat="42.4639280" lon="-6.2218450">
        <ele>1023.2</ele>
        <time>2020-04-11T17:53:31Z</time>
      </trkpt>
      <trkpt lat="42.4639250" lon="-6.2219410">
        <ele>1023.5</ele>
        <time>2020-04-11T17:53:33Z</time>
      </trkpt>
      <trkpt lat="42.4639200" lon="-6.2221250">
        <ele>1024.0</ele>
        <time>2020-04-11T17:53:35Z</time>
      </trkpt>
      <trkpt lat="42.4639230" lon="-6.2222220">
        <ele>1024.2</ele>
        <time>2020-04-11T17:53:37Z</time>
      </trkpt>
      <trkpt lat="42.4639270" lon="-6.2223220">
        <ele>1024.5</ele>
        <time>2020-04-11T17:53:39Z</time>
      </trkpt>
      <trkpt lat="42.4639300" lon="-6.2224230">
        <ele>1024.8</ele>
        <time>2020-04-11T17:53:41Z</time>
      </trkpt>
      <trkpt lat="42.4639330" lon="-6.2225230">
        <ele>1025.1</ele>
        <time>2020-04-11T17:53:43Z</time>
      </trkpt>
      <trkpt lat="42.4639420" lon="-6.2227840">
        <ele>1025.7</ele>
        <time>2020-04-11T17:53:45Z</time>
      </trkpt>
      <trkpt lat="42.4639450" lon="-6.2228970">
        <ele>1025.9</ele>
        <time>2020-04-11T17:53:47Z</time>
      </trkpt>
      <trkpt lat="42.4639490" lon="-6.2230200">
        <ele>1026.1</ele>
        <time>2020-04-11T17:53:49Z</time>
      </trkpt>
      <trkpt lat="42.4639540" lon="-6.2231490">
        <ele>1026.2</ele>
        <time>2020-04-11T17:53:51Z</time>
      </trkpt>
      <trkpt lat="42.4639680" lon="-6.2234440">
        <ele>1026.3</ele>
        <time>2020-04-11T17:53:53Z</time>
      </trkpt>
      <trkpt lat="42.4639800" lon="-6.2235840">
        <ele>1026.4</ele>
        <time>2020-04-11T17:53:55Z</time>
      </trkpt>
      <trkpt lat="42.4639920" lon="-6.2237280">
        <ele>1026.5</ele>
        <time>2020-04-11T17:53:57Z</time>
      </trkpt>
      <trkpt lat="42.4640040" lon="-6.2238770">
        <ele>1026.5</ele>
        <time>2020-04-11T17:53:59Z</time>
      </trkpt>
      <trkpt lat="42.4640160" lon="-6.2240280">
        <ele>1026.5</ele>
        <time>2020-04-11T17:54:01Z</time>
      </trkpt>
      <trkpt lat="42.4640560" lon="-6.2244690">
        <ele>1026.6</ele>
        <time>2020-04-11T17:54:03Z</time>
      </trkpt>
      <trkpt lat="42.4640850" lon="-6.2246150">
        <ele>1026.7</ele>
        <time>2020-04-11T17:54:05Z</time>
      </trkpt>
      <trkpt lat="42.4641370" lon="-6.2248590">
        <ele>1027.1</ele>
        <time>2020-04-11T17:54:07Z</time>
      </trkpt>
      <trkpt lat="42.4641840" lon="-6.2249880">
        <ele>1027.4</ele>
        <time>2020-04-11T17:54:09Z</time>
      </trkpt>
      <trkpt lat="42.4642300" lon="-6.2251130">
        <ele>1027.7</ele>
        <time>2020-04-11T17:54:11Z</time>
      </trkpt>
      <trkpt lat="42.4642740" lon="-6.2252350">
        <ele>1028.0</ele>
        <time>2020-04-11T17:54:13Z</time>
      </trkpt>
      <trkpt lat="42.4643180" lon="-6.2253560">
        <ele>1028.1</ele>
        <time>2020-04-11T17:54:15Z</time>
      </trkpt>
      <trkpt lat="42.4643620" lon="-6.2254750">
        <ele>1028.3</ele>
        <time>2020-04-11T17:54:17Z</time>
      </trkpt>
      <trkpt lat="42.4644040" lon="-6.2255920">
        <ele>1028.5</ele>
        <time>2020-04-11T17:54:19Z</time>
      </trkpt>
      <trkpt lat="42.4645500" lon="-6.2259920">
        <ele>1029.4</ele>
        <time>2020-04-11T17:54:21Z</time>
      </trkpt>
      <trkpt lat="42.4645920" lon="-6.2261060">
        <ele>1029.7</ele>
        <time>2020-04-11T17:54:23Z</time>
      </trkpt>
      <trkpt lat="42.4646340" lon="-6.2262200">
        <ele>1029.9</ele>
        <time>2020-04-11T17:54:25Z</time>
      </trkpt>
      <trkpt lat="42.4646750" lon="-6.2263320">
        <ele>1030.2</ele>
        <time>2020-04-11T17:54:27Z</time>
      </trkpt>
      <trkpt lat="42.4647150" lon="-6.2264440">
        <ele>1030.4</ele>
        <time>2020-04-11T17:54:29Z</time>
      </trkpt>
      <trkpt lat="42.4647560" lon="-6.2265550">
        <ele>1030.6</ele>
        <time>2020-04-11T17:54:31Z</time>
      </trkpt>
      <trkpt lat="42.4647970" lon="-6.2266660">
        <ele>1030.9</ele>
        <time>2020-04-11T17:54:33Z</time>
      </trkpt>
      <trkpt lat="42.4649410" lon="-6.2270600">
        <ele>1031.7</ele>
        <time>2020-04-11T17:54:35Z</time>
      </trkpt>
      <trkpt lat="42.4649810" lon="-6.2271720">
        <ele>1031.9</ele>
        <time>2020-04-11T17:54:37Z</time>
      </trkpt>
      <trkpt lat="42.4650240" lon="-6.2272880">
        <ele>1032.1</ele>
        <time>2020-04-11T17:54:39Z</time>
      </trkpt>
      <trkpt lat="42.4650670" lon="-6.2274060">
        <ele>1032.3</ele>
        <time>2020-04-11T17:54:41Z</time>
      </trkpt>
      <trkpt lat="42.4651110" lon="-6.2275280">
        <ele>1032.5</ele>
        <time>2020-04-11T17:54:43Z</time>
      </trkpt>
      <trkpt lat="42.4651560" lon="-6.2276500">
        <ele>1032.7</ele>
        <time>2020-04-11T17:54:45Z</time>
      </trkpt>
      <trkpt lat="42.4652000" lon="-6.2277720">
        <ele>1032.8</ele>
        <time>2020-04-11T17:54:47Z</time>
      </trkpt>
      <trkpt lat="42.4653490" lon="-6.2281790">
        <ele>1033.1</ele>
        <time>2020-04-11T17:54:49Z</time>
      </trkpt>
      <trkpt lat="42.4653930" lon="-6.2283010">
        <ele>1033.1</ele>
        <time>2020-04-11T17:54:51Z</time>
      </trkpt>
      <trkpt lat="42.4654380" lon="-6.2284240">
        <ele>1033.3</ele>
        <time>2020-04-11T17:54:53Z</time>
      </trkpt>
      <trkpt lat="42.4654830" lon="-6.2285460">
        <ele>1033.4</ele>
        <time>2020-04-11T17:54:55Z</time>
      </trkpt>
      <trkpt lat="42.4655280" lon="-6.2286680">
        <ele>1033.7</ele>
        <time>2020-04-11T17:54:57Z</time>
      </trkpt>
      <trkpt lat="42.4655730" lon="-6.2287920">
        <ele>1034.0</ele>
        <time>2020-04-11T17:54:59Z</time>
      </trkpt>
      <trkpt lat="42.4657220" lon="-6.2292000">
        <ele>1035.1</ele>
        <time>2020-04-11T17:55:01Z</time>
      </trkpt>
      <trkpt lat="42.4657650" lon="-6.2293200">
        <ele>1035.5</ele>
        <time>2020-04-11T17:55:03Z</time>
      </trkpt>
      <trkpt lat="42.4658080" lon="-6.2294370">
        <ele>1035.9</ele>
        <time>2020-04-11T17:55:05Z</time>
      </trkpt>
      <trkpt lat="42.4658490" lon="-6.2295500">
        <ele>1036.3</ele>
        <time>2020-04-11T17:55:07Z</time>
      </trkpt>
      <trkpt lat="42.4658890" lon="-6.2296590">
        <ele>1036.8</ele>
        <time>2020-04-11T17:55:09Z</time>
      </trkpt>
      <trkpt lat="42.4659280" lon="-6.2297640">
        <ele>1037.3</ele>
        <time>2020-04-11T17:55:11Z</time>
      </trkpt>
      <trkpt lat="42.4659660" lon="-6.2298690">
        <ele>1037.7</ele>
        <time>2020-04-11T17:55:13Z</time>
      </trkpt>
      <trkpt lat="42.4660030" lon="-6.2299710">
        <ele>1038.1</ele>
        <time>2020-04-11T17:55:15Z</time>
      </trkpt>
      <trkpt lat="42.4661430" lon="-6.2303560">
        <ele>1039.3</ele>
        <time>2020-04-11T17:55:17Z</time>
      </trkpt>
      <trkpt lat="42.4661800" lon="-6.2304550">
        <ele>1039.6</ele>
        <time>2020-04-11T17:55:19Z</time>
      </trkpt>
      <trkpt lat="42.4662150" lon="-6.2305520">
        <ele>1039.9</ele>
        <time>2020-04-11T17:55:21Z</time>
      </trkpt>
      <trkpt lat="42.4662500" lon="-6.2306490">
        <ele>1040.1</ele>
        <time>2020-04-11T17:55:23Z</time>
      </trkpt>
      <trkpt lat="42.4662850" lon="-6.2307440">
        <ele>1040.4</ele>
        <time>2020-04-11T17:55:25Z</time>
      </trkpt>
      <trkpt lat="42.4663200" lon="-6.2308390">
        <ele>1040.7</ele>
        <time>2020-04-11T17:55:27Z</time>
      </trkpt>
      <trkpt lat="42.4663550" lon="-6.2309350">
        <ele>1040.9</ele>
        <time>2020-04-11T17:55:29Z</time>
      </trkpt>
      <trkpt lat="42.4663890" lon="-6.2310300">
        <ele>1041.1</ele>
        <time>2020-04-11T17:55:31Z</time>
      </trkpt>
      <trkpt lat="42.4665280" lon="-6.2314090">
        <ele>1041.6</ele>
        <time>2020-04-11T17:55:33Z</time>
      </trkpt>
      <trkpt lat="42.4665620" lon="-6.2315050">
        <ele>1041.7</ele>
        <time>2020-04-11T17:55:35Z</time>
      </trkpt>
      <trkpt lat="42.4665960" lon="-6.2316020">
        <ele>1041.8</ele>
        <time>2020-04-11T17:55:37Z</time>
      </trkpt>
      <trkpt lat="42.4666310" lon="-6.2317000">
        <ele>1041.9</ele>
        <time>2020-04-11T17:55:39Z</time>
      </trkpt>
      <trkpt lat="42.4666660" lon="-6.2317980">
        <ele>1042.1</ele>
        <time>2020-04-11T17:55:41Z</time>
      </trkpt>
      <trkpt lat="42.4667010" lon="-6.2318960">
        <ele>1042.3</ele>
        <time>2020-04-11T17:55:43Z</time>
      </trkpt>
      <trkpt lat="42.4667360" lon="-6.2319950">
        <ele>1042.6</ele>
        <time>2020-04-11T17:55:45Z</time>
      </trkpt>
      <trkpt lat="42.4667720" lon="-6.2320940">
        <ele>1042.9</ele>
        <time>2020-04-11T17:55:47Z</time>
      </trkpt>
      <trkpt lat="42.4669060" lon="-6.2324720">
        <ele>1044.3</ele>
        <time>2020-04-11T17:55:49Z</time>
      </trkpt>
      <trkpt lat="42.4669420" lon="-6.2325710">
        <ele>1044.7</ele>
        <time>2020-04-11T17:55:51Z</time>
      </trkpt>
      <trkpt lat="42.4669770" lon="-6.2326690">
        <ele>1045.1</ele>
        <time>2020-04-11T17:55:53Z</time>
      </trkpt>
      <trkpt lat="42.4670120" lon="-6.2327690">
        <ele>1045.6</ele>
        <time>2020-04-11T17:55:55Z</time>
      </trkpt>
      <trkpt lat="42.4670480" lon="-6.2328680">
        <ele>1046.0</ele>
        <time>2020-04-11T17:55:57Z</time>
      </trkpt>
      <trkpt lat="42.4670830" lon="-6.2329680">
        <ele>1046.5</ele>
        <time>2020-04-11T17:55:59Z</time>
      </trkpt>
      <trkpt lat="42.4671190" lon="-6.2330670">
        <ele>1047.0</ele>
        <time>2020-04-11T17:56:01Z</time>
      </trkpt>
      <trkpt lat="42.4671540" lon="-6.2331670">
        <ele>1047.4</ele>
        <time>2020-04-11T17:56:03Z</time>
      </trkpt>
      <trkpt lat="42.4672900" lon="-6.2335470">
        <ele>1048.6</ele>
        <time>2020-04-11T17:56:05Z</time>
      </trkpt>
      <trkpt lat="42.4673260" lon="-6.2336490">
        <ele>1048.7</ele>
        <time>2020-04-11T17:56:07Z</time>
      </trkpt>
      <trkpt lat="42.4673640" lon="-6.2337540">
        <ele>1048.8</ele>
        <time>2020-04-11T17:56:09Z</time>
      </trkpt>
      <trkpt lat="42.4674020" lon="-6.2338620">
        <ele>1049.0</ele>
        <time>2020-04-11T17:56:11Z</time>
      </trkpt>
      <trkpt lat="42.4674410" lon="-6.2339710">
        <ele>1049.1</ele>
        <time>2020-04-11T17:56:13Z</time>
      </trkpt>
      <trkpt lat="42.4674800" lon="-6.2340800">
        <ele>1049.2</ele>
        <time>2020-04-11T17:56:15Z</time>
      </trkpt>
      <trkpt lat="42.4675190" lon="-6.2341910">
        <ele>1049.3</ele>
        <time>2020-04-11T17:56:17Z</time>
      </trkpt>
      <trkpt lat="42.4676580" lon="-6.2345810">
        <ele>1049.5</ele>
        <time>2020-04-11T17:56:19Z</time>
      </trkpt>
      <trkpt lat="42.4676980" lon="-6.2346930">
        <ele>1049.6</ele>
        <time>2020-04-11T17:56:21Z</time>
      </trkpt>
      <trkpt lat="42.4677380" lon="-6.2348040">
        <ele>1049.6</ele>
        <time>2020-04-11T17:56:23Z</time>
      </trkpt>
      <trkpt lat="42.4677780" lon="-6.2349160">
        <ele>1049.8</ele>
        <time>2020-04-11T17:56:25Z</time>
      </trkpt>
      <trkpt lat="42.4678180" lon="-6.2350300">
        <ele>1050.0</ele>
        <time>2020-04-11T17:56:27Z</time>
      </trkpt>
      <trkpt lat="42.4678580" lon="-6.2351430">
        <ele>1050.3</ele>
        <time>2020-04-11T17:56:29Z</time>
      </trkpt>
      <trkpt lat="42.4678990" lon="-6.2352560">
        <ele>1050.7</ele>
        <time>2020-04-11T17:56:31Z</time>
      </trkpt>
      <trkpt lat="42.4680390" lon="-6.2356490">
        <ele>1052.5</ele>
        <time>2020-04-11T17:56:33Z</time>
      </trkpt>
      <trkpt lat="42.4680790" lon="-6.2357630">
        <ele>1053.0</ele>
        <time>2020-04-11T17:56:35Z</time>
      </trkpt>
      <trkpt lat="42.4681200" lon="-6.2358750">
        <ele>1053.6</ele>
        <time>2020-04-11T17:56:37Z</time>
      </trkpt>
      <trkpt lat="42.4681600" lon="-6.2359880">
        <ele>1054.0</ele>
        <time>2020-04-11T17:56:39Z</time>
      </trkpt>
      <trkpt lat="42.4682000" lon="-6.2361020">
        <ele>1054.4</ele>
        <time>2020-04-11T17:56:41Z</time>
      </trkpt>
      <trkpt lat="42.4682410" lon="-6.2362150">
        <ele>1054.8</ele>
        <time>2020-04-11T17:56:43Z</time>
      </trkpt>
      <trkpt lat="42.4682810" lon="-6.2363280">
        <ele>1055.1</ele>
        <time>2020-04-11T17:56:45Z</time>
      </trkpt>
      <trkpt lat="42.4684220" lon="-6.2367210">
        <ele>1056.1</ele>
        <time>2020-04-11T17:56:47Z</time>
      </trkpt>
      <trkpt lat="42.4684660" lon="-6.2368320">
        <ele>1056.3</ele>
        <time>2020-04-11T17:56:49Z</time>
      </trkpt>
      <trkpt lat="42.4685100" lon="-6.2369460">
        <ele>1056.6</ele>
        <time>2020-04-11T17:56:51Z</time>
      </trkpt>
      <trkpt lat="42.4685560" lon="-6.2370630">
        <ele>1056.9</ele>
        <time>2020-04-11T17:56:53Z</time>
      </trkpt>
      <trkpt lat="42.4686020" lon="-6.2371800">
        <ele>1057.1</ele>
        <time>2020-04-11T17:56:55Z</time>
      </trkpt>
      <trkpt lat="42.4686480" lon="-6.2372990">
        <ele>1057.3</ele>
        <time>2020-04-11T17:56:57Z</time>
      </trkpt>
      <trkpt lat="42.4686950" lon="-6.2374190">
        <ele>1057.5</ele>
        <time>2020-04-11T17:56:59Z</time>
      </trkpt>
      <trkpt lat="42.4688480" lon="-6.2378100">
        <ele>1058.0</ele>
        <time>2020-04-11T17:57:01Z</time>
      </trkpt>
      <trkpt lat="42.4688950" lon="-6.2379310">
        <ele>1058.0</ele>
        <time>2020-04-11T17:57:03Z</time>
      </trkpt>
      <trkpt lat="42.4689430" lon="-6.2380530">
        <ele>1058.2</ele>
        <time>2020-04-11T17:57:05Z</time>
      </trkpt>
      <trkpt lat="42.4689910" lon="-6.2381760">
        <ele>1058.4</ele>
        <time>2020-04-11T17:57:07Z</time>
      </trkpt>
      <trkpt lat="42.4690390" lon="-6.2382990">
        <ele>1058.6</ele>
        <time>2020-04-11T17:57:09Z</time>
      </trkpt>
      <trkpt lat="42.4690870" lon="-6.2384230">
        <ele>1058.8</ele>
        <time>2020-04-11T17:57:11Z</time>
      </trkpt>
      <trkpt lat="42.4692410" lon="-6.2388170">
        <ele>1059.2</ele>
        <time>2020-04-11T17:57:13Z</time>
      </trkpt>
      <trkpt lat="42.4692910" lon="-6.2389440">
        <ele>1059.4</ele>
        <time>2020-04-11T17:57:15Z</time>
      </trkpt>
      <trkpt lat="42.4693410" lon="-6.2390730">
        <ele>1059.5</ele>
        <time>2020-04-11T17:57:17Z</time>
      </trkpt>
      <trkpt lat="42.4693930" lon="-6.2392050">
        <ele>1059.7</ele>
        <time>2020-04-11T17:57:19Z</time>
      </trkpt>
      <trkpt lat="42.4694460" lon="-6.2393400">
        <ele>1059.9</ele>
        <time>2020-04-11T17:57:21Z</time>
      </trkpt>
      <trkpt lat="42.4694990" lon="-6.2394770">
        <ele>1060.1</ele>
        <time>2020-04-11T17:57:23Z</time>
      </trkpt>
      <trkpt lat="42.4696590" lon="-6.2398850">
        <ele>1060.7</ele>
        <time>2020-04-11T17:57:25Z</time>
      </trkpt>
      <trkpt lat="42.4697130" lon="-6.2400250">
        <ele>1060.9</ele>
        <time>2020-04-11T17:57:27Z</time>
      </trkpt>
      <trkpt lat="42.4697690" lon="-6.2401670">
        <ele>1061.1</ele>
        <time>2020-04-11T17:57:29Z</time>
      </trkpt>
      <trkpt lat="42.4698230" lon="-6.2403070">
        <ele>1061.3</ele>
        <time>2020-04-11T17:57:31Z</time>
      </trkpt>
      <trkpt lat="42.4698780" lon="-6.2404470">
        <ele>1061.5</ele>
        <time>2020-04-11T17:57:33Z</time>
      </trkpt>
      <trkpt lat="42.4700390" lon="-6.2408570">
        <ele>1061.9</ele>
        <time>2020-04-11T17:57:35Z</time>
      </trkpt>
      <trkpt lat="42.4700930" lon="-6.2409960">
        <ele>1062.0</ele>
        <time>2020-04-11T17:57:37Z</time>
      </trkpt>
      <trkpt lat="42.4701470" lon="-6.2411350">
        <ele>1062.1</ele>
        <time>2020-04-11T17:57:39Z</time>
      </trkpt>
      <trkpt lat="42.4702020" lon="-6.2412750">
        <ele>1062.2</ele>
        <time>2020-04-11T17:57:41Z</time>
      </trkpt>
      <trkpt lat="42.4702560" lon="-6.2414140">
        <ele>1062.3</ele>
        <time>2020-04-11T17:57:43Z</time>
      </trkpt>
      <trkpt lat="42.4703110" lon="-6.2415540">
        <ele>1062.4</ele>
        <time>2020-04-11T17:57:45Z</time>
      </trkpt>
      <trkpt lat="42.4704720" lon="-6.2419650">
        <ele>1062.5</ele>
        <time>2020-04-11T17:57:47Z</time>
      </trkpt>
      <trkpt lat="42.4705270" lon="-6.2421060">
        <ele>1062.6</ele>
        <time>2020-04-11T17:57:49Z</time>
      </trkpt>
      <trkpt lat="42.4705820" lon="-6.2422470">
        <ele>1062.7</ele>
        <time>2020-04-11T17:57:51Z</time>
      </trkpt>
      <trkpt lat="42.4706360" lon="-6.2423870">
        <ele>1062.9</ele>
        <time>2020-04-11T17:57:53Z</time>
      </trkpt>
      <trkpt lat="42.4706920" lon="-6.2425280">
        <ele>1063.0</ele>
        <time>2020-04-11T17:57:55Z</time>
      </trkpt>
      <trkpt lat="42.4708520" lon="-6.2429390">
        <ele>1063.5</ele>
        <time>2020-04-11T17:57:57Z</time>
      </trkpt>
      <trkpt lat="42.4709060" lon="-6.2430770">
        <ele>1063.7</ele>
        <time>2020-04-11T17:57:59Z</time>
      </trkpt>
      <trkpt lat="42.4709590" lon="-6.2432130">
        <ele>1063.8</ele>
        <time>2020-04-11T17:58:01Z</time>
      </trkpt>
      <trkpt lat="42.4710120" lon="-6.2433470">
        <ele>1064.0</ele>
        <time>2020-04-11T17:58:03Z</time>
      </trkpt>
      <trkpt lat="42.4710630" lon="-6.2434790">
        <ele>1064.2</ele>
        <time>2020-04-11T17:58:05Z</time>
      </trkpt>
      <trkpt lat="42.4711150" lon="-6.2436110">
        <ele>1064.3</ele>
        <time>2020-04-11T17:58:07Z</time>
      </trkpt>
      <trkpt lat="42.4712710" lon="-6.2440120">
        <ele>1064.8</ele>
        <time>2020-04-11T17:58:09Z</time>
      </trkpt>
      <trkpt lat="42.4713220" lon="-6.2441410">
        <ele>1064.9</ele>
        <time>2020-04-11T17:58:11Z</time>
      </trkpt>
      <trkpt lat="42.4713710" lon="-6.2442680">
        <ele>1065.0</ele>
        <time>2020-04-11T17:58:13Z</time>
      </trkpt>
      <trkpt lat="42.4714210" lon="-6.2443950">
        <ele>1065.1</ele>
        <time>2020-04-11T17:58:15Z</time>
      </trkpt>
      <trkpt lat="42.4714700" lon="-6.2445210">
        <ele>1065.2</ele>
        <time>2020-04-11T17:58:17Z</time>
      </trkpt>
      <trkpt lat="42.4715190" lon="-6.2446460">
        <ele>1065.3</ele>
        <time>2020-04-11T17:58:19Z</time>
      </trkpt>
      <trkpt lat="42.4716700" lon="-6.2450440">
        <ele>1065.5</ele>
        <time>2020-04-11T17:58:21Z</time>
      </trkpt>
      <trkpt lat="42.4717180" lon="-6.2451780">
        <ele>1065.5</ele>
        <time>2020-04-11T17:58:23Z</time>
      </trkpt>
      <trkpt lat="42.4718080" lon="-6.2454430">
        <ele>1065.4</ele>
        <time>2020-04-11T17:58:25Z</time>
      </trkpt>
      <trkpt lat="42.4718460" lon="-6.2455920">
        <ele>1065.3</ele>
        <time>2020-04-11T17:58:27Z</time>
      </trkpt>
      <trkpt lat="42.4718840" lon="-6.2457440">
        <ele>1065.1</ele>
        <time>2020-04-11T17:58:29Z</time>
      </trkpt>
      <trkpt lat="42.4719240" lon="-6.2458990">
        <ele>1064.9</ele>
        <time>2020-04-11T17:58:31Z</time>
      </trkpt>
      <trkpt lat="42.4719640" lon="-6.2460570">
        <ele>1064.7</ele>
        <time>2020-04-11T17:58:33Z</time>
      </trkpt>
      <trkpt lat="42.4720750" lon="-6.2464960">
        <ele>1064.4</ele>
        <time>2020-04-11T17:58:35Z</time>
      </trkpt>
      <trkpt lat="42.4721160" lon="-6.2466580">
        <ele>1064.2</ele>
        <time>2020-04-11T17:58:37Z</time>
      </trkpt>
      <trkpt lat="42.4721580" lon="-6.2468230">
        <ele>1064.1</ele>
        <time>2020-04-11T17:58:39Z</time>
      </trkpt>
      <trkpt lat="42.4722000" lon="-6.2469890">
        <ele>1064.0</ele>
        <time>2020-04-11T17:58:41Z</time>
      </trkpt>
      <trkpt lat="42.4722430" lon="-6.2471580">
        <ele>1063.9</ele>
        <time>2020-04-11T17:58:43Z</time>
      </trkpt>
      <trkpt lat="42.4723560" lon="-6.2476070">
        <ele>1063.9</ele>
        <time>2020-04-11T17:58:45Z</time>
      </trkpt>
      <trkpt lat="42.4723980" lon="-6.2477710">
        <ele>1063.8</ele>
        <time>2020-04-11T17:58:47Z</time>
      </trkpt>
      <trkpt lat="42.4724380" lon="-6.2479270">
        <ele>1063.8</ele>
        <time>2020-04-11T17:58:49Z</time>
      </trkpt>
      <trkpt lat="42.4724750" lon="-6.2480770">
        <ele>1063.8</ele>
        <time>2020-04-11T17:58:51Z</time>
      </trkpt>
      <trkpt lat="42.4725120" lon="-6.2482230">
        <ele>1063.8</ele>
        <time>2020-04-11T17:58:53Z</time>
      </trkpt>
      <trkpt lat="42.4726190" lon="-6.2486450">
        <ele>1063.8</ele>
        <time>2020-04-11T17:58:55Z</time>
      </trkpt>
      <trkpt lat="42.4726540" lon="-6.2487820">
        <ele>1063.8</ele>
        <time>2020-04-11T17:58:57Z</time>
      </trkpt>
      <trkpt lat="42.4726880" lon="-6.2489160">
        <ele>1063.8</ele>
        <time>2020-04-11T17:58:59Z</time>
      </trkpt>
      <trkpt lat="42.4727210" lon="-6.2490460">
        <ele>1063.8</ele>
        <time>2020-04-11T17:59:01Z</time>
      </trkpt>
      <trkpt lat="42.4727530" lon="-6.2491740">
        <ele>1063.9</ele>
        <time>2020-04-11T17:59:03Z</time>
      </trkpt>
      <trkpt lat="42.4727850" lon="-6.2492980">
        <ele>1063.9</ele>
        <time>2020-04-11T17:59:05Z</time>
      </trkpt>
      <trkpt lat="42.4728870" lon="-6.2497010">
        <ele>1064.2</ele>
        <time>2020-04-11T17:59:07Z</time>
      </trkpt>
      <trkpt lat="42.4729180" lon="-6.2498230">
        <ele>1064.2</ele>
        <time>2020-04-11T17:59:09Z</time>
      </trkpt>
      <trkpt lat="42.4729480" lon="-6.2499430">
        <ele>1064.3</ele>
        <time>2020-04-11T17:59:11Z</time>
      </trkpt>
      <trkpt lat="42.4729780" lon="-6.2500620">
        <ele>1064.3</ele>
        <time>2020-04-11T17:59:13Z</time>
      </trkpt>
      <trkpt lat="42.4730080" lon="-6.2501800">
        <ele>1064.2</ele>
        <time>2020-04-11T17:59:15Z</time>
      </trkpt>
      <trkpt lat="42.4730380" lon="-6.2502960">
        <ele>1064.2</ele>
        <time>2020-04-11T17:59:17Z</time>
      </trkpt>
      <trkpt lat="42.4730670" lon="-6.2504110">
        <ele>1064.2</ele>
        <time>2020-04-11T17:59:19Z</time>
      </trkpt>
      <trkpt lat="42.4731770" lon="-6.2508020">
        <ele>1064.2</ele>
        <time>2020-04-11T17:59:21Z</time>
      </trkpt>
      <trkpt lat="42.4732490" lon="-6.2509690">
        <ele>1064.2</ele>
        <time>2020-04-11T17:59:23Z</time>
      </trkpt>
      <trkpt lat="42.4733050" lon="-6.2510810">
        <ele>1064.2</ele>
        <time>2020-04-11T17:59:25Z</time>
      </trkpt>
      <trkpt lat="42.4733620" lon="-6.2511950">
        <ele>1064.2</ele>
        <time>2020-04-11T17:59:27Z</time>
      </trkpt>
      <trkpt lat="42.4734220" lon="-6.2513130">
        <ele>1064.2</ele>
        <time>2020-04-11T17:59:29Z</time>
      </trkpt>
      <trkpt lat="42.4734820" lon="-6.2514340">
        <ele>1064.1</ele>
        <time>2020-04-11T17:59:31Z</time>
      </trkpt>
      <trkpt lat="42.4736500" lon="-6.2517700">
        <ele>1063.9</ele>
        <time>2020-04-11T17:59:33Z</time>
      </trkpt>
      <trkpt lat="42.4737140" lon="-6.2518990">
        <ele>1063.7</ele>
        <time>2020-04-11T17:59:35Z</time>
      </trkpt>
      <trkpt lat="42.4737830" lon="-6.2520350">
        <ele>1063.6</ele>
        <time>2020-04-11T17:59:37Z</time>
      </trkpt>
      <trkpt lat="42.4738540" lon="-6.2521790">
        <ele>1063.5</ele>
        <time>2020-04-11T17:59:39Z</time>
      </trkpt>
      <trkpt lat="42.4739290" lon="-6.2523280">
        <ele>1063.3</ele>
        <time>2020-04-11T17:59:41Z</time>
      </trkpt>
      <trkpt lat="42.4740860" lon="-6.2527160">
        <ele>1063.1</ele>
        <time>2020-04-11T17:59:43Z</time>
      </trkpt>
      <trkpt lat="42.4741010" lon="-6.2529590">
        <ele>1062.8</ele>
        <time>2020-04-11T17:59:45Z</time>
      </trkpt>
      <trkpt lat="42.4741030" lon="-6.2531580">
        <ele>1062.8</ele>
        <time>2020-04-11T17:59:47Z</time>
      </trkpt>
      <trkpt lat="42.4741050" lon="-6.2533610">
        <ele>1062.7</ele>
        <time>2020-04-11T17:59:49Z</time>
      </trkpt>
      <trkpt lat="42.4741070" lon="-6.2535680">
        <ele>1062.7</ele>
        <time>2020-04-11T17:59:51Z</time>
      </trkpt>
      <trkpt lat="42.4741110" lon="-6.2540800">
        <ele>1062.4</ele>
        <time>2020-04-11T17:59:53Z</time>
      </trkpt>
      <trkpt lat="42.4741130" lon="-6.2542590">
        <ele>1062.6</ele>
        <time>2020-04-11T17:59:55Z</time>
      </trkpt>
      <trkpt lat="42.4741140" lon="-6.2544160">
        <ele>1062.8</ele>
        <time>2020-04-11T17:59:57Z</time>
      </trkpt>
      <trkpt lat="42.4741150" lon="-6.2545540">
        <ele>1063.1</ele>
        <time>2020-04-11T17:59:59Z</time>
      </trkpt>
      <trkpt lat="42.4741160" lon="-6.2546740">
        <ele>1063.6</ele>
        <time>2020-04-11T18:00:01Z</time>
      </trkpt>
      <trkpt lat="42.4741170" lon="-6.2547800">
        <ele>1064.3</ele>
        <time>2020-04-11T18:00:03Z</time>
      </trkpt>
      <trkpt lat="42.4741260" lon="-6.2551810">
        <ele>1066.7</ele>
        <time>2020-04-11T18:00:05Z</time>
      </trkpt>
      <trkpt lat="42.4741360" lon="-6.2552650">
        <ele>1066.9</ele>
        <time>2020-04-11T18:00:07Z</time>
      </trkpt>
      <trkpt lat="42.4741460" lon="-6.2553420">
        <ele>1067.3</ele>
        <time>2020-04-11T18:00:09Z</time>
      </trkpt>
      <trkpt lat="42.4741710" lon="-6.2554990">
        <ele>1068.2</ele>
        <time>2020-04-11T18:00:11Z</time>
      </trkpt>
      <trkpt lat="42.4741890" lon="-6.2555620">
        <ele>1068.7</ele>
        <time>2020-04-11T18:00:13Z</time>
      </trkpt>
      <trkpt lat="42.4742230" lon="-6.2556750">
        <ele>1069.4</ele>
        <time>2020-04-11T18:00:15Z</time>
      </trkpt>
      <trkpt lat="42.4742520" lon="-6.2557230">
        <ele>1069.8</ele>
        <time>2020-04-11T18:00:17Z</time>
      </trkpt>
      <trkpt lat="42.4742800" lon="-6.2557700">
        <ele>1070.2</ele>
        <time>2020-04-11T18:00:19Z</time>
      </trkpt>
      <trkpt lat="42.4743080" lon="-6.2558160">
        <ele>1070.6</ele>
        <time>2020-04-11T18:00:21Z</time>
      </trkpt>
      <trkpt lat="42.4743350" lon="-6.2558620">
        <ele>1071.0</ele>
        <time>2020-04-11T18:00:23Z</time>
      </trkpt>
      <trkpt lat="42.4743630" lon="-6.2559080">
        <ele>1071.4</ele>
        <time>2020-04-11T18:00:25Z</time>
      </trkpt>
      <trkpt lat="42.4743900" lon="-6.2559550">
        <ele>1071.8</ele>
        <time>2020-04-11T18:00:27Z</time>
      </trkpt>
      <trkpt lat="42.4744180" lon="-6.2560000">
        <ele>1072.2</ele>
        <time>2020-04-11T18:00:29Z</time>
      </trkpt>
      <trkpt lat="42.4744450" lon="-6.2560450">
        <ele>1072.7</ele>
        <time>2020-04-11T18:00:31Z</time>
      </trkpt>
      <trkpt lat="42.4744720" lon="-6.2560910">
        <ele>1073.1</ele>
        <time>2020-04-11T18:00:33Z</time>
      </trkpt>
      <trkpt lat="42.4745000" lon="-6.2561380">
        <ele>1073.6</ele>
        <time>2020-04-11T18:00:35Z</time>
      </trkpt>
      <trkpt lat="42.4745270" lon="-6.2561830">
        <ele>1074.0</ele>
        <time>2020-04-11T18:00:37Z</time>
      </trkpt>
      <trkpt lat="42.4745540" lon="-6.2562280">
        <ele>1074.4</ele>
        <time>2020-04-11T18:00:39Z</time>
      </trkpt>
      <trkpt lat="42.4747080" lon="-6.2564850">
        <ele>1077.2</ele>
        <time>2020-04-11T18:00:41Z</time>
      </trkpt>
      <trkpt lat="42.4747360" lon="-6.2565310">
        <ele>1077.6</ele>
        <time>2020-04-11T18:00:43Z</time>
      </trkpt>
      <trkpt lat="42.4747640" lon="-6.2565790">
        <ele>1078.1</ele>
        <time>2020-04-11T18:00:45Z</time>
      </trkpt>
      <trkpt lat="42.4747930" lon="-6.2566270">
        <ele>1078.6</ele>
        <time>2020-04-11T18:00:47Z</time>
      </trkpt>
      <trkpt lat="42.4748230" lon="-6.2566760">
        <ele>1079.0</ele>
        <time>2020-04-11T18:00:49Z</time>
      </trkpt>
      <trkpt lat="42.4748510" lon="-6.2567240">
        <ele>1079.5</ele>
        <time>2020-04-11T18:00:51Z</time>
      </trkpt>
      <trkpt lat="42.4748800" lon="-6.2567720">
        <ele>1079.9</ele>
        <time>2020-04-11T18:00:53Z</time>
      </trkpt>
      <trkpt lat="42.4749090" lon="-6.2568210">
        <ele>1080.4</ele>
        <time>2020-04-11T18:00:55Z</time>
      </trkpt>
      <trkpt lat="42.4749390" lon="-6.2568700">
        <ele>1080.8</ele>
        <time>2020-04-11T18:00:57Z</time>
      </trkpt>
      <trkpt lat="42.4749680" lon="-6.2569180">
        <ele>1081.2</ele>
        <time>2020-04-11T18:00:59Z</time>
      </trkpt>
      <trkpt lat="42.4749970" lon="-6.2569670">
        <ele>1081.6</ele>
        <time>2020-04-11T18:01:01Z</time>
      </trkpt>
      <trkpt lat="42.4750260" lon="-6.2570160">
        <ele>1082.0</ele>
        <time>2020-04-11T18:01:03Z</time>
      </trkpt>
      <trkpt lat="42.4750550" lon="-6.2570650">
        <ele>1082.3</ele>
        <time>2020-04-11T18:01:05Z</time>
      </trkpt>
      <trkpt lat="42.4752110" lon="-6.2573240">
        <ele>1083.6</ele>
        <time>2020-04-11T18:01:07Z</time>
      </trkpt>
      <trkpt lat="42.4752410" lon="-6.2573740">
        <ele>1083.9</ele>
        <time>2020-04-11T18:01:09Z</time>
      </trkpt>
      <trkpt lat="42.4752700" lon="-6.2574230">
        <ele>1084.2</ele>
        <time>2020-04-11T18:01:11Z</time>
      </trkpt>
      <trkpt lat="42.4752990" lon="-6.2574720">
        <ele>1084.5</ele>
        <time>2020-04-11T18:01:13Z</time>
      </trkpt>
      <trkpt lat="42.4753290" lon="-6.2575210">
        <ele>1084.9</ele>
        <time>2020-04-11T18:01:15Z</time>
      </trkpt>
      <trkpt lat="42.4753580" lon="-6.2575690">
        <ele>1085.3</ele>
        <time>2020-04-11T18:01:17Z</time>
      </trkpt>
      <trkpt lat="42.4753870" lon="-6.2576180">
        <ele>1085.7</ele>
        <time>2020-04-11T18:01:19Z</time>
      </trkpt>
      <trkpt lat="42.4754160" lon="-6.2576670">
        <ele>1086.0</ele>
        <time>2020-04-11T18:01:21Z</time>
      </trkpt>
      <trkpt lat="42.4754460" lon="-6.2577160">
        <ele>1086.4</ele>
        <time>2020-04-11T18:01:23Z</time>
      </trkpt>
      <trkpt lat="42.4754750" lon="-6.2577650">
        <ele>1086.8</ele>
        <time>2020-04-11T18:01:25Z</time>
      </trkpt>
      <trkpt lat="42.4755040" lon="-6.2578140">
        <ele>1087.2</ele>
        <time>2020-04-11T18:01:27Z</time>
      </trkpt>
      <trkpt lat="42.4755330" lon="-6.2578620">
        <ele>1087.5</ele>
        <time>2020-04-11T18:01:29Z</time>
      </trkpt>
      <trkpt lat="42.4756900" lon="-6.2581250">
        <ele>1089.3</ele>
        <time>2020-04-11T18:01:31Z</time>
      </trkpt>
      <trkpt lat="42.4757270" lon="-6.2581860">
        <ele>1089.7</ele>
        <time>2020-04-11T18:01:33Z</time>
      </trkpt>
      <trkpt lat="42.4757670" lon="-6.2582520">
        <ele>1090.1</ele>
        <time>2020-04-11T18:01:35Z</time>
      </trkpt>
      <trkpt lat="42.4758080" lon="-6.2583200">
        <ele>1090.5</ele>
        <time>2020-04-11T18:01:37Z</time>
      </trkpt>
      <trkpt lat="42.4758490" lon="-6.2583900">
        <ele>1090.8</ele>
        <time>2020-04-11T18:01:39Z</time>
      </trkpt>
      <trkpt lat="42.4758910" lon="-6.2584600">
        <ele>1091.1</ele>
        <time>2020-04-11T18:01:41Z</time>
      </trkpt>
      <trkpt lat="42.4759330" lon="-6.2585300">
        <ele>1091.2</ele>
        <time>2020-04-11T18:01:43Z</time>
      </trkpt>
      <trkpt lat="42.4759760" lon="-6.2586010">
        <ele>1091.4</ele>
        <time>2020-04-11T18:01:45Z</time>
      </trkpt>
      <trkpt lat="42.4760180" lon="-6.2586720">
        <ele>1091.7</ele>
        <time>2020-04-11T18:01:47Z</time>
      </trkpt>
      <trkpt lat="42.4761870" lon="-6.2589540">
        <ele>1093.0</ele>
        <time>2020-04-11T18:01:49Z</time>
      </trkpt>
      <trkpt lat="42.4762300" lon="-6.2590250">
        <ele>1093.4</ele>
        <time>2020-04-11T18:01:51Z</time>
      </trkpt>
      <trkpt lat="42.4762720" lon="-6.2590950">
        <ele>1093.7</ele>
        <time>2020-04-11T18:01:53Z</time>
      </trkpt>
      <trkpt lat="42.4763140" lon="-6.2591660">
        <ele>1094.1</ele>
        <time>2020-04-11T18:01:55Z</time>
      </trkpt>
      <trkpt lat="42.4763570" lon="-6.2592370">
        <ele>1094.5</ele>
        <time>2020-04-11T18:01:57Z</time>
      </trkpt>
      <trkpt lat="42.4763990" lon="-6.2593080">
        <ele>1094.9</ele>
        <time>2020-04-11T18:01:59Z</time>
      </trkpt>
      <trkpt lat="42.4764420" lon="-6.2593790">
        <ele>1095.3</ele>
        <time>2020-04-11T18:02:01Z</time>
      </trkpt>
      <trkpt lat="42.4764840" lon="-6.2594500">
        <ele>1095.6</ele>
        <time>2020-04-11T18:02:03Z</time>
      </trkpt>
      <trkpt lat="42.4766550" lon="-6.2597320">
        <ele>1096.9</ele>
        <time>2020-04-11T18:02:05Z</time>
      </trkpt>
      <trkpt lat="42.4767040" lon="-6.2598040">
        <ele>1097.2</ele>
        <time>2020-04-11T18:02:07Z</time>
      </trkpt>
      <trkpt lat="42.4767560" lon="-6.2598800">
        <ele>1097.6</ele>
        <time>2020-04-11T18:02:09Z</time>
      </trkpt>
      <trkpt lat="42.4768090" lon="-6.2599580">
        <ele>1097.9</ele>
        <time>2020-04-11T18:02:11Z</time>
      </trkpt>
      <trkpt lat="42.4769390" lon="-6.2601420">
        <ele>1098.7</ele>
        <time>2020-04-11T18:02:13Z</time>
      </trkpt>
      <trkpt lat="42.4770000" lon="-6.2602150">
        <ele>1099.0</ele>
        <time>2020-04-11T18:02:15Z</time>
      </trkpt>
      <trkpt lat="42.4770610" lon="-6.2602880">
        <ele>1099.3</ele>
        <time>2020-04-11T18:02:17Z</time>
      </trkpt>
      <trkpt lat="42.4771230" lon="-6.2603620">
        <ele>1099.5</ele>
        <time>2020-04-11T18:02:19Z</time>
      </trkpt>
      <trkpt lat="42.4771850" lon="-6.2604360">
        <ele>1099.7</ele>
        <time>2020-04-11T18:02:21Z</time>
      </trkpt>
      <trkpt lat="42.4773460" lon="-6.2606270">
        <ele>1100.3</ele>
        <time>2020-04-11T18:02:23Z</time>
      </trkpt>
      <trkpt lat="42.4774140" lon="-6.2607070">
        <ele>1100.5</ele>
        <time>2020-04-11T18:02:25Z</time>
      </trkpt>
      <trkpt lat="42.4774840" lon="-6.2607910">
        <ele>1100.7</ele>
        <time>2020-04-11T18:02:27Z</time>
      </trkpt>
      <trkpt lat="42.4775570" lon="-6.2608770">
        <ele>1100.9</ele>
        <time>2020-04-11T18:02:29Z</time>
      </trkpt>
      <trkpt lat="42.4777050" lon="-6.2611030">
        <ele>1101.1</ele>
        <time>2020-04-11T18:02:31Z</time>
      </trkpt>
      <trkpt lat="42.4777710" lon="-6.2612810">
        <ele>1101.2</ele>
        <time>2020-04-11T18:02:33Z</time>
      </trkpt>
      <trkpt lat="42.4777990" lon="-6.2614060">
        <ele>1101.3</ele>
        <time>2020-04-11T18:02:35Z</time>
      </trkpt>
      <trkpt lat="42.4778260" lon="-6.2615300">
        <ele>1101.3</ele>
        <time>2020-04-11T18:02:37Z</time>
      </trkpt>
      <trkpt lat="42.4778830" lon="-6.2617960">
        <ele>1101.2</ele>
        <time>2020-04-11T18:02:39Z</time>
      </trkpt>
      <trkpt lat="42.4779010" lon="-6.2619310">
        <ele>1101.1</ele>
        <time>2020-04-11T18:02:41Z</time>
      </trkpt>
      <trkpt lat="42.4779200" lon="-6.2620750">
        <ele>1101.0</ele>
        <time>2020-04-11T18:02:43Z</time>
      </trkpt>
      <trkpt lat="42.4779400" lon="-6.2622250">
        <ele>1100.9</ele>
        <time>2020-04-11T18:02:45Z</time>
      </trkpt>
      <trkpt lat="42.4779620" lon="-6.2623840">
        <ele>1100.8</ele>
        <time>2020-04-11T18:02:47Z</time>
      </trkpt>
      <trkpt lat="42.4780200" lon="-6.2628240">
        <ele>1100.4</ele>
        <time>2020-04-11T18:02:49Z</time>
      </trkpt>
      <trkpt lat="42.4780420" lon="-6.2629910">
        <ele>1100.3</ele>
        <time>2020-04-11T18:02:51Z</time>
      </trkpt>
      <trkpt lat="42.4780650" lon="-6.2631650">
        <ele>1100.1</ele>
        <time>2020-04-11T18:02:53Z</time>
      </trkpt>
      <trkpt lat="42.4780890" lon="-6.2633410">
        <ele>1099.9</ele>
        <time>2020-04-11T18:02:55Z</time>
      </trkpt>
      <trkpt lat="42.4781130" lon="-6.2635200">
        <ele>1099.7</ele>
        <time>2020-04-11T18:02:57Z</time>
      </trkpt>
      <trkpt lat="42.4781740" lon="-6.2639810">
        <ele>1099.0</ele>
        <time>2020-04-11T18:02:59Z</time>
      </trkpt>
      <trkpt lat="42.4781990" lon="-6.2641670">
        <ele>1098.8</ele>
        <time>2020-04-11T18:03:01Z</time>
      </trkpt>
      <trkpt lat="42.4782230" lon="-6.2643540">
        <ele>1098.6</ele>
        <time>2020-04-11T18:03:03Z</time>
      </trkpt>
      <trkpt lat="42.4782480" lon="-6.2645400">
        <ele>1098.4</ele>
        <time>2020-04-11T18:03:05Z</time>
      </trkpt>
      <trkpt lat="42.4783100" lon="-6.2650050">
        <ele>1097.8</ele>
        <time>2020-04-11T18:03:07Z</time>
      </trkpt>
      <trkpt lat="42.4783370" lon="-6.2651950">
        <ele>1097.6</ele>
        <time>2020-04-11T18:03:09Z</time>
      </trkpt>
      <trkpt lat="42.4783640" lon="-6.2653860">
        <ele>1097.4</ele>
        <time>2020-04-11T18:03:11Z</time>
      </trkpt>
      <trkpt lat="42.4783900" lon="-6.2655780">
        <ele>1097.3</ele>
        <time>2020-04-11T18:03:13Z</time>
      </trkpt>
      <trkpt lat="42.4784580" lon="-6.2660650">
        <ele>1097.0</ele>
        <time>2020-04-11T18:03:15Z</time>
      </trkpt>
      <trkpt lat="42.4784850" lon="-6.2662550">
        <ele>1096.9</ele>
        <time>2020-04-11T18:03:17Z</time>
      </trkpt>
      <trkpt lat="42.4785110" lon="-6.2664410">
        <ele>1096.9</ele>
        <time>2020-04-11T18:03:19Z</time>
      </trkpt>
      <trkpt lat="42.4785360" lon="-6.2666250">
        <ele>1096.9</ele>
        <time>2020-04-11T18:03:21Z</time>
      </trkpt>
      <trkpt lat="42.4785620" lon="-6.2668060">
        <ele>1096.9</ele>
        <time>2020-04-11T18:03:23Z</time>
      </trkpt>
      <trkpt lat="42.4786280" lon="-6.2672790">
        <ele>1097.0</ele>
        <time>2020-04-11T18:03:25Z</time>
      </trkpt>
      <trkpt lat="42.4786520" lon="-6.2674560">
        <ele>1097.0</ele>
        <time>2020-04-11T18:03:27Z</time>
      </trkpt>
      <trkpt lat="42.4786770" lon="-6.2676300">
        <ele>1097.2</ele>
        <time>2020-04-11T18:03:29Z</time>
      </trkpt>
      <trkpt lat="42.4787010" lon="-6.2678030">
        <ele>1097.2</ele>
        <time>2020-04-11T18:03:31Z</time>
      </trkpt>
      <trkpt lat="42.4787240" lon="-6.2679720">
        <ele>1097.0</ele>
        <time>2020-04-11T18:03:33Z</time>
      </trkpt>
      <trkpt lat="42.4787880" lon="-6.2684360">
        <ele>1097.0</ele>
        <time>2020-04-11T18:03:35Z</time>
      </trkpt>
      <trkpt lat="42.4788100" lon="-6.2685990">
        <ele>1097.0</ele>
        <time>2020-04-11T18:03:37Z</time>
      </trkpt>
      <trkpt lat="42.4788300" lon="-6.2687550">
        <ele>1097.0</ele>
        <time>2020-04-11T18:03:39Z</time>
      </trkpt>
      <trkpt lat="42.4788500" lon="-6.2689070">
        <ele>1097.1</ele>
        <time>2020-04-11T18:03:41Z</time>
      </trkpt>
      <trkpt lat="42.4788700" lon="-6.2690550">
        <ele>1097.4</ele>
        <time>2020-04-11T18:03:43Z</time>
      </trkpt>
      <trkpt lat="42.4789300" lon="-6.2695070">
        <ele>1098.0</ele>
        <time>2020-04-11T18:03:45Z</time>
      </trkpt>
      <trkpt lat="42.4789480" lon="-6.2696470">
        <ele>1098.1</ele>
        <time>2020-04-11T18:03:47Z</time>
      </trkpt>
      <trkpt lat="42.4789670" lon="-6.2697890">
        <ele>1098.3</ele>
        <time>2020-04-11T18:03:49Z</time>
      </trkpt>
      <trkpt lat="42.4789860" lon="-6.2699300">
        <ele>1098.6</ele>
        <time>2020-04-11T18:03:51Z</time>
      </trkpt>
      <trkpt lat="42.4790050" lon="-6.2700720">
        <ele>1098.9</ele>
        <time>2020-04-11T18:03:53Z</time>
      </trkpt>
      <trkpt lat="42.4790230" lon="-6.2702130">
        <ele>1099.2</ele>
        <time>2020-04-11T18:03:55Z</time>
      </trkpt>
      <trkpt lat="42.4790810" lon="-6.2706600">
        <ele>1100.0</ele>
        <time>2020-04-11T18:03:57Z</time>
      </trkpt>
      <trkpt lat="42.4790900" lon="-6.2708560">
        <ele>1100.3</ele>
        <time>2020-04-11T18:03:59Z</time>
      </trkpt>
      <trkpt lat="42.4790790" lon="-6.2710400">
        <ele>1100.7</ele>
        <time>2020-04-11T18:04:01Z</time>
      </trkpt>
      <trkpt lat="42.4790620" lon="-6.2711760">
        <ele>1101.0</ele>
        <time>2020-04-11T18:04:03Z</time>
      </trkpt>
      <trkpt lat="42.4790450" lon="-6.2713090">
        <ele>1101.4</ele>
        <time>2020-04-11T18:04:05Z</time>
      </trkpt>
      <trkpt lat="42.4790290" lon="-6.2714410">
        <ele>1101.7</ele>
        <time>2020-04-11T18:04:07Z</time>
      </trkpt>
      <trkpt lat="42.4790120" lon="-6.2715710">
        <ele>1102.0</ele>
        <time>2020-04-11T18:04:09Z</time>
      </trkpt>
      <trkpt lat="42.4789700" lon="-6.2719110">
        <ele>1103.0</ele>
        <time>2020-04-11T18:04:11Z</time>
      </trkpt>
      <trkpt lat="42.4789540" lon="-6.2720400">
        <ele>1103.3</ele>
        <time>2020-04-11T18:04:13Z</time>
      </trkpt>
      <trkpt lat="42.4789380" lon="-6.2721670">
        <ele>1103.6</ele>
        <time>2020-04-11T18:04:15Z</time>
      </trkpt>
      <trkpt lat="42.4789220" lon="-6.2722940">
        <ele>1103.8</ele>
        <time>2020-04-11T18:04:17Z</time>
      </trkpt>
      <trkpt lat="42.4788800" lon="-6.2726310">
        <ele>1104.7</ele>
        <time>2020-04-11T18:04:19Z</time>
      </trkpt>
      <trkpt lat="42.4788900" lon="-6.2727520">
        <ele>1105.0</ele>
        <time>2020-04-11T18:04:21Z</time>
      </trkpt>
      <trkpt lat="42.4789120" lon="-6.2729230">
        <ele>1105.4</ele>
        <time>2020-04-11T18:04:23Z</time>
      </trkpt>
      <trkpt lat="42.4789340" lon="-6.2730220">
        <ele>1105.5</ele>
        <time>2020-04-11T18:04:25Z</time>
      </trkpt>
      <trkpt lat="42.4789740" lon="-6.2731690">
        <ele>1105.6</ele>
        <time>2020-04-11T18:04:27Z</time>
      </trkpt>
      <trkpt lat="42.4789990" lon="-6.2732530">
        <ele>1105.8</ele>
        <time>2020-04-11T18:04:29Z</time>
      </trkpt>
      <trkpt lat="42.4790240" lon="-6.2733340">
        <ele>1106.0</ele>
        <time>2020-04-11T18:04:31Z</time>
      </trkpt>
      <trkpt lat="42.4790470" lon="-6.2734120">
        <ele>1106.3</ele>
        <time>2020-04-11T18:04:33Z</time>
      </trkpt>
      <trkpt lat="42.4790700" lon="-6.2734870">
        <ele>1106.6</ele>
        <time>2020-04-11T18:04:35Z</time>
      </trkpt>
      <trkpt lat="42.4790920" lon="-6.2735600">
        <ele>1106.9</ele>
        <time>2020-04-11T18:04:37Z</time>
      </trkpt>
      <trkpt lat="42.4791700" lon="-6.2738170">
        <ele>1108.2</ele>
        <time>2020-04-11T18:04:39Z</time>
      </trkpt>
      <trkpt lat="42.4791960" lon="-6.2739040">
        <ele>1108.6</ele>
        <time>2020-04-11T18:04:41Z</time>
      </trkpt>
      <trkpt lat="42.4792260" lon="-6.2740030">
        <ele>1109.0</ele>
        <time>2020-04-11T18:04:43Z</time>
      </trkpt>
      <trkpt lat="42.4792570" lon="-6.2741070">
        <ele>1109.5</ele>
        <time>2020-04-11T18:04:45Z</time>
      </trkpt>
      <trkpt lat="42.4792900" lon="-6.2742150">
        <ele>1110.0</ele>
        <time>2020-04-11T18:04:47Z</time>
      </trkpt>
      <trkpt lat="42.4793760" lon="-6.2745090">
        <ele>1111.5</ele>
        <time>2020-04-11T18:04:49Z</time>
      </trkpt>
      <trkpt lat="42.4794020" lon="-6.2746230">
        <ele>1112.1</ele>
        <time>2020-04-11T18:04:51Z</time>
      </trkpt>
      <trkpt lat="42.4794270" lon="-6.2747390">
        <ele>1112.7</ele>
        <time>2020-04-11T18:04:53Z</time>
      </trkpt>
      <trkpt lat="42.4794530" lon="-6.2748560">
        <ele>1113.2</ele>
        <time>2020-04-11T18:04:55Z</time>
      </trkpt>
      <trkpt lat="42.4795150" lon="-6.2751350">
        <ele>1114.4</ele>
        <time>2020-04-11T18:04:57Z</time>
      </trkpt>
      <trkpt lat="42.4795410" lon="-6.2752530">
        <ele>1114.9</ele>
        <time>2020-04-11T18:04:59Z</time>
      </trkpt>
      <trkpt lat="42.4795670" lon="-6.2753720">
        <ele>1115.4</ele>
        <time>2020-04-11T18:05:01Z</time>
      </trkpt>
      <trkpt lat="42.4795930" lon="-6.2754890">
        <ele>1115.9</ele>
        <time>2020-04-11T18:05:03Z</time>
      </trkpt>
      <trkpt lat="42.4796540" lon="-6.2757670">
        <ele>1116.6</ele>
        <time>2020-04-11T18:05:05Z</time>
      </trkpt>
      <trkpt lat="42.4796780" lon="-6.2758850">
        <ele>1116.9</ele>
        <time>2020-04-11T18:05:07Z</time>
      </trkpt>
      <trkpt lat="42.4797020" lon="-6.2760030">
        <ele>1117.3</ele>
        <time>2020-04-11T18:05:09Z</time>
      </trkpt>
      <trkpt lat="42.4797260" lon="-6.2761200">
        <ele>1117.6</ele>
        <time>2020-04-11T18:05:11Z</time>
      </trkpt>
      <trkpt lat="42.4797500" lon="-6.2762360">
        <ele>1117.9</ele>
        <time>2020-04-11T18:05:13Z</time>
      </trkpt>
      <trkpt lat="42.4797740" lon="-6.2763520">
        <ele>1118.2</ele>
        <time>2020-04-11T18:05:15Z</time>
      </trkpt>
      <trkpt lat="42.4798500" lon="-6.2767250">
        <ele>1119.0</ele>
        <time>2020-04-11T18:05:17Z</time>
      </trkpt>
      <trkpt lat="42.4798740" lon="-6.2768420">
        <ele>1119.2</ele>
        <time>2020-04-11T18:05:19Z</time>
      </trkpt>
      <trkpt lat="42.4798980" lon="-6.2769590">
        <ele>1119.4</ele>
        <time>2020-04-11T18:05:21Z</time>
      </trkpt>
      <trkpt lat="42.4799220" lon="-6.2770750">
        <ele>1119.6</ele>
        <time>2020-04-11T18:05:23Z</time>
      </trkpt>
      <trkpt lat="42.4799450" lon="-6.2771920">
        <ele>1119.7</ele>
        <time>2020-04-11T18:05:25Z</time>
      </trkpt>
      <trkpt lat="42.4799690" lon="-6.2773070">
        <ele>1120.0</ele>
        <time>2020-04-11T18:05:27Z</time>
      </trkpt>
      <trkpt lat="42.4800450" lon="-6.2776800">
        <ele>1120.7</ele>
        <time>2020-04-11T18:05:29Z</time>
      </trkpt>
      <trkpt lat="42.4800690" lon="-6.2777950">
        <ele>1120.8</ele>
        <time>2020-04-11T18:05:31Z</time>
      </trkpt>
      <trkpt lat="42.4800920" lon="-6.2779070">
        <ele>1120.9</ele>
        <time>2020-04-11T18:05:33Z</time>
      </trkpt>
      <trkpt lat="42.4801150" lon="-6.2780180">
        <ele>1121.0</ele>
        <time>2020-04-11T18:05:35Z</time>
      </trkpt>
      <trkpt lat="42.4801370" lon="-6.2781290">
        <ele>1121.0</ele>
        <time>2020-04-11T18:05:37Z</time>
      </trkpt>
      <trkpt lat="42.4801600" lon="-6.2782380">
        <ele>1121.0</ele>
        <time>2020-04-11T18:05:39Z</time>
      </trkpt>
      <trkpt lat="42.4801820" lon="-6.2783450">
        <ele>1121.0</ele>
        <time>2020-04-11T18:05:41Z</time>
      </trkpt>
      <trkpt lat="42.4802860" lon="-6.2786820">
        <ele>1121.1</ele>
        <time>2020-04-11T18:05:43Z</time>
      </trkpt>
      <trkpt lat="42.4803500" lon="-6.2787920">
        <ele>1121.3</ele>
        <time>2020-04-11T18:05:45Z</time>
      </trkpt>
      <trkpt lat="42.4803940" lon="-6.2788830">
        <ele>1121.3</ele>
        <time>2020-04-11T18:05:47Z</time>
      </trkpt>
      <trkpt lat="42.4804840" lon="-6.2790650">
        <ele>1121.6</ele>
        <time>2020-04-11T18:05:49Z</time>
      </trkpt>
      <trkpt lat="42.4805390" lon="-6.2791430">
        <ele>1121.8</ele>
        <time>2020-04-11T18:05:51Z</time>
      </trkpt>
      <trkpt lat="42.4806330" lon="-6.2792780">
        <ele>1122.2</ele>
        <time>2020-04-11T18:05:53Z</time>
      </trkpt>
      <trkpt lat="42.4806700" lon="-6.2793740">
        <ele>1122.4</ele>
        <time>2020-04-11T18:05:55Z</time>
      </trkpt>
      <trkpt lat="42.4807080" lon="-6.2794700">
        <ele>1122.7</ele>
        <time>2020-04-11T18:05:57Z</time>
      </trkpt>
      <trkpt lat="42.4807450" lon="-6.2795650">
        <ele>1123.0</ele>
        <time>2020-04-11T18:05:59Z</time>
      </trkpt>
      <trkpt lat="42.4807820" lon="-6.2796610">
        <ele>1123.4</ele>
        <time>2020-04-11T18:06:01Z</time>
      </trkpt>
      <trkpt lat="42.4808200" lon="-6.2797570">
        <ele>1123.7</ele>
        <time>2020-04-11T18:06:03Z</time>
      </trkpt>
      <trkpt lat="42.4809370" lon="-6.2800540">
        <ele>1124.7</ele>
        <time>2020-04-11T18:06:05Z</time>
      </trkpt>
      <trkpt lat="42.4809780" lon="-6.2801460">
        <ele>1125.1</ele>
        <time>2020-04-11T18:06:07Z</time>
      </trkpt>
      <trkpt lat="42.4810200" lon="-6.2802380">
        <ele>1125.4</ele>
        <time>2020-04-11T18:06:09Z</time>
      </trkpt>
      <trkpt lat="42.4810620" lon="-6.2803290">
        <ele>1125.8</ele>
        <time>2020-04-11T18:06:11Z</time>
      </trkpt>
      <trkpt lat="42.4811040" lon="-6.2804200">
        <ele>1126.2</ele>
        <time>2020-04-11T18:06:13Z</time>
      </trkpt>
      <trkpt lat="42.4812190" lon="-6.2806630">
        <ele>1127.3</ele>
        <time>2020-04-11T18:06:15Z</time>
      </trkpt>
      <trkpt lat="42.4812650" lon="-6.2807460">
        <ele>1127.7</ele>
        <time>2020-04-11T18:06:17Z</time>
      </trkpt>
      <trkpt lat="42.4813090" lon="-6.2808260">
        <ele>1128.1</ele>
        <time>2020-04-11T18:06:19Z</time>
      </trkpt>
      <trkpt lat="42.4813530" lon="-6.2809040">
        <ele>1128.4</ele>
        <time>2020-04-11T18:06:21Z</time>
      </trkpt>
      <trkpt lat="42.4813950" lon="-6.2809800">
        <ele>1128.7</ele>
        <time>2020-04-11T18:06:23Z</time>
      </trkpt>
      <trkpt lat="42.4814360" lon="-6.2810540">
        <ele>1129.0</ele>
        <time>2020-04-11T18:06:25Z</time>
      </trkpt>
      <trkpt lat="42.4815580" lon="-6.2812940">
        <ele>1129.9</ele>
        <time>2020-04-11T18:06:27Z</time>
      </trkpt>
      <trkpt lat="42.4815730" lon="-6.2814080">
        <ele>1130.2</ele>
        <time>2020-04-11T18:06:29Z</time>
      </trkpt>
      <trkpt lat="42.4815770" lon="-6.2814990">
        <ele>1130.6</ele>
        <time>2020-04-11T18:06:31Z</time>
      </trkpt>
      <trkpt lat="42.4816000" lon="-6.2816480">
        <ele>1131.3</ele>
        <time>2020-04-11T18:06:33Z</time>
      </trkpt>
      <trkpt lat="42.4816370" lon="-6.2817810">
        <ele>1132.1</ele>
        <time>2020-04-11T18:06:35Z</time>
      </trkpt>
      <trkpt lat="42.4816630" lon="-6.2818530">
        <ele>1132.6</ele>
        <time>2020-04-11T18:06:37Z</time>
      </trkpt>
      <trkpt lat="42.4816850" lon="-6.2819150">
        <ele>1133.0</ele>
        <time>2020-04-11T18:06:39Z</time>
      </trkpt>
      <trkpt lat="42.4817060" lon="-6.2819720">
        <ele>1133.4</ele>
        <time>2020-04-11T18:06:41Z</time>
      </trkpt>
      <trkpt lat="42.4817250" lon="-6.2820260">
        <ele>1133.8</ele>
        <time>2020-04-11T18:06:43Z</time>
      </trkpt>
      <trkpt lat="42.4817430" lon="-6.2820770">
        <ele>1134.2</ele>
        <time>2020-04-11T18:06:45Z</time>
      </trkpt>
      <trkpt lat="42.4817610" lon="-6.2821280">
        <ele>1134.6</ele>
        <time>2020-04-11T18:06:47Z</time>
      </trkpt>
      <trkpt lat="42.4818310" lon="-6.2823240">
        <ele>1136.1</ele>
        <time>2020-04-11T18:06:49Z</time>
      </trkpt>
      <trkpt lat="42.4818450" lon="-6.2823760">
        <ele>1136.4</ele>
        <time>2020-04-11T18:06:51Z</time>
      </trkpt>
      <trkpt lat="42.4818590" lon="-6.2824280">
        <ele>1136.7</ele>
        <time>2020-04-11T18:06:53Z</time>
      </trkpt>
      <trkpt lat="42.4818730" lon="-6.2824780">
        <ele>1137.0</ele>
        <time>2020-04-11T18:06:55Z</time>
      </trkpt>
      <trkpt lat="42.4818870" lon="-6.2825300">
        <ele>1137.2</ele>
        <time>2020-04-11T18:06:57Z</time>
      </trkpt>
      <trkpt lat="42.4819000" lon="-6.2825820">
        <ele>1137.6</ele>
        <time>2020-04-11T18:06:59Z</time>
      </trkpt>
      <trkpt lat="42.4819140" lon="-6.2826330">
        <ele>1137.8</ele>
        <time>2020-04-11T18:07:01Z</time>
      </trkpt>
      <trkpt lat="42.4819280" lon="-6.2826840">
        <ele>1138.1</ele>
        <time>2020-04-11T18:07:03Z</time>
      </trkpt>
      <trkpt lat="42.4819420" lon="-6.2827370">
        <ele>1138.5</ele>
        <time>2020-04-11T18:07:05Z</time>
      </trkpt>
      <trkpt lat="42.4819570" lon="-6.2827910">
        <ele>1138.9</ele>
        <time>2020-04-11T18:07:07Z</time>
      </trkpt>
      <trkpt lat="42.4819710" lon="-6.2828440">
        <ele>1139.3</ele>
        <time>2020-04-11T18:07:09Z</time>
      </trkpt>
      <trkpt lat="42.4820400" lon="-6.2831010">
        <ele>1140.9</ele>
        <time>2020-04-11T18:07:11Z</time>
      </trkpt>
      <trkpt lat="42.4820520" lon="-6.2831530">
        <ele>1141.0</ele>
        <time>2020-04-11T18:07:13Z</time>
      </trkpt>
      <trkpt lat="42.4820650" lon="-6.2832060">
        <ele>1141.2</ele>
        <time>2020-04-11T18:07:15Z</time>
      </trkpt>
      <trkpt lat="42.4820770" lon="-6.2832570">
        <ele>1141.5</ele>
        <time>2020-04-11T18:07:17Z</time>
      </trkpt>
      <trkpt lat="42.4820890" lon="-6.2833090">
        <ele>1141.8</ele>
        <time>2020-04-11T18:07:19Z</time>
      </trkpt>
      <trkpt lat="42.4821010" lon="-6.2833610">
        <ele>1142.2</ele>
        <time>2020-04-11T18:07:21Z</time>
      </trkpt>
      <trkpt lat="42.4821130" lon="-6.2834130">
        <ele>1142.6</ele>
        <time>2020-04-11T18:07:23Z</time>
      </trkpt>
      <trkpt lat="42.4821250" lon="-6.2834650">
        <ele>1143.0</ele>
        <time>2020-04-11T18:07:25Z</time>
      </trkpt>
      <trkpt lat="42.4821370" lon="-6.2835170">
        <ele>1143.4</ele>
        <time>2020-04-11T18:07:27Z</time>
      </trkpt>
      <trkpt lat="42.4821500" lon="-6.2835690">
        <ele>1143.8</ele>
        <time>2020-04-11T18:07:29Z</time>
      </trkpt>
      <trkpt lat="42.4821620" lon="-6.2836210">
        <ele>1144.2</ele>
        <time>2020-04-11T18:07:31Z</time>
      </trkpt>
      <trkpt lat="42.4822210" lon="-6.2838740">
        <ele>1146.1</ele>
        <time>2020-04-11T18:07:33Z</time>
      </trkpt>
      <trkpt lat="42.4822320" lon="-6.2839330">
        <ele>1146.2</ele>
        <time>2020-04-11T18:07:35Z</time>
      </trkpt>
      <trkpt lat="42.4822440" lon="-6.2839980">
        <ele>1146.4</ele>
        <time>2020-04-11T18:07:37Z</time>
      </trkpt>
      <trkpt lat="42.4822560" lon="-6.2840630">
        <ele>1146.7</ele>
        <time>2020-04-11T18:07:39Z</time>
      </trkpt>
      <trkpt lat="42.4822690" lon="-6.2841290">
        <ele>1147.0</ele>
        <time>2020-04-11T18:07:41Z</time>
      </trkpt>
      <trkpt lat="42.4822960" lon="-6.2842940">
        <ele>1148.2</ele>
        <time>2020-04-11T18:07:43Z</time>
      </trkpt>
      <trkpt lat="42.4823030" lon="-6.2843620">
        <ele>1148.7</ele>
        <time>2020-04-11T18:07:45Z</time>
      </trkpt>
      <trkpt lat="42.4823100" lon="-6.2844290">
        <ele>1149.2</ele>
        <time>2020-04-11T18:07:47Z</time>
      </trkpt>
      <trkpt lat="42.4823170" lon="-6.2844970">
        <ele>1149.7</ele>
        <time>2020-04-11T18:07:49Z</time>
      </trkpt>
      <trkpt lat="42.4823250" lon="-6.2845650">
        <ele>1150.1</ele>
        <time>2020-04-11T18:07:51Z</time>
      </trkpt>
      <trkpt lat="42.4823320" lon="-6.2846320">
        <ele>1150.5</ele>
        <time>2020-04-11T18:07:53Z</time>
      </trkpt>
      <trkpt lat="42.4823390" lon="-6.2847010">
        <ele>1150.8</ele>
        <time>2020-04-11T18:07:55Z</time>
      </trkpt>
      <trkpt lat="42.4823470" lon="-6.2847700">
        <ele>1151.1</ele>
        <time>2020-04-11T18:07:57Z</time>
      </trkpt>
      <trkpt lat="42.4823540" lon="-6.2848380">
        <ele>1151.5</ele>
        <time>2020-04-11T18:07:59Z</time>
      </trkpt>
      <trkpt lat="42.4823610" lon="-6.2849070">
        <ele>1151.9</ele>
        <time>2020-04-11T18:08:01Z</time>
      </trkpt>
      <trkpt lat="42.4823960" lon="-6.2852330">
        <ele>1153.4</ele>
        <time>2020-04-11T18:08:03Z</time>
      </trkpt>
      <trkpt lat="42.4824050" lon="-6.2853160">
        <ele>1154.0</ele>
        <time>2020-04-11T18:08:05Z</time>
      </trkpt>
      <trkpt lat="42.4824160" lon="-6.2854160">
        <ele>1154.7</ele>
        <time>2020-04-11T18:08:07Z</time>
      </trkpt>
      <trkpt lat="42.4824280" lon="-6.2855260">
        <ele>1155.4</ele>
        <time>2020-04-11T18:08:09Z</time>
      </trkpt>
      <trkpt lat="42.4824400" lon="-6.2856390">
        <ele>1156.1</ele>
        <time>2020-04-11T18:08:11Z</time>
      </trkpt>
      <trkpt lat="42.4824520" lon="-6.2857520">
        <ele>1156.3</ele>
        <time>2020-04-11T18:08:13Z</time>
      </trkpt>
      <trkpt lat="42.4824640" lon="-6.2858630">
        <ele>1156.5</ele>
        <time>2020-04-11T18:08:15Z</time>
      </trkpt>
      <trkpt lat="42.4825060" lon="-6.2862320">
        <ele>1157.4</ele>
        <time>2020-04-11T18:08:17Z</time>
      </trkpt>
      <trkpt lat="42.4825270" lon="-6.2863410">
        <ele>1157.4</ele>
        <time>2020-04-11T18:08:19Z</time>
      </trkpt>
      <trkpt lat="42.4825470" lon="-6.2864490">
        <ele>1157.6</ele>
        <time>2020-04-11T18:08:21Z</time>
      </trkpt>
      <trkpt lat="42.4825670" lon="-6.2865560">
        <ele>1157.7</ele>
        <time>2020-04-11T18:08:23Z</time>
      </trkpt>
      <trkpt lat="42.4825870" lon="-6.2866620">
        <ele>1157.8</ele>
        <time>2020-04-11T18:08:25Z</time>
      </trkpt>
      <trkpt lat="42.4826470" lon="-6.2869480">
        <ele>1158.1</ele>
        <time>2020-04-11T18:08:27Z</time>
      </trkpt>
      <trkpt lat="42.4826770" lon="-6.2870500">
        <ele>1158.3</ele>
        <time>2020-04-11T18:08:29Z</time>
      </trkpt>
      <trkpt lat="42.4827070" lon="-6.2871560">
        <ele>1158.4</ele>
        <time>2020-04-11T18:08:31Z</time>
      </trkpt>
      <trkpt lat="42.4827380" lon="-6.2872610">
        <ele>1158.6</ele>
        <time>2020-04-11T18:08:33Z</time>
      </trkpt>
      <trkpt lat="42.4828030" lon="-6.2875140">
        <ele>1159.3</ele>
        <time>2020-04-11T18:08:35Z</time>
      </trkpt>
      <trkpt lat="42.4828230" lon="-6.2876230">
        <ele>1159.6</ele>
        <time>2020-04-11T18:08:37Z</time>
      </trkpt>
      <trkpt lat="42.4828610" lon="-6.2878350">
        <ele>1160.4</ele>
        <time>2020-04-11T18:08:39Z</time>
      </trkpt>
      <trkpt lat="42.4828740" lon="-6.2879470">
        <ele>1160.7</ele>
        <time>2020-04-11T18:08:41Z</time>
      </trkpt>
      <trkpt lat="42.4828870" lon="-6.2880600">
        <ele>1161.1</ele>
        <time>2020-04-11T18:08:43Z</time>
      </trkpt>
      <trkpt lat="42.4829000" lon="-6.2881720">
        <ele>1161.5</ele>
        <time>2020-04-11T18:08:45Z</time>
      </trkpt>
      <trkpt lat="42.4829130" lon="-6.2882840">
        <ele>1161.8</ele>
        <time>2020-04-11T18:08:47Z</time>
      </trkpt>
      <trkpt lat="42.4829450" lon="-6.2885760">
        <ele>1162.7</ele>
        <time>2020-04-11T18:08:49Z</time>
      </trkpt>
      <trkpt lat="42.4829530" lon="-6.2886820">
        <ele>1163.0</ele>
        <time>2020-04-11T18:08:51Z</time>
      </trkpt>
      <trkpt lat="42.4829610" lon="-6.2887860">
        <ele>1163.2</ele>
        <time>2020-04-11T18:08:53Z</time>
      </trkpt>
      <trkpt lat="42.4829690" lon="-6.2888900">
        <ele>1163.5</ele>
        <time>2020-04-11T18:08:55Z</time>
      </trkpt>
      <trkpt lat="42.4829720" lon="-6.2891300">
        <ele>1164.1</ele>
        <time>2020-04-11T18:08:57Z</time>
      </trkpt>
      <trkpt lat="42.4829650" lon="-6.2892300">
        <ele>1164.3</ele>
        <time>2020-04-11T18:08:59Z</time>
      </trkpt>
      <trkpt lat="42.4829490" lon="-6.2894340">
        <ele>1164.7</ele>
        <time>2020-04-11T18:09:01Z</time>
      </trkpt>
      <trkpt lat="42.4829280" lon="-6.2895300">
        <ele>1165.0</ele>
        <time>2020-04-11T18:09:03Z</time>
      </trkpt>
      <trkpt lat="42.4829080" lon="-6.2896240">
        <ele>1165.3</ele>
        <time>2020-04-11T18:09:05Z</time>
      </trkpt>
      <trkpt lat="42.4828870" lon="-6.2897180">
        <ele>1165.7</ele>
        <time>2020-04-11T18:09:07Z</time>
      </trkpt>
      <trkpt lat="42.4828670" lon="-6.2898120">
        <ele>1166.2</ele>
        <time>2020-04-11T18:09:09Z</time>
      </trkpt>
      <trkpt lat="42.4828470" lon="-6.2899060">
        <ele>1166.7</ele>
        <time>2020-04-11T18:09:11Z</time>
      </trkpt>
      <trkpt lat="42.4828260" lon="-6.2899980">
        <ele>1167.2</ele>
        <time>2020-04-11T18:09:13Z</time>
      </trkpt>
      <trkpt lat="42.4828060" lon="-6.2900910">
        <ele>1167.7</ele>
        <time>2020-04-11T18:09:15Z</time>
      </trkpt>
      <trkpt lat="42.4827400" lon="-6.2904300">
        <ele>1169.2</ele>
        <time>2020-04-11T18:09:17Z</time>
      </trkpt>
      <trkpt lat="42.4827280" lon="-6.2905380">
        <ele>1169.6</ele>
        <time>2020-04-11T18:09:19Z</time>
      </trkpt>
      <trkpt lat="42.4827140" lon="-6.2906510">
        <ele>1170.1</ele>
        <time>2020-04-11T18:09:21Z</time>
      </trkpt>
      <trkpt lat="42.4827000" lon="-6.2907680">
        <ele>1170.4</ele>
        <time>2020-04-11T18:09:23Z</time>
      </trkpt>
      <trkpt lat="42.4826650" lon="-6.2910640">
        <ele>1171.1</ele>
        <time>2020-04-11T18:09:25Z</time>
      </trkpt>
      <trkpt lat="42.4826510" lon="-6.2911840">
        <ele>1171.3</ele>
        <time>2020-04-11T18:09:27Z</time>
      </trkpt>
      <trkpt lat="42.4826370" lon="-6.2913050">
        <ele>1171.5</ele>
        <time>2020-04-11T18:09:29Z</time>
      </trkpt>
      <trkpt lat="42.4826220" lon="-6.2914280">
        <ele>1171.8</ele>
        <time>2020-04-11T18:09:31Z</time>
      </trkpt>
      <trkpt lat="42.4825910" lon="-6.2917290">
        <ele>1172.6</ele>
        <time>2020-04-11T18:09:33Z</time>
      </trkpt>
      <trkpt lat="42.4825950" lon="-6.2918460">
        <ele>1173.0</ele>
        <time>2020-04-11T18:09:35Z</time>
      </trkpt>
      <trkpt lat="42.4825990" lon="-6.2919570">
        <ele>1173.4</ele>
        <time>2020-04-11T18:09:37Z</time>
      </trkpt>
      <trkpt lat="42.4826030" lon="-6.2920610">
        <ele>1173.9</ele>
        <time>2020-04-11T18:09:39Z</time>
      </trkpt>
      <trkpt lat="42.4826140" lon="-6.2923080">
        <ele>1175.0</ele>
        <time>2020-04-11T18:09:41Z</time>
      </trkpt>
      <trkpt lat="42.4826260" lon="-6.2924020">
        <ele>1175.5</ele>
        <time>2020-04-11T18:09:43Z</time>
      </trkpt>
      <trkpt lat="42.4826370" lon="-6.2924930">
        <ele>1176.0</ele>
        <time>2020-04-11T18:09:45Z</time>
      </trkpt>
      <trkpt lat="42.4826480" lon="-6.2925810">
        <ele>1176.4</ele>
        <time>2020-04-11T18:09:47Z</time>
      </trkpt>
      <trkpt lat="42.4826580" lon="-6.2926670">
        <ele>1176.9</ele>
        <time>2020-04-11T18:09:49Z</time>
      </trkpt>
      <trkpt lat="42.4826830" lon="-6.2929060">
        <ele>1178.0</ele>
        <time>2020-04-11T18:09:51Z</time>
      </trkpt>
      <trkpt lat="42.4826870" lon="-6.2929910">
        <ele>1178.3</ele>
        <time>2020-04-11T18:09:53Z</time>
      </trkpt>
      <trkpt lat="42.4826910" lon="-6.2930760">
        <ele>1178.5</ele>
        <time>2020-04-11T18:09:55Z</time>
      </trkpt>
      <trkpt lat="42.4826960" lon="-6.2931600">
        <ele>1178.7</ele>
        <time>2020-04-11T18:09:57Z</time>
      </trkpt>
      <trkpt lat="42.4827000" lon="-6.2932440">
        <ele>1178.8</ele>
        <time>2020-04-11T18:09:59Z</time>
      </trkpt>
      <trkpt lat="42.4827160" lon="-6.2934830">
        <ele>1179.4</ele>
        <time>2020-04-11T18:10:01Z</time>
      </trkpt>
      <trkpt lat="42.4827270" lon="-6.2935690">
        <ele>1179.6</ele>
        <time>2020-04-11T18:10:03Z</time>
      </trkpt>
      <trkpt lat="42.4827390" lon="-6.2936590">
        <ele>1179.8</ele>
        <time>2020-04-11T18:10:05Z</time>
      </trkpt>
      <trkpt lat="42.4827520" lon="-6.2937500">
        <ele>1180.0</ele>
        <time>2020-04-11T18:10:07Z</time>
      </trkpt>
      <trkpt lat="42.4827840" lon="-6.2939790">
        <ele>1180.6</ele>
        <time>2020-04-11T18:10:09Z</time>
      </trkpt>
      <trkpt lat="42.4828010" lon="-6.2940710">
        <ele>1181.0</ele>
        <time>2020-04-11T18:10:11Z</time>
      </trkpt>
      <trkpt lat="42.4828180" lon="-6.2941630">
        <ele>1181.3</ele>
        <time>2020-04-11T18:10:13Z</time>
      </trkpt>
      <trkpt lat="42.4828360" lon="-6.2942550">
        <ele>1181.7</ele>
        <time>2020-04-11T18:10:15Z</time>
      </trkpt>
      <trkpt lat="42.4828530" lon="-6.2943460">
        <ele>1182.1</ele>
        <time>2020-04-11T18:10:17Z</time>
      </trkpt>
      <trkpt lat="42.4828700" lon="-6.2944380">
        <ele>1182.4</ele>
        <time>2020-04-11T18:10:19Z</time>
      </trkpt>
      <trkpt lat="42.4828880" lon="-6.2945300">
        <ele>1182.8</ele>
        <time>2020-04-11T18:10:21Z</time>
      </trkpt>
      <trkpt lat="42.4829050" lon="-6.2946220">
        <ele>1183.2</ele>
        <time>2020-04-11T18:10:23Z</time>
      </trkpt>
      <trkpt lat="42.4829680" lon="-6.2949530">
        <ele>1184.4</ele>
        <time>2020-04-11T18:10:25Z</time>
      </trkpt>
      <trkpt lat="42.4829870" lon="-6.2950570">
        <ele>1184.8</ele>
        <time>2020-04-11T18:10:27Z</time>
      </trkpt>
      <trkpt lat="42.4830080" lon="-6.2951660">
        <ele>1185.2</ele>
        <time>2020-04-11T18:10:29Z</time>
      </trkpt>
      <trkpt lat="42.4830280" lon="-6.2952740">
        <ele>1185.6</ele>
        <time>2020-04-11T18:10:31Z</time>
      </trkpt>
      <trkpt lat="42.4830480" lon="-6.2953800">
        <ele>1186.0</ele>
        <time>2020-04-11T18:10:33Z</time>
      </trkpt>
      <trkpt lat="42.4830680" lon="-6.2954820">
        <ele>1186.4</ele>
        <time>2020-04-11T18:10:35Z</time>
      </trkpt>
      <trkpt lat="42.4831200" lon="-6.2958190">
        <ele>1187.3</ele>
        <time>2020-04-11T18:10:37Z</time>
      </trkpt>
      <trkpt lat="42.4831200" lon="-6.2959740">
        <ele>1187.7</ele>
        <time>2020-04-11T18:10:39Z</time>
      </trkpt>
      <trkpt lat="42.4831120" lon="-6.2960720">
        <ele>1188.0</ele>
        <time>2020-04-11T18:10:41Z</time>
      </trkpt>
      <trkpt lat="42.4831040" lon="-6.2961700">
        <ele>1188.3</ele>
        <time>2020-04-11T18:10:43Z</time>
      </trkpt>
      <trkpt lat="42.4830910" lon="-6.2963660">
        <ele>1188.8</ele>
        <time>2020-04-11T18:10:45Z</time>
      </trkpt>
      <trkpt lat="42.4830950" lon="-6.2964590">
        <ele>1189.0</ele>
        <time>2020-04-11T18:10:47Z</time>
      </trkpt>
      <trkpt lat="42.4831030" lon="-6.2966080">
        <ele>1189.3</ele>
        <time>2020-04-11T18:10:49Z</time>
      </trkpt>
      <trkpt lat="42.4831140" lon="-6.2966920">
        <ele>1189.5</ele>
        <time>2020-04-11T18:10:51Z</time>
      </trkpt>
      <trkpt lat="42.4831240" lon="-6.2967750">
        <ele>1189.7</ele>
        <time>2020-04-11T18:10:53Z</time>
      </trkpt>
      <trkpt lat="42.4831350" lon="-6.2968610">
        <ele>1189.9</ele>
        <time>2020-04-11T18:10:55Z</time>
      </trkpt>
      <trkpt lat="42.4831640" lon="-6.2970470">
        <ele>1190.3</ele>
        <time>2020-04-11T18:10:57Z</time>
      </trkpt>
      <trkpt lat="42.4831800" lon="-6.2971240">
        <ele>1190.5</ele>
        <time>2020-04-11T18:10:59Z</time>
      </trkpt>
      <trkpt lat="42.4831960" lon="-6.2972020">
        <ele>1190.7</ele>
        <time>2020-04-11T18:11:01Z</time>
      </trkpt>
      <trkpt lat="42.4832110" lon="-6.2972780">
        <ele>1190.9</ele>
        <time>2020-04-11T18:11:03Z</time>
      </trkpt>
      <trkpt lat="42.4832270" lon="-6.2973520">
        <ele>1191.0</ele>
        <time>2020-04-11T18:11:05Z</time>
      </trkpt>
      <trkpt lat="42.4832420" lon="-6.2974260">
        <ele>1191.1</ele>
        <time>2020-04-11T18:11:07Z</time>
      </trkpt>
      <trkpt lat="42.4832960" lon="-6.2976800">
        <ele>1191.4</ele>
        <time>2020-04-11T18:11:09Z</time>
      </trkpt>
      <trkpt lat="42.4833200" lon="-6.2977620">
        <ele>1191.6</ele>
        <time>2020-04-11T18:11:11Z</time>
      </trkpt>
      <trkpt lat="42.4833440" lon="-6.2978460">
        <ele>1191.7</ele>
        <time>2020-04-11T18:11:13Z</time>
      </trkpt>
      <trkpt lat="42.4833700" lon="-6.2979340">
        <ele>1191.9</ele>
        <time>2020-04-11T18:11:15Z</time>
      </trkpt>
      <trkpt lat="42.4833960" lon="-6.2980230">
        <ele>1192.1</ele>
        <time>2020-04-11T18:11:17Z</time>
      </trkpt>
      <trkpt lat="42.4834230" lon="-6.2981140">
        <ele>1192.3</ele>
        <time>2020-04-11T18:11:19Z</time>
      </trkpt>
      <trkpt lat="42.4834490" lon="-6.2982040">
        <ele>1192.5</ele>
        <time>2020-04-11T18:11:21Z</time>
      </trkpt>
      <trkpt lat="42.4834760" lon="-6.2982950">
        <ele>1192.6</ele>
        <time>2020-04-11T18:11:23Z</time>
      </trkpt>
      <trkpt lat="42.4835020" lon="-6.2983860">
        <ele>1192.8</ele>
        <time>2020-04-11T18:11:25Z</time>
      </trkpt>
      <trkpt lat="42.4835960" lon="-6.2987560">
        <ele>1193.5</ele>
        <time>2020-04-11T18:11:27Z</time>
      </trkpt>
      <trkpt lat="42.4836180" lon="-6.2988650">
        <ele>1193.6</ele>
        <time>2020-04-11T18:11:29Z</time>
      </trkpt>
      <trkpt lat="42.4836610" lon="-6.2989340">
        <ele>1193.8</ele>
        <time>2020-04-11T18:11:31Z</time>
      </trkpt>
      <trkpt lat="42.4837030" lon="-6.2990010">
        <ele>1194.1</ele>
        <time>2020-04-11T18:11:33Z</time>
      </trkpt>
      <trkpt lat="42.4837440" lon="-6.2990660">
        <ele>1194.4</ele>
        <time>2020-04-11T18:11:35Z</time>
      </trkpt>
      <trkpt lat="42.4837870" lon="-6.2991340">
        <ele>1194.7</ele>
        <time>2020-04-11T18:11:37Z</time>
      </trkpt>
      <trkpt lat="42.4838300" lon="-6.2992040">
        <ele>1195.2</ele>
        <time>2020-04-11T18:11:39Z</time>
      </trkpt>
      <trkpt lat="42.4838720" lon="-6.2992720">
        <ele>1195.6</ele>
        <time>2020-04-11T18:11:41Z</time>
      </trkpt>
      <trkpt lat="42.4839150" lon="-6.2993410">
        <ele>1196.0</ele>
        <time>2020-04-11T18:11:43Z</time>
      </trkpt>
      <trkpt lat="42.4839590" lon="-6.2994100">
        <ele>1196.4</ele>
        <time>2020-04-11T18:11:45Z</time>
      </trkpt>
      <trkpt lat="42.4841330" lon="-6.2996890">
        <ele>1198.1</ele>
        <time>2020-04-11T18:11:47Z</time>
      </trkpt>
      <trkpt lat="42.4841760" lon="-6.2997570">
        <ele>1198.4</ele>
        <time>2020-04-11T18:11:49Z</time>
      </trkpt>
      <trkpt lat="42.4842190" lon="-6.2998260">
        <ele>1198.7</ele>
        <time>2020-04-11T18:11:51Z</time>
      </trkpt>
      <trkpt lat="42.4842620" lon="-6.2998950">
        <ele>1199.1</ele>
        <time>2020-04-11T18:11:53Z</time>
      </trkpt>
      <trkpt lat="42.4843050" lon="-6.2999640">
        <ele>1199.4</ele>
        <time>2020-04-11T18:11:55Z</time>
      </trkpt>
      <trkpt lat="42.4843480" lon="-6.3000320">
        <ele>1199.7</ele>
        <time>2020-04-11T18:11:57Z</time>
      </trkpt>
      <trkpt lat="42.4843910" lon="-6.3001010">
        <ele>1200.1</ele>
        <time>2020-04-11T18:11:59Z</time>
      </trkpt>
      <trkpt lat="42.4844340" lon="-6.3001700">
        <ele>1200.5</ele>
        <time>2020-04-11T18:12:01Z</time>
      </trkpt>
      <trkpt lat="42.4846070" lon="-6.3004480">
        <ele>1201.9</ele>
        <time>2020-04-11T18:12:03Z</time>
      </trkpt>
      <trkpt lat="42.4846480" lon="-6.3005120">
        <ele>1202.2</ele>
        <time>2020-04-11T18:12:05Z</time>
      </trkpt>
      <trkpt lat="42.4846860" lon="-6.3005730">
        <ele>1202.6</ele>
        <time>2020-04-11T18:12:07Z</time>
      </trkpt>
      <trkpt lat="42.4847220" lon="-6.3006310">
        <ele>1202.9</ele>
        <time>2020-04-11T18:12:09Z</time>
      </trkpt>
      <trkpt lat="42.4847570" lon="-6.3006870">
        <ele>1203.1</ele>
        <time>2020-04-11T18:12:11Z</time>
      </trkpt>
      <trkpt lat="42.4847910" lon="-6.3007420">
        <ele>1203.4</ele>
        <time>2020-04-11T18:12:13Z</time>
      </trkpt>
      <trkpt lat="42.4848250" lon="-6.3007960">
        <ele>1203.7</ele>
        <time>2020-04-11T18:12:15Z</time>
      </trkpt>
      <trkpt lat="42.4848580" lon="-6.3008490">
        <ele>1204.0</ele>
        <time>2020-04-11T18:12:17Z</time>
      </trkpt>
      <trkpt lat="42.4848920" lon="-6.3009030">
        <ele>1204.3</ele>
        <time>2020-04-11T18:12:19Z</time>
      </trkpt>
      <trkpt lat="42.4849250" lon="-6.3009570">
        <ele>1204.7</ele>
        <time>2020-04-11T18:12:21Z</time>
      </trkpt>
      <trkpt lat="42.4849590" lon="-6.3010100">
        <ele>1205.0</ele>
        <time>2020-04-11T18:12:23Z</time>
      </trkpt>
      <trkpt lat="42.4851180" lon="-6.3012770">
        <ele>1206.2</ele>
        <time>2020-04-11T18:12:25Z</time>
      </trkpt>
      <trkpt lat="42.4851470" lon="-6.3013340">
        <ele>1206.4</ele>
        <time>2020-04-11T18:12:27Z</time>
      </trkpt>
      <trkpt lat="42.4851760" lon="-6.3013910">
        <ele>1206.7</ele>
        <time>2020-04-11T18:12:29Z</time>
      </trkpt>
      <trkpt lat="42.4852040" lon="-6.3014480">
        <ele>1207.1</ele>
        <time>2020-04-11T18:12:31Z</time>
      </trkpt>
      <trkpt lat="42.4852330" lon="-6.3015060">
        <ele>1207.5</ele>
        <time>2020-04-11T18:12:33Z</time>
      </trkpt>
      <trkpt lat="42.4852620" lon="-6.3015630">
        <ele>1207.9</ele>
        <time>2020-04-11T18:12:35Z</time>
      </trkpt>
      <trkpt lat="42.4853480" lon="-6.3017500">
        <ele>1209.3</ele>
        <time>2020-04-11T18:12:37Z</time>
      </trkpt>
      <trkpt lat="42.4853710" lon="-6.3018120">
        <ele>1209.7</ele>
        <time>2020-04-11T18:12:39Z</time>
      </trkpt>
      <trkpt lat="42.4853940" lon="-6.3018740">
        <ele>1210.2</ele>
        <time>2020-04-11T18:12:41Z</time>
      </trkpt>
      <trkpt lat="42.4854170" lon="-6.3019360">
        <ele>1210.6</ele>
        <time>2020-04-11T18:12:43Z</time>
      </trkpt>
      <trkpt lat="42.4854400" lon="-6.3019980">
        <ele>1211.0</ele>
        <time>2020-04-11T18:12:45Z</time>
      </trkpt>
      <trkpt lat="42.4854630" lon="-6.3020610">
        <ele>1211.4</ele>
        <time>2020-04-11T18:12:47Z</time>
      </trkpt>
      <trkpt lat="42.4854860" lon="-6.3021240">
        <ele>1211.8</ele>
        <time>2020-04-11T18:12:49Z</time>
      </trkpt>
      <trkpt lat="42.4855090" lon="-6.3021870">
        <ele>1212.3</ele>
        <time>2020-04-11T18:12:51Z</time>
      </trkpt>
      <trkpt lat="42.4855320" lon="-6.3022490">
        <ele>1212.7</ele>
        <time>2020-04-11T18:12:53Z</time>
      </trkpt>
      <trkpt lat="42.4856340" lon="-6.3025260">
        <ele>1214.6</ele>
        <time>2020-04-11T18:12:55Z</time>
      </trkpt>
      <trkpt lat="42.4856570" lon="-6.3025880">
        <ele>1215.0</ele>
        <time>2020-04-11T18:12:57Z</time>
      </trkpt>
      <trkpt lat="42.4856790" lon="-6.3026500">
        <ele>1215.4</ele>
        <time>2020-04-11T18:12:59Z</time>
      </trkpt>
      <trkpt lat="42.4857020" lon="-6.3027110">
        <ele>1215.8</ele>
        <time>2020-04-11T18:13:01Z</time>
      </trkpt>
      <trkpt lat="42.4857250" lon="-6.3027730">
        <ele>1216.2</ele>
        <time>2020-04-11T18:13:03Z</time>
      </trkpt>
      <trkpt lat="42.4857470" lon="-6.3028340">
        <ele>1216.6</ele>
        <time>2020-04-11T18:13:05Z</time>
      </trkpt>
      <trkpt lat="42.4857700" lon="-6.3028950">
        <ele>1217.0</ele>
        <time>2020-04-11T18:13:07Z</time>
      </trkpt>
      <trkpt lat="42.4857920" lon="-6.3029570">
        <ele>1217.4</ele>
        <time>2020-04-11T18:13:09Z</time>
      </trkpt>
      <trkpt lat="42.4858150" lon="-6.3030190">
        <ele>1217.8</ele>
        <time>2020-04-11T18:13:11Z</time>
      </trkpt>
      <trkpt lat="42.4858390" lon="-6.3030830">
        <ele>1218.2</ele>
        <time>2020-04-11T18:13:13Z</time>
      </trkpt>
      <trkpt lat="42.4859410" lon="-6.3033620">
        <ele>1219.9</ele>
        <time>2020-04-11T18:13:15Z</time>
      </trkpt>
      <trkpt lat="42.4859640" lon="-6.3034240">
        <ele>1220.3</ele>
        <time>2020-04-11T18:13:17Z</time>
      </trkpt>
      <trkpt lat="42.4859860" lon="-6.3034850">
        <ele>1220.7</ele>
        <time>2020-04-11T18:13:19Z</time>
      </trkpt>
      <trkpt lat="42.4860080" lon="-6.3035420">
        <ele>1221.1</ele>
        <time>2020-04-11T18:13:21Z</time>
      </trkpt>
      <trkpt lat="42.4860300" lon="-6.3036030">
        <ele>1221.5</ele>
        <time>2020-04-11T18:13:23Z</time>
      </trkpt>
      <trkpt lat="42.4860520" lon="-6.3036640">
        <ele>1221.8</ele>
        <time>2020-04-11T18:13:25Z</time>
      </trkpt>
      <trkpt lat="42.4860750" lon="-6.3037240">
        <ele>1222.2</ele>
        <time>2020-04-11T18:13:27Z</time>
      </trkpt>
      <trkpt lat="42.4860970" lon="-6.3037850">
        <ele>1222.5</ele>
        <time>2020-04-11T18:13:29Z</time>
      </trkpt>
      <trkpt lat="42.4861190" lon="-6.3038460">
        <ele>1222.9</ele>
        <time>2020-04-11T18:13:31Z</time>
      </trkpt>
      <trkpt lat="42.4861420" lon="-6.3039070">
        <ele>1223.3</ele>
        <time>2020-04-11T18:13:33Z</time>
      </trkpt>
      <trkpt lat="42.4862430" lon="-6.3041830">
        <ele>1225.1</ele>
        <time>2020-04-11T18:13:35Z</time>
      </trkpt>
      <trkpt lat="42.4862690" lon="-6.3042540">
        <ele>1225.5</ele>
        <time>2020-04-11T18:13:37Z</time>
      </trkpt>
      <trkpt lat="42.4862980" lon="-6.3043320">
        <ele>1225.9</ele>
        <time>2020-04-11T18:13:39Z</time>
      </trkpt>
      <trkpt lat="42.4863280" lon="-6.3044140">
        <ele>1226.3</ele>
        <time>2020-04-11T18:13:41Z</time>
      </trkpt>
      <trkpt lat="42.4863590" lon="-6.3044970">
        <ele>1226.7</ele>
        <time>2020-04-11T18:13:43Z</time>
      </trkpt>
      <trkpt lat="42.4863900" lon="-6.3045810">
        <ele>1227.2</ele>
        <time>2020-04-11T18:13:45Z</time>
      </trkpt>
      <trkpt lat="42.4864210" lon="-6.3046680">
        <ele>1227.6</ele>
        <time>2020-04-11T18:13:47Z</time>
      </trkpt>
      <trkpt lat="42.4864550" lon="-6.3047590">
        <ele>1228.0</ele>
        <time>2020-04-11T18:13:49Z</time>
      </trkpt>
      <trkpt lat="42.4865830" lon="-6.3050550">
        <ele>1229.1</ele>
        <time>2020-04-11T18:13:51Z</time>
      </trkpt>
      <trkpt lat="42.4866330" lon="-6.3051330">
        <ele>1229.3</ele>
        <time>2020-04-11T18:13:53Z</time>
      </trkpt>
      <trkpt lat="42.4866830" lon="-6.3052090">
        <ele>1229.4</ele>
        <time>2020-04-11T18:13:55Z</time>
      </trkpt>
      <trkpt lat="42.4867330" lon="-6.3052840">
        <ele>1229.7</ele>
        <time>2020-04-11T18:13:57Z</time>
      </trkpt>
      <trkpt lat="42.4867810" lon="-6.3053590">
        <ele>1230.0</ele>
        <time>2020-04-11T18:13:59Z</time>
      </trkpt>
      <trkpt lat="42.4868300" lon="-6.3054330">
        <ele>1230.3</ele>
        <time>2020-04-11T18:14:01Z</time>
      </trkpt>
      <trkpt lat="42.4868770" lon="-6.3055060">
        <ele>1230.7</ele>
        <time>2020-04-11T18:14:03Z</time>
      </trkpt>
      <trkpt lat="42.4869250" lon="-6.3055790">
        <ele>1231.0</ele>
        <time>2020-04-11T18:14:05Z</time>
      </trkpt>
      <trkpt lat="42.4871090" lon="-6.3058680">
        <ele>1232.3</ele>
        <time>2020-04-11T18:14:07Z</time>
      </trkpt>
      <trkpt lat="42.4871530" lon="-6.3059430">
        <ele>1232.7</ele>
        <time>2020-04-11T18:14:09Z</time>
      </trkpt>
      <trkpt lat="42.4871960" lon="-6.3060160">
        <ele>1233.0</ele>
        <time>2020-04-11T18:14:11Z</time>
      </trkpt>
      <trkpt lat="42.4872380" lon="-6.3060880">
        <ele>1233.3</ele>
        <time>2020-04-11T18:14:13Z</time>
      </trkpt>
      <trkpt lat="42.4873340" lon="-6.3062800">
        <ele>1234.3</ele>
        <time>2020-04-11T18:14:15Z</time>
      </trkpt>
      <trkpt lat="42.4873580" lon="-6.3063640">
        <ele>1234.6</ele>
        <time>2020-04-11T18:14:17Z</time>
      </trkpt>
      <trkpt lat="42.4873820" lon="-6.3064480">
        <ele>1235.0</ele>
        <time>2020-04-11T18:14:19Z</time>
      </trkpt>
      <trkpt lat="42.4874280" lon="-6.3066240">
        <ele>1235.7</ele>
        <time>2020-04-11T18:14:21Z</time>
      </trkpt>
      <trkpt lat="42.4874420" lon="-6.3067100">
        <ele>1236.0</ele>
        <time>2020-04-11T18:14:23Z</time>
      </trkpt>
      <trkpt lat="42.4874570" lon="-6.3067950">
        <ele>1236.4</ele>
        <time>2020-04-11T18:14:25Z</time>
      </trkpt>
      <trkpt lat="42.4874720" lon="-6.3068810">
        <ele>1236.7</ele>
        <time>2020-04-11T18:14:27Z</time>
      </trkpt>
      <trkpt lat="42.4874860" lon="-6.3069670">
        <ele>1237.0</ele>
        <time>2020-04-11T18:14:29Z</time>
      </trkpt>
      <trkpt lat="42.4875010" lon="-6.3070540">
        <ele>1237.4</ele>
        <time>2020-04-11T18:14:31Z</time>
      </trkpt>
      <trkpt lat="42.4875400" lon="-6.3073250">
        <ele>1238.7</ele>
        <time>2020-04-11T18:14:33Z</time>
      </trkpt>
      <trkpt lat="42.4875400" lon="-6.3074190">
        <ele>1239.2</ele>
        <time>2020-04-11T18:14:35Z</time>
      </trkpt>
      <trkpt lat="42.4875310" lon="-6.3075800">
        <ele>1240.1</ele>
        <time>2020-04-11T18:14:37Z</time>
      </trkpt>
      <trkpt lat="42.4875100" lon="-6.3076720">
        <ele>1240.6</ele>
        <time>2020-04-11T18:14:39Z</time>
      </trkpt>
      <trkpt lat="42.4874880" lon="-6.3077650">
        <ele>1241.0</ele>
        <time>2020-04-11T18:14:41Z</time>
      </trkpt>
      <trkpt lat="42.4874670" lon="-6.3078590">
        <ele>1241.5</ele>
        <time>2020-04-11T18:14:43Z</time>
      </trkpt>
      <trkpt lat="42.4874450" lon="-6.3079530">
        <ele>1241.9</ele>
        <time>2020-04-11T18:14:45Z</time>
      </trkpt>
      <trkpt lat="42.4874240" lon="-6.3080480">
        <ele>1242.3</ele>
        <time>2020-04-11T18:14:47Z</time>
      </trkpt>
      <trkpt lat="42.4873480" lon="-6.3083190">
        <ele>1243.5</ele>
        <time>2020-04-11T18:14:49Z</time>
      </trkpt>
      <trkpt lat="42.4872770" lon="-6.3084530">
        <ele>1244.1</ele>
        <time>2020-04-11T18:14:51Z</time>
      </trkpt>
      <trkpt lat="42.4872040" lon="-6.3085280">
        <ele>1244.6</ele>
        <time>2020-04-11T18:14:53Z</time>
      </trkpt>
      <trkpt lat="42.4871370" lon="-6.3085600">
        <ele>1245.0</ele>
        <time>2020-04-11T18:14:55Z</time>
      </trkpt>
      <trkpt lat="42.4870720" lon="-6.3085920">
        <ele>1245.3</ele>
        <time>2020-04-11T18:14:57Z</time>
      </trkpt>
      <trkpt lat="42.4870080" lon="-6.3086240">
        <ele>1245.7</ele>
        <time>2020-04-11T18:14:59Z</time>
      </trkpt>
      <trkpt lat="42.4869430" lon="-6.3086550">
        <ele>1246.1</ele>
        <time>2020-04-11T18:15:01Z</time>
      </trkpt>
      <trkpt lat="42.4868790" lon="-6.3086870">
        <ele>1246.5</ele>
        <time>2020-04-11T18:15:03Z</time>
      </trkpt>
      <trkpt lat="42.4866880" lon="-6.3087850">
        <ele>1247.6</ele>
        <time>2020-04-11T18:15:05Z</time>
      </trkpt>
      <trkpt lat="42.4866270" lon="-6.3088200">
        <ele>1248.0</ele>
        <time>2020-04-11T18:15:07Z</time>
      </trkpt>
      <trkpt lat="42.4865650" lon="-6.3088560">
        <ele>1248.4</ele>
        <time>2020-04-11T18:15:09Z</time>
      </trkpt>
      <trkpt lat="42.4864460" lon="-6.3089390">
        <ele>1249.2</ele>
        <time>2020-04-11T18:15:11Z</time>
      </trkpt>
      <trkpt lat="42.4863900" lon="-6.3089870">
        <ele>1249.6</ele>
        <time>2020-04-11T18:15:13Z</time>
      </trkpt>
      <trkpt lat="42.4862990" lon="-6.3090820">
        <ele>1250.2</ele>
        <time>2020-04-11T18:15:15Z</time>
      </trkpt>
      <trkpt lat="42.4862510" lon="-6.3091460">
        <ele>1250.5</ele>
        <time>2020-04-11T18:15:17Z</time>
      </trkpt>
      <trkpt lat="42.4861590" lon="-6.3092730">
        <ele>1251.1</ele>
        <time>2020-04-11T18:15:19Z</time>
      </trkpt>
      <trkpt lat="42.4861250" lon="-6.3093540">
        <ele>1251.2</ele>
        <time>2020-04-11T18:15:21Z</time>
      </trkpt>
      <trkpt lat="42.4860940" lon="-6.3094750">
        <ele>1251.5</ele>
        <time>2020-04-11T18:15:23Z</time>
      </trkpt>
      <trkpt lat="42.4860680" lon="-6.3096220">
        <ele>1252.1</ele>
        <time>2020-04-11T18:15:25Z</time>
      </trkpt>
      <trkpt lat="42.4860610" lon="-6.3097150">
        <ele>1252.5</ele>
        <time>2020-04-11T18:15:27Z</time>
      </trkpt>
      <trkpt lat="42.4860540" lon="-6.3098070">
        <ele>1252.9</ele>
        <time>2020-04-11T18:15:29Z</time>
      </trkpt>
      <trkpt lat="42.4860470" lon="-6.3098990">
        <ele>1253.3</ele>
        <time>2020-04-11T18:15:31Z</time>
      </trkpt>
      <trkpt lat="42.4860400" lon="-6.3099930">
        <ele>1253.8</ele>
        <time>2020-04-11T18:15:33Z</time>
      </trkpt>
      <trkpt lat="42.4860330" lon="-6.3100870">
        <ele>1254.3</ele>
        <time>2020-04-11T18:15:35Z</time>
      </trkpt>
      <trkpt lat="42.4860260" lon="-6.3101810">
        <ele>1254.8</ele>
        <time>2020-04-11T18:15:37Z</time>
      </trkpt>
      <trkpt lat="42.4860190" lon="-6.3102740">
        <ele>1255.2</ele>
        <time>2020-04-11T18:15:39Z</time>
      </trkpt>
      <trkpt lat="42.4860070" lon="-6.3106020">
        <ele>1256.8</ele>
        <time>2020-04-11T18:15:41Z</time>
      </trkpt>
      <trkpt lat="42.4860140" lon="-6.3106770">
        <ele>1257.1</ele>
        <time>2020-04-11T18:15:43Z</time>
      </trkpt>
      <trkpt lat="42.4860200" lon="-6.3107440">
        <ele>1257.4</ele>
        <time>2020-04-11T18:15:45Z</time>
      </trkpt>
      <trkpt lat="42.4860390" lon="-6.3108900">
        <ele>1258.1</ele>
        <time>2020-04-11T18:15:47Z</time>
      </trkpt>
      <trkpt lat="42.4860530" lon="-6.3109460">
        <ele>1258.4</ele>
        <time>2020-04-11T18:15:49Z</time>
      </trkpt>
      <trkpt lat="42.4860650" lon="-6.3110010">
        <ele>1258.6</ele>
        <time>2020-04-11T18:15:51Z</time>
      </trkpt>
      <trkpt lat="42.4860780" lon="-6.3110540">
        <ele>1258.9</ele>
        <time>2020-04-11T18:15:53Z</time>
      </trkpt>
      <trkpt lat="42.4860910" lon="-6.3111080">
        <ele>1259.1</ele>
        <time>2020-04-11T18:15:55Z</time>
      </trkpt>
      <trkpt lat="42.4861030" lon="-6.3111600">
        <ele>1259.4</ele>
        <time>2020-04-11T18:15:57Z</time>
      </trkpt>
      <trkpt lat="42.4861160" lon="-6.3112150">
        <ele>1259.7</ele>
        <time>2020-04-11T18:15:59Z</time>
      </trkpt>
      <trkpt lat="42.4861290" lon="-6.3112690">
        <ele>1259.9</ele>
        <time>2020-04-11T18:16:01Z</time>
      </trkpt>
      <trkpt lat="42.4861420" lon="-6.3113230">
        <ele>1260.2</ele>
        <time>2020-04-11T18:16:03Z</time>
      </trkpt>
      <trkpt lat="42.4861540" lon="-6.3113760">
        <ele>1260.4</ele>
        <time>2020-04-11T18:16:05Z</time>
      </trkpt>
      <trkpt lat="42.4861670" lon="-6.3114300">
        <ele>1260.7</ele>
        <time>2020-04-11T18:16:07Z</time>
      </trkpt>
      <trkpt lat="42.4861790" lon="-6.3114830">
        <ele>1260.9</ele>
        <time>2020-04-11T18:16:09Z</time>
      </trkpt>
      <trkpt lat="42.4862530" lon="-6.3117650">
        <ele>1262.2</ele>
        <time>2020-04-11T18:16:11Z</time>
      </trkpt>
      <trkpt lat="42.4862790" lon="-6.3118150">
        <ele>1262.4</ele>
        <time>2020-04-11T18:16:13Z</time>
      </trkpt>
      <trkpt lat="42.4863070" lon="-6.3118680">
        <ele>1262.7</ele>
        <time>2020-04-11T18:16:15Z</time>
      </trkpt>
      <trkpt lat="42.4863670" lon="-6.3119800">
        <ele>1263.4</ele>
        <time>2020-04-11T18:16:17Z</time>
      </trkpt>
      <trkpt lat="42.4864010" lon="-6.3120270">
        <ele>1263.7</ele>
        <time>2020-04-11T18:16:19Z</time>
      </trkpt>
      <trkpt lat="42.4864350" lon="-6.3120750">
        <ele>1264.0</ele>
        <time>2020-04-11T18:16:21Z</time>
      </trkpt>
      <trkpt lat="42.4864680" lon="-6.3121220">
        <ele>1264.3</ele>
        <time>2020-04-11T18:16:23Z</time>
      </trkpt>
      <trkpt lat="42.4865020" lon="-6.3121690">
        <ele>1264.6</ele>
        <time>2020-04-11T18:16:25Z</time>
      </trkpt>
      <trkpt lat="42.4865360" lon="-6.3122170">
        <ele>1264.9</ele>
        <time>2020-04-11T18:16:27Z</time>
      </trkpt>
      <trkpt lat="42.4865690" lon="-6.3122640">
        <ele>1265.2</ele>
        <time>2020-04-11T18:16:29Z</time>
      </trkpt>
      <trkpt lat="42.4866030" lon="-6.3123110">
        <ele>1265.5</ele>
        <time>2020-04-11T18:16:31Z</time>
      </trkpt>
      <trkpt lat="42.4866370" lon="-6.3123580">
        <ele>1265.9</ele>
        <time>2020-04-11T18:16:33Z</time>
      </trkpt>
      <trkpt lat="42.4867710" lon="-6.3125470">
        <ele>1267.1</ele>
        <time>2020-04-11T18:16:35Z</time>
      </trkpt>
      <trkpt lat="42.4868050" lon="-6.3125940">
        <ele>1267.4</ele>
        <time>2020-04-11T18:16:37Z</time>
      </trkpt>
      <trkpt lat="42.4868390" lon="-6.3126410">
        <ele>1267.7</ele>
        <time>2020-04-11T18:16:39Z</time>
      </trkpt>
      <trkpt lat="42.4868720" lon="-6.3126890">
        <ele>1268.0</ele>
        <time>2020-04-11T18:16:41Z</time>
      </trkpt>
      <trkpt lat="42.4869060" lon="-6.3127360">
        <ele>1268.3</ele>
        <time>2020-04-11T18:16:43Z</time>
      </trkpt>
      <trkpt lat="42.4869400" lon="-6.3127840">
        <ele>1268.6</ele>
        <time>2020-04-11T18:16:45Z</time>
      </trkpt>
      <trkpt lat="42.4869740" lon="-6.3128310">
        <ele>1268.9</ele>
        <time>2020-04-11T18:16:47Z</time>
      </trkpt>
      <trkpt lat="42.4870080" lon="-6.3128780">
        <ele>1269.2</ele>
        <time>2020-04-11T18:16:49Z</time>
      </trkpt>
      <trkpt lat="42.4871440" lon="-6.3130650">
        <ele>1270.4</ele>
        <time>2020-04-11T18:16:51Z</time>
      </trkpt>
      <trkpt lat="42.4871880" lon="-6.3131100">
        <ele>1270.7</ele>
        <time>2020-04-11T18:16:53Z</time>
      </trkpt>
      <trkpt lat="42.4872340" lon="-6.3131580">
        <ele>1271.0</ele>
        <time>2020-04-11T18:16:55Z</time>
      </trkpt>
      <trkpt lat="42.4872820" lon="-6.3132080">
        <ele>1271.4</ele>
        <time>2020-04-11T18:16:57Z</time>
      </trkpt>
      <trkpt lat="42.4873310" lon="-6.3132580">
        <ele>1271.7</ele>
        <time>2020-04-11T18:16:59Z</time>
      </trkpt>
      <trkpt lat="42.4874550" lon="-6.3133790">
        <ele>1272.6</ele>
        <time>2020-04-11T18:17:01Z</time>
      </trkpt>
      <trkpt lat="42.4875070" lon="-6.3134240">
        <ele>1273.0</ele>
        <time>2020-04-11T18:17:03Z</time>
      </trkpt>
      <trkpt lat="42.4875600" lon="-6.3134700">
        <ele>1273.4</ele>
        <time>2020-04-11T18:17:05Z</time>
      </trkpt>
      <trkpt lat="42.4876120" lon="-6.3135150">
        <ele>1273.8</ele>
        <time>2020-04-11T18:17:07Z</time>
      </trkpt>
      <trkpt lat="42.4876640" lon="-6.3135600">
        <ele>1274.2</ele>
        <time>2020-04-11T18:17:09Z</time>
      </trkpt>
      <trkpt lat="42.4877160" lon="-6.3136050">
        <ele>1274.6</ele>
        <time>2020-04-11T18:17:11Z</time>
      </trkpt>
      <trkpt lat="42.4877680" lon="-6.3136510">
        <ele>1275.0</ele>
        <time>2020-04-11T18:17:13Z</time>
      </trkpt>
      <trkpt lat="42.4879560" lon="-6.3138230">
        <ele>1276.4</ele>
        <time>2020-04-11T18:17:15Z</time>
      </trkpt>
      <trkpt lat="42.4880050" lon="-6.3138920">
        <ele>1276.8</ele>
        <time>2020-04-11T18:17:17Z</time>
      </trkpt>
      <trkpt lat="42.4880570" lon="-6.3139640">
        <ele>1277.3</ele>
        <time>2020-04-11T18:17:19Z</time>
      </trkpt>
      <trkpt lat="42.4881560" lon="-6.3141190">
        <ele>1278.2</ele>
        <time>2020-04-11T18:17:21Z</time>
      </trkpt>
      <trkpt lat="42.4882110" lon="-6.3142560">
        <ele>1278.7</ele>
        <time>2020-04-11T18:17:23Z</time>
      </trkpt>
      <trkpt lat="42.4882280" lon="-6.3143890">
        <ele>1278.9</ele>
        <time>2020-04-11T18:17:25Z</time>
      </trkpt>
      <trkpt lat="42.4882020" lon="-6.3145140">
        <ele>1279.3</ele>
        <time>2020-04-11T18:17:27Z</time>
      </trkpt>
      <trkpt lat="42.4881590" lon="-6.3145980">
        <ele>1279.7</ele>
        <time>2020-04-11T18:17:29Z</time>
      </trkpt>
      <trkpt lat="42.4881170" lon="-6.3146790">
        <ele>1280.2</ele>
        <time>2020-04-11T18:17:31Z</time>
      </trkpt>
      <trkpt lat="42.4880430" lon="-6.3148390">
        <ele>1281.0</ele>
        <time>2020-04-11T18:17:33Z</time>
      </trkpt>
      <trkpt lat="42.4880070" lon="-6.3149300">
        <ele>1281.5</ele>
        <time>2020-04-11T18:17:35Z</time>
      </trkpt>
      <trkpt lat="42.4879660" lon="-6.3150950">
        <ele>1282.2</ele>
        <time>2020-04-11T18:17:37Z</time>
      </trkpt>
      <trkpt lat="42.4879510" lon="-6.3152010">
        <ele>1282.7</ele>
        <time>2020-04-11T18:17:39Z</time>
      </trkpt>
      <trkpt lat="42.4879360" lon="-6.3153070">
        <ele>1283.2</ele>
        <time>2020-04-11T18:17:41Z</time>
      </trkpt>
      <trkpt lat="42.4879320" lon="-6.3155230">
        <ele>1284.2</ele>
        <time>2020-04-11T18:17:43Z</time>
      </trkpt>
      <trkpt lat="42.4879580" lon="-6.3156690">
        <ele>1284.8</ele>
        <time>2020-04-11T18:17:45Z</time>
      </trkpt>
      <trkpt lat="42.4879810" lon="-6.3157700">
        <ele>1285.2</ele>
        <time>2020-04-11T18:17:47Z</time>
      </trkpt>
      <trkpt lat="42.4880030" lon="-6.3158710">
        <ele>1285.6</ele>
        <time>2020-04-11T18:17:49Z</time>
      </trkpt>
      <trkpt lat="42.4880260" lon="-6.3159720">
        <ele>1286.0</ele>
        <time>2020-04-11T18:17:51Z</time>
      </trkpt>
      <trkpt lat="42.4880480" lon="-6.3160720">
        <ele>1286.4</ele>
        <time>2020-04-11T18:17:53Z</time>
      </trkpt>
      <trkpt lat="42.4880710" lon="-6.3161720">
        <ele>1286.7</ele>
        <time>2020-04-11T18:17:55Z</time>
      </trkpt>
      <trkpt lat="42.4881400" lon="-6.3164770">
        <ele>1287.7</ele>
        <time>2020-04-11T18:17:57Z</time>
      </trkpt>
      <trkpt lat="42.4881580" lon="-6.3165600">
        <ele>1288.0</ele>
        <time>2020-04-11T18:17:59Z</time>
      </trkpt>
      <trkpt lat="42.4881760" lon="-6.3166370">
        <ele>1288.3</ele>
        <time>2020-04-11T18:18:01Z</time>
      </trkpt>
      <trkpt lat="42.4881920" lon="-6.3167090">
        <ele>1288.6</ele>
        <time>2020-04-11T18:18:03Z</time>
      </trkpt>
      <trkpt lat="42.4882070" lon="-6.3167770">
        <ele>1288.9</ele>
        <time>2020-04-11T18:18:05Z</time>
      </trkpt>
      <trkpt lat="42.4882230" lon="-6.3168470">
        <ele>1289.2</ele>
        <time>2020-04-11T18:18:07Z</time>
      </trkpt>
      <trkpt lat="42.4882390" lon="-6.3169200">
        <ele>1289.5</ele>
        <time>2020-04-11T18:18:09Z</time>
      </trkpt>
      <trkpt lat="42.4883040" lon="-6.3172000">
        <ele>1290.6</ele>
        <time>2020-04-11T18:18:11Z</time>
      </trkpt>
      <trkpt lat="42.4883320" lon="-6.3172650">
        <ele>1290.9</ele>
        <time>2020-04-11T18:18:13Z</time>
      </trkpt>
      <trkpt lat="42.4883610" lon="-6.3173320">
        <ele>1291.2</ele>
        <time>2020-04-11T18:18:15Z</time>
      </trkpt>
      <trkpt lat="42.4884210" lon="-6.3174720">
        <ele>1291.9</ele>
        <time>2020-04-11T18:18:17Z</time>
      </trkpt>
      <trkpt lat="42.4884590" lon="-6.3175290">
        <ele>1292.2</ele>
        <time>2020-04-11T18:18:19Z</time>
      </trkpt>
      <trkpt lat="42.4884970" lon="-6.3175860">
        <ele>1292.6</ele>
        <time>2020-04-11T18:18:21Z</time>
      </trkpt>
      <trkpt lat="42.4885350" lon="-6.3176430">
        <ele>1292.9</ele>
        <time>2020-04-11T18:18:23Z</time>
      </trkpt>
      <trkpt lat="42.4885740" lon="-6.3177010">
        <ele>1293.3</ele>
        <time>2020-04-11T18:18:25Z</time>
      </trkpt>
      <trkpt lat="42.4886120" lon="-6.3177590">
        <ele>1293.6</ele>
        <time>2020-04-11T18:18:27Z</time>
      </trkpt>
      <trkpt lat="42.4886510" lon="-6.3178160">
        <ele>1293.9</ele>
        <time>2020-04-11T18:18:29Z</time>
      </trkpt>
      <trkpt lat="42.4886890" lon="-6.3178740">
        <ele>1294.3</ele>
        <time>2020-04-11T18:18:31Z</time>
      </trkpt>
      <trkpt lat="42.4887270" lon="-6.3179300">
        <ele>1294.6</ele>
        <time>2020-04-11T18:18:33Z</time>
      </trkpt>
      <trkpt lat="42.4887650" lon="-6.3179870">
        <ele>1295.0</ele>
        <time>2020-04-11T18:18:35Z</time>
      </trkpt>
      <trkpt lat="42.4889340" lon="-6.3182390">
        <ele>1296.5</ele>
        <time>2020-04-11T18:18:37Z</time>
      </trkpt>
      <trkpt lat="42.4889670" lon="-6.3182860">
        <ele>1296.7</ele>
        <time>2020-04-11T18:18:39Z</time>
      </trkpt>
      <trkpt lat="42.4889960" lon="-6.3183250">
        <ele>1297.0</ele>
        <time>2020-04-11T18:18:41Z</time>
      </trkpt>
      <trkpt lat="42.4890210" lon="-6.3183610">
        <ele>1297.2</ele>
        <time>2020-04-11T18:18:43Z</time>
      </trkpt>
      <trkpt lat="42.4890460" lon="-6.3183950">
        <ele>1297.4</ele>
        <time>2020-04-11T18:18:45Z</time>
      </trkpt>
      <trkpt lat="42.4890690" lon="-6.3184270">
        <ele>1297.5</ele>
        <time>2020-04-11T18:18:47Z</time>
      </trkpt>
      <trkpt lat="42.4890930" lon="-6.3184600">
        <ele>1297.7</ele>
        <time>2020-04-11T18:18:49Z</time>
      </trkpt>
      <trkpt lat="42.4891170" lon="-6.3184940">
        <ele>1297.9</ele>
        <time>2020-04-11T18:18:51Z</time>
      </trkpt>
      <trkpt lat="42.4892150" lon="-6.3186280">
        <ele>1298.7</ele>
        <time>2020-04-11T18:18:53Z</time>
      </trkpt>
      <trkpt lat="42.4892410" lon="-6.3186580">
        <ele>1298.9</ele>
        <time>2020-04-11T18:18:55Z</time>
      </trkpt>
      <trkpt lat="42.4892670" lon="-6.3186880">
        <ele>1299.1</ele>
        <time>2020-04-11T18:18:57Z</time>
      </trkpt>
      <trkpt lat="42.4893240" lon="-6.3187530">
        <ele>1299.7</ele>
        <time>2020-04-11T18:18:59Z</time>
      </trkpt>
      <trkpt lat="42.4893530" lon="-6.3187770">
        <ele>1299.9</ele>
        <time>2020-04-11T18:19:02Z</time>
      </trkpt>
      <trkpt lat="42.4893810" lon="-6.3188010">
        <ele>1300.2</ele>
        <time>2020-04-11T18:19:04Z</time>
      </trkpt>
      <trkpt lat="42.4894100" lon="-6.3188250">
        <ele>1300.4</ele>
        <time>2020-04-11T18:19:06Z</time>
      </trkpt>
      <trkpt lat="42.4894390" lon="-6.3188490">
        <ele>1300.7</ele>
        <time>2020-04-11T18:19:08Z</time>
      </trkpt>
      <trkpt lat="42.4894670" lon="-6.3188730">
        <ele>1301.0</ele>
        <time>2020-04-11T18:19:10Z</time>
      </trkpt>
      <trkpt lat="42.4894960" lon="-6.3188970">
        <ele>1301.2</ele>
        <time>2020-04-11T18:19:12Z</time>
      </trkpt>
      <trkpt lat="42.4895240" lon="-6.3189210">
        <ele>1301.5</ele>
        <time>2020-04-11T18:19:14Z</time>
      </trkpt>
      <trkpt lat="42.4895530" lon="-6.3189450">
        <ele>1301.7</ele>
        <time>2020-04-11T18:19:16Z</time>
      </trkpt>
      <trkpt lat="42.4895820" lon="-6.3189690">
        <ele>1302.0</ele>
        <time>2020-04-11T18:19:18Z</time>
      </trkpt>
      <trkpt lat="42.4897070" lon="-6.3190850">
        <ele>1303.2</ele>
        <time>2020-04-11T18:19:20Z</time>
      </trkpt>
      <trkpt lat="42.4897500" lon="-6.3191470">
        <ele>1303.7</ele>
        <time>2020-04-11T18:19:22Z</time>
      </trkpt>
      <trkpt lat="42.4898170" lon="-6.3192790">
        <ele>1304.7</ele>
        <time>2020-04-11T18:19:24Z</time>
      </trkpt>
      <trkpt lat="42.4898580" lon="-6.3194430">
        <ele>1305.7</ele>
        <time>2020-04-11T18:19:26Z</time>
      </trkpt>
      <trkpt lat="42.4898250" lon="-6.3195900">
        <ele>1306.6</ele>
        <time>2020-04-11T18:19:28Z</time>
      </trkpt>
      <trkpt lat="42.4897820" lon="-6.3197010">
        <ele>1307.4</ele>
        <time>2020-04-11T18:19:30Z</time>
      </trkpt>
      <trkpt lat="42.4897380" lon="-6.3198150">
        <ele>1308.1</ele>
        <time>2020-04-11T18:19:32Z</time>
      </trkpt>
      <trkpt lat="42.4896930" lon="-6.3199320">
        <ele>1308.8</ele>
        <time>2020-04-11T18:19:34Z</time>
      </trkpt>
      <trkpt lat="42.4895950" lon="-6.3202040">
        <ele>1310.4</ele>
        <time>2020-04-11T18:19:36Z</time>
      </trkpt>
      <trkpt lat="42.4895570" lon="-6.3203310">
        <ele>1311.0</ele>
        <time>2020-04-11T18:19:38Z</time>
      </trkpt>
      <trkpt lat="42.4895150" lon="-6.3205460">
        <ele>1312.0</ele>
        <time>2020-04-11T18:19:40Z</time>
      </trkpt>
      <trkpt lat="42.4894890" lon="-6.3207720">
        <ele>1312.9</ele>
        <time>2020-04-11T18:19:42Z</time>
      </trkpt>
      <trkpt lat="42.4894810" lon="-6.3209090">
        <ele>1313.5</ele>
        <time>2020-04-11T18:19:44Z</time>
      </trkpt>
      <trkpt lat="42.4894750" lon="-6.3210380">
        <ele>1314.1</ele>
        <time>2020-04-11T18:19:46Z</time>
      </trkpt>
      <trkpt lat="42.4894680" lon="-6.3211610">
        <ele>1314.6</ele>
        <time>2020-04-11T18:19:48Z</time>
      </trkpt>
      <trkpt lat="42.4894700" lon="-6.3214270">
        <ele>1315.8</ele>
        <time>2020-04-11T18:19:50Z</time>
      </trkpt>
      <trkpt lat="42.4894790" lon="-6.3215430">
        <ele>1316.2</ele>
        <time>2020-04-11T18:19:52Z</time>
      </trkpt>
      <trkpt lat="42.4895120" lon="-6.3217480">
        <ele>1317.1</ele>
        <time>2020-04-11T18:19:54Z</time>
      </trkpt>
      <trkpt lat="42.4895430" lon="-6.3218580">
        <ele>1317.6</ele>
        <time>2020-04-11T18:19:56Z</time>
      </trkpt>
      <trkpt lat="42.4895740" lon="-6.3219690">
        <ele>1318.2</ele>
        <time>2020-04-11T18:19:58Z</time>
      </trkpt>
      <trkpt lat="42.4896460" lon="-6.3222160">
        <ele>1319.4</ele>
        <time>2020-04-11T18:20:00Z</time>
      </trkpt>
      <trkpt lat="42.4897020" lon="-6.3223530">
        <ele>1320.0</ele>
        <time>2020-04-11T18:20:02Z</time>
      </trkpt>
      <trkpt lat="42.4897470" lon="-6.3224340">
        <ele>1320.4</ele>
        <time>2020-04-11T18:20:04Z</time>
      </trkpt>
      <trkpt lat="42.4898170" lon="-6.3225470">
        <ele>1321.0</ele>
        <time>2020-04-11T18:20:06Z</time>
      </trkpt>
      <trkpt lat="42.4898630" lon="-6.3226100">
        <ele>1321.4</ele>
        <time>2020-04-11T18:20:08Z</time>
      </trkpt>
      <trkpt lat="42.4899070" lon="-6.3226700">
        <ele>1321.7</ele>
        <time>2020-04-11T18:20:10Z</time>
      </trkpt>
      <trkpt lat="42.4899500" lon="-6.3227290">
        <ele>1322.0</ele>
        <time>2020-04-11T18:20:12Z</time>
      </trkpt>
      <trkpt lat="42.4899910" lon="-6.3227850">
        <ele>1322.4</ele>
        <time>2020-04-11T18:20:14Z</time>
      </trkpt>
      <trkpt lat="42.4900320" lon="-6.3228400">
        <ele>1322.7</ele>
        <time>2020-04-11T18:20:16Z</time>
      </trkpt>
      <trkpt lat="42.4900720" lon="-6.3228950">
        <ele>1323.0</ele>
        <time>2020-04-11T18:20:18Z</time>
      </trkpt>
      <trkpt lat="42.4902180" lon="-6.3230950">
        <ele>1324.3</ele>
        <time>2020-04-11T18:20:20Z</time>
      </trkpt>
      <trkpt lat="42.4902570" lon="-6.3231480">
        <ele>1324.7</ele>
        <time>2020-04-11T18:20:22Z</time>
      </trkpt>
      <trkpt lat="42.4902950" lon="-6.3232000">
        <ele>1325.0</ele>
        <time>2020-04-11T18:20:24Z</time>
      </trkpt>
      <trkpt lat="42.4903340" lon="-6.3232530">
        <ele>1325.3</ele>
        <time>2020-04-11T18:20:26Z</time>
      </trkpt>
      <trkpt lat="42.4903730" lon="-6.3233060">
        <ele>1325.6</ele>
        <time>2020-04-11T18:20:28Z</time>
      </trkpt>
      <trkpt lat="42.4904120" lon="-6.3233590">
        <ele>1325.9</ele>
        <time>2020-04-11T18:20:30Z</time>
      </trkpt>
      <trkpt lat="42.4904510" lon="-6.3234130">
        <ele>1326.2</ele>
        <time>2020-04-11T18:20:32Z</time>
      </trkpt>
      <trkpt lat="42.4904900" lon="-6.3234660">
        <ele>1326.5</ele>
        <time>2020-04-11T18:20:34Z</time>
      </trkpt>
      <trkpt lat="42.4906290" lon="-6.3236710">
        <ele>1327.4</ele>
        <time>2020-04-11T18:20:36Z</time>
      </trkpt>
      <trkpt lat="42.4906590" lon="-6.3237340">
        <ele>1327.6</ele>
        <time>2020-04-11T18:20:38Z</time>
      </trkpt>
      <trkpt lat="42.4907040" lon="-6.3238450">
        <ele>1328.0</ele>
        <time>2020-04-11T18:20:40Z</time>
      </trkpt>
      <trkpt lat="42.4907260" lon="-6.3239110">
        <ele>1328.1</ele>
        <time>2020-04-11T18:20:42Z</time>
      </trkpt>
      <trkpt lat="42.4907470" lon="-6.3239770">
        <ele>1328.3</ele>
        <time>2020-04-11T18:20:44Z</time>
      </trkpt>
      <trkpt lat="42.4907930" lon="-6.3241240">
        <ele>1328.6</ele>
        <time>2020-04-11T18:20:46Z</time>
      </trkpt>
      <trkpt lat="42.4908080" lon="-6.3241920">
        <ele>1328.8</ele>
        <time>2020-04-11T18:20:48Z</time>
      </trkpt>
      <trkpt lat="42.4908230" lon="-6.3242580">
        <ele>1329.0</ele>
        <time>2020-04-11T18:20:50Z</time>
      </trkpt>
      <trkpt lat="42.4908380" lon="-6.3243260">
        <ele>1329.1</ele>
        <time>2020-04-11T18:20:52Z</time>
      </trkpt>
      <trkpt lat="42.4908530" lon="-6.3243930">
        <ele>1329.3</ele>
        <time>2020-04-11T18:20:54Z</time>
      </trkpt>
      <trkpt lat="42.4908680" lon="-6.3244600">
        <ele>1329.5</ele>
        <time>2020-04-11T18:20:56Z</time>
      </trkpt>
      <trkpt lat="42.4908830" lon="-6.3245280">
        <ele>1329.6</ele>
        <time>2020-04-11T18:20:58Z</time>
      </trkpt>
      <trkpt lat="42.4908980" lon="-6.3245950">
        <ele>1329.8</ele>
        <time>2020-04-11T18:21:00Z</time>
      </trkpt>
      <trkpt lat="42.4909130" lon="-6.3246620">
        <ele>1329.9</ele>
        <time>2020-04-11T18:21:02Z</time>
      </trkpt>
      <trkpt lat="42.4909280" lon="-6.3247290">
        <ele>1330.1</ele>
        <time>2020-04-11T18:21:04Z</time>
      </trkpt>
      <trkpt lat="42.4909430" lon="-6.3247950">
        <ele>1330.2</ele>
        <time>2020-04-11T18:21:06Z</time>
      </trkpt>
      <trkpt lat="42.4909580" lon="-6.3248620">
        <ele>1330.4</ele>
        <time>2020-04-11T18:21:08Z</time>
      </trkpt>
      <trkpt lat="42.4910370" lon="-6.3252170">
        <ele>1331.4</ele>
        <time>2020-04-11T18:21:10Z</time>
      </trkpt>
      <trkpt lat="42.4910520" lon="-6.3252850">
        <ele>1331.6</ele>
        <time>2020-04-11T18:21:12Z</time>
      </trkpt>
      <trkpt lat="42.4910670" lon="-6.3253550">
        <ele>1331.8</ele>
        <time>2020-04-11T18:21:14Z</time>
      </trkpt>
      <trkpt lat="42.4910830" lon="-6.3254270">
        <ele>1332.0</ele>
        <time>2020-04-11T18:21:16Z</time>
      </trkpt>
      <trkpt lat="42.4910990" lon="-6.3254970">
        <ele>1332.2</ele>
        <time>2020-04-11T18:21:18Z</time>
      </trkpt>
      <trkpt lat="42.4911150" lon="-6.3255690">
        <ele>1332.4</ele>
        <time>2020-04-11T18:21:20Z</time>
      </trkpt>
      <trkpt lat="42.4911310" lon="-6.3256400">
        <ele>1332.6</ele>
        <time>2020-04-11T18:21:22Z</time>
      </trkpt>
      <trkpt lat="42.4911460" lon="-6.3257100">
        <ele>1332.8</ele>
        <time>2020-04-11T18:21:24Z</time>
      </trkpt>
      <trkpt lat="42.4911620" lon="-6.3257820">
        <ele>1333.0</ele>
        <time>2020-04-11T18:21:26Z</time>
      </trkpt>
      <trkpt lat="42.4911780" lon="-6.3258530">
        <ele>1333.2</ele>
        <time>2020-04-11T18:21:28Z</time>
      </trkpt>
      <trkpt lat="42.4911940" lon="-6.3259240">
        <ele>1333.4</ele>
        <time>2020-04-11T18:21:30Z</time>
      </trkpt>
      <trkpt lat="42.4912100" lon="-6.3259950">
        <ele>1333.7</ele>
        <time>2020-04-11T18:21:32Z</time>
      </trkpt>
      <trkpt lat="42.4912850" lon="-6.3263560">
        <ele>1334.6</ele>
        <time>2020-04-11T18:21:34Z</time>
      </trkpt>
      <trkpt lat="42.4912920" lon="-6.3264300">
        <ele>1334.8</ele>
        <time>2020-04-11T18:21:36Z</time>
      </trkpt>
      <trkpt lat="42.4912950" lon="-6.3265600">
        <ele>1335.1</ele>
        <time>2020-04-11T18:21:38Z</time>
      </trkpt>
      <trkpt lat="42.4912680" lon="-6.3266710">
        <ele>1335.2</ele>
        <time>2020-04-11T18:21:40Z</time>
      </trkpt>
      <trkpt lat="42.4912170" lon="-6.3268040">
        <ele>1335.5</ele>
        <time>2020-04-11T18:21:42Z</time>
      </trkpt>
      <trkpt lat="42.4911720" lon="-6.3268890">
        <ele>1335.8</ele>
        <time>2020-04-11T18:21:44Z</time>
      </trkpt>
      <trkpt lat="42.4910970" lon="-6.3270080">
        <ele>1336.3</ele>
        <time>2020-04-11T18:21:46Z</time>
      </trkpt>
      <trkpt lat="42.4910170" lon="-6.3270960">
        <ele>1336.7</ele>
        <time>2020-04-11T18:21:48Z</time>
      </trkpt>
      <trkpt lat="42.4909550" lon="-6.3271470">
        <ele>1336.9</ele>
        <time>2020-04-11T18:21:50Z</time>
      </trkpt>
      <trkpt lat="42.4908940" lon="-6.3271970">
        <ele>1337.2</ele>
        <time>2020-04-11T18:21:52Z</time>
      </trkpt>
      <trkpt lat="42.4907720" lon="-6.3272880">
        <ele>1337.7</ele>
        <time>2020-04-11T18:21:54Z</time>
      </trkpt>
      <trkpt lat="42.4907110" lon="-6.3273290">
        <ele>1337.9</ele>
        <time>2020-04-11T18:21:56Z</time>
      </trkpt>
      <trkpt lat="42.4906490" lon="-6.3273690">
        <ele>1338.1</ele>
        <time>2020-04-11T18:21:58Z</time>
      </trkpt>
      <trkpt lat="42.4905880" lon="-6.3274100">
        <ele>1338.4</ele>
        <time>2020-04-11T18:22:00Z</time>
      </trkpt>
      <trkpt lat="42.4905270" lon="-6.3274500">
        <ele>1338.7</ele>
        <time>2020-04-11T18:22:02Z</time>
      </trkpt>
      <trkpt lat="42.4904670" lon="-6.3274900">
        <ele>1339.1</ele>
        <time>2020-04-11T18:22:04Z</time>
      </trkpt>
      <trkpt lat="42.4902640" lon="-6.3276240">
        <ele>1340.5</ele>
        <time>2020-04-11T18:22:06Z</time>
      </trkpt>
      <trkpt lat="42.4902090" lon="-6.3276600">
        <ele>1340.9</ele>
        <time>2020-04-11T18:22:08Z</time>
      </trkpt>
      <trkpt lat="42.4901590" lon="-6.3276930">
        <ele>1341.4</ele>
        <time>2020-04-11T18:22:10Z</time>
      </trkpt>
      <trkpt lat="42.4901130" lon="-6.3277240">
        <ele>1341.7</ele>
        <time>2020-04-11T18:22:12Z</time>
      </trkpt>
      <trkpt lat="42.4900690" lon="-6.3277530">
        <ele>1342.1</ele>
        <time>2020-04-11T18:22:14Z</time>
      </trkpt>
      <trkpt lat="42.4900280" lon="-6.3277800">
        <ele>1342.5</ele>
        <time>2020-04-11T18:22:16Z</time>
      </trkpt>
      <trkpt lat="42.4899860" lon="-6.3278070">
        <ele>1342.9</ele>
        <time>2020-04-11T18:22:18Z</time>
      </trkpt>
      <trkpt lat="42.4899440" lon="-6.3278350">
        <ele>1343.3</ele>
        <time>2020-04-11T18:22:20Z</time>
      </trkpt>
      <trkpt lat="42.4898970" lon="-6.3278660">
        <ele>1343.7</ele>
        <time>2020-04-11T18:22:22Z</time>
      </trkpt>
      <trkpt lat="42.4897150" lon="-6.3280100">
        <ele>1345.7</ele>
        <time>2020-04-11T18:22:24Z</time>
      </trkpt>
      <trkpt lat="42.4896790" lon="-6.3280680">
        <ele>1346.2</ele>
        <time>2020-04-11T18:22:26Z</time>
      </trkpt>
      <trkpt lat="42.4896420" lon="-6.3281260">
        <ele>1346.7</ele>
        <time>2020-04-11T18:22:28Z</time>
      </trkpt>
      <trkpt lat="42.4896050" lon="-6.3281860">
        <ele>1347.2</ele>
        <time>2020-04-11T18:22:30Z</time>
      </trkpt>
      <trkpt lat="42.4895680" lon="-6.3282450">
        <ele>1347.6</ele>
        <time>2020-04-11T18:22:32Z</time>
      </trkpt>
      <trkpt lat="42.4895310" lon="-6.3283040">
        <ele>1348.1</ele>
        <time>2020-04-11T18:22:34Z</time>
      </trkpt>
      <trkpt lat="42.4894940" lon="-6.3283640">
        <ele>1348.6</ele>
        <time>2020-04-11T18:22:36Z</time>
      </trkpt>
      <trkpt lat="42.4894560" lon="-6.3284240">
        <ele>1349.1</ele>
        <time>2020-04-11T18:22:38Z</time>
      </trkpt>
      <trkpt lat="42.4894190" lon="-6.3284840">
        <ele>1349.6</ele>
        <time>2020-04-11T18:22:40Z</time>
      </trkpt>
      <trkpt lat="42.4893820" lon="-6.3285430">
        <ele>1350.2</ele>
        <time>2020-04-11T18:22:42Z</time>
      </trkpt>
      <trkpt lat="42.4892210" lon="-6.3288210">
        <ele>1352.5</ele>
        <time>2020-04-11T18:22:44Z</time>
      </trkpt>
      <trkpt lat="42.4891920" lon="-6.3288980">
        <ele>1353.0</ele>
        <time>2020-04-11T18:22:46Z</time>
      </trkpt>
      <trkpt lat="42.4891420" lon="-6.3290430">
        <ele>1354.1</ele>
        <time>2020-04-11T18:22:48Z</time>
      </trkpt>
      <trkpt lat="42.4891220" lon="-6.3291290">
        <ele>1354.7</ele>
        <time>2020-04-11T18:22:50Z</time>
      </trkpt>
      <trkpt lat="42.4890950" lon="-6.3292730">
        <ele>1355.7</ele>
        <time>2020-04-11T18:22:52Z</time>
      </trkpt>
      <trkpt lat="42.4890860" lon="-6.3293650">
        <ele>1356.3</ele>
        <time>2020-04-11T18:22:54Z</time>
      </trkpt>
      <trkpt lat="42.4890770" lon="-6.3295110">
        <ele>1357.2</ele>
        <time>2020-04-11T18:22:56Z</time>
      </trkpt>
      <trkpt lat="42.4890750" lon="-6.3296040">
        <ele>1357.7</ele>
        <time>2020-04-11T18:22:58Z</time>
      </trkpt>
      <trkpt lat="42.4890720" lon="-6.3296970">
        <ele>1358.3</ele>
        <time>2020-04-11T18:23:00Z</time>
      </trkpt>
      <trkpt lat="42.4890690" lon="-6.3297890">
        <ele>1358.8</ele>
        <time>2020-04-11T18:23:02Z</time>
      </trkpt>
      <trkpt lat="42.4890660" lon="-6.3298810">
        <ele>1359.3</ele>
        <time>2020-04-11T18:23:04Z</time>
      </trkpt>
      <trkpt lat="42.4890580" lon="-6.3301390">
        <ele>1360.7</ele>
        <time>2020-04-11T18:23:06Z</time>
      </trkpt>
      <trkpt lat="42.4890550" lon="-6.3302280">
        <ele>1361.2</ele>
        <time>2020-04-11T18:23:08Z</time>
      </trkpt>
      <trkpt lat="42.4890520" lon="-6.3303150">
        <ele>1361.7</ele>
        <time>2020-04-11T18:23:10Z</time>
      </trkpt>
      <trkpt lat="42.4890490" lon="-6.3304020">
        <ele>1362.2</ele>
        <time>2020-04-11T18:23:12Z</time>
      </trkpt>
      <trkpt lat="42.4890470" lon="-6.3304870">
        <ele>1362.7</ele>
        <time>2020-04-11T18:23:14Z</time>
      </trkpt>
      <trkpt lat="42.4890420" lon="-6.3307380">
        <ele>1364.2</ele>
        <time>2020-04-11T18:23:16Z</time>
      </trkpt>
      <trkpt lat="42.4890480" lon="-6.3308220">
        <ele>1364.7</ele>
        <time>2020-04-11T18:23:18Z</time>
      </trkpt>
      <trkpt lat="42.4890540" lon="-6.3309060">
        <ele>1365.2</ele>
        <time>2020-04-11T18:23:20Z</time>
      </trkpt>
      <trkpt lat="42.4890710" lon="-6.3310670">
        <ele>1366.2</ele>
        <time>2020-04-11T18:23:22Z</time>
      </trkpt>
      <trkpt lat="42.4890850" lon="-6.3311490">
        <ele>1366.7</ele>
        <time>2020-04-11T18:23:24Z</time>
      </trkpt>
      <trkpt lat="42.4891150" lon="-6.3312920">
        <ele>1367.5</ele>
        <time>2020-04-11T18:23:26Z</time>
      </trkpt>
      <trkpt lat="42.4891370" lon="-6.3313700">
        <ele>1367.9</ele>
        <time>2020-04-11T18:23:28Z</time>
      </trkpt>
      <trkpt lat="42.4891830" lon="-6.3314980">
        <ele>1368.7</ele>
        <time>2020-04-11T18:23:30Z</time>
      </trkpt>
      <trkpt lat="42.4892190" lon="-6.3315720">
        <ele>1369.1</ele>
        <time>2020-04-11T18:23:32Z</time>
      </trkpt>
      <trkpt lat="42.4892560" lon="-6.3316480">
        <ele>1369.6</ele>
        <time>2020-04-11T18:23:34Z</time>
      </trkpt>
      <trkpt lat="42.4893380" lon="-6.3318080">
        <ele>1370.7</ele>
        <time>2020-04-11T18:23:36Z</time>
      </trkpt>
      <trkpt lat="42.4893820" lon="-6.3318770">
        <ele>1371.1</ele>
        <time>2020-04-11T18:23:38Z</time>
      </trkpt>
      <trkpt lat="42.4894270" lon="-6.3319470">
        <ele>1371.6</ele>
        <time>2020-04-11T18:23:40Z</time>
      </trkpt>
      <trkpt lat="42.4894710" lon="-6.3320180">
        <ele>1372.1</ele>
        <time>2020-04-11T18:23:42Z</time>
      </trkpt>
      <trkpt lat="42.4895160" lon="-6.3320880">
        <ele>1372.6</ele>
        <time>2020-04-11T18:23:44Z</time>
      </trkpt>
      <trkpt lat="42.4895600" lon="-6.3321580">
        <ele>1373.2</ele>
        <time>2020-04-11T18:23:46Z</time>
      </trkpt>
      <trkpt lat="42.4897060" lon="-6.3323860">
        <ele>1374.8</ele>
        <time>2020-04-11T18:23:48Z</time>
      </trkpt>
      <trkpt lat="42.4897500" lon="-6.3324560">
        <ele>1375.3</ele>
        <time>2020-04-11T18:23:50Z</time>
      </trkpt>
      <trkpt lat="42.4897950" lon="-6.3325260">
        <ele>1375.8</ele>
        <time>2020-04-11T18:23:52Z</time>
      </trkpt>
      <trkpt lat="42.4898390" lon="-6.3325960">
        <ele>1376.3</ele>
        <time>2020-04-11T18:23:54Z</time>
      </trkpt>
      <trkpt lat="42.4898840" lon="-6.3326660">
        <ele>1376.7</ele>
        <time>2020-04-11T18:23:56Z</time>
      </trkpt>
      <trkpt lat="42.4899290" lon="-6.3327360">
        <ele>1377.2</ele>
        <time>2020-04-11T18:23:58Z</time>
      </trkpt>
      <trkpt lat="42.4899760" lon="-6.3328100">
        <ele>1377.6</ele>
        <time>2020-04-11T18:24:00Z</time>
      </trkpt>
      <trkpt lat="42.4901270" lon="-6.3330380">
        <ele>1379.1</ele>
        <time>2020-04-11T18:24:02Z</time>
      </trkpt>
      <trkpt lat="42.4901780" lon="-6.3331040">
        <ele>1379.6</ele>
        <time>2020-04-11T18:24:04Z</time>
      </trkpt>
      <trkpt lat="42.4902290" lon="-6.3331690">
        <ele>1380.0</ele>
        <time>2020-04-11T18:24:06Z</time>
      </trkpt>
      <trkpt lat="42.4903380" lon="-6.3332980">
        <ele>1380.9</ele>
        <time>2020-04-11T18:24:08Z</time>
      </trkpt>
      <trkpt lat="42.4903940" lon="-6.3333540">
        <ele>1381.4</ele>
        <time>2020-04-11T18:24:10Z</time>
      </trkpt>
      <trkpt lat="42.4904910" lon="-6.3334370">
        <ele>1382.2</ele>
        <time>2020-04-11T18:24:12Z</time>
      </trkpt>
      <trkpt lat="42.4905590" lon="-6.3334880">
        <ele>1382.7</ele>
        <time>2020-04-11T18:24:14Z</time>
      </trkpt>
      <trkpt lat="42.4906290" lon="-6.3335410">
        <ele>1383.3</ele>
        <time>2020-04-11T18:24:16Z</time>
      </trkpt>
      <trkpt lat="42.4906990" lon="-6.3335940">
        <ele>1383.9</ele>
        <time>2020-04-11T18:24:18Z</time>
      </trkpt>
      <trkpt lat="42.4907690" lon="-6.3336470">
        <ele>1384.4</ele>
        <time>2020-04-11T18:24:20Z</time>
      </trkpt>
      <trkpt lat="42.4909780" lon="-6.3338080">
        <ele>1386.2</ele>
        <time>2020-04-11T18:24:22Z</time>
      </trkpt>
      <trkpt lat="42.4910390" lon="-6.3338690">
        <ele>1386.7</ele>
        <time>2020-04-11T18:24:24Z</time>
      </trkpt>
      <trkpt lat="42.4910990" lon="-6.3339290">
        <ele>1387.3</ele>
        <time>2020-04-11T18:24:26Z</time>
      </trkpt>
      <trkpt lat="42.4912030" lon="-6.3340570">
        <ele>1388.2</ele>
        <time>2020-04-11T18:24:28Z</time>
      </trkpt>
      <trkpt lat="42.4912430" lon="-6.3341400">
        <ele>1388.7</ele>
        <time>2020-04-11T18:24:30Z</time>
      </trkpt>
      <trkpt lat="42.4912830" lon="-6.3342220">
        <ele>1389.1</ele>
        <time>2020-04-11T18:24:32Z</time>
      </trkpt>
      <trkpt lat="42.4913490" lon="-6.3343980">
        <ele>1390.0</ele>
        <time>2020-04-11T18:24:34Z</time>
      </trkpt>
      <trkpt lat="42.4913620" lon="-6.3344910">
        <ele>1390.3</ele>
        <time>2020-04-11T18:24:36Z</time>
      </trkpt>
      <trkpt lat="42.4913710" lon="-6.3346550">
        <ele>1390.6</ele>
        <time>2020-04-11T18:24:38Z</time>
      </trkpt>
      <trkpt lat="42.4913520" lon="-6.3347450">
        <ele>1390.6</ele>
        <time>2020-04-11T18:24:40Z</time>
      </trkpt>
      <trkpt lat="42.4913060" lon="-6.3348880">
        <ele>1390.8</ele>
        <time>2020-04-11T18:24:42Z</time>
      </trkpt>
      <trkpt lat="42.4912600" lon="-6.3349580">
        <ele>1390.9</ele>
        <time>2020-04-11T18:24:44Z</time>
      </trkpt>
      <trkpt lat="42.4912150" lon="-6.3350280">
        <ele>1391.1</ele>
        <time>2020-04-11T18:24:46Z</time>
      </trkpt>
      <trkpt lat="42.4911700" lon="-6.3350980">
        <ele>1391.3</ele>
        <time>2020-04-11T18:24:48Z</time>
      </trkpt>
      <trkpt lat="42.4911250" lon="-6.3351670">
        <ele>1391.5</ele>
        <time>2020-04-11T18:24:50Z</time>
      </trkpt>
      <trkpt lat="42.4910800" lon="-6.3352370">
        <ele>1391.6</ele>
        <time>2020-04-11T18:24:52Z</time>
      </trkpt>
      <trkpt lat="42.4910350" lon="-6.3353070">
        <ele>1391.8</ele>
        <time>2020-04-11T18:24:54Z</time>
      </trkpt>
      <trkpt lat="42.4908860" lon="-6.3355530">
        <ele>1392.3</ele>
        <time>2020-04-11T18:24:56Z</time>
      </trkpt>
      <trkpt lat="42.4908520" lon="-6.3356270">
        <ele>1392.5</ele>
        <time>2020-04-11T18:24:58Z</time>
      </trkpt>
      <trkpt lat="42.4907980" lon="-6.3357580">
        <ele>1392.8</ele>
        <time>2020-04-11T18:25:00Z</time>
      </trkpt>
      <trkpt lat="42.4907740" lon="-6.3358320">
        <ele>1393.0</ele>
        <time>2020-04-11T18:25:02Z</time>
      </trkpt>
      <trkpt lat="42.4907510" lon="-6.3359040">
        <ele>1393.2</ele>
        <time>2020-04-11T18:25:04Z</time>
      </trkpt>
      <trkpt lat="42.4907130" lon="-6.3360420">
        <ele>1393.6</ele>
        <time>2020-04-11T18:25:06Z</time>
      </trkpt>
      <trkpt lat="42.4906940" lon="-6.3361230">
        <ele>1393.8</ele>
        <time>2020-04-11T18:25:08Z</time>
      </trkpt>
      <trkpt lat="42.4906740" lon="-6.3362100">
        <ele>1394.0</ele>
        <time>2020-04-11T18:25:10Z</time>
      </trkpt>
      <trkpt lat="42.4906530" lon="-6.3362960">
        <ele>1394.2</ele>
        <time>2020-04-11T18:25:12Z</time>
      </trkpt>
      <trkpt lat="42.4906330" lon="-6.3363840">
        <ele>1394.4</ele>
        <time>2020-04-11T18:25:14Z</time>
      </trkpt>
      <trkpt lat="42.4905770" lon="-6.3366420">
        <ele>1395.2</ele>
        <time>2020-04-11T18:25:16Z</time>
      </trkpt>
      <trkpt lat="42.4905680" lon="-6.3367350">
        <ele>1395.5</ele>
        <time>2020-04-11T18:25:18Z</time>
      </trkpt>
      <trkpt lat="42.4905590" lon="-6.3368280">
        <ele>1395.8</ele>
        <time>2020-04-11T18:25:20Z</time>
      </trkpt>
      <trkpt lat="42.4905540" lon="-6.3370010">
        <ele>1396.4</ele>
        <time>2020-04-11T18:25:22Z</time>
      </trkpt>
      <trkpt lat="42.4905590" lon="-6.3370900">
        <ele>1396.8</ele>
        <time>2020-04-11T18:25:24Z</time>
      </trkpt>
      <trkpt lat="42.4905640" lon="-6.3371760">
        <ele>1397.1</ele>
        <time>2020-04-11T18:25:26Z</time>
      </trkpt>
      <trkpt lat="42.4905690" lon="-6.3372610">
        <ele>1397.5</ele>
        <time>2020-04-11T18:25:28Z</time>
      </trkpt>
      <trkpt lat="42.4905730" lon="-6.3373450">
        <ele>1397.8</ele>
        <time>2020-04-11T18:25:30Z</time>
      </trkpt>
      <trkpt lat="42.4905780" lon="-6.3374280">
        <ele>1398.1</ele>
        <time>2020-04-11T18:25:32Z</time>
      </trkpt>
      <trkpt lat="42.4905820" lon="-6.3375100">
        <ele>1398.4</ele>
        <time>2020-04-11T18:25:34Z</time>
      </trkpt>
      <trkpt lat="42.4905870" lon="-6.3375920">
        <ele>1398.7</ele>
        <time>2020-04-11T18:25:36Z</time>
      </trkpt>
      <trkpt lat="42.4905910" lon="-6.3376730">
        <ele>1399.0</ele>
        <time>2020-04-11T18:25:38Z</time>
      </trkpt>
      <trkpt lat="42.4906140" lon="-6.3380400">
        <ele>1400.3</ele>
        <time>2020-04-11T18:25:40Z</time>
      </trkpt>
      <trkpt lat="42.4906290" lon="-6.3381180">
        <ele>1400.6</ele>
        <time>2020-04-11T18:25:42Z</time>
      </trkpt>
      <trkpt lat="42.4906430" lon="-6.3381960">
        <ele>1400.8</ele>
        <time>2020-04-11T18:25:44Z</time>
      </trkpt>
      <trkpt lat="42.4906580" lon="-6.3382740">
        <ele>1401.0</ele>
        <time>2020-04-11T18:25:46Z</time>
      </trkpt>
      <trkpt lat="42.4906950" lon="-6.3384610">
        <ele>1401.6</ele>
        <time>2020-04-11T18:25:48Z</time>
      </trkpt>
      <trkpt lat="42.4907160" lon="-6.3385450">
        <ele>1401.9</ele>
        <time>2020-04-11T18:25:50Z</time>
      </trkpt>
      <trkpt lat="42.4907370" lon="-6.3386340">
        <ele>1402.1</ele>
        <time>2020-04-11T18:25:52Z</time>
      </trkpt>
      <trkpt lat="42.4907600" lon="-6.3387250">
        <ele>1402.3</ele>
        <time>2020-04-11T18:25:54Z</time>
      </trkpt>
      <trkpt lat="42.4908140" lon="-6.3389460">
        <ele>1402.6</ele>
        <time>2020-04-11T18:25:56Z</time>
      </trkpt>
      <trkpt lat="42.4908350" lon="-6.3390390">
        <ele>1402.9</ele>
        <time>2020-04-11T18:25:58Z</time>
      </trkpt>
      <trkpt lat="42.4908570" lon="-6.3391340">
        <ele>1403.4</ele>
        <time>2020-04-11T18:26:00Z</time>
      </trkpt>
      <trkpt lat="42.4908790" lon="-6.3392280">
        <ele>1404.0</ele>
        <time>2020-04-11T18:26:02Z</time>
      </trkpt>
      <trkpt lat="42.4909010" lon="-6.3393230">
        <ele>1404.7</ele>
        <time>2020-04-11T18:26:04Z</time>
      </trkpt>
      <trkpt lat="42.4909230" lon="-6.3394180">
        <ele>1405.4</ele>
        <time>2020-04-11T18:26:06Z</time>
      </trkpt>
      <trkpt lat="42.4909450" lon="-6.3395130">
        <ele>1406.1</ele>
        <time>2020-04-11T18:26:08Z</time>
      </trkpt>
      <trkpt lat="42.4910220" lon="-6.3398410">
        <ele>1408.4</ele>
        <time>2020-04-11T18:26:10Z</time>
      </trkpt>
      <trkpt lat="42.4910430" lon="-6.3399320">
        <ele>1409.1</ele>
        <time>2020-04-11T18:26:12Z</time>
      </trkpt>
      <trkpt lat="42.4910620" lon="-6.3400160">
        <ele>1409.7</ele>
        <time>2020-04-11T18:26:14Z</time>
      </trkpt>
      <trkpt lat="42.4910810" lon="-6.3400960">
        <ele>1410.3</ele>
        <time>2020-04-11T18:26:16Z</time>
      </trkpt>
      <trkpt lat="42.4910990" lon="-6.3401740">
        <ele>1410.9</ele>
        <time>2020-04-11T18:26:18Z</time>
      </trkpt>
      <trkpt lat="42.4911160" lon="-6.3402490">
        <ele>1411.5</ele>
        <time>2020-04-11T18:26:20Z</time>
      </trkpt>
      <trkpt lat="42.4911330" lon="-6.3403220">
        <ele>1412.1</ele>
        <time>2020-04-11T18:26:22Z</time>
      </trkpt>
      <trkpt lat="42.4911490" lon="-6.3403910">
        <ele>1412.6</ele>
        <time>2020-04-11T18:26:24Z</time>
      </trkpt>
      <trkpt lat="42.4911650" lon="-6.3404580">
        <ele>1413.2</ele>
        <time>2020-04-11T18:26:26Z</time>
      </trkpt>
      <trkpt lat="42.4912350" lon="-6.3407600">
        <ele>1415.5</ele>
        <time>2020-04-11T18:26:28Z</time>
      </trkpt>
      <trkpt lat="42.4912510" lon="-6.3408300">
        <ele>1416.0</ele>
        <time>2020-04-11T18:26:30Z</time>
      </trkpt>
      <trkpt lat="42.4912670" lon="-6.3408990">
        <ele>1416.6</ele>
        <time>2020-04-11T18:26:32Z</time>
      </trkpt>
      <trkpt lat="42.4912830" lon="-6.3409690">
        <ele>1417.1</ele>
        <time>2020-04-11T18:26:34Z</time>
      </trkpt>
      <trkpt lat="42.4913000" lon="-6.3410400">
        <ele>1417.7</ele>
        <time>2020-04-11T18:26:36Z</time>
      </trkpt>
      <trkpt lat="42.4913160" lon="-6.3411100">
        <ele>1418.2</ele>
        <time>2020-04-11T18:26:38Z</time>
      </trkpt>
      <trkpt lat="42.4913330" lon="-6.3411810">
        <ele>1418.7</ele>
        <time>2020-04-11T18:26:40Z</time>
      </trkpt>
      <trkpt lat="42.4913490" lon="-6.3412510">
        <ele>1419.2</ele>
        <time>2020-04-11T18:26:42Z</time>
      </trkpt>
      <trkpt lat="42.4913650" lon="-6.3413210">
        <ele>1419.6</ele>
        <time>2020-04-11T18:26:44Z</time>
      </trkpt>
      <trkpt lat="42.4914400" lon="-6.3416240">
        <ele>1420.7</ele>
        <time>2020-04-11T18:26:46Z</time>
      </trkpt>
      <trkpt lat="42.4914690" lon="-6.3416940">
        <ele>1421.1</ele>
        <time>2020-04-11T18:26:48Z</time>
      </trkpt>
      <trkpt lat="42.4915300" lon="-6.3417930">
        <ele>1421.9</ele>
        <time>2020-04-11T18:26:50Z</time>
      </trkpt>
      <trkpt lat="42.4915820" lon="-6.3418320">
        <ele>1422.4</ele>
        <time>2020-04-11T18:26:52Z</time>
      </trkpt>
      <trkpt lat="42.4916730" lon="-6.3418730">
        <ele>1423.4</ele>
        <time>2020-04-11T18:26:54Z</time>
      </trkpt>
      <trkpt lat="42.4917690" lon="-6.3418920">
        <ele>1424.4</ele>
        <time>2020-04-11T18:26:56Z</time>
      </trkpt>
      <trkpt lat="42.4918360" lon="-6.3418980">
        <ele>1425.0</ele>
        <time>2020-04-11T18:26:58Z</time>
      </trkpt>
      <trkpt lat="42.4919050" lon="-6.3419040">
        <ele>1425.6</ele>
        <time>2020-04-11T18:27:00Z</time>
      </trkpt>
      <trkpt lat="42.4919740" lon="-6.3419100">
        <ele>1426.2</ele>
        <time>2020-04-11T18:27:02Z</time>
      </trkpt>
      <trkpt lat="42.4920440" lon="-6.3419150">
        <ele>1426.9</ele>
        <time>2020-04-11T18:27:04Z</time>
      </trkpt>
      <trkpt lat="42.4921130" lon="-6.3419210">
        <ele>1427.6</ele>
        <time>2020-04-11T18:27:06Z</time>
      </trkpt>
      <trkpt lat="42.4921830" lon="-6.3419270">
        <ele>1428.2</ele>
        <time>2020-04-11T18:27:08Z</time>
      </trkpt>
      <trkpt lat="42.4924250" lon="-6.3419480">
        <ele>1430.1</ele>
        <time>2020-04-11T18:27:10Z</time>
      </trkpt>
      <trkpt lat="42.4924950" lon="-6.3419530">
        <ele>1430.5</ele>
        <time>2020-04-11T18:27:12Z</time>
      </trkpt>
      <trkpt lat="42.4925650" lon="-6.3419590">
        <ele>1430.1</ele>
        <time>2020-04-11T18:27:14Z</time>
      </trkpt>
      <trkpt lat="42.4926350" lon="-6.3419650">
        <ele>1430.0</ele>
        <time>2020-04-11T18:27:16Z</time>
      </trkpt>
      <trkpt lat="42.4927050" lon="-6.3419710">
        <ele>1429.9</ele>
        <time>2020-04-11T18:27:18Z</time>
      </trkpt>
      <trkpt lat="42.4927750" lon="-6.3419770">
        <ele>1430.0</ele>
        <time>2020-04-11T18:27:20Z</time>
      </trkpt>
      <trkpt lat="42.4928450" lon="-6.3419830">
        <ele>1430.0</ele>
        <time>2020-04-11T18:27:22Z</time>
      </trkpt>
      <trkpt lat="42.4930880" lon="-6.3419940">
        <ele>1430.1</ele>
        <time>2020-04-11T18:27:24Z</time>
      </trkpt>
      <trkpt lat="42.4931940" lon="-6.3419670">
        <ele>1430.1</ele>
        <time>2020-04-11T18:27:26Z</time>
      </trkpt>
      <trkpt lat="42.4932680" lon="-6.3419250">
        <ele>1430.1</ele>
        <time>2020-04-11T18:27:28Z</time>
      </trkpt>
      <trkpt lat="42.4933450" lon="-6.3418810">
        <ele>1430.1</ele>
        <time>2020-04-11T18:27:30Z</time>
      </trkpt>
      <trkpt lat="42.4934240" lon="-6.3418370">
        <ele>1430.1</ele>
        <time>2020-04-11T18:27:32Z</time>
      </trkpt>
      <trkpt lat="42.4935020" lon="-6.3417920">
        <ele>1430.1</ele>
        <time>2020-04-11T18:27:34Z</time>
      </trkpt>
      <trkpt lat="42.4935830" lon="-6.3417470">
        <ele>1430.0</ele>
        <time>2020-04-11T18:27:36Z</time>
      </trkpt>
      <trkpt lat="42.4938280" lon="-6.3416170">
        <ele>1430.9</ele>
        <time>2020-04-11T18:27:38Z</time>
      </trkpt>
      <trkpt lat="42.4939540" lon="-6.3415820">
        <ele>1431.6</ele>
        <time>2020-04-11T18:27:40Z</time>
      </trkpt>
      <trkpt lat="42.4940380" lon="-6.3415950">
        <ele>1432.1</ele>
        <time>2020-04-11T18:27:42Z</time>
      </trkpt>
      <trkpt lat="42.4941700" lon="-6.3416220">
        <ele>1432.8</ele>
        <time>2020-04-11T18:27:44Z</time>
      </trkpt>
      <trkpt lat="42.4942440" lon="-6.3416530">
        <ele>1433.1</ele>
        <time>2020-04-11T18:27:46Z</time>
      </trkpt>
      <trkpt lat="42.4943170" lon="-6.3416830">
        <ele>1433.4</ele>
        <time>2020-04-11T18:27:48Z</time>
      </trkpt>
      <trkpt lat="42.4943880" lon="-6.3417120">
        <ele>1433.8</ele>
        <time>2020-04-11T18:27:50Z</time>
      </trkpt>
      <trkpt lat="42.4945430" lon="-6.3417890">
        <ele>1434.5</ele>
        <time>2020-04-11T18:27:52Z</time>
      </trkpt>
      <trkpt lat="42.4946070" lon="-6.3418290">
        <ele>1434.7</ele>
        <time>2020-04-11T18:27:54Z</time>
      </trkpt>
      <trkpt lat="42.4947140" lon="-6.3419210">
        <ele>1435.1</ele>
        <time>2020-04-11T18:27:56Z</time>
      </trkpt>
      <trkpt lat="42.4947570" lon="-6.3419940">
        <ele>1435.6</ele>
        <time>2020-04-11T18:27:58Z</time>
      </trkpt>
      <trkpt lat="42.4947990" lon="-6.3420660">
        <ele>1436.1</ele>
        <time>2020-04-11T18:28:00Z</time>
      </trkpt>
      <trkpt lat="42.4948410" lon="-6.3421380">
        <ele>1436.7</ele>
        <time>2020-04-11T18:28:02Z</time>
      </trkpt>
      <trkpt lat="42.4949430" lon="-6.3423180">
        <ele>1438.4</ele>
        <time>2020-04-11T18:28:04Z</time>
      </trkpt>
      <trkpt lat="42.4949740" lon="-6.3423870">
        <ele>1439.0</ele>
        <time>2020-04-11T18:28:06Z</time>
      </trkpt>
      <trkpt lat="42.4950030" lon="-6.3424490">
        <ele>1439.6</ele>
        <time>2020-04-11T18:28:08Z</time>
      </trkpt>
      <trkpt lat="42.4950290" lon="-6.3425060">
        <ele>1440.2</ele>
        <time>2020-04-11T18:28:10Z</time>
      </trkpt>
      <trkpt lat="42.4950530" lon="-6.3425610">
        <ele>1440.7</ele>
        <time>2020-04-11T18:28:12Z</time>
      </trkpt>
      <trkpt lat="42.4950780" lon="-6.3426140">
        <ele>1441.2</ele>
        <time>2020-04-11T18:28:14Z</time>
      </trkpt>
      <trkpt lat="42.4951010" lon="-6.3426660">
        <ele>1441.7</ele>
        <time>2020-04-11T18:28:16Z</time>
      </trkpt>
      <trkpt lat="42.4951240" lon="-6.3427160">
        <ele>1442.2</ele>
        <time>2020-04-11T18:28:18Z</time>
      </trkpt>
      <trkpt lat="42.4951470" lon="-6.3427670">
        <ele>1442.7</ele>
        <time>2020-04-11T18:28:20Z</time>
      </trkpt>
      <trkpt lat="42.4952490" lon="-6.3429980">
        <ele>1444.8</ele>
        <time>2020-04-11T18:28:22Z</time>
      </trkpt>
      <trkpt lat="42.4952650" lon="-6.3430530">
        <ele>1445.2</ele>
        <time>2020-04-11T18:28:24Z</time>
      </trkpt>
      <trkpt lat="42.4952820" lon="-6.3431080">
        <ele>1445.7</ele>
        <time>2020-04-11T18:28:26Z</time>
      </trkpt>
      <trkpt lat="42.4952980" lon="-6.3431630">
        <ele>1446.2</ele>
        <time>2020-04-11T18:28:28Z</time>
      </trkpt>
      <trkpt lat="42.4953150" lon="-6.3432170">
        <ele>1446.6</ele>
        <time>2020-04-11T18:28:30Z</time>
      </trkpt>
      <trkpt lat="42.4953310" lon="-6.3432720">
        <ele>1447.1</ele>
        <time>2020-04-11T18:28:32Z</time>
      </trkpt>
      <trkpt lat="42.4953480" lon="-6.3433270">
        <ele>1447.5</ele>
        <time>2020-04-11T18:28:34Z</time>
      </trkpt>
      <trkpt lat="42.4953640" lon="-6.3433810">
        <ele>1448.0</ele>
        <time>2020-04-11T18:28:36Z</time>
      </trkpt>
      <trkpt lat="42.4953810" lon="-6.3434360">
        <ele>1448.4</ele>
        <time>2020-04-11T18:28:38Z</time>
      </trkpt>
      <trkpt lat="42.4953970" lon="-6.3434900">
        <ele>1448.9</ele>
        <time>2020-04-11T18:28:40Z</time>
      </trkpt>
      <trkpt lat="42.4954140" lon="-6.3435450">
        <ele>1449.4</ele>
        <time>2020-04-11T18:28:42Z</time>
      </trkpt>
      <trkpt lat="42.4954300" lon="-6.3436000">
        <ele>1449.8</ele>
        <time>2020-04-11T18:28:44Z</time>
      </trkpt>
      <trkpt lat="42.4954470" lon="-6.3436540">
        <ele>1450.2</ele>
        <time>2020-04-11T18:28:46Z</time>
      </trkpt>
      <trkpt lat="42.4955330" lon="-6.3439610">
        <ele>1452.4</ele>
        <time>2020-04-11T18:28:48Z</time>
      </trkpt>
      <trkpt lat="42.4955380" lon="-6.3440160">
        <ele>1452.8</ele>
        <time>2020-04-11T18:28:50Z</time>
      </trkpt>
      <trkpt lat="42.4955430" lon="-6.3440700">
        <ele>1453.1</ele>
        <time>2020-04-11T18:28:52Z</time>
      </trkpt>
      <trkpt lat="42.4955480" lon="-6.3441220">
        <ele>1453.5</ele>
        <time>2020-04-11T18:28:54Z</time>
      </trkpt>
      <trkpt lat="42.4955530" lon="-6.3441740">
        <ele>1453.8</ele>
        <time>2020-04-11T18:28:56Z</time>
      </trkpt>
      <trkpt lat="42.4955580" lon="-6.3442270">
        <ele>1454.2</ele>
        <time>2020-04-11T18:28:58Z</time>
      </trkpt>
      <trkpt lat="42.4955640" lon="-6.3443880">
        <ele>1455.4</ele>
        <time>2020-04-11T18:29:00Z</time>
      </trkpt>
      <trkpt lat="42.4955570" lon="-6.3444400">
        <ele>1455.8</ele>
        <time>2020-04-11T18:29:02Z</time>
      </trkpt>
      <trkpt lat="42.4955490" lon="-6.3444920">
        <ele>1456.3</ele>
        <time>2020-04-11T18:29:04Z</time>
      </trkpt>
      <trkpt lat="42.4955410" lon="-6.3445440">
        <ele>1456.7</ele>
        <time>2020-04-11T18:29:06Z</time>
      </trkpt>
      <trkpt lat="42.4955330" lon="-6.3445950">
        <ele>1457.2</ele>
        <time>2020-04-11T18:29:08Z</time>
      </trkpt>
      <trkpt lat="42.4955260" lon="-6.3446470">
        <ele>1457.7</ele>
        <time>2020-04-11T18:29:10Z</time>
      </trkpt>
      <trkpt lat="42.4955000" lon="-6.3448210">
        <ele>1459.3</ele>
        <time>2020-04-11T18:29:12Z</time>
      </trkpt>
      <trkpt lat="42.4954890" lon="-6.3448710">
        <ele>1459.8</ele>
        <time>2020-04-11T18:29:14Z</time>
      </trkpt>
      <trkpt lat="42.4954790" lon="-6.3449220">
        <ele>1460.3</ele>
        <time>2020-04-11T18:29:16Z</time>
      </trkpt>
      <trkpt lat="42.4954680" lon="-6.3449730">
        <ele>1460.9</ele>
        <time>2020-04-11T18:29:18Z</time>
      </trkpt>
      <trkpt lat="42.4954580" lon="-6.3450240">
        <ele>1461.4</ele>
        <time>2020-04-11T18:29:20Z</time>
      </trkpt>
      <trkpt lat="42.4954480" lon="-6.3450740">
        <ele>1461.9</ele>
        <time>2020-04-11T18:29:22Z</time>
      </trkpt>
      <trkpt lat="42.4954370" lon="-6.3451250">
        <ele>1462.4</ele>
        <time>2020-04-11T18:29:24Z</time>
      </trkpt>
      <trkpt lat="42.4954270" lon="-6.3451760">
        <ele>1462.9</ele>
        <time>2020-04-11T18:29:26Z</time>
      </trkpt>
      <trkpt lat="42.4954160" lon="-6.3452270">
        <ele>1463.4</ele>
        <time>2020-04-11T18:29:28Z</time>
      </trkpt>
      <trkpt lat="42.4954060" lon="-6.3452780">
        <ele>1463.8</ele>
        <time>2020-04-11T18:29:30Z</time>
      </trkpt>
      <trkpt lat="42.4953950" lon="-6.3453280">
        <ele>1464.2</ele>
        <time>2020-04-11T18:29:32Z</time>
      </trkpt>
      <trkpt lat="42.4953850" lon="-6.3453790">
        <ele>1464.6</ele>
        <time>2020-04-11T18:29:34Z</time>
      </trkpt>
      <trkpt lat="42.4953750" lon="-6.3454290">
        <ele>1465.0</ele>
        <time>2020-04-11T18:29:36Z</time>
      </trkpt>
      <trkpt lat="42.4953640" lon="-6.3454800">
        <ele>1465.4</ele>
        <time>2020-04-11T18:29:38Z</time>
      </trkpt>
      <trkpt lat="42.4953540" lon="-6.3455310">
        <ele>1465.8</ele>
        <time>2020-04-11T18:29:40Z</time>
      </trkpt>
      <trkpt lat="42.4953430" lon="-6.3455820">
        <ele>1466.2</ele>
        <time>2020-04-11T18:29:42Z</time>
      </trkpt>
      <trkpt lat="42.4952750" lon="-6.3459130">
        <ele>1469.0</ele>
        <time>2020-04-11T18:29:44Z</time>
      </trkpt>
      <trkpt lat="42.4952620" lon="-6.3459750">
        <ele>1469.6</ele>
        <time>2020-04-11T18:29:46Z</time>
      </trkpt>
      <trkpt lat="42.4952490" lon="-6.3460410">
        <ele>1470.1</ele>
        <time>2020-04-11T18:29:48Z</time>
      </trkpt>
      <trkpt lat="42.4952350" lon="-6.3461080">
        <ele>1470.7</ele>
        <time>2020-04-11T18:29:50Z</time>
      </trkpt>
      <trkpt lat="42.4952210" lon="-6.3461750">
        <ele>1471.2</ele>
        <time>2020-04-11T18:29:52Z</time>
      </trkpt>
      <trkpt lat="42.4952080" lon="-6.3462420">
        <ele>1471.8</ele>
        <time>2020-04-11T18:29:54Z</time>
      </trkpt>
      <trkpt lat="42.4951930" lon="-6.3463110">
        <ele>1472.4</ele>
        <time>2020-04-11T18:29:56Z</time>
      </trkpt>
      <trkpt lat="42.4951790" lon="-6.3463810">
        <ele>1473.0</ele>
        <time>2020-04-11T18:29:58Z</time>
      </trkpt>
      <trkpt lat="42.4951650" lon="-6.3464500">
        <ele>1473.6</ele>
        <time>2020-04-11T18:30:00Z</time>
      </trkpt>
      <trkpt lat="42.4951510" lon="-6.3465170">
        <ele>1474.2</ele>
        <time>2020-04-11T18:30:02Z</time>
      </trkpt>
      <trkpt lat="42.4951370" lon="-6.3465840">
        <ele>1474.8</ele>
        <time>2020-04-11T18:30:04Z</time>
      </trkpt>
      <trkpt lat="42.4951230" lon="-6.3466540">
        <ele>1475.3</ele>
        <time>2020-04-11T18:30:06Z</time>
      </trkpt>
      <trkpt lat="42.4950530" lon="-6.3470060">
        <ele>1477.6</ele>
        <time>2020-04-11T18:30:08Z</time>
      </trkpt>
      <trkpt lat="42.4950410" lon="-6.3470780">
        <ele>1478.0</ele>
        <time>2020-04-11T18:30:10Z</time>
      </trkpt>
      <trkpt lat="42.4950300" lon="-6.3471480">
        <ele>1478.4</ele>
        <time>2020-04-11T18:30:12Z</time>
      </trkpt>
      <trkpt lat="42.4950190" lon="-6.3472180">
        <ele>1478.9</ele>
        <time>2020-04-11T18:30:14Z</time>
      </trkpt>
      <trkpt lat="42.4950080" lon="-6.3472880">
        <ele>1479.3</ele>
        <time>2020-04-11T18:30:16Z</time>
      </trkpt>
      <trkpt lat="42.4949970" lon="-6.3473580">
        <ele>1479.8</ele>
        <time>2020-04-11T18:30:18Z</time>
      </trkpt>
      <trkpt lat="42.4949860" lon="-6.3474280">
        <ele>1480.3</ele>
        <time>2020-04-11T18:30:20Z</time>
      </trkpt>
      <trkpt lat="42.4949740" lon="-6.3474990">
        <ele>1480.8</ele>
        <time>2020-04-11T18:30:22Z</time>
      </trkpt>
      <trkpt lat="42.4949630" lon="-6.3475690">
        <ele>1481.3</ele>
        <time>2020-04-11T18:30:24Z</time>
      </trkpt>
      <trkpt lat="42.4949520" lon="-6.3476390">
        <ele>1481.8</ele>
        <time>2020-04-11T18:30:26Z</time>
      </trkpt>
      <trkpt lat="42.4949010" lon="-6.3479570">
        <ele>1484.1</ele>
        <time>2020-04-11T18:30:28Z</time>
      </trkpt>
      <trkpt lat="42.4948900" lon="-6.3480320">
        <ele>1484.5</ele>
        <time>2020-04-11T18:30:30Z</time>
      </trkpt>
      <trkpt lat="42.4948770" lon="-6.3481080">
        <ele>1484.9</ele>
        <time>2020-04-11T18:30:32Z</time>
      </trkpt>
      <trkpt lat="42.4948650" lon="-6.3481840">
        <ele>1485.3</ele>
        <time>2020-04-11T18:30:34Z</time>
      </trkpt>
      <trkpt lat="42.4948530" lon="-6.3482610">
        <ele>1485.7</ele>
        <time>2020-04-11T18:30:36Z</time>
      </trkpt>
      <trkpt lat="42.4948410" lon="-6.3483370">
        <ele>1486.1</ele>
        <time>2020-04-11T18:30:38Z</time>
      </trkpt>
      <trkpt lat="42.4948290" lon="-6.3484130">
        <ele>1486.5</ele>
        <time>2020-04-11T18:30:40Z</time>
      </trkpt>
      <trkpt lat="42.4948170" lon="-6.3484900">
        <ele>1486.8</ele>
        <time>2020-04-11T18:30:42Z</time>
      </trkpt>
      <trkpt lat="42.4948050" lon="-6.3485660">
        <ele>1487.2</ele>
        <time>2020-04-11T18:30:44Z</time>
      </trkpt>
      <trkpt lat="42.4947530" lon="-6.3488900">
        <ele>1488.9</ele>
        <time>2020-04-11T18:30:46Z</time>
      </trkpt>
      <trkpt lat="42.4947410" lon="-6.3489660">
        <ele>1489.4</ele>
        <time>2020-04-11T18:30:48Z</time>
      </trkpt>
      <trkpt lat="42.4947290" lon="-6.3490420">
        <ele>1489.9</ele>
        <time>2020-04-11T18:30:50Z</time>
      </trkpt>
      <trkpt lat="42.4947170" lon="-6.3491190">
        <ele>1490.5</ele>
        <time>2020-04-11T18:30:52Z</time>
      </trkpt>
      <trkpt lat="42.4947050" lon="-6.3491950">
        <ele>1491.1</ele>
        <time>2020-04-11T18:30:54Z</time>
      </trkpt>
      <trkpt lat="42.4946920" lon="-6.3492710">
        <ele>1491.7</ele>
        <time>2020-04-11T18:30:56Z</time>
      </trkpt>
      <trkpt lat="42.4946800" lon="-6.3493480">
        <ele>1492.2</ele>
        <time>2020-04-11T18:30:58Z</time>
      </trkpt>
      <trkpt lat="42.4946680" lon="-6.3494250">
        <ele>1492.7</ele>
        <time>2020-04-11T18:31:00Z</time>
      </trkpt>
      <trkpt lat="42.4946560" lon="-6.3495010">
        <ele>1493.1</ele>
        <time>2020-04-11T18:31:02Z</time>
      </trkpt>
      <trkpt lat="42.4945970" lon="-6.3498220">
        <ele>1494.3</ele>
        <time>2020-04-11T18:31:04Z</time>
      </trkpt>
      <trkpt lat="42.4945450" lon="-6.3499250">
        <ele>1494.7</ele>
        <time>2020-04-11T18:31:06Z</time>
      </trkpt>
      <trkpt lat="42.4944620" lon="-6.3500240">
        <ele>1495.2</ele>
        <time>2020-04-11T18:31:08Z</time>
      </trkpt>
      <trkpt lat="42.4943630" lon="-6.3500920">
        <ele>1495.7</ele>
        <time>2020-04-11T18:31:10Z</time>
      </trkpt>
      <trkpt lat="42.4942770" lon="-6.3501310">
        <ele>1496.3</ele>
        <time>2020-04-11T18:31:12Z</time>
      </trkpt>
      <trkpt lat="42.4941900" lon="-6.3501720">
        <ele>1496.8</ele>
        <time>2020-04-11T18:31:14Z</time>
      </trkpt>
      <trkpt lat="42.4941020" lon="-6.3502120">
        <ele>1497.4</ele>
        <time>2020-04-11T18:31:16Z</time>
      </trkpt>
      <trkpt lat="42.4938790" lon="-6.3503190">
        <ele>1498.5</ele>
        <time>2020-04-11T18:31:18Z</time>
      </trkpt>
      <trkpt lat="42.4938030" lon="-6.3503870">
        <ele>1498.8</ele>
        <time>2020-04-11T18:31:20Z</time>
      </trkpt>
      <trkpt lat="42.4937270" lon="-6.3504540">
        <ele>1499.1</ele>
        <time>2020-04-11T18:31:22Z</time>
      </trkpt>
      <trkpt lat="42.4935880" lon="-6.3505870">
        <ele>1499.5</ele>
        <time>2020-04-11T18:31:24Z</time>
      </trkpt>
      <trkpt lat="42.4935190" lon="-6.3506650">
        <ele>1499.7</ele>
        <time>2020-04-11T18:31:26Z</time>
      </trkpt>
      <trkpt lat="42.4934500" lon="-6.3507420">
        <ele>1499.7</ele>
        <time>2020-04-11T18:31:28Z</time>
      </trkpt>
      <trkpt lat="42.4932980" lon="-6.3509150">
        <ele>1499.8</ele>
        <time>2020-04-11T18:31:30Z</time>
      </trkpt>
      <trkpt lat="42.4932330" lon="-6.3510010">
        <ele>1499.7</ele>
        <time>2020-04-11T18:31:32Z</time>
      </trkpt>
      <trkpt lat="42.4931670" lon="-6.3510860">
        <ele>1499.6</ele>
        <time>2020-04-11T18:31:34Z</time>
      </trkpt>
      <trkpt lat="42.4931010" lon="-6.3511720">
        <ele>1499.5</ele>
        <time>2020-04-11T18:31:36Z</time>
      </trkpt>
      <trkpt lat="42.4929460" lon="-6.3513750">
        <ele>1499.2</ele>
        <time>2020-04-11T18:31:38Z</time>
      </trkpt>
      <trkpt lat="42.4928800" lon="-6.3514610">
        <ele>1499.1</ele>
        <time>2020-04-11T18:31:40Z</time>
      </trkpt>
      <trkpt lat="42.4928150" lon="-6.3515460">
        <ele>1499.0</ele>
        <time>2020-04-11T18:31:42Z</time>
      </trkpt>
      <trkpt lat="42.4927490" lon="-6.3516320">
        <ele>1498.9</ele>
        <time>2020-04-11T18:31:44Z</time>
      </trkpt>
      <trkpt lat="42.4925990" lon="-6.3518420">
        <ele>1498.8</ele>
        <time>2020-04-11T18:31:46Z</time>
      </trkpt>
      <trkpt lat="42.4925420" lon="-6.3519550">
        <ele>1498.7</ele>
        <time>2020-04-11T18:31:48Z</time>
      </trkpt>
      <trkpt lat="42.4924790" lon="-6.3520770">
        <ele>1498.4</ele>
        <time>2020-04-11T18:31:50Z</time>
      </trkpt>
      <trkpt lat="42.4924130" lon="-6.3522080">
        <ele>1498.1</ele>
        <time>2020-04-11T18:31:52Z</time>
      </trkpt>
      <trkpt lat="42.4922440" lon="-6.3525420">
        <ele>1497.2</ele>
        <time>2020-04-11T18:31:54Z</time>
      </trkpt>
      <trkpt lat="42.4921690" lon="-6.3526890">
        <ele>1496.9</ele>
        <time>2020-04-11T18:31:56Z</time>
      </trkpt>
      <trkpt lat="42.4920920" lon="-6.3528420">
        <ele>1496.6</ele>
        <time>2020-04-11T18:31:58Z</time>
      </trkpt>
      <trkpt lat="42.4920120" lon="-6.3530000">
        <ele>1496.4</ele>
        <time>2020-04-11T18:32:00Z</time>
      </trkpt>
      <trkpt lat="42.4918380" lon="-6.3533640">
        <ele>1495.8</ele>
        <time>2020-04-11T18:32:02Z</time>
      </trkpt>
      <trkpt lat="42.4917540" lon="-6.3536300">
        <ele>1495.1</ele>
        <time>2020-04-11T18:32:04Z</time>
      </trkpt>
      <trkpt lat="42.4917310" lon="-6.3538410">
        <ele>1494.3</ele>
        <time>2020-04-11T18:32:06Z</time>
      </trkpt>
      <trkpt lat="42.4917080" lon="-6.3540580">
        <ele>1493.5</ele>
        <time>2020-04-11T18:32:08Z</time>
      </trkpt>
      <trkpt lat="42.4916550" lon="-6.3545260">
        <ele>1491.7</ele>
        <time>2020-04-11T18:32:10Z</time>
      </trkpt>
      <trkpt lat="42.4915560" lon="-6.3547600">
        <ele>1491.0</ele>
        <time>2020-04-11T18:32:12Z</time>
      </trkpt>
      <trkpt lat="42.4914120" lon="-6.3549070">
        <ele>1490.6</ele>
        <time>2020-04-11T18:32:14Z</time>
      </trkpt>
      <trkpt lat="42.4912410" lon="-6.3550750">
        <ele>1490.7</ele>
        <time>2020-04-11T18:32:16Z</time>
      </trkpt>
      <trkpt lat="42.4910760" lon="-6.3552570">
        <ele>1491.3</ele>
        <time>2020-04-11T18:32:18Z</time>
      </trkpt>
      <trkpt lat="42.4909790" lon="-6.3553770">
        <ele>1492.0</ele>
        <time>2020-04-11T18:32:20Z</time>
      </trkpt>
      <trkpt lat="42.4908200" lon="-6.3555780">
        <ele>1493.1</ele>
        <time>2020-04-11T18:32:22Z</time>
      </trkpt>
      <trkpt lat="42.4907280" lon="-6.3557630">
        <ele>1494.0</ele>
        <time>2020-04-11T18:32:24Z</time>
      </trkpt>
      <trkpt lat="42.4907050" lon="-6.3559140">
        <ele>1494.6</ele>
        <time>2020-04-11T18:32:26Z</time>
      </trkpt>
      <trkpt lat="42.4906690" lon="-6.3561630">
        <ele>1495.6</ele>
        <time>2020-04-11T18:32:28Z</time>
      </trkpt>
      <trkpt lat="42.4906640" lon="-6.3563060">
        <ele>1496.1</ele>
        <time>2020-04-11T18:32:30Z</time>
      </trkpt>
      <trkpt lat="42.4906590" lon="-6.3564420">
        <ele>1496.5</ele>
        <time>2020-04-11T18:32:32Z</time>
      </trkpt>
      <trkpt lat="42.4906540" lon="-6.3565740">
        <ele>1496.8</ele>
        <time>2020-04-11T18:32:34Z</time>
      </trkpt>
      <trkpt lat="42.4906420" lon="-6.3568700">
        <ele>1497.5</ele>
        <time>2020-04-11T18:32:36Z</time>
      </trkpt>
      <trkpt lat="42.4906370" lon="-6.3570010">
        <ele>1497.7</ele>
        <time>2020-04-11T18:32:38Z</time>
      </trkpt>
      <trkpt lat="42.4906320" lon="-6.3571350">
        <ele>1497.8</ele>
        <time>2020-04-11T18:32:40Z</time>
      </trkpt>
      <trkpt lat="42.4906200" lon="-6.3574410">
        <ele>1498.1</ele>
        <time>2020-04-11T18:32:42Z</time>
      </trkpt>
      <trkpt lat="42.4906020" lon="-6.3575770">
        <ele>1498.2</ele>
        <time>2020-04-11T18:32:44Z</time>
      </trkpt>
      <trkpt lat="42.4905850" lon="-6.3577150">
        <ele>1498.3</ele>
        <time>2020-04-11T18:32:46Z</time>
      </trkpt>
      <trkpt lat="42.4905450" lon="-6.3579760">
        <ele>1498.4</ele>
        <time>2020-04-11T18:32:48Z</time>
      </trkpt>
      <trkpt lat="42.4904960" lon="-6.3581800">
        <ele>1498.4</ele>
        <time>2020-04-11T18:32:50Z</time>
      </trkpt>
      <trkpt lat="42.4904430" lon="-6.3583050">
        <ele>1498.4</ele>
        <time>2020-04-11T18:32:52Z</time>
      </trkpt>
      <trkpt lat="42.4903890" lon="-6.3584320">
        <ele>1498.3</ele>
        <time>2020-04-11T18:32:54Z</time>
      </trkpt>
      <trkpt lat="42.4903350" lon="-6.3585580">
        <ele>1498.2</ele>
        <time>2020-04-11T18:32:56Z</time>
      </trkpt>
      <trkpt lat="42.4902190" lon="-6.3588440">
        <ele>1497.9</ele>
        <time>2020-04-11T18:32:58Z</time>
      </trkpt>
      <trkpt lat="42.4901710" lon="-6.3589770">
        <ele>1497.9</ele>
        <time>2020-04-11T18:33:00Z</time>
      </trkpt>
      <trkpt lat="42.4901230" lon="-6.3591100">
        <ele>1497.8</ele>
        <time>2020-04-11T18:33:02Z</time>
      </trkpt>
      <trkpt lat="42.4900740" lon="-6.3592440">
        <ele>1497.8</ele>
        <time>2020-04-11T18:33:04Z</time>
      </trkpt>
      <trkpt lat="42.4899440" lon="-6.3595730">
        <ele>1497.9</ele>
        <time>2020-04-11T18:33:06Z</time>
      </trkpt>
      <trkpt lat="42.4898750" lon="-6.3596860">
        <ele>1497.9</ele>
        <time>2020-04-11T18:33:08Z</time>
      </trkpt>
      <trkpt lat="42.4897550" lon="-6.3598810">
        <ele>1497.9</ele>
        <time>2020-04-11T18:33:10Z</time>
      </trkpt>
      <trkpt lat="42.4896840" lon="-6.3599820">
        <ele>1498.0</ele>
        <time>2020-04-11T18:33:12Z</time>
      </trkpt>
      <trkpt lat="42.4896140" lon="-6.3600810">
        <ele>1498.0</ele>
        <time>2020-04-11T18:33:14Z</time>
      </trkpt>
      <trkpt lat="42.4895460" lon="-6.3601780">
        <ele>1498.2</ele>
        <time>2020-04-11T18:33:16Z</time>
      </trkpt>
      <trkpt lat="42.4894790" lon="-6.3602730">
        <ele>1498.4</ele>
        <time>2020-04-11T18:33:18Z</time>
      </trkpt>
      <trkpt lat="42.4893000" lon="-6.3605300">
        <ele>1499.1</ele>
        <time>2020-04-11T18:33:20Z</time>
      </trkpt>
      <trkpt lat="42.4892320" lon="-6.3606330">
        <ele>1499.3</ele>
        <time>2020-04-11T18:33:22Z</time>
      </trkpt>
      <trkpt lat="42.4891610" lon="-6.3607400">
        <ele>1499.6</ele>
        <time>2020-04-11T18:33:24Z</time>
      </trkpt>
      <trkpt lat="42.4890860" lon="-6.3608540">
        <ele>1499.8</ele>
        <time>2020-04-11T18:33:26Z</time>
      </trkpt>
      <trkpt lat="42.4890070" lon="-6.3609720">
        <ele>1500.0</ele>
        <time>2020-04-11T18:33:28Z</time>
      </trkpt>
      <trkpt lat="42.4888090" lon="-6.3612860">
        <ele>1495.1</ele>
        <time>2020-04-11T18:33:30Z</time>
      </trkpt>
      <trkpt lat="42.4887000" lon="-6.3614940">
        <ele>1490.4</ele>
        <time>2020-04-11T18:33:32Z</time>
      </trkpt>
      <trkpt lat="42.4886150" lon="-6.3617290">
        <ele>1497.7</ele>
        <time>2020-04-11T18:33:34Z</time>
      </trkpt>
      <trkpt lat="42.4885710" lon="-6.3619180">
        <ele>1497.4</ele>
        <time>2020-04-11T18:33:36Z</time>
      </trkpt>
      <trkpt lat="42.4885190" lon="-6.3622240">
        <ele>1496.8</ele>
        <time>2020-04-11T18:33:38Z</time>
      </trkpt>
      <trkpt lat="42.4884980" lon="-6.3625390">
        <ele>1495.7</ele>
        <time>2020-04-11T18:33:40Z</time>
      </trkpt>
      <trkpt lat="42.4884910" lon="-6.3628900">
        <ele>1493.9</ele>
        <time>2020-04-11T18:33:42Z</time>
      </trkpt>
      <trkpt lat="42.4885170" lon="-6.3631300">
        <ele>1492.5</ele>
        <time>2020-04-11T18:33:44Z</time>
      </trkpt>
      <trkpt lat="42.4885430" lon="-6.3633800">
        <ele>1491.0</ele>
        <time>2020-04-11T18:33:46Z</time>
      </trkpt>
      <trkpt lat="42.4886160" lon="-6.3638270">
        <ele>1488.2</ele>
        <time>2020-04-11T18:33:48Z</time>
      </trkpt>
      <trkpt lat="42.4887090" lon="-6.3641900">
        <ele>1486.0</ele>
        <time>2020-04-11T18:33:50Z</time>
      </trkpt>
      <trkpt lat="42.4887840" lon="-6.3644410">
        <ele>1484.7</ele>
        <time>2020-04-11T18:33:52Z</time>
      </trkpt>
      <trkpt lat="42.4889180" lon="-6.3648840">
        <ele>1482.2</ele>
        <time>2020-04-11T18:33:54Z</time>
      </trkpt>
      <trkpt lat="42.4889930" lon="-6.3651360">
        <ele>1480.7</ele>
        <time>2020-04-11T18:33:56Z</time>
      </trkpt>
      <trkpt lat="42.4891090" lon="-6.3655770">
        <ele>1478.0</ele>
        <time>2020-04-11T18:33:58Z</time>
      </trkpt>
      <trkpt lat="42.4891350" lon="-6.3658390">
        <ele>1476.6</ele>
        <time>2020-04-11T18:34:00Z</time>
      </trkpt>
      <trkpt lat="42.4891620" lon="-6.3660990">
        <ele>1475.3</ele>
        <time>2020-04-11T18:34:02Z</time>
      </trkpt>
      <trkpt lat="42.4891860" lon="-6.3666590">
        <ele>1473.1</ele>
        <time>2020-04-11T18:34:04Z</time>
      </trkpt>
      <trkpt lat="42.4891490" lon="-6.3669070">
        <ele>1472.8</ele>
        <time>2020-04-11T18:34:06Z</time>
      </trkpt>
      <trkpt lat="42.4891130" lon="-6.3671550">
        <ele>1472.4</ele>
        <time>2020-04-11T18:34:08Z</time>
      </trkpt>
      <trkpt lat="42.4890390" lon="-6.3676690">
        <ele>1471.6</ele>
        <time>2020-04-11T18:34:10Z</time>
      </trkpt>
      <trkpt lat="42.4890200" lon="-6.3679100">
        <ele>1471.4</ele>
        <time>2020-04-11T18:34:12Z</time>
      </trkpt>
      <trkpt lat="42.4890140" lon="-6.3682400">
        <ele>1471.3</ele>
        <time>2020-04-11T18:34:14Z</time>
      </trkpt>
      <trkpt lat="42.4890190" lon="-6.3684540">
        <ele>1471.2</ele>
        <time>2020-04-11T18:34:16Z</time>
      </trkpt>
      <trkpt lat="42.4890230" lon="-6.3686600">
        <ele>1471.2</ele>
        <time>2020-04-11T18:34:18Z</time>
      </trkpt>
      <trkpt lat="42.4890330" lon="-6.3690990">
        <ele>1471.3</ele>
        <time>2020-04-11T18:34:20Z</time>
      </trkpt>
      <trkpt lat="42.4890370" lon="-6.3692920">
        <ele>1471.4</ele>
        <time>2020-04-11T18:34:22Z</time>
      </trkpt>
      <trkpt lat="42.4890410" lon="-6.3694780">
        <ele>1471.6</ele>
        <time>2020-04-11T18:34:24Z</time>
      </trkpt>
      <trkpt lat="42.4890500" lon="-6.3699010">
        <ele>1471.9</ele>
        <time>2020-04-11T18:34:26Z</time>
      </trkpt>
      <trkpt lat="42.4890840" lon="-6.3700680">
        <ele>1472.0</ele>
        <time>2020-04-11T18:34:28Z</time>
      </trkpt>
      <trkpt lat="42.4891400" lon="-6.3703090">
        <ele>1472.4</ele>
        <time>2020-04-11T18:34:30Z</time>
      </trkpt>
      <trkpt lat="42.4891840" lon="-6.3704670">
        <ele>1472.8</ele>
        <time>2020-04-11T18:34:32Z</time>
      </trkpt>
      <trkpt lat="42.4892280" lon="-6.3706240">
        <ele>1473.2</ele>
        <time>2020-04-11T18:34:34Z</time>
      </trkpt>
      <trkpt lat="42.4892710" lon="-6.3707790">
        <ele>1473.6</ele>
        <time>2020-04-11T18:34:36Z</time>
      </trkpt>
      <trkpt lat="42.4893140" lon="-6.3709330">
        <ele>1474.0</ele>
        <time>2020-04-11T18:34:38Z</time>
      </trkpt>
      <trkpt lat="42.4894450" lon="-6.3713620">
        <ele>1474.8</ele>
        <time>2020-04-11T18:34:40Z</time>
      </trkpt>
      <trkpt lat="42.4895040" lon="-6.3715010">
        <ele>1475.1</ele>
        <time>2020-04-11T18:34:42Z</time>
      </trkpt>
      <trkpt lat="42.4895630" lon="-6.3716400">
        <ele>1475.3</ele>
        <time>2020-04-11T18:34:44Z</time>
      </trkpt>
      <trkpt lat="42.4896210" lon="-6.3717780">
        <ele>1475.4</ele>
        <time>2020-04-11T18:34:46Z</time>
      </trkpt>
      <trkpt lat="42.4896800" lon="-6.3719150">
        <ele>1475.5</ele>
        <time>2020-04-11T18:34:48Z</time>
      </trkpt>
      <trkpt lat="42.4898450" lon="-6.3723140">
        <ele>1475.9</ele>
        <time>2020-04-11T18:34:50Z</time>
      </trkpt>
      <trkpt lat="42.4899120" lon="-6.3725120">
        <ele>1476.3</ele>
        <time>2020-04-11T18:34:52Z</time>
      </trkpt>
      <trkpt lat="42.4899430" lon="-6.3726850">
        <ele>1476.8</ele>
        <time>2020-04-11T18:34:54Z</time>
      </trkpt>
      <trkpt lat="42.4899410" lon="-6.3728590">
        <ele>1477.3</ele>
        <time>2020-04-11T18:34:56Z</time>
      </trkpt>
      <trkpt lat="42.4899050" lon="-6.3730340">
        <ele>1477.9</ele>
        <time>2020-04-11T18:34:58Z</time>
      </trkpt>
      <trkpt lat="42.4898710" lon="-6.3731450">
        <ele>1478.3</ele>
        <time>2020-04-11T18:35:00Z</time>
      </trkpt>
      <trkpt lat="42.4898080" lon="-6.3733090">
        <ele>1478.8</ele>
        <time>2020-04-11T18:35:02Z</time>
      </trkpt>
      <trkpt lat="42.4897250" lon="-6.3734110">
        <ele>1478.9</ele>
        <time>2020-04-11T18:35:04Z</time>
      </trkpt>
      <trkpt lat="42.4896500" lon="-6.3734650">
        <ele>1478.9</ele>
        <time>2020-04-11T18:35:06Z</time>
      </trkpt>
      <trkpt lat="42.4895660" lon="-6.3735250">
        <ele>1478.9</ele>
        <time>2020-04-11T18:35:08Z</time>
      </trkpt>
      <trkpt lat="42.4893940" lon="-6.3736520">
        <ele>1478.4</ele>
        <time>2020-04-11T18:35:10Z</time>
      </trkpt>
      <trkpt lat="42.4893010" lon="-6.3737300">
        <ele>1478.1</ele>
        <time>2020-04-11T18:35:12Z</time>
      </trkpt>
      <trkpt lat="42.4891660" lon="-6.3738780">
        <ele>1477.4</ele>
        <time>2020-04-11T18:35:14Z</time>
      </trkpt>
      <trkpt lat="42.4890800" lon="-6.3739970">
        <ele>1477.0</ele>
        <time>2020-04-11T18:35:16Z</time>
      </trkpt>
      <trkpt lat="42.4889920" lon="-6.3741200">
        <ele>1476.6</ele>
        <time>2020-04-11T18:35:18Z</time>
      </trkpt>
      <trkpt lat="42.4888170" lon="-6.3743790">
        <ele>1475.7</ele>
        <time>2020-04-11T18:35:20Z</time>
      </trkpt>
      <trkpt lat="42.4886970" lon="-6.3745970">
        <ele>1475.0</ele>
        <time>2020-04-11T18:35:22Z</time>
      </trkpt>
      <trkpt lat="42.4886280" lon="-6.3747600">
        <ele>1474.4</ele>
        <time>2020-04-11T18:35:24Z</time>
      </trkpt>
      <trkpt lat="42.4885020" lon="-6.3750650">
        <ele>1473.3</ele>
        <time>2020-04-11T18:35:26Z</time>
      </trkpt>
      <trkpt lat="42.4884460" lon="-6.3752450">
        <ele>1472.8</ele>
        <time>2020-04-11T18:35:28Z</time>
      </trkpt>
      <trkpt lat="42.4883880" lon="-6.3754270">
        <ele>1472.3</ele>
        <time>2020-04-11T18:35:30Z</time>
      </trkpt>
      <trkpt lat="42.4883130" lon="-6.3757670">
        <ele>1471.4</ele>
        <time>2020-04-11T18:35:32Z</time>
      </trkpt>
      <trkpt lat="42.4883040" lon="-6.3760700">
        <ele>1470.3</ele>
        <time>2020-04-11T18:35:34Z</time>
      </trkpt>
      <trkpt lat="42.4883250" lon="-6.3762890">
        <ele>1469.4</ele>
        <time>2020-04-11T18:35:36Z</time>
      </trkpt>
      <trkpt lat="42.4883470" lon="-6.3765150">
        <ele>1468.5</ele>
        <time>2020-04-11T18:35:38Z</time>
      </trkpt>
      <trkpt lat="42.4883920" lon="-6.3770190">
        <ele>1466.1</ele>
        <time>2020-04-11T18:35:40Z</time>
      </trkpt>
      <trkpt lat="42.4884010" lon="-6.3772580">
        <ele>1465.2</ele>
        <time>2020-04-11T18:35:42Z</time>
      </trkpt>
      <trkpt lat="42.4884100" lon="-6.3774980">
        <ele>1464.4</ele>
        <time>2020-04-11T18:35:44Z</time>
      </trkpt>
      <trkpt lat="42.4884050" lon="-6.3779510">
        <ele>1463.0</ele>
        <time>2020-04-11T18:35:46Z</time>
      </trkpt>
      <trkpt lat="42.4883400" lon="-6.3783410">
        <ele>1462.0</ele>
        <time>2020-04-11T18:35:48Z</time>
      </trkpt>
      <trkpt lat="42.4882470" lon="-6.3786200">
        <ele>1461.3</ele>
        <time>2020-04-11T18:35:50Z</time>
      </trkpt>
      <trkpt lat="42.4881000" lon="-6.3787820">
        <ele>1460.9</ele>
        <time>2020-04-11T18:35:52Z</time>
      </trkpt>
      <trkpt lat="42.4879650" lon="-6.3789210">
        <ele>1460.6</ele>
        <time>2020-04-11T18:35:54Z</time>
      </trkpt>
      <trkpt lat="42.4877250" lon="-6.3791980">
        <ele>1459.8</ele>
        <time>2020-04-11T18:35:56Z</time>
      </trkpt>
      <trkpt lat="42.4876330" lon="-6.3794510">
        <ele>1459.6</ele>
        <time>2020-04-11T18:35:58Z</time>
      </trkpt>
      <trkpt lat="42.4876020" lon="-6.3796690">
        <ele>1459.5</ele>
        <time>2020-04-11T18:36:00Z</time>
      </trkpt>
      <trkpt lat="42.4875160" lon="-6.3800020">
        <ele>1459.1</ele>
        <time>2020-04-11T18:36:02Z</time>
      </trkpt>
      <trkpt lat="42.4874410" lon="-6.3802030">
        <ele>1458.7</ele>
        <time>2020-04-11T18:36:04Z</time>
      </trkpt>
      <trkpt lat="42.4873810" lon="-6.3806190">
        <ele>1457.6</ele>
        <time>2020-04-11T18:36:06Z</time>
      </trkpt>
      <trkpt lat="42.4874300" lon="-6.3808400">
        <ele>1457.2</ele>
        <time>2020-04-11T18:36:08Z</time>
      </trkpt>
      <trkpt lat="42.4875000" lon="-6.3812080">
        <ele>1456.6</ele>
        <time>2020-04-11T18:36:10Z</time>
      </trkpt>
      <trkpt lat="42.4874910" lon="-6.3815610">
        <ele>1455.8</ele>
        <time>2020-04-11T18:36:12Z</time>
      </trkpt>
      <trkpt lat="42.4875230" lon="-6.3818760">
        <ele>1454.5</ele>
        <time>2020-04-11T18:36:14Z</time>
      </trkpt>
      <trkpt lat="42.4875900" lon="-6.3821250">
        <ele>1453.3</ele>
        <time>2020-04-11T18:36:16Z</time>
      </trkpt>
      <trkpt lat="42.4877120" lon="-6.3825870">
        <ele>1451.2</ele>
        <time>2020-04-11T18:36:18Z</time>
      </trkpt>
      <trkpt lat="42.4877480" lon="-6.3828500">
        <ele>1450.1</ele>
        <time>2020-04-11T18:36:20Z</time>
      </trkpt>
      <trkpt lat="42.4878110" lon="-6.3832730">
        <ele>1449.4</ele>
        <time>2020-04-11T18:36:22Z</time>
      </trkpt>
      <trkpt lat="42.4878710" lon="-6.3835040">
        <ele>1448.6</ele>
        <time>2020-04-11T18:36:24Z</time>
      </trkpt>
      <trkpt lat="42.4879300" lon="-6.3837290">
        <ele>1447.8</ele>
        <time>2020-04-11T18:36:26Z</time>
      </trkpt>
      <trkpt lat="42.4879870" lon="-6.3839490">
        <ele>1447.1</ele>
        <time>2020-04-11T18:36:28Z</time>
      </trkpt>
      <trkpt lat="42.4881440" lon="-6.3844110">
        <ele>1445.7</ele>
        <time>2020-04-11T18:36:30Z</time>
      </trkpt>
      <trkpt lat="42.4883520" lon="-6.3846810">
        <ele>1444.5</ele>
        <time>2020-04-11T18:36:32Z</time>
      </trkpt>
      <trkpt lat="42.4885220" lon="-6.3847510">
        <ele>1443.7</ele>
        <time>2020-04-11T18:36:34Z</time>
      </trkpt>
      <trkpt lat="42.4886940" lon="-6.3848220">
        <ele>1442.7</ele>
        <time>2020-04-11T18:36:36Z</time>
      </trkpt>
      <trkpt lat="42.4888680" lon="-6.3848940">
        <ele>1441.9</ele>
        <time>2020-04-11T18:36:38Z</time>
      </trkpt>
      <trkpt lat="42.4892330" lon="-6.3851330">
        <ele>1441.0</ele>
        <time>2020-04-11T18:36:40Z</time>
      </trkpt>
      <trkpt lat="42.4893880" lon="-6.3854070">
        <ele>1440.4</ele>
        <time>2020-04-11T18:36:42Z</time>
      </trkpt>
      <trkpt lat="42.4894930" lon="-6.3856240">
        <ele>1440.1</ele>
        <time>2020-04-11T18:36:44Z</time>
      </trkpt>
      <trkpt lat="42.4895990" lon="-6.3858410">
        <ele>1439.5</ele>
        <time>2020-04-11T18:36:46Z</time>
      </trkpt>
      <trkpt lat="42.4898240" lon="-6.3862360">
        <ele>1438.6</ele>
        <time>2020-04-11T18:36:48Z</time>
      </trkpt>
      <trkpt lat="42.4900260" lon="-6.3864970">
        <ele>1437.4</ele>
        <time>2020-04-11T18:36:50Z</time>
      </trkpt>
      <trkpt lat="42.4901670" lon="-6.3866430">
        <ele>1436.4</ele>
        <time>2020-04-11T18:36:52Z</time>
      </trkpt>
      <trkpt lat="42.4903320" lon="-6.3869260">
        <ele>1435.2</ele>
        <time>2020-04-11T18:36:54Z</time>
      </trkpt>
      <trkpt lat="42.4903820" lon="-6.3872200">
        <ele>1433.7</ele>
        <time>2020-04-11T18:36:56Z</time>
      </trkpt>
      <trkpt lat="42.4904670" lon="-6.3874940">
        <ele>1432.4</ele>
        <time>2020-04-11T18:36:58Z</time>
      </trkpt>
      <trkpt lat="42.4905370" lon="-6.3878130">
        <ele>1431.1</ele>
        <time>2020-04-11T18:37:00Z</time>
      </trkpt>
      <trkpt lat="42.4905030" lon="-6.3880990">
        <ele>1430.1</ele>
        <time>2020-04-11T18:37:02Z</time>
      </trkpt>
      <trkpt lat="42.4904640" lon="-6.3883240">
        <ele>1429.4</ele>
        <time>2020-04-11T18:37:04Z</time>
      </trkpt>
      <trkpt lat="42.4903790" lon="-6.3887530">
        <ele>1428.2</ele>
        <time>2020-04-11T18:37:06Z</time>
      </trkpt>
      <trkpt lat="42.4902900" lon="-6.3889950">
        <ele>1427.8</ele>
        <time>2020-04-11T18:37:08Z</time>
      </trkpt>
      <trkpt lat="42.4901900" lon="-6.3892110">
        <ele>1427.8</ele>
        <time>2020-04-11T18:37:10Z</time>
      </trkpt>
      <trkpt lat="42.4901500" lon="-6.3893930">
        <ele>1427.9</ele>
        <time>2020-04-11T18:37:12Z</time>
      </trkpt>
      <trkpt lat="42.4901390" lon="-6.3895070">
        <ele>1428.0</ele>
        <time>2020-04-11T18:37:14Z</time>
      </trkpt>
      <trkpt lat="42.4901300" lon="-6.3896000">
        <ele>1428.1</ele>
        <time>2020-04-11T18:37:16Z</time>
      </trkpt>
      <trkpt lat="42.4901260" lon="-6.3897570">
        <ele>1428.5</ele>
        <time>2020-04-11T18:37:18Z</time>
      </trkpt>
      <trkpt lat="42.4901320" lon="-6.3898200">
        <ele>1428.7</ele>
        <time>2020-04-11T18:37:20Z</time>
      </trkpt>
      <trkpt lat="42.4901370" lon="-6.3898730">
        <ele>1429.0</ele>
        <time>2020-04-11T18:37:22Z</time>
      </trkpt>
      <trkpt lat="42.4901420" lon="-6.3899210">
        <ele>1429.3</ele>
        <time>2020-04-11T18:37:24Z</time>
      </trkpt>
      <trkpt lat="42.4901470" lon="-6.3899660">
        <ele>1429.5</ele>
        <time>2020-04-11T18:37:26Z</time>
      </trkpt>
      <trkpt lat="42.4901510" lon="-6.3900090">
        <ele>1429.8</ele>
        <time>2020-04-11T18:37:28Z</time>
      </trkpt>
      <trkpt lat="42.4901550" lon="-6.3900510">
        <ele>1430.1</ele>
        <time>2020-04-11T18:37:30Z</time>
      </trkpt>
      <trkpt lat="42.4901600" lon="-6.3900930">
        <ele>1430.5</ele>
        <time>2020-04-11T18:37:32Z</time>
      </trkpt>
      <trkpt lat="42.4901640" lon="-6.3901360">
        <ele>1430.8</ele>
        <time>2020-04-11T18:37:34Z</time>
      </trkpt>
      <trkpt lat="42.4901850" lon="-6.3903470">
        <ele>1432.7</ele>
        <time>2020-04-11T18:37:36Z</time>
      </trkpt>
      <trkpt lat="42.4901910" lon="-6.3904060">
        <ele>1433.2</ele>
        <time>2020-04-11T18:37:38Z</time>
      </trkpt>
      <trkpt lat="42.4901990" lon="-6.3904870">
        <ele>1433.9</ele>
        <time>2020-04-11T18:37:40Z</time>
      </trkpt>
      <trkpt lat="42.4902090" lon="-6.3905810">
        <ele>1434.6</ele>
        <time>2020-04-11T18:37:42Z</time>
      </trkpt>
      <trkpt lat="42.4902190" lon="-6.3906800">
        <ele>1435.4</ele>
        <time>2020-04-11T18:37:44Z</time>
      </trkpt>
      <trkpt lat="42.4902290" lon="-6.3907840">
        <ele>1436.2</ele>
        <time>2020-04-11T18:37:46Z</time>
      </trkpt>
      <trkpt lat="42.4902660" lon="-6.3910640">
        <ele>1437.9</ele>
        <time>2020-04-11T18:37:48Z</time>
      </trkpt>
      <trkpt lat="42.4902900" lon="-6.3911770">
        <ele>1438.6</ele>
        <time>2020-04-11T18:37:50Z</time>
      </trkpt>
      <trkpt lat="42.4903470" lon="-6.3913710">
        <ele>1439.6</ele>
        <time>2020-04-11T18:37:52Z</time>
      </trkpt>
      <trkpt lat="42.4904270" lon="-6.3915200">
        <ele>1440.3</ele>
        <time>2020-04-11T18:37:54Z</time>
      </trkpt>
      <trkpt lat="42.4904910" lon="-6.3916140">
        <ele>1440.7</ele>
        <time>2020-04-11T18:37:56Z</time>
      </trkpt>
      <trkpt lat="42.4905930" lon="-6.3917480">
        <ele>1441.2</ele>
        <time>2020-04-11T18:37:58Z</time>
      </trkpt>
      <trkpt lat="42.4906690" lon="-6.3918420">
        <ele>1441.5</ele>
        <time>2020-04-11T18:38:00Z</time>
      </trkpt>
      <trkpt lat="42.4907480" lon="-6.3919400">
        <ele>1441.7</ele>
        <time>2020-04-11T18:38:02Z</time>
      </trkpt>
      <trkpt lat="42.4908290" lon="-6.3920410">
        <ele>1441.9</ele>
        <time>2020-04-11T18:38:04Z</time>
      </trkpt>
      <trkpt lat="42.4910210" lon="-6.3922790">
        <ele>1441.9</ele>
        <time>2020-04-11T18:38:06Z</time>
      </trkpt>
      <trkpt lat="42.4911060" lon="-6.3923850">
        <ele>1441.8</ele>
        <time>2020-04-11T18:38:08Z</time>
      </trkpt>
      <trkpt lat="42.4911920" lon="-6.3924920">
        <ele>1441.8</ele>
        <time>2020-04-11T18:38:10Z</time>
      </trkpt>
      <trkpt lat="42.4913800" lon="-6.3927440">
        <ele>1441.8</ele>
        <time>2020-04-11T18:38:12Z</time>
      </trkpt>
      <trkpt lat="42.4914400" lon="-6.3928710">
        <ele>1441.9</ele>
        <time>2020-04-11T18:38:14Z</time>
      </trkpt>
      <trkpt lat="42.4914950" lon="-6.3929890">
        <ele>1442.0</ele>
        <time>2020-04-11T18:38:16Z</time>
      </trkpt>
      <trkpt lat="42.4915960" lon="-6.3932270">
        <ele>1442.4</ele>
        <time>2020-04-11T18:38:18Z</time>
      </trkpt>
      <trkpt lat="42.4916160" lon="-6.3933840">
        <ele>1442.8</ele>
        <time>2020-04-11T18:38:20Z</time>
      </trkpt>
      <trkpt lat="42.4916000" lon="-6.3935530">
        <ele>1443.4</ele>
        <time>2020-04-11T18:38:22Z</time>
      </trkpt>
      <trkpt lat="42.4915460" lon="-6.3936700">
        <ele>1444.0</ele>
        <time>2020-04-11T18:38:24Z</time>
      </trkpt>
      <trkpt lat="42.4914920" lon="-6.3937490">
        <ele>1444.6</ele>
        <time>2020-04-11T18:38:26Z</time>
      </trkpt>
      <trkpt lat="42.4914400" lon="-6.3938260">
        <ele>1445.1</ele>
        <time>2020-04-11T18:38:28Z</time>
      </trkpt>
      <trkpt lat="42.4913480" lon="-6.3939890">
        <ele>1446.2</ele>
        <time>2020-04-11T18:38:30Z</time>
      </trkpt>
      <trkpt lat="42.4912990" lon="-6.3941400">
        <ele>1447.0</ele>
        <time>2020-04-11T18:38:32Z</time>
      </trkpt>
      <trkpt lat="42.4912920" lon="-6.3942920">
        <ele>1447.6</ele>
        <time>2020-04-11T18:38:34Z</time>
      </trkpt>
      <trkpt lat="42.4912950" lon="-6.3944140">
        <ele>1448.1</ele>
        <time>2020-04-11T18:38:36Z</time>
      </trkpt>
      <trkpt lat="42.4913060" lon="-6.3946450">
        <ele>1449.0</ele>
        <time>2020-04-11T18:38:38Z</time>
      </trkpt>
      <trkpt lat="42.4913260" lon="-6.3947670">
        <ele>1449.3</ele>
        <time>2020-04-11T18:38:40Z</time>
      </trkpt>
      <trkpt lat="42.4913460" lon="-6.3948910">
        <ele>1449.7</ele>
        <time>2020-04-11T18:38:42Z</time>
      </trkpt>
      <trkpt lat="42.4913660" lon="-6.3950150">
        <ele>1450.0</ele>
        <time>2020-04-11T18:38:44Z</time>
      </trkpt>
      <trkpt lat="42.4914250" lon="-6.3952970">
        <ele>1450.8</ele>
        <time>2020-04-11T18:38:46Z</time>
      </trkpt>
      <trkpt lat="42.4914670" lon="-6.3954250">
        <ele>1451.2</ele>
        <time>2020-04-11T18:38:48Z</time>
      </trkpt>
      <trkpt lat="42.4915110" lon="-6.3955610">
        <ele>1451.6</ele>
        <time>2020-04-11T18:38:50Z</time>
      </trkpt>
      <trkpt lat="42.4915580" lon="-6.3957040">
        <ele>1452.0</ele>
        <time>2020-04-11T18:38:52Z</time>
      </trkpt>
      <trkpt lat="42.4916060" lon="-6.3958510">
        <ele>1452.4</ele>
        <time>2020-04-11T18:38:54Z</time>
      </trkpt>
      <trkpt lat="42.4916570" lon="-6.3960040">
        <ele>1452.7</ele>
        <time>2020-04-11T18:38:56Z</time>
      </trkpt>
      <trkpt lat="42.4918150" lon="-6.3964430">
        <ele>1453.1</ele>
        <time>2020-04-11T18:38:58Z</time>
      </trkpt>
      <trkpt lat="42.4918830" lon="-6.3965940">
        <ele>1453.1</ele>
        <time>2020-04-11T18:39:00Z</time>
      </trkpt>
      <trkpt lat="42.4919520" lon="-6.3967480">
        <ele>1453.1</ele>
        <time>2020-04-11T18:39:02Z</time>
      </trkpt>
      <trkpt lat="42.4920230" lon="-6.3969050">
        <ele>1453.1</ele>
        <time>2020-04-11T18:39:04Z</time>
      </trkpt>
      <trkpt lat="42.4922110" lon="-6.3973190">
        <ele>1452.9</ele>
        <time>2020-04-11T18:39:06Z</time>
      </trkpt>
      <trkpt lat="42.4922990" lon="-6.3974660">
        <ele>1452.6</ele>
        <time>2020-04-11T18:39:08Z</time>
      </trkpt>
      <trkpt lat="42.4923870" lon="-6.3976150">
        <ele>1452.3</ele>
        <time>2020-04-11T18:39:10Z</time>
      </trkpt>
      <trkpt lat="42.4925600" lon="-6.3979260">
        <ele>1451.8</ele>
        <time>2020-04-11T18:39:12Z</time>
      </trkpt>
      <trkpt lat="42.4925840" lon="-6.3981430">
        <ele>1451.5</ele>
        <time>2020-04-11T18:39:14Z</time>
      </trkpt>
      <trkpt lat="42.4925280" lon="-6.3983530">
        <ele>1451.4</ele>
        <time>2020-04-11T18:39:16Z</time>
      </trkpt>
      <trkpt lat="42.4924690" lon="-6.3985020">
        <ele>1451.4</ele>
        <time>2020-04-11T18:39:18Z</time>
      </trkpt>
      <trkpt lat="42.4924130" lon="-6.3986440">
        <ele>1451.5</ele>
        <time>2020-04-11T18:39:20Z</time>
      </trkpt>
      <trkpt lat="42.4923590" lon="-6.3987820">
        <ele>1451.6</ele>
        <time>2020-04-11T18:39:22Z</time>
      </trkpt>
      <trkpt lat="42.4922100" lon="-6.3991620">
        <ele>1452.8</ele>
        <time>2020-04-11T18:39:24Z</time>
      </trkpt>
      <trkpt lat="42.4922000" lon="-6.3993040">
        <ele>1453.4</ele>
        <time>2020-04-11T18:39:26Z</time>
      </trkpt>
      <trkpt lat="42.4921980" lon="-6.3995120">
        <ele>1454.6</ele>
        <time>2020-04-11T18:39:28Z</time>
      </trkpt>
      <trkpt lat="42.4922160" lon="-6.3996330">
        <ele>1455.6</ele>
        <time>2020-04-11T18:39:30Z</time>
      </trkpt>
      <trkpt lat="42.4922330" lon="-6.3997460">
        <ele>1456.4</ele>
        <time>2020-04-11T18:39:32Z</time>
      </trkpt>
      <trkpt lat="42.4922760" lon="-6.3999520">
        <ele>1457.9</ele>
        <time>2020-04-11T18:39:34Z</time>
      </trkpt>
      <trkpt lat="42.4923030" lon="-6.4000490">
        <ele>1458.4</ele>
        <time>2020-04-11T18:39:36Z</time>
      </trkpt>
      <trkpt lat="42.4923290" lon="-6.4001420">
        <ele>1459.0</ele>
        <time>2020-04-11T18:39:38Z</time>
      </trkpt>
      <trkpt lat="42.4923540" lon="-6.4002330">
        <ele>1459.4</ele>
        <time>2020-04-11T18:39:40Z</time>
      </trkpt>
      <trkpt lat="42.4923790" lon="-6.4003200">
        <ele>1459.9</ele>
        <time>2020-04-11T18:39:42Z</time>
      </trkpt>
      <trkpt lat="42.4924030" lon="-6.4004060">
        <ele>1460.3</ele>
        <time>2020-04-11T18:39:44Z</time>
      </trkpt>
      <trkpt lat="42.4924750" lon="-6.4006990">
        <ele>1461.2</ele>
        <time>2020-04-11T18:39:46Z</time>
      </trkpt>
      <trkpt lat="42.4924950" lon="-6.4008120">
        <ele>1461.4</ele>
        <time>2020-04-11T18:39:48Z</time>
      </trkpt>
      <trkpt lat="42.4925170" lon="-6.4009370">
        <ele>1461.5</ele>
        <time>2020-04-11T18:39:50Z</time>
      </trkpt>
      <trkpt lat="42.4925610" lon="-6.4012070">
        <ele>1461.4</ele>
        <time>2020-04-11T18:39:52Z</time>
      </trkpt>
      <trkpt lat="42.4925810" lon="-6.4013480">
        <ele>1461.3</ele>
        <time>2020-04-11T18:39:54Z</time>
      </trkpt>
      <trkpt lat="42.4926020" lon="-6.4014930">
        <ele>1461.0</ele>
        <time>2020-04-11T18:39:56Z</time>
      </trkpt>
      <trkpt lat="42.4926240" lon="-6.4016450">
        <ele>1460.7</ele>
        <time>2020-04-11T18:39:58Z</time>
      </trkpt>
      <trkpt lat="42.4926460" lon="-6.4018040">
        <ele>1460.4</ele>
        <time>2020-04-11T18:40:00Z</time>
      </trkpt>
      <trkpt lat="42.4926700" lon="-6.4019670">
        <ele>1460.1</ele>
        <time>2020-04-11T18:40:02Z</time>
      </trkpt>
      <trkpt lat="42.4927220" lon="-6.4024460">
        <ele>1458.8</ele>
        <time>2020-04-11T18:40:04Z</time>
      </trkpt>
      <trkpt lat="42.4927250" lon="-6.4026110">
        <ele>1458.4</ele>
        <time>2020-04-11T18:40:06Z</time>
      </trkpt>
      <trkpt lat="42.4927260" lon="-6.4029230">
        <ele>1458.0</ele>
        <time>2020-04-11T18:40:08Z</time>
      </trkpt>
      <trkpt lat="42.4927070" lon="-6.4030810">
        <ele>1458.2</ele>
        <time>2020-04-11T18:40:10Z</time>
      </trkpt>
      <trkpt lat="42.4926730" lon="-6.4033460">
        <ele>1458.1</ele>
        <time>2020-04-11T18:40:12Z</time>
      </trkpt>
      <trkpt lat="42.4926460" lon="-6.4034960">
        <ele>1457.8</ele>
        <time>2020-04-11T18:40:14Z</time>
      </trkpt>
      <trkpt lat="42.4926190" lon="-6.4036440">
        <ele>1457.6</ele>
        <time>2020-04-11T18:40:16Z</time>
      </trkpt>
      <trkpt lat="42.4925620" lon="-6.4039490">
        <ele>1458.3</ele>
        <time>2020-04-11T18:40:18Z</time>
      </trkpt>
      <trkpt lat="42.4925340" lon="-6.4040930">
        <ele>1460.0</ele>
        <time>2020-04-11T18:40:20Z</time>
      </trkpt>
      <trkpt lat="42.4925060" lon="-6.4042350">
        <ele>1461.7</ele>
        <time>2020-04-11T18:40:22Z</time>
      </trkpt>
      <trkpt lat="42.4924790" lon="-6.4043730">
        <ele>1463.3</ele>
        <time>2020-04-11T18:40:24Z</time>
      </trkpt>
      <trkpt lat="42.4924520" lon="-6.4045120">
        <ele>1464.5</ele>
        <time>2020-04-11T18:40:26Z</time>
      </trkpt>
      <trkpt lat="42.4924250" lon="-6.4046510">
        <ele>1464.5</ele>
        <time>2020-04-11T18:40:28Z</time>
      </trkpt>
      <trkpt lat="42.4923340" lon="-6.4050660">
        <ele>1465.1</ele>
        <time>2020-04-11T18:40:30Z</time>
      </trkpt>
      <trkpt lat="42.4922680" lon="-6.4052540">
        <ele>1465.6</ele>
        <time>2020-04-11T18:40:32Z</time>
      </trkpt>
      <trkpt lat="42.4921830" lon="-6.4053940">
        <ele>1466.0</ele>
        <time>2020-04-11T18:40:34Z</time>
      </trkpt>
      <trkpt lat="42.4920580" lon="-6.4055210">
        <ele>1466.3</ele>
        <time>2020-04-11T18:40:36Z</time>
      </trkpt>
      <trkpt lat="42.4919610" lon="-6.4055690">
        <ele>1466.3</ele>
        <time>2020-04-11T18:40:38Z</time>
      </trkpt>
      <trkpt lat="42.4917990" lon="-6.4056380">
        <ele>1466.2</ele>
        <time>2020-04-11T18:40:40Z</time>
      </trkpt>
      <trkpt lat="42.4916980" lon="-6.4056580">
        <ele>1466.2</ele>
        <time>2020-04-11T18:40:42Z</time>
      </trkpt>
      <trkpt lat="42.4915970" lon="-6.4056780">
        <ele>1466.2</ele>
        <time>2020-04-11T18:40:44Z</time>
      </trkpt>
      <trkpt lat="42.4914960" lon="-6.4056980">
        <ele>1466.2</ele>
        <time>2020-04-11T18:40:46Z</time>
      </trkpt>
      <trkpt lat="42.4913960" lon="-6.4057170">
        <ele>1466.3</ele>
        <time>2020-04-11T18:40:48Z</time>
      </trkpt>
      <trkpt lat="42.4911400" lon="-6.4057560">
        <ele>1466.8</ele>
        <time>2020-04-11T18:40:50Z</time>
      </trkpt>
      <trkpt lat="42.4910580" lon="-6.4057620">
        <ele>1467.1</ele>
        <time>2020-04-11T18:40:52Z</time>
      </trkpt>
      <trkpt lat="42.4909140" lon="-6.4057880">
        <ele>1467.5</ele>
        <time>2020-04-11T18:40:54Z</time>
      </trkpt>
      <trkpt lat="42.4908520" lon="-6.4058190">
        <ele>1467.8</ele>
        <time>2020-04-11T18:40:56Z</time>
      </trkpt>
      <trkpt lat="42.4907520" lon="-6.4058760">
        <ele>1468.2</ele>
        <time>2020-04-11T18:40:58Z</time>
      </trkpt>
      <trkpt lat="42.4907060" lon="-6.4059170">
        <ele>1468.5</ele>
        <time>2020-04-11T18:41:00Z</time>
      </trkpt>
      <trkpt lat="42.4906620" lon="-6.4059550">
        <ele>1468.8</ele>
        <time>2020-04-11T18:41:02Z</time>
      </trkpt>
      <trkpt lat="42.4906200" lon="-6.4059930">
        <ele>1469.1</ele>
        <time>2020-04-11T18:41:04Z</time>
      </trkpt>
      <trkpt lat="42.4905800" lon="-6.4060290">
        <ele>1469.5</ele>
        <time>2020-04-11T18:41:06Z</time>
      </trkpt>
      <trkpt lat="42.4905390" lon="-6.4060640">
        <ele>1469.9</ele>
        <time>2020-04-11T18:41:08Z</time>
      </trkpt>
      <trkpt lat="42.4904050" lon="-6.4061740">
        <ele>1471.5</ele>
        <time>2020-04-11T18:41:10Z</time>
      </trkpt>
      <trkpt lat="42.4903580" lon="-6.4061850">
        <ele>1472.0</ele>
        <time>2020-04-11T18:41:12Z</time>
      </trkpt>
      <trkpt lat="42.4903120" lon="-6.4061950">
        <ele>1472.4</ele>
        <time>2020-04-11T18:41:14Z</time>
      </trkpt>
      <trkpt lat="42.4902660" lon="-6.4062070">
        <ele>1472.9</ele>
        <time>2020-04-11T18:41:16Z</time>
      </trkpt>
      <trkpt lat="42.4902190" lon="-6.4062170">
        <ele>1473.4</ele>
        <time>2020-04-11T18:41:18Z</time>
      </trkpt>
      <trkpt lat="42.4901740" lon="-6.4062280">
        <ele>1473.8</ele>
        <time>2020-04-11T18:41:20Z</time>
      </trkpt>
      <trkpt lat="42.4900290" lon="-6.4062650">
        <ele>1475.4</ele>
        <time>2020-04-11T18:41:22Z</time>
      </trkpt>
      <trkpt lat="42.4899870" lon="-6.4062850">
        <ele>1475.9</ele>
        <time>2020-04-11T18:41:24Z</time>
      </trkpt>
      <trkpt lat="42.4899460" lon="-6.4063040">
        <ele>1476.4</ele>
        <time>2020-04-11T18:41:26Z</time>
      </trkpt>
      <trkpt lat="42.4899060" lon="-6.4063220">
        <ele>1476.9</ele>
        <time>2020-04-11T18:41:28Z</time>
      </trkpt>
      <trkpt lat="42.4898670" lon="-6.4063410">
        <ele>1477.4</ele>
        <time>2020-04-11T18:41:30Z</time>
      </trkpt>
      <trkpt lat="42.4898270" lon="-6.4063590">
        <ele>1477.9</ele>
        <time>2020-04-11T18:41:32Z</time>
      </trkpt>
      <trkpt lat="42.4897140" lon="-6.4064250">
        <ele>1479.6</ele>
        <time>2020-04-11T18:41:34Z</time>
      </trkpt>
      <trkpt lat="42.4896800" lon="-6.4064560">
        <ele>1480.1</ele>
        <time>2020-04-11T18:41:36Z</time>
      </trkpt>
      <trkpt lat="42.4896460" lon="-6.4064890">
        <ele>1480.7</ele>
        <time>2020-04-11T18:41:38Z</time>
      </trkpt>
      <trkpt lat="42.4896120" lon="-6.4065210">
        <ele>1481.2</ele>
        <time>2020-04-11T18:41:40Z</time>
      </trkpt>
      <trkpt lat="42.4895340" lon="-6.4066030">
        <ele>1482.5</ele>
        <time>2020-04-11T18:41:42Z</time>
      </trkpt>
      <trkpt lat="42.4894870" lon="-6.4066670">
        <ele>1483.3</ele>
        <time>2020-04-11T18:41:44Z</time>
      </trkpt>
      <trkpt lat="42.4894670" lon="-6.4067160">
        <ele>1483.8</ele>
        <time>2020-04-11T18:41:46Z</time>
      </trkpt>
      <trkpt lat="42.4894470" lon="-6.4067650">
        <ele>1484.2</ele>
        <time>2020-04-11T18:41:48Z</time>
      </trkpt>
      <trkpt lat="42.4894200" lon="-6.4068620">
        <ele>1484.9</ele>
        <time>2020-04-11T18:41:50Z</time>
      </trkpt>
      <trkpt lat="42.4894200" lon="-6.4069170">
        <ele>1485.2</ele>
        <time>2020-04-11T18:41:52Z</time>
      </trkpt>
      <trkpt lat="42.4894330" lon="-6.4070010">
        <ele>1485.7</ele>
        <time>2020-04-11T18:41:54Z</time>
      </trkpt>
      <trkpt lat="42.4894470" lon="-6.4070540">
        <ele>1485.9</ele>
        <time>2020-04-11T18:41:56Z</time>
      </trkpt>
      <trkpt lat="42.4894610" lon="-6.4071080">
        <ele>1486.1</ele>
        <time>2020-04-11T18:41:58Z</time>
      </trkpt>
      <trkpt lat="42.4894940" lon="-6.4072300">
        <ele>1486.4</ele>
        <time>2020-04-11T18:42:00Z</time>
      </trkpt>
      <trkpt lat="42.4895200" lon="-6.4072970">
        <ele>1486.4</ele>
        <time>2020-04-11T18:42:02Z</time>
      </trkpt>
      <trkpt lat="42.4895530" lon="-6.4073790">
        <ele>1486.5</ele>
        <time>2020-04-11T18:42:04Z</time>
      </trkpt>
      <trkpt lat="42.4895880" lon="-6.4074700">
        <ele>1486.5</ele>
        <time>2020-04-11T18:42:06Z</time>
      </trkpt>
      <trkpt lat="42.4896260" lon="-6.4075660">
        <ele>1486.5</ele>
        <time>2020-04-11T18:42:08Z</time>
      </trkpt>
      <trkpt lat="42.4897200" lon="-6.4078120">
        <ele>1486.5</ele>
        <time>2020-04-11T18:42:10Z</time>
      </trkpt>
      <trkpt lat="42.4897540" lon="-6.4079150">
        <ele>1486.6</ele>
        <time>2020-04-11T18:42:12Z</time>
      </trkpt>
      <trkpt lat="42.4897870" lon="-6.4080200">
        <ele>1486.8</ele>
        <time>2020-04-11T18:42:14Z</time>
      </trkpt>
      <trkpt lat="42.4898210" lon="-6.4081250">
        <ele>1486.9</ele>
        <time>2020-04-11T18:42:16Z</time>
      </trkpt>
      <trkpt lat="42.4899050" lon="-6.4083850">
        <ele>1487.2</ele>
        <time>2020-04-11T18:42:18Z</time>
      </trkpt>
      <trkpt lat="42.4899400" lon="-6.4084950">
        <ele>1487.4</ele>
        <time>2020-04-11T18:42:20Z</time>
      </trkpt>
      <trkpt lat="42.4899770" lon="-6.4086100">
        <ele>1487.5</ele>
        <time>2020-04-11T18:42:22Z</time>
      </trkpt>
      <trkpt lat="42.4900150" lon="-6.4087270">
        <ele>1487.7</ele>
        <time>2020-04-11T18:42:24Z</time>
      </trkpt>
      <trkpt lat="42.4901010" lon="-6.4090030">
        <ele>1487.9</ele>
        <time>2020-04-11T18:42:26Z</time>
      </trkpt>
      <trkpt lat="42.4901350" lon="-6.4091280">
        <ele>1487.9</ele>
        <time>2020-04-11T18:42:28Z</time>
      </trkpt>
      <trkpt lat="42.4901690" lon="-6.4092560">
        <ele>1488.0</ele>
        <time>2020-04-11T18:42:30Z</time>
      </trkpt>
      <trkpt lat="42.4902420" lon="-6.4095320">
        <ele>1488.1</ele>
        <time>2020-04-11T18:42:32Z</time>
      </trkpt>
      <trkpt lat="42.4902680" lon="-6.4096670">
        <ele>1488.3</ele>
        <time>2020-04-11T18:42:34Z</time>
      </trkpt>
      <trkpt lat="42.4902930" lon="-6.4098060">
        <ele>1488.4</ele>
        <time>2020-04-11T18:42:36Z</time>
      </trkpt>
      <trkpt lat="42.4903200" lon="-6.4099460">
        <ele>1488.7</ele>
        <time>2020-04-11T18:42:38Z</time>
      </trkpt>
      <trkpt lat="42.4903720" lon="-6.4102570">
        <ele>1489.2</ele>
        <time>2020-04-11T18:42:40Z</time>
      </trkpt>
      <trkpt lat="42.4903900" lon="-6.4104670">
        <ele>1489.4</ele>
        <time>2020-04-11T18:42:42Z</time>
      </trkpt>
      <trkpt lat="42.4903900" lon="-6.4106170">
        <ele>1489.6</ele>
        <time>2020-04-11T18:42:44Z</time>
      </trkpt>
      <trkpt lat="42.4903900" lon="-6.4107660">
        <ele>1489.7</ele>
        <time>2020-04-11T18:42:46Z</time>
      </trkpt>
      <trkpt lat="42.4903820" lon="-6.4110820">
        <ele>1489.9</ele>
        <time>2020-04-11T18:42:48Z</time>
      </trkpt>
      <trkpt lat="42.4903420" lon="-6.4112780">
        <ele>1489.9</ele>
        <time>2020-04-11T18:42:50Z</time>
      </trkpt>
      <trkpt lat="42.4902790" lon="-6.4114790">
        <ele>1490.0</ele>
        <time>2020-04-11T18:42:52Z</time>
      </trkpt>
      <trkpt lat="42.4902290" lon="-6.4116170">
        <ele>1490.1</ele>
        <time>2020-04-11T18:42:54Z</time>
      </trkpt>
      <trkpt lat="42.4901790" lon="-6.4117560">
        <ele>1490.2</ele>
        <time>2020-04-11T18:42:56Z</time>
      </trkpt>
      <trkpt lat="42.4901280" lon="-6.4118950">
        <ele>1490.4</ele>
        <time>2020-04-11T18:42:58Z</time>
      </trkpt>
      <trkpt lat="42.4900030" lon="-6.4122330">
        <ele>1491.1</ele>
        <time>2020-04-11T18:43:00Z</time>
      </trkpt>
      <trkpt lat="42.4899330" lon="-6.4123550">
        <ele>1491.5</ele>
        <time>2020-04-11T18:43:02Z</time>
      </trkpt>
      <trkpt lat="42.4898130" lon="-6.4125070">
        <ele>1492.2</ele>
        <time>2020-04-11T18:43:04Z</time>
      </trkpt>
      <trkpt lat="42.4896770" lon="-6.4126550">
        <ele>1493.2</ele>
        <time>2020-04-11T18:43:06Z</time>
      </trkpt>
      <trkpt lat="42.4895790" lon="-6.4128160">
        <ele>1494.2</ele>
        <time>2020-04-11T18:43:08Z</time>
      </trkpt>
      <trkpt lat="42.4895040" lon="-6.4129940">
        <ele>1495.3</ele>
        <time>2020-04-11T18:43:10Z</time>
      </trkpt>
      <trkpt lat="42.4894640" lon="-6.4131810">
        <ele>1496.3</ele>
        <time>2020-04-11T18:43:12Z</time>
      </trkpt>
      <trkpt lat="42.4894450" lon="-6.4133250">
        <ele>1497.1</ele>
        <time>2020-04-11T18:43:14Z</time>
      </trkpt>
      <trkpt lat="42.4894290" lon="-6.4135490">
        <ele>1498.2</ele>
        <time>2020-04-11T18:43:16Z</time>
      </trkpt>
      <trkpt lat="42.4894270" lon="-6.4136950">
        <ele>1498.8</ele>
        <time>2020-04-11T18:43:18Z</time>
      </trkpt>
      <trkpt lat="42.4894260" lon="-6.4138390">
        <ele>1499.3</ele>
        <time>2020-04-11T18:43:20Z</time>
      </trkpt>
      <trkpt lat="42.4894240" lon="-6.4139820">
        <ele>1499.8</ele>
        <time>2020-04-11T18:43:22Z</time>
      </trkpt>
      <trkpt lat="42.4894230" lon="-6.4141260">
        <ele>1500.3</ele>
        <time>2020-04-11T18:43:24Z</time>
      </trkpt>
      <trkpt lat="42.4894160" lon="-6.4145190">
        <ele>1500.9</ele>
        <time>2020-04-11T18:43:26Z</time>
      </trkpt>
      <trkpt lat="42.4894110" lon="-6.4146610">
        <ele>1501.0</ele>
        <time>2020-04-11T18:43:28Z</time>
      </trkpt>
      <trkpt lat="42.4894060" lon="-6.4148030">
        <ele>1501.1</ele>
        <time>2020-04-11T18:43:30Z</time>
      </trkpt>
      <trkpt lat="42.4893950" lon="-6.4151360">
        <ele>1501.1</ele>
        <time>2020-04-11T18:43:32Z</time>
      </trkpt>
      <trkpt lat="42.4893900" lon="-6.4152780">
        <ele>1501.0</ele>
        <time>2020-04-11T18:43:34Z</time>
      </trkpt>
      <trkpt lat="42.4893850" lon="-6.4154200">
        <ele>1500.9</ele>
        <time>2020-04-11T18:43:36Z</time>
      </trkpt>
      <trkpt lat="42.4893800" lon="-6.4155640">
        <ele>1500.8</ele>
        <time>2020-04-11T18:43:38Z</time>
      </trkpt>
      <trkpt lat="42.4893700" lon="-6.4158990">
        <ele>1500.3</ele>
        <time>2020-04-11T18:43:40Z</time>
      </trkpt>
      <trkpt lat="42.4893720" lon="-6.4160430">
        <ele>1500.1</ele>
        <time>2020-04-11T18:43:42Z</time>
      </trkpt>
      <trkpt lat="42.4893740" lon="-6.4161890">
        <ele>1499.9</ele>
        <time>2020-04-11T18:43:44Z</time>
      </trkpt>
      <trkpt lat="42.4893760" lon="-6.4163350">
        <ele>1499.7</ele>
        <time>2020-04-11T18:43:46Z</time>
      </trkpt>
      <trkpt lat="42.4893770" lon="-6.4164810">
        <ele>1499.5</ele>
        <time>2020-04-11T18:43:48Z</time>
      </trkpt>
      <trkpt lat="42.4893820" lon="-6.4168480">
        <ele>1499.2</ele>
        <time>2020-04-11T18:43:50Z</time>
      </trkpt>
      <trkpt lat="42.4893830" lon="-6.4169940">
        <ele>1499.2</ele>
        <time>2020-04-11T18:43:52Z</time>
      </trkpt>
      <trkpt lat="42.4893850" lon="-6.4171410">
        <ele>1499.1</ele>
        <time>2020-04-11T18:43:54Z</time>
      </trkpt>
      <trkpt lat="42.4893870" lon="-6.4172850">
        <ele>1499.1</ele>
        <time>2020-04-11T18:43:56Z</time>
      </trkpt>
      <trkpt lat="42.4893760" lon="-6.4176460">
        <ele>1499.1</ele>
        <time>2020-04-11T18:43:58Z</time>
      </trkpt>
      <trkpt lat="42.4893550" lon="-6.4177830">
        <ele>1499.2</ele>
        <time>2020-04-11T18:44:00Z</time>
      </trkpt>
      <trkpt lat="42.4893350" lon="-6.4179180">
        <ele>1499.3</ele>
        <time>2020-04-11T18:44:02Z</time>
      </trkpt>
      <trkpt lat="42.4892580" lon="-6.4182130">
        <ele>1499.7</ele>
        <time>2020-04-11T18:44:04Z</time>
      </trkpt>
      <trkpt lat="42.4891600" lon="-6.4183440">
        <ele>1500.1</ele>
        <time>2020-04-11T18:44:06Z</time>
      </trkpt>
      <trkpt lat="42.4890600" lon="-6.4184110">
        <ele>1500.4</ele>
        <time>2020-04-11T18:44:08Z</time>
      </trkpt>
      <trkpt lat="42.4889570" lon="-6.4184810">
        <ele>1500.7</ele>
        <time>2020-04-11T18:44:10Z</time>
      </trkpt>
      <trkpt lat="42.4887700" lon="-6.4186300">
        <ele>1501.2</ele>
        <time>2020-04-11T18:44:12Z</time>
      </trkpt>
      <trkpt lat="42.4886730" lon="-6.4187270">
        <ele>1501.4</ele>
        <time>2020-04-11T18:44:14Z</time>
      </trkpt>
      <trkpt lat="42.4885160" lon="-6.4189090">
        <ele>1501.5</ele>
        <time>2020-04-11T18:44:16Z</time>
      </trkpt>
      <trkpt lat="42.4884220" lon="-6.4190330">
        <ele>1501.4</ele>
        <time>2020-04-11T18:44:18Z</time>
      </trkpt>
      <trkpt lat="42.4883260" lon="-6.4191610">
        <ele>1501.4</ele>
        <time>2020-04-11T18:44:20Z</time>
      </trkpt>
      <trkpt lat="42.4881440" lon="-6.4194490">
        <ele>1501.2</ele>
        <time>2020-04-11T18:44:22Z</time>
      </trkpt>
      <trkpt lat="42.4880640" lon="-6.4196650">
        <ele>1501.1</ele>
        <time>2020-04-11T18:44:24Z</time>
      </trkpt>
      <trkpt lat="42.4879680" lon="-6.4199560">
        <ele>1500.8</ele>
        <time>2020-04-11T18:44:26Z</time>
      </trkpt>
      <trkpt lat="42.4879300" lon="-6.4202230">
        <ele>1500.6</ele>
        <time>2020-04-11T18:44:28Z</time>
      </trkpt>
      <trkpt lat="42.4879540" lon="-6.4204310">
        <ele>1500.3</ele>
        <time>2020-04-11T18:44:30Z</time>
      </trkpt>
      <trkpt lat="42.4880190" lon="-6.4207300">
        <ele>1499.8</ele>
        <time>2020-04-11T18:44:32Z</time>
      </trkpt>
      <trkpt lat="42.4881140" lon="-6.4210050">
        <ele>1498.9</ele>
        <time>2020-04-11T18:44:34Z</time>
      </trkpt>
      <trkpt lat="42.4881920" lon="-6.4212180">
        <ele>1498.0</ele>
        <time>2020-04-11T18:44:36Z</time>
      </trkpt>
      <trkpt lat="42.4882720" lon="-6.4214370">
        <ele>1497.1</ele>
        <time>2020-04-11T18:44:38Z</time>
      </trkpt>
      <trkpt lat="42.4884480" lon="-6.4219200">
        <ele>1494.7</ele>
        <time>2020-04-11T18:44:40Z</time>
      </trkpt>
      <trkpt lat="42.4885320" lon="-6.4221490">
        <ele>1493.4</ele>
        <time>2020-04-11T18:44:42Z</time>
      </trkpt>
      <trkpt lat="42.4886180" lon="-6.4223830">
        <ele>1492.2</ele>
        <time>2020-04-11T18:44:44Z</time>
      </trkpt>
      <trkpt lat="42.4887920" lon="-6.4228830">
        <ele>1489.4</ele>
        <time>2020-04-11T18:44:46Z</time>
      </trkpt>
      <trkpt lat="42.4888260" lon="-6.4231980">
        <ele>1487.7</ele>
        <time>2020-04-11T18:44:48Z</time>
      </trkpt>
      <trkpt lat="42.4887920" lon="-6.4235520">
        <ele>1485.8</ele>
        <time>2020-04-11T18:44:50Z</time>
      </trkpt>
      <trkpt lat="42.4887300" lon="-6.4239530">
        <ele>1483.8</ele>
        <time>2020-04-11T18:44:52Z</time>
      </trkpt>
      <trkpt lat="42.4887420" lon="-6.4242890">
        <ele>1482.9</ele>
        <time>2020-04-11T18:44:54Z</time>
      </trkpt>
      <trkpt lat="42.4888300" lon="-6.4246310">
        <ele>1481.8</ele>
        <time>2020-04-11T18:44:56Z</time>
      </trkpt>
      <trkpt lat="42.4889140" lon="-6.4249040">
        <ele>1480.7</ele>
        <time>2020-04-11T18:44:58Z</time>
      </trkpt>
      <trkpt lat="42.4890630" lon="-6.4253900">
        <ele>1478.6</ele>
        <time>2020-04-11T18:45:00Z</time>
      </trkpt>
      <trkpt lat="42.4891510" lon="-6.4256790">
        <ele>1477.2</ele>
        <time>2020-04-11T18:45:02Z</time>
      </trkpt>
      <trkpt lat="42.4893050" lon="-6.4261820">
        <ele>1473.6</ele>
        <time>2020-04-11T18:45:04Z</time>
      </trkpt>
      <trkpt lat="42.4894050" lon="-6.4265080">
        <ele>1470.6</ele>
        <time>2020-04-11T18:45:06Z</time>
      </trkpt>
      <trkpt lat="42.4896700" lon="-6.4270820">
        <ele>1464.1</ele>
        <time>2020-04-11T18:45:08Z</time>
      </trkpt>
      <trkpt lat="42.4898880" lon="-6.4273440">
        <ele>1460.2</ele>
        <time>2020-04-11T18:45:10Z</time>
      </trkpt>
      <trkpt lat="42.4902750" lon="-6.4278090">
        <ele>1453.3</ele>
        <time>2020-04-11T18:45:12Z</time>
      </trkpt>
      <trkpt lat="42.4905020" lon="-6.4280810">
        <ele>1449.1</ele>
        <time>2020-04-11T18:45:14Z</time>
      </trkpt>
      <trkpt lat="42.4908760" lon="-6.4285520">
        <ele>1440.9</ele>
        <time>2020-04-11T18:45:16Z</time>
      </trkpt>
      <trkpt lat="42.4910230" lon="-6.4289670">
        <ele>1436.1</ele>
        <time>2020-04-11T18:45:18Z</time>
      </trkpt>
      <trkpt lat="42.4911190" lon="-6.4293420">
        <ele>1432.4</ele>
        <time>2020-04-11T18:45:20Z</time>
      </trkpt>
      <trkpt lat="42.4912790" lon="-6.4299680">
        <ele>1426.3</ele>
        <time>2020-04-11T18:45:22Z</time>
      </trkpt>
      <trkpt lat="42.4913750" lon="-6.4303470">
        <ele>1422.7</ele>
        <time>2020-04-11T18:45:24Z</time>
      </trkpt>
      <trkpt lat="42.4915330" lon="-6.4309660">
        <ele>1417.1</ele>
        <time>2020-04-11T18:45:26Z</time>
      </trkpt>
      <trkpt lat="42.4916250" lon="-6.4313240">
        <ele>1414.0</ele>
        <time>2020-04-11T18:45:28Z</time>
      </trkpt>
      <trkpt lat="42.4917130" lon="-6.4320020">
        <ele>1410.1</ele>
        <time>2020-04-11T18:45:30Z</time>
      </trkpt>
      <trkpt lat="42.4916570" lon="-6.4324950">
        <ele>1407.5</ele>
        <time>2020-04-11T18:45:32Z</time>
      </trkpt>
      <trkpt lat="42.4915940" lon="-6.4328080">
        <ele>1405.8</ele>
        <time>2020-04-11T18:45:34Z</time>
      </trkpt>
      <trkpt lat="42.4914910" lon="-6.4332840">
        <ele>1403.6</ele>
        <time>2020-04-11T18:45:36Z</time>
      </trkpt>
      <trkpt lat="42.4913830" lon="-6.4336370">
        <ele>1401.9</ele>
        <time>2020-04-11T18:45:38Z</time>
      </trkpt>
      <trkpt lat="42.4912580" lon="-6.4340260">
        <ele>1400.1</ele>
        <time>2020-04-11T18:45:40Z</time>
      </trkpt>
      <trkpt lat="42.4911720" lon="-6.4344060">
        <ele>1398.2</ele>
        <time>2020-04-11T18:45:42Z</time>
      </trkpt>
      <trkpt lat="42.4911200" lon="-6.4347020">
        <ele>1396.6</ele>
        <time>2020-04-11T18:45:44Z</time>
      </trkpt>
      <trkpt lat="42.4910130" lon="-6.4352180">
        <ele>1393.6</ele>
        <time>2020-04-11T18:45:46Z</time>
      </trkpt>
      <trkpt lat="42.4909240" lon="-6.4355020">
        <ele>1392.1</ele>
        <time>2020-04-11T18:45:48Z</time>
      </trkpt>
      <trkpt lat="42.4908120" lon="-6.4359710">
        <ele>1390.5</ele>
        <time>2020-04-11T18:45:50Z</time>
      </trkpt>
      <trkpt lat="42.4907700" lon="-6.4363790">
        <ele>1388.4</ele>
        <time>2020-04-11T18:45:52Z</time>
      </trkpt>
      <trkpt lat="42.4907320" lon="-6.4368850">
        <ele>1386.4</ele>
        <time>2020-04-11T18:45:54Z</time>
      </trkpt>
      <trkpt lat="42.4907090" lon="-6.4372010">
        <ele>1384.2</ele>
        <time>2020-04-11T18:45:56Z</time>
      </trkpt>
      <trkpt lat="42.4906580" lon="-6.4377130">
        <ele>1381.2</ele>
        <time>2020-04-11T18:45:58Z</time>
      </trkpt>
      <trkpt lat="42.4906010" lon="-6.4380280">
        <ele>1380.1</ele>
        <time>2020-04-11T18:46:00Z</time>
      </trkpt>
      <trkpt lat="42.4905390" lon="-6.4385820">
        <ele>1377.4</ele>
        <time>2020-04-11T18:46:02Z</time>
      </trkpt>
      <trkpt lat="42.4905360" lon="-6.4389070">
        <ele>1375.5</ele>
        <time>2020-04-11T18:46:04Z</time>
      </trkpt>
      <trkpt lat="42.4905280" lon="-6.4394980">
        <ele>1372.3</ele>
        <time>2020-04-11T18:46:06Z</time>
      </trkpt>
      <trkpt lat="42.4904060" lon="-6.4398370">
        <ele>1370.2</ele>
        <time>2020-04-11T18:46:08Z</time>
      </trkpt>
      <trkpt lat="42.4901320" lon="-6.4400880">
        <ele>1368.5</ele>
        <time>2020-04-11T18:46:10Z</time>
      </trkpt>
      <trkpt lat="42.4898440" lon="-6.4402780">
        <ele>1367.4</ele>
        <time>2020-04-11T18:46:12Z</time>
      </trkpt>
      <trkpt lat="42.4895330" lon="-6.4404810">
        <ele>1366.6</ele>
        <time>2020-04-11T18:46:14Z</time>
      </trkpt>
      <trkpt lat="42.4893390" lon="-6.4407280">
        <ele>1366.5</ele>
        <time>2020-04-11T18:46:16Z</time>
      </trkpt>
      <trkpt lat="42.4891570" lon="-6.4410540">
        <ele>1367.6</ele>
        <time>2020-04-11T18:46:18Z</time>
      </trkpt>
      <trkpt lat="42.4892630" lon="-6.4413410">
        <ele>1369.0</ele>
        <time>2020-04-11T18:46:20Z</time>
      </trkpt>
      <trkpt lat="42.4894380" lon="-6.4415510">
        <ele>1369.7</ele>
        <time>2020-04-11T18:46:22Z</time>
      </trkpt>
      <trkpt lat="42.4895710" lon="-6.4416990">
        <ele>1369.6</ele>
        <time>2020-04-11T18:46:24Z</time>
      </trkpt>
      <trkpt lat="42.4898150" lon="-6.4419080">
        <ele>1368.7</ele>
        <time>2020-04-11T18:46:26Z</time>
      </trkpt>
      <trkpt lat="42.4899530" lon="-6.4419940">
        <ele>1368.1</ele>
        <time>2020-04-11T18:46:29Z</time>
      </trkpt>
      <trkpt lat="42.4902110" lon="-6.4421500">
        <ele>1366.6</ele>
        <time>2020-04-11T18:46:31Z</time>
      </trkpt>
      <trkpt lat="42.4903490" lon="-6.4422160">
        <ele>1365.8</ele>
        <time>2020-04-11T18:46:33Z</time>
      </trkpt>
      <trkpt lat="42.4904940" lon="-6.4422860">
        <ele>1365.0</ele>
        <time>2020-04-11T18:46:35Z</time>
      </trkpt>
      <trkpt lat="42.4906430" lon="-6.4423580">
        <ele>1364.0</ele>
        <time>2020-04-11T18:46:37Z</time>
      </trkpt>
      <trkpt lat="42.4910150" lon="-6.4425380">
        <ele>1361.3</ele>
        <time>2020-04-11T18:46:39Z</time>
      </trkpt>
      <trkpt lat="42.4911710" lon="-6.4426280">
        <ele>1359.7</ele>
        <time>2020-04-11T18:46:41Z</time>
      </trkpt>
      <trkpt lat="42.4914210" lon="-6.4427600">
        <ele>1356.8</ele>
        <time>2020-04-11T18:46:43Z</time>
      </trkpt>
      <trkpt lat="42.4916940" lon="-6.4428330">
        <ele>1353.8</ele>
        <time>2020-04-11T18:46:45Z</time>
      </trkpt>
      <trkpt lat="42.4918920" lon="-6.4426700">
        <ele>1351.7</ele>
        <time>2020-04-11T18:46:47Z</time>
      </trkpt>
      <trkpt lat="42.4920490" lon="-6.4424110">
        <ele>1350.0</ele>
        <time>2020-04-11T18:46:49Z</time>
      </trkpt>
      <trkpt lat="42.4921850" lon="-6.4421800">
        <ele>1349.0</ele>
        <time>2020-04-11T18:46:51Z</time>
      </trkpt>
      <trkpt lat="42.4924700" lon="-6.4417670">
        <ele>1347.7</ele>
        <time>2020-04-11T18:46:53Z</time>
      </trkpt>
      <trkpt lat="42.4927720" lon="-6.4418060">
        <ele>1346.6</ele>
        <time>2020-04-11T18:46:55Z</time>
      </trkpt>
      <trkpt lat="42.4929960" lon="-6.4419680">
        <ele>1344.7</ele>
        <time>2020-04-11T18:46:57Z</time>
      </trkpt>
      <trkpt lat="42.4934080" lon="-6.4422510">
        <ele>1338.9</ele>
        <time>2020-04-11T18:46:59Z</time>
      </trkpt>
      <trkpt lat="42.4937200" lon="-6.4423670">
        <ele>1334.2</ele>
        <time>2020-04-11T18:47:01Z</time>
      </trkpt>
      <trkpt lat="42.4941190" lon="-6.4424740">
        <ele>1327.4</ele>
        <time>2020-04-11T18:47:03Z</time>
      </trkpt>
      <trkpt lat="42.4945430" lon="-6.4425760">
        <ele>1320.0</ele>
        <time>2020-04-11T18:47:05Z</time>
      </trkpt>
      <trkpt lat="42.4949140" lon="-6.4427340">
        <ele>1313.5</ele>
        <time>2020-04-11T18:47:07Z</time>
      </trkpt>
      <trkpt lat="42.4952820" lon="-6.4431340">
        <ele>1308.3</ele>
        <time>2020-04-11T18:47:09Z</time>
      </trkpt>
      <trkpt lat="42.4954150" lon="-6.4435050">
        <ele>1305.1</ele>
        <time>2020-04-11T18:47:11Z</time>
      </trkpt>
      <trkpt lat="42.4956050" lon="-6.4440350">
        <ele>1300.0</ele>
        <time>2020-04-11T18:47:13Z</time>
      </trkpt>
      <trkpt lat="42.4957980" lon="-6.4445560">
        <ele>1294.6</ele>
        <time>2020-04-11T18:47:15Z</time>
      </trkpt>
      <trkpt lat="42.4960120" lon="-6.4450530">
        <ele>1288.8</ele>
        <time>2020-04-11T18:47:17Z</time>
      </trkpt>
      <trkpt lat="42.4963360" lon="-6.4453990">
        <ele>1283.7</ele>
        <time>2020-04-11T18:47:19Z</time>
      </trkpt>
      <trkpt lat="42.4967510" lon="-6.4454770">
        <ele>1280.3</ele>
        <time>2020-04-11T18:47:21Z</time>
      </trkpt>
      <trkpt lat="42.4970280" lon="-6.4452050">
        <ele>1277.8</ele>
        <time>2020-04-11T18:47:23Z</time>
      </trkpt>
      <trkpt lat="42.4972390" lon="-6.4449250">
        <ele>1275.9</ele>
        <time>2020-04-11T18:47:25Z</time>
      </trkpt>
      <trkpt lat="42.4975660" lon="-6.4443220">
        <ele>1271.6</ele>
        <time>2020-04-11T18:47:27Z</time>
      </trkpt>
      <trkpt lat="42.4978670" lon="-6.4442530">
        <ele>1268.8</ele>
        <time>2020-04-11T18:47:29Z</time>
      </trkpt>
      <trkpt lat="42.4981510" lon="-6.4446000">
        <ele>1264.7</ele>
        <time>2020-04-11T18:47:31Z</time>
      </trkpt>
      <trkpt lat="42.4982840" lon="-6.4449150">
        <ele>1261.9</ele>
        <time>2020-04-11T18:47:33Z</time>
      </trkpt>
      <trkpt lat="42.4984700" lon="-6.4454380">
        <ele>1256.6</ele>
        <time>2020-04-11T18:47:35Z</time>
      </trkpt>
      <trkpt lat="42.4985520" lon="-6.4457970">
        <ele>1252.8</ele>
        <time>2020-04-11T18:47:37Z</time>
      </trkpt>
      <trkpt lat="42.4986000" lon="-6.4463690">
        <ele>1247.1</ele>
        <time>2020-04-11T18:47:39Z</time>
      </trkpt>
      <trkpt lat="42.4985350" lon="-6.4468660">
        <ele>1242.3</ele>
        <time>2020-04-11T18:47:41Z</time>
      </trkpt>
      <trkpt lat="42.4984410" lon="-6.4473980">
        <ele>1236.9</ele>
        <time>2020-04-11T18:47:43Z</time>
      </trkpt>
      <trkpt lat="42.4983590" lon="-6.4479370">
        <ele>1231.2</ele>
        <time>2020-04-11T18:47:45Z</time>
      </trkpt>
      <trkpt lat="42.4983010" lon="-6.4485190">
        <ele>1225.3</ele>
        <time>2020-04-11T18:47:47Z</time>
      </trkpt>
      <trkpt lat="42.4983330" lon="-6.4489980">
        <ele>1222.2</ele>
        <time>2020-04-11T18:47:49Z</time>
      </trkpt>
      <trkpt lat="42.4984430" lon="-6.4495040">
        <ele>1217.4</ele>
        <time>2020-04-11T18:47:51Z</time>
      </trkpt>
      <trkpt lat="42.4986740" lon="-6.4499240">
        <ele>1213.8</ele>
        <time>2020-04-11T18:47:53Z</time>
      </trkpt>
      <trkpt lat="42.4989170" lon="-6.4505150">
        <ele>1208.8</ele>
        <time>2020-04-11T18:47:55Z</time>
      </trkpt>
      <trkpt lat="42.4990040" lon="-6.4510280">
        <ele>1204.4</ele>
        <time>2020-04-11T18:47:57Z</time>
      </trkpt>
      <trkpt lat="42.4990580" lon="-6.4514010">
        <ele>1200.8</ele>
        <time>2020-04-11T18:47:59Z</time>
      </trkpt>
      <trkpt lat="42.4991560" lon="-6.4520010">
        <ele>1195.5</ele>
        <time>2020-04-11T18:48:01Z</time>
      </trkpt>
      <trkpt lat="42.4992420" lon="-6.4524900">
        <ele>1192.8</ele>
        <time>2020-04-11T18:48:03Z</time>
      </trkpt>
      <trkpt lat="42.4992440" lon="-6.4529190">
        <ele>1189.0</ele>
        <time>2020-04-11T18:48:05Z</time>
      </trkpt>
      <trkpt lat="42.4991650" lon="-6.4534760">
        <ele>1183.2</ele>
        <time>2020-04-11T18:48:07Z</time>
      </trkpt>
      <trkpt lat="42.4989160" lon="-6.4538710">
        <ele>1178.5</ele>
        <time>2020-04-11T18:48:09Z</time>
      </trkpt>
      <trkpt lat="42.4986400" lon="-6.4541490">
        <ele>1174.3</ele>
        <time>2020-04-11T18:48:11Z</time>
      </trkpt>
      <trkpt lat="42.4984380" lon="-6.4545650">
        <ele>1169.1</ele>
        <time>2020-04-11T18:48:13Z</time>
      </trkpt>
      <trkpt lat="42.4983440" lon="-6.4549390">
        <ele>1164.8</ele>
        <time>2020-04-11T18:48:15Z</time>
      </trkpt>
      <trkpt lat="42.4980790" lon="-6.4555480">
        <ele>1156.7</ele>
        <time>2020-04-11T18:48:17Z</time>
      </trkpt>
      <trkpt lat="42.4977030" lon="-6.4558010">
        <ele>1151.1</ele>
        <time>2020-04-11T18:48:19Z</time>
      </trkpt>
      <trkpt lat="42.4979200" lon="-6.4560470">
        <ele>1153.1</ele>
        <time>2020-04-11T18:48:21Z</time>
      </trkpt>
      <trkpt lat="42.4983030" lon="-6.4562930">
        <ele>1150.7</ele>
        <time>2020-04-11T18:48:23Z</time>
      </trkpt>
      <trkpt lat="42.4985410" lon="-6.4566360">
        <ele>1148.0</ele>
        <time>2020-04-11T18:48:25Z</time>
      </trkpt>
      <trkpt lat="42.4987790" lon="-6.4569480">
        <ele>1145.0</ele>
        <time>2020-04-11T18:48:27Z</time>
      </trkpt>
      <trkpt lat="42.4990570" lon="-6.4573500">
        <ele>1142.7</ele>
        <time>2020-04-11T18:48:29Z</time>
      </trkpt>
      <trkpt lat="42.4991920" lon="-6.4577380">
        <ele>1140.7</ele>
        <time>2020-04-11T18:48:31Z</time>
      </trkpt>
      <trkpt lat="42.4993470" lon="-6.4580700">
        <ele>1139.5</ele>
        <time>2020-04-11T18:48:33Z</time>
      </trkpt>
      <trkpt lat="42.4995740" lon="-6.4583090">
        <ele>1137.6</ele>
        <time>2020-04-11T18:48:35Z</time>
      </trkpt>
      <trkpt lat="42.4997970" lon="-6.4584030">
        <ele>1135.4</ele>
        <time>2020-04-11T18:48:37Z</time>
      </trkpt>
      <trkpt lat="42.5000690" lon="-6.4584490">
        <ele>1133.9</ele>
        <time>2020-04-11T18:48:39Z</time>
      </trkpt>
      <trkpt lat="42.5003800" lon="-6.4585150">
        <ele>1131.9</ele>
        <time>2020-04-11T18:48:41Z</time>
      </trkpt>
      <trkpt lat="42.5006400" lon="-6.4586930">
        <ele>1128.7</ele>
        <time>2020-04-11T18:48:43Z</time>
      </trkpt>
      <trkpt lat="42.5009450" lon="-6.4589880">
        <ele>1125.4</ele>
        <time>2020-04-11T18:48:45Z</time>
      </trkpt>
      <trkpt lat="42.5012070" lon="-6.4592550">
        <ele>1123.4</ele>
        <time>2020-04-11T18:48:47Z</time>
      </trkpt>
      <trkpt lat="42.5015290" lon="-6.4594750">
        <ele>1118.6</ele>
        <time>2020-04-11T18:48:49Z</time>
      </trkpt>
      <trkpt lat="42.5017880" lon="-6.4597120">
        <ele>1116.4</ele>
        <time>2020-04-11T18:48:51Z</time>
      </trkpt>
      <trkpt lat="42.5020920" lon="-6.4600230">
        <ele>1113.5</ele>
        <time>2020-04-11T18:48:53Z</time>
      </trkpt>
      <trkpt lat="42.5022910" lon="-6.4602270">
        <ele>1111.8</ele>
        <time>2020-04-11T18:48:55Z</time>
      </trkpt>
      <trkpt lat="42.5026010" lon="-6.4605090">
        <ele>1109.4</ele>
        <time>2020-04-11T18:48:57Z</time>
      </trkpt>
      <trkpt lat="42.5028090" lon="-6.4606810">
        <ele>1107.9</ele>
        <time>2020-04-11T18:48:59Z</time>
      </trkpt>
      <trkpt lat="42.5031260" lon="-6.4610430">
        <ele>1104.5</ele>
        <time>2020-04-11T18:49:01Z</time>
      </trkpt>
      <trkpt lat="42.5033900" lon="-6.4614510">
        <ele>1100.9</ele>
        <time>2020-04-11T18:49:03Z</time>
      </trkpt>
      <trkpt lat="42.5035780" lon="-6.4616550">
        <ele>1099.0</ele>
        <time>2020-04-11T18:49:05Z</time>
      </trkpt>
      <trkpt lat="42.5038680" lon="-6.4619720">
        <ele>1096.3</ele>
        <time>2020-04-11T18:49:07Z</time>
      </trkpt>
      <trkpt lat="42.5041620" lon="-6.4622920">
        <ele>1093.9</ele>
        <time>2020-04-11T18:49:09Z</time>
      </trkpt>
      <trkpt lat="42.5043600" lon="-6.4624900">
        <ele>1092.3</ele>
        <time>2020-04-11T18:49:11Z</time>
      </trkpt>
      <trkpt lat="42.5046500" lon="-6.4628210">
        <ele>1089.7</ele>
        <time>2020-04-11T18:49:13Z</time>
      </trkpt>
      <trkpt lat="42.5048100" lon="-6.4630770">
        <ele>1088.0</ele>
        <time>2020-04-11T18:49:15Z</time>
      </trkpt>
      <trkpt lat="42.5050420" lon="-6.4635110">
        <ele>1085.3</ele>
        <time>2020-04-11T18:49:17Z</time>
      </trkpt>
      <trkpt lat="42.5051680" lon="-6.4637960">
        <ele>1083.8</ele>
        <time>2020-04-11T18:49:19Z</time>
      </trkpt>
      <trkpt lat="42.5053950" lon="-6.4642540">
        <ele>1081.1</ele>
        <time>2020-04-11T18:49:21Z</time>
      </trkpt>
      <trkpt lat="42.5055430" lon="-6.4645180">
        <ele>1079.3</ele>
        <time>2020-04-11T18:49:23Z</time>
      </trkpt>
      <trkpt lat="42.5058230" lon="-6.4650260">
        <ele>1075.6</ele>
        <time>2020-04-11T18:49:25Z</time>
      </trkpt>
      <trkpt lat="42.5059590" lon="-6.4652980">
        <ele>1073.5</ele>
        <time>2020-04-11T18:49:27Z</time>
      </trkpt>
      <trkpt lat="42.5060970" lon="-6.4655750">
        <ele>1071.2</ele>
        <time>2020-04-11T18:49:29Z</time>
      </trkpt>
      <trkpt lat="42.5063680" lon="-6.4661000">
        <ele>1066.8</ele>
        <time>2020-04-11T18:49:31Z</time>
      </trkpt>
      <trkpt lat="42.5065160" lon="-6.4663730">
        <ele>1064.6</ele>
        <time>2020-04-11T18:49:33Z</time>
      </trkpt>
      <trkpt lat="42.5067550" lon="-6.4668120">
        <ele>1061.1</ele>
        <time>2020-04-11T18:49:35Z</time>
      </trkpt>
      <trkpt lat="42.5070040" lon="-6.4672450">
        <ele>1057.1</ele>
        <time>2020-04-11T18:49:37Z</time>
      </trkpt>
      <trkpt lat="42.5071930" lon="-6.4674810">
        <ele>1054.1</ele>
        <time>2020-04-11T18:49:39Z</time>
      </trkpt>
      <trkpt lat="42.5075490" lon="-6.4678450">
        <ele>1048.9</ele>
        <time>2020-04-11T18:49:41Z</time>
      </trkpt>
      <trkpt lat="42.5079020" lon="-6.4680200">
        <ele>1045.8</ele>
        <time>2020-04-11T18:49:43Z</time>
      </trkpt>
      <trkpt lat="42.5081950" lon="-6.4678880">
        <ele>1041.9</ele>
        <time>2020-04-11T18:49:45Z</time>
      </trkpt>
      <trkpt lat="42.5085500" lon="-6.4677890">
        <ele>1037.0</ele>
        <time>2020-04-11T18:49:47Z</time>
      </trkpt>
      <trkpt lat="42.5089410" lon="-6.4678310">
        <ele>1032.1</ele>
        <time>2020-04-11T18:49:49Z</time>
      </trkpt>
      <trkpt lat="42.5092050" lon="-6.4678890">
        <ele>1029.4</ele>
        <time>2020-04-11T18:49:51Z</time>
      </trkpt>
      <trkpt lat="42.5096650" lon="-6.4680820">
        <ele>1025.3</ele>
        <time>2020-04-11T18:49:53Z</time>
      </trkpt>
      <trkpt lat="42.5099400" lon="-6.4683250">
        <ele>1023.7</ele>
        <time>2020-04-11T18:49:55Z</time>
      </trkpt>
      <trkpt lat="42.5101160" lon="-6.4685280">
        <ele>1023.2</ele>
        <time>2020-04-11T18:49:57Z</time>
      </trkpt>
      <trkpt lat="42.5102830" lon="-6.4687210">
        <ele>1022.5</ele>
        <time>2020-04-11T18:49:59Z</time>
      </trkpt>
      <trkpt lat="42.5105970" lon="-6.4690830">
        <ele>1021.1</ele>
        <time>2020-04-11T18:50:01Z</time>
      </trkpt>
      <trkpt lat="42.5107580" lon="-6.4692690">
        <ele>1020.4</ele>
        <time>2020-04-11T18:50:03Z</time>
      </trkpt>
      <trkpt lat="42.5109180" lon="-6.4694540">
        <ele>1019.6</ele>
        <time>2020-04-11T18:50:05Z</time>
      </trkpt>
      <trkpt lat="42.5112270" lon="-6.4698070">
        <ele>1017.6</ele>
        <time>2020-04-11T18:50:07Z</time>
      </trkpt>
      <trkpt lat="42.5113850" lon="-6.4699860">
        <ele>1016.5</ele>
        <time>2020-04-11T18:50:09Z</time>
      </trkpt>
      <trkpt lat="42.5116880" lon="-6.4703290">
        <ele>1013.6</ele>
        <time>2020-04-11T18:50:11Z</time>
      </trkpt>
      <trkpt lat="42.5118520" lon="-6.4705130">
        <ele>1012.0</ele>
        <time>2020-04-11T18:50:13Z</time>
      </trkpt>
      <trkpt lat="42.5121590" lon="-6.4708610">
        <ele>1008.8</ele>
        <time>2020-04-11T18:50:15Z</time>
      </trkpt>
      <trkpt lat="42.5123190" lon="-6.4710680">
        <ele>1006.8</ele>
        <time>2020-04-11T18:50:17Z</time>
      </trkpt>
      <trkpt lat="42.5126040" lon="-6.4714360">
        <ele>1003.1</ele>
        <time>2020-04-11T18:50:19Z</time>
      </trkpt>
      <trkpt lat="42.5127790" lon="-6.4716630">
        <ele>1000.6</ele>
        <time>2020-04-11T18:50:21Z</time>
      </trkpt>
      <trkpt lat="42.5130860" lon="-6.4720270">
        <ele>996.3</ele>
        <time>2020-04-11T18:50:23Z</time>
      </trkpt>
      <trkpt lat="42.5133810" lon="-6.4720050">
        <ele>993.1</ele>
        <time>2020-04-11T18:50:25Z</time>
      </trkpt>
      <trkpt lat="42.5136090" lon="-6.4719200">
        <ele>991.0</ele>
        <time>2020-04-11T18:50:27Z</time>
      </trkpt>
      <trkpt lat="42.5139890" lon="-6.4718220">
        <ele>989.5</ele>
        <time>2020-04-11T18:50:29Z</time>
      </trkpt>
      <trkpt lat="42.5142120" lon="-6.4718090">
        <ele>988.1</ele>
        <time>2020-04-11T18:50:31Z</time>
      </trkpt>
      <trkpt lat="42.5146300" lon="-6.4717420">
        <ele>985.9</ele>
        <time>2020-04-11T18:50:33Z</time>
      </trkpt>
      <trkpt lat="42.5148220" lon="-6.4714930">
        <ele>984.7</ele>
        <time>2020-04-11T18:50:35Z</time>
      </trkpt>
      <trkpt lat="42.5149750" lon="-6.4711710">
        <ele>983.3</ele>
        <time>2020-04-11T18:50:37Z</time>
      </trkpt>
      <trkpt lat="42.5152280" lon="-6.4709040">
        <ele>981.3</ele>
        <time>2020-04-11T18:50:39Z</time>
      </trkpt>
      <trkpt lat="42.5154990" lon="-6.4708010">
        <ele>979.7</ele>
        <time>2020-04-11T18:50:41Z</time>
      </trkpt>
      <trkpt lat="42.5157490" lon="-6.4706320">
        <ele>977.8</ele>
        <time>2020-04-11T18:50:43Z</time>
      </trkpt>
      <trkpt lat="42.5160600" lon="-6.4705250">
        <ele>975.2</ele>
        <time>2020-04-11T18:50:45Z</time>
      </trkpt>
      <trkpt lat="42.5163630" lon="-6.4706330">
        <ele>973.7</ele>
        <time>2020-04-11T18:50:47Z</time>
      </trkpt>
      <trkpt lat="42.5165120" lon="-6.4709050">
        <ele>972.5</ele>
        <time>2020-04-11T18:50:49Z</time>
      </trkpt>
      <trkpt lat="42.5166360" lon="-6.4711510">
        <ele>971.1</ele>
        <time>2020-04-11T18:50:51Z</time>
      </trkpt>
      <trkpt lat="42.5168700" lon="-6.4716190">
        <ele>968.8</ele>
        <time>2020-04-11T18:50:53Z</time>
      </trkpt>
      <trkpt lat="42.5169870" lon="-6.4718550">
        <ele>967.8</ele>
        <time>2020-04-11T18:50:55Z</time>
      </trkpt>
      <trkpt lat="42.5171010" lon="-6.4720830">
        <ele>966.8</ele>
        <time>2020-04-11T18:50:57Z</time>
      </trkpt>
      <trkpt lat="42.5173260" lon="-6.4725320">
        <ele>965.0</ele>
        <time>2020-04-11T18:50:59Z</time>
      </trkpt>
      <trkpt lat="42.5174360" lon="-6.4727530">
        <ele>964.1</ele>
        <time>2020-04-11T18:51:01Z</time>
      </trkpt>
      <trkpt lat="42.5175460" lon="-6.4729710">
        <ele>963.3</ele>
        <time>2020-04-11T18:51:03Z</time>
      </trkpt>
      <trkpt lat="42.5177660" lon="-6.4734130">
        <ele>961.8</ele>
        <time>2020-04-11T18:51:05Z</time>
      </trkpt>
      <trkpt lat="42.5178700" lon="-6.4736200">
        <ele>961.1</ele>
        <time>2020-04-11T18:51:07Z</time>
      </trkpt>
      <trkpt lat="42.5179730" lon="-6.4738260">
        <ele>960.3</ele>
        <time>2020-04-11T18:51:09Z</time>
      </trkpt>
      <trkpt lat="42.5181880" lon="-6.4742550">
        <ele>958.9</ele>
        <time>2020-04-11T18:51:11Z</time>
      </trkpt>
      <trkpt lat="42.5182890" lon="-6.4744580">
        <ele>958.1</ele>
        <time>2020-04-11T18:51:13Z</time>
      </trkpt>
      <trkpt lat="42.5183900" lon="-6.4746600">
        <ele>957.5</ele>
        <time>2020-04-11T18:51:15Z</time>
      </trkpt>
      <trkpt lat="42.5186040" lon="-6.4750870">
        <ele>956.2</ele>
        <time>2020-04-11T18:51:17Z</time>
      </trkpt>
      <trkpt lat="42.5187040" lon="-6.4752870">
        <ele>955.5</ele>
        <time>2020-04-11T18:51:19Z</time>
      </trkpt>
      <trkpt lat="42.5188020" lon="-6.4754850">
        <ele>954.9</ele>
        <time>2020-04-11T18:51:21Z</time>
      </trkpt>
      <trkpt lat="42.5190130" lon="-6.4759110">
        <ele>953.8</ele>
        <time>2020-04-11T18:51:23Z</time>
      </trkpt>
      <trkpt lat="42.5191080" lon="-6.4761140">
        <ele>953.2</ele>
        <time>2020-04-11T18:51:25Z</time>
      </trkpt>
      <trkpt lat="42.5192690" lon="-6.4764540">
        <ele>952.3</ele>
        <time>2020-04-11T18:51:27Z</time>
      </trkpt>
      <trkpt lat="42.5193650" lon="-6.4766590">
        <ele>951.9</ele>
        <time>2020-04-11T18:51:29Z</time>
      </trkpt>
      <trkpt lat="42.5195400" lon="-6.4769930">
        <ele>950.9</ele>
        <time>2020-04-11T18:51:31Z</time>
      </trkpt>
      <trkpt lat="42.5197540" lon="-6.4772620">
        <ele>949.7</ele>
        <time>2020-04-11T18:51:33Z</time>
      </trkpt>
      <trkpt lat="42.5199200" lon="-6.4773740">
        <ele>948.8</ele>
        <time>2020-04-11T18:51:35Z</time>
      </trkpt>
      <trkpt lat="42.5200890" lon="-6.4774880">
        <ele>947.9</ele>
        <time>2020-04-11T18:51:37Z</time>
      </trkpt>
      <trkpt lat="42.5203880" lon="-6.4776900">
        <ele>946.5</ele>
        <time>2020-04-11T18:51:39Z</time>
      </trkpt>
      <trkpt lat="42.5205590" lon="-6.4778050">
        <ele>946.1</ele>
        <time>2020-04-11T18:51:41Z</time>
      </trkpt>
      <trkpt lat="42.5208700" lon="-6.4779710">
        <ele>944.4</ele>
        <time>2020-04-11T18:51:43Z</time>
      </trkpt>
      <trkpt lat="42.5210590" lon="-6.4780400">
        <ele>943.1</ele>
        <time>2020-04-11T18:51:45Z</time>
      </trkpt>
      <trkpt lat="42.5214130" lon="-6.4782340">
        <ele>940.4</ele>
        <time>2020-04-11T18:51:47Z</time>
      </trkpt>
      <trkpt lat="42.5215690" lon="-6.4784070">
        <ele>939.2</ele>
        <time>2020-04-11T18:51:49Z</time>
      </trkpt>
      <trkpt lat="42.5218260" lon="-6.4786910">
        <ele>938.0</ele>
        <time>2020-04-11T18:51:51Z</time>
      </trkpt>
      <trkpt lat="42.5219970" lon="-6.4788070">
        <ele>937.1</ele>
        <time>2020-04-11T18:51:53Z</time>
      </trkpt>
      <trkpt lat="42.5222650" lon="-6.4789630">
        <ele>936.3</ele>
        <time>2020-04-11T18:51:55Z</time>
      </trkpt>
      <trkpt lat="42.5224330" lon="-6.4790410">
        <ele>935.5</ele>
        <time>2020-04-11T18:51:57Z</time>
      </trkpt>
      <trkpt lat="42.5227400" lon="-6.4791160">
        <ele>934.6</ele>
        <time>2020-04-11T18:51:59Z</time>
      </trkpt>
      <trkpt lat="42.5229080" lon="-6.4789810">
        <ele>934.0</ele>
        <time>2020-04-11T18:52:01Z</time>
      </trkpt>
      <trkpt lat="42.5230100" lon="-6.4787890">
        <ele>933.7</ele>
        <time>2020-04-11T18:52:03Z</time>
      </trkpt>
      <trkpt lat="42.5230630" lon="-6.4786480">
        <ele>933.4</ele>
        <time>2020-04-11T18:52:05Z</time>
      </trkpt>
      <trkpt lat="42.5232120" lon="-6.4785000">
        <ele>933.1</ele>
        <time>2020-04-11T18:52:07Z</time>
      </trkpt>
      <trkpt lat="42.5233250" lon="-6.4785200">
        <ele>932.9</ele>
        <time>2020-04-11T18:52:09Z</time>
      </trkpt>
      <trkpt lat="42.5234360" lon="-6.4785610">
        <ele>932.7</ele>
        <time>2020-04-11T18:52:11Z</time>
      </trkpt>
      <trkpt lat="42.5236440" lon="-6.4786510">
        <ele>932.3</ele>
        <time>2020-04-11T18:52:13Z</time>
      </trkpt>
      <trkpt lat="42.5238520" lon="-6.4787810">
        <ele>931.2</ele>
        <time>2020-04-11T18:52:15Z</time>
      </trkpt>
      <trkpt lat="42.5239200" lon="-6.4790570">
        <ele>929.9</ele>
        <time>2020-04-11T18:52:17Z</time>
      </trkpt>
      <trkpt lat="42.5238530" lon="-6.4792910">
        <ele>928.8</ele>
        <time>2020-04-11T18:52:19Z</time>
      </trkpt>
      <trkpt lat="42.5238060" lon="-6.4797280">
        <ele>926.9</ele>
        <time>2020-04-11T18:52:21Z</time>
      </trkpt>
      <trkpt lat="42.5238860" lon="-6.4800440">
        <ele>925.4</ele>
        <time>2020-04-11T18:52:23Z</time>
      </trkpt>
      <trkpt lat="42.5239830" lon="-6.4803150">
        <ele>924.1</ele>
        <time>2020-04-11T18:52:25Z</time>
      </trkpt>
      <trkpt lat="42.5241540" lon="-6.4807920">
        <ele>922.6</ele>
        <time>2020-04-11T18:52:27Z</time>
      </trkpt>
      <trkpt lat="42.5242560" lon="-6.4810770">
        <ele>920.8</ele>
        <time>2020-04-11T18:52:29Z</time>
      </trkpt>
      <trkpt lat="42.5244520" lon="-6.4815380">
        <ele>917.8</ele>
        <time>2020-04-11T18:52:31Z</time>
      </trkpt>
      <trkpt lat="42.5245850" lon="-6.4817970">
        <ele>916.1</ele>
        <time>2020-04-11T18:52:33Z</time>
      </trkpt>
      <trkpt lat="42.5248110" lon="-6.4822350">
        <ele>913.2</ele>
        <time>2020-04-11T18:52:35Z</time>
      </trkpt>
      <trkpt lat="42.5250390" lon="-6.4826780">
        <ele>910.1</ele>
        <time>2020-04-11T18:52:37Z</time>
      </trkpt>
      <trkpt lat="42.5251780" lon="-6.4829480">
        <ele>908.3</ele>
        <time>2020-04-11T18:52:39Z</time>
      </trkpt>
      <trkpt lat="42.5254140" lon="-6.4833920">
        <ele>905.3</ele>
        <time>2020-04-11T18:52:41Z</time>
      </trkpt>
      <trkpt lat="42.5255750" lon="-6.4836370">
        <ele>903.5</ele>
        <time>2020-04-11T18:52:43Z</time>
      </trkpt>
      <trkpt lat="42.5258400" lon="-6.4840550">
        <ele>900.8</ele>
        <time>2020-04-11T18:52:45Z</time>
      </trkpt>
      <trkpt lat="42.5259550" lon="-6.4843190">
        <ele>899.3</ele>
        <time>2020-04-11T18:52:47Z</time>
      </trkpt>
      <trkpt lat="42.5260680" lon="-6.4845790">
        <ele>898.0</ele>
        <time>2020-04-11T18:52:49Z</time>
      </trkpt>
      <trkpt lat="42.5263610" lon="-6.4850450">
        <ele>895.2</ele>
        <time>2020-04-11T18:52:51Z</time>
      </trkpt>
      <trkpt lat="42.5266250" lon="-6.4849940">
        <ele>893.6</ele>
        <time>2020-04-11T18:52:53Z</time>
      </trkpt>
      <trkpt lat="42.5268010" lon="-6.4847360">
        <ele>892.4</ele>
        <time>2020-04-11T18:52:55Z</time>
      </trkpt>
      <trkpt lat="42.5270430" lon="-6.4847300">
        <ele>891.4</ele>
        <time>2020-04-11T18:52:57Z</time>
      </trkpt>
      <trkpt lat="42.5272380" lon="-6.4849760">
        <ele>890.4</ele>
        <time>2020-04-11T18:52:59Z</time>
      </trkpt>
      <trkpt lat="42.5273300" lon="-6.4853270">
        <ele>889.2</ele>
        <time>2020-04-11T18:53:01Z</time>
      </trkpt>
      <trkpt lat="42.5273010" lon="-6.4856610">
        <ele>888.0</ele>
        <time>2020-04-11T18:53:03Z</time>
      </trkpt>
      <trkpt lat="42.5271570" lon="-6.4859280">
        <ele>886.6</ele>
        <time>2020-04-11T18:53:05Z</time>
      </trkpt>
      <trkpt lat="42.5270170" lon="-6.4861300">
        <ele>885.6</ele>
        <time>2020-04-11T18:53:07Z</time>
      </trkpt>
      <trkpt lat="42.5267550" lon="-6.4865150">
        <ele>883.5</ele>
        <time>2020-04-11T18:53:09Z</time>
      </trkpt>
      <trkpt lat="42.5266210" lon="-6.4867270">
        <ele>882.3</ele>
        <time>2020-04-11T18:53:11Z</time>
      </trkpt>
      <trkpt lat="42.5264380" lon="-6.4871400">
        <ele>880.4</ele>
        <time>2020-04-11T18:53:13Z</time>
      </trkpt>
      <trkpt lat="42.5263960" lon="-6.4874110">
        <ele>879.5</ele>
        <time>2020-04-11T18:53:15Z</time>
      </trkpt>
      <trkpt lat="42.5263260" lon="-6.4878900">
        <ele>877.5</ele>
        <time>2020-04-11T18:53:17Z</time>
      </trkpt>
      <trkpt lat="42.5263020" lon="-6.4882790">
        <ele>876.2</ele>
        <time>2020-04-11T18:53:19Z</time>
      </trkpt>
      <trkpt lat="42.5263270" lon="-6.4885620">
        <ele>875.5</ele>
        <time>2020-04-11T18:53:21Z</time>
      </trkpt>
      <trkpt lat="42.5263540" lon="-6.4888520">
        <ele>874.2</ele>
        <time>2020-04-11T18:53:23Z</time>
      </trkpt>
      <trkpt lat="42.5263930" lon="-6.4894360">
        <ele>871.4</ele>
        <time>2020-04-11T18:53:25Z</time>
      </trkpt>
      <trkpt lat="42.5263650" lon="-6.4897360">
        <ele>869.9</ele>
        <time>2020-04-11T18:53:27Z</time>
      </trkpt>
      <trkpt lat="42.5263430" lon="-6.4902350">
        <ele>867.5</ele>
        <time>2020-04-11T18:53:29Z</time>
      </trkpt>
      <trkpt lat="42.5263750" lon="-6.4905430">
        <ele>865.9</ele>
        <time>2020-04-11T18:53:31Z</time>
      </trkpt>
      <trkpt lat="42.5264300" lon="-6.4910710">
        <ele>863.1</ele>
        <time>2020-04-11T18:53:33Z</time>
      </trkpt>
      <trkpt lat="42.5264620" lon="-6.4913850">
        <ele>861.5</ele>
        <time>2020-04-11T18:53:35Z</time>
      </trkpt>
      <trkpt lat="42.5264780" lon="-6.4919470">
        <ele>858.5</ele>
        <time>2020-04-11T18:53:37Z</time>
      </trkpt>
      <trkpt lat="42.5263700" lon="-6.4923540">
        <ele>856.3</ele>
        <time>2020-04-11T18:53:39Z</time>
      </trkpt>
      <trkpt lat="42.5264390" lon="-6.4927580">
        <ele>854.1</ele>
        <time>2020-04-11T18:53:41Z</time>
      </trkpt>
      <trkpt lat="42.5266080" lon="-6.4931070">
        <ele>851.9</ele>
        <time>2020-04-11T18:53:43Z</time>
      </trkpt>
      <trkpt lat="42.5268380" lon="-6.4933520">
        <ele>849.7</ele>
        <time>2020-04-11T18:53:45Z</time>
      </trkpt>
      <trkpt lat="42.5270580" lon="-6.4934850">
        <ele>846.2</ele>
        <time>2020-04-11T18:53:47Z</time>
      </trkpt>
      <trkpt lat="42.5273600" lon="-6.4935980">
        <ele>845.3</ele>
        <time>2020-04-11T18:53:49Z</time>
      </trkpt>
      <trkpt lat="42.5276540" lon="-6.4936620">
        <ele>844.9</ele>
        <time>2020-04-11T18:53:51Z</time>
      </trkpt>
      <trkpt lat="42.5278730" lon="-6.4937920">
        <ele>844.7</ele>
        <time>2020-04-11T18:53:53Z</time>
      </trkpt>
      <trkpt lat="42.5281180" lon="-6.4940020">
        <ele>843.3</ele>
        <time>2020-04-11T18:53:55Z</time>
      </trkpt>
      <trkpt lat="42.5282860" lon="-6.4943060">
        <ele>842.2</ele>
        <time>2020-04-11T18:53:57Z</time>
      </trkpt>
      <trkpt lat="42.5283420" lon="-6.4946440">
        <ele>840.9</ele>
        <time>2020-04-11T18:53:59Z</time>
      </trkpt>
      <trkpt lat="42.5283130" lon="-6.4949290">
        <ele>839.5</ele>
        <time>2020-04-11T18:54:01Z</time>
      </trkpt>
      <trkpt lat="42.5282620" lon="-6.4954330">
        <ele>837.1</ele>
        <time>2020-04-11T18:54:03Z</time>
      </trkpt>
      <trkpt lat="42.5282310" lon="-6.4957400">
        <ele>835.6</ele>
        <time>2020-04-11T18:54:05Z</time>
      </trkpt>
      <trkpt lat="42.5281200" lon="-6.4962800">
        <ele>832.3</ele>
        <time>2020-04-11T18:54:07Z</time>
      </trkpt>
      <trkpt lat="42.5278300" lon="-6.4963000">
        <ele>829.9</ele>
        <time>2020-04-11T18:54:09Z</time>
      </trkpt>
      <trkpt lat="42.5275970" lon="-6.4961800">
        <ele>828.1</ele>
        <time>2020-04-11T18:54:11Z</time>
      </trkpt>
      <trkpt lat="42.5271920" lon="-6.4961090">
        <ele>825.0</ele>
        <time>2020-04-11T18:54:13Z</time>
      </trkpt>
      <trkpt lat="42.5269220" lon="-6.4964030">
        <ele>822.7</ele>
        <time>2020-04-11T18:54:15Z</time>
      </trkpt>
      <trkpt lat="42.5267780" lon="-6.4967690">
        <ele>820.6</ele>
        <time>2020-04-11T18:54:17Z</time>
      </trkpt>
      <trkpt lat="42.5266430" lon="-6.4970160">
        <ele>819.0</ele>
        <time>2020-04-11T18:54:19Z</time>
      </trkpt>
      <trkpt lat="42.5263690" lon="-6.4973950">
        <ele>816.4</ele>
        <time>2020-04-11T18:54:21Z</time>
      </trkpt>
      <trkpt lat="42.5261120" lon="-6.4975790">
        <ele>814.6</ele>
        <time>2020-04-11T18:54:23Z</time>
      </trkpt>
      <trkpt lat="42.5258540" lon="-6.4978180">
        <ele>812.3</ele>
        <time>2020-04-11T18:54:25Z</time>
      </trkpt>
      <trkpt lat="42.5257820" lon="-6.4982560">
        <ele>809.6</ele>
        <time>2020-04-11T18:54:27Z</time>
      </trkpt>
      <trkpt lat="42.5255930" lon="-6.4985730">
        <ele>807.1</ele>
        <time>2020-04-11T18:54:29Z</time>
      </trkpt>
      <trkpt lat="42.5253820" lon="-6.4987190">
        <ele>805.3</ele>
        <time>2020-04-11T18:54:31Z</time>
      </trkpt>
      <trkpt lat="42.5250230" lon="-6.4986810">
        <ele>802.5</ele>
        <time>2020-04-11T18:54:33Z</time>
      </trkpt>
      <trkpt lat="42.5247730" lon="-6.4984410">
        <ele>800.2</ele>
        <time>2020-04-11T18:54:35Z</time>
      </trkpt>
      <trkpt lat="42.5245210" lon="-6.4984840">
        <ele>798.5</ele>
        <time>2020-04-11T18:54:37Z</time>
      </trkpt>
      <trkpt lat="42.5243960" lon="-6.4986700">
        <ele>797.3</ele>
        <time>2020-04-11T18:54:39Z</time>
      </trkpt>
      <trkpt lat="42.5243740" lon="-6.4987660">
        <ele>796.9</ele>
        <time>2020-04-11T18:54:41Z</time>
      </trkpt>
      <trkpt lat="42.5243720" lon="-6.4987770">
        <ele>796.9</ele>
        <time>2020-04-11T18:54:43Z</time>
      </trkpt>
      <trkpt lat="42.5243720" lon="-6.4987770">
        <ele>796.9</ele>
        <time>2020-04-11T18:54:45Z</time>
      </trkpt>
      <trkpt lat="42.5243720" lon="-6.4987770">
        <ele>796.9</ele>
        <time>2020-04-11T18:54:47Z</time>
      </trkpt>
      <trkpt lat="42.5243720" lon="-6.4987770">
        <ele>796.9</ele>
        <time>2020-04-11T18:54:49Z</time>
      </trkpt>
      <trkpt lat="42.5243700" lon="-6.4987850">
        <ele>796.8</ele>
        <time>2020-04-11T18:54:51Z</time>
      </trkpt>
      <trkpt lat="42.5243580" lon="-6.4988380">
        <ele>796.6</ele>
        <time>2020-04-11T18:54:53Z</time>
      </trkpt>
      <trkpt lat="42.5243050" lon="-6.4990030">
        <ele>795.9</ele>
        <time>2020-04-11T18:54:55Z</time>
      </trkpt>
      <trkpt lat="42.5242320" lon="-6.4991100">
        <ele>795.3</ele>
        <time>2020-04-11T18:54:57Z</time>
      </trkpt>
      <trkpt lat="42.5241600" lon="-6.4991850">
        <ele>794.9</ele>
        <time>2020-04-11T18:54:59Z</time>
      </trkpt>
      <trkpt lat="42.5240310" lon="-6.4993280">
        <ele>794.1</ele>
        <time>2020-04-11T18:55:01Z</time>
      </trkpt>
      <trkpt lat="42.5239520" lon="-6.4994310">
        <ele>793.7</ele>
        <time>2020-04-11T18:55:03Z</time>
      </trkpt>
      <trkpt lat="42.5238660" lon="-6.4995420">
        <ele>793.3</ele>
        <time>2020-04-11T18:55:05Z</time>
      </trkpt>
      <trkpt lat="42.5237270" lon="-6.4997910">
        <ele>792.3</ele>
        <time>2020-04-11T18:55:07Z</time>
      </trkpt>
      <trkpt lat="42.5236940" lon="-6.5000110">
        <ele>791.5</ele>
        <time>2020-04-11T18:55:09Z</time>
      </trkpt>
      <trkpt lat="42.5236610" lon="-6.5002740">
        <ele>790.7</ele>
        <time>2020-04-11T18:55:11Z</time>
      </trkpt>
      <trkpt lat="42.5236310" lon="-6.5004630">
        <ele>790.0</ele>
        <time>2020-04-11T18:55:13Z</time>
      </trkpt>
      <trkpt lat="42.5235820" lon="-6.5008280">
        <ele>788.9</ele>
        <time>2020-04-11T18:55:15Z</time>
      </trkpt>
      <trkpt lat="42.5236050" lon="-6.5010860">
        <ele>788.0</ele>
        <time>2020-04-11T18:55:17Z</time>
      </trkpt>
      <trkpt lat="42.5236400" lon="-6.5012920">
        <ele>787.3</ele>
        <time>2020-04-11T18:55:19Z</time>
      </trkpt>
      <trkpt lat="42.5236970" lon="-6.5016700">
        <ele>786.4</ele>
        <time>2020-04-11T18:55:21Z</time>
      </trkpt>
      <trkpt lat="42.5236500" lon="-6.5019300">
        <ele>785.8</ele>
        <time>2020-04-11T18:55:23Z</time>
      </trkpt>
      <trkpt lat="42.5235510" lon="-6.5021590">
        <ele>785.1</ele>
        <time>2020-04-11T18:55:25Z</time>
      </trkpt>
      <trkpt lat="42.5234630" lon="-6.5023490">
        <ele>784.6</ele>
        <time>2020-04-11T18:55:27Z</time>
      </trkpt>
      <trkpt lat="42.5233130" lon="-6.5027050">
        <ele>783.6</ele>
        <time>2020-04-11T18:55:29Z</time>
      </trkpt>
      <trkpt lat="42.5232540" lon="-6.5029990">
        <ele>782.8</ele>
        <time>2020-04-11T18:55:31Z</time>
      </trkpt>
      <trkpt lat="42.5231870" lon="-6.5033410">
        <ele>781.9</ele>
        <time>2020-04-11T18:55:33Z</time>
      </trkpt>
      <trkpt lat="42.5230500" lon="-6.5037000">
        <ele>780.8</ele>
        <time>2020-04-11T18:55:35Z</time>
      </trkpt>
      <trkpt lat="42.5229180" lon="-6.5039030">
        <ele>780.2</ele>
        <time>2020-04-11T18:55:37Z</time>
      </trkpt>
      <trkpt lat="42.5227800" lon="-6.5041150">
        <ele>779.3</ele>
        <time>2020-04-11T18:55:39Z</time>
      </trkpt>
      <trkpt lat="42.5226110" lon="-6.5046020">
        <ele>776.6</ele>
        <time>2020-04-11T18:55:41Z</time>
      </trkpt>
      <trkpt lat="42.5228500" lon="-6.5045190">
        <ele>774.4</ele>
        <time>2020-04-11T18:55:43Z</time>
      </trkpt>
      <trkpt lat="42.5229870" lon="-6.5042230">
        <ele>772.5</ele>
        <time>2020-04-11T18:55:45Z</time>
      </trkpt>
      <trkpt lat="42.5231410" lon="-6.5039740">
        <ele>770.7</ele>
        <time>2020-04-11T18:55:47Z</time>
      </trkpt>
      <trkpt lat="42.5234160" lon="-6.5034780">
        <ele>767.2</ele>
        <time>2020-04-11T18:55:49Z</time>
      </trkpt>
      <trkpt lat="42.5235070" lon="-6.5030420">
        <ele>764.4</ele>
        <time>2020-04-11T18:55:51Z</time>
      </trkpt>
      <trkpt lat="42.5237540" lon="-6.5030140">
        <ele>761.9</ele>
        <time>2020-04-11T18:55:53Z</time>
      </trkpt>
      <trkpt lat="42.5238300" lon="-6.5033530">
        <ele>759.6</ele>
        <time>2020-04-11T18:55:55Z</time>
      </trkpt>
      <trkpt lat="42.5238730" lon="-6.5039220">
        <ele>756.5</ele>
        <time>2020-04-11T18:55:57Z</time>
      </trkpt>
      <trkpt lat="42.5238220" lon="-6.5044030">
        <ele>753.9</ele>
        <time>2020-04-11T18:55:59Z</time>
      </trkpt>
      <trkpt lat="42.5237100" lon="-6.5048170">
        <ele>751.4</ele>
        <time>2020-04-11T18:56:01Z</time>
      </trkpt>
      <trkpt lat="42.5235990" lon="-6.5053780">
        <ele>748.1</ele>
        <time>2020-04-11T18:56:03Z</time>
      </trkpt>
      <trkpt lat="42.5236000" lon="-6.5058240">
        <ele>745.8</ele>
        <time>2020-04-11T18:56:05Z</time>
      </trkpt>
      <trkpt lat="42.5236470" lon="-6.5063250">
        <ele>742.9</ele>
        <time>2020-04-11T18:56:07Z</time>
      </trkpt>
      <trkpt lat="42.5237180" lon="-6.5066740">
        <ele>740.9</ele>
        <time>2020-04-11T18:56:09Z</time>
      </trkpt>
      <trkpt lat="42.5237890" lon="-6.5070280">
        <ele>738.9</ele>
        <time>2020-04-11T18:56:11Z</time>
      </trkpt>
      <trkpt lat="42.5238170" lon="-6.5076880">
        <ele>734.9</ele>
        <time>2020-04-11T18:56:13Z</time>
      </trkpt>
      <trkpt lat="42.5238300" lon="-6.5082850">
        <ele>731.5</ele>
        <time>2020-04-11T18:56:15Z</time>
      </trkpt>
      <trkpt lat="42.5240300" lon="-6.5086680">
        <ele>728.7</ele>
        <time>2020-04-11T18:56:17Z</time>
      </trkpt>
      <trkpt lat="42.5243190" lon="-6.5087530">
        <ele>727.1</ele>
        <time>2020-04-11T18:56:19Z</time>
      </trkpt>
      <trkpt lat="42.5245780" lon="-6.5087850">
        <ele>724.7</ele>
        <time>2020-04-11T18:56:21Z</time>
      </trkpt>
      <trkpt lat="42.5250140" lon="-6.5088390">
        <ele>720.8</ele>
        <time>2020-04-11T18:56:23Z</time>
      </trkpt>
      <trkpt lat="42.5252710" lon="-6.5088710">
        <ele>718.3</ele>
        <time>2020-04-11T18:56:25Z</time>
      </trkpt>
      <trkpt lat="42.5257160" lon="-6.5087460">
        <ele>713.8</ele>
        <time>2020-04-11T18:56:27Z</time>
      </trkpt>
      <trkpt lat="42.5259680" lon="-6.5085880">
        <ele>711.0</ele>
        <time>2020-04-11T18:56:29Z</time>
      </trkpt>
      <trkpt lat="42.5261400" lon="-6.5089580">
        <ele>707.7</ele>
        <time>2020-04-11T18:56:31Z</time>
      </trkpt>
      <trkpt lat="42.5263290" lon="-6.5091780">
        <ele>705.3</ele>
        <time>2020-04-11T18:56:33Z</time>
      </trkpt>
      <trkpt lat="42.5266350" lon="-6.5095880">
        <ele>701.5</ele>
        <time>2020-04-11T18:56:35Z</time>
      </trkpt>
      <trkpt lat="42.5267330" lon="-6.5099760">
        <ele>698.8</ele>
        <time>2020-04-11T18:56:37Z</time>
      </trkpt>
      <trkpt lat="42.5266840" lon="-6.5103150">
        <ele>696.6</ele>
        <time>2020-04-11T18:56:39Z</time>
      </trkpt>
      <trkpt lat="42.5266510" lon="-6.5107860">
        <ele>693.4</ele>
        <time>2020-04-11T18:56:41Z</time>
      </trkpt>
      <trkpt lat="42.5268740" lon="-6.5110190">
        <ele>690.6</ele>
        <time>2020-04-11T18:56:43Z</time>
      </trkpt>
      <trkpt lat="42.5270770" lon="-6.5111550">
        <ele>688.4</ele>
        <time>2020-04-11T18:56:45Z</time>
      </trkpt>
      <trkpt lat="42.5274490" lon="-6.5113000">
        <ele>684.5</ele>
        <time>2020-04-11T18:56:47Z</time>
      </trkpt>
      <trkpt lat="42.5276840" lon="-6.5113000">
        <ele>682.2</ele>
        <time>2020-04-11T18:56:49Z</time>
      </trkpt>
      <trkpt lat="42.5281030" lon="-6.5113120">
        <ele>677.9</ele>
        <time>2020-04-11T18:56:51Z</time>
      </trkpt>
      <trkpt lat="42.5283430" lon="-6.5112770">
        <ele>675.4</ele>
        <time>2020-04-11T18:56:53Z</time>
      </trkpt>
      <trkpt lat="42.5287460" lon="-6.5112100">
        <ele>671.1</ele>
        <time>2020-04-11T18:56:55Z</time>
      </trkpt>
      <trkpt lat="42.5290620" lon="-6.5111390">
        <ele>667.9</ele>
        <time>2020-04-11T18:56:57Z</time>
      </trkpt>
      <trkpt lat="42.5293110" lon="-6.5110960">
        <ele>665.3</ele>
        <time>2020-04-11T18:56:59Z</time>
      </trkpt>
      <trkpt lat="42.5297520" lon="-6.5109540">
        <ele>660.1</ele>
        <time>2020-04-11T18:57:01Z</time>
      </trkpt>
      <trkpt lat="42.5300250" lon="-6.5107180">
        <ele>656.2</ele>
        <time>2020-04-11T18:57:03Z</time>
      </trkpt>
      <trkpt lat="42.5302570" lon="-6.5109130">
        <ele>653.3</ele>
        <time>2020-04-11T18:57:05Z</time>
      </trkpt>
      <trkpt lat="42.5303600" lon="-6.5112010">
        <ele>650.9</ele>
        <time>2020-04-11T18:57:07Z</time>
      </trkpt>
      <trkpt lat="42.5305480" lon="-6.5117220">
        <ele>647.0</ele>
        <time>2020-04-11T18:57:09Z</time>
      </trkpt>
      <trkpt lat="42.5307010" lon="-6.5120220">
        <ele>644.7</ele>
        <time>2020-04-11T18:57:11Z</time>
      </trkpt>
      <trkpt lat="42.5309340" lon="-6.5123010">
        <ele>644.4</ele>
        <time>2020-04-11T18:57:13Z</time>
      </trkpt>
      <trkpt lat="42.5311410" lon="-6.5124940">
        <ele>643.6</ele>
        <time>2020-04-11T18:57:15Z</time>
      </trkpt>
      <trkpt lat="42.5312810" lon="-6.5126450">
        <ele>643.0</ele>
        <time>2020-04-11T18:57:17Z</time>
      </trkpt>
      <trkpt lat="42.5315540" lon="-6.5127980">
        <ele>641.4</ele>
        <time>2020-04-11T18:57:19Z</time>
      </trkpt>
      <trkpt lat="42.5317360" lon="-6.5127270">
        <ele>640.5</ele>
        <time>2020-04-11T18:57:21Z</time>
      </trkpt>
      <trkpt lat="42.5319060" lon="-6.5125520">
        <ele>639.7</ele>
        <time>2020-04-11T18:57:23Z</time>
      </trkpt>
      <trkpt lat="42.5320890" lon="-6.5125750">
        <ele>639.0</ele>
        <time>2020-04-11T18:57:25Z</time>
      </trkpt>
      <trkpt lat="42.5322000" lon="-6.5127050">
        <ele>638.4</ele>
        <time>2020-04-11T18:57:27Z</time>
      </trkpt>
      <trkpt lat="42.5323890" lon="-6.5129060">
        <ele>637.4</ele>
        <time>2020-04-11T18:57:29Z</time>
      </trkpt>
      <trkpt lat="42.5325430" lon="-6.5129860">
        <ele>636.6</ele>
        <time>2020-04-11T18:57:31Z</time>
      </trkpt>
      <trkpt lat="42.5326960" lon="-6.5129690">
        <ele>636.0</ele>
        <time>2020-04-11T18:57:33Z</time>
      </trkpt>
      <trkpt lat="42.5327920" lon="-6.5129170">
        <ele>635.7</ele>
        <time>2020-04-11T18:57:35Z</time>
      </trkpt>
      <trkpt lat="42.5328800" lon="-6.5128700">
        <ele>635.3</ele>
        <time>2020-04-11T18:57:37Z</time>
      </trkpt>
      <trkpt lat="42.5330720" lon="-6.5127660">
        <ele>634.7</ele>
        <time>2020-04-11T18:57:39Z</time>
      </trkpt>
      <trkpt lat="42.5331430" lon="-6.5127270">
        <ele>634.5</ele>
        <time>2020-04-11T18:57:41Z</time>
      </trkpt>
      <trkpt lat="42.5332070" lon="-6.5126930">
        <ele>634.3</ele>
        <time>2020-04-11T18:57:43Z</time>
      </trkpt>
      <trkpt lat="42.5332660" lon="-6.5126610">
        <ele>634.2</ele>
        <time>2020-04-11T18:57:45Z</time>
      </trkpt>
      <trkpt lat="42.5333200" lon="-6.5126320">
        <ele>634.1</ele>
        <time>2020-04-11T18:57:47Z</time>
      </trkpt>
      <trkpt lat="42.5333710" lon="-6.5126040">
        <ele>634.0</ele>
        <time>2020-04-11T18:57:49Z</time>
      </trkpt>
      <trkpt lat="42.5335270" lon="-6.5124920">
        <ele>633.7</ele>
        <time>2020-04-11T18:57:51Z</time>
      </trkpt>
      <trkpt lat="42.5335720" lon="-6.5124350">
        <ele>633.6</ele>
        <time>2020-04-11T18:57:53Z</time>
      </trkpt>
      <trkpt lat="42.5336200" lon="-6.5123740">
        <ele>633.6</ele>
        <time>2020-04-11T18:57:55Z</time>
      </trkpt>
      <trkpt lat="42.5336690" lon="-6.5123120">
        <ele>633.7</ele>
        <time>2020-04-11T18:57:57Z</time>
      </trkpt>
      <trkpt lat="42.5337960" lon="-6.5121570">
        <ele>633.7</ele>
        <time>2020-04-11T18:57:59Z</time>
      </trkpt>
      <trkpt lat="42.5338540" lon="-6.5121110">
        <ele>633.7</ele>
        <time>2020-04-11T18:58:01Z</time>
      </trkpt>
      <trkpt lat="42.5339130" lon="-6.5120650">
        <ele>633.8</ele>
        <time>2020-04-11T18:58:03Z</time>
      </trkpt>
      <trkpt lat="42.5339720" lon="-6.5120180">
        <ele>633.8</ele>
        <time>2020-04-11T18:58:05Z</time>
      </trkpt>
      <trkpt lat="42.5341210" lon="-6.5119070">
        <ele>633.9</ele>
        <time>2020-04-11T18:58:07Z</time>
      </trkpt>
      <trkpt lat="42.5341890" lon="-6.5118900">
        <ele>633.9</ele>
        <time>2020-04-11T18:58:09Z</time>
      </trkpt>
      <trkpt lat="42.5342930" lon="-6.5119200">
        <ele>633.9</ele>
        <time>2020-04-11T18:58:11Z</time>
      </trkpt>
      <trkpt lat="42.5343680" lon="-6.5120690">
        <ele>634.0</ele>
        <time>2020-04-11T18:58:13Z</time>
      </trkpt>
      <trkpt lat="42.5342970" lon="-6.5122930">
        <ele>633.3</ele>
        <time>2020-04-11T18:58:15Z</time>
      </trkpt>
      <trkpt lat="42.5341880" lon="-6.5124620">
        <ele>632.0</ele>
        <time>2020-04-11T18:58:17Z</time>
      </trkpt>
      <trkpt lat="42.5339950" lon="-6.5127970">
        <ele>629.2</ele>
        <time>2020-04-11T18:58:19Z</time>
      </trkpt>
      <trkpt lat="42.5338970" lon="-6.5131260">
        <ele>626.8</ele>
        <time>2020-04-11T18:58:21Z</time>
      </trkpt>
      <trkpt lat="42.5338380" lon="-6.5134260">
        <ele>624.8</ele>
        <time>2020-04-11T18:58:23Z</time>
      </trkpt>
      <trkpt lat="42.5338360" lon="-6.5139630">
        <ele>621.1</ele>
        <time>2020-04-11T18:58:25Z</time>
      </trkpt>
      <trkpt lat="42.5340450" lon="-6.5142630">
        <ele>618.4</ele>
        <time>2020-04-11T18:58:27Z</time>
      </trkpt>
      <trkpt lat="42.5343350" lon="-6.5146840">
        <ele>614.9</ele>
        <time>2020-04-11T18:58:29Z</time>
      </trkpt>
      <trkpt lat="42.5344730" lon="-6.5150910">
        <ele>612.4</ele>
        <time>2020-04-11T18:58:31Z</time>
      </trkpt>
      <trkpt lat="42.5346930" lon="-6.5156550">
        <ele>607.9</ele>
        <time>2020-04-11T18:58:33Z</time>
      </trkpt>
      <trkpt lat="42.5347660" lon="-6.5160240">
        <ele>605.4</ele>
        <time>2020-04-11T18:58:35Z</time>
      </trkpt>
      <trkpt lat="42.5349750" lon="-6.5165210">
        <ele>604.4</ele>
        <time>2020-04-11T18:58:37Z</time>
      </trkpt>
      <trkpt lat="42.5352720" lon="-6.5167820">
        <ele>604.4</ele>
        <time>2020-04-11T18:58:39Z</time>
      </trkpt>
      <trkpt lat="42.5354940" lon="-6.5168980">
        <ele>603.6</ele>
        <time>2020-04-11T18:58:41Z</time>
      </trkpt>
      <trkpt lat="42.5358610" lon="-6.5170910">
        <ele>602.3</ele>
        <time>2020-04-11T18:58:43Z</time>
      </trkpt>
      <trkpt lat="42.5360560" lon="-6.5171930">
        <ele>601.6</ele>
        <time>2020-04-11T18:58:45Z</time>
      </trkpt>
      <trkpt lat="42.5362390" lon="-6.5172890">
        <ele>600.9</ele>
        <time>2020-04-11T18:58:47Z</time>
      </trkpt>
      <trkpt lat="42.5365870" lon="-6.5174270">
        <ele>599.4</ele>
        <time>2020-04-11T18:58:49Z</time>
      </trkpt>
      <trkpt lat="42.5368720" lon="-6.5175160">
        <ele>598.2</ele>
        <time>2020-04-11T18:58:51Z</time>
      </trkpt>
      <trkpt lat="42.5370640" lon="-6.5176400">
        <ele>597.4</ele>
        <time>2020-04-11T18:58:53Z</time>
      </trkpt>
      <trkpt lat="42.5373470" lon="-6.5178920">
        <ele>592.1</ele>
        <time>2020-04-11T18:58:55Z</time>
      </trkpt>
      <trkpt lat="42.5375810" lon="-6.5182100">
        <ele>588.3</ele>
        <time>2020-04-11T18:58:57Z</time>
      </trkpt>
      <trkpt lat="42.5375840" lon="-6.5185040">
        <ele>586.7</ele>
        <time>2020-04-11T18:58:59Z</time>
      </trkpt>
      <trkpt lat="42.5375920" lon="-6.5190040">
        <ele>583.9</ele>
        <time>2020-04-11T18:59:01Z</time>
      </trkpt>
      <trkpt lat="42.5376550" lon="-6.5192850">
        <ele>583.7</ele>
        <time>2020-04-11T18:59:03Z</time>
      </trkpt>
      <trkpt lat="42.5377650" lon="-6.5196660">
        <ele>583.5</ele>
        <time>2020-04-11T18:59:05Z</time>
      </trkpt>
      <trkpt lat="42.5378390" lon="-6.5198950">
        <ele>583.5</ele>
        <time>2020-04-11T18:59:07Z</time>
      </trkpt>
      <trkpt lat="42.5379090" lon="-6.5201130">
        <ele>583.4</ele>
        <time>2020-04-11T18:59:09Z</time>
      </trkpt>
      <trkpt lat="42.5380430" lon="-6.5205300">
        <ele>582.4</ele>
        <time>2020-04-11T18:59:11Z</time>
      </trkpt>
      <trkpt lat="42.5381110" lon="-6.5207380">
        <ele>581.9</ele>
        <time>2020-04-11T18:59:13Z</time>
      </trkpt>
      <trkpt lat="42.5381770" lon="-6.5209440">
        <ele>581.6</ele>
        <time>2020-04-11T18:59:15Z</time>
      </trkpt>
      <trkpt lat="42.5383080" lon="-6.5213470">
        <ele>580.9</ele>
        <time>2020-04-11T18:59:17Z</time>
      </trkpt>
      <trkpt lat="42.5383700" lon="-6.5215360">
        <ele>580.6</ele>
        <time>2020-04-11T18:59:19Z</time>
      </trkpt>
      <trkpt lat="42.5384890" lon="-6.5218890">
        <ele>580.4</ele>
        <time>2020-04-11T18:59:21Z</time>
      </trkpt>
      <trkpt lat="42.5385540" lon="-6.5220560">
        <ele>580.4</ele>
        <time>2020-04-11T18:59:23Z</time>
      </trkpt>
      <trkpt lat="42.5386170" lon="-6.5222170">
        <ele>580.4</ele>
        <time>2020-04-11T18:59:25Z</time>
      </trkpt>
      <trkpt lat="42.5387620" lon="-6.5225090">
        <ele>580.3</ele>
        <time>2020-04-11T18:59:27Z</time>
      </trkpt>
      <trkpt lat="42.5388960" lon="-6.5226590">
        <ele>580.3</ele>
        <time>2020-04-11T18:59:29Z</time>
      </trkpt>
      <trkpt lat="42.5390030" lon="-6.5227690">
        <ele>580.3</ele>
        <time>2020-04-11T18:59:31Z</time>
      </trkpt>
      <trkpt lat="42.5391480" lon="-6.5230050">
        <ele>579.6</ele>
        <time>2020-04-11T18:59:33Z</time>
      </trkpt>
      <trkpt lat="42.5392400" lon="-6.5232440">
        <ele>579.3</ele>
        <time>2020-04-11T18:59:35Z</time>
      </trkpt>
      <trkpt lat="42.5393100" lon="-6.5234050">
        <ele>578.9</ele>
        <time>2020-04-11T18:59:37Z</time>
      </trkpt>
      <trkpt lat="42.5393790" lon="-6.5235660">
        <ele>578.6</ele>
        <time>2020-04-11T18:59:39Z</time>
      </trkpt>
      <trkpt lat="42.5394480" lon="-6.5237280">
        <ele>578.3</ele>
        <time>2020-04-11T18:59:41Z</time>
      </trkpt>
      <trkpt lat="42.5396320" lon="-6.5241540">
        <ele>577.7</ele>
        <time>2020-04-11T18:59:43Z</time>
      </trkpt>
      <trkpt lat="42.5397110" lon="-6.5243100">
        <ele>577.6</ele>
        <time>2020-04-11T18:59:45Z</time>
      </trkpt>
      <trkpt lat="42.5397890" lon="-6.5244660">
        <ele>577.4</ele>
        <time>2020-04-11T18:59:47Z</time>
      </trkpt>
      <trkpt lat="42.5398680" lon="-6.5246240">
        <ele>577.4</ele>
        <time>2020-04-11T18:59:49Z</time>
      </trkpt>
      <trkpt lat="42.5399480" lon="-6.5247820">
        <ele>577.4</ele>
        <time>2020-04-11T18:59:51Z</time>
      </trkpt>
      <trkpt lat="42.5401460" lon="-6.5251770">
        <ele>577.4</ele>
        <time>2020-04-11T18:59:53Z</time>
      </trkpt>
      <trkpt lat="42.5402260" lon="-6.5253360">
        <ele>577.4</ele>
        <time>2020-04-11T18:59:55Z</time>
      </trkpt>
      <trkpt lat="42.5403060" lon="-6.5254940">
        <ele>577.3</ele>
        <time>2020-04-11T18:59:57Z</time>
      </trkpt>
      <trkpt lat="42.5403860" lon="-6.5256530">
        <ele>577.2</ele>
        <time>2020-04-11T18:59:59Z</time>
      </trkpt>
      <trkpt lat="42.5405950" lon="-6.5260410">
        <ele>576.9</ele>
        <time>2020-04-11T19:00:01Z</time>
      </trkpt>
      <trkpt lat="42.5406930" lon="-6.5261850">
        <ele>576.4</ele>
        <time>2020-04-11T19:00:03Z</time>
      </trkpt>
      <trkpt lat="42.5407940" lon="-6.5263330">
        <ele>575.9</ele>
        <time>2020-04-11T19:00:05Z</time>
      </trkpt>
      <trkpt lat="42.5408950" lon="-6.5264830">
        <ele>575.3</ele>
        <time>2020-04-11T19:00:07Z</time>
      </trkpt>
      <trkpt lat="42.5411330" lon="-6.5268320">
        <ele>574.2</ele>
        <time>2020-04-11T19:00:09Z</time>
      </trkpt>
      <trkpt lat="42.5412370" lon="-6.5269860">
        <ele>573.6</ele>
        <time>2020-04-11T19:00:11Z</time>
      </trkpt>
      <trkpt lat="42.5413420" lon="-6.5271390">
        <ele>573.0</ele>
        <time>2020-04-11T19:00:13Z</time>
      </trkpt>
      <trkpt lat="42.5415920" lon="-6.5274470">
        <ele>572.9</ele>
        <time>2020-04-11T19:00:15Z</time>
      </trkpt>
      <trkpt lat="42.5417050" lon="-6.5275890">
        <ele>573.3</ele>
        <time>2020-04-11T19:00:17Z</time>
      </trkpt>
      <trkpt lat="42.5417970" lon="-6.5277340">
        <ele>573.1</ele>
        <time>2020-04-11T19:00:19Z</time>
      </trkpt>
      <trkpt lat="42.5419660" lon="-6.5280090">
        <ele>572.9</ele>
        <time>2020-04-11T19:00:21Z</time>
      </trkpt>
      <trkpt lat="42.5420390" lon="-6.5281480">
        <ele>572.8</ele>
        <time>2020-04-11T19:00:23Z</time>
      </trkpt>
      <trkpt lat="42.5421580" lon="-6.5283810">
        <ele>572.8</ele>
        <time>2020-04-11T19:00:25Z</time>
      </trkpt>
      <trkpt lat="42.5422230" lon="-6.5285210">
        <ele>572.6</ele>
        <time>2020-04-11T19:00:27Z</time>
      </trkpt>
      <trkpt lat="42.5422890" lon="-6.5286600">
        <ele>572.6</ele>
        <time>2020-04-11T19:00:29Z</time>
      </trkpt>
      <trkpt lat="42.5423540" lon="-6.5288000">
        <ele>572.5</ele>
        <time>2020-04-11T19:00:31Z</time>
      </trkpt>
      <trkpt lat="42.5424190" lon="-6.5289410">
        <ele>572.4</ele>
        <time>2020-04-11T19:00:33Z</time>
      </trkpt>
      <trkpt lat="42.5425970" lon="-6.5293220">
        <ele>572.2</ele>
        <time>2020-04-11T19:00:35Z</time>
      </trkpt>
      <trkpt lat="42.5426650" lon="-6.5294690">
        <ele>572.1</ele>
        <time>2020-04-11T19:00:37Z</time>
      </trkpt>
      <trkpt lat="42.5427350" lon="-6.5296180">
        <ele>572.0</ele>
        <time>2020-04-11T19:00:39Z</time>
      </trkpt>
      <trkpt lat="42.5428050" lon="-6.5297680">
        <ele>571.9</ele>
        <time>2020-04-11T19:00:41Z</time>
      </trkpt>
      <trkpt lat="42.5429870" lon="-6.5301590">
        <ele>571.7</ele>
        <time>2020-04-11T19:00:43Z</time>
      </trkpt>
      <trkpt lat="42.5430580" lon="-6.5303130">
        <ele>571.5</ele>
        <time>2020-04-11T19:00:45Z</time>
      </trkpt>
      <trkpt lat="42.5431310" lon="-6.5304680">
        <ele>571.4</ele>
        <time>2020-04-11T19:00:47Z</time>
      </trkpt>
      <trkpt lat="42.5432030" lon="-6.5306230">
        <ele>571.3</ele>
        <time>2020-04-11T19:00:49Z</time>
      </trkpt>
      <trkpt lat="42.5432770" lon="-6.5307810">
        <ele>571.2</ele>
        <time>2020-04-11T19:00:51Z</time>
      </trkpt>
      <trkpt lat="42.5434610" lon="-6.5311780">
        <ele>571.0</ele>
        <time>2020-04-11T19:00:53Z</time>
      </trkpt>
      <trkpt lat="42.5435360" lon="-6.5313370">
        <ele>570.8</ele>
        <time>2020-04-11T19:00:55Z</time>
      </trkpt>
      <trkpt lat="42.5436100" lon="-6.5314950">
        <ele>570.5</ele>
        <time>2020-04-11T19:00:57Z</time>
      </trkpt>
      <trkpt lat="42.5436840" lon="-6.5316560">
        <ele>570.3</ele>
        <time>2020-04-11T19:00:59Z</time>
      </trkpt>
      <trkpt lat="42.5438710" lon="-6.5320560">
        <ele>570.3</ele>
        <time>2020-04-11T19:01:01Z</time>
      </trkpt>
      <trkpt lat="42.5439450" lon="-6.5322150">
        <ele>570.2</ele>
        <time>2020-04-11T19:01:03Z</time>
      </trkpt>
      <trkpt lat="42.5440210" lon="-6.5323780">
        <ele>570.1</ele>
        <time>2020-04-11T19:01:05Z</time>
      </trkpt>
      <trkpt lat="42.5440960" lon="-6.5325400">
        <ele>570.0</ele>
        <time>2020-04-11T19:01:07Z</time>
      </trkpt>
      <trkpt lat="42.5442830" lon="-6.5329410">
        <ele>569.8</ele>
        <time>2020-04-11T19:01:09Z</time>
      </trkpt>
      <trkpt lat="42.5443580" lon="-6.5331010">
        <ele>569.7</ele>
        <time>2020-04-11T19:01:11Z</time>
      </trkpt>
      <trkpt lat="42.5444320" lon="-6.5332610">
        <ele>569.7</ele>
        <time>2020-04-11T19:01:13Z</time>
      </trkpt>
      <trkpt lat="42.5445070" lon="-6.5334210">
        <ele>569.7</ele>
        <time>2020-04-11T19:01:15Z</time>
      </trkpt>
      <trkpt lat="42.5446930" lon="-6.5338180">
        <ele>569.7</ele>
        <time>2020-04-11T19:01:17Z</time>
      </trkpt>
      <trkpt lat="42.5447680" lon="-6.5339740">
        <ele>569.8</ele>
        <time>2020-04-11T19:01:19Z</time>
      </trkpt>
      <trkpt lat="42.5448430" lon="-6.5341300">
        <ele>569.8</ele>
        <time>2020-04-11T19:01:21Z</time>
      </trkpt>
      <trkpt lat="42.5449830" lon="-6.5344230">
        <ele>569.8</ele>
        <time>2020-04-11T19:01:23Z</time>
      </trkpt>
      <trkpt lat="42.5450570" lon="-6.5345770">
        <ele>569.9</ele>
        <time>2020-04-11T19:01:25Z</time>
      </trkpt>
      <trkpt lat="42.5451960" lon="-6.5348680">
        <ele>569.9</ele>
        <time>2020-04-11T19:01:27Z</time>
      </trkpt>
      <trkpt lat="42.5452650" lon="-6.5350160">
        <ele>569.9</ele>
        <time>2020-04-11T19:01:29Z</time>
      </trkpt>
      <trkpt lat="42.5453300" lon="-6.5351560">
        <ele>570.0</ele>
        <time>2020-04-11T19:01:31Z</time>
      </trkpt>
      <trkpt lat="42.5453920" lon="-6.5352900">
        <ele>570.4</ele>
        <time>2020-04-11T19:01:33Z</time>
      </trkpt>
      <trkpt lat="42.5455530" lon="-6.5356400">
        <ele>571.8</ele>
        <time>2020-04-11T19:01:35Z</time>
      </trkpt>
      <trkpt lat="42.5455900" lon="-6.5357780">
        <ele>572.6</ele>
        <time>2020-04-11T19:01:37Z</time>
      </trkpt>
      <trkpt lat="42.5456420" lon="-6.5360000">
        <ele>573.7</ele>
        <time>2020-04-11T19:01:39Z</time>
      </trkpt>
      <trkpt lat="42.5456510" lon="-6.5361320">
        <ele>574.3</ele>
        <time>2020-04-11T19:01:41Z</time>
      </trkpt>
      <trkpt lat="42.5456550" lon="-6.5363390">
        <ele>575.2</ele>
        <time>2020-04-11T19:01:43Z</time>
      </trkpt>
      <trkpt lat="42.5456440" lon="-6.5364540">
        <ele>575.7</ele>
        <time>2020-04-11T19:01:45Z</time>
      </trkpt>
      <trkpt lat="42.5456340" lon="-6.5365640">
        <ele>576.2</ele>
        <time>2020-04-11T19:01:47Z</time>
      </trkpt>
      <trkpt lat="42.5456240" lon="-6.5366680">
        <ele>576.6</ele>
        <time>2020-04-11T19:01:49Z</time>
      </trkpt>
      <trkpt lat="42.5456150" lon="-6.5367680">
        <ele>577.1</ele>
        <time>2020-04-11T19:01:51Z</time>
      </trkpt>
      <trkpt lat="42.5455910" lon="-6.5370650">
        <ele>578.4</ele>
        <time>2020-04-11T19:01:53Z</time>
      </trkpt>
      <trkpt lat="42.5455930" lon="-6.5371600">
        <ele>578.8</ele>
        <time>2020-04-11T19:01:55Z</time>
      </trkpt>
      <trkpt lat="42.5455960" lon="-6.5372530">
        <ele>579.2</ele>
        <time>2020-04-11T19:01:57Z</time>
      </trkpt>
      <trkpt lat="42.5456070" lon="-6.5374370">
        <ele>580.0</ele>
        <time>2020-04-11T19:01:59Z</time>
      </trkpt>
      <trkpt lat="42.5456230" lon="-6.5375400">
        <ele>580.4</ele>
        <time>2020-04-11T19:02:01Z</time>
      </trkpt>
      <trkpt lat="42.5456400" lon="-6.5376510">
        <ele>580.9</ele>
        <time>2020-04-11T19:02:03Z</time>
      </trkpt>
      <trkpt lat="42.5456570" lon="-6.5377670">
        <ele>581.3</ele>
        <time>2020-04-11T19:02:05Z</time>
      </trkpt>
      <trkpt lat="42.5457040" lon="-6.5380410">
        <ele>582.1</ele>
        <time>2020-04-11T19:02:07Z</time>
      </trkpt>
      <trkpt lat="42.5457500" lon="-6.5382130">
        <ele>582.6</ele>
        <time>2020-04-11T19:02:09Z</time>
      </trkpt>
      <trkpt lat="42.5457970" lon="-6.5383230">
        <ele>583.0</ele>
        <time>2020-04-11T19:02:11Z</time>
      </trkpt>
      <trkpt lat="42.5458730" lon="-6.5384820">
        <ele>583.4</ele>
        <time>2020-04-11T19:02:13Z</time>
      </trkpt>
      <trkpt lat="42.5459300" lon="-6.5385880">
        <ele>583.6</ele>
        <time>2020-04-11T19:02:15Z</time>
      </trkpt>
      <trkpt lat="42.5459860" lon="-6.5386950">
        <ele>583.8</ele>
        <time>2020-04-11T19:02:17Z</time>
      </trkpt>
      <trkpt lat="42.5461080" lon="-6.5389330">
        <ele>584.3</ele>
        <time>2020-04-11T19:02:19Z</time>
      </trkpt>
      <trkpt lat="42.5461720" lon="-6.5390980">
        <ele>584.6</ele>
        <time>2020-04-11T19:02:21Z</time>
      </trkpt>
      <trkpt lat="42.5462110" lon="-6.5392260">
        <ele>584.7</ele>
        <time>2020-04-11T19:02:23Z</time>
      </trkpt>
      <trkpt lat="42.5462600" lon="-6.5394710">
        <ele>584.9</ele>
        <time>2020-04-11T19:02:25Z</time>
      </trkpt>
      <trkpt lat="42.5462670" lon="-6.5396140">
        <ele>585.1</ele>
        <time>2020-04-11T19:02:27Z</time>
      </trkpt>
      <trkpt lat="42.5462740" lon="-6.5397580">
        <ele>585.2</ele>
        <time>2020-04-11T19:02:29Z</time>
      </trkpt>
      <trkpt lat="42.5462810" lon="-6.5399060">
        <ele>585.4</ele>
        <time>2020-04-11T19:02:31Z</time>
      </trkpt>
      <trkpt lat="42.5462890" lon="-6.5400540">
        <ele>585.6</ele>
        <time>2020-04-11T19:02:33Z</time>
      </trkpt>
      <trkpt lat="42.5463060" lon="-6.5404160">
        <ele>586.0</ele>
        <time>2020-04-11T19:02:35Z</time>
      </trkpt>
      <trkpt lat="42.5463130" lon="-6.5405600">
        <ele>586.2</ele>
        <time>2020-04-11T19:02:37Z</time>
      </trkpt>
      <trkpt lat="42.5463200" lon="-6.5407000">
        <ele>586.4</ele>
        <time>2020-04-11T19:02:39Z</time>
      </trkpt>
      <trkpt lat="42.5463270" lon="-6.5408380">
        <ele>586.5</ele>
        <time>2020-04-11T19:02:41Z</time>
      </trkpt>
      <trkpt lat="42.5463440" lon="-6.5411890">
        <ele>587.1</ele>
        <time>2020-04-11T19:02:43Z</time>
      </trkpt>
      <trkpt lat="42.5463510" lon="-6.5413230">
        <ele>587.3</ele>
        <time>2020-04-11T19:02:45Z</time>
      </trkpt>
      <trkpt lat="42.5463570" lon="-6.5414540">
        <ele>587.5</ele>
        <time>2020-04-11T19:02:47Z</time>
      </trkpt>
      <trkpt lat="42.5463640" lon="-6.5415840">
        <ele>587.7</ele>
        <time>2020-04-11T19:02:49Z</time>
      </trkpt>
      <trkpt lat="42.5463800" lon="-6.5419290">
        <ele>588.5</ele>
        <time>2020-04-11T19:02:51Z</time>
      </trkpt>
      <trkpt lat="42.5463800" lon="-6.5420490">
        <ele>588.8</ele>
        <time>2020-04-11T19:02:53Z</time>
      </trkpt>
      <trkpt lat="42.5463800" lon="-6.5421550">
        <ele>589.1</ele>
        <time>2020-04-11T19:02:55Z</time>
      </trkpt>
      <trkpt lat="42.5463730" lon="-6.5423340">
        <ele>589.6</ele>
        <time>2020-04-11T19:02:57Z</time>
      </trkpt>
      <trkpt lat="42.5463660" lon="-6.5424190">
        <ele>589.8</ele>
        <time>2020-04-11T19:02:59Z</time>
      </trkpt>
      <trkpt lat="42.5463590" lon="-6.5424960">
        <ele>590.0</ele>
        <time>2020-04-11T19:03:01Z</time>
      </trkpt>
      <trkpt lat="42.5463530" lon="-6.5425680">
        <ele>590.2</ele>
        <time>2020-04-11T19:03:03Z</time>
      </trkpt>
      <trkpt lat="42.5463470" lon="-6.5426380">
        <ele>590.4</ele>
        <time>2020-04-11T19:03:05Z</time>
      </trkpt>
      <trkpt lat="42.5463420" lon="-6.5427040">
        <ele>590.5</ele>
        <time>2020-04-11T19:03:07Z</time>
      </trkpt>
      <trkpt lat="42.5463360" lon="-6.5427700">
        <ele>590.7</ele>
        <time>2020-04-11T19:03:09Z</time>
      </trkpt>
      <trkpt lat="42.5463310" lon="-6.5428330">
        <ele>590.8</ele>
        <time>2020-04-11T19:03:11Z</time>
      </trkpt>
      <trkpt lat="42.5463250" lon="-6.5428980">
        <ele>590.9</ele>
        <time>2020-04-11T19:03:13Z</time>
      </trkpt>
      <trkpt lat="42.5463200" lon="-6.5429620">
        <ele>591.1</ele>
        <time>2020-04-11T19:03:15Z</time>
      </trkpt>
      <trkpt lat="42.5463150" lon="-6.5430260">
        <ele>591.3</ele>
        <time>2020-04-11T19:03:17Z</time>
      </trkpt>
      <trkpt lat="42.5462850" lon="-6.5433790">
        <ele>592.6</ele>
        <time>2020-04-11T19:03:19Z</time>
      </trkpt>
      <trkpt lat="42.5462790" lon="-6.5434540">
        <ele>592.8</ele>
        <time>2020-04-11T19:03:21Z</time>
      </trkpt>
      <trkpt lat="42.5462720" lon="-6.5435340">
        <ele>593.1</ele>
        <time>2020-04-11T19:03:23Z</time>
      </trkpt>
      <trkpt lat="42.5462650" lon="-6.5436150">
        <ele>593.4</ele>
        <time>2020-04-11T19:03:25Z</time>
      </trkpt>
      <trkpt lat="42.5462580" lon="-6.5436970">
        <ele>593.7</ele>
        <time>2020-04-11T19:03:27Z</time>
      </trkpt>
      <trkpt lat="42.5462510" lon="-6.5437800">
        <ele>594.0</ele>
        <time>2020-04-11T19:03:29Z</time>
      </trkpt>
      <trkpt lat="42.5462440" lon="-6.5438630">
        <ele>594.3</ele>
        <time>2020-04-11T19:03:31Z</time>
      </trkpt>
      <trkpt lat="42.5462370" lon="-6.5439460">
        <ele>594.6</ele>
        <time>2020-04-11T19:03:33Z</time>
      </trkpt>
      <trkpt lat="42.5462300" lon="-6.5440290">
        <ele>594.9</ele>
        <time>2020-04-11T19:03:35Z</time>
      </trkpt>
      <trkpt lat="42.5462230" lon="-6.5441110">
        <ele>595.2</ele>
        <time>2020-04-11T19:03:37Z</time>
      </trkpt>
      <trkpt lat="42.5461920" lon="-6.5444800">
        <ele>596.6</ele>
        <time>2020-04-11T19:03:39Z</time>
      </trkpt>
      <trkpt lat="42.5461850" lon="-6.5445630">
        <ele>596.9</ele>
        <time>2020-04-11T19:03:41Z</time>
      </trkpt>
      <trkpt lat="42.5461780" lon="-6.5446460">
        <ele>597.3</ele>
        <time>2020-04-11T19:03:43Z</time>
      </trkpt>
      <trkpt lat="42.5461710" lon="-6.5447290">
        <ele>597.6</ele>
        <time>2020-04-11T19:03:45Z</time>
      </trkpt>
      <trkpt lat="42.5461640" lon="-6.5448110">
        <ele>597.9</ele>
        <time>2020-04-11T19:03:47Z</time>
      </trkpt>
      <trkpt lat="42.5461570" lon="-6.5448930">
        <ele>598.2</ele>
        <time>2020-04-11T19:03:49Z</time>
      </trkpt>
      <trkpt lat="42.5461500" lon="-6.5449760">
        <ele>598.5</ele>
        <time>2020-04-11T19:03:51Z</time>
      </trkpt>
      <trkpt lat="42.5461430" lon="-6.5450580">
        <ele>598.8</ele>
        <time>2020-04-11T19:03:53Z</time>
      </trkpt>
      <trkpt lat="42.5461360" lon="-6.5451410">
        <ele>599.1</ele>
        <time>2020-04-11T19:03:55Z</time>
      </trkpt>
      <trkpt lat="42.5461290" lon="-6.5452240">
        <ele>599.4</ele>
        <time>2020-04-11T19:03:57Z</time>
      </trkpt>
      <trkpt lat="42.5460980" lon="-6.5455970">
        <ele>600.8</ele>
        <time>2020-04-11T19:03:59Z</time>
      </trkpt>
      <trkpt lat="42.5460900" lon="-6.5456910">
        <ele>601.1</ele>
        <time>2020-04-11T19:04:01Z</time>
      </trkpt>
      <trkpt lat="42.5460820" lon="-6.5457920">
        <ele>601.5</ele>
        <time>2020-04-11T19:04:03Z</time>
      </trkpt>
      <trkpt lat="42.5460730" lon="-6.5458950">
        <ele>601.9</ele>
        <time>2020-04-11T19:04:05Z</time>
      </trkpt>
      <trkpt lat="42.5460640" lon="-6.5460000">
        <ele>602.2</ele>
        <time>2020-04-11T19:04:07Z</time>
      </trkpt>
      <trkpt lat="42.5460550" lon="-6.5461060">
        <ele>602.5</ele>
        <time>2020-04-11T19:04:09Z</time>
      </trkpt>
      <trkpt lat="42.5460460" lon="-6.5462120">
        <ele>602.9</ele>
        <time>2020-04-11T19:04:11Z</time>
      </trkpt>
      <trkpt lat="42.5460370" lon="-6.5463180">
        <ele>603.2</ele>
        <time>2020-04-11T19:04:13Z</time>
      </trkpt>
      <trkpt lat="42.5460040" lon="-6.5467100">
        <ele>604.4</ele>
        <time>2020-04-11T19:04:15Z</time>
      </trkpt>
      <trkpt lat="42.5459950" lon="-6.5468170">
        <ele>604.7</ele>
        <time>2020-04-11T19:04:17Z</time>
      </trkpt>
      <trkpt lat="42.5459860" lon="-6.5469230">
        <ele>605.1</ele>
        <time>2020-04-11T19:04:19Z</time>
      </trkpt>
      <trkpt lat="42.5459770" lon="-6.5470300">
        <ele>605.4</ele>
        <time>2020-04-11T19:04:21Z</time>
      </trkpt>
      <trkpt lat="42.5459680" lon="-6.5471370">
        <ele>605.8</ele>
        <time>2020-04-11T19:04:23Z</time>
      </trkpt>
      <trkpt lat="42.5459590" lon="-6.5472420">
        <ele>606.2</ele>
        <time>2020-04-11T19:04:25Z</time>
      </trkpt>
      <trkpt lat="42.5459500" lon="-6.5473480">
        <ele>606.5</ele>
        <time>2020-04-11T19:04:27Z</time>
      </trkpt>
      <trkpt lat="42.5459170" lon="-6.5477400">
        <ele>607.4</ele>
        <time>2020-04-11T19:04:29Z</time>
      </trkpt>
      <trkpt lat="42.5459040" lon="-6.5478560">
        <ele>607.5</ele>
        <time>2020-04-11T19:04:31Z</time>
      </trkpt>
      <trkpt lat="42.5458900" lon="-6.5479800">
        <ele>607.8</ele>
        <time>2020-04-11T19:04:33Z</time>
      </trkpt>
      <trkpt lat="42.5458760" lon="-6.5481090">
        <ele>608.2</ele>
        <time>2020-04-11T19:04:35Z</time>
      </trkpt>
      <trkpt lat="42.5458620" lon="-6.5482420">
        <ele>608.7</ele>
        <time>2020-04-11T19:04:37Z</time>
      </trkpt>
      <trkpt lat="42.5458100" lon="-6.5485670">
        <ele>609.8</ele>
        <time>2020-04-11T19:04:39Z</time>
      </trkpt>
      <trkpt lat="42.5457470" lon="-6.5487430">
        <ele>610.5</ele>
        <time>2020-04-11T19:04:41Z</time>
      </trkpt>
      <trkpt lat="42.5456930" lon="-6.5488620">
        <ele>611.0</ele>
        <time>2020-04-11T19:04:43Z</time>
      </trkpt>
      <trkpt lat="42.5456380" lon="-6.5489810">
        <ele>611.4</ele>
        <time>2020-04-11T19:04:45Z</time>
      </trkpt>
      <trkpt lat="42.5455830" lon="-6.5491020">
        <ele>611.6</ele>
        <time>2020-04-11T19:04:47Z</time>
      </trkpt>
      <trkpt lat="42.5454430" lon="-6.5494180">
        <ele>611.8</ele>
        <time>2020-04-11T19:04:49Z</time>
      </trkpt>
      <trkpt lat="42.5453740" lon="-6.5496270">
        <ele>611.2</ele>
        <time>2020-04-11T19:04:51Z</time>
      </trkpt>
      <trkpt lat="42.5453460" lon="-6.5498620">
        <ele>610.3</ele>
        <time>2020-04-11T19:04:53Z</time>
      </trkpt>
      <trkpt lat="42.5453360" lon="-6.5500650">
        <ele>609.6</ele>
        <time>2020-04-11T19:04:55Z</time>
      </trkpt>
      <trkpt lat="42.5453020" lon="-6.5503820">
        <ele>608.1</ele>
        <time>2020-04-11T19:04:57Z</time>
      </trkpt>
      <trkpt lat="42.5453700" lon="-6.5507000">
        <ele>606.1</ele>
        <time>2020-04-11T19:04:59Z</time>
      </trkpt>
      <trkpt lat="42.5454460" lon="-6.5509250">
        <ele>604.5</ele>
        <time>2020-04-11T19:05:01Z</time>
      </trkpt>
      <trkpt lat="42.5455830" lon="-6.5513330">
        <ele>601.5</ele>
        <time>2020-04-11T19:05:03Z</time>
      </trkpt>
      <trkpt lat="42.5456430" lon="-6.5515910">
        <ele>600.0</ele>
        <time>2020-04-11T19:05:05Z</time>
      </trkpt>
      <trkpt lat="42.5456670" lon="-6.5520350">
        <ele>599.4</ele>
        <time>2020-04-11T19:05:07Z</time>
      </trkpt>
      <trkpt lat="42.5455910" lon="-6.5523880">
        <ele>597.7</ele>
        <time>2020-04-11T19:05:09Z</time>
      </trkpt>
      <trkpt lat="42.5454990" lon="-6.5526430">
        <ele>596.0</ele>
        <time>2020-04-11T19:05:11Z</time>
      </trkpt>
      <trkpt lat="42.5453550" lon="-6.5530430">
        <ele>593.5</ele>
        <time>2020-04-11T19:05:13Z</time>
      </trkpt>
      <trkpt lat="42.5452190" lon="-6.5534460">
        <ele>591.1</ele>
        <time>2020-04-11T19:05:15Z</time>
      </trkpt>
      <trkpt lat="42.5451580" lon="-6.5538200">
        <ele>588.9</ele>
        <time>2020-04-11T19:05:17Z</time>
      </trkpt>
      <trkpt lat="42.5451590" lon="-6.5541980">
        <ele>586.7</ele>
        <time>2020-04-11T19:05:19Z</time>
      </trkpt>
      <trkpt lat="42.5451880" lon="-6.5544830">
        <ele>585.2</ele>
        <time>2020-04-11T19:05:21Z</time>
      </trkpt>
      <trkpt lat="42.5452160" lon="-6.5547660">
        <ele>583.8</ele>
        <time>2020-04-11T19:05:23Z</time>
      </trkpt>
      <trkpt lat="42.5452730" lon="-6.5553290">
        <ele>580.8</ele>
        <time>2020-04-11T19:05:25Z</time>
      </trkpt>
      <trkpt lat="42.5453020" lon="-6.5556230">
        <ele>579.4</ele>
        <time>2020-04-11T19:05:27Z</time>
      </trkpt>
      <trkpt lat="42.5453330" lon="-6.5559240">
        <ele>577.9</ele>
        <time>2020-04-11T19:05:29Z</time>
      </trkpt>
      <trkpt lat="42.5453920" lon="-6.5565070">
        <ele>575.8</ele>
        <time>2020-04-11T19:05:31Z</time>
      </trkpt>
      <trkpt lat="42.5454230" lon="-6.5568200">
        <ele>574.7</ele>
        <time>2020-04-11T19:05:33Z</time>
      </trkpt>
      <trkpt lat="42.5454830" lon="-6.5574140">
        <ele>572.6</ele>
        <time>2020-04-11T19:05:35Z</time>
      </trkpt>
      <trkpt lat="42.5455150" lon="-6.5577310">
        <ele>571.0</ele>
        <time>2020-04-11T19:05:37Z</time>
      </trkpt>
      <trkpt lat="42.5455750" lon="-6.5583300">
        <ele>567.9</ele>
        <time>2020-04-11T19:05:39Z</time>
      </trkpt>
      <trkpt lat="42.5456080" lon="-6.5586550">
        <ele>566.2</ele>
        <time>2020-04-11T19:05:41Z</time>
      </trkpt>
      <trkpt lat="42.5456410" lon="-6.5589810">
        <ele>564.4</ele>
        <time>2020-04-11T19:05:43Z</time>
      </trkpt>
      <trkpt lat="42.5456970" lon="-6.5595840">
        <ele>561.4</ele>
        <time>2020-04-11T19:05:45Z</time>
      </trkpt>
      <trkpt lat="42.5457230" lon="-6.5599130">
        <ele>559.9</ele>
        <time>2020-04-11T19:05:47Z</time>
      </trkpt>
      <trkpt lat="42.5457680" lon="-6.5605380">
        <ele>557.6</ele>
        <time>2020-04-11T19:05:49Z</time>
      </trkpt>
      <trkpt lat="42.5457500" lon="-6.5608640">
        <ele>555.6</ele>
        <time>2020-04-11T19:05:51Z</time>
      </trkpt>
      <trkpt lat="42.5457040" lon="-6.5613780">
        <ele>553.8</ele>
        <time>2020-04-11T19:05:53Z</time>
      </trkpt>
      <trkpt lat="42.5456230" lon="-6.5618410">
        <ele>551.3</ele>
        <time>2020-04-11T19:05:55Z</time>
      </trkpt>
      <trkpt lat="42.5455550" lon="-6.5621640">
        <ele>549.3</ele>
        <time>2020-04-11T19:05:57Z</time>
      </trkpt>
      <trkpt lat="42.5454330" lon="-6.5627450">
        <ele>546.3</ele>
        <time>2020-04-11T19:05:59Z</time>
      </trkpt>
      <trkpt lat="42.5453610" lon="-6.5630830">
        <ele>543.2</ele>
        <time>2020-04-11T19:06:01Z</time>
      </trkpt>
      <trkpt lat="42.5452400" lon="-6.5636770">
        <ele>536.9</ele>
        <time>2020-04-11T19:06:03Z</time>
      </trkpt>
      <trkpt lat="42.5452470" lon="-6.5641330">
        <ele>531.9</ele>
        <time>2020-04-11T19:06:05Z</time>
      </trkpt>
      <trkpt lat="42.5453230" lon="-6.5645500">
        <ele>527.6</ele>
        <time>2020-04-11T19:06:07Z</time>
      </trkpt>
      <trkpt lat="42.5454460" lon="-6.5648100">
        <ele>525.9</ele>
        <time>2020-04-11T19:06:09Z</time>
      </trkpt>
      <trkpt lat="42.5456680" lon="-6.5651630">
        <ele>528.0</ele>
        <time>2020-04-11T19:06:11Z</time>
      </trkpt>
      <trkpt lat="42.5459010" lon="-6.5653280">
        <ele>529.4</ele>
        <time>2020-04-11T19:06:13Z</time>
      </trkpt>
      <trkpt lat="42.5460780" lon="-6.5654120">
        <ele>528.2</ele>
        <time>2020-04-11T19:06:15Z</time>
      </trkpt>
      <trkpt lat="42.5463600" lon="-6.5655940">
        <ele>526.1</ele>
        <time>2020-04-11T19:06:17Z</time>
      </trkpt>
      <trkpt lat="42.5464980" lon="-6.5658200">
        <ele>525.4</ele>
        <time>2020-04-11T19:06:19Z</time>
      </trkpt>
      <trkpt lat="42.5465750" lon="-6.5661150">
        <ele>524.9</ele>
        <time>2020-04-11T19:06:21Z</time>
      </trkpt>
      <trkpt lat="42.5466160" lon="-6.5663470">
        <ele>524.2</ele>
        <time>2020-04-11T19:06:23Z</time>
      </trkpt>
      <trkpt lat="42.5466860" lon="-6.5667560">
        <ele>523.2</ele>
        <time>2020-04-11T19:06:25Z</time>
      </trkpt>
      <trkpt lat="42.5467270" lon="-6.5669920">
        <ele>522.8</ele>
        <time>2020-04-11T19:06:27Z</time>
      </trkpt>
      <trkpt lat="42.5467480" lon="-6.5674020">
        <ele>522.7</ele>
        <time>2020-04-11T19:06:29Z</time>
      </trkpt>
      <trkpt lat="42.5466250" lon="-6.5676830">
        <ele>523.2</ele>
        <time>2020-04-11T19:06:31Z</time>
      </trkpt>
      <trkpt lat="42.5465250" lon="-6.5678480">
        <ele>523.5</ele>
        <time>2020-04-11T19:06:33Z</time>
      </trkpt>
      <trkpt lat="42.5464290" lon="-6.5680060">
        <ele>523.7</ele>
        <time>2020-04-11T19:06:35Z</time>
      </trkpt>
      <trkpt lat="42.5463370" lon="-6.5681580">
        <ele>523.9</ele>
        <time>2020-04-11T19:06:37Z</time>
      </trkpt>
      <trkpt lat="42.5461340" lon="-6.5685250">
        <ele>524.1</ele>
        <time>2020-04-11T19:06:39Z</time>
      </trkpt>
      <trkpt lat="42.5460600" lon="-6.5686900">
        <ele>524.0</ele>
        <time>2020-04-11T19:06:41Z</time>
      </trkpt>
      <trkpt lat="42.5459470" lon="-6.5689670">
        <ele>523.8</ele>
        <time>2020-04-11T19:06:43Z</time>
      </trkpt>
      <trkpt lat="42.5458810" lon="-6.5691390">
        <ele>523.6</ele>
        <time>2020-04-11T19:06:45Z</time>
      </trkpt>
      <trkpt lat="42.5458160" lon="-6.5693110">
        <ele>523.4</ele>
        <time>2020-04-11T19:06:47Z</time>
      </trkpt>
      <trkpt lat="42.5457500" lon="-6.5694840">
        <ele>523.2</ele>
        <time>2020-04-11T19:06:49Z</time>
      </trkpt>
      <trkpt lat="42.5455880" lon="-6.5699100">
        <ele>522.8</ele>
        <time>2020-04-11T19:06:51Z</time>
      </trkpt>
      <trkpt lat="42.5455210" lon="-6.5700860">
        <ele>522.7</ele>
        <time>2020-04-11T19:06:53Z</time>
      </trkpt>
      <trkpt lat="42.5454540" lon="-6.5702620">
        <ele>522.7</ele>
        <time>2020-04-11T19:06:55Z</time>
      </trkpt>
      <trkpt lat="42.5453860" lon="-6.5704410">
        <ele>522.7</ele>
        <time>2020-04-11T19:06:57Z</time>
      </trkpt>
      <trkpt lat="42.5452310" lon="-6.5708790">
        <ele>522.7</ele>
        <time>2020-04-11T19:06:59Z</time>
      </trkpt>
      <trkpt lat="42.5451530" lon="-6.5711630">
        <ele>522.7</ele>
        <time>2020-04-11T19:07:01Z</time>
      </trkpt>
      <trkpt lat="42.5450980" lon="-6.5714490">
        <ele>522.6</ele>
        <time>2020-04-11T19:07:03Z</time>
      </trkpt>
      <trkpt lat="42.5450760" lon="-6.5716440">
        <ele>522.6</ele>
        <time>2020-04-11T19:07:05Z</time>
      </trkpt>
      <trkpt lat="42.5450400" lon="-6.5719800">
        <ele>522.7</ele>
        <time>2020-04-11T19:07:07Z</time>
      </trkpt>
      <trkpt lat="42.5450340" lon="-6.5721710">
        <ele>522.8</ele>
        <time>2020-04-11T19:07:09Z</time>
      </trkpt>
      <trkpt lat="42.5450280" lon="-6.5723620">
        <ele>522.9</ele>
        <time>2020-04-11T19:07:11Z</time>
      </trkpt>
      <trkpt lat="42.5450220" lon="-6.5725510">
        <ele>522.9</ele>
        <time>2020-04-11T19:07:13Z</time>
      </trkpt>
      <trkpt lat="42.5450100" lon="-6.5729520">
        <ele>523.2</ele>
        <time>2020-04-11T19:07:15Z</time>
      </trkpt>
      <trkpt lat="42.5450040" lon="-6.5731390">
        <ele>523.4</ele>
        <time>2020-04-11T19:07:17Z</time>
      </trkpt>
      <trkpt lat="42.5449980" lon="-6.5733250">
        <ele>523.6</ele>
        <time>2020-04-11T19:07:19Z</time>
      </trkpt>
      <trkpt lat="42.5450040" lon="-6.5737190">
        <ele>523.8</ele>
        <time>2020-04-11T19:07:21Z</time>
      </trkpt>
      <trkpt lat="42.5450230" lon="-6.5738980">
        <ele>523.9</ele>
        <time>2020-04-11T19:07:23Z</time>
      </trkpt>
      <trkpt lat="42.5450610" lon="-6.5742200">
        <ele>524.1</ele>
        <time>2020-04-11T19:07:25Z</time>
      </trkpt>
      <trkpt lat="42.5450860" lon="-6.5743900">
        <ele>524.2</ele>
        <time>2020-04-11T19:07:27Z</time>
      </trkpt>
      <trkpt lat="42.5451120" lon="-6.5745580">
        <ele>524.4</ele>
        <time>2020-04-11T19:07:29Z</time>
      </trkpt>
      <trkpt lat="42.5451370" lon="-6.5747240">
        <ele>524.5</ele>
        <time>2020-04-11T19:07:31Z</time>
      </trkpt>
      <trkpt lat="42.5451990" lon="-6.5751360">
        <ele>525.0</ele>
        <time>2020-04-11T19:07:33Z</time>
      </trkpt>
      <trkpt lat="42.5452240" lon="-6.5752970">
        <ele>525.3</ele>
        <time>2020-04-11T19:07:35Z</time>
      </trkpt>
      <trkpt lat="42.5452480" lon="-6.5754590">
        <ele>525.6</ele>
        <time>2020-04-11T19:07:37Z</time>
      </trkpt>
      <trkpt lat="42.5452720" lon="-6.5756200">
        <ele>525.8</ele>
        <time>2020-04-11T19:07:39Z</time>
      </trkpt>
      <trkpt lat="42.5452960" lon="-6.5757780">
        <ele>526.1</ele>
        <time>2020-04-11T19:07:41Z</time>
      </trkpt>
      <trkpt lat="42.5453580" lon="-6.5761850">
        <ele>526.8</ele>
        <time>2020-04-11T19:07:43Z</time>
      </trkpt>
      <trkpt lat="42.5453820" lon="-6.5763420">
        <ele>527.0</ele>
        <time>2020-04-11T19:07:45Z</time>
      </trkpt>
      <trkpt lat="42.5454060" lon="-6.5764990">
        <ele>527.1</ele>
        <time>2020-04-11T19:07:47Z</time>
      </trkpt>
      <trkpt lat="42.5454290" lon="-6.5766550">
        <ele>527.3</ele>
        <time>2020-04-11T19:07:49Z</time>
      </trkpt>
      <trkpt lat="42.5454950" lon="-6.5770560">
        <ele>527.8</ele>
        <time>2020-04-11T19:07:51Z</time>
      </trkpt>
      <trkpt lat="42.5455540" lon="-6.5772270">
        <ele>528.1</ele>
        <time>2020-04-11T19:07:53Z</time>
      </trkpt>
      <trkpt lat="42.5456370" lon="-6.5773740">
        <ele>528.3</ele>
        <time>2020-04-11T19:07:55Z</time>
      </trkpt>
      <trkpt lat="42.5457030" lon="-6.5774550">
        <ele>528.5</ele>
        <time>2020-04-11T19:07:57Z</time>
      </trkpt>
      <trkpt lat="42.5457630" lon="-6.5775290">
        <ele>528.7</ele>
        <time>2020-04-11T19:07:59Z</time>
      </trkpt>
      <trkpt lat="42.5458180" lon="-6.5775980">
        <ele>528.9</ele>
        <time>2020-04-11T19:08:01Z</time>
      </trkpt>
      <trkpt lat="42.5458710" lon="-6.5776630">
        <ele>529.1</ele>
        <time>2020-04-11T19:08:03Z</time>
      </trkpt>
      <trkpt lat="42.5460310" lon="-6.5778630">
        <ele>530.1</ele>
        <time>2020-04-11T19:08:05Z</time>
      </trkpt>
      <trkpt lat="42.5460680" lon="-6.5779370">
        <ele>530.5</ele>
        <time>2020-04-11T19:08:07Z</time>
      </trkpt>
      <trkpt lat="42.5461090" lon="-6.5780550">
        <ele>531.2</ele>
        <time>2020-04-11T19:08:09Z</time>
      </trkpt>
      <trkpt lat="42.5461250" lon="-6.5781530">
        <ele>531.7</ele>
        <time>2020-04-11T19:08:11Z</time>
      </trkpt>
      <trkpt lat="42.5461500" lon="-6.5783390">
        <ele>532.6</ele>
        <time>2020-04-11T19:08:13Z</time>
      </trkpt>
      <trkpt lat="42.5461490" lon="-6.5784940">
        <ele>533.1</ele>
        <time>2020-04-11T19:08:15Z</time>
      </trkpt>
      <trkpt lat="42.5461390" lon="-6.5786060">
        <ele>533.3</ele>
        <time>2020-04-11T19:08:17Z</time>
      </trkpt>
      <trkpt lat="42.5461280" lon="-6.5787200">
        <ele>533.6</ele>
        <time>2020-04-11T19:08:19Z</time>
      </trkpt>
      <trkpt lat="42.5461060" lon="-6.5789490">
        <ele>534.2</ele>
        <time>2020-04-11T19:08:21Z</time>
      </trkpt>
      <trkpt lat="42.5460890" lon="-6.5790610">
        <ele>534.4</ele>
        <time>2020-04-11T19:08:23Z</time>
      </trkpt>
      <trkpt lat="42.5460710" lon="-6.5791760">
        <ele>534.5</ele>
        <time>2020-04-11T19:08:25Z</time>
      </trkpt>
      <trkpt lat="42.5460540" lon="-6.5792910">
        <ele>534.7</ele>
        <time>2020-04-11T19:08:27Z</time>
      </trkpt>
      <trkpt lat="42.5460220" lon="-6.5795660">
        <ele>535.0</ele>
        <time>2020-04-11T19:08:29Z</time>
      </trkpt>
      <trkpt lat="42.5460250" lon="-6.5797440">
        <ele>535.1</ele>
        <time>2020-04-11T19:08:31Z</time>
      </trkpt>
      <trkpt lat="42.5460070" lon="-6.5798820">
        <ele>535.2</ele>
        <time>2020-04-11T19:08:33Z</time>
      </trkpt>
      <trkpt lat="42.5459870" lon="-6.5800280">
        <ele>535.4</ele>
        <time>2020-04-11T19:08:35Z</time>
      </trkpt>
      <trkpt lat="42.5459660" lon="-6.5801790">
        <ele>535.6</ele>
        <time>2020-04-11T19:08:37Z</time>
      </trkpt>
      <trkpt lat="42.5459450" lon="-6.5803350">
        <ele>535.8</ele>
        <time>2020-04-11T19:08:39Z</time>
      </trkpt>
      <trkpt lat="42.5458890" lon="-6.5807470">
        <ele>535.9</ele>
        <time>2020-04-11T19:08:41Z</time>
      </trkpt>
      <trkpt lat="42.5458670" lon="-6.5809090">
        <ele>535.9</ele>
        <time>2020-04-11T19:08:43Z</time>
      </trkpt>
      <trkpt lat="42.5458440" lon="-6.5810760">
        <ele>535.9</ele>
        <time>2020-04-11T19:08:45Z</time>
      </trkpt>
      <trkpt lat="42.5458210" lon="-6.5812460">
        <ele>535.9</ele>
        <time>2020-04-11T19:08:47Z</time>
      </trkpt>
      <trkpt lat="42.5457640" lon="-6.5816690">
        <ele>535.8</ele>
        <time>2020-04-11T19:08:49Z</time>
      </trkpt>
      <trkpt lat="42.5457400" lon="-6.5818420">
        <ele>535.8</ele>
        <time>2020-04-11T19:08:51Z</time>
      </trkpt>
      <trkpt lat="42.5457160" lon="-6.5820210">
        <ele>535.8</ele>
        <time>2020-04-11T19:08:53Z</time>
      </trkpt>
      <trkpt lat="42.5456910" lon="-6.5822010">
        <ele>535.9</ele>
        <time>2020-04-11T19:08:55Z</time>
      </trkpt>
      <trkpt lat="42.5456300" lon="-6.5826350">
        <ele>536.0</ele>
        <time>2020-04-11T19:08:57Z</time>
      </trkpt>
      <trkpt lat="42.5456420" lon="-6.5828480">
        <ele>536.0</ele>
        <time>2020-04-11T19:08:59Z</time>
      </trkpt>
      <trkpt lat="42.5455320" lon="-6.5830460">
        <ele>536.1</ele>
        <time>2020-04-11T19:09:01Z</time>
      </trkpt>
      <trkpt lat="42.5454170" lon="-6.5831430">
        <ele>535.9</ele>
        <time>2020-04-11T19:09:03Z</time>
      </trkpt>
      <trkpt lat="42.5453050" lon="-6.5832360">
        <ele>535.8</ele>
        <time>2020-04-11T19:09:05Z</time>
      </trkpt>
      <trkpt lat="42.5450540" lon="-6.5834490">
        <ele>535.4</ele>
        <time>2020-04-11T19:09:07Z</time>
      </trkpt>
      <trkpt lat="42.5449640" lon="-6.5835720">
        <ele>535.2</ele>
        <time>2020-04-11T19:09:09Z</time>
      </trkpt>
      <trkpt lat="42.5448760" lon="-6.5836930">
        <ele>535.1</ele>
        <time>2020-04-11T19:09:11Z</time>
      </trkpt>
      <trkpt lat="42.5447410" lon="-6.5839410">
        <ele>535.1</ele>
        <time>2020-04-11T19:09:13Z</time>
      </trkpt>
      <trkpt lat="42.5447000" lon="-6.5841400">
        <ele>535.1</ele>
        <time>2020-04-11T19:09:15Z</time>
      </trkpt>
      <trkpt lat="42.5446700" lon="-6.5843020">
        <ele>535.1</ele>
        <time>2020-04-11T19:09:17Z</time>
      </trkpt>
      <trkpt lat="42.5446090" lon="-6.5846290">
        <ele>535.2</ele>
        <time>2020-04-11T19:09:19Z</time>
      </trkpt>
      <trkpt lat="42.5445850" lon="-6.5847910">
        <ele>535.1</ele>
        <time>2020-04-11T19:09:21Z</time>
      </trkpt>
      <trkpt lat="42.5445620" lon="-6.5849540">
        <ele>535.1</ele>
        <time>2020-04-11T19:09:23Z</time>
      </trkpt>
      <trkpt lat="42.5445390" lon="-6.5851160">
        <ele>535.1</ele>
        <time>2020-04-11T19:09:25Z</time>
      </trkpt>
      <trkpt lat="42.5445160" lon="-6.5852770">
        <ele>535.0</ele>
        <time>2020-04-11T19:09:27Z</time>
      </trkpt>
      <trkpt lat="42.5444580" lon="-6.5856770">
        <ele>534.9</ele>
        <time>2020-04-11T19:09:29Z</time>
      </trkpt>
      <trkpt lat="42.5444350" lon="-6.5858410">
        <ele>534.8</ele>
        <time>2020-04-11T19:09:31Z</time>
      </trkpt>
      <trkpt lat="42.5444110" lon="-6.5860020">
        <ele>534.8</ele>
        <time>2020-04-11T19:09:33Z</time>
      </trkpt>
      <trkpt lat="42.5443880" lon="-6.5861640">
        <ele>534.7</ele>
        <time>2020-04-11T19:09:35Z</time>
      </trkpt>
      <trkpt lat="42.5443290" lon="-6.5865640">
        <ele>534.6</ele>
        <time>2020-04-11T19:09:37Z</time>
      </trkpt>
      <trkpt lat="42.5443030" lon="-6.5868130">
        <ele>534.6</ele>
        <time>2020-04-11T19:09:39Z</time>
      </trkpt>
      <trkpt lat="42.5442550" lon="-6.5869680">
        <ele>534.7</ele>
        <time>2020-04-11T19:09:41Z</time>
      </trkpt>
      <trkpt lat="42.5441600" lon="-6.5871820">
        <ele>534.7</ele>
        <time>2020-04-11T19:09:43Z</time>
      </trkpt>
      <trkpt lat="42.5440820" lon="-6.5873150">
        <ele>534.6</ele>
        <time>2020-04-11T19:09:45Z</time>
      </trkpt>
      <trkpt lat="42.5440040" lon="-6.5874490">
        <ele>534.8</ele>
        <time>2020-04-11T19:09:47Z</time>
      </trkpt>
      <trkpt lat="42.5438400" lon="-6.5877210">
        <ele>534.9</ele>
        <time>2020-04-11T19:09:49Z</time>
      </trkpt>
      <trkpt lat="42.5437540" lon="-6.5878570">
        <ele>534.8</ele>
        <time>2020-04-11T19:09:51Z</time>
      </trkpt>
      <trkpt lat="42.5436660" lon="-6.5879970">
        <ele>534.7</ele>
        <time>2020-04-11T19:09:53Z</time>
      </trkpt>
      <trkpt lat="42.5434580" lon="-6.5883280">
        <ele>534.4</ele>
        <time>2020-04-11T19:09:55Z</time>
      </trkpt>
      <trkpt lat="42.5433660" lon="-6.5884740">
        <ele>534.2</ele>
        <time>2020-04-11T19:09:57Z</time>
      </trkpt>
      <trkpt lat="42.5432720" lon="-6.5886230">
        <ele>533.9</ele>
        <time>2020-04-11T19:09:59Z</time>
      </trkpt>
      <trkpt lat="42.5431760" lon="-6.5887750">
        <ele>533.7</ele>
        <time>2020-04-11T19:10:01Z</time>
      </trkpt>
      <trkpt lat="42.5429570" lon="-6.5891120">
        <ele>533.3</ele>
        <time>2020-04-11T19:10:03Z</time>
      </trkpt>
      <trkpt lat="42.5428650" lon="-6.5893510">
        <ele>532.8</ele>
        <time>2020-04-11T19:10:05Z</time>
      </trkpt>
      <trkpt lat="42.5428240" lon="-6.5895760">
        <ele>532.6</ele>
        <time>2020-04-11T19:10:07Z</time>
      </trkpt>
      <trkpt lat="42.5428160" lon="-6.5897690">
        <ele>532.5</ele>
        <time>2020-04-11T19:10:09Z</time>
      </trkpt>
      <trkpt lat="42.5428070" lon="-6.5899640">
        <ele>532.3</ele>
        <time>2020-04-11T19:10:11Z</time>
      </trkpt>
      <trkpt lat="42.5427900" lon="-6.5903930">
        <ele>531.9</ele>
        <time>2020-04-11T19:10:13Z</time>
      </trkpt>
      <trkpt lat="42.5427900" lon="-6.5905820">
        <ele>531.9</ele>
        <time>2020-04-11T19:10:15Z</time>
      </trkpt>
      <trkpt lat="42.5427900" lon="-6.5907650">
        <ele>531.9</ele>
        <time>2020-04-11T19:10:17Z</time>
      </trkpt>
      <trkpt lat="42.5427900" lon="-6.5911470">
        <ele>531.6</ele>
        <time>2020-04-11T19:10:19Z</time>
      </trkpt>
      <trkpt lat="42.5427900" lon="-6.5913200">
        <ele>531.5</ele>
        <time>2020-04-11T19:10:21Z</time>
      </trkpt>
      <trkpt lat="42.5427900" lon="-6.5914870">
        <ele>531.4</ele>
        <time>2020-04-11T19:10:23Z</time>
      </trkpt>
      <trkpt lat="42.5427900" lon="-6.5916520">
        <ele>531.4</ele>
        <time>2020-04-11T19:10:25Z</time>
      </trkpt>
      <trkpt lat="42.5428200" lon="-6.5920170">
        <ele>531.4</ele>
        <time>2020-04-11T19:10:27Z</time>
      </trkpt>
      <trkpt lat="42.5428620" lon="-6.5921920">
        <ele>531.4</ele>
        <time>2020-04-11T19:10:29Z</time>
      </trkpt>
      <trkpt lat="42.5429060" lon="-6.5923810">
        <ele>531.3</ele>
        <time>2020-04-11T19:10:31Z</time>
      </trkpt>
      <trkpt lat="42.5430100" lon="-6.5928280">
        <ele>531.1</ele>
        <time>2020-04-11T19:10:33Z</time>
      </trkpt>
      <trkpt lat="42.5429800" lon="-6.5931320">
        <ele>531.1</ele>
        <time>2020-04-11T19:10:35Z</time>
      </trkpt>
      <trkpt lat="42.5429770" lon="-6.5933720">
        <ele>531.1</ele>
        <time>2020-04-11T19:10:37Z</time>
      </trkpt>
      <trkpt lat="42.5429730" lon="-6.5936350">
        <ele>530.5</ele>
        <time>2020-04-11T19:10:39Z</time>
      </trkpt>
      <trkpt lat="42.5430000" lon="-6.5941140">
        <ele>528.6</ele>
        <time>2020-04-11T19:10:41Z</time>
      </trkpt>
      <trkpt lat="42.5431420" lon="-6.5944400">
        <ele>526.6</ele>
        <time>2020-04-11T19:10:43Z</time>
      </trkpt>
      <trkpt lat="42.5432970" lon="-6.5946670">
        <ele>524.2</ele>
        <time>2020-04-11T19:10:45Z</time>
      </trkpt>
      <trkpt lat="42.5435830" lon="-6.5950750">
        <ele>521.0</ele>
        <time>2020-04-11T19:10:47Z</time>
      </trkpt>
      <trkpt lat="42.5437380" lon="-6.5952820">
        <ele>519.3</ele>
        <time>2020-04-11T19:10:49Z</time>
      </trkpt>
      <trkpt lat="42.5440090" lon="-6.5956450">
        <ele>516.1</ele>
        <time>2020-04-11T19:10:51Z</time>
      </trkpt>
      <trkpt lat="42.5441420" lon="-6.5958240">
        <ele>515.1</ele>
        <time>2020-04-11T19:10:53Z</time>
      </trkpt>
      <trkpt lat="42.5442650" lon="-6.5959890">
        <ele>514.8</ele>
        <time>2020-04-11T19:10:55Z</time>
      </trkpt>
      <trkpt lat="42.5445070" lon="-6.5963180">
        <ele>514.6</ele>
        <time>2020-04-11T19:10:57Z</time>
      </trkpt>
      <trkpt lat="42.5446130" lon="-6.5964690">
        <ele>514.6</ele>
        <time>2020-04-11T19:10:59Z</time>
      </trkpt>
      <trkpt lat="42.5448050" lon="-6.5966520">
        <ele>514.8</ele>
        <time>2020-04-11T19:11:01Z</time>
      </trkpt>
      <trkpt lat="42.5449870" lon="-6.5966420">
        <ele>515.2</ele>
        <time>2020-04-11T19:11:03Z</time>
      </trkpt>
      <trkpt lat="42.5451000" lon="-6.5967900">
        <ele>515.3</ele>
        <time>2020-04-11T19:11:05Z</time>
      </trkpt>
      <trkpt lat="42.5452520" lon="-6.5969390">
        <ele>515.4</ele>
        <time>2020-04-11T19:11:07Z</time>
      </trkpt>
      <trkpt lat="42.5453740" lon="-6.5969890">
        <ele>515.5</ele>
        <time>2020-04-11T19:11:09Z</time>
      </trkpt>
      <trkpt lat="42.5454920" lon="-6.5970380">
        <ele>515.7</ele>
        <time>2020-04-11T19:11:11Z</time>
      </trkpt>
      <trkpt lat="42.5457450" lon="-6.5971410">
        <ele>515.9</ele>
        <time>2020-04-11T19:11:13Z</time>
      </trkpt>
      <trkpt lat="42.5458500" lon="-6.5971850">
        <ele>516.0</ele>
        <time>2020-04-11T19:11:15Z</time>
      </trkpt>
      <trkpt lat="42.5459450" lon="-6.5972230">
        <ele>516.0</ele>
        <time>2020-04-11T19:11:17Z</time>
      </trkpt>
      <trkpt lat="42.5460320" lon="-6.5972590">
        <ele>516.1</ele>
        <time>2020-04-11T19:11:19Z</time>
      </trkpt>
      <trkpt lat="42.5462490" lon="-6.5973490">
        <ele>516.1</ele>
        <time>2020-04-11T19:11:21Z</time>
      </trkpt>
      <trkpt lat="42.5463220" lon="-6.5973810">
        <ele>516.2</ele>
        <time>2020-04-11T19:11:23Z</time>
      </trkpt>
      <trkpt lat="42.5463900" lon="-6.5974110">
        <ele>516.3</ele>
        <time>2020-04-11T19:11:25Z</time>
      </trkpt>
      <trkpt lat="42.5464540" lon="-6.5974400">
        <ele>516.3</ele>
        <time>2020-04-11T19:11:27Z</time>
      </trkpt>
      <trkpt lat="42.5465140" lon="-6.5974670">
        <ele>516.4</ele>
        <time>2020-04-11T19:11:29Z</time>
      </trkpt>
      <trkpt lat="42.5465710" lon="-6.5974920">
        <ele>516.4</ele>
        <time>2020-04-11T19:11:31Z</time>
      </trkpt>
      <trkpt lat="42.5466270" lon="-6.5975170">
        <ele>516.5</ele>
        <time>2020-04-11T19:11:33Z</time>
      </trkpt>
      <trkpt lat="42.5466810" lon="-6.5975410">
        <ele>516.5</ele>
        <time>2020-04-11T19:11:35Z</time>
      </trkpt>
      <trkpt lat="42.5467330" lon="-6.5975640">
        <ele>516.6</ele>
        <time>2020-04-11T19:11:37Z</time>
      </trkpt>
      <trkpt lat="42.5467850" lon="-6.5975870">
        <ele>516.7</ele>
        <time>2020-04-11T19:11:39Z</time>
      </trkpt>
      <trkpt lat="42.5468360" lon="-6.5976100">
        <ele>516.7</ele>
        <time>2020-04-11T19:11:41Z</time>
      </trkpt>
      <trkpt lat="42.5471070" lon="-6.5977330">
        <ele>517.1</ele>
        <time>2020-04-11T19:11:43Z</time>
      </trkpt>
      <trkpt lat="42.5471690" lon="-6.5977630">
        <ele>517.1</ele>
        <time>2020-04-11T19:11:45Z</time>
      </trkpt>
      <trkpt lat="42.5472390" lon="-6.5977970">
        <ele>517.1</ele>
        <time>2020-04-11T19:11:47Z</time>
      </trkpt>
      <trkpt lat="42.5473150" lon="-6.5978340">
        <ele>517.1</ele>
        <time>2020-04-11T19:11:49Z</time>
      </trkpt>
      <trkpt lat="42.5473960" lon="-6.5978730">
        <ele>517.1</ele>
        <time>2020-04-11T19:11:51Z</time>
      </trkpt>
      <trkpt lat="42.5474800" lon="-6.5979140">
        <ele>517.2</ele>
        <time>2020-04-11T19:11:53Z</time>
      </trkpt>
      <trkpt lat="42.5475690" lon="-6.5979570">
        <ele>517.3</ele>
        <time>2020-04-11T19:11:55Z</time>
      </trkpt>
      <trkpt lat="42.5478490" lon="-6.5981080">
        <ele>517.5</ele>
        <time>2020-04-11T19:11:57Z</time>
      </trkpt>
      <trkpt lat="42.5479340" lon="-6.5980100">
        <ele>517.5</ele>
        <time>2020-04-11T19:11:59Z</time>
      </trkpt>
      <trkpt lat="42.5480610" lon="-6.5980220">
        <ele>517.8</ele>
        <time>2020-04-11T19:12:01Z</time>
      </trkpt>
      <trkpt lat="42.5481380" lon="-6.5981780">
        <ele>518.3</ele>
        <time>2020-04-11T19:12:03Z</time>
      </trkpt>
      <trkpt lat="42.5481000" lon="-6.5983400">
        <ele>518.3</ele>
        <time>2020-04-11T19:12:05Z</time>
      </trkpt>
      <trkpt lat="42.5480280" lon="-6.5984210">
        <ele>518.2</ele>
        <time>2020-04-11T19:12:07Z</time>
      </trkpt>
      <trkpt lat="42.5480570" lon="-6.5985320">
        <ele>518.3</ele>
        <time>2020-04-11T19:12:09Z</time>
      </trkpt>
      <trkpt lat="42.5480860" lon="-6.5986430">
        <ele>518.3</ele>
        <time>2020-04-11T19:12:11Z</time>
      </trkpt>
      <trkpt lat="42.5481140" lon="-6.5987510">
        <ele>518.3</ele>
        <time>2020-04-11T19:12:14Z</time>
      </trkpt>
      <trkpt lat="42.5481860" lon="-6.5990240">
        <ele>518.5</ele>
        <time>2020-04-11T19:12:16Z</time>
      </trkpt>
      <trkpt lat="42.5482140" lon="-6.5991300">
        <ele>518.5</ele>
        <time>2020-04-11T19:12:18Z</time>
      </trkpt>
      <trkpt lat="42.5482410" lon="-6.5992340">
        <ele>518.6</ele>
        <time>2020-04-11T19:12:20Z</time>
      </trkpt>
      <trkpt lat="42.5482680" lon="-6.5993370">
        <ele>518.6</ele>
        <time>2020-04-11T19:12:22Z</time>
      </trkpt>
      <trkpt lat="42.5483500" lon="-6.5996500">
        <ele>518.6</ele>
        <time>2020-04-11T19:12:24Z</time>
      </trkpt>
      <trkpt lat="42.5483500" lon="-6.5996500">
        <ele>518.6</ele>
        <time>2020-04-11T19:12:24Z</time>
      </trkpt>
      <trkpt lat="42.5483500" lon="-6.5996500">
        <ele>518.6</ele>
        <time>2020-04-11T19:12:26Z</time>
      </trkpt>
      <trkpt lat="42.5483500" lon="-6.5996500">
        <ele>518.6</ele>
        <time>2020-04-11T19:12:28Z</time>
      </trkpt>
      <trkpt lat="42.5483500" lon="-6.5996500">
        <ele>518.6</ele>
        <time>2020-04-11T19:12:30Z</time>
      </trkpt>
      <trkpt lat="42.5483500" lon="-6.5996500">
        <ele>518.6</ele>
        <time>2020-04-11T19:12:32Z</time>
      </trkpt>
      <trkpt lat="42.5483500" lon="-6.5996500">
        <ele>518.6</ele>
        <time>2020-04-11T19:12:34Z</time>
      </trkpt>
      <trkpt lat="42.5544900" lon="-6.6119700">
        <ele>520.2</ele>
        <time>2020-04-12T17:21:56Z</time>
      </trkpt>
      <trkpt lat="42.5544900" lon="-6.6119700">
        <ele>520.2</ele>
        <time>2020-04-12T17:21:58Z</time>
      </trkpt>
      <trkpt lat="42.5544900" lon="-6.6119700">
        <ele>520.2</ele>
        <time>2020-04-12T17:22:00Z</time>
      </trkpt>
      <trkpt lat="42.5544900" lon="-6.6119700">
        <ele>520.2</ele>
        <time>2020-04-12T17:22:02Z</time>
      </trkpt>
      <trkpt lat="42.5544900" lon="-6.6119700">
        <ele>520.2</ele>
        <time>2020-04-12T17:22:04Z</time>
      </trkpt>
      <trkpt lat="42.5544900" lon="-6.6119700">
        <ele>520.2</ele>
        <time>2020-04-12T17:22:06Z</time>
      </trkpt>
      <trkpt lat="42.5544900" lon="-6.6119700">
        <ele>520.2</ele>
        <time>2020-04-12T17:22:08Z</time>
      </trkpt>
      <trkpt lat="42.5544900" lon="-6.6119700">
        <ele>520.2</ele>
        <time>2020-04-12T17:22:10Z</time>
      </trkpt>
      <trkpt lat="42.5544900" lon="-6.6119700">
        <ele>520.2</ele>
        <time>2020-04-12T17:22:12Z</time>
      </trkpt>
      <trkpt lat="42.5544900" lon="-6.6119700">
        <ele>520.2</ele>
        <time>2020-04-12T17:22:14Z</time>
      </trkpt>
      <trkpt lat="42.5544900" lon="-6.6119700">
        <ele>520.2</ele>
        <time>2020-04-12T17:22:16Z</time>
      </trkpt>
      <trkpt lat="42.5544900" lon="-6.6119700">
        <ele>520.2</ele>
        <time>2020-04-12T17:22:18Z</time>
      </trkpt>
      <trkpt lat="42.5544900" lon="-6.6119700">
        <ele>520.2</ele>
        <time>2020-04-12T17:22:20Z</time>
      </trkpt>
      <trkpt lat="42.5544900" lon="-6.6119700">
        <ele>520.2</ele>
        <time>2020-04-12T17:22:22Z</time>
      </trkpt>
      <trkpt lat="42.5544900" lon="-6.6119700">
        <ele>520.2</ele>
        <time>2020-04-12T17:22:24Z</time>
      </trkpt>
      <trkpt lat="42.5544900" lon="-6.6119700">
        <ele>520.2</ele>
        <time>2020-04-12T17:22:26Z</time>
      </trkpt>
      <trkpt lat="42.5544900" lon="-6.6119700">
        <ele>520.2</ele>
        <time>2020-04-12T17:22:28Z</time>
      </trkpt>
      <trkpt lat="42.5544900" lon="-6.6119700">
        <ele>520.2</ele>
        <time>2020-04-12T17:22:30Z</time>
      </trkpt>
      <trkpt lat="42.5544900" lon="-6.6119700">
        <ele>520.2</ele>
        <time>2020-04-12T17:22:32Z</time>
      </trkpt>
      <trkpt lat="42.5544900" lon="-6.6119700">
        <ele>520.2</ele>
        <time>2020-04-12T17:22:34Z</time>
      </trkpt>
      <trkpt lat="42.5544900" lon="-6.6119700">
        <ele>520.2</ele>
        <time>2020-04-12T17:22:36Z</time>
      </trkpt>
      <trkpt lat="42.5544900" lon="-6.6119700">
        <ele>520.2</ele>
        <time>2020-04-12T17:22:38Z</time>
      </trkpt>
      <trkpt lat="42.5544900" lon="-6.6119700">
        <ele>520.2</ele>
        <time>2020-04-12T17:22:40Z</time>
      </trkpt>
      <trkpt lat="42.5544900" lon="-6.6119700">
        <ele>520.2</ele>
        <time>2020-04-12T17:22:42Z</time>
      </trkpt>
      <trkpt lat="42.5544900" lon="-6.6119700">
        <ele>520.2</ele>
        <time>2020-04-12T17:22:44Z</time>
      </trkpt>
      <trkpt lat="42.5544900" lon="-6.6119700">
        <ele>520.2</ele>
        <time>2020-04-12T17:22:46Z</time>
      </trkpt>
      <trkpt lat="42.5544900" lon="-6.6119700">
        <ele>520.2</ele>
        <time>2020-04-12T17:22:48Z</time>
      </trkpt>
      <trkpt lat="42.5544900" lon="-6.6119700">
        <ele>520.2</ele>
        <time>2020-04-12T17:22:50Z</time>
      </trkpt>
      <trkpt lat="42.5544900" lon="-6.6119700">
        <ele>520.2</ele>
        <time>2020-04-12T17:22:52Z</time>
      </trkpt>
      <trkpt lat="42.5544900" lon="-6.6119700">
        <ele>520.2</ele>
        <time>2020-04-12T17:22:54Z</time>
      </trkpt>
      <trkpt lat="42.5544900" lon="-6.6119700">
        <ele>520.2</ele>
        <time>2020-04-12T17:22:56Z</time>
      </trkpt>
      <trkpt lat="42.5544900" lon="-6.6119700">
        <ele>520.2</ele>
        <time>2020-04-12T17:22:58Z</time>
      </trkpt>
      <trkpt lat="42.5544900" lon="-6.6119700">
        <ele>520.2</ele>
        <time>2020-04-12T17:23:00Z</time>
      </trkpt>
      <trkpt lat="42.5544900" lon="-6.6119700">
        <ele>520.2</ele>
        <time>2020-04-12T17:23:02Z</time>
      </trkpt>
      <trkpt lat="42.5544900" lon="-6.6119700">
        <ele>520.2</ele>
        <time>2020-04-12T17:23:03Z</time>
      </trkpt>
      <trkpt lat="42.5544900" lon="-6.6119700">
        <ele>520.2</ele>
        <time>2020-04-12T17:23:03Z</time>
      </trkpt>
      <trkpt lat="42.5544900" lon="-6.6119700">
        <ele>520.2</ele>
        <time>2020-04-12T17:23:05Z</time>
      </trkpt>
      <trkpt lat="42.5545020" lon="-6.6119960">
        <ele>520.2</ele>
        <time>2020-04-12T17:23:07Z</time>
      </trkpt>
      <trkpt lat="42.5545290" lon="-6.6120540">
        <ele>520.2</ele>
        <time>2020-04-12T17:23:09Z</time>
      </trkpt>
      <trkpt lat="42.5545620" lon="-6.6121260">
        <ele>520.3</ele>
        <time>2020-04-12T17:23:11Z</time>
      </trkpt>
      <trkpt lat="42.5545990" lon="-6.6122060">
        <ele>520.3</ele>
        <time>2020-04-12T17:23:13Z</time>
      </trkpt>
      <trkpt lat="42.5546400" lon="-6.6122960">
        <ele>520.4</ele>
        <time>2020-04-12T17:23:15Z</time>
      </trkpt>
      <trkpt lat="42.5546860" lon="-6.6123960">
        <ele>520.4</ele>
        <time>2020-04-12T17:23:17Z</time>
      </trkpt>
      <trkpt lat="42.5547350" lon="-6.6125020">
        <ele>520.4</ele>
        <time>2020-04-12T17:23:19Z</time>
      </trkpt>
      <trkpt lat="42.5547850" lon="-6.6126120">
        <ele>520.4</ele>
        <time>2020-04-12T17:23:21Z</time>
      </trkpt>
      <trkpt lat="42.5549440" lon="-6.6129570">
        <ele>520.3</ele>
        <time>2020-04-12T17:23:23Z</time>
      </trkpt>
      <trkpt lat="42.5549970" lon="-6.6130720">
        <ele>520.3</ele>
        <time>2020-04-12T17:23:25Z</time>
      </trkpt>
      <trkpt lat="42.5550520" lon="-6.6131900">
        <ele>520.3</ele>
        <time>2020-04-12T17:23:27Z</time>
      </trkpt>
      <trkpt lat="42.5551070" lon="-6.6133100">
        <ele>520.3</ele>
        <time>2020-04-12T17:23:29Z</time>
      </trkpt>
      <trkpt lat="42.5551630" lon="-6.6134310">
        <ele>520.3</ele>
        <time>2020-04-12T17:23:31Z</time>
      </trkpt>
      <trkpt lat="42.5553480" lon="-6.6137360">
        <ele>520.3</ele>
        <time>2020-04-12T17:23:33Z</time>
      </trkpt>
      <trkpt lat="42.5554400" lon="-6.6138800">
        <ele>520.4</ele>
        <time>2020-04-12T17:23:35Z</time>
      </trkpt>
      <trkpt lat="42.5554220" lon="-6.6140390">
        <ele>520.5</ele>
        <time>2020-04-12T17:23:37Z</time>
      </trkpt>
      <trkpt lat="42.5554790" lon="-6.6141650">
        <ele>520.5</ele>
        <time>2020-04-12T17:23:39Z</time>
      </trkpt>
      <trkpt lat="42.5555360" lon="-6.6142930">
        <ele>520.6</ele>
        <time>2020-04-12T17:23:41Z</time>
      </trkpt>
      <trkpt lat="42.5555940" lon="-6.6144210">
        <ele>520.6</ele>
        <time>2020-04-12T17:23:43Z</time>
      </trkpt>
      <trkpt lat="42.5556520" lon="-6.6145500">
        <ele>520.6</ele>
        <time>2020-04-12T17:23:45Z</time>
      </trkpt>
      <trkpt lat="42.5558120" lon="-6.6149040">
        <ele>520.6</ele>
        <time>2020-04-12T17:23:47Z</time>
      </trkpt>
      <trkpt lat="42.5558710" lon="-6.6150350">
        <ele>520.7</ele>
        <time>2020-04-12T17:23:49Z</time>
      </trkpt>
      <trkpt lat="42.5559300" lon="-6.6151670">
        <ele>520.7</ele>
        <time>2020-04-12T17:23:51Z</time>
      </trkpt>
      <trkpt lat="42.5559900" lon="-6.6153000">
        <ele>520.7</ele>
        <time>2020-04-12T17:23:53Z</time>
      </trkpt>
      <trkpt lat="42.5560500" lon="-6.6154340">
        <ele>520.7</ele>
        <time>2020-04-12T17:23:55Z</time>
      </trkpt>
      <trkpt lat="42.5562540" lon="-6.6157830">
        <ele>520.8</ele>
        <time>2020-04-12T17:23:57Z</time>
      </trkpt>
      <trkpt lat="42.5563600" lon="-6.6159400">
        <ele>520.7</ele>
        <time>2020-04-12T17:23:59Z</time>
      </trkpt>
      <trkpt lat="42.5563710" lon="-6.6160990">
        <ele>520.5</ele>
        <time>2020-04-12T17:24:01Z</time>
      </trkpt>
      <trkpt lat="42.5564070" lon="-6.6163330">
        <ele>520.3</ele>
        <time>2020-04-12T17:24:03Z</time>
      </trkpt>
      <trkpt lat="42.5564770" lon="-6.6165440">
        <ele>520.3</ele>
        <time>2020-04-12T17:24:05Z</time>
      </trkpt>
      <trkpt lat="42.5565390" lon="-6.6166870">
        <ele>520.3</ele>
        <time>2020-04-12T17:24:07Z</time>
      </trkpt>
      <trkpt lat="42.5566010" lon="-6.6168300">
        <ele>520.3</ele>
        <time>2020-04-12T17:24:09Z</time>
      </trkpt>
      <trkpt lat="42.5567330" lon="-6.6171370">
        <ele>520.5</ele>
        <time>2020-04-12T17:24:11Z</time>
      </trkpt>
      <trkpt lat="42.5567950" lon="-6.6172810">
        <ele>520.5</ele>
        <time>2020-04-12T17:24:13Z</time>
      </trkpt>
      <trkpt lat="42.5568560" lon="-6.6174230">
        <ele>520.6</ele>
        <time>2020-04-12T17:24:15Z</time>
      </trkpt>
      <trkpt lat="42.5569880" lon="-6.6177280">
        <ele>520.7</ele>
        <time>2020-04-12T17:24:17Z</time>
      </trkpt>
      <trkpt lat="42.5570500" lon="-6.6178680">
        <ele>520.9</ele>
        <time>2020-04-12T17:24:19Z</time>
      </trkpt>
      <trkpt lat="42.5571120" lon="-6.6180090">
        <ele>521.0</ele>
        <time>2020-04-12T17:24:21Z</time>
      </trkpt>
      <trkpt lat="42.5571740" lon="-6.6181470">
        <ele>521.0</ele>
        <time>2020-04-12T17:24:23Z</time>
      </trkpt>
      <trkpt lat="42.5572360" lon="-6.6182870">
        <ele>520.9</ele>
        <time>2020-04-12T17:24:25Z</time>
      </trkpt>
      <trkpt lat="42.5573980" lon="-6.6186530">
        <ele>520.6</ele>
        <time>2020-04-12T17:24:27Z</time>
      </trkpt>
      <trkpt lat="42.5574590" lon="-6.6187900">
        <ele>520.5</ele>
        <time>2020-04-12T17:24:29Z</time>
      </trkpt>
      <trkpt lat="42.5575200" lon="-6.6189290">
        <ele>520.3</ele>
        <time>2020-04-12T17:24:31Z</time>
      </trkpt>
      <trkpt lat="42.5575820" lon="-6.6190670">
        <ele>520.2</ele>
        <time>2020-04-12T17:24:33Z</time>
      </trkpt>
      <trkpt lat="42.5576430" lon="-6.6192050">
        <ele>520.1</ele>
        <time>2020-04-12T17:24:35Z</time>
      </trkpt>
      <trkpt lat="42.5578040" lon="-6.6195690">
        <ele>519.7</ele>
        <time>2020-04-12T17:24:37Z</time>
      </trkpt>
      <trkpt lat="42.5578650" lon="-6.6197060">
        <ele>519.6</ele>
        <time>2020-04-12T17:24:39Z</time>
      </trkpt>
      <trkpt lat="42.5579260" lon="-6.6198430">
        <ele>519.6</ele>
        <time>2020-04-12T17:24:41Z</time>
      </trkpt>
      <trkpt lat="42.5579870" lon="-6.6199810">
        <ele>519.6</ele>
        <time>2020-04-12T17:24:43Z</time>
      </trkpt>
      <trkpt lat="42.5581490" lon="-6.6203450">
        <ele>519.6</ele>
        <time>2020-04-12T17:24:45Z</time>
      </trkpt>
      <trkpt lat="42.5582100" lon="-6.6204830">
        <ele>519.6</ele>
        <time>2020-04-12T17:24:47Z</time>
      </trkpt>
      <trkpt lat="42.5582710" lon="-6.6206210">
        <ele>519.6</ele>
        <time>2020-04-12T17:24:49Z</time>
      </trkpt>
      <trkpt lat="42.5583320" lon="-6.6207580">
        <ele>519.6</ele>
        <time>2020-04-12T17:24:51Z</time>
      </trkpt>
      <trkpt lat="42.5583940" lon="-6.6208980">
        <ele>519.7</ele>
        <time>2020-04-12T17:24:53Z</time>
      </trkpt>
      <trkpt lat="42.5585550" lon="-6.6212660">
        <ele>520.0</ele>
        <time>2020-04-12T17:24:55Z</time>
      </trkpt>
      <trkpt lat="42.5586160" lon="-6.6214080">
        <ele>520.2</ele>
        <time>2020-04-12T17:24:57Z</time>
      </trkpt>
      <trkpt lat="42.5586770" lon="-6.6215500">
        <ele>520.2</ele>
        <time>2020-04-12T17:24:59Z</time>
      </trkpt>
      <trkpt lat="42.5587380" lon="-6.6216930">
        <ele>520.3</ele>
        <time>2020-04-12T17:25:01Z</time>
      </trkpt>
      <trkpt lat="42.5588000" lon="-6.6218360">
        <ele>520.3</ele>
        <time>2020-04-12T17:25:03Z</time>
      </trkpt>
      <trkpt lat="42.5589810" lon="-6.6222540">
        <ele>520.3</ele>
        <time>2020-04-12T17:25:05Z</time>
      </trkpt>
      <trkpt lat="42.5590470" lon="-6.6223900">
        <ele>520.1</ele>
        <time>2020-04-12T17:25:07Z</time>
      </trkpt>
      <trkpt lat="42.5591110" lon="-6.6225240">
        <ele>520.0</ele>
        <time>2020-04-12T17:25:09Z</time>
      </trkpt>
      <trkpt lat="42.5592810" lon="-6.6227220">
        <ele>519.7</ele>
        <time>2020-04-12T17:25:11Z</time>
      </trkpt>
      <trkpt lat="42.5593000" lon="-6.6228840">
        <ele>519.6</ele>
        <time>2020-04-12T17:25:13Z</time>
      </trkpt>
      <trkpt lat="42.5593440" lon="-6.6230260">
        <ele>519.5</ele>
        <time>2020-04-12T17:25:15Z</time>
      </trkpt>
      <trkpt lat="42.5594000" lon="-6.6231540">
        <ele>519.5</ele>
        <time>2020-04-12T17:25:17Z</time>
      </trkpt>
      <trkpt lat="42.5594530" lon="-6.6232790">
        <ele>519.4</ele>
        <time>2020-04-12T17:25:19Z</time>
      </trkpt>
      <trkpt lat="42.5595070" lon="-6.6234040">
        <ele>519.4</ele>
        <time>2020-04-12T17:25:21Z</time>
      </trkpt>
      <trkpt lat="42.5596420" lon="-6.6237150">
        <ele>519.2</ele>
        <time>2020-04-12T17:25:23Z</time>
      </trkpt>
      <trkpt lat="42.5596990" lon="-6.6238480">
        <ele>519.1</ele>
        <time>2020-04-12T17:25:25Z</time>
      </trkpt>
      <trkpt lat="42.5597580" lon="-6.6239850">
        <ele>519.1</ele>
        <time>2020-04-12T17:25:27Z</time>
      </trkpt>
      <trkpt lat="42.5598990" lon="-6.6243130">
        <ele>519.0</ele>
        <time>2020-04-12T17:25:29Z</time>
      </trkpt>
      <trkpt lat="42.5599630" lon="-6.6244610">
        <ele>518.9</ele>
        <time>2020-04-12T17:25:31Z</time>
      </trkpt>
      <trkpt lat="42.5600290" lon="-6.6246130">
        <ele>518.9</ele>
        <time>2020-04-12T17:25:33Z</time>
      </trkpt>
      <trkpt lat="42.5600960" lon="-6.6247680">
        <ele>518.8</ele>
        <time>2020-04-12T17:25:35Z</time>
      </trkpt>
      <trkpt lat="42.5602440" lon="-6.6251100">
        <ele>518.7</ele>
        <time>2020-04-12T17:25:37Z</time>
      </trkpt>
      <trkpt lat="42.5603140" lon="-6.6252690">
        <ele>518.6</ele>
        <time>2020-04-12T17:25:39Z</time>
      </trkpt>
      <trkpt lat="42.5603840" lon="-6.6254260">
        <ele>518.5</ele>
        <time>2020-04-12T17:25:41Z</time>
      </trkpt>
      <trkpt lat="42.5604550" lon="-6.6255870">
        <ele>518.4</ele>
        <time>2020-04-12T17:25:43Z</time>
      </trkpt>
      <trkpt lat="42.5606280" lon="-6.6259770">
        <ele>518.2</ele>
        <time>2020-04-12T17:25:45Z</time>
      </trkpt>
      <trkpt lat="42.5606990" lon="-6.6261380">
        <ele>518.1</ele>
        <time>2020-04-12T17:25:47Z</time>
      </trkpt>
      <trkpt lat="42.5607710" lon="-6.6263000">
        <ele>518.0</ele>
        <time>2020-04-12T17:25:49Z</time>
      </trkpt>
      <trkpt lat="42.5608430" lon="-6.6264620">
        <ele>517.9</ele>
        <time>2020-04-12T17:25:51Z</time>
      </trkpt>
      <trkpt lat="42.5610170" lon="-6.6268560">
        <ele>517.7</ele>
        <time>2020-04-12T17:25:53Z</time>
      </trkpt>
      <trkpt lat="42.5610890" lon="-6.6270190">
        <ele>517.7</ele>
        <time>2020-04-12T17:25:55Z</time>
      </trkpt>
      <trkpt lat="42.5611630" lon="-6.6271860">
        <ele>517.6</ele>
        <time>2020-04-12T17:25:57Z</time>
      </trkpt>
      <trkpt lat="42.5612380" lon="-6.6273540">
        <ele>517.4</ele>
        <time>2020-04-12T17:25:59Z</time>
      </trkpt>
      <trkpt lat="42.5614140" lon="-6.6277510">
        <ele>516.9</ele>
        <time>2020-04-12T17:26:01Z</time>
      </trkpt>
      <trkpt lat="42.5614890" lon="-6.6279210">
        <ele>516.7</ele>
        <time>2020-04-12T17:26:03Z</time>
      </trkpt>
      <trkpt lat="42.5615640" lon="-6.6280920">
        <ele>516.6</ele>
        <time>2020-04-12T17:26:05Z</time>
      </trkpt>
      <trkpt lat="42.5616400" lon="-6.6282640">
        <ele>516.4</ele>
        <time>2020-04-12T17:26:07Z</time>
      </trkpt>
      <trkpt lat="42.5618180" lon="-6.6286640">
        <ele>516.2</ele>
        <time>2020-04-12T17:26:09Z</time>
      </trkpt>
      <trkpt lat="42.5618920" lon="-6.6288320">
        <ele>516.1</ele>
        <time>2020-04-12T17:26:11Z</time>
      </trkpt>
      <trkpt lat="42.5619650" lon="-6.6289970">
        <ele>516.0</ele>
        <time>2020-04-12T17:26:13Z</time>
      </trkpt>
      <trkpt lat="42.5621380" lon="-6.6293900">
        <ele>515.8</ele>
        <time>2020-04-12T17:26:15Z</time>
      </trkpt>
      <trkpt lat="42.5622060" lon="-6.6295570">
        <ele>515.8</ele>
        <time>2020-04-12T17:26:17Z</time>
      </trkpt>
      <trkpt lat="42.5623190" lon="-6.6298320">
        <ele>515.7</ele>
        <time>2020-04-12T17:26:19Z</time>
      </trkpt>
      <trkpt lat="42.5623920" lon="-6.6299940">
        <ele>515.6</ele>
        <time>2020-04-12T17:26:21Z</time>
      </trkpt>
      <trkpt lat="42.5624650" lon="-6.6301560">
        <ele>515.5</ele>
        <time>2020-04-12T17:26:23Z</time>
      </trkpt>
      <trkpt lat="42.5625380" lon="-6.6303170">
        <ele>515.5</ele>
        <time>2020-04-12T17:26:25Z</time>
      </trkpt>
      <trkpt lat="42.5627190" lon="-6.6307200">
        <ele>515.3</ele>
        <time>2020-04-12T17:26:27Z</time>
      </trkpt>
      <trkpt lat="42.5627920" lon="-6.6308810">
        <ele>515.2</ele>
        <time>2020-04-12T17:26:29Z</time>
      </trkpt>
      <trkpt lat="42.5628650" lon="-6.6310420">
        <ele>515.1</ele>
        <time>2020-04-12T17:26:31Z</time>
      </trkpt>
      <trkpt lat="42.5629380" lon="-6.6312040">
        <ele>514.9</ele>
        <time>2020-04-12T17:26:33Z</time>
      </trkpt>
      <trkpt lat="42.5630110" lon="-6.6313660">
        <ele>514.8</ele>
        <time>2020-04-12T17:26:35Z</time>
      </trkpt>
      <trkpt lat="42.5631920" lon="-6.6317680">
        <ele>514.7</ele>
        <time>2020-04-12T17:26:37Z</time>
      </trkpt>
      <trkpt lat="42.5632620" lon="-6.6319230">
        <ele>514.6</ele>
        <time>2020-04-12T17:26:39Z</time>
      </trkpt>
      <trkpt lat="42.5633310" lon="-6.6320760">
        <ele>514.5</ele>
        <time>2020-04-12T17:26:41Z</time>
      </trkpt>
      <trkpt lat="42.5633980" lon="-6.6322260">
        <ele>514.4</ele>
        <time>2020-04-12T17:26:43Z</time>
      </trkpt>
      <trkpt lat="42.5635740" lon="-6.6326180">
        <ele>514.3</ele>
        <time>2020-04-12T17:26:45Z</time>
      </trkpt>
      <trkpt lat="42.5636410" lon="-6.6327690">
        <ele>514.3</ele>
        <time>2020-04-12T17:26:47Z</time>
      </trkpt>
      <trkpt lat="42.5637060" lon="-6.6329200">
        <ele>514.3</ele>
        <time>2020-04-12T17:26:49Z</time>
      </trkpt>
      <trkpt lat="42.5637720" lon="-6.6330690">
        <ele>514.3</ele>
        <time>2020-04-12T17:26:51Z</time>
      </trkpt>
      <trkpt lat="42.5638380" lon="-6.6332200">
        <ele>514.2</ele>
        <time>2020-04-12T17:26:53Z</time>
      </trkpt>
      <trkpt lat="42.5640230" lon="-6.6336430">
        <ele>514.0</ele>
        <time>2020-04-12T17:26:55Z</time>
      </trkpt>
      <trkpt lat="42.5640900" lon="-6.6337950">
        <ele>513.9</ele>
        <time>2020-04-12T17:26:57Z</time>
      </trkpt>
      <trkpt lat="42.5641580" lon="-6.6339510">
        <ele>513.6</ele>
        <time>2020-04-12T17:26:59Z</time>
      </trkpt>
      <trkpt lat="42.5642280" lon="-6.6341100">
        <ele>513.3</ele>
        <time>2020-04-12T17:27:01Z</time>
      </trkpt>
      <trkpt lat="42.5642980" lon="-6.6342710">
        <ele>513.0</ele>
        <time>2020-04-12T17:27:03Z</time>
      </trkpt>
      <trkpt lat="42.5644880" lon="-6.6347050">
        <ele>512.1</ele>
        <time>2020-04-12T17:27:05Z</time>
      </trkpt>
      <trkpt lat="42.5645600" lon="-6.6348700">
        <ele>511.9</ele>
        <time>2020-04-12T17:27:07Z</time>
      </trkpt>
      <trkpt lat="42.5646330" lon="-6.6350360">
        <ele>511.8</ele>
        <time>2020-04-12T17:27:09Z</time>
      </trkpt>
      <trkpt lat="42.5647070" lon="-6.6352040">
        <ele>511.8</ele>
        <time>2020-04-12T17:27:11Z</time>
      </trkpt>
      <trkpt lat="42.5649000" lon="-6.6356450">
        <ele>511.7</ele>
        <time>2020-04-12T17:27:13Z</time>
      </trkpt>
      <trkpt lat="42.5649730" lon="-6.6358110">
        <ele>511.7</ele>
        <time>2020-04-12T17:27:15Z</time>
      </trkpt>
      <trkpt lat="42.5650430" lon="-6.6359720">
        <ele>511.6</ele>
        <time>2020-04-12T17:27:17Z</time>
      </trkpt>
      <trkpt lat="42.5651110" lon="-6.6361270">
        <ele>511.5</ele>
        <time>2020-04-12T17:27:19Z</time>
      </trkpt>
      <trkpt lat="42.5651770" lon="-6.6362770">
        <ele>511.4</ele>
        <time>2020-04-12T17:27:21Z</time>
      </trkpt>
      <trkpt lat="42.5653600" lon="-6.6366960">
        <ele>511.4</ele>
        <time>2020-04-12T17:27:23Z</time>
      </trkpt>
      <trkpt lat="42.5654230" lon="-6.6368390">
        <ele>511.4</ele>
        <time>2020-04-12T17:27:25Z</time>
      </trkpt>
      <trkpt lat="42.5654850" lon="-6.6369800">
        <ele>511.3</ele>
        <time>2020-04-12T17:27:27Z</time>
      </trkpt>
      <trkpt lat="42.5655450" lon="-6.6371180">
        <ele>511.3</ele>
        <time>2020-04-12T17:27:29Z</time>
      </trkpt>
      <trkpt lat="42.5656050" lon="-6.6372540">
        <ele>511.3</ele>
        <time>2020-04-12T17:27:31Z</time>
      </trkpt>
      <trkpt lat="42.5656630" lon="-6.6373880">
        <ele>511.2</ele>
        <time>2020-04-12T17:27:33Z</time>
      </trkpt>
      <trkpt lat="42.5658410" lon="-6.6377920">
        <ele>511.0</ele>
        <time>2020-04-12T17:27:35Z</time>
      </trkpt>
      <trkpt lat="42.5659030" lon="-6.6379310">
        <ele>510.9</ele>
        <time>2020-04-12T17:27:37Z</time>
      </trkpt>
      <trkpt lat="42.5659680" lon="-6.6380760">
        <ele>510.9</ele>
        <time>2020-04-12T17:27:39Z</time>
      </trkpt>
      <trkpt lat="42.5660360" lon="-6.6382270">
        <ele>511.0</ele>
        <time>2020-04-12T17:27:41Z</time>
      </trkpt>
      <trkpt lat="42.5662130" lon="-6.6386240">
        <ele>511.0</ele>
        <time>2020-04-12T17:27:43Z</time>
      </trkpt>
      <trkpt lat="42.5662840" lon="-6.6387840">
        <ele>510.9</ele>
        <time>2020-04-12T17:27:45Z</time>
      </trkpt>
      <trkpt lat="42.5663570" lon="-6.6389470">
        <ele>510.8</ele>
        <time>2020-04-12T17:27:47Z</time>
      </trkpt>
      <trkpt lat="42.5664310" lon="-6.6391130">
        <ele>510.8</ele>
        <time>2020-04-12T17:27:49Z</time>
      </trkpt>
      <trkpt lat="42.5665070" lon="-6.6392820">
        <ele>510.7</ele>
        <time>2020-04-12T17:27:51Z</time>
      </trkpt>
      <trkpt lat="42.5666920" lon="-6.6396950">
        <ele>510.3</ele>
        <time>2020-04-12T17:27:53Z</time>
      </trkpt>
      <trkpt lat="42.5667680" lon="-6.6398660">
        <ele>510.2</ele>
        <time>2020-04-12T17:27:55Z</time>
      </trkpt>
      <trkpt lat="42.5668450" lon="-6.6400380">
        <ele>510.1</ele>
        <time>2020-04-12T17:27:57Z</time>
      </trkpt>
      <trkpt lat="42.5669210" lon="-6.6402090">
        <ele>510.0</ele>
        <time>2020-04-12T17:27:59Z</time>
      </trkpt>
      <trkpt lat="42.5671060" lon="-6.6406230">
        <ele>509.4</ele>
        <time>2020-04-12T17:28:01Z</time>
      </trkpt>
      <trkpt lat="42.5671820" lon="-6.6407930">
        <ele>509.1</ele>
        <time>2020-04-12T17:28:03Z</time>
      </trkpt>
      <trkpt lat="42.5672590" lon="-6.6409640">
        <ele>508.8</ele>
        <time>2020-04-12T17:28:05Z</time>
      </trkpt>
      <trkpt lat="42.5674430" lon="-6.6413780">
        <ele>508.5</ele>
        <time>2020-04-12T17:28:07Z</time>
      </trkpt>
      <trkpt lat="42.5675140" lon="-6.6415540">
        <ele>508.4</ele>
        <time>2020-04-12T17:28:09Z</time>
      </trkpt>
      <trkpt lat="42.5675840" lon="-6.6417300">
        <ele>508.3</ele>
        <time>2020-04-12T17:28:11Z</time>
      </trkpt>
      <trkpt lat="42.5677170" lon="-6.6420490">
        <ele>508.2</ele>
        <time>2020-04-12T17:28:13Z</time>
      </trkpt>
      <trkpt lat="42.5677920" lon="-6.6422210">
        <ele>508.1</ele>
        <time>2020-04-12T17:28:15Z</time>
      </trkpt>
      <trkpt lat="42.5678680" lon="-6.6423920">
        <ele>507.9</ele>
        <time>2020-04-12T17:28:17Z</time>
      </trkpt>
      <trkpt lat="42.5680400" lon="-6.6427850">
        <ele>507.4</ele>
        <time>2020-04-12T17:28:19Z</time>
      </trkpt>
      <trkpt lat="42.5681150" lon="-6.6429550">
        <ele>507.1</ele>
        <time>2020-04-12T17:28:21Z</time>
      </trkpt>
      <trkpt lat="42.5681890" lon="-6.6431210">
        <ele>506.9</ele>
        <time>2020-04-12T17:28:23Z</time>
      </trkpt>
      <trkpt lat="42.5682610" lon="-6.6432860">
        <ele>506.8</ele>
        <time>2020-04-12T17:28:25Z</time>
      </trkpt>
      <trkpt lat="42.5684300" lon="-6.6436690">
        <ele>506.7</ele>
        <time>2020-04-12T17:28:27Z</time>
      </trkpt>
      <trkpt lat="42.5685010" lon="-6.6438320">
        <ele>506.7</ele>
        <time>2020-04-12T17:28:29Z</time>
      </trkpt>
      <trkpt lat="42.5685720" lon="-6.6439940">
        <ele>506.6</ele>
        <time>2020-04-12T17:28:31Z</time>
      </trkpt>
      <trkpt lat="42.5686440" lon="-6.6441560">
        <ele>506.5</ele>
        <time>2020-04-12T17:28:33Z</time>
      </trkpt>
      <trkpt lat="42.5688120" lon="-6.6445350">
        <ele>506.4</ele>
        <time>2020-04-12T17:28:35Z</time>
      </trkpt>
      <trkpt lat="42.5688830" lon="-6.6446910">
        <ele>506.4</ele>
        <time>2020-04-12T17:28:37Z</time>
      </trkpt>
      <trkpt lat="42.5689530" lon="-6.6448440">
        <ele>506.4</ele>
        <time>2020-04-12T17:28:39Z</time>
      </trkpt>
      <trkpt lat="42.5690230" lon="-6.6449970">
        <ele>506.4</ele>
        <time>2020-04-12T17:28:41Z</time>
      </trkpt>
      <trkpt lat="42.5692020" lon="-6.6453880">
        <ele>506.2</ele>
        <time>2020-04-12T17:28:43Z</time>
      </trkpt>
      <trkpt lat="42.5692700" lon="-6.6455380">
        <ele>506.0</ele>
        <time>2020-04-12T17:28:45Z</time>
      </trkpt>
      <trkpt lat="42.5693380" lon="-6.6456880">
        <ele>505.9</ele>
        <time>2020-04-12T17:28:47Z</time>
      </trkpt>
      <trkpt lat="42.5694070" lon="-6.6458390">
        <ele>505.8</ele>
        <time>2020-04-12T17:28:49Z</time>
      </trkpt>
      <trkpt lat="42.5694750" lon="-6.6459890">
        <ele>505.7</ele>
        <time>2020-04-12T17:28:51Z</time>
      </trkpt>
      <trkpt lat="42.5696220" lon="-6.6464070">
        <ele>505.6</ele>
        <time>2020-04-12T17:28:53Z</time>
      </trkpt>
      <trkpt lat="42.5696940" lon="-6.6465580">
        <ele>505.4</ele>
        <time>2020-04-12T17:28:55Z</time>
      </trkpt>
      <trkpt lat="42.5697680" lon="-6.6467120">
        <ele>505.3</ele>
        <time>2020-04-12T17:28:57Z</time>
      </trkpt>
      <trkpt lat="42.5698420" lon="-6.6468660">
        <ele>505.0</ele>
        <time>2020-04-12T17:28:59Z</time>
      </trkpt>
      <trkpt lat="42.5700340" lon="-6.6472670">
        <ele>504.3</ele>
        <time>2020-04-12T17:29:01Z</time>
      </trkpt>
      <trkpt lat="42.5701060" lon="-6.6474290">
        <ele>504.3</ele>
        <time>2020-04-12T17:29:03Z</time>
      </trkpt>
      <trkpt lat="42.5701790" lon="-6.6475920">
        <ele>504.1</ele>
        <time>2020-04-12T17:29:05Z</time>
      </trkpt>
      <trkpt lat="42.5702510" lon="-6.6477550">
        <ele>503.9</ele>
        <time>2020-04-12T17:29:07Z</time>
      </trkpt>
      <trkpt lat="42.5704320" lon="-6.6481590">
        <ele>503.2</ele>
        <time>2020-04-12T17:29:09Z</time>
      </trkpt>
      <trkpt lat="42.5705060" lon="-6.6483250">
        <ele>503.1</ele>
        <time>2020-04-12T17:29:11Z</time>
      </trkpt>
      <trkpt lat="42.5705800" lon="-6.6484920">
        <ele>502.9</ele>
        <time>2020-04-12T17:29:13Z</time>
      </trkpt>
      <trkpt lat="42.5706540" lon="-6.6486580">
        <ele>502.8</ele>
        <time>2020-04-12T17:29:15Z</time>
      </trkpt>
      <trkpt lat="42.5708360" lon="-6.6490650">
        <ele>502.4</ele>
        <time>2020-04-12T17:29:17Z</time>
      </trkpt>
      <trkpt lat="42.5709110" lon="-6.6492330">
        <ele>502.2</ele>
        <time>2020-04-12T17:29:19Z</time>
      </trkpt>
      <trkpt lat="42.5709860" lon="-6.6494000">
        <ele>502.1</ele>
        <time>2020-04-12T17:29:21Z</time>
      </trkpt>
      <trkpt lat="42.5710610" lon="-6.6495700">
        <ele>501.9</ele>
        <time>2020-04-12T17:29:23Z</time>
      </trkpt>
      <trkpt lat="42.5712440" lon="-6.6499780">
        <ele>501.7</ele>
        <time>2020-04-12T17:29:25Z</time>
      </trkpt>
      <trkpt lat="42.5713150" lon="-6.6501460">
        <ele>501.7</ele>
        <time>2020-04-12T17:29:27Z</time>
      </trkpt>
      <trkpt lat="42.5713830" lon="-6.6503050">
        <ele>501.8</ele>
        <time>2020-04-12T17:29:29Z</time>
      </trkpt>
      <trkpt lat="42.5714500" lon="-6.6504600">
        <ele>501.8</ele>
        <time>2020-04-12T17:29:31Z</time>
      </trkpt>
      <trkpt lat="42.5715150" lon="-6.6506120">
        <ele>501.8</ele>
        <time>2020-04-12T17:29:33Z</time>
      </trkpt>
      <trkpt lat="42.5716820" lon="-6.6510020">
        <ele>501.5</ele>
        <time>2020-04-12T17:29:35Z</time>
      </trkpt>
      <trkpt lat="42.5717450" lon="-6.6511490">
        <ele>501.5</ele>
        <time>2020-04-12T17:29:37Z</time>
      </trkpt>
      <trkpt lat="42.5718090" lon="-6.6512980">
        <ele>501.4</ele>
        <time>2020-04-12T17:29:39Z</time>
      </trkpt>
      <trkpt lat="42.5718720" lon="-6.6514460">
        <ele>501.3</ele>
        <time>2020-04-12T17:29:41Z</time>
      </trkpt>
      <trkpt lat="42.5720380" lon="-6.6518320">
        <ele>501.3</ele>
        <time>2020-04-12T17:29:43Z</time>
      </trkpt>
      <trkpt lat="42.5721040" lon="-6.6519800">
        <ele>501.2</ele>
        <time>2020-04-12T17:29:45Z</time>
      </trkpt>
      <trkpt lat="42.5721710" lon="-6.6521310">
        <ele>501.1</ele>
        <time>2020-04-12T17:29:47Z</time>
      </trkpt>
      <trkpt lat="42.5722380" lon="-6.6522820">
        <ele>500.9</ele>
        <time>2020-04-12T17:29:49Z</time>
      </trkpt>
      <trkpt lat="42.5723040" lon="-6.6524330">
        <ele>500.8</ele>
        <time>2020-04-12T17:29:51Z</time>
      </trkpt>
      <trkpt lat="42.5724920" lon="-6.6528570">
        <ele>500.7</ele>
        <time>2020-04-12T17:29:53Z</time>
      </trkpt>
      <trkpt lat="42.5725600" lon="-6.6530120">
        <ele>500.6</ele>
        <time>2020-04-12T17:29:55Z</time>
      </trkpt>
      <trkpt lat="42.5726290" lon="-6.6531680">
        <ele>500.4</ele>
        <time>2020-04-12T17:29:57Z</time>
      </trkpt>
      <trkpt lat="42.5726980" lon="-6.6533230">
        <ele>500.3</ele>
        <time>2020-04-12T17:29:59Z</time>
      </trkpt>
      <trkpt lat="42.5727670" lon="-6.6534800">
        <ele>500.2</ele>
        <time>2020-04-12T17:30:01Z</time>
      </trkpt>
      <trkpt lat="42.5729560" lon="-6.6539080">
        <ele>500.1</ele>
        <time>2020-04-12T17:30:03Z</time>
      </trkpt>
      <trkpt lat="42.5730260" lon="-6.6540660">
        <ele>500.0</ele>
        <time>2020-04-12T17:30:05Z</time>
      </trkpt>
      <trkpt lat="42.5730960" lon="-6.6542250">
        <ele>500.0</ele>
        <time>2020-04-12T17:30:07Z</time>
      </trkpt>
      <trkpt lat="42.5731670" lon="-6.6543840">
        <ele>499.9</ele>
        <time>2020-04-12T17:30:09Z</time>
      </trkpt>
      <trkpt lat="42.5732380" lon="-6.6545450">
        <ele>499.8</ele>
        <time>2020-04-12T17:30:11Z</time>
      </trkpt>
      <trkpt lat="42.5734280" lon="-6.6549740">
        <ele>499.4</ele>
        <time>2020-04-12T17:30:13Z</time>
      </trkpt>
      <trkpt lat="42.5734990" lon="-6.6551360">
        <ele>499.3</ele>
        <time>2020-04-12T17:30:15Z</time>
      </trkpt>
      <trkpt lat="42.5735700" lon="-6.6552970">
        <ele>499.2</ele>
        <time>2020-04-12T17:30:17Z</time>
      </trkpt>
      <trkpt lat="42.5736410" lon="-6.6554580">
        <ele>499.1</ele>
        <time>2020-04-12T17:30:19Z</time>
      </trkpt>
      <trkpt lat="42.5737130" lon="-6.6556200">
        <ele>499.0</ele>
        <time>2020-04-12T17:30:21Z</time>
      </trkpt>
      <trkpt lat="42.5739050" lon="-6.6560530">
        <ele>498.8</ele>
        <time>2020-04-12T17:30:23Z</time>
      </trkpt>
      <trkpt lat="42.5739770" lon="-6.6562160">
        <ele>498.6</ele>
        <time>2020-04-12T17:30:25Z</time>
      </trkpt>
      <trkpt lat="42.5740480" lon="-6.6563780">
        <ele>498.3</ele>
        <time>2020-04-12T17:30:27Z</time>
      </trkpt>
      <trkpt lat="42.5741210" lon="-6.6565420">
        <ele>498.1</ele>
        <time>2020-04-12T17:30:29Z</time>
      </trkpt>
      <trkpt lat="42.5743130" lon="-6.6569760">
        <ele>498.0</ele>
        <time>2020-04-12T17:30:31Z</time>
      </trkpt>
      <trkpt lat="42.5743840" lon="-6.6571390">
        <ele>498.0</ele>
        <time>2020-04-12T17:30:33Z</time>
      </trkpt>
      <trkpt lat="42.5744550" lon="-6.6572990">
        <ele>498.0</ele>
        <time>2020-04-12T17:30:35Z</time>
      </trkpt>
      <trkpt lat="42.5745250" lon="-6.6574580">
        <ele>497.9</ele>
        <time>2020-04-12T17:30:37Z</time>
      </trkpt>
      <trkpt lat="42.5745940" lon="-6.6576140">
        <ele>498.0</ele>
        <time>2020-04-12T17:30:39Z</time>
      </trkpt>
      <trkpt lat="42.5747830" lon="-6.6580400">
        <ele>498.0</ele>
        <time>2020-04-12T17:30:41Z</time>
      </trkpt>
      <trkpt lat="42.5748510" lon="-6.6581940">
        <ele>498.1</ele>
        <time>2020-04-12T17:30:43Z</time>
      </trkpt>
      <trkpt lat="42.5749190" lon="-6.6583480">
        <ele>498.1</ele>
        <time>2020-04-12T17:30:45Z</time>
      </trkpt>
      <trkpt lat="42.5749860" lon="-6.6584990">
        <ele>498.1</ele>
        <time>2020-04-12T17:30:47Z</time>
      </trkpt>
      <trkpt lat="42.5750530" lon="-6.6586510">
        <ele>498.1</ele>
        <time>2020-04-12T17:30:49Z</time>
      </trkpt>
      <trkpt lat="42.5752390" lon="-6.6590730">
        <ele>498.1</ele>
        <time>2020-04-12T17:30:51Z</time>
      </trkpt>
      <trkpt lat="42.5753060" lon="-6.6592240">
        <ele>498.1</ele>
        <time>2020-04-12T17:30:53Z</time>
      </trkpt>
      <trkpt lat="42.5753740" lon="-6.6593770">
        <ele>498.2</ele>
        <time>2020-04-12T17:30:55Z</time>
      </trkpt>
      <trkpt lat="42.5754420" lon="-6.6595310">
        <ele>498.3</ele>
        <time>2020-04-12T17:30:57Z</time>
      </trkpt>
      <trkpt lat="42.5755100" lon="-6.6596860">
        <ele>498.3</ele>
        <time>2020-04-12T17:30:59Z</time>
      </trkpt>
      <trkpt lat="42.5756980" lon="-6.6601110">
        <ele>498.0</ele>
        <time>2020-04-12T17:31:01Z</time>
      </trkpt>
      <trkpt lat="42.5757670" lon="-6.6602670">
        <ele>497.9</ele>
        <time>2020-04-12T17:31:03Z</time>
      </trkpt>
      <trkpt lat="42.5758370" lon="-6.6604240">
        <ele>497.6</ele>
        <time>2020-04-12T17:31:05Z</time>
      </trkpt>
      <trkpt lat="42.5759060" lon="-6.6605820">
        <ele>497.3</ele>
        <time>2020-04-12T17:31:07Z</time>
      </trkpt>
      <trkpt lat="42.5759760" lon="-6.6607390">
        <ele>497.1</ele>
        <time>2020-04-12T17:31:09Z</time>
      </trkpt>
      <trkpt lat="42.5761640" lon="-6.6611710">
        <ele>496.7</ele>
        <time>2020-04-12T17:31:11Z</time>
      </trkpt>
      <trkpt lat="42.5762320" lon="-6.6613340">
        <ele>496.6</ele>
        <time>2020-04-12T17:31:13Z</time>
      </trkpt>
      <trkpt lat="42.5763010" lon="-6.6614980">
        <ele>496.4</ele>
        <time>2020-04-12T17:31:15Z</time>
      </trkpt>
      <trkpt lat="42.5764490" lon="-6.6618490">
        <ele>495.8</ele>
        <time>2020-04-12T17:31:17Z</time>
      </trkpt>
      <trkpt lat="42.5765200" lon="-6.6620170">
        <ele>495.7</ele>
        <time>2020-04-12T17:31:19Z</time>
      </trkpt>
      <trkpt lat="42.5765920" lon="-6.6621870">
        <ele>495.6</ele>
        <time>2020-04-12T17:31:21Z</time>
      </trkpt>
      <trkpt lat="42.5767360" lon="-6.6625440">
        <ele>495.2</ele>
        <time>2020-04-12T17:31:23Z</time>
      </trkpt>
      <trkpt lat="42.5768010" lon="-6.6627230">
        <ele>495.1</ele>
        <time>2020-04-12T17:31:25Z</time>
      </trkpt>
      <trkpt lat="42.5768680" lon="-6.6629030">
        <ele>494.9</ele>
        <time>2020-04-12T17:31:27Z</time>
      </trkpt>
      <trkpt lat="42.5770130" lon="-6.6632990">
        <ele>494.1</ele>
        <time>2020-04-12T17:31:29Z</time>
      </trkpt>
      <trkpt lat="42.5770810" lon="-6.6634820">
        <ele>493.9</ele>
        <time>2020-04-12T17:31:31Z</time>
      </trkpt>
      <trkpt lat="42.5771490" lon="-6.6636670">
        <ele>493.8</ele>
        <time>2020-04-12T17:31:33Z</time>
      </trkpt>
      <trkpt lat="42.5772960" lon="-6.6640660">
        <ele>493.8</ele>
        <time>2020-04-12T17:31:35Z</time>
      </trkpt>
      <trkpt lat="42.5773610" lon="-6.6642480">
        <ele>493.7</ele>
        <time>2020-04-12T17:31:37Z</time>
      </trkpt>
      <trkpt lat="42.5774240" lon="-6.6644230">
        <ele>493.6</ele>
        <time>2020-04-12T17:31:39Z</time>
      </trkpt>
      <trkpt lat="42.5774830" lon="-6.6645900">
        <ele>493.4</ele>
        <time>2020-04-12T17:31:41Z</time>
      </trkpt>
      <trkpt lat="42.5776310" lon="-6.6650030">
        <ele>492.9</ele>
        <time>2020-04-12T17:31:43Z</time>
      </trkpt>
      <trkpt lat="42.5776870" lon="-6.6651600">
        <ele>492.7</ele>
        <time>2020-04-12T17:31:45Z</time>
      </trkpt>
      <trkpt lat="42.5777420" lon="-6.6653130">
        <ele>492.7</ele>
        <time>2020-04-12T17:31:47Z</time>
      </trkpt>
      <trkpt lat="42.5777950" lon="-6.6654600">
        <ele>492.7</ele>
        <time>2020-04-12T17:31:49Z</time>
      </trkpt>
      <trkpt lat="42.5778460" lon="-6.6656050">
        <ele>492.8</ele>
        <time>2020-04-12T17:31:51Z</time>
      </trkpt>
      <trkpt lat="42.5779930" lon="-6.6659930">
        <ele>492.9</ele>
        <time>2020-04-12T17:31:53Z</time>
      </trkpt>
      <trkpt lat="42.5780630" lon="-6.6661260">
        <ele>492.9</ele>
        <time>2020-04-12T17:31:55Z</time>
      </trkpt>
      <trkpt lat="42.5781900" lon="-6.6663560">
        <ele>492.9</ele>
        <time>2020-04-12T17:31:57Z</time>
      </trkpt>
      <trkpt lat="42.5782770" lon="-6.6664890">
        <ele>493.0</ele>
        <time>2020-04-12T17:31:59Z</time>
      </trkpt>
      <trkpt lat="42.5784150" lon="-6.6667070">
        <ele>493.0</ele>
        <time>2020-04-12T17:32:01Z</time>
      </trkpt>
      <trkpt lat="42.5785040" lon="-6.6668520">
        <ele>493.0</ele>
        <time>2020-04-12T17:32:03Z</time>
      </trkpt>
      <trkpt lat="42.5786820" lon="-6.6670580">
        <ele>492.9</ele>
        <time>2020-04-12T17:32:05Z</time>
      </trkpt>
      <trkpt lat="42.5788740" lon="-6.6670670">
        <ele>492.8</ele>
        <time>2020-04-12T17:32:07Z</time>
      </trkpt>
      <trkpt lat="42.5789310" lon="-6.6673010">
        <ele>492.4</ele>
        <time>2020-04-12T17:32:09Z</time>
      </trkpt>
      <trkpt lat="42.5789630" lon="-6.6674930">
        <ele>492.2</ele>
        <time>2020-04-12T17:32:11Z</time>
      </trkpt>
      <trkpt lat="42.5790910" lon="-6.6677060">
        <ele>491.9</ele>
        <time>2020-04-12T17:32:13Z</time>
      </trkpt>
      <trkpt lat="42.5791700" lon="-6.6678720">
        <ele>491.9</ele>
        <time>2020-04-12T17:32:15Z</time>
      </trkpt>
      <trkpt lat="42.5792480" lon="-6.6680360">
        <ele>491.8</ele>
        <time>2020-04-12T17:32:17Z</time>
      </trkpt>
      <trkpt lat="42.5794060" lon="-6.6683750">
        <ele>491.8</ele>
        <time>2020-04-12T17:32:19Z</time>
      </trkpt>
      <trkpt lat="42.5794800" lon="-6.6685400">
        <ele>492.0</ele>
        <time>2020-04-12T17:32:21Z</time>
      </trkpt>
      <trkpt lat="42.5795520" lon="-6.6687020">
        <ele>492.1</ele>
        <time>2020-04-12T17:32:23Z</time>
      </trkpt>
      <trkpt lat="42.5796220" lon="-6.6688620">
        <ele>492.1</ele>
        <time>2020-04-12T17:32:25Z</time>
      </trkpt>
      <trkpt lat="42.5798050" lon="-6.6692740">
        <ele>492.1</ele>
        <time>2020-04-12T17:32:27Z</time>
      </trkpt>
      <trkpt lat="42.5798740" lon="-6.6694290">
        <ele>492.2</ele>
        <time>2020-04-12T17:32:29Z</time>
      </trkpt>
      <trkpt lat="42.5799410" lon="-6.6695810">
        <ele>492.2</ele>
        <time>2020-04-12T17:32:31Z</time>
      </trkpt>
      <trkpt lat="42.5800080" lon="-6.6697320">
        <ele>492.3</ele>
        <time>2020-04-12T17:32:33Z</time>
      </trkpt>
      <trkpt lat="42.5800740" lon="-6.6698820">
        <ele>492.3</ele>
        <time>2020-04-12T17:32:35Z</time>
      </trkpt>
      <trkpt lat="42.5802540" lon="-6.6702860">
        <ele>492.1</ele>
        <time>2020-04-12T17:32:37Z</time>
      </trkpt>
      <trkpt lat="42.5803180" lon="-6.6704320">
        <ele>491.9</ele>
        <time>2020-04-12T17:32:39Z</time>
      </trkpt>
      <trkpt lat="42.5803830" lon="-6.6705780">
        <ele>491.8</ele>
        <time>2020-04-12T17:32:41Z</time>
      </trkpt>
      <trkpt lat="42.5804480" lon="-6.6707240">
        <ele>491.7</ele>
        <time>2020-04-12T17:32:43Z</time>
      </trkpt>
      <trkpt lat="42.5805110" lon="-6.6708670">
        <ele>491.7</ele>
        <time>2020-04-12T17:32:45Z</time>
      </trkpt>
      <trkpt lat="42.5806900" lon="-6.6712650">
        <ele>492.2</ele>
        <time>2020-04-12T17:32:47Z</time>
      </trkpt>
      <trkpt lat="42.5807570" lon="-6.6714060">
        <ele>492.3</ele>
        <time>2020-04-12T17:32:49Z</time>
      </trkpt>
      <trkpt lat="42.5808240" lon="-6.6715480">
        <ele>492.4</ele>
        <time>2020-04-12T17:32:51Z</time>
      </trkpt>
      <trkpt lat="42.5808910" lon="-6.6716890">
        <ele>492.4</ele>
        <time>2020-04-12T17:32:53Z</time>
      </trkpt>
      <trkpt lat="42.5809590" lon="-6.6718310">
        <ele>492.4</ele>
        <time>2020-04-12T17:32:55Z</time>
      </trkpt>
      <trkpt lat="42.5811610" lon="-6.6722140">
        <ele>492.5</ele>
        <time>2020-04-12T17:32:57Z</time>
      </trkpt>
      <trkpt lat="42.5813020" lon="-6.6723920">
        <ele>492.5</ele>
        <time>2020-04-12T17:32:59Z</time>
      </trkpt>
      <trkpt lat="42.5813990" lon="-6.6724950">
        <ele>492.5</ele>
        <time>2020-04-12T17:33:01Z</time>
      </trkpt>
      <trkpt lat="42.5814940" lon="-6.6725960">
        <ele>492.6</ele>
        <time>2020-04-12T17:33:03Z</time>
      </trkpt>
      <trkpt lat="42.5815880" lon="-6.6726960">
        <ele>492.7</ele>
        <time>2020-04-12T17:33:05Z</time>
      </trkpt>
      <trkpt lat="42.5816800" lon="-6.6727930">
        <ele>492.9</ele>
        <time>2020-04-12T17:33:07Z</time>
      </trkpt>
      <trkpt lat="42.5817710" lon="-6.6728890">
        <ele>493.2</ele>
        <time>2020-04-12T17:33:09Z</time>
      </trkpt>
      <trkpt lat="42.5820330" lon="-6.6731680">
        <ele>493.7</ele>
        <time>2020-04-12T17:33:11Z</time>
      </trkpt>
      <trkpt lat="42.5821220" lon="-6.6732620">
        <ele>493.8</ele>
        <time>2020-04-12T17:33:13Z</time>
      </trkpt>
      <trkpt lat="42.5822100" lon="-6.6733550">
        <ele>493.9</ele>
        <time>2020-04-12T17:33:15Z</time>
      </trkpt>
      <trkpt lat="42.5822970" lon="-6.6734480">
        <ele>494.1</ele>
        <time>2020-04-12T17:33:17Z</time>
      </trkpt>
      <trkpt lat="42.5823840" lon="-6.6735400">
        <ele>494.2</ele>
        <time>2020-04-12T17:33:19Z</time>
      </trkpt>
      <trkpt lat="42.5826430" lon="-6.6738150">
        <ele>494.5</ele>
        <time>2020-04-12T17:33:21Z</time>
      </trkpt>
      <trkpt lat="42.5827310" lon="-6.6739090">
        <ele>494.6</ele>
        <time>2020-04-12T17:33:23Z</time>
      </trkpt>
      <trkpt lat="42.5828210" lon="-6.6740040">
        <ele>494.6</ele>
        <time>2020-04-12T17:33:25Z</time>
      </trkpt>
      <trkpt lat="42.5829120" lon="-6.6741010">
        <ele>494.7</ele>
        <time>2020-04-12T17:33:27Z</time>
      </trkpt>
      <trkpt lat="42.5830040" lon="-6.6741980">
        <ele>494.7</ele>
        <time>2020-04-12T17:33:29Z</time>
      </trkpt>
      <trkpt lat="42.5832680" lon="-6.6744810">
        <ele>495.0</ele>
        <time>2020-04-12T17:33:31Z</time>
      </trkpt>
      <trkpt lat="42.5833820" lon="-6.6746380">
        <ele>495.1</ele>
        <time>2020-04-12T17:33:33Z</time>
      </trkpt>
      <trkpt lat="42.5835070" lon="-6.6746060">
        <ele>495.0</ele>
        <time>2020-04-12T17:33:35Z</time>
      </trkpt>
      <trkpt lat="42.5836190" lon="-6.6747560">
        <ele>495.2</ele>
        <time>2020-04-12T17:33:37Z</time>
      </trkpt>
      <trkpt lat="42.5837150" lon="-6.6749250">
        <ele>495.4</ele>
        <time>2020-04-12T17:33:39Z</time>
      </trkpt>
      <trkpt lat="42.5838070" lon="-6.6750100">
        <ele>495.6</ele>
        <time>2020-04-12T17:33:41Z</time>
      </trkpt>
      <trkpt lat="42.5838980" lon="-6.6750940">
        <ele>495.8</ele>
        <time>2020-04-12T17:33:43Z</time>
      </trkpt>
      <trkpt lat="42.5839880" lon="-6.6751770">
        <ele>496.1</ele>
        <time>2020-04-12T17:33:45Z</time>
      </trkpt>
      <trkpt lat="42.5841410" lon="-6.6753960">
        <ele>496.7</ele>
        <time>2020-04-12T17:33:47Z</time>
      </trkpt>
      <trkpt lat="42.5842230" lon="-6.6755260">
        <ele>497.2</ele>
        <time>2020-04-12T17:33:49Z</time>
      </trkpt>
      <trkpt lat="42.5842920" lon="-6.6755980">
        <ele>497.6</ele>
        <time>2020-04-12T17:33:51Z</time>
      </trkpt>
      <trkpt lat="42.5843550" lon="-6.6756650">
        <ele>498.1</ele>
        <time>2020-04-12T17:33:53Z</time>
      </trkpt>
      <trkpt lat="42.5844150" lon="-6.6757270">
        <ele>498.6</ele>
        <time>2020-04-12T17:33:56Z</time>
      </trkpt>
      <trkpt lat="42.5844710" lon="-6.6757860">
        <ele>499.0</ele>
        <time>2020-04-12T17:33:58Z</time>
      </trkpt>
      <trkpt lat="42.5845240" lon="-6.6758410">
        <ele>499.4</ele>
        <time>2020-04-12T17:34:00Z</time>
      </trkpt>
      <trkpt lat="42.5847130" lon="-6.6760390">
        <ele>500.4</ele>
        <time>2020-04-12T17:34:02Z</time>
      </trkpt>
      <trkpt lat="42.5847620" lon="-6.6760910">
        <ele>500.7</ele>
        <time>2020-04-12T17:34:04Z</time>
      </trkpt>
      <trkpt lat="42.5848100" lon="-6.6761410">
        <ele>501.1</ele>
        <time>2020-04-12T17:34:06Z</time>
      </trkpt>
      <trkpt lat="42.5848580" lon="-6.6761910">
        <ele>501.6</ele>
        <time>2020-04-12T17:34:08Z</time>
      </trkpt>
      <trkpt lat="42.5849050" lon="-6.6762400">
        <ele>502.1</ele>
        <time>2020-04-12T17:34:10Z</time>
      </trkpt>
      <trkpt lat="42.5849510" lon="-6.6762880">
        <ele>502.5</ele>
        <time>2020-04-12T17:34:12Z</time>
      </trkpt>
      <trkpt lat="42.5849970" lon="-6.6763370">
        <ele>503.0</ele>
        <time>2020-04-12T17:34:14Z</time>
      </trkpt>
      <trkpt lat="42.5850430" lon="-6.6763850">
        <ele>503.5</ele>
        <time>2020-04-12T17:34:16Z</time>
      </trkpt>
      <trkpt lat="42.5852270" lon="-6.6765760">
        <ele>505.3</ele>
        <time>2020-04-12T17:34:18Z</time>
      </trkpt>
      <trkpt lat="42.5852770" lon="-6.6766240">
        <ele>505.7</ele>
        <time>2020-04-12T17:34:20Z</time>
      </trkpt>
      <trkpt lat="42.5853290" lon="-6.6766740">
        <ele>506.2</ele>
        <time>2020-04-12T17:34:22Z</time>
      </trkpt>
      <trkpt lat="42.5853810" lon="-6.6767240">
        <ele>506.7</ele>
        <time>2020-04-12T17:34:24Z</time>
      </trkpt>
      <trkpt lat="42.5854340" lon="-6.6767750">
        <ele>507.2</ele>
        <time>2020-04-12T17:34:26Z</time>
      </trkpt>
      <trkpt lat="42.5855860" lon="-6.6769200">
        <ele>508.5</ele>
        <time>2020-04-12T17:34:28Z</time>
      </trkpt>
      <trkpt lat="42.5856400" lon="-6.6769720">
        <ele>509.0</ele>
        <time>2020-04-12T17:34:30Z</time>
      </trkpt>
      <trkpt lat="42.5856940" lon="-6.6770240">
        <ele>509.5</ele>
        <time>2020-04-12T17:34:32Z</time>
      </trkpt>
      <trkpt lat="42.5857470" lon="-6.6770750">
        <ele>509.9</ele>
        <time>2020-04-12T17:34:34Z</time>
      </trkpt>
      <trkpt lat="42.5858010" lon="-6.6771270">
        <ele>510.4</ele>
        <time>2020-04-12T17:34:36Z</time>
      </trkpt>
      <trkpt lat="42.5859530" lon="-6.6772740">
        <ele>511.4</ele>
        <time>2020-04-12T17:34:38Z</time>
      </trkpt>
      <trkpt lat="42.5859970" lon="-6.6773360">
        <ele>512.0</ele>
        <time>2020-04-12T17:34:40Z</time>
      </trkpt>
      <trkpt lat="42.5860400" lon="-6.6773950">
        <ele>512.7</ele>
        <time>2020-04-12T17:34:42Z</time>
      </trkpt>
      <trkpt lat="42.5860810" lon="-6.6774530">
        <ele>513.3</ele>
        <time>2020-04-12T17:34:44Z</time>
      </trkpt>
      <trkpt lat="42.5861220" lon="-6.6775090">
        <ele>513.9</ele>
        <time>2020-04-12T17:34:46Z</time>
      </trkpt>
      <trkpt lat="42.5861610" lon="-6.6775640">
        <ele>514.4</ele>
        <time>2020-04-12T17:34:48Z</time>
      </trkpt>
      <trkpt lat="42.5862880" lon="-6.6777380">
        <ele>515.3</ele>
        <time>2020-04-12T17:34:50Z</time>
      </trkpt>
      <trkpt lat="42.5863340" lon="-6.6777800">
        <ele>515.7</ele>
        <time>2020-04-12T17:34:52Z</time>
      </trkpt>
      <trkpt lat="42.5864140" lon="-6.6778540">
        <ele>516.3</ele>
        <time>2020-04-12T17:34:54Z</time>
      </trkpt>
      <trkpt lat="42.5864540" lon="-6.6779040">
        <ele>516.7</ele>
        <time>2020-04-12T17:34:56Z</time>
      </trkpt>
      <trkpt lat="42.5864950" lon="-6.6779530">
        <ele>517.0</ele>
        <time>2020-04-12T17:34:58Z</time>
      </trkpt>
      <trkpt lat="42.5865720" lon="-6.6780480">
        <ele>517.5</ele>
        <time>2020-04-12T17:35:00Z</time>
      </trkpt>
      <trkpt lat="42.5866110" lon="-6.6780970">
        <ele>517.6</ele>
        <time>2020-04-12T17:35:02Z</time>
      </trkpt>
      <trkpt lat="42.5866500" lon="-6.6781470">
        <ele>517.7</ele>
        <time>2020-04-12T17:35:04Z</time>
      </trkpt>
      <trkpt lat="42.5866900" lon="-6.6781980">
        <ele>517.9</ele>
        <time>2020-04-12T17:35:06Z</time>
      </trkpt>
      <trkpt lat="42.5867290" lon="-6.6782480">
        <ele>518.1</ele>
        <time>2020-04-12T17:35:08Z</time>
      </trkpt>
      <trkpt lat="42.5867690" lon="-6.6782980">
        <ele>518.3</ele>
        <time>2020-04-12T17:35:10Z</time>
      </trkpt>
      <trkpt lat="42.5868950" lon="-6.6784600">
        <ele>518.9</ele>
        <time>2020-04-12T17:35:12Z</time>
      </trkpt>
      <trkpt lat="42.5869420" lon="-6.6785190">
        <ele>519.1</ele>
        <time>2020-04-12T17:35:14Z</time>
      </trkpt>
      <trkpt lat="42.5869940" lon="-6.6785850">
        <ele>519.3</ele>
        <time>2020-04-12T17:35:16Z</time>
      </trkpt>
      <trkpt lat="42.5870490" lon="-6.6786560">
        <ele>519.6</ele>
        <time>2020-04-12T17:35:18Z</time>
      </trkpt>
      <trkpt lat="42.5871060" lon="-6.6787280">
        <ele>519.8</ele>
        <time>2020-04-12T17:35:20Z</time>
      </trkpt>
      <trkpt lat="42.5872440" lon="-6.6789200">
        <ele>520.2</ele>
        <time>2020-04-12T17:35:22Z</time>
      </trkpt>
      <trkpt lat="42.5872900" lon="-6.6790530">
        <ele>520.4</ele>
        <time>2020-04-12T17:35:24Z</time>
      </trkpt>
      <trkpt lat="42.5872900" lon="-6.6791610">
        <ele>520.8</ele>
        <time>2020-04-12T17:35:26Z</time>
      </trkpt>
      <trkpt lat="42.5872900" lon="-6.6792710">
        <ele>521.2</ele>
        <time>2020-04-12T17:35:28Z</time>
      </trkpt>
      <trkpt lat="42.5872480" lon="-6.6794940">
        <ele>522.4</ele>
        <time>2020-04-12T17:35:30Z</time>
      </trkpt>
      <trkpt lat="42.5872000" lon="-6.6795930">
        <ele>523.1</ele>
        <time>2020-04-12T17:35:32Z</time>
      </trkpt>
      <trkpt lat="42.5871490" lon="-6.6796990">
        <ele>523.7</ele>
        <time>2020-04-12T17:35:34Z</time>
      </trkpt>
      <trkpt lat="42.5870620" lon="-6.6799060">
        <ele>524.5</ele>
        <time>2020-04-12T17:35:36Z</time>
      </trkpt>
      <trkpt lat="42.5869980" lon="-6.6801000">
        <ele>524.9</ele>
        <time>2020-04-12T17:35:38Z</time>
      </trkpt>
      <trkpt lat="42.5869650" lon="-6.6802390">
        <ele>525.1</ele>
        <time>2020-04-12T17:35:40Z</time>
      </trkpt>
      <trkpt lat="42.5869260" lon="-6.6804830">
        <ele>525.2</ele>
        <time>2020-04-12T17:35:42Z</time>
      </trkpt>
      <trkpt lat="42.5869450" lon="-6.6806350">
        <ele>525.3</ele>
        <time>2020-04-12T17:35:44Z</time>
      </trkpt>
      <trkpt lat="42.5869990" lon="-6.6808670">
        <ele>525.3</ele>
        <time>2020-04-12T17:35:46Z</time>
      </trkpt>
      <trkpt lat="42.5870530" lon="-6.6810150">
        <ele>525.2</ele>
        <time>2020-04-12T17:35:48Z</time>
      </trkpt>
      <trkpt lat="42.5871090" lon="-6.6811680">
        <ele>525.2</ele>
        <time>2020-04-12T17:35:50Z</time>
      </trkpt>
      <trkpt lat="42.5872390" lon="-6.6814820">
        <ele>525.0</ele>
        <time>2020-04-12T17:35:52Z</time>
      </trkpt>
      <trkpt lat="42.5873170" lon="-6.6816320">
        <ele>524.9</ele>
        <time>2020-04-12T17:35:54Z</time>
      </trkpt>
      <trkpt lat="42.5874640" lon="-6.6818770">
        <ele>524.5</ele>
        <time>2020-04-12T17:35:56Z</time>
      </trkpt>
      <trkpt lat="42.5875630" lon="-6.6820120">
        <ele>524.1</ele>
        <time>2020-04-12T17:35:58Z</time>
      </trkpt>
      <trkpt lat="42.5876650" lon="-6.6821510">
        <ele>523.6</ele>
        <time>2020-04-12T17:36:00Z</time>
      </trkpt>
      <trkpt lat="42.5878370" lon="-6.6824500">
        <ele>522.9</ele>
        <time>2020-04-12T17:36:02Z</time>
      </trkpt>
      <trkpt lat="42.5879170" lon="-6.6826260">
        <ele>522.5</ele>
        <time>2020-04-12T17:36:04Z</time>
      </trkpt>
      <trkpt lat="42.5880600" lon="-6.6829430">
        <ele>521.7</ele>
        <time>2020-04-12T17:36:06Z</time>
      </trkpt>
      <trkpt lat="42.5881430" lon="-6.6831260">
        <ele>521.2</ele>
        <time>2020-04-12T17:36:08Z</time>
      </trkpt>
      <trkpt lat="42.5882590" lon="-6.6834660">
        <ele>520.3</ele>
        <time>2020-04-12T17:36:10Z</time>
      </trkpt>
      <trkpt lat="42.5882840" lon="-6.6837420">
        <ele>519.7</ele>
        <time>2020-04-12T17:36:12Z</time>
      </trkpt>
      <trkpt lat="42.5882820" lon="-6.6840230">
        <ele>519.1</ele>
        <time>2020-04-12T17:36:14Z</time>
      </trkpt>
      <trkpt lat="42.5882680" lon="-6.6842150">
        <ele>518.8</ele>
        <time>2020-04-12T17:36:16Z</time>
      </trkpt>
      <trkpt lat="42.5882660" lon="-6.6845140">
        <ele>518.5</ele>
        <time>2020-04-12T17:36:18Z</time>
      </trkpt>
      <trkpt lat="42.5882910" lon="-6.6847900">
        <ele>518.4</ele>
        <time>2020-04-12T17:36:20Z</time>
      </trkpt>
      <trkpt lat="42.5883230" lon="-6.6849870">
        <ele>518.3</ele>
        <time>2020-04-12T17:36:22Z</time>
      </trkpt>
      <trkpt lat="42.5883570" lon="-6.6851940">
        <ele>518.0</ele>
        <time>2020-04-12T17:36:24Z</time>
      </trkpt>
      <trkpt lat="42.5884320" lon="-6.6856340">
        <ele>517.0</ele>
        <time>2020-04-12T17:36:26Z</time>
      </trkpt>
      <trkpt lat="42.5884760" lon="-6.6858540">
        <ele>516.3</ele>
        <time>2020-04-12T17:36:28Z</time>
      </trkpt>
      <trkpt lat="42.5885610" lon="-6.6862360">
        <ele>514.7</ele>
        <time>2020-04-12T17:36:30Z</time>
      </trkpt>
      <trkpt lat="42.5886290" lon="-6.6864660">
        <ele>513.4</ele>
        <time>2020-04-12T17:36:32Z</time>
      </trkpt>
      <trkpt lat="42.5887450" lon="-6.6868580">
        <ele>511.0</ele>
        <time>2020-04-12T17:36:34Z</time>
      </trkpt>
      <trkpt lat="42.5888200" lon="-6.6871100">
        <ele>509.5</ele>
        <time>2020-04-12T17:36:36Z</time>
      </trkpt>
      <trkpt lat="42.5889330" lon="-6.6875200">
        <ele>507.3</ele>
        <time>2020-04-12T17:36:38Z</time>
      </trkpt>
      <trkpt lat="42.5889980" lon="-6.6877670">
        <ele>506.3</ele>
        <time>2020-04-12T17:36:40Z</time>
      </trkpt>
      <trkpt lat="42.5891260" lon="-6.6881990">
        <ele>505.4</ele>
        <time>2020-04-12T17:36:42Z</time>
      </trkpt>
      <trkpt lat="42.5892050" lon="-6.6884240">
        <ele>504.7</ele>
        <time>2020-04-12T17:36:44Z</time>
      </trkpt>
      <trkpt lat="42.5892830" lon="-6.6886470">
        <ele>503.8</ele>
        <time>2020-04-12T17:36:46Z</time>
      </trkpt>
      <trkpt lat="42.5894010" lon="-6.6891530">
        <ele>501.5</ele>
        <time>2020-04-12T17:36:48Z</time>
      </trkpt>
      <trkpt lat="42.5893730" lon="-6.6893900">
        <ele>500.4</ele>
        <time>2020-04-12T17:36:50Z</time>
      </trkpt>
      <trkpt lat="42.5893470" lon="-6.6897800">
        <ele>498.9</ele>
        <time>2020-04-12T17:36:52Z</time>
      </trkpt>
      <trkpt lat="42.5893620" lon="-6.6900130">
        <ele>498.0</ele>
        <time>2020-04-12T17:36:54Z</time>
      </trkpt>
      <trkpt lat="42.5894240" lon="-6.6903560">
        <ele>497.0</ele>
        <time>2020-04-12T17:36:56Z</time>
      </trkpt>
      <trkpt lat="42.5894790" lon="-6.6905770">
        <ele>496.4</ele>
        <time>2020-04-12T17:36:58Z</time>
      </trkpt>
      <trkpt lat="42.5895770" lon="-6.6909680">
        <ele>495.7</ele>
        <time>2020-04-12T17:37:00Z</time>
      </trkpt>
      <trkpt lat="42.5896280" lon="-6.6911720">
        <ele>495.4</ele>
        <time>2020-04-12T17:37:02Z</time>
      </trkpt>
      <trkpt lat="42.5897410" lon="-6.6915260">
        <ele>495.1</ele>
        <time>2020-04-12T17:37:04Z</time>
      </trkpt>
      <trkpt lat="42.5898890" lon="-6.6916750">
        <ele>495.1</ele>
        <time>2020-04-12T17:37:06Z</time>
      </trkpt>
      <trkpt lat="42.5900420" lon="-6.6918370">
        <ele>495.0</ele>
        <time>2020-04-12T17:37:08Z</time>
      </trkpt>
      <trkpt lat="42.5901380" lon="-6.6920510">
        <ele>494.9</ele>
        <time>2020-04-12T17:37:10Z</time>
      </trkpt>
      <trkpt lat="42.5902580" lon="-6.6922290">
        <ele>494.8</ele>
        <time>2020-04-12T17:37:12Z</time>
      </trkpt>
      <trkpt lat="42.5904090" lon="-6.6924140">
        <ele>494.8</ele>
        <time>2020-04-12T17:37:14Z</time>
      </trkpt>
      <trkpt lat="42.5905430" lon="-6.6925620">
        <ele>494.9</ele>
        <time>2020-04-12T17:37:16Z</time>
      </trkpt>
      <trkpt lat="42.5905950" lon="-6.6927570">
        <ele>495.1</ele>
        <time>2020-04-12T17:37:18Z</time>
      </trkpt>
      <trkpt lat="42.5906610" lon="-6.6930320">
        <ele>495.2</ele>
        <time>2020-04-12T17:37:20Z</time>
      </trkpt>
      <trkpt lat="42.5907180" lon="-6.6931910">
        <ele>495.1</ele>
        <time>2020-04-12T17:37:22Z</time>
      </trkpt>
      <trkpt lat="42.5907990" lon="-6.6934750">
        <ele>495.1</ele>
        <time>2020-04-12T17:37:24Z</time>
      </trkpt>
      <trkpt lat="42.5908560" lon="-6.6936340">
        <ele>495.1</ele>
        <time>2020-04-12T17:37:26Z</time>
      </trkpt>
      <trkpt lat="42.5909130" lon="-6.6937940">
        <ele>495.1</ele>
        <time>2020-04-12T17:37:28Z</time>
      </trkpt>
      <trkpt lat="42.5909710" lon="-6.6939530">
        <ele>495.2</ele>
        <time>2020-04-12T17:37:30Z</time>
      </trkpt>
      <trkpt lat="42.5910280" lon="-6.6941120">
        <ele>495.2</ele>
        <time>2020-04-12T17:37:32Z</time>
      </trkpt>
      <trkpt lat="42.5911790" lon="-6.6945450">
        <ele>495.2</ele>
        <time>2020-04-12T17:37:34Z</time>
      </trkpt>
      <trkpt lat="42.5912260" lon="-6.6947100">
        <ele>495.3</ele>
        <time>2020-04-12T17:37:36Z</time>
      </trkpt>
      <trkpt lat="42.5912730" lon="-6.6948740">
        <ele>495.3</ele>
        <time>2020-04-12T17:37:38Z</time>
      </trkpt>
      <trkpt lat="42.5913210" lon="-6.6950400">
        <ele>495.3</ele>
        <time>2020-04-12T17:37:40Z</time>
      </trkpt>
      <trkpt lat="42.5913690" lon="-6.6952070">
        <ele>495.3</ele>
        <time>2020-04-12T17:37:42Z</time>
      </trkpt>
      <trkpt lat="42.5915030" lon="-6.6956550">
        <ele>495.4</ele>
        <time>2020-04-12T17:37:44Z</time>
      </trkpt>
      <trkpt lat="42.5915590" lon="-6.6958140">
        <ele>495.4</ele>
        <time>2020-04-12T17:37:46Z</time>
      </trkpt>
      <trkpt lat="42.5916140" lon="-6.6959720">
        <ele>495.4</ele>
        <time>2020-04-12T17:37:48Z</time>
      </trkpt>
      <trkpt lat="42.5916690" lon="-6.6961290">
        <ele>495.3</ele>
        <time>2020-04-12T17:37:50Z</time>
      </trkpt>
      <trkpt lat="42.5918100" lon="-6.6965340">
        <ele>495.2</ele>
        <time>2020-04-12T17:37:52Z</time>
      </trkpt>
      <trkpt lat="42.5918640" lon="-6.6966900">
        <ele>495.2</ele>
        <time>2020-04-12T17:37:54Z</time>
      </trkpt>
      <trkpt lat="42.5919190" lon="-6.6968460">
        <ele>495.3</ele>
        <time>2020-04-12T17:37:56Z</time>
      </trkpt>
      <trkpt lat="42.5919730" lon="-6.6970020">
        <ele>495.3</ele>
        <time>2020-04-12T17:37:58Z</time>
      </trkpt>
      <trkpt lat="42.5920280" lon="-6.6971580">
        <ele>495.3</ele>
        <time>2020-04-12T17:38:00Z</time>
      </trkpt>
      <trkpt lat="42.5921640" lon="-6.6975670">
        <ele>495.3</ele>
        <time>2020-04-12T17:38:02Z</time>
      </trkpt>
      <trkpt lat="42.5922110" lon="-6.6977270">
        <ele>495.4</ele>
        <time>2020-04-12T17:38:04Z</time>
      </trkpt>
      <trkpt lat="42.5922570" lon="-6.6978850">
        <ele>495.4</ele>
        <time>2020-04-12T17:38:06Z</time>
      </trkpt>
      <trkpt lat="42.5923530" lon="-6.6982150">
        <ele>495.4</ele>
        <time>2020-04-12T17:38:08Z</time>
      </trkpt>
      <trkpt lat="42.5923980" lon="-6.6983670">
        <ele>495.4</ele>
        <time>2020-04-12T17:38:10Z</time>
      </trkpt>
      <trkpt lat="42.5924410" lon="-6.6985150">
        <ele>495.5</ele>
        <time>2020-04-12T17:38:12Z</time>
      </trkpt>
      <trkpt lat="42.5925380" lon="-6.6988280">
        <ele>495.5</ele>
        <time>2020-04-12T17:38:14Z</time>
      </trkpt>
      <trkpt lat="42.5925860" lon="-6.6989650">
        <ele>495.5</ele>
        <time>2020-04-12T17:38:16Z</time>
      </trkpt>
      <trkpt lat="42.5926760" lon="-6.6992210">
        <ele>495.6</ele>
        <time>2020-04-12T17:38:18Z</time>
      </trkpt>
      <trkpt lat="42.5927160" lon="-6.6993620">
        <ele>495.6</ele>
        <time>2020-04-12T17:38:20Z</time>
      </trkpt>
      <trkpt lat="42.5927570" lon="-6.6995040">
        <ele>495.7</ele>
        <time>2020-04-12T17:38:22Z</time>
      </trkpt>
      <trkpt lat="42.5927980" lon="-6.6996460">
        <ele>495.7</ele>
        <time>2020-04-12T17:38:24Z</time>
      </trkpt>
      <trkpt lat="42.5928390" lon="-6.6997890">
        <ele>495.8</ele>
        <time>2020-04-12T17:38:26Z</time>
      </trkpt>
      <trkpt lat="42.5928800" lon="-6.6999310">
        <ele>496.1</ele>
        <time>2020-04-12T17:38:28Z</time>
      </trkpt>
      <trkpt lat="42.5929920" lon="-6.7003370">
        <ele>497.2</ele>
        <time>2020-04-12T17:38:30Z</time>
      </trkpt>
      <trkpt lat="42.5930230" lon="-6.7004630">
        <ele>497.5</ele>
        <time>2020-04-12T17:38:32Z</time>
      </trkpt>
      <trkpt lat="42.5930780" lon="-6.7006940">
        <ele>498.3</ele>
        <time>2020-04-12T17:38:34Z</time>
      </trkpt>
      <trkpt lat="42.5930990" lon="-6.7008020">
        <ele>498.6</ele>
        <time>2020-04-12T17:38:36Z</time>
      </trkpt>
      <trkpt lat="42.5931180" lon="-6.7009030">
        <ele>499.0</ele>
        <time>2020-04-12T17:38:38Z</time>
      </trkpt>
      <trkpt lat="42.5931600" lon="-6.7011220">
        <ele>499.9</ele>
        <time>2020-04-12T17:38:40Z</time>
      </trkpt>
      <trkpt lat="42.5931730" lon="-6.7012130">
        <ele>500.4</ele>
        <time>2020-04-12T17:38:42Z</time>
      </trkpt>
      <trkpt lat="42.5931860" lon="-6.7013020">
        <ele>500.9</ele>
        <time>2020-04-12T17:38:44Z</time>
      </trkpt>
      <trkpt lat="42.5931980" lon="-6.7013880">
        <ele>501.4</ele>
        <time>2020-04-12T17:38:46Z</time>
      </trkpt>
      <trkpt lat="42.5932100" lon="-6.7014720">
        <ele>501.9</ele>
        <time>2020-04-12T17:38:48Z</time>
      </trkpt>
      <trkpt lat="42.5932220" lon="-6.7015540">
        <ele>502.4</ele>
        <time>2020-04-12T17:38:50Z</time>
      </trkpt>
      <trkpt lat="42.5932600" lon="-6.7018200">
        <ele>504.3</ele>
        <time>2020-04-12T17:38:52Z</time>
      </trkpt>
      <trkpt lat="42.5932840" lon="-6.7019000">
        <ele>505.0</ele>
        <time>2020-04-12T17:38:54Z</time>
      </trkpt>
      <trkpt lat="42.5933090" lon="-6.7019850">
        <ele>505.6</ele>
        <time>2020-04-12T17:38:56Z</time>
      </trkpt>
      <trkpt lat="42.5933350" lon="-6.7020730">
        <ele>506.3</ele>
        <time>2020-04-12T17:38:58Z</time>
      </trkpt>
      <trkpt lat="42.5933620" lon="-6.7021620">
        <ele>507.0</ele>
        <time>2020-04-12T17:39:00Z</time>
      </trkpt>
      <trkpt lat="42.5934140" lon="-6.7023810">
        <ele>508.4</ele>
        <time>2020-04-12T17:39:02Z</time>
      </trkpt>
      <trkpt lat="42.5934290" lon="-6.7024760">
        <ele>509.0</ele>
        <time>2020-04-12T17:39:04Z</time>
      </trkpt>
      <trkpt lat="42.5934440" lon="-6.7025710">
        <ele>509.5</ele>
        <time>2020-04-12T17:39:06Z</time>
      </trkpt>
      <trkpt lat="42.5934580" lon="-6.7026660">
        <ele>509.9</ele>
        <time>2020-04-12T17:39:08Z</time>
      </trkpt>
      <trkpt lat="42.5934730" lon="-6.7027600">
        <ele>510.3</ele>
        <time>2020-04-12T17:39:10Z</time>
      </trkpt>
      <trkpt lat="42.5934880" lon="-6.7028550">
        <ele>510.6</ele>
        <time>2020-04-12T17:39:12Z</time>
      </trkpt>
      <trkpt lat="42.5935030" lon="-6.7029510">
        <ele>510.9</ele>
        <time>2020-04-12T17:39:14Z</time>
      </trkpt>
      <trkpt lat="42.5935720" lon="-6.7032830">
        <ele>511.3</ele>
        <time>2020-04-12T17:39:16Z</time>
      </trkpt>
      <trkpt lat="42.5936090" lon="-6.7033920">
        <ele>511.4</ele>
        <time>2020-04-12T17:39:18Z</time>
      </trkpt>
      <trkpt lat="42.5936480" lon="-6.7035080">
        <ele>511.4</ele>
        <time>2020-04-12T17:39:20Z</time>
      </trkpt>
      <trkpt lat="42.5936890" lon="-6.7036280">
        <ele>511.5</ele>
        <time>2020-04-12T17:39:22Z</time>
      </trkpt>
      <trkpt lat="42.5937320" lon="-6.7037510">
        <ele>511.6</ele>
        <time>2020-04-12T17:39:24Z</time>
      </trkpt>
      <trkpt lat="42.5938500" lon="-6.7040920">
        <ele>512.0</ele>
        <time>2020-04-12T17:39:26Z</time>
      </trkpt>
      <trkpt lat="42.5938970" lon="-6.7042170">
        <ele>512.1</ele>
        <time>2020-04-12T17:39:28Z</time>
      </trkpt>
      <trkpt lat="42.5939850" lon="-6.7044300">
        <ele>512.2</ele>
        <time>2020-04-12T17:39:30Z</time>
      </trkpt>
      <trkpt lat="42.5940340" lon="-6.7046040">
        <ele>512.2</ele>
        <time>2020-04-12T17:39:32Z</time>
      </trkpt>
      <trkpt lat="42.5940700" lon="-6.7047580">
        <ele>512.2</ele>
        <time>2020-04-12T17:39:34Z</time>
      </trkpt>
      <trkpt lat="42.5941140" lon="-6.7048790">
        <ele>512.2</ele>
        <time>2020-04-12T17:39:36Z</time>
      </trkpt>
      <trkpt lat="42.5941590" lon="-6.7050000">
        <ele>512.3</ele>
        <time>2020-04-12T17:39:38Z</time>
      </trkpt>
      <trkpt lat="42.5942030" lon="-6.7051190">
        <ele>512.4</ele>
        <time>2020-04-12T17:39:40Z</time>
      </trkpt>
      <trkpt lat="42.5943160" lon="-6.7054280">
        <ele>512.9</ele>
        <time>2020-04-12T17:39:42Z</time>
      </trkpt>
      <trkpt lat="42.5943600" lon="-6.7055470">
        <ele>513.1</ele>
        <time>2020-04-12T17:39:44Z</time>
      </trkpt>
      <trkpt lat="42.5944030" lon="-6.7056650">
        <ele>513.3</ele>
        <time>2020-04-12T17:39:46Z</time>
      </trkpt>
      <trkpt lat="42.5944470" lon="-6.7057820">
        <ele>513.6</ele>
        <time>2020-04-12T17:39:48Z</time>
      </trkpt>
      <trkpt lat="42.5944890" lon="-6.7058980">
        <ele>513.9</ele>
        <time>2020-04-12T17:39:50Z</time>
      </trkpt>
      <trkpt lat="42.5946100" lon="-6.7062080">
        <ele>514.8</ele>
        <time>2020-04-12T17:39:52Z</time>
      </trkpt>
      <trkpt lat="42.5946680" lon="-6.7063410">
        <ele>515.2</ele>
        <time>2020-04-12T17:39:54Z</time>
      </trkpt>
      <trkpt lat="42.5947300" lon="-6.7064860">
        <ele>515.5</ele>
        <time>2020-04-12T17:39:56Z</time>
      </trkpt>
      <trkpt lat="42.5947960" lon="-6.7066410">
        <ele>515.6</ele>
        <time>2020-04-12T17:39:58Z</time>
      </trkpt>
      <trkpt lat="42.5949600" lon="-6.7070280">
        <ele>515.8</ele>
        <time>2020-04-12T17:40:00Z</time>
      </trkpt>
      <trkpt lat="42.5950320" lon="-6.7072020">
        <ele>515.5</ele>
        <time>2020-04-12T17:40:02Z</time>
      </trkpt>
      <trkpt lat="42.5951060" lon="-6.7073820">
        <ele>514.9</ele>
        <time>2020-04-12T17:40:04Z</time>
      </trkpt>
      <trkpt lat="42.5952650" lon="-6.7077690">
        <ele>513.5</ele>
        <time>2020-04-12T17:40:06Z</time>
      </trkpt>
      <trkpt lat="42.5953440" lon="-6.7079630">
        <ele>512.7</ele>
        <time>2020-04-12T17:40:08Z</time>
      </trkpt>
      <trkpt lat="42.5954250" lon="-6.7081610">
        <ele>511.7</ele>
        <time>2020-04-12T17:40:10Z</time>
      </trkpt>
      <trkpt lat="42.5955870" lon="-6.7085600">
        <ele>509.9</ele>
        <time>2020-04-12T17:40:12Z</time>
      </trkpt>
      <trkpt lat="42.5956640" lon="-6.7087580">
        <ele>509.3</ele>
        <time>2020-04-12T17:40:14Z</time>
      </trkpt>
      <trkpt lat="42.5957400" lon="-6.7089500">
        <ele>508.7</ele>
        <time>2020-04-12T17:40:16Z</time>
      </trkpt>
      <trkpt lat="42.5958950" lon="-6.7093470">
        <ele>507.6</ele>
        <time>2020-04-12T17:40:18Z</time>
      </trkpt>
      <trkpt lat="42.5959690" lon="-6.7095350">
        <ele>507.2</ele>
        <time>2020-04-12T17:40:20Z</time>
      </trkpt>
      <trkpt lat="42.5960420" lon="-6.7097230">
        <ele>506.9</ele>
        <time>2020-04-12T17:40:22Z</time>
      </trkpt>
      <trkpt lat="42.5961960" lon="-6.7101160">
        <ele>506.6</ele>
        <time>2020-04-12T17:40:24Z</time>
      </trkpt>
      <trkpt lat="42.5962670" lon="-6.7102960">
        <ele>506.5</ele>
        <time>2020-04-12T17:40:26Z</time>
      </trkpt>
      <trkpt lat="42.5963370" lon="-6.7104750">
        <ele>506.5</ele>
        <time>2020-04-12T17:40:28Z</time>
      </trkpt>
      <trkpt lat="42.5964860" lon="-6.7108590">
        <ele>506.5</ele>
        <time>2020-04-12T17:40:30Z</time>
      </trkpt>
      <trkpt lat="42.5965520" lon="-6.7110370">
        <ele>506.5</ele>
        <time>2020-04-12T17:40:32Z</time>
      </trkpt>
      <trkpt lat="42.5966180" lon="-6.7112130">
        <ele>506.5</ele>
        <time>2020-04-12T17:40:34Z</time>
      </trkpt>
      <trkpt lat="42.5967630" lon="-6.7116020">
        <ele>506.5</ele>
        <time>2020-04-12T17:40:36Z</time>
      </trkpt>
      <trkpt lat="42.5968280" lon="-6.7117750">
        <ele>506.5</ele>
        <time>2020-04-12T17:40:38Z</time>
      </trkpt>
      <trkpt lat="42.5968900" lon="-6.7119420">
        <ele>506.5</ele>
        <time>2020-04-12T17:40:40Z</time>
      </trkpt>
      <trkpt lat="42.5969520" lon="-6.7121070">
        <ele>506.4</ele>
        <time>2020-04-12T17:40:42Z</time>
      </trkpt>
      <trkpt lat="42.5970920" lon="-6.7124830">
        <ele>506.4</ele>
        <time>2020-04-12T17:40:44Z</time>
      </trkpt>
      <trkpt lat="42.5971530" lon="-6.7126450">
        <ele>506.3</ele>
        <time>2020-04-12T17:40:46Z</time>
      </trkpt>
      <trkpt lat="42.5972130" lon="-6.7128060">
        <ele>506.3</ele>
        <time>2020-04-12T17:40:48Z</time>
      </trkpt>
      <trkpt lat="42.5972730" lon="-6.7129670">
        <ele>506.3</ele>
        <time>2020-04-12T17:40:50Z</time>
      </trkpt>
      <trkpt lat="42.5974450" lon="-6.7133060">
        <ele>506.2</ele>
        <time>2020-04-12T17:40:52Z</time>
      </trkpt>
      <trkpt lat="42.5976060" lon="-6.7135070">
        <ele>506.1</ele>
        <time>2020-04-12T17:40:54Z</time>
      </trkpt>
      <trkpt lat="42.5977130" lon="-6.7136210">
        <ele>506.1</ele>
        <time>2020-04-12T17:40:56Z</time>
      </trkpt>
      <trkpt lat="42.5978250" lon="-6.7137400">
        <ele>506.1</ele>
        <time>2020-04-12T17:40:58Z</time>
      </trkpt>
      <trkpt lat="42.5979400" lon="-6.7138630">
        <ele>506.0</ele>
        <time>2020-04-12T17:41:00Z</time>
      </trkpt>
      <trkpt lat="42.5982160" lon="-6.7141570">
        <ele>505.8</ele>
        <time>2020-04-12T17:41:02Z</time>
      </trkpt>
      <trkpt lat="42.5983370" lon="-6.7142890">
        <ele>505.4</ele>
        <time>2020-04-12T17:41:04Z</time>
      </trkpt>
      <trkpt lat="42.5985530" lon="-6.7145250">
        <ele>504.0</ele>
        <time>2020-04-12T17:41:06Z</time>
      </trkpt>
      <trkpt lat="42.5986610" lon="-6.7148020">
        <ele>502.7</ele>
        <time>2020-04-12T17:41:08Z</time>
      </trkpt>
      <trkpt lat="42.5987910" lon="-6.7150980">
        <ele>499.7</ele>
        <time>2020-04-12T17:41:10Z</time>
      </trkpt>
      <trkpt lat="42.5989610" lon="-6.7153430">
        <ele>496.5</ele>
        <time>2020-04-12T17:41:12Z</time>
      </trkpt>
      <trkpt lat="42.5991240" lon="-6.7155500">
        <ele>493.7</ele>
        <time>2020-04-12T17:41:14Z</time>
      </trkpt>
      <trkpt lat="42.5993830" lon="-6.7159780">
        <ele>489.9</ele>
        <time>2020-04-12T17:41:16Z</time>
      </trkpt>
      <trkpt lat="42.5994580" lon="-6.7162470">
        <ele>488.8</ele>
        <time>2020-04-12T17:41:18Z</time>
      </trkpt>
      <trkpt lat="42.5995610" lon="-6.7167020">
        <ele>487.1</ele>
        <time>2020-04-12T17:41:20Z</time>
      </trkpt>
      <trkpt lat="42.5995690" lon="-6.7169540">
        <ele>486.8</ele>
        <time>2020-04-12T17:41:22Z</time>
      </trkpt>
      <trkpt lat="42.5995770" lon="-6.7171880">
        <ele>486.6</ele>
        <time>2020-04-12T17:41:24Z</time>
      </trkpt>
      <trkpt lat="42.5995850" lon="-6.7174130">
        <ele>486.5</ele>
        <time>2020-04-12T17:41:26Z</time>
      </trkpt>
      <trkpt lat="42.5996020" lon="-6.7179420">
        <ele>486.0</ele>
        <time>2020-04-12T17:41:28Z</time>
      </trkpt>
      <trkpt lat="42.5996090" lon="-6.7181500">
        <ele>485.9</ele>
        <time>2020-04-12T17:41:30Z</time>
      </trkpt>
      <trkpt lat="42.5996160" lon="-6.7183560">
        <ele>485.8</ele>
        <time>2020-04-12T17:41:32Z</time>
      </trkpt>
      <trkpt lat="42.5996230" lon="-6.7185600">
        <ele>485.6</ele>
        <time>2020-04-12T17:41:34Z</time>
      </trkpt>
      <trkpt lat="42.5996390" lon="-6.7190590">
        <ele>485.3</ele>
        <time>2020-04-12T17:41:36Z</time>
      </trkpt>
      <trkpt lat="42.5996450" lon="-6.7192590">
        <ele>485.2</ele>
        <time>2020-04-12T17:41:38Z</time>
      </trkpt>
      <trkpt lat="42.5996520" lon="-6.7194600">
        <ele>485.1</ele>
        <time>2020-04-12T17:41:40Z</time>
      </trkpt>
      <trkpt lat="42.5996580" lon="-6.7196610">
        <ele>485.1</ele>
        <time>2020-04-12T17:41:42Z</time>
      </trkpt>
      <trkpt lat="42.5996750" lon="-6.7201590">
        <ele>484.9</ele>
        <time>2020-04-12T17:41:44Z</time>
      </trkpt>
      <trkpt lat="42.5996810" lon="-6.7203550">
        <ele>484.9</ele>
        <time>2020-04-12T17:41:46Z</time>
      </trkpt>
      <trkpt lat="42.5996870" lon="-6.7205450">
        <ele>484.8</ele>
        <time>2020-04-12T17:41:48Z</time>
      </trkpt>
      <trkpt lat="42.5996930" lon="-6.7207300">
        <ele>484.7</ele>
        <time>2020-04-12T17:41:50Z</time>
      </trkpt>
      <trkpt lat="42.5996990" lon="-6.7209090">
        <ele>484.7</ele>
        <time>2020-04-12T17:41:52Z</time>
      </trkpt>
      <trkpt lat="42.5997200" lon="-6.7213810">
        <ele>484.7</ele>
        <time>2020-04-12T17:41:54Z</time>
      </trkpt>
      <trkpt lat="42.5997320" lon="-6.7215530">
        <ele>484.8</ele>
        <time>2020-04-12T17:41:56Z</time>
      </trkpt>
      <trkpt lat="42.5997430" lon="-6.7217210">
        <ele>485.0</ele>
        <time>2020-04-12T17:41:58Z</time>
      </trkpt>
      <trkpt lat="42.5997670" lon="-6.7221150">
        <ele>485.4</ele>
        <time>2020-04-12T17:42:00Z</time>
      </trkpt>
      <trkpt lat="42.5997280" lon="-6.7222920">
        <ele>485.3</ele>
        <time>2020-04-12T17:42:02Z</time>
      </trkpt>
      <trkpt lat="42.5997250" lon="-6.7224620">
        <ele>485.1</ele>
        <time>2020-04-12T17:42:04Z</time>
      </trkpt>
      <trkpt lat="42.5997260" lon="-6.7227770">
        <ele>484.8</ele>
        <time>2020-04-12T17:42:06Z</time>
      </trkpt>
      <trkpt lat="42.5997490" lon="-6.7229530">
        <ele>484.8</ele>
        <time>2020-04-12T17:42:08Z</time>
      </trkpt>
      <trkpt lat="42.5997730" lon="-6.7231320">
        <ele>484.7</ele>
        <time>2020-04-12T17:42:10Z</time>
      </trkpt>
      <trkpt lat="42.5997970" lon="-6.7233130">
        <ele>484.7</ele>
        <time>2020-04-12T17:42:12Z</time>
      </trkpt>
      <trkpt lat="42.5998510" lon="-6.7237570">
        <ele>484.5</ele>
        <time>2020-04-12T17:42:14Z</time>
      </trkpt>
      <trkpt lat="42.5998580" lon="-6.7239420">
        <ele>484.3</ele>
        <time>2020-04-12T17:42:16Z</time>
      </trkpt>
      <trkpt lat="42.5998640" lon="-6.7241240">
        <ele>484.0</ele>
        <time>2020-04-12T17:42:18Z</time>
      </trkpt>
      <trkpt lat="42.5998630" lon="-6.7244550">
        <ele>483.6</ele>
        <time>2020-04-12T17:42:20Z</time>
      </trkpt>
      <trkpt lat="42.5998510" lon="-6.7247470">
        <ele>483.0</ele>
        <time>2020-04-12T17:42:22Z</time>
      </trkpt>
      <trkpt lat="42.5998550" lon="-6.7249780">
        <ele>482.7</ele>
        <time>2020-04-12T17:42:24Z</time>
      </trkpt>
      <trkpt lat="42.5998260" lon="-6.7252280">
        <ele>482.4</ele>
        <time>2020-04-12T17:42:26Z</time>
      </trkpt>
      <trkpt lat="42.5997880" lon="-6.7254010">
        <ele>482.2</ele>
        <time>2020-04-12T17:42:28Z</time>
      </trkpt>
      <trkpt lat="42.5996750" lon="-6.7256490">
        <ele>481.9</ele>
        <time>2020-04-12T17:42:30Z</time>
      </trkpt>
      <trkpt lat="42.5995780" lon="-6.7258750">
        <ele>481.7</ele>
        <time>2020-04-12T17:42:32Z</time>
      </trkpt>
      <trkpt lat="42.5995780" lon="-6.7261410">
        <ele>481.2</ele>
        <time>2020-04-12T17:42:34Z</time>
      </trkpt>
      <trkpt lat="42.5996120" lon="-6.7263390">
        <ele>480.8</ele>
        <time>2020-04-12T17:42:36Z</time>
      </trkpt>
      <trkpt lat="42.5996920" lon="-6.7266380">
        <ele>480.3</ele>
        <time>2020-04-12T17:42:38Z</time>
      </trkpt>
      <trkpt lat="42.5997690" lon="-6.7268240">
        <ele>479.9</ele>
        <time>2020-04-12T17:42:40Z</time>
      </trkpt>
      <trkpt lat="42.5999060" lon="-6.7271770">
        <ele>479.5</ele>
        <time>2020-04-12T17:42:42Z</time>
      </trkpt>
      <trkpt lat="42.5999560" lon="-6.7274410">
        <ele>479.4</ele>
        <time>2020-04-12T17:42:44Z</time>
      </trkpt>
      <trkpt lat="42.5999840" lon="-6.7277800">
        <ele>479.4</ele>
        <time>2020-04-12T17:42:46Z</time>
      </trkpt>
      <trkpt lat="42.5999810" lon="-6.7280820">
        <ele>479.6</ele>
        <time>2020-04-12T17:42:48Z</time>
      </trkpt>
      <trkpt lat="42.5999850" lon="-6.7283030">
        <ele>479.7</ele>
        <time>2020-04-12T17:42:50Z</time>
      </trkpt>
      <trkpt lat="42.5999890" lon="-6.7285210">
        <ele>479.7</ele>
        <time>2020-04-12T17:42:52Z</time>
      </trkpt>
      <trkpt lat="42.5999930" lon="-6.7287380">
        <ele>479.5</ele>
        <time>2020-04-12T17:42:54Z</time>
      </trkpt>
      <trkpt lat="42.6000050" lon="-6.7292240">
        <ele>478.9</ele>
        <time>2020-04-12T17:42:56Z</time>
      </trkpt>
      <trkpt lat="42.6000130" lon="-6.7294390">
        <ele>478.3</ele>
        <time>2020-04-12T17:42:58Z</time>
      </trkpt>
      <trkpt lat="42.6000210" lon="-6.7296530">
        <ele>477.8</ele>
        <time>2020-04-12T17:43:00Z</time>
      </trkpt>
      <trkpt lat="42.6000290" lon="-6.7298670">
        <ele>477.5</ele>
        <time>2020-04-12T17:43:02Z</time>
      </trkpt>
      <trkpt lat="42.6000470" lon="-6.7303610">
        <ele>476.9</ele>
        <time>2020-04-12T17:43:04Z</time>
      </trkpt>
      <trkpt lat="42.6000550" lon="-6.7305630">
        <ele>476.6</ele>
        <time>2020-04-12T17:43:06Z</time>
      </trkpt>
      <trkpt lat="42.6000620" lon="-6.7307600">
        <ele>476.3</ele>
        <time>2020-04-12T17:43:08Z</time>
      </trkpt>
      <trkpt lat="42.6000690" lon="-6.7309530">
        <ele>476.0</ele>
        <time>2020-04-12T17:43:10Z</time>
      </trkpt>
      <trkpt lat="42.6001000" lon="-6.7314300">
        <ele>476.2</ele>
        <time>2020-04-12T17:43:12Z</time>
      </trkpt>
      <trkpt lat="42.6001510" lon="-6.7316870">
        <ele>476.3</ele>
        <time>2020-04-12T17:43:14Z</time>
      </trkpt>
      <trkpt lat="42.6001970" lon="-6.7318630">
        <ele>476.5</ele>
        <time>2020-04-12T17:43:16Z</time>
      </trkpt>
      <trkpt lat="42.6002410" lon="-6.7320330">
        <ele>476.7</ele>
        <time>2020-04-12T17:43:18Z</time>
      </trkpt>
      <trkpt lat="42.6002850" lon="-6.7322020">
        <ele>476.8</ele>
        <time>2020-04-12T17:43:20Z</time>
      </trkpt>
      <trkpt lat="42.6003920" lon="-6.7326230">
        <ele>477.0</ele>
        <time>2020-04-12T17:43:22Z</time>
      </trkpt>
      <trkpt lat="42.6004310" lon="-6.7327860">
        <ele>477.0</ele>
        <time>2020-04-12T17:43:24Z</time>
      </trkpt>
      <trkpt lat="42.6004700" lon="-6.7329490">
        <ele>477.0</ele>
        <time>2020-04-12T17:43:26Z</time>
      </trkpt>
      <trkpt lat="42.6005610" lon="-6.7333300">
        <ele>477.1</ele>
        <time>2020-04-12T17:43:28Z</time>
      </trkpt>
      <trkpt lat="42.6005990" lon="-6.7334890">
        <ele>477.1</ele>
        <time>2020-04-12T17:43:30Z</time>
      </trkpt>
      <trkpt lat="42.6006370" lon="-6.7336450">
        <ele>477.1</ele>
        <time>2020-04-12T17:43:32Z</time>
      </trkpt>
      <trkpt lat="42.6006740" lon="-6.7338020">
        <ele>477.0</ele>
        <time>2020-04-12T17:43:34Z</time>
      </trkpt>
      <trkpt lat="42.6007650" lon="-6.7341780">
        <ele>476.7</ele>
        <time>2020-04-12T17:43:36Z</time>
      </trkpt>
      <trkpt lat="42.6008060" lon="-6.7343310">
        <ele>476.8</ele>
        <time>2020-04-12T17:43:38Z</time>
      </trkpt>
      <trkpt lat="42.6008470" lon="-6.7344830">
        <ele>476.9</ele>
        <time>2020-04-12T17:43:40Z</time>
      </trkpt>
      <trkpt lat="42.6008880" lon="-6.7346350">
        <ele>476.9</ele>
        <time>2020-04-12T17:43:42Z</time>
      </trkpt>
      <trkpt lat="42.6009280" lon="-6.7347850">
        <ele>477.0</ele>
        <time>2020-04-12T17:43:44Z</time>
      </trkpt>
      <trkpt lat="42.6010360" lon="-6.7351780">
        <ele>477.1</ele>
        <time>2020-04-12T17:43:46Z</time>
      </trkpt>
      <trkpt lat="42.6010800" lon="-6.7353260">
        <ele>477.2</ele>
        <time>2020-04-12T17:43:48Z</time>
      </trkpt>
      <trkpt lat="42.6011230" lon="-6.7354730">
        <ele>477.2</ele>
        <time>2020-04-12T17:43:50Z</time>
      </trkpt>
      <trkpt lat="42.6011670" lon="-6.7356200">
        <ele>477.3</ele>
        <time>2020-04-12T17:43:52Z</time>
      </trkpt>
      <trkpt lat="42.6012100" lon="-6.7357660">
        <ele>477.5</ele>
        <time>2020-04-12T17:43:54Z</time>
      </trkpt>
      <trkpt lat="42.6013250" lon="-6.7361570">
        <ele>477.9</ele>
        <time>2020-04-12T17:43:56Z</time>
      </trkpt>
      <trkpt lat="42.6013680" lon="-6.7363000">
        <ele>478.1</ele>
        <time>2020-04-12T17:43:58Z</time>
      </trkpt>
      <trkpt lat="42.6014090" lon="-6.7364400">
        <ele>478.2</ele>
        <time>2020-04-12T17:44:00Z</time>
      </trkpt>
      <trkpt lat="42.6014510" lon="-6.7365800">
        <ele>478.4</ele>
        <time>2020-04-12T17:44:02Z</time>
      </trkpt>
      <trkpt lat="42.6015650" lon="-6.7369630">
        <ele>478.9</ele>
        <time>2020-04-12T17:44:04Z</time>
      </trkpt>
      <trkpt lat="42.6016120" lon="-6.7370970">
        <ele>479.1</ele>
        <time>2020-04-12T17:44:06Z</time>
      </trkpt>
      <trkpt lat="42.6016580" lon="-6.7372310">
        <ele>479.2</ele>
        <time>2020-04-12T17:44:08Z</time>
      </trkpt>
      <trkpt lat="42.6017520" lon="-6.7374630">
        <ele>479.3</ele>
        <time>2020-04-12T17:44:10Z</time>
      </trkpt>
      <trkpt lat="42.6018100" lon="-6.7375890">
        <ele>479.3</ele>
        <time>2020-04-12T17:44:12Z</time>
      </trkpt>
      <trkpt lat="42.6018670" lon="-6.7377130">
        <ele>479.4</ele>
        <time>2020-04-12T17:44:14Z</time>
      </trkpt>
      <trkpt lat="42.6020030" lon="-6.7380050">
        <ele>480.1</ele>
        <time>2020-04-12T17:44:16Z</time>
      </trkpt>
      <trkpt lat="42.6020680" lon="-6.7381260">
        <ele>480.4</ele>
        <time>2020-04-12T17:44:18Z</time>
      </trkpt>
      <trkpt lat="42.6021330" lon="-6.7382480">
        <ele>480.6</ele>
        <time>2020-04-12T17:44:20Z</time>
      </trkpt>
      <trkpt lat="42.6021980" lon="-6.7383690">
        <ele>480.9</ele>
        <time>2020-04-12T17:44:22Z</time>
      </trkpt>
      <trkpt lat="42.6022630" lon="-6.7384910">
        <ele>481.2</ele>
        <time>2020-04-12T17:44:24Z</time>
      </trkpt>
      <trkpt lat="42.6024500" lon="-6.7388410">
        <ele>481.8</ele>
        <time>2020-04-12T17:44:26Z</time>
      </trkpt>
      <trkpt lat="42.6025110" lon="-6.7389560">
        <ele>482.1</ele>
        <time>2020-04-12T17:44:28Z</time>
      </trkpt>
      <trkpt lat="42.6025650" lon="-6.7390600">
        <ele>482.4</ele>
        <time>2020-04-12T17:44:30Z</time>
      </trkpt>
      <trkpt lat="42.6026140" lon="-6.7391550">
        <ele>482.7</ele>
        <time>2020-04-12T17:44:32Z</time>
      </trkpt>
      <trkpt lat="42.6026590" lon="-6.7392410">
        <ele>483.1</ele>
        <time>2020-04-12T17:44:34Z</time>
      </trkpt>
      <trkpt lat="42.6027010" lon="-6.7393200">
        <ele>483.5</ele>
        <time>2020-04-12T17:44:36Z</time>
      </trkpt>
      <trkpt lat="42.6028600" lon="-6.7395190">
        <ele>483.5</ele>
        <time>2020-04-12T17:44:38Z</time>
      </trkpt>
      <trkpt lat="42.6028970" lon="-6.7395910">
        <ele>483.7</ele>
        <time>2020-04-12T17:44:40Z</time>
      </trkpt>
      <trkpt lat="42.6029320" lon="-6.7396590">
        <ele>483.8</ele>
        <time>2020-04-12T17:44:42Z</time>
      </trkpt>
      <trkpt lat="42.6029660" lon="-6.7397250">
        <ele>484.1</ele>
        <time>2020-04-12T17:44:44Z</time>
      </trkpt>
      <trkpt lat="42.6029990" lon="-6.7397900">
        <ele>484.3</ele>
        <time>2020-04-12T17:44:46Z</time>
      </trkpt>
      <trkpt lat="42.6030320" lon="-6.7398550">
        <ele>484.7</ele>
        <time>2020-04-12T17:44:48Z</time>
      </trkpt>
      <trkpt lat="42.6030650" lon="-6.7399170">
        <ele>485.0</ele>
        <time>2020-04-12T17:44:50Z</time>
      </trkpt>
      <trkpt lat="42.6030970" lon="-6.7399800">
        <ele>485.3</ele>
        <time>2020-04-12T17:44:52Z</time>
      </trkpt>
      <trkpt lat="42.6031290" lon="-6.7400420">
        <ele>485.7</ele>
        <time>2020-04-12T17:44:54Z</time>
      </trkpt>
      <trkpt lat="42.6031610" lon="-6.7401050">
        <ele>486.0</ele>
        <time>2020-04-12T17:44:56Z</time>
      </trkpt>
      <trkpt lat="42.6031930" lon="-6.7401670">
        <ele>486.3</ele>
        <time>2020-04-12T17:44:58Z</time>
      </trkpt>
      <trkpt lat="42.6033540" lon="-6.7404800">
        <ele>488.1</ele>
        <time>2020-04-12T17:45:00Z</time>
      </trkpt>
      <trkpt lat="42.6033900" lon="-6.7405510">
        <ele>488.6</ele>
        <time>2020-04-12T17:45:02Z</time>
      </trkpt>
      <trkpt lat="42.6034290" lon="-6.7406260">
        <ele>489.0</ele>
        <time>2020-04-12T17:45:04Z</time>
      </trkpt>
      <trkpt lat="42.6034690" lon="-6.7407040">
        <ele>489.6</ele>
        <time>2020-04-12T17:45:06Z</time>
      </trkpt>
      <trkpt lat="42.6035090" lon="-6.7407830">
        <ele>490.1</ele>
        <time>2020-04-12T17:45:08Z</time>
      </trkpt>
      <trkpt lat="42.6035500" lon="-6.7408620">
        <ele>490.6</ele>
        <time>2020-04-12T17:45:10Z</time>
      </trkpt>
      <trkpt lat="42.6035910" lon="-6.7409410">
        <ele>491.1</ele>
        <time>2020-04-12T17:45:12Z</time>
      </trkpt>
      <trkpt lat="42.6036320" lon="-6.7410220">
        <ele>491.6</ele>
        <time>2020-04-12T17:45:14Z</time>
      </trkpt>
      <trkpt lat="42.6036730" lon="-6.7411020">
        <ele>492.2</ele>
        <time>2020-04-12T17:45:16Z</time>
      </trkpt>
      <trkpt lat="42.6038430" lon="-6.7414320">
        <ele>494.5</ele>
        <time>2020-04-12T17:45:18Z</time>
      </trkpt>
      <trkpt lat="42.6038850" lon="-6.7415130">
        <ele>495.1</ele>
        <time>2020-04-12T17:45:20Z</time>
      </trkpt>
      <trkpt lat="42.6039260" lon="-6.7415940">
        <ele>495.7</ele>
        <time>2020-04-12T17:45:22Z</time>
      </trkpt>
      <trkpt lat="42.6039680" lon="-6.7416740">
        <ele>496.2</ele>
        <time>2020-04-12T17:45:24Z</time>
      </trkpt>
      <trkpt lat="42.6040090" lon="-6.7417540">
        <ele>496.8</ele>
        <time>2020-04-12T17:45:26Z</time>
      </trkpt>
      <trkpt lat="42.6040500" lon="-6.7418350">
        <ele>497.4</ele>
        <time>2020-04-12T17:45:28Z</time>
      </trkpt>
      <trkpt lat="42.6040910" lon="-6.7419150">
        <ele>498.0</ele>
        <time>2020-04-12T17:45:30Z</time>
      </trkpt>
      <trkpt lat="42.6041330" lon="-6.7419950">
        <ele>498.6</ele>
        <time>2020-04-12T17:45:32Z</time>
      </trkpt>
      <trkpt lat="42.6041740" lon="-6.7420760">
        <ele>499.3</ele>
        <time>2020-04-12T17:45:34Z</time>
      </trkpt>
      <trkpt lat="42.6043410" lon="-6.7424050">
        <ele>502.0</ele>
        <time>2020-04-12T17:45:36Z</time>
      </trkpt>
      <trkpt lat="42.6043750" lon="-6.7424760">
        <ele>502.5</ele>
        <time>2020-04-12T17:45:38Z</time>
      </trkpt>
      <trkpt lat="42.6044060" lon="-6.7425420">
        <ele>503.0</ele>
        <time>2020-04-12T17:45:40Z</time>
      </trkpt>
      <trkpt lat="42.6044350" lon="-6.7426040">
        <ele>503.4</ele>
        <time>2020-04-12T17:45:42Z</time>
      </trkpt>
      <trkpt lat="42.6045100" lon="-6.7427720">
        <ele>504.2</ele>
        <time>2020-04-12T17:45:44Z</time>
      </trkpt>
      <trkpt lat="42.6045310" lon="-6.7428350">
        <ele>504.5</ele>
        <time>2020-04-12T17:45:46Z</time>
      </trkpt>
      <trkpt lat="42.6045510" lon="-6.7428980">
        <ele>504.8</ele>
        <time>2020-04-12T17:45:48Z</time>
      </trkpt>
      <trkpt lat="42.6045710" lon="-6.7429600">
        <ele>505.2</ele>
        <time>2020-04-12T17:45:50Z</time>
      </trkpt>
      <trkpt lat="42.6046090" lon="-6.7431040">
        <ele>506.2</ele>
        <time>2020-04-12T17:45:52Z</time>
      </trkpt>
      <trkpt lat="42.6046200" lon="-6.7431680">
        <ele>506.7</ele>
        <time>2020-04-12T17:45:54Z</time>
      </trkpt>
      <trkpt lat="42.6046310" lon="-6.7432320">
        <ele>507.2</ele>
        <time>2020-04-12T17:45:56Z</time>
      </trkpt>
      <trkpt lat="42.6046420" lon="-6.7432960">
        <ele>507.7</ele>
        <time>2020-04-12T17:45:58Z</time>
      </trkpt>
      <trkpt lat="42.6046530" lon="-6.7433610">
        <ele>508.1</ele>
        <time>2020-04-12T17:46:00Z</time>
      </trkpt>
      <trkpt lat="42.6046650" lon="-6.7434250">
        <ele>508.5</ele>
        <time>2020-04-12T17:46:02Z</time>
      </trkpt>
      <trkpt lat="42.6046760" lon="-6.7434890">
        <ele>509.0</ele>
        <time>2020-04-12T17:46:04Z</time>
      </trkpt>
      <trkpt lat="42.6046870" lon="-6.7435520">
        <ele>509.4</ele>
        <time>2020-04-12T17:46:06Z</time>
      </trkpt>
      <trkpt lat="42.6046970" lon="-6.7436160">
        <ele>509.8</ele>
        <time>2020-04-12T17:46:08Z</time>
      </trkpt>
      <trkpt lat="42.6047090" lon="-6.7436800">
        <ele>510.2</ele>
        <time>2020-04-12T17:46:10Z</time>
      </trkpt>
      <trkpt lat="42.6047200" lon="-6.7437450">
        <ele>510.6</ele>
        <time>2020-04-12T17:46:12Z</time>
      </trkpt>
      <trkpt lat="42.6047760" lon="-6.7440700">
        <ele>512.6</ele>
        <time>2020-04-12T17:46:14Z</time>
      </trkpt>
      <trkpt lat="42.6047890" lon="-6.7441450">
        <ele>513.1</ele>
        <time>2020-04-12T17:46:16Z</time>
      </trkpt>
      <trkpt lat="42.6048020" lon="-6.7442250">
        <ele>513.6</ele>
        <time>2020-04-12T17:46:18Z</time>
      </trkpt>
      <trkpt lat="42.6048160" lon="-6.7443050">
        <ele>514.1</ele>
        <time>2020-04-12T17:46:20Z</time>
      </trkpt>
      <trkpt lat="42.6048300" lon="-6.7443880">
        <ele>514.5</ele>
        <time>2020-04-12T17:46:22Z</time>
      </trkpt>
      <trkpt lat="42.6048450" lon="-6.7444710">
        <ele>515.0</ele>
        <time>2020-04-12T17:46:24Z</time>
      </trkpt>
      <trkpt lat="42.6048590" lon="-6.7445540">
        <ele>515.4</ele>
        <time>2020-04-12T17:46:26Z</time>
      </trkpt>
      <trkpt lat="42.6048730" lon="-6.7446370">
        <ele>515.8</ele>
        <time>2020-04-12T17:46:28Z</time>
      </trkpt>
      <trkpt lat="42.6048880" lon="-6.7447210">
        <ele>516.2</ele>
        <time>2020-04-12T17:46:30Z</time>
      </trkpt>
      <trkpt lat="42.6049470" lon="-6.7450640">
        <ele>517.8</ele>
        <time>2020-04-12T17:46:32Z</time>
      </trkpt>
      <trkpt lat="42.6049610" lon="-6.7451470">
        <ele>518.1</ele>
        <time>2020-04-12T17:46:34Z</time>
      </trkpt>
      <trkpt lat="42.6049760" lon="-6.7452310">
        <ele>518.5</ele>
        <time>2020-04-12T17:46:36Z</time>
      </trkpt>
      <trkpt lat="42.6049900" lon="-6.7453140">
        <ele>518.9</ele>
        <time>2020-04-12T17:46:38Z</time>
      </trkpt>
      <trkpt lat="42.6050050" lon="-6.7453980">
        <ele>519.3</ele>
        <time>2020-04-12T17:46:40Z</time>
      </trkpt>
      <trkpt lat="42.6050190" lon="-6.7454830">
        <ele>519.8</ele>
        <time>2020-04-12T17:46:42Z</time>
      </trkpt>
      <trkpt lat="42.6050340" lon="-6.7455680">
        <ele>520.2</ele>
        <time>2020-04-12T17:46:44Z</time>
      </trkpt>
      <trkpt lat="42.6050480" lon="-6.7456520">
        <ele>520.6</ele>
        <time>2020-04-12T17:46:46Z</time>
      </trkpt>
      <trkpt lat="42.6050630" lon="-6.7457360">
        <ele>520.9</ele>
        <time>2020-04-12T17:46:48Z</time>
      </trkpt>
      <trkpt lat="42.6051210" lon="-6.7460800">
        <ele>522.0</ele>
        <time>2020-04-12T17:46:50Z</time>
      </trkpt>
      <trkpt lat="42.6051340" lon="-6.7461620">
        <ele>522.1</ele>
        <time>2020-04-12T17:46:52Z</time>
      </trkpt>
      <trkpt lat="42.6051470" lon="-6.7462430">
        <ele>522.3</ele>
        <time>2020-04-12T17:46:54Z</time>
      </trkpt>
      <trkpt lat="42.6051600" lon="-6.7463230">
        <ele>522.6</ele>
        <time>2020-04-12T17:46:56Z</time>
      </trkpt>
      <trkpt lat="42.6051730" lon="-6.7464030">
        <ele>522.9</ele>
        <time>2020-04-12T17:46:58Z</time>
      </trkpt>
      <trkpt lat="42.6051850" lon="-6.7464820">
        <ele>523.3</ele>
        <time>2020-04-12T17:47:00Z</time>
      </trkpt>
      <trkpt lat="42.6051980" lon="-6.7465610">
        <ele>523.6</ele>
        <time>2020-04-12T17:47:02Z</time>
      </trkpt>
      <trkpt lat="42.6052110" lon="-6.7466410">
        <ele>524.0</ele>
        <time>2020-04-12T17:47:04Z</time>
      </trkpt>
      <trkpt lat="42.6052240" lon="-6.7467200">
        <ele>524.4</ele>
        <time>2020-04-12T17:47:06Z</time>
      </trkpt>
      <trkpt lat="42.6052360" lon="-6.7467990">
        <ele>524.8</ele>
        <time>2020-04-12T17:47:08Z</time>
      </trkpt>
      <trkpt lat="42.6052980" lon="-6.7471870">
        <ele>527.1</ele>
        <time>2020-04-12T17:47:10Z</time>
      </trkpt>
      <trkpt lat="42.6053110" lon="-6.7472660">
        <ele>527.6</ele>
        <time>2020-04-12T17:47:12Z</time>
      </trkpt>
      <trkpt lat="42.6053240" lon="-6.7473450">
        <ele>528.1</ele>
        <time>2020-04-12T17:47:14Z</time>
      </trkpt>
      <trkpt lat="42.6053360" lon="-6.7474240">
        <ele>528.6</ele>
        <time>2020-04-12T17:47:16Z</time>
      </trkpt>
      <trkpt lat="42.6053490" lon="-6.7475030">
        <ele>529.1</ele>
        <time>2020-04-12T17:47:18Z</time>
      </trkpt>
      <trkpt lat="42.6053610" lon="-6.7475810">
        <ele>529.6</ele>
        <time>2020-04-12T17:47:20Z</time>
      </trkpt>
      <trkpt lat="42.6053740" lon="-6.7476590">
        <ele>530.1</ele>
        <time>2020-04-12T17:47:22Z</time>
      </trkpt>
      <trkpt lat="42.6053860" lon="-6.7477380">
        <ele>530.6</ele>
        <time>2020-04-12T17:47:24Z</time>
      </trkpt>
      <trkpt lat="42.6053990" lon="-6.7478170">
        <ele>531.0</ele>
        <time>2020-04-12T17:47:26Z</time>
      </trkpt>
      <trkpt lat="42.6054120" lon="-6.7478960">
        <ele>531.5</ele>
        <time>2020-04-12T17:47:28Z</time>
      </trkpt>
      <trkpt lat="42.6054240" lon="-6.7479740">
        <ele>532.0</ele>
        <time>2020-04-12T17:47:30Z</time>
      </trkpt>
      <trkpt lat="42.6054860" lon="-6.7483620">
        <ele>534.1</ele>
        <time>2020-04-12T17:47:32Z</time>
      </trkpt>
      <trkpt lat="42.6055000" lon="-6.7484460">
        <ele>534.5</ele>
        <time>2020-04-12T17:47:34Z</time>
      </trkpt>
      <trkpt lat="42.6055140" lon="-6.7485390">
        <ele>534.9</ele>
        <time>2020-04-12T17:47:36Z</time>
      </trkpt>
      <trkpt lat="42.6055300" lon="-6.7486360">
        <ele>535.4</ele>
        <time>2020-04-12T17:47:38Z</time>
      </trkpt>
      <trkpt lat="42.6055460" lon="-6.7487360">
        <ele>535.7</ele>
        <time>2020-04-12T17:47:40Z</time>
      </trkpt>
      <trkpt lat="42.6055620" lon="-6.7488370">
        <ele>536.1</ele>
        <time>2020-04-12T17:47:42Z</time>
      </trkpt>
      <trkpt lat="42.6055780" lon="-6.7489380">
        <ele>536.3</ele>
        <time>2020-04-12T17:47:44Z</time>
      </trkpt>
      <trkpt lat="42.6055950" lon="-6.7490410">
        <ele>536.5</ele>
        <time>2020-04-12T17:47:46Z</time>
      </trkpt>
      <trkpt lat="42.6056110" lon="-6.7491440">
        <ele>536.5</ele>
        <time>2020-04-12T17:47:48Z</time>
      </trkpt>
      <trkpt lat="42.6056770" lon="-6.7495570">
        <ele>537.7</ele>
        <time>2020-04-12T17:47:50Z</time>
      </trkpt>
      <trkpt lat="42.6056940" lon="-6.7496590">
        <ele>538.2</ele>
        <time>2020-04-12T17:47:52Z</time>
      </trkpt>
      <trkpt lat="42.6057100" lon="-6.7497620">
        <ele>538.7</ele>
        <time>2020-04-12T17:47:54Z</time>
      </trkpt>
      <trkpt lat="42.6057270" lon="-6.7498650">
        <ele>539.2</ele>
        <time>2020-04-12T17:47:56Z</time>
      </trkpt>
      <trkpt lat="42.6057430" lon="-6.7499680">
        <ele>539.7</ele>
        <time>2020-04-12T17:47:58Z</time>
      </trkpt>
      <trkpt lat="42.6057590" lon="-6.7500710">
        <ele>540.2</ele>
        <time>2020-04-12T17:48:00Z</time>
      </trkpt>
      <trkpt lat="42.6057760" lon="-6.7501740">
        <ele>540.7</ele>
        <time>2020-04-12T17:48:02Z</time>
      </trkpt>
      <trkpt lat="42.6057930" lon="-6.7502780">
        <ele>541.2</ele>
        <time>2020-04-12T17:48:04Z</time>
      </trkpt>
      <trkpt lat="42.6058090" lon="-6.7503810">
        <ele>541.6</ele>
        <time>2020-04-12T17:48:06Z</time>
      </trkpt>
      <trkpt lat="42.6058540" lon="-6.7507930">
        <ele>543.0</ele>
        <time>2020-04-12T17:48:08Z</time>
      </trkpt>
      <trkpt lat="42.6058570" lon="-6.7509300">
        <ele>543.3</ele>
        <time>2020-04-12T17:48:10Z</time>
      </trkpt>
      <trkpt lat="42.6058660" lon="-6.7510230">
        <ele>543.5</ele>
        <time>2020-04-12T17:48:12Z</time>
      </trkpt>
      <trkpt lat="42.6058740" lon="-6.7511140">
        <ele>543.8</ele>
        <time>2020-04-12T17:48:14Z</time>
      </trkpt>
      <trkpt lat="42.6058830" lon="-6.7512020">
        <ele>544.1</ele>
        <time>2020-04-12T17:48:16Z</time>
      </trkpt>
      <trkpt lat="42.6058910" lon="-6.7512890">
        <ele>544.5</ele>
        <time>2020-04-12T17:48:18Z</time>
      </trkpt>
      <trkpt lat="42.6058980" lon="-6.7513740">
        <ele>544.8</ele>
        <time>2020-04-12T17:48:20Z</time>
      </trkpt>
      <trkpt lat="42.6059260" lon="-6.7516720">
        <ele>546.2</ele>
        <time>2020-04-12T17:48:22Z</time>
      </trkpt>
      <trkpt lat="42.6059340" lon="-6.7517560">
        <ele>546.6</ele>
        <time>2020-04-12T17:48:24Z</time>
      </trkpt>
      <trkpt lat="42.6059420" lon="-6.7518400">
        <ele>547.0</ele>
        <time>2020-04-12T17:48:26Z</time>
      </trkpt>
      <trkpt lat="42.6059490" lon="-6.7519230">
        <ele>547.4</ele>
        <time>2020-04-12T17:48:28Z</time>
      </trkpt>
      <trkpt lat="42.6059570" lon="-6.7520060">
        <ele>547.8</ele>
        <time>2020-04-12T17:48:30Z</time>
      </trkpt>
      <trkpt lat="42.6059650" lon="-6.7520890">
        <ele>548.2</ele>
        <time>2020-04-12T17:48:32Z</time>
      </trkpt>
      <trkpt lat="42.6059720" lon="-6.7521710">
        <ele>548.6</ele>
        <time>2020-04-12T17:48:34Z</time>
      </trkpt>
      <trkpt lat="42.6059800" lon="-6.7522540">
        <ele>549.0</ele>
        <time>2020-04-12T17:48:36Z</time>
      </trkpt>
      <trkpt lat="42.6060060" lon="-6.7525500">
        <ele>549.9</ele>
        <time>2020-04-12T17:48:38Z</time>
      </trkpt>
      <trkpt lat="42.6060130" lon="-6.7526340">
        <ele>550.0</ele>
        <time>2020-04-12T17:48:40Z</time>
      </trkpt>
      <trkpt lat="42.6060190" lon="-6.7527170">
        <ele>550.2</ele>
        <time>2020-04-12T17:48:42Z</time>
      </trkpt>
      <trkpt lat="42.6060250" lon="-6.7528000">
        <ele>550.4</ele>
        <time>2020-04-12T17:48:44Z</time>
      </trkpt>
      <trkpt lat="42.6060320" lon="-6.7528830">
        <ele>550.8</ele>
        <time>2020-04-12T17:48:46Z</time>
      </trkpt>
      <trkpt lat="42.6060380" lon="-6.7529660">
        <ele>551.3</ele>
        <time>2020-04-12T17:48:48Z</time>
      </trkpt>
      <trkpt lat="42.6060450" lon="-6.7530490">
        <ele>551.8</ele>
        <time>2020-04-12T17:48:50Z</time>
      </trkpt>
      <trkpt lat="42.6060510" lon="-6.7531320">
        <ele>552.3</ele>
        <time>2020-04-12T17:48:52Z</time>
      </trkpt>
      <trkpt lat="42.6060760" lon="-6.7534490">
        <ele>554.3</ele>
        <time>2020-04-12T17:48:54Z</time>
      </trkpt>
      <trkpt lat="42.6060810" lon="-6.7535210">
        <ele>554.8</ele>
        <time>2020-04-12T17:48:56Z</time>
      </trkpt>
      <trkpt lat="42.6060870" lon="-6.7535890">
        <ele>555.3</ele>
        <time>2020-04-12T17:48:58Z</time>
      </trkpt>
      <trkpt lat="42.6060920" lon="-6.7536550">
        <ele>555.7</ele>
        <time>2020-04-12T17:49:00Z</time>
      </trkpt>
      <trkpt lat="42.6060970" lon="-6.7537180">
        <ele>556.1</ele>
        <time>2020-04-12T17:49:02Z</time>
      </trkpt>
      <trkpt lat="42.6061010" lon="-6.7537800">
        <ele>556.6</ele>
        <time>2020-04-12T17:49:04Z</time>
      </trkpt>
      <trkpt lat="42.6061060" lon="-6.7538420">
        <ele>557.0</ele>
        <time>2020-04-12T17:49:06Z</time>
      </trkpt>
      <trkpt lat="42.6061110" lon="-6.7539040">
        <ele>557.4</ele>
        <time>2020-04-12T17:49:08Z</time>
      </trkpt>
      <trkpt lat="42.6061160" lon="-6.7539650">
        <ele>557.8</ele>
        <time>2020-04-12T17:49:10Z</time>
      </trkpt>
      <trkpt lat="42.6061200" lon="-6.7540270">
        <ele>558.2</ele>
        <time>2020-04-12T17:49:12Z</time>
      </trkpt>
      <trkpt lat="42.6061420" lon="-6.7543260">
        <ele>560.1</ele>
        <time>2020-04-12T17:49:14Z</time>
      </trkpt>
      <trkpt lat="42.6061450" lon="-6.7543870">
        <ele>560.5</ele>
        <time>2020-04-12T17:49:16Z</time>
      </trkpt>
      <trkpt lat="42.6061480" lon="-6.7544490">
        <ele>560.9</ele>
        <time>2020-04-12T17:49:18Z</time>
      </trkpt>
      <trkpt lat="42.6061510" lon="-6.7545110">
        <ele>561.3</ele>
        <time>2020-04-12T17:49:20Z</time>
      </trkpt>
      <trkpt lat="42.6061540" lon="-6.7545730">
        <ele>561.7</ele>
        <time>2020-04-12T17:49:22Z</time>
      </trkpt>
      <trkpt lat="42.6061570" lon="-6.7546340">
        <ele>562.0</ele>
        <time>2020-04-12T17:49:24Z</time>
      </trkpt>
      <trkpt lat="42.6061600" lon="-6.7546960">
        <ele>562.3</ele>
        <time>2020-04-12T17:49:26Z</time>
      </trkpt>
      <trkpt lat="42.6061690" lon="-6.7549240">
        <ele>563.2</ele>
        <time>2020-04-12T17:49:28Z</time>
      </trkpt>
      <trkpt lat="42.6061640" lon="-6.7550050">
        <ele>563.4</ele>
        <time>2020-04-12T17:49:30Z</time>
      </trkpt>
      <trkpt lat="42.6061570" lon="-6.7551080">
        <ele>563.9</ele>
        <time>2020-04-12T17:49:32Z</time>
      </trkpt>
      <trkpt lat="42.6061490" lon="-6.7552270">
        <ele>564.5</ele>
        <time>2020-04-12T17:49:34Z</time>
      </trkpt>
      <trkpt lat="42.6061230" lon="-6.7554770">
        <ele>565.9</ele>
        <time>2020-04-12T17:49:36Z</time>
      </trkpt>
      <trkpt lat="42.6060890" lon="-6.7557030">
        <ele>567.0</ele>
        <time>2020-04-12T17:49:38Z</time>
      </trkpt>
      <trkpt lat="42.6060570" lon="-6.7558430">
        <ele>567.2</ele>
        <time>2020-04-12T17:49:40Z</time>
      </trkpt>
      <trkpt lat="42.6060230" lon="-6.7559890">
        <ele>567.5</ele>
        <time>2020-04-12T17:49:42Z</time>
      </trkpt>
      <trkpt lat="42.6059870" lon="-6.7561390">
        <ele>567.8</ele>
        <time>2020-04-12T17:49:44Z</time>
      </trkpt>
      <trkpt lat="42.6059510" lon="-6.7562930">
        <ele>567.9</ele>
        <time>2020-04-12T17:49:46Z</time>
      </trkpt>
      <trkpt lat="42.6059150" lon="-6.7564510">
        <ele>567.6</ele>
        <time>2020-04-12T17:49:48Z</time>
      </trkpt>
      <trkpt lat="42.6058070" lon="-6.7569140">
        <ele>565.9</ele>
        <time>2020-04-12T17:49:50Z</time>
      </trkpt>
      <trkpt lat="42.6057650" lon="-6.7570910">
        <ele>565.0</ele>
        <time>2020-04-12T17:49:52Z</time>
      </trkpt>
      <trkpt lat="42.6057190" lon="-6.7572870">
        <ele>564.1</ele>
        <time>2020-04-12T17:49:54Z</time>
      </trkpt>
      <trkpt lat="42.6056700" lon="-6.7574980">
        <ele>563.0</ele>
        <time>2020-04-12T17:49:56Z</time>
      </trkpt>
      <trkpt lat="42.6055490" lon="-6.7580190">
        <ele>560.4</ele>
        <time>2020-04-12T17:49:58Z</time>
      </trkpt>
      <trkpt lat="42.6054970" lon="-6.7582550">
        <ele>559.3</ele>
        <time>2020-04-12T17:50:00Z</time>
      </trkpt>
      <trkpt lat="42.6054430" lon="-6.7585000">
        <ele>558.1</ele>
        <time>2020-04-12T17:50:02Z</time>
      </trkpt>
      <trkpt lat="42.6053270" lon="-6.7590300">
        <ele>555.5</ele>
        <time>2020-04-12T17:50:04Z</time>
      </trkpt>
      <trkpt lat="42.6052690" lon="-6.7592900">
        <ele>554.2</ele>
        <time>2020-04-12T17:50:06Z</time>
      </trkpt>
      <trkpt lat="42.6052100" lon="-6.7595580">
        <ele>552.8</ele>
        <time>2020-04-12T17:50:08Z</time>
      </trkpt>
      <trkpt lat="42.6050870" lon="-6.7601070">
        <ele>549.8</ele>
        <time>2020-04-12T17:50:10Z</time>
      </trkpt>
      <trkpt lat="42.6050100" lon="-6.7603790">
        <ele>548.4</ele>
        <time>2020-04-12T17:50:12Z</time>
      </trkpt>
      <trkpt lat="42.6048840" lon="-6.7607890">
        <ele>546.4</ele>
        <time>2020-04-12T17:50:14Z</time>
      </trkpt>
      <trkpt lat="42.6047920" lon="-6.7610640">
        <ele>544.9</ele>
        <time>2020-04-12T17:50:16Z</time>
      </trkpt>
      <trkpt lat="42.6046410" lon="-6.7615180">
        <ele>542.2</ele>
        <time>2020-04-12T17:50:18Z</time>
      </trkpt>
      <trkpt lat="42.6044930" lon="-6.7619750">
        <ele>539.5</ele>
        <time>2020-04-12T17:50:20Z</time>
      </trkpt>
      <trkpt lat="42.6044130" lon="-6.7622730">
        <ele>537.9</ele>
        <time>2020-04-12T17:50:22Z</time>
      </trkpt>
      <trkpt lat="42.6043470" lon="-6.7627390">
        <ele>535.2</ele>
        <time>2020-04-12T17:50:24Z</time>
      </trkpt>
      <trkpt lat="42.6043440" lon="-6.7631790">
        <ele>532.5</ele>
        <time>2020-04-12T17:50:26Z</time>
      </trkpt>
      <trkpt lat="42.6043500" lon="-6.7637120">
        <ele>529.2</ele>
        <time>2020-04-12T17:50:28Z</time>
      </trkpt>
      <trkpt lat="42.6043540" lon="-6.7640360">
        <ele>527.6</ele>
        <time>2020-04-12T17:50:30Z</time>
      </trkpt>
      <trkpt lat="42.6043560" lon="-6.7645500">
        <ele>525.5</ele>
        <time>2020-04-12T17:50:32Z</time>
      </trkpt>
      <trkpt lat="42.6043260" lon="-6.7649380">
        <ele>524.0</ele>
        <time>2020-04-12T17:50:34Z</time>
      </trkpt>
      <trkpt lat="42.6042670" lon="-6.7653260">
        <ele>522.9</ele>
        <time>2020-04-12T17:50:36Z</time>
      </trkpt>
      <trkpt lat="42.6041840" lon="-6.7656670">
        <ele>522.4</ele>
        <time>2020-04-12T17:50:38Z</time>
      </trkpt>
      <trkpt lat="42.6040890" lon="-6.7659420">
        <ele>521.9</ele>
        <time>2020-04-12T17:50:40Z</time>
      </trkpt>
      <trkpt lat="42.6040030" lon="-6.7661330">
        <ele>521.6</ele>
        <time>2020-04-12T17:50:42Z</time>
      </trkpt>
      <trkpt lat="42.6038600" lon="-6.7664100">
        <ele>521.1</ele>
        <time>2020-04-12T17:50:44Z</time>
      </trkpt>
      <trkpt lat="42.6037720" lon="-6.7665650">
        <ele>520.8</ele>
        <time>2020-04-12T17:50:46Z</time>
      </trkpt>
      <trkpt lat="42.6036910" lon="-6.7667100">
        <ele>520.8</ele>
        <time>2020-04-12T17:50:48Z</time>
      </trkpt>
      <trkpt lat="42.6036150" lon="-6.7668450">
        <ele>520.7</ele>
        <time>2020-04-12T17:50:50Z</time>
      </trkpt>
      <trkpt lat="42.6033990" lon="-6.7672290">
        <ele>520.7</ele>
        <time>2020-04-12T17:50:52Z</time>
      </trkpt>
      <trkpt lat="42.6033290" lon="-6.7673540">
        <ele>520.7</ele>
        <time>2020-04-12T17:50:54Z</time>
      </trkpt>
      <trkpt lat="42.6032640" lon="-6.7674700">
        <ele>520.7</ele>
        <time>2020-04-12T17:50:56Z</time>
      </trkpt>
      <trkpt lat="42.6032010" lon="-6.7675810">
        <ele>520.7</ele>
        <time>2020-04-12T17:50:58Z</time>
      </trkpt>
      <trkpt lat="42.6031420" lon="-6.7676860">
        <ele>520.6</ele>
        <time>2020-04-12T17:51:00Z</time>
      </trkpt>
      <trkpt lat="42.6030860" lon="-6.7677860">
        <ele>520.6</ele>
        <time>2020-04-12T17:51:02Z</time>
      </trkpt>
      <trkpt lat="42.6030290" lon="-6.7678870">
        <ele>520.5</ele>
        <time>2020-04-12T17:51:04Z</time>
      </trkpt>
      <trkpt lat="42.6028250" lon="-6.7682330">
        <ele>520.7</ele>
        <time>2020-04-12T17:51:06Z</time>
      </trkpt>
      <trkpt lat="42.6027300" lon="-6.7683650">
        <ele>521.0</ele>
        <time>2020-04-12T17:51:08Z</time>
      </trkpt>
      <trkpt lat="42.6026670" lon="-6.7684430">
        <ele>521.1</ele>
        <time>2020-04-12T17:51:10Z</time>
      </trkpt>
      <trkpt lat="42.6026110" lon="-6.7685140">
        <ele>521.3</ele>
        <time>2020-04-12T17:51:12Z</time>
      </trkpt>
      <trkpt lat="42.6025580" lon="-6.7685800">
        <ele>521.5</ele>
        <time>2020-04-12T17:51:14Z</time>
      </trkpt>
      <trkpt lat="42.6025090" lon="-6.7686420">
        <ele>521.8</ele>
        <time>2020-04-12T17:51:16Z</time>
      </trkpt>
      <trkpt lat="42.6024620" lon="-6.7687000">
        <ele>522.0</ele>
        <time>2020-04-12T17:51:18Z</time>
      </trkpt>
      <trkpt lat="42.6024170" lon="-6.7687560">
        <ele>522.3</ele>
        <time>2020-04-12T17:51:20Z</time>
      </trkpt>
      <trkpt lat="42.6023740" lon="-6.7688100">
        <ele>522.6</ele>
        <time>2020-04-12T17:51:22Z</time>
      </trkpt>
      <trkpt lat="42.6023320" lon="-6.7688620">
        <ele>522.9</ele>
        <time>2020-04-12T17:51:24Z</time>
      </trkpt>
      <trkpt lat="42.6021330" lon="-6.7691110">
        <ele>524.8</ele>
        <time>2020-04-12T17:51:26Z</time>
      </trkpt>
      <trkpt lat="42.6020920" lon="-6.7691620">
        <ele>525.2</ele>
        <time>2020-04-12T17:51:28Z</time>
      </trkpt>
      <trkpt lat="42.6020530" lon="-6.7692120">
        <ele>525.6</ele>
        <time>2020-04-12T17:51:30Z</time>
      </trkpt>
      <trkpt lat="42.6020130" lon="-6.7692620">
        <ele>526.1</ele>
        <time>2020-04-12T17:51:32Z</time>
      </trkpt>
      <trkpt lat="42.6019730" lon="-6.7693110">
        <ele>526.5</ele>
        <time>2020-04-12T17:51:34Z</time>
      </trkpt>
      <trkpt lat="42.6019340" lon="-6.7693600">
        <ele>526.9</ele>
        <time>2020-04-12T17:51:36Z</time>
      </trkpt>
      <trkpt lat="42.6018940" lon="-6.7694090">
        <ele>527.4</ele>
        <time>2020-04-12T17:51:38Z</time>
      </trkpt>
      <trkpt lat="42.6018550" lon="-6.7694590">
        <ele>527.8</ele>
        <time>2020-04-12T17:51:40Z</time>
      </trkpt>
      <trkpt lat="42.6018150" lon="-6.7695080">
        <ele>528.2</ele>
        <time>2020-04-12T17:51:42Z</time>
      </trkpt>
      <trkpt lat="42.6017760" lon="-6.7695580">
        <ele>528.6</ele>
        <time>2020-04-12T17:51:44Z</time>
      </trkpt>
      <trkpt lat="42.6017360" lon="-6.7696070">
        <ele>529.0</ele>
        <time>2020-04-12T17:51:46Z</time>
      </trkpt>
      <trkpt lat="42.6015400" lon="-6.7698560">
        <ele>531.0</ele>
        <time>2020-04-12T17:51:48Z</time>
      </trkpt>
      <trkpt lat="42.6014970" lon="-6.7699250">
        <ele>531.5</ele>
        <time>2020-04-12T17:51:50Z</time>
      </trkpt>
      <trkpt lat="42.6014150" lon="-6.7700630">
        <ele>532.4</ele>
        <time>2020-04-12T17:51:52Z</time>
      </trkpt>
      <trkpt lat="42.6013590" lon="-6.7702120">
        <ele>533.1</ele>
        <time>2020-04-12T17:51:54Z</time>
      </trkpt>
      <trkpt lat="42.6013200" lon="-6.7703800">
        <ele>533.8</ele>
        <time>2020-04-12T17:51:56Z</time>
      </trkpt>
      <trkpt lat="42.6013120" lon="-6.7705180">
        <ele>534.2</ele>
        <time>2020-04-12T17:51:58Z</time>
      </trkpt>
      <trkpt lat="42.6013020" lon="-6.7707540">
        <ele>534.8</ele>
        <time>2020-04-12T17:52:00Z</time>
      </trkpt>
      <trkpt lat="42.6013130" lon="-6.7709030">
        <ele>535.0</ele>
        <time>2020-04-12T17:52:02Z</time>
      </trkpt>
      <trkpt lat="42.6013240" lon="-6.7710590">
        <ele>535.2</ele>
        <time>2020-04-12T17:52:04Z</time>
      </trkpt>
      <trkpt lat="42.6013360" lon="-6.7712190">
        <ele>535.2</ele>
        <time>2020-04-12T17:52:06Z</time>
      </trkpt>
      <trkpt lat="42.6013480" lon="-6.7713840">
        <ele>535.3</ele>
        <time>2020-04-12T17:52:08Z</time>
      </trkpt>
      <trkpt lat="42.6013790" lon="-6.7718070">
        <ele>534.8</ele>
        <time>2020-04-12T17:52:10Z</time>
      </trkpt>
      <trkpt lat="42.6013930" lon="-6.7719940">
        <ele>534.5</ele>
        <time>2020-04-12T17:52:12Z</time>
      </trkpt>
      <trkpt lat="42.6014080" lon="-6.7721930">
        <ele>534.1</ele>
        <time>2020-04-12T17:52:14Z</time>
      </trkpt>
      <trkpt lat="42.6014440" lon="-6.7726570">
        <ele>532.9</ele>
        <time>2020-04-12T17:52:16Z</time>
      </trkpt>
      <trkpt lat="42.6014820" lon="-6.7728770">
        <ele>532.3</ele>
        <time>2020-04-12T17:52:18Z</time>
      </trkpt>
      <trkpt lat="42.6015210" lon="-6.7731060">
        <ele>531.5</ele>
        <time>2020-04-12T17:52:20Z</time>
      </trkpt>
      <trkpt lat="42.6015950" lon="-6.7735420">
        <ele>529.8</ele>
        <time>2020-04-12T17:52:22Z</time>
      </trkpt>
      <trkpt lat="42.6016350" lon="-6.7737790">
        <ele>528.8</ele>
        <time>2020-04-12T17:52:24Z</time>
      </trkpt>
      <trkpt lat="42.6017040" lon="-6.7742220">
        <ele>527.0</ele>
        <time>2020-04-12T17:52:26Z</time>
      </trkpt>
      <trkpt lat="42.6017200" lon="-6.7744690">
        <ele>526.1</ele>
        <time>2020-04-12T17:52:28Z</time>
      </trkpt>
      <trkpt lat="42.6017090" lon="-6.7748320">
        <ele>524.8</ele>
        <time>2020-04-12T17:52:30Z</time>
      </trkpt>
      <trkpt lat="42.6016600" lon="-6.7751600">
        <ele>523.8</ele>
        <time>2020-04-12T17:52:32Z</time>
      </trkpt>
      <trkpt lat="42.6015840" lon="-6.7754330">
        <ele>523.0</ele>
        <time>2020-04-12T17:52:34Z</time>
      </trkpt>
      <trkpt lat="42.6014790" lon="-6.7757330">
        <ele>522.4</ele>
        <time>2020-04-12T17:52:36Z</time>
      </trkpt>
      <trkpt lat="42.6013990" lon="-6.7759000">
        <ele>522.1</ele>
        <time>2020-04-12T17:52:38Z</time>
      </trkpt>
      <trkpt lat="42.6013220" lon="-6.7760620">
        <ele>521.9</ele>
        <time>2020-04-12T17:52:40Z</time>
      </trkpt>
      <trkpt lat="42.6012450" lon="-6.7762240">
        <ele>521.8</ele>
        <time>2020-04-12T17:52:42Z</time>
      </trkpt>
      <trkpt lat="42.6010610" lon="-6.7766120">
        <ele>522.4</ele>
        <time>2020-04-12T17:52:44Z</time>
      </trkpt>
      <trkpt lat="42.6009890" lon="-6.7767630">
        <ele>522.8</ele>
        <time>2020-04-12T17:52:46Z</time>
      </trkpt>
      <trkpt lat="42.6009240" lon="-6.7769000">
        <ele>523.2</ele>
        <time>2020-04-12T17:52:48Z</time>
      </trkpt>
      <trkpt lat="42.6008640" lon="-6.7770250">
        <ele>523.7</ele>
        <time>2020-04-12T17:52:50Z</time>
      </trkpt>
      <trkpt lat="42.6008100" lon="-6.7771400">
        <ele>524.2</ele>
        <time>2020-04-12T17:52:52Z</time>
      </trkpt>
      <trkpt lat="42.6006510" lon="-6.7774730">
        <ele>526.0</ele>
        <time>2020-04-12T17:52:54Z</time>
      </trkpt>
      <trkpt lat="42.6006050" lon="-6.7775710">
        <ele>526.5</ele>
        <time>2020-04-12T17:52:56Z</time>
      </trkpt>
      <trkpt lat="42.6005620" lon="-6.7776620">
        <ele>526.9</ele>
        <time>2020-04-12T17:52:58Z</time>
      </trkpt>
      <trkpt lat="42.6005220" lon="-6.7777460">
        <ele>527.4</ele>
        <time>2020-04-12T17:53:00Z</time>
      </trkpt>
      <trkpt lat="42.6004840" lon="-6.7778250">
        <ele>527.8</ele>
        <time>2020-04-12T17:53:02Z</time>
      </trkpt>
      <trkpt lat="42.6004490" lon="-6.7779000">
        <ele>528.2</ele>
        <time>2020-04-12T17:53:04Z</time>
      </trkpt>
      <trkpt lat="42.6004140" lon="-6.7779720">
        <ele>528.6</ele>
        <time>2020-04-12T17:53:06Z</time>
      </trkpt>
      <trkpt lat="42.6003810" lon="-6.7780410">
        <ele>529.0</ele>
        <time>2020-04-12T17:53:08Z</time>
      </trkpt>
      <trkpt lat="42.6002410" lon="-6.7783360">
        <ele>530.9</ele>
        <time>2020-04-12T17:53:10Z</time>
      </trkpt>
      <trkpt lat="42.6002110" lon="-6.7784000">
        <ele>531.2</ele>
        <time>2020-04-12T17:53:12Z</time>
      </trkpt>
      <trkpt lat="42.6001830" lon="-6.7784590">
        <ele>531.6</ele>
        <time>2020-04-12T17:53:14Z</time>
      </trkpt>
      <trkpt lat="42.6001560" lon="-6.7785150">
        <ele>531.9</ele>
        <time>2020-04-12T17:53:16Z</time>
      </trkpt>
      <trkpt lat="42.6001300" lon="-6.7785700">
        <ele>532.2</ele>
        <time>2020-04-12T17:53:18Z</time>
      </trkpt>
      <trkpt lat="42.6001040" lon="-6.7786240">
        <ele>532.5</ele>
        <time>2020-04-12T17:53:20Z</time>
      </trkpt>
      <trkpt lat="42.6000780" lon="-6.7786780">
        <ele>532.8</ele>
        <time>2020-04-12T17:53:22Z</time>
      </trkpt>
      <trkpt lat="42.6000520" lon="-6.7787350">
        <ele>533.1</ele>
        <time>2020-04-12T17:53:24Z</time>
      </trkpt>
      <trkpt lat="42.6000240" lon="-6.7787930">
        <ele>533.5</ele>
        <time>2020-04-12T17:53:26Z</time>
      </trkpt>
      <trkpt lat="42.5999960" lon="-6.7788520">
        <ele>533.8</ele>
        <time>2020-04-12T17:53:28Z</time>
      </trkpt>
      <trkpt lat="42.5999670" lon="-6.7789120">
        <ele>534.1</ele>
        <time>2020-04-12T17:53:30Z</time>
      </trkpt>
      <trkpt lat="42.5998310" lon="-6.7792000">
        <ele>535.7</ele>
        <time>2020-04-12T17:53:32Z</time>
      </trkpt>
      <trkpt lat="42.5998040" lon="-6.7792630">
        <ele>536.1</ele>
        <time>2020-04-12T17:53:34Z</time>
      </trkpt>
      <trkpt lat="42.5997760" lon="-6.7793280">
        <ele>536.4</ele>
        <time>2020-04-12T17:53:36Z</time>
      </trkpt>
      <trkpt lat="42.5997480" lon="-6.7793920">
        <ele>536.7</ele>
        <time>2020-04-12T17:53:38Z</time>
      </trkpt>
      <trkpt lat="42.5997210" lon="-6.7794560">
        <ele>536.9</ele>
        <time>2020-04-12T17:53:40Z</time>
      </trkpt>
      <trkpt lat="42.5996470" lon="-6.7796380">
        <ele>537.4</ele>
        <time>2020-04-12T17:53:42Z</time>
      </trkpt>
      <trkpt lat="42.5996350" lon="-6.7797230">
        <ele>537.5</ele>
        <time>2020-04-12T17:53:44Z</time>
      </trkpt>
      <trkpt lat="42.5996200" lon="-6.7798260">
        <ele>537.5</ele>
        <time>2020-04-12T17:53:46Z</time>
      </trkpt>
      <trkpt lat="42.5996010" lon="-6.7800360">
        <ele>537.3</ele>
        <time>2020-04-12T17:53:48Z</time>
      </trkpt>
      <trkpt lat="42.5996030" lon="-6.7801660">
        <ele>537.1</ele>
        <time>2020-04-12T17:53:50Z</time>
      </trkpt>
      <trkpt lat="42.5996060" lon="-6.7803040">
        <ele>536.8</ele>
        <time>2020-04-12T17:53:52Z</time>
      </trkpt>
      <trkpt lat="42.5996080" lon="-6.7804530">
        <ele>536.4</ele>
        <time>2020-04-12T17:53:54Z</time>
      </trkpt>
      <trkpt lat="42.5996110" lon="-6.7806080">
        <ele>536.0</ele>
        <time>2020-04-12T17:53:56Z</time>
      </trkpt>
      <trkpt lat="42.5996190" lon="-6.7810530">
        <ele>534.6</ele>
        <time>2020-04-12T17:53:58Z</time>
      </trkpt>
      <trkpt lat="42.5996220" lon="-6.7812230">
        <ele>534.1</ele>
        <time>2020-04-12T17:54:00Z</time>
      </trkpt>
      <trkpt lat="42.5996250" lon="-6.7814030">
        <ele>533.6</ele>
        <time>2020-04-12T17:54:02Z</time>
      </trkpt>
      <trkpt lat="42.5996280" lon="-6.7815910">
        <ele>533.0</ele>
        <time>2020-04-12T17:54:04Z</time>
      </trkpt>
      <trkpt lat="42.5996310" lon="-6.7817850">
        <ele>532.5</ele>
        <time>2020-04-12T17:54:06Z</time>
      </trkpt>
      <trkpt lat="42.5996400" lon="-6.7822700">
        <ele>531.3</ele>
        <time>2020-04-12T17:54:08Z</time>
      </trkpt>
      <trkpt lat="42.5996430" lon="-6.7824740">
        <ele>530.8</ele>
        <time>2020-04-12T17:54:10Z</time>
      </trkpt>
      <trkpt lat="42.5996470" lon="-6.7826820">
        <ele>530.2</ele>
        <time>2020-04-12T17:54:12Z</time>
      </trkpt>
      <trkpt lat="42.5996510" lon="-6.7828940">
        <ele>529.5</ele>
        <time>2020-04-12T17:54:14Z</time>
      </trkpt>
      <trkpt lat="42.5996590" lon="-6.7833880">
        <ele>527.7</ele>
        <time>2020-04-12T17:54:16Z</time>
      </trkpt>
      <trkpt lat="42.5996630" lon="-6.7835910">
        <ele>527.1</ele>
        <time>2020-04-12T17:54:18Z</time>
      </trkpt>
      <trkpt lat="42.5996660" lon="-6.7837860">
        <ele>526.8</ele>
        <time>2020-04-12T17:54:20Z</time>
      </trkpt>
      <trkpt lat="42.5996690" lon="-6.7839750">
        <ele>526.7</ele>
        <time>2020-04-12T17:54:22Z</time>
      </trkpt>
      <trkpt lat="42.5996770" lon="-6.7844430">
        <ele>527.1</ele>
        <time>2020-04-12T17:54:24Z</time>
      </trkpt>
      <trkpt lat="42.5996800" lon="-6.7846210">
        <ele>527.5</ele>
        <time>2020-04-12T17:54:26Z</time>
      </trkpt>
      <trkpt lat="42.5996830" lon="-6.7847950">
        <ele>528.1</ele>
        <time>2020-04-12T17:54:28Z</time>
      </trkpt>
      <trkpt lat="42.5996860" lon="-6.7849660">
        <ele>528.8</ele>
        <time>2020-04-12T17:54:30Z</time>
      </trkpt>
      <trkpt lat="42.5996940" lon="-6.7854150">
        <ele>530.8</ele>
        <time>2020-04-12T17:54:32Z</time>
      </trkpt>
      <trkpt lat="42.5996970" lon="-6.7855700">
        <ele>531.4</ele>
        <time>2020-04-12T17:54:34Z</time>
      </trkpt>
      <trkpt lat="42.5996990" lon="-6.7857160">
        <ele>532.1</ele>
        <time>2020-04-12T17:54:36Z</time>
      </trkpt>
      <trkpt lat="42.5997020" lon="-6.7858530">
        <ele>532.7</ele>
        <time>2020-04-12T17:54:38Z</time>
      </trkpt>
      <trkpt lat="42.5997040" lon="-6.7859820">
        <ele>533.3</ele>
        <time>2020-04-12T17:54:40Z</time>
      </trkpt>
      <trkpt lat="42.5997060" lon="-6.7861040">
        <ele>533.8</ele>
        <time>2020-04-12T17:54:42Z</time>
      </trkpt>
      <trkpt lat="42.5997130" lon="-6.7865040">
        <ele>535.2</ele>
        <time>2020-04-12T17:54:44Z</time>
      </trkpt>
      <trkpt lat="42.5997150" lon="-6.7866140">
        <ele>535.5</ele>
        <time>2020-04-12T17:54:46Z</time>
      </trkpt>
      <trkpt lat="42.5997160" lon="-6.7867190">
        <ele>535.7</ele>
        <time>2020-04-12T17:54:48Z</time>
      </trkpt>
      <trkpt lat="42.5997180" lon="-6.7868210">
        <ele>535.9</ele>
        <time>2020-04-12T17:54:50Z</time>
      </trkpt>
      <trkpt lat="42.5997200" lon="-6.7869200">
        <ele>536.1</ele>
        <time>2020-04-12T17:54:52Z</time>
      </trkpt>
      <trkpt lat="42.5997220" lon="-6.7870170">
        <ele>536.3</ele>
        <time>2020-04-12T17:54:54Z</time>
      </trkpt>
      <trkpt lat="42.5997230" lon="-6.7871110">
        <ele>536.4</ele>
        <time>2020-04-12T17:54:56Z</time>
      </trkpt>
      <trkpt lat="42.5997250" lon="-6.7872030">
        <ele>536.5</ele>
        <time>2020-04-12T17:54:58Z</time>
      </trkpt>
      <trkpt lat="42.5997320" lon="-6.7875820">
        <ele>536.8</ele>
        <time>2020-04-12T17:55:00Z</time>
      </trkpt>
      <trkpt lat="42.5997350" lon="-6.7876850">
        <ele>536.8</ele>
        <time>2020-04-12T17:55:02Z</time>
      </trkpt>
      <trkpt lat="42.5997370" lon="-6.7877970">
        <ele>536.8</ele>
        <time>2020-04-12T17:55:04Z</time>
      </trkpt>
      <trkpt lat="42.5997400" lon="-6.7879150">
        <ele>536.8</ele>
        <time>2020-04-12T17:55:06Z</time>
      </trkpt>
      <trkpt lat="42.5997430" lon="-6.7880400">
        <ele>536.8</ele>
        <time>2020-04-12T17:55:08Z</time>
      </trkpt>
      <trkpt lat="42.5997470" lon="-6.7881700">
        <ele>536.8</ele>
        <time>2020-04-12T17:55:10Z</time>
      </trkpt>
      <trkpt lat="42.5997570" lon="-6.7885700">
        <ele>536.7</ele>
        <time>2020-04-12T17:55:12Z</time>
      </trkpt>
      <trkpt lat="42.5997600" lon="-6.7887110">
        <ele>536.7</ele>
        <time>2020-04-12T17:55:14Z</time>
      </trkpt>
      <trkpt lat="42.5997640" lon="-6.7888550">
        <ele>536.6</ele>
        <time>2020-04-12T17:55:16Z</time>
      </trkpt>
      <trkpt lat="42.5997680" lon="-6.7890050">
        <ele>536.6</ele>
        <time>2020-04-12T17:55:18Z</time>
      </trkpt>
      <trkpt lat="42.5997720" lon="-6.7891580">
        <ele>536.6</ele>
        <time>2020-04-12T17:55:20Z</time>
      </trkpt>
      <trkpt lat="42.5997820" lon="-6.7895780">
        <ele>536.7</ele>
        <time>2020-04-12T17:55:22Z</time>
      </trkpt>
      <trkpt lat="42.5997860" lon="-6.7897490">
        <ele>536.7</ele>
        <time>2020-04-12T17:55:24Z</time>
      </trkpt>
      <trkpt lat="42.5997910" lon="-6.7899340">
        <ele>536.7</ele>
        <time>2020-04-12T17:55:26Z</time>
      </trkpt>
      <trkpt lat="42.5997960" lon="-6.7901300">
        <ele>536.7</ele>
        <time>2020-04-12T17:55:28Z</time>
      </trkpt>
      <trkpt lat="42.5998080" lon="-6.7906020">
        <ele>536.2</ele>
        <time>2020-04-12T17:55:30Z</time>
      </trkpt>
      <trkpt lat="42.5998130" lon="-6.7908200">
        <ele>535.9</ele>
        <time>2020-04-12T17:55:32Z</time>
      </trkpt>
      <trkpt lat="42.5998190" lon="-6.7910470">
        <ele>535.6</ele>
        <time>2020-04-12T17:55:34Z</time>
      </trkpt>
      <trkpt lat="42.5998310" lon="-6.7915440">
        <ele>534.7</ele>
        <time>2020-04-12T17:55:36Z</time>
      </trkpt>
      <trkpt lat="42.5998330" lon="-6.7917740">
        <ele>534.0</ele>
        <time>2020-04-12T17:55:38Z</time>
      </trkpt>
      <trkpt lat="42.5998360" lon="-6.7919960">
        <ele>533.3</ele>
        <time>2020-04-12T17:55:40Z</time>
      </trkpt>
      <trkpt lat="42.5998390" lon="-6.7922090">
        <ele>532.7</ele>
        <time>2020-04-12T17:55:42Z</time>
      </trkpt>
      <trkpt lat="42.5998450" lon="-6.7927300">
        <ele>531.4</ele>
        <time>2020-04-12T17:55:44Z</time>
      </trkpt>
      <trkpt lat="42.5998470" lon="-6.7929340">
        <ele>531.0</ele>
        <time>2020-04-12T17:55:46Z</time>
      </trkpt>
      <trkpt lat="42.5998490" lon="-6.7931330">
        <ele>530.6</ele>
        <time>2020-04-12T17:55:48Z</time>
      </trkpt>
      <trkpt lat="42.5998520" lon="-6.7933280">
        <ele>530.3</ele>
        <time>2020-04-12T17:55:50Z</time>
      </trkpt>
      <trkpt lat="42.5998540" lon="-6.7935190">
        <ele>530.1</ele>
        <time>2020-04-12T17:55:52Z</time>
      </trkpt>
      <trkpt lat="42.5998600" lon="-6.7940180">
        <ele>529.8</ele>
        <time>2020-04-12T17:55:54Z</time>
      </trkpt>
      <trkpt lat="42.5998620" lon="-6.7942030">
        <ele>529.8</ele>
        <time>2020-04-12T17:55:56Z</time>
      </trkpt>
      <trkpt lat="42.5998640" lon="-6.7943870">
        <ele>529.8</ele>
        <time>2020-04-12T17:55:58Z</time>
      </trkpt>
      <trkpt lat="42.5998670" lon="-6.7945710">
        <ele>529.8</ele>
        <time>2020-04-12T17:56:00Z</time>
      </trkpt>
      <trkpt lat="42.5998720" lon="-6.7950670">
        <ele>529.6</ele>
        <time>2020-04-12T17:56:02Z</time>
      </trkpt>
      <trkpt lat="42.5998750" lon="-6.7952510">
        <ele>529.5</ele>
        <time>2020-04-12T17:56:04Z</time>
      </trkpt>
      <trkpt lat="42.5998770" lon="-6.7954340">
        <ele>529.4</ele>
        <time>2020-04-12T17:56:06Z</time>
      </trkpt>
      <trkpt lat="42.5998790" lon="-6.7956180">
        <ele>529.4</ele>
        <time>2020-04-12T17:56:08Z</time>
      </trkpt>
      <trkpt lat="42.5998810" lon="-6.7958020">
        <ele>529.4</ele>
        <time>2020-04-12T17:56:10Z</time>
      </trkpt>
      <trkpt lat="42.5998870" lon="-6.7962960">
        <ele>529.3</ele>
        <time>2020-04-12T17:56:12Z</time>
      </trkpt>
      <trkpt lat="42.5998890" lon="-6.7964600">
        <ele>529.3</ele>
        <time>2020-04-12T17:56:14Z</time>
      </trkpt>
      <trkpt lat="42.5998910" lon="-6.7966050">
        <ele>529.3</ele>
        <time>2020-04-12T17:56:16Z</time>
      </trkpt>
      <trkpt lat="42.5998920" lon="-6.7967350">
        <ele>529.6</ele>
        <time>2020-04-12T17:56:18Z</time>
      </trkpt>
      <trkpt lat="42.5998940" lon="-6.7968520">
        <ele>530.0</ele>
        <time>2020-04-12T17:56:20Z</time>
      </trkpt>
      <trkpt lat="42.5998950" lon="-6.7969550">
        <ele>530.4</ele>
        <time>2020-04-12T17:56:22Z</time>
      </trkpt>
      <trkpt lat="42.5998960" lon="-6.7970480">
        <ele>530.8</ele>
        <time>2020-04-12T17:56:24Z</time>
      </trkpt>
      <trkpt lat="42.5999010" lon="-6.7974440">
        <ele>532.2</ele>
        <time>2020-04-12T17:56:26Z</time>
      </trkpt>
      <trkpt lat="42.5999030" lon="-6.7975230">
        <ele>532.3</ele>
        <time>2020-04-12T17:56:28Z</time>
      </trkpt>
      <trkpt lat="42.5999040" lon="-6.7975960">
        <ele>532.6</ele>
        <time>2020-04-12T17:56:30Z</time>
      </trkpt>
      <trkpt lat="42.5999060" lon="-6.7976660">
        <ele>532.9</ele>
        <time>2020-04-12T17:56:32Z</time>
      </trkpt>
      <trkpt lat="42.5999070" lon="-6.7977330">
        <ele>533.2</ele>
        <time>2020-04-12T17:56:34Z</time>
      </trkpt>
      <trkpt lat="42.5999090" lon="-6.7977980">
        <ele>533.5</ele>
        <time>2020-04-12T17:56:36Z</time>
      </trkpt>
      <trkpt lat="42.5999100" lon="-6.7978620">
        <ele>533.8</ele>
        <time>2020-04-12T17:56:38Z</time>
      </trkpt>
      <trkpt lat="42.5999110" lon="-6.7979250">
        <ele>534.1</ele>
        <time>2020-04-12T17:56:40Z</time>
      </trkpt>
      <trkpt lat="42.5999130" lon="-6.7979880">
        <ele>534.3</ele>
        <time>2020-04-12T17:56:42Z</time>
      </trkpt>
      <trkpt lat="42.5999140" lon="-6.7980510">
        <ele>534.4</ele>
        <time>2020-04-12T17:56:44Z</time>
      </trkpt>
      <trkpt lat="42.5999150" lon="-6.7981140">
        <ele>534.6</ele>
        <time>2020-04-12T17:56:46Z</time>
      </trkpt>
      <trkpt lat="42.5999170" lon="-6.7981770">
        <ele>534.8</ele>
        <time>2020-04-12T17:56:48Z</time>
      </trkpt>
      <trkpt lat="42.5999180" lon="-6.7982390">
        <ele>535.0</ele>
        <time>2020-04-12T17:56:50Z</time>
      </trkpt>
      <trkpt lat="42.5999260" lon="-6.7986170">
        <ele>536.1</ele>
        <time>2020-04-12T17:56:52Z</time>
      </trkpt>
      <trkpt lat="42.5999280" lon="-6.7987000">
        <ele>536.4</ele>
        <time>2020-04-12T17:56:54Z</time>
      </trkpt>
      <trkpt lat="42.5999300" lon="-6.7987890">
        <ele>536.6</ele>
        <time>2020-04-12T17:56:56Z</time>
      </trkpt>
      <trkpt lat="42.5999320" lon="-6.7988760">
        <ele>536.9</ele>
        <time>2020-04-12T17:56:58Z</time>
      </trkpt>
      <trkpt lat="42.5999340" lon="-6.7989680">
        <ele>537.1</ele>
        <time>2020-04-12T17:57:00Z</time>
      </trkpt>
      <trkpt lat="42.5999360" lon="-6.7990630">
        <ele>537.4</ele>
        <time>2020-04-12T17:57:02Z</time>
      </trkpt>
      <trkpt lat="42.5999380" lon="-6.7991590">
        <ele>537.6</ele>
        <time>2020-04-12T17:57:04Z</time>
      </trkpt>
      <trkpt lat="42.5999400" lon="-6.7992550">
        <ele>537.9</ele>
        <time>2020-04-12T17:57:06Z</time>
      </trkpt>
      <trkpt lat="42.5999420" lon="-6.7993510">
        <ele>538.2</ele>
        <time>2020-04-12T17:57:08Z</time>
      </trkpt>
      <trkpt lat="42.5999500" lon="-6.7997570">
        <ele>539.4</ele>
        <time>2020-04-12T17:57:10Z</time>
      </trkpt>
      <trkpt lat="42.5999530" lon="-6.7998550">
        <ele>539.6</ele>
        <time>2020-04-12T17:57:12Z</time>
      </trkpt>
      <trkpt lat="42.5999550" lon="-6.7999520">
        <ele>539.9</ele>
        <time>2020-04-12T17:57:14Z</time>
      </trkpt>
      <trkpt lat="42.5999570" lon="-6.8000500">
        <ele>540.2</ele>
        <time>2020-04-12T17:57:16Z</time>
      </trkpt>
      <trkpt lat="42.5999590" lon="-6.8001460">
        <ele>540.4</ele>
        <time>2020-04-12T17:57:18Z</time>
      </trkpt>
      <trkpt lat="42.5999610" lon="-6.8002430">
        <ele>540.7</ele>
        <time>2020-04-12T17:57:20Z</time>
      </trkpt>
      <trkpt lat="42.5999630" lon="-6.8003390">
        <ele>541.0</ele>
        <time>2020-04-12T17:57:22Z</time>
      </trkpt>
      <trkpt lat="42.5999650" lon="-6.8004360">
        <ele>541.3</ele>
        <time>2020-04-12T17:57:24Z</time>
      </trkpt>
      <trkpt lat="42.5999670" lon="-6.8005330">
        <ele>541.6</ele>
        <time>2020-04-12T17:57:26Z</time>
      </trkpt>
      <trkpt lat="42.5999760" lon="-6.8009390">
        <ele>542.6</ele>
        <time>2020-04-12T17:57:28Z</time>
      </trkpt>
      <trkpt lat="42.5999780" lon="-6.8010460">
        <ele>542.7</ele>
        <time>2020-04-12T17:57:30Z</time>
      </trkpt>
      <trkpt lat="42.5999800" lon="-6.8011630">
        <ele>542.7</ele>
        <time>2020-04-12T17:57:32Z</time>
      </trkpt>
      <trkpt lat="42.5999830" lon="-6.8012910">
        <ele>542.7</ele>
        <time>2020-04-12T17:57:34Z</time>
      </trkpt>
      <trkpt lat="42.5999860" lon="-6.8014240">
        <ele>542.7</ele>
        <time>2020-04-12T17:57:36Z</time>
      </trkpt>
      <trkpt lat="42.5999890" lon="-6.8015660">
        <ele>542.8</ele>
        <time>2020-04-12T17:57:38Z</time>
      </trkpt>
      <trkpt lat="42.5999920" lon="-6.8017130">
        <ele>542.8</ele>
        <time>2020-04-12T17:57:40Z</time>
      </trkpt>
      <trkpt lat="42.6000030" lon="-6.8021750">
        <ele>542.9</ele>
        <time>2020-04-12T17:57:42Z</time>
      </trkpt>
      <trkpt lat="42.6000090" lon="-6.8023310">
        <ele>542.9</ele>
        <time>2020-04-12T17:57:44Z</time>
      </trkpt>
      <trkpt lat="42.6000140" lon="-6.8024910">
        <ele>542.9</ele>
        <time>2020-04-12T17:57:46Z</time>
      </trkpt>
      <trkpt lat="42.6000200" lon="-6.8026540">
        <ele>542.9</ele>
        <time>2020-04-12T17:57:48Z</time>
      </trkpt>
      <trkpt lat="42.6000250" lon="-6.8028190">
        <ele>542.9</ele>
        <time>2020-04-12T17:57:50Z</time>
      </trkpt>
      <trkpt lat="42.6000420" lon="-6.8032930">
        <ele>543.0</ele>
        <time>2020-04-12T17:57:52Z</time>
      </trkpt>
      <trkpt lat="42.6000480" lon="-6.8034660">
        <ele>543.0</ele>
        <time>2020-04-12T17:57:54Z</time>
      </trkpt>
      <trkpt lat="42.6000540" lon="-6.8036410">
        <ele>542.9</ele>
        <time>2020-04-12T17:57:56Z</time>
      </trkpt>
      <trkpt lat="42.6000600" lon="-6.8038210">
        <ele>542.8</ele>
        <time>2020-04-12T17:57:58Z</time>
      </trkpt>
      <trkpt lat="42.6000660" lon="-6.8040040">
        <ele>542.7</ele>
        <time>2020-04-12T17:58:00Z</time>
      </trkpt>
      <trkpt lat="42.6000930" lon="-6.8044940">
        <ele>542.5</ele>
        <time>2020-04-12T17:58:02Z</time>
      </trkpt>
      <trkpt lat="42.6001180" lon="-6.8046780">
        <ele>542.4</ele>
        <time>2020-04-12T17:58:04Z</time>
      </trkpt>
      <trkpt lat="42.6001800" lon="-6.8049780">
        <ele>541.9</ele>
        <time>2020-04-12T17:58:06Z</time>
      </trkpt>
      <trkpt lat="42.6002360" lon="-6.8051760">
        <ele>541.3</ele>
        <time>2020-04-12T17:58:08Z</time>
      </trkpt>
      <trkpt lat="42.6003530" lon="-6.8055800">
        <ele>540.4</ele>
        <time>2020-04-12T17:58:10Z</time>
      </trkpt>
      <trkpt lat="42.6004280" lon="-6.8057970">
        <ele>539.9</ele>
        <time>2020-04-12T17:58:12Z</time>
      </trkpt>
      <trkpt lat="42.6005060" lon="-6.8060270">
        <ele>539.0</ele>
        <time>2020-04-12T17:58:14Z</time>
      </trkpt>
      <trkpt lat="42.6006580" lon="-6.8064710">
        <ele>537.0</ele>
        <time>2020-04-12T17:58:16Z</time>
      </trkpt>
      <trkpt lat="42.6007430" lon="-6.8067190">
        <ele>535.8</ele>
        <time>2020-04-12T17:58:18Z</time>
      </trkpt>
      <trkpt lat="42.6009100" lon="-6.8071740">
        <ele>533.8</ele>
        <time>2020-04-12T17:58:20Z</time>
      </trkpt>
      <trkpt lat="42.6010990" lon="-6.8074660">
        <ele>532.8</ele>
        <time>2020-04-12T17:58:22Z</time>
      </trkpt>
      <trkpt lat="42.6013260" lon="-6.8076470">
        <ele>532.3</ele>
        <time>2020-04-12T17:58:24Z</time>
      </trkpt>
      <trkpt lat="42.6015010" lon="-6.8077520">
        <ele>532.0</ele>
        <time>2020-04-12T17:58:26Z</time>
      </trkpt>
      <trkpt lat="42.6016670" lon="-6.8078510">
        <ele>531.9</ele>
        <time>2020-04-12T17:58:28Z</time>
      </trkpt>
      <trkpt lat="42.6019960" lon="-6.8080470">
        <ele>531.4</ele>
        <time>2020-04-12T17:58:30Z</time>
      </trkpt>
      <trkpt lat="42.6021480" lon="-6.8081370">
        <ele>531.3</ele>
        <time>2020-04-12T17:58:32Z</time>
      </trkpt>
      <trkpt lat="42.6022930" lon="-6.8082240">
        <ele>531.2</ele>
        <time>2020-04-12T17:58:34Z</time>
      </trkpt>
      <trkpt lat="42.6026070" lon="-6.8084110">
        <ele>530.8</ele>
        <time>2020-04-12T17:58:36Z</time>
      </trkpt>
      <trkpt lat="42.6027440" lon="-6.8084930">
        <ele>530.6</ele>
        <time>2020-04-12T17:58:38Z</time>
      </trkpt>
      <trkpt lat="42.6028770" lon="-6.8085720">
        <ele>530.5</ele>
        <time>2020-04-12T17:58:40Z</time>
      </trkpt>
      <trkpt lat="42.6030040" lon="-6.8086470">
        <ele>530.4</ele>
        <time>2020-04-12T17:58:42Z</time>
      </trkpt>
      <trkpt lat="42.6033040" lon="-6.8088260">
        <ele>530.4</ele>
        <time>2020-04-12T17:58:44Z</time>
      </trkpt>
      <trkpt lat="42.6034390" lon="-6.8089070">
        <ele>530.2</ele>
        <time>2020-04-12T17:58:46Z</time>
      </trkpt>
      <trkpt lat="42.6035790" lon="-6.8089900">
        <ele>530.0</ele>
        <time>2020-04-12T17:58:48Z</time>
      </trkpt>
      <trkpt lat="42.6038910" lon="-6.8091940">
        <ele>529.5</ele>
        <time>2020-04-12T17:58:50Z</time>
      </trkpt>
      <trkpt lat="42.6040300" lon="-6.8093160">
        <ele>528.9</ele>
        <time>2020-04-12T17:58:52Z</time>
      </trkpt>
      <trkpt lat="42.6042730" lon="-6.8095470">
        <ele>527.8</ele>
        <time>2020-04-12T17:58:54Z</time>
      </trkpt>
      <trkpt lat="42.6044370" lon="-6.8097890">
        <ele>526.4</ele>
        <time>2020-04-12T17:58:56Z</time>
      </trkpt>
      <trkpt lat="42.6044430" lon="-6.8100790">
        <ele>525.6</ele>
        <time>2020-04-12T17:58:58Z</time>
      </trkpt>
      <trkpt lat="42.6043800" lon="-6.8102990">
        <ele>524.5</ele>
        <time>2020-04-12T17:59:00Z</time>
      </trkpt>
      <trkpt lat="42.6043160" lon="-6.8105200">
        <ele>523.3</ele>
        <time>2020-04-12T17:59:02Z</time>
      </trkpt>
      <trkpt lat="42.6043210" lon="-6.8109710">
        <ele>520.4</ele>
        <time>2020-04-12T17:59:04Z</time>
      </trkpt>
      <trkpt lat="42.6044950" lon="-6.8110610">
        <ele>519.4</ele>
        <time>2020-04-12T17:59:06Z</time>
      </trkpt>
      <trkpt lat="42.6046770" lon="-6.8111550">
        <ele>517.5</ele>
        <time>2020-04-12T17:59:08Z</time>
      </trkpt>
      <trkpt lat="42.6050240" lon="-6.8112740">
        <ele>514.4</ele>
        <time>2020-04-12T17:59:10Z</time>
      </trkpt>
      <trkpt lat="42.6052600" lon="-6.8111290">
        <ele>512.6</ele>
        <time>2020-04-12T17:59:12Z</time>
      </trkpt>
      <trkpt lat="42.6054160" lon="-6.8108900">
        <ele>511.4</ele>
        <time>2020-04-12T17:59:14Z</time>
      </trkpt>
      <trkpt lat="42.6054670" lon="-6.8105980">
        <ele>510.2</ele>
        <time>2020-04-12T17:59:16Z</time>
      </trkpt>
      <trkpt lat="42.6054480" lon="-6.8103840">
        <ele>509.9</ele>
        <time>2020-04-12T17:59:18Z</time>
      </trkpt>
      <trkpt lat="42.6055650" lon="-6.8102520">
        <ele>509.4</ele>
        <time>2020-04-12T17:59:20Z</time>
      </trkpt>
      <trkpt lat="42.6057830" lon="-6.8101320">
        <ele>509.4</ele>
        <time>2020-04-12T17:59:22Z</time>
      </trkpt>
      <trkpt lat="42.6059630" lon="-6.8100620">
        <ele>509.6</ele>
        <time>2020-04-12T17:59:24Z</time>
      </trkpt>
      <trkpt lat="42.6060780" lon="-6.8099520">
        <ele>510.1</ele>
        <time>2020-04-12T17:59:26Z</time>
      </trkpt>
      <trkpt lat="42.6061520" lon="-6.8097950">
        <ele>510.8</ele>
        <time>2020-04-12T17:59:28Z</time>
      </trkpt>
      <trkpt lat="42.6062180" lon="-6.8097020">
        <ele>511.4</ele>
        <time>2020-04-12T17:59:30Z</time>
      </trkpt>
      <trkpt lat="42.6062840" lon="-6.8095360">
        <ele>512.3</ele>
        <time>2020-04-12T17:59:32Z</time>
      </trkpt>
      <trkpt lat="42.6063630" lon="-6.8094430">
        <ele>512.6</ele>
        <time>2020-04-12T17:59:34Z</time>
      </trkpt>
      <trkpt lat="42.6064400" lon="-6.8093830">
        <ele>512.8</ele>
        <time>2020-04-12T17:59:36Z</time>
      </trkpt>
      <trkpt lat="42.6065180" lon="-6.8093220">
        <ele>513.1</ele>
        <time>2020-04-12T17:59:38Z</time>
      </trkpt>
      <trkpt lat="42.6066490" lon="-6.8091500">
        <ele>513.4</ele>
        <time>2020-04-12T17:59:40Z</time>
      </trkpt>
      <trkpt lat="42.6067360" lon="-6.8090230">
        <ele>513.7</ele>
        <time>2020-04-12T17:59:42Z</time>
      </trkpt>
      <trkpt lat="42.6068160" lon="-6.8089560">
        <ele>513.9</ele>
        <time>2020-04-12T17:59:44Z</time>
      </trkpt>
      <trkpt lat="42.6068960" lon="-6.8088890">
        <ele>514.0</ele>
        <time>2020-04-12T17:59:46Z</time>
      </trkpt>
      <trkpt lat="42.6070630" lon="-6.8087620">
        <ele>514.0</ele>
        <time>2020-04-12T17:59:48Z</time>
      </trkpt>
      <trkpt lat="42.6071960" lon="-6.8087050">
        <ele>513.8</ele>
        <time>2020-04-12T17:59:50Z</time>
      </trkpt>
      <trkpt lat="42.6073080" lon="-6.8086960">
        <ele>513.6</ele>
        <time>2020-04-12T17:59:52Z</time>
      </trkpt>
      <trkpt lat="42.6075310" lon="-6.8086790">
        <ele>513.2</ele>
        <time>2020-04-12T17:59:54Z</time>
      </trkpt>
      <trkpt lat="42.6076720" lon="-6.8086730">
        <ele>512.7</ele>
        <time>2020-04-12T17:59:56Z</time>
      </trkpt>
      <trkpt lat="42.6078240" lon="-6.8086670">
        <ele>512.2</ele>
        <time>2020-04-12T17:59:58Z</time>
      </trkpt>
      <trkpt lat="42.6081230" lon="-6.8086560">
        <ele>511.4</ele>
        <time>2020-04-12T18:00:00Z</time>
      </trkpt>
      <trkpt lat="42.6082940" lon="-6.8086490">
        <ele>510.9</ele>
        <time>2020-04-12T18:00:02Z</time>
      </trkpt>
      <trkpt lat="42.6086080" lon="-6.8086340">
        <ele>509.9</ele>
        <time>2020-04-12T18:00:04Z</time>
      </trkpt>
      <trkpt lat="42.6087770" lon="-6.8086180">
        <ele>509.5</ele>
        <time>2020-04-12T18:00:06Z</time>
      </trkpt>
      <trkpt lat="42.6090690" lon="-6.8085910">
        <ele>509.0</ele>
        <time>2020-04-12T18:00:08Z</time>
      </trkpt>
      <trkpt lat="42.6092270" lon="-6.8085770">
        <ele>508.4</ele>
        <time>2020-04-12T18:00:10Z</time>
      </trkpt>
      <trkpt lat="42.6093810" lon="-6.8085630">
        <ele>508.2</ele>
        <time>2020-04-12T18:00:13Z</time>
      </trkpt>
      <trkpt lat="42.6097130" lon="-6.8085950">
        <ele>507.4</ele>
        <time>2020-04-12T18:00:15Z</time>
      </trkpt>
      <trkpt lat="42.6098010" lon="-6.8088420">
        <ele>506.5</ele>
        <time>2020-04-12T18:00:17Z</time>
      </trkpt>
      <trkpt lat="42.6098060" lon="-6.8090610">
        <ele>505.6</ele>
        <time>2020-04-12T18:00:19Z</time>
      </trkpt>
      <trkpt lat="42.6098030" lon="-6.8093940">
        <ele>504.3</ele>
        <time>2020-04-12T18:00:21Z</time>
      </trkpt>
      <trkpt lat="42.6097930" lon="-6.8096190">
        <ele>504.0</ele>
        <time>2020-04-12T18:00:23Z</time>
      </trkpt>
      <trkpt lat="42.6097820" lon="-6.8098460">
        <ele>503.5</ele>
        <time>2020-04-12T18:00:25Z</time>
      </trkpt>
      <trkpt lat="42.6097200" lon="-6.8102840">
        <ele>503.1</ele>
        <time>2020-04-12T18:00:27Z</time>
      </trkpt>
      <trkpt lat="42.6096070" lon="-6.8105180">
        <ele>503.1</ele>
        <time>2020-04-12T18:00:29Z</time>
      </trkpt>
      <trkpt lat="42.6094650" lon="-6.8106920">
        <ele>503.2</ele>
        <time>2020-04-12T18:00:31Z</time>
      </trkpt>
      <trkpt lat="42.6093630" lon="-6.8108010">
        <ele>503.4</ele>
        <time>2020-04-12T18:00:33Z</time>
      </trkpt>
      <trkpt lat="42.6092690" lon="-6.8109020">
        <ele>503.5</ele>
        <time>2020-04-12T18:00:35Z</time>
      </trkpt>
      <trkpt lat="42.6091800" lon="-6.8109980">
        <ele>503.8</ele>
        <time>2020-04-12T18:00:37Z</time>
      </trkpt>
      <trkpt lat="42.6089810" lon="-6.8113130">
        <ele>504.8</ele>
        <time>2020-04-12T18:00:39Z</time>
      </trkpt>
      <trkpt lat="42.6090450" lon="-6.8114300">
        <ele>505.2</ele>
        <time>2020-04-12T18:00:41Z</time>
      </trkpt>
      <trkpt lat="42.6091070" lon="-6.8115460">
        <ele>505.5</ele>
        <time>2020-04-12T18:00:43Z</time>
      </trkpt>
      <trkpt lat="42.6091690" lon="-6.8116600">
        <ele>505.9</ele>
        <time>2020-04-12T18:00:45Z</time>
      </trkpt>
      <trkpt lat="42.6093100" lon="-6.8119050">
        <ele>506.6</ele>
        <time>2020-04-12T18:00:47Z</time>
      </trkpt>
      <trkpt lat="42.6093530" lon="-6.8120710">
        <ele>506.7</ele>
        <time>2020-04-12T18:00:49Z</time>
      </trkpt>
      <trkpt lat="42.6093680" lon="-6.8122090">
        <ele>506.6</ele>
        <time>2020-04-12T18:00:51Z</time>
      </trkpt>
      <trkpt lat="42.6093830" lon="-6.8123470">
        <ele>506.4</ele>
        <time>2020-04-12T18:00:53Z</time>
      </trkpt>
      <trkpt lat="42.6094270" lon="-6.8126510">
        <ele>505.6</ele>
        <time>2020-04-12T18:00:55Z</time>
      </trkpt>
      <trkpt lat="42.6094670" lon="-6.8127940">
        <ele>505.1</ele>
        <time>2020-04-12T18:00:57Z</time>
      </trkpt>
      <trkpt lat="42.6095480" lon="-6.8130460">
        <ele>504.2</ele>
        <time>2020-04-12T18:00:59Z</time>
      </trkpt>
      <trkpt lat="42.6096410" lon="-6.8132400">
        <ele>503.3</ele>
        <time>2020-04-12T18:01:01Z</time>
      </trkpt>
      <trkpt lat="42.6097720" lon="-6.8134330">
        <ele>501.8</ele>
        <time>2020-04-12T18:01:03Z</time>
      </trkpt>
      <trkpt lat="42.6098980" lon="-6.8135250">
        <ele>501.6</ele>
        <time>2020-04-12T18:01:05Z</time>
      </trkpt>
      <trkpt lat="42.6101110" lon="-6.8136450">
        <ele>501.3</ele>
        <time>2020-04-12T18:01:07Z</time>
      </trkpt>
      <trkpt lat="42.6102540" lon="-6.8136900">
        <ele>500.8</ele>
        <time>2020-04-12T18:01:09Z</time>
      </trkpt>
      <trkpt lat="42.6103960" lon="-6.8137340">
        <ele>500.4</ele>
        <time>2020-04-12T18:01:11Z</time>
      </trkpt>
      <trkpt lat="42.6105380" lon="-6.8137790">
        <ele>500.1</ele>
        <time>2020-04-12T18:01:13Z</time>
      </trkpt>
      <trkpt lat="42.6108830" lon="-6.8139100">
        <ele>499.9</ele>
        <time>2020-04-12T18:01:15Z</time>
      </trkpt>
      <trkpt lat="42.6110100" lon="-6.8140040">
        <ele>499.9</ele>
        <time>2020-04-12T18:01:17Z</time>
      </trkpt>
      <trkpt lat="42.6111370" lon="-6.8140990">
        <ele>500.1</ele>
        <time>2020-04-12T18:01:19Z</time>
      </trkpt>
      <trkpt lat="42.6112630" lon="-6.8141930">
        <ele>500.3</ele>
        <time>2020-04-12T18:01:21Z</time>
      </trkpt>
      <trkpt lat="42.6115770" lon="-6.8144280">
        <ele>501.0</ele>
        <time>2020-04-12T18:01:23Z</time>
      </trkpt>
      <trkpt lat="42.6116990" lon="-6.8145190">
        <ele>501.4</ele>
        <time>2020-04-12T18:01:25Z</time>
      </trkpt>
      <trkpt lat="42.6118160" lon="-6.8146060">
        <ele>501.9</ele>
        <time>2020-04-12T18:01:27Z</time>
      </trkpt>
      <trkpt lat="42.6119270" lon="-6.8146890">
        <ele>502.3</ele>
        <time>2020-04-12T18:01:29Z</time>
      </trkpt>
      <trkpt lat="42.6120350" lon="-6.8147700">
        <ele>502.8</ele>
        <time>2020-04-12T18:01:31Z</time>
      </trkpt>
      <trkpt lat="42.6123320" lon="-6.8149740">
        <ele>504.0</ele>
        <time>2020-04-12T18:01:33Z</time>
      </trkpt>
      <trkpt lat="42.6124400" lon="-6.8150330">
        <ele>504.6</ele>
        <time>2020-04-12T18:01:35Z</time>
      </trkpt>
      <trkpt lat="42.6126480" lon="-6.8151420">
        <ele>505.6</ele>
        <time>2020-04-12T18:01:37Z</time>
      </trkpt>
      <trkpt lat="42.6127720" lon="-6.8151530">
        <ele>506.1</ele>
        <time>2020-04-12T18:01:39Z</time>
      </trkpt>
      <trkpt lat="42.6128650" lon="-6.8151400">
        <ele>506.3</ele>
        <time>2020-04-12T18:01:41Z</time>
      </trkpt>
      <trkpt lat="42.6129470" lon="-6.8151290">
        <ele>506.5</ele>
        <time>2020-04-12T18:01:43Z</time>
      </trkpt>
      <trkpt lat="42.6130210" lon="-6.8151200">
        <ele>506.6</ele>
        <time>2020-04-12T18:01:45Z</time>
      </trkpt>
      <trkpt lat="42.6130890" lon="-6.8151100">
        <ele>506.7</ele>
        <time>2020-04-12T18:01:47Z</time>
      </trkpt>
      <trkpt lat="42.6131510" lon="-6.8151020">
        <ele>506.9</ele>
        <time>2020-04-12T18:01:49Z</time>
      </trkpt>
      <trkpt lat="42.6132090" lon="-6.8150940">
        <ele>507.0</ele>
        <time>2020-04-12T18:01:51Z</time>
      </trkpt>
      <trkpt lat="42.6134380" lon="-6.8150480">
        <ele>508.1</ele>
        <time>2020-04-12T18:01:53Z</time>
      </trkpt>
      <trkpt lat="42.6134890" lon="-6.8150260">
        <ele>508.4</ele>
        <time>2020-04-12T18:01:55Z</time>
      </trkpt>
      <trkpt lat="42.6135380" lon="-6.8150040">
        <ele>508.6</ele>
        <time>2020-04-12T18:01:57Z</time>
      </trkpt>
      <trkpt lat="42.6135860" lon="-6.8149830">
        <ele>508.9</ele>
        <time>2020-04-12T18:01:59Z</time>
      </trkpt>
      <trkpt lat="42.6136340" lon="-6.8149620">
        <ele>509.1</ele>
        <time>2020-04-12T18:02:01Z</time>
      </trkpt>
      <trkpt lat="42.6137790" lon="-6.8149050">
        <ele>509.9</ele>
        <time>2020-04-12T18:02:03Z</time>
      </trkpt>
      <trkpt lat="42.6138680" lon="-6.8148930">
        <ele>510.4</ele>
        <time>2020-04-12T18:02:05Z</time>
      </trkpt>
      <trkpt lat="42.6139330" lon="-6.8149160">
        <ele>510.7</ele>
        <time>2020-04-12T18:02:07Z</time>
      </trkpt>
      <trkpt lat="42.6140000" lon="-6.8149400">
        <ele>511.0</ele>
        <time>2020-04-12T18:02:09Z</time>
      </trkpt>
      <trkpt lat="42.6140690" lon="-6.8149650">
        <ele>511.4</ele>
        <time>2020-04-12T18:02:11Z</time>
      </trkpt>
      <trkpt lat="42.6141380" lon="-6.8149890">
        <ele>511.7</ele>
        <time>2020-04-12T18:02:13Z</time>
      </trkpt>
      <trkpt lat="42.6142080" lon="-6.8150140">
        <ele>512.0</ele>
        <time>2020-04-12T18:02:15Z</time>
      </trkpt>
      <trkpt lat="42.6144250" lon="-6.8150940">
        <ele>513.0</ele>
        <time>2020-04-12T18:02:17Z</time>
      </trkpt>
      <trkpt lat="42.6144880" lon="-6.8151410">
        <ele>513.3</ele>
        <time>2020-04-12T18:02:19Z</time>
      </trkpt>
      <trkpt lat="42.6145920" lon="-6.8152220">
        <ele>513.8</ele>
        <time>2020-04-12T18:02:21Z</time>
      </trkpt>
      <trkpt lat="42.6146490" lon="-6.8152820">
        <ele>514.2</ele>
        <time>2020-04-12T18:02:23Z</time>
      </trkpt>
      <trkpt lat="42.6147070" lon="-6.8153410">
        <ele>514.5</ele>
        <time>2020-04-12T18:02:25Z</time>
      </trkpt>
      <trkpt lat="42.6147640" lon="-6.8154000">
        <ele>514.8</ele>
        <time>2020-04-12T18:02:27Z</time>
      </trkpt>
      <trkpt lat="42.6149050" lon="-6.8155480">
        <ele>515.6</ele>
        <time>2020-04-12T18:02:29Z</time>
      </trkpt>
      <trkpt lat="42.6149560" lon="-6.8156230">
        <ele>515.9</ele>
        <time>2020-04-12T18:02:31Z</time>
      </trkpt>
      <trkpt lat="42.6150090" lon="-6.8157010">
        <ele>516.2</ele>
        <time>2020-04-12T18:02:33Z</time>
      </trkpt>
      <trkpt lat="42.6151050" lon="-6.8158650">
        <ele>516.8</ele>
        <time>2020-04-12T18:02:35Z</time>
      </trkpt>
      <trkpt lat="42.6151390" lon="-6.8159680">
        <ele>517.2</ele>
        <time>2020-04-12T18:02:37Z</time>
      </trkpt>
      <trkpt lat="42.6152020" lon="-6.8161610">
        <ele>517.7</ele>
        <time>2020-04-12T18:02:39Z</time>
      </trkpt>
      <trkpt lat="42.6152200" lon="-6.8162740">
        <ele>518.1</ele>
        <time>2020-04-12T18:02:41Z</time>
      </trkpt>
      <trkpt lat="42.6152390" lon="-6.8163890">
        <ele>518.4</ele>
        <time>2020-04-12T18:02:43Z</time>
      </trkpt>
      <trkpt lat="42.6152660" lon="-6.8166040">
        <ele>518.8</ele>
        <time>2020-04-12T18:02:45Z</time>
      </trkpt>
      <trkpt lat="42.6152590" lon="-6.8167660">
        <ele>519.0</ele>
        <time>2020-04-12T18:02:47Z</time>
      </trkpt>
      <trkpt lat="42.6152260" lon="-6.8169450">
        <ele>519.1</ele>
        <time>2020-04-12T18:02:49Z</time>
      </trkpt>
      <trkpt lat="42.6151900" lon="-6.8170880">
        <ele>519.0</ele>
        <time>2020-04-12T18:02:51Z</time>
      </trkpt>
      <trkpt lat="42.6151520" lon="-6.8172410">
        <ele>518.8</ele>
        <time>2020-04-12T18:02:53Z</time>
      </trkpt>
      <trkpt lat="42.6150650" lon="-6.8175920">
        <ele>518.2</ele>
        <time>2020-04-12T18:02:55Z</time>
      </trkpt>
      <trkpt lat="42.6150220" lon="-6.8177610">
        <ele>517.8</ele>
        <time>2020-04-12T18:02:57Z</time>
      </trkpt>
      <trkpt lat="42.6149780" lon="-6.8179380">
        <ele>517.4</ele>
        <time>2020-04-12T18:02:59Z</time>
      </trkpt>
      <trkpt lat="42.6148820" lon="-6.8183110">
        <ele>516.5</ele>
        <time>2020-04-12T18:03:01Z</time>
      </trkpt>
      <trkpt lat="42.6147800" lon="-6.8185200">
        <ele>515.9</ele>
        <time>2020-04-12T18:03:03Z</time>
      </trkpt>
      <trkpt lat="42.6146090" lon="-6.8187310">
        <ele>515.3</ele>
        <time>2020-04-12T18:03:05Z</time>
      </trkpt>
      <trkpt lat="42.6144290" lon="-6.8188240">
        <ele>514.6</ele>
        <time>2020-04-12T18:03:07Z</time>
      </trkpt>
      <trkpt lat="42.6142670" lon="-6.8188780">
        <ele>513.9</ele>
        <time>2020-04-12T18:03:09Z</time>
      </trkpt>
      <trkpt lat="42.6139730" lon="-6.8189710">
        <ele>512.8</ele>
        <time>2020-04-12T18:03:11Z</time>
      </trkpt>
      <trkpt lat="42.6137650" lon="-6.8189860">
        <ele>512.1</ele>
        <time>2020-04-12T18:03:13Z</time>
      </trkpt>
      <trkpt lat="42.6135890" lon="-6.8189800">
        <ele>511.5</ele>
        <time>2020-04-12T18:03:15Z</time>
      </trkpt>
      <trkpt lat="42.6134110" lon="-6.8189740">
        <ele>510.9</ele>
        <time>2020-04-12T18:03:17Z</time>
      </trkpt>
      <trkpt lat="42.6129960" lon="-6.8189610">
        <ele>509.8</ele>
        <time>2020-04-12T18:03:19Z</time>
      </trkpt>
      <trkpt lat="42.6127870" lon="-6.8190770">
        <ele>509.2</ele>
        <time>2020-04-12T18:03:21Z</time>
      </trkpt>
      <trkpt lat="42.6126750" lon="-6.8192220">
        <ele>509.0</ele>
        <time>2020-04-12T18:03:23Z</time>
      </trkpt>
      <trkpt lat="42.6125740" lon="-6.8193520">
        <ele>509.0</ele>
        <time>2020-04-12T18:03:25Z</time>
      </trkpt>
      <trkpt lat="42.6123810" lon="-6.8195670">
        <ele>509.4</ele>
        <time>2020-04-12T18:03:27Z</time>
      </trkpt>
      <trkpt lat="42.6122370" lon="-6.8196520">
        <ele>509.8</ele>
        <time>2020-04-12T18:03:29Z</time>
      </trkpt>
      <trkpt lat="42.6121370" lon="-6.8196910">
        <ele>510.2</ele>
        <time>2020-04-12T18:03:31Z</time>
      </trkpt>
      <trkpt lat="42.6119640" lon="-6.8197670">
        <ele>511.1</ele>
        <time>2020-04-12T18:03:33Z</time>
      </trkpt>
      <trkpt lat="42.6118500" lon="-6.8198660">
        <ele>511.7</ele>
        <time>2020-04-12T18:03:35Z</time>
      </trkpt>
      <trkpt lat="42.6117620" lon="-6.8200260">
        <ele>512.0</ele>
        <time>2020-04-12T18:03:37Z</time>
      </trkpt>
      <trkpt lat="42.6117110" lon="-6.8201680">
        <ele>511.9</ele>
        <time>2020-04-12T18:03:39Z</time>
      </trkpt>
      <trkpt lat="42.6116600" lon="-6.8204470">
        <ele>511.7</ele>
        <time>2020-04-12T18:03:41Z</time>
      </trkpt>
      <trkpt lat="42.6117670" lon="-6.8205700">
        <ele>511.6</ele>
        <time>2020-04-12T18:03:43Z</time>
      </trkpt>
      <trkpt lat="42.6119310" lon="-6.8206830">
        <ele>511.6</ele>
        <time>2020-04-12T18:03:45Z</time>
      </trkpt>
      <trkpt lat="42.6120520" lon="-6.8207540">
        <ele>511.6</ele>
        <time>2020-04-12T18:03:47Z</time>
      </trkpt>
      <trkpt lat="42.6121730" lon="-6.8208250">
        <ele>511.6</ele>
        <time>2020-04-12T18:03:49Z</time>
      </trkpt>
      <trkpt lat="42.6124330" lon="-6.8209760">
        <ele>511.6</ele>
        <time>2020-04-12T18:03:51Z</time>
      </trkpt>
      <trkpt lat="42.6125520" lon="-6.8210450">
        <ele>511.6</ele>
        <time>2020-04-12T18:03:53Z</time>
      </trkpt>
      <trkpt lat="42.6126730" lon="-6.8211140">
        <ele>511.5</ele>
        <time>2020-04-12T18:03:55Z</time>
      </trkpt>
      <trkpt lat="42.6127930" lon="-6.8211820">
        <ele>511.5</ele>
        <time>2020-04-12T18:03:57Z</time>
      </trkpt>
      <trkpt lat="42.6130770" lon="-6.8213260">
        <ele>511.2</ele>
        <time>2020-04-12T18:03:59Z</time>
      </trkpt>
      <trkpt lat="42.6132490" lon="-6.8213520">
        <ele>510.9</ele>
        <time>2020-04-12T18:04:01Z</time>
      </trkpt>
      <trkpt lat="42.6134180" lon="-6.8213190">
        <ele>510.7</ele>
        <time>2020-04-12T18:04:03Z</time>
      </trkpt>
      <trkpt lat="42.6135280" lon="-6.8212700">
        <ele>510.6</ele>
        <time>2020-04-12T18:04:05Z</time>
      </trkpt>
      <trkpt lat="42.6136350" lon="-6.8212230">
        <ele>510.6</ele>
        <time>2020-04-12T18:04:07Z</time>
      </trkpt>
      <trkpt lat="42.6137390" lon="-6.8211760">
        <ele>510.5</ele>
        <time>2020-04-12T18:04:09Z</time>
      </trkpt>
      <trkpt lat="42.6138420" lon="-6.8211310">
        <ele>510.5</ele>
        <time>2020-04-12T18:04:11Z</time>
      </trkpt>
      <trkpt lat="42.6141310" lon="-6.8210230">
        <ele>510.7</ele>
        <time>2020-04-12T18:04:13Z</time>
      </trkpt>
      <trkpt lat="42.6142840" lon="-6.8210100">
        <ele>510.8</ele>
        <time>2020-04-12T18:04:15Z</time>
      </trkpt>
      <trkpt lat="42.6144270" lon="-6.8210160">
        <ele>510.9</ele>
        <time>2020-04-12T18:04:17Z</time>
      </trkpt>
      <trkpt lat="42.6145610" lon="-6.8210570">
        <ele>511.1</ele>
        <time>2020-04-12T18:04:19Z</time>
      </trkpt>
      <trkpt lat="42.6146920" lon="-6.8211500">
        <ele>511.3</ele>
        <time>2020-04-12T18:04:21Z</time>
      </trkpt>
      <trkpt lat="42.6148060" lon="-6.8212650">
        <ele>511.5</ele>
        <time>2020-04-12T18:04:23Z</time>
      </trkpt>
      <trkpt lat="42.6148750" lon="-6.8213710">
        <ele>511.6</ele>
        <time>2020-04-12T18:04:25Z</time>
      </trkpt>
      <trkpt lat="42.6149810" lon="-6.8215530">
        <ele>511.9</ele>
        <time>2020-04-12T18:04:27Z</time>
      </trkpt>
      <trkpt lat="42.6150510" lon="-6.8217350">
        <ele>512.1</ele>
        <time>2020-04-12T18:04:29Z</time>
      </trkpt>
      <trkpt lat="42.6150690" lon="-6.8218660">
        <ele>512.3</ele>
        <time>2020-04-12T18:04:31Z</time>
      </trkpt>
      <trkpt lat="42.6150940" lon="-6.8220700">
        <ele>512.6</ele>
        <time>2020-04-12T18:04:33Z</time>
      </trkpt>
      <trkpt lat="42.6150930" lon="-6.8222370">
        <ele>512.8</ele>
        <time>2020-04-12T18:04:35Z</time>
      </trkpt>
      <trkpt lat="42.6150730" lon="-6.8224170">
        <ele>513.1</ele>
        <time>2020-04-12T18:04:37Z</time>
      </trkpt>
      <trkpt lat="42.6150550" lon="-6.8225390">
        <ele>513.2</ele>
        <time>2020-04-12T18:04:39Z</time>
      </trkpt>
      <trkpt lat="42.6150380" lon="-6.8226590">
        <ele>513.4</ele>
        <time>2020-04-12T18:04:41Z</time>
      </trkpt>
      <trkpt lat="42.6150210" lon="-6.8227770">
        <ele>513.5</ele>
        <time>2020-04-12T18:04:43Z</time>
      </trkpt>
      <trkpt lat="42.6150040" lon="-6.8228940">
        <ele>513.6</ele>
        <time>2020-04-12T18:04:45Z</time>
      </trkpt>
      <trkpt lat="42.6149870" lon="-6.8230110">
        <ele>513.7</ele>
        <time>2020-04-12T18:04:47Z</time>
      </trkpt>
      <trkpt lat="42.6149700" lon="-6.8231260">
        <ele>513.9</ele>
        <time>2020-04-12T18:04:49Z</time>
      </trkpt>
      <trkpt lat="42.6149300" lon="-6.8235150">
        <ele>514.2</ele>
        <time>2020-04-12T18:04:51Z</time>
      </trkpt>
      <trkpt lat="42.6149330" lon="-6.8237050">
        <ele>514.5</ele>
        <time>2020-04-12T18:04:53Z</time>
      </trkpt>
      <trkpt lat="42.6149450" lon="-6.8238200">
        <ele>514.7</ele>
        <time>2020-04-12T18:04:55Z</time>
      </trkpt>
      <trkpt lat="42.6149570" lon="-6.8239330">
        <ele>514.9</ele>
        <time>2020-04-12T18:04:57Z</time>
      </trkpt>
      <trkpt lat="42.6149960" lon="-6.8241400">
        <ele>515.0</ele>
        <time>2020-04-12T18:04:59Z</time>
      </trkpt>
      <trkpt lat="42.6150300" lon="-6.8242450">
        <ele>515.1</ele>
        <time>2020-04-12T18:05:01Z</time>
      </trkpt>
      <trkpt lat="42.6151040" lon="-6.8244100">
        <ele>515.4</ele>
        <time>2020-04-12T18:05:03Z</time>
      </trkpt>
      <trkpt lat="42.6151580" lon="-6.8244970">
        <ele>515.6</ele>
        <time>2020-04-12T18:05:05Z</time>
      </trkpt>
      <trkpt lat="42.6152120" lon="-6.8245830">
        <ele>515.7</ele>
        <time>2020-04-12T18:05:07Z</time>
      </trkpt>
      <trkpt lat="42.6153400" lon="-6.8247640">
        <ele>516.1</ele>
        <time>2020-04-12T18:05:09Z</time>
      </trkpt>
      <trkpt lat="42.6154130" lon="-6.8248210">
        <ele>516.3</ele>
        <time>2020-04-12T18:05:11Z</time>
      </trkpt>
      <trkpt lat="42.6154870" lon="-6.8248790">
        <ele>516.5</ele>
        <time>2020-04-12T18:05:13Z</time>
      </trkpt>
      <trkpt lat="42.6155620" lon="-6.8249370">
        <ele>516.7</ele>
        <time>2020-04-12T18:05:15Z</time>
      </trkpt>
      <trkpt lat="42.6157470" lon="-6.8250820">
        <ele>517.2</ele>
        <time>2020-04-12T18:05:17Z</time>
      </trkpt>
      <trkpt lat="42.6158220" lon="-6.8251410">
        <ele>517.5</ele>
        <time>2020-04-12T18:05:19Z</time>
      </trkpt>
      <trkpt lat="42.6158970" lon="-6.8252000">
        <ele>517.7</ele>
        <time>2020-04-12T18:05:21Z</time>
      </trkpt>
      <trkpt lat="42.6159730" lon="-6.8252590">
        <ele>517.9</ele>
        <time>2020-04-12T18:05:23Z</time>
      </trkpt>
      <trkpt lat="42.6161570" lon="-6.8254070">
        <ele>518.3</ele>
        <time>2020-04-12T18:05:25Z</time>
      </trkpt>
      <trkpt lat="42.6162270" lon="-6.8254790">
        <ele>518.5</ele>
        <time>2020-04-12T18:05:27Z</time>
      </trkpt>
      <trkpt lat="42.6162970" lon="-6.8255500">
        <ele>518.8</ele>
        <time>2020-04-12T18:05:29Z</time>
      </trkpt>
      <trkpt lat="42.6163660" lon="-6.8256210">
        <ele>519.1</ele>
        <time>2020-04-12T18:05:31Z</time>
      </trkpt>
      <trkpt lat="42.6164370" lon="-6.8256930">
        <ele>519.3</ele>
        <time>2020-04-12T18:05:33Z</time>
      </trkpt>
      <trkpt lat="42.6166260" lon="-6.8258930">
        <ele>520.0</ele>
        <time>2020-04-12T18:05:35Z</time>
      </trkpt>
      <trkpt lat="42.6166900" lon="-6.8259760">
        <ele>520.2</ele>
        <time>2020-04-12T18:05:37Z</time>
      </trkpt>
      <trkpt lat="42.6167530" lon="-6.8260580">
        <ele>520.4</ele>
        <time>2020-04-12T18:05:39Z</time>
      </trkpt>
      <trkpt lat="42.6168170" lon="-6.8261400">
        <ele>520.6</ele>
        <time>2020-04-12T18:05:41Z</time>
      </trkpt>
      <trkpt lat="42.6169570" lon="-6.8263350">
        <ele>521.2</ele>
        <time>2020-04-12T18:05:43Z</time>
      </trkpt>
      <trkpt lat="42.6170120" lon="-6.8264230">
        <ele>521.6</ele>
        <time>2020-04-12T18:05:45Z</time>
      </trkpt>
      <trkpt lat="42.6170650" lon="-6.8265090">
        <ele>521.9</ele>
        <time>2020-04-12T18:05:47Z</time>
      </trkpt>
      <trkpt lat="42.6171910" lon="-6.8267110">
        <ele>522.6</ele>
        <time>2020-04-12T18:05:49Z</time>
      </trkpt>
      <trkpt lat="42.6172350" lon="-6.8268000">
        <ele>522.9</ele>
        <time>2020-04-12T18:05:51Z</time>
      </trkpt>
      <trkpt lat="42.6172780" lon="-6.8268870">
        <ele>523.2</ele>
        <time>2020-04-12T18:05:53Z</time>
      </trkpt>
      <trkpt lat="42.6173220" lon="-6.8269740">
        <ele>523.4</ele>
        <time>2020-04-12T18:05:55Z</time>
      </trkpt>
      <trkpt lat="42.6174200" lon="-6.8271770">
        <ele>524.0</ele>
        <time>2020-04-12T18:05:57Z</time>
      </trkpt>
      <trkpt lat="42.6174530" lon="-6.8272690">
        <ele>524.2</ele>
        <time>2020-04-12T18:05:59Z</time>
      </trkpt>
      <trkpt lat="42.6174860" lon="-6.8273600">
        <ele>524.5</ele>
        <time>2020-04-12T18:06:01Z</time>
      </trkpt>
      <trkpt lat="42.6175190" lon="-6.8274510">
        <ele>524.7</ele>
        <time>2020-04-12T18:06:03Z</time>
      </trkpt>
      <trkpt lat="42.6175520" lon="-6.8275410">
        <ele>524.9</ele>
        <time>2020-04-12T18:06:05Z</time>
      </trkpt>
      <trkpt lat="42.6175850" lon="-6.8276310">
        <ele>525.2</ele>
        <time>2020-04-12T18:06:07Z</time>
      </trkpt>
      <trkpt lat="42.6176170" lon="-6.8277200">
        <ele>525.4</ele>
        <time>2020-04-12T18:06:09Z</time>
      </trkpt>
      <trkpt lat="42.6177350" lon="-6.8280460">
        <ele>526.0</ele>
        <time>2020-04-12T18:06:11Z</time>
      </trkpt>
      <trkpt lat="42.6177690" lon="-6.8281390">
        <ele>526.1</ele>
        <time>2020-04-12T18:06:13Z</time>
      </trkpt>
      <trkpt lat="42.6178070" lon="-6.8282420">
        <ele>526.2</ele>
        <time>2020-04-12T18:06:15Z</time>
      </trkpt>
      <trkpt lat="42.6178460" lon="-6.8283510">
        <ele>526.3</ele>
        <time>2020-04-12T18:06:17Z</time>
      </trkpt>
      <trkpt lat="42.6178870" lon="-6.8284650">
        <ele>526.4</ele>
        <time>2020-04-12T18:06:19Z</time>
      </trkpt>
      <trkpt lat="42.6179290" lon="-6.8285800">
        <ele>526.4</ele>
        <time>2020-04-12T18:06:21Z</time>
      </trkpt>
      <trkpt lat="42.6179720" lon="-6.8286980">
        <ele>526.5</ele>
        <time>2020-04-12T18:06:23Z</time>
      </trkpt>
      <trkpt lat="42.6181120" lon="-6.8290440">
        <ele>526.8</ele>
        <time>2020-04-12T18:06:25Z</time>
      </trkpt>
      <trkpt lat="42.6181980" lon="-6.8291960">
        <ele>526.9</ele>
        <time>2020-04-12T18:06:27Z</time>
      </trkpt>
      <trkpt lat="42.6182990" lon="-6.8293370">
        <ele>526.9</ele>
        <time>2020-04-12T18:06:29Z</time>
      </trkpt>
      <trkpt lat="42.6183800" lon="-6.8294120">
        <ele>526.9</ele>
        <time>2020-04-12T18:06:31Z</time>
      </trkpt>
      <trkpt lat="42.6184610" lon="-6.8294880">
        <ele>526.9</ele>
        <time>2020-04-12T18:06:33Z</time>
      </trkpt>
      <trkpt lat="42.6186240" lon="-6.8296160">
        <ele>526.9</ele>
        <time>2020-04-12T18:06:35Z</time>
      </trkpt>
      <trkpt lat="42.6187160" lon="-6.8296730">
        <ele>526.9</ele>
        <time>2020-04-12T18:06:37Z</time>
      </trkpt>
      <trkpt lat="42.6189020" lon="-6.8297860">
        <ele>526.9</ele>
        <time>2020-04-12T18:06:39Z</time>
      </trkpt>
      <trkpt lat="42.6190020" lon="-6.8298350">
        <ele>527.0</ele>
        <time>2020-04-12T18:06:41Z</time>
      </trkpt>
      <trkpt lat="42.6191040" lon="-6.8298840">
        <ele>527.0</ele>
        <time>2020-04-12T18:06:43Z</time>
      </trkpt>
      <trkpt lat="42.6192080" lon="-6.8299340">
        <ele>526.9</ele>
        <time>2020-04-12T18:06:45Z</time>
      </trkpt>
      <trkpt lat="42.6193130" lon="-6.8299850">
        <ele>526.8</ele>
        <time>2020-04-12T18:06:47Z</time>
      </trkpt>
      <trkpt lat="42.6195990" lon="-6.8301240">
        <ele>526.1</ele>
        <time>2020-04-12T18:06:49Z</time>
      </trkpt>
      <trkpt lat="42.6197090" lon="-6.8301780">
        <ele>525.9</ele>
        <time>2020-04-12T18:06:51Z</time>
      </trkpt>
      <trkpt lat="42.6198260" lon="-6.8302340">
        <ele>525.6</ele>
        <time>2020-04-12T18:06:53Z</time>
      </trkpt>
      <trkpt lat="42.6199460" lon="-6.8302920">
        <ele>525.3</ele>
        <time>2020-04-12T18:06:55Z</time>
      </trkpt>
      <trkpt lat="42.6202510" lon="-6.8304400">
        <ele>524.3</ele>
        <time>2020-04-12T18:06:57Z</time>
      </trkpt>
      <trkpt lat="42.6204190" lon="-6.8304930">
        <ele>523.8</ele>
        <time>2020-04-12T18:06:59Z</time>
      </trkpt>
      <trkpt lat="42.6205600" lon="-6.8305040">
        <ele>523.4</ele>
        <time>2020-04-12T18:07:01Z</time>
      </trkpt>
      <trkpt lat="42.6207630" lon="-6.8304800">
        <ele>522.8</ele>
        <time>2020-04-12T18:07:03Z</time>
      </trkpt>
      <trkpt lat="42.6209470" lon="-6.8304120">
        <ele>522.4</ele>
        <time>2020-04-12T18:07:05Z</time>
      </trkpt>
      <trkpt lat="42.6211150" lon="-6.8303120">
        <ele>522.1</ele>
        <time>2020-04-12T18:07:07Z</time>
      </trkpt>
      <trkpt lat="42.6212220" lon="-6.8302330">
        <ele>521.8</ele>
        <time>2020-04-12T18:07:09Z</time>
      </trkpt>
      <trkpt lat="42.6213260" lon="-6.8301550">
        <ele>521.5</ele>
        <time>2020-04-12T18:07:11Z</time>
      </trkpt>
      <trkpt lat="42.6215340" lon="-6.8300010">
        <ele>521.2</ele>
        <time>2020-04-12T18:07:13Z</time>
      </trkpt>
      <trkpt lat="42.6216320" lon="-6.8299290">
        <ele>521.2</ele>
        <time>2020-04-12T18:07:15Z</time>
      </trkpt>
      <trkpt lat="42.6217260" lon="-6.8298590">
        <ele>521.2</ele>
        <time>2020-04-12T18:07:17Z</time>
      </trkpt>
      <trkpt lat="42.6219300" lon="-6.8297260">
        <ele>521.2</ele>
        <time>2020-04-12T18:07:19Z</time>
      </trkpt>
      <trkpt lat="42.6220250" lon="-6.8296800">
        <ele>521.3</ele>
        <time>2020-04-12T18:07:21Z</time>
      </trkpt>
      <trkpt lat="42.6221160" lon="-6.8296350">
        <ele>521.4</ele>
        <time>2020-04-12T18:07:23Z</time>
      </trkpt>
      <trkpt lat="42.6223120" lon="-6.8295730">
        <ele>521.7</ele>
        <time>2020-04-12T18:07:25Z</time>
      </trkpt>
      <trkpt lat="42.6224050" lon="-6.8295790">
        <ele>521.9</ele>
        <time>2020-04-12T18:07:27Z</time>
      </trkpt>
      <trkpt lat="42.6224950" lon="-6.8295840">
        <ele>522.0</ele>
        <time>2020-04-12T18:07:29Z</time>
      </trkpt>
      <trkpt lat="42.6226740" lon="-6.8296210">
        <ele>522.3</ele>
        <time>2020-04-12T18:07:31Z</time>
      </trkpt>
      <trkpt lat="42.6227560" lon="-6.8296600">
        <ele>522.4</ele>
        <time>2020-04-12T18:07:33Z</time>
      </trkpt>
      <trkpt lat="42.6228840" lon="-6.8297480">
        <ele>522.6</ele>
        <time>2020-04-12T18:07:35Z</time>
      </trkpt>
      <trkpt lat="42.6229540" lon="-6.8298110">
        <ele>522.7</ele>
        <time>2020-04-12T18:07:37Z</time>
      </trkpt>
      <trkpt lat="42.6230670" lon="-6.8299360">
        <ele>522.8</ele>
        <time>2020-04-12T18:07:39Z</time>
      </trkpt>
      <trkpt lat="42.6231240" lon="-6.8300170">
        <ele>522.9</ele>
        <time>2020-04-12T18:07:41Z</time>
      </trkpt>
      <trkpt lat="42.6232160" lon="-6.8301700">
        <ele>522.9</ele>
        <time>2020-04-12T18:07:43Z</time>
      </trkpt>
      <trkpt lat="42.6232560" lon="-6.8302650">
        <ele>523.0</ele>
        <time>2020-04-12T18:07:45Z</time>
      </trkpt>
      <trkpt lat="42.6233170" lon="-6.8304330">
        <ele>523.0</ele>
        <time>2020-04-12T18:07:47Z</time>
      </trkpt>
      <trkpt lat="42.6233440" lon="-6.8305350">
        <ele>523.0</ele>
        <time>2020-04-12T18:07:49Z</time>
      </trkpt>
      <trkpt lat="42.6233800" lon="-6.8307100">
        <ele>523.0</ele>
        <time>2020-04-12T18:07:51Z</time>
      </trkpt>
      <trkpt lat="42.6233870" lon="-6.8308590">
        <ele>523.0</ele>
        <time>2020-04-12T18:07:53Z</time>
      </trkpt>
      <trkpt lat="42.6233830" lon="-6.8309710">
        <ele>523.0</ele>
        <time>2020-04-12T18:07:55Z</time>
      </trkpt>
      <trkpt lat="42.6233780" lon="-6.8310850">
        <ele>523.0</ele>
        <time>2020-04-12T18:07:57Z</time>
      </trkpt>
      <trkpt lat="42.6233630" lon="-6.8313310">
        <ele>523.0</ele>
        <time>2020-04-12T18:07:59Z</time>
      </trkpt>
      <trkpt lat="42.6233480" lon="-6.8314580">
        <ele>523.0</ele>
        <time>2020-04-12T18:08:01Z</time>
      </trkpt>
      <trkpt lat="42.6233310" lon="-6.8315940">
        <ele>523.0</ele>
        <time>2020-04-12T18:08:03Z</time>
      </trkpt>
      <trkpt lat="42.6233130" lon="-6.8317390">
        <ele>523.0</ele>
        <time>2020-04-12T18:08:05Z</time>
      </trkpt>
      <trkpt lat="42.6232660" lon="-6.8321000">
        <ele>523.1</ele>
        <time>2020-04-12T18:08:07Z</time>
      </trkpt>
      <trkpt lat="42.6232350" lon="-6.8322540">
        <ele>523.1</ele>
        <time>2020-04-12T18:08:09Z</time>
      </trkpt>
      <trkpt lat="42.6231790" lon="-6.8325320">
        <ele>523.1</ele>
        <time>2020-04-12T18:08:11Z</time>
      </trkpt>
      <trkpt lat="42.6231350" lon="-6.8326900">
        <ele>523.1</ele>
        <time>2020-04-12T18:08:13Z</time>
      </trkpt>
      <trkpt lat="42.6230890" lon="-6.8328510">
        <ele>523.1</ele>
        <time>2020-04-12T18:08:15Z</time>
      </trkpt>
      <trkpt lat="42.6229870" lon="-6.8331470">
        <ele>523.1</ele>
        <time>2020-04-12T18:08:17Z</time>
      </trkpt>
      <trkpt lat="42.6229120" lon="-6.8333000">
        <ele>523.1</ele>
        <time>2020-04-12T18:08:19Z</time>
      </trkpt>
      <trkpt lat="42.6228340" lon="-6.8334580">
        <ele>523.2</ele>
        <time>2020-04-12T18:08:21Z</time>
      </trkpt>
      <trkpt lat="42.6226560" lon="-6.8338040">
        <ele>523.3</ele>
        <time>2020-04-12T18:08:23Z</time>
      </trkpt>
      <trkpt lat="42.6225080" lon="-6.8340120">
        <ele>523.5</ele>
        <time>2020-04-12T18:08:25Z</time>
      </trkpt>
      <trkpt lat="42.6223930" lon="-6.8341470">
        <ele>523.7</ele>
        <time>2020-04-12T18:08:27Z</time>
      </trkpt>
      <trkpt lat="42.6222770" lon="-6.8342840">
        <ele>523.8</ele>
        <time>2020-04-12T18:08:29Z</time>
      </trkpt>
      <trkpt lat="42.6221590" lon="-6.8344220">
        <ele>524.0</ele>
        <time>2020-04-12T18:08:31Z</time>
      </trkpt>
      <trkpt lat="42.6218730" lon="-6.8347600">
        <ele>524.6</ele>
        <time>2020-04-12T18:08:33Z</time>
      </trkpt>
      <trkpt lat="42.6217170" lon="-6.8349730">
        <ele>525.1</ele>
        <time>2020-04-12T18:08:35Z</time>
      </trkpt>
      <trkpt lat="42.6215880" lon="-6.8351020">
        <ele>525.4</ele>
        <time>2020-04-12T18:08:37Z</time>
      </trkpt>
      <trkpt lat="42.6214620" lon="-6.8352280">
        <ele>525.7</ele>
        <time>2020-04-12T18:08:39Z</time>
      </trkpt>
      <trkpt lat="42.6212130" lon="-6.8354860">
        <ele>526.3</ele>
        <time>2020-04-12T18:08:41Z</time>
      </trkpt>
      <trkpt lat="42.6211200" lon="-6.8356910">
        <ele>526.7</ele>
        <time>2020-04-12T18:08:43Z</time>
      </trkpt>
      <trkpt lat="42.6210490" lon="-6.8359720">
        <ele>527.2</ele>
        <time>2020-04-12T18:08:45Z</time>
      </trkpt>
      <trkpt lat="42.6210440" lon="-6.8361620">
        <ele>527.4</ele>
        <time>2020-04-12T18:08:47Z</time>
      </trkpt>
      <trkpt lat="42.6210540" lon="-6.8364480">
        <ele>527.8</ele>
        <time>2020-04-12T18:08:49Z</time>
      </trkpt>
      <trkpt lat="42.6210970" lon="-6.8367190">
        <ele>528.0</ele>
        <time>2020-04-12T18:08:51Z</time>
      </trkpt>
      <trkpt lat="42.6211940" lon="-6.8369020">
        <ele>528.3</ele>
        <time>2020-04-12T18:08:53Z</time>
      </trkpt>
      <trkpt lat="42.6213340" lon="-6.8371010">
        <ele>528.6</ele>
        <time>2020-04-12T18:08:55Z</time>
      </trkpt>
      <trkpt lat="42.6214500" lon="-6.8372010">
        <ele>528.7</ele>
        <time>2020-04-12T18:08:57Z</time>
      </trkpt>
      <trkpt lat="42.6216470" lon="-6.8373620">
        <ele>529.0</ele>
        <time>2020-04-12T18:08:59Z</time>
      </trkpt>
      <trkpt lat="42.6218310" lon="-6.8374860">
        <ele>529.5</ele>
        <time>2020-04-12T18:09:01Z</time>
      </trkpt>
      <trkpt lat="42.6219650" lon="-6.8375560">
        <ele>529.7</ele>
        <time>2020-04-12T18:09:03Z</time>
      </trkpt>
      <trkpt lat="42.6221520" lon="-6.8376840">
        <ele>530.0</ele>
        <time>2020-04-12T18:09:05Z</time>
      </trkpt>
      <trkpt lat="42.6223260" lon="-6.8378500">
        <ele>530.3</ele>
        <time>2020-04-12T18:09:07Z</time>
      </trkpt>
      <trkpt lat="42.6224830" lon="-6.8380500">
        <ele>530.5</ele>
        <time>2020-04-12T18:09:09Z</time>
      </trkpt>
      <trkpt lat="42.6225760" lon="-6.8381940">
        <ele>530.5</ele>
        <time>2020-04-12T18:09:11Z</time>
      </trkpt>
      <trkpt lat="42.6227090" lon="-6.8384290">
        <ele>530.6</ele>
        <time>2020-04-12T18:09:13Z</time>
      </trkpt>
      <trkpt lat="42.6227790" lon="-6.8385870">
        <ele>530.7</ele>
        <time>2020-04-12T18:09:15Z</time>
      </trkpt>
      <trkpt lat="42.6229190" lon="-6.8388540">
        <ele>530.8</ele>
        <time>2020-04-12T18:09:17Z</time>
      </trkpt>
      <trkpt lat="42.6230400" lon="-6.8389130">
        <ele>531.4</ele>
        <time>2020-04-12T18:09:19Z</time>
      </trkpt>
      <trkpt lat="42.6231540" lon="-6.8389680">
        <ele>532.3</ele>
        <time>2020-04-12T18:09:21Z</time>
      </trkpt>
      <trkpt lat="42.6233530" lon="-6.8390910">
        <ele>533.8</ele>
        <time>2020-04-12T18:09:23Z</time>
      </trkpt>
      <trkpt lat="42.6234480" lon="-6.8391640">
        <ele>534.5</ele>
        <time>2020-04-12T18:09:25Z</time>
      </trkpt>
      <trkpt lat="42.6236290" lon="-6.8393030">
        <ele>535.3</ele>
        <time>2020-04-12T18:09:27Z</time>
      </trkpt>
      <trkpt lat="42.6237150" lon="-6.8393730">
        <ele>535.5</ele>
        <time>2020-04-12T18:09:29Z</time>
      </trkpt>
      <trkpt lat="42.6238430" lon="-6.8395030">
        <ele>535.9</ele>
        <time>2020-04-12T18:09:31Z</time>
      </trkpt>
      <trkpt lat="42.6239080" lon="-6.8396070">
        <ele>536.1</ele>
        <time>2020-04-12T18:09:33Z</time>
      </trkpt>
      <trkpt lat="42.6239730" lon="-6.8397130">
        <ele>536.2</ele>
        <time>2020-04-12T18:09:35Z</time>
      </trkpt>
      <trkpt lat="42.6240890" lon="-6.8399320">
        <ele>536.5</ele>
        <time>2020-04-12T18:09:37Z</time>
      </trkpt>
      <trkpt lat="42.6241430" lon="-6.8400570">
        <ele>536.7</ele>
        <time>2020-04-12T18:09:39Z</time>
      </trkpt>
      <trkpt lat="42.6241970" lon="-6.8401840">
        <ele>537.0</ele>
        <time>2020-04-12T18:09:41Z</time>
      </trkpt>
      <trkpt lat="42.6242520" lon="-6.8403110">
        <ele>537.3</ele>
        <time>2020-04-12T18:09:43Z</time>
      </trkpt>
      <trkpt lat="42.6243930" lon="-6.8406370">
        <ele>537.9</ele>
        <time>2020-04-12T18:09:45Z</time>
      </trkpt>
      <trkpt lat="42.6244500" lon="-6.8407680">
        <ele>538.1</ele>
        <time>2020-04-12T18:09:47Z</time>
      </trkpt>
      <trkpt lat="42.6245070" lon="-6.8409000">
        <ele>538.3</ele>
        <time>2020-04-12T18:09:49Z</time>
      </trkpt>
      <trkpt lat="42.6245650" lon="-6.8410340">
        <ele>538.5</ele>
        <time>2020-04-12T18:09:51Z</time>
      </trkpt>
      <trkpt lat="42.6247040" lon="-6.8413650">
        <ele>538.9</ele>
        <time>2020-04-12T18:09:53Z</time>
      </trkpt>
      <trkpt lat="42.6247500" lon="-6.8414900">
        <ele>539.1</ele>
        <time>2020-04-12T18:09:55Z</time>
      </trkpt>
      <trkpt lat="42.6247920" lon="-6.8416010">
        <ele>539.2</ele>
        <time>2020-04-12T18:09:57Z</time>
      </trkpt>
      <trkpt lat="42.6248820" lon="-6.8418450">
        <ele>539.3</ele>
        <time>2020-04-12T18:09:59Z</time>
      </trkpt>
      <trkpt lat="42.6249250" lon="-6.8419290">
        <ele>539.4</ele>
        <time>2020-04-12T18:10:01Z</time>
      </trkpt>
      <trkpt lat="42.6249650" lon="-6.8420070">
        <ele>539.5</ele>
        <time>2020-04-12T18:10:03Z</time>
      </trkpt>
      <trkpt lat="42.6250010" lon="-6.8420780">
        <ele>539.5</ele>
        <time>2020-04-12T18:10:05Z</time>
      </trkpt>
      <trkpt lat="42.6250350" lon="-6.8421450">
        <ele>539.6</ele>
        <time>2020-04-12T18:10:07Z</time>
      </trkpt>
      <trkpt lat="42.6250670" lon="-6.8422080">
        <ele>539.6</ele>
        <time>2020-04-12T18:10:09Z</time>
      </trkpt>
      <trkpt lat="42.6250980" lon="-6.8422700">
        <ele>539.7</ele>
        <time>2020-04-12T18:10:11Z</time>
      </trkpt>
      <trkpt lat="42.6252110" lon="-6.8424920">
        <ele>540.4</ele>
        <time>2020-04-12T18:10:13Z</time>
      </trkpt>
      <trkpt lat="42.6252440" lon="-6.8425570">
        <ele>540.7</ele>
        <time>2020-04-12T18:10:15Z</time>
      </trkpt>
      <trkpt lat="42.6252780" lon="-6.8426230">
        <ele>541.1</ele>
        <time>2020-04-12T18:10:17Z</time>
      </trkpt>
      <trkpt lat="42.6253120" lon="-6.8426900">
        <ele>541.4</ele>
        <time>2020-04-12T18:10:19Z</time>
      </trkpt>
      <trkpt lat="42.6253460" lon="-6.8427570">
        <ele>541.7</ele>
        <time>2020-04-12T18:10:21Z</time>
      </trkpt>
      <trkpt lat="42.6253800" lon="-6.8428240">
        <ele>542.0</ele>
        <time>2020-04-12T18:10:23Z</time>
      </trkpt>
      <trkpt lat="42.6254140" lon="-6.8428910">
        <ele>542.3</ele>
        <time>2020-04-12T18:10:25Z</time>
      </trkpt>
      <trkpt lat="42.6255370" lon="-6.8431130">
        <ele>543.5</ele>
        <time>2020-04-12T18:10:27Z</time>
      </trkpt>
      <trkpt lat="42.6255790" lon="-6.8431720">
        <ele>543.8</ele>
        <time>2020-04-12T18:10:29Z</time>
      </trkpt>
      <trkpt lat="42.6256210" lon="-6.8432320">
        <ele>544.2</ele>
        <time>2020-04-12T18:10:31Z</time>
      </trkpt>
      <trkpt lat="42.6256630" lon="-6.8432920">
        <ele>544.5</ele>
        <time>2020-04-12T18:10:33Z</time>
      </trkpt>
      <trkpt lat="42.6257050" lon="-6.8433520">
        <ele>544.8</ele>
        <time>2020-04-12T18:10:35Z</time>
      </trkpt>
      <trkpt lat="42.6258350" lon="-6.8435350">
        <ele>545.2</ele>
        <time>2020-04-12T18:10:37Z</time>
      </trkpt>
      <trkpt lat="42.6258920" lon="-6.8435920">
        <ele>545.3</ele>
        <time>2020-04-12T18:10:39Z</time>
      </trkpt>
      <trkpt lat="42.6260060" lon="-6.8437080">
        <ele>545.2</ele>
        <time>2020-04-12T18:10:41Z</time>
      </trkpt>
      <trkpt lat="42.6260750" lon="-6.8438030">
        <ele>545.2</ele>
        <time>2020-04-12T18:10:43Z</time>
      </trkpt>
      <trkpt lat="42.6261400" lon="-6.8439800">
        <ele>544.9</ele>
        <time>2020-04-12T18:10:45Z</time>
      </trkpt>
      <trkpt lat="42.6261750" lon="-6.8441330">
        <ele>544.5</ele>
        <time>2020-04-12T18:10:47Z</time>
      </trkpt>
      <trkpt lat="42.6262510" lon="-6.8444310">
        <ele>543.5</ele>
        <time>2020-04-12T18:10:49Z</time>
      </trkpt>
      <trkpt lat="42.6263060" lon="-6.8445950">
        <ele>542.9</ele>
        <time>2020-04-12T18:10:51Z</time>
      </trkpt>
      <trkpt lat="42.6263640" lon="-6.8447660">
        <ele>542.2</ele>
        <time>2020-04-12T18:10:53Z</time>
      </trkpt>
      <trkpt lat="42.6264480" lon="-6.8451120">
        <ele>540.6</ele>
        <time>2020-04-12T18:10:55Z</time>
      </trkpt>
      <trkpt lat="42.6264710" lon="-6.8453070">
        <ele>539.7</ele>
        <time>2020-04-12T18:10:57Z</time>
      </trkpt>
      <trkpt lat="42.6265190" lon="-6.8456570">
        <ele>538.0</ele>
        <time>2020-04-12T18:10:59Z</time>
      </trkpt>
      <trkpt lat="42.6265550" lon="-6.8458500">
        <ele>537.0</ele>
        <time>2020-04-12T18:11:01Z</time>
      </trkpt>
      <trkpt lat="42.6266650" lon="-6.8461310">
        <ele>535.9</ele>
        <time>2020-04-12T18:11:03Z</time>
      </trkpt>
      <trkpt lat="42.6268050" lon="-6.8461980">
        <ele>535.6</ele>
        <time>2020-04-12T18:11:05Z</time>
      </trkpt>
      <trkpt lat="42.6269440" lon="-6.8462650">
        <ele>535.5</ele>
        <time>2020-04-12T18:11:07Z</time>
      </trkpt>
      <trkpt lat="42.6272200" lon="-6.8463720">
        <ele>535.6</ele>
        <time>2020-04-12T18:11:09Z</time>
      </trkpt>
      <trkpt lat="42.6273620" lon="-6.8464100">
        <ele>535.6</ele>
        <time>2020-04-12T18:11:11Z</time>
      </trkpt>
      <trkpt lat="42.6276440" lon="-6.8464860">
        <ele>535.6</ele>
        <time>2020-04-12T18:11:13Z</time>
      </trkpt>
      <trkpt lat="42.6277810" lon="-6.8465230">
        <ele>535.6</ele>
        <time>2020-04-12T18:11:15Z</time>
      </trkpt>
      <trkpt lat="42.6279160" lon="-6.8465590">
        <ele>535.6</ele>
        <time>2020-04-12T18:11:17Z</time>
      </trkpt>
      <trkpt lat="42.6281920" lon="-6.8466340">
        <ele>535.6</ele>
        <time>2020-04-12T18:11:19Z</time>
      </trkpt>
      <trkpt lat="42.6283210" lon="-6.8466740">
        <ele>535.6</ele>
        <time>2020-04-12T18:11:21Z</time>
      </trkpt>
      <trkpt lat="42.6285180" lon="-6.8467430">
        <ele>535.7</ele>
        <time>2020-04-12T18:11:23Z</time>
      </trkpt>
      <trkpt lat="42.6286340" lon="-6.8467990">
        <ele>535.8</ele>
        <time>2020-04-12T18:11:25Z</time>
      </trkpt>
      <trkpt lat="42.6288310" lon="-6.8469000">
        <ele>536.0</ele>
        <time>2020-04-12T18:11:27Z</time>
      </trkpt>
      <trkpt lat="42.6289350" lon="-6.8469650">
        <ele>536.1</ele>
        <time>2020-04-12T18:11:29Z</time>
      </trkpt>
      <trkpt lat="42.6291070" lon="-6.8470790">
        <ele>536.3</ele>
        <time>2020-04-12T18:11:31Z</time>
      </trkpt>
      <trkpt lat="42.6292020" lon="-6.8471540">
        <ele>536.4</ele>
        <time>2020-04-12T18:11:33Z</time>
      </trkpt>
      <trkpt lat="42.6292940" lon="-6.8472270">
        <ele>536.5</ele>
        <time>2020-04-12T18:11:35Z</time>
      </trkpt>
      <trkpt lat="42.6294820" lon="-6.8473790">
        <ele>536.7</ele>
        <time>2020-04-12T18:11:37Z</time>
      </trkpt>
      <trkpt lat="42.6295660" lon="-6.8474560">
        <ele>536.8</ele>
        <time>2020-04-12T18:11:39Z</time>
      </trkpt>
      <trkpt lat="42.6296490" lon="-6.8475310">
        <ele>536.9</ele>
        <time>2020-04-12T18:11:41Z</time>
      </trkpt>
      <trkpt lat="42.6297300" lon="-6.8476050">
        <ele>537.0</ele>
        <time>2020-04-12T18:11:43Z</time>
      </trkpt>
      <trkpt lat="42.6299230" lon="-6.8477900">
        <ele>537.2</ele>
        <time>2020-04-12T18:11:45Z</time>
      </trkpt>
      <trkpt lat="42.6299950" lon="-6.8478750">
        <ele>537.3</ele>
        <time>2020-04-12T18:11:47Z</time>
      </trkpt>
      <trkpt lat="42.6300670" lon="-6.8479600">
        <ele>537.4</ele>
        <time>2020-04-12T18:11:49Z</time>
      </trkpt>
      <trkpt lat="42.6301370" lon="-6.8480430">
        <ele>537.6</ele>
        <time>2020-04-12T18:11:51Z</time>
      </trkpt>
      <trkpt lat="42.6302080" lon="-6.8481270">
        <ele>537.7</ele>
        <time>2020-04-12T18:11:53Z</time>
      </trkpt>
      <trkpt lat="42.6302780" lon="-6.8482100">
        <ele>537.9</ele>
        <time>2020-04-12T18:11:55Z</time>
      </trkpt>
      <trkpt lat="42.6304980" lon="-6.8484710">
        <ele>538.3</ele>
        <time>2020-04-12T18:11:57Z</time>
      </trkpt>
      <trkpt lat="42.6305670" lon="-6.8485530">
        <ele>538.4</ele>
        <time>2020-04-12T18:11:59Z</time>
      </trkpt>
      <trkpt lat="42.6306360" lon="-6.8486340">
        <ele>538.5</ele>
        <time>2020-04-12T18:12:01Z</time>
      </trkpt>
      <trkpt lat="42.6307040" lon="-6.8487160">
        <ele>538.6</ele>
        <time>2020-04-12T18:12:03Z</time>
      </trkpt>
      <trkpt lat="42.6307720" lon="-6.8487970">
        <ele>538.6</ele>
        <time>2020-04-12T18:12:05Z</time>
      </trkpt>
      <trkpt lat="42.6308400" lon="-6.8488770">
        <ele>538.7</ele>
        <time>2020-04-12T18:12:07Z</time>
      </trkpt>
      <trkpt lat="42.6310600" lon="-6.8491370">
        <ele>538.9</ele>
        <time>2020-04-12T18:12:09Z</time>
      </trkpt>
      <trkpt lat="42.6311270" lon="-6.8492170">
        <ele>538.9</ele>
        <time>2020-04-12T18:12:11Z</time>
      </trkpt>
      <trkpt lat="42.6311940" lon="-6.8492970">
        <ele>539.0</ele>
        <time>2020-04-12T18:12:13Z</time>
      </trkpt>
      <trkpt lat="42.6312620" lon="-6.8493770">
        <ele>539.1</ele>
        <time>2020-04-12T18:12:15Z</time>
      </trkpt>
      <trkpt lat="42.6313290" lon="-6.8494570">
        <ele>539.1</ele>
        <time>2020-04-12T18:12:17Z</time>
      </trkpt>
      <trkpt lat="42.6313960" lon="-6.8495360">
        <ele>539.2</ele>
        <time>2020-04-12T18:12:19Z</time>
      </trkpt>
      <trkpt lat="42.6316140" lon="-6.8497960">
        <ele>539.3</ele>
        <time>2020-04-12T18:12:21Z</time>
      </trkpt>
      <trkpt lat="42.6316790" lon="-6.8498780">
        <ele>539.4</ele>
        <time>2020-04-12T18:12:23Z</time>
      </trkpt>
      <trkpt lat="42.6317440" lon="-6.8499590">
        <ele>539.4</ele>
        <time>2020-04-12T18:12:25Z</time>
      </trkpt>
      <trkpt lat="42.6318090" lon="-6.8500410">
        <ele>539.4</ele>
        <time>2020-04-12T18:12:27Z</time>
      </trkpt>
      <trkpt lat="42.6318740" lon="-6.8501230">
        <ele>539.4</ele>
        <time>2020-04-12T18:12:29Z</time>
      </trkpt>
      <trkpt lat="42.6319390" lon="-6.8502050">
        <ele>539.4</ele>
        <time>2020-04-12T18:12:31Z</time>
      </trkpt>
      <trkpt lat="42.6320040" lon="-6.8502870">
        <ele>539.4</ele>
        <time>2020-04-12T18:12:33Z</time>
      </trkpt>
      <trkpt lat="42.6320690" lon="-6.8503690">
        <ele>539.4</ele>
        <time>2020-04-12T18:12:35Z</time>
      </trkpt>
      <trkpt lat="42.6323040" lon="-6.8506740">
        <ele>539.6</ele>
        <time>2020-04-12T18:12:37Z</time>
      </trkpt>
      <trkpt lat="42.6323700" lon="-6.8507700">
        <ele>539.7</ele>
        <time>2020-04-12T18:12:39Z</time>
      </trkpt>
      <trkpt lat="42.6324380" lon="-6.8508710">
        <ele>539.8</ele>
        <time>2020-04-12T18:12:41Z</time>
      </trkpt>
      <trkpt lat="42.6325810" lon="-6.8510720">
        <ele>540.0</ele>
        <time>2020-04-12T18:12:43Z</time>
      </trkpt>
      <trkpt lat="42.6326560" lon="-6.8511740">
        <ele>540.1</ele>
        <time>2020-04-12T18:12:45Z</time>
      </trkpt>
      <trkpt lat="42.6327330" lon="-6.8512780">
        <ele>540.1</ele>
        <time>2020-04-12T18:12:47Z</time>
      </trkpt>
      <trkpt lat="42.6328120" lon="-6.8513840">
        <ele>540.2</ele>
        <time>2020-04-12T18:12:49Z</time>
      </trkpt>
      <trkpt lat="42.6330160" lon="-6.8516600">
        <ele>540.2</ele>
        <time>2020-04-12T18:12:51Z</time>
      </trkpt>
      <trkpt lat="42.6330970" lon="-6.8517690">
        <ele>540.3</ele>
        <time>2020-04-12T18:12:53Z</time>
      </trkpt>
      <trkpt lat="42.6331790" lon="-6.8518800">
        <ele>540.3</ele>
        <time>2020-04-12T18:12:55Z</time>
      </trkpt>
      <trkpt lat="42.6332610" lon="-6.8519910">
        <ele>540.3</ele>
        <time>2020-04-12T18:12:57Z</time>
      </trkpt>
      <trkpt lat="42.6334680" lon="-6.8522670">
        <ele>540.3</ele>
        <time>2020-04-12T18:12:59Z</time>
      </trkpt>
      <trkpt lat="42.6335900" lon="-6.8523630">
        <ele>540.3</ele>
        <time>2020-04-12T18:13:01Z</time>
      </trkpt>
      <trkpt lat="42.6337440" lon="-6.8524590">
        <ele>540.3</ele>
        <time>2020-04-12T18:13:03Z</time>
      </trkpt>
      <trkpt lat="42.6338570" lon="-6.8525010">
        <ele>540.3</ele>
        <time>2020-04-12T18:13:05Z</time>
      </trkpt>
      <trkpt lat="42.6339710" lon="-6.8525430">
        <ele>540.3</ele>
        <time>2020-04-12T18:13:07Z</time>
      </trkpt>
      <trkpt lat="42.6342090" lon="-6.8526320">
        <ele>540.3</ele>
        <time>2020-04-12T18:13:09Z</time>
      </trkpt>
      <trkpt lat="42.6343240" lon="-6.8526750">
        <ele>540.4</ele>
        <time>2020-04-12T18:13:11Z</time>
      </trkpt>
      <trkpt lat="42.6344380" lon="-6.8527170">
        <ele>540.4</ele>
        <time>2020-04-12T18:13:13Z</time>
      </trkpt>
      <trkpt lat="42.6346760" lon="-6.8528070">
        <ele>540.6</ele>
        <time>2020-04-12T18:13:15Z</time>
      </trkpt>
      <trkpt lat="42.6348280" lon="-6.8528820">
        <ele>541.0</ele>
        <time>2020-04-12T18:13:17Z</time>
      </trkpt>
      <trkpt lat="42.6349360" lon="-6.8529520">
        <ele>541.2</ele>
        <time>2020-04-12T18:13:19Z</time>
      </trkpt>
      <trkpt lat="42.6350430" lon="-6.8530220">
        <ele>541.4</ele>
        <time>2020-04-12T18:13:21Z</time>
      </trkpt>
      <trkpt lat="42.6351510" lon="-6.8530930">
        <ele>541.5</ele>
        <time>2020-04-12T18:13:23Z</time>
      </trkpt>
      <trkpt lat="42.6353850" lon="-6.8532570">
        <ele>541.6</ele>
        <time>2020-04-12T18:13:25Z</time>
      </trkpt>
      <trkpt lat="42.6354890" lon="-6.8533380">
        <ele>541.6</ele>
        <time>2020-04-12T18:13:27Z</time>
      </trkpt>
      <trkpt lat="42.6355920" lon="-6.8534190">
        <ele>541.7</ele>
        <time>2020-04-12T18:13:29Z</time>
      </trkpt>
      <trkpt lat="42.6358300" lon="-6.8536080">
        <ele>541.8</ele>
        <time>2020-04-12T18:13:31Z</time>
      </trkpt>
      <trkpt lat="42.6359300" lon="-6.8536990">
        <ele>541.8</ele>
        <time>2020-04-12T18:13:33Z</time>
      </trkpt>
      <trkpt lat="42.6360300" lon="-6.8537890">
        <ele>541.9</ele>
        <time>2020-04-12T18:13:35Z</time>
      </trkpt>
      <trkpt lat="42.6361300" lon="-6.8538780">
        <ele>542.0</ele>
        <time>2020-04-12T18:13:37Z</time>
      </trkpt>
      <trkpt lat="42.6362300" lon="-6.8539690">
        <ele>542.2</ele>
        <time>2020-04-12T18:13:39Z</time>
      </trkpt>
      <trkpt lat="42.6364920" lon="-6.8542050">
        <ele>542.5</ele>
        <time>2020-04-12T18:13:41Z</time>
      </trkpt>
      <trkpt lat="42.6365890" lon="-6.8542930">
        <ele>542.5</ele>
        <time>2020-04-12T18:13:43Z</time>
      </trkpt>
      <trkpt lat="42.6366860" lon="-6.8543810">
        <ele>542.6</ele>
        <time>2020-04-12T18:13:45Z</time>
      </trkpt>
      <trkpt lat="42.6367820" lon="-6.8544670">
        <ele>542.7</ele>
        <time>2020-04-12T18:13:47Z</time>
      </trkpt>
      <trkpt lat="42.6368770" lon="-6.8545530">
        <ele>542.8</ele>
        <time>2020-04-12T18:13:49Z</time>
      </trkpt>
      <trkpt lat="42.6371290" lon="-6.8547930">
        <ele>543.2</ele>
        <time>2020-04-12T18:13:51Z</time>
      </trkpt>
      <trkpt lat="42.6372820" lon="-6.8549530">
        <ele>543.4</ele>
        <time>2020-04-12T18:13:53Z</time>
      </trkpt>
      <trkpt lat="42.6373580" lon="-6.8550660">
        <ele>543.5</ele>
        <time>2020-04-12T18:13:55Z</time>
      </trkpt>
      <trkpt lat="42.6374340" lon="-6.8551780">
        <ele>543.7</ele>
        <time>2020-04-12T18:13:57Z</time>
      </trkpt>
      <trkpt lat="42.6375100" lon="-6.8552900">
        <ele>543.8</ele>
        <time>2020-04-12T18:13:59Z</time>
      </trkpt>
      <trkpt lat="42.6375850" lon="-6.8554020">
        <ele>543.9</ele>
        <time>2020-04-12T18:14:01Z</time>
      </trkpt>
      <trkpt lat="42.6377850" lon="-6.8557030">
        <ele>544.0</ele>
        <time>2020-04-12T18:14:03Z</time>
      </trkpt>
      <trkpt lat="42.6378540" lon="-6.8558190">
        <ele>544.1</ele>
        <time>2020-04-12T18:14:05Z</time>
      </trkpt>
      <trkpt lat="42.6379240" lon="-6.8559360">
        <ele>544.2</ele>
        <time>2020-04-12T18:14:07Z</time>
      </trkpt>
      <trkpt lat="42.6379930" lon="-6.8560530">
        <ele>544.3</ele>
        <time>2020-04-12T18:14:09Z</time>
      </trkpt>
      <trkpt lat="42.6380630" lon="-6.8561700">
        <ele>544.4</ele>
        <time>2020-04-12T18:14:11Z</time>
      </trkpt>
      <trkpt lat="42.6381320" lon="-6.8562860">
        <ele>544.5</ele>
        <time>2020-04-12T18:14:13Z</time>
      </trkpt>
      <trkpt lat="42.6383380" lon="-6.8566500">
        <ele>544.8</ele>
        <time>2020-04-12T18:14:15Z</time>
      </trkpt>
      <trkpt lat="42.6384140" lon="-6.8568310">
        <ele>544.9</ele>
        <time>2020-04-12T18:14:17Z</time>
      </trkpt>
      <trkpt lat="42.6384830" lon="-6.8570340">
        <ele>545.1</ele>
        <time>2020-04-12T18:14:19Z</time>
      </trkpt>
      <trkpt lat="42.6385110" lon="-6.8571770">
        <ele>545.2</ele>
        <time>2020-04-12T18:14:21Z</time>
      </trkpt>
      <trkpt lat="42.6385390" lon="-6.8573200">
        <ele>545.4</ele>
        <time>2020-04-12T18:14:23Z</time>
      </trkpt>
      <trkpt lat="42.6385670" lon="-6.8574640">
        <ele>545.5</ele>
        <time>2020-04-12T18:14:25Z</time>
      </trkpt>
      <trkpt lat="42.6386220" lon="-6.8577820">
        <ele>545.6</ele>
        <time>2020-04-12T18:14:27Z</time>
      </trkpt>
      <trkpt lat="42.6386400" lon="-6.8579290">
        <ele>545.6</ele>
        <time>2020-04-12T18:14:29Z</time>
      </trkpt>
      <trkpt lat="42.6386580" lon="-6.8580750">
        <ele>545.7</ele>
        <time>2020-04-12T18:14:31Z</time>
      </trkpt>
      <trkpt lat="42.6386760" lon="-6.8582210">
        <ele>545.9</ele>
        <time>2020-04-12T18:14:33Z</time>
      </trkpt>
      <trkpt lat="42.6386940" lon="-6.8583680">
        <ele>546.1</ele>
        <time>2020-04-12T18:14:35Z</time>
      </trkpt>
      <trkpt lat="42.6387120" lon="-6.8585140">
        <ele>546.4</ele>
        <time>2020-04-12T18:14:37Z</time>
      </trkpt>
      <trkpt lat="42.6387680" lon="-6.8589730">
        <ele>547.0</ele>
        <time>2020-04-12T18:14:39Z</time>
      </trkpt>
      <trkpt lat="42.6387860" lon="-6.8591150">
        <ele>547.1</ele>
        <time>2020-04-12T18:14:41Z</time>
      </trkpt>
      <trkpt lat="42.6388030" lon="-6.8592540">
        <ele>547.2</ele>
        <time>2020-04-12T18:14:43Z</time>
      </trkpt>
      <trkpt lat="42.6388190" lon="-6.8593910">
        <ele>547.4</ele>
        <time>2020-04-12T18:14:45Z</time>
      </trkpt>
      <trkpt lat="42.6388360" lon="-6.8595260">
        <ele>547.5</ele>
        <time>2020-04-12T18:14:47Z</time>
      </trkpt>
      <trkpt lat="42.6388520" lon="-6.8596590">
        <ele>547.7</ele>
        <time>2020-04-12T18:14:49Z</time>
      </trkpt>
      <trkpt lat="42.6388980" lon="-6.8601050">
        <ele>548.5</ele>
        <time>2020-04-12T18:14:51Z</time>
      </trkpt>
      <trkpt lat="42.6388940" lon="-6.8602370">
        <ele>548.8</ele>
        <time>2020-04-12T18:14:53Z</time>
      </trkpt>
      <trkpt lat="42.6388730" lon="-6.8604480">
        <ele>549.2</ele>
        <time>2020-04-12T18:14:55Z</time>
      </trkpt>
      <trkpt lat="42.6388450" lon="-6.8605740">
        <ele>549.4</ele>
        <time>2020-04-12T18:14:57Z</time>
      </trkpt>
      <trkpt lat="42.6387840" lon="-6.8607900">
        <ele>549.7</ele>
        <time>2020-04-12T18:14:59Z</time>
      </trkpt>
      <trkpt lat="42.6387090" lon="-6.8609410">
        <ele>550.0</ele>
        <time>2020-04-12T18:15:01Z</time>
      </trkpt>
      <trkpt lat="42.6386470" lon="-6.8610440">
        <ele>550.2</ele>
        <time>2020-04-12T18:15:03Z</time>
      </trkpt>
      <trkpt lat="42.6385300" lon="-6.8612330">
        <ele>550.6</ele>
        <time>2020-04-12T18:15:05Z</time>
      </trkpt>
      <trkpt lat="42.6384590" lon="-6.8613250">
        <ele>550.8</ele>
        <time>2020-04-12T18:15:07Z</time>
      </trkpt>
      <trkpt lat="42.6383890" lon="-6.8614170">
        <ele>551.0</ele>
        <time>2020-04-12T18:15:09Z</time>
      </trkpt>
      <trkpt lat="42.6383180" lon="-6.8615100">
        <ele>551.2</ele>
        <time>2020-04-12T18:15:11Z</time>
      </trkpt>
      <trkpt lat="42.6381460" lon="-6.8617390">
        <ele>551.7</ele>
        <time>2020-04-12T18:15:13Z</time>
      </trkpt>
      <trkpt lat="42.6380960" lon="-6.8618590">
        <ele>551.9</ele>
        <time>2020-04-12T18:15:15Z</time>
      </trkpt>
      <trkpt lat="42.6380450" lon="-6.8619820">
        <ele>552.1</ele>
        <time>2020-04-12T18:15:17Z</time>
      </trkpt>
      <trkpt lat="42.6379660" lon="-6.8622120">
        <ele>552.5</ele>
        <time>2020-04-12T18:15:19Z</time>
      </trkpt>
      <trkpt lat="42.6379330" lon="-6.8624070">
        <ele>552.7</ele>
        <time>2020-04-12T18:15:21Z</time>
      </trkpt>
      <trkpt lat="42.6379200" lon="-6.8626220">
        <ele>552.9</ele>
        <time>2020-04-12T18:15:23Z</time>
      </trkpt>
      <trkpt lat="42.6379380" lon="-6.8628250">
        <ele>553.1</ele>
        <time>2020-04-12T18:15:25Z</time>
      </trkpt>
      <trkpt lat="42.6379900" lon="-6.8630290">
        <ele>553.2</ele>
        <time>2020-04-12T18:15:27Z</time>
      </trkpt>
      <trkpt lat="42.6380400" lon="-6.8631810">
        <ele>553.2</ele>
        <time>2020-04-12T18:15:29Z</time>
      </trkpt>
      <trkpt lat="42.6381490" lon="-6.8634440">
        <ele>553.2</ele>
        <time>2020-04-12T18:15:31Z</time>
      </trkpt>
      <trkpt lat="42.6382310" lon="-6.8635860">
        <ele>553.2</ele>
        <time>2020-04-12T18:15:33Z</time>
      </trkpt>
      <trkpt lat="42.6383150" lon="-6.8637320">
        <ele>553.1</ele>
        <time>2020-04-12T18:15:35Z</time>
      </trkpt>
      <trkpt lat="42.6384020" lon="-6.8638810">
        <ele>552.9</ele>
        <time>2020-04-12T18:15:37Z</time>
      </trkpt>
      <trkpt lat="42.6384900" lon="-6.8640330">
        <ele>552.7</ele>
        <time>2020-04-12T18:15:39Z</time>
      </trkpt>
      <trkpt lat="42.6387190" lon="-6.8644410">
        <ele>552.1</ele>
        <time>2020-04-12T18:15:41Z</time>
      </trkpt>
      <trkpt lat="42.6388000" lon="-6.8645950">
        <ele>551.8</ele>
        <time>2020-04-12T18:15:43Z</time>
      </trkpt>
      <trkpt lat="42.6388780" lon="-6.8647430">
        <ele>551.6</ele>
        <time>2020-04-12T18:15:45Z</time>
      </trkpt>
      <trkpt lat="42.6389540" lon="-6.8648880">
        <ele>551.3</ele>
        <time>2020-04-12T18:15:47Z</time>
      </trkpt>
      <trkpt lat="42.6391610" lon="-6.8652820">
        <ele>550.7</ele>
        <time>2020-04-12T18:15:49Z</time>
      </trkpt>
      <trkpt lat="42.6392290" lon="-6.8654270">
        <ele>550.5</ele>
        <time>2020-04-12T18:15:51Z</time>
      </trkpt>
      <trkpt lat="42.6392960" lon="-6.8655700">
        <ele>550.4</ele>
        <time>2020-04-12T18:15:53Z</time>
      </trkpt>
      <trkpt lat="42.6393620" lon="-6.8657100">
        <ele>550.4</ele>
        <time>2020-04-12T18:15:55Z</time>
      </trkpt>
      <trkpt lat="42.6395130" lon="-6.8660300">
        <ele>550.3</ele>
        <time>2020-04-12T18:15:57Z</time>
      </trkpt>
      <trkpt lat="42.6395760" lon="-6.8661640">
        <ele>550.3</ele>
        <time>2020-04-12T18:15:59Z</time>
      </trkpt>
      <trkpt lat="42.6396380" lon="-6.8662960">
        <ele>550.3</ele>
        <time>2020-04-12T18:16:01Z</time>
      </trkpt>
      <trkpt lat="42.6396990" lon="-6.8664250">
        <ele>550.4</ele>
        <time>2020-04-12T18:16:03Z</time>
      </trkpt>
      <trkpt lat="42.6398430" lon="-6.8667380">
        <ele>550.6</ele>
        <time>2020-04-12T18:16:05Z</time>
      </trkpt>
      <trkpt lat="42.6398990" lon="-6.8668660">
        <ele>550.7</ele>
        <time>2020-04-12T18:16:07Z</time>
      </trkpt>
      <trkpt lat="42.6399550" lon="-6.8669930">
        <ele>550.9</ele>
        <time>2020-04-12T18:16:09Z</time>
      </trkpt>
      <trkpt lat="42.6400100" lon="-6.8671190">
        <ele>551.0</ele>
        <time>2020-04-12T18:16:11Z</time>
      </trkpt>
      <trkpt lat="42.6400640" lon="-6.8672410">
        <ele>551.2</ele>
        <time>2020-04-12T18:16:13Z</time>
      </trkpt>
      <trkpt lat="42.6402330" lon="-6.8676220">
        <ele>551.6</ele>
        <time>2020-04-12T18:16:15Z</time>
      </trkpt>
      <trkpt lat="42.6403350" lon="-6.8676830">
        <ele>551.7</ele>
        <time>2020-04-12T18:16:17Z</time>
      </trkpt>
      <trkpt lat="42.6405140" lon="-6.8677980">
        <ele>552.1</ele>
        <time>2020-04-12T18:16:19Z</time>
      </trkpt>
      <trkpt lat="42.6406710" lon="-6.8678660">
        <ele>552.6</ele>
        <time>2020-04-12T18:16:21Z</time>
      </trkpt>
      <trkpt lat="42.6408860" lon="-6.8678750">
        <ele>553.0</ele>
        <time>2020-04-12T18:16:23Z</time>
      </trkpt>
      <trkpt lat="42.6410420" lon="-6.8678530">
        <ele>553.1</ele>
        <time>2020-04-12T18:16:25Z</time>
      </trkpt>
      <trkpt lat="42.6413260" lon="-6.8678350">
        <ele>553.2</ele>
        <time>2020-04-12T18:16:27Z</time>
      </trkpt>
      <trkpt lat="42.6414860" lon="-6.8678860">
        <ele>553.3</ele>
        <time>2020-04-12T18:16:29Z</time>
      </trkpt>
      <trkpt lat="42.6417090" lon="-6.8679780">
        <ele>553.3</ele>
        <time>2020-04-12T18:16:31Z</time>
      </trkpt>
      <trkpt lat="42.6419150" lon="-6.8681190">
        <ele>553.4</ele>
        <time>2020-04-12T18:16:33Z</time>
      </trkpt>
      <trkpt lat="42.6421040" lon="-6.8683060">
        <ele>553.5</ele>
        <time>2020-04-12T18:16:35Z</time>
      </trkpt>
      <trkpt lat="42.6422300" lon="-6.8684500">
        <ele>553.6</ele>
        <time>2020-04-12T18:16:37Z</time>
      </trkpt>
      <trkpt lat="42.6424450" lon="-6.8686970">
        <ele>553.7</ele>
        <time>2020-04-12T18:16:39Z</time>
      </trkpt>
      <trkpt lat="42.6425600" lon="-6.8688310">
        <ele>554.0</ele>
        <time>2020-04-12T18:16:41Z</time>
      </trkpt>
      <trkpt lat="42.6426670" lon="-6.8689540">
        <ele>554.4</ele>
        <time>2020-04-12T18:16:43Z</time>
      </trkpt>
      <trkpt lat="42.6427660" lon="-6.8690690">
        <ele>554.8</ele>
        <time>2020-04-12T18:16:45Z</time>
      </trkpt>
      <trkpt lat="42.6430240" lon="-6.8693680">
        <ele>555.6</ele>
        <time>2020-04-12T18:16:47Z</time>
      </trkpt>
      <trkpt lat="42.6431110" lon="-6.8694690">
        <ele>555.9</ele>
        <time>2020-04-12T18:16:49Z</time>
      </trkpt>
      <trkpt lat="42.6431930" lon="-6.8695640">
        <ele>556.3</ele>
        <time>2020-04-12T18:16:51Z</time>
      </trkpt>
      <trkpt lat="42.6432700" lon="-6.8696530">
        <ele>556.6</ele>
        <time>2020-04-12T18:16:53Z</time>
      </trkpt>
      <trkpt lat="42.6433430" lon="-6.8697390">
        <ele>556.9</ele>
        <time>2020-04-12T18:16:55Z</time>
      </trkpt>
      <trkpt lat="42.6434140" lon="-6.8698210">
        <ele>557.2</ele>
        <time>2020-04-12T18:16:57Z</time>
      </trkpt>
      <trkpt lat="42.6436480" lon="-6.8700900">
        <ele>558.0</ele>
        <time>2020-04-12T18:16:59Z</time>
      </trkpt>
      <trkpt lat="42.6437170" lon="-6.8701660">
        <ele>558.1</ele>
        <time>2020-04-12T18:17:01Z</time>
      </trkpt>
      <trkpt lat="42.6437870" lon="-6.8702420">
        <ele>558.2</ele>
        <time>2020-04-12T18:17:03Z</time>
      </trkpt>
      <trkpt lat="42.6438580" lon="-6.8703200">
        <ele>558.3</ele>
        <time>2020-04-12T18:17:05Z</time>
      </trkpt>
      <trkpt lat="42.6440320" lon="-6.8705090">
        <ele>558.6</ele>
        <time>2020-04-12T18:17:07Z</time>
      </trkpt>
      <trkpt lat="42.6441040" lon="-6.8705870">
        <ele>558.7</ele>
        <time>2020-04-12T18:17:09Z</time>
      </trkpt>
      <trkpt lat="42.6441760" lon="-6.8706650">
        <ele>558.8</ele>
        <time>2020-04-12T18:17:11Z</time>
      </trkpt>
      <trkpt lat="42.6442480" lon="-6.8707440">
        <ele>559.0</ele>
        <time>2020-04-12T18:17:13Z</time>
      </trkpt>
      <trkpt lat="42.6444190" lon="-6.8709400">
        <ele>559.2</ele>
        <time>2020-04-12T18:17:15Z</time>
      </trkpt>
      <trkpt lat="42.6444810" lon="-6.8710360">
        <ele>559.3</ele>
        <time>2020-04-12T18:17:17Z</time>
      </trkpt>
      <trkpt lat="42.6445450" lon="-6.8711340">
        <ele>559.4</ele>
        <time>2020-04-12T18:17:19Z</time>
      </trkpt>
      <trkpt lat="42.6446100" lon="-6.8712340">
        <ele>559.4</ele>
        <time>2020-04-12T18:17:21Z</time>
      </trkpt>
      <trkpt lat="42.6446750" lon="-6.8713340">
        <ele>559.5</ele>
        <time>2020-04-12T18:17:23Z</time>
      </trkpt>
      <trkpt lat="42.6447410" lon="-6.8714350">
        <ele>559.5</ele>
        <time>2020-04-12T18:17:25Z</time>
      </trkpt>
      <trkpt lat="42.6448070" lon="-6.8715380">
        <ele>559.6</ele>
        <time>2020-04-12T18:17:27Z</time>
      </trkpt>
      <trkpt lat="42.6450390" lon="-6.8718660">
        <ele>559.5</ele>
        <time>2020-04-12T18:17:29Z</time>
      </trkpt>
      <trkpt lat="42.6451680" lon="-6.8719780">
        <ele>559.4</ele>
        <time>2020-04-12T18:17:31Z</time>
      </trkpt>
      <trkpt lat="42.6452650" lon="-6.8720230">
        <ele>559.3</ele>
        <time>2020-04-12T18:17:33Z</time>
      </trkpt>
      <trkpt lat="42.6453650" lon="-6.8720680">
        <ele>559.3</ele>
        <time>2020-04-12T18:17:35Z</time>
      </trkpt>
      <trkpt lat="42.6455550" lon="-6.8721650">
        <ele>559.2</ele>
        <time>2020-04-12T18:17:37Z</time>
      </trkpt>
      <trkpt lat="42.6456530" lon="-6.8722270">
        <ele>559.3</ele>
        <time>2020-04-12T18:17:39Z</time>
      </trkpt>
      <trkpt lat="42.6458300" lon="-6.8723420">
        <ele>559.4</ele>
        <time>2020-04-12T18:17:41Z</time>
      </trkpt>
      <trkpt lat="42.6459250" lon="-6.8724120">
        <ele>559.4</ele>
        <time>2020-04-12T18:17:43Z</time>
      </trkpt>
      <trkpt lat="42.6460530" lon="-6.8725520">
        <ele>559.4</ele>
        <time>2020-04-12T18:17:45Z</time>
      </trkpt>
      <trkpt lat="42.6461250" lon="-6.8726580">
        <ele>559.4</ele>
        <time>2020-04-12T18:17:47Z</time>
      </trkpt>
      <trkpt lat="42.6461950" lon="-6.8727610">
        <ele>559.4</ele>
        <time>2020-04-12T18:17:49Z</time>
      </trkpt>
      <trkpt lat="42.6463440" lon="-6.8729900">
        <ele>559.5</ele>
        <time>2020-04-12T18:17:51Z</time>
      </trkpt>
      <trkpt lat="42.6464030" lon="-6.8730970">
        <ele>559.6</ele>
        <time>2020-04-12T18:17:53Z</time>
      </trkpt>
      <trkpt lat="42.6464620" lon="-6.8732010">
        <ele>559.7</ele>
        <time>2020-04-12T18:17:55Z</time>
      </trkpt>
      <trkpt lat="42.6465180" lon="-6.8733030">
        <ele>559.9</ele>
        <time>2020-04-12T18:17:57Z</time>
      </trkpt>
      <trkpt lat="42.6465740" lon="-6.8734020">
        <ele>560.0</ele>
        <time>2020-04-12T18:17:59Z</time>
      </trkpt>
      <trkpt lat="42.6467150" lon="-6.8736920">
        <ele>560.1</ele>
        <time>2020-04-12T18:18:01Z</time>
      </trkpt>
      <trkpt lat="42.6467510" lon="-6.8738050">
        <ele>560.1</ele>
        <time>2020-04-12T18:18:03Z</time>
      </trkpt>
      <trkpt lat="42.6467860" lon="-6.8739170">
        <ele>560.2</ele>
        <time>2020-04-12T18:18:05Z</time>
      </trkpt>
      <trkpt lat="42.6468200" lon="-6.8740280">
        <ele>560.2</ele>
        <time>2020-04-12T18:18:07Z</time>
      </trkpt>
      <trkpt lat="42.6468550" lon="-6.8741380">
        <ele>560.3</ele>
        <time>2020-04-12T18:18:09Z</time>
      </trkpt>
      <trkpt lat="42.6469630" lon="-6.8744430">
        <ele>560.5</ele>
        <time>2020-04-12T18:18:11Z</time>
      </trkpt>
      <trkpt lat="42.6470160" lon="-6.8745450">
        <ele>560.5</ele>
        <time>2020-04-12T18:18:13Z</time>
      </trkpt>
      <trkpt lat="42.6470710" lon="-6.8746480">
        <ele>560.5</ele>
        <time>2020-04-12T18:18:15Z</time>
      </trkpt>
      <trkpt lat="42.6471250" lon="-6.8747510">
        <ele>560.6</ele>
        <time>2020-04-12T18:18:17Z</time>
      </trkpt>
      <trkpt lat="42.6472680" lon="-6.8750110">
        <ele>560.8</ele>
        <time>2020-04-12T18:18:19Z</time>
      </trkpt>
      <trkpt lat="42.6473400" lon="-6.8750920">
        <ele>560.9</ele>
        <time>2020-04-12T18:18:21Z</time>
      </trkpt>
      <trkpt lat="42.6474120" lon="-6.8751730">
        <ele>561.0</ele>
        <time>2020-04-12T18:18:23Z</time>
      </trkpt>
      <trkpt lat="42.6474840" lon="-6.8752540">
        <ele>561.0</ele>
        <time>2020-04-12T18:18:25Z</time>
      </trkpt>
      <trkpt lat="42.6476610" lon="-6.8754560">
        <ele>561.1</ele>
        <time>2020-04-12T18:18:27Z</time>
      </trkpt>
      <trkpt lat="42.6477510" lon="-6.8756020">
        <ele>561.2</ele>
        <time>2020-04-12T18:18:29Z</time>
      </trkpt>
      <trkpt lat="42.6478150" lon="-6.8757340">
        <ele>561.3</ele>
        <time>2020-04-12T18:18:31Z</time>
      </trkpt>
      <trkpt lat="42.6478860" lon="-6.8758800">
        <ele>561.4</ele>
        <time>2020-04-12T18:18:33Z</time>
      </trkpt>
      <trkpt lat="42.6480080" lon="-6.8761650">
        <ele>561.4</ele>
        <time>2020-04-12T18:18:35Z</time>
      </trkpt>
      <trkpt lat="42.6480680" lon="-6.8764660">
        <ele>561.3</ele>
        <time>2020-04-12T18:18:37Z</time>
      </trkpt>
      <trkpt lat="42.6480550" lon="-6.8766750">
        <ele>561.3</ele>
        <time>2020-04-12T18:18:39Z</time>
      </trkpt>
      <trkpt lat="42.6480420" lon="-6.8768950">
        <ele>561.2</ele>
        <time>2020-04-12T18:18:41Z</time>
      </trkpt>
      <trkpt lat="42.6480280" lon="-6.8771240">
        <ele>561.0</ele>
        <time>2020-04-12T18:18:43Z</time>
      </trkpt>
      <trkpt lat="42.6480060" lon="-6.8776540">
        <ele>560.9</ele>
        <time>2020-04-12T18:18:45Z</time>
      </trkpt>
      <trkpt lat="42.6480630" lon="-6.8778940">
        <ele>561.1</ele>
        <time>2020-04-12T18:18:47Z</time>
      </trkpt>
      <trkpt lat="42.6481510" lon="-6.8781600">
        <ele>561.5</ele>
        <time>2020-04-12T18:18:49Z</time>
      </trkpt>
      <trkpt lat="42.6482470" lon="-6.8783410">
        <ele>562.2</ele>
        <time>2020-04-12T18:18:51Z</time>
      </trkpt>
      <trkpt lat="42.6483180" lon="-6.8784600">
        <ele>562.8</ele>
        <time>2020-04-12T18:18:53Z</time>
      </trkpt>
      <trkpt lat="42.6484290" lon="-6.8786670">
        <ele>563.9</ele>
        <time>2020-04-12T18:18:55Z</time>
      </trkpt>
      <trkpt lat="42.6484770" lon="-6.8787720">
        <ele>564.3</ele>
        <time>2020-04-12T18:18:57Z</time>
      </trkpt>
      <trkpt lat="42.6485570" lon="-6.8789560">
        <ele>564.9</ele>
        <time>2020-04-12T18:18:59Z</time>
      </trkpt>
      <trkpt lat="42.6486050" lon="-6.8790880">
        <ele>565.3</ele>
        <time>2020-04-12T18:19:01Z</time>
      </trkpt>
      <trkpt lat="42.6486270" lon="-6.8791740">
        <ele>565.6</ele>
        <time>2020-04-12T18:19:03Z</time>
      </trkpt>
      <trkpt lat="42.6486480" lon="-6.8792530">
        <ele>565.9</ele>
        <time>2020-04-12T18:19:05Z</time>
      </trkpt>
      <trkpt lat="42.6486670" lon="-6.8793270">
        <ele>566.2</ele>
        <time>2020-04-12T18:19:07Z</time>
      </trkpt>
      <trkpt lat="42.6487190" lon="-6.8795080">
        <ele>567.1</ele>
        <time>2020-04-12T18:19:09Z</time>
      </trkpt>
      <trkpt lat="42.6487510" lon="-6.8795750">
        <ele>567.4</ele>
        <time>2020-04-12T18:19:11Z</time>
      </trkpt>
      <trkpt lat="42.6487840" lon="-6.8796440">
        <ele>567.7</ele>
        <time>2020-04-12T18:19:13Z</time>
      </trkpt>
      <trkpt lat="42.6488550" lon="-6.8797880">
        <ele>568.5</ele>
        <time>2020-04-12T18:19:15Z</time>
      </trkpt>
      <trkpt lat="42.6488930" lon="-6.8798500">
        <ele>568.9</ele>
        <time>2020-04-12T18:19:17Z</time>
      </trkpt>
      <trkpt lat="42.6489320" lon="-6.8799130">
        <ele>569.3</ele>
        <time>2020-04-12T18:19:19Z</time>
      </trkpt>
      <trkpt lat="42.6489690" lon="-6.8799750">
        <ele>569.7</ele>
        <time>2020-04-12T18:19:21Z</time>
      </trkpt>
      <trkpt lat="42.6490070" lon="-6.8800360">
        <ele>570.1</ele>
        <time>2020-04-12T18:19:23Z</time>
      </trkpt>
      <trkpt lat="42.6490450" lon="-6.8800980">
        <ele>570.5</ele>
        <time>2020-04-12T18:19:25Z</time>
      </trkpt>
      <trkpt lat="42.6491510" lon="-6.8802900">
        <ele>571.6</ele>
        <time>2020-04-12T18:19:27Z</time>
      </trkpt>
      <trkpt lat="42.6491890" lon="-6.8803780">
        <ele>572.0</ele>
        <time>2020-04-12T18:19:29Z</time>
      </trkpt>
      <trkpt lat="42.6492490" lon="-6.8805570">
        <ele>572.4</ele>
        <time>2020-04-12T18:19:31Z</time>
      </trkpt>
      <trkpt lat="42.6492450" lon="-6.8806710">
        <ele>572.4</ele>
        <time>2020-04-12T18:19:33Z</time>
      </trkpt>
      <trkpt lat="42.6492450" lon="-6.8808730">
        <ele>572.3</ele>
        <time>2020-04-12T18:19:35Z</time>
      </trkpt>
      <trkpt lat="42.6492690" lon="-6.8809870">
        <ele>572.3</ele>
        <time>2020-04-12T18:19:37Z</time>
      </trkpt>
      <trkpt lat="42.6493140" lon="-6.8811610">
        <ele>572.2</ele>
        <time>2020-04-12T18:19:39Z</time>
      </trkpt>
      <trkpt lat="42.6493500" lon="-6.8812710">
        <ele>572.1</ele>
        <time>2020-04-12T18:19:41Z</time>
      </trkpt>
      <trkpt lat="42.6493970" lon="-6.8814660">
        <ele>571.9</ele>
        <time>2020-04-12T18:19:43Z</time>
      </trkpt>
      <trkpt lat="42.6494090" lon="-6.8816310">
        <ele>571.8</ele>
        <time>2020-04-12T18:19:45Z</time>
      </trkpt>
      <trkpt lat="42.6494060" lon="-6.8817350">
        <ele>571.9</ele>
        <time>2020-04-12T18:19:47Z</time>
      </trkpt>
      <trkpt lat="42.6494040" lon="-6.8818320">
        <ele>571.9</ele>
        <time>2020-04-12T18:19:49Z</time>
      </trkpt>
      <trkpt lat="42.6494080" lon="-6.8820190">
        <ele>572.1</ele>
        <time>2020-04-12T18:19:51Z</time>
      </trkpt>
      <trkpt lat="42.6494210" lon="-6.8821060">
        <ele>572.2</ele>
        <time>2020-04-12T18:19:53Z</time>
      </trkpt>
      <trkpt lat="42.6494320" lon="-6.8822480">
        <ele>572.5</ele>
        <time>2020-04-12T18:19:55Z</time>
      </trkpt>
      <trkpt lat="42.6494350" lon="-6.8823320">
        <ele>572.7</ele>
        <time>2020-04-12T18:19:57Z</time>
      </trkpt>
      <trkpt lat="42.6494370" lon="-6.8824150">
        <ele>572.9</ele>
        <time>2020-04-12T18:19:59Z</time>
      </trkpt>
      <trkpt lat="42.6494520" lon="-6.8825880">
        <ele>573.4</ele>
        <time>2020-04-12T18:20:01Z</time>
      </trkpt>
      <trkpt lat="42.6494660" lon="-6.8826660">
        <ele>573.6</ele>
        <time>2020-04-12T18:20:03Z</time>
      </trkpt>
      <trkpt lat="42.6494800" lon="-6.8827440">
        <ele>573.8</ele>
        <time>2020-04-12T18:20:05Z</time>
      </trkpt>
      <trkpt lat="42.6494940" lon="-6.8828210">
        <ele>574.1</ele>
        <time>2020-04-12T18:20:07Z</time>
      </trkpt>
      <trkpt lat="42.6495070" lon="-6.8828960">
        <ele>574.4</ele>
        <time>2020-04-12T18:20:09Z</time>
      </trkpt>
      <trkpt lat="42.6495500" lon="-6.8831220">
        <ele>575.6</ele>
        <time>2020-04-12T18:20:11Z</time>
      </trkpt>
      <trkpt lat="42.6495720" lon="-6.8832140">
        <ele>576.1</ele>
        <time>2020-04-12T18:20:13Z</time>
      </trkpt>
      <trkpt lat="42.6495970" lon="-6.8833170">
        <ele>576.7</ele>
        <time>2020-04-12T18:20:15Z</time>
      </trkpt>
      <trkpt lat="42.6496230" lon="-6.8834250">
        <ele>577.2</ele>
        <time>2020-04-12T18:20:17Z</time>
      </trkpt>
      <trkpt lat="42.6496760" lon="-6.8836720">
        <ele>577.9</ele>
        <time>2020-04-12T18:20:19Z</time>
      </trkpt>
      <trkpt lat="42.6497100" lon="-6.8838640">
        <ele>578.3</ele>
        <time>2020-04-12T18:20:21Z</time>
      </trkpt>
      <trkpt lat="42.6497130" lon="-6.8839850">
        <ele>578.8</ele>
        <time>2020-04-12T18:20:23Z</time>
      </trkpt>
      <trkpt lat="42.6497160" lon="-6.8841090">
        <ele>579.3</ele>
        <time>2020-04-12T18:20:25Z</time>
      </trkpt>
      <trkpt lat="42.6497290" lon="-6.8843450">
        <ele>580.4</ele>
        <time>2020-04-12T18:20:27Z</time>
      </trkpt>
      <trkpt lat="42.6497460" lon="-6.8844720">
        <ele>580.9</ele>
        <time>2020-04-12T18:20:29Z</time>
      </trkpt>
      <trkpt lat="42.6497630" lon="-6.8846020">
        <ele>581.5</ele>
        <time>2020-04-12T18:20:31Z</time>
      </trkpt>
      <trkpt lat="42.6498170" lon="-6.8848470">
        <ele>582.4</ele>
        <time>2020-04-12T18:20:33Z</time>
      </trkpt>
      <trkpt lat="42.6498580" lon="-6.8849750">
        <ele>582.8</ele>
        <time>2020-04-12T18:20:35Z</time>
      </trkpt>
      <trkpt lat="42.6499440" lon="-6.8852270">
        <ele>583.7</ele>
        <time>2020-04-12T18:20:37Z</time>
      </trkpt>
      <trkpt lat="42.6500040" lon="-6.8853440">
        <ele>584.1</ele>
        <time>2020-04-12T18:20:39Z</time>
      </trkpt>
      <trkpt lat="42.6500660" lon="-6.8854640">
        <ele>584.6</ele>
        <time>2020-04-12T18:20:41Z</time>
      </trkpt>
      <trkpt lat="42.6501280" lon="-6.8855850">
        <ele>585.0</ele>
        <time>2020-04-12T18:20:43Z</time>
      </trkpt>
      <trkpt lat="42.6501900" lon="-6.8857050">
        <ele>585.4</ele>
        <time>2020-04-12T18:20:45Z</time>
      </trkpt>
      <trkpt lat="42.6503320" lon="-6.8860270">
        <ele>586.7</ele>
        <time>2020-04-12T18:20:47Z</time>
      </trkpt>
      <trkpt lat="42.6503930" lon="-6.8862510">
        <ele>587.3</ele>
        <time>2020-04-12T18:20:49Z</time>
      </trkpt>
      <trkpt lat="42.6504020" lon="-6.8864070">
        <ele>587.7</ele>
        <time>2020-04-12T18:20:51Z</time>
      </trkpt>
      <trkpt lat="42.6504110" lon="-6.8865620">
        <ele>588.0</ele>
        <time>2020-04-12T18:20:53Z</time>
      </trkpt>
      <trkpt lat="42.6504320" lon="-6.8869000">
        <ele>588.7</ele>
        <time>2020-04-12T18:20:55Z</time>
      </trkpt>
      <trkpt lat="42.6504860" lon="-6.8870780">
        <ele>589.1</ele>
        <time>2020-04-12T18:20:57Z</time>
      </trkpt>
      <trkpt lat="42.6506000" lon="-6.8872480">
        <ele>589.3</ele>
        <time>2020-04-12T18:20:59Z</time>
      </trkpt>
      <trkpt lat="42.6507020" lon="-6.8873290">
        <ele>589.3</ele>
        <time>2020-04-12T18:21:01Z</time>
      </trkpt>
      <trkpt lat="42.6508860" lon="-6.8874320">
        <ele>589.1</ele>
        <time>2020-04-12T18:21:03Z</time>
      </trkpt>
      <trkpt lat="42.6509930" lon="-6.8875130">
        <ele>589.0</ele>
        <time>2020-04-12T18:21:05Z</time>
      </trkpt>
      <trkpt lat="42.6511030" lon="-6.8875960">
        <ele>588.8</ele>
        <time>2020-04-12T18:21:07Z</time>
      </trkpt>
      <trkpt lat="42.6513320" lon="-6.8877790">
        <ele>588.3</ele>
        <time>2020-04-12T18:21:09Z</time>
      </trkpt>
      <trkpt lat="42.6514190" lon="-6.8879160">
        <ele>588.1</ele>
        <time>2020-04-12T18:21:11Z</time>
      </trkpt>
      <trkpt lat="42.6515600" lon="-6.8881090">
        <ele>587.3</ele>
        <time>2020-04-12T18:21:13Z</time>
      </trkpt>
      <trkpt lat="42.6516610" lon="-6.8882370">
        <ele>586.7</ele>
        <time>2020-04-12T18:21:15Z</time>
      </trkpt>
      <trkpt lat="42.6518560" lon="-6.8884610">
        <ele>585.5</ele>
        <time>2020-04-12T18:21:17Z</time>
      </trkpt>
      <trkpt lat="42.6520170" lon="-6.8885860">
        <ele>584.5</ele>
        <time>2020-04-12T18:21:19Z</time>
      </trkpt>
      <trkpt lat="42.6521510" lon="-6.8886730">
        <ele>583.9</ele>
        <time>2020-04-12T18:21:21Z</time>
      </trkpt>
      <trkpt lat="42.6522890" lon="-6.8887620">
        <ele>583.4</ele>
        <time>2020-04-12T18:21:23Z</time>
      </trkpt>
      <trkpt lat="42.6525540" lon="-6.8889660">
        <ele>582.2</ele>
        <time>2020-04-12T18:21:25Z</time>
      </trkpt>
      <trkpt lat="42.6526860" lon="-6.8890890">
        <ele>581.6</ele>
        <time>2020-04-12T18:21:27Z</time>
      </trkpt>
      <trkpt lat="42.6528200" lon="-6.8892130">
        <ele>581.1</ele>
        <time>2020-04-12T18:21:29Z</time>
      </trkpt>
      <trkpt lat="42.6531160" lon="-6.8894460">
        <ele>579.9</ele>
        <time>2020-04-12T18:21:31Z</time>
      </trkpt>
      <trkpt lat="42.6533070" lon="-6.8894850">
        <ele>579.2</ele>
        <time>2020-04-12T18:21:33Z</time>
      </trkpt>
      <trkpt lat="42.6535470" lon="-6.8895180">
        <ele>578.5</ele>
        <time>2020-04-12T18:21:35Z</time>
      </trkpt>
      <trkpt lat="42.6536710" lon="-6.8896800">
        <ele>578.4</ele>
        <time>2020-04-12T18:21:37Z</time>
      </trkpt>
      <trkpt lat="42.6537740" lon="-6.8898610">
        <ele>578.2</ele>
        <time>2020-04-12T18:21:39Z</time>
      </trkpt>
      <trkpt lat="42.6538770" lon="-6.8899550">
        <ele>578.1</ele>
        <time>2020-04-12T18:21:41Z</time>
      </trkpt>
      <trkpt lat="42.6540270" lon="-6.8901240">
        <ele>578.1</ele>
        <time>2020-04-12T18:21:43Z</time>
      </trkpt>
      <trkpt lat="42.6541360" lon="-6.8902760">
        <ele>578.2</ele>
        <time>2020-04-12T18:21:45Z</time>
      </trkpt>
      <trkpt lat="42.6542170" lon="-6.8903570">
        <ele>578.3</ele>
        <time>2020-04-12T18:21:47Z</time>
      </trkpt>
      <trkpt lat="42.6542920" lon="-6.8904320">
        <ele>578.6</ele>
        <time>2020-04-12T18:21:49Z</time>
      </trkpt>
      <trkpt lat="42.6544360" lon="-6.8905930">
        <ele>579.2</ele>
        <time>2020-04-12T18:21:51Z</time>
      </trkpt>
      <trkpt lat="42.6544950" lon="-6.8906770">
        <ele>579.5</ele>
        <time>2020-04-12T18:21:53Z</time>
      </trkpt>
      <trkpt lat="42.6546030" lon="-6.8908360">
        <ele>580.0</ele>
        <time>2020-04-12T18:21:55Z</time>
      </trkpt>
      <trkpt lat="42.6546510" lon="-6.8909210">
        <ele>580.1</ele>
        <time>2020-04-12T18:21:57Z</time>
      </trkpt>
      <trkpt lat="42.6546990" lon="-6.8910040">
        <ele>580.3</ele>
        <time>2020-04-12T18:21:59Z</time>
      </trkpt>
      <trkpt lat="42.6547450" lon="-6.8910860">
        <ele>580.7</ele>
        <time>2020-04-12T18:22:01Z</time>
      </trkpt>
      <trkpt lat="42.6548430" lon="-6.8912690">
        <ele>581.4</ele>
        <time>2020-04-12T18:22:03Z</time>
      </trkpt>
      <trkpt lat="42.6548860" lon="-6.8913610">
        <ele>581.8</ele>
        <time>2020-04-12T18:22:05Z</time>
      </trkpt>
      <trkpt lat="42.6549320" lon="-6.8914580">
        <ele>582.2</ele>
        <time>2020-04-12T18:22:07Z</time>
      </trkpt>
      <trkpt lat="42.6549800" lon="-6.8915570">
        <ele>582.6</ele>
        <time>2020-04-12T18:22:09Z</time>
      </trkpt>
      <trkpt lat="42.6551040" lon="-6.8918160">
        <ele>583.6</ele>
        <time>2020-04-12T18:22:11Z</time>
      </trkpt>
      <trkpt lat="42.6551610" lon="-6.8919040">
        <ele>583.9</ele>
        <time>2020-04-12T18:22:13Z</time>
      </trkpt>
      <trkpt lat="42.6552550" lon="-6.8920190">
        <ele>584.5</ele>
        <time>2020-04-12T18:22:15Z</time>
      </trkpt>
      <trkpt lat="42.6553240" lon="-6.8920790">
        <ele>584.8</ele>
        <time>2020-04-12T18:22:17Z</time>
      </trkpt>
      <trkpt lat="42.6553920" lon="-6.8921380">
        <ele>585.0</ele>
        <time>2020-04-12T18:22:19Z</time>
      </trkpt>
      <trkpt lat="42.6555430" lon="-6.8922580">
        <ele>585.4</ele>
        <time>2020-04-12T18:22:21Z</time>
      </trkpt>
      <trkpt lat="42.6556160" lon="-6.8923000">
        <ele>585.4</ele>
        <time>2020-04-12T18:22:23Z</time>
      </trkpt>
      <trkpt lat="42.6557390" lon="-6.8923520">
        <ele>585.4</ele>
        <time>2020-04-12T18:22:25Z</time>
      </trkpt>
      <trkpt lat="42.6558290" lon="-6.8923800">
        <ele>585.4</ele>
        <time>2020-04-12T18:22:27Z</time>
      </trkpt>
      <trkpt lat="42.6559290" lon="-6.8924120">
        <ele>585.3</ele>
        <time>2020-04-12T18:22:29Z</time>
      </trkpt>
      <trkpt lat="42.6560350" lon="-6.8924450">
        <ele>585.1</ele>
        <time>2020-04-12T18:22:31Z</time>
      </trkpt>
      <trkpt lat="42.6562950" lon="-6.8925410">
        <ele>584.5</ele>
        <time>2020-04-12T18:22:33Z</time>
      </trkpt>
      <trkpt lat="42.6564350" lon="-6.8926480">
        <ele>584.0</ele>
        <time>2020-04-12T18:22:35Z</time>
      </trkpt>
      <trkpt lat="42.6565730" lon="-6.8928150">
        <ele>583.5</ele>
        <time>2020-04-12T18:22:37Z</time>
      </trkpt>
      <trkpt lat="42.6566310" lon="-6.8930160">
        <ele>583.1</ele>
        <time>2020-04-12T18:22:39Z</time>
      </trkpt>
      <trkpt lat="42.6566670" lon="-6.8931940">
        <ele>582.8</ele>
        <time>2020-04-12T18:22:41Z</time>
      </trkpt>
      <trkpt lat="42.6567420" lon="-6.8934730">
        <ele>582.5</ele>
        <time>2020-04-12T18:22:43Z</time>
      </trkpt>
      <trkpt lat="42.6568350" lon="-6.8937150">
        <ele>582.2</ele>
        <time>2020-04-12T18:22:45Z</time>
      </trkpt>
      <trkpt lat="42.6569090" lon="-6.8938830">
        <ele>582.1</ele>
        <time>2020-04-12T18:22:47Z</time>
      </trkpt>
      <trkpt lat="42.6570290" lon="-6.8942270">
        <ele>582.0</ele>
        <time>2020-04-12T18:22:49Z</time>
      </trkpt>
      <trkpt lat="42.6570020" lon="-6.8944610">
        <ele>582.0</ele>
        <time>2020-04-12T18:22:51Z</time>
      </trkpt>
      <trkpt lat="42.6569260" lon="-6.8946480">
        <ele>582.1</ele>
        <time>2020-04-12T18:22:53Z</time>
      </trkpt>
      <trkpt lat="42.6568620" lon="-6.8947760">
        <ele>582.1</ele>
        <time>2020-04-12T18:22:55Z</time>
      </trkpt>
      <trkpt lat="42.6567140" lon="-6.8949340">
        <ele>582.6</ele>
        <time>2020-04-12T18:22:57Z</time>
      </trkpt>
      <trkpt lat="42.6566140" lon="-6.8949600">
        <ele>583.0</ele>
        <time>2020-04-12T18:22:59Z</time>
      </trkpt>
      <trkpt lat="42.6565210" lon="-6.8949840">
        <ele>583.5</ele>
        <time>2020-04-12T18:23:01Z</time>
      </trkpt>
      <trkpt lat="42.6563300" lon="-6.8950420">
        <ele>584.5</ele>
        <time>2020-04-12T18:23:03Z</time>
      </trkpt>
      <trkpt lat="42.6562340" lon="-6.8951690">
        <ele>585.3</ele>
        <time>2020-04-12T18:23:05Z</time>
      </trkpt>
      <trkpt lat="42.6561620" lon="-6.8953010">
        <ele>585.9</ele>
        <time>2020-04-12T18:23:07Z</time>
      </trkpt>
      <trkpt lat="42.6560190" lon="-6.8955600">
        <ele>587.1</ele>
        <time>2020-04-12T18:23:09Z</time>
      </trkpt>
      <trkpt lat="42.6558240" lon="-6.8955490">
        <ele>585.2</ele>
        <time>2020-04-12T18:23:11Z</time>
      </trkpt>
      <trkpt lat="42.6556640" lon="-6.8956020">
        <ele>583.1</ele>
        <time>2020-04-12T18:23:13Z</time>
      </trkpt>
      <trkpt lat="42.6553790" lon="-6.8956680">
        <ele>581.1</ele>
        <time>2020-04-12T18:23:15Z</time>
      </trkpt>
      <trkpt lat="42.6553470" lon="-6.8958790">
        <ele>581.2</ele>
        <time>2020-04-12T18:23:17Z</time>
      </trkpt>
      <trkpt lat="42.6552910" lon="-6.8961980">
        <ele>581.3</ele>
        <time>2020-04-12T18:23:19Z</time>
      </trkpt>
      <trkpt lat="42.6552410" lon="-6.8963760">
        <ele>581.4</ele>
        <time>2020-04-12T18:23:21Z</time>
      </trkpt>
      <trkpt lat="42.6551560" lon="-6.8966770">
        <ele>581.6</ele>
        <time>2020-04-12T18:23:23Z</time>
      </trkpt>
      <trkpt lat="42.6551090" lon="-6.8968290">
        <ele>581.7</ele>
        <time>2020-04-12T18:23:25Z</time>
      </trkpt>
      <trkpt lat="42.6550680" lon="-6.8969610">
        <ele>581.7</ele>
        <time>2020-04-12T18:23:27Z</time>
      </trkpt>
      <trkpt lat="42.6550330" lon="-6.8970770">
        <ele>581.8</ele>
        <time>2020-04-12T18:23:29Z</time>
      </trkpt>
      <trkpt lat="42.6550020" lon="-6.8971780">
        <ele>581.8</ele>
        <time>2020-04-12T18:23:31Z</time>
      </trkpt>
      <trkpt lat="42.6549080" lon="-6.8974830">
        <ele>582.5</ele>
        <time>2020-04-12T18:23:33Z</time>
      </trkpt>
      <trkpt lat="42.6548840" lon="-6.8975620">
        <ele>582.8</ele>
        <time>2020-04-12T18:23:35Z</time>
      </trkpt>
      <trkpt lat="42.6548620" lon="-6.8976340">
        <ele>583.1</ele>
        <time>2020-04-12T18:23:37Z</time>
      </trkpt>
      <trkpt lat="42.6548420" lon="-6.8976990">
        <ele>583.4</ele>
        <time>2020-04-12T18:23:39Z</time>
      </trkpt>
      <trkpt lat="42.6548240" lon="-6.8977590">
        <ele>583.6</ele>
        <time>2020-04-12T18:23:41Z</time>
      </trkpt>
      <trkpt lat="42.6548070" lon="-6.8978140">
        <ele>583.9</ele>
        <time>2020-04-12T18:23:43Z</time>
      </trkpt>
      <trkpt lat="42.6547900" lon="-6.8978690">
        <ele>584.1</ele>
        <time>2020-04-12T18:23:45Z</time>
      </trkpt>
      <trkpt lat="42.6547730" lon="-6.8979230">
        <ele>584.3</ele>
        <time>2020-04-12T18:23:47Z</time>
      </trkpt>
      <trkpt lat="42.6547570" lon="-6.8979750">
        <ele>584.4</ele>
        <time>2020-04-12T18:23:49Z</time>
      </trkpt>
      <trkpt lat="42.6547420" lon="-6.8980260">
        <ele>584.6</ele>
        <time>2020-04-12T18:23:51Z</time>
      </trkpt>
      <trkpt lat="42.6546610" lon="-6.8983000">
        <ele>585.2</ele>
        <time>2020-04-12T18:23:53Z</time>
      </trkpt>
      <trkpt lat="42.6546410" lon="-6.8983830">
        <ele>585.2</ele>
        <time>2020-04-12T18:23:55Z</time>
      </trkpt>
      <trkpt lat="42.6546170" lon="-6.8984820">
        <ele>585.2</ele>
        <time>2020-04-12T18:23:57Z</time>
      </trkpt>
      <trkpt lat="42.6545910" lon="-6.8985910">
        <ele>585.2</ele>
        <time>2020-04-12T18:23:59Z</time>
      </trkpt>
      <trkpt lat="42.6545290" lon="-6.8988640">
        <ele>585.5</ele>
        <time>2020-04-12T18:24:01Z</time>
      </trkpt>
      <trkpt lat="42.6545190" lon="-6.8989910">
        <ele>585.6</ele>
        <time>2020-04-12T18:24:03Z</time>
      </trkpt>
      <trkpt lat="42.6545090" lon="-6.8991210">
        <ele>585.7</ele>
        <time>2020-04-12T18:24:05Z</time>
      </trkpt>
      <trkpt lat="42.6544980" lon="-6.8992550">
        <ele>585.8</ele>
        <time>2020-04-12T18:24:07Z</time>
      </trkpt>
      <trkpt lat="42.6544840" lon="-6.8995590">
        <ele>585.9</ele>
        <time>2020-04-12T18:24:09Z</time>
      </trkpt>
      <trkpt lat="42.6544900" lon="-6.8996790">
        <ele>586.0</ele>
        <time>2020-04-12T18:24:11Z</time>
      </trkpt>
      <trkpt lat="42.6544960" lon="-6.8997860">
        <ele>586.0</ele>
        <time>2020-04-12T18:24:13Z</time>
      </trkpt>
      <trkpt lat="42.6545010" lon="-6.8998820">
        <ele>586.1</ele>
        <time>2020-04-12T18:24:15Z</time>
      </trkpt>
      <trkpt lat="42.6545190" lon="-6.9001210">
        <ele>586.3</ele>
        <time>2020-04-12T18:24:17Z</time>
      </trkpt>
      <trkpt lat="42.6545310" lon="-6.9002040">
        <ele>586.3</ele>
        <time>2020-04-12T18:24:19Z</time>
      </trkpt>
      <trkpt lat="42.6545420" lon="-6.9002840">
        <ele>586.4</ele>
        <time>2020-04-12T18:24:21Z</time>
      </trkpt>
      <trkpt lat="42.6545540" lon="-6.9003630">
        <ele>586.5</ele>
        <time>2020-04-12T18:24:23Z</time>
      </trkpt>
      <trkpt lat="42.6545650" lon="-6.9004390">
        <ele>586.5</ele>
        <time>2020-04-12T18:24:25Z</time>
      </trkpt>
      <trkpt lat="42.6546010" lon="-6.9006590">
        <ele>586.9</ele>
        <time>2020-04-12T18:24:27Z</time>
      </trkpt>
      <trkpt lat="42.6546170" lon="-6.9007320">
        <ele>587.0</ele>
        <time>2020-04-12T18:24:29Z</time>
      </trkpt>
      <trkpt lat="42.6546330" lon="-6.9008050">
        <ele>587.0</ele>
        <time>2020-04-12T18:24:31Z</time>
      </trkpt>
      <trkpt lat="42.6546490" lon="-6.9008780">
        <ele>587.1</ele>
        <time>2020-04-12T18:24:33Z</time>
      </trkpt>
      <trkpt lat="42.6546660" lon="-6.9009510">
        <ele>587.2</ele>
        <time>2020-04-12T18:24:35Z</time>
      </trkpt>
      <trkpt lat="42.6546820" lon="-6.9010240">
        <ele>587.2</ele>
        <time>2020-04-12T18:24:37Z</time>
      </trkpt>
      <trkpt lat="42.6546980" lon="-6.9010960">
        <ele>587.2</ele>
        <time>2020-04-12T18:24:39Z</time>
      </trkpt>
      <trkpt lat="42.6547140" lon="-6.9011690">
        <ele>587.3</ele>
        <time>2020-04-12T18:24:41Z</time>
      </trkpt>
      <trkpt lat="42.6547300" lon="-6.9012420">
        <ele>587.3</ele>
        <time>2020-04-12T18:24:43Z</time>
      </trkpt>
      <trkpt lat="42.6547460" lon="-6.9013150">
        <ele>587.4</ele>
        <time>2020-04-12T18:24:45Z</time>
      </trkpt>
      <trkpt lat="42.6548210" lon="-6.9016540">
        <ele>587.6</ele>
        <time>2020-04-12T18:24:47Z</time>
      </trkpt>
      <trkpt lat="42.6548430" lon="-6.9017520">
        <ele>587.7</ele>
        <time>2020-04-12T18:24:49Z</time>
      </trkpt>
      <trkpt lat="42.6548680" lon="-6.9018660">
        <ele>587.8</ele>
        <time>2020-04-12T18:24:51Z</time>
      </trkpt>
      <trkpt lat="42.6548970" lon="-6.9019940">
        <ele>587.9</ele>
        <time>2020-04-12T18:24:53Z</time>
      </trkpt>
      <trkpt lat="42.6549280" lon="-6.9021330">
        <ele>588.1</ele>
        <time>2020-04-12T18:24:55Z</time>
      </trkpt>
      <trkpt lat="42.6549600" lon="-6.9022790">
        <ele>588.1</ele>
        <time>2020-04-12T18:24:57Z</time>
      </trkpt>
      <trkpt lat="42.6550520" lon="-6.9026950">
        <ele>588.2</ele>
        <time>2020-04-12T18:24:59Z</time>
      </trkpt>
      <trkpt lat="42.6550870" lon="-6.9028530">
        <ele>588.3</ele>
        <time>2020-04-12T18:25:01Z</time>
      </trkpt>
      <trkpt lat="42.6551240" lon="-6.9030170">
        <ele>588.3</ele>
        <time>2020-04-12T18:25:03Z</time>
      </trkpt>
      <trkpt lat="42.6551610" lon="-6.9031870">
        <ele>588.4</ele>
        <time>2020-04-12T18:25:05Z</time>
      </trkpt>
      <trkpt lat="42.6552570" lon="-6.9036210">
        <ele>588.6</ele>
        <time>2020-04-12T18:25:07Z</time>
      </trkpt>
      <trkpt lat="42.6552940" lon="-6.9037850">
        <ele>588.8</ele>
        <time>2020-04-12T18:25:09Z</time>
      </trkpt>
      <trkpt lat="42.6553270" lon="-6.9039340">
        <ele>588.9</ele>
        <time>2020-04-12T18:25:11Z</time>
      </trkpt>
      <trkpt lat="42.6553580" lon="-6.9040730">
        <ele>589.0</ele>
        <time>2020-04-12T18:25:13Z</time>
      </trkpt>
      <trkpt lat="42.6553860" lon="-6.9042000">
        <ele>589.2</ele>
        <time>2020-04-12T18:25:15Z</time>
      </trkpt>
      <trkpt lat="42.6554700" lon="-6.9045800">
        <ele>589.6</ele>
        <time>2020-04-12T18:25:17Z</time>
      </trkpt>
      <trkpt lat="42.6555080" lon="-6.9046820">
        <ele>589.6</ele>
        <time>2020-04-12T18:25:19Z</time>
      </trkpt>
      <trkpt lat="42.6555700" lon="-6.9048390">
        <ele>589.7</ele>
        <time>2020-04-12T18:25:21Z</time>
      </trkpt>
      <trkpt lat="42.6556220" lon="-6.9049350">
        <ele>589.8</ele>
        <time>2020-04-12T18:25:23Z</time>
      </trkpt>
      <trkpt lat="42.6556830" lon="-6.9050460">
        <ele>589.8</ele>
        <time>2020-04-12T18:25:25Z</time>
      </trkpt>
      <trkpt lat="42.6558130" lon="-6.9052410">
        <ele>589.9</ele>
        <time>2020-04-12T18:25:27Z</time>
      </trkpt>
      <trkpt lat="42.6559030" lon="-6.9053560">
        <ele>590.0</ele>
        <time>2020-04-12T18:25:29Z</time>
      </trkpt>
      <trkpt lat="42.6560720" lon="-6.9055420">
        <ele>590.2</ele>
        <time>2020-04-12T18:25:31Z</time>
      </trkpt>
      <trkpt lat="42.6562460" lon="-6.9057290">
        <ele>590.6</ele>
        <time>2020-04-12T18:25:33Z</time>
      </trkpt>
      <trkpt lat="42.6563510" lon="-6.9058690">
        <ele>590.9</ele>
        <time>2020-04-12T18:25:35Z</time>
      </trkpt>
      <trkpt lat="42.6565280" lon="-6.9061420">
        <ele>591.3</ele>
        <time>2020-04-12T18:25:37Z</time>
      </trkpt>
      <trkpt lat="42.6565950" lon="-6.9063280">
        <ele>591.5</ele>
        <time>2020-04-12T18:25:39Z</time>
      </trkpt>
      <trkpt lat="42.6567120" lon="-6.9066570">
        <ele>591.7</ele>
        <time>2020-04-12T18:25:41Z</time>
      </trkpt>
      <trkpt lat="42.6567600" lon="-6.9068570">
        <ele>591.8</ele>
        <time>2020-04-12T18:25:43Z</time>
      </trkpt>
      <trkpt lat="42.6568090" lon="-6.9070610">
        <ele>591.8</ele>
        <time>2020-04-12T18:25:45Z</time>
      </trkpt>
      <trkpt lat="42.6568580" lon="-6.9072660">
        <ele>591.8</ele>
        <time>2020-04-12T18:25:47Z</time>
      </trkpt>
      <trkpt lat="42.6569810" lon="-6.9077300">
        <ele>591.7</ele>
        <time>2020-04-12T18:25:49Z</time>
      </trkpt>
      <trkpt lat="42.6570850" lon="-6.9079710">
        <ele>591.7</ele>
        <time>2020-04-12T18:25:51Z</time>
      </trkpt>
      <trkpt lat="42.6572130" lon="-6.9081840">
        <ele>591.8</ele>
        <time>2020-04-12T18:25:53Z</time>
      </trkpt>
      <trkpt lat="42.6573650" lon="-6.9083680">
        <ele>592.1</ele>
        <time>2020-04-12T18:25:55Z</time>
      </trkpt>
      <trkpt lat="42.6575370" lon="-6.9085390">
        <ele>592.3</ele>
        <time>2020-04-12T18:25:57Z</time>
      </trkpt>
      <trkpt lat="42.6576620" lon="-6.9086270">
        <ele>592.4</ele>
        <time>2020-04-12T18:25:59Z</time>
      </trkpt>
      <trkpt lat="42.6577850" lon="-6.9087130">
        <ele>592.4</ele>
        <time>2020-04-12T18:26:01Z</time>
      </trkpt>
      <trkpt lat="42.6579060" lon="-6.9087980">
        <ele>592.4</ele>
        <time>2020-04-12T18:26:03Z</time>
      </trkpt>
      <trkpt lat="42.6580240" lon="-6.9088800">
        <ele>592.5</ele>
        <time>2020-04-12T18:26:05Z</time>
      </trkpt>
      <trkpt lat="42.6583360" lon="-6.9091220">
        <ele>592.6</ele>
        <time>2020-04-12T18:26:07Z</time>
      </trkpt>
      <trkpt lat="42.6584520" lon="-6.9092790">
        <ele>592.7</ele>
        <time>2020-04-12T18:26:09Z</time>
      </trkpt>
      <trkpt lat="42.6585680" lon="-6.9094720">
        <ele>592.9</ele>
        <time>2020-04-12T18:26:11Z</time>
      </trkpt>
      <trkpt lat="42.6586580" lon="-6.9096770">
        <ele>593.1</ele>
        <time>2020-04-12T18:26:13Z</time>
      </trkpt>
      <trkpt lat="42.6587190" lon="-6.9098970">
        <ele>593.3</ele>
        <time>2020-04-12T18:26:15Z</time>
      </trkpt>
      <trkpt lat="42.6587590" lon="-6.9101240">
        <ele>593.5</ele>
        <time>2020-04-12T18:26:17Z</time>
      </trkpt>
      <trkpt lat="42.6587700" lon="-6.9103430">
        <ele>593.8</ele>
        <time>2020-04-12T18:26:19Z</time>
      </trkpt>
      <trkpt lat="42.6587620" lon="-6.9105860">
        <ele>594.3</ele>
        <time>2020-04-12T18:26:21Z</time>
      </trkpt>
      <trkpt lat="42.6587290" lon="-6.9108250">
        <ele>594.8</ele>
        <time>2020-04-12T18:26:23Z</time>
      </trkpt>
      <trkpt lat="42.6586820" lon="-6.9109770">
        <ele>595.1</ele>
        <time>2020-04-12T18:26:25Z</time>
      </trkpt>
      <trkpt lat="42.6585990" lon="-6.9111780">
        <ele>595.5</ele>
        <time>2020-04-12T18:26:27Z</time>
      </trkpt>
      <trkpt lat="42.6585000" lon="-6.9113590">
        <ele>595.9</ele>
        <time>2020-04-12T18:26:29Z</time>
      </trkpt>
      <trkpt lat="42.6583870" lon="-6.9115330">
        <ele>596.3</ele>
        <time>2020-04-12T18:26:31Z</time>
      </trkpt>
      <trkpt lat="42.6583030" lon="-6.9116200">
        <ele>596.6</ele>
        <time>2020-04-12T18:26:33Z</time>
      </trkpt>
      <trkpt lat="42.6582210" lon="-6.9117050">
        <ele>596.9</ele>
        <time>2020-04-12T18:26:35Z</time>
      </trkpt>
      <trkpt lat="42.6581410" lon="-6.9117880">
        <ele>597.1</ele>
        <time>2020-04-12T18:26:37Z</time>
      </trkpt>
      <trkpt lat="42.6580620" lon="-6.9118700">
        <ele>597.3</ele>
        <time>2020-04-12T18:26:39Z</time>
      </trkpt>
      <trkpt lat="42.6579850" lon="-6.9119490">
        <ele>597.6</ele>
        <time>2020-04-12T18:26:41Z</time>
      </trkpt>
      <trkpt lat="42.6577810" lon="-6.9122140">
        <ele>598.0</ele>
        <time>2020-04-12T18:26:43Z</time>
      </trkpt>
      <trkpt lat="42.6577090" lon="-6.9123880">
        <ele>598.3</ele>
        <time>2020-04-12T18:26:45Z</time>
      </trkpt>
      <trkpt lat="42.6576690" lon="-6.9125120">
        <ele>598.4</ele>
        <time>2020-04-12T18:26:47Z</time>
      </trkpt>
      <trkpt lat="42.6576100" lon="-6.9127370">
        <ele>598.7</ele>
        <time>2020-04-12T18:26:49Z</time>
      </trkpt>
      <trkpt lat="42.6575910" lon="-6.9128750">
        <ele>598.8</ele>
        <time>2020-04-12T18:26:51Z</time>
      </trkpt>
      <trkpt lat="42.6575970" lon="-6.9130890">
        <ele>598.9</ele>
        <time>2020-04-12T18:26:53Z</time>
      </trkpt>
      <trkpt lat="42.6576150" lon="-6.9132300">
        <ele>599.0</ele>
        <time>2020-04-12T18:26:55Z</time>
      </trkpt>
      <trkpt lat="42.6576810" lon="-6.9135120">
        <ele>599.0</ele>
        <time>2020-04-12T18:26:57Z</time>
      </trkpt>
      <trkpt lat="42.6577550" lon="-6.9136190">
        <ele>599.0</ele>
        <time>2020-04-12T18:26:59Z</time>
      </trkpt>
      <trkpt lat="42.6578290" lon="-6.9137260">
        <ele>599.0</ele>
        <time>2020-04-12T18:27:01Z</time>
      </trkpt>
      <trkpt lat="42.6579030" lon="-6.9138340">
        <ele>598.9</ele>
        <time>2020-04-12T18:27:03Z</time>
      </trkpt>
      <trkpt lat="42.6580760" lon="-6.9140360">
        <ele>598.8</ele>
        <time>2020-04-12T18:27:05Z</time>
      </trkpt>
      <trkpt lat="42.6581690" lon="-6.9141190">
        <ele>598.8</ele>
        <time>2020-04-12T18:27:07Z</time>
      </trkpt>
      <trkpt lat="42.6582600" lon="-6.9142000">
        <ele>598.7</ele>
        <time>2020-04-12T18:27:09Z</time>
      </trkpt>
      <trkpt lat="42.6583530" lon="-6.9142830">
        <ele>598.7</ele>
        <time>2020-04-12T18:27:11Z</time>
      </trkpt>
      <trkpt lat="42.6584470" lon="-6.9143660">
        <ele>598.6</ele>
        <time>2020-04-12T18:27:13Z</time>
      </trkpt>
      <trkpt lat="42.6587010" lon="-6.9146030">
        <ele>598.6</ele>
        <time>2020-04-12T18:27:15Z</time>
      </trkpt>
      <trkpt lat="42.6587810" lon="-6.9146850">
        <ele>598.7</ele>
        <time>2020-04-12T18:27:17Z</time>
      </trkpt>
      <trkpt lat="42.6588570" lon="-6.9147630">
        <ele>598.8</ele>
        <time>2020-04-12T18:27:19Z</time>
      </trkpt>
      <trkpt lat="42.6590330" lon="-6.9149460">
        <ele>598.9</ele>
        <time>2020-04-12T18:27:21Z</time>
      </trkpt>
      <trkpt lat="42.6590960" lon="-6.9150220">
        <ele>599.0</ele>
        <time>2020-04-12T18:27:23Z</time>
      </trkpt>
      <trkpt lat="42.6591900" lon="-6.9151440">
        <ele>599.1</ele>
        <time>2020-04-12T18:27:25Z</time>
      </trkpt>
      <trkpt lat="42.6592430" lon="-6.9152210">
        <ele>599.3</ele>
        <time>2020-04-12T18:27:27Z</time>
      </trkpt>
      <trkpt lat="42.6592940" lon="-6.9152950">
        <ele>599.4</ele>
        <time>2020-04-12T18:27:29Z</time>
      </trkpt>
      <trkpt lat="42.6593430" lon="-6.9153660">
        <ele>599.6</ele>
        <time>2020-04-12T18:27:31Z</time>
      </trkpt>
      <trkpt lat="42.6594660" lon="-6.9155500">
        <ele>599.9</ele>
        <time>2020-04-12T18:27:33Z</time>
      </trkpt>
      <trkpt lat="42.6595090" lon="-6.9156350">
        <ele>600.1</ele>
        <time>2020-04-12T18:27:35Z</time>
      </trkpt>
      <trkpt lat="42.6595560" lon="-6.9157260">
        <ele>600.3</ele>
        <time>2020-04-12T18:27:37Z</time>
      </trkpt>
      <trkpt lat="42.6596050" lon="-6.9158210">
        <ele>600.5</ele>
        <time>2020-04-12T18:27:39Z</time>
      </trkpt>
      <trkpt lat="42.6596550" lon="-6.9159180">
        <ele>600.8</ele>
        <time>2020-04-12T18:27:41Z</time>
      </trkpt>
      <trkpt lat="42.6597910" lon="-6.9161850">
        <ele>601.6</ele>
        <time>2020-04-12T18:27:43Z</time>
      </trkpt>
      <trkpt lat="42.6598350" lon="-6.9162860">
        <ele>601.8</ele>
        <time>2020-04-12T18:27:45Z</time>
      </trkpt>
      <trkpt lat="42.6599030" lon="-6.9164520">
        <ele>602.1</ele>
        <time>2020-04-12T18:27:47Z</time>
      </trkpt>
      <trkpt lat="42.6599430" lon="-6.9165590">
        <ele>602.3</ele>
        <time>2020-04-12T18:27:49Z</time>
      </trkpt>
      <trkpt lat="42.6599820" lon="-6.9166640">
        <ele>602.4</ele>
        <time>2020-04-12T18:27:51Z</time>
      </trkpt>
      <trkpt lat="42.6600210" lon="-6.9167690">
        <ele>602.5</ele>
        <time>2020-04-12T18:27:53Z</time>
      </trkpt>
      <trkpt lat="42.6600600" lon="-6.9168730">
        <ele>602.7</ele>
        <time>2020-04-12T18:27:55Z</time>
      </trkpt>
      <trkpt lat="42.6601310" lon="-6.9171680">
        <ele>603.1</ele>
        <time>2020-04-12T18:27:57Z</time>
      </trkpt>
      <trkpt lat="42.6601330" lon="-6.9172960">
        <ele>603.2</ele>
        <time>2020-04-12T18:27:59Z</time>
      </trkpt>
      <trkpt lat="42.6601350" lon="-6.9174320">
        <ele>603.0</ele>
        <time>2020-04-12T18:28:01Z</time>
      </trkpt>
      <trkpt lat="42.6601360" lon="-6.9175760">
        <ele>602.7</ele>
        <time>2020-04-12T18:28:03Z</time>
      </trkpt>
      <trkpt lat="42.6601330" lon="-6.9179320">
        <ele>602.2</ele>
        <time>2020-04-12T18:28:05Z</time>
      </trkpt>
      <trkpt lat="42.6601210" lon="-6.9180870">
        <ele>602.0</ele>
        <time>2020-04-12T18:28:07Z</time>
      </trkpt>
      <trkpt lat="42.6601080" lon="-6.9182460">
        <ele>601.9</ele>
        <time>2020-04-12T18:28:09Z</time>
      </trkpt>
      <trkpt lat="42.6600940" lon="-6.9184080">
        <ele>601.8</ele>
        <time>2020-04-12T18:28:11Z</time>
      </trkpt>
      <trkpt lat="42.6600620" lon="-6.9188020">
        <ele>601.9</ele>
        <time>2020-04-12T18:28:13Z</time>
      </trkpt>
      <trkpt lat="42.6600480" lon="-6.9189730">
        <ele>602.1</ele>
        <time>2020-04-12T18:28:15Z</time>
      </trkpt>
      <trkpt lat="42.6600340" lon="-6.9191470">
        <ele>602.3</ele>
        <time>2020-04-12T18:28:17Z</time>
      </trkpt>
      <trkpt lat="42.6600200" lon="-6.9193220">
        <ele>602.5</ele>
        <time>2020-04-12T18:28:19Z</time>
      </trkpt>
      <trkpt lat="42.6599860" lon="-6.9197290">
        <ele>602.7</ele>
        <time>2020-04-12T18:28:21Z</time>
      </trkpt>
      <trkpt lat="42.6599720" lon="-6.9199100">
        <ele>602.9</ele>
        <time>2020-04-12T18:28:23Z</time>
      </trkpt>
      <trkpt lat="42.6599570" lon="-6.9200950">
        <ele>603.2</ele>
        <time>2020-04-12T18:28:25Z</time>
      </trkpt>
      <trkpt lat="42.6599340" lon="-6.9205050">
        <ele>603.8</ele>
        <time>2020-04-12T18:28:27Z</time>
      </trkpt>
      <trkpt lat="42.6599430" lon="-6.9206760">
        <ele>603.8</ele>
        <time>2020-04-12T18:28:29Z</time>
      </trkpt>
      <trkpt lat="42.6599510" lon="-6.9208350">
        <ele>603.9</ele>
        <time>2020-04-12T18:28:31Z</time>
      </trkpt>
      <trkpt lat="42.6599580" lon="-6.9209790">
        <ele>604.0</ele>
        <time>2020-04-12T18:28:33Z</time>
      </trkpt>
      <trkpt lat="42.6599980" lon="-6.9213490">
        <ele>604.1</ele>
        <time>2020-04-12T18:28:35Z</time>
      </trkpt>
      <trkpt lat="42.6600440" lon="-6.9214580">
        <ele>604.1</ele>
        <time>2020-04-12T18:28:37Z</time>
      </trkpt>
      <trkpt lat="42.6601200" lon="-6.9216410">
        <ele>604.1</ele>
        <time>2020-04-12T18:28:39Z</time>
      </trkpt>
      <trkpt lat="42.6601740" lon="-6.9217250">
        <ele>604.3</ele>
        <time>2020-04-12T18:28:41Z</time>
      </trkpt>
      <trkpt lat="42.6602260" lon="-6.9218080">
        <ele>604.4</ele>
        <time>2020-04-12T18:28:43Z</time>
      </trkpt>
      <trkpt lat="42.6602760" lon="-6.9218890">
        <ele>604.4</ele>
        <time>2020-04-12T18:28:45Z</time>
      </trkpt>
      <trkpt lat="42.6603250" lon="-6.9219670">
        <ele>604.5</ele>
        <time>2020-04-12T18:28:47Z</time>
      </trkpt>
      <trkpt lat="42.6604480" lon="-6.9221870">
        <ele>604.6</ele>
        <time>2020-04-12T18:28:49Z</time>
      </trkpt>
      <trkpt lat="42.6604670" lon="-6.9222840">
        <ele>604.7</ele>
        <time>2020-04-12T18:28:51Z</time>
      </trkpt>
      <trkpt lat="42.6604860" lon="-6.9223790">
        <ele>604.9</ele>
        <time>2020-04-12T18:28:53Z</time>
      </trkpt>
      <trkpt lat="42.6605050" lon="-6.9224730">
        <ele>605.1</ele>
        <time>2020-04-12T18:28:55Z</time>
      </trkpt>
      <trkpt lat="42.6605240" lon="-6.9225650">
        <ele>605.3</ele>
        <time>2020-04-12T18:28:57Z</time>
      </trkpt>
      <trkpt lat="42.6605430" lon="-6.9226580">
        <ele>605.5</ele>
        <time>2020-04-12T18:28:59Z</time>
      </trkpt>
      <trkpt lat="42.6605610" lon="-6.9227500">
        <ele>605.8</ele>
        <time>2020-04-12T18:29:01Z</time>
      </trkpt>
      <trkpt lat="42.6606280" lon="-6.9230670">
        <ele>606.5</ele>
        <time>2020-04-12T18:29:03Z</time>
      </trkpt>
      <trkpt lat="42.6606490" lon="-6.9231540">
        <ele>606.7</ele>
        <time>2020-04-12T18:29:05Z</time>
      </trkpt>
      <trkpt lat="42.6606670" lon="-6.9232350">
        <ele>606.9</ele>
        <time>2020-04-12T18:29:07Z</time>
      </trkpt>
      <trkpt lat="42.6606850" lon="-6.9233080">
        <ele>607.1</ele>
        <time>2020-04-12T18:29:09Z</time>
      </trkpt>
      <trkpt lat="42.6607010" lon="-6.9233790">
        <ele>607.2</ele>
        <time>2020-04-12T18:29:11Z</time>
      </trkpt>
      <trkpt lat="42.6607170" lon="-6.9234460">
        <ele>607.4</ele>
        <time>2020-04-12T18:29:13Z</time>
      </trkpt>
      <trkpt lat="42.6607750" lon="-6.9236900">
        <ele>608.0</ele>
        <time>2020-04-12T18:29:15Z</time>
      </trkpt>
      <trkpt lat="42.6607900" lon="-6.9237530">
        <ele>608.2</ele>
        <time>2020-04-12T18:29:17Z</time>
      </trkpt>
      <trkpt lat="42.6608050" lon="-6.9238170">
        <ele>608.4</ele>
        <time>2020-04-12T18:29:19Z</time>
      </trkpt>
      <trkpt lat="42.6608190" lon="-6.9238800">
        <ele>608.6</ele>
        <time>2020-04-12T18:29:21Z</time>
      </trkpt>
      <trkpt lat="42.6608340" lon="-6.9239410">
        <ele>608.8</ele>
        <time>2020-04-12T18:29:23Z</time>
      </trkpt>
      <trkpt lat="42.6608490" lon="-6.9240070">
        <ele>609.0</ele>
        <time>2020-04-12T18:29:25Z</time>
      </trkpt>
      <trkpt lat="42.6608650" lon="-6.9240720">
        <ele>609.2</ele>
        <time>2020-04-12T18:29:27Z</time>
      </trkpt>
      <trkpt lat="42.6608800" lon="-6.9241360">
        <ele>609.4</ele>
        <time>2020-04-12T18:29:29Z</time>
      </trkpt>
      <trkpt lat="42.6609400" lon="-6.9243770">
        <ele>610.3</ele>
        <time>2020-04-12T18:29:31Z</time>
      </trkpt>
      <trkpt lat="42.6609660" lon="-6.9244510">
        <ele>610.5</ele>
        <time>2020-04-12T18:29:33Z</time>
      </trkpt>
      <trkpt lat="42.6609970" lon="-6.9245370">
        <ele>610.8</ele>
        <time>2020-04-12T18:29:35Z</time>
      </trkpt>
      <trkpt lat="42.6610300" lon="-6.9246290">
        <ele>611.1</ele>
        <time>2020-04-12T18:29:37Z</time>
      </trkpt>
      <trkpt lat="42.6610650" lon="-6.9247260">
        <ele>611.4</ele>
        <time>2020-04-12T18:29:39Z</time>
      </trkpt>
      <trkpt lat="42.6611620" lon="-6.9249940">
        <ele>612.4</ele>
        <time>2020-04-12T18:29:41Z</time>
      </trkpt>
      <trkpt lat="42.6612050" lon="-6.9250840">
        <ele>612.7</ele>
        <time>2020-04-12T18:29:43Z</time>
      </trkpt>
      <trkpt lat="42.6612490" lon="-6.9251740">
        <ele>612.9</ele>
        <time>2020-04-12T18:29:45Z</time>
      </trkpt>
      <trkpt lat="42.6613400" lon="-6.9253390">
        <ele>613.2</ele>
        <time>2020-04-12T18:29:47Z</time>
      </trkpt>
      <trkpt lat="42.6613990" lon="-6.9254130">
        <ele>613.2</ele>
        <time>2020-04-12T18:29:49Z</time>
      </trkpt>
      <trkpt lat="42.6614570" lon="-6.9254880">
        <ele>613.3</ele>
        <time>2020-04-12T18:29:51Z</time>
      </trkpt>
      <trkpt lat="42.6615170" lon="-6.9255650">
        <ele>613.3</ele>
        <time>2020-04-12T18:29:53Z</time>
      </trkpt>
      <trkpt lat="42.6616730" lon="-6.9257630">
        <ele>613.5</ele>
        <time>2020-04-12T18:29:55Z</time>
      </trkpt>
      <trkpt lat="42.6617450" lon="-6.9258320">
        <ele>613.6</ele>
        <time>2020-04-12T18:29:57Z</time>
      </trkpt>
      <trkpt lat="42.6618270" lon="-6.9259120">
        <ele>613.8</ele>
        <time>2020-04-12T18:29:59Z</time>
      </trkpt>
      <trkpt lat="42.6619760" lon="-6.9260950">
        <ele>613.9</ele>
        <time>2020-04-12T18:30:01Z</time>
      </trkpt>
      <trkpt lat="42.6619980" lon="-6.9262560">
        <ele>614.0</ele>
        <time>2020-04-12T18:30:03Z</time>
      </trkpt>
      <trkpt lat="42.6620880" lon="-6.9264960">
        <ele>613.9</ele>
        <time>2020-04-12T18:30:05Z</time>
      </trkpt>
      <trkpt lat="42.6622570" lon="-6.9265820">
        <ele>614.0</ele>
        <time>2020-04-12T18:30:07Z</time>
      </trkpt>
      <trkpt lat="42.6623990" lon="-6.9265860">
        <ele>614.0</ele>
        <time>2020-04-12T18:30:09Z</time>
      </trkpt>
      <trkpt lat="42.6625460" lon="-6.9265900">
        <ele>614.0</ele>
        <time>2020-04-12T18:30:11Z</time>
      </trkpt>
      <trkpt lat="42.6628740" lon="-6.9266020">
        <ele>614.1</ele>
        <time>2020-04-12T18:30:13Z</time>
      </trkpt>
      <trkpt lat="42.6630250" lon="-6.9266230">
        <ele>614.1</ele>
        <time>2020-04-12T18:30:15Z</time>
      </trkpt>
      <trkpt lat="42.6631710" lon="-6.9266440">
        <ele>614.1</ele>
        <time>2020-04-12T18:30:17Z</time>
      </trkpt>
      <trkpt lat="42.6633120" lon="-6.9266640">
        <ele>614.1</ele>
        <time>2020-04-12T18:30:19Z</time>
      </trkpt>
      <trkpt lat="42.6636340" lon="-6.9266950">
        <ele>614.0</ele>
        <time>2020-04-12T18:30:21Z</time>
      </trkpt>
      <trkpt lat="42.6637680" lon="-6.9266870">
        <ele>613.9</ele>
        <time>2020-04-12T18:30:23Z</time>
      </trkpt>
      <trkpt lat="42.6639810" lon="-6.9266960">
        <ele>614.0</ele>
        <time>2020-04-12T18:30:25Z</time>
      </trkpt>
      <trkpt lat="42.6641070" lon="-6.9267160">
        <ele>613.9</ele>
        <time>2020-04-12T18:30:27Z</time>
      </trkpt>
      <trkpt lat="42.6643310" lon="-6.9267230">
        <ele>613.8</ele>
        <time>2020-04-12T18:30:29Z</time>
      </trkpt>
      <trkpt lat="42.6644490" lon="-6.9266940">
        <ele>613.6</ele>
        <time>2020-04-12T18:30:31Z</time>
      </trkpt>
      <trkpt lat="42.6645630" lon="-6.9266660">
        <ele>613.5</ele>
        <time>2020-04-12T18:30:33Z</time>
      </trkpt>
      <trkpt lat="42.6646750" lon="-6.9266390">
        <ele>613.4</ele>
        <time>2020-04-12T18:30:35Z</time>
      </trkpt>
      <trkpt lat="42.6649590" lon="-6.9265870">
        <ele>613.0</ele>
        <time>2020-04-12T18:30:37Z</time>
      </trkpt>
      <trkpt lat="42.6650920" lon="-6.9266260">
        <ele>612.7</ele>
        <time>2020-04-12T18:30:39Z</time>
      </trkpt>
      <trkpt lat="42.6652240" lon="-6.9266920">
        <ele>612.4</ele>
        <time>2020-04-12T18:30:41Z</time>
      </trkpt>
      <trkpt lat="42.6653260" lon="-6.9267510">
        <ele>612.3</ele>
        <time>2020-04-12T18:30:43Z</time>
      </trkpt>
      <trkpt lat="42.6654970" lon="-6.9268770">
        <ele>612.1</ele>
        <time>2020-04-12T18:30:45Z</time>
      </trkpt>
      <trkpt lat="42.6655930" lon="-6.9269730">
        <ele>611.9</ele>
        <time>2020-04-12T18:30:47Z</time>
      </trkpt>
      <trkpt lat="42.6657800" lon="-6.9271680">
        <ele>611.8</ele>
        <time>2020-04-12T18:30:49Z</time>
      </trkpt>
      <trkpt lat="42.6658540" lon="-6.9273110">
        <ele>611.7</ele>
        <time>2020-04-12T18:30:51Z</time>
      </trkpt>
      <trkpt lat="42.6658950" lon="-6.9275420">
        <ele>611.7</ele>
        <time>2020-04-12T18:30:53Z</time>
      </trkpt>
      <trkpt lat="42.6658850" lon="-6.9277870">
        <ele>611.7</ele>
        <time>2020-04-12T18:30:55Z</time>
      </trkpt>
      <trkpt lat="42.6658600" lon="-6.9279420">
        <ele>611.6</ele>
        <time>2020-04-12T18:30:57Z</time>
      </trkpt>
      <trkpt lat="42.6658370" lon="-6.9280920">
        <ele>611.5</ele>
        <time>2020-04-12T18:30:59Z</time>
      </trkpt>
      <trkpt lat="42.6658140" lon="-6.9282360">
        <ele>611.4</ele>
        <time>2020-04-12T18:31:01Z</time>
      </trkpt>
      <trkpt lat="42.6657520" lon="-6.9285940">
        <ele>611.5</ele>
        <time>2020-04-12T18:31:03Z</time>
      </trkpt>
      <trkpt lat="42.6657190" lon="-6.9287270">
        <ele>611.7</ele>
        <time>2020-04-12T18:31:05Z</time>
      </trkpt>
      <trkpt lat="42.6656870" lon="-6.9288570">
        <ele>611.8</ele>
        <time>2020-04-12T18:31:07Z</time>
      </trkpt>
      <trkpt lat="42.6656560" lon="-6.9289850">
        <ele>612.0</ele>
        <time>2020-04-12T18:31:09Z</time>
      </trkpt>
      <trkpt lat="42.6656250" lon="-6.9291130">
        <ele>612.1</ele>
        <time>2020-04-12T18:31:11Z</time>
      </trkpt>
      <trkpt lat="42.6655930" lon="-6.9292420">
        <ele>612.3</ele>
        <time>2020-04-12T18:31:13Z</time>
      </trkpt>
      <trkpt lat="42.6654910" lon="-6.9296340">
        <ele>613.1</ele>
        <time>2020-04-12T18:31:15Z</time>
      </trkpt>
      <trkpt lat="42.6654530" lon="-6.9297530">
        <ele>613.3</ele>
        <time>2020-04-12T18:31:17Z</time>
      </trkpt>
      <trkpt lat="42.6654170" lon="-6.9298700">
        <ele>613.6</ele>
        <time>2020-04-12T18:31:19Z</time>
      </trkpt>
      <trkpt lat="42.6653390" lon="-6.9301100">
        <ele>613.9</ele>
        <time>2020-04-12T18:31:21Z</time>
      </trkpt>
      <trkpt lat="42.6653020" lon="-6.9302190">
        <ele>614.1</ele>
        <time>2020-04-12T18:31:23Z</time>
      </trkpt>
      <trkpt lat="42.6652380" lon="-6.9304300">
        <ele>614.5</ele>
        <time>2020-04-12T18:31:25Z</time>
      </trkpt>
      <trkpt lat="42.6652380" lon="-6.9305900">
        <ele>614.7</ele>
        <time>2020-04-12T18:31:27Z</time>
      </trkpt>
      <trkpt lat="42.6652780" lon="-6.9306910">
        <ele>614.8</ele>
        <time>2020-04-12T18:31:29Z</time>
      </trkpt>
      <trkpt lat="42.6653170" lon="-6.9307920">
        <ele>614.8</ele>
        <time>2020-04-12T18:31:31Z</time>
      </trkpt>
      <trkpt lat="42.6653570" lon="-6.9308920">
        <ele>614.9</ele>
        <time>2020-04-12T18:31:33Z</time>
      </trkpt>
      <trkpt lat="42.6654530" lon="-6.9311410">
        <ele>615.2</ele>
        <time>2020-04-12T18:31:35Z</time>
      </trkpt>
      <trkpt lat="42.6654820" lon="-6.9312490">
        <ele>615.3</ele>
        <time>2020-04-12T18:31:37Z</time>
      </trkpt>
      <trkpt lat="42.6655120" lon="-6.9313620">
        <ele>615.5</ele>
        <time>2020-04-12T18:31:39Z</time>
      </trkpt>
      <trkpt lat="42.6655430" lon="-6.9314770">
        <ele>615.7</ele>
        <time>2020-04-12T18:31:41Z</time>
      </trkpt>
      <trkpt lat="42.6655740" lon="-6.9315950">
        <ele>615.9</ele>
        <time>2020-04-12T18:31:43Z</time>
      </trkpt>
      <trkpt lat="42.6656510" lon="-6.9319040">
        <ele>616.6</ele>
        <time>2020-04-12T18:31:45Z</time>
      </trkpt>
      <trkpt lat="42.6656710" lon="-6.9320280">
        <ele>617.0</ele>
        <time>2020-04-12T18:31:47Z</time>
      </trkpt>
      <trkpt lat="42.6656920" lon="-6.9321560">
        <ele>617.4</ele>
        <time>2020-04-12T18:31:49Z</time>
      </trkpt>
      <trkpt lat="42.6657130" lon="-6.9322830">
        <ele>617.7</ele>
        <time>2020-04-12T18:31:51Z</time>
      </trkpt>
      <trkpt lat="42.6657340" lon="-6.9324110">
        <ele>618.1</ele>
        <time>2020-04-12T18:31:53Z</time>
      </trkpt>
      <trkpt lat="42.6657920" lon="-6.9327580">
        <ele>618.8</ele>
        <time>2020-04-12T18:31:55Z</time>
      </trkpt>
      <trkpt lat="42.6658120" lon="-6.9328830">
        <ele>619.1</ele>
        <time>2020-04-12T18:31:57Z</time>
      </trkpt>
      <trkpt lat="42.6658320" lon="-6.9330030">
        <ele>619.3</ele>
        <time>2020-04-12T18:31:59Z</time>
      </trkpt>
      <trkpt lat="42.6658520" lon="-6.9331220">
        <ele>619.4</ele>
        <time>2020-04-12T18:32:01Z</time>
      </trkpt>
      <trkpt lat="42.6658710" lon="-6.9332380">
        <ele>619.6</ele>
        <time>2020-04-12T18:32:03Z</time>
      </trkpt>
      <trkpt lat="42.6659260" lon="-6.9335700">
        <ele>620.0</ele>
        <time>2020-04-12T18:32:05Z</time>
      </trkpt>
      <trkpt lat="42.6659440" lon="-6.9336820">
        <ele>620.2</ele>
        <time>2020-04-12T18:32:07Z</time>
      </trkpt>
      <trkpt lat="42.6659630" lon="-6.9337930">
        <ele>620.3</ele>
        <time>2020-04-12T18:32:09Z</time>
      </trkpt>
      <trkpt lat="42.6659810" lon="-6.9339010">
        <ele>620.4</ele>
        <time>2020-04-12T18:32:11Z</time>
      </trkpt>
      <trkpt lat="42.6659980" lon="-6.9340070">
        <ele>620.6</ele>
        <time>2020-04-12T18:32:13Z</time>
      </trkpt>
      <trkpt lat="42.6660530" lon="-6.9343320">
        <ele>621.1</ele>
        <time>2020-04-12T18:32:15Z</time>
      </trkpt>
      <trkpt lat="42.6660770" lon="-6.9344400">
        <ele>621.2</ele>
        <time>2020-04-12T18:32:17Z</time>
      </trkpt>
      <trkpt lat="42.6661020" lon="-6.9345520">
        <ele>621.3</ele>
        <time>2020-04-12T18:32:19Z</time>
      </trkpt>
      <trkpt lat="42.6661280" lon="-6.9346690">
        <ele>621.5</ele>
        <time>2020-04-12T18:32:21Z</time>
      </trkpt>
      <trkpt lat="42.6661550" lon="-6.9347890">
        <ele>621.7</ele>
        <time>2020-04-12T18:32:23Z</time>
      </trkpt>
      <trkpt lat="42.6661820" lon="-6.9349100">
        <ele>621.9</ele>
        <time>2020-04-12T18:32:25Z</time>
      </trkpt>
      <trkpt lat="42.6662090" lon="-6.9350310">
        <ele>622.1</ele>
        <time>2020-04-12T18:32:27Z</time>
      </trkpt>
      <trkpt lat="42.6662960" lon="-6.9354300">
        <ele>622.4</ele>
        <time>2020-04-12T18:32:29Z</time>
      </trkpt>
      <trkpt lat="42.6663210" lon="-6.9355560">
        <ele>622.4</ele>
        <time>2020-04-12T18:32:31Z</time>
      </trkpt>
      <trkpt lat="42.6663460" lon="-6.9356830">
        <ele>622.5</ele>
        <time>2020-04-12T18:32:34Z</time>
      </trkpt>
      <trkpt lat="42.6663710" lon="-6.9358130">
        <ele>622.6</ele>
        <time>2020-04-12T18:32:36Z</time>
      </trkpt>
      <trkpt lat="42.6664310" lon="-6.9361460">
        <ele>622.7</ele>
        <time>2020-04-12T18:32:38Z</time>
      </trkpt>
      <trkpt lat="42.6664340" lon="-6.9362790">
        <ele>622.7</ele>
        <time>2020-04-12T18:32:40Z</time>
      </trkpt>
      <trkpt lat="42.6664380" lon="-6.9365120">
        <ele>622.7</ele>
        <time>2020-04-12T18:32:42Z</time>
      </trkpt>
      <trkpt lat="42.6664110" lon="-6.9366350">
        <ele>622.7</ele>
        <time>2020-04-12T18:32:44Z</time>
      </trkpt>
      <trkpt lat="42.6663850" lon="-6.9367570">
        <ele>622.7</ele>
        <time>2020-04-12T18:32:46Z</time>
      </trkpt>
      <trkpt lat="42.6663590" lon="-6.9368790">
        <ele>622.7</ele>
        <time>2020-04-12T18:32:48Z</time>
      </trkpt>
      <trkpt lat="42.6662990" lon="-6.9371750">
        <ele>622.7</ele>
        <time>2020-04-12T18:32:50Z</time>
      </trkpt>
      <trkpt lat="42.6662870" lon="-6.9372970">
        <ele>622.7</ele>
        <time>2020-04-12T18:32:52Z</time>
      </trkpt>
      <trkpt lat="42.6663000" lon="-6.9375100">
        <ele>622.8</ele>
        <time>2020-04-12T18:32:54Z</time>
      </trkpt>
      <trkpt lat="42.6663290" lon="-6.9376280">
        <ele>622.8</ele>
        <time>2020-04-12T18:32:56Z</time>
      </trkpt>
      <trkpt lat="42.6663580" lon="-6.9377480">
        <ele>622.9</ele>
        <time>2020-04-12T18:32:58Z</time>
      </trkpt>
      <trkpt lat="42.6664120" lon="-6.9379890">
        <ele>623.4</ele>
        <time>2020-04-12T18:33:00Z</time>
      </trkpt>
      <trkpt lat="42.6664010" lon="-6.9381420">
        <ele>623.9</ele>
        <time>2020-04-12T18:33:02Z</time>
      </trkpt>
      <trkpt lat="42.6663660" lon="-6.9382600">
        <ele>624.3</ele>
        <time>2020-04-12T18:33:04Z</time>
      </trkpt>
      <trkpt lat="42.6663310" lon="-6.9383780">
        <ele>624.6</ele>
        <time>2020-04-12T18:33:06Z</time>
      </trkpt>
      <trkpt lat="42.6662950" lon="-6.9384960">
        <ele>624.8</ele>
        <time>2020-04-12T18:33:08Z</time>
      </trkpt>
      <trkpt lat="42.6662020" lon="-6.9387990">
        <ele>625.1</ele>
        <time>2020-04-12T18:33:10Z</time>
      </trkpt>
      <trkpt lat="42.6661300" lon="-6.9389520">
        <ele>625.1</ele>
        <time>2020-04-12T18:33:12Z</time>
      </trkpt>
      <trkpt lat="42.6660540" lon="-6.9390440">
        <ele>625.2</ele>
        <time>2020-04-12T18:33:14Z</time>
      </trkpt>
      <trkpt lat="42.6659770" lon="-6.9391370">
        <ele>625.2</ele>
        <time>2020-04-12T18:33:16Z</time>
      </trkpt>
      <trkpt lat="42.6658220" lon="-6.9392880">
        <ele>625.3</ele>
        <time>2020-04-12T18:33:18Z</time>
      </trkpt>
      <trkpt lat="42.6657270" lon="-6.9393600">
        <ele>625.4</ele>
        <time>2020-04-12T18:33:20Z</time>
      </trkpt>
      <trkpt lat="42.6656300" lon="-6.9394330">
        <ele>625.6</ele>
        <time>2020-04-12T18:33:22Z</time>
      </trkpt>
      <trkpt lat="42.6654360" lon="-6.9396060">
        <ele>626.0</ele>
        <time>2020-04-12T18:33:24Z</time>
      </trkpt>
      <trkpt lat="42.6653490" lon="-6.9397080">
        <ele>626.1</ele>
        <time>2020-04-12T18:33:26Z</time>
      </trkpt>
      <trkpt lat="42.6651910" lon="-6.9399030">
        <ele>626.2</ele>
        <time>2020-04-12T18:33:28Z</time>
      </trkpt>
      <trkpt lat="42.6650760" lon="-6.9400730">
        <ele>626.3</ele>
        <time>2020-04-12T18:33:30Z</time>
      </trkpt>
      <trkpt lat="42.6649790" lon="-6.9401590">
        <ele>626.4</ele>
        <time>2020-04-12T18:33:32Z</time>
      </trkpt>
      <trkpt lat="42.6648830" lon="-6.9402450">
        <ele>626.4</ele>
        <time>2020-04-12T18:33:34Z</time>
      </trkpt>
      <trkpt lat="42.6647860" lon="-6.9403310">
        <ele>626.5</ele>
        <time>2020-04-12T18:33:36Z</time>
      </trkpt>
      <trkpt lat="42.6645700" lon="-6.9405190">
        <ele>626.5</ele>
        <time>2020-04-12T18:33:38Z</time>
      </trkpt>
      <trkpt lat="42.6644720" lon="-6.9406000">
        <ele>626.5</ele>
        <time>2020-04-12T18:33:40Z</time>
      </trkpt>
      <trkpt lat="42.6643760" lon="-6.9406790">
        <ele>626.4</ele>
        <time>2020-04-12T18:33:42Z</time>
      </trkpt>
      <trkpt lat="42.6641640" lon="-6.9408600">
        <ele>626.4</ele>
        <time>2020-04-12T18:33:44Z</time>
      </trkpt>
      <trkpt lat="42.6640700" lon="-6.9410010">
        <ele>626.5</ele>
        <time>2020-04-12T18:33:46Z</time>
      </trkpt>
      <trkpt lat="42.6640180" lon="-6.9411750">
        <ele>626.5</ele>
        <time>2020-04-12T18:33:48Z</time>
      </trkpt>
      <trkpt lat="42.6640070" lon="-6.9413700">
        <ele>626.6</ele>
        <time>2020-04-12T18:33:50Z</time>
      </trkpt>
      <trkpt lat="42.6640040" lon="-6.9415210">
        <ele>626.6</ele>
        <time>2020-04-12T18:33:52Z</time>
      </trkpt>
      <trkpt lat="42.6640010" lon="-6.9416740">
        <ele>626.7</ele>
        <time>2020-04-12T18:33:54Z</time>
      </trkpt>
      <trkpt lat="42.6639980" lon="-6.9418260">
        <ele>626.7</ele>
        <time>2020-04-12T18:33:56Z</time>
      </trkpt>
      <trkpt lat="42.6639930" lon="-6.9422380">
        <ele>626.9</ele>
        <time>2020-04-12T18:33:58Z</time>
      </trkpt>
      <trkpt lat="42.6640240" lon="-6.9424210">
        <ele>627.0</ele>
        <time>2020-04-12T18:34:00Z</time>
      </trkpt>
      <trkpt lat="42.6640660" lon="-6.9425420">
        <ele>627.0</ele>
        <time>2020-04-12T18:34:02Z</time>
      </trkpt>
      <trkpt lat="42.6641060" lon="-6.9426550">
        <ele>627.0</ele>
        <time>2020-04-12T18:34:04Z</time>
      </trkpt>
      <trkpt lat="42.6641420" lon="-6.9427600">
        <ele>627.1</ele>
        <time>2020-04-12T18:34:06Z</time>
      </trkpt>
      <trkpt lat="42.6641770" lon="-6.9428610">
        <ele>627.2</ele>
        <time>2020-04-12T18:34:08Z</time>
      </trkpt>
      <trkpt lat="42.6642670" lon="-6.9431430">
        <ele>627.3</ele>
        <time>2020-04-12T18:34:10Z</time>
      </trkpt>
      <trkpt lat="42.6643020" lon="-6.9432950">
        <ele>627.4</ele>
        <time>2020-04-12T18:34:12Z</time>
      </trkpt>
      <trkpt lat="42.6643170" lon="-6.9433920">
        <ele>627.3</ele>
        <time>2020-04-12T18:34:14Z</time>
      </trkpt>
      <trkpt lat="42.6643310" lon="-6.9434850">
        <ele>627.3</ele>
        <time>2020-04-12T18:34:16Z</time>
      </trkpt>
      <trkpt lat="42.6643450" lon="-6.9435760">
        <ele>627.3</ele>
        <time>2020-04-12T18:34:18Z</time>
      </trkpt>
      <trkpt lat="42.6643810" lon="-6.9438030">
        <ele>627.4</ele>
        <time>2020-04-12T18:34:20Z</time>
      </trkpt>
      <trkpt lat="42.6644080" lon="-6.9438970">
        <ele>627.4</ele>
        <time>2020-04-12T18:34:22Z</time>
      </trkpt>
      <trkpt lat="42.6644620" lon="-6.9440670">
        <ele>627.6</ele>
        <time>2020-04-12T18:34:24Z</time>
      </trkpt>
      <trkpt lat="42.6645110" lon="-6.9441800">
        <ele>627.8</ele>
        <time>2020-04-12T18:34:26Z</time>
      </trkpt>
      <trkpt lat="42.6645650" lon="-6.9443010">
        <ele>628.0</ele>
        <time>2020-04-12T18:34:28Z</time>
      </trkpt>
      <trkpt lat="42.6646230" lon="-6.9444330">
        <ele>628.4</ele>
        <time>2020-04-12T18:34:30Z</time>
      </trkpt>
      <trkpt lat="42.6646840" lon="-6.9445720">
        <ele>629.0</ele>
        <time>2020-04-12T18:34:32Z</time>
      </trkpt>
      <trkpt lat="42.6647480" lon="-6.9447170">
        <ele>629.7</ele>
        <time>2020-04-12T18:34:34Z</time>
      </trkpt>
      <trkpt lat="42.6649120" lon="-6.9451420">
        <ele>631.6</ele>
        <time>2020-04-12T18:34:36Z</time>
      </trkpt>
      <trkpt lat="42.6649470" lon="-6.9453040">
        <ele>632.0</ele>
        <time>2020-04-12T18:34:38Z</time>
      </trkpt>
      <trkpt lat="42.6649880" lon="-6.9455620">
        <ele>632.3</ele>
        <time>2020-04-12T18:34:40Z</time>
      </trkpt>
      <trkpt lat="42.6650060" lon="-6.9457140">
        <ele>632.6</ele>
        <time>2020-04-12T18:34:42Z</time>
      </trkpt>
      <trkpt lat="42.6650610" lon="-6.9459860">
        <ele>633.2</ele>
        <time>2020-04-12T18:34:44Z</time>
      </trkpt>
      <trkpt lat="42.6651130" lon="-6.9461140">
        <ele>633.5</ele>
        <time>2020-04-12T18:34:46Z</time>
      </trkpt>
      <trkpt lat="42.6651640" lon="-6.9462390">
        <ele>633.7</ele>
        <time>2020-04-12T18:34:48Z</time>
      </trkpt>
      <trkpt lat="42.6652700" lon="-6.9465200">
        <ele>634.3</ele>
        <time>2020-04-12T18:34:50Z</time>
      </trkpt>
      <trkpt lat="42.6652670" lon="-6.9466550">
        <ele>634.4</ele>
        <time>2020-04-12T18:34:52Z</time>
      </trkpt>
      <trkpt lat="42.6652650" lon="-6.9467860">
        <ele>634.6</ele>
        <time>2020-04-12T18:34:54Z</time>
      </trkpt>
      <trkpt lat="42.6652630" lon="-6.9469140">
        <ele>634.7</ele>
        <time>2020-04-12T18:34:56Z</time>
      </trkpt>
      <trkpt lat="42.6652610" lon="-6.9470400">
        <ele>634.8</ele>
        <time>2020-04-12T18:34:58Z</time>
      </trkpt>
      <trkpt lat="42.6652580" lon="-6.9471630">
        <ele>634.8</ele>
        <time>2020-04-12T18:35:00Z</time>
      </trkpt>
      <trkpt lat="42.6652560" lon="-6.9472850">
        <ele>634.9</ele>
        <time>2020-04-12T18:35:02Z</time>
      </trkpt>
      <trkpt lat="42.6652380" lon="-6.9477060">
        <ele>635.9</ele>
        <time>2020-04-12T18:35:04Z</time>
      </trkpt>
      <trkpt lat="42.6652140" lon="-6.9478200">
        <ele>636.1</ele>
        <time>2020-04-12T18:35:06Z</time>
      </trkpt>
      <trkpt lat="42.6651890" lon="-6.9479330">
        <ele>636.3</ele>
        <time>2020-04-12T18:35:08Z</time>
      </trkpt>
      <trkpt lat="42.6651660" lon="-6.9480430">
        <ele>636.5</ele>
        <time>2020-04-12T18:35:10Z</time>
      </trkpt>
      <trkpt lat="42.6651420" lon="-6.9481520">
        <ele>636.7</ele>
        <time>2020-04-12T18:35:12Z</time>
      </trkpt>
      <trkpt lat="42.6651190" lon="-6.9482620">
        <ele>636.8</ele>
        <time>2020-04-12T18:35:14Z</time>
      </trkpt>
      <trkpt lat="42.6650630" lon="-6.9485920">
        <ele>637.3</ele>
        <time>2020-04-12T18:35:16Z</time>
      </trkpt>
      <trkpt lat="42.6650570" lon="-6.9486860">
        <ele>637.4</ele>
        <time>2020-04-12T18:35:18Z</time>
      </trkpt>
      <trkpt lat="42.6650510" lon="-6.9487710">
        <ele>637.4</ele>
        <time>2020-04-12T18:35:20Z</time>
      </trkpt>
      <trkpt lat="42.6650370" lon="-6.9489680">
        <ele>637.7</ele>
        <time>2020-04-12T18:35:22Z</time>
      </trkpt>
      <trkpt lat="42.6650290" lon="-6.9490390">
        <ele>637.8</ele>
        <time>2020-04-12T18:35:24Z</time>
      </trkpt>
      <trkpt lat="42.6650210" lon="-6.9491060">
        <ele>638.0</ele>
        <time>2020-04-12T18:35:26Z</time>
      </trkpt>
      <trkpt lat="42.6650140" lon="-6.9491710">
        <ele>638.1</ele>
        <time>2020-04-12T18:35:28Z</time>
      </trkpt>
      <trkpt lat="42.6650060" lon="-6.9492330">
        <ele>638.2</ele>
        <time>2020-04-12T18:35:30Z</time>
      </trkpt>
      <trkpt lat="42.6650000" lon="-6.9492930">
        <ele>638.4</ele>
        <time>2020-04-12T18:35:32Z</time>
      </trkpt>
      <trkpt lat="42.6649920" lon="-6.9493560">
        <ele>638.5</ele>
        <time>2020-04-12T18:35:34Z</time>
      </trkpt>
      <trkpt lat="42.6649850" lon="-6.9494220">
        <ele>638.6</ele>
        <time>2020-04-12T18:35:36Z</time>
      </trkpt>
      <trkpt lat="42.6649770" lon="-6.9494890">
        <ele>638.7</ele>
        <time>2020-04-12T18:35:38Z</time>
      </trkpt>
      <trkpt lat="42.6649700" lon="-6.9495530">
        <ele>638.8</ele>
        <time>2020-04-12T18:35:40Z</time>
      </trkpt>
      <trkpt lat="42.6649630" lon="-6.9496140">
        <ele>638.9</ele>
        <time>2020-04-12T18:35:42Z</time>
      </trkpt>
      <trkpt lat="42.6649270" lon="-6.9499280">
        <ele>639.5</ele>
        <time>2020-04-12T18:35:44Z</time>
      </trkpt>
      <trkpt lat="42.6649190" lon="-6.9499910">
        <ele>639.7</ele>
        <time>2020-04-12T18:35:46Z</time>
      </trkpt>
      <trkpt lat="42.6649120" lon="-6.9500570">
        <ele>639.8</ele>
        <time>2020-04-12T18:35:48Z</time>
      </trkpt>
      <trkpt lat="42.6649040" lon="-6.9501250">
        <ele>639.9</ele>
        <time>2020-04-12T18:35:50Z</time>
      </trkpt>
      <trkpt lat="42.6648960" lon="-6.9501950">
        <ele>640.1</ele>
        <time>2020-04-12T18:35:52Z</time>
      </trkpt>
      <trkpt lat="42.6648880" lon="-6.9502630">
        <ele>640.2</ele>
        <time>2020-04-12T18:35:54Z</time>
      </trkpt>
      <trkpt lat="42.6648810" lon="-6.9503310">
        <ele>640.2</ele>
        <time>2020-04-12T18:35:56Z</time>
      </trkpt>
      <trkpt lat="42.6648730" lon="-6.9503990">
        <ele>640.3</ele>
        <time>2020-04-12T18:35:58Z</time>
      </trkpt>
      <trkpt lat="42.6648650" lon="-6.9504670">
        <ele>640.4</ele>
        <time>2020-04-12T18:36:00Z</time>
      </trkpt>
      <trkpt lat="42.6648570" lon="-6.9505350">
        <ele>640.5</ele>
        <time>2020-04-12T18:36:02Z</time>
      </trkpt>
      <trkpt lat="42.6648490" lon="-6.9506040">
        <ele>640.7</ele>
        <time>2020-04-12T18:36:04Z</time>
      </trkpt>
      <trkpt lat="42.6648080" lon="-6.9509260">
        <ele>641.8</ele>
        <time>2020-04-12T18:36:06Z</time>
      </trkpt>
      <trkpt lat="42.6647960" lon="-6.9509930">
        <ele>642.0</ele>
        <time>2020-04-12T18:36:08Z</time>
      </trkpt>
      <trkpt lat="42.6647840" lon="-6.9510590">
        <ele>642.3</ele>
        <time>2020-04-12T18:36:10Z</time>
      </trkpt>
      <trkpt lat="42.6647720" lon="-6.9511260">
        <ele>642.5</ele>
        <time>2020-04-12T18:36:12Z</time>
      </trkpt>
      <trkpt lat="42.6647600" lon="-6.9511930">
        <ele>642.8</ele>
        <time>2020-04-12T18:36:14Z</time>
      </trkpt>
      <trkpt lat="42.6647480" lon="-6.9512600">
        <ele>643.0</ele>
        <time>2020-04-12T18:36:16Z</time>
      </trkpt>
      <trkpt lat="42.6647360" lon="-6.9513270">
        <ele>643.2</ele>
        <time>2020-04-12T18:36:18Z</time>
      </trkpt>
      <trkpt lat="42.6647240" lon="-6.9513930">
        <ele>643.5</ele>
        <time>2020-04-12T18:36:20Z</time>
      </trkpt>
      <trkpt lat="42.6647120" lon="-6.9514600">
        <ele>643.7</ele>
        <time>2020-04-12T18:36:22Z</time>
      </trkpt>
      <trkpt lat="42.6646580" lon="-6.9517650">
        <ele>644.6</ele>
        <time>2020-04-12T18:36:24Z</time>
      </trkpt>
      <trkpt lat="42.6646450" lon="-6.9518500">
        <ele>644.9</ele>
        <time>2020-04-12T18:36:26Z</time>
      </trkpt>
      <trkpt lat="42.6646300" lon="-6.9519470">
        <ele>645.2</ele>
        <time>2020-04-12T18:36:28Z</time>
      </trkpt>
      <trkpt lat="42.6646140" lon="-6.9520540">
        <ele>645.5</ele>
        <time>2020-04-12T18:36:30Z</time>
      </trkpt>
      <trkpt lat="42.6645970" lon="-6.9521680">
        <ele>645.8</ele>
        <time>2020-04-12T18:36:32Z</time>
      </trkpt>
      <trkpt lat="42.6645800" lon="-6.9522840">
        <ele>646.1</ele>
        <time>2020-04-12T18:36:34Z</time>
      </trkpt>
      <trkpt lat="42.6645370" lon="-6.9526130">
        <ele>647.0</ele>
        <time>2020-04-12T18:36:36Z</time>
      </trkpt>
      <trkpt lat="42.6645320" lon="-6.9527350">
        <ele>647.3</ele>
        <time>2020-04-12T18:36:38Z</time>
      </trkpt>
      <trkpt lat="42.6645260" lon="-6.9528580">
        <ele>647.6</ele>
        <time>2020-04-12T18:36:40Z</time>
      </trkpt>
      <trkpt lat="42.6645210" lon="-6.9529790">
        <ele>647.8</ele>
        <time>2020-04-12T18:36:42Z</time>
      </trkpt>
      <trkpt lat="42.6645160" lon="-6.9531010">
        <ele>647.9</ele>
        <time>2020-04-12T18:36:44Z</time>
      </trkpt>
      <trkpt lat="42.6645100" lon="-6.9532240">
        <ele>648.0</ele>
        <time>2020-04-12T18:36:46Z</time>
      </trkpt>
      <trkpt lat="42.6645050" lon="-6.9533490">
        <ele>648.0</ele>
        <time>2020-04-12T18:36:48Z</time>
      </trkpt>
      <trkpt lat="42.6644690" lon="-6.9537740">
        <ele>647.9</ele>
        <time>2020-04-12T18:36:50Z</time>
      </trkpt>
      <trkpt lat="42.6644380" lon="-6.9539140">
        <ele>647.8</ele>
        <time>2020-04-12T18:36:52Z</time>
      </trkpt>
      <trkpt lat="42.6643870" lon="-6.9541850">
        <ele>647.5</ele>
        <time>2020-04-12T18:36:54Z</time>
      </trkpt>
      <trkpt lat="42.6643870" lon="-6.9543920">
        <ele>647.4</ele>
        <time>2020-04-12T18:36:56Z</time>
      </trkpt>
      <trkpt lat="42.6644740" lon="-6.9546090">
        <ele>647.2</ele>
        <time>2020-04-12T18:36:58Z</time>
      </trkpt>
      <trkpt lat="42.6645940" lon="-6.9547740">
        <ele>646.9</ele>
        <time>2020-04-12T18:37:00Z</time>
      </trkpt>
      <trkpt lat="42.6647430" lon="-6.9549150">
        <ele>646.6</ele>
        <time>2020-04-12T18:37:02Z</time>
      </trkpt>
      <trkpt lat="42.6648560" lon="-6.9550100">
        <ele>646.4</ele>
        <time>2020-04-12T18:37:04Z</time>
      </trkpt>
      <trkpt lat="42.6649670" lon="-6.9551040">
        <ele>646.1</ele>
        <time>2020-04-12T18:37:06Z</time>
      </trkpt>
      <trkpt lat="42.6650760" lon="-6.9551960">
        <ele>646.0</ele>
        <time>2020-04-12T18:37:08Z</time>
      </trkpt>
      <trkpt lat="42.6653250" lon="-6.9554060">
        <ele>645.6</ele>
        <time>2020-04-12T18:37:10Z</time>
      </trkpt>
      <trkpt lat="42.6654290" lon="-6.9554940">
        <ele>645.4</ele>
        <time>2020-04-12T18:37:12Z</time>
      </trkpt>
      <trkpt lat="42.6655320" lon="-6.9555810">
        <ele>645.1</ele>
        <time>2020-04-12T18:37:14Z</time>
      </trkpt>
      <trkpt lat="42.6656330" lon="-6.9556660">
        <ele>644.8</ele>
        <time>2020-04-12T18:37:16Z</time>
      </trkpt>
      <trkpt lat="42.6658750" lon="-6.9558730">
        <ele>644.3</ele>
        <time>2020-04-12T18:37:18Z</time>
      </trkpt>
      <trkpt lat="42.6659720" lon="-6.9559580">
        <ele>644.1</ele>
        <time>2020-04-12T18:37:20Z</time>
      </trkpt>
      <trkpt lat="42.6660680" lon="-6.9560430">
        <ele>643.9</ele>
        <time>2020-04-12T18:37:22Z</time>
      </trkpt>
      <trkpt lat="42.6661630" lon="-6.9561250">
        <ele>643.7</ele>
        <time>2020-04-12T18:37:24Z</time>
      </trkpt>
      <trkpt lat="42.6664190" lon="-6.9563500">
        <ele>643.4</ele>
        <time>2020-04-12T18:37:26Z</time>
      </trkpt>
      <trkpt lat="42.6665140" lon="-6.9564330">
        <ele>643.4</ele>
        <time>2020-04-12T18:37:28Z</time>
      </trkpt>
      <trkpt lat="42.6666110" lon="-6.9565180">
        <ele>643.4</ele>
        <time>2020-04-12T18:37:30Z</time>
      </trkpt>
      <trkpt lat="42.6667060" lon="-6.9566020">
        <ele>643.4</ele>
        <time>2020-04-12T18:37:32Z</time>
      </trkpt>
      <trkpt lat="42.6668070" lon="-6.9566900">
        <ele>643.4</ele>
        <time>2020-04-12T18:37:34Z</time>
      </trkpt>
      <trkpt lat="42.6670770" lon="-6.9569270">
        <ele>643.8</ele>
        <time>2020-04-12T18:37:36Z</time>
      </trkpt>
      <trkpt lat="42.6671890" lon="-6.9570250">
        <ele>644.0</ele>
        <time>2020-04-12T18:37:38Z</time>
      </trkpt>
      <trkpt lat="42.6673040" lon="-6.9571260">
        <ele>644.2</ele>
        <time>2020-04-12T18:37:40Z</time>
      </trkpt>
      <trkpt lat="42.6674240" lon="-6.9572310">
        <ele>644.4</ele>
        <time>2020-04-12T18:37:42Z</time>
      </trkpt>
      <trkpt lat="42.6677080" lon="-6.9574800">
        <ele>645.2</ele>
        <time>2020-04-12T18:37:44Z</time>
      </trkpt>
      <trkpt lat="42.6678260" lon="-6.9575840">
        <ele>645.6</ele>
        <time>2020-04-12T18:37:46Z</time>
      </trkpt>
      <trkpt lat="42.6679360" lon="-6.9576800">
        <ele>646.0</ele>
        <time>2020-04-12T18:37:48Z</time>
      </trkpt>
      <trkpt lat="42.6680490" lon="-6.9577790">
        <ele>646.3</ele>
        <time>2020-04-12T18:37:50Z</time>
      </trkpt>
      <trkpt lat="42.6683260" lon="-6.9580220">
        <ele>647.2</ele>
        <time>2020-04-12T18:37:52Z</time>
      </trkpt>
      <trkpt lat="42.6684400" lon="-6.9581220">
        <ele>647.6</ele>
        <time>2020-04-12T18:37:54Z</time>
      </trkpt>
      <trkpt lat="42.6685560" lon="-6.9582240">
        <ele>647.9</ele>
        <time>2020-04-12T18:37:56Z</time>
      </trkpt>
      <trkpt lat="42.6686720" lon="-6.9583250">
        <ele>648.2</ele>
        <time>2020-04-12T18:37:58Z</time>
      </trkpt>
      <trkpt lat="42.6689550" lon="-6.9585650">
        <ele>648.5</ele>
        <time>2020-04-12T18:38:00Z</time>
      </trkpt>
      <trkpt lat="42.6690760" lon="-6.9586610">
        <ele>648.5</ele>
        <time>2020-04-12T18:38:02Z</time>
      </trkpt>
      <trkpt lat="42.6693100" lon="-6.9588520">
        <ele>648.6</ele>
        <time>2020-04-12T18:38:04Z</time>
      </trkpt>
      <trkpt lat="42.6694210" lon="-6.9589720">
        <ele>648.6</ele>
        <time>2020-04-12T18:38:06Z</time>
      </trkpt>
      <trkpt lat="42.6695330" lon="-6.9590940">
        <ele>648.6</ele>
        <time>2020-04-12T18:38:08Z</time>
      </trkpt>
      <trkpt lat="42.6697190" lon="-6.9593390">
        <ele>648.6</ele>
        <time>2020-04-12T18:38:10Z</time>
      </trkpt>
      <trkpt lat="42.6698450" lon="-6.9595560">
        <ele>648.6</ele>
        <time>2020-04-12T18:38:12Z</time>
      </trkpt>
      <trkpt lat="42.6699220" lon="-6.9597040">
        <ele>648.6</ele>
        <time>2020-04-12T18:38:14Z</time>
      </trkpt>
      <trkpt lat="42.6699960" lon="-6.9598480">
        <ele>648.6</ele>
        <time>2020-04-12T18:38:16Z</time>
      </trkpt>
      <trkpt lat="42.6701350" lon="-6.9601320">
        <ele>648.6</ele>
        <time>2020-04-12T18:38:18Z</time>
      </trkpt>
      <trkpt lat="42.6702000" lon="-6.9602750">
        <ele>648.7</ele>
        <time>2020-04-12T18:38:20Z</time>
      </trkpt>
      <trkpt lat="42.6702640" lon="-6.9604150">
        <ele>648.8</ele>
        <time>2020-04-12T18:38:22Z</time>
      </trkpt>
      <trkpt lat="42.6703890" lon="-6.9607110">
        <ele>649.0</ele>
        <time>2020-04-12T18:38:24Z</time>
      </trkpt>
      <trkpt lat="42.6704370" lon="-6.9608380">
        <ele>649.2</ele>
        <time>2020-04-12T18:38:26Z</time>
      </trkpt>
      <trkpt lat="42.6704780" lon="-6.9609480">
        <ele>649.3</ele>
        <time>2020-04-12T18:38:28Z</time>
      </trkpt>
      <trkpt lat="42.6705130" lon="-6.9610420">
        <ele>649.5</ele>
        <time>2020-04-12T18:38:30Z</time>
      </trkpt>
      <trkpt lat="42.6705380" lon="-6.9611080">
        <ele>649.6</ele>
        <time>2020-04-12T18:38:32Z</time>
      </trkpt>
      <trkpt lat="42.6706120" lon="-6.9613060">
        <ele>650.0</ele>
        <time>2020-04-12T18:38:34Z</time>
      </trkpt>
      <trkpt lat="42.6706140" lon="-6.9613130">
        <ele>650.0</ele>
        <time>2020-04-12T18:38:36Z</time>
      </trkpt>
      <trkpt lat="42.6706330" lon="-6.9613680">
        <ele>650.1</ele>
        <time>2020-04-12T18:38:38Z</time>
      </trkpt>
      <trkpt lat="42.6706610" lon="-6.9614520">
        <ele>650.3</ele>
        <time>2020-04-12T18:38:40Z</time>
      </trkpt>
      <trkpt lat="42.6706940" lon="-6.9615500">
        <ele>650.6</ele>
        <time>2020-04-12T18:38:42Z</time>
      </trkpt>
      <trkpt lat="42.6707300" lon="-6.9616550">
        <ele>650.8</ele>
        <time>2020-04-12T18:38:44Z</time>
      </trkpt>
      <trkpt lat="42.6707680" lon="-6.9617670">
        <ele>651.1</ele>
        <time>2020-04-12T18:38:46Z</time>
      </trkpt>
      <trkpt lat="42.6708070" lon="-6.9618840">
        <ele>651.4</ele>
        <time>2020-04-12T18:38:48Z</time>
      </trkpt>
      <trkpt lat="42.6709230" lon="-6.9622270">
        <ele>652.0</ele>
        <time>2020-04-12T18:38:50Z</time>
      </trkpt>
      <trkpt lat="42.6709640" lon="-6.9623490">
        <ele>652.2</ele>
        <time>2020-04-12T18:38:52Z</time>
      </trkpt>
      <trkpt lat="42.6710050" lon="-6.9624720">
        <ele>652.5</ele>
        <time>2020-04-12T18:38:54Z</time>
      </trkpt>
      <trkpt lat="42.6710480" lon="-6.9625990">
        <ele>652.7</ele>
        <time>2020-04-12T18:38:56Z</time>
      </trkpt>
      <trkpt lat="42.6710900" lon="-6.9627250">
        <ele>652.9</ele>
        <time>2020-04-12T18:38:58Z</time>
      </trkpt>
      <trkpt lat="42.6712250" lon="-6.9630590">
        <ele>653.2</ele>
        <time>2020-04-12T18:39:00Z</time>
      </trkpt>
      <trkpt lat="42.6713310" lon="-6.9631300">
        <ele>653.4</ele>
        <time>2020-04-12T18:39:02Z</time>
      </trkpt>
      <trkpt lat="42.6714320" lon="-6.9631890">
        <ele>653.5</ele>
        <time>2020-04-12T18:39:04Z</time>
      </trkpt>
      <trkpt lat="42.6714750" lon="-6.9633210">
        <ele>653.7</ele>
        <time>2020-04-12T18:39:06Z</time>
      </trkpt>
      <trkpt lat="42.6714800" lon="-6.9634290">
        <ele>653.8</ele>
        <time>2020-04-12T18:39:08Z</time>
      </trkpt>
      <trkpt lat="42.6714840" lon="-6.9635300">
        <ele>654.0</ele>
        <time>2020-04-12T18:39:10Z</time>
      </trkpt>
      <trkpt lat="42.6715070" lon="-6.9637360">
        <ele>654.3</ele>
        <time>2020-04-12T18:39:12Z</time>
      </trkpt>
      <trkpt lat="42.6715230" lon="-6.9638230">
        <ele>654.4</ele>
        <time>2020-04-12T18:39:14Z</time>
      </trkpt>
      <trkpt lat="42.6715620" lon="-6.9639860">
        <ele>654.6</ele>
        <time>2020-04-12T18:39:16Z</time>
      </trkpt>
      <trkpt lat="42.6715970" lon="-6.9640670">
        <ele>654.7</ele>
        <time>2020-04-12T18:39:18Z</time>
      </trkpt>
      <trkpt lat="42.6716340" lon="-6.9641500">
        <ele>654.7</ele>
        <time>2020-04-12T18:39:20Z</time>
      </trkpt>
      <trkpt lat="42.6716700" lon="-6.9642340">
        <ele>654.8</ele>
        <time>2020-04-12T18:39:22Z</time>
      </trkpt>
      <trkpt lat="42.6717080" lon="-6.9643200">
        <ele>654.9</ele>
        <time>2020-04-12T18:39:24Z</time>
      </trkpt>
      <trkpt lat="42.6718090" lon="-6.9645500">
        <ele>655.1</ele>
        <time>2020-04-12T18:39:26Z</time>
      </trkpt>
      <trkpt lat="42.6718470" lon="-6.9646370">
        <ele>655.2</ele>
        <time>2020-04-12T18:39:28Z</time>
      </trkpt>
      <trkpt lat="42.6718860" lon="-6.9647240">
        <ele>655.2</ele>
        <time>2020-04-12T18:39:30Z</time>
      </trkpt>
      <trkpt lat="42.6719240" lon="-6.9648120">
        <ele>655.3</ele>
        <time>2020-04-12T18:39:32Z</time>
      </trkpt>
      <trkpt lat="42.6720260" lon="-6.9650400">
        <ele>655.5</ele>
        <time>2020-04-12T18:39:34Z</time>
      </trkpt>
      <trkpt lat="42.6720740" lon="-6.9651250">
        <ele>655.6</ele>
        <time>2020-04-12T18:39:36Z</time>
      </trkpt>
      <trkpt lat="42.6721260" lon="-6.9652180">
        <ele>655.6</ele>
        <time>2020-04-12T18:39:38Z</time>
      </trkpt>
      <trkpt lat="42.6721810" lon="-6.9653160">
        <ele>655.7</ele>
        <time>2020-04-12T18:39:40Z</time>
      </trkpt>
      <trkpt lat="42.6723090" lon="-6.9655460">
        <ele>655.8</ele>
        <time>2020-04-12T18:39:42Z</time>
      </trkpt>
      <trkpt lat="42.6723680" lon="-6.9656550">
        <ele>655.7</ele>
        <time>2020-04-12T18:39:44Z</time>
      </trkpt>
      <trkpt lat="42.6724290" lon="-6.9657680">
        <ele>655.5</ele>
        <time>2020-04-12T18:39:46Z</time>
      </trkpt>
      <trkpt lat="42.6725630" lon="-6.9660150">
        <ele>655.3</ele>
        <time>2020-04-12T18:39:48Z</time>
      </trkpt>
      <trkpt lat="42.6726240" lon="-6.9661290">
        <ele>655.2</ele>
        <time>2020-04-12T18:39:50Z</time>
      </trkpt>
      <trkpt lat="42.6726820" lon="-6.9662370">
        <ele>655.4</ele>
        <time>2020-04-12T18:39:52Z</time>
      </trkpt>
      <trkpt lat="42.6727370" lon="-6.9663380">
        <ele>655.6</ele>
        <time>2020-04-12T18:39:54Z</time>
      </trkpt>
      <trkpt lat="42.6728440" lon="-6.9665780">
        <ele>656.3</ele>
        <time>2020-04-12T18:39:56Z</time>
      </trkpt>
      <trkpt lat="42.6728680" lon="-6.9666900">
        <ele>656.6</ele>
        <time>2020-04-12T18:39:58Z</time>
      </trkpt>
      <trkpt lat="42.6728900" lon="-6.9667980">
        <ele>656.8</ele>
        <time>2020-04-12T18:40:00Z</time>
      </trkpt>
      <trkpt lat="42.6729120" lon="-6.9669020">
        <ele>657.0</ele>
        <time>2020-04-12T18:40:02Z</time>
      </trkpt>
      <trkpt lat="42.6729360" lon="-6.9671550">
        <ele>657.5</ele>
        <time>2020-04-12T18:40:04Z</time>
      </trkpt>
      <trkpt lat="42.6729190" lon="-6.9672550">
        <ele>657.7</ele>
        <time>2020-04-12T18:40:06Z</time>
      </trkpt>
      <trkpt lat="42.6729010" lon="-6.9673510">
        <ele>658.0</ele>
        <time>2020-04-12T18:40:08Z</time>
      </trkpt>
      <trkpt lat="42.6728490" lon="-6.9675420">
        <ele>658.6</ele>
        <time>2020-04-12T18:40:10Z</time>
      </trkpt>
      <trkpt lat="42.6727900" lon="-6.9676650">
        <ele>659.0</ele>
        <time>2020-04-12T18:40:12Z</time>
      </trkpt>
      <trkpt lat="42.6727440" lon="-6.9677520">
        <ele>659.2</ele>
        <time>2020-04-12T18:40:14Z</time>
      </trkpt>
      <trkpt lat="42.6726980" lon="-6.9678390">
        <ele>659.5</ele>
        <time>2020-04-12T18:40:16Z</time>
      </trkpt>
      <trkpt lat="42.6726510" lon="-6.9679280">
        <ele>659.7</ele>
        <time>2020-04-12T18:40:18Z</time>
      </trkpt>
      <trkpt lat="42.6725310" lon="-6.9681340">
        <ele>660.3</ele>
        <time>2020-04-12T18:40:20Z</time>
      </trkpt>
      <trkpt lat="42.6724740" lon="-6.9682110">
        <ele>660.5</ele>
        <time>2020-04-12T18:40:22Z</time>
      </trkpt>
      <trkpt lat="42.6723630" lon="-6.9683570">
        <ele>660.8</ele>
        <time>2020-04-12T18:40:24Z</time>
      </trkpt>
      <trkpt lat="42.6722950" lon="-6.9684250">
        <ele>661.0</ele>
        <time>2020-04-12T18:40:26Z</time>
      </trkpt>
      <trkpt lat="42.6722280" lon="-6.9684920">
        <ele>661.2</ele>
        <time>2020-04-12T18:40:28Z</time>
      </trkpt>
      <trkpt lat="42.6720850" lon="-6.9686300">
        <ele>661.6</ele>
        <time>2020-04-12T18:40:30Z</time>
      </trkpt>
      <trkpt lat="42.6720100" lon="-6.9686800">
        <ele>661.8</ele>
        <time>2020-04-12T18:40:32Z</time>
      </trkpt>
      <trkpt lat="42.6719340" lon="-6.9687300">
        <ele>662.1</ele>
        <time>2020-04-12T18:40:34Z</time>
      </trkpt>
      <trkpt lat="42.6718600" lon="-6.9687800">
        <ele>662.4</ele>
        <time>2020-04-12T18:40:36Z</time>
      </trkpt>
      <trkpt lat="42.6716880" lon="-6.9689360">
        <ele>663.1</ele>
        <time>2020-04-12T18:40:38Z</time>
      </trkpt>
      <trkpt lat="42.6716600" lon="-6.9690680">
        <ele>663.4</ele>
        <time>2020-04-12T18:40:40Z</time>
      </trkpt>
      <trkpt lat="42.6716970" lon="-6.9691880">
        <ele>663.7</ele>
        <time>2020-04-12T18:40:42Z</time>
      </trkpt>
      <trkpt lat="42.6717680" lon="-6.9693330">
        <ele>664.0</ele>
        <time>2020-04-12T18:40:44Z</time>
      </trkpt>
      <trkpt lat="42.6718310" lon="-6.9694080">
        <ele>664.2</ele>
        <time>2020-04-12T18:40:46Z</time>
      </trkpt>
      <trkpt lat="42.6719390" lon="-6.9695260">
        <ele>664.6</ele>
        <time>2020-04-12T18:40:48Z</time>
      </trkpt>
      <trkpt lat="42.6720010" lon="-6.9695840">
        <ele>664.8</ele>
        <time>2020-04-12T18:40:50Z</time>
      </trkpt>
      <trkpt lat="42.6720600" lon="-6.9696370">
        <ele>665.0</ele>
        <time>2020-04-12T18:40:52Z</time>
      </trkpt>
      <trkpt lat="42.6721810" lon="-6.9697550">
        <ele>665.4</ele>
        <time>2020-04-12T18:40:54Z</time>
      </trkpt>
      <trkpt lat="42.6722270" lon="-6.9698110">
        <ele>665.5</ele>
        <time>2020-04-12T18:40:56Z</time>
      </trkpt>
      <trkpt lat="42.6722720" lon="-6.9698640">
        <ele>665.7</ele>
        <time>2020-04-12T18:40:58Z</time>
      </trkpt>
      <trkpt lat="42.6723150" lon="-6.9699150">
        <ele>665.8</ele>
        <time>2020-04-12T18:41:00Z</time>
      </trkpt>
      <trkpt lat="42.6723560" lon="-6.9699650">
        <ele>666.0</ele>
        <time>2020-04-12T18:41:02Z</time>
      </trkpt>
      <trkpt lat="42.6723980" lon="-6.9700140">
        <ele>666.1</ele>
        <time>2020-04-12T18:41:04Z</time>
      </trkpt>
      <trkpt lat="42.6724380" lon="-6.9700620">
        <ele>666.3</ele>
        <time>2020-04-12T18:41:06Z</time>
      </trkpt>
      <trkpt lat="42.6725830" lon="-6.9702470">
        <ele>666.9</ele>
        <time>2020-04-12T18:41:08Z</time>
      </trkpt>
      <trkpt lat="42.6726110" lon="-6.9703070">
        <ele>667.0</ele>
        <time>2020-04-12T18:41:10Z</time>
      </trkpt>
      <trkpt lat="42.6726620" lon="-6.9704170">
        <ele>667.3</ele>
        <time>2020-04-12T18:41:12Z</time>
      </trkpt>
      <trkpt lat="42.6726810" lon="-6.9704940">
        <ele>667.4</ele>
        <time>2020-04-12T18:41:14Z</time>
      </trkpt>
      <trkpt lat="42.6727000" lon="-6.9706410">
        <ele>667.7</ele>
        <time>2020-04-12T18:41:16Z</time>
      </trkpt>
      <trkpt lat="42.6726810" lon="-6.9707320">
        <ele>667.9</ele>
        <time>2020-04-12T18:41:18Z</time>
      </trkpt>
      <trkpt lat="42.6726610" lon="-6.9708270">
        <ele>668.1</ele>
        <time>2020-04-12T18:41:20Z</time>
      </trkpt>
      <trkpt lat="42.6726420" lon="-6.9709220">
        <ele>668.3</ele>
        <time>2020-04-12T18:41:22Z</time>
      </trkpt>
      <trkpt lat="42.6726220" lon="-6.9710160">
        <ele>668.6</ele>
        <time>2020-04-12T18:41:24Z</time>
      </trkpt>
      <trkpt lat="42.6726020" lon="-6.9711110">
        <ele>668.9</ele>
        <time>2020-04-12T18:41:26Z</time>
      </trkpt>
      <trkpt lat="42.6725830" lon="-6.9712060">
        <ele>669.2</ele>
        <time>2020-04-12T18:41:28Z</time>
      </trkpt>
      <trkpt lat="42.6725290" lon="-6.9715200">
        <ele>670.0</ele>
        <time>2020-04-12T18:41:30Z</time>
      </trkpt>
      <trkpt lat="42.6725260" lon="-6.9716190">
        <ele>670.4</ele>
        <time>2020-04-12T18:41:32Z</time>
      </trkpt>
      <trkpt lat="42.6725240" lon="-6.9717180">
        <ele>670.8</ele>
        <time>2020-04-12T18:41:34Z</time>
      </trkpt>
      <trkpt lat="42.6725240" lon="-6.9719270">
        <ele>671.8</ele>
        <time>2020-04-12T18:41:36Z</time>
      </trkpt>
      <trkpt lat="42.6725340" lon="-6.9720250">
        <ele>672.3</ele>
        <time>2020-04-12T18:41:38Z</time>
      </trkpt>
      <trkpt lat="42.6725430" lon="-6.9721230">
        <ele>672.7</ele>
        <time>2020-04-12T18:41:40Z</time>
      </trkpt>
      <trkpt lat="42.6725520" lon="-6.9722210">
        <ele>673.1</ele>
        <time>2020-04-12T18:41:42Z</time>
      </trkpt>
      <trkpt lat="42.6725610" lon="-6.9723180">
        <ele>673.5</ele>
        <time>2020-04-12T18:41:44Z</time>
      </trkpt>
      <trkpt lat="42.6725800" lon="-6.9725860">
        <ele>674.4</ele>
        <time>2020-04-12T18:41:46Z</time>
      </trkpt>
      <trkpt lat="42.6725800" lon="-6.9726850">
        <ele>674.7</ele>
        <time>2020-04-12T18:41:48Z</time>
      </trkpt>
      <trkpt lat="42.6725750" lon="-6.9728620">
        <ele>675.2</ele>
        <time>2020-04-12T18:41:50Z</time>
      </trkpt>
      <trkpt lat="42.6725620" lon="-6.9729600">
        <ele>675.5</ele>
        <time>2020-04-12T18:41:52Z</time>
      </trkpt>
      <trkpt lat="42.6725500" lon="-6.9730570">
        <ele>675.9</ele>
        <time>2020-04-12T18:41:54Z</time>
      </trkpt>
      <trkpt lat="42.6725370" lon="-6.9731550">
        <ele>676.2</ele>
        <time>2020-04-12T18:41:56Z</time>
      </trkpt>
      <trkpt lat="42.6725250" lon="-6.9732510">
        <ele>676.5</ele>
        <time>2020-04-12T18:41:58Z</time>
      </trkpt>
      <trkpt lat="42.6725120" lon="-6.9733510">
        <ele>676.9</ele>
        <time>2020-04-12T18:42:00Z</time>
      </trkpt>
      <trkpt lat="42.6724990" lon="-6.9734560">
        <ele>677.3</ele>
        <time>2020-04-12T18:42:02Z</time>
      </trkpt>
      <trkpt lat="42.6724590" lon="-6.9738130">
        <ele>678.4</ele>
        <time>2020-04-12T18:42:04Z</time>
      </trkpt>
      <trkpt lat="42.6724580" lon="-6.9739230">
        <ele>678.8</ele>
        <time>2020-04-12T18:42:06Z</time>
      </trkpt>
      <trkpt lat="42.6724560" lon="-6.9740360">
        <ele>679.2</ele>
        <time>2020-04-12T18:42:08Z</time>
      </trkpt>
      <trkpt lat="42.6724540" lon="-6.9741490">
        <ele>679.6</ele>
        <time>2020-04-12T18:42:10Z</time>
      </trkpt>
      <trkpt lat="42.6724530" lon="-6.9742620">
        <ele>680.0</ele>
        <time>2020-04-12T18:42:12Z</time>
      </trkpt>
      <trkpt lat="42.6724530" lon="-6.9745620">
        <ele>681.1</ele>
        <time>2020-04-12T18:42:14Z</time>
      </trkpt>
      <trkpt lat="42.6724570" lon="-6.9746760">
        <ele>681.5</ele>
        <time>2020-04-12T18:42:16Z</time>
      </trkpt>
      <trkpt lat="42.6724600" lon="-6.9747900">
        <ele>681.8</ele>
        <time>2020-04-12T18:42:18Z</time>
      </trkpt>
      <trkpt lat="42.6724640" lon="-6.9749050">
        <ele>682.2</ele>
        <time>2020-04-12T18:42:20Z</time>
      </trkpt>
      <trkpt lat="42.6724760" lon="-6.9751880">
        <ele>682.8</ele>
        <time>2020-04-12T18:42:22Z</time>
      </trkpt>
      <trkpt lat="42.6724840" lon="-6.9752860">
        <ele>682.9</ele>
        <time>2020-04-12T18:42:24Z</time>
      </trkpt>
      <trkpt lat="42.6724910" lon="-6.9753730">
        <ele>683.2</ele>
        <time>2020-04-12T18:42:26Z</time>
      </trkpt>
      <trkpt lat="42.6724970" lon="-6.9754520">
        <ele>683.5</ele>
        <time>2020-04-12T18:42:28Z</time>
      </trkpt>
      <trkpt lat="42.6725030" lon="-6.9755260">
        <ele>683.8</ele>
        <time>2020-04-12T18:42:30Z</time>
      </trkpt>
      <trkpt lat="42.6725090" lon="-6.9755960">
        <ele>684.0</ele>
        <time>2020-04-12T18:42:32Z</time>
      </trkpt>
      <trkpt lat="42.6725140" lon="-6.9756620">
        <ele>684.3</ele>
        <time>2020-04-12T18:42:34Z</time>
      </trkpt>
      <trkpt lat="42.6725190" lon="-6.9757270">
        <ele>684.6</ele>
        <time>2020-04-12T18:42:36Z</time>
      </trkpt>
      <trkpt lat="42.6725360" lon="-6.9760230">
        <ele>685.7</ele>
        <time>2020-04-12T18:42:38Z</time>
      </trkpt>
      <trkpt lat="42.6725280" lon="-6.9760860">
        <ele>685.9</ele>
        <time>2020-04-12T18:42:40Z</time>
      </trkpt>
      <trkpt lat="42.6725210" lon="-6.9761480">
        <ele>686.1</ele>
        <time>2020-04-12T18:42:42Z</time>
      </trkpt>
      <trkpt lat="42.6725140" lon="-6.9762090">
        <ele>686.3</ele>
        <time>2020-04-12T18:42:44Z</time>
      </trkpt>
      <trkpt lat="42.6725060" lon="-6.9762710">
        <ele>686.5</ele>
        <time>2020-04-12T18:42:46Z</time>
      </trkpt>
      <trkpt lat="42.6724990" lon="-6.9763320">
        <ele>686.7</ele>
        <time>2020-04-12T18:42:48Z</time>
      </trkpt>
      <trkpt lat="42.6724920" lon="-6.9763930">
        <ele>686.9</ele>
        <time>2020-04-12T18:42:50Z</time>
      </trkpt>
      <trkpt lat="42.6724840" lon="-6.9764550">
        <ele>687.2</ele>
        <time>2020-04-12T18:42:52Z</time>
      </trkpt>
      <trkpt lat="42.6724770" lon="-6.9765160">
        <ele>687.4</ele>
        <time>2020-04-12T18:42:54Z</time>
      </trkpt>
      <trkpt lat="42.6724700" lon="-6.9765780">
        <ele>687.6</ele>
        <time>2020-04-12T18:42:56Z</time>
      </trkpt>
      <trkpt lat="42.6724620" lon="-6.9766400">
        <ele>687.8</ele>
        <time>2020-04-12T18:42:58Z</time>
      </trkpt>
      <trkpt lat="42.6724550" lon="-6.9767010">
        <ele>688.1</ele>
        <time>2020-04-12T18:43:00Z</time>
      </trkpt>
      <trkpt lat="42.6724480" lon="-6.9767620">
        <ele>688.3</ele>
        <time>2020-04-12T18:43:02Z</time>
      </trkpt>
      <trkpt lat="42.6724400" lon="-6.9768230">
        <ele>688.5</ele>
        <time>2020-04-12T18:43:04Z</time>
      </trkpt>
      <trkpt lat="42.6724020" lon="-6.9771920">
        <ele>690.1</ele>
        <time>2020-04-12T18:43:06Z</time>
      </trkpt>
      <trkpt lat="42.6724050" lon="-6.9772410">
        <ele>690.7</ele>
        <time>2020-04-12T18:43:08Z</time>
      </trkpt>
      <trkpt lat="42.6724080" lon="-6.9772840">
        <ele>691.2</ele>
        <time>2020-04-12T18:43:10Z</time>
      </trkpt>
      <trkpt lat="42.6724110" lon="-6.9773240">
        <ele>691.8</ele>
        <time>2020-04-12T18:43:12Z</time>
      </trkpt>
      <trkpt lat="42.6724140" lon="-6.9773630">
        <ele>692.3</ele>
        <time>2020-04-12T18:43:14Z</time>
      </trkpt>
      <trkpt lat="42.6724160" lon="-6.9774020">
        <ele>692.9</ele>
        <time>2020-04-12T18:43:16Z</time>
      </trkpt>
      <trkpt lat="42.6724190" lon="-6.9774420">
        <ele>693.5</ele>
        <time>2020-04-12T18:43:18Z</time>
      </trkpt>
      <trkpt lat="42.6724220" lon="-6.9774810">
        <ele>694.1</ele>
        <time>2020-04-12T18:43:20Z</time>
      </trkpt>
      <trkpt lat="42.6724240" lon="-6.9775200">
        <ele>694.6</ele>
        <time>2020-04-12T18:43:22Z</time>
      </trkpt>
      <trkpt lat="42.6724270" lon="-6.9775590">
        <ele>695.2</ele>
        <time>2020-04-12T18:43:24Z</time>
      </trkpt>
      <trkpt lat="42.6724410" lon="-6.9777530">
        <ele>698.0</ele>
        <time>2020-04-12T18:43:26Z</time>
      </trkpt>
      <trkpt lat="42.6724480" lon="-6.9777910">
        <ele>698.6</ele>
        <time>2020-04-12T18:43:28Z</time>
      </trkpt>
      <trkpt lat="42.6724550" lon="-6.9778290">
        <ele>699.1</ele>
        <time>2020-04-12T18:43:30Z</time>
      </trkpt>
      <trkpt lat="42.6724630" lon="-6.9778670">
        <ele>699.7</ele>
        <time>2020-04-12T18:43:32Z</time>
      </trkpt>
      <trkpt lat="42.6724700" lon="-6.9779050">
        <ele>700.2</ele>
        <time>2020-04-12T18:43:34Z</time>
      </trkpt>
      <trkpt lat="42.6724900" lon="-6.9780110">
        <ele>701.8</ele>
        <time>2020-04-12T18:43:36Z</time>
      </trkpt>
      <trkpt lat="42.6725040" lon="-6.9780460">
        <ele>702.4</ele>
        <time>2020-04-12T18:43:38Z</time>
      </trkpt>
      <trkpt lat="42.6725180" lon="-6.9780800">
        <ele>702.9</ele>
        <time>2020-04-12T18:43:40Z</time>
      </trkpt>
      <trkpt lat="42.6725320" lon="-6.9781150">
        <ele>703.5</ele>
        <time>2020-04-12T18:43:42Z</time>
      </trkpt>
      <trkpt lat="42.6725460" lon="-6.9781490">
        <ele>704.0</ele>
        <time>2020-04-12T18:43:44Z</time>
      </trkpt>
      <trkpt lat="42.6725590" lon="-6.9781840">
        <ele>704.6</ele>
        <time>2020-04-12T18:43:46Z</time>
      </trkpt>
      <trkpt lat="42.6725730" lon="-6.9782180">
        <ele>705.2</ele>
        <time>2020-04-12T18:43:48Z</time>
      </trkpt>
      <trkpt lat="42.6726230" lon="-6.9783270">
        <ele>707.0</ele>
        <time>2020-04-12T18:43:50Z</time>
      </trkpt>
      <trkpt lat="42.6726440" lon="-6.9783550">
        <ele>707.6</ele>
        <time>2020-04-12T18:43:52Z</time>
      </trkpt>
      <trkpt lat="42.6726650" lon="-6.9783830">
        <ele>708.2</ele>
        <time>2020-04-12T18:43:54Z</time>
      </trkpt>
      <trkpt lat="42.6726850" lon="-6.9784100">
        <ele>708.7</ele>
        <time>2020-04-12T18:43:56Z</time>
      </trkpt>
      <trkpt lat="42.6727060" lon="-6.9784370">
        <ele>709.3</ele>
        <time>2020-04-12T18:43:58Z</time>
      </trkpt>
      <trkpt lat="42.6727270" lon="-6.9784640">
        <ele>709.8</ele>
        <time>2020-04-12T18:44:00Z</time>
      </trkpt>
      <trkpt lat="42.6727470" lon="-6.9784920">
        <ele>710.4</ele>
        <time>2020-04-12T18:44:02Z</time>
      </trkpt>
      <trkpt lat="42.6727680" lon="-6.9785190">
        <ele>710.9</ele>
        <time>2020-04-12T18:44:04Z</time>
      </trkpt>
      <trkpt lat="42.6727890" lon="-6.9785470">
        <ele>711.5</ele>
        <time>2020-04-12T18:44:06Z</time>
      </trkpt>
      <trkpt lat="42.6728100" lon="-6.9785740">
        <ele>712.0</ele>
        <time>2020-04-12T18:44:08Z</time>
      </trkpt>
      <trkpt lat="42.6728300" lon="-6.9786020">
        <ele>712.6</ele>
        <time>2020-04-12T18:44:10Z</time>
      </trkpt>
      <trkpt lat="42.6728510" lon="-6.9786290">
        <ele>713.1</ele>
        <time>2020-04-12T18:44:12Z</time>
      </trkpt>
      <trkpt lat="42.6729610" lon="-6.9787800">
        <ele>715.9</ele>
        <time>2020-04-12T18:44:14Z</time>
      </trkpt>
      <trkpt lat="42.6729920" lon="-6.9788370">
        <ele>716.7</ele>
        <time>2020-04-12T18:44:16Z</time>
      </trkpt>
      <trkpt lat="42.6730170" lon="-6.9789540">
        <ele>717.0</ele>
        <time>2020-04-12T18:44:18Z</time>
      </trkpt>
      <trkpt lat="42.6729980" lon="-6.9790780">
        <ele>717.0</ele>
        <time>2020-04-12T18:44:20Z</time>
      </trkpt>
      <trkpt lat="42.6729210" lon="-6.9791900">
        <ele>716.9</ele>
        <time>2020-04-12T18:44:22Z</time>
      </trkpt>
      <trkpt lat="42.6728280" lon="-6.9792260">
        <ele>716.8</ele>
        <time>2020-04-12T18:44:24Z</time>
      </trkpt>
      <trkpt lat="42.6727260" lon="-6.9792080">
        <ele>716.7</ele>
        <time>2020-04-12T18:44:26Z</time>
      </trkpt>
      <trkpt lat="42.6726590" lon="-6.9791790">
        <ele>716.7</ele>
        <time>2020-04-12T18:44:28Z</time>
      </trkpt>
      <trkpt lat="42.6725910" lon="-6.9791490">
        <ele>716.8</ele>
        <time>2020-04-12T18:44:30Z</time>
      </trkpt>
      <trkpt lat="42.6725230" lon="-6.9791190">
        <ele>716.9</ele>
        <time>2020-04-12T18:44:32Z</time>
      </trkpt>
      <trkpt lat="42.6723620" lon="-6.9790720">
        <ele>717.3</ele>
        <time>2020-04-12T18:44:34Z</time>
      </trkpt>
      <trkpt lat="42.6722770" lon="-6.9791320">
        <ele>717.6</ele>
        <time>2020-04-12T18:44:36Z</time>
      </trkpt>
      <trkpt lat="42.6722050" lon="-6.9792370">
        <ele>718.0</ele>
        <time>2020-04-12T18:44:38Z</time>
      </trkpt>
      <trkpt lat="42.6721630" lon="-6.9793290">
        <ele>718.3</ele>
        <time>2020-04-12T18:44:40Z</time>
      </trkpt>
      <trkpt lat="42.6721220" lon="-6.9794220">
        <ele>718.5</ele>
        <time>2020-04-12T18:44:42Z</time>
      </trkpt>
      <trkpt lat="42.6720240" lon="-6.9796100">
        <ele>719.0</ele>
        <time>2020-04-12T18:44:44Z</time>
      </trkpt>
      <trkpt lat="42.6719540" lon="-6.9797400">
        <ele>719.4</ele>
        <time>2020-04-12T18:44:46Z</time>
      </trkpt>
      <trkpt lat="42.6719330" lon="-6.9799010">
        <ele>719.7</ele>
        <time>2020-04-12T18:44:48Z</time>
      </trkpt>
      <trkpt lat="42.6719600" lon="-6.9800100">
        <ele>719.9</ele>
        <time>2020-04-12T18:44:50Z</time>
      </trkpt>
      <trkpt lat="42.6719870" lon="-6.9801180">
        <ele>720.1</ele>
        <time>2020-04-12T18:44:52Z</time>
      </trkpt>
      <trkpt lat="42.6720200" lon="-6.9803120">
        <ele>720.4</ele>
        <time>2020-04-12T18:44:54Z</time>
      </trkpt>
      <trkpt lat="42.6720300" lon="-6.9804210">
        <ele>720.5</ele>
        <time>2020-04-12T18:44:56Z</time>
      </trkpt>
      <trkpt lat="42.6720410" lon="-6.9805300">
        <ele>720.6</ele>
        <time>2020-04-12T18:44:58Z</time>
      </trkpt>
      <trkpt lat="42.6720520" lon="-6.9806370">
        <ele>720.7</ele>
        <time>2020-04-12T18:45:00Z</time>
      </trkpt>
      <trkpt lat="42.6720620" lon="-6.9807420">
        <ele>720.8</ele>
        <time>2020-04-12T18:45:02Z</time>
      </trkpt>
      <trkpt lat="42.6720930" lon="-6.9810630">
        <ele>721.2</ele>
        <time>2020-04-12T18:45:04Z</time>
      </trkpt>
      <trkpt lat="42.6721030" lon="-6.9811660">
        <ele>721.3</ele>
        <time>2020-04-12T18:45:06Z</time>
      </trkpt>
      <trkpt lat="42.6721130" lon="-6.9812660">
        <ele>721.4</ele>
        <time>2020-04-12T18:45:08Z</time>
      </trkpt>
      <trkpt lat="42.6721230" lon="-6.9813650">
        <ele>721.4</ele>
        <time>2020-04-12T18:45:10Z</time>
      </trkpt>
      <trkpt lat="42.6721320" lon="-6.9814620">
        <ele>721.5</ele>
        <time>2020-04-12T18:45:12Z</time>
      </trkpt>
      <trkpt lat="42.6721420" lon="-6.9815590">
        <ele>721.6</ele>
        <time>2020-04-12T18:45:14Z</time>
      </trkpt>
      <trkpt lat="42.6721740" lon="-6.9818780">
        <ele>722.1</ele>
        <time>2020-04-12T18:45:16Z</time>
      </trkpt>
      <trkpt lat="42.6721900" lon="-6.9819800">
        <ele>722.2</ele>
        <time>2020-04-12T18:45:18Z</time>
      </trkpt>
      <trkpt lat="42.6722060" lon="-6.9820790">
        <ele>722.3</ele>
        <time>2020-04-12T18:45:20Z</time>
      </trkpt>
      <trkpt lat="42.6722210" lon="-6.9821760">
        <ele>722.5</ele>
        <time>2020-04-12T18:45:22Z</time>
      </trkpt>
      <trkpt lat="42.6722360" lon="-6.9822720">
        <ele>722.6</ele>
        <time>2020-04-12T18:45:24Z</time>
      </trkpt>
      <trkpt lat="42.6722750" lon="-6.9825370">
        <ele>723.1</ele>
        <time>2020-04-12T18:45:26Z</time>
      </trkpt>
      <trkpt lat="42.6722850" lon="-6.9826310">
        <ele>723.3</ele>
        <time>2020-04-12T18:45:28Z</time>
      </trkpt>
      <trkpt lat="42.6722950" lon="-6.9827230">
        <ele>723.5</ele>
        <time>2020-04-12T18:45:30Z</time>
      </trkpt>
      <trkpt lat="42.6723050" lon="-6.9828140">
        <ele>723.7</ele>
        <time>2020-04-12T18:45:32Z</time>
      </trkpt>
      <trkpt lat="42.6723150" lon="-6.9829050">
        <ele>723.9</ele>
        <time>2020-04-12T18:45:34Z</time>
      </trkpt>
      <trkpt lat="42.6723450" lon="-6.9831660">
        <ele>724.3</ele>
        <time>2020-04-12T18:45:36Z</time>
      </trkpt>
      <trkpt lat="42.6723620" lon="-6.9832610">
        <ele>724.5</ele>
        <time>2020-04-12T18:45:38Z</time>
      </trkpt>
      <trkpt lat="42.6723810" lon="-6.9833660">
        <ele>724.6</ele>
        <time>2020-04-12T18:45:40Z</time>
      </trkpt>
      <trkpt lat="42.6724340" lon="-6.9835570">
        <ele>724.9</ele>
        <time>2020-04-12T18:45:42Z</time>
      </trkpt>
      <trkpt lat="42.6724760" lon="-6.9836620">
        <ele>725.0</ele>
        <time>2020-04-12T18:45:44Z</time>
      </trkpt>
      <trkpt lat="42.6725700" lon="-6.9838190">
        <ele>725.4</ele>
        <time>2020-04-12T18:45:46Z</time>
      </trkpt>
      <trkpt lat="42.6726410" lon="-6.9839010">
        <ele>725.7</ele>
        <time>2020-04-12T18:45:48Z</time>
      </trkpt>
      <trkpt lat="42.6727130" lon="-6.9839840">
        <ele>725.9</ele>
        <time>2020-04-12T18:45:50Z</time>
      </trkpt>
      <trkpt lat="42.6727860" lon="-6.9840690">
        <ele>726.2</ele>
        <time>2020-04-12T18:45:52Z</time>
      </trkpt>
      <trkpt lat="42.6728590" lon="-6.9841540">
        <ele>726.5</ele>
        <time>2020-04-12T18:45:54Z</time>
      </trkpt>
      <trkpt lat="42.6730580" lon="-6.9843970">
        <ele>727.2</ele>
        <time>2020-04-12T18:45:56Z</time>
      </trkpt>
      <trkpt lat="42.6731200" lon="-6.9844910">
        <ele>727.4</ele>
        <time>2020-04-12T18:45:58Z</time>
      </trkpt>
      <trkpt lat="42.6731840" lon="-6.9845870">
        <ele>727.7</ele>
        <time>2020-04-12T18:46:00Z</time>
      </trkpt>
      <trkpt lat="42.6733260" lon="-6.9848090">
        <ele>728.2</ele>
        <time>2020-04-12T18:46:02Z</time>
      </trkpt>
      <trkpt lat="42.6733660" lon="-6.9849330">
        <ele>728.4</ele>
        <time>2020-04-12T18:46:04Z</time>
      </trkpt>
      <trkpt lat="42.6734410" lon="-6.9851160">
        <ele>728.6</ele>
        <time>2020-04-12T18:46:06Z</time>
      </trkpt>
      <trkpt lat="42.6735380" lon="-6.9852800">
        <ele>728.9</ele>
        <time>2020-04-12T18:46:08Z</time>
      </trkpt>
      <trkpt lat="42.6736150" lon="-6.9853660">
        <ele>729.0</ele>
        <time>2020-04-12T18:46:10Z</time>
      </trkpt>
      <trkpt lat="42.6736920" lon="-6.9854510">
        <ele>729.2</ele>
        <time>2020-04-12T18:46:12Z</time>
      </trkpt>
      <trkpt lat="42.6738250" lon="-6.9856340">
        <ele>729.6</ele>
        <time>2020-04-12T18:46:14Z</time>
      </trkpt>
      <trkpt lat="42.6738930" lon="-6.9857990">
        <ele>729.9</ele>
        <time>2020-04-12T18:46:16Z</time>
      </trkpt>
      <trkpt lat="42.6739330" lon="-6.9859190">
        <ele>730.0</ele>
        <time>2020-04-12T18:46:18Z</time>
      </trkpt>
      <trkpt lat="42.6739730" lon="-6.9860390">
        <ele>730.1</ele>
        <time>2020-04-12T18:46:20Z</time>
      </trkpt>
      <trkpt lat="42.6740630" lon="-6.9863090">
        <ele>730.2</ele>
        <time>2020-04-12T18:46:22Z</time>
      </trkpt>
      <trkpt lat="42.6741030" lon="-6.9864280">
        <ele>730.2</ele>
        <time>2020-04-12T18:46:24Z</time>
      </trkpt>
      <trkpt lat="42.6741420" lon="-6.9865460">
        <ele>730.2</ele>
        <time>2020-04-12T18:46:26Z</time>
      </trkpt>
      <trkpt lat="42.6741810" lon="-6.9866620">
        <ele>730.3</ele>
        <time>2020-04-12T18:46:28Z</time>
      </trkpt>
      <trkpt lat="42.6742640" lon="-6.9869320">
        <ele>730.5</ele>
        <time>2020-04-12T18:46:30Z</time>
      </trkpt>
      <trkpt lat="42.6742920" lon="-6.9870520">
        <ele>730.6</ele>
        <time>2020-04-12T18:46:32Z</time>
      </trkpt>
      <trkpt lat="42.6743180" lon="-6.9871700">
        <ele>730.7</ele>
        <time>2020-04-12T18:46:34Z</time>
      </trkpt>
      <trkpt lat="42.6743450" lon="-6.9872860">
        <ele>730.9</ele>
        <time>2020-04-12T18:46:36Z</time>
      </trkpt>
      <trkpt lat="42.6743960" lon="-6.9875530">
        <ele>731.2</ele>
        <time>2020-04-12T18:46:38Z</time>
      </trkpt>
      <trkpt lat="42.6744120" lon="-6.9876670">
        <ele>731.3</ele>
        <time>2020-04-12T18:46:40Z</time>
      </trkpt>
      <trkpt lat="42.6744240" lon="-6.9878740">
        <ele>731.5</ele>
        <time>2020-04-12T18:46:42Z</time>
      </trkpt>
      <trkpt lat="42.6744170" lon="-6.9879880">
        <ele>731.6</ele>
        <time>2020-04-12T18:46:44Z</time>
      </trkpt>
      <trkpt lat="42.6743830" lon="-6.9881780">
        <ele>731.8</ele>
        <time>2020-04-12T18:46:46Z</time>
      </trkpt>
      <trkpt lat="42.6743480" lon="-6.9882890">
        <ele>731.7</ele>
        <time>2020-04-12T18:46:48Z</time>
      </trkpt>
      <trkpt lat="42.6743130" lon="-6.9884830">
        <ele>732.3</ele>
        <time>2020-04-12T18:46:50Z</time>
      </trkpt>
      <trkpt lat="42.6743230" lon="-6.9886340">
        <ele>732.8</ele>
        <time>2020-04-12T18:46:52Z</time>
      </trkpt>
      <trkpt lat="42.6743620" lon="-6.9887780">
        <ele>733.3</ele>
        <time>2020-04-12T18:46:54Z</time>
      </trkpt>
      <trkpt lat="42.6744230" lon="-6.9889250">
        <ele>733.8</ele>
        <time>2020-04-12T18:46:56Z</time>
      </trkpt>
      <trkpt lat="42.6744650" lon="-6.9890040">
        <ele>734.2</ele>
        <time>2020-04-12T18:46:58Z</time>
      </trkpt>
      <trkpt lat="42.6745050" lon="-6.9890790">
        <ele>734.4</ele>
        <time>2020-04-12T18:47:00Z</time>
      </trkpt>
      <trkpt lat="42.6745840" lon="-6.9892320">
        <ele>735.1</ele>
        <time>2020-04-12T18:47:02Z</time>
      </trkpt>
      <trkpt lat="42.6746100" lon="-6.9893100">
        <ele>735.4</ele>
        <time>2020-04-12T18:47:04Z</time>
      </trkpt>
      <trkpt lat="42.6746500" lon="-6.9894420">
        <ele>736.0</ele>
        <time>2020-04-12T18:47:06Z</time>
      </trkpt>
      <trkpt lat="42.6746500" lon="-6.9895230">
        <ele>736.3</ele>
        <time>2020-04-12T18:47:08Z</time>
      </trkpt>
      <trkpt lat="42.6746490" lon="-6.9896610">
        <ele>736.9</ele>
        <time>2020-04-12T18:47:10Z</time>
      </trkpt>
      <trkpt lat="42.6746410" lon="-6.9897380">
        <ele>737.2</ele>
        <time>2020-04-12T18:47:12Z</time>
      </trkpt>
      <trkpt lat="42.6746330" lon="-6.9898150">
        <ele>737.5</ele>
        <time>2020-04-12T18:47:14Z</time>
      </trkpt>
      <trkpt lat="42.6746200" lon="-6.9899710">
        <ele>738.1</ele>
        <time>2020-04-12T18:47:16Z</time>
      </trkpt>
      <trkpt lat="42.6746220" lon="-6.9900490">
        <ele>738.3</ele>
        <time>2020-04-12T18:47:18Z</time>
      </trkpt>
      <trkpt lat="42.6746240" lon="-6.9901260">
        <ele>738.6</ele>
        <time>2020-04-12T18:47:20Z</time>
      </trkpt>
      <trkpt lat="42.6746260" lon="-6.9902080">
        <ele>738.8</ele>
        <time>2020-04-12T18:47:22Z</time>
      </trkpt>
      <trkpt lat="42.6746290" lon="-6.9904100">
        <ele>739.4</ele>
        <time>2020-04-12T18:47:24Z</time>
      </trkpt>
      <trkpt lat="42.6746230" lon="-6.9904910">
        <ele>739.7</ele>
        <time>2020-04-12T18:47:26Z</time>
      </trkpt>
      <trkpt lat="42.6746160" lon="-6.9905750">
        <ele>740.0</ele>
        <time>2020-04-12T18:47:28Z</time>
      </trkpt>
      <trkpt lat="42.6746100" lon="-6.9906590">
        <ele>740.2</ele>
        <time>2020-04-12T18:47:30Z</time>
      </trkpt>
      <trkpt lat="42.6746030" lon="-6.9907400">
        <ele>740.5</ele>
        <time>2020-04-12T18:47:32Z</time>
      </trkpt>
      <trkpt lat="42.6745990" lon="-6.9909550">
        <ele>741.1</ele>
        <time>2020-04-12T18:47:34Z</time>
      </trkpt>
      <trkpt lat="42.6746160" lon="-6.9910360">
        <ele>741.3</ele>
        <time>2020-04-12T18:47:36Z</time>
      </trkpt>
      <trkpt lat="42.6746690" lon="-6.9911490">
        <ele>741.7</ele>
        <time>2020-04-12T18:47:38Z</time>
      </trkpt>
      <trkpt lat="42.6747140" lon="-6.9912060">
        <ele>742.0</ele>
        <time>2020-04-12T18:47:40Z</time>
      </trkpt>
      <trkpt lat="42.6748040" lon="-6.9912880">
        <ele>742.5</ele>
        <time>2020-04-12T18:47:42Z</time>
      </trkpt>
      <trkpt lat="42.6748710" lon="-6.9912820">
        <ele>742.8</ele>
        <time>2020-04-12T18:47:44Z</time>
      </trkpt>
      <trkpt lat="42.6749440" lon="-6.9912750">
        <ele>743.1</ele>
        <time>2020-04-12T18:47:46Z</time>
      </trkpt>
      <trkpt lat="42.6750170" lon="-6.9912680">
        <ele>743.4</ele>
        <time>2020-04-12T18:47:48Z</time>
      </trkpt>
      <trkpt lat="42.6750780" lon="-6.9912630">
        <ele>743.6</ele>
        <time>2020-04-12T18:47:50Z</time>
      </trkpt>
      <trkpt lat="42.6751250" lon="-6.9912590">
        <ele>743.8</ele>
        <time>2020-04-12T18:47:52Z</time>
      </trkpt>
      <trkpt lat="42.6751570" lon="-6.9912560">
        <ele>743.8</ele>
        <time>2020-04-12T18:47:54Z</time>
      </trkpt>
      <trkpt lat="42.6751630" lon="-6.9912550">
        <ele>743.9</ele>
        <time>2020-04-12T18:47:56Z</time>
      </trkpt>
      <trkpt lat="42.6751630" lon="-6.9912550">
        <ele>743.9</ele>
        <time>2020-04-12T18:47:58Z</time>
      </trkpt>
      <trkpt lat="42.6751630" lon="-6.9912550">
        <ele>743.9</ele>
        <time>2020-04-12T18:48:00Z</time>
      </trkpt>
      <trkpt lat="42.6751630" lon="-6.9912550">
        <ele>743.9</ele>
        <time>2020-04-12T18:48:02Z</time>
      </trkpt>
      <trkpt lat="42.6751630" lon="-6.9912550">
        <ele>743.9</ele>
        <time>2020-04-12T18:48:04Z</time>
      </trkpt>
      <trkpt lat="42.6751630" lon="-6.9912550">
        <ele>743.9</ele>
        <time>2020-04-12T18:48:06Z</time>
      </trkpt>
      <trkpt lat="42.6751630" lon="-6.9912550">
        <ele>743.9</ele>
        <time>2020-04-12T18:48:08Z</time>
      </trkpt>
      <trkpt lat="42.6751630" lon="-6.9912550">
        <ele>743.9</ele>
        <time>2020-04-12T18:48:10Z</time>
      </trkpt>
      <trkpt lat="42.6751630" lon="-6.9912550">
        <ele>743.9</ele>
        <time>2020-04-12T18:48:12Z</time>
      </trkpt>
      <trkpt lat="42.6751630" lon="-6.9912550">
        <ele>743.9</ele>
        <time>2020-04-12T18:48:14Z</time>
      </trkpt>
      <trkpt lat="42.6751630" lon="-6.9912550">
        <ele>743.9</ele>
        <time>2020-04-12T18:48:16Z</time>
      </trkpt>
      <trkpt lat="42.6751630" lon="-6.9912550">
        <ele>743.9</ele>
        <time>2020-04-12T18:48:18Z</time>
      </trkpt>
      <trkpt lat="42.6751630" lon="-6.9912550">
        <ele>743.9</ele>
        <time>2020-04-12T18:48:20Z</time>
      </trkpt>
      <trkpt lat="42.6751630" lon="-6.9912550">
        <ele>743.9</ele>
        <time>2020-04-12T18:48:22Z</time>
      </trkpt>
      <trkpt lat="42.6751630" lon="-6.9912550">
        <ele>743.9</ele>
        <time>2020-04-12T18:48:24Z</time>
      </trkpt>
      <trkpt lat="42.6751630" lon="-6.9912550">
        <ele>743.9</ele>
        <time>2020-04-12T18:48:26Z</time>
      </trkpt>
      <trkpt lat="42.6751630" lon="-6.9912550">
        <ele>743.9</ele>
        <time>2020-04-12T18:48:28Z</time>
      </trkpt>
      <trkpt lat="42.6751630" lon="-6.9912550">
        <ele>743.9</ele>
        <time>2020-04-12T18:48:30Z</time>
      </trkpt>
      <trkpt lat="42.6751750" lon="-6.9912540">
        <ele>743.9</ele>
        <time>2020-04-12T18:48:32Z</time>
      </trkpt>
      <trkpt lat="42.6752250" lon="-6.9912490">
        <ele>744.0</ele>
        <time>2020-04-12T18:48:34Z</time>
      </trkpt>
      <trkpt lat="42.6752910" lon="-6.9912440">
        <ele>744.2</ele>
        <time>2020-04-12T18:48:36Z</time>
      </trkpt>
      <trkpt lat="42.6755690" lon="-6.9912220">
        <ele>744.9</ele>
        <time>2020-04-12T18:48:38Z</time>
      </trkpt>
      <trkpt lat="42.6756490" lon="-6.9912290">
        <ele>745.0</ele>
        <time>2020-04-12T18:48:40Z</time>
      </trkpt>
      <trkpt lat="42.6757310" lon="-6.9912370">
        <ele>745.2</ele>
        <time>2020-04-12T18:48:42Z</time>
      </trkpt>
      <trkpt lat="42.6758140" lon="-6.9912450">
        <ele>745.3</ele>
        <time>2020-04-12T18:48:44Z</time>
      </trkpt>
      <trkpt lat="42.6760110" lon="-6.9912720">
        <ele>745.6</ele>
        <time>2020-04-12T18:48:46Z</time>
      </trkpt>
      <trkpt lat="42.6760920" lon="-6.9913030">
        <ele>745.7</ele>
        <time>2020-04-12T18:48:48Z</time>
      </trkpt>
      <trkpt lat="42.6762410" lon="-6.9913610">
        <ele>745.9</ele>
        <time>2020-04-12T18:48:50Z</time>
      </trkpt>
      <trkpt lat="42.6763120" lon="-6.9914210">
        <ele>746.1</ele>
        <time>2020-04-12T18:48:52Z</time>
      </trkpt>
      <trkpt lat="42.6763830" lon="-6.9914820">
        <ele>746.2</ele>
        <time>2020-04-12T18:48:54Z</time>
      </trkpt>
      <trkpt lat="42.6765250" lon="-6.9916050">
        <ele>746.5</ele>
        <time>2020-04-12T18:48:56Z</time>
      </trkpt>
      <trkpt lat="42.6765930" lon="-6.9916710">
        <ele>746.6</ele>
        <time>2020-04-12T18:48:58Z</time>
      </trkpt>
      <trkpt lat="42.6766610" lon="-6.9917370">
        <ele>746.8</ele>
        <time>2020-04-12T18:49:00Z</time>
      </trkpt>
      <trkpt lat="42.6767300" lon="-6.9918040">
        <ele>746.9</ele>
        <time>2020-04-12T18:49:02Z</time>
      </trkpt>
      <trkpt lat="42.6768950" lon="-6.9919600">
        <ele>747.2</ele>
        <time>2020-04-12T18:49:04Z</time>
      </trkpt>
      <trkpt lat="42.6769670" lon="-6.9920180">
        <ele>747.4</ele>
        <time>2020-04-12T18:49:06Z</time>
      </trkpt>
      <trkpt lat="42.6770390" lon="-6.9920760">
        <ele>747.6</ele>
        <time>2020-04-12T18:49:08Z</time>
      </trkpt>
      <trkpt lat="42.6771120" lon="-6.9921360">
        <ele>747.9</ele>
        <time>2020-04-12T18:49:10Z</time>
      </trkpt>
      <trkpt lat="42.6771870" lon="-6.9921960">
        <ele>748.1</ele>
        <time>2020-04-12T18:49:12Z</time>
      </trkpt>
      <trkpt lat="42.6773890" lon="-6.9923470">
        <ele>748.8</ele>
        <time>2020-04-12T18:49:14Z</time>
      </trkpt>
      <trkpt lat="42.6774670" lon="-6.9923900">
        <ele>749.0</ele>
        <time>2020-04-12T18:49:16Z</time>
      </trkpt>
      <trkpt lat="42.6775440" lon="-6.9924320">
        <ele>749.3</ele>
        <time>2020-04-12T18:49:18Z</time>
      </trkpt>
      <trkpt lat="42.6776190" lon="-6.9924730">
        <ele>749.5</ele>
        <time>2020-04-12T18:49:20Z</time>
      </trkpt>
      <trkpt lat="42.6778050" lon="-6.9925700">
        <ele>750.1</ele>
        <time>2020-04-12T18:49:22Z</time>
      </trkpt>
      <trkpt lat="42.6778790" lon="-6.9926030">
        <ele>750.5</ele>
        <time>2020-04-12T18:49:24Z</time>
      </trkpt>
      <trkpt lat="42.6779530" lon="-6.9926350">
        <ele>750.8</ele>
        <time>2020-04-12T18:49:26Z</time>
      </trkpt>
      <trkpt lat="42.6780250" lon="-6.9926670">
        <ele>751.1</ele>
        <time>2020-04-12T18:49:28Z</time>
      </trkpt>
      <trkpt lat="42.6782120" lon="-6.9927460">
        <ele>751.9</ele>
        <time>2020-04-12T18:49:30Z</time>
      </trkpt>
      <trkpt lat="42.6782840" lon="-6.9927670">
        <ele>752.2</ele>
        <time>2020-04-12T18:49:32Z</time>
      </trkpt>
      <trkpt lat="42.6783540" lon="-6.9927880">
        <ele>752.5</ele>
        <time>2020-04-12T18:49:34Z</time>
      </trkpt>
      <trkpt lat="42.6785040" lon="-6.9928310">
        <ele>753.1</ele>
        <time>2020-04-12T18:49:36Z</time>
      </trkpt>
      <trkpt lat="42.6785710" lon="-6.9928450">
        <ele>753.5</ele>
        <time>2020-04-12T18:49:38Z</time>
      </trkpt>
      <trkpt lat="42.6786370" lon="-6.9928580">
        <ele>753.8</ele>
        <time>2020-04-12T18:49:40Z</time>
      </trkpt>
      <trkpt lat="42.6787010" lon="-6.9928710">
        <ele>754.1</ele>
        <time>2020-04-12T18:49:42Z</time>
      </trkpt>
      <trkpt lat="42.6788550" lon="-6.9928960">
        <ele>754.9</ele>
        <time>2020-04-12T18:49:44Z</time>
      </trkpt>
      <trkpt lat="42.6789190" lon="-6.9928820">
        <ele>755.3</ele>
        <time>2020-04-12T18:49:46Z</time>
      </trkpt>
      <trkpt lat="42.6789820" lon="-6.9928670">
        <ele>755.6</ele>
        <time>2020-04-12T18:49:48Z</time>
      </trkpt>
      <trkpt lat="42.6790460" lon="-6.9928520">
        <ele>755.9</ele>
        <time>2020-04-12T18:49:50Z</time>
      </trkpt>
      <trkpt lat="42.6791860" lon="-6.9928120">
        <ele>756.5</ele>
        <time>2020-04-12T18:49:52Z</time>
      </trkpt>
      <trkpt lat="42.6792430" lon="-6.9927900">
        <ele>756.8</ele>
        <time>2020-04-12T18:49:54Z</time>
      </trkpt>
      <trkpt lat="42.6792960" lon="-6.9927690">
        <ele>757.1</ele>
        <time>2020-04-12T18:49:56Z</time>
      </trkpt>
      <trkpt lat="42.6794050" lon="-6.9927120">
        <ele>757.8</ele>
        <time>2020-04-12T18:49:58Z</time>
      </trkpt>
      <trkpt lat="42.6794500" lon="-6.9926760">
        <ele>758.1</ele>
        <time>2020-04-12T18:50:00Z</time>
      </trkpt>
      <trkpt lat="42.6794950" lon="-6.9926410">
        <ele>758.4</ele>
        <time>2020-04-12T18:50:02Z</time>
      </trkpt>
      <trkpt lat="42.6795400" lon="-6.9926050">
        <ele>758.7</ele>
        <time>2020-04-12T18:50:04Z</time>
      </trkpt>
      <trkpt lat="42.6796600" lon="-6.9925100">
        <ele>759.5</ele>
        <time>2020-04-12T18:50:06Z</time>
      </trkpt>
      <trkpt lat="42.6797010" lon="-6.9924690">
        <ele>759.7</ele>
        <time>2020-04-12T18:50:08Z</time>
      </trkpt>
      <trkpt lat="42.6797420" lon="-6.9924280">
        <ele>760.0</ele>
        <time>2020-04-12T18:50:10Z</time>
      </trkpt>
      <trkpt lat="42.6797830" lon="-6.9923870">
        <ele>760.3</ele>
        <time>2020-04-12T18:50:12Z</time>
      </trkpt>
      <trkpt lat="42.6798230" lon="-6.9923470">
        <ele>760.6</ele>
        <time>2020-04-12T18:50:14Z</time>
      </trkpt>
      <trkpt lat="42.6798640" lon="-6.9923060">
        <ele>760.8</ele>
        <time>2020-04-12T18:50:16Z</time>
      </trkpt>
      <trkpt lat="42.6799750" lon="-6.9921790">
        <ele>761.6</ele>
        <time>2020-04-12T18:50:18Z</time>
      </trkpt>
      <trkpt lat="42.6800070" lon="-6.9921260">
        <ele>761.9</ele>
        <time>2020-04-12T18:50:20Z</time>
      </trkpt>
      <trkpt lat="42.6800390" lon="-6.9920730">
        <ele>762.1</ele>
        <time>2020-04-12T18:50:22Z</time>
      </trkpt>
      <trkpt lat="42.6801030" lon="-6.9919530">
        <ele>762.7</ele>
        <time>2020-04-12T18:50:24Z</time>
      </trkpt>
      <trkpt lat="42.6801310" lon="-6.9918760">
        <ele>763.0</ele>
        <time>2020-04-12T18:50:26Z</time>
      </trkpt>
      <trkpt lat="42.6801620" lon="-6.9917860">
        <ele>763.5</ele>
        <time>2020-04-12T18:50:28Z</time>
      </trkpt>
      <trkpt lat="42.6802440" lon="-6.9916210">
        <ele>764.4</ele>
        <time>2020-04-12T18:50:30Z</time>
      </trkpt>
      <trkpt lat="42.6803430" lon="-6.9915010">
        <ele>765.1</ele>
        <time>2020-04-12T18:50:32Z</time>
      </trkpt>
      <trkpt lat="42.6804230" lon="-6.9914330">
        <ele>765.6</ele>
        <time>2020-04-12T18:50:34Z</time>
      </trkpt>
      <trkpt lat="42.6805540" lon="-6.9913130">
        <ele>765.7</ele>
        <time>2020-04-12T18:50:36Z</time>
      </trkpt>
      <trkpt lat="42.6806730" lon="-6.9911770">
        <ele>765.4</ele>
        <time>2020-04-12T18:50:38Z</time>
      </trkpt>
      <trkpt lat="42.6807060" lon="-6.9910390">
        <ele>765.2</ele>
        <time>2020-04-12T18:50:40Z</time>
      </trkpt>
      <trkpt lat="42.6807310" lon="-6.9908310">
        <ele>764.9</ele>
        <time>2020-04-12T18:50:42Z</time>
      </trkpt>
      <trkpt lat="42.6807680" lon="-6.9906080">
        <ele>764.6</ele>
        <time>2020-04-12T18:50:44Z</time>
      </trkpt>
      <trkpt lat="42.6808830" lon="-6.9904830">
        <ele>764.4</ele>
        <time>2020-04-12T18:50:46Z</time>
      </trkpt>
      <trkpt lat="42.6810510" lon="-6.9904240">
        <ele>764.0</ele>
        <time>2020-04-12T18:50:48Z</time>
      </trkpt>
      <trkpt lat="42.6812530" lon="-6.9903880">
        <ele>763.5</ele>
        <time>2020-04-12T18:50:50Z</time>
      </trkpt>
      <trkpt lat="42.6814240" lon="-6.9903140">
        <ele>763.1</ele>
        <time>2020-04-12T18:50:52Z</time>
      </trkpt>
      <trkpt lat="42.6815590" lon="-6.9901490">
        <ele>762.7</ele>
        <time>2020-04-12T18:50:54Z</time>
      </trkpt>
      <trkpt lat="42.6816990" lon="-6.9899830">
        <ele>762.3</ele>
        <time>2020-04-12T18:50:56Z</time>
      </trkpt>
      <trkpt lat="42.6818790" lon="-6.9898790">
        <ele>762.1</ele>
        <time>2020-04-12T18:50:58Z</time>
      </trkpt>
      <trkpt lat="42.6820770" lon="-6.9898600">
        <ele>761.8</ele>
        <time>2020-04-12T18:51:00Z</time>
      </trkpt>
      <trkpt lat="42.6823010" lon="-6.9898920">
        <ele>761.2</ele>
        <time>2020-04-12T18:51:02Z</time>
      </trkpt>
      <trkpt lat="42.6825130" lon="-6.9899600">
        <ele>760.6</ele>
        <time>2020-04-12T18:51:04Z</time>
      </trkpt>
      <trkpt lat="42.6826330" lon="-6.9900130">
        <ele>760.1</ele>
        <time>2020-04-12T18:51:06Z</time>
      </trkpt>
      <trkpt lat="42.6827840" lon="-6.9900770">
        <ele>759.6</ele>
        <time>2020-04-12T18:51:08Z</time>
      </trkpt>
      <trkpt lat="42.6828340" lon="-6.9900900">
        <ele>759.4</ele>
        <time>2020-04-12T18:51:10Z</time>
      </trkpt>
      <trkpt lat="42.6828890" lon="-6.9900900">
        <ele>759.4</ele>
        <time>2020-04-12T18:51:12Z</time>
      </trkpt>
      <trkpt lat="42.6829100" lon="-6.9900800">
        <ele>759.9</ele>
        <time>2020-04-12T18:51:14Z</time>
      </trkpt>
      <trkpt lat="42.6829310" lon="-6.9900690">
        <ele>760.3</ele>
        <time>2020-04-12T18:51:16Z</time>
      </trkpt>
      <trkpt lat="42.6829520" lon="-6.9900590">
        <ele>760.7</ele>
        <time>2020-04-12T18:51:18Z</time>
      </trkpt>
      <trkpt lat="42.6830000" lon="-6.9900270">
        <ele>761.7</ele>
        <time>2020-04-12T18:51:20Z</time>
      </trkpt>
      <trkpt lat="42.6830160" lon="-6.9900060">
        <ele>762.2</ele>
        <time>2020-04-12T18:51:22Z</time>
      </trkpt>
      <trkpt lat="42.6830330" lon="-6.9899850">
        <ele>762.6</ele>
        <time>2020-04-12T18:51:24Z</time>
      </trkpt>
      <trkpt lat="42.6830490" lon="-6.9899650">
        <ele>763.1</ele>
        <time>2020-04-12T18:51:26Z</time>
      </trkpt>
      <trkpt lat="42.6830650" lon="-6.9899440">
        <ele>763.6</ele>
        <time>2020-04-12T18:51:28Z</time>
      </trkpt>
      <trkpt lat="42.6830810" lon="-6.9899240">
        <ele>764.0</ele>
        <time>2020-04-12T18:51:30Z</time>
      </trkpt>
      <trkpt lat="42.6830970" lon="-6.9899030">
        <ele>764.5</ele>
        <time>2020-04-12T18:51:32Z</time>
      </trkpt>
      <trkpt lat="42.6831130" lon="-6.9898830">
        <ele>765.0</ele>
        <time>2020-04-12T18:51:34Z</time>
      </trkpt>
      <trkpt lat="42.6831290" lon="-6.9898620">
        <ele>765.5</ele>
        <time>2020-04-12T18:51:36Z</time>
      </trkpt>
      <trkpt lat="42.6831460" lon="-6.9898410">
        <ele>766.0</ele>
        <time>2020-04-12T18:51:38Z</time>
      </trkpt>
      <trkpt lat="42.6831620" lon="-6.9898210">
        <ele>766.5</ele>
        <time>2020-04-12T18:51:40Z</time>
      </trkpt>
      <trkpt lat="42.6831780" lon="-6.9898000">
        <ele>766.9</ele>
        <time>2020-04-12T18:51:42Z</time>
      </trkpt>
      <trkpt lat="42.6831940" lon="-6.9897790">
        <ele>767.4</ele>
        <time>2020-04-12T18:51:44Z</time>
      </trkpt>
      <trkpt lat="42.6832890" lon="-6.9896660">
        <ele>770.2</ele>
        <time>2020-04-12T18:51:46Z</time>
      </trkpt>
      <trkpt lat="42.6833150" lon="-6.9896560">
        <ele>770.8</ele>
        <time>2020-04-12T18:51:48Z</time>
      </trkpt>
      <trkpt lat="42.6833420" lon="-6.9896450">
        <ele>771.3</ele>
        <time>2020-04-12T18:51:50Z</time>
      </trkpt>
      <trkpt lat="42.6833690" lon="-6.9896340">
        <ele>771.9</ele>
        <time>2020-04-12T18:51:52Z</time>
      </trkpt>
      <trkpt lat="42.6833970" lon="-6.9896230">
        <ele>772.5</ele>
        <time>2020-04-12T18:51:54Z</time>
      </trkpt>
      <trkpt lat="42.6834240" lon="-6.9896120">
        <ele>773.1</ele>
        <time>2020-04-12T18:51:56Z</time>
      </trkpt>
      <trkpt lat="42.6834520" lon="-6.9896000">
        <ele>773.7</ele>
        <time>2020-04-12T18:51:58Z</time>
      </trkpt>
      <trkpt lat="42.6834790" lon="-6.9895890">
        <ele>774.2</ele>
        <time>2020-04-12T18:52:00Z</time>
      </trkpt>
      <trkpt lat="42.6835050" lon="-6.9895790">
        <ele>774.8</ele>
        <time>2020-04-12T18:52:02Z</time>
      </trkpt>
      <trkpt lat="42.6835320" lon="-6.9895680">
        <ele>775.3</ele>
        <time>2020-04-12T18:52:04Z</time>
      </trkpt>
      <trkpt lat="42.6835600" lon="-6.9895560">
        <ele>775.9</ele>
        <time>2020-04-12T18:52:06Z</time>
      </trkpt>
      <trkpt lat="42.6835880" lon="-6.9895450">
        <ele>776.5</ele>
        <time>2020-04-12T18:52:08Z</time>
      </trkpt>
      <trkpt lat="42.6837270" lon="-6.9895020">
        <ele>779.2</ele>
        <time>2020-04-12T18:52:10Z</time>
      </trkpt>
      <trkpt lat="42.6837940" lon="-6.9895090">
        <ele>780.4</ele>
        <time>2020-04-12T18:52:12Z</time>
      </trkpt>
      <trkpt lat="42.6838310" lon="-6.9895120">
        <ele>781.1</ele>
        <time>2020-04-12T18:52:14Z</time>
      </trkpt>
      <trkpt lat="42.6838690" lon="-6.9895160">
        <ele>781.7</ele>
        <time>2020-04-12T18:52:16Z</time>
      </trkpt>
      <trkpt lat="42.6839070" lon="-6.9895200">
        <ele>782.4</ele>
        <time>2020-04-12T18:52:18Z</time>
      </trkpt>
      <trkpt lat="42.6839450" lon="-6.9895230">
        <ele>783.1</ele>
        <time>2020-04-12T18:52:20Z</time>
      </trkpt>
      <trkpt lat="42.6839820" lon="-6.9895270">
        <ele>783.8</ele>
        <time>2020-04-12T18:52:22Z</time>
      </trkpt>
      <trkpt lat="42.6840200" lon="-6.9895310">
        <ele>784.5</ele>
        <time>2020-04-12T18:52:24Z</time>
      </trkpt>
      <trkpt lat="42.6840580" lon="-6.9895340">
        <ele>785.2</ele>
        <time>2020-04-12T18:52:26Z</time>
      </trkpt>
      <trkpt lat="42.6840950" lon="-6.9895380">
        <ele>785.9</ele>
        <time>2020-04-12T18:52:28Z</time>
      </trkpt>
      <trkpt lat="42.6841330" lon="-6.9895420">
        <ele>786.6</ele>
        <time>2020-04-12T18:52:30Z</time>
      </trkpt>
      <trkpt lat="42.6841710" lon="-6.9895450">
        <ele>787.3</ele>
        <time>2020-04-12T18:52:32Z</time>
      </trkpt>
      <trkpt lat="42.6842090" lon="-6.9895490">
        <ele>788.1</ele>
        <time>2020-04-12T18:52:34Z</time>
      </trkpt>
      <trkpt lat="42.6842460" lon="-6.9895530">
        <ele>788.8</ele>
        <time>2020-04-12T18:52:36Z</time>
      </trkpt>
      <trkpt lat="42.6842840" lon="-6.9895560">
        <ele>789.5</ele>
        <time>2020-04-12T18:52:38Z</time>
      </trkpt>
      <trkpt lat="42.6843220" lon="-6.9895600">
        <ele>790.2</ele>
        <time>2020-04-12T18:52:40Z</time>
      </trkpt>
      <trkpt lat="42.6843590" lon="-6.9895640">
        <ele>790.9</ele>
        <time>2020-04-12T18:52:42Z</time>
      </trkpt>
      <trkpt lat="42.6843970" lon="-6.9895670">
        <ele>791.7</ele>
        <time>2020-04-12T18:52:44Z</time>
      </trkpt>
      <trkpt lat="42.6844350" lon="-6.9895710">
        <ele>792.4</ele>
        <time>2020-04-12T18:52:46Z</time>
      </trkpt>
      <trkpt lat="42.6844730" lon="-6.9895750">
        <ele>793.1</ele>
        <time>2020-04-12T18:52:48Z</time>
      </trkpt>
      <trkpt lat="42.6845100" lon="-6.9895780">
        <ele>793.8</ele>
        <time>2020-04-12T18:52:50Z</time>
      </trkpt>
      <trkpt lat="42.6845480" lon="-6.9895820">
        <ele>794.5</ele>
        <time>2020-04-12T18:52:52Z</time>
      </trkpt>
      <trkpt lat="42.6845930" lon="-6.9896110">
        <ele>794.5</ele>
        <time>2020-04-12T18:52:54Z</time>
      </trkpt>
      <trkpt lat="42.6846450" lon="-6.9896460">
        <ele>794.6</ele>
        <time>2020-04-12T18:52:56Z</time>
      </trkpt>
      <trkpt lat="42.6847000" lon="-6.9896810">
        <ele>794.7</ele>
        <time>2020-04-12T18:52:58Z</time>
      </trkpt>
      <trkpt lat="42.6848230" lon="-6.9897680">
        <ele>795.2</ele>
        <time>2020-04-12T18:53:00Z</time>
      </trkpt>
      <trkpt lat="42.6848760" lon="-6.9898120">
        <ele>795.4</ele>
        <time>2020-04-12T18:53:02Z</time>
      </trkpt>
      <trkpt lat="42.6849290" lon="-6.9898560">
        <ele>795.6</ele>
        <time>2020-04-12T18:53:04Z</time>
      </trkpt>
      <trkpt lat="42.6849830" lon="-6.9899010">
        <ele>795.8</ele>
        <time>2020-04-12T18:53:06Z</time>
      </trkpt>
      <trkpt lat="42.6850370" lon="-6.9899460">
        <ele>796.1</ele>
        <time>2020-04-12T18:53:08Z</time>
      </trkpt>
      <trkpt lat="42.6850910" lon="-6.9899910">
        <ele>796.3</ele>
        <time>2020-04-12T18:53:10Z</time>
      </trkpt>
      <trkpt lat="42.6852720" lon="-6.9901410">
        <ele>797.0</ele>
        <time>2020-04-12T18:53:12Z</time>
      </trkpt>
      <trkpt lat="42.6853280" lon="-6.9901770">
        <ele>797.3</ele>
        <time>2020-04-12T18:53:14Z</time>
      </trkpt>
      <trkpt lat="42.6853860" lon="-6.9902140">
        <ele>797.6</ele>
        <time>2020-04-12T18:53:16Z</time>
      </trkpt>
      <trkpt lat="42.6854430" lon="-6.9902500">
        <ele>797.8</ele>
        <time>2020-04-12T18:53:18Z</time>
      </trkpt>
      <trkpt lat="42.6855000" lon="-6.9902870">
        <ele>798.1</ele>
        <time>2020-04-12T18:53:20Z</time>
      </trkpt>
      <trkpt lat="42.6855570" lon="-6.9903230">
        <ele>798.3</ele>
        <time>2020-04-12T18:53:22Z</time>
      </trkpt>
      <trkpt lat="42.6857320" lon="-6.9904280">
        <ele>799.2</ele>
        <time>2020-04-12T18:53:24Z</time>
      </trkpt>
      <trkpt lat="42.6857980" lon="-6.9904510">
        <ele>799.5</ele>
        <time>2020-04-12T18:53:26Z</time>
      </trkpt>
      <trkpt lat="42.6858650" lon="-6.9904750">
        <ele>799.8</ele>
        <time>2020-04-12T18:53:28Z</time>
      </trkpt>
      <trkpt lat="42.6859350" lon="-6.9905000">
        <ele>800.1</ele>
        <time>2020-04-12T18:53:30Z</time>
      </trkpt>
      <trkpt lat="42.6860060" lon="-6.9905250">
        <ele>800.4</ele>
        <time>2020-04-12T18:53:32Z</time>
      </trkpt>
      <trkpt lat="42.6860770" lon="-6.9905510">
        <ele>800.7</ele>
        <time>2020-04-12T18:53:34Z</time>
      </trkpt>
      <trkpt lat="42.6863040" lon="-6.9906320">
        <ele>801.8</ele>
        <time>2020-04-12T18:53:36Z</time>
      </trkpt>
      <trkpt lat="42.6863760" lon="-6.9906610">
        <ele>802.1</ele>
        <time>2020-04-12T18:53:38Z</time>
      </trkpt>
      <trkpt lat="42.6864470" lon="-6.9906900">
        <ele>802.3</ele>
        <time>2020-04-12T18:53:40Z</time>
      </trkpt>
      <trkpt lat="42.6865180" lon="-6.9907190">
        <ele>802.7</ele>
        <time>2020-04-12T18:53:42Z</time>
      </trkpt>
      <trkpt lat="42.6866910" lon="-6.9907910">
        <ele>803.4</ele>
        <time>2020-04-12T18:53:44Z</time>
      </trkpt>
      <trkpt lat="42.6867570" lon="-6.9908330">
        <ele>803.8</ele>
        <time>2020-04-12T18:53:46Z</time>
      </trkpt>
      <trkpt lat="42.6868220" lon="-6.9908740">
        <ele>804.1</ele>
        <time>2020-04-12T18:53:48Z</time>
      </trkpt>
      <trkpt lat="42.6869350" lon="-6.9909660">
        <ele>804.6</ele>
        <time>2020-04-12T18:53:50Z</time>
      </trkpt>
      <trkpt lat="42.6869830" lon="-6.9910340">
        <ele>804.9</ele>
        <time>2020-04-12T18:53:52Z</time>
      </trkpt>
      <trkpt lat="42.6870300" lon="-6.9911020">
        <ele>805.2</ele>
        <time>2020-04-12T18:53:54Z</time>
      </trkpt>
      <trkpt lat="42.6870770" lon="-6.9911680">
        <ele>805.5</ele>
        <time>2020-04-12T18:53:56Z</time>
      </trkpt>
      <trkpt lat="42.6871240" lon="-6.9912360">
        <ele>805.7</ele>
        <time>2020-04-12T18:53:58Z</time>
      </trkpt>
      <trkpt lat="42.6872650" lon="-6.9914360">
        <ele>806.5</ele>
        <time>2020-04-12T18:54:00Z</time>
      </trkpt>
      <trkpt lat="42.6873160" lon="-6.9914980">
        <ele>806.8</ele>
        <time>2020-04-12T18:54:02Z</time>
      </trkpt>
      <trkpt lat="42.6873660" lon="-6.9915590">
        <ele>807.0</ele>
        <time>2020-04-12T18:54:04Z</time>
      </trkpt>
      <trkpt lat="42.6874160" lon="-6.9916200">
        <ele>807.3</ele>
        <time>2020-04-12T18:54:06Z</time>
      </trkpt>
      <trkpt lat="42.6875300" lon="-6.9917510">
        <ele>807.8</ele>
        <time>2020-04-12T18:54:08Z</time>
      </trkpt>
      <trkpt lat="42.6875870" lon="-6.9918110">
        <ele>808.1</ele>
        <time>2020-04-12T18:54:10Z</time>
      </trkpt>
      <trkpt lat="42.6876470" lon="-6.9918740">
        <ele>808.4</ele>
        <time>2020-04-12T18:54:12Z</time>
      </trkpt>
      <trkpt lat="42.6877810" lon="-6.9919850">
        <ele>808.9</ele>
        <time>2020-04-12T18:54:14Z</time>
      </trkpt>
      <trkpt lat="42.6878510" lon="-6.9920100">
        <ele>809.2</ele>
        <time>2020-04-12T18:54:16Z</time>
      </trkpt>
      <trkpt lat="42.6879190" lon="-6.9920340">
        <ele>809.4</ele>
        <time>2020-04-12T18:54:18Z</time>
      </trkpt>
      <trkpt lat="42.6880530" lon="-6.9920640">
        <ele>809.9</ele>
        <time>2020-04-12T18:54:20Z</time>
      </trkpt>
      <trkpt lat="42.6881200" lon="-6.9920690">
        <ele>810.1</ele>
        <time>2020-04-12T18:54:22Z</time>
      </trkpt>
      <trkpt lat="42.6881850" lon="-6.9920730">
        <ele>810.4</ele>
        <time>2020-04-12T18:54:24Z</time>
      </trkpt>
      <trkpt lat="42.6882470" lon="-6.9920780">
        <ele>810.6</ele>
        <time>2020-04-12T18:54:26Z</time>
      </trkpt>
      <trkpt lat="42.6883100" lon="-6.9920820">
        <ele>810.9</ele>
        <time>2020-04-12T18:54:28Z</time>
      </trkpt>
      <trkpt lat="42.6884870" lon="-6.9920800">
        <ele>811.6</ele>
        <time>2020-04-12T18:54:30Z</time>
      </trkpt>
      <trkpt lat="42.6885480" lon="-6.9920690">
        <ele>811.8</ele>
        <time>2020-04-12T18:54:32Z</time>
      </trkpt>
      <trkpt lat="42.6886500" lon="-6.9920340">
        <ele>812.2</ele>
        <time>2020-04-12T18:54:34Z</time>
      </trkpt>
      <trkpt lat="42.6887080" lon="-6.9920040">
        <ele>812.5</ele>
        <time>2020-04-12T18:54:36Z</time>
      </trkpt>
      <trkpt lat="42.6887670" lon="-6.9919740">
        <ele>812.7</ele>
        <time>2020-04-12T18:54:38Z</time>
      </trkpt>
      <trkpt lat="42.6888230" lon="-6.9919450">
        <ele>812.9</ele>
        <time>2020-04-12T18:54:40Z</time>
      </trkpt>
      <trkpt lat="42.6889520" lon="-6.9918500">
        <ele>813.4</ele>
        <time>2020-04-12T18:54:42Z</time>
      </trkpt>
      <trkpt lat="42.6889990" lon="-6.9917940">
        <ele>813.6</ele>
        <time>2020-04-12T18:54:44Z</time>
      </trkpt>
      <trkpt lat="42.6890460" lon="-6.9917390">
        <ele>813.9</ele>
        <time>2020-04-12T18:54:46Z</time>
      </trkpt>
      <trkpt lat="42.6890920" lon="-6.9916850">
        <ele>814.1</ele>
        <time>2020-04-12T18:54:48Z</time>
      </trkpt>
      <trkpt lat="42.6891370" lon="-6.9916310">
        <ele>814.3</ele>
        <time>2020-04-12T18:54:50Z</time>
      </trkpt>
      <trkpt lat="42.6892750" lon="-6.9914670">
        <ele>814.9</ele>
        <time>2020-04-12T18:54:52Z</time>
      </trkpt>
      <trkpt lat="42.6893220" lon="-6.9914120">
        <ele>815.1</ele>
        <time>2020-04-12T18:54:54Z</time>
      </trkpt>
      <trkpt lat="42.6893700" lon="-6.9913540">
        <ele>815.3</ele>
        <time>2020-04-12T18:54:56Z</time>
      </trkpt>
      <trkpt lat="42.6894180" lon="-6.9912970">
        <ele>815.5</ele>
        <time>2020-04-12T18:54:58Z</time>
      </trkpt>
      <trkpt lat="42.6894670" lon="-6.9912400">
        <ele>815.8</ele>
        <time>2020-04-12T18:55:00Z</time>
      </trkpt>
      <trkpt lat="42.6895160" lon="-6.9911820">
        <ele>816.0</ele>
        <time>2020-04-12T18:55:02Z</time>
      </trkpt>
      <trkpt lat="42.6896610" lon="-6.9910230">
        <ele>816.7</ele>
        <time>2020-04-12T18:55:04Z</time>
      </trkpt>
      <trkpt lat="42.6897150" lon="-6.9909730">
        <ele>816.9</ele>
        <time>2020-04-12T18:55:06Z</time>
      </trkpt>
      <trkpt lat="42.6897680" lon="-6.9909240">
        <ele>817.2</ele>
        <time>2020-04-12T18:55:08Z</time>
      </trkpt>
      <trkpt lat="42.6898230" lon="-6.9908740">
        <ele>817.4</ele>
        <time>2020-04-12T18:55:10Z</time>
      </trkpt>
      <trkpt lat="42.6898760" lon="-6.9908250">
        <ele>817.6</ele>
        <time>2020-04-12T18:55:12Z</time>
      </trkpt>
      <trkpt lat="42.6900310" lon="-6.9906890">
        <ele>818.3</ele>
        <time>2020-04-12T18:55:14Z</time>
      </trkpt>
      <trkpt lat="42.6900810" lon="-6.9906510">
        <ele>818.5</ele>
        <time>2020-04-12T18:55:16Z</time>
      </trkpt>
      <trkpt lat="42.6901280" lon="-6.9906150">
        <ele>818.7</ele>
        <time>2020-04-12T18:55:18Z</time>
      </trkpt>
      <trkpt lat="42.6901720" lon="-6.9905810">
        <ele>818.9</ele>
        <time>2020-04-12T18:55:20Z</time>
      </trkpt>
      <trkpt lat="42.6902830" lon="-6.9905080">
        <ele>819.4</ele>
        <time>2020-04-12T18:55:22Z</time>
      </trkpt>
      <trkpt lat="42.6903280" lon="-6.9904860">
        <ele>819.6</ele>
        <time>2020-04-12T18:55:24Z</time>
      </trkpt>
      <trkpt lat="42.6903710" lon="-6.9904640">
        <ele>819.7</ele>
        <time>2020-04-12T18:55:26Z</time>
      </trkpt>
      <trkpt lat="42.6904130" lon="-6.9904430">
        <ele>819.9</ele>
        <time>2020-04-12T18:55:28Z</time>
      </trkpt>
      <trkpt lat="42.6904530" lon="-6.9904230">
        <ele>820.0</ele>
        <time>2020-04-12T18:55:30Z</time>
      </trkpt>
      <trkpt lat="42.6905780" lon="-6.9903630">
        <ele>820.5</ele>
        <time>2020-04-12T18:55:32Z</time>
      </trkpt>
      <trkpt lat="42.6906200" lon="-6.9903470">
        <ele>820.7</ele>
        <time>2020-04-12T18:55:34Z</time>
      </trkpt>
      <trkpt lat="42.6906610" lon="-6.9903320">
        <ele>820.8</ele>
        <time>2020-04-12T18:55:36Z</time>
      </trkpt>
      <trkpt lat="42.6907030" lon="-6.9903160">
        <ele>821.0</ele>
        <time>2020-04-12T18:55:38Z</time>
      </trkpt>
      <trkpt lat="42.6907440" lon="-6.9903010">
        <ele>821.1</ele>
        <time>2020-04-12T18:55:40Z</time>
      </trkpt>
      <trkpt lat="42.6907850" lon="-6.9902860">
        <ele>821.3</ele>
        <time>2020-04-12T18:55:42Z</time>
      </trkpt>
      <trkpt lat="42.6909080" lon="-6.9902300">
        <ele>821.8</ele>
        <time>2020-04-12T18:55:44Z</time>
      </trkpt>
      <trkpt lat="42.6909490" lon="-6.9902020">
        <ele>822.0</ele>
        <time>2020-04-12T18:55:46Z</time>
      </trkpt>
      <trkpt lat="42.6909890" lon="-6.9901730">
        <ele>822.2</ele>
        <time>2020-04-12T18:55:48Z</time>
      </trkpt>
      <trkpt lat="42.6910840" lon="-6.9901110">
        <ele>822.7</ele>
        <time>2020-04-12T18:55:50Z</time>
      </trkpt>
      <trkpt lat="42.6911280" lon="-6.9901300">
        <ele>822.9</ele>
        <time>2020-04-12T18:55:52Z</time>
      </trkpt>
      <trkpt lat="42.6912020" lon="-6.9901640">
        <ele>823.3</ele>
        <time>2020-04-12T18:55:54Z</time>
      </trkpt>
      <trkpt lat="42.6912350" lon="-6.9902120">
        <ele>823.6</ele>
        <time>2020-04-12T18:55:56Z</time>
      </trkpt>
      <trkpt lat="42.6912690" lon="-6.9902940">
        <ele>824.0</ele>
        <time>2020-04-12T18:55:58Z</time>
      </trkpt>
      <trkpt lat="42.6912900" lon="-6.9903940">
        <ele>824.4</ele>
        <time>2020-04-12T18:56:00Z</time>
      </trkpt>
      <trkpt lat="42.6912900" lon="-6.9904600">
        <ele>824.7</ele>
        <time>2020-04-12T18:56:02Z</time>
      </trkpt>
      <trkpt lat="42.6912830" lon="-6.9905650">
        <ele>825.2</ele>
        <time>2020-04-12T18:56:04Z</time>
      </trkpt>
      <trkpt lat="42.6912700" lon="-6.9906300">
        <ele>825.4</ele>
        <time>2020-04-12T18:56:06Z</time>
      </trkpt>
      <trkpt lat="42.6912350" lon="-6.9907240">
        <ele>825.9</ele>
        <time>2020-04-12T18:56:08Z</time>
      </trkpt>
      <trkpt lat="42.6912060" lon="-6.9907760">
        <ele>826.1</ele>
        <time>2020-04-12T18:56:10Z</time>
      </trkpt>
      <trkpt lat="42.6911430" lon="-6.9908580">
        <ele>826.5</ele>
        <time>2020-04-12T18:56:12Z</time>
      </trkpt>
      <trkpt lat="42.6910870" lon="-6.9908970">
        <ele>826.8</ele>
        <time>2020-04-12T18:56:14Z</time>
      </trkpt>
      <trkpt lat="42.6909800" lon="-6.9909470">
        <ele>827.3</ele>
        <time>2020-04-12T18:56:16Z</time>
      </trkpt>
      <trkpt lat="42.6908970" lon="-6.9909720">
        <ele>827.6</ele>
        <time>2020-04-12T18:56:18Z</time>
      </trkpt>
      <trkpt lat="42.6907460" lon="-6.9910320">
        <ele>828.1</ele>
        <time>2020-04-12T18:56:20Z</time>
      </trkpt>
      <trkpt lat="42.6906550" lon="-6.9910870">
        <ele>828.4</ele>
        <time>2020-04-12T18:56:22Z</time>
      </trkpt>
      <trkpt lat="42.6905160" lon="-6.9912040">
        <ele>828.7</ele>
        <time>2020-04-12T18:56:24Z</time>
      </trkpt>
      <trkpt lat="42.6904330" lon="-6.9913730">
        <ele>829.0</ele>
        <time>2020-04-12T18:56:26Z</time>
      </trkpt>
      <trkpt lat="42.6903850" lon="-6.9916040">
        <ele>829.6</ele>
        <time>2020-04-12T18:56:28Z</time>
      </trkpt>
      <trkpt lat="42.6903710" lon="-6.9917680">
        <ele>830.2</ele>
        <time>2020-04-12T18:56:30Z</time>
      </trkpt>
      <trkpt lat="42.6903580" lon="-6.9920310">
        <ele>831.1</ele>
        <time>2020-04-12T18:56:32Z</time>
      </trkpt>
      <trkpt lat="42.6903550" lon="-6.9922080">
        <ele>831.7</ele>
        <time>2020-04-12T18:56:34Z</time>
      </trkpt>
      <trkpt lat="42.6903610" lon="-6.9925510">
        <ele>832.8</ele>
        <time>2020-04-12T18:56:36Z</time>
      </trkpt>
      <trkpt lat="42.6904740" lon="-6.9927420">
        <ele>833.6</ele>
        <time>2020-04-12T18:56:38Z</time>
      </trkpt>
      <trkpt lat="42.6905890" lon="-6.9928470">
        <ele>834.3</ele>
        <time>2020-04-12T18:56:40Z</time>
      </trkpt>
      <trkpt lat="42.6907070" lon="-6.9929540">
        <ele>835.0</ele>
        <time>2020-04-12T18:56:42Z</time>
      </trkpt>
      <trkpt lat="42.6909460" lon="-6.9931570">
        <ele>836.5</ele>
        <time>2020-04-12T18:56:44Z</time>
      </trkpt>
      <trkpt lat="42.6910670" lon="-6.9932360">
        <ele>837.2</ele>
        <time>2020-04-12T18:56:46Z</time>
      </trkpt>
      <trkpt lat="42.6911830" lon="-6.9933120">
        <ele>837.9</ele>
        <time>2020-04-12T18:56:48Z</time>
      </trkpt>
      <trkpt lat="42.6912920" lon="-6.9933840">
        <ele>838.6</ele>
        <time>2020-04-12T18:56:50Z</time>
      </trkpt>
      <trkpt lat="42.6915700" lon="-6.9935750">
        <ele>840.4</ele>
        <time>2020-04-12T18:56:52Z</time>
      </trkpt>
      <trkpt lat="42.6916430" lon="-6.9936840">
        <ele>841.0</ele>
        <time>2020-04-12T18:56:54Z</time>
      </trkpt>
      <trkpt lat="42.6917140" lon="-6.9937890">
        <ele>841.5</ele>
        <time>2020-04-12T18:56:56Z</time>
      </trkpt>
      <trkpt lat="42.6917820" lon="-6.9938900">
        <ele>842.0</ele>
        <time>2020-04-12T18:56:58Z</time>
      </trkpt>
      <trkpt lat="42.6919450" lon="-6.9941020">
        <ele>843.0</ele>
        <time>2020-04-12T18:57:00Z</time>
      </trkpt>
      <trkpt lat="42.6920760" lon="-6.9942230">
        <ele>843.8</ele>
        <time>2020-04-12T18:57:02Z</time>
      </trkpt>
      <trkpt lat="42.6921730" lon="-6.9942660">
        <ele>844.3</ele>
        <time>2020-04-12T18:57:04Z</time>
      </trkpt>
      <trkpt lat="42.6922720" lon="-6.9943110">
        <ele>844.9</ele>
        <time>2020-04-12T18:57:06Z</time>
      </trkpt>
      <trkpt lat="42.6923710" lon="-6.9943550">
        <ele>845.5</ele>
        <time>2020-04-12T18:57:08Z</time>
      </trkpt>
      <trkpt lat="42.6924720" lon="-6.9944010">
        <ele>846.2</ele>
        <time>2020-04-12T18:57:10Z</time>
      </trkpt>
      <trkpt lat="42.6925760" lon="-6.9944470">
        <ele>846.8</ele>
        <time>2020-04-12T18:57:12Z</time>
      </trkpt>
      <trkpt lat="42.6928710" lon="-6.9945800">
        <ele>848.4</ele>
        <time>2020-04-12T18:57:14Z</time>
      </trkpt>
      <trkpt lat="42.6929600" lon="-6.9946200">
        <ele>848.9</ele>
        <time>2020-04-12T18:57:16Z</time>
      </trkpt>
      <trkpt lat="42.6930390" lon="-6.9946550">
        <ele>849.4</ele>
        <time>2020-04-12T18:57:18Z</time>
      </trkpt>
      <trkpt lat="42.6931100" lon="-6.9946870">
        <ele>849.8</ele>
        <time>2020-04-12T18:57:20Z</time>
      </trkpt>
      <trkpt lat="42.6931700" lon="-6.9947140">
        <ele>850.2</ele>
        <time>2020-04-12T18:57:22Z</time>
      </trkpt>
      <trkpt lat="42.6932260" lon="-6.9947390">
        <ele>850.5</ele>
        <time>2020-04-12T18:57:24Z</time>
      </trkpt>
      <trkpt lat="42.6932790" lon="-6.9947630">
        <ele>850.9</ele>
        <time>2020-04-12T18:57:26Z</time>
      </trkpt>
      <trkpt lat="42.6933270" lon="-6.9947840">
        <ele>851.2</ele>
        <time>2020-04-12T18:57:28Z</time>
      </trkpt>
      <trkpt lat="42.6935610" lon="-6.9949050">
        <ele>852.5</ele>
        <time>2020-04-12T18:57:30Z</time>
      </trkpt>
      <trkpt lat="42.6935970" lon="-6.9949480">
        <ele>852.7</ele>
        <time>2020-04-12T18:57:32Z</time>
      </trkpt>
      <trkpt lat="42.6936330" lon="-6.9949910">
        <ele>853.0</ele>
        <time>2020-04-12T18:57:34Z</time>
      </trkpt>
      <trkpt lat="42.6936690" lon="-6.9950330">
        <ele>853.3</ele>
        <time>2020-04-12T18:57:36Z</time>
      </trkpt>
      <trkpt lat="42.6937080" lon="-6.9950800">
        <ele>853.6</ele>
        <time>2020-04-12T18:57:38Z</time>
      </trkpt>
      <trkpt lat="42.6937490" lon="-6.9951290">
        <ele>853.9</ele>
        <time>2020-04-12T18:57:40Z</time>
      </trkpt>
      <trkpt lat="42.6937900" lon="-6.9951780">
        <ele>854.3</ele>
        <time>2020-04-12T18:57:42Z</time>
      </trkpt>
      <trkpt lat="42.6938320" lon="-6.9952280">
        <ele>854.7</ele>
        <time>2020-04-12T18:57:44Z</time>
      </trkpt>
      <trkpt lat="42.6938770" lon="-6.9952820">
        <ele>855.1</ele>
        <time>2020-04-12T18:57:46Z</time>
      </trkpt>
      <trkpt lat="42.6940530" lon="-6.9954800">
        <ele>856.9</ele>
        <time>2020-04-12T18:57:48Z</time>
      </trkpt>
      <trkpt lat="42.6941080" lon="-6.9955320">
        <ele>857.4</ele>
        <time>2020-04-12T18:57:50Z</time>
      </trkpt>
      <trkpt lat="42.6941650" lon="-6.9955860">
        <ele>857.8</ele>
        <time>2020-04-12T18:57:52Z</time>
      </trkpt>
      <trkpt lat="42.6942220" lon="-6.9956400">
        <ele>858.2</ele>
        <time>2020-04-12T18:57:54Z</time>
      </trkpt>
      <trkpt lat="42.6942800" lon="-6.9956950">
        <ele>858.7</ele>
        <time>2020-04-12T18:57:56Z</time>
      </trkpt>
      <trkpt lat="42.6943390" lon="-6.9957500">
        <ele>859.1</ele>
        <time>2020-04-12T18:57:58Z</time>
      </trkpt>
      <trkpt lat="42.6945330" lon="-6.9959370">
        <ele>860.6</ele>
        <time>2020-04-12T18:58:00Z</time>
      </trkpt>
      <trkpt lat="42.6945710" lon="-6.9960200">
        <ele>861.2</ele>
        <time>2020-04-12T18:58:02Z</time>
      </trkpt>
      <trkpt lat="42.6946100" lon="-6.9961020">
        <ele>861.8</ele>
        <time>2020-04-12T18:58:04Z</time>
      </trkpt>
      <trkpt lat="42.6946480" lon="-6.9961850">
        <ele>862.4</ele>
        <time>2020-04-12T18:58:06Z</time>
      </trkpt>
      <trkpt lat="42.6946860" lon="-6.9962670">
        <ele>863.1</ele>
        <time>2020-04-12T18:58:08Z</time>
      </trkpt>
      <trkpt lat="42.6947240" lon="-6.9963500">
        <ele>863.7</ele>
        <time>2020-04-12T18:58:10Z</time>
      </trkpt>
      <trkpt lat="42.6947620" lon="-6.9964320">
        <ele>864.4</ele>
        <time>2020-04-12T18:58:12Z</time>
      </trkpt>
      <trkpt lat="42.6948970" lon="-6.9967190">
        <ele>866.7</ele>
        <time>2020-04-12T18:58:14Z</time>
      </trkpt>
      <trkpt lat="42.6949400" lon="-6.9967790">
        <ele>867.3</ele>
        <time>2020-04-12T18:58:16Z</time>
      </trkpt>
      <trkpt lat="42.6949740" lon="-6.9968270">
        <ele>867.8</ele>
        <time>2020-04-12T18:58:18Z</time>
      </trkpt>
      <trkpt lat="42.6950030" lon="-6.9968670">
        <ele>868.1</ele>
        <time>2020-04-12T18:58:20Z</time>
      </trkpt>
      <trkpt lat="42.6950780" lon="-6.9969650">
        <ele>869.1</ele>
        <time>2020-04-12T18:58:22Z</time>
      </trkpt>
      <trkpt lat="42.6951100" lon="-6.9969860">
        <ele>869.4</ele>
        <time>2020-04-12T18:58:24Z</time>
      </trkpt>
      <trkpt lat="42.6951410" lon="-6.9970060">
        <ele>869.8</ele>
        <time>2020-04-12T18:58:26Z</time>
      </trkpt>
      <trkpt lat="42.6951720" lon="-6.9970260">
        <ele>870.1</ele>
        <time>2020-04-12T18:58:28Z</time>
      </trkpt>
      <trkpt lat="42.6952020" lon="-6.9970460">
        <ele>870.4</ele>
        <time>2020-04-12T18:58:30Z</time>
      </trkpt>
      <trkpt lat="42.6952330" lon="-6.9970660">
        <ele>870.7</ele>
        <time>2020-04-12T18:58:32Z</time>
      </trkpt>
      <trkpt lat="42.6953250" lon="-6.9971220">
        <ele>871.7</ele>
        <time>2020-04-12T18:58:34Z</time>
      </trkpt>
      <trkpt lat="42.6953570" lon="-6.9971380">
        <ele>872.0</ele>
        <time>2020-04-12T18:58:36Z</time>
      </trkpt>
      <trkpt lat="42.6953880" lon="-6.9971530">
        <ele>872.4</ele>
        <time>2020-04-12T18:58:38Z</time>
      </trkpt>
      <trkpt lat="42.6954210" lon="-6.9971680">
        <ele>872.7</ele>
        <time>2020-04-12T18:58:40Z</time>
      </trkpt>
      <trkpt lat="42.6954530" lon="-6.9971840">
        <ele>873.1</ele>
        <time>2020-04-12T18:58:42Z</time>
      </trkpt>
      <trkpt lat="42.6954850" lon="-6.9971990">
        <ele>873.4</ele>
        <time>2020-04-12T18:58:44Z</time>
      </trkpt>
      <trkpt lat="42.6955160" lon="-6.9972150">
        <ele>873.7</ele>
        <time>2020-04-12T18:58:46Z</time>
      </trkpt>
      <trkpt lat="42.6955480" lon="-6.9972300">
        <ele>874.1</ele>
        <time>2020-04-12T18:58:48Z</time>
      </trkpt>
      <trkpt lat="42.6955800" lon="-6.9972460">
        <ele>874.4</ele>
        <time>2020-04-12T18:58:50Z</time>
      </trkpt>
      <trkpt lat="42.6956120" lon="-6.9972610">
        <ele>874.8</ele>
        <time>2020-04-12T18:58:52Z</time>
      </trkpt>
      <trkpt lat="42.6956440" lon="-6.9972770">
        <ele>875.1</ele>
        <time>2020-04-12T18:58:54Z</time>
      </trkpt>
      <trkpt lat="42.6958030" lon="-6.9973540">
        <ele>876.6</ele>
        <time>2020-04-12T18:58:56Z</time>
      </trkpt>
      <trkpt lat="42.6958350" lon="-6.9973690">
        <ele>876.9</ele>
        <time>2020-04-12T18:58:58Z</time>
      </trkpt>
      <trkpt lat="42.6958670" lon="-6.9973850">
        <ele>877.2</ele>
        <time>2020-04-12T18:59:00Z</time>
      </trkpt>
      <trkpt lat="42.6958990" lon="-6.9974000">
        <ele>877.5</ele>
        <time>2020-04-12T18:59:02Z</time>
      </trkpt>
      <trkpt lat="42.6959310" lon="-6.9974160">
        <ele>877.8</ele>
        <time>2020-04-12T18:59:04Z</time>
      </trkpt>
      <trkpt lat="42.6959630" lon="-6.9974310">
        <ele>878.1</ele>
        <time>2020-04-12T18:59:06Z</time>
      </trkpt>
      <trkpt lat="42.6959950" lon="-6.9974470">
        <ele>878.4</ele>
        <time>2020-04-12T18:59:08Z</time>
      </trkpt>
      <trkpt lat="42.6960270" lon="-6.9974620">
        <ele>878.7</ele>
        <time>2020-04-12T18:59:10Z</time>
      </trkpt>
      <trkpt lat="42.6960590" lon="-6.9974780">
        <ele>879.0</ele>
        <time>2020-04-12T18:59:12Z</time>
      </trkpt>
      <trkpt lat="42.6960910" lon="-6.9974930">
        <ele>879.3</ele>
        <time>2020-04-12T18:59:14Z</time>
      </trkpt>
      <trkpt lat="42.6961230" lon="-6.9975090">
        <ele>879.5</ele>
        <time>2020-04-12T18:59:16Z</time>
      </trkpt>
      <trkpt lat="42.6962820" lon="-6.9975850">
        <ele>880.6</ele>
        <time>2020-04-12T18:59:18Z</time>
      </trkpt>
      <trkpt lat="42.6963560" lon="-6.9976150">
        <ele>880.9</ele>
        <time>2020-04-12T18:59:20Z</time>
      </trkpt>
      <trkpt lat="42.6963980" lon="-6.9976320">
        <ele>881.1</ele>
        <time>2020-04-12T18:59:22Z</time>
      </trkpt>
      <trkpt lat="42.6964390" lon="-6.9976490">
        <ele>881.4</ele>
        <time>2020-04-12T18:59:24Z</time>
      </trkpt>
      <trkpt lat="42.6964810" lon="-6.9976660">
        <ele>881.7</ele>
        <time>2020-04-12T18:59:26Z</time>
      </trkpt>
      <trkpt lat="42.6965220" lon="-6.9976830">
        <ele>882.1</ele>
        <time>2020-04-12T18:59:28Z</time>
      </trkpt>
      <trkpt lat="42.6965640" lon="-6.9977000">
        <ele>882.5</ele>
        <time>2020-04-12T18:59:30Z</time>
      </trkpt>
      <trkpt lat="42.6966050" lon="-6.9977160">
        <ele>882.9</ele>
        <time>2020-04-12T18:59:32Z</time>
      </trkpt>
      <trkpt lat="42.6966460" lon="-6.9977330">
        <ele>883.3</ele>
        <time>2020-04-12T18:59:34Z</time>
      </trkpt>
      <trkpt lat="42.6966880" lon="-6.9977500">
        <ele>883.7</ele>
        <time>2020-04-12T18:59:36Z</time>
      </trkpt>
      <trkpt lat="42.6967290" lon="-6.9977670">
        <ele>884.1</ele>
        <time>2020-04-12T18:59:38Z</time>
      </trkpt>
      <trkpt lat="42.6967710" lon="-6.9977840">
        <ele>884.6</ele>
        <time>2020-04-12T18:59:40Z</time>
      </trkpt>
      <trkpt lat="42.6968120" lon="-6.9978010">
        <ele>885.0</ele>
        <time>2020-04-12T18:59:42Z</time>
      </trkpt>
      <trkpt lat="42.6968540" lon="-6.9978180">
        <ele>885.4</ele>
        <time>2020-04-12T18:59:44Z</time>
      </trkpt>
      <trkpt lat="42.6968950" lon="-6.9978350">
        <ele>885.8</ele>
        <time>2020-04-12T18:59:46Z</time>
      </trkpt>
      <trkpt lat="42.6969690" lon="-6.9978650">
        <ele>886.5</ele>
        <time>2020-04-12T18:59:48Z</time>
      </trkpt>
      <trkpt lat="42.6970110" lon="-6.9978820">
        <ele>887.0</ele>
        <time>2020-04-12T18:59:50Z</time>
      </trkpt>
      <trkpt lat="42.6970530" lon="-6.9978990">
        <ele>887.4</ele>
        <time>2020-04-12T18:59:52Z</time>
      </trkpt>
      <trkpt lat="42.6970960" lon="-6.9979170">
        <ele>887.8</ele>
        <time>2020-04-12T18:59:54Z</time>
      </trkpt>
      <trkpt lat="42.6971380" lon="-6.9979340">
        <ele>888.2</ele>
        <time>2020-04-12T18:59:56Z</time>
      </trkpt>
      <trkpt lat="42.6971800" lon="-6.9979510">
        <ele>888.6</ele>
        <time>2020-04-12T18:59:58Z</time>
      </trkpt>
      <trkpt lat="42.6972220" lon="-6.9979680">
        <ele>889.0</ele>
        <time>2020-04-12T19:00:00Z</time>
      </trkpt>
      <trkpt lat="42.6972640" lon="-6.9979850">
        <ele>889.5</ele>
        <time>2020-04-12T19:00:02Z</time>
      </trkpt>
      <trkpt lat="42.6973060" lon="-6.9980020">
        <ele>889.9</ele>
        <time>2020-04-12T19:00:04Z</time>
      </trkpt>
      <trkpt lat="42.6973490" lon="-6.9980200">
        <ele>890.3</ele>
        <time>2020-04-12T19:00:06Z</time>
      </trkpt>
      <trkpt lat="42.6973910" lon="-6.9980370">
        <ele>890.7</ele>
        <time>2020-04-12T19:00:08Z</time>
      </trkpt>
      <trkpt lat="42.6974330" lon="-6.9980540">
        <ele>891.1</ele>
        <time>2020-04-12T19:00:10Z</time>
      </trkpt>
      <trkpt lat="42.6974750" lon="-6.9980710">
        <ele>891.5</ele>
        <time>2020-04-12T19:00:12Z</time>
      </trkpt>
      <trkpt lat="42.6975470" lon="-6.9981010">
        <ele>892.3</ele>
        <time>2020-04-12T19:00:14Z</time>
      </trkpt>
      <trkpt lat="42.6975880" lon="-6.9981170">
        <ele>892.7</ele>
        <time>2020-04-12T19:00:16Z</time>
      </trkpt>
      <trkpt lat="42.6976280" lon="-6.9981340">
        <ele>893.1</ele>
        <time>2020-04-12T19:00:18Z</time>
      </trkpt>
      <trkpt lat="42.6976690" lon="-6.9981510">
        <ele>893.5</ele>
        <time>2020-04-12T19:00:20Z</time>
      </trkpt>
      <trkpt lat="42.6977090" lon="-6.9981670">
        <ele>893.9</ele>
        <time>2020-04-12T19:00:22Z</time>
      </trkpt>
      <trkpt lat="42.6977500" lon="-6.9981840">
        <ele>894.3</ele>
        <time>2020-04-12T19:00:24Z</time>
      </trkpt>
      <trkpt lat="42.6977900" lon="-6.9982000">
        <ele>894.7</ele>
        <time>2020-04-12T19:00:26Z</time>
      </trkpt>
      <trkpt lat="42.6978300" lon="-6.9982170">
        <ele>895.1</ele>
        <time>2020-04-12T19:00:28Z</time>
      </trkpt>
      <trkpt lat="42.6978710" lon="-6.9982340">
        <ele>895.5</ele>
        <time>2020-04-12T19:00:30Z</time>
      </trkpt>
      <trkpt lat="42.6979110" lon="-6.9982500">
        <ele>895.9</ele>
        <time>2020-04-12T19:00:32Z</time>
      </trkpt>
      <trkpt lat="42.6979520" lon="-6.9982670">
        <ele>896.2</ele>
        <time>2020-04-12T19:00:34Z</time>
      </trkpt>
      <trkpt lat="42.6979920" lon="-6.9982840">
        <ele>896.4</ele>
        <time>2020-04-12T19:00:36Z</time>
      </trkpt>
      <trkpt lat="42.6980330" lon="-6.9983000">
        <ele>896.7</ele>
        <time>2020-04-12T19:00:38Z</time>
      </trkpt>
      <trkpt lat="42.6980730" lon="-6.9983170">
        <ele>896.9</ele>
        <time>2020-04-12T19:00:40Z</time>
      </trkpt>
      <trkpt lat="42.6981040" lon="-6.9983330">
        <ele>897.1</ele>
        <time>2020-04-12T19:00:42Z</time>
      </trkpt>
      <trkpt lat="42.6981350" lon="-6.9983490">
        <ele>897.4</ele>
        <time>2020-04-12T19:00:44Z</time>
      </trkpt>
      <trkpt lat="42.6981660" lon="-6.9983650">
        <ele>897.6</ele>
        <time>2020-04-12T19:00:46Z</time>
      </trkpt>
      <trkpt lat="42.6981970" lon="-6.9983820">
        <ele>897.9</ele>
        <time>2020-04-12T19:00:48Z</time>
      </trkpt>
      <trkpt lat="42.6982820" lon="-6.9984290">
        <ele>898.8</ele>
        <time>2020-04-12T19:00:50Z</time>
      </trkpt>
      <trkpt lat="42.6983100" lon="-6.9984520">
        <ele>899.1</ele>
        <time>2020-04-12T19:00:52Z</time>
      </trkpt>
      <trkpt lat="42.6983390" lon="-6.9984740">
        <ele>899.5</ele>
        <time>2020-04-12T19:00:54Z</time>
      </trkpt>
      <trkpt lat="42.6983670" lon="-6.9984970">
        <ele>899.8</ele>
        <time>2020-04-12T19:00:56Z</time>
      </trkpt>
      <trkpt lat="42.6983960" lon="-6.9985190">
        <ele>900.2</ele>
        <time>2020-04-12T19:00:58Z</time>
      </trkpt>
      <trkpt lat="42.6984240" lon="-6.9985420">
        <ele>900.5</ele>
        <time>2020-04-12T19:01:00Z</time>
      </trkpt>
      <trkpt lat="42.6985150" lon="-6.9986160">
        <ele>901.6</ele>
        <time>2020-04-12T19:01:02Z</time>
      </trkpt>
      <trkpt lat="42.6985450" lon="-6.9986510">
        <ele>902.0</ele>
        <time>2020-04-12T19:01:04Z</time>
      </trkpt>
      <trkpt lat="42.6985780" lon="-6.9986900">
        <ele>902.4</ele>
        <time>2020-04-12T19:01:06Z</time>
      </trkpt>
      <trkpt lat="42.6986130" lon="-6.9987300">
        <ele>902.9</ele>
        <time>2020-04-12T19:01:08Z</time>
      </trkpt>
      <trkpt lat="42.6986460" lon="-6.9987680">
        <ele>903.3</ele>
        <time>2020-04-12T19:01:10Z</time>
      </trkpt>
      <trkpt lat="42.6986760" lon="-6.9988040">
        <ele>903.7</ele>
        <time>2020-04-12T19:01:12Z</time>
      </trkpt>
      <trkpt lat="42.6987050" lon="-6.9988380">
        <ele>904.1</ele>
        <time>2020-04-12T19:01:14Z</time>
      </trkpt>
      <trkpt lat="42.6988120" lon="-6.9989630">
        <ele>905.6</ele>
        <time>2020-04-12T19:01:16Z</time>
      </trkpt>
      <trkpt lat="42.6988350" lon="-6.9990010">
        <ele>906.1</ele>
        <time>2020-04-12T19:01:18Z</time>
      </trkpt>
      <trkpt lat="42.6988580" lon="-6.9990400">
        <ele>906.5</ele>
        <time>2020-04-12T19:01:20Z</time>
      </trkpt>
      <trkpt lat="42.6988800" lon="-6.9990770">
        <ele>906.9</ele>
        <time>2020-04-12T19:01:22Z</time>
      </trkpt>
      <trkpt lat="42.6989030" lon="-6.9991150">
        <ele>907.3</ele>
        <time>2020-04-12T19:01:24Z</time>
      </trkpt>
      <trkpt lat="42.6989260" lon="-6.9991530">
        <ele>907.8</ele>
        <time>2020-04-12T19:01:26Z</time>
      </trkpt>
      <trkpt lat="42.6989490" lon="-6.9991910">
        <ele>908.2</ele>
        <time>2020-04-12T19:01:28Z</time>
      </trkpt>
      <trkpt lat="42.6990290" lon="-6.9993190">
        <ele>909.7</ele>
        <time>2020-04-12T19:01:30Z</time>
      </trkpt>
      <trkpt lat="42.6990580" lon="-6.9993480">
        <ele>910.2</ele>
        <time>2020-04-12T19:01:32Z</time>
      </trkpt>
      <trkpt lat="42.6990870" lon="-6.9993770">
        <ele>910.7</ele>
        <time>2020-04-12T19:01:34Z</time>
      </trkpt>
      <trkpt lat="42.6991170" lon="-6.9994070">
        <ele>911.2</ele>
        <time>2020-04-12T19:01:36Z</time>
      </trkpt>
      <trkpt lat="42.6991850" lon="-6.9994620">
        <ele>912.2</ele>
        <time>2020-04-12T19:01:38Z</time>
      </trkpt>
      <trkpt lat="42.6992100" lon="-6.9994750">
        <ele>912.6</ele>
        <time>2020-04-12T19:01:40Z</time>
      </trkpt>
      <trkpt lat="42.6992320" lon="-6.9994860">
        <ele>912.9</ele>
        <time>2020-04-12T19:01:42Z</time>
      </trkpt>
      <trkpt lat="42.6992540" lon="-6.9994970">
        <ele>913.2</ele>
        <time>2020-04-12T19:01:44Z</time>
      </trkpt>
      <trkpt lat="42.6992790" lon="-6.9995100">
        <ele>913.6</ele>
        <time>2020-04-12T19:01:46Z</time>
      </trkpt>
      <trkpt lat="42.6993500" lon="-6.9995370">
        <ele>914.5</ele>
        <time>2020-04-12T19:01:48Z</time>
      </trkpt>
      <trkpt lat="42.6993740" lon="-6.9995310">
        <ele>914.9</ele>
        <time>2020-04-12T19:01:50Z</time>
      </trkpt>
      <trkpt lat="42.6993970" lon="-6.9995240">
        <ele>915.2</ele>
        <time>2020-04-12T19:01:52Z</time>
      </trkpt>
      <trkpt lat="42.6994200" lon="-6.9995180">
        <ele>915.5</ele>
        <time>2020-04-12T19:01:54Z</time>
      </trkpt>
      <trkpt lat="42.6994430" lon="-6.9995110">
        <ele>915.8</ele>
        <time>2020-04-12T19:01:56Z</time>
      </trkpt>
      <trkpt lat="42.6994660" lon="-6.9995050">
        <ele>916.1</ele>
        <time>2020-04-12T19:01:58Z</time>
      </trkpt>
      <trkpt lat="42.6994900" lon="-6.9994980">
        <ele>916.4</ele>
        <time>2020-04-12T19:02:00Z</time>
      </trkpt>
      <trkpt lat="42.6995140" lon="-6.9994910">
        <ele>916.7</ele>
        <time>2020-04-12T19:02:02Z</time>
      </trkpt>
      <trkpt lat="42.6996010" lon="-6.9994630">
        <ele>917.9</ele>
        <time>2020-04-12T19:02:04Z</time>
      </trkpt>
      <trkpt lat="42.6996230" lon="-6.9994490">
        <ele>918.2</ele>
        <time>2020-04-12T19:02:06Z</time>
      </trkpt>
      <trkpt lat="42.6996440" lon="-6.9994350">
        <ele>918.6</ele>
        <time>2020-04-12T19:02:08Z</time>
      </trkpt>
      <trkpt lat="42.6996650" lon="-6.9994220">
        <ele>918.9</ele>
        <time>2020-04-12T19:02:10Z</time>
      </trkpt>
      <trkpt lat="42.6996860" lon="-6.9994080">
        <ele>919.2</ele>
        <time>2020-04-12T19:02:12Z</time>
      </trkpt>
      <trkpt lat="42.6997060" lon="-6.9993950">
        <ele>919.5</ele>
        <time>2020-04-12T19:02:14Z</time>
      </trkpt>
      <trkpt lat="42.6997250" lon="-6.9993830">
        <ele>919.8</ele>
        <time>2020-04-12T19:02:16Z</time>
      </trkpt>
      <trkpt lat="42.6997470" lon="-6.9993690">
        <ele>920.2</ele>
        <time>2020-04-12T19:02:18Z</time>
      </trkpt>
      <trkpt lat="42.6997690" lon="-6.9993550">
        <ele>920.5</ele>
        <time>2020-04-12T19:02:20Z</time>
      </trkpt>
      <trkpt lat="42.6997930" lon="-6.9993400">
        <ele>920.9</ele>
        <time>2020-04-12T19:02:22Z</time>
      </trkpt>
      <trkpt lat="42.6998190" lon="-6.9993230">
        <ele>921.3</ele>
        <time>2020-04-12T19:02:24Z</time>
      </trkpt>
      <trkpt lat="42.6998420" lon="-6.9993080">
        <ele>921.6</ele>
        <time>2020-04-12T19:02:26Z</time>
      </trkpt>
      <trkpt lat="42.6998660" lon="-6.9992930">
        <ele>922.0</ele>
        <time>2020-04-12T19:02:28Z</time>
      </trkpt>
      <trkpt lat="42.6999910" lon="-6.9992210">
        <ele>923.7</ele>
        <time>2020-04-12T19:02:30Z</time>
      </trkpt>
      <trkpt lat="42.7000140" lon="-6.9992220">
        <ele>924.0</ele>
        <time>2020-04-12T19:02:32Z</time>
      </trkpt>
      <trkpt lat="42.7000390" lon="-6.9992240">
        <ele>924.3</ele>
        <time>2020-04-12T19:02:34Z</time>
      </trkpt>
      <trkpt lat="42.7000620" lon="-6.9992250">
        <ele>924.6</ele>
        <time>2020-04-12T19:02:36Z</time>
      </trkpt>
      <trkpt lat="42.7000860" lon="-6.9992270">
        <ele>924.9</ele>
        <time>2020-04-12T19:02:38Z</time>
      </trkpt>
      <trkpt lat="42.7001090" lon="-6.9992280">
        <ele>925.2</ele>
        <time>2020-04-12T19:02:40Z</time>
      </trkpt>
      <trkpt lat="42.7001330" lon="-6.9992300">
        <ele>925.5</ele>
        <time>2020-04-12T19:02:42Z</time>
      </trkpt>
      <trkpt lat="42.7001570" lon="-6.9992310">
        <ele>925.9</ele>
        <time>2020-04-12T19:02:44Z</time>
      </trkpt>
      <trkpt lat="42.7001800" lon="-6.9992330">
        <ele>926.2</ele>
        <time>2020-04-12T19:02:46Z</time>
      </trkpt>
      <trkpt lat="42.7002040" lon="-6.9992340">
        <ele>926.5</ele>
        <time>2020-04-12T19:02:48Z</time>
      </trkpt>
      <trkpt lat="42.7003100" lon="-6.9992450">
        <ele>927.8</ele>
        <time>2020-04-12T19:02:50Z</time>
      </trkpt>
      <trkpt lat="42.7003380" lon="-6.9992510">
        <ele>928.2</ele>
        <time>2020-04-12T19:02:52Z</time>
      </trkpt>
      <trkpt lat="42.7003670" lon="-6.9992570">
        <ele>928.5</ele>
        <time>2020-04-12T19:02:54Z</time>
      </trkpt>
      <trkpt lat="42.7003930" lon="-6.9992630">
        <ele>928.8</ele>
        <time>2020-04-12T19:02:56Z</time>
      </trkpt>
      <trkpt lat="42.7004210" lon="-6.9992700">
        <ele>929.2</ele>
        <time>2020-04-12T19:02:58Z</time>
      </trkpt>
      <trkpt lat="42.7004490" lon="-6.9992760">
        <ele>929.5</ele>
        <time>2020-04-12T19:03:00Z</time>
      </trkpt>
      <trkpt lat="42.7004780" lon="-6.9992820">
        <ele>929.9</ele>
        <time>2020-04-12T19:03:02Z</time>
      </trkpt>
      <trkpt lat="42.7005060" lon="-6.9992890">
        <ele>930.2</ele>
        <time>2020-04-12T19:03:04Z</time>
      </trkpt>
      <trkpt lat="42.7006170" lon="-6.9993060">
        <ele>931.6</ele>
        <time>2020-04-12T19:03:06Z</time>
      </trkpt>
      <trkpt lat="42.7006480" lon="-6.9992990">
        <ele>932.0</ele>
        <time>2020-04-12T19:03:08Z</time>
      </trkpt>
      <trkpt lat="42.7006830" lon="-6.9992910">
        <ele>932.5</ele>
        <time>2020-04-12T19:03:10Z</time>
      </trkpt>
      <trkpt lat="42.7007160" lon="-6.9992840">
        <ele>932.9</ele>
        <time>2020-04-12T19:03:12Z</time>
      </trkpt>
      <trkpt lat="42.7007460" lon="-6.9992770">
        <ele>933.4</ele>
        <time>2020-04-12T19:03:14Z</time>
      </trkpt>
      <trkpt lat="42.7008330" lon="-6.9992560">
        <ele>934.6</ele>
        <time>2020-04-12T19:03:16Z</time>
      </trkpt>
      <trkpt lat="42.7008620" lon="-6.9992460">
        <ele>935.0</ele>
        <time>2020-04-12T19:03:18Z</time>
      </trkpt>
      <trkpt lat="42.7008900" lon="-6.9992370">
        <ele>935.4</ele>
        <time>2020-04-12T19:03:20Z</time>
      </trkpt>
      <trkpt lat="42.7009180" lon="-6.9992280">
        <ele>935.8</ele>
        <time>2020-04-12T19:03:22Z</time>
      </trkpt>
      <trkpt lat="42.7009460" lon="-6.9992190">
        <ele>936.2</ele>
        <time>2020-04-12T19:03:24Z</time>
      </trkpt>
      <trkpt lat="42.7009750" lon="-6.9992090">
        <ele>936.6</ele>
        <time>2020-04-12T19:03:26Z</time>
      </trkpt>
      <trkpt lat="42.7010040" lon="-6.9992000">
        <ele>937.1</ele>
        <time>2020-04-12T19:03:28Z</time>
      </trkpt>
      <trkpt lat="42.7010320" lon="-6.9991910">
        <ele>937.5</ele>
        <time>2020-04-12T19:03:30Z</time>
      </trkpt>
      <trkpt lat="42.7010600" lon="-6.9991820">
        <ele>937.9</ele>
        <time>2020-04-12T19:03:32Z</time>
      </trkpt>
      <trkpt lat="42.7010890" lon="-6.9991720">
        <ele>938.3</ele>
        <time>2020-04-12T19:03:34Z</time>
      </trkpt>
      <trkpt lat="42.7011170" lon="-6.9991630">
        <ele>938.7</ele>
        <time>2020-04-12T19:03:36Z</time>
      </trkpt>
      <trkpt lat="42.7012580" lon="-6.9991210">
        <ele>940.6</ele>
        <time>2020-04-12T19:03:38Z</time>
      </trkpt>
      <trkpt lat="42.7012900" lon="-6.9991250">
        <ele>941.0</ele>
        <time>2020-04-12T19:03:40Z</time>
      </trkpt>
      <trkpt lat="42.7013230" lon="-6.9991300">
        <ele>941.4</ele>
        <time>2020-04-12T19:03:42Z</time>
      </trkpt>
      <trkpt lat="42.7013560" lon="-6.9991340">
        <ele>941.8</ele>
        <time>2020-04-12T19:03:44Z</time>
      </trkpt>
      <trkpt lat="42.7013890" lon="-6.9991390">
        <ele>942.2</ele>
        <time>2020-04-12T19:03:46Z</time>
      </trkpt>
      <trkpt lat="42.7014790" lon="-6.9991530">
        <ele>943.4</ele>
        <time>2020-04-12T19:03:48Z</time>
      </trkpt>
      <trkpt lat="42.7015150" lon="-6.9991640">
        <ele>943.8</ele>
        <time>2020-04-12T19:03:50Z</time>
      </trkpt>
      <trkpt lat="42.7015520" lon="-6.9991760">
        <ele>944.3</ele>
        <time>2020-04-12T19:03:52Z</time>
      </trkpt>
      <trkpt lat="42.7015860" lon="-6.9991870">
        <ele>944.7</ele>
        <time>2020-04-12T19:03:54Z</time>
      </trkpt>
      <trkpt lat="42.7016200" lon="-6.9991980">
        <ele>945.1</ele>
        <time>2020-04-12T19:03:56Z</time>
      </trkpt>
      <trkpt lat="42.7017090" lon="-6.9992340">
        <ele>946.3</ele>
        <time>2020-04-12T19:03:58Z</time>
      </trkpt>
      <trkpt lat="42.7017380" lon="-6.9992550">
        <ele>946.7</ele>
        <time>2020-04-12T19:04:00Z</time>
      </trkpt>
      <trkpt lat="42.7017670" lon="-6.9992760">
        <ele>947.2</ele>
        <time>2020-04-12T19:04:02Z</time>
      </trkpt>
      <trkpt lat="42.7017970" lon="-6.9992980">
        <ele>947.6</ele>
        <time>2020-04-12T19:04:04Z</time>
      </trkpt>
      <trkpt lat="42.7018270" lon="-6.9993200">
        <ele>948.0</ele>
        <time>2020-04-12T19:04:06Z</time>
      </trkpt>
      <trkpt lat="42.7019140" lon="-6.9993850">
        <ele>949.3</ele>
        <time>2020-04-12T19:04:08Z</time>
      </trkpt>
      <trkpt lat="42.7019380" lon="-6.9994160">
        <ele>949.7</ele>
        <time>2020-04-12T19:04:10Z</time>
      </trkpt>
      <trkpt lat="42.7019630" lon="-6.9994480">
        <ele>950.1</ele>
        <time>2020-04-12T19:04:12Z</time>
      </trkpt>
      <trkpt lat="42.7019870" lon="-6.9994780">
        <ele>950.5</ele>
        <time>2020-04-12T19:04:14Z</time>
      </trkpt>
      <trkpt lat="42.7020120" lon="-6.9995090">
        <ele>950.9</ele>
        <time>2020-04-12T19:04:16Z</time>
      </trkpt>
      <trkpt lat="42.7020360" lon="-6.9995400">
        <ele>951.3</ele>
        <time>2020-04-12T19:04:18Z</time>
      </trkpt>
      <trkpt lat="42.7020600" lon="-6.9995710">
        <ele>951.8</ele>
        <time>2020-04-12T19:04:20Z</time>
      </trkpt>
      <trkpt lat="42.7020840" lon="-6.9996010">
        <ele>952.2</ele>
        <time>2020-04-12T19:04:22Z</time>
      </trkpt>
      <trkpt lat="42.7021080" lon="-6.9996320">
        <ele>952.5</ele>
        <time>2020-04-12T19:04:24Z</time>
      </trkpt>
      <trkpt lat="42.7021330" lon="-6.9996630">
        <ele>952.9</ele>
        <time>2020-04-12T19:04:26Z</time>
      </trkpt>
      <trkpt lat="42.7021570" lon="-6.9996940">
        <ele>953.3</ele>
        <time>2020-04-12T19:04:28Z</time>
      </trkpt>
      <trkpt lat="42.7021820" lon="-6.9997250">
        <ele>953.7</ele>
        <time>2020-04-12T19:04:30Z</time>
      </trkpt>
      <trkpt lat="42.7023050" lon="-6.9998950">
        <ele>955.1</ele>
        <time>2020-04-12T19:04:32Z</time>
      </trkpt>
      <trkpt lat="42.7023390" lon="-6.9999550">
        <ele>955.2</ele>
        <time>2020-04-12T19:04:34Z</time>
      </trkpt>
      <trkpt lat="42.7023770" lon="-7.0000230">
        <ele>955.4</ele>
        <time>2020-04-12T19:04:36Z</time>
      </trkpt>
      <trkpt lat="42.7024160" lon="-7.0000920">
        <ele>955.7</ele>
        <time>2020-04-12T19:04:38Z</time>
      </trkpt>
      <trkpt lat="42.7024550" lon="-7.0001610">
        <ele>956.1</ele>
        <time>2020-04-12T19:04:40Z</time>
      </trkpt>
      <trkpt lat="42.7024950" lon="-7.0002330">
        <ele>956.5</ele>
        <time>2020-04-12T19:04:42Z</time>
      </trkpt>
      <trkpt lat="42.7025360" lon="-7.0003050">
        <ele>956.8</ele>
        <time>2020-04-12T19:04:44Z</time>
      </trkpt>
      <trkpt lat="42.7025760" lon="-7.0003750">
        <ele>957.2</ele>
        <time>2020-04-12T19:04:46Z</time>
      </trkpt>
      <trkpt lat="42.7026150" lon="-7.0004460">
        <ele>957.5</ele>
        <time>2020-04-12T19:04:48Z</time>
      </trkpt>
      <trkpt lat="42.7026560" lon="-7.0005190">
        <ele>957.8</ele>
        <time>2020-04-12T19:04:50Z</time>
      </trkpt>
      <trkpt lat="42.7028330" lon="-7.0008320">
        <ele>959.1</ele>
        <time>2020-04-12T19:04:52Z</time>
      </trkpt>
      <trkpt lat="42.7028720" lon="-7.0009030">
        <ele>959.4</ele>
        <time>2020-04-12T19:04:54Z</time>
      </trkpt>
      <trkpt lat="42.7029120" lon="-7.0009730">
        <ele>959.6</ele>
        <time>2020-04-12T19:04:56Z</time>
      </trkpt>
      <trkpt lat="42.7029530" lon="-7.0010460">
        <ele>959.9</ele>
        <time>2020-04-12T19:04:58Z</time>
      </trkpt>
      <trkpt lat="42.7029930" lon="-7.0011180">
        <ele>960.2</ele>
        <time>2020-04-12T19:05:00Z</time>
      </trkpt>
      <trkpt lat="42.7030330" lon="-7.0011880">
        <ele>960.5</ele>
        <time>2020-04-12T19:05:02Z</time>
      </trkpt>
      <trkpt lat="42.7030720" lon="-7.0012570">
        <ele>960.7</ele>
        <time>2020-04-12T19:05:04Z</time>
      </trkpt>
      <trkpt lat="42.7031100" lon="-7.0013250">
        <ele>961.0</ele>
        <time>2020-04-12T19:05:06Z</time>
      </trkpt>
      <trkpt lat="42.7031470" lon="-7.0013910">
        <ele>961.3</ele>
        <time>2020-04-12T19:05:08Z</time>
      </trkpt>
      <trkpt lat="42.7033230" lon="-7.0016960">
        <ele>962.4</ele>
        <time>2020-04-12T19:05:10Z</time>
      </trkpt>
      <trkpt lat="42.7033700" lon="-7.0017540">
        <ele>962.7</ele>
        <time>2020-04-12T19:05:12Z</time>
      </trkpt>
      <trkpt lat="42.7034150" lon="-7.0018100">
        <ele>962.9</ele>
        <time>2020-04-12T19:05:14Z</time>
      </trkpt>
      <trkpt lat="42.7034590" lon="-7.0018650">
        <ele>963.2</ele>
        <time>2020-04-12T19:05:16Z</time>
      </trkpt>
      <trkpt lat="42.7035010" lon="-7.0019170">
        <ele>963.4</ele>
        <time>2020-04-12T19:05:18Z</time>
      </trkpt>
      <trkpt lat="42.7035420" lon="-7.0019680">
        <ele>963.6</ele>
        <time>2020-04-12T19:05:20Z</time>
      </trkpt>
      <trkpt lat="42.7035810" lon="-7.0020170">
        <ele>963.8</ele>
        <time>2020-04-12T19:05:22Z</time>
      </trkpt>
      <trkpt lat="42.7036200" lon="-7.0020650">
        <ele>964.0</ele>
        <time>2020-04-12T19:05:24Z</time>
      </trkpt>
      <trkpt lat="42.7037810" lon="-7.0022580">
        <ele>964.9</ele>
        <time>2020-04-12T19:05:26Z</time>
      </trkpt>
      <trkpt lat="42.7038260" lon="-7.0022960">
        <ele>965.2</ele>
        <time>2020-04-12T19:05:28Z</time>
      </trkpt>
      <trkpt lat="42.7038700" lon="-7.0023340">
        <ele>965.4</ele>
        <time>2020-04-12T19:05:30Z</time>
      </trkpt>
      <trkpt lat="42.7039130" lon="-7.0023700">
        <ele>965.6</ele>
        <time>2020-04-12T19:05:32Z</time>
      </trkpt>
      <trkpt lat="42.7039560" lon="-7.0024070">
        <ele>965.8</ele>
        <time>2020-04-12T19:05:34Z</time>
      </trkpt>
      <trkpt lat="42.7039980" lon="-7.0024420">
        <ele>966.0</ele>
        <time>2020-04-12T19:05:36Z</time>
      </trkpt>
      <trkpt lat="42.7040390" lon="-7.0024770">
        <ele>966.2</ele>
        <time>2020-04-12T19:05:38Z</time>
      </trkpt>
      <trkpt lat="42.7040820" lon="-7.0025130">
        <ele>966.4</ele>
        <time>2020-04-12T19:05:40Z</time>
      </trkpt>
      <trkpt lat="42.7041230" lon="-7.0025490">
        <ele>966.6</ele>
        <time>2020-04-12T19:05:42Z</time>
      </trkpt>
      <trkpt lat="42.7042970" lon="-7.0026960">
        <ele>967.5</ele>
        <time>2020-04-12T19:05:44Z</time>
      </trkpt>
      <trkpt lat="42.7043420" lon="-7.0027350">
        <ele>967.7</ele>
        <time>2020-04-12T19:05:46Z</time>
      </trkpt>
      <trkpt lat="42.7043870" lon="-7.0027730">
        <ele>967.9</ele>
        <time>2020-04-12T19:05:48Z</time>
      </trkpt>
      <trkpt lat="42.7044310" lon="-7.0028110">
        <ele>968.1</ele>
        <time>2020-04-12T19:05:50Z</time>
      </trkpt>
      <trkpt lat="42.7044750" lon="-7.0028480">
        <ele>968.4</ele>
        <time>2020-04-12T19:05:52Z</time>
      </trkpt>
      <trkpt lat="42.7045180" lon="-7.0028850">
        <ele>968.6</ele>
        <time>2020-04-12T19:05:54Z</time>
      </trkpt>
      <trkpt lat="42.7045610" lon="-7.0029210">
        <ele>968.8</ele>
        <time>2020-04-12T19:05:56Z</time>
      </trkpt>
      <trkpt lat="42.7046050" lon="-7.0029580">
        <ele>969.0</ele>
        <time>2020-04-12T19:05:58Z</time>
      </trkpt>
      <trkpt lat="42.7047830" lon="-7.0031120">
        <ele>970.0</ele>
        <time>2020-04-12T19:06:00Z</time>
      </trkpt>
      <trkpt lat="42.7048280" lon="-7.0031550">
        <ele>970.2</ele>
        <time>2020-04-12T19:06:02Z</time>
      </trkpt>
      <trkpt lat="42.7048700" lon="-7.0031960">
        <ele>970.4</ele>
        <time>2020-04-12T19:06:04Z</time>
      </trkpt>
      <trkpt lat="42.7049130" lon="-7.0032370">
        <ele>970.6</ele>
        <time>2020-04-12T19:06:06Z</time>
      </trkpt>
      <trkpt lat="42.7049580" lon="-7.0032800">
        <ele>970.8</ele>
        <time>2020-04-12T19:06:08Z</time>
      </trkpt>
      <trkpt lat="42.7050070" lon="-7.0033270">
        <ele>971.1</ele>
        <time>2020-04-12T19:06:10Z</time>
      </trkpt>
      <trkpt lat="42.7050560" lon="-7.0033740">
        <ele>971.3</ele>
        <time>2020-04-12T19:06:12Z</time>
      </trkpt>
      <trkpt lat="42.7051050" lon="-7.0034210">
        <ele>971.6</ele>
        <time>2020-04-12T19:06:14Z</time>
      </trkpt>
      <trkpt lat="42.7051540" lon="-7.0034680">
        <ele>971.9</ele>
        <time>2020-04-12T19:06:16Z</time>
      </trkpt>
      <trkpt lat="42.7052030" lon="-7.0035150">
        <ele>972.2</ele>
        <time>2020-04-12T19:06:18Z</time>
      </trkpt>
      <trkpt lat="42.7052520" lon="-7.0035620">
        <ele>972.5</ele>
        <time>2020-04-12T19:06:20Z</time>
      </trkpt>
      <trkpt lat="42.7054940" lon="-7.0037950">
        <ele>973.8</ele>
        <time>2020-04-12T19:06:22Z</time>
      </trkpt>
      <trkpt lat="42.7055360" lon="-7.0038500">
        <ele>974.0</ele>
        <time>2020-04-12T19:06:24Z</time>
      </trkpt>
      <trkpt lat="42.7055760" lon="-7.0039020">
        <ele>974.2</ele>
        <time>2020-04-12T19:06:26Z</time>
      </trkpt>
      <trkpt lat="42.7056140" lon="-7.0039520">
        <ele>974.4</ele>
        <time>2020-04-12T19:06:28Z</time>
      </trkpt>
      <trkpt lat="42.7056510" lon="-7.0040020">
        <ele>974.6</ele>
        <time>2020-04-12T19:06:30Z</time>
      </trkpt>
      <trkpt lat="42.7056880" lon="-7.0040500">
        <ele>974.8</ele>
        <time>2020-04-12T19:06:32Z</time>
      </trkpt>
      <trkpt lat="42.7057250" lon="-7.0040980">
        <ele>975.0</ele>
        <time>2020-04-12T19:06:35Z</time>
      </trkpt>
      <trkpt lat="42.7057610" lon="-7.0041460">
        <ele>975.2</ele>
        <time>2020-04-12T19:06:37Z</time>
      </trkpt>
      <trkpt lat="42.7057970" lon="-7.0041920">
        <ele>975.4</ele>
        <time>2020-04-12T19:06:39Z</time>
      </trkpt>
      <trkpt lat="42.7059500" lon="-7.0043950">
        <ele>976.2</ele>
        <time>2020-04-12T19:06:41Z</time>
      </trkpt>
      <trkpt lat="42.7059830" lon="-7.0044430">
        <ele>976.4</ele>
        <time>2020-04-12T19:06:43Z</time>
      </trkpt>
      <trkpt lat="42.7060170" lon="-7.0044910">
        <ele>976.6</ele>
        <time>2020-04-12T19:06:45Z</time>
      </trkpt>
      <trkpt lat="42.7060500" lon="-7.0045400">
        <ele>976.8</ele>
        <time>2020-04-12T19:06:47Z</time>
      </trkpt>
      <trkpt lat="42.7060830" lon="-7.0045880">
        <ele>977.0</ele>
        <time>2020-04-12T19:06:49Z</time>
      </trkpt>
      <trkpt lat="42.7061170" lon="-7.0046360">
        <ele>977.1</ele>
        <time>2020-04-12T19:06:51Z</time>
      </trkpt>
      <trkpt lat="42.7061500" lon="-7.0046850">
        <ele>977.3</ele>
        <time>2020-04-12T19:06:53Z</time>
      </trkpt>
      <trkpt lat="42.7061830" lon="-7.0047330">
        <ele>977.5</ele>
        <time>2020-04-12T19:06:55Z</time>
      </trkpt>
      <trkpt lat="42.7062160" lon="-7.0047810">
        <ele>977.7</ele>
        <time>2020-04-12T19:06:57Z</time>
      </trkpt>
      <trkpt lat="42.7063610" lon="-7.0049910">
        <ele>978.4</ele>
        <time>2020-04-12T19:06:59Z</time>
      </trkpt>
      <trkpt lat="42.7063990" lon="-7.0050410">
        <ele>978.7</ele>
        <time>2020-04-12T19:07:01Z</time>
      </trkpt>
      <trkpt lat="42.7064420" lon="-7.0050970">
        <ele>978.9</ele>
        <time>2020-04-12T19:07:03Z</time>
      </trkpt>
      <trkpt lat="42.7064870" lon="-7.0051560">
        <ele>979.2</ele>
        <time>2020-04-12T19:07:05Z</time>
      </trkpt>
      <trkpt lat="42.7065330" lon="-7.0052160">
        <ele>979.5</ele>
        <time>2020-04-12T19:07:07Z</time>
      </trkpt>
      <trkpt lat="42.7065790" lon="-7.0052760">
        <ele>979.8</ele>
        <time>2020-04-12T19:07:09Z</time>
      </trkpt>
      <trkpt lat="42.7066250" lon="-7.0053370">
        <ele>980.1</ele>
        <time>2020-04-12T19:07:11Z</time>
      </trkpt>
      <trkpt lat="42.7067730" lon="-7.0055350">
        <ele>980.9</ele>
        <time>2020-04-12T19:07:13Z</time>
      </trkpt>
      <trkpt lat="42.7068160" lon="-7.0056000">
        <ele>981.2</ele>
        <time>2020-04-12T19:07:15Z</time>
      </trkpt>
      <trkpt lat="42.7068580" lon="-7.0056640">
        <ele>981.4</ele>
        <time>2020-04-12T19:07:17Z</time>
      </trkpt>
      <trkpt lat="42.7069020" lon="-7.0057290">
        <ele>981.7</ele>
        <time>2020-04-12T19:07:19Z</time>
      </trkpt>
      <trkpt lat="42.7069450" lon="-7.0057940">
        <ele>982.0</ele>
        <time>2020-04-12T19:07:21Z</time>
      </trkpt>
      <trkpt lat="42.7069880" lon="-7.0058590">
        <ele>982.2</ele>
        <time>2020-04-12T19:07:23Z</time>
      </trkpt>
      <trkpt lat="42.7070300" lon="-7.0059230">
        <ele>982.5</ele>
        <time>2020-04-12T19:07:25Z</time>
      </trkpt>
      <trkpt lat="42.7070730" lon="-7.0059880">
        <ele>982.8</ele>
        <time>2020-04-12T19:07:27Z</time>
      </trkpt>
      <trkpt lat="42.7072420" lon="-7.0062290">
        <ele>983.7</ele>
        <time>2020-04-12T19:07:29Z</time>
      </trkpt>
      <trkpt lat="42.7072980" lon="-7.0062940">
        <ele>984.0</ele>
        <time>2020-04-12T19:07:31Z</time>
      </trkpt>
      <trkpt lat="42.7074070" lon="-7.0064150">
        <ele>984.6</ele>
        <time>2020-04-12T19:07:33Z</time>
      </trkpt>
      <trkpt lat="42.7074730" lon="-7.0064780">
        <ele>984.9</ele>
        <time>2020-04-12T19:07:35Z</time>
      </trkpt>
      <trkpt lat="42.7075920" lon="-7.0065750">
        <ele>985.5</ele>
        <time>2020-04-12T19:07:37Z</time>
      </trkpt>
      <trkpt lat="42.7076680" lon="-7.0066100">
        <ele>985.8</ele>
        <time>2020-04-12T19:07:39Z</time>
      </trkpt>
      <trkpt lat="42.7077440" lon="-7.0066460">
        <ele>986.1</ele>
        <time>2020-04-12T19:07:41Z</time>
      </trkpt>
      <trkpt lat="42.7079020" lon="-7.0067090">
        <ele>986.8</ele>
        <time>2020-04-12T19:07:43Z</time>
      </trkpt>
      <trkpt lat="42.7079820" lon="-7.0067250">
        <ele>987.1</ele>
        <time>2020-04-12T19:07:45Z</time>
      </trkpt>
      <trkpt lat="42.7081260" lon="-7.0067410">
        <ele>987.8</ele>
        <time>2020-04-12T19:07:47Z</time>
      </trkpt>
      <trkpt lat="42.7082090" lon="-7.0067120">
        <ele>988.1</ele>
        <time>2020-04-12T19:07:49Z</time>
      </trkpt>
      <trkpt lat="42.7082970" lon="-7.0066820">
        <ele>988.5</ele>
        <time>2020-04-12T19:07:51Z</time>
      </trkpt>
      <trkpt lat="42.7084590" lon="-7.0066060">
        <ele>989.3</ele>
        <time>2020-04-12T19:07:53Z</time>
      </trkpt>
      <trkpt lat="42.7085450" lon="-7.0065510">
        <ele>989.7</ele>
        <time>2020-04-12T19:07:55Z</time>
      </trkpt>
      <trkpt lat="42.7086810" lon="-7.0064350">
        <ele>990.4</ele>
        <time>2020-04-12T19:07:57Z</time>
      </trkpt>
      <trkpt lat="42.7088120" lon="-7.0062970">
        <ele>991.2</ele>
        <time>2020-04-12T19:07:59Z</time>
      </trkpt>
      <trkpt lat="42.7088790" lon="-7.0061970">
        <ele>991.5</ele>
        <time>2020-04-12T19:08:01Z</time>
      </trkpt>
      <trkpt lat="42.7089470" lon="-7.0060950">
        <ele>991.8</ele>
        <time>2020-04-12T19:08:03Z</time>
      </trkpt>
      <trkpt lat="42.7090160" lon="-7.0059920">
        <ele>991.9</ele>
        <time>2020-04-12T19:08:05Z</time>
      </trkpt>
      <trkpt lat="42.7090860" lon="-7.0058880">
        <ele>992.0</ele>
        <time>2020-04-12T19:08:07Z</time>
      </trkpt>
      <trkpt lat="42.7092650" lon="-7.0056200">
        <ele>993.2</ele>
        <time>2020-04-12T19:08:09Z</time>
      </trkpt>
      <trkpt lat="42.7093370" lon="-7.0055130">
        <ele>993.7</ele>
        <time>2020-04-12T19:08:11Z</time>
      </trkpt>
      <trkpt lat="42.7094070" lon="-7.0054080">
        <ele>994.2</ele>
        <time>2020-04-12T19:08:13Z</time>
      </trkpt>
      <trkpt lat="42.7094790" lon="-7.0053010">
        <ele>994.7</ele>
        <time>2020-04-12T19:08:15Z</time>
      </trkpt>
      <trkpt lat="42.7096630" lon="-7.0050350">
        <ele>996.0</ele>
        <time>2020-04-12T19:08:17Z</time>
      </trkpt>
      <trkpt lat="42.7097450" lon="-7.0049490">
        <ele>996.5</ele>
        <time>2020-04-12T19:08:19Z</time>
      </trkpt>
      <trkpt lat="42.7098810" lon="-7.0048200">
        <ele>997.2</ele>
        <time>2020-04-12T19:08:21Z</time>
      </trkpt>
      <trkpt lat="42.7099670" lon="-7.0047580">
        <ele>997.6</ele>
        <time>2020-04-12T19:08:23Z</time>
      </trkpt>
      <trkpt lat="42.7101040" lon="-7.0046820">
        <ele>997.5</ele>
        <time>2020-04-12T19:08:25Z</time>
      </trkpt>
      <trkpt lat="42.7102460" lon="-7.0046280">
        <ele>997.4</ele>
        <time>2020-04-12T19:08:27Z</time>
      </trkpt>
      <trkpt lat="42.7103370" lon="-7.0046230">
        <ele>997.4</ele>
        <time>2020-04-12T19:08:29Z</time>
      </trkpt>
      <trkpt lat="42.7104260" lon="-7.0046180">
        <ele>997.5</ele>
        <time>2020-04-12T19:08:31Z</time>
      </trkpt>
      <trkpt lat="42.7106050" lon="-7.0046150">
        <ele>997.5</ele>
        <time>2020-04-12T19:08:33Z</time>
      </trkpt>
      <trkpt lat="42.7107060" lon="-7.0046330">
        <ele>997.5</ele>
        <time>2020-04-12T19:08:35Z</time>
      </trkpt>
      <trkpt lat="42.7107540" lon="-7.0046570">
        <ele>997.5</ele>
        <time>2020-04-12T19:08:37Z</time>
      </trkpt>
      <trkpt lat="42.7107910" lon="-7.0046760">
        <ele>997.4</ele>
        <time>2020-04-12T19:08:39Z</time>
      </trkpt>
      <trkpt lat="42.7108580" lon="-7.0047120">
        <ele>997.3</ele>
        <time>2020-04-12T19:08:41Z</time>
      </trkpt>
      <trkpt lat="42.7109230" lon="-7.0047570">
        <ele>997.6</ele>
        <time>2020-04-12T19:08:43Z</time>
      </trkpt>
      <trkpt lat="42.7109600" lon="-7.0047820">
        <ele>997.8</ele>
        <time>2020-04-12T19:08:45Z</time>
      </trkpt>
      <trkpt lat="42.7109970" lon="-7.0048080">
        <ele>998.1</ele>
        <time>2020-04-12T19:08:47Z</time>
      </trkpt>
      <trkpt lat="42.7110340" lon="-7.0048330">
        <ele>998.4</ele>
        <time>2020-04-12T19:08:49Z</time>
      </trkpt>
      <trkpt lat="42.7110720" lon="-7.0048580">
        <ele>998.7</ele>
        <time>2020-04-12T19:08:51Z</time>
      </trkpt>
      <trkpt lat="42.7111090" lon="-7.0048830">
        <ele>999.0</ele>
        <time>2020-04-12T19:08:53Z</time>
      </trkpt>
      <trkpt lat="42.7111460" lon="-7.0049080">
        <ele>999.4</ele>
        <time>2020-04-12T19:08:55Z</time>
      </trkpt>
      <trkpt lat="42.7111830" lon="-7.0049340">
        <ele>999.7</ele>
        <time>2020-04-12T19:08:57Z</time>
      </trkpt>
      <trkpt lat="42.7112200" lon="-7.0049590">
        <ele>1000.0</ele>
        <time>2020-04-12T19:08:59Z</time>
      </trkpt>
      <trkpt lat="42.7112570" lon="-7.0049840">
        <ele>1000.3</ele>
        <time>2020-04-12T19:09:01Z</time>
      </trkpt>
      <trkpt lat="42.7112940" lon="-7.0050090">
        <ele>1000.7</ele>
        <time>2020-04-12T19:09:03Z</time>
      </trkpt>
      <trkpt lat="42.7113310" lon="-7.0050350">
        <ele>1001.0</ele>
        <time>2020-04-12T19:09:05Z</time>
      </trkpt>
      <trkpt lat="42.7113680" lon="-7.0050600">
        <ele>1001.4</ele>
        <time>2020-04-12T19:09:07Z</time>
      </trkpt>
      <trkpt lat="42.7114050" lon="-7.0050850">
        <ele>1001.7</ele>
        <time>2020-04-12T19:09:09Z</time>
      </trkpt>
      <trkpt lat="42.7114430" lon="-7.0051100">
        <ele>1002.1</ele>
        <time>2020-04-12T19:09:11Z</time>
      </trkpt>
      <trkpt lat="42.7114800" lon="-7.0051350">
        <ele>1002.4</ele>
        <time>2020-04-12T19:09:13Z</time>
      </trkpt>
      <trkpt lat="42.7115170" lon="-7.0051610">
        <ele>1002.7</ele>
        <time>2020-04-12T19:09:15Z</time>
      </trkpt>
      <trkpt lat="42.7115540" lon="-7.0051860">
        <ele>1003.1</ele>
        <time>2020-04-12T19:09:17Z</time>
      </trkpt>
      <trkpt lat="42.7115910" lon="-7.0052110">
        <ele>1003.4</ele>
        <time>2020-04-12T19:09:19Z</time>
      </trkpt>
      <trkpt lat="42.7116200" lon="-7.0052260">
        <ele>1003.6</ele>
        <time>2020-04-12T19:09:21Z</time>
      </trkpt>
      <trkpt lat="42.7116490" lon="-7.0052410">
        <ele>1003.9</ele>
        <time>2020-04-12T19:09:23Z</time>
      </trkpt>
      <trkpt lat="42.7116770" lon="-7.0052560">
        <ele>1004.1</ele>
        <time>2020-04-12T19:09:25Z</time>
      </trkpt>
      <trkpt lat="42.7117040" lon="-7.0052710">
        <ele>1004.3</ele>
        <time>2020-04-12T19:09:27Z</time>
      </trkpt>
      <trkpt lat="42.7117840" lon="-7.0053060">
        <ele>1005.1</ele>
        <time>2020-04-12T19:09:29Z</time>
      </trkpt>
      <trkpt lat="42.7118140" lon="-7.0053150">
        <ele>1005.6</ele>
        <time>2020-04-12T19:09:31Z</time>
      </trkpt>
      <trkpt lat="42.7118440" lon="-7.0053230">
        <ele>1006.2</ele>
        <time>2020-04-12T19:09:33Z</time>
      </trkpt>
      <trkpt lat="42.7118730" lon="-7.0053310">
        <ele>1006.7</ele>
        <time>2020-04-12T19:09:35Z</time>
      </trkpt>
      <trkpt lat="42.7119020" lon="-7.0053390">
        <ele>1007.3</ele>
        <time>2020-04-12T19:09:37Z</time>
      </trkpt>
      <trkpt lat="42.7119890" lon="-7.0053600">
        <ele>1009.1</ele>
        <time>2020-04-12T19:09:39Z</time>
      </trkpt>
      <trkpt lat="42.7120200" lon="-7.0053600">
        <ele>1009.7</ele>
        <time>2020-04-12T19:09:41Z</time>
      </trkpt>
      <trkpt lat="42.7120490" lon="-7.0053600">
        <ele>1010.3</ele>
        <time>2020-04-12T19:09:43Z</time>
      </trkpt>
      <trkpt lat="42.7120790" lon="-7.0053600">
        <ele>1010.9</ele>
        <time>2020-04-12T19:09:45Z</time>
      </trkpt>
      <trkpt lat="42.7121090" lon="-7.0053600">
        <ele>1011.4</ele>
        <time>2020-04-12T19:09:47Z</time>
      </trkpt>
      <trkpt lat="42.7121930" lon="-7.0053580">
        <ele>1012.8</ele>
        <time>2020-04-12T19:09:49Z</time>
      </trkpt>
      <trkpt lat="42.7122230" lon="-7.0053520">
        <ele>1013.3</ele>
        <time>2020-04-12T19:09:51Z</time>
      </trkpt>
      <trkpt lat="42.7122520" lon="-7.0053460">
        <ele>1013.8</ele>
        <time>2020-04-12T19:09:53Z</time>
      </trkpt>
      <trkpt lat="42.7122830" lon="-7.0053400">
        <ele>1014.3</ele>
        <time>2020-04-12T19:09:55Z</time>
      </trkpt>
      <trkpt lat="42.7123130" lon="-7.0053340">
        <ele>1014.8</ele>
        <time>2020-04-12T19:09:57Z</time>
      </trkpt>
      <trkpt lat="42.7123430" lon="-7.0053290">
        <ele>1015.4</ele>
        <time>2020-04-12T19:09:59Z</time>
      </trkpt>
      <trkpt lat="42.7123730" lon="-7.0053230">
        <ele>1016.0</ele>
        <time>2020-04-12T19:10:01Z</time>
      </trkpt>
      <trkpt lat="42.7124030" lon="-7.0053170">
        <ele>1016.7</ele>
        <time>2020-04-12T19:10:03Z</time>
      </trkpt>
      <trkpt lat="42.7124340" lon="-7.0053110">
        <ele>1017.4</ele>
        <time>2020-04-12T19:10:05Z</time>
      </trkpt>
      <trkpt lat="42.7124640" lon="-7.0053050">
        <ele>1018.0</ele>
        <time>2020-04-12T19:10:07Z</time>
      </trkpt>
      <trkpt lat="42.7124940" lon="-7.0053000">
        <ele>1018.7</ele>
        <time>2020-04-12T19:10:09Z</time>
      </trkpt>
      <trkpt lat="42.7125230" lon="-7.0052940">
        <ele>1019.4</ele>
        <time>2020-04-12T19:10:11Z</time>
      </trkpt>
      <trkpt lat="42.7125530" lon="-7.0052880">
        <ele>1020.0</ele>
        <time>2020-04-12T19:10:13Z</time>
      </trkpt>
      <trkpt lat="42.7127250" lon="-7.0052610">
        <ele>1023.4</ele>
        <time>2020-04-12T19:10:15Z</time>
      </trkpt>
      <trkpt lat="42.7127730" lon="-7.0052650">
        <ele>1023.7</ele>
        <time>2020-04-12T19:10:17Z</time>
      </trkpt>
      <trkpt lat="42.7128260" lon="-7.0052680">
        <ele>1024.0</ele>
        <time>2020-04-12T19:10:19Z</time>
      </trkpt>
      <trkpt lat="42.7128790" lon="-7.0052710">
        <ele>1024.5</ele>
        <time>2020-04-12T19:10:21Z</time>
      </trkpt>
      <trkpt lat="42.7129300" lon="-7.0052740">
        <ele>1025.0</ele>
        <time>2020-04-12T19:10:23Z</time>
      </trkpt>
      <trkpt lat="42.7129810" lon="-7.0052770">
        <ele>1025.5</ele>
        <time>2020-04-12T19:10:25Z</time>
      </trkpt>
      <trkpt lat="42.7130350" lon="-7.0052810">
        <ele>1026.1</ele>
        <time>2020-04-12T19:10:27Z</time>
      </trkpt>
      <trkpt lat="42.7132130" lon="-7.0053060">
        <ele>1028.1</ele>
        <time>2020-04-12T19:10:29Z</time>
      </trkpt>
      <trkpt lat="42.7132620" lon="-7.0053290">
        <ele>1028.6</ele>
        <time>2020-04-12T19:10:31Z</time>
      </trkpt>
      <trkpt lat="42.7133110" lon="-7.0053520">
        <ele>1029.2</ele>
        <time>2020-04-12T19:10:33Z</time>
      </trkpt>
      <trkpt lat="42.7134110" lon="-7.0054110">
        <ele>1030.4</ele>
        <time>2020-04-12T19:10:35Z</time>
      </trkpt>
      <trkpt lat="42.7134530" lon="-7.0054500">
        <ele>1030.9</ele>
        <time>2020-04-12T19:10:37Z</time>
      </trkpt>
      <trkpt lat="42.7134940" lon="-7.0054900">
        <ele>1031.4</ele>
        <time>2020-04-12T19:10:39Z</time>
      </trkpt>
      <trkpt lat="42.7135360" lon="-7.0055300">
        <ele>1032.2</ele>
        <time>2020-04-12T19:10:41Z</time>
      </trkpt>
      <trkpt lat="42.7135770" lon="-7.0055700">
        <ele>1032.2</ele>
        <time>2020-04-12T19:10:43Z</time>
      </trkpt>
      <trkpt lat="42.7136910" lon="-7.0056880">
        <ele>1032.4</ele>
        <time>2020-04-12T19:10:45Z</time>
      </trkpt>
      <trkpt lat="42.7137400" lon="-7.0057490">
        <ele>1032.6</ele>
        <time>2020-04-12T19:10:47Z</time>
      </trkpt>
      <trkpt lat="42.7137940" lon="-7.0058170">
        <ele>1032.8</ele>
        <time>2020-04-12T19:10:49Z</time>
      </trkpt>
      <trkpt lat="42.7138500" lon="-7.0058860">
        <ele>1033.1</ele>
        <time>2020-04-12T19:10:51Z</time>
      </trkpt>
      <trkpt lat="42.7139080" lon="-7.0059570">
        <ele>1033.3</ele>
        <time>2020-04-12T19:10:53Z</time>
      </trkpt>
      <trkpt lat="42.7139650" lon="-7.0060290">
        <ele>1033.6</ele>
        <time>2020-04-12T19:10:55Z</time>
      </trkpt>
      <trkpt lat="42.7140220" lon="-7.0060990">
        <ele>1033.9</ele>
        <time>2020-04-12T19:10:57Z</time>
      </trkpt>
      <trkpt lat="42.7140800" lon="-7.0061710">
        <ele>1034.2</ele>
        <time>2020-04-12T19:10:59Z</time>
      </trkpt>
      <trkpt lat="42.7142930" lon="-7.0064300">
        <ele>1035.2</ele>
        <time>2020-04-12T19:11:01Z</time>
      </trkpt>
      <trkpt lat="42.7143530" lon="-7.0064980">
        <ele>1035.5</ele>
        <time>2020-04-12T19:11:03Z</time>
      </trkpt>
      <trkpt lat="42.7144140" lon="-7.0065660">
        <ele>1035.8</ele>
        <time>2020-04-12T19:11:05Z</time>
      </trkpt>
      <trkpt lat="42.7144750" lon="-7.0066350">
        <ele>1036.0</ele>
        <time>2020-04-12T19:11:07Z</time>
      </trkpt>
      <trkpt lat="42.7145360" lon="-7.0067040">
        <ele>1036.2</ele>
        <time>2020-04-12T19:11:09Z</time>
      </trkpt>
      <trkpt lat="42.7147220" lon="-7.0069080">
        <ele>1037.0</ele>
        <time>2020-04-12T19:11:11Z</time>
      </trkpt>
      <trkpt lat="42.7147910" lon="-7.0069650">
        <ele>1037.2</ele>
        <time>2020-04-12T19:11:13Z</time>
      </trkpt>
      <trkpt lat="42.7148610" lon="-7.0070230">
        <ele>1037.5</ele>
        <time>2020-04-12T19:11:15Z</time>
      </trkpt>
      <trkpt lat="42.7149320" lon="-7.0070820">
        <ele>1037.8</ele>
        <time>2020-04-12T19:11:17Z</time>
      </trkpt>
      <trkpt lat="42.7151120" lon="-7.0072310">
        <ele>1038.6</ele>
        <time>2020-04-12T19:11:19Z</time>
      </trkpt>
      <trkpt lat="42.7151820" lon="-7.0072890">
        <ele>1038.9</ele>
        <time>2020-04-12T19:11:21Z</time>
      </trkpt>
      <trkpt lat="42.7152510" lon="-7.0073470">
        <ele>1039.2</ele>
        <time>2020-04-12T19:11:23Z</time>
      </trkpt>
      <trkpt lat="42.7153200" lon="-7.0074040">
        <ele>1039.5</ele>
        <time>2020-04-12T19:11:25Z</time>
      </trkpt>
      <trkpt lat="42.7153890" lon="-7.0074610">
        <ele>1039.8</ele>
        <time>2020-04-12T19:11:27Z</time>
      </trkpt>
      <trkpt lat="42.7155610" lon="-7.0076180">
        <ele>1040.6</ele>
        <time>2020-04-12T19:11:29Z</time>
      </trkpt>
      <trkpt lat="42.7156210" lon="-7.0076880">
        <ele>1040.9</ele>
        <time>2020-04-12T19:11:31Z</time>
      </trkpt>
      <trkpt lat="42.7157230" lon="-7.0078180">
        <ele>1041.4</ele>
        <time>2020-04-12T19:11:33Z</time>
      </trkpt>
      <trkpt lat="42.7157720" lon="-7.0078990">
        <ele>1041.7</ele>
        <time>2020-04-12T19:11:35Z</time>
      </trkpt>
      <trkpt lat="42.7158200" lon="-7.0079790">
        <ele>1042.0</ele>
        <time>2020-04-12T19:11:37Z</time>
      </trkpt>
      <trkpt lat="42.7158680" lon="-7.0080580">
        <ele>1042.3</ele>
        <time>2020-04-12T19:11:39Z</time>
      </trkpt>
      <trkpt lat="42.7159720" lon="-7.0082420">
        <ele>1042.9</ele>
        <time>2020-04-12T19:11:41Z</time>
      </trkpt>
      <trkpt lat="42.7160140" lon="-7.0083260">
        <ele>1043.2</ele>
        <time>2020-04-12T19:11:43Z</time>
      </trkpt>
      <trkpt lat="42.7160570" lon="-7.0084100">
        <ele>1043.4</ele>
        <time>2020-04-12T19:11:45Z</time>
      </trkpt>
      <trkpt lat="42.7160990" lon="-7.0084930">
        <ele>1043.6</ele>
        <time>2020-04-12T19:11:47Z</time>
      </trkpt>
      <trkpt lat="42.7161420" lon="-7.0085760">
        <ele>1043.8</ele>
        <time>2020-04-12T19:11:49Z</time>
      </trkpt>
      <trkpt lat="42.7162720" lon="-7.0087990">
        <ele>1044.1</ele>
        <time>2020-04-12T19:11:51Z</time>
      </trkpt>
      <trkpt lat="42.7163200" lon="-7.0088540">
        <ele>1044.3</ele>
        <time>2020-04-12T19:11:53Z</time>
      </trkpt>
      <trkpt lat="42.7163620" lon="-7.0089020">
        <ele>1044.5</ele>
        <time>2020-04-12T19:11:55Z</time>
      </trkpt>
      <trkpt lat="42.7164010" lon="-7.0089470">
        <ele>1044.7</ele>
        <time>2020-04-12T19:11:57Z</time>
      </trkpt>
      <trkpt lat="42.7165090" lon="-7.0090650">
        <ele>1045.3</ele>
        <time>2020-04-12T19:11:59Z</time>
      </trkpt>
      <trkpt lat="42.7165480" lon="-7.0090980">
        <ele>1045.5</ele>
        <time>2020-04-12T19:12:01Z</time>
      </trkpt>
      <trkpt lat="42.7165860" lon="-7.0091290">
        <ele>1045.7</ele>
        <time>2020-04-12T19:12:03Z</time>
      </trkpt>
      <trkpt lat="42.7166690" lon="-7.0091920">
        <ele>1046.1</ele>
        <time>2020-04-12T19:12:05Z</time>
      </trkpt>
      <trkpt lat="42.7167100" lon="-7.0092020">
        <ele>1046.3</ele>
        <time>2020-04-12T19:12:07Z</time>
      </trkpt>
      <trkpt lat="42.7167510" lon="-7.0092110">
        <ele>1046.5</ele>
        <time>2020-04-12T19:12:09Z</time>
      </trkpt>
      <trkpt lat="42.7167920" lon="-7.0092210">
        <ele>1046.8</ele>
        <time>2020-04-12T19:12:11Z</time>
      </trkpt>
      <trkpt lat="42.7168320" lon="-7.0092310">
        <ele>1047.0</ele>
        <time>2020-04-12T19:12:13Z</time>
      </trkpt>
      <trkpt lat="42.7168720" lon="-7.0092400">
        <ele>1047.3</ele>
        <time>2020-04-12T19:12:15Z</time>
      </trkpt>
      <trkpt lat="42.7169120" lon="-7.0092500">
        <ele>1047.5</ele>
        <time>2020-04-12T19:12:17Z</time>
      </trkpt>
      <trkpt lat="42.7170540" lon="-7.0092780">
        <ele>1048.4</ele>
        <time>2020-04-12T19:12:19Z</time>
      </trkpt>
      <trkpt lat="42.7170980" lon="-7.0092700">
        <ele>1048.7</ele>
        <time>2020-04-12T19:12:21Z</time>
      </trkpt>
      <trkpt lat="42.7171450" lon="-7.0092620">
        <ele>1049.0</ele>
        <time>2020-04-12T19:12:23Z</time>
      </trkpt>
      <trkpt lat="42.7171920" lon="-7.0092530">
        <ele>1049.3</ele>
        <time>2020-04-12T19:12:25Z</time>
      </trkpt>
      <trkpt lat="42.7173000" lon="-7.0092320">
        <ele>1050.0</ele>
        <time>2020-04-12T19:12:27Z</time>
      </trkpt>
      <trkpt lat="42.7173470" lon="-7.0092190">
        <ele>1050.3</ele>
        <time>2020-04-12T19:12:29Z</time>
      </trkpt>
      <trkpt lat="42.7173930" lon="-7.0092060">
        <ele>1050.5</ele>
        <time>2020-04-12T19:12:31Z</time>
      </trkpt>
      <trkpt lat="42.7174830" lon="-7.0091620">
        <ele>1051.1</ele>
        <time>2020-04-12T19:12:33Z</time>
      </trkpt>
      <trkpt lat="42.7175230" lon="-7.0091280">
        <ele>1051.4</ele>
        <time>2020-04-12T19:12:35Z</time>
      </trkpt>
      <trkpt lat="42.7175640" lon="-7.0090940">
        <ele>1051.7</ele>
        <time>2020-04-12T19:12:37Z</time>
      </trkpt>
      <trkpt lat="42.7176040" lon="-7.0090590">
        <ele>1052.0</ele>
        <time>2020-04-12T19:12:39Z</time>
      </trkpt>
      <trkpt lat="42.7176450" lon="-7.0090240">
        <ele>1052.4</ele>
        <time>2020-04-12T19:12:41Z</time>
      </trkpt>
      <trkpt lat="42.7176870" lon="-7.0089890">
        <ele>1052.7</ele>
        <time>2020-04-12T19:12:43Z</time>
      </trkpt>
      <trkpt lat="42.7178130" lon="-7.0088760">
        <ele>1053.7</ele>
        <time>2020-04-12T19:12:45Z</time>
      </trkpt>
      <trkpt lat="42.7178520" lon="-7.0088360">
        <ele>1054.0</ele>
        <time>2020-04-12T19:12:47Z</time>
      </trkpt>
      <trkpt lat="42.7178910" lon="-7.0087960">
        <ele>1054.3</ele>
        <time>2020-04-12T19:12:49Z</time>
      </trkpt>
      <trkpt lat="42.7179300" lon="-7.0087560">
        <ele>1054.6</ele>
        <time>2020-04-12T19:12:51Z</time>
      </trkpt>
      <trkpt lat="42.7179690" lon="-7.0087160">
        <ele>1054.9</ele>
        <time>2020-04-12T19:12:53Z</time>
      </trkpt>
      <trkpt lat="42.7180070" lon="-7.0086760">
        <ele>1055.3</ele>
        <time>2020-04-12T19:12:55Z</time>
      </trkpt>
      <trkpt lat="42.7180450" lon="-7.0086380">
        <ele>1055.6</ele>
        <time>2020-04-12T19:12:57Z</time>
      </trkpt>
      <trkpt lat="42.7181840" lon="-7.0084950">
        <ele>1056.6</ele>
        <time>2020-04-12T19:12:59Z</time>
      </trkpt>
      <trkpt lat="42.7182310" lon="-7.0084460">
        <ele>1057.0</ele>
        <time>2020-04-12T19:13:01Z</time>
      </trkpt>
      <trkpt lat="42.7182820" lon="-7.0083940">
        <ele>1057.4</ele>
        <time>2020-04-12T19:13:03Z</time>
      </trkpt>
      <trkpt lat="42.7183360" lon="-7.0083390">
        <ele>1057.7</ele>
        <time>2020-04-12T19:13:05Z</time>
      </trkpt>
      <trkpt lat="42.7183910" lon="-7.0082820">
        <ele>1058.1</ele>
        <time>2020-04-12T19:13:07Z</time>
      </trkpt>
      <trkpt lat="42.7185480" lon="-7.0081330">
        <ele>1058.9</ele>
        <time>2020-04-12T19:13:09Z</time>
      </trkpt>
      <trkpt lat="42.7186110" lon="-7.0080880">
        <ele>1059.2</ele>
        <time>2020-04-12T19:13:11Z</time>
      </trkpt>
      <trkpt lat="42.7186740" lon="-7.0080440">
        <ele>1059.5</ele>
        <time>2020-04-12T19:13:13Z</time>
      </trkpt>
      <trkpt lat="42.7188050" lon="-7.0079760">
        <ele>1060.1</ele>
        <time>2020-04-12T19:13:15Z</time>
      </trkpt>
      <trkpt lat="42.7188730" lon="-7.0079590">
        <ele>1060.4</ele>
        <time>2020-04-12T19:13:17Z</time>
      </trkpt>
      <trkpt lat="42.7189410" lon="-7.0079420">
        <ele>1060.7</ele>
        <time>2020-04-12T19:13:19Z</time>
      </trkpt>
      <trkpt lat="42.7190840" lon="-7.0079160">
        <ele>1061.4</ele>
        <time>2020-04-12T19:13:21Z</time>
      </trkpt>
      <trkpt lat="42.7191510" lon="-7.0079110">
        <ele>1061.8</ele>
        <time>2020-04-12T19:13:23Z</time>
      </trkpt>
      <trkpt lat="42.7192150" lon="-7.0079070">
        <ele>1062.1</ele>
        <time>2020-04-12T19:13:25Z</time>
      </trkpt>
      <trkpt lat="42.7193500" lon="-7.0079160">
        <ele>1062.8</ele>
        <time>2020-04-12T19:13:27Z</time>
      </trkpt>
      <trkpt lat="42.7194110" lon="-7.0079400">
        <ele>1063.1</ele>
        <time>2020-04-12T19:13:29Z</time>
      </trkpt>
      <trkpt lat="42.7194710" lon="-7.0079640">
        <ele>1063.4</ele>
        <time>2020-04-12T19:13:31Z</time>
      </trkpt>
      <trkpt lat="42.7195310" lon="-7.0079880">
        <ele>1063.7</ele>
        <time>2020-04-12T19:13:33Z</time>
      </trkpt>
      <trkpt lat="42.7195930" lon="-7.0080130">
        <ele>1064.0</ele>
        <time>2020-04-12T19:13:35Z</time>
      </trkpt>
      <trkpt lat="42.7197580" lon="-7.0081050">
        <ele>1064.9</ele>
        <time>2020-04-12T19:13:37Z</time>
      </trkpt>
      <trkpt lat="42.7198150" lon="-7.0081590">
        <ele>1065.2</ele>
        <time>2020-04-12T19:13:39Z</time>
      </trkpt>
      <trkpt lat="42.7198720" lon="-7.0082130">
        <ele>1065.5</ele>
        <time>2020-04-12T19:13:41Z</time>
      </trkpt>
      <trkpt lat="42.7199280" lon="-7.0082650">
        <ele>1065.8</ele>
        <time>2020-04-12T19:13:43Z</time>
      </trkpt>
      <trkpt lat="42.7200710" lon="-7.0084100">
        <ele>1066.7</ele>
        <time>2020-04-12T19:13:45Z</time>
      </trkpt>
      <trkpt lat="42.7201130" lon="-7.0084820">
        <ele>1067.0</ele>
        <time>2020-04-12T19:13:47Z</time>
      </trkpt>
      <trkpt lat="42.7201560" lon="-7.0085570">
        <ele>1067.4</ele>
        <time>2020-04-12T19:13:49Z</time>
      </trkpt>
      <trkpt lat="42.7202000" lon="-7.0086330">
        <ele>1067.7</ele>
        <time>2020-04-12T19:13:51Z</time>
      </trkpt>
      <trkpt lat="42.7202980" lon="-7.0088200">
        <ele>1068.5</ele>
        <time>2020-04-12T19:13:53Z</time>
      </trkpt>
      <trkpt lat="42.7203230" lon="-7.0089120">
        <ele>1068.8</ele>
        <time>2020-04-12T19:13:55Z</time>
      </trkpt>
      <trkpt lat="42.7203480" lon="-7.0090030">
        <ele>1069.1</ele>
        <time>2020-04-12T19:13:57Z</time>
      </trkpt>
      <trkpt lat="42.7203910" lon="-7.0091850">
        <ele>1069.8</ele>
        <time>2020-04-12T19:13:59Z</time>
      </trkpt>
      <trkpt lat="42.7204060" lon="-7.0092790">
        <ele>1070.1</ele>
        <time>2020-04-12T19:14:01Z</time>
      </trkpt>
      <trkpt lat="42.7204310" lon="-7.0094550">
        <ele>1070.7</ele>
        <time>2020-04-12T19:14:03Z</time>
      </trkpt>
      <trkpt lat="42.7204330" lon="-7.0095520">
        <ele>1071.1</ele>
        <time>2020-04-12T19:14:05Z</time>
      </trkpt>
      <trkpt lat="42.7204350" lon="-7.0096530">
        <ele>1071.5</ele>
        <time>2020-04-12T19:14:07Z</time>
      </trkpt>
      <trkpt lat="42.7204370" lon="-7.0098640">
        <ele>1072.3</ele>
        <time>2020-04-12T19:14:09Z</time>
      </trkpt>
      <trkpt lat="42.7204230" lon="-7.0099690">
        <ele>1072.7</ele>
        <time>2020-04-12T19:14:11Z</time>
      </trkpt>
      <trkpt lat="42.7204090" lon="-7.0100740">
        <ele>1073.1</ele>
        <time>2020-04-12T19:14:13Z</time>
      </trkpt>
      <trkpt lat="42.7203950" lon="-7.0101780">
        <ele>1073.5</ele>
        <time>2020-04-12T19:14:15Z</time>
      </trkpt>
      <trkpt lat="42.7203810" lon="-7.0102820">
        <ele>1073.9</ele>
        <time>2020-04-12T19:14:17Z</time>
      </trkpt>
      <trkpt lat="42.7203680" lon="-7.0103860">
        <ele>1074.4</ele>
        <time>2020-04-12T19:14:19Z</time>
      </trkpt>
      <trkpt lat="42.7203540" lon="-7.0104880">
        <ele>1074.8</ele>
        <time>2020-04-12T19:14:21Z</time>
      </trkpt>
      <trkpt lat="42.7203400" lon="-7.0105900">
        <ele>1075.2</ele>
        <time>2020-04-12T19:14:23Z</time>
      </trkpt>
      <trkpt lat="42.7202890" lon="-7.0109920">
        <ele>1076.3</ele>
        <time>2020-04-12T19:14:25Z</time>
      </trkpt>
      <trkpt lat="42.7202820" lon="-7.0110920">
        <ele>1076.0</ele>
        <time>2020-04-12T19:14:27Z</time>
      </trkpt>
      <trkpt lat="42.7202760" lon="-7.0111920">
        <ele>1075.8</ele>
        <time>2020-04-12T19:14:29Z</time>
      </trkpt>
      <trkpt lat="42.7202690" lon="-7.0112920">
        <ele>1075.6</ele>
        <time>2020-04-12T19:14:31Z</time>
      </trkpt>
      <trkpt lat="42.7202700" lon="-7.0115240">
        <ele>1075.4</ele>
        <time>2020-04-12T19:14:33Z</time>
      </trkpt>
      <trkpt lat="42.7202860" lon="-7.0116510">
        <ele>1075.4</ele>
        <time>2020-04-12T19:14:35Z</time>
      </trkpt>
      <trkpt lat="42.7203210" lon="-7.0118770">
        <ele>1075.3</ele>
        <time>2020-04-12T19:14:37Z</time>
      </trkpt>
      <trkpt lat="42.7203730" lon="-7.0121030">
        <ele>1075.1</ele>
        <time>2020-04-12T19:14:39Z</time>
      </trkpt>
      <trkpt lat="42.7204290" lon="-7.0122480">
        <ele>1075.0</ele>
        <time>2020-04-12T19:14:41Z</time>
      </trkpt>
      <trkpt lat="42.7205370" lon="-7.0124460">
        <ele>1074.9</ele>
        <time>2020-04-12T19:14:43Z</time>
      </trkpt>
      <trkpt lat="42.7206690" lon="-7.0126220">
        <ele>1074.8</ele>
        <time>2020-04-12T19:14:45Z</time>
      </trkpt>
      <trkpt lat="42.7208250" lon="-7.0127670">
        <ele>1074.7</ele>
        <time>2020-04-12T19:14:47Z</time>
      </trkpt>
      <trkpt lat="42.7209520" lon="-7.0128410">
        <ele>1074.6</ele>
        <time>2020-04-12T19:14:49Z</time>
      </trkpt>
      <trkpt lat="42.7211700" lon="-7.0129510">
        <ele>1074.4</ele>
        <time>2020-04-12T19:14:51Z</time>
      </trkpt>
      <trkpt lat="42.7212840" lon="-7.0129950">
        <ele>1074.3</ele>
        <time>2020-04-12T19:14:53Z</time>
      </trkpt>
      <trkpt lat="42.7213830" lon="-7.0130330">
        <ele>1074.1</ele>
        <time>2020-04-12T19:14:55Z</time>
      </trkpt>
      <trkpt lat="42.7215830" lon="-7.0131120">
        <ele>1074.0</ele>
        <time>2020-04-12T19:14:57Z</time>
      </trkpt>
      <trkpt lat="42.7216560" lon="-7.0131420">
        <ele>1074.4</ele>
        <time>2020-04-12T19:14:59Z</time>
      </trkpt>
      <trkpt lat="42.7217200" lon="-7.0131690">
        <ele>1074.8</ele>
        <time>2020-04-12T19:15:01Z</time>
      </trkpt>
      <trkpt lat="42.7217770" lon="-7.0131930">
        <ele>1075.2</ele>
        <time>2020-04-12T19:15:03Z</time>
      </trkpt>
      <trkpt lat="42.7218300" lon="-7.0132150">
        <ele>1075.7</ele>
        <time>2020-04-12T19:15:05Z</time>
      </trkpt>
      <trkpt lat="42.7219890" lon="-7.0132940">
        <ele>1077.2</ele>
        <time>2020-04-12T19:15:07Z</time>
      </trkpt>
      <trkpt lat="42.7220300" lon="-7.0133280">
        <ele>1077.6</ele>
        <time>2020-04-12T19:15:09Z</time>
      </trkpt>
      <trkpt lat="42.7220710" lon="-7.0133610">
        <ele>1078.0</ele>
        <time>2020-04-12T19:15:11Z</time>
      </trkpt>
      <trkpt lat="42.7221530" lon="-7.0134330">
        <ele>1078.8</ele>
        <time>2020-04-12T19:15:13Z</time>
      </trkpt>
      <trkpt lat="42.7221900" lon="-7.0134700">
        <ele>1079.2</ele>
        <time>2020-04-12T19:15:15Z</time>
      </trkpt>
      <trkpt lat="42.7222260" lon="-7.0135060">
        <ele>1079.6</ele>
        <time>2020-04-12T19:15:17Z</time>
      </trkpt>
      <trkpt lat="42.7222930" lon="-7.0135900">
        <ele>1080.4</ele>
        <time>2020-04-12T19:15:19Z</time>
      </trkpt>
      <trkpt lat="42.7223210" lon="-7.0136380">
        <ele>1080.8</ele>
        <time>2020-04-12T19:15:21Z</time>
      </trkpt>
      <trkpt lat="42.7223480" lon="-7.0136860">
        <ele>1081.1</ele>
        <time>2020-04-12T19:15:23Z</time>
      </trkpt>
      <trkpt lat="42.7223760" lon="-7.0137340">
        <ele>1081.5</ele>
        <time>2020-04-12T19:15:25Z</time>
      </trkpt>
      <trkpt lat="42.7224030" lon="-7.0137820">
        <ele>1081.8</ele>
        <time>2020-04-12T19:15:27Z</time>
      </trkpt>
      <trkpt lat="42.7224310" lon="-7.0138300">
        <ele>1082.2</ele>
        <time>2020-04-12T19:15:29Z</time>
      </trkpt>
      <trkpt lat="42.7224590" lon="-7.0138780">
        <ele>1082.6</ele>
        <time>2020-04-12T19:15:31Z</time>
      </trkpt>
      <trkpt lat="42.7224860" lon="-7.0139250">
        <ele>1082.9</ele>
        <time>2020-04-12T19:15:33Z</time>
      </trkpt>
      <trkpt lat="42.7225940" lon="-7.0141130">
        <ele>1084.3</ele>
        <time>2020-04-12T19:15:35Z</time>
      </trkpt>
      <trkpt lat="42.7226220" lon="-7.0141610">
        <ele>1084.7</ele>
        <time>2020-04-12T19:15:37Z</time>
      </trkpt>
      <trkpt lat="42.7226490" lon="-7.0142090">
        <ele>1085.1</ele>
        <time>2020-04-12T19:15:39Z</time>
      </trkpt>
      <trkpt lat="42.7226740" lon="-7.0142520">
        <ele>1085.4</ele>
        <time>2020-04-12T19:15:41Z</time>
      </trkpt>
      <trkpt lat="42.7227000" lon="-7.0142980">
        <ele>1085.8</ele>
        <time>2020-04-12T19:15:43Z</time>
      </trkpt>
      <trkpt lat="42.7227280" lon="-7.0143460">
        <ele>1086.2</ele>
        <time>2020-04-12T19:15:45Z</time>
      </trkpt>
      <trkpt lat="42.7227550" lon="-7.0143930">
        <ele>1086.5</ele>
        <time>2020-04-12T19:15:47Z</time>
      </trkpt>
      <trkpt lat="42.7227830" lon="-7.0144410">
        <ele>1086.9</ele>
        <time>2020-04-12T19:15:49Z</time>
      </trkpt>
      <trkpt lat="42.7228940" lon="-7.0146240">
        <ele>1088.3</ele>
        <time>2020-04-12T19:15:51Z</time>
      </trkpt>
      <trkpt lat="42.7229330" lon="-7.0146630">
        <ele>1088.8</ele>
        <time>2020-04-12T19:15:53Z</time>
      </trkpt>
      <trkpt lat="42.7230040" lon="-7.0147310">
        <ele>1089.5</ele>
        <time>2020-04-12T19:15:55Z</time>
      </trkpt>
      <trkpt lat="42.7230490" lon="-7.0147660">
        <ele>1090.0</ele>
        <time>2020-04-12T19:15:57Z</time>
      </trkpt>
      <trkpt lat="42.7230930" lon="-7.0148000">
        <ele>1090.4</ele>
        <time>2020-04-12T19:15:59Z</time>
      </trkpt>
      <trkpt lat="42.7231360" lon="-7.0148330">
        <ele>1090.8</ele>
        <time>2020-04-12T19:16:01Z</time>
      </trkpt>
      <trkpt lat="42.7231780" lon="-7.0148660">
        <ele>1091.2</ele>
        <time>2020-04-12T19:16:03Z</time>
      </trkpt>
      <trkpt lat="42.7233030" lon="-7.0149610">
        <ele>1092.4</ele>
        <time>2020-04-12T19:16:05Z</time>
      </trkpt>
      <trkpt lat="42.7233500" lon="-7.0149740">
        <ele>1092.8</ele>
        <time>2020-04-12T19:16:07Z</time>
      </trkpt>
      <trkpt lat="42.7233960" lon="-7.0149880">
        <ele>1093.2</ele>
        <time>2020-04-12T19:16:09Z</time>
      </trkpt>
      <trkpt lat="42.7234420" lon="-7.0150010">
        <ele>1093.6</ele>
        <time>2020-04-12T19:16:11Z</time>
      </trkpt>
      <trkpt lat="42.7234890" lon="-7.0150150">
        <ele>1094.0</ele>
        <time>2020-04-12T19:16:13Z</time>
      </trkpt>
      <trkpt lat="42.7235360" lon="-7.0150290">
        <ele>1094.4</ele>
        <time>2020-04-12T19:16:15Z</time>
      </trkpt>
      <trkpt lat="42.7235830" lon="-7.0150420">
        <ele>1094.8</ele>
        <time>2020-04-12T19:16:17Z</time>
      </trkpt>
      <trkpt lat="42.7236300" lon="-7.0150560">
        <ele>1095.2</ele>
        <time>2020-04-12T19:16:19Z</time>
      </trkpt>
      <trkpt lat="42.7236770" lon="-7.0150690">
        <ele>1095.6</ele>
        <time>2020-04-12T19:16:21Z</time>
      </trkpt>
      <trkpt lat="42.7237230" lon="-7.0150830">
        <ele>1096.0</ele>
        <time>2020-04-12T19:16:23Z</time>
      </trkpt>
      <trkpt lat="42.7237700" lon="-7.0150960">
        <ele>1096.4</ele>
        <time>2020-04-12T19:16:25Z</time>
      </trkpt>
      <trkpt lat="42.7238160" lon="-7.0151100">
        <ele>1096.8</ele>
        <time>2020-04-12T19:16:27Z</time>
      </trkpt>
      <trkpt lat="42.7238630" lon="-7.0151240">
        <ele>1097.1</ele>
        <time>2020-04-12T19:16:29Z</time>
      </trkpt>
      <trkpt lat="42.7239090" lon="-7.0151370">
        <ele>1097.5</ele>
        <time>2020-04-12T19:16:31Z</time>
      </trkpt>
      <trkpt lat="42.7241840" lon="-7.0152230">
        <ele>1099.4</ele>
        <time>2020-04-12T19:16:33Z</time>
      </trkpt>
      <trkpt lat="42.7242380" lon="-7.0152510">
        <ele>1099.5</ele>
        <time>2020-04-12T19:16:35Z</time>
      </trkpt>
      <trkpt lat="42.7242950" lon="-7.0152820">
        <ele>1099.7</ele>
        <time>2020-04-12T19:16:37Z</time>
      </trkpt>
      <trkpt lat="42.7243530" lon="-7.0153130">
        <ele>1100.0</ele>
        <time>2020-04-12T19:16:39Z</time>
      </trkpt>
      <trkpt lat="42.7244950" lon="-7.0153950">
        <ele>1100.9</ele>
        <time>2020-04-12T19:16:41Z</time>
      </trkpt>
      <trkpt lat="42.7245470" lon="-7.0154470">
        <ele>1101.2</ele>
        <time>2020-04-12T19:16:43Z</time>
      </trkpt>
      <trkpt lat="42.7245990" lon="-7.0154990">
        <ele>1101.6</ele>
        <time>2020-04-12T19:16:45Z</time>
      </trkpt>
      <trkpt lat="42.7247040" lon="-7.0156120">
        <ele>1102.4</ele>
        <time>2020-04-12T19:16:47Z</time>
      </trkpt>
      <trkpt lat="42.7247460" lon="-7.0156800">
        <ele>1102.8</ele>
        <time>2020-04-12T19:16:49Z</time>
      </trkpt>
      <trkpt lat="42.7248220" lon="-7.0158050">
        <ele>1103.5</ele>
        <time>2020-04-12T19:16:51Z</time>
      </trkpt>
      <trkpt lat="42.7248550" lon="-7.0158810">
        <ele>1103.9</ele>
        <time>2020-04-12T19:16:53Z</time>
      </trkpt>
      <trkpt lat="42.7248880" lon="-7.0159580">
        <ele>1104.3</ele>
        <time>2020-04-12T19:16:55Z</time>
      </trkpt>
      <trkpt lat="42.7249490" lon="-7.0161120">
        <ele>1105.1</ele>
        <time>2020-04-12T19:16:57Z</time>
      </trkpt>
      <trkpt lat="42.7249740" lon="-7.0161980">
        <ele>1105.5</ele>
        <time>2020-04-12T19:16:59Z</time>
      </trkpt>
      <trkpt lat="42.7250000" lon="-7.0162850">
        <ele>1105.9</ele>
        <time>2020-04-12T19:17:01Z</time>
      </trkpt>
      <trkpt lat="42.7250460" lon="-7.0164570">
        <ele>1106.3</ele>
        <time>2020-04-12T19:17:03Z</time>
      </trkpt>
      <trkpt lat="42.7250670" lon="-7.0165470">
        <ele>1106.1</ele>
        <time>2020-04-12T19:17:05Z</time>
      </trkpt>
      <trkpt lat="42.7250890" lon="-7.0166360">
        <ele>1106.0</ele>
        <time>2020-04-12T19:17:07Z</time>
      </trkpt>
      <trkpt lat="42.7251110" lon="-7.0167280">
        <ele>1105.9</ele>
        <time>2020-04-12T19:17:09Z</time>
      </trkpt>
      <trkpt lat="42.7251760" lon="-7.0169310">
        <ele>1105.8</ele>
        <time>2020-04-12T19:17:11Z</time>
      </trkpt>
      <trkpt lat="42.7252120" lon="-7.0170130">
        <ele>1105.8</ele>
        <time>2020-04-12T19:17:13Z</time>
      </trkpt>
      <trkpt lat="42.7252490" lon="-7.0170960">
        <ele>1106.2</ele>
        <time>2020-04-12T19:17:15Z</time>
      </trkpt>
      <trkpt lat="42.7252870" lon="-7.0171800">
        <ele>1106.5</ele>
        <time>2020-04-12T19:17:17Z</time>
      </trkpt>
      <trkpt lat="42.7253240" lon="-7.0172650">
        <ele>1106.9</ele>
        <time>2020-04-12T19:17:19Z</time>
      </trkpt>
      <trkpt lat="42.7254340" lon="-7.0175200">
        <ele>1108.2</ele>
        <time>2020-04-12T19:17:21Z</time>
      </trkpt>
      <trkpt lat="42.7254700" lon="-7.0176200">
        <ele>1108.5</ele>
        <time>2020-04-12T19:17:23Z</time>
      </trkpt>
      <trkpt lat="42.7255080" lon="-7.0177290">
        <ele>1109.0</ele>
        <time>2020-04-12T19:17:25Z</time>
      </trkpt>
      <trkpt lat="42.7255490" lon="-7.0178420">
        <ele>1109.6</ele>
        <time>2020-04-12T19:17:27Z</time>
      </trkpt>
      <trkpt lat="42.7255900" lon="-7.0179570">
        <ele>1110.1</ele>
        <time>2020-04-12T19:17:29Z</time>
      </trkpt>
      <trkpt lat="42.7256320" lon="-7.0180770">
        <ele>1110.6</ele>
        <time>2020-04-12T19:17:31Z</time>
      </trkpt>
      <trkpt lat="42.7257590" lon="-7.0184390">
        <ele>1111.7</ele>
        <time>2020-04-12T19:17:33Z</time>
      </trkpt>
      <trkpt lat="42.7257990" lon="-7.0185660">
        <ele>1112.0</ele>
        <time>2020-04-12T19:17:35Z</time>
      </trkpt>
      <trkpt lat="42.7258400" lon="-7.0186950">
        <ele>1112.2</ele>
        <time>2020-04-12T19:17:37Z</time>
      </trkpt>
      <trkpt lat="42.7258820" lon="-7.0188280">
        <ele>1112.2</ele>
        <time>2020-04-12T19:17:39Z</time>
      </trkpt>
      <trkpt lat="42.7259700" lon="-7.0191430">
        <ele>1111.8</ele>
        <time>2020-04-12T19:17:41Z</time>
      </trkpt>
      <trkpt lat="42.7260000" lon="-7.0192930">
        <ele>1111.7</ele>
        <time>2020-04-12T19:17:43Z</time>
      </trkpt>
      <trkpt lat="42.7260310" lon="-7.0194520">
        <ele>1111.6</ele>
        <time>2020-04-12T19:17:45Z</time>
      </trkpt>
      <trkpt lat="42.7260650" lon="-7.0196190">
        <ele>1111.4</ele>
        <time>2020-04-12T19:17:47Z</time>
      </trkpt>
      <trkpt lat="42.7261500" lon="-7.0200500">
        <ele>1110.7</ele>
        <time>2020-04-12T19:17:49Z</time>
      </trkpt>
      <trkpt lat="42.7261500" lon="-7.0200500">
        <ele>1110.7</ele>
        <time>2020-04-12T19:17:49Z</time>
      </trkpt>
      <trkpt lat="42.7261500" lon="-7.0200500">
        <ele>1110.7</ele>
        <time>2020-04-12T19:17:51Z</time>
      </trkpt>
      <trkpt lat="42.7261500" lon="-7.0200500">
        <ele>1110.7</ele>
        <time>2020-04-12T19:17:53Z</time>
      </trkpt>
      <trkpt lat="42.7261500" lon="-7.0200500">
        <ele>1110.7</ele>
        <time>2020-04-12T19:17:55Z</time>
      </trkpt>
      <trkpt lat="42.7261500" lon="-7.0200500">
        <ele>1110.7</ele>
        <time>2020-04-12T19:17:57Z</time>
      </trkpt>
      <trkpt lat="42.7261500" lon="-7.0200500">
        <ele>1110.7</ele>
        <time>2020-04-12T19:17:59Z</time>
      </trkpt>
      <trkpt lat="42.7261500" lon="-7.0200500">
        <ele>1110.7</ele>
        <time>2020-04-12T19:18:01Z</time>
      </trkpt>
      <trkpt lat="42.7260000" lon="-7.0195360">
        <ele>1110.9</ele>
        <time>2020-04-14T18:11:48Z</time>
      </trkpt>
      <trkpt lat="42.7260000" lon="-7.0195360">
        <ele>1110.9</ele>
        <time>2020-04-14T18:11:50Z</time>
      </trkpt>
      <trkpt lat="42.7260000" lon="-7.0195360">
        <ele>1110.9</ele>
        <time>2020-04-14T18:11:52Z</time>
      </trkpt>
      <trkpt lat="42.7260000" lon="-7.0195360">
        <ele>1110.9</ele>
        <time>2020-04-14T18:11:54Z</time>
      </trkpt>
      <trkpt lat="42.7260000" lon="-7.0195360">
        <ele>1110.9</ele>
        <time>2020-04-14T18:11:56Z</time>
      </trkpt>
      <trkpt lat="42.7260000" lon="-7.0195360">
        <ele>1110.9</ele>
        <time>2020-04-14T18:11:58Z</time>
      </trkpt>
      <trkpt lat="42.7260000" lon="-7.0195360">
        <ele>1110.9</ele>
        <time>2020-04-14T18:12:00Z</time>
      </trkpt>
      <trkpt lat="42.7260000" lon="-7.0195360">
        <ele>1110.9</ele>
        <time>2020-04-14T18:12:02Z</time>
      </trkpt>
      <trkpt lat="42.7260000" lon="-7.0195360">
        <ele>1110.9</ele>
        <time>2020-04-14T18:12:04Z</time>
      </trkpt>
      <trkpt lat="42.7260000" lon="-7.0195360">
        <ele>1110.9</ele>
        <time>2020-04-14T18:12:06Z</time>
      </trkpt>
      <trkpt lat="42.7260000" lon="-7.0195360">
        <ele>1110.9</ele>
        <time>2020-04-14T18:12:08Z</time>
      </trkpt>
      <trkpt lat="42.7260000" lon="-7.0195360">
        <ele>1110.9</ele>
        <time>2020-04-14T18:12:10Z</time>
      </trkpt>
      <trkpt lat="42.7260000" lon="-7.0195360">
        <ele>1110.9</ele>
        <time>2020-04-14T18:12:12Z</time>
      </trkpt>
      <trkpt lat="42.7260000" lon="-7.0195360">
        <ele>1110.9</ele>
        <time>2020-04-14T18:12:14Z</time>
      </trkpt>
      <trkpt lat="42.7260000" lon="-7.0195360">
        <ele>1110.9</ele>
        <time>2020-04-14T18:12:16Z</time>
      </trkpt>
      <trkpt lat="42.7260000" lon="-7.0195360">
        <ele>1110.9</ele>
        <time>2020-04-14T18:12:18Z</time>
      </trkpt>
      <trkpt lat="42.7260000" lon="-7.0195360">
        <ele>1110.9</ele>
        <time>2020-04-14T18:12:20Z</time>
      </trkpt>
      <trkpt lat="42.7260000" lon="-7.0195360">
        <ele>1110.9</ele>
        <time>2020-04-14T18:12:22Z</time>
      </trkpt>
      <trkpt lat="42.7260000" lon="-7.0195360">
        <ele>1110.9</ele>
        <time>2020-04-14T18:12:24Z</time>
      </trkpt>
      <trkpt lat="42.7260000" lon="-7.0195360">
        <ele>1110.9</ele>
        <time>2020-04-14T18:12:26Z</time>
      </trkpt>
      <trkpt lat="42.7260000" lon="-7.0195360">
        <ele>1110.9</ele>
        <time>2020-04-14T18:12:26Z</time>
      </trkpt>
      <trkpt lat="42.7260000" lon="-7.0195360">
        <ele>1110.9</ele>
        <time>2020-04-14T18:12:28Z</time>
      </trkpt>
      <trkpt lat="42.7260040" lon="-7.0195650">
        <ele>1110.8</ele>
        <time>2020-04-14T18:12:30Z</time>
      </trkpt>
      <trkpt lat="42.7260160" lon="-7.0196400">
        <ele>1110.8</ele>
        <time>2020-04-14T18:12:32Z</time>
      </trkpt>
      <trkpt lat="42.7260380" lon="-7.0197990">
        <ele>1110.6</ele>
        <time>2020-04-14T18:12:34Z</time>
      </trkpt>
      <trkpt lat="42.7260390" lon="-7.0198980">
        <ele>1110.5</ele>
        <time>2020-04-14T18:12:36Z</time>
      </trkpt>
      <trkpt lat="42.7260670" lon="-7.0200200">
        <ele>1110.3</ele>
        <time>2020-04-14T18:12:38Z</time>
      </trkpt>
      <trkpt lat="42.7261400" lon="-7.0200450">
        <ele>1110.2</ele>
        <time>2020-04-14T18:12:40Z</time>
      </trkpt>
      <trkpt lat="42.7260630" lon="-7.0200780">
        <ele>1110.0</ele>
        <time>2020-04-14T18:12:42Z</time>
      </trkpt>
      <trkpt lat="42.7259850" lon="-7.0201770">
        <ele>1109.2</ele>
        <time>2020-04-14T18:12:44Z</time>
      </trkpt>
      <trkpt lat="42.7259440" lon="-7.0203040">
        <ele>1108.8</ele>
        <time>2020-04-14T18:12:46Z</time>
      </trkpt>
      <trkpt lat="42.7258960" lon="-7.0203900">
        <ele>1108.9</ele>
        <time>2020-04-14T18:12:48Z</time>
      </trkpt>
      <trkpt lat="42.7257990" lon="-7.0205610">
        <ele>1109.3</ele>
        <time>2020-04-14T18:12:50Z</time>
      </trkpt>
      <trkpt lat="42.7257520" lon="-7.0206500">
        <ele>1109.4</ele>
        <time>2020-04-14T18:12:52Z</time>
      </trkpt>
      <trkpt lat="42.7257140" lon="-7.0207930">
        <ele>1109.6</ele>
        <time>2020-04-14T18:12:54Z</time>
      </trkpt>
      <trkpt lat="42.7257050" lon="-7.0209030">
        <ele>1110.0</ele>
        <time>2020-04-14T18:12:56Z</time>
      </trkpt>
      <trkpt lat="42.7256970" lon="-7.0210150">
        <ele>1110.3</ele>
        <time>2020-04-14T18:12:58Z</time>
      </trkpt>
      <trkpt lat="42.7256880" lon="-7.0211260">
        <ele>1110.7</ele>
        <time>2020-04-14T18:13:00Z</time>
      </trkpt>
      <trkpt lat="42.7256660" lon="-7.0214100">
        <ele>1111.6</ele>
        <time>2020-04-14T18:13:02Z</time>
      </trkpt>
      <trkpt lat="42.7256580" lon="-7.0215200">
        <ele>1111.9</ele>
        <time>2020-04-14T18:13:04Z</time>
      </trkpt>
      <trkpt lat="42.7256500" lon="-7.0216310">
        <ele>1112.1</ele>
        <time>2020-04-14T18:13:06Z</time>
      </trkpt>
      <trkpt lat="42.7256410" lon="-7.0217420">
        <ele>1112.3</ele>
        <time>2020-04-14T18:13:08Z</time>
      </trkpt>
      <trkpt lat="42.7256190" lon="-7.0220250">
        <ele>1112.6</ele>
        <time>2020-04-14T18:13:10Z</time>
      </trkpt>
      <trkpt lat="42.7255950" lon="-7.0221310">
        <ele>1112.7</ele>
        <time>2020-04-14T18:13:12Z</time>
      </trkpt>
      <trkpt lat="42.7255710" lon="-7.0222360">
        <ele>1112.9</ele>
        <time>2020-04-14T18:13:14Z</time>
      </trkpt>
      <trkpt lat="42.7255130" lon="-7.0224150">
        <ele>1113.2</ele>
        <time>2020-04-14T18:13:16Z</time>
      </trkpt>
      <trkpt lat="42.7254710" lon="-7.0225100">
        <ele>1113.3</ele>
        <time>2020-04-14T18:13:18Z</time>
      </trkpt>
      <trkpt lat="42.7253860" lon="-7.0226600">
        <ele>1113.5</ele>
        <time>2020-04-14T18:13:20Z</time>
      </trkpt>
      <trkpt lat="42.7252980" lon="-7.0227750">
        <ele>1113.6</ele>
        <time>2020-04-14T18:13:22Z</time>
      </trkpt>
      <trkpt lat="42.7251990" lon="-7.0228740">
        <ele>1113.7</ele>
        <time>2020-04-14T18:13:24Z</time>
      </trkpt>
      <trkpt lat="42.7251240" lon="-7.0229210">
        <ele>1113.8</ele>
        <time>2020-04-14T18:13:26Z</time>
      </trkpt>
      <trkpt lat="42.7250490" lon="-7.0229680">
        <ele>1113.9</ele>
        <time>2020-04-14T18:13:28Z</time>
      </trkpt>
      <trkpt lat="42.7249750" lon="-7.0230150">
        <ele>1114.0</ele>
        <time>2020-04-14T18:13:30Z</time>
      </trkpt>
      <trkpt lat="42.7249030" lon="-7.0230610">
        <ele>1114.1</ele>
        <time>2020-04-14T18:13:32Z</time>
      </trkpt>
      <trkpt lat="42.7248310" lon="-7.0231060">
        <ele>1114.2</ele>
        <time>2020-04-14T18:13:34Z</time>
      </trkpt>
      <trkpt lat="42.7246030" lon="-7.0232560">
        <ele>1114.8</ele>
        <time>2020-04-14T18:13:36Z</time>
      </trkpt>
      <trkpt lat="42.7245390" lon="-7.0233160">
        <ele>1115.1</ele>
        <time>2020-04-14T18:13:38Z</time>
      </trkpt>
      <trkpt lat="42.7244460" lon="-7.0234280">
        <ele>1115.6</ele>
        <time>2020-04-14T18:13:40Z</time>
      </trkpt>
      <trkpt lat="42.7243850" lon="-7.0235610">
        <ele>1116.1</ele>
        <time>2020-04-14T18:13:42Z</time>
      </trkpt>
      <trkpt lat="42.7243600" lon="-7.0236600">
        <ele>1116.5</ele>
        <time>2020-04-14T18:13:44Z</time>
      </trkpt>
      <trkpt lat="42.7243280" lon="-7.0238250">
        <ele>1117.1</ele>
        <time>2020-04-14T18:13:46Z</time>
      </trkpt>
      <trkpt lat="42.7243230" lon="-7.0239290">
        <ele>1117.6</ele>
        <time>2020-04-14T18:13:48Z</time>
      </trkpt>
      <trkpt lat="42.7243290" lon="-7.0240870">
        <ele>1118.4</ele>
        <time>2020-04-14T18:13:50Z</time>
      </trkpt>
      <trkpt lat="42.7243500" lon="-7.0242380">
        <ele>1119.2</ele>
        <time>2020-04-14T18:13:52Z</time>
      </trkpt>
      <trkpt lat="42.7243750" lon="-7.0243300">
        <ele>1119.7</ele>
        <time>2020-04-14T18:13:54Z</time>
      </trkpt>
      <trkpt lat="42.7244000" lon="-7.0244220">
        <ele>1120.2</ele>
        <time>2020-04-14T18:13:56Z</time>
      </trkpt>
      <trkpt lat="42.7244250" lon="-7.0245140">
        <ele>1120.7</ele>
        <time>2020-04-14T18:13:58Z</time>
      </trkpt>
      <trkpt lat="42.7244500" lon="-7.0246070">
        <ele>1121.2</ele>
        <time>2020-04-14T18:14:00Z</time>
      </trkpt>
      <trkpt lat="42.7244750" lon="-7.0247000">
        <ele>1121.7</ele>
        <time>2020-04-14T18:14:02Z</time>
      </trkpt>
      <trkpt lat="42.7245500" lon="-7.0250010">
        <ele>1123.3</ele>
        <time>2020-04-14T18:14:04Z</time>
      </trkpt>
      <trkpt lat="42.7245500" lon="-7.0251000">
        <ele>1123.8</ele>
        <time>2020-04-14T18:14:06Z</time>
      </trkpt>
      <trkpt lat="42.7245430" lon="-7.0252640">
        <ele>1124.6</ele>
        <time>2020-04-14T18:14:08Z</time>
      </trkpt>
      <trkpt lat="42.7245260" lon="-7.0253560">
        <ele>1125.0</ele>
        <time>2020-04-14T18:14:10Z</time>
      </trkpt>
      <trkpt lat="42.7244920" lon="-7.0255000">
        <ele>1125.7</ele>
        <time>2020-04-14T18:14:12Z</time>
      </trkpt>
      <trkpt lat="42.7244670" lon="-7.0255870">
        <ele>1126.1</ele>
        <time>2020-04-14T18:14:14Z</time>
      </trkpt>
      <trkpt lat="42.7244180" lon="-7.0257300">
        <ele>1126.9</ele>
        <time>2020-04-14T18:14:16Z</time>
      </trkpt>
      <trkpt lat="42.7243850" lon="-7.0258050">
        <ele>1127.2</ele>
        <time>2020-04-14T18:14:18Z</time>
      </trkpt>
      <trkpt lat="42.7243530" lon="-7.0258770">
        <ele>1127.6</ele>
        <time>2020-04-14T18:14:20Z</time>
      </trkpt>
      <trkpt lat="42.7243220" lon="-7.0259490">
        <ele>1127.8</ele>
        <time>2020-04-14T18:14:22Z</time>
      </trkpt>
      <trkpt lat="42.7242910" lon="-7.0260190">
        <ele>1128.0</ele>
        <time>2020-04-14T18:14:24Z</time>
      </trkpt>
      <trkpt lat="42.7242610" lon="-7.0260880">
        <ele>1128.2</ele>
        <time>2020-04-14T18:14:26Z</time>
      </trkpt>
      <trkpt lat="42.7242310" lon="-7.0261570">
        <ele>1128.5</ele>
        <time>2020-04-14T18:14:28Z</time>
      </trkpt>
      <trkpt lat="42.7241170" lon="-7.0264200">
        <ele>1130.4</ele>
        <time>2020-04-14T18:14:30Z</time>
      </trkpt>
      <trkpt lat="42.7240990" lon="-7.0264900">
        <ele>1131.0</ele>
        <time>2020-04-14T18:14:32Z</time>
      </trkpt>
      <trkpt lat="42.7240820" lon="-7.0265560">
        <ele>1131.6</ele>
        <time>2020-04-14T18:14:34Z</time>
      </trkpt>
      <trkpt lat="42.7240660" lon="-7.0266180">
        <ele>1132.1</ele>
        <time>2020-04-14T18:14:36Z</time>
      </trkpt>
      <trkpt lat="42.7240500" lon="-7.0266780">
        <ele>1132.6</ele>
        <time>2020-04-14T18:14:38Z</time>
      </trkpt>
      <trkpt lat="42.7240350" lon="-7.0267370">
        <ele>1133.0</ele>
        <time>2020-04-14T18:14:40Z</time>
      </trkpt>
      <trkpt lat="42.7240200" lon="-7.0267950">
        <ele>1133.5</ele>
        <time>2020-04-14T18:14:42Z</time>
      </trkpt>
      <trkpt lat="42.7240050" lon="-7.0268520">
        <ele>1134.0</ele>
        <time>2020-04-14T18:14:44Z</time>
      </trkpt>
      <trkpt lat="42.7239900" lon="-7.0269100">
        <ele>1134.4</ele>
        <time>2020-04-14T18:14:46Z</time>
      </trkpt>
      <trkpt lat="42.7239750" lon="-7.0269670">
        <ele>1134.9</ele>
        <time>2020-04-14T18:14:48Z</time>
      </trkpt>
      <trkpt lat="42.7239600" lon="-7.0270250">
        <ele>1135.3</ele>
        <time>2020-04-14T18:14:50Z</time>
      </trkpt>
      <trkpt lat="42.7239450" lon="-7.0270830">
        <ele>1135.8</ele>
        <time>2020-04-14T18:14:52Z</time>
      </trkpt>
      <trkpt lat="42.7238650" lon="-7.0273940">
        <ele>1138.2</ele>
        <time>2020-04-14T18:14:54Z</time>
      </trkpt>
      <trkpt lat="42.7238540" lon="-7.0274530">
        <ele>1138.7</ele>
        <time>2020-04-14T18:14:56Z</time>
      </trkpt>
      <trkpt lat="42.7238430" lon="-7.0275120">
        <ele>1139.2</ele>
        <time>2020-04-14T18:14:58Z</time>
      </trkpt>
      <trkpt lat="42.7238320" lon="-7.0275710">
        <ele>1139.6</ele>
        <time>2020-04-14T18:15:00Z</time>
      </trkpt>
      <trkpt lat="42.7238210" lon="-7.0276300">
        <ele>1140.1</ele>
        <time>2020-04-14T18:15:02Z</time>
      </trkpt>
      <trkpt lat="42.7237980" lon="-7.0277880">
        <ele>1141.4</ele>
        <time>2020-04-14T18:15:04Z</time>
      </trkpt>
      <trkpt lat="42.7237960" lon="-7.0278480">
        <ele>1141.9</ele>
        <time>2020-04-14T18:15:06Z</time>
      </trkpt>
      <trkpt lat="42.7237930" lon="-7.0279090">
        <ele>1142.4</ele>
        <time>2020-04-14T18:15:08Z</time>
      </trkpt>
      <trkpt lat="42.7237940" lon="-7.0280380">
        <ele>1143.4</ele>
        <time>2020-04-14T18:15:10Z</time>
      </trkpt>
      <trkpt lat="42.7238010" lon="-7.0280980">
        <ele>1143.9</ele>
        <time>2020-04-14T18:15:12Z</time>
      </trkpt>
      <trkpt lat="42.7238070" lon="-7.0281570">
        <ele>1144.3</ele>
        <time>2020-04-14T18:15:14Z</time>
      </trkpt>
      <trkpt lat="42.7238140" lon="-7.0282170">
        <ele>1144.8</ele>
        <time>2020-04-14T18:15:16Z</time>
      </trkpt>
      <trkpt lat="42.7238210" lon="-7.0282750">
        <ele>1145.2</ele>
        <time>2020-04-14T18:15:18Z</time>
      </trkpt>
      <trkpt lat="42.7238400" lon="-7.0284530">
        <ele>1146.6</ele>
        <time>2020-04-14T18:15:20Z</time>
      </trkpt>
      <trkpt lat="42.7238360" lon="-7.0285180">
        <ele>1147.1</ele>
        <time>2020-04-14T18:15:22Z</time>
      </trkpt>
      <trkpt lat="42.7238320" lon="-7.0285850">
        <ele>1147.6</ele>
        <time>2020-04-14T18:15:24Z</time>
      </trkpt>
      <trkpt lat="42.7238280" lon="-7.0286510">
        <ele>1148.1</ele>
        <time>2020-04-14T18:15:26Z</time>
      </trkpt>
      <trkpt lat="42.7238140" lon="-7.0288020">
        <ele>1149.4</ele>
        <time>2020-04-14T18:15:28Z</time>
      </trkpt>
      <trkpt lat="42.7237960" lon="-7.0288630">
        <ele>1150.0</ele>
        <time>2020-04-14T18:15:30Z</time>
      </trkpt>
      <trkpt lat="42.7237790" lon="-7.0289230">
        <ele>1150.5</ele>
        <time>2020-04-14T18:15:32Z</time>
      </trkpt>
      <trkpt lat="42.7237400" lon="-7.0290330">
        <ele>1151.6</ele>
        <time>2020-04-14T18:15:34Z</time>
      </trkpt>
      <trkpt lat="42.7237140" lon="-7.0290870">
        <ele>1152.2</ele>
        <time>2020-04-14T18:15:36Z</time>
      </trkpt>
      <trkpt lat="42.7236630" lon="-7.0291880">
        <ele>1153.3</ele>
        <time>2020-04-14T18:15:38Z</time>
      </trkpt>
      <trkpt lat="42.7236280" lon="-7.0292280">
        <ele>1153.9</ele>
        <time>2020-04-14T18:15:40Z</time>
      </trkpt>
      <trkpt lat="42.7235930" lon="-7.0292690">
        <ele>1154.5</ele>
        <time>2020-04-14T18:15:42Z</time>
      </trkpt>
      <trkpt lat="42.7235240" lon="-7.0293420">
        <ele>1155.6</ele>
        <time>2020-04-14T18:15:44Z</time>
      </trkpt>
      <trkpt lat="42.7234860" lon="-7.0293750">
        <ele>1156.2</ele>
        <time>2020-04-14T18:15:46Z</time>
      </trkpt>
      <trkpt lat="42.7234470" lon="-7.0294080">
        <ele>1156.8</ele>
        <time>2020-04-14T18:15:48Z</time>
      </trkpt>
      <trkpt lat="42.7233680" lon="-7.0294600">
        <ele>1158.0</ele>
        <time>2020-04-14T18:15:50Z</time>
      </trkpt>
      <trkpt lat="42.7233250" lon="-7.0294800">
        <ele>1158.6</ele>
        <time>2020-04-14T18:15:52Z</time>
      </trkpt>
      <trkpt lat="42.7232820" lon="-7.0295000">
        <ele>1159.1</ele>
        <time>2020-04-14T18:15:54Z</time>
      </trkpt>
      <trkpt lat="42.7231890" lon="-7.0295300">
        <ele>1160.4</ele>
        <time>2020-04-14T18:15:56Z</time>
      </trkpt>
      <trkpt lat="42.7231470" lon="-7.0295300">
        <ele>1160.9</ele>
        <time>2020-04-14T18:15:58Z</time>
      </trkpt>
      <trkpt lat="42.7231070" lon="-7.0295300">
        <ele>1161.4</ele>
        <time>2020-04-14T18:16:00Z</time>
      </trkpt>
      <trkpt lat="42.7230660" lon="-7.0295300">
        <ele>1161.9</ele>
        <time>2020-04-14T18:16:02Z</time>
      </trkpt>
      <trkpt lat="42.7229600" lon="-7.0295280">
        <ele>1163.2</ele>
        <time>2020-04-14T18:16:04Z</time>
      </trkpt>
      <trkpt lat="42.7229200" lon="-7.0295200">
        <ele>1163.7</ele>
        <time>2020-04-14T18:16:06Z</time>
      </trkpt>
      <trkpt lat="42.7228800" lon="-7.0295110">
        <ele>1164.2</ele>
        <time>2020-04-14T18:16:08Z</time>
      </trkpt>
      <trkpt lat="42.7228400" lon="-7.0295030">
        <ele>1164.7</ele>
        <time>2020-04-14T18:16:10Z</time>
      </trkpt>
      <trkpt lat="42.7228000" lon="-7.0294950">
        <ele>1165.2</ele>
        <time>2020-04-14T18:16:12Z</time>
      </trkpt>
      <trkpt lat="42.7227600" lon="-7.0294870">
        <ele>1165.7</ele>
        <time>2020-04-14T18:16:14Z</time>
      </trkpt>
      <trkpt lat="42.7227190" lon="-7.0294780">
        <ele>1166.3</ele>
        <time>2020-04-14T18:16:16Z</time>
      </trkpt>
      <trkpt lat="42.7225890" lon="-7.0294550">
        <ele>1168.0</ele>
        <time>2020-04-14T18:16:18Z</time>
      </trkpt>
      <trkpt lat="42.7225490" lon="-7.0294500">
        <ele>1168.5</ele>
        <time>2020-04-14T18:16:20Z</time>
      </trkpt>
      <trkpt lat="42.7225080" lon="-7.0294450">
        <ele>1169.0</ele>
        <time>2020-04-14T18:16:22Z</time>
      </trkpt>
      <trkpt lat="42.7224680" lon="-7.0294410">
        <ele>1169.6</ele>
        <time>2020-04-14T18:16:24Z</time>
      </trkpt>
      <trkpt lat="42.7224280" lon="-7.0294360">
        <ele>1170.1</ele>
        <time>2020-04-14T18:16:26Z</time>
      </trkpt>
      <trkpt lat="42.7223880" lon="-7.0294310">
        <ele>1170.6</ele>
        <time>2020-04-14T18:16:28Z</time>
      </trkpt>
      <trkpt lat="42.7223470" lon="-7.0294260">
        <ele>1171.2</ele>
        <time>2020-04-14T18:16:30Z</time>
      </trkpt>
      <trkpt lat="42.7221960" lon="-7.0294140">
        <ele>1173.1</ele>
        <time>2020-04-14T18:16:32Z</time>
      </trkpt>
      <trkpt lat="42.7221510" lon="-7.0294270">
        <ele>1173.7</ele>
        <time>2020-04-14T18:16:34Z</time>
      </trkpt>
      <trkpt lat="42.7221060" lon="-7.0294410">
        <ele>1174.3</ele>
        <time>2020-04-14T18:16:36Z</time>
      </trkpt>
      <trkpt lat="42.7220170" lon="-7.0294710">
        <ele>1175.4</ele>
        <time>2020-04-14T18:16:38Z</time>
      </trkpt>
      <trkpt lat="42.7219740" lon="-7.0294930">
        <ele>1175.9</ele>
        <time>2020-04-14T18:16:40Z</time>
      </trkpt>
      <trkpt lat="42.7219130" lon="-7.0295460">
        <ele>1176.6</ele>
        <time>2020-04-14T18:16:42Z</time>
      </trkpt>
      <trkpt lat="42.7218800" lon="-7.0295900">
        <ele>1177.1</ele>
        <time>2020-04-14T18:16:44Z</time>
      </trkpt>
      <trkpt lat="42.7218470" lon="-7.0296330">
        <ele>1177.5</ele>
        <time>2020-04-14T18:16:46Z</time>
      </trkpt>
      <trkpt lat="42.7217810" lon="-7.0297360">
        <ele>1178.9</ele>
        <time>2020-04-14T18:16:48Z</time>
      </trkpt>
      <trkpt lat="42.7217630" lon="-7.0297920">
        <ele>1179.6</ele>
        <time>2020-04-14T18:16:50Z</time>
      </trkpt>
      <trkpt lat="42.7217440" lon="-7.0298490">
        <ele>1180.4</ele>
        <time>2020-04-14T18:16:52Z</time>
      </trkpt>
      <trkpt lat="42.7217250" lon="-7.0299050">
        <ele>1181.2</ele>
        <time>2020-04-14T18:16:54Z</time>
      </trkpt>
      <trkpt lat="42.7216780" lon="-7.0300490">
        <ele>1183.1</ele>
        <time>2020-04-14T18:16:56Z</time>
      </trkpt>
      <trkpt lat="42.7216680" lon="-7.0301080">
        <ele>1183.7</ele>
        <time>2020-04-14T18:16:58Z</time>
      </trkpt>
      <trkpt lat="42.7216500" lon="-7.0302120">
        <ele>1184.7</ele>
        <time>2020-04-14T18:17:00Z</time>
      </trkpt>
      <trkpt lat="42.7216530" lon="-7.0302730">
        <ele>1184.7</ele>
        <time>2020-04-14T18:17:02Z</time>
      </trkpt>
      <trkpt lat="42.7216560" lon="-7.0303330">
        <ele>1184.7</ele>
        <time>2020-04-14T18:17:04Z</time>
      </trkpt>
      <trkpt lat="42.7216710" lon="-7.0304470">
        <ele>1184.8</ele>
        <time>2020-04-14T18:17:06Z</time>
      </trkpt>
      <trkpt lat="42.7216900" lon="-7.0305250">
        <ele>1184.9</ele>
        <time>2020-04-14T18:17:08Z</time>
      </trkpt>
      <trkpt lat="42.7217290" lon="-7.0306660">
        <ele>1185.2</ele>
        <time>2020-04-14T18:17:10Z</time>
      </trkpt>
      <trkpt lat="42.7217680" lon="-7.0307330">
        <ele>1185.3</ele>
        <time>2020-04-14T18:17:12Z</time>
      </trkpt>
      <trkpt lat="42.7218090" lon="-7.0308030">
        <ele>1185.5</ele>
        <time>2020-04-14T18:17:14Z</time>
      </trkpt>
      <trkpt lat="42.7218960" lon="-7.0309340">
        <ele>1185.9</ele>
        <time>2020-04-14T18:17:16Z</time>
      </trkpt>
      <trkpt lat="42.7219500" lon="-7.0309980">
        <ele>1186.1</ele>
        <time>2020-04-14T18:17:18Z</time>
      </trkpt>
      <trkpt lat="42.7220040" lon="-7.0310640">
        <ele>1186.4</ele>
        <time>2020-04-14T18:17:20Z</time>
      </trkpt>
      <trkpt lat="42.7220580" lon="-7.0311290">
        <ele>1186.6</ele>
        <time>2020-04-14T18:17:22Z</time>
      </trkpt>
      <trkpt lat="42.7221120" lon="-7.0311940">
        <ele>1186.8</ele>
        <time>2020-04-14T18:17:24Z</time>
      </trkpt>
      <trkpt lat="42.7222610" lon="-7.0313740">
        <ele>1187.4</ele>
        <time>2020-04-14T18:17:26Z</time>
      </trkpt>
      <trkpt lat="42.7223140" lon="-7.0314390">
        <ele>1187.6</ele>
        <time>2020-04-14T18:17:28Z</time>
      </trkpt>
      <trkpt lat="42.7223680" lon="-7.0315030">
        <ele>1187.8</ele>
        <time>2020-04-14T18:17:30Z</time>
      </trkpt>
      <trkpt lat="42.7224210" lon="-7.0315680">
        <ele>1188.0</ele>
        <time>2020-04-14T18:17:32Z</time>
      </trkpt>
      <trkpt lat="42.7224730" lon="-7.0316310">
        <ele>1188.3</ele>
        <time>2020-04-14T18:17:34Z</time>
      </trkpt>
      <trkpt lat="42.7226150" lon="-7.0318180">
        <ele>1188.8</ele>
        <time>2020-04-14T18:17:36Z</time>
      </trkpt>
      <trkpt lat="42.7226600" lon="-7.0318900">
        <ele>1189.1</ele>
        <time>2020-04-14T18:17:38Z</time>
      </trkpt>
      <trkpt lat="42.7227150" lon="-7.0320250">
        <ele>1189.6</ele>
        <time>2020-04-14T18:17:40Z</time>
      </trkpt>
      <trkpt lat="42.7227450" lon="-7.0321610">
        <ele>1190.2</ele>
        <time>2020-04-14T18:17:42Z</time>
      </trkpt>
      <trkpt lat="42.7227540" lon="-7.0322540">
        <ele>1190.6</ele>
        <time>2020-04-14T18:17:44Z</time>
      </trkpt>
      <trkpt lat="42.7227640" lon="-7.0323470">
        <ele>1191.0</ele>
        <time>2020-04-14T18:17:46Z</time>
      </trkpt>
      <trkpt lat="42.7227730" lon="-7.0324400">
        <ele>1191.4</ele>
        <time>2020-04-14T18:17:48Z</time>
      </trkpt>
      <trkpt lat="42.7227820" lon="-7.0325320">
        <ele>1191.8</ele>
        <time>2020-04-14T18:17:50Z</time>
      </trkpt>
      <trkpt lat="42.7228100" lon="-7.0328100">
        <ele>1193.0</ele>
        <time>2020-04-14T18:17:52Z</time>
      </trkpt>
      <trkpt lat="42.7228440" lon="-7.0328890">
        <ele>1193.4</ele>
        <time>2020-04-14T18:17:54Z</time>
      </trkpt>
      <trkpt lat="42.7229030" lon="-7.0329930">
        <ele>1194.0</ele>
        <time>2020-04-14T18:17:56Z</time>
      </trkpt>
      <trkpt lat="42.7229510" lon="-7.0330570">
        <ele>1194.4</ele>
        <time>2020-04-14T18:17:58Z</time>
      </trkpt>
      <trkpt lat="42.7229990" lon="-7.0331200">
        <ele>1194.8</ele>
        <time>2020-04-14T18:18:00Z</time>
      </trkpt>
      <trkpt lat="42.7230470" lon="-7.0331840">
        <ele>1195.2</ele>
        <time>2020-04-14T18:18:02Z</time>
      </trkpt>
      <trkpt lat="42.7231570" lon="-7.0333410">
        <ele>1196.1</ele>
        <time>2020-04-14T18:18:04Z</time>
      </trkpt>
      <trkpt lat="42.7232000" lon="-7.0334120">
        <ele>1196.5</ele>
        <time>2020-04-14T18:18:06Z</time>
      </trkpt>
      <trkpt lat="42.7232430" lon="-7.0334830">
        <ele>1196.9</ele>
        <time>2020-04-14T18:18:08Z</time>
      </trkpt>
      <trkpt lat="42.7233140" lon="-7.0336430">
        <ele>1197.7</ele>
        <time>2020-04-14T18:18:10Z</time>
      </trkpt>
      <trkpt lat="42.7233390" lon="-7.0337300">
        <ele>1198.1</ele>
        <time>2020-04-14T18:18:12Z</time>
      </trkpt>
      <trkpt lat="42.7233840" lon="-7.0339010">
        <ele>1198.8</ele>
        <time>2020-04-14T18:18:14Z</time>
      </trkpt>
      <trkpt lat="42.7233950" lon="-7.0339930">
        <ele>1199.2</ele>
        <time>2020-04-14T18:18:16Z</time>
      </trkpt>
      <trkpt lat="42.7234060" lon="-7.0340850">
        <ele>1199.6</ele>
        <time>2020-04-14T18:18:18Z</time>
      </trkpt>
      <trkpt lat="42.7234220" lon="-7.0342650">
        <ele>1200.4</ele>
        <time>2020-04-14T18:18:20Z</time>
      </trkpt>
      <trkpt lat="42.7234260" lon="-7.0343580">
        <ele>1200.7</ele>
        <time>2020-04-14T18:18:22Z</time>
      </trkpt>
      <trkpt lat="42.7234270" lon="-7.0345250">
        <ele>1201.3</ele>
        <time>2020-04-14T18:18:24Z</time>
      </trkpt>
      <trkpt lat="42.7234200" lon="-7.0346170">
        <ele>1201.7</ele>
        <time>2020-04-14T18:18:26Z</time>
      </trkpt>
      <trkpt lat="42.7234050" lon="-7.0347830">
        <ele>1202.4</ele>
        <time>2020-04-14T18:18:28Z</time>
      </trkpt>
      <trkpt lat="42.7233860" lon="-7.0348720">
        <ele>1202.7</ele>
        <time>2020-04-14T18:18:30Z</time>
      </trkpt>
      <trkpt lat="42.7233460" lon="-7.0350180">
        <ele>1203.2</ele>
        <time>2020-04-14T18:18:32Z</time>
      </trkpt>
      <trkpt lat="42.7233080" lon="-7.0350950">
        <ele>1203.5</ele>
        <time>2020-04-14T18:18:34Z</time>
      </trkpt>
      <trkpt lat="42.7232700" lon="-7.0351710">
        <ele>1203.8</ele>
        <time>2020-04-14T18:18:36Z</time>
      </trkpt>
      <trkpt lat="42.7231930" lon="-7.0353160">
        <ele>1204.4</ele>
        <time>2020-04-14T18:18:38Z</time>
      </trkpt>
      <trkpt lat="42.7231480" lon="-7.0353960">
        <ele>1204.7</ele>
        <time>2020-04-14T18:18:40Z</time>
      </trkpt>
      <trkpt lat="42.7231040" lon="-7.0354750">
        <ele>1204.9</ele>
        <time>2020-04-14T18:18:42Z</time>
      </trkpt>
      <trkpt lat="42.7230600" lon="-7.0355540">
        <ele>1205.2</ele>
        <time>2020-04-14T18:18:44Z</time>
      </trkpt>
      <trkpt lat="42.7230170" lon="-7.0356320">
        <ele>1205.4</ele>
        <time>2020-04-14T18:18:46Z</time>
      </trkpt>
      <trkpt lat="42.7228850" lon="-7.0358690">
        <ele>1206.2</ele>
        <time>2020-04-14T18:18:48Z</time>
      </trkpt>
      <trkpt lat="42.7228420" lon="-7.0359450">
        <ele>1206.5</ele>
        <time>2020-04-14T18:18:50Z</time>
      </trkpt>
      <trkpt lat="42.7227990" lon="-7.0360220">
        <ele>1206.8</ele>
        <time>2020-04-14T18:18:52Z</time>
      </trkpt>
      <trkpt lat="42.7227570" lon="-7.0360980">
        <ele>1207.1</ele>
        <time>2020-04-14T18:18:54Z</time>
      </trkpt>
      <trkpt lat="42.7227140" lon="-7.0361740">
        <ele>1207.5</ele>
        <time>2020-04-14T18:18:56Z</time>
      </trkpt>
      <trkpt lat="42.7226720" lon="-7.0362490">
        <ele>1207.8</ele>
        <time>2020-04-14T18:18:58Z</time>
      </trkpt>
      <trkpt lat="42.7225350" lon="-7.0364790">
        <ele>1208.8</ele>
        <time>2020-04-14T18:19:00Z</time>
      </trkpt>
      <trkpt lat="42.7224760" lon="-7.0365490">
        <ele>1209.2</ele>
        <time>2020-04-14T18:19:02Z</time>
      </trkpt>
      <trkpt lat="42.7224140" lon="-7.0366220">
        <ele>1209.6</ele>
        <time>2020-04-14T18:19:04Z</time>
      </trkpt>
      <trkpt lat="42.7222840" lon="-7.0367460">
        <ele>1210.4</ele>
        <time>2020-04-14T18:19:06Z</time>
      </trkpt>
      <trkpt lat="42.7222100" lon="-7.0367950">
        <ele>1210.9</ele>
        <time>2020-04-14T18:19:08Z</time>
      </trkpt>
      <trkpt lat="42.7221330" lon="-7.0368460">
        <ele>1211.3</ele>
        <time>2020-04-14T18:19:10Z</time>
      </trkpt>
      <trkpt lat="42.7219460" lon="-7.0369400">
        <ele>1212.6</ele>
        <time>2020-04-14T18:19:12Z</time>
      </trkpt>
      <trkpt lat="42.7218590" lon="-7.0369510">
        <ele>1213.1</ele>
        <time>2020-04-14T18:19:14Z</time>
      </trkpt>
      <trkpt lat="42.7217290" lon="-7.0369520">
        <ele>1213.9</ele>
        <time>2020-04-14T18:19:16Z</time>
      </trkpt>
      <trkpt lat="42.7216410" lon="-7.0369390">
        <ele>1214.5</ele>
        <time>2020-04-14T18:19:18Z</time>
      </trkpt>
      <trkpt lat="42.7214760" lon="-7.0369130">
        <ele>1215.4</ele>
        <time>2020-04-14T18:19:20Z</time>
      </trkpt>
      <trkpt lat="42.7213960" lon="-7.0368900">
        <ele>1215.9</ele>
        <time>2020-04-14T18:19:22Z</time>
      </trkpt>
      <trkpt lat="42.7213210" lon="-7.0368680">
        <ele>1216.4</ele>
        <time>2020-04-14T18:19:24Z</time>
      </trkpt>
      <trkpt lat="42.7212470" lon="-7.0368460">
        <ele>1216.8</ele>
        <time>2020-04-14T18:19:26Z</time>
      </trkpt>
      <trkpt lat="42.7211750" lon="-7.0368260">
        <ele>1217.3</ele>
        <time>2020-04-14T18:19:28Z</time>
      </trkpt>
      <trkpt lat="42.7211040" lon="-7.0368050">
        <ele>1217.7</ele>
        <time>2020-04-14T18:19:30Z</time>
      </trkpt>
      <trkpt lat="42.7208710" lon="-7.0367380">
        <ele>1218.5</ele>
        <time>2020-04-14T18:19:32Z</time>
      </trkpt>
      <trkpt lat="42.7208010" lon="-7.0367200">
        <ele>1218.7</ele>
        <time>2020-04-14T18:19:34Z</time>
      </trkpt>
      <trkpt lat="42.7207340" lon="-7.0367040">
        <ele>1219.0</ele>
        <time>2020-04-14T18:19:36Z</time>
      </trkpt>
      <trkpt lat="42.7206690" lon="-7.0366870">
        <ele>1219.4</ele>
        <time>2020-04-14T18:19:38Z</time>
      </trkpt>
      <trkpt lat="42.7206050" lon="-7.0366710">
        <ele>1219.9</ele>
        <time>2020-04-14T18:19:40Z</time>
      </trkpt>
      <trkpt lat="42.7205420" lon="-7.0366560">
        <ele>1220.3</ele>
        <time>2020-04-14T18:19:42Z</time>
      </trkpt>
      <trkpt lat="42.7203430" lon="-7.0366040">
        <ele>1221.9</ele>
        <time>2020-04-14T18:19:44Z</time>
      </trkpt>
      <trkpt lat="42.7202820" lon="-7.0365840">
        <ele>1222.4</ele>
        <time>2020-04-14T18:19:46Z</time>
      </trkpt>
      <trkpt lat="42.7202220" lon="-7.0365640">
        <ele>1223.0</ele>
        <time>2020-04-14T18:19:48Z</time>
      </trkpt>
      <trkpt lat="42.7201620" lon="-7.0365440">
        <ele>1223.5</ele>
        <time>2020-04-14T18:19:50Z</time>
      </trkpt>
      <trkpt lat="42.7200330" lon="-7.0364920">
        <ele>1224.5</ele>
        <time>2020-04-14T18:19:52Z</time>
      </trkpt>
      <trkpt lat="42.7199780" lon="-7.0364640">
        <ele>1225.0</ele>
        <time>2020-04-14T18:19:54Z</time>
      </trkpt>
      <trkpt lat="42.7199220" lon="-7.0364360">
        <ele>1225.5</ele>
        <time>2020-04-14T18:19:56Z</time>
      </trkpt>
      <trkpt lat="42.7197940" lon="-7.0363690">
        <ele>1226.5</ele>
        <time>2020-04-14T18:19:58Z</time>
      </trkpt>
      <trkpt lat="42.7197400" lon="-7.0363340">
        <ele>1226.9</ele>
        <time>2020-04-14T18:20:00Z</time>
      </trkpt>
      <trkpt lat="42.7196860" lon="-7.0363000">
        <ele>1227.4</ele>
        <time>2020-04-14T18:20:02Z</time>
      </trkpt>
      <trkpt lat="42.7196330" lon="-7.0362650">
        <ele>1227.9</ele>
        <time>2020-04-14T18:20:04Z</time>
      </trkpt>
      <trkpt lat="42.7195790" lon="-7.0362300">
        <ele>1228.3</ele>
        <time>2020-04-14T18:20:06Z</time>
      </trkpt>
      <trkpt lat="42.7194280" lon="-7.0361290">
        <ele>1229.6</ele>
        <time>2020-04-14T18:20:08Z</time>
      </trkpt>
      <trkpt lat="42.7193770" lon="-7.0360840">
        <ele>1230.0</ele>
        <time>2020-04-14T18:20:10Z</time>
      </trkpt>
      <trkpt lat="42.7193260" lon="-7.0360400">
        <ele>1230.5</ele>
        <time>2020-04-14T18:20:12Z</time>
      </trkpt>
      <trkpt lat="42.7192760" lon="-7.0359950">
        <ele>1230.9</ele>
        <time>2020-04-14T18:20:14Z</time>
      </trkpt>
      <trkpt lat="42.7191600" lon="-7.0358840">
        <ele>1232.0</ele>
        <time>2020-04-14T18:20:16Z</time>
      </trkpt>
      <trkpt lat="42.7191190" lon="-7.0358300">
        <ele>1232.5</ele>
        <time>2020-04-14T18:20:18Z</time>
      </trkpt>
      <trkpt lat="42.7190780" lon="-7.0357770">
        <ele>1232.9</ele>
        <time>2020-04-14T18:20:20Z</time>
      </trkpt>
      <trkpt lat="42.7190390" lon="-7.0357260">
        <ele>1233.4</ele>
        <time>2020-04-14T18:20:22Z</time>
      </trkpt>
      <trkpt lat="42.7189390" lon="-7.0355940">
        <ele>1234.4</ele>
        <time>2020-04-14T18:20:24Z</time>
      </trkpt>
      <trkpt lat="42.7189030" lon="-7.0355410">
        <ele>1234.8</ele>
        <time>2020-04-14T18:20:26Z</time>
      </trkpt>
      <trkpt lat="42.7188670" lon="-7.0354870">
        <ele>1235.2</ele>
        <time>2020-04-14T18:20:28Z</time>
      </trkpt>
      <trkpt lat="42.7188310" lon="-7.0354330">
        <ele>1235.7</ele>
        <time>2020-04-14T18:20:30Z</time>
      </trkpt>
      <trkpt lat="42.7187940" lon="-7.0353800">
        <ele>1236.1</ele>
        <time>2020-04-14T18:20:32Z</time>
      </trkpt>
      <trkpt lat="42.7187580" lon="-7.0353260">
        <ele>1236.6</ele>
        <time>2020-04-14T18:20:34Z</time>
      </trkpt>
      <trkpt lat="42.7186560" lon="-7.0351610">
        <ele>1237.9</ele>
        <time>2020-04-14T18:20:36Z</time>
      </trkpt>
      <trkpt lat="42.7186270" lon="-7.0351000">
        <ele>1238.3</ele>
        <time>2020-04-14T18:20:38Z</time>
      </trkpt>
      <trkpt lat="42.7185980" lon="-7.0350400">
        <ele>1238.7</ele>
        <time>2020-04-14T18:20:40Z</time>
      </trkpt>
      <trkpt lat="42.7185690" lon="-7.0349790">
        <ele>1239.2</ele>
        <time>2020-04-14T18:20:42Z</time>
      </trkpt>
      <trkpt lat="42.7185400" lon="-7.0349180">
        <ele>1239.6</ele>
        <time>2020-04-14T18:20:44Z</time>
      </trkpt>
      <trkpt lat="42.7185110" lon="-7.0348580">
        <ele>1240.0</ele>
        <time>2020-04-14T18:20:46Z</time>
      </trkpt>
      <trkpt lat="42.7184190" lon="-7.0346590">
        <ele>1241.3</ele>
        <time>2020-04-14T18:20:48Z</time>
      </trkpt>
      <trkpt lat="42.7183980" lon="-7.0346000">
        <ele>1241.7</ele>
        <time>2020-04-14T18:20:50Z</time>
      </trkpt>
      <trkpt lat="42.7183770" lon="-7.0345410">
        <ele>1242.1</ele>
        <time>2020-04-14T18:20:52Z</time>
      </trkpt>
      <trkpt lat="42.7183560" lon="-7.0344830">
        <ele>1242.4</ele>
        <time>2020-04-14T18:20:54Z</time>
      </trkpt>
      <trkpt lat="42.7183350" lon="-7.0344250">
        <ele>1242.8</ele>
        <time>2020-04-14T18:20:56Z</time>
      </trkpt>
      <trkpt lat="42.7182770" lon="-7.0342560">
        <ele>1243.9</ele>
        <time>2020-04-14T18:20:58Z</time>
      </trkpt>
      <trkpt lat="42.7182650" lon="-7.0341950">
        <ele>1244.3</ele>
        <time>2020-04-14T18:21:00Z</time>
      </trkpt>
      <trkpt lat="42.7182530" lon="-7.0341340">
        <ele>1244.7</ele>
        <time>2020-04-14T18:21:02Z</time>
      </trkpt>
      <trkpt lat="42.7182410" lon="-7.0340720">
        <ele>1245.1</ele>
        <time>2020-04-14T18:21:04Z</time>
      </trkpt>
      <trkpt lat="42.7182290" lon="-7.0340110">
        <ele>1245.5</ele>
        <time>2020-04-14T18:21:06Z</time>
      </trkpt>
      <trkpt lat="42.7182170" lon="-7.0339490">
        <ele>1245.9</ele>
        <time>2020-04-14T18:21:08Z</time>
      </trkpt>
      <trkpt lat="42.7182040" lon="-7.0338880">
        <ele>1246.3</ele>
        <time>2020-04-14T18:21:10Z</time>
      </trkpt>
      <trkpt lat="42.7181920" lon="-7.0338260">
        <ele>1246.7</ele>
        <time>2020-04-14T18:21:12Z</time>
      </trkpt>
      <trkpt lat="42.7181800" lon="-7.0337650">
        <ele>1247.0</ele>
        <time>2020-04-14T18:21:14Z</time>
      </trkpt>
      <trkpt lat="42.7181680" lon="-7.0337040">
        <ele>1247.4</ele>
        <time>2020-04-14T18:21:16Z</time>
      </trkpt>
      <trkpt lat="42.7181560" lon="-7.0336440">
        <ele>1247.8</ele>
        <time>2020-04-14T18:21:18Z</time>
      </trkpt>
      <trkpt lat="42.7181440" lon="-7.0335830">
        <ele>1248.1</ele>
        <time>2020-04-14T18:21:20Z</time>
      </trkpt>
      <trkpt lat="42.7180790" lon="-7.0332650">
        <ele>1250.3</ele>
        <time>2020-04-14T18:21:22Z</time>
      </trkpt>
      <trkpt lat="42.7180590" lon="-7.0331900">
        <ele>1250.8</ele>
        <time>2020-04-14T18:21:24Z</time>
      </trkpt>
      <trkpt lat="42.7180400" lon="-7.0331140">
        <ele>1251.3</ele>
        <time>2020-04-14T18:21:26Z</time>
      </trkpt>
      <trkpt lat="42.7180210" lon="-7.0330420">
        <ele>1251.9</ele>
        <time>2020-04-14T18:21:28Z</time>
      </trkpt>
      <trkpt lat="42.7180030" lon="-7.0329700">
        <ele>1252.4</ele>
        <time>2020-04-14T18:21:30Z</time>
      </trkpt>
      <trkpt lat="42.7179460" lon="-7.0327790">
        <ele>1253.7</ele>
        <time>2020-04-14T18:21:32Z</time>
      </trkpt>
      <trkpt lat="42.7179200" lon="-7.0327130">
        <ele>1254.1</ele>
        <time>2020-04-14T18:21:34Z</time>
      </trkpt>
      <trkpt lat="42.7178950" lon="-7.0326480">
        <ele>1254.5</ele>
        <time>2020-04-14T18:21:36Z</time>
      </trkpt>
      <trkpt lat="42.7178320" lon="-7.0324970">
        <ele>1255.5</ele>
        <time>2020-04-14T18:21:38Z</time>
      </trkpt>
      <trkpt lat="42.7177960" lon="-7.0324420">
        <ele>1256.0</ele>
        <time>2020-04-14T18:21:40Z</time>
      </trkpt>
      <trkpt lat="42.7177600" lon="-7.0323860">
        <ele>1256.4</ele>
        <time>2020-04-14T18:21:42Z</time>
      </trkpt>
      <trkpt lat="42.7177250" lon="-7.0323300">
        <ele>1256.8</ele>
        <time>2020-04-14T18:21:44Z</time>
      </trkpt>
      <trkpt lat="42.7176360" lon="-7.0322100">
        <ele>1257.7</ele>
        <time>2020-04-14T18:21:46Z</time>
      </trkpt>
      <trkpt lat="42.7175900" lon="-7.0321710">
        <ele>1258.1</ele>
        <time>2020-04-14T18:21:48Z</time>
      </trkpt>
      <trkpt lat="42.7175450" lon="-7.0321320">
        <ele>1258.4</ele>
        <time>2020-04-14T18:21:50Z</time>
      </trkpt>
      <trkpt lat="42.7174400" lon="-7.0320500">
        <ele>1259.3</ele>
        <time>2020-04-14T18:21:52Z</time>
      </trkpt>
      <trkpt lat="42.7173820" lon="-7.0320210">
        <ele>1259.7</ele>
        <time>2020-04-14T18:21:54Z</time>
      </trkpt>
      <trkpt lat="42.7173240" lon="-7.0319920">
        <ele>1260.0</ele>
        <time>2020-04-14T18:21:56Z</time>
      </trkpt>
      <trkpt lat="42.7172060" lon="-7.0319440">
        <ele>1260.8</ele>
        <time>2020-04-14T18:21:58Z</time>
      </trkpt>
      <trkpt lat="42.7171440" lon="-7.0319340">
        <ele>1261.2</ele>
        <time>2020-04-14T18:22:00Z</time>
      </trkpt>
      <trkpt lat="42.7170830" lon="-7.0319230">
        <ele>1261.6</ele>
        <time>2020-04-14T18:22:02Z</time>
      </trkpt>
      <trkpt lat="42.7170230" lon="-7.0319130">
        <ele>1262.0</ele>
        <time>2020-04-14T18:22:04Z</time>
      </trkpt>
      <trkpt lat="42.7169630" lon="-7.0319030">
        <ele>1262.4</ele>
        <time>2020-04-14T18:22:06Z</time>
      </trkpt>
      <trkpt lat="42.7169030" lon="-7.0318930">
        <ele>1262.8</ele>
        <time>2020-04-14T18:22:08Z</time>
      </trkpt>
      <trkpt lat="42.7167200" lon="-7.0318420">
        <ele>1263.7</ele>
        <time>2020-04-14T18:22:10Z</time>
      </trkpt>
      <trkpt lat="42.7166580" lon="-7.0318080">
        <ele>1264.0</ele>
        <time>2020-04-14T18:22:12Z</time>
      </trkpt>
      <trkpt lat="42.7165970" lon="-7.0317740">
        <ele>1264.3</ele>
        <time>2020-04-14T18:22:14Z</time>
      </trkpt>
      <trkpt lat="42.7165370" lon="-7.0317410">
        <ele>1264.5</ele>
        <time>2020-04-14T18:22:16Z</time>
      </trkpt>
      <trkpt lat="42.7164780" lon="-7.0317080">
        <ele>1264.8</ele>
        <time>2020-04-14T18:22:18Z</time>
      </trkpt>
      <trkpt lat="42.7162950" lon="-7.0316060">
        <ele>1265.5</ele>
        <time>2020-04-14T18:22:20Z</time>
      </trkpt>
      <trkpt lat="42.7162400" lon="-7.0315660">
        <ele>1265.8</ele>
        <time>2020-04-14T18:22:22Z</time>
      </trkpt>
      <trkpt lat="42.7161850" lon="-7.0315260">
        <ele>1266.0</ele>
        <time>2020-04-14T18:22:24Z</time>
      </trkpt>
      <trkpt lat="42.7161300" lon="-7.0314860">
        <ele>1266.2</ele>
        <time>2020-04-14T18:22:26Z</time>
      </trkpt>
      <trkpt lat="42.7160750" lon="-7.0314450">
        <ele>1266.3</ele>
        <time>2020-04-14T18:22:28Z</time>
      </trkpt>
      <trkpt lat="42.7160210" lon="-7.0314050">
        <ele>1266.5</ele>
        <time>2020-04-14T18:22:30Z</time>
      </trkpt>
      <trkpt lat="42.7158470" lon="-7.0312770">
        <ele>1266.7</ele>
        <time>2020-04-14T18:22:32Z</time>
      </trkpt>
      <trkpt lat="42.7157890" lon="-7.0312260">
        <ele>1266.9</ele>
        <time>2020-04-14T18:22:34Z</time>
      </trkpt>
      <trkpt lat="42.7157290" lon="-7.0311710">
        <ele>1267.1</ele>
        <time>2020-04-14T18:22:36Z</time>
      </trkpt>
      <trkpt lat="42.7156690" lon="-7.0311180">
        <ele>1267.3</ele>
        <time>2020-04-14T18:22:38Z</time>
      </trkpt>
      <trkpt lat="42.7156080" lon="-7.0310630">
        <ele>1267.5</ele>
        <time>2020-04-14T18:22:40Z</time>
      </trkpt>
      <trkpt lat="42.7155460" lon="-7.0310080">
        <ele>1267.8</ele>
        <time>2020-04-14T18:22:42Z</time>
      </trkpt>
      <trkpt lat="42.7153680" lon="-7.0308480">
        <ele>1268.3</ele>
        <time>2020-04-14T18:22:44Z</time>
      </trkpt>
      <trkpt lat="42.7153020" lon="-7.0307900">
        <ele>1268.6</ele>
        <time>2020-04-14T18:22:46Z</time>
      </trkpt>
      <trkpt lat="42.7152370" lon="-7.0307310">
        <ele>1268.8</ele>
        <time>2020-04-14T18:22:48Z</time>
      </trkpt>
      <trkpt lat="42.7151720" lon="-7.0306730">
        <ele>1269.1</ele>
        <time>2020-04-14T18:22:50Z</time>
      </trkpt>
      <trkpt lat="42.7151070" lon="-7.0306140">
        <ele>1269.3</ele>
        <time>2020-04-14T18:22:52Z</time>
      </trkpt>
      <trkpt lat="42.7149170" lon="-7.0304850">
        <ele>1269.8</ele>
        <time>2020-04-14T18:22:54Z</time>
      </trkpt>
      <trkpt lat="42.7147890" lon="-7.0304400">
        <ele>1270.0</ele>
        <time>2020-04-14T18:22:56Z</time>
      </trkpt>
      <trkpt lat="42.7147100" lon="-7.0304450">
        <ele>1270.0</ele>
        <time>2020-04-14T18:22:58Z</time>
      </trkpt>
      <trkpt lat="42.7146300" lon="-7.0304500">
        <ele>1269.8</ele>
        <time>2020-04-14T18:23:00Z</time>
      </trkpt>
      <trkpt lat="42.7145510" lon="-7.0304550">
        <ele>1269.6</ele>
        <time>2020-04-14T18:23:02Z</time>
      </trkpt>
      <trkpt lat="42.7144720" lon="-7.0304600">
        <ele>1269.4</ele>
        <time>2020-04-14T18:23:04Z</time>
      </trkpt>
      <trkpt lat="42.7142680" lon="-7.0304880">
        <ele>1268.6</ele>
        <time>2020-04-14T18:23:06Z</time>
      </trkpt>
      <trkpt lat="42.7141850" lon="-7.0305630">
        <ele>1268.3</ele>
        <time>2020-04-14T18:23:08Z</time>
      </trkpt>
      <trkpt lat="42.7141330" lon="-7.0306410">
        <ele>1268.0</ele>
        <time>2020-04-14T18:23:10Z</time>
      </trkpt>
      <trkpt lat="42.7140530" lon="-7.0307850">
        <ele>1267.5</ele>
        <time>2020-04-14T18:23:12Z</time>
      </trkpt>
      <trkpt lat="42.7140150" lon="-7.0308760">
        <ele>1267.2</ele>
        <time>2020-04-14T18:23:14Z</time>
      </trkpt>
      <trkpt lat="42.7139750" lon="-7.0309710">
        <ele>1266.9</ele>
        <time>2020-04-14T18:23:16Z</time>
      </trkpt>
      <trkpt lat="42.7138910" lon="-7.0311860">
        <ele>1266.2</ele>
        <time>2020-04-14T18:23:18Z</time>
      </trkpt>
      <trkpt lat="42.7138630" lon="-7.0313020">
        <ele>1266.0</ele>
        <time>2020-04-14T18:23:20Z</time>
      </trkpt>
      <trkpt lat="42.7138330" lon="-7.0314240">
        <ele>1265.7</ele>
        <time>2020-04-14T18:23:22Z</time>
      </trkpt>
      <trkpt lat="42.7138020" lon="-7.0315530">
        <ele>1265.4</ele>
        <time>2020-04-14T18:23:24Z</time>
      </trkpt>
      <trkpt lat="42.7137690" lon="-7.0316880">
        <ele>1265.2</ele>
        <time>2020-04-14T18:23:26Z</time>
      </trkpt>
      <trkpt lat="42.7137360" lon="-7.0318260">
        <ele>1265.1</ele>
        <time>2020-04-14T18:23:28Z</time>
      </trkpt>
      <trkpt lat="42.7136280" lon="-7.0322360">
        <ele>1264.6</ele>
        <time>2020-04-14T18:23:30Z</time>
      </trkpt>
      <trkpt lat="42.7135490" lon="-7.0324270">
        <ele>1264.5</ele>
        <time>2020-04-14T18:23:32Z</time>
      </trkpt>
      <trkpt lat="42.7134750" lon="-7.0325450">
        <ele>1264.5</ele>
        <time>2020-04-14T18:23:34Z</time>
      </trkpt>
      <trkpt lat="42.7133470" lon="-7.0326740">
        <ele>1264.4</ele>
        <time>2020-04-14T18:23:36Z</time>
      </trkpt>
      <trkpt lat="42.7132490" lon="-7.0327520">
        <ele>1264.3</ele>
        <time>2020-04-14T18:23:38Z</time>
      </trkpt>
      <trkpt lat="42.7130460" lon="-7.0329120">
        <ele>1264.1</ele>
        <time>2020-04-14T18:23:40Z</time>
      </trkpt>
      <trkpt lat="42.7129370" lon="-7.0329640">
        <ele>1264.0</ele>
        <time>2020-04-14T18:23:42Z</time>
      </trkpt>
      <trkpt lat="42.7127630" lon="-7.0330370">
        <ele>1263.7</ele>
        <time>2020-04-14T18:23:44Z</time>
      </trkpt>
      <trkpt lat="42.7126480" lon="-7.0330700">
        <ele>1263.5</ele>
        <time>2020-04-14T18:23:46Z</time>
      </trkpt>
      <trkpt lat="42.7124670" lon="-7.0331000">
        <ele>1263.3</ele>
        <time>2020-04-14T18:23:48Z</time>
      </trkpt>
      <trkpt lat="42.7123490" lon="-7.0331100">
        <ele>1263.2</ele>
        <time>2020-04-14T18:23:50Z</time>
      </trkpt>
      <trkpt lat="42.7122340" lon="-7.0331200">
        <ele>1263.2</ele>
        <time>2020-04-14T18:23:52Z</time>
      </trkpt>
      <trkpt lat="42.7121200" lon="-7.0331300">
        <ele>1263.3</ele>
        <time>2020-04-14T18:23:54Z</time>
      </trkpt>
      <trkpt lat="42.7120060" lon="-7.0331400">
        <ele>1263.3</ele>
        <time>2020-04-14T18:23:56Z</time>
      </trkpt>
      <trkpt lat="42.7116800" lon="-7.0331810">
        <ele>1263.3</ele>
        <time>2020-04-14T18:23:58Z</time>
      </trkpt>
      <trkpt lat="42.7115150" lon="-7.0332340">
        <ele>1263.4</ele>
        <time>2020-04-14T18:24:00Z</time>
      </trkpt>
      <trkpt lat="42.7113720" lon="-7.0333240">
        <ele>1263.7</ele>
        <time>2020-04-14T18:24:02Z</time>
      </trkpt>
      <trkpt lat="42.7112940" lon="-7.0334320">
        <ele>1263.8</ele>
        <time>2020-04-14T18:24:04Z</time>
      </trkpt>
      <trkpt lat="42.7111890" lon="-7.0336130">
        <ele>1264.0</ele>
        <time>2020-04-14T18:24:06Z</time>
      </trkpt>
      <trkpt lat="42.7111150" lon="-7.0338130">
        <ele>1264.3</ele>
        <time>2020-04-14T18:24:08Z</time>
      </trkpt>
      <trkpt lat="42.7110970" lon="-7.0339540">
        <ele>1264.6</ele>
        <time>2020-04-14T18:24:10Z</time>
      </trkpt>
      <trkpt lat="42.7110800" lon="-7.0340910">
        <ele>1264.9</ele>
        <time>2020-04-14T18:24:12Z</time>
      </trkpt>
      <trkpt lat="42.7110630" lon="-7.0342230">
        <ele>1265.3</ele>
        <time>2020-04-14T18:24:14Z</time>
      </trkpt>
      <trkpt lat="42.7110140" lon="-7.0345180">
        <ele>1266.5</ele>
        <time>2020-04-14T18:24:16Z</time>
      </trkpt>
      <trkpt lat="42.7109840" lon="-7.0346400">
        <ele>1267.1</ele>
        <time>2020-04-14T18:24:18Z</time>
      </trkpt>
      <trkpt lat="42.7109210" lon="-7.0348380">
        <ele>1268.2</ele>
        <time>2020-04-14T18:24:20Z</time>
      </trkpt>
      <trkpt lat="42.7108780" lon="-7.0349440">
        <ele>1268.8</ele>
        <time>2020-04-14T18:24:22Z</time>
      </trkpt>
      <trkpt lat="42.7107940" lon="-7.0351530">
        <ele>1270.2</ele>
        <time>2020-04-14T18:24:24Z</time>
      </trkpt>
      <trkpt lat="42.7107510" lon="-7.0352500">
        <ele>1270.8</ele>
        <time>2020-04-14T18:24:26Z</time>
      </trkpt>
      <trkpt lat="42.7107080" lon="-7.0353460">
        <ele>1271.4</ele>
        <time>2020-04-14T18:24:28Z</time>
      </trkpt>
      <trkpt lat="42.7106660" lon="-7.0354390">
        <ele>1272.0</ele>
        <time>2020-04-14T18:24:30Z</time>
      </trkpt>
      <trkpt lat="42.7106240" lon="-7.0355310">
        <ele>1272.5</ele>
        <time>2020-04-14T18:24:32Z</time>
      </trkpt>
      <trkpt lat="42.7105180" lon="-7.0357790">
        <ele>1273.7</ele>
        <time>2020-04-14T18:24:34Z</time>
      </trkpt>
      <trkpt lat="42.7104820" lon="-7.0358740">
        <ele>1274.2</ele>
        <time>2020-04-14T18:24:36Z</time>
      </trkpt>
      <trkpt lat="42.7104470" lon="-7.0359680">
        <ele>1274.7</ele>
        <time>2020-04-14T18:24:38Z</time>
      </trkpt>
      <trkpt lat="42.7104120" lon="-7.0360610">
        <ele>1275.3</ele>
        <time>2020-04-14T18:24:40Z</time>
      </trkpt>
      <trkpt lat="42.7103770" lon="-7.0361540">
        <ele>1275.8</ele>
        <time>2020-04-14T18:24:42Z</time>
      </trkpt>
      <trkpt lat="42.7103440" lon="-7.0362440">
        <ele>1276.3</ele>
        <time>2020-04-14T18:24:44Z</time>
      </trkpt>
      <trkpt lat="42.7103100" lon="-7.0363330">
        <ele>1276.8</ele>
        <time>2020-04-14T18:24:46Z</time>
      </trkpt>
      <trkpt lat="42.7102770" lon="-7.0364200">
        <ele>1277.3</ele>
        <time>2020-04-14T18:24:48Z</time>
      </trkpt>
      <trkpt lat="42.7101550" lon="-7.0367640">
        <ele>1278.7</ele>
        <time>2020-04-14T18:24:50Z</time>
      </trkpt>
      <trkpt lat="42.7101280" lon="-7.0368520">
        <ele>1278.9</ele>
        <time>2020-04-14T18:24:52Z</time>
      </trkpt>
      <trkpt lat="42.7101020" lon="-7.0369400">
        <ele>1279.2</ele>
        <time>2020-04-14T18:24:54Z</time>
      </trkpt>
      <trkpt lat="42.7100750" lon="-7.0370280">
        <ele>1279.6</ele>
        <time>2020-04-14T18:24:56Z</time>
      </trkpt>
      <trkpt lat="42.7100490" lon="-7.0371140">
        <ele>1279.9</ele>
        <time>2020-04-14T18:24:58Z</time>
      </trkpt>
      <trkpt lat="42.7100230" lon="-7.0372020">
        <ele>1280.3</ele>
        <time>2020-04-14T18:25:00Z</time>
      </trkpt>
      <trkpt lat="42.7099970" lon="-7.0372890">
        <ele>1280.7</ele>
        <time>2020-04-14T18:25:02Z</time>
      </trkpt>
      <trkpt lat="42.7099700" lon="-7.0373770">
        <ele>1281.1</ele>
        <time>2020-04-14T18:25:04Z</time>
      </trkpt>
      <trkpt lat="42.7098620" lon="-7.0377390">
        <ele>1282.8</ele>
        <time>2020-04-14T18:25:06Z</time>
      </trkpt>
      <trkpt lat="42.7098390" lon="-7.0378280">
        <ele>1283.2</ele>
        <time>2020-04-14T18:25:08Z</time>
      </trkpt>
      <trkpt lat="42.7098160" lon="-7.0379180">
        <ele>1283.6</ele>
        <time>2020-04-14T18:25:10Z</time>
      </trkpt>
      <trkpt lat="42.7097930" lon="-7.0380070">
        <ele>1284.0</ele>
        <time>2020-04-14T18:25:12Z</time>
      </trkpt>
      <trkpt lat="42.7097360" lon="-7.0382280">
        <ele>1285.0</ele>
        <time>2020-04-14T18:25:14Z</time>
      </trkpt>
      <trkpt lat="42.7097180" lon="-7.0383190">
        <ele>1285.5</ele>
        <time>2020-04-14T18:25:16Z</time>
      </trkpt>
      <trkpt lat="42.7097000" lon="-7.0384090">
        <ele>1285.9</ele>
        <time>2020-04-14T18:25:18Z</time>
      </trkpt>
      <trkpt lat="42.7096830" lon="-7.0384990">
        <ele>1286.3</ele>
        <time>2020-04-14T18:25:20Z</time>
      </trkpt>
      <trkpt lat="42.7096650" lon="-7.0385890">
        <ele>1286.7</ele>
        <time>2020-04-14T18:25:22Z</time>
      </trkpt>
      <trkpt lat="42.7096470" lon="-7.0386790">
        <ele>1287.1</ele>
        <time>2020-04-14T18:25:24Z</time>
      </trkpt>
      <trkpt lat="42.7095940" lon="-7.0389460">
        <ele>1288.0</ele>
        <time>2020-04-14T18:25:26Z</time>
      </trkpt>
      <trkpt lat="42.7095740" lon="-7.0390480">
        <ele>1288.3</ele>
        <time>2020-04-14T18:25:28Z</time>
      </trkpt>
      <trkpt lat="42.7095540" lon="-7.0391490">
        <ele>1288.7</ele>
        <time>2020-04-14T18:25:30Z</time>
      </trkpt>
      <trkpt lat="42.7095340" lon="-7.0392480">
        <ele>1289.0</ele>
        <time>2020-04-14T18:25:32Z</time>
      </trkpt>
      <trkpt lat="42.7095150" lon="-7.0393450">
        <ele>1289.3</ele>
        <time>2020-04-14T18:25:34Z</time>
      </trkpt>
      <trkpt lat="42.7094710" lon="-7.0396180">
        <ele>1290.0</ele>
        <time>2020-04-14T18:25:36Z</time>
      </trkpt>
      <trkpt lat="42.7094610" lon="-7.0397160">
        <ele>1290.2</ele>
        <time>2020-04-14T18:25:38Z</time>
      </trkpt>
      <trkpt lat="42.7094520" lon="-7.0398130">
        <ele>1290.4</ele>
        <time>2020-04-14T18:25:40Z</time>
      </trkpt>
      <trkpt lat="42.7094430" lon="-7.0400200">
        <ele>1290.9</ele>
        <time>2020-04-14T18:25:42Z</time>
      </trkpt>
      <trkpt lat="42.7094460" lon="-7.0401160">
        <ele>1291.2</ele>
        <time>2020-04-14T18:25:44Z</time>
      </trkpt>
      <trkpt lat="42.7094490" lon="-7.0402110">
        <ele>1291.4</ele>
        <time>2020-04-14T18:25:46Z</time>
      </trkpt>
      <trkpt lat="42.7094520" lon="-7.0403070">
        <ele>1291.6</ele>
        <time>2020-04-14T18:25:48Z</time>
      </trkpt>
      <trkpt lat="42.7094570" lon="-7.0405610">
        <ele>1291.9</ele>
        <time>2020-04-14T18:25:50Z</time>
      </trkpt>
      <trkpt lat="42.7094420" lon="-7.0406640">
        <ele>1292.0</ele>
        <time>2020-04-14T18:25:52Z</time>
      </trkpt>
      <trkpt lat="42.7094250" lon="-7.0407790">
        <ele>1292.1</ele>
        <time>2020-04-14T18:25:54Z</time>
      </trkpt>
      <trkpt lat="42.7094070" lon="-7.0408990">
        <ele>1292.2</ele>
        <time>2020-04-14T18:25:56Z</time>
      </trkpt>
      <trkpt lat="42.7093610" lon="-7.0411650">
        <ele>1292.5</ele>
        <time>2020-04-14T18:25:58Z</time>
      </trkpt>
      <trkpt lat="42.7093150" lon="-7.0413470">
        <ele>1292.6</ele>
        <time>2020-04-14T18:26:00Z</time>
      </trkpt>
      <trkpt lat="42.7092750" lon="-7.0414710">
        <ele>1292.5</ele>
        <time>2020-04-14T18:26:02Z</time>
      </trkpt>
      <trkpt lat="42.7092000" lon="-7.0416760">
        <ele>1292.1</ele>
        <time>2020-04-14T18:26:04Z</time>
      </trkpt>
      <trkpt lat="42.7091460" lon="-7.0417970">
        <ele>1291.8</ele>
        <time>2020-04-14T18:26:06Z</time>
      </trkpt>
      <trkpt lat="42.7090400" lon="-7.0420290">
        <ele>1291.0</ele>
        <time>2020-04-14T18:26:08Z</time>
      </trkpt>
      <trkpt lat="42.7089720" lon="-7.0421550">
        <ele>1290.5</ele>
        <time>2020-04-14T18:26:10Z</time>
      </trkpt>
      <trkpt lat="42.7089010" lon="-7.0422890">
        <ele>1289.9</ele>
        <time>2020-04-14T18:26:12Z</time>
      </trkpt>
      <trkpt lat="42.7087470" lon="-7.0425760">
        <ele>1288.5</ele>
        <time>2020-04-14T18:26:14Z</time>
      </trkpt>
      <trkpt lat="42.7086800" lon="-7.0427310">
        <ele>1287.6</ele>
        <time>2020-04-14T18:26:16Z</time>
      </trkpt>
      <trkpt lat="42.7085680" lon="-7.0430000">
        <ele>1286.0</ele>
        <time>2020-04-14T18:26:18Z</time>
      </trkpt>
      <trkpt lat="42.7085140" lon="-7.0431800">
        <ele>1285.1</ele>
        <time>2020-04-14T18:26:20Z</time>
      </trkpt>
      <trkpt lat="42.7084590" lon="-7.0433650">
        <ele>1284.3</ele>
        <time>2020-04-14T18:26:22Z</time>
      </trkpt>
      <trkpt lat="42.7083510" lon="-7.0437320">
        <ele>1282.9</ele>
        <time>2020-04-14T18:26:24Z</time>
      </trkpt>
      <trkpt lat="42.7082960" lon="-7.0439250">
        <ele>1282.4</ele>
        <time>2020-04-14T18:26:26Z</time>
      </trkpt>
      <trkpt lat="42.7082400" lon="-7.0441220">
        <ele>1282.0</ele>
        <time>2020-04-14T18:26:28Z</time>
      </trkpt>
      <trkpt lat="42.7081390" lon="-7.0445050">
        <ele>1280.2</ele>
        <time>2020-04-14T18:26:30Z</time>
      </trkpt>
      <trkpt lat="42.7080860" lon="-7.0447150">
        <ele>1278.8</ele>
        <time>2020-04-14T18:26:32Z</time>
      </trkpt>
      <trkpt lat="42.7080200" lon="-7.0450980">
        <ele>1278.3</ele>
        <time>2020-04-14T18:26:34Z</time>
      </trkpt>
      <trkpt lat="42.7080140" lon="-7.0454060">
        <ele>1278.0</ele>
        <time>2020-04-14T18:26:36Z</time>
      </trkpt>
      <trkpt lat="42.7080190" lon="-7.0456370">
        <ele>1277.7</ele>
        <time>2020-04-14T18:26:38Z</time>
      </trkpt>
      <trkpt lat="42.7080240" lon="-7.0458640">
        <ele>1277.5</ele>
        <time>2020-04-14T18:26:40Z</time>
      </trkpt>
      <trkpt lat="42.7080210" lon="-7.0463340">
        <ele>1277.3</ele>
        <time>2020-04-14T18:26:42Z</time>
      </trkpt>
      <trkpt lat="42.7079950" lon="-7.0466530">
        <ele>1276.7</ele>
        <time>2020-04-14T18:26:44Z</time>
      </trkpt>
      <trkpt lat="42.7079660" lon="-7.0468660">
        <ele>1276.2</ele>
        <time>2020-04-14T18:26:46Z</time>
      </trkpt>
      <trkpt lat="42.7078950" lon="-7.0472040">
        <ele>1275.4</ele>
        <time>2020-04-14T18:26:48Z</time>
      </trkpt>
      <trkpt lat="42.7078010" lon="-7.0474840">
        <ele>1274.4</ele>
        <time>2020-04-14T18:26:50Z</time>
      </trkpt>
      <trkpt lat="42.7077230" lon="-7.0476800">
        <ele>1273.7</ele>
        <time>2020-04-14T18:26:52Z</time>
      </trkpt>
      <trkpt lat="42.7076440" lon="-7.0478780">
        <ele>1273.0</ele>
        <time>2020-04-14T18:26:54Z</time>
      </trkpt>
      <trkpt lat="42.7074920" lon="-7.0482620">
        <ele>1271.8</ele>
        <time>2020-04-14T18:26:56Z</time>
      </trkpt>
      <trkpt lat="42.7074120" lon="-7.0484620">
        <ele>1271.4</ele>
        <time>2020-04-14T18:26:58Z</time>
      </trkpt>
      <trkpt lat="42.7072610" lon="-7.0488510">
        <ele>1270.6</ele>
        <time>2020-04-14T18:27:00Z</time>
      </trkpt>
      <trkpt lat="42.7071870" lon="-7.0490560">
        <ele>1270.2</ele>
        <time>2020-04-14T18:27:02Z</time>
      </trkpt>
      <trkpt lat="42.7070840" lon="-7.0493970">
        <ele>1269.6</ele>
        <time>2020-04-14T18:27:04Z</time>
      </trkpt>
      <trkpt lat="42.7070210" lon="-7.0497120">
        <ele>1269.2</ele>
        <time>2020-04-14T18:27:06Z</time>
      </trkpt>
      <trkpt lat="42.7069870" lon="-7.0499330">
        <ele>1268.9</ele>
        <time>2020-04-14T18:27:08Z</time>
      </trkpt>
      <trkpt lat="42.7069150" lon="-7.0502960">
        <ele>1268.6</ele>
        <time>2020-04-14T18:27:10Z</time>
      </trkpt>
      <trkpt lat="42.7068310" lon="-7.0505850">
        <ele>1268.4</ele>
        <time>2020-04-14T18:27:12Z</time>
      </trkpt>
      <trkpt lat="42.7067240" lon="-7.0508370">
        <ele>1268.1</ele>
        <time>2020-04-14T18:27:14Z</time>
      </trkpt>
      <trkpt lat="42.7066240" lon="-7.0510050">
        <ele>1268.0</ele>
        <time>2020-04-14T18:27:16Z</time>
      </trkpt>
      <trkpt lat="42.7064330" lon="-7.0512190">
        <ele>1267.6</ele>
        <time>2020-04-14T18:27:18Z</time>
      </trkpt>
      <trkpt lat="42.7062030" lon="-7.0513950">
        <ele>1267.2</ele>
        <time>2020-04-14T18:27:20Z</time>
      </trkpt>
      <trkpt lat="42.7060560" lon="-7.0514940">
        <ele>1266.9</ele>
        <time>2020-04-14T18:27:22Z</time>
      </trkpt>
      <trkpt lat="42.7058510" lon="-7.0516780">
        <ele>1266.3</ele>
        <time>2020-04-14T18:27:24Z</time>
      </trkpt>
      <trkpt lat="42.7057030" lon="-7.0519100">
        <ele>1265.8</ele>
        <time>2020-04-14T18:27:26Z</time>
      </trkpt>
      <trkpt lat="42.7055630" lon="-7.0522100">
        <ele>1265.1</ele>
        <time>2020-04-14T18:27:28Z</time>
      </trkpt>
      <trkpt lat="42.7054910" lon="-7.0524220">
        <ele>1264.6</ele>
        <time>2020-04-14T18:27:30Z</time>
      </trkpt>
      <trkpt lat="42.7054000" lon="-7.0527440">
        <ele>1263.6</ele>
        <time>2020-04-14T18:27:32Z</time>
      </trkpt>
      <trkpt lat="42.7053480" lon="-7.0529740">
        <ele>1262.7</ele>
        <time>2020-04-14T18:27:34Z</time>
      </trkpt>
      <trkpt lat="42.7052440" lon="-7.0534150">
        <ele>1261.0</ele>
        <time>2020-04-14T18:27:36Z</time>
      </trkpt>
      <trkpt lat="42.7051470" lon="-7.0537230">
        <ele>1259.7</ele>
        <time>2020-04-14T18:27:38Z</time>
      </trkpt>
      <trkpt lat="42.7050530" lon="-7.0539410">
        <ele>1258.5</ele>
        <time>2020-04-14T18:27:40Z</time>
      </trkpt>
      <trkpt lat="42.7048870" lon="-7.0542600">
        <ele>1257.1</ele>
        <time>2020-04-14T18:27:42Z</time>
      </trkpt>
      <trkpt lat="42.7047620" lon="-7.0544610">
        <ele>1256.1</ele>
        <time>2020-04-14T18:27:44Z</time>
      </trkpt>
      <trkpt lat="42.7045200" lon="-7.0548330">
        <ele>1254.0</ele>
        <time>2020-04-14T18:27:46Z</time>
      </trkpt>
      <trkpt lat="42.7043740" lon="-7.0550150">
        <ele>1252.9</ele>
        <time>2020-04-14T18:27:48Z</time>
      </trkpt>
      <trkpt lat="42.7042270" lon="-7.0551980">
        <ele>1251.8</ele>
        <time>2020-04-14T18:27:50Z</time>
      </trkpt>
      <trkpt lat="42.7039120" lon="-7.0556000">
        <ele>1249.4</ele>
        <time>2020-04-14T18:27:52Z</time>
      </trkpt>
      <trkpt lat="42.7037860" lon="-7.0558120">
        <ele>1248.3</ele>
        <time>2020-04-14T18:27:54Z</time>
      </trkpt>
      <trkpt lat="42.7036080" lon="-7.0561700">
        <ele>1246.3</ele>
        <time>2020-04-14T18:27:56Z</time>
      </trkpt>
      <trkpt lat="42.7034980" lon="-7.0565400">
        <ele>1245.6</ele>
        <time>2020-04-14T18:27:58Z</time>
      </trkpt>
      <trkpt lat="42.7034520" lon="-7.0568900">
        <ele>1245.6</ele>
        <time>2020-04-14T18:28:00Z</time>
      </trkpt>
      <trkpt lat="42.7034400" lon="-7.0572420">
        <ele>1245.0</ele>
        <time>2020-04-14T18:28:02Z</time>
      </trkpt>
      <trkpt lat="42.7034660" lon="-7.0576060">
        <ele>1244.6</ele>
        <time>2020-04-14T18:28:04Z</time>
      </trkpt>
      <trkpt lat="42.7035330" lon="-7.0579570">
        <ele>1244.5</ele>
        <time>2020-04-14T18:28:06Z</time>
      </trkpt>
      <trkpt lat="42.7036230" lon="-7.0583060">
        <ele>1244.9</ele>
        <time>2020-04-14T18:28:08Z</time>
      </trkpt>
      <trkpt lat="42.7036900" lon="-7.0585250">
        <ele>1245.4</ele>
        <time>2020-04-14T18:28:10Z</time>
      </trkpt>
      <trkpt lat="42.7037530" lon="-7.0587320">
        <ele>1245.8</ele>
        <time>2020-04-14T18:28:12Z</time>
      </trkpt>
      <trkpt lat="42.7038140" lon="-7.0589280">
        <ele>1245.9</ele>
        <time>2020-04-14T18:28:14Z</time>
      </trkpt>
      <trkpt lat="42.7039570" lon="-7.0593960">
        <ele>1246.8</ele>
        <time>2020-04-14T18:28:16Z</time>
      </trkpt>
      <trkpt lat="42.7040090" lon="-7.0595660">
        <ele>1247.1</ele>
        <time>2020-04-14T18:28:18Z</time>
      </trkpt>
      <trkpt lat="42.7040570" lon="-7.0597200">
        <ele>1247.4</ele>
        <time>2020-04-14T18:28:20Z</time>
      </trkpt>
      <trkpt lat="42.7041000" lon="-7.0598620">
        <ele>1247.7</ele>
        <time>2020-04-14T18:28:22Z</time>
      </trkpt>
      <trkpt lat="42.7041400" lon="-7.0599920">
        <ele>1248.0</ele>
        <time>2020-04-14T18:28:24Z</time>
      </trkpt>
      <trkpt lat="42.7042670" lon="-7.0603950">
        <ele>1249.2</ele>
        <time>2020-04-14T18:28:26Z</time>
      </trkpt>
      <trkpt lat="42.7043070" lon="-7.0605030">
        <ele>1249.5</ele>
        <time>2020-04-14T18:28:28Z</time>
      </trkpt>
      <trkpt lat="42.7043760" lon="-7.0606650">
        <ele>1249.8</ele>
        <time>2020-04-14T18:28:30Z</time>
      </trkpt>
      <trkpt lat="42.7044230" lon="-7.0607640">
        <ele>1250.0</ele>
        <time>2020-04-14T18:28:32Z</time>
      </trkpt>
      <trkpt lat="42.7044700" lon="-7.0608650">
        <ele>1250.2</ele>
        <time>2020-04-14T18:28:34Z</time>
      </trkpt>
      <trkpt lat="42.7045760" lon="-7.0610650">
        <ele>1250.4</ele>
        <time>2020-04-14T18:28:36Z</time>
      </trkpt>
      <trkpt lat="42.7046340" lon="-7.0611570">
        <ele>1250.5</ele>
        <time>2020-04-14T18:28:38Z</time>
      </trkpt>
      <trkpt lat="42.7046910" lon="-7.0612500">
        <ele>1250.5</ele>
        <time>2020-04-14T18:28:40Z</time>
      </trkpt>
      <trkpt lat="42.7047490" lon="-7.0613430">
        <ele>1250.6</ele>
        <time>2020-04-14T18:28:42Z</time>
      </trkpt>
      <trkpt lat="42.7049010" lon="-7.0615930">
        <ele>1250.8</ele>
        <time>2020-04-14T18:28:44Z</time>
      </trkpt>
      <trkpt lat="42.7049650" lon="-7.0617370">
        <ele>1250.9</ele>
        <time>2020-04-14T18:28:46Z</time>
      </trkpt>
      <trkpt lat="42.7050000" lon="-7.0618590">
        <ele>1250.8</ele>
        <time>2020-04-14T18:28:49Z</time>
      </trkpt>
      <trkpt lat="42.7050470" lon="-7.0620670">
        <ele>1250.6</ele>
        <time>2020-04-14T18:28:51Z</time>
      </trkpt>
      <trkpt lat="42.7050640" lon="-7.0622140">
        <ele>1250.5</ele>
        <time>2020-04-14T18:28:53Z</time>
      </trkpt>
      <trkpt lat="42.7050850" lon="-7.0624860">
        <ele>1250.2</ele>
        <time>2020-04-14T18:28:55Z</time>
      </trkpt>
      <trkpt lat="42.7050650" lon="-7.0626440">
        <ele>1250.2</ele>
        <time>2020-04-14T18:28:57Z</time>
      </trkpt>
      <trkpt lat="42.7050250" lon="-7.0629300">
        <ele>1250.1</ele>
        <time>2020-04-14T18:28:59Z</time>
      </trkpt>
      <trkpt lat="42.7049840" lon="-7.0630950">
        <ele>1250.0</ele>
        <time>2020-04-14T18:29:01Z</time>
      </trkpt>
      <trkpt lat="42.7049410" lon="-7.0632670">
        <ele>1249.8</ele>
        <time>2020-04-14T18:29:03Z</time>
      </trkpt>
      <trkpt lat="42.7048970" lon="-7.0634440">
        <ele>1249.6</ele>
        <time>2020-04-14T18:29:05Z</time>
      </trkpt>
      <trkpt lat="42.7047880" lon="-7.0638770">
        <ele>1249.2</ele>
        <time>2020-04-14T18:29:07Z</time>
      </trkpt>
      <trkpt lat="42.7047410" lon="-7.0640640">
        <ele>1248.8</ele>
        <time>2020-04-14T18:29:09Z</time>
      </trkpt>
      <trkpt lat="42.7046930" lon="-7.0642560">
        <ele>1248.3</ele>
        <time>2020-04-14T18:29:11Z</time>
      </trkpt>
      <trkpt lat="42.7046440" lon="-7.0644520">
        <ele>1247.6</ele>
        <time>2020-04-14T18:29:13Z</time>
      </trkpt>
      <trkpt lat="42.7045320" lon="-7.0649020">
        <ele>1246.1</ele>
        <time>2020-04-14T18:29:15Z</time>
      </trkpt>
      <trkpt lat="42.7044800" lon="-7.0651100">
        <ele>1245.2</ele>
        <time>2020-04-14T18:29:17Z</time>
      </trkpt>
      <trkpt lat="42.7044260" lon="-7.0653250">
        <ele>1244.4</ele>
        <time>2020-04-14T18:29:19Z</time>
      </trkpt>
      <trkpt lat="42.7043150" lon="-7.0658020">
        <ele>1242.4</ele>
        <time>2020-04-14T18:29:21Z</time>
      </trkpt>
      <trkpt lat="42.7043210" lon="-7.0660940">
        <ele>1241.3</ele>
        <time>2020-04-14T18:29:23Z</time>
      </trkpt>
      <trkpt lat="42.7044090" lon="-7.0664290">
        <ele>1240.1</ele>
        <time>2020-04-14T18:29:25Z</time>
      </trkpt>
      <trkpt lat="42.7045010" lon="-7.0666450">
        <ele>1239.5</ele>
        <time>2020-04-14T18:29:27Z</time>
      </trkpt>
      <trkpt lat="42.7045940" lon="-7.0668620">
        <ele>1239.0</ele>
        <time>2020-04-14T18:29:29Z</time>
      </trkpt>
      <trkpt lat="42.7047570" lon="-7.0673080">
        <ele>1238.1</ele>
        <time>2020-04-14T18:29:31Z</time>
      </trkpt>
      <trkpt lat="42.7048090" lon="-7.0676290">
        <ele>1237.7</ele>
        <time>2020-04-14T18:29:33Z</time>
      </trkpt>
      <trkpt lat="42.7048360" lon="-7.0678820">
        <ele>1237.3</ele>
        <time>2020-04-14T18:29:35Z</time>
      </trkpt>
      <trkpt lat="42.7048780" lon="-7.0683540">
        <ele>1236.5</ele>
        <time>2020-04-14T18:29:37Z</time>
      </trkpt>
      <trkpt lat="42.7048540" lon="-7.0686990">
        <ele>1235.9</ele>
        <time>2020-04-14T18:29:39Z</time>
      </trkpt>
      <trkpt lat="42.7047710" lon="-7.0690130">
        <ele>1235.3</ele>
        <time>2020-04-14T18:29:41Z</time>
      </trkpt>
      <trkpt lat="42.7046850" lon="-7.0692310">
        <ele>1234.8</ele>
        <time>2020-04-14T18:29:43Z</time>
      </trkpt>
      <trkpt lat="42.7045300" lon="-7.0695440">
        <ele>1234.1</ele>
        <time>2020-04-14T18:29:45Z</time>
      </trkpt>
      <trkpt lat="42.7043620" lon="-7.0697630">
        <ele>1233.6</ele>
        <time>2020-04-14T18:29:47Z</time>
      </trkpt>
      <trkpt lat="42.7041770" lon="-7.0699470">
        <ele>1233.0</ele>
        <time>2020-04-14T18:29:49Z</time>
      </trkpt>
      <trkpt lat="42.7039610" lon="-7.0701400">
        <ele>1232.4</ele>
        <time>2020-04-14T18:29:51Z</time>
      </trkpt>
      <trkpt lat="42.7038070" lon="-7.0702450">
        <ele>1232.0</ele>
        <time>2020-04-14T18:29:53Z</time>
      </trkpt>
      <trkpt lat="42.7036480" lon="-7.0703550">
        <ele>1231.6</ele>
        <time>2020-04-14T18:29:55Z</time>
      </trkpt>
      <trkpt lat="42.7033220" lon="-7.0705790">
        <ele>1230.6</ele>
        <time>2020-04-14T18:29:57Z</time>
      </trkpt>
      <trkpt lat="42.7031650" lon="-7.0706870">
        <ele>1230.3</ele>
        <time>2020-04-14T18:29:59Z</time>
      </trkpt>
      <trkpt lat="42.7030160" lon="-7.0707890">
        <ele>1229.9</ele>
        <time>2020-04-14T18:30:01Z</time>
      </trkpt>
      <trkpt lat="42.7027060" lon="-7.0710020">
        <ele>1229.1</ele>
        <time>2020-04-14T18:30:03Z</time>
      </trkpt>
      <trkpt lat="42.7025640" lon="-7.0710990">
        <ele>1228.8</ele>
        <time>2020-04-14T18:30:05Z</time>
      </trkpt>
      <trkpt lat="42.7024240" lon="-7.0711950">
        <ele>1228.5</ele>
        <time>2020-04-14T18:30:07Z</time>
      </trkpt>
      <trkpt lat="42.7021220" lon="-7.0714030">
        <ele>1227.8</ele>
        <time>2020-04-14T18:30:09Z</time>
      </trkpt>
      <trkpt lat="42.7019830" lon="-7.0714980">
        <ele>1227.3</ele>
        <time>2020-04-14T18:30:11Z</time>
      </trkpt>
      <trkpt lat="42.7018450" lon="-7.0715930">
        <ele>1226.8</ele>
        <time>2020-04-14T18:30:13Z</time>
      </trkpt>
      <trkpt lat="42.7017050" lon="-7.0716890">
        <ele>1226.3</ele>
        <time>2020-04-14T18:30:15Z</time>
      </trkpt>
      <trkpt lat="42.7014000" lon="-7.0718960">
        <ele>1225.0</ele>
        <time>2020-04-14T18:30:17Z</time>
      </trkpt>
      <trkpt lat="42.7012590" lon="-7.0719890">
        <ele>1224.5</ele>
        <time>2020-04-14T18:30:19Z</time>
      </trkpt>
      <trkpt lat="42.7011180" lon="-7.0720810">
        <ele>1224.1</ele>
        <time>2020-04-14T18:30:21Z</time>
      </trkpt>
      <trkpt lat="42.7009770" lon="-7.0721740">
        <ele>1223.5</ele>
        <time>2020-04-14T18:30:23Z</time>
      </trkpt>
      <trkpt lat="42.7006240" lon="-7.0724030">
        <ele>1221.9</ele>
        <time>2020-04-14T18:30:25Z</time>
      </trkpt>
      <trkpt lat="42.7004770" lon="-7.0724940">
        <ele>1221.3</ele>
        <time>2020-04-14T18:30:27Z</time>
      </trkpt>
      <trkpt lat="42.7003250" lon="-7.0725880">
        <ele>1220.7</ele>
        <time>2020-04-14T18:30:29Z</time>
      </trkpt>
      <trkpt lat="42.6999940" lon="-7.0728030">
        <ele>1220.4</ele>
        <time>2020-04-14T18:30:31Z</time>
      </trkpt>
      <trkpt lat="42.6998240" lon="-7.0729720">
        <ele>1220.0</ele>
        <time>2020-04-14T18:30:33Z</time>
      </trkpt>
      <trkpt lat="42.6996850" lon="-7.0731200">
        <ele>1219.6</ele>
        <time>2020-04-14T18:30:35Z</time>
      </trkpt>
      <trkpt lat="42.6994810" lon="-7.0733700">
        <ele>1219.3</ele>
        <time>2020-04-14T18:30:37Z</time>
      </trkpt>
      <trkpt lat="42.6993140" lon="-7.0736130">
        <ele>1219.4</ele>
        <time>2020-04-14T18:30:39Z</time>
      </trkpt>
      <trkpt lat="42.6992210" lon="-7.0737660">
        <ele>1219.6</ele>
        <time>2020-04-14T18:30:41Z</time>
      </trkpt>
      <trkpt lat="42.6991330" lon="-7.0739110">
        <ele>1220.1</ele>
        <time>2020-04-14T18:30:43Z</time>
      </trkpt>
      <trkpt lat="42.6990500" lon="-7.0740470">
        <ele>1220.6</ele>
        <time>2020-04-14T18:30:45Z</time>
      </trkpt>
      <trkpt lat="42.6988370" lon="-7.0743950">
        <ele>1221.8</ele>
        <time>2020-04-14T18:30:47Z</time>
      </trkpt>
      <trkpt lat="42.6987600" lon="-7.0745130">
        <ele>1222.2</ele>
        <time>2020-04-14T18:30:49Z</time>
      </trkpt>
      <trkpt lat="42.6986860" lon="-7.0746260">
        <ele>1222.6</ele>
        <time>2020-04-14T18:30:51Z</time>
      </trkpt>
      <trkpt lat="42.6986150" lon="-7.0747330">
        <ele>1222.9</ele>
        <time>2020-04-14T18:30:53Z</time>
      </trkpt>
      <trkpt lat="42.6985470" lon="-7.0748380">
        <ele>1223.0</ele>
        <time>2020-04-14T18:30:55Z</time>
      </trkpt>
      <trkpt lat="42.6984820" lon="-7.0749380">
        <ele>1223.1</ele>
        <time>2020-04-14T18:30:57Z</time>
      </trkpt>
      <trkpt lat="42.6982760" lon="-7.0752650">
        <ele>1223.6</ele>
        <time>2020-04-14T18:30:59Z</time>
      </trkpt>
      <trkpt lat="42.6982190" lon="-7.0753720">
        <ele>1223.8</ele>
        <time>2020-04-14T18:31:01Z</time>
      </trkpt>
      <trkpt lat="42.6981150" lon="-7.0755770">
        <ele>1224.3</ele>
        <time>2020-04-14T18:31:03Z</time>
      </trkpt>
      <trkpt lat="42.6980810" lon="-7.0757010">
        <ele>1224.5</ele>
        <time>2020-04-14T18:31:05Z</time>
      </trkpt>
      <trkpt lat="42.6980340" lon="-7.0759050">
        <ele>1224.8</ele>
        <time>2020-04-14T18:31:07Z</time>
      </trkpt>
      <trkpt lat="42.6980230" lon="-7.0760900">
        <ele>1225.0</ele>
        <time>2020-04-14T18:31:09Z</time>
      </trkpt>
      <trkpt lat="42.6980510" lon="-7.0762460">
        <ele>1225.4</ele>
        <time>2020-04-14T18:31:11Z</time>
      </trkpt>
      <trkpt lat="42.6980830" lon="-7.0763590">
        <ele>1225.8</ele>
        <time>2020-04-14T18:31:13Z</time>
      </trkpt>
      <trkpt lat="42.6981120" lon="-7.0764630">
        <ele>1226.4</ele>
        <time>2020-04-14T18:31:15Z</time>
      </trkpt>
      <trkpt lat="42.6981390" lon="-7.0765610">
        <ele>1227.0</ele>
        <time>2020-04-14T18:31:17Z</time>
      </trkpt>
      <trkpt lat="42.6982070" lon="-7.0768160">
        <ele>1228.5</ele>
        <time>2020-04-14T18:31:19Z</time>
      </trkpt>
      <trkpt lat="42.6982260" lon="-7.0769060">
        <ele>1229.0</ele>
        <time>2020-04-14T18:31:21Z</time>
      </trkpt>
      <trkpt lat="42.6982440" lon="-7.0769930">
        <ele>1229.5</ele>
        <time>2020-04-14T18:31:23Z</time>
      </trkpt>
      <trkpt lat="42.6982610" lon="-7.0770780">
        <ele>1230.0</ele>
        <time>2020-04-14T18:31:25Z</time>
      </trkpt>
      <trkpt lat="42.6982780" lon="-7.0771600">
        <ele>1230.4</ele>
        <time>2020-04-14T18:31:27Z</time>
      </trkpt>
      <trkpt lat="42.6982950" lon="-7.0772430">
        <ele>1230.8</ele>
        <time>2020-04-14T18:31:29Z</time>
      </trkpt>
      <trkpt lat="42.6983620" lon="-7.0774870">
        <ele>1232.0</ele>
        <time>2020-04-14T18:31:31Z</time>
      </trkpt>
      <trkpt lat="42.6983960" lon="-7.0775660">
        <ele>1232.5</ele>
        <time>2020-04-14T18:31:33Z</time>
      </trkpt>
      <trkpt lat="42.6984310" lon="-7.0776480">
        <ele>1232.9</ele>
        <time>2020-04-14T18:31:35Z</time>
      </trkpt>
      <trkpt lat="42.6984660" lon="-7.0777310">
        <ele>1233.4</ele>
        <time>2020-04-14T18:31:37Z</time>
      </trkpt>
      <trkpt lat="42.6985010" lon="-7.0778130">
        <ele>1233.9</ele>
        <time>2020-04-14T18:31:39Z</time>
      </trkpt>
      <trkpt lat="42.6985360" lon="-7.0778960">
        <ele>1234.4</ele>
        <time>2020-04-14T18:31:41Z</time>
      </trkpt>
      <trkpt lat="42.6986510" lon="-7.0781740">
        <ele>1236.2</ele>
        <time>2020-04-14T18:31:43Z</time>
      </trkpt>
      <trkpt lat="42.6986800" lon="-7.0782610">
        <ele>1236.8</ele>
        <time>2020-04-14T18:31:45Z</time>
      </trkpt>
      <trkpt lat="42.6987200" lon="-7.0784120">
        <ele>1237.7</ele>
        <time>2020-04-14T18:31:47Z</time>
      </trkpt>
      <trkpt lat="42.6987310" lon="-7.0785070">
        <ele>1238.3</ele>
        <time>2020-04-14T18:31:49Z</time>
      </trkpt>
      <trkpt lat="42.6987390" lon="-7.0786780">
        <ele>1239.3</ele>
        <time>2020-04-14T18:31:51Z</time>
      </trkpt>
      <trkpt lat="42.6987390" lon="-7.0787750">
        <ele>1239.9</ele>
        <time>2020-04-14T18:31:53Z</time>
      </trkpt>
      <trkpt lat="42.6987240" lon="-7.0789160">
        <ele>1240.7</ele>
        <time>2020-04-14T18:31:55Z</time>
      </trkpt>
      <trkpt lat="42.6987000" lon="-7.0790660">
        <ele>1241.6</ele>
        <time>2020-04-14T18:31:57Z</time>
      </trkpt>
      <trkpt lat="42.6986710" lon="-7.0791800">
        <ele>1242.4</ele>
        <time>2020-04-14T18:31:59Z</time>
      </trkpt>
      <trkpt lat="42.6986400" lon="-7.0792460">
        <ele>1242.9</ele>
        <time>2020-04-14T18:32:01Z</time>
      </trkpt>
      <trkpt lat="42.6985910" lon="-7.0793490">
        <ele>1243.7</ele>
        <time>2020-04-14T18:32:03Z</time>
      </trkpt>
      <trkpt lat="42.6985590" lon="-7.0794080">
        <ele>1244.1</ele>
        <time>2020-04-14T18:32:05Z</time>
      </trkpt>
      <trkpt lat="42.6985290" lon="-7.0794660">
        <ele>1244.6</ele>
        <time>2020-04-14T18:32:07Z</time>
      </trkpt>
      <trkpt lat="42.6984990" lon="-7.0795230">
        <ele>1245.0</ele>
        <time>2020-04-14T18:32:09Z</time>
      </trkpt>
      <trkpt lat="42.6984230" lon="-7.0796670">
        <ele>1246.2</ele>
        <time>2020-04-14T18:32:11Z</time>
      </trkpt>
      <trkpt lat="42.6984050" lon="-7.0797330">
        <ele>1246.6</ele>
        <time>2020-04-14T18:32:13Z</time>
      </trkpt>
      <trkpt lat="42.6983890" lon="-7.0797980">
        <ele>1247.0</ele>
        <time>2020-04-14T18:32:15Z</time>
      </trkpt>
      <trkpt lat="42.6983660" lon="-7.0799200">
        <ele>1247.8</ele>
        <time>2020-04-14T18:32:17Z</time>
      </trkpt>
      <trkpt lat="42.6983510" lon="-7.0800220">
        <ele>1248.4</ele>
        <time>2020-04-14T18:32:19Z</time>
      </trkpt>
      <trkpt lat="42.6983510" lon="-7.0801140">
        <ele>1248.9</ele>
        <time>2020-04-14T18:32:21Z</time>
      </trkpt>
      <trkpt lat="42.6983540" lon="-7.0802140">
        <ele>1249.4</ele>
        <time>2020-04-14T18:32:23Z</time>
      </trkpt>
      <trkpt lat="42.6983610" lon="-7.0802940">
        <ele>1249.7</ele>
        <time>2020-04-14T18:32:25Z</time>
      </trkpt>
      <trkpt lat="42.6983830" lon="-7.0804290">
        <ele>1250.3</ele>
        <time>2020-04-14T18:32:27Z</time>
      </trkpt>
      <trkpt lat="42.6984120" lon="-7.0805360">
        <ele>1250.7</ele>
        <time>2020-04-14T18:32:29Z</time>
      </trkpt>
      <trkpt lat="42.6984420" lon="-7.0806100">
        <ele>1251.0</ele>
        <time>2020-04-14T18:32:31Z</time>
      </trkpt>
      <trkpt lat="42.6984880" lon="-7.0807210">
        <ele>1251.5</ele>
        <time>2020-04-14T18:32:33Z</time>
      </trkpt>
      <trkpt lat="42.6985180" lon="-7.0807950">
        <ele>1251.7</ele>
        <time>2020-04-14T18:32:35Z</time>
      </trkpt>
      <trkpt lat="42.6985480" lon="-7.0808700">
        <ele>1252.0</ele>
        <time>2020-04-14T18:32:37Z</time>
      </trkpt>
      <trkpt lat="42.6985780" lon="-7.0809440">
        <ele>1252.3</ele>
        <time>2020-04-14T18:32:39Z</time>
      </trkpt>
      <trkpt lat="42.6986080" lon="-7.0810190">
        <ele>1252.7</ele>
        <time>2020-04-14T18:32:41Z</time>
      </trkpt>
      <trkpt lat="42.6986880" lon="-7.0812510">
        <ele>1253.9</ele>
        <time>2020-04-14T18:32:43Z</time>
      </trkpt>
      <trkpt lat="42.6987090" lon="-7.0813300">
        <ele>1254.3</ele>
        <time>2020-04-14T18:32:45Z</time>
      </trkpt>
      <trkpt lat="42.6987320" lon="-7.0814520">
        <ele>1255.0</ele>
        <time>2020-04-14T18:32:47Z</time>
      </trkpt>
      <trkpt lat="42.6987480" lon="-7.0815800">
        <ele>1255.7</ele>
        <time>2020-04-14T18:32:49Z</time>
      </trkpt>
      <trkpt lat="42.6987450" lon="-7.0816590">
        <ele>1256.1</ele>
        <time>2020-04-14T18:32:51Z</time>
      </trkpt>
      <trkpt lat="42.6987400" lon="-7.0817840">
        <ele>1256.7</ele>
        <time>2020-04-14T18:32:53Z</time>
      </trkpt>
      <trkpt lat="42.6987350" lon="-7.0818940">
        <ele>1257.3</ele>
        <time>2020-04-14T18:32:55Z</time>
      </trkpt>
      <trkpt lat="42.6987300" lon="-7.0819720">
        <ele>1257.7</ele>
        <time>2020-04-14T18:32:57Z</time>
      </trkpt>
      <trkpt lat="42.6987250" lon="-7.0820490">
        <ele>1258.1</ele>
        <time>2020-04-14T18:32:59Z</time>
      </trkpt>
      <trkpt lat="42.6987200" lon="-7.0821260">
        <ele>1258.5</ele>
        <time>2020-04-14T18:33:01Z</time>
      </trkpt>
      <trkpt lat="42.6987160" lon="-7.0822040">
        <ele>1258.9</ele>
        <time>2020-04-14T18:33:03Z</time>
      </trkpt>
      <trkpt lat="42.6987030" lon="-7.0824220">
        <ele>1260.0</ele>
        <time>2020-04-14T18:33:05Z</time>
      </trkpt>
      <trkpt lat="42.6987010" lon="-7.0825150">
        <ele>1260.5</ele>
        <time>2020-04-14T18:33:07Z</time>
      </trkpt>
      <trkpt lat="42.6987000" lon="-7.0826040">
        <ele>1261.0</ele>
        <time>2020-04-14T18:33:09Z</time>
      </trkpt>
      <trkpt lat="42.6986990" lon="-7.0826980">
        <ele>1261.5</ele>
        <time>2020-04-14T18:33:11Z</time>
      </trkpt>
      <trkpt lat="42.6986970" lon="-7.0827940">
        <ele>1262.0</ele>
        <time>2020-04-14T18:33:13Z</time>
      </trkpt>
      <trkpt lat="42.6986930" lon="-7.0830370">
        <ele>1263.3</ele>
        <time>2020-04-14T18:33:15Z</time>
      </trkpt>
      <trkpt lat="42.6986870" lon="-7.0831350">
        <ele>1263.8</ele>
        <time>2020-04-14T18:33:17Z</time>
      </trkpt>
      <trkpt lat="42.6986820" lon="-7.0832330">
        <ele>1264.3</ele>
        <time>2020-04-14T18:33:19Z</time>
      </trkpt>
      <trkpt lat="42.6986770" lon="-7.0833310">
        <ele>1264.8</ele>
        <time>2020-04-14T18:33:21Z</time>
      </trkpt>
      <trkpt lat="42.6986710" lon="-7.0834300">
        <ele>1265.2</ele>
        <time>2020-04-14T18:33:23Z</time>
      </trkpt>
      <trkpt lat="42.6986560" lon="-7.0837080">
        <ele>1266.1</ele>
        <time>2020-04-14T18:33:25Z</time>
      </trkpt>
      <trkpt lat="42.6986500" lon="-7.0838400">
        <ele>1266.3</ele>
        <time>2020-04-14T18:33:27Z</time>
      </trkpt>
      <trkpt lat="42.6986450" lon="-7.0839690">
        <ele>1266.5</ele>
        <time>2020-04-14T18:33:29Z</time>
      </trkpt>
      <trkpt lat="42.6986410" lon="-7.0840910">
        <ele>1266.7</ele>
        <time>2020-04-14T18:33:31Z</time>
      </trkpt>
      <trkpt lat="42.6986360" lon="-7.0842240">
        <ele>1267.0</ele>
        <time>2020-04-14T18:33:33Z</time>
      </trkpt>
      <trkpt lat="42.6986370" lon="-7.0844900">
        <ele>1268.4</ele>
        <time>2020-04-14T18:33:35Z</time>
      </trkpt>
      <trkpt lat="42.6986460" lon="-7.0847040">
        <ele>1269.5</ele>
        <time>2020-04-14T18:33:37Z</time>
      </trkpt>
      <trkpt lat="42.6986530" lon="-7.0848520">
        <ele>1269.0</ele>
        <time>2020-04-14T18:33:39Z</time>
      </trkpt>
      <trkpt lat="42.6986660" lon="-7.0851230">
        <ele>1268.0</ele>
        <time>2020-04-14T18:33:41Z</time>
      </trkpt>
      <trkpt lat="42.6986740" lon="-7.0852930">
        <ele>1267.3</ele>
        <time>2020-04-14T18:33:43Z</time>
      </trkpt>
      <trkpt lat="42.6986830" lon="-7.0854820">
        <ele>1266.5</ele>
        <time>2020-04-14T18:33:45Z</time>
      </trkpt>
      <trkpt lat="42.6987080" lon="-7.0858630">
        <ele>1264.6</ele>
        <time>2020-04-14T18:33:47Z</time>
      </trkpt>
      <trkpt lat="42.6987510" lon="-7.0861720">
        <ele>1263.0</ele>
        <time>2020-04-14T18:33:49Z</time>
      </trkpt>
      <trkpt lat="42.6988140" lon="-7.0864410">
        <ele>1261.6</ele>
        <time>2020-04-14T18:33:51Z</time>
      </trkpt>
      <trkpt lat="42.6988680" lon="-7.0866690">
        <ele>1260.5</ele>
        <time>2020-04-14T18:33:53Z</time>
      </trkpt>
      <trkpt lat="42.6989690" lon="-7.0871090">
        <ele>1258.2</ele>
        <time>2020-04-14T18:33:55Z</time>
      </trkpt>
      <trkpt lat="42.6990150" lon="-7.0873530">
        <ele>1257.2</ele>
        <time>2020-04-14T18:33:57Z</time>
      </trkpt>
      <trkpt lat="42.6990530" lon="-7.0877920">
        <ele>1255.8</ele>
        <time>2020-04-14T18:33:59Z</time>
      </trkpt>
      <trkpt lat="42.6990180" lon="-7.0880770">
        <ele>1254.4</ele>
        <time>2020-04-14T18:34:01Z</time>
      </trkpt>
      <trkpt lat="42.6989100" lon="-7.0883800">
        <ele>1252.6</ele>
        <time>2020-04-14T18:34:03Z</time>
      </trkpt>
      <trkpt lat="42.6987440" lon="-7.0885920">
        <ele>1251.3</ele>
        <time>2020-04-14T18:34:05Z</time>
      </trkpt>
      <trkpt lat="42.6985300" lon="-7.0887180">
        <ele>1250.4</ele>
        <time>2020-04-14T18:34:07Z</time>
      </trkpt>
      <trkpt lat="42.6983170" lon="-7.0888510">
        <ele>1248.5</ele>
        <time>2020-04-14T18:34:09Z</time>
      </trkpt>
      <trkpt lat="42.6980500" lon="-7.0890770">
        <ele>1245.0</ele>
        <time>2020-04-14T18:34:11Z</time>
      </trkpt>
      <trkpt lat="42.6978860" lon="-7.0894160">
        <ele>1241.6</ele>
        <time>2020-04-14T18:34:13Z</time>
      </trkpt>
      <trkpt lat="42.6978450" lon="-7.0898480">
        <ele>1237.9</ele>
        <time>2020-04-14T18:34:15Z</time>
      </trkpt>
      <trkpt lat="42.6979570" lon="-7.0902520">
        <ele>1235.3</ele>
        <time>2020-04-14T18:34:17Z</time>
      </trkpt>
      <trkpt lat="42.6981780" lon="-7.0905700">
        <ele>1233.0</ele>
        <time>2020-04-14T18:34:19Z</time>
      </trkpt>
      <trkpt lat="42.6983680" lon="-7.0907930">
        <ele>1231.0</ele>
        <time>2020-04-14T18:34:21Z</time>
      </trkpt>
      <trkpt lat="42.6987200" lon="-7.0912070">
        <ele>1227.3</ele>
        <time>2020-04-14T18:34:23Z</time>
      </trkpt>
      <trkpt lat="42.6989070" lon="-7.0914280">
        <ele>1225.2</ele>
        <time>2020-04-14T18:34:25Z</time>
      </trkpt>
      <trkpt lat="42.6990940" lon="-7.0916470">
        <ele>1223.2</ele>
        <time>2020-04-14T18:34:27Z</time>
      </trkpt>
      <trkpt lat="42.6994460" lon="-7.0920580">
        <ele>1219.9</ele>
        <time>2020-04-14T18:34:29Z</time>
      </trkpt>
      <trkpt lat="42.6996350" lon="-7.0922740">
        <ele>1218.1</ele>
        <time>2020-04-14T18:34:31Z</time>
      </trkpt>
      <trkpt lat="42.6999900" lon="-7.0926830">
        <ele>1215.5</ele>
        <time>2020-04-14T18:34:33Z</time>
      </trkpt>
      <trkpt lat="42.7001790" lon="-7.0929000">
        <ele>1213.3</ele>
        <time>2020-04-14T18:34:35Z</time>
      </trkpt>
      <trkpt lat="42.7005120" lon="-7.0932850">
        <ele>1209.0</ele>
        <time>2020-04-14T18:34:37Z</time>
      </trkpt>
      <trkpt lat="42.7007210" lon="-7.0935330">
        <ele>1206.3</ele>
        <time>2020-04-14T18:34:39Z</time>
      </trkpt>
      <trkpt lat="42.7009010" lon="-7.0937460">
        <ele>1204.2</ele>
        <time>2020-04-14T18:34:41Z</time>
      </trkpt>
      <trkpt lat="42.7012380" lon="-7.0941560">
        <ele>1201.4</ele>
        <time>2020-04-14T18:34:43Z</time>
      </trkpt>
      <trkpt lat="42.7014160" lon="-7.0944100">
        <ele>1201.0</ele>
        <time>2020-04-14T18:34:45Z</time>
      </trkpt>
      <trkpt lat="42.7016570" lon="-7.0947540">
        <ele>1200.0</ele>
        <time>2020-04-14T18:34:47Z</time>
      </trkpt>
      <trkpt lat="42.7018010" lon="-7.0949600">
        <ele>1199.5</ele>
        <time>2020-04-14T18:34:49Z</time>
      </trkpt>
      <trkpt lat="42.7020570" lon="-7.0953240">
        <ele>1199.7</ele>
        <time>2020-04-14T18:34:51Z</time>
      </trkpt>
      <trkpt lat="42.7022000" lon="-7.0955420">
        <ele>1200.5</ele>
        <time>2020-04-14T18:34:53Z</time>
      </trkpt>
      <trkpt lat="42.7023110" lon="-7.0957110">
        <ele>1201.5</ele>
        <time>2020-04-14T18:34:55Z</time>
      </trkpt>
      <trkpt lat="42.7025000" lon="-7.0959940">
        <ele>1204.2</ele>
        <time>2020-04-14T18:34:57Z</time>
      </trkpt>
      <trkpt lat="42.7025960" lon="-7.0961250">
        <ele>1205.5</ele>
        <time>2020-04-14T18:34:59Z</time>
      </trkpt>
      <trkpt lat="42.7027460" lon="-7.0963260">
        <ele>1207.7</ele>
        <time>2020-04-14T18:35:01Z</time>
      </trkpt>
      <trkpt lat="42.7028190" lon="-7.0964200">
        <ele>1208.6</ele>
        <time>2020-04-14T18:35:03Z</time>
      </trkpt>
      <trkpt lat="42.7028810" lon="-7.0965000">
        <ele>1209.3</ele>
        <time>2020-04-14T18:35:05Z</time>
      </trkpt>
      <trkpt lat="42.7030220" lon="-7.0966690">
        <ele>1210.9</ele>
        <time>2020-04-14T18:35:07Z</time>
      </trkpt>
      <trkpt lat="42.7030740" lon="-7.0967240">
        <ele>1211.4</ele>
        <time>2020-04-14T18:35:09Z</time>
      </trkpt>
      <trkpt lat="42.7031210" lon="-7.0967740">
        <ele>1211.8</ele>
        <time>2020-04-14T18:35:11Z</time>
      </trkpt>
      <trkpt lat="42.7031650" lon="-7.0968190">
        <ele>1212.2</ele>
        <time>2020-04-14T18:35:13Z</time>
      </trkpt>
      <trkpt lat="42.7032050" lon="-7.0968620">
        <ele>1212.5</ele>
        <time>2020-04-14T18:35:15Z</time>
      </trkpt>
      <trkpt lat="42.7033150" lon="-7.0969780">
        <ele>1213.2</ele>
        <time>2020-04-14T18:35:17Z</time>
      </trkpt>
      <trkpt lat="42.7033500" lon="-7.0970150">
        <ele>1213.7</ele>
        <time>2020-04-14T18:35:19Z</time>
      </trkpt>
      <trkpt lat="42.7033830" lon="-7.0970490">
        <ele>1214.1</ele>
        <time>2020-04-14T18:35:21Z</time>
      </trkpt>
      <trkpt lat="42.7034150" lon="-7.0970830">
        <ele>1214.5</ele>
        <time>2020-04-14T18:35:23Z</time>
      </trkpt>
      <trkpt lat="42.7034460" lon="-7.0971160">
        <ele>1215.0</ele>
        <time>2020-04-14T18:35:25Z</time>
      </trkpt>
      <trkpt lat="42.7035360" lon="-7.0972130">
        <ele>1216.4</ele>
        <time>2020-04-14T18:35:27Z</time>
      </trkpt>
      <trkpt lat="42.7035650" lon="-7.0972490">
        <ele>1216.9</ele>
        <time>2020-04-14T18:35:29Z</time>
      </trkpt>
      <trkpt lat="42.7035940" lon="-7.0972840">
        <ele>1217.4</ele>
        <time>2020-04-14T18:35:31Z</time>
      </trkpt>
      <trkpt lat="42.7036230" lon="-7.0973200">
        <ele>1217.9</ele>
        <time>2020-04-14T18:35:33Z</time>
      </trkpt>
      <trkpt lat="42.7036520" lon="-7.0973550">
        <ele>1218.3</ele>
        <time>2020-04-14T18:35:35Z</time>
      </trkpt>
      <trkpt lat="42.7036800" lon="-7.0973900">
        <ele>1218.8</ele>
        <time>2020-04-14T18:35:37Z</time>
      </trkpt>
      <trkpt lat="42.7037090" lon="-7.0974260">
        <ele>1219.3</ele>
        <time>2020-04-14T18:35:39Z</time>
      </trkpt>
      <trkpt lat="42.7037380" lon="-7.0974610">
        <ele>1219.8</ele>
        <time>2020-04-14T18:35:41Z</time>
      </trkpt>
      <trkpt lat="42.7037670" lon="-7.0974960">
        <ele>1220.3</ele>
        <time>2020-04-14T18:35:43Z</time>
      </trkpt>
      <trkpt lat="42.7037960" lon="-7.0975320">
        <ele>1220.8</ele>
        <time>2020-04-14T18:35:45Z</time>
      </trkpt>
      <trkpt lat="42.7039270" lon="-7.0976960">
        <ele>1223.1</ele>
        <time>2020-04-14T18:35:47Z</time>
      </trkpt>
      <trkpt lat="42.7039540" lon="-7.0977360">
        <ele>1223.6</ele>
        <time>2020-04-14T18:35:49Z</time>
      </trkpt>
      <trkpt lat="42.7039800" lon="-7.0977750">
        <ele>1224.1</ele>
        <time>2020-04-14T18:35:51Z</time>
      </trkpt>
      <trkpt lat="42.7040330" lon="-7.0978610">
        <ele>1225.2</ele>
        <time>2020-04-14T18:35:53Z</time>
      </trkpt>
      <trkpt lat="42.7040790" lon="-7.0979590">
        <ele>1226.3</ele>
        <time>2020-04-14T18:35:55Z</time>
      </trkpt>
      <trkpt lat="42.7041180" lon="-7.0980640">
        <ele>1227.3</ele>
        <time>2020-04-14T18:35:57Z</time>
      </trkpt>
      <trkpt lat="42.7041520" lon="-7.0981830">
        <ele>1228.4</ele>
        <time>2020-04-14T18:35:59Z</time>
      </trkpt>
      <trkpt lat="42.7041780" lon="-7.0982930">
        <ele>1229.3</ele>
        <time>2020-04-14T18:36:01Z</time>
      </trkpt>
      <trkpt lat="42.7042060" lon="-7.0984250">
        <ele>1229.8</ele>
        <time>2020-04-14T18:36:03Z</time>
      </trkpt>
      <trkpt lat="42.7042230" lon="-7.0985210">
        <ele>1230.0</ele>
        <time>2020-04-14T18:36:05Z</time>
      </trkpt>
      <trkpt lat="42.7042550" lon="-7.0987000">
        <ele>1230.5</ele>
        <time>2020-04-14T18:36:07Z</time>
      </trkpt>
      <trkpt lat="42.7042690" lon="-7.0987960">
        <ele>1230.6</ele>
        <time>2020-04-14T18:36:09Z</time>
      </trkpt>
      <trkpt lat="42.7042860" lon="-7.0989450">
        <ele>1230.9</ele>
        <time>2020-04-14T18:36:11Z</time>
      </trkpt>
      <trkpt lat="42.7042980" lon="-7.0990910">
        <ele>1231.2</ele>
        <time>2020-04-14T18:36:13Z</time>
      </trkpt>
      <trkpt lat="42.7043050" lon="-7.0991820">
        <ele>1231.5</ele>
        <time>2020-04-14T18:36:15Z</time>
      </trkpt>
      <trkpt lat="42.7043120" lon="-7.0992680">
        <ele>1231.8</ele>
        <time>2020-04-14T18:36:17Z</time>
      </trkpt>
      <trkpt lat="42.7043190" lon="-7.0993500">
        <ele>1232.2</ele>
        <time>2020-04-14T18:36:19Z</time>
      </trkpt>
      <trkpt lat="42.7043260" lon="-7.0994290">
        <ele>1232.6</ele>
        <time>2020-04-14T18:36:21Z</time>
      </trkpt>
      <trkpt lat="42.7043320" lon="-7.0995070">
        <ele>1233.0</ele>
        <time>2020-04-14T18:36:23Z</time>
      </trkpt>
      <trkpt lat="42.7043380" lon="-7.0995820">
        <ele>1233.4</ele>
        <time>2020-04-14T18:36:25Z</time>
      </trkpt>
      <trkpt lat="42.7043620" lon="-7.0998640">
        <ele>1234.9</ele>
        <time>2020-04-14T18:36:27Z</time>
      </trkpt>
      <trkpt lat="42.7043680" lon="-7.0999380">
        <ele>1235.3</ele>
        <time>2020-04-14T18:36:29Z</time>
      </trkpt>
      <trkpt lat="42.7043750" lon="-7.1000110">
        <ele>1235.7</ele>
        <time>2020-04-14T18:36:31Z</time>
      </trkpt>
      <trkpt lat="42.7043890" lon="-7.1001710">
        <ele>1236.6</ele>
        <time>2020-04-14T18:36:33Z</time>
      </trkpt>
      <trkpt lat="42.7043970" lon="-7.1002440">
        <ele>1237.1</ele>
        <time>2020-04-14T18:36:35Z</time>
      </trkpt>
      <trkpt lat="42.7044040" lon="-7.1003170">
        <ele>1237.5</ele>
        <time>2020-04-14T18:36:37Z</time>
      </trkpt>
      <trkpt lat="42.7044120" lon="-7.1003900">
        <ele>1238.0</ele>
        <time>2020-04-14T18:36:39Z</time>
      </trkpt>
      <trkpt lat="42.7044200" lon="-7.1004630">
        <ele>1238.4</ele>
        <time>2020-04-14T18:36:41Z</time>
      </trkpt>
      <trkpt lat="42.7044420" lon="-7.1006570">
        <ele>1239.8</ele>
        <time>2020-04-14T18:36:43Z</time>
      </trkpt>
      <trkpt lat="42.7044510" lon="-7.1007290">
        <ele>1240.2</ele>
        <time>2020-04-14T18:36:45Z</time>
      </trkpt>
      <trkpt lat="42.7044590" lon="-7.1008010">
        <ele>1240.7</ele>
        <time>2020-04-14T18:36:47Z</time>
      </trkpt>
      <trkpt lat="42.7044790" lon="-7.1009410">
        <ele>1241.4</ele>
        <time>2020-04-14T18:36:49Z</time>
      </trkpt>
      <trkpt lat="42.7044920" lon="-7.1010120">
        <ele>1241.8</ele>
        <time>2020-04-14T18:36:51Z</time>
      </trkpt>
      <trkpt lat="42.7045040" lon="-7.1010840">
        <ele>1242.2</ele>
        <time>2020-04-14T18:36:53Z</time>
      </trkpt>
      <trkpt lat="42.7045170" lon="-7.1011550">
        <ele>1242.7</ele>
        <time>2020-04-14T18:36:55Z</time>
      </trkpt>
      <trkpt lat="42.7045300" lon="-7.1012270">
        <ele>1243.3</ele>
        <time>2020-04-14T18:36:57Z</time>
      </trkpt>
      <trkpt lat="42.7045420" lon="-7.1012980">
        <ele>1243.9</ele>
        <time>2020-04-14T18:36:59Z</time>
      </trkpt>
      <trkpt lat="42.7045550" lon="-7.1013690">
        <ele>1244.6</ele>
        <time>2020-04-14T18:37:01Z</time>
      </trkpt>
      <trkpt lat="42.7045670" lon="-7.1014400">
        <ele>1245.2</ele>
        <time>2020-04-14T18:37:03Z</time>
      </trkpt>
      <trkpt lat="42.7046190" lon="-7.1017340">
        <ele>1247.1</ele>
        <time>2020-04-14T18:37:05Z</time>
      </trkpt>
      <trkpt lat="42.7046320" lon="-7.1018110">
        <ele>1246.8</ele>
        <time>2020-04-14T18:37:07Z</time>
      </trkpt>
      <trkpt lat="42.7046430" lon="-7.1018820">
        <ele>1246.6</ele>
        <time>2020-04-14T18:37:09Z</time>
      </trkpt>
      <trkpt lat="42.7046740" lon="-7.1020150">
        <ele>1246.1</ele>
        <time>2020-04-14T18:37:11Z</time>
      </trkpt>
      <trkpt lat="42.7047250" lon="-7.1021590">
        <ele>1245.5</ele>
        <time>2020-04-14T18:37:13Z</time>
      </trkpt>
      <trkpt lat="42.7047770" lon="-7.1022720">
        <ele>1244.8</ele>
        <time>2020-04-14T18:37:15Z</time>
      </trkpt>
      <trkpt lat="42.7048350" lon="-7.1024000">
        <ele>1244.1</ele>
        <time>2020-04-14T18:37:17Z</time>
      </trkpt>
      <trkpt lat="42.7049550" lon="-7.1026710">
        <ele>1242.1</ele>
        <time>2020-04-14T18:37:19Z</time>
      </trkpt>
      <trkpt lat="42.7050150" lon="-7.1028280">
        <ele>1240.9</ele>
        <time>2020-04-14T18:37:21Z</time>
      </trkpt>
      <trkpt lat="42.7050800" lon="-7.1029960">
        <ele>1239.7</ele>
        <time>2020-04-14T18:37:23Z</time>
      </trkpt>
      <trkpt lat="42.7052010" lon="-7.1033120">
        <ele>1238.8</ele>
        <time>2020-04-14T18:37:25Z</time>
      </trkpt>
      <trkpt lat="42.7052940" lon="-7.1035780">
        <ele>1238.8</ele>
        <time>2020-04-14T18:37:27Z</time>
      </trkpt>
      <trkpt lat="42.7053810" lon="-7.1038870">
        <ele>1238.8</ele>
        <time>2020-04-14T18:37:29Z</time>
      </trkpt>
      <trkpt lat="42.7053990" lon="-7.1041780">
        <ele>1238.8</ele>
        <time>2020-04-14T18:37:31Z</time>
      </trkpt>
      <trkpt lat="42.7053630" lon="-7.1044810">
        <ele>1239.0</ele>
        <time>2020-04-14T18:37:33Z</time>
      </trkpt>
      <trkpt lat="42.7052740" lon="-7.1047600">
        <ele>1239.2</ele>
        <time>2020-04-14T18:37:35Z</time>
      </trkpt>
      <trkpt lat="42.7051950" lon="-7.1049270">
        <ele>1239.4</ele>
        <time>2020-04-14T18:37:37Z</time>
      </trkpt>
      <trkpt lat="42.7050950" lon="-7.1052390">
        <ele>1239.9</ele>
        <time>2020-04-14T18:37:39Z</time>
      </trkpt>
      <trkpt lat="42.7050830" lon="-7.1054650">
        <ele>1240.4</ele>
        <time>2020-04-14T18:37:41Z</time>
      </trkpt>
      <trkpt lat="42.7051060" lon="-7.1056980">
        <ele>1240.9</ele>
        <time>2020-04-14T18:37:43Z</time>
      </trkpt>
      <trkpt lat="42.7051560" lon="-7.1059120">
        <ele>1241.5</ele>
        <time>2020-04-14T18:37:45Z</time>
      </trkpt>
      <trkpt lat="42.7052200" lon="-7.1060760">
        <ele>1242.1</ele>
        <time>2020-04-14T18:37:47Z</time>
      </trkpt>
      <trkpt lat="42.7053010" lon="-7.1062280">
        <ele>1242.7</ele>
        <time>2020-04-14T18:37:49Z</time>
      </trkpt>
      <trkpt lat="42.7053890" lon="-7.1063740">
        <ele>1243.4</ele>
        <time>2020-04-14T18:37:51Z</time>
      </trkpt>
      <trkpt lat="42.7054990" lon="-7.1065680">
        <ele>1244.3</ele>
        <time>2020-04-14T18:37:53Z</time>
      </trkpt>
      <trkpt lat="42.7055610" lon="-7.1067160">
        <ele>1245.0</ele>
        <time>2020-04-14T18:37:55Z</time>
      </trkpt>
      <trkpt lat="42.7056070" lon="-7.1068960">
        <ele>1245.5</ele>
        <time>2020-04-14T18:37:57Z</time>
      </trkpt>
      <trkpt lat="42.7056260" lon="-7.1070210">
        <ele>1245.8</ele>
        <time>2020-04-14T18:37:59Z</time>
      </trkpt>
      <trkpt lat="42.7056440" lon="-7.1071410">
        <ele>1246.0</ele>
        <time>2020-04-14T18:38:01Z</time>
      </trkpt>
      <trkpt lat="42.7056820" lon="-7.1073710">
        <ele>1246.3</ele>
        <time>2020-04-14T18:38:03Z</time>
      </trkpt>
      <trkpt lat="42.7057030" lon="-7.1074790">
        <ele>1246.4</ele>
        <time>2020-04-14T18:38:05Z</time>
      </trkpt>
      <trkpt lat="42.7057430" lon="-7.1076850">
        <ele>1246.7</ele>
        <time>2020-04-14T18:38:07Z</time>
      </trkpt>
      <trkpt lat="42.7057740" lon="-7.1077930">
        <ele>1247.7</ele>
        <time>2020-04-14T18:38:09Z</time>
      </trkpt>
      <trkpt lat="42.7058040" lon="-7.1078880">
        <ele>1248.5</ele>
        <time>2020-04-14T18:38:11Z</time>
      </trkpt>
      <trkpt lat="42.7058770" lon="-7.1080630">
        <ele>1250.1</ele>
        <time>2020-04-14T18:38:13Z</time>
      </trkpt>
      <trkpt lat="42.7059370" lon="-7.1081620">
        <ele>1251.1</ele>
        <time>2020-04-14T18:38:15Z</time>
      </trkpt>
      <trkpt lat="42.7060180" lon="-7.1082490">
        <ele>1252.2</ele>
        <time>2020-04-14T18:38:17Z</time>
      </trkpt>
      <trkpt lat="42.7061260" lon="-7.1083350">
        <ele>1253.5</ele>
        <time>2020-04-14T18:38:19Z</time>
      </trkpt>
      <trkpt lat="42.7062030" lon="-7.1083700">
        <ele>1253.3</ele>
        <time>2020-04-14T18:38:21Z</time>
      </trkpt>
      <trkpt lat="42.7063160" lon="-7.1084040">
        <ele>1253.0</ele>
        <time>2020-04-14T18:38:23Z</time>
      </trkpt>
      <trkpt lat="42.7064360" lon="-7.1084180">
        <ele>1252.8</ele>
        <time>2020-04-14T18:38:25Z</time>
      </trkpt>
      <trkpt lat="42.7065560" lon="-7.1084100">
        <ele>1252.7</ele>
        <time>2020-04-14T18:38:27Z</time>
      </trkpt>
      <trkpt lat="42.7066690" lon="-7.1083810">
        <ele>1252.8</ele>
        <time>2020-04-14T18:38:29Z</time>
      </trkpt>
      <trkpt lat="42.7067590" lon="-7.1083650">
        <ele>1252.8</ele>
        <time>2020-04-14T18:38:31Z</time>
      </trkpt>
      <trkpt lat="42.7069120" lon="-7.1083390">
        <ele>1252.9</ele>
        <time>2020-04-14T18:38:33Z</time>
      </trkpt>
      <trkpt lat="42.7070580" lon="-7.1083320">
        <ele>1253.0</ele>
        <time>2020-04-14T18:38:35Z</time>
      </trkpt>
      <trkpt lat="42.7072150" lon="-7.1083700">
        <ele>1253.0</ele>
        <time>2020-04-14T18:38:37Z</time>
      </trkpt>
      <trkpt lat="42.7074080" lon="-7.1084690">
        <ele>1252.6</ele>
        <time>2020-04-14T18:38:39Z</time>
      </trkpt>
      <trkpt lat="42.7075510" lon="-7.1086050">
        <ele>1252.1</ele>
        <time>2020-04-14T18:38:41Z</time>
      </trkpt>
      <trkpt lat="42.7076770" lon="-7.1087860">
        <ele>1251.2</ele>
        <time>2020-04-14T18:38:43Z</time>
      </trkpt>
      <trkpt lat="42.7077460" lon="-7.1090440">
        <ele>1250.2</ele>
        <time>2020-04-14T18:38:45Z</time>
      </trkpt>
      <trkpt lat="42.7077360" lon="-7.1093070">
        <ele>1249.0</ele>
        <time>2020-04-14T18:38:47Z</time>
      </trkpt>
      <trkpt lat="42.7076650" lon="-7.1095740">
        <ele>1247.7</ele>
        <time>2020-04-14T18:38:49Z</time>
      </trkpt>
      <trkpt lat="42.7075800" lon="-7.1098020">
        <ele>1246.6</ele>
        <time>2020-04-14T18:38:51Z</time>
      </trkpt>
      <trkpt lat="42.7074910" lon="-7.1100570">
        <ele>1245.4</ele>
        <time>2020-04-14T18:38:53Z</time>
      </trkpt>
      <trkpt lat="42.7074190" lon="-7.1103580">
        <ele>1244.4</ele>
        <time>2020-04-14T18:38:55Z</time>
      </trkpt>
      <trkpt lat="42.7074350" lon="-7.1106500">
        <ele>1243.9</ele>
        <time>2020-04-14T18:38:57Z</time>
      </trkpt>
      <trkpt lat="42.7074990" lon="-7.1108840">
        <ele>1244.5</ele>
        <time>2020-04-14T18:38:59Z</time>
      </trkpt>
      <trkpt lat="42.7075890" lon="-7.1111450">
        <ele>1245.3</ele>
        <time>2020-04-14T18:39:01Z</time>
      </trkpt>
      <trkpt lat="42.7076600" lon="-7.1113000">
        <ele>1245.9</ele>
        <time>2020-04-14T18:39:03Z</time>
      </trkpt>
      <trkpt lat="42.7077860" lon="-7.1115080">
        <ele>1246.7</ele>
        <time>2020-04-14T18:39:05Z</time>
      </trkpt>
      <trkpt lat="42.7079150" lon="-7.1116230">
        <ele>1247.3</ele>
        <time>2020-04-14T18:39:07Z</time>
      </trkpt>
      <trkpt lat="42.7080250" lon="-7.1116660">
        <ele>1247.9</ele>
        <time>2020-04-14T18:39:09Z</time>
      </trkpt>
      <trkpt lat="42.7081430" lon="-7.1116910">
        <ele>1248.5</ele>
        <time>2020-04-14T18:39:11Z</time>
      </trkpt>
      <trkpt lat="42.7082150" lon="-7.1117040">
        <ele>1248.9</ele>
        <time>2020-04-14T18:39:13Z</time>
      </trkpt>
      <trkpt lat="42.7083440" lon="-7.1117290">
        <ele>1249.9</ele>
        <time>2020-04-14T18:39:15Z</time>
      </trkpt>
      <trkpt lat="42.7084030" lon="-7.1117510">
        <ele>1250.3</ele>
        <time>2020-04-14T18:39:17Z</time>
      </trkpt>
      <trkpt lat="42.7084910" lon="-7.1117840">
        <ele>1251.1</ele>
        <time>2020-04-14T18:39:19Z</time>
      </trkpt>
      <trkpt lat="42.7085670" lon="-7.1118160">
        <ele>1251.8</ele>
        <time>2020-04-14T18:39:21Z</time>
      </trkpt>
      <trkpt lat="42.7086240" lon="-7.1118440">
        <ele>1252.3</ele>
        <time>2020-04-14T18:39:23Z</time>
      </trkpt>
      <trkpt lat="42.7086810" lon="-7.1118710">
        <ele>1252.9</ele>
        <time>2020-04-14T18:39:25Z</time>
      </trkpt>
      <trkpt lat="42.7087370" lon="-7.1118980">
        <ele>1253.4</ele>
        <time>2020-04-14T18:39:27Z</time>
      </trkpt>
      <trkpt lat="42.7087920" lon="-7.1119250">
        <ele>1253.9</ele>
        <time>2020-04-14T18:39:29Z</time>
      </trkpt>
      <trkpt lat="42.7089540" lon="-7.1120020">
        <ele>1255.5</ele>
        <time>2020-04-14T18:39:31Z</time>
      </trkpt>
      <trkpt lat="42.7090080" lon="-7.1120260">
        <ele>1256.1</ele>
        <time>2020-04-14T18:39:33Z</time>
      </trkpt>
      <trkpt lat="42.7090610" lon="-7.1120510">
        <ele>1256.7</ele>
        <time>2020-04-14T18:39:35Z</time>
      </trkpt>
      <trkpt lat="42.7091150" lon="-7.1120750">
        <ele>1257.2</ele>
        <time>2020-04-14T18:39:37Z</time>
      </trkpt>
      <trkpt lat="42.7091690" lon="-7.1120990">
        <ele>1257.8</ele>
        <time>2020-04-14T18:39:39Z</time>
      </trkpt>
      <trkpt lat="42.7093100" lon="-7.1121710">
        <ele>1259.2</ele>
        <time>2020-04-14T18:39:41Z</time>
      </trkpt>
      <trkpt lat="42.7093890" lon="-7.1122250">
        <ele>1260.0</ele>
        <time>2020-04-14T18:39:43Z</time>
      </trkpt>
      <trkpt lat="42.7094380" lon="-7.1122770">
        <ele>1260.6</ele>
        <time>2020-04-14T18:39:45Z</time>
      </trkpt>
      <trkpt lat="42.7094960" lon="-7.1123610">
        <ele>1261.2</ele>
        <time>2020-04-14T18:39:47Z</time>
      </trkpt>
      <trkpt lat="42.7095220" lon="-7.1124240">
        <ele>1261.7</ele>
        <time>2020-04-14T18:39:49Z</time>
      </trkpt>
      <trkpt lat="42.7095590" lon="-7.1125290">
        <ele>1262.3</ele>
        <time>2020-04-14T18:39:51Z</time>
      </trkpt>
      <trkpt lat="42.7095720" lon="-7.1125930">
        <ele>1262.7</ele>
        <time>2020-04-14T18:39:53Z</time>
      </trkpt>
      <trkpt lat="42.7095930" lon="-7.1126950">
        <ele>1263.3</ele>
        <time>2020-04-14T18:39:55Z</time>
      </trkpt>
      <trkpt lat="42.7096080" lon="-7.1127830">
        <ele>1263.8</ele>
        <time>2020-04-14T18:39:57Z</time>
      </trkpt>
      <trkpt lat="42.7096150" lon="-7.1128450">
        <ele>1264.2</ele>
        <time>2020-04-14T18:39:59Z</time>
      </trkpt>
      <trkpt lat="42.7096210" lon="-7.1129070">
        <ele>1264.6</ele>
        <time>2020-04-14T18:40:01Z</time>
      </trkpt>
      <trkpt lat="42.7096270" lon="-7.1129690">
        <ele>1265.0</ele>
        <time>2020-04-14T18:40:03Z</time>
      </trkpt>
      <trkpt lat="42.7096340" lon="-7.1130300">
        <ele>1265.3</ele>
        <time>2020-04-14T18:40:05Z</time>
      </trkpt>
      <trkpt lat="42.7096400" lon="-7.1130910">
        <ele>1265.6</ele>
        <time>2020-04-14T18:40:07Z</time>
      </trkpt>
      <trkpt lat="42.7096470" lon="-7.1131540">
        <ele>1266.0</ele>
        <time>2020-04-14T18:40:09Z</time>
      </trkpt>
      <trkpt lat="42.7096530" lon="-7.1132150">
        <ele>1266.3</ele>
        <time>2020-04-14T18:40:11Z</time>
      </trkpt>
      <trkpt lat="42.7096590" lon="-7.1132760">
        <ele>1266.6</ele>
        <time>2020-04-14T18:40:13Z</time>
      </trkpt>
      <trkpt lat="42.7096840" lon="-7.1135380">
        <ele>1268.1</ele>
        <time>2020-04-14T18:40:15Z</time>
      </trkpt>
      <trkpt lat="42.7096860" lon="-7.1136210">
        <ele>1268.5</ele>
        <time>2020-04-14T18:40:17Z</time>
      </trkpt>
      <trkpt lat="42.7096880" lon="-7.1137030">
        <ele>1269.0</ele>
        <time>2020-04-14T18:40:19Z</time>
      </trkpt>
      <trkpt lat="42.7096900" lon="-7.1137900">
        <ele>1269.4</ele>
        <time>2020-04-14T18:40:21Z</time>
      </trkpt>
      <trkpt lat="42.7096920" lon="-7.1138790">
        <ele>1269.9</ele>
        <time>2020-04-14T18:40:23Z</time>
      </trkpt>
      <trkpt lat="42.7096940" lon="-7.1139680">
        <ele>1270.4</ele>
        <time>2020-04-14T18:40:25Z</time>
      </trkpt>
      <trkpt lat="42.7096960" lon="-7.1142210">
        <ele>1271.8</ele>
        <time>2020-04-14T18:40:27Z</time>
      </trkpt>
      <trkpt lat="42.7096920" lon="-7.1143110">
        <ele>1272.2</ele>
        <time>2020-04-14T18:40:29Z</time>
      </trkpt>
      <trkpt lat="42.7096870" lon="-7.1144020">
        <ele>1272.7</ele>
        <time>2020-04-14T18:40:31Z</time>
      </trkpt>
      <trkpt lat="42.7096730" lon="-7.1145950">
        <ele>1273.8</ele>
        <time>2020-04-14T18:40:33Z</time>
      </trkpt>
      <trkpt lat="42.7096550" lon="-7.1147060">
        <ele>1274.4</ele>
        <time>2020-04-14T18:40:35Z</time>
      </trkpt>
      <trkpt lat="42.7096410" lon="-7.1147950">
        <ele>1274.9</ele>
        <time>2020-04-14T18:40:37Z</time>
      </trkpt>
      <trkpt lat="42.7096080" lon="-7.1149450">
        <ele>1275.8</ele>
        <time>2020-04-14T18:40:39Z</time>
      </trkpt>
      <trkpt lat="42.7095760" lon="-7.1150440">
        <ele>1276.5</ele>
        <time>2020-04-14T18:40:41Z</time>
      </trkpt>
      <trkpt lat="42.7095380" lon="-7.1151560">
        <ele>1277.2</ele>
        <time>2020-04-14T18:40:43Z</time>
      </trkpt>
      <trkpt lat="42.7095100" lon="-7.1152100">
        <ele>1277.6</ele>
        <time>2020-04-14T18:40:45Z</time>
      </trkpt>
      <trkpt lat="42.7094700" lon="-7.1152880">
        <ele>1278.2</ele>
        <time>2020-04-14T18:40:47Z</time>
      </trkpt>
      <trkpt lat="42.7094310" lon="-7.1153620">
        <ele>1278.8</ele>
        <time>2020-04-14T18:40:49Z</time>
      </trkpt>
      <trkpt lat="42.7094020" lon="-7.1154040">
        <ele>1279.1</ele>
        <time>2020-04-14T18:40:51Z</time>
      </trkpt>
      <trkpt lat="42.7093740" lon="-7.1154460">
        <ele>1279.4</ele>
        <time>2020-04-14T18:40:53Z</time>
      </trkpt>
      <trkpt lat="42.7093460" lon="-7.1154880">
        <ele>1279.8</ele>
        <time>2020-04-14T18:40:55Z</time>
      </trkpt>
      <trkpt lat="42.7092770" lon="-7.1155870">
        <ele>1280.5</ele>
        <time>2020-04-14T18:40:57Z</time>
      </trkpt>
      <trkpt lat="42.7092450" lon="-7.1156230">
        <ele>1280.9</ele>
        <time>2020-04-14T18:40:59Z</time>
      </trkpt>
      <trkpt lat="42.7092140" lon="-7.1156590">
        <ele>1281.2</ele>
        <time>2020-04-14T18:41:01Z</time>
      </trkpt>
      <trkpt lat="42.7091820" lon="-7.1156940">
        <ele>1281.6</ele>
        <time>2020-04-14T18:41:03Z</time>
      </trkpt>
      <trkpt lat="42.7091500" lon="-7.1157300">
        <ele>1282.0</ele>
        <time>2020-04-14T18:41:05Z</time>
      </trkpt>
      <trkpt lat="42.7091180" lon="-7.1157660">
        <ele>1282.3</ele>
        <time>2020-04-14T18:41:07Z</time>
      </trkpt>
      <trkpt lat="42.7090860" lon="-7.1158030">
        <ele>1282.7</ele>
        <time>2020-04-14T18:41:09Z</time>
      </trkpt>
      <trkpt lat="42.7090540" lon="-7.1158390">
        <ele>1283.0</ele>
        <time>2020-04-14T18:41:11Z</time>
      </trkpt>
      <trkpt lat="42.7089280" lon="-7.1159780">
        <ele>1284.5</ele>
        <time>2020-04-14T18:41:13Z</time>
      </trkpt>
      <trkpt lat="42.7088890" lon="-7.1160210">
        <ele>1285.0</ele>
        <time>2020-04-14T18:41:15Z</time>
      </trkpt>
      <trkpt lat="42.7088450" lon="-7.1160690">
        <ele>1285.6</ele>
        <time>2020-04-14T18:41:17Z</time>
      </trkpt>
      <trkpt lat="42.7087990" lon="-7.1161200">
        <ele>1286.1</ele>
        <time>2020-04-14T18:41:19Z</time>
      </trkpt>
      <trkpt lat="42.7087520" lon="-7.1161710">
        <ele>1286.8</ele>
        <time>2020-04-14T18:41:21Z</time>
      </trkpt>
      <trkpt lat="42.7087050" lon="-7.1162220">
        <ele>1287.4</ele>
        <time>2020-04-14T18:41:23Z</time>
      </trkpt>
      <trkpt lat="42.7085660" lon="-7.1163810">
        <ele>1289.2</ele>
        <time>2020-04-14T18:41:25Z</time>
      </trkpt>
      <trkpt lat="42.7085030" lon="-7.1164710">
        <ele>1290.1</ele>
        <time>2020-04-14T18:41:27Z</time>
      </trkpt>
      <trkpt lat="42.7084670" lon="-7.1165390">
        <ele>1290.6</ele>
        <time>2020-04-14T18:41:29Z</time>
      </trkpt>
      <trkpt lat="42.7084150" lon="-7.1166520">
        <ele>1290.8</ele>
        <time>2020-04-14T18:41:31Z</time>
      </trkpt>
      <trkpt lat="42.7083950" lon="-7.1167300">
        <ele>1290.7</ele>
        <time>2020-04-14T18:41:33Z</time>
      </trkpt>
      <trkpt lat="42.7083660" lon="-7.1168610">
        <ele>1290.9</ele>
        <time>2020-04-14T18:41:35Z</time>
      </trkpt>
      <trkpt lat="42.7083560" lon="-7.1169430">
        <ele>1291.0</ele>
        <time>2020-04-14T18:41:37Z</time>
      </trkpt>
      <trkpt lat="42.7083480" lon="-7.1170760">
        <ele>1291.3</ele>
        <time>2020-04-14T18:41:39Z</time>
      </trkpt>
      <trkpt lat="42.7083580" lon="-7.1171950">
        <ele>1291.5</ele>
        <time>2020-04-14T18:41:41Z</time>
      </trkpt>
      <trkpt lat="42.7083800" lon="-7.1173300">
        <ele>1291.7</ele>
        <time>2020-04-14T18:41:43Z</time>
      </trkpt>
      <trkpt lat="42.7084120" lon="-7.1174350">
        <ele>1291.7</ele>
        <time>2020-04-14T18:41:45Z</time>
      </trkpt>
      <trkpt lat="42.7084460" lon="-7.1175310">
        <ele>1291.7</ele>
        <time>2020-04-14T18:41:47Z</time>
      </trkpt>
      <trkpt lat="42.7085040" lon="-7.1176910">
        <ele>1291.7</ele>
        <time>2020-04-14T18:41:49Z</time>
      </trkpt>
      <trkpt lat="42.7085560" lon="-7.1178390">
        <ele>1292.2</ele>
        <time>2020-04-14T18:41:51Z</time>
      </trkpt>
      <trkpt lat="42.7086030" lon="-7.1179880">
        <ele>1293.1</ele>
        <time>2020-04-14T18:41:53Z</time>
      </trkpt>
      <trkpt lat="42.7086250" lon="-7.1181040">
        <ele>1293.8</ele>
        <time>2020-04-14T18:41:55Z</time>
      </trkpt>
      <trkpt lat="42.7086510" lon="-7.1182760">
        <ele>1294.8</ele>
        <time>2020-04-14T18:41:57Z</time>
      </trkpt>
      <trkpt lat="42.7086550" lon="-7.1184370">
        <ele>1295.5</ele>
        <time>2020-04-14T18:41:59Z</time>
      </trkpt>
      <trkpt lat="42.7086420" lon="-7.1185710">
        <ele>1296.0</ele>
        <time>2020-04-14T18:42:01Z</time>
      </trkpt>
      <trkpt lat="42.7086310" lon="-7.1186510">
        <ele>1296.6</ele>
        <time>2020-04-14T18:42:03Z</time>
      </trkpt>
      <trkpt lat="42.7086220" lon="-7.1187140">
        <ele>1297.0</ele>
        <time>2020-04-14T18:42:05Z</time>
      </trkpt>
      <trkpt lat="42.7086150" lon="-7.1187700">
        <ele>1297.5</ele>
        <time>2020-04-14T18:42:07Z</time>
      </trkpt>
      <trkpt lat="42.7086080" lon="-7.1188220">
        <ele>1298.0</ele>
        <time>2020-04-14T18:42:09Z</time>
      </trkpt>
      <trkpt lat="42.7086010" lon="-7.1188720">
        <ele>1298.4</ele>
        <time>2020-04-14T18:42:11Z</time>
      </trkpt>
      <trkpt lat="42.7085940" lon="-7.1189210">
        <ele>1298.9</ele>
        <time>2020-04-14T18:42:13Z</time>
      </trkpt>
      <trkpt lat="42.7085870" lon="-7.1189690">
        <ele>1299.4</ele>
        <time>2020-04-14T18:42:15Z</time>
      </trkpt>
      <trkpt lat="42.7085810" lon="-7.1190170">
        <ele>1299.9</ele>
        <time>2020-04-14T18:42:17Z</time>
      </trkpt>
      <trkpt lat="42.7085740" lon="-7.1190650">
        <ele>1300.4</ele>
        <time>2020-04-14T18:42:19Z</time>
      </trkpt>
      <trkpt lat="42.7085440" lon="-7.1192880">
        <ele>1302.8</ele>
        <time>2020-04-14T18:42:21Z</time>
      </trkpt>
      <trkpt lat="42.7085380" lon="-7.1193360">
        <ele>1303.3</ele>
        <time>2020-04-14T18:42:23Z</time>
      </trkpt>
      <trkpt lat="42.7085320" lon="-7.1193840">
        <ele>1303.8</ele>
        <time>2020-04-14T18:42:25Z</time>
      </trkpt>
      <trkpt lat="42.7085220" lon="-7.1194960">
        <ele>1305.0</ele>
        <time>2020-04-14T18:42:27Z</time>
      </trkpt>
      <trkpt lat="42.7085250" lon="-7.1195450">
        <ele>1305.4</ele>
        <time>2020-04-14T18:42:29Z</time>
      </trkpt>
      <trkpt lat="42.7085280" lon="-7.1195940">
        <ele>1305.9</ele>
        <time>2020-04-14T18:42:31Z</time>
      </trkpt>
      <trkpt lat="42.7085420" lon="-7.1196940">
        <ele>1306.9</ele>
        <time>2020-04-14T18:42:33Z</time>
      </trkpt>
      <trkpt lat="42.7085620" lon="-7.1197700">
        <ele>1307.7</ele>
        <time>2020-04-14T18:42:35Z</time>
      </trkpt>
      <trkpt lat="42.7086100" lon="-7.1198940">
        <ele>1309.1</ele>
        <time>2020-04-14T18:42:37Z</time>
      </trkpt>
      <trkpt lat="42.7086720" lon="-7.1200250">
        <ele>1310.6</ele>
        <time>2020-04-14T18:42:39Z</time>
      </trkpt>
      <trkpt lat="42.7087170" lon="-7.1201090">
        <ele>1311.5</ele>
        <time>2020-04-14T18:42:41Z</time>
      </trkpt>
      <trkpt lat="42.7087630" lon="-7.1201940">
        <ele>1312.4</ele>
        <time>2020-04-14T18:42:43Z</time>
      </trkpt>
      <trkpt lat="42.7088650" lon="-7.1203830">
        <ele>1314.3</ele>
        <time>2020-04-14T18:42:45Z</time>
      </trkpt>
      <trkpt lat="42.7089120" lon="-7.1204700">
        <ele>1315.0</ele>
        <time>2020-04-14T18:42:47Z</time>
      </trkpt>
      <trkpt lat="42.7089590" lon="-7.1205580">
        <ele>1315.0</ele>
        <time>2020-04-14T18:42:49Z</time>
      </trkpt>
      <trkpt lat="42.7090060" lon="-7.1206450">
        <ele>1315.2</ele>
        <time>2020-04-14T18:42:51Z</time>
      </trkpt>
      <trkpt lat="42.7091110" lon="-7.1208400">
        <ele>1315.7</ele>
        <time>2020-04-14T18:42:53Z</time>
      </trkpt>
      <trkpt lat="42.7091570" lon="-7.1209260">
        <ele>1315.9</ele>
        <time>2020-04-14T18:42:55Z</time>
      </trkpt>
      <trkpt lat="42.7092030" lon="-7.1210090">
        <ele>1316.2</ele>
        <time>2020-04-14T18:42:57Z</time>
      </trkpt>
      <trkpt lat="42.7092470" lon="-7.1210920">
        <ele>1316.4</ele>
        <time>2020-04-14T18:42:59Z</time>
      </trkpt>
      <trkpt lat="42.7092910" lon="-7.1211730">
        <ele>1316.6</ele>
        <time>2020-04-14T18:43:01Z</time>
      </trkpt>
      <trkpt lat="42.7093350" lon="-7.1212540">
        <ele>1316.8</ele>
        <time>2020-04-14T18:43:03Z</time>
      </trkpt>
      <trkpt lat="42.7093780" lon="-7.1213330">
        <ele>1317.0</ele>
        <time>2020-04-14T18:43:05Z</time>
      </trkpt>
      <trkpt lat="42.7094210" lon="-7.1214130">
        <ele>1317.2</ele>
        <time>2020-04-14T18:43:07Z</time>
      </trkpt>
      <trkpt lat="42.7096000" lon="-7.1217440">
        <ele>1317.9</ele>
        <time>2020-04-14T18:43:09Z</time>
      </trkpt>
      <trkpt lat="42.7096460" lon="-7.1218200">
        <ele>1318.0</ele>
        <time>2020-04-14T18:43:11Z</time>
      </trkpt>
      <trkpt lat="42.7096910" lon="-7.1218940">
        <ele>1318.1</ele>
        <time>2020-04-14T18:43:13Z</time>
      </trkpt>
      <trkpt lat="42.7097830" lon="-7.1220390">
        <ele>1318.2</ele>
        <time>2020-04-14T18:43:15Z</time>
      </trkpt>
      <trkpt lat="42.7098350" lon="-7.1221040">
        <ele>1318.3</ele>
        <time>2020-04-14T18:43:17Z</time>
      </trkpt>
      <trkpt lat="42.7099310" lon="-7.1222050">
        <ele>1318.4</ele>
        <time>2020-04-14T18:43:19Z</time>
      </trkpt>
      <trkpt lat="42.7099920" lon="-7.1222550">
        <ele>1318.5</ele>
        <time>2020-04-14T18:43:21Z</time>
      </trkpt>
      <trkpt lat="42.7101060" lon="-7.1223390">
        <ele>1318.6</ele>
        <time>2020-04-14T18:43:23Z</time>
      </trkpt>
      <trkpt lat="42.7101760" lon="-7.1223800">
        <ele>1318.7</ele>
        <time>2020-04-14T18:43:25Z</time>
      </trkpt>
      <trkpt lat="42.7103100" lon="-7.1224470">
        <ele>1318.9</ele>
        <time>2020-04-14T18:43:27Z</time>
      </trkpt>
      <trkpt lat="42.7103940" lon="-7.1224860">
        <ele>1319.1</ele>
        <time>2020-04-14T18:43:29Z</time>
      </trkpt>
      <trkpt lat="42.7105230" lon="-7.1225550">
        <ele>1319.4</ele>
        <time>2020-04-14T18:43:31Z</time>
      </trkpt>
      <trkpt lat="42.7106090" lon="-7.1226100">
        <ele>1319.7</ele>
        <time>2020-04-14T18:43:33Z</time>
      </trkpt>
      <trkpt lat="42.7107780" lon="-7.1227230">
        <ele>1320.2</ele>
        <time>2020-04-14T18:43:35Z</time>
      </trkpt>
      <trkpt lat="42.7108720" lon="-7.1228260">
        <ele>1320.5</ele>
        <time>2020-04-14T18:43:37Z</time>
      </trkpt>
      <trkpt lat="42.7109600" lon="-7.1229790">
        <ele>1320.9</ele>
        <time>2020-04-14T18:43:39Z</time>
      </trkpt>
      <trkpt lat="42.7110110" lon="-7.1230950">
        <ele>1321.2</ele>
        <time>2020-04-14T18:43:41Z</time>
      </trkpt>
      <trkpt lat="42.7110620" lon="-7.1232080">
        <ele>1321.5</ele>
        <time>2020-04-14T18:43:43Z</time>
      </trkpt>
      <trkpt lat="42.7111110" lon="-7.1233200">
        <ele>1321.8</ele>
        <time>2020-04-14T18:43:45Z</time>
      </trkpt>
      <trkpt lat="42.7111600" lon="-7.1234310">
        <ele>1322.2</ele>
        <time>2020-04-14T18:43:47Z</time>
      </trkpt>
      <trkpt lat="42.7112090" lon="-7.1235410">
        <ele>1322.5</ele>
        <time>2020-04-14T18:43:49Z</time>
      </trkpt>
      <trkpt lat="42.7113530" lon="-7.1238650">
        <ele>1323.7</ele>
        <time>2020-04-14T18:43:51Z</time>
      </trkpt>
      <trkpt lat="42.7114000" lon="-7.1239730">
        <ele>1324.1</ele>
        <time>2020-04-14T18:43:53Z</time>
      </trkpt>
      <trkpt lat="42.7114480" lon="-7.1240800">
        <ele>1324.5</ele>
        <time>2020-04-14T18:43:55Z</time>
      </trkpt>
      <trkpt lat="42.7114950" lon="-7.1241870">
        <ele>1324.9</ele>
        <time>2020-04-14T18:43:57Z</time>
      </trkpt>
      <trkpt lat="42.7116270" lon="-7.1244830">
        <ele>1326.0</ele>
        <time>2020-04-14T18:43:59Z</time>
      </trkpt>
      <trkpt lat="42.7116850" lon="-7.1246150">
        <ele>1326.4</ele>
        <time>2020-04-14T18:44:01Z</time>
      </trkpt>
      <trkpt lat="42.7117330" lon="-7.1247250">
        <ele>1326.9</ele>
        <time>2020-04-14T18:44:03Z</time>
      </trkpt>
      <trkpt lat="42.7117840" lon="-7.1248400">
        <ele>1327.3</ele>
        <time>2020-04-14T18:44:05Z</time>
      </trkpt>
      <trkpt lat="42.7118370" lon="-7.1249590">
        <ele>1327.8</ele>
        <time>2020-04-14T18:44:07Z</time>
      </trkpt>
      <trkpt lat="42.7118910" lon="-7.1250810">
        <ele>1328.3</ele>
        <time>2020-04-14T18:44:09Z</time>
      </trkpt>
      <trkpt lat="42.7120430" lon="-7.1254190">
        <ele>1329.8</ele>
        <time>2020-04-14T18:44:11Z</time>
      </trkpt>
      <trkpt lat="42.7121030" lon="-7.1255420">
        <ele>1330.3</ele>
        <time>2020-04-14T18:44:13Z</time>
      </trkpt>
      <trkpt lat="42.7121630" lon="-7.1256670">
        <ele>1330.6</ele>
        <time>2020-04-14T18:44:15Z</time>
      </trkpt>
      <trkpt lat="42.7122950" lon="-7.1258970">
        <ele>1330.7</ele>
        <time>2020-04-14T18:44:17Z</time>
      </trkpt>
      <trkpt lat="42.7124000" lon="-7.1260580">
        <ele>1330.6</ele>
        <time>2020-04-14T18:44:19Z</time>
      </trkpt>
      <trkpt lat="42.7125070" lon="-7.1262270">
        <ele>1330.4</ele>
        <time>2020-04-14T18:44:21Z</time>
      </trkpt>
      <trkpt lat="42.7125890" lon="-7.1263640">
        <ele>1330.4</ele>
        <time>2020-04-14T18:44:23Z</time>
      </trkpt>
      <trkpt lat="42.7126760" lon="-7.1265080">
        <ele>1330.3</ele>
        <time>2020-04-14T18:44:25Z</time>
      </trkpt>
      <trkpt lat="42.7128740" lon="-7.1268360">
        <ele>1329.4</ele>
        <time>2020-04-14T18:44:27Z</time>
      </trkpt>
      <trkpt lat="42.7129870" lon="-7.1270220">
        <ele>1328.9</ele>
        <time>2020-04-14T18:44:29Z</time>
      </trkpt>
      <trkpt lat="42.7130810" lon="-7.1271750">
        <ele>1328.6</ele>
        <time>2020-04-14T18:44:31Z</time>
      </trkpt>
      <trkpt lat="42.7131760" lon="-7.1273290">
        <ele>1328.3</ele>
        <time>2020-04-14T18:44:33Z</time>
      </trkpt>
      <trkpt lat="42.7132710" lon="-7.1274840">
        <ele>1328.0</ele>
        <time>2020-04-14T18:44:35Z</time>
      </trkpt>
      <trkpt lat="42.7135170" lon="-7.1278860">
        <ele>1327.2</ele>
        <time>2020-04-14T18:44:37Z</time>
      </trkpt>
      <trkpt lat="42.7136130" lon="-7.1280450">
        <ele>1326.8</ele>
        <time>2020-04-14T18:44:39Z</time>
      </trkpt>
      <trkpt lat="42.7137100" lon="-7.1282050">
        <ele>1326.4</ele>
        <time>2020-04-14T18:44:41Z</time>
      </trkpt>
      <trkpt lat="42.7138060" lon="-7.1283650">
        <ele>1325.9</ele>
        <time>2020-04-14T18:44:43Z</time>
      </trkpt>
      <trkpt lat="42.7140320" lon="-7.1287110">
        <ele>1324.6</ele>
        <time>2020-04-14T18:44:45Z</time>
      </trkpt>
      <trkpt lat="42.7142070" lon="-7.1289280">
        <ele>1323.5</ele>
        <time>2020-04-14T18:44:47Z</time>
      </trkpt>
      <trkpt lat="42.7143860" lon="-7.1290820">
        <ele>1322.5</ele>
        <time>2020-04-14T18:44:49Z</time>
      </trkpt>
      <trkpt lat="42.7145760" lon="-7.1291950">
        <ele>1321.6</ele>
        <time>2020-04-14T18:44:51Z</time>
      </trkpt>
      <trkpt lat="42.7148090" lon="-7.1293290">
        <ele>1320.7</ele>
        <time>2020-04-14T18:44:53Z</time>
      </trkpt>
      <trkpt lat="42.7150180" lon="-7.1294850">
        <ele>1320.2</ele>
        <time>2020-04-14T18:44:55Z</time>
      </trkpt>
      <trkpt lat="42.7152010" lon="-7.1297000">
        <ele>1319.6</ele>
        <time>2020-04-14T18:44:57Z</time>
      </trkpt>
      <trkpt lat="42.7153460" lon="-7.1299240">
        <ele>1319.1</ele>
        <time>2020-04-14T18:44:59Z</time>
      </trkpt>
      <trkpt lat="42.7154460" lon="-7.1300920">
        <ele>1318.6</ele>
        <time>2020-04-14T18:45:01Z</time>
      </trkpt>
      <trkpt lat="42.7156030" lon="-7.1303580">
        <ele>1318.1</ele>
        <time>2020-04-14T18:45:03Z</time>
      </trkpt>
      <trkpt lat="42.7157000" lon="-7.1305250">
        <ele>1317.9</ele>
        <time>2020-04-14T18:45:05Z</time>
      </trkpt>
      <trkpt lat="42.7158760" lon="-7.1308260">
        <ele>1317.5</ele>
        <time>2020-04-14T18:45:07Z</time>
      </trkpt>
      <trkpt lat="42.7160090" lon="-7.1310520">
        <ele>1317.1</ele>
        <time>2020-04-14T18:45:09Z</time>
      </trkpt>
      <trkpt lat="42.7161030" lon="-7.1312840">
        <ele>1316.5</ele>
        <time>2020-04-14T18:45:11Z</time>
      </trkpt>
      <trkpt lat="42.7161840" lon="-7.1315190">
        <ele>1316.1</ele>
        <time>2020-04-14T18:45:13Z</time>
      </trkpt>
      <trkpt lat="42.7162520" lon="-7.1318120">
        <ele>1315.5</ele>
        <time>2020-04-14T18:45:15Z</time>
      </trkpt>
      <trkpt lat="42.7162820" lon="-7.1320230">
        <ele>1315.0</ele>
        <time>2020-04-14T18:45:17Z</time>
      </trkpt>
      <trkpt lat="42.7163280" lon="-7.1323810">
        <ele>1314.0</ele>
        <time>2020-04-14T18:45:19Z</time>
      </trkpt>
      <trkpt lat="42.7163550" lon="-7.1326010">
        <ele>1313.4</ele>
        <time>2020-04-14T18:45:21Z</time>
      </trkpt>
      <trkpt lat="42.7164030" lon="-7.1329340">
        <ele>1312.5</ele>
        <time>2020-04-14T18:45:23Z</time>
      </trkpt>
      <trkpt lat="42.7164670" lon="-7.1332450">
        <ele>1311.8</ele>
        <time>2020-04-14T18:45:25Z</time>
      </trkpt>
      <trkpt lat="42.7165700" lon="-7.1335870">
        <ele>1311.1</ele>
        <time>2020-04-14T18:45:27Z</time>
      </trkpt>
      <trkpt lat="42.7166740" lon="-7.1338430">
        <ele>1310.7</ele>
        <time>2020-04-14T18:45:29Z</time>
      </trkpt>
      <trkpt lat="42.7168130" lon="-7.1341050">
        <ele>1309.8</ele>
        <time>2020-04-14T18:45:31Z</time>
      </trkpt>
      <trkpt lat="42.7169780" lon="-7.1343770">
        <ele>1308.8</ele>
        <time>2020-04-14T18:45:33Z</time>
      </trkpt>
      <trkpt lat="42.7170970" lon="-7.1345600">
        <ele>1308.1</ele>
        <time>2020-04-14T18:45:35Z</time>
      </trkpt>
      <trkpt lat="42.7173060" lon="-7.1348790">
        <ele>1306.8</ele>
        <time>2020-04-14T18:45:37Z</time>
      </trkpt>
      <trkpt lat="42.7174460" lon="-7.1351030">
        <ele>1306.0</ele>
        <time>2020-04-14T18:45:39Z</time>
      </trkpt>
      <trkpt lat="42.7175640" lon="-7.1352970">
        <ele>1305.3</ele>
        <time>2020-04-14T18:45:41Z</time>
      </trkpt>
      <trkpt lat="42.7177950" lon="-7.1356760">
        <ele>1304.0</ele>
        <time>2020-04-14T18:45:43Z</time>
      </trkpt>
      <trkpt lat="42.7179040" lon="-7.1358850">
        <ele>1303.3</ele>
        <time>2020-04-14T18:45:45Z</time>
      </trkpt>
      <trkpt lat="42.7180760" lon="-7.1362260">
        <ele>1302.1</ele>
        <time>2020-04-14T18:45:47Z</time>
      </trkpt>
      <trkpt lat="42.7182150" lon="-7.1365440">
        <ele>1301.1</ele>
        <time>2020-04-14T18:45:49Z</time>
      </trkpt>
      <trkpt lat="42.7182920" lon="-7.1367810">
        <ele>1300.3</ele>
        <time>2020-04-14T18:45:51Z</time>
      </trkpt>
      <trkpt lat="42.7184130" lon="-7.1371640">
        <ele>1299.0</ele>
        <time>2020-04-14T18:45:53Z</time>
      </trkpt>
      <trkpt lat="42.7184780" lon="-7.1374080">
        <ele>1298.3</ele>
        <time>2020-04-14T18:45:55Z</time>
      </trkpt>
      <trkpt lat="42.7185440" lon="-7.1376530">
        <ele>1297.5</ele>
        <time>2020-04-14T18:45:57Z</time>
      </trkpt>
      <trkpt lat="42.7186730" lon="-7.1381370">
        <ele>1296.7</ele>
        <time>2020-04-14T18:45:59Z</time>
      </trkpt>
      <trkpt lat="42.7187370" lon="-7.1383820">
        <ele>1296.0</ele>
        <time>2020-04-14T18:46:01Z</time>
      </trkpt>
      <trkpt lat="42.7188010" lon="-7.1386290">
        <ele>1295.1</ele>
        <time>2020-04-14T18:46:03Z</time>
      </trkpt>
      <trkpt lat="42.7189460" lon="-7.1391330">
        <ele>1293.1</ele>
        <time>2020-04-14T18:46:05Z</time>
      </trkpt>
      <trkpt lat="42.7190990" lon="-7.1394750">
        <ele>1291.7</ele>
        <time>2020-04-14T18:46:07Z</time>
      </trkpt>
      <trkpt lat="42.7192610" lon="-7.1397250">
        <ele>1290.6</ele>
        <time>2020-04-14T18:46:09Z</time>
      </trkpt>
      <trkpt lat="42.7194270" lon="-7.1399300">
        <ele>1289.7</ele>
        <time>2020-04-14T18:46:11Z</time>
      </trkpt>
      <trkpt lat="42.7196270" lon="-7.1401300">
        <ele>1288.9</ele>
        <time>2020-04-14T18:46:13Z</time>
      </trkpt>
      <trkpt lat="42.7198290" lon="-7.1402900">
        <ele>1288.1</ele>
        <time>2020-04-14T18:46:15Z</time>
      </trkpt>
      <trkpt lat="42.7200720" lon="-7.1404680">
        <ele>1287.4</ele>
        <time>2020-04-14T18:46:17Z</time>
      </trkpt>
      <trkpt lat="42.7202850" lon="-7.1406190">
        <ele>1286.9</ele>
        <time>2020-04-14T18:46:19Z</time>
      </trkpt>
      <trkpt lat="42.7204890" lon="-7.1407930">
        <ele>1286.4</ele>
        <time>2020-04-14T18:46:21Z</time>
      </trkpt>
      <trkpt lat="42.7206620" lon="-7.1409850">
        <ele>1286.0</ele>
        <time>2020-04-14T18:46:23Z</time>
      </trkpt>
      <trkpt lat="42.7207820" lon="-7.1411370">
        <ele>1285.6</ele>
        <time>2020-04-14T18:46:25Z</time>
      </trkpt>
      <trkpt lat="42.7209410" lon="-7.1413640">
        <ele>1285.2</ele>
        <time>2020-04-14T18:46:27Z</time>
      </trkpt>
      <trkpt lat="42.7211010" lon="-7.1416140">
        <ele>1284.8</ele>
        <time>2020-04-14T18:46:29Z</time>
      </trkpt>
      <trkpt lat="42.7212550" lon="-7.1418600">
        <ele>1284.5</ele>
        <time>2020-04-14T18:46:31Z</time>
      </trkpt>
      <trkpt lat="42.7213550" lon="-7.1420170">
        <ele>1284.2</ele>
        <time>2020-04-14T18:46:33Z</time>
      </trkpt>
      <trkpt lat="42.7214540" lon="-7.1421740">
        <ele>1283.9</ele>
        <time>2020-04-14T18:46:35Z</time>
      </trkpt>
      <trkpt lat="42.7216620" lon="-7.1425040">
        <ele>1283.2</ele>
        <time>2020-04-14T18:46:37Z</time>
      </trkpt>
      <trkpt lat="42.7217530" lon="-7.1426570">
        <ele>1283.0</ele>
        <time>2020-04-14T18:46:39Z</time>
      </trkpt>
      <trkpt lat="42.7218410" lon="-7.1428030">
        <ele>1282.7</ele>
        <time>2020-04-14T18:46:41Z</time>
      </trkpt>
      <trkpt lat="42.7220210" lon="-7.1431040">
        <ele>1282.1</ele>
        <time>2020-04-14T18:46:43Z</time>
      </trkpt>
      <trkpt lat="42.7220940" lon="-7.1432540">
        <ele>1282.1</ele>
        <time>2020-04-14T18:46:45Z</time>
      </trkpt>
      <trkpt lat="42.7222140" lon="-7.1435060">
        <ele>1282.0</ele>
        <time>2020-04-14T18:46:47Z</time>
      </trkpt>
      <trkpt lat="42.7222740" lon="-7.1436620">
        <ele>1281.8</ele>
        <time>2020-04-14T18:46:49Z</time>
      </trkpt>
      <trkpt lat="42.7223670" lon="-7.1439280">
        <ele>1281.3</ele>
        <time>2020-04-14T18:46:51Z</time>
      </trkpt>
      <trkpt lat="42.7224120" lon="-7.1440890">
        <ele>1281.2</ele>
        <time>2020-04-14T18:46:53Z</time>
      </trkpt>
      <trkpt lat="42.7224570" lon="-7.1442480">
        <ele>1281.1</ele>
        <time>2020-04-14T18:46:55Z</time>
      </trkpt>
      <trkpt lat="42.7225420" lon="-7.1445620">
        <ele>1281.1</ele>
        <time>2020-04-14T18:46:57Z</time>
      </trkpt>
      <trkpt lat="42.7226030" lon="-7.1448070">
        <ele>1281.1</ele>
        <time>2020-04-14T18:46:59Z</time>
      </trkpt>
      <trkpt lat="42.7226410" lon="-7.1449630">
        <ele>1281.1</ele>
        <time>2020-04-14T18:47:01Z</time>
      </trkpt>
      <trkpt lat="42.7226790" lon="-7.1451170">
        <ele>1281.2</ele>
        <time>2020-04-14T18:47:03Z</time>
      </trkpt>
      <trkpt lat="42.7227550" lon="-7.1453970">
        <ele>1281.2</ele>
        <time>2020-04-14T18:47:05Z</time>
      </trkpt>
      <trkpt lat="42.7228010" lon="-7.1455540">
        <ele>1281.2</ele>
        <time>2020-04-14T18:47:07Z</time>
      </trkpt>
      <trkpt lat="42.7228880" lon="-7.1458260">
        <ele>1281.4</ele>
        <time>2020-04-14T18:47:09Z</time>
      </trkpt>
      <trkpt lat="42.7229710" lon="-7.1460590">
        <ele>1281.6</ele>
        <time>2020-04-14T18:47:11Z</time>
      </trkpt>
      <trkpt lat="42.7230530" lon="-7.1462710">
        <ele>1282.1</ele>
        <time>2020-04-14T18:47:13Z</time>
      </trkpt>
      <trkpt lat="42.7231430" lon="-7.1464830">
        <ele>1282.9</ele>
        <time>2020-04-14T18:47:15Z</time>
      </trkpt>
      <trkpt lat="42.7232170" lon="-7.1466370">
        <ele>1283.1</ele>
        <time>2020-04-14T18:47:17Z</time>
      </trkpt>
      <trkpt lat="42.7233480" lon="-7.1468890">
        <ele>1283.1</ele>
        <time>2020-04-14T18:47:19Z</time>
      </trkpt>
      <trkpt lat="42.7234310" lon="-7.1470320">
        <ele>1283.0</ele>
        <time>2020-04-14T18:47:21Z</time>
      </trkpt>
      <trkpt lat="42.7235820" lon="-7.1472830">
        <ele>1282.9</ele>
        <time>2020-04-14T18:47:23Z</time>
      </trkpt>
      <trkpt lat="42.7237070" lon="-7.1474700">
        <ele>1282.6</ele>
        <time>2020-04-14T18:47:25Z</time>
      </trkpt>
      <trkpt lat="42.7237940" lon="-7.1476010">
        <ele>1282.4</ele>
        <time>2020-04-14T18:47:27Z</time>
      </trkpt>
      <trkpt lat="42.7239320" lon="-7.1478040">
        <ele>1282.1</ele>
        <time>2020-04-14T18:47:29Z</time>
      </trkpt>
      <trkpt lat="42.7240240" lon="-7.1479360">
        <ele>1281.9</ele>
        <time>2020-04-14T18:47:31Z</time>
      </trkpt>
      <trkpt lat="42.7241170" lon="-7.1480710">
        <ele>1281.7</ele>
        <time>2020-04-14T18:47:33Z</time>
      </trkpt>
      <trkpt lat="42.7243080" lon="-7.1483450">
        <ele>1281.1</ele>
        <time>2020-04-14T18:47:35Z</time>
      </trkpt>
      <trkpt lat="42.7244040" lon="-7.1484820">
        <ele>1280.8</ele>
        <time>2020-04-14T18:47:37Z</time>
      </trkpt>
      <trkpt lat="42.7245010" lon="-7.1486220">
        <ele>1280.5</ele>
        <time>2020-04-14T18:47:39Z</time>
      </trkpt>
      <trkpt lat="42.7246990" lon="-7.1489030">
        <ele>1279.8</ele>
        <time>2020-04-14T18:47:41Z</time>
      </trkpt>
      <trkpt lat="42.7248460" lon="-7.1491120">
        <ele>1279.3</ele>
        <time>2020-04-14T18:47:43Z</time>
      </trkpt>
      <trkpt lat="42.7249420" lon="-7.1492480">
        <ele>1279.0</ele>
        <time>2020-04-14T18:47:45Z</time>
      </trkpt>
      <trkpt lat="42.7250970" lon="-7.1494670">
        <ele>1279.3</ele>
        <time>2020-04-14T18:47:47Z</time>
      </trkpt>
      <trkpt lat="42.7251850" lon="-7.1495910">
        <ele>1279.9</ele>
        <time>2020-04-14T18:47:49Z</time>
      </trkpt>
      <trkpt lat="42.7253550" lon="-7.1498320">
        <ele>1280.7</ele>
        <time>2020-04-14T18:47:51Z</time>
      </trkpt>
      <trkpt lat="42.7254380" lon="-7.1499490">
        <ele>1281.2</ele>
        <time>2020-04-14T18:47:53Z</time>
      </trkpt>
      <trkpt lat="42.7255770" lon="-7.1501450">
        <ele>1282.1</ele>
        <time>2020-04-14T18:47:55Z</time>
      </trkpt>
      <trkpt lat="42.7256560" lon="-7.1502560">
        <ele>1282.6</ele>
        <time>2020-04-14T18:47:57Z</time>
      </trkpt>
      <trkpt lat="42.7257360" lon="-7.1503660">
        <ele>1283.1</ele>
        <time>2020-04-14T18:47:59Z</time>
      </trkpt>
      <trkpt lat="42.7259060" lon="-7.1506040">
        <ele>1284.4</ele>
        <time>2020-04-14T18:48:01Z</time>
      </trkpt>
      <trkpt lat="42.7259830" lon="-7.1507170">
        <ele>1284.3</ele>
        <time>2020-04-14T18:48:03Z</time>
      </trkpt>
      <trkpt lat="42.7260590" lon="-7.1508280">
        <ele>1284.1</ele>
        <time>2020-04-14T18:48:05Z</time>
      </trkpt>
      <trkpt lat="42.7262010" lon="-7.1510280">
        <ele>1283.9</ele>
        <time>2020-04-14T18:48:07Z</time>
      </trkpt>
      <trkpt lat="42.7263120" lon="-7.1511850">
        <ele>1283.8</ele>
        <time>2020-04-14T18:48:09Z</time>
      </trkpt>
      <trkpt lat="42.7264210" lon="-7.1513580">
        <ele>1284.0</ele>
        <time>2020-04-14T18:48:11Z</time>
      </trkpt>
      <trkpt lat="42.7265160" lon="-7.1515340">
        <ele>1284.0</ele>
        <time>2020-04-14T18:48:13Z</time>
      </trkpt>
      <trkpt lat="42.7265940" lon="-7.1517050">
        <ele>1283.9</ele>
        <time>2020-04-14T18:48:15Z</time>
      </trkpt>
      <trkpt lat="42.7266640" lon="-7.1519010">
        <ele>1283.9</ele>
        <time>2020-04-14T18:48:17Z</time>
      </trkpt>
      <trkpt lat="42.7267210" lon="-7.1520830">
        <ele>1283.8</ele>
        <time>2020-04-14T18:48:19Z</time>
      </trkpt>
      <trkpt lat="42.7267790" lon="-7.1523010">
        <ele>1283.6</ele>
        <time>2020-04-14T18:48:21Z</time>
      </trkpt>
      <trkpt lat="42.7268150" lon="-7.1524630">
        <ele>1283.6</ele>
        <time>2020-04-14T18:48:23Z</time>
      </trkpt>
      <trkpt lat="42.7268850" lon="-7.1527770">
        <ele>1283.6</ele>
        <time>2020-04-14T18:48:25Z</time>
      </trkpt>
      <trkpt lat="42.7269270" lon="-7.1529480">
        <ele>1283.4</ele>
        <time>2020-04-14T18:48:27Z</time>
      </trkpt>
      <trkpt lat="42.7270030" lon="-7.1532520">
        <ele>1283.1</ele>
        <time>2020-04-14T18:48:29Z</time>
      </trkpt>
      <trkpt lat="42.7270680" lon="-7.1534180">
        <ele>1282.9</ele>
        <time>2020-04-14T18:48:31Z</time>
      </trkpt>
      <trkpt lat="42.7271840" lon="-7.1536360">
        <ele>1282.6</ele>
        <time>2020-04-14T18:48:33Z</time>
      </trkpt>
      <trkpt lat="42.7273290" lon="-7.1538360">
        <ele>1282.4</ele>
        <time>2020-04-14T18:48:35Z</time>
      </trkpt>
      <trkpt lat="42.7274910" lon="-7.1540100">
        <ele>1282.1</ele>
        <time>2020-04-14T18:48:37Z</time>
      </trkpt>
      <trkpt lat="42.7276670" lon="-7.1541750">
        <ele>1281.7</ele>
        <time>2020-04-14T18:48:39Z</time>
      </trkpt>
      <trkpt lat="42.7277930" lon="-7.1542850">
        <ele>1281.4</ele>
        <time>2020-04-14T18:48:41Z</time>
      </trkpt>
      <trkpt lat="42.7279210" lon="-7.1543960">
        <ele>1281.0</ele>
        <time>2020-04-14T18:48:43Z</time>
      </trkpt>
      <trkpt lat="42.7281800" lon="-7.1546200">
        <ele>1280.1</ele>
        <time>2020-04-14T18:48:45Z</time>
      </trkpt>
      <trkpt lat="42.7283100" lon="-7.1547340">
        <ele>1279.6</ele>
        <time>2020-04-14T18:48:47Z</time>
      </trkpt>
      <trkpt lat="42.7285250" lon="-7.1549200">
        <ele>1278.6</ele>
        <time>2020-04-14T18:48:49Z</time>
      </trkpt>
      <trkpt lat="42.7287010" lon="-7.1550770">
        <ele>1278.2</ele>
        <time>2020-04-14T18:48:51Z</time>
      </trkpt>
      <trkpt lat="42.7289050" lon="-7.1552660">
        <ele>1277.8</ele>
        <time>2020-04-14T18:48:53Z</time>
      </trkpt>
      <trkpt lat="42.7290440" lon="-7.1554090">
        <ele>1277.8</ele>
        <time>2020-04-14T18:48:55Z</time>
      </trkpt>
      <trkpt lat="42.7292140" lon="-7.1555880">
        <ele>1277.6</ele>
        <time>2020-04-14T18:48:57Z</time>
      </trkpt>
      <trkpt lat="42.7293950" lon="-7.1557860">
        <ele>1277.4</ele>
        <time>2020-04-14T18:48:59Z</time>
      </trkpt>
      <trkpt lat="42.7295060" lon="-7.1559140">
        <ele>1277.4</ele>
        <time>2020-04-14T18:49:01Z</time>
      </trkpt>
      <trkpt lat="42.7296140" lon="-7.1560370">
        <ele>1277.5</ele>
        <time>2020-04-14T18:49:03Z</time>
      </trkpt>
      <trkpt lat="42.7298410" lon="-7.1562980">
        <ele>1277.9</ele>
        <time>2020-04-14T18:49:05Z</time>
      </trkpt>
      <trkpt lat="42.7299400" lon="-7.1564140">
        <ele>1278.2</ele>
        <time>2020-04-14T18:49:07Z</time>
      </trkpt>
      <trkpt lat="42.7300840" lon="-7.1565810">
        <ele>1278.8</ele>
        <time>2020-04-14T18:49:09Z</time>
      </trkpt>
      <trkpt lat="42.7302000" lon="-7.1567160">
        <ele>1279.5</ele>
        <time>2020-04-14T18:49:11Z</time>
      </trkpt>
      <trkpt lat="42.7302830" lon="-7.1568120">
        <ele>1279.9</ele>
        <time>2020-04-14T18:49:13Z</time>
      </trkpt>
      <trkpt lat="42.7303630" lon="-7.1569040">
        <ele>1280.4</ele>
        <time>2020-04-14T18:49:15Z</time>
      </trkpt>
      <trkpt lat="42.7305310" lon="-7.1571000">
        <ele>1281.4</ele>
        <time>2020-04-14T18:49:17Z</time>
      </trkpt>
      <trkpt lat="42.7306040" lon="-7.1571840">
        <ele>1281.9</ele>
        <time>2020-04-14T18:49:19Z</time>
      </trkpt>
      <trkpt lat="42.7307280" lon="-7.1573290">
        <ele>1282.6</ele>
        <time>2020-04-14T18:49:21Z</time>
      </trkpt>
      <trkpt lat="42.7308420" lon="-7.1574590">
        <ele>1282.4</ele>
        <time>2020-04-14T18:49:23Z</time>
      </trkpt>
      <trkpt lat="42.7309270" lon="-7.1575580">
        <ele>1281.8</ele>
        <time>2020-04-14T18:49:25Z</time>
      </trkpt>
      <trkpt lat="42.7310180" lon="-7.1576640">
        <ele>1281.4</ele>
        <time>2020-04-14T18:49:27Z</time>
      </trkpt>
      <trkpt lat="42.7312190" lon="-7.1578950">
        <ele>1280.2</ele>
        <time>2020-04-14T18:49:29Z</time>
      </trkpt>
      <trkpt lat="42.7313580" lon="-7.1580530">
        <ele>1279.3</ele>
        <time>2020-04-14T18:49:31Z</time>
      </trkpt>
      <trkpt lat="42.7314920" lon="-7.1582130">
        <ele>1279.0</ele>
        <time>2020-04-14T18:49:33Z</time>
      </trkpt>
      <trkpt lat="42.7315920" lon="-7.1583490">
        <ele>1278.9</ele>
        <time>2020-04-14T18:49:35Z</time>
      </trkpt>
      <trkpt lat="42.7317670" lon="-7.1585930">
        <ele>1278.7</ele>
        <time>2020-04-14T18:49:37Z</time>
      </trkpt>
      <trkpt lat="42.7318660" lon="-7.1587390">
        <ele>1278.6</ele>
        <time>2020-04-14T18:49:39Z</time>
      </trkpt>
      <trkpt lat="42.7319680" lon="-7.1588880">
        <ele>1278.5</ele>
        <time>2020-04-14T18:49:41Z</time>
      </trkpt>
      <trkpt lat="42.7321680" lon="-7.1591800">
        <ele>1278.2</ele>
        <time>2020-04-14T18:49:43Z</time>
      </trkpt>
      <trkpt lat="42.7323110" lon="-7.1593820">
        <ele>1277.8</ele>
        <time>2020-04-14T18:49:45Z</time>
      </trkpt>
      <trkpt lat="42.7324840" lon="-7.1596150">
        <ele>1277.4</ele>
        <time>2020-04-14T18:49:47Z</time>
      </trkpt>
      <trkpt lat="42.7326090" lon="-7.1598020">
        <ele>1276.9</ele>
        <time>2020-04-14T18:49:49Z</time>
      </trkpt>
      <trkpt lat="42.7327510" lon="-7.1600510">
        <ele>1276.2</ele>
        <time>2020-04-14T18:49:51Z</time>
      </trkpt>
      <trkpt lat="42.7328400" lon="-7.1602250">
        <ele>1275.8</ele>
        <time>2020-04-14T18:49:53Z</time>
      </trkpt>
      <trkpt lat="42.7329600" lon="-7.1604820">
        <ele>1275.2</ele>
        <time>2020-04-14T18:49:55Z</time>
      </trkpt>
      <trkpt lat="42.7330790" lon="-7.1607630">
        <ele>1274.6</ele>
        <time>2020-04-14T18:49:57Z</time>
      </trkpt>
      <trkpt lat="42.7331530" lon="-7.1609560">
        <ele>1274.3</ele>
        <time>2020-04-14T18:49:59Z</time>
      </trkpt>
      <trkpt lat="42.7332890" lon="-7.1613110">
        <ele>1273.8</ele>
        <time>2020-04-14T18:50:01Z</time>
      </trkpt>
      <trkpt lat="42.7333580" lon="-7.1615040">
        <ele>1273.4</ele>
        <time>2020-04-14T18:50:03Z</time>
      </trkpt>
      <trkpt lat="42.7334670" lon="-7.1618050">
        <ele>1272.9</ele>
        <time>2020-04-14T18:50:05Z</time>
      </trkpt>
      <trkpt lat="42.7335330" lon="-7.1619900">
        <ele>1272.7</ele>
        <time>2020-04-14T18:50:07Z</time>
      </trkpt>
      <trkpt lat="42.7335980" lon="-7.1621720">
        <ele>1272.5</ele>
        <time>2020-04-14T18:50:09Z</time>
      </trkpt>
      <trkpt lat="42.7336620" lon="-7.1623500">
        <ele>1272.3</ele>
        <time>2020-04-14T18:50:11Z</time>
      </trkpt>
      <trkpt lat="42.7338240" lon="-7.1628000">
        <ele>1271.8</ele>
        <time>2020-04-14T18:50:13Z</time>
      </trkpt>
      <trkpt lat="42.7338900" lon="-7.1629820">
        <ele>1271.6</ele>
        <time>2020-04-14T18:50:15Z</time>
      </trkpt>
      <trkpt lat="42.7339590" lon="-7.1631720">
        <ele>1271.3</ele>
        <time>2020-04-14T18:50:17Z</time>
      </trkpt>
      <trkpt lat="42.7340290" lon="-7.1633680">
        <ele>1270.9</ele>
        <time>2020-04-14T18:50:19Z</time>
      </trkpt>
      <trkpt lat="42.7342000" lon="-7.1638420">
        <ele>1269.7</ele>
        <time>2020-04-14T18:50:21Z</time>
      </trkpt>
      <trkpt lat="42.7342740" lon="-7.1640500">
        <ele>1269.1</ele>
        <time>2020-04-14T18:50:23Z</time>
      </trkpt>
      <trkpt lat="42.7343510" lon="-7.1642620">
        <ele>1268.5</ele>
        <time>2020-04-14T18:50:25Z</time>
      </trkpt>
      <trkpt lat="42.7344270" lon="-7.1644760">
        <ele>1267.8</ele>
        <time>2020-04-14T18:50:27Z</time>
      </trkpt>
      <trkpt lat="42.7346050" lon="-7.1649700">
        <ele>1266.3</ele>
        <time>2020-04-14T18:50:29Z</time>
      </trkpt>
      <trkpt lat="42.7346870" lon="-7.1651960">
        <ele>1265.4</ele>
        <time>2020-04-14T18:50:31Z</time>
      </trkpt>
      <trkpt lat="42.7347700" lon="-7.1654260">
        <ele>1264.6</ele>
        <time>2020-04-14T18:50:33Z</time>
      </trkpt>
      <trkpt lat="42.7349560" lon="-7.1659470">
        <ele>1262.6</ele>
        <time>2020-04-14T18:50:35Z</time>
      </trkpt>
      <trkpt lat="42.7350380" lon="-7.1661860">
        <ele>1261.7</ele>
        <time>2020-04-14T18:50:37Z</time>
      </trkpt>
      <trkpt lat="42.7351210" lon="-7.1664310">
        <ele>1260.8</ele>
        <time>2020-04-14T18:50:39Z</time>
      </trkpt>
      <trkpt lat="42.7352990" lon="-7.1669390">
        <ele>1259.2</ele>
        <time>2020-04-14T18:50:41Z</time>
      </trkpt>
      <trkpt lat="42.7353950" lon="-7.1671820">
        <ele>1258.3</ele>
        <time>2020-04-14T18:50:43Z</time>
      </trkpt>
      <trkpt lat="42.7354910" lon="-7.1674260">
        <ele>1257.5</ele>
        <time>2020-04-14T18:50:45Z</time>
      </trkpt>
      <trkpt lat="42.7356790" lon="-7.1679020">
        <ele>1255.6</ele>
        <time>2020-04-14T18:50:47Z</time>
      </trkpt>
      <trkpt lat="42.7357780" lon="-7.1681520">
        <ele>1254.5</ele>
        <time>2020-04-14T18:50:49Z</time>
      </trkpt>
      <trkpt lat="42.7359650" lon="-7.1686230">
        <ele>1252.4</ele>
        <time>2020-04-14T18:50:51Z</time>
      </trkpt>
      <trkpt lat="42.7360680" lon="-7.1688670">
        <ele>1251.3</ele>
        <time>2020-04-14T18:50:53Z</time>
      </trkpt>
      <trkpt lat="42.7361690" lon="-7.1691070">
        <ele>1250.2</ele>
        <time>2020-04-14T18:50:55Z</time>
      </trkpt>
      <trkpt lat="42.7363620" lon="-7.1695640">
        <ele>1248.1</ele>
        <time>2020-04-14T18:50:57Z</time>
      </trkpt>
      <trkpt lat="42.7364860" lon="-7.1698830">
        <ele>1246.9</ele>
        <time>2020-04-14T18:50:59Z</time>
      </trkpt>
      <trkpt lat="42.7366270" lon="-7.1702720">
        <ele>1245.9</ele>
        <time>2020-04-14T18:51:01Z</time>
      </trkpt>
      <trkpt lat="42.7367110" lon="-7.1705800">
        <ele>1245.8</ele>
        <time>2020-04-14T18:51:03Z</time>
      </trkpt>
      <trkpt lat="42.7367600" lon="-7.1708960">
        <ele>1245.2</ele>
        <time>2020-04-14T18:51:05Z</time>
      </trkpt>
      <trkpt lat="42.7367930" lon="-7.1712460">
        <ele>1244.6</ele>
        <time>2020-04-14T18:51:07Z</time>
      </trkpt>
      <trkpt lat="42.7368060" lon="-7.1714540">
        <ele>1244.4</ele>
        <time>2020-04-14T18:51:09Z</time>
      </trkpt>
      <trkpt lat="42.7368200" lon="-7.1717850">
        <ele>1244.3</ele>
        <time>2020-04-14T18:51:11Z</time>
      </trkpt>
      <trkpt lat="42.7368300" lon="-7.1720080">
        <ele>1244.3</ele>
        <time>2020-04-14T18:51:13Z</time>
      </trkpt>
      <trkpt lat="42.7368390" lon="-7.1721910">
        <ele>1244.3</ele>
        <time>2020-04-14T18:51:15Z</time>
      </trkpt>
      <trkpt lat="42.7368570" lon="-7.1725180">
        <ele>1244.8</ele>
        <time>2020-04-14T18:51:17Z</time>
      </trkpt>
      <trkpt lat="42.7368720" lon="-7.1726940">
        <ele>1245.8</ele>
        <time>2020-04-14T18:51:19Z</time>
      </trkpt>
      <trkpt lat="42.7368880" lon="-7.1728670">
        <ele>1246.7</ele>
        <time>2020-04-14T18:51:21Z</time>
      </trkpt>
      <trkpt lat="42.7369220" lon="-7.1732080">
        <ele>1248.4</ele>
        <time>2020-04-14T18:51:23Z</time>
      </trkpt>
      <trkpt lat="42.7369560" lon="-7.1734570">
        <ele>1249.1</ele>
        <time>2020-04-14T18:51:25Z</time>
      </trkpt>
      <trkpt lat="42.7370020" lon="-7.1736790">
        <ele>1248.3</ele>
        <time>2020-04-14T18:51:27Z</time>
      </trkpt>
      <trkpt lat="42.7370660" lon="-7.1738880">
        <ele>1247.5</ele>
        <time>2020-04-14T18:51:29Z</time>
      </trkpt>
      <trkpt lat="42.7371680" lon="-7.1741160">
        <ele>1246.1</ele>
        <time>2020-04-14T18:51:31Z</time>
      </trkpt>
      <trkpt lat="42.7372750" lon="-7.1742950">
        <ele>1244.7</ele>
        <time>2020-04-14T18:51:33Z</time>
      </trkpt>
      <trkpt lat="42.7374130" lon="-7.1744330">
        <ele>1244.1</ele>
        <time>2020-04-14T18:51:35Z</time>
      </trkpt>
      <trkpt lat="42.7375700" lon="-7.1745400">
        <ele>1243.4</ele>
        <time>2020-04-14T18:51:37Z</time>
      </trkpt>
      <trkpt lat="42.7377810" lon="-7.1746330">
        <ele>1242.5</ele>
        <time>2020-04-14T18:51:39Z</time>
      </trkpt>
      <trkpt lat="42.7379850" lon="-7.1746750">
        <ele>1241.6</ele>
        <time>2020-04-14T18:51:41Z</time>
      </trkpt>
      <trkpt lat="42.7381990" lon="-7.1747030">
        <ele>1240.7</ele>
        <time>2020-04-14T18:51:43Z</time>
      </trkpt>
      <trkpt lat="42.7384080" lon="-7.1747300">
        <ele>1239.8</ele>
        <time>2020-04-14T18:51:45Z</time>
      </trkpt>
      <trkpt lat="42.7386190" lon="-7.1747910">
        <ele>1238.9</ele>
        <time>2020-04-14T18:51:47Z</time>
      </trkpt>
      <trkpt lat="42.7388200" lon="-7.1748830">
        <ele>1238.0</ele>
        <time>2020-04-14T18:51:49Z</time>
      </trkpt>
      <trkpt lat="42.7390370" lon="-7.1750200">
        <ele>1237.1</ele>
        <time>2020-04-14T18:51:51Z</time>
      </trkpt>
      <trkpt lat="42.7392340" lon="-7.1751760">
        <ele>1236.2</ele>
        <time>2020-04-14T18:51:53Z</time>
      </trkpt>
      <trkpt lat="42.7393770" lon="-7.1753000">
        <ele>1235.5</ele>
        <time>2020-04-14T18:51:55Z</time>
      </trkpt>
      <trkpt lat="42.7396280" lon="-7.1755230">
        <ele>1233.9</ele>
        <time>2020-04-14T18:51:57Z</time>
      </trkpt>
      <trkpt lat="42.7397760" lon="-7.1756580">
        <ele>1233.0</ele>
        <time>2020-04-14T18:51:59Z</time>
      </trkpt>
      <trkpt lat="42.7400310" lon="-7.1758920">
        <ele>1231.5</ele>
        <time>2020-04-14T18:52:01Z</time>
      </trkpt>
      <trkpt lat="42.7402290" lon="-7.1760910">
        <ele>1230.1</ele>
        <time>2020-04-14T18:52:03Z</time>
      </trkpt>
      <trkpt lat="42.7403750" lon="-7.1762530">
        <ele>1229.2</ele>
        <time>2020-04-14T18:52:05Z</time>
      </trkpt>
      <trkpt lat="42.7405870" lon="-7.1765090">
        <ele>1227.8</ele>
        <time>2020-04-14T18:52:07Z</time>
      </trkpt>
      <trkpt lat="42.7408130" lon="-7.1768080">
        <ele>1226.3</ele>
        <time>2020-04-14T18:52:09Z</time>
      </trkpt>
      <trkpt lat="42.7409810" lon="-7.1770700">
        <ele>1225.0</ele>
        <time>2020-04-14T18:52:11Z</time>
      </trkpt>
      <trkpt lat="42.7411500" lon="-7.1773650">
        <ele>1223.6</ele>
        <time>2020-04-14T18:52:13Z</time>
      </trkpt>
      <trkpt lat="42.7412750" lon="-7.1775790">
        <ele>1222.5</ele>
        <time>2020-04-14T18:52:15Z</time>
      </trkpt>
      <trkpt lat="42.7414860" lon="-7.1779430">
        <ele>1220.5</ele>
        <time>2020-04-14T18:52:17Z</time>
      </trkpt>
      <trkpt lat="42.7416110" lon="-7.1781580">
        <ele>1219.3</ele>
        <time>2020-04-14T18:52:19Z</time>
      </trkpt>
      <trkpt lat="42.7418320" lon="-7.1785090">
        <ele>1218.3</ele>
        <time>2020-04-14T18:52:21Z</time>
      </trkpt>
      <trkpt lat="42.7420340" lon="-7.1787480">
        <ele>1217.7</ele>
        <time>2020-04-14T18:52:23Z</time>
      </trkpt>
      <trkpt lat="42.7422440" lon="-7.1788950">
        <ele>1217.1</ele>
        <time>2020-04-14T18:52:25Z</time>
      </trkpt>
      <trkpt lat="42.7425220" lon="-7.1790720">
        <ele>1216.6</ele>
        <time>2020-04-14T18:52:27Z</time>
      </trkpt>
      <trkpt lat="42.7427190" lon="-7.1792230">
        <ele>1216.3</ele>
        <time>2020-04-14T18:52:29Z</time>
      </trkpt>
      <trkpt lat="42.7429090" lon="-7.1794300">
        <ele>1215.9</ele>
        <time>2020-04-14T18:52:31Z</time>
      </trkpt>
      <trkpt lat="42.7430360" lon="-7.1796720">
        <ele>1215.6</ele>
        <time>2020-04-14T18:52:33Z</time>
      </trkpt>
      <trkpt lat="42.7431260" lon="-7.1799280">
        <ele>1215.3</ele>
        <time>2020-04-14T18:52:35Z</time>
      </trkpt>
      <trkpt lat="42.7431770" lon="-7.1802060">
        <ele>1214.9</ele>
        <time>2020-04-14T18:52:37Z</time>
      </trkpt>
      <trkpt lat="42.7431870" lon="-7.1804780">
        <ele>1214.5</ele>
        <time>2020-04-14T18:52:39Z</time>
      </trkpt>
      <trkpt lat="42.7431550" lon="-7.1807500">
        <ele>1214.1</ele>
        <time>2020-04-14T18:52:41Z</time>
      </trkpt>
      <trkpt lat="42.7430850" lon="-7.1810090">
        <ele>1213.6</ele>
        <time>2020-04-14T18:52:43Z</time>
      </trkpt>
      <trkpt lat="42.7430210" lon="-7.1811990">
        <ele>1213.1</ele>
        <time>2020-04-14T18:52:45Z</time>
      </trkpt>
      <trkpt lat="42.7429060" lon="-7.1815370">
        <ele>1212.3</ele>
        <time>2020-04-14T18:52:47Z</time>
      </trkpt>
      <trkpt lat="42.7428390" lon="-7.1817310">
        <ele>1212.0</ele>
        <time>2020-04-14T18:52:49Z</time>
      </trkpt>
      <trkpt lat="42.7427240" lon="-7.1820730">
        <ele>1211.5</ele>
        <time>2020-04-14T18:52:51Z</time>
      </trkpt>
      <trkpt lat="42.7426610" lon="-7.1823200">
        <ele>1211.2</ele>
        <time>2020-04-14T18:52:53Z</time>
      </trkpt>
      <trkpt lat="42.7426270" lon="-7.1826170">
        <ele>1210.7</ele>
        <time>2020-04-14T18:52:55Z</time>
      </trkpt>
      <trkpt lat="42.7426540" lon="-7.1829570">
        <ele>1210.2</ele>
        <time>2020-04-14T18:52:57Z</time>
      </trkpt>
      <trkpt lat="42.7427040" lon="-7.1831720">
        <ele>1209.8</ele>
        <time>2020-04-14T18:52:59Z</time>
      </trkpt>
      <trkpt lat="42.7427980" lon="-7.1834590">
        <ele>1209.2</ele>
        <time>2020-04-14T18:53:01Z</time>
      </trkpt>
      <trkpt lat="42.7428750" lon="-7.1836460">
        <ele>1208.9</ele>
        <time>2020-04-14T18:53:03Z</time>
      </trkpt>
      <trkpt lat="42.7429530" lon="-7.1838350">
        <ele>1208.5</ele>
        <time>2020-04-14T18:53:05Z</time>
      </trkpt>
      <trkpt lat="42.7431080" lon="-7.1842250">
        <ele>1207.9</ele>
        <time>2020-04-14T18:53:07Z</time>
      </trkpt>
      <trkpt lat="42.7431870" lon="-7.1845020">
        <ele>1207.6</ele>
        <time>2020-04-14T18:53:09Z</time>
      </trkpt>
      <trkpt lat="42.7432180" lon="-7.1847740">
        <ele>1207.3</ele>
        <time>2020-04-14T18:53:11Z</time>
      </trkpt>
      <trkpt lat="42.7432150" lon="-7.1850670">
        <ele>1206.8</ele>
        <time>2020-04-14T18:53:13Z</time>
      </trkpt>
      <trkpt lat="42.7431980" lon="-7.1853550">
        <ele>1206.2</ele>
        <time>2020-04-14T18:53:15Z</time>
      </trkpt>
      <trkpt lat="42.7431840" lon="-7.1856710">
        <ele>1205.5</ele>
        <time>2020-04-14T18:53:17Z</time>
      </trkpt>
      <trkpt lat="42.7431900" lon="-7.1859860">
        <ele>1205.1</ele>
        <time>2020-04-14T18:53:19Z</time>
      </trkpt>
      <trkpt lat="42.7432120" lon="-7.1862030">
        <ele>1204.8</ele>
        <time>2020-04-14T18:53:21Z</time>
      </trkpt>
      <trkpt lat="42.7432450" lon="-7.1865510">
        <ele>1204.4</ele>
        <time>2020-04-14T18:53:23Z</time>
      </trkpt>
      <trkpt lat="42.7432630" lon="-7.1867750">
        <ele>1204.2</ele>
        <time>2020-04-14T18:53:25Z</time>
      </trkpt>
      <trkpt lat="42.7432790" lon="-7.1871660">
        <ele>1203.9</ele>
        <time>2020-04-14T18:53:27Z</time>
      </trkpt>
      <trkpt lat="42.7432170" lon="-7.1875340">
        <ele>1203.9</ele>
        <time>2020-04-14T18:53:29Z</time>
      </trkpt>
      <trkpt lat="42.7431010" lon="-7.1877710">
        <ele>1203.8</ele>
        <time>2020-04-14T18:53:31Z</time>
      </trkpt>
      <trkpt lat="42.7428990" lon="-7.1879970">
        <ele>1203.6</ele>
        <time>2020-04-14T18:53:33Z</time>
      </trkpt>
      <trkpt lat="42.7427570" lon="-7.1881250">
        <ele>1203.2</ele>
        <time>2020-04-14T18:53:35Z</time>
      </trkpt>
      <trkpt lat="42.7426220" lon="-7.1882470">
        <ele>1202.7</ele>
        <time>2020-04-14T18:53:37Z</time>
      </trkpt>
      <trkpt lat="42.7423580" lon="-7.1884850">
        <ele>1201.9</ele>
        <time>2020-04-14T18:53:39Z</time>
      </trkpt>
      <trkpt lat="42.7421780" lon="-7.1886460">
        <ele>1200.7</ele>
        <time>2020-04-14T18:53:41Z</time>
      </trkpt>
      <trkpt lat="42.7419790" lon="-7.1888250">
        <ele>1198.7</ele>
        <time>2020-04-14T18:53:43Z</time>
      </trkpt>
      <trkpt lat="42.7418310" lon="-7.1889560">
        <ele>1197.3</ele>
        <time>2020-04-14T18:53:45Z</time>
      </trkpt>
      <trkpt lat="42.7415920" lon="-7.1891500">
        <ele>1195.1</ele>
        <time>2020-04-14T18:53:47Z</time>
      </trkpt>
      <trkpt lat="42.7413430" lon="-7.1893190">
        <ele>1192.9</ele>
        <time>2020-04-14T18:53:49Z</time>
      </trkpt>
      <trkpt lat="42.7410780" lon="-7.1894590">
        <ele>1190.7</ele>
        <time>2020-04-14T18:53:51Z</time>
      </trkpt>
      <trkpt lat="42.7407530" lon="-7.1895990">
        <ele>1188.3</ele>
        <time>2020-04-14T18:53:53Z</time>
      </trkpt>
      <trkpt lat="42.7405180" lon="-7.1896830">
        <ele>1186.5</ele>
        <time>2020-04-14T18:53:55Z</time>
      </trkpt>
      <trkpt lat="42.7401450" lon="-7.1897900">
        <ele>1183.6</ele>
        <time>2020-04-14T18:53:57Z</time>
      </trkpt>
      <trkpt lat="42.7398030" lon="-7.1898650">
        <ele>1180.8</ele>
        <time>2020-04-14T18:53:59Z</time>
      </trkpt>
      <trkpt lat="42.7394000" lon="-7.1899360">
        <ele>1177.3</ele>
        <time>2020-04-14T18:54:01Z</time>
      </trkpt>
      <trkpt lat="42.7391330" lon="-7.1899560">
        <ele>1174.9</ele>
        <time>2020-04-14T18:54:03Z</time>
      </trkpt>
      <trkpt lat="42.7387060" lon="-7.1899890">
        <ele>1170.9</ele>
        <time>2020-04-14T18:54:05Z</time>
      </trkpt>
      <trkpt lat="42.7383590" lon="-7.1899480">
        <ele>1167.3</ele>
        <time>2020-04-14T18:54:07Z</time>
      </trkpt>
      <trkpt lat="42.7379420" lon="-7.1898330">
        <ele>1162.9</ele>
        <time>2020-04-14T18:54:10Z</time>
      </trkpt>
      <trkpt lat="42.7376460" lon="-7.1896850">
        <ele>1159.5</ele>
        <time>2020-04-14T18:54:12Z</time>
      </trkpt>
      <trkpt lat="42.7372610" lon="-7.1894180">
        <ele>1155.0</ele>
        <time>2020-04-14T18:54:14Z</time>
      </trkpt>
      <trkpt lat="42.7370310" lon="-7.1892240">
        <ele>1152.0</ele>
        <time>2020-04-14T18:54:16Z</time>
      </trkpt>
      <trkpt lat="42.7366460" lon="-7.1889010">
        <ele>1146.7</ele>
        <time>2020-04-14T18:54:18Z</time>
      </trkpt>
      <trkpt lat="42.7362820" lon="-7.1887310">
        <ele>1142.1</ele>
        <time>2020-04-14T18:54:20Z</time>
      </trkpt>
      <trkpt lat="42.7359480" lon="-7.1887610">
        <ele>1137.7</ele>
        <time>2020-04-14T18:54:22Z</time>
      </trkpt>
      <trkpt lat="42.7356490" lon="-7.1890530">
        <ele>1133.1</ele>
        <time>2020-04-14T18:54:24Z</time>
      </trkpt>
      <trkpt lat="42.7355290" lon="-7.1895470">
        <ele>1128.5</ele>
        <time>2020-04-14T18:54:26Z</time>
      </trkpt>
      <trkpt lat="42.7356340" lon="-7.1900760">
        <ele>1123.5</ele>
        <time>2020-04-14T18:54:28Z</time>
      </trkpt>
      <trkpt lat="42.7359360" lon="-7.1904060">
        <ele>1118.9</ele>
        <time>2020-04-14T18:54:30Z</time>
      </trkpt>
      <trkpt lat="42.7363060" lon="-7.1905730">
        <ele>1115.2</ele>
        <time>2020-04-14T18:54:32Z</time>
      </trkpt>
      <trkpt lat="42.7365410" lon="-7.1907740">
        <ele>1114.6</ele>
        <time>2020-04-14T18:54:34Z</time>
      </trkpt>
      <trkpt lat="42.7369100" lon="-7.1910960">
        <ele>1112.3</ele>
        <time>2020-04-14T18:54:36Z</time>
      </trkpt>
      <trkpt lat="42.7370640" lon="-7.1913500">
        <ele>1110.9</ele>
        <time>2020-04-14T18:54:38Z</time>
      </trkpt>
      <trkpt lat="42.7372990" lon="-7.1917390">
        <ele>1108.6</ele>
        <time>2020-04-14T18:54:40Z</time>
      </trkpt>
      <trkpt lat="42.7374420" lon="-7.1919770">
        <ele>1107.3</ele>
        <time>2020-04-14T18:54:42Z</time>
      </trkpt>
      <trkpt lat="42.7376770" lon="-7.1923660">
        <ele>1105.1</ele>
        <time>2020-04-14T18:54:44Z</time>
      </trkpt>
      <trkpt lat="42.7378200" lon="-7.1926040">
        <ele>1103.6</ele>
        <time>2020-04-14T18:54:46Z</time>
      </trkpt>
      <trkpt lat="42.7380890" lon="-7.1930660">
        <ele>1100.8</ele>
        <time>2020-04-14T18:54:48Z</time>
      </trkpt>
      <trkpt lat="42.7382060" lon="-7.1933720">
        <ele>1099.2</ele>
        <time>2020-04-14T18:54:50Z</time>
      </trkpt>
      <trkpt lat="42.7383170" lon="-7.1936620">
        <ele>1097.9</ele>
        <time>2020-04-14T18:54:52Z</time>
      </trkpt>
      <trkpt lat="42.7385170" lon="-7.1941840">
        <ele>1094.8</ele>
        <time>2020-04-14T18:54:54Z</time>
      </trkpt>
      <trkpt lat="42.7386680" lon="-7.1946150">
        <ele>1092.2</ele>
        <time>2020-04-14T18:54:56Z</time>
      </trkpt>
      <trkpt lat="42.7388030" lon="-7.1950520">
        <ele>1089.8</ele>
        <time>2020-04-14T18:54:58Z</time>
      </trkpt>
      <trkpt lat="42.7389400" lon="-7.1954900">
        <ele>1087.5</ele>
        <time>2020-04-14T18:55:00Z</time>
      </trkpt>
      <trkpt lat="42.7390840" lon="-7.1959360">
        <ele>1082.5</ele>
        <time>2020-04-14T18:55:02Z</time>
      </trkpt>
      <trkpt lat="42.7392300" lon="-7.1963630">
        <ele>1079.8</ele>
        <time>2020-04-14T18:55:04Z</time>
      </trkpt>
      <trkpt lat="42.7394100" lon="-7.1968400">
        <ele>1076.9</ele>
        <time>2020-04-14T18:55:06Z</time>
      </trkpt>
      <trkpt lat="42.7396130" lon="-7.1971770">
        <ele>1074.4</ele>
        <time>2020-04-14T18:55:08Z</time>
      </trkpt>
      <trkpt lat="42.7398880" lon="-7.1974770">
        <ele>1071.4</ele>
        <time>2020-04-14T18:55:10Z</time>
      </trkpt>
      <trkpt lat="42.7400940" lon="-7.1976690">
        <ele>1069.5</ele>
        <time>2020-04-14T18:55:12Z</time>
      </trkpt>
      <trkpt lat="42.7404590" lon="-7.1980090">
        <ele>1065.9</ele>
        <time>2020-04-14T18:55:14Z</time>
      </trkpt>
      <trkpt lat="42.7407390" lon="-7.1982700">
        <ele>1063.4</ele>
        <time>2020-04-14T18:55:16Z</time>
      </trkpt>
      <trkpt lat="42.7409450" lon="-7.1984550">
        <ele>1061.4</ele>
        <time>2020-04-14T18:55:18Z</time>
      </trkpt>
      <trkpt lat="42.7412310" lon="-7.1987110">
        <ele>1058.5</ele>
        <time>2020-04-14T18:55:20Z</time>
      </trkpt>
      <trkpt lat="42.7415570" lon="-7.1990020">
        <ele>1055.1</ele>
        <time>2020-04-14T18:55:22Z</time>
      </trkpt>
      <trkpt lat="42.7417920" lon="-7.1992150">
        <ele>1052.8</ele>
        <time>2020-04-14T18:55:24Z</time>
      </trkpt>
      <trkpt lat="42.7420660" lon="-7.1994680">
        <ele>1050.1</ele>
        <time>2020-04-14T18:55:26Z</time>
      </trkpt>
      <trkpt lat="42.7423430" lon="-7.1997290">
        <ele>1047.1</ele>
        <time>2020-04-14T18:55:28Z</time>
      </trkpt>
      <trkpt lat="42.7426060" lon="-7.2000580">
        <ele>1044.1</ele>
        <time>2020-04-14T18:55:30Z</time>
      </trkpt>
      <trkpt lat="42.7427670" lon="-7.2004250">
        <ele>1041.7</ele>
        <time>2020-04-14T18:55:32Z</time>
      </trkpt>
      <trkpt lat="42.7428530" lon="-7.2008640">
        <ele>1039.0</ele>
        <time>2020-04-14T18:55:34Z</time>
      </trkpt>
      <trkpt lat="42.7428430" lon="-7.2013010">
        <ele>1036.3</ele>
        <time>2020-04-14T18:55:36Z</time>
      </trkpt>
      <trkpt lat="42.7427400" lon="-7.2017560">
        <ele>1033.6</ele>
        <time>2020-04-14T18:55:38Z</time>
      </trkpt>
      <trkpt lat="42.7425530" lon="-7.2021070">
        <ele>1031.4</ele>
        <time>2020-04-14T18:55:40Z</time>
      </trkpt>
      <trkpt lat="42.7423060" lon="-7.2023900">
        <ele>1028.8</ele>
        <time>2020-04-14T18:55:42Z</time>
      </trkpt>
      <trkpt lat="42.7419650" lon="-7.2025680">
        <ele>1025.9</ele>
        <time>2020-04-14T18:55:44Z</time>
      </trkpt>
      <trkpt lat="42.7416320" lon="-7.2026230">
        <ele>1023.3</ele>
        <time>2020-04-14T18:55:46Z</time>
      </trkpt>
      <trkpt lat="42.7412570" lon="-7.2025320">
        <ele>1020.1</ele>
        <time>2020-04-14T18:55:48Z</time>
      </trkpt>
      <trkpt lat="42.7409080" lon="-7.2023850">
        <ele>1017.2</ele>
        <time>2020-04-14T18:55:50Z</time>
      </trkpt>
      <trkpt lat="42.7405740" lon="-7.2022210">
        <ele>1014.6</ele>
        <time>2020-04-14T18:55:52Z</time>
      </trkpt>
      <trkpt lat="42.7403010" lon="-7.2020850">
        <ele>1012.8</ele>
        <time>2020-04-14T18:55:54Z</time>
      </trkpt>
      <trkpt lat="42.7400650" lon="-7.2019670">
        <ele>1010.3</ele>
        <time>2020-04-14T18:55:56Z</time>
      </trkpt>
      <trkpt lat="42.7396280" lon="-7.2017560">
        <ele>1009.9</ele>
        <time>2020-04-14T18:55:58Z</time>
      </trkpt>
      <trkpt lat="42.7393260" lon="-7.2016110">
        <ele>1009.8</ele>
        <time>2020-04-14T18:56:00Z</time>
      </trkpt>
      <trkpt lat="42.7391230" lon="-7.2015140">
        <ele>1009.4</ele>
        <time>2020-04-14T18:56:02Z</time>
      </trkpt>
      <trkpt lat="42.7388060" lon="-7.2013400">
        <ele>1008.9</ele>
        <time>2020-04-14T18:56:04Z</time>
      </trkpt>
      <trkpt lat="42.7385900" lon="-7.2010960">
        <ele>1008.6</ele>
        <time>2020-04-14T18:56:06Z</time>
      </trkpt>
      <trkpt lat="42.7384930" lon="-7.2008350">
        <ele>1008.6</ele>
        <time>2020-04-14T18:56:08Z</time>
      </trkpt>
      <trkpt lat="42.7384150" lon="-7.2005500">
        <ele>1008.5</ele>
        <time>2020-04-14T18:56:10Z</time>
      </trkpt>
      <trkpt lat="42.7383470" lon="-7.2002850">
        <ele>1008.4</ele>
        <time>2020-04-14T18:56:12Z</time>
      </trkpt>
      <trkpt lat="42.7382590" lon="-7.2000070">
        <ele>1008.9</ele>
        <time>2020-04-14T18:56:14Z</time>
      </trkpt>
      <trkpt lat="42.7381220" lon="-7.1998140">
        <ele>1007.3</ele>
        <time>2020-04-14T18:56:16Z</time>
      </trkpt>
      <trkpt lat="42.7379230" lon="-7.1996580">
        <ele>1004.6</ele>
        <time>2020-04-14T18:56:18Z</time>
      </trkpt>
      <trkpt lat="42.7376810" lon="-7.1995990">
        <ele>1001.7</ele>
        <time>2020-04-14T18:56:20Z</time>
      </trkpt>
      <trkpt lat="42.7374190" lon="-7.1996780">
        <ele>998.5</ele>
        <time>2020-04-14T18:56:22Z</time>
      </trkpt>
      <trkpt lat="42.7371820" lon="-7.1999100">
        <ele>995.0</ele>
        <time>2020-04-14T18:56:24Z</time>
      </trkpt>
      <trkpt lat="42.7370490" lon="-7.2002820">
        <ele>991.2</ele>
        <time>2020-04-14T18:56:26Z</time>
      </trkpt>
      <trkpt lat="42.7370460" lon="-7.2007180">
        <ele>987.4</ele>
        <time>2020-04-14T18:56:28Z</time>
      </trkpt>
      <trkpt lat="42.7372140" lon="-7.2011320">
        <ele>983.2</ele>
        <time>2020-04-14T18:56:30Z</time>
      </trkpt>
      <trkpt lat="42.7373910" lon="-7.2014060">
        <ele>980.2</ele>
        <time>2020-04-14T18:56:32Z</time>
      </trkpt>
      <trkpt lat="42.7377020" lon="-7.2018980">
        <ele>974.9</ele>
        <time>2020-04-14T18:56:34Z</time>
      </trkpt>
      <trkpt lat="42.7379030" lon="-7.2023110">
        <ele>970.5</ele>
        <time>2020-04-14T18:56:36Z</time>
      </trkpt>
      <trkpt lat="42.7380370" lon="-7.2026910">
        <ele>966.9</ele>
        <time>2020-04-14T18:56:38Z</time>
      </trkpt>
      <trkpt lat="42.7382060" lon="-7.2032020">
        <ele>962.2</ele>
        <time>2020-04-14T18:56:40Z</time>
      </trkpt>
      <trkpt lat="42.7383190" lon="-7.2035600">
        <ele>958.9</ele>
        <time>2020-04-14T18:56:42Z</time>
      </trkpt>
      <trkpt lat="42.7385010" lon="-7.2041380">
        <ele>953.7</ele>
        <time>2020-04-14T18:56:44Z</time>
      </trkpt>
      <trkpt lat="42.7386830" lon="-7.2047170">
        <ele>948.1</ele>
        <time>2020-04-14T18:56:46Z</time>
      </trkpt>
      <trkpt lat="42.7387980" lon="-7.2050810">
        <ele>944.9</ele>
        <time>2020-04-14T18:56:48Z</time>
      </trkpt>
      <trkpt lat="42.7389950" lon="-7.2056640">
        <ele>939.2</ele>
        <time>2020-04-14T18:56:50Z</time>
      </trkpt>
      <trkpt lat="42.7392170" lon="-7.2062010">
        <ele>934.6</ele>
        <time>2020-04-14T18:56:52Z</time>
      </trkpt>
      <trkpt lat="42.7394010" lon="-7.2065050">
        <ele>932.2</ele>
        <time>2020-04-14T18:56:54Z</time>
      </trkpt>
      <trkpt lat="42.7397270" lon="-7.2069510">
        <ele>929.3</ele>
        <time>2020-04-14T18:56:56Z</time>
      </trkpt>
      <trkpt lat="42.7400010" lon="-7.2072120">
        <ele>926.5</ele>
        <time>2020-04-14T18:56:58Z</time>
      </trkpt>
      <trkpt lat="42.7403090" lon="-7.2075150">
        <ele>923.5</ele>
        <time>2020-04-14T18:57:00Z</time>
      </trkpt>
      <trkpt lat="42.7406260" lon="-7.2078160">
        <ele>920.4</ele>
        <time>2020-04-14T18:57:02Z</time>
      </trkpt>
      <trkpt lat="42.7408590" lon="-7.2079590">
        <ele>918.3</ele>
        <time>2020-04-14T18:57:04Z</time>
      </trkpt>
      <trkpt lat="42.7412300" lon="-7.2081610">
        <ele>915.1</ele>
        <time>2020-04-14T18:57:06Z</time>
      </trkpt>
      <trkpt lat="42.7415940" lon="-7.2082780">
        <ele>912.0</ele>
        <time>2020-04-14T18:57:08Z</time>
      </trkpt>
      <trkpt lat="42.7419300" lon="-7.2082710">
        <ele>909.1</ele>
        <time>2020-04-14T18:57:10Z</time>
      </trkpt>
      <trkpt lat="42.7422480" lon="-7.2081680">
        <ele>906.5</ele>
        <time>2020-04-14T18:57:12Z</time>
      </trkpt>
      <trkpt lat="42.7424850" lon="-7.2080260">
        <ele>904.4</ele>
        <time>2020-04-14T18:57:14Z</time>
      </trkpt>
      <trkpt lat="42.7428610" lon="-7.2078460">
        <ele>900.9</ele>
        <time>2020-04-14T18:57:16Z</time>
      </trkpt>
      <trkpt lat="42.7431680" lon="-7.2078300">
        <ele>898.2</ele>
        <time>2020-04-14T18:57:18Z</time>
      </trkpt>
      <trkpt lat="42.7434540" lon="-7.2080160">
        <ele>895.5</ele>
        <time>2020-04-14T18:57:20Z</time>
      </trkpt>
      <trkpt lat="42.7436600" lon="-7.2083000">
        <ele>893.0</ele>
        <time>2020-04-14T18:57:22Z</time>
      </trkpt>
      <trkpt lat="42.7438240" lon="-7.2085500">
        <ele>891.1</ele>
        <time>2020-04-14T18:57:24Z</time>
      </trkpt>
      <trkpt lat="42.7441170" lon="-7.2089980">
        <ele>887.2</ele>
        <time>2020-04-14T18:57:26Z</time>
      </trkpt>
      <trkpt lat="42.7443770" lon="-7.2093970">
        <ele>883.8</ele>
        <time>2020-04-14T18:57:28Z</time>
      </trkpt>
      <trkpt lat="42.7445770" lon="-7.2097720">
        <ele>880.9</ele>
        <time>2020-04-14T18:57:30Z</time>
      </trkpt>
      <trkpt lat="42.7446950" lon="-7.2101590">
        <ele>878.4</ele>
        <time>2020-04-14T18:57:32Z</time>
      </trkpt>
      <trkpt lat="42.7447900" lon="-7.2106270">
        <ele>875.5</ele>
        <time>2020-04-14T18:57:34Z</time>
      </trkpt>
      <trkpt lat="42.7448540" lon="-7.2109610">
        <ele>873.4</ele>
        <time>2020-04-14T18:57:36Z</time>
      </trkpt>
      <trkpt lat="42.7449900" lon="-7.2115480">
        <ele>869.6</ele>
        <time>2020-04-14T18:57:38Z</time>
      </trkpt>
      <trkpt lat="42.7451250" lon="-7.2119430">
        <ele>867.0</ele>
        <time>2020-04-14T18:57:40Z</time>
      </trkpt>
      <trkpt lat="42.7453450" lon="-7.2123650">
        <ele>863.5</ele>
        <time>2020-04-14T18:57:42Z</time>
      </trkpt>
      <trkpt lat="42.7456310" lon="-7.2127290">
        <ele>860.8</ele>
        <time>2020-04-14T18:57:44Z</time>
      </trkpt>
      <trkpt lat="42.7459050" lon="-7.2130150">
        <ele>860.1</ele>
        <time>2020-04-14T18:57:46Z</time>
      </trkpt>
      <trkpt lat="42.7461510" lon="-7.2132760">
        <ele>858.5</ele>
        <time>2020-04-14T18:57:48Z</time>
      </trkpt>
      <trkpt lat="42.7463890" lon="-7.2135680">
        <ele>856.6</ele>
        <time>2020-04-14T18:57:50Z</time>
      </trkpt>
      <trkpt lat="42.7465540" lon="-7.2138520">
        <ele>854.8</ele>
        <time>2020-04-14T18:57:52Z</time>
      </trkpt>
      <trkpt lat="42.7467310" lon="-7.2142150">
        <ele>852.9</ele>
        <time>2020-04-14T18:57:54Z</time>
      </trkpt>
      <trkpt lat="42.7468480" lon="-7.2144740">
        <ele>851.7</ele>
        <time>2020-04-14T18:57:56Z</time>
      </trkpt>
      <trkpt lat="42.7470420" lon="-7.2149030">
        <ele>849.7</ele>
        <time>2020-04-14T18:57:58Z</time>
      </trkpt>
      <trkpt lat="42.7471770" lon="-7.2152370">
        <ele>847.9</ele>
        <time>2020-04-14T18:58:00Z</time>
      </trkpt>
      <trkpt lat="42.7473160" lon="-7.2156810">
        <ele>845.7</ele>
        <time>2020-04-14T18:58:02Z</time>
      </trkpt>
      <trkpt lat="42.7473850" lon="-7.2160240">
        <ele>844.4</ele>
        <time>2020-04-14T18:58:04Z</time>
      </trkpt>
      <trkpt lat="42.7474260" lon="-7.2164360">
        <ele>842.9</ele>
        <time>2020-04-14T18:58:06Z</time>
      </trkpt>
      <trkpt lat="42.7474640" lon="-7.2169180">
        <ele>837.1</ele>
        <time>2020-04-14T18:58:08Z</time>
      </trkpt>
      <trkpt lat="42.7476260" lon="-7.2173520">
        <ele>831.2</ele>
        <time>2020-04-14T18:58:10Z</time>
      </trkpt>
      <trkpt lat="42.7478920" lon="-7.2176480">
        <ele>826.8</ele>
        <time>2020-04-14T18:58:12Z</time>
      </trkpt>
      <trkpt lat="42.7481270" lon="-7.2178440">
        <ele>825.0</ele>
        <time>2020-04-14T18:58:14Z</time>
      </trkpt>
      <trkpt lat="42.7485140" lon="-7.2181650">
        <ele>821.5</ele>
        <time>2020-04-14T18:58:16Z</time>
      </trkpt>
      <trkpt lat="42.7488630" lon="-7.2184540">
        <ele>818.7</ele>
        <time>2020-04-14T18:58:18Z</time>
      </trkpt>
      <trkpt lat="42.7491080" lon="-7.2186510">
        <ele>817.8</ele>
        <time>2020-04-14T18:58:20Z</time>
      </trkpt>
      <trkpt lat="42.7493120" lon="-7.2188150">
        <ele>816.4</ele>
        <time>2020-04-14T18:58:22Z</time>
      </trkpt>
      <trkpt lat="42.7496620" lon="-7.2191030">
        <ele>813.8</ele>
        <time>2020-04-14T18:58:24Z</time>
      </trkpt>
      <trkpt lat="42.7498550" lon="-7.2192690">
        <ele>812.3</ele>
        <time>2020-04-14T18:58:26Z</time>
      </trkpt>
      <trkpt lat="42.7501980" lon="-7.2195850">
        <ele>809.8</ele>
        <time>2020-04-14T18:58:28Z</time>
      </trkpt>
      <trkpt lat="42.7504010" lon="-7.2198500">
        <ele>808.1</ele>
        <time>2020-04-14T18:58:30Z</time>
      </trkpt>
      <trkpt lat="42.7505600" lon="-7.2200700">
        <ele>806.7</ele>
        <time>2020-04-14T18:58:32Z</time>
      </trkpt>
      <trkpt lat="42.7508160" lon="-7.2204240">
        <ele>804.4</ele>
        <time>2020-04-14T18:58:34Z</time>
      </trkpt>
      <trkpt lat="42.7510670" lon="-7.2207840">
        <ele>802.4</ele>
        <time>2020-04-14T18:58:36Z</time>
      </trkpt>
      <trkpt lat="42.7512650" lon="-7.2211090">
        <ele>801.5</ele>
        <time>2020-04-14T18:58:38Z</time>
      </trkpt>
      <trkpt lat="42.7514120" lon="-7.2214190">
        <ele>801.1</ele>
        <time>2020-04-14T18:58:40Z</time>
      </trkpt>
      <trkpt lat="42.7514960" lon="-7.2216480">
        <ele>800.6</ele>
        <time>2020-04-14T18:58:42Z</time>
      </trkpt>
      <trkpt lat="42.7516270" lon="-7.2220030">
        <ele>800.0</ele>
        <time>2020-04-14T18:58:44Z</time>
      </trkpt>
      <trkpt lat="42.7517060" lon="-7.2222150">
        <ele>799.5</ele>
        <time>2020-04-14T18:58:46Z</time>
      </trkpt>
      <trkpt lat="42.7518250" lon="-7.2225380">
        <ele>798.7</ele>
        <time>2020-04-14T18:58:48Z</time>
      </trkpt>
      <trkpt lat="42.7518990" lon="-7.2227380">
        <ele>798.2</ele>
        <time>2020-04-14T18:58:50Z</time>
      </trkpt>
      <trkpt lat="42.7519720" lon="-7.2229360">
        <ele>797.8</ele>
        <time>2020-04-14T18:58:52Z</time>
      </trkpt>
      <trkpt lat="42.7521460" lon="-7.2233760">
        <ele>796.9</ele>
        <time>2020-04-14T18:58:54Z</time>
      </trkpt>
      <trkpt lat="42.7522770" lon="-7.2236210">
        <ele>796.5</ele>
        <time>2020-04-14T18:58:56Z</time>
      </trkpt>
      <trkpt lat="42.7524350" lon="-7.2238170">
        <ele>796.1</ele>
        <time>2020-04-14T18:58:58Z</time>
      </trkpt>
      <trkpt lat="42.7526320" lon="-7.2239840">
        <ele>795.4</ele>
        <time>2020-04-14T18:59:00Z</time>
      </trkpt>
      <trkpt lat="42.7528360" lon="-7.2240750">
        <ele>794.6</ele>
        <time>2020-04-14T18:59:02Z</time>
      </trkpt>
      <trkpt lat="42.7530600" lon="-7.2241200">
        <ele>793.5</ele>
        <time>2020-04-14T18:59:04Z</time>
      </trkpt>
      <trkpt lat="42.7532460" lon="-7.2241440">
        <ele>792.5</ele>
        <time>2020-04-14T18:59:06Z</time>
      </trkpt>
      <trkpt lat="42.7536290" lon="-7.2242090">
        <ele>790.1</ele>
        <time>2020-04-14T18:59:08Z</time>
      </trkpt>
      <trkpt lat="42.7538480" lon="-7.2243060">
        <ele>788.4</ele>
        <time>2020-04-14T18:59:10Z</time>
      </trkpt>
      <trkpt lat="42.7540810" lon="-7.2244720">
        <ele>786.3</ele>
        <time>2020-04-14T18:59:12Z</time>
      </trkpt>
      <trkpt lat="42.7543250" lon="-7.2246930">
        <ele>784.1</ele>
        <time>2020-04-14T18:59:14Z</time>
      </trkpt>
      <trkpt lat="42.7546040" lon="-7.2249690">
        <ele>781.3</ele>
        <time>2020-04-14T18:59:16Z</time>
      </trkpt>
      <trkpt lat="42.7547830" lon="-7.2251450">
        <ele>779.5</ele>
        <time>2020-04-14T18:59:18Z</time>
      </trkpt>
      <trkpt lat="42.7550720" lon="-7.2254130">
        <ele>776.7</ele>
        <time>2020-04-14T18:59:20Z</time>
      </trkpt>
      <trkpt lat="42.7552610" lon="-7.2255810">
        <ele>775.0</ele>
        <time>2020-04-14T18:59:22Z</time>
      </trkpt>
      <trkpt lat="42.7556070" lon="-7.2258490">
        <ele>771.8</ele>
        <time>2020-04-14T18:59:24Z</time>
      </trkpt>
      <trkpt lat="42.7558240" lon="-7.2259670">
        <ele>769.7</ele>
        <time>2020-04-14T18:59:26Z</time>
      </trkpt>
      <trkpt lat="42.7562320" lon="-7.2260950">
        <ele>766.1</ele>
        <time>2020-04-14T18:59:28Z</time>
      </trkpt>
      <trkpt lat="42.7565500" lon="-7.2260860">
        <ele>763.3</ele>
        <time>2020-04-14T18:59:30Z</time>
      </trkpt>
      <trkpt lat="42.7568570" lon="-7.2259990">
        <ele>760.5</ele>
        <time>2020-04-14T18:59:32Z</time>
      </trkpt>
      <trkpt lat="42.7571320" lon="-7.2258710">
        <ele>757.7</ele>
        <time>2020-04-14T18:59:34Z</time>
      </trkpt>
      <trkpt lat="42.7573950" lon="-7.2256700">
        <ele>754.9</ele>
        <time>2020-04-14T18:59:36Z</time>
      </trkpt>
      <trkpt lat="42.7575910" lon="-7.2254910">
        <ele>752.7</ele>
        <time>2020-04-14T18:59:38Z</time>
      </trkpt>
      <trkpt lat="42.7579900" lon="-7.2252000">
        <ele>748.6</ele>
        <time>2020-04-14T18:59:40Z</time>
      </trkpt>
      <trkpt lat="42.7582960" lon="-7.2251810">
        <ele>745.6</ele>
        <time>2020-04-14T18:59:42Z</time>
      </trkpt>
      <trkpt lat="42.7586320" lon="-7.2253750">
        <ele>741.9</ele>
        <time>2020-04-14T18:59:44Z</time>
      </trkpt>
      <trkpt lat="42.7588100" lon="-7.2257370">
        <ele>738.6</ele>
        <time>2020-04-14T18:59:46Z</time>
      </trkpt>
      <trkpt lat="42.7588420" lon="-7.2262060">
        <ele>736.6</ele>
        <time>2020-04-14T18:59:48Z</time>
      </trkpt>
      <trkpt lat="42.7587920" lon="-7.2266460">
        <ele>733.4</ele>
        <time>2020-04-14T18:59:50Z</time>
      </trkpt>
      <trkpt lat="42.7586990" lon="-7.2272260">
        <ele>730.2</ele>
        <time>2020-04-14T18:59:52Z</time>
      </trkpt>
      <trkpt lat="42.7586470" lon="-7.2275650">
        <ele>729.9</ele>
        <time>2020-04-14T18:59:54Z</time>
      </trkpt>
      <trkpt lat="42.7585680" lon="-7.2280880">
        <ele>729.1</ele>
        <time>2020-04-14T18:59:56Z</time>
      </trkpt>
      <trkpt lat="42.7585040" lon="-7.2284800">
        <ele>728.0</ele>
        <time>2020-04-14T18:59:58Z</time>
      </trkpt>
      <trkpt lat="42.7584270" lon="-7.2288460">
        <ele>726.6</ele>
        <time>2020-04-14T19:00:00Z</time>
      </trkpt>
      <trkpt lat="42.7583240" lon="-7.2292060">
        <ele>725.0</ele>
        <time>2020-04-14T19:00:02Z</time>
      </trkpt>
      <trkpt lat="42.7582100" lon="-7.2295050">
        <ele>723.7</ele>
        <time>2020-04-14T19:00:04Z</time>
      </trkpt>
      <trkpt lat="42.7580630" lon="-7.2298200">
        <ele>722.4</ele>
        <time>2020-04-14T19:00:06Z</time>
      </trkpt>
      <trkpt lat="42.7578820" lon="-7.2301420">
        <ele>720.9</ele>
        <time>2020-04-14T19:00:08Z</time>
      </trkpt>
      <trkpt lat="42.7577410" lon="-7.2303320">
        <ele>719.9</ele>
        <time>2020-04-14T19:00:10Z</time>
      </trkpt>
      <trkpt lat="42.7575250" lon="-7.2306120">
        <ele>718.6</ele>
        <time>2020-04-14T19:00:12Z</time>
      </trkpt>
      <trkpt lat="42.7573820" lon="-7.2307860">
        <ele>717.9</ele>
        <time>2020-04-14T19:00:14Z</time>
      </trkpt>
      <trkpt lat="42.7571140" lon="-7.2311130">
        <ele>716.8</ele>
        <time>2020-04-14T19:00:16Z</time>
      </trkpt>
      <trkpt lat="42.7569720" lon="-7.2312870">
        <ele>716.3</ele>
        <time>2020-04-14T19:00:18Z</time>
      </trkpt>
      <trkpt lat="42.7568280" lon="-7.2314640">
        <ele>716.0</ele>
        <time>2020-04-14T19:00:20Z</time>
      </trkpt>
      <trkpt lat="42.7565660" lon="-7.2318010">
        <ele>715.4</ele>
        <time>2020-04-14T19:00:22Z</time>
      </trkpt>
      <trkpt lat="42.7563940" lon="-7.2321260">
        <ele>714.3</ele>
        <time>2020-04-14T19:00:24Z</time>
      </trkpt>
      <trkpt lat="42.7563210" lon="-7.2325130">
        <ele>712.5</ele>
        <time>2020-04-14T19:00:26Z</time>
      </trkpt>
      <trkpt lat="42.7563130" lon="-7.2328450">
        <ele>710.8</ele>
        <time>2020-04-14T19:00:28Z</time>
      </trkpt>
      <trkpt lat="42.7563270" lon="-7.2332370">
        <ele>708.6</ele>
        <time>2020-04-14T19:00:30Z</time>
      </trkpt>
      <trkpt lat="42.7563480" lon="-7.2336960">
        <ele>705.8</ele>
        <time>2020-04-14T19:00:32Z</time>
      </trkpt>
      <trkpt lat="42.7563630" lon="-7.2340050">
        <ele>703.8</ele>
        <time>2020-04-14T19:00:34Z</time>
      </trkpt>
      <trkpt lat="42.7563780" lon="-7.2343190">
        <ele>701.7</ele>
        <time>2020-04-14T19:00:36Z</time>
      </trkpt>
      <trkpt lat="42.7564050" lon="-7.2348910">
        <ele>697.7</ele>
        <time>2020-04-14T19:00:38Z</time>
      </trkpt>
      <trkpt lat="42.7564200" lon="-7.2352080">
        <ele>695.6</ele>
        <time>2020-04-14T19:00:40Z</time>
      </trkpt>
      <trkpt lat="42.7564500" lon="-7.2358180">
        <ele>693.1</ele>
        <time>2020-04-14T19:00:42Z</time>
      </trkpt>
      <trkpt lat="42.7564660" lon="-7.2361370">
        <ele>690.7</ele>
        <time>2020-04-14T19:00:44Z</time>
      </trkpt>
      <trkpt lat="42.7564910" lon="-7.2366640">
        <ele>688.3</ele>
        <time>2020-04-14T19:00:46Z</time>
      </trkpt>
      <trkpt lat="42.7565110" lon="-7.2371160">
        <ele>687.8</ele>
        <time>2020-04-14T19:00:48Z</time>
      </trkpt>
      <trkpt lat="42.7565260" lon="-7.2374270">
        <ele>686.3</ele>
        <time>2020-04-14T19:00:50Z</time>
      </trkpt>
      <trkpt lat="42.7565540" lon="-7.2379650">
        <ele>683.0</ele>
        <time>2020-04-14T19:00:52Z</time>
      </trkpt>
      <trkpt lat="42.7565690" lon="-7.2382570">
        <ele>681.3</ele>
        <time>2020-04-14T19:00:54Z</time>
      </trkpt>
      <trkpt lat="42.7565950" lon="-7.2387650">
        <ele>679.0</ele>
        <time>2020-04-14T19:00:56Z</time>
      </trkpt>
      <trkpt lat="42.7566130" lon="-7.2391210">
        <ele>677.5</ele>
        <time>2020-04-14T19:00:58Z</time>
      </trkpt>
      <trkpt lat="42.7566290" lon="-7.2394100">
        <ele>676.1</ele>
        <time>2020-04-14T19:01:00Z</time>
      </trkpt>
      <trkpt lat="42.7566440" lon="-7.2397000">
        <ele>674.7</ele>
        <time>2020-04-14T19:01:02Z</time>
      </trkpt>
      <trkpt lat="42.7566410" lon="-7.2403350">
        <ele>671.7</ele>
        <time>2020-04-14T19:01:04Z</time>
      </trkpt>
      <trkpt lat="42.7565630" lon="-7.2407100">
        <ele>670.1</ele>
        <time>2020-04-14T19:01:06Z</time>
      </trkpt>
      <trkpt lat="42.7564850" lon="-7.2409880">
        <ele>668.4</ele>
        <time>2020-04-14T19:01:08Z</time>
      </trkpt>
      <trkpt lat="42.7563580" lon="-7.2414980">
        <ele>665.6</ele>
        <time>2020-04-14T19:01:10Z</time>
      </trkpt>
      <trkpt lat="42.7562950" lon="-7.2419070">
        <ele>663.7</ele>
        <time>2020-04-14T19:01:12Z</time>
      </trkpt>
      <trkpt lat="42.7562600" lon="-7.2422150">
        <ele>662.9</ele>
        <time>2020-04-14T19:01:14Z</time>
      </trkpt>
      <trkpt lat="42.7561980" lon="-7.2426690">
        <ele>661.1</ele>
        <time>2020-04-14T19:01:16Z</time>
      </trkpt>
      <trkpt lat="42.7560960" lon="-7.2430960">
        <ele>659.5</ele>
        <time>2020-04-14T19:01:18Z</time>
      </trkpt>
      <trkpt lat="42.7559590" lon="-7.2434660">
        <ele>658.1</ele>
        <time>2020-04-14T19:01:20Z</time>
      </trkpt>
      <trkpt lat="42.7558080" lon="-7.2437270">
        <ele>657.9</ele>
        <time>2020-04-14T19:01:22Z</time>
      </trkpt>
      <trkpt lat="42.7556200" lon="-7.2439740">
        <ele>659.3</ele>
        <time>2020-04-14T19:01:24Z</time>
      </trkpt>
      <trkpt lat="42.7554890" lon="-7.2440930">
        <ele>663.9</ele>
        <time>2020-04-14T19:01:26Z</time>
      </trkpt>
      <trkpt lat="42.7554060" lon="-7.2441500">
        <ele>665.5</ele>
        <time>2020-04-14T19:01:28Z</time>
      </trkpt>
      <trkpt lat="42.7552940" lon="-7.2442280">
        <ele>667.4</ele>
        <time>2020-04-14T19:01:30Z</time>
      </trkpt>
      <trkpt lat="42.7552610" lon="-7.2442510">
        <ele>668.0</ele>
        <time>2020-04-14T19:01:32Z</time>
      </trkpt>
      <trkpt lat="42.7552400" lon="-7.2442650">
        <ele>668.4</ele>
        <time>2020-04-14T19:01:34Z</time>
      </trkpt>
      <trkpt lat="42.7552250" lon="-7.2442760">
        <ele>668.6</ele>
        <time>2020-04-14T19:01:36Z</time>
      </trkpt>
      <trkpt lat="42.7552090" lon="-7.2442870">
        <ele>668.9</ele>
        <time>2020-04-14T19:01:38Z</time>
      </trkpt>
      <trkpt lat="42.7551920" lon="-7.2442980">
        <ele>669.2</ele>
        <time>2020-04-14T19:01:40Z</time>
      </trkpt>
      <trkpt lat="42.7551300" lon="-7.2443370">
        <ele>670.3</ele>
        <time>2020-04-14T19:01:42Z</time>
      </trkpt>
      <trkpt lat="42.7551120" lon="-7.2443450">
        <ele>670.6</ele>
        <time>2020-04-14T19:01:44Z</time>
      </trkpt>
      <trkpt lat="42.7550950" lon="-7.2443520">
        <ele>670.8</ele>
        <time>2020-04-14T19:01:46Z</time>
      </trkpt>
      <trkpt lat="42.7550770" lon="-7.2443600">
        <ele>671.1</ele>
        <time>2020-04-14T19:01:48Z</time>
      </trkpt>
      <trkpt lat="42.7550610" lon="-7.2443660">
        <ele>671.4</ele>
        <time>2020-04-14T19:01:50Z</time>
      </trkpt>
      <trkpt lat="42.7550440" lon="-7.2443740">
        <ele>671.7</ele>
        <time>2020-04-14T19:01:52Z</time>
      </trkpt>
      <trkpt lat="42.7550260" lon="-7.2443810">
        <ele>672.0</ele>
        <time>2020-04-14T19:01:54Z</time>
      </trkpt>
      <trkpt lat="42.7549680" lon="-7.2444040">
        <ele>672.9</ele>
        <time>2020-04-14T19:01:56Z</time>
      </trkpt>
      <trkpt lat="42.7549500" lon="-7.2444090">
        <ele>673.2</ele>
        <time>2020-04-14T19:01:58Z</time>
      </trkpt>
      <trkpt lat="42.7549320" lon="-7.2444140">
        <ele>673.5</ele>
        <time>2020-04-14T19:02:00Z</time>
      </trkpt>
      <trkpt lat="42.7549140" lon="-7.2444190">
        <ele>673.8</ele>
        <time>2020-04-14T19:02:02Z</time>
      </trkpt>
      <trkpt lat="42.7548960" lon="-7.2444250">
        <ele>674.1</ele>
        <time>2020-04-14T19:02:04Z</time>
      </trkpt>
      <trkpt lat="42.7548780" lon="-7.2444300">
        <ele>674.4</ele>
        <time>2020-04-14T19:02:06Z</time>
      </trkpt>
      <trkpt lat="42.7548160" lon="-7.2444450">
        <ele>675.5</ele>
        <time>2020-04-14T19:02:08Z</time>
      </trkpt>
      <trkpt lat="42.7547780" lon="-7.2444530">
        <ele>676.1</ele>
        <time>2020-04-14T19:02:10Z</time>
      </trkpt>
      <trkpt lat="42.7546910" lon="-7.2444660">
        <ele>677.6</ele>
        <time>2020-04-14T19:02:12Z</time>
      </trkpt>
      <trkpt lat="42.7546130" lon="-7.2444700">
        <ele>679.0</ele>
        <time>2020-04-14T19:02:14Z</time>
      </trkpt>
      <trkpt lat="42.7544770" lon="-7.2444690">
        <ele>678.5</ele>
        <time>2020-04-14T19:02:16Z</time>
      </trkpt>
      <trkpt lat="42.7543380" lon="-7.2444470">
        <ele>675.6</ele>
        <time>2020-04-14T19:02:18Z</time>
      </trkpt>
      <trkpt lat="42.7541850" lon="-7.2444090">
        <ele>672.2</ele>
        <time>2020-04-14T19:02:20Z</time>
      </trkpt>
      <trkpt lat="42.7539960" lon="-7.2443560">
        <ele>671.1</ele>
        <time>2020-04-14T19:02:22Z</time>
      </trkpt>
      <trkpt lat="42.7538240" lon="-7.2443090">
        <ele>669.8</ele>
        <time>2020-04-14T19:02:24Z</time>
      </trkpt>
      <trkpt lat="42.7536750" lon="-7.2442700">
        <ele>667.5</ele>
        <time>2020-04-14T19:02:26Z</time>
      </trkpt>
      <trkpt lat="42.7533840" lon="-7.2441950">
        <ele>663.8</ele>
        <time>2020-04-14T19:02:28Z</time>
      </trkpt>
      <trkpt lat="42.7531670" lon="-7.2441910">
        <ele>661.2</ele>
        <time>2020-04-14T19:02:30Z</time>
      </trkpt>
      <trkpt lat="42.7529150" lon="-7.2442800">
        <ele>660.3</ele>
        <time>2020-04-14T19:02:32Z</time>
      </trkpt>
      <trkpt lat="42.7527040" lon="-7.2445000">
        <ele>663.8</ele>
        <time>2020-04-14T19:02:34Z</time>
      </trkpt>
      <trkpt lat="42.7525960" lon="-7.2447450">
        <ele>666.6</ele>
        <time>2020-04-14T19:02:36Z</time>
      </trkpt>
      <trkpt lat="42.7525450" lon="-7.2449790">
        <ele>667.9</ele>
        <time>2020-04-14T19:02:38Z</time>
      </trkpt>
      <trkpt lat="42.7525230" lon="-7.2451660">
        <ele>668.8</ele>
        <time>2020-04-14T19:02:40Z</time>
      </trkpt>
      <trkpt lat="42.7525120" lon="-7.2452820">
        <ele>669.4</ele>
        <time>2020-04-14T19:02:42Z</time>
      </trkpt>
      <trkpt lat="42.7524950" lon="-7.2454880">
        <ele>670.6</ele>
        <time>2020-04-14T19:02:44Z</time>
      </trkpt>
      <trkpt lat="42.7524900" lon="-7.2455900">
        <ele>671.1</ele>
        <time>2020-04-14T19:02:46Z</time>
      </trkpt>
      <trkpt lat="42.7524840" lon="-7.2457060">
        <ele>671.8</ele>
        <time>2020-04-14T19:02:48Z</time>
      </trkpt>
      <trkpt lat="42.7524770" lon="-7.2458290">
        <ele>672.3</ele>
        <time>2020-04-14T19:02:50Z</time>
      </trkpt>
      <trkpt lat="42.7524700" lon="-7.2459580">
        <ele>672.8</ele>
        <time>2020-04-14T19:02:52Z</time>
      </trkpt>
      <trkpt lat="42.7524620" lon="-7.2463100">
        <ele>673.7</ele>
        <time>2020-04-14T19:02:54Z</time>
      </trkpt>
      <trkpt lat="42.7524740" lon="-7.2464890">
        <ele>674.3</ele>
        <time>2020-04-14T19:02:56Z</time>
      </trkpt>
      <trkpt lat="42.7525020" lon="-7.2466710">
        <ele>674.9</ele>
        <time>2020-04-14T19:02:58Z</time>
      </trkpt>
      <trkpt lat="42.7525450" lon="-7.2468380">
        <ele>675.4</ele>
        <time>2020-04-14T19:03:00Z</time>
      </trkpt>
      <trkpt lat="42.7526190" lon="-7.2470440">
        <ele>675.7</ele>
        <time>2020-04-14T19:03:02Z</time>
      </trkpt>
      <trkpt lat="42.7526810" lon="-7.2471600">
        <ele>676.0</ele>
        <time>2020-04-14T19:03:04Z</time>
      </trkpt>
      <trkpt lat="42.7527820" lon="-7.2473370">
        <ele>676.5</ele>
        <time>2020-04-14T19:03:06Z</time>
      </trkpt>
      <trkpt lat="42.7528460" lon="-7.2474420">
        <ele>676.9</ele>
        <time>2020-04-14T19:03:08Z</time>
      </trkpt>
      <trkpt lat="42.7529080" lon="-7.2475450">
        <ele>677.4</ele>
        <time>2020-04-14T19:03:10Z</time>
      </trkpt>
      <trkpt lat="42.7529690" lon="-7.2476470">
        <ele>677.8</ele>
        <time>2020-04-14T19:03:12Z</time>
      </trkpt>
      <trkpt lat="42.7531310" lon="-7.2479130">
        <ele>678.6</ele>
        <time>2020-04-14T19:03:14Z</time>
      </trkpt>
      <trkpt lat="42.7531900" lon="-7.2480110">
        <ele>678.9</ele>
        <time>2020-04-14T19:03:16Z</time>
      </trkpt>
      <trkpt lat="42.7532930" lon="-7.2481820">
        <ele>679.4</ele>
        <time>2020-04-14T19:03:18Z</time>
      </trkpt>
      <trkpt lat="42.7533430" lon="-7.2482870">
        <ele>679.7</ele>
        <time>2020-04-14T19:03:20Z</time>
      </trkpt>
      <trkpt lat="42.7534210" lon="-7.2484540">
        <ele>680.2</ele>
        <time>2020-04-14T19:03:22Z</time>
      </trkpt>
      <trkpt lat="42.7534870" lon="-7.2486110">
        <ele>680.6</ele>
        <time>2020-04-14T19:03:24Z</time>
      </trkpt>
      <trkpt lat="42.7535220" lon="-7.2487250">
        <ele>680.8</ele>
        <time>2020-04-14T19:03:26Z</time>
      </trkpt>
      <trkpt lat="42.7535570" lon="-7.2488360">
        <ele>681.0</ele>
        <time>2020-04-14T19:03:28Z</time>
      </trkpt>
      <trkpt lat="42.7536210" lon="-7.2490550">
        <ele>681.4</ele>
        <time>2020-04-14T19:03:30Z</time>
      </trkpt>
      <trkpt lat="42.7536620" lon="-7.2492230">
        <ele>681.6</ele>
        <time>2020-04-14T19:03:32Z</time>
      </trkpt>
      <trkpt lat="42.7536860" lon="-7.2493400">
        <ele>681.8</ele>
        <time>2020-04-14T19:03:34Z</time>
      </trkpt>
      <trkpt lat="42.7537160" lon="-7.2495190">
        <ele>682.0</ele>
        <time>2020-04-14T19:03:36Z</time>
      </trkpt>
      <trkpt lat="42.7537390" lon="-7.2497230">
        <ele>682.2</ele>
        <time>2020-04-14T19:03:38Z</time>
      </trkpt>
      <trkpt lat="42.7537510" lon="-7.2498590">
        <ele>682.3</ele>
        <time>2020-04-14T19:03:40Z</time>
      </trkpt>
      <trkpt lat="42.7537640" lon="-7.2499980">
        <ele>682.3</ele>
        <time>2020-04-14T19:03:42Z</time>
      </trkpt>
      <trkpt lat="42.7537770" lon="-7.2501440">
        <ele>682.4</ele>
        <time>2020-04-14T19:03:44Z</time>
      </trkpt>
      <trkpt lat="42.7537900" lon="-7.2502920">
        <ele>682.4</ele>
        <time>2020-04-14T19:03:46Z</time>
      </trkpt>
      <trkpt lat="42.7538230" lon="-7.2506960">
        <ele>682.4</ele>
        <time>2020-04-14T19:03:48Z</time>
      </trkpt>
      <trkpt lat="42.7538350" lon="-7.2508510">
        <ele>682.5</ele>
        <time>2020-04-14T19:03:50Z</time>
      </trkpt>
      <trkpt lat="42.7538460" lon="-7.2510090">
        <ele>682.6</ele>
        <time>2020-04-14T19:03:52Z</time>
      </trkpt>
      <trkpt lat="42.7538580" lon="-7.2511680">
        <ele>682.6</ele>
        <time>2020-04-14T19:03:54Z</time>
      </trkpt>
      <trkpt lat="42.7538700" lon="-7.2513290">
        <ele>682.6</ele>
        <time>2020-04-14T19:03:56Z</time>
      </trkpt>
      <trkpt lat="42.7538950" lon="-7.2517450">
        <ele>682.8</ele>
        <time>2020-04-14T19:03:58Z</time>
      </trkpt>
      <trkpt lat="42.7538840" lon="-7.2520080">
        <ele>682.8</ele>
        <time>2020-04-14T19:04:00Z</time>
      </trkpt>
      <trkpt lat="42.7538610" lon="-7.2522090">
        <ele>682.8</ele>
        <time>2020-04-14T19:04:02Z</time>
      </trkpt>
      <trkpt lat="42.7538200" lon="-7.2524050">
        <ele>682.9</ele>
        <time>2020-04-14T19:04:04Z</time>
      </trkpt>
      <trkpt lat="42.7537710" lon="-7.2526030">
        <ele>683.0</ele>
        <time>2020-04-14T19:04:06Z</time>
      </trkpt>
      <trkpt lat="42.7537310" lon="-7.2527290">
        <ele>683.0</ele>
        <time>2020-04-14T19:04:08Z</time>
      </trkpt>
      <trkpt lat="42.7536700" lon="-7.2529130">
        <ele>683.0</ele>
        <time>2020-04-14T19:04:10Z</time>
      </trkpt>
      <trkpt lat="42.7536070" lon="-7.2530620">
        <ele>683.0</ele>
        <time>2020-04-14T19:04:12Z</time>
      </trkpt>
      <trkpt lat="42.7535490" lon="-7.2531960">
        <ele>683.1</ele>
        <time>2020-04-14T19:04:14Z</time>
      </trkpt>
      <trkpt lat="42.7534970" lon="-7.2533040">
        <ele>683.2</ele>
        <time>2020-04-14T19:04:16Z</time>
      </trkpt>
      <trkpt lat="42.7533960" lon="-7.2534780">
        <ele>683.1</ele>
        <time>2020-04-14T19:04:18Z</time>
      </trkpt>
      <trkpt lat="42.7532820" lon="-7.2536510">
        <ele>682.6</ele>
        <time>2020-04-14T19:04:20Z</time>
      </trkpt>
      <trkpt lat="42.7531580" lon="-7.2538130">
        <ele>682.1</ele>
        <time>2020-04-14T19:04:22Z</time>
      </trkpt>
      <trkpt lat="42.7530310" lon="-7.2539570">
        <ele>681.7</ele>
        <time>2020-04-14T19:04:24Z</time>
      </trkpt>
      <trkpt lat="42.7528910" lon="-7.2540880">
        <ele>681.2</ele>
        <time>2020-04-14T19:04:26Z</time>
      </trkpt>
      <trkpt lat="42.7527770" lon="-7.2541890">
        <ele>680.9</ele>
        <time>2020-04-14T19:04:28Z</time>
      </trkpt>
      <trkpt lat="42.7526540" lon="-7.2542970">
        <ele>680.6</ele>
        <time>2020-04-14T19:04:30Z</time>
      </trkpt>
      <trkpt lat="42.7525250" lon="-7.2544110">
        <ele>680.2</ele>
        <time>2020-04-14T19:04:32Z</time>
      </trkpt>
      <trkpt lat="42.7522490" lon="-7.2546800">
        <ele>678.9</ele>
        <time>2020-04-14T19:04:34Z</time>
      </trkpt>
      <trkpt lat="42.7520660" lon="-7.2549410">
        <ele>677.7</ele>
        <time>2020-04-14T19:04:36Z</time>
      </trkpt>
      <trkpt lat="42.7519300" lon="-7.2551930">
        <ele>676.4</ele>
        <time>2020-04-14T19:04:38Z</time>
      </trkpt>
      <trkpt lat="42.7518190" lon="-7.2554280">
        <ele>674.9</ele>
        <time>2020-04-14T19:04:40Z</time>
      </trkpt>
      <trkpt lat="42.7516490" lon="-7.2557890">
        <ele>672.8</ele>
        <time>2020-04-14T19:04:42Z</time>
      </trkpt>
      <trkpt lat="42.7514920" lon="-7.2561340">
        <ele>670.7</ele>
        <time>2020-04-14T19:04:44Z</time>
      </trkpt>
      <trkpt lat="42.7513690" lon="-7.2565240">
        <ele>668.3</ele>
        <time>2020-04-14T19:04:46Z</time>
      </trkpt>
      <trkpt lat="42.7513370" lon="-7.2569170">
        <ele>666.0</ele>
        <time>2020-04-14T19:04:48Z</time>
      </trkpt>
      <trkpt lat="42.7513700" lon="-7.2573520">
        <ele>663.5</ele>
        <time>2020-04-14T19:04:50Z</time>
      </trkpt>
      <trkpt lat="42.7514750" lon="-7.2577770">
        <ele>661.2</ele>
        <time>2020-04-14T19:04:52Z</time>
      </trkpt>
      <trkpt lat="42.7515650" lon="-7.2580760">
        <ele>659.6</ele>
        <time>2020-04-14T19:04:54Z</time>
      </trkpt>
      <trkpt lat="42.7516540" lon="-7.2583750">
        <ele>658.2</ele>
        <time>2020-04-14T19:04:56Z</time>
      </trkpt>
      <trkpt lat="42.7517910" lon="-7.2589960">
        <ele>655.2</ele>
        <time>2020-04-14T19:04:58Z</time>
      </trkpt>
      <trkpt lat="42.7517870" lon="-7.2594630">
        <ele>653.1</ele>
        <time>2020-04-14T19:05:00Z</time>
      </trkpt>
      <trkpt lat="42.7517350" lon="-7.2598860">
        <ele>651.4</ele>
        <time>2020-04-14T19:05:02Z</time>
      </trkpt>
      <trkpt lat="42.7516580" lon="-7.2602830">
        <ele>649.8</ele>
        <time>2020-04-14T19:05:04Z</time>
      </trkpt>
      <trkpt lat="42.7515110" lon="-7.2606020">
        <ele>648.1</ele>
        <time>2020-04-14T19:05:06Z</time>
      </trkpt>
      <trkpt lat="42.7513100" lon="-7.2608860">
        <ele>646.1</ele>
        <time>2020-04-14T19:05:08Z</time>
      </trkpt>
      <trkpt lat="42.7511070" lon="-7.2611300">
        <ele>644.6</ele>
        <time>2020-04-14T19:05:10Z</time>
      </trkpt>
      <trkpt lat="42.7508740" lon="-7.2614000">
        <ele>643.0</ele>
        <time>2020-04-14T19:05:12Z</time>
      </trkpt>
      <trkpt lat="42.7506980" lon="-7.2616800">
        <ele>641.8</ele>
        <time>2020-04-14T19:05:14Z</time>
      </trkpt>
      <trkpt lat="42.7505470" lon="-7.2619890">
        <ele>640.7</ele>
        <time>2020-04-14T19:05:16Z</time>
      </trkpt>
      <trkpt lat="42.7503830" lon="-7.2623560">
        <ele>639.4</ele>
        <time>2020-04-14T19:05:18Z</time>
      </trkpt>
      <trkpt lat="42.7502420" lon="-7.2627070">
        <ele>638.5</ele>
        <time>2020-04-14T19:05:20Z</time>
      </trkpt>
      <trkpt lat="42.7501240" lon="-7.2630550">
        <ele>637.6</ele>
        <time>2020-04-14T19:05:22Z</time>
      </trkpt>
      <trkpt lat="42.7500090" lon="-7.2633940">
        <ele>636.8</ele>
        <time>2020-04-14T19:05:24Z</time>
      </trkpt>
      <trkpt lat="42.7498900" lon="-7.2636690">
        <ele>636.2</ele>
        <time>2020-04-14T19:05:26Z</time>
      </trkpt>
      <trkpt lat="42.7497290" lon="-7.2639840">
        <ele>636.3</ele>
        <time>2020-04-14T19:05:28Z</time>
      </trkpt>
      <trkpt lat="42.7495870" lon="-7.2642440">
        <ele>639.9</ele>
        <time>2020-04-14T19:05:30Z</time>
      </trkpt>
      <trkpt lat="42.7494700" lon="-7.2644410">
        <ele>640.6</ele>
        <time>2020-04-14T19:05:32Z</time>
      </trkpt>
      <trkpt lat="42.7493180" lon="-7.2646460">
        <ele>641.5</ele>
        <time>2020-04-14T19:05:34Z</time>
      </trkpt>
      <trkpt lat="42.7491920" lon="-7.2647700">
        <ele>642.1</ele>
        <time>2020-04-14T19:05:36Z</time>
      </trkpt>
      <trkpt lat="42.7491050" lon="-7.2648460">
        <ele>642.5</ele>
        <time>2020-04-14T19:05:38Z</time>
      </trkpt>
      <trkpt lat="42.7489630" lon="-7.2649680">
        <ele>643.2</ele>
        <time>2020-04-14T19:05:40Z</time>
      </trkpt>
      <trkpt lat="42.7488860" lon="-7.2650290">
        <ele>643.5</ele>
        <time>2020-04-14T19:05:42Z</time>
      </trkpt>
      <trkpt lat="42.7488070" lon="-7.2650910">
        <ele>643.8</ele>
        <time>2020-04-14T19:05:44Z</time>
      </trkpt>
      <trkpt lat="42.7486510" lon="-7.2652100">
        <ele>644.3</ele>
        <time>2020-04-14T19:05:46Z</time>
      </trkpt>
      <trkpt lat="42.7485660" lon="-7.2652710">
        <ele>644.5</ele>
        <time>2020-04-14T19:05:48Z</time>
      </trkpt>
      <trkpt lat="42.7484790" lon="-7.2653330">
        <ele>644.8</ele>
        <time>2020-04-14T19:05:50Z</time>
      </trkpt>
      <trkpt lat="42.7482830" lon="-7.2654740">
        <ele>645.4</ele>
        <time>2020-04-14T19:05:52Z</time>
      </trkpt>
      <trkpt lat="42.7481940" lon="-7.2655380">
        <ele>645.7</ele>
        <time>2020-04-14T19:05:54Z</time>
      </trkpt>
      <trkpt lat="42.7480630" lon="-7.2656360">
        <ele>645.3</ele>
        <time>2020-04-14T19:05:56Z</time>
      </trkpt>
      <trkpt lat="42.7479590" lon="-7.2657150">
        <ele>644.3</ele>
        <time>2020-04-14T19:05:58Z</time>
      </trkpt>
      <trkpt lat="42.7477810" lon="-7.2658680">
        <ele>642.7</ele>
        <time>2020-04-14T19:06:00Z</time>
      </trkpt>
      <trkpt lat="42.7476090" lon="-7.2660360">
        <ele>641.5</ele>
        <time>2020-04-14T19:06:02Z</time>
      </trkpt>
      <trkpt lat="42.7474490" lon="-7.2662070">
        <ele>640.3</ele>
        <time>2020-04-14T19:06:04Z</time>
      </trkpt>
      <trkpt lat="42.7473280" lon="-7.2663420">
        <ele>639.4</ele>
        <time>2020-04-14T19:06:06Z</time>
      </trkpt>
      <trkpt lat="42.7471170" lon="-7.2665840">
        <ele>637.5</ele>
        <time>2020-04-14T19:06:08Z</time>
      </trkpt>
      <trkpt lat="42.7469840" lon="-7.2667400">
        <ele>636.2</ele>
        <time>2020-04-14T19:06:10Z</time>
      </trkpt>
      <trkpt lat="42.7467580" lon="-7.2669910">
        <ele>634.0</ele>
        <time>2020-04-14T19:06:12Z</time>
      </trkpt>
      <trkpt lat="42.7465110" lon="-7.2672460">
        <ele>631.5</ele>
        <time>2020-04-14T19:06:14Z</time>
      </trkpt>
      <trkpt lat="42.7463480" lon="-7.2673980">
        <ele>629.6</ele>
        <time>2020-04-14T19:06:16Z</time>
      </trkpt>
      <trkpt lat="42.7460640" lon="-7.2676720">
        <ele>626.1</ele>
        <time>2020-04-14T19:06:18Z</time>
      </trkpt>
      <trkpt lat="42.7458740" lon="-7.2679490">
        <ele>623.0</ele>
        <time>2020-04-14T19:06:20Z</time>
      </trkpt>
      <trkpt lat="42.7457360" lon="-7.2683550">
        <ele>619.2</ele>
        <time>2020-04-14T19:06:22Z</time>
      </trkpt>
      <trkpt lat="42.7457360" lon="-7.2687720">
        <ele>617.5</ele>
        <time>2020-04-14T19:06:24Z</time>
      </trkpt>
      <trkpt lat="42.7457630" lon="-7.2690860">
        <ele>616.6</ele>
        <time>2020-04-14T19:06:26Z</time>
      </trkpt>
      <trkpt lat="42.7458020" lon="-7.2696220">
        <ele>614.8</ele>
        <time>2020-04-14T19:06:28Z</time>
      </trkpt>
      <trkpt lat="42.7457740" lon="-7.2700180">
        <ele>614.2</ele>
        <time>2020-04-14T19:06:30Z</time>
      </trkpt>
      <trkpt lat="42.7456720" lon="-7.2703880">
        <ele>614.0</ele>
        <time>2020-04-14T19:06:32Z</time>
      </trkpt>
      <trkpt lat="42.7455140" lon="-7.2706850">
        <ele>613.9</ele>
        <time>2020-04-14T19:06:34Z</time>
      </trkpt>
      <trkpt lat="42.7453430" lon="-7.2708550">
        <ele>614.2</ele>
        <time>2020-04-14T19:06:36Z</time>
      </trkpt>
      <trkpt lat="42.7451380" lon="-7.2709970">
        <ele>614.5</ele>
        <time>2020-04-14T19:06:38Z</time>
      </trkpt>
      <trkpt lat="42.7449180" lon="-7.2710880">
        <ele>614.4</ele>
        <time>2020-04-14T19:06:40Z</time>
      </trkpt>
      <trkpt lat="42.7447740" lon="-7.2711200">
        <ele>614.6</ele>
        <time>2020-04-14T19:06:42Z</time>
      </trkpt>
      <trkpt lat="42.7445660" lon="-7.2711730">
        <ele>615.0</ele>
        <time>2020-04-14T19:06:44Z</time>
      </trkpt>
      <trkpt lat="42.7443730" lon="-7.2712470">
        <ele>615.4</ele>
        <time>2020-04-14T19:06:46Z</time>
      </trkpt>
      <trkpt lat="42.7442160" lon="-7.2713680">
        <ele>615.6</ele>
        <time>2020-04-14T19:06:48Z</time>
      </trkpt>
      <trkpt lat="42.7440630" lon="-7.2715360">
        <ele>615.6</ele>
        <time>2020-04-14T19:06:50Z</time>
      </trkpt>
      <trkpt lat="42.7439470" lon="-7.2717380">
        <ele>615.4</ele>
        <time>2020-04-14T19:06:52Z</time>
      </trkpt>
      <trkpt lat="42.7438850" lon="-7.2719450">
        <ele>615.1</ele>
        <time>2020-04-14T19:06:54Z</time>
      </trkpt>
      <trkpt lat="42.7438050" lon="-7.2722320">
        <ele>614.3</ele>
        <time>2020-04-14T19:06:56Z</time>
      </trkpt>
      <trkpt lat="42.7437130" lon="-7.2724670">
        <ele>613.5</ele>
        <time>2020-04-14T19:06:58Z</time>
      </trkpt>
      <trkpt lat="42.7435670" lon="-7.2726920">
        <ele>612.4</ele>
        <time>2020-04-14T19:07:00Z</time>
      </trkpt>
      <trkpt lat="42.7433470" lon="-7.2728560">
        <ele>610.8</ele>
        <time>2020-04-14T19:07:02Z</time>
      </trkpt>
      <trkpt lat="42.7431200" lon="-7.2728800">
        <ele>609.1</ele>
        <time>2020-04-14T19:07:04Z</time>
      </trkpt>
      <trkpt lat="42.7428770" lon="-7.2728770">
        <ele>608.5</ele>
        <time>2020-04-14T19:07:06Z</time>
      </trkpt>
      <trkpt lat="42.7426210" lon="-7.2728880">
        <ele>607.7</ele>
        <time>2020-04-14T19:07:08Z</time>
      </trkpt>
      <trkpt lat="42.7423490" lon="-7.2729410">
        <ele>606.7</ele>
        <time>2020-04-14T19:07:10Z</time>
      </trkpt>
      <trkpt lat="42.7421080" lon="-7.2730170">
        <ele>605.9</ele>
        <time>2020-04-14T19:07:12Z</time>
      </trkpt>
      <trkpt lat="42.7419390" lon="-7.2730810">
        <ele>605.5</ele>
        <time>2020-04-14T19:07:14Z</time>
      </trkpt>
      <trkpt lat="42.7416650" lon="-7.2731440">
        <ele>605.7</ele>
        <time>2020-04-14T19:07:16Z</time>
      </trkpt>
      <trkpt lat="42.7414730" lon="-7.2730750">
        <ele>606.7</ele>
        <time>2020-04-14T19:07:18Z</time>
      </trkpt>
      <trkpt lat="42.7413120" lon="-7.2729330">
        <ele>607.7</ele>
        <time>2020-04-14T19:07:20Z</time>
      </trkpt>
      <trkpt lat="42.7411910" lon="-7.2726910">
        <ele>609.0</ele>
        <time>2020-04-14T19:07:22Z</time>
      </trkpt>
      <trkpt lat="42.7411390" lon="-7.2725240">
        <ele>609.8</ele>
        <time>2020-04-14T19:07:24Z</time>
      </trkpt>
      <trkpt lat="42.7410670" lon="-7.2722770">
        <ele>609.4</ele>
        <time>2020-04-14T19:07:26Z</time>
      </trkpt>
      <trkpt lat="42.7409740" lon="-7.2720480">
        <ele>607.6</ele>
        <time>2020-04-14T19:07:28Z</time>
      </trkpt>
      <trkpt lat="42.7408470" lon="-7.2718850">
        <ele>606.0</ele>
        <time>2020-04-14T19:07:30Z</time>
      </trkpt>
      <trkpt lat="42.7407020" lon="-7.2717800">
        <ele>604.6</ele>
        <time>2020-04-14T19:07:32Z</time>
      </trkpt>
      <trkpt lat="42.7405140" lon="-7.2717440">
        <ele>603.1</ele>
        <time>2020-04-14T19:07:34Z</time>
      </trkpt>
      <trkpt lat="42.7403520" lon="-7.2717760">
        <ele>602.6</ele>
        <time>2020-04-14T19:07:36Z</time>
      </trkpt>
      <trkpt lat="42.7401570" lon="-7.2718620">
        <ele>602.8</ele>
        <time>2020-04-14T19:07:38Z</time>
      </trkpt>
      <trkpt lat="42.7399790" lon="-7.2719510">
        <ele>603.0</ele>
        <time>2020-04-14T19:07:40Z</time>
      </trkpt>
      <trkpt lat="42.7397890" lon="-7.2720390">
        <ele>603.3</ele>
        <time>2020-04-14T19:07:42Z</time>
      </trkpt>
      <trkpt lat="42.7396620" lon="-7.2720950">
        <ele>603.7</ele>
        <time>2020-04-14T19:07:44Z</time>
      </trkpt>
      <trkpt lat="42.7395460" lon="-7.2721450">
        <ele>604.2</ele>
        <time>2020-04-14T19:07:46Z</time>
      </trkpt>
      <trkpt lat="42.7393200" lon="-7.2722600">
        <ele>605.3</ele>
        <time>2020-04-14T19:07:48Z</time>
      </trkpt>
      <trkpt lat="42.7391740" lon="-7.2723600">
        <ele>605.8</ele>
        <time>2020-04-14T19:07:50Z</time>
      </trkpt>
      <trkpt lat="42.7391020" lon="-7.2724370">
        <ele>606.1</ele>
        <time>2020-04-14T19:07:52Z</time>
      </trkpt>
      <trkpt lat="42.7389950" lon="-7.2725680">
        <ele>606.7</ele>
        <time>2020-04-14T19:07:54Z</time>
      </trkpt>
      <trkpt lat="42.7389520" lon="-7.2726610">
        <ele>607.0</ele>
        <time>2020-04-14T19:07:56Z</time>
      </trkpt>
      <trkpt lat="42.7389110" lon="-7.2727490">
        <ele>607.4</ele>
        <time>2020-04-14T19:07:58Z</time>
      </trkpt>
      <trkpt lat="42.7388250" lon="-7.2729300">
        <ele>608.1</ele>
        <time>2020-04-14T19:08:00Z</time>
      </trkpt>
      <trkpt lat="42.7387850" lon="-7.2730090">
        <ele>608.3</ele>
        <time>2020-04-14T19:08:02Z</time>
      </trkpt>
      <trkpt lat="42.7387450" lon="-7.2730870">
        <ele>608.6</ele>
        <time>2020-04-14T19:08:04Z</time>
      </trkpt>
      <trkpt lat="42.7387070" lon="-7.2731630">
        <ele>608.8</ele>
        <time>2020-04-14T19:08:06Z</time>
      </trkpt>
      <trkpt lat="42.7386290" lon="-7.2733490">
        <ele>609.0</ele>
        <time>2020-04-14T19:08:08Z</time>
      </trkpt>
      <trkpt lat="42.7386040" lon="-7.2734300">
        <ele>609.0</ele>
        <time>2020-04-14T19:08:10Z</time>
      </trkpt>
      <trkpt lat="42.7385580" lon="-7.2735910">
        <ele>609.1</ele>
        <time>2020-04-14T19:08:12Z</time>
      </trkpt>
      <trkpt lat="42.7385540" lon="-7.2736890">
        <ele>609.2</ele>
        <time>2020-04-14T19:08:14Z</time>
      </trkpt>
      <trkpt lat="42.7385500" lon="-7.2738090">
        <ele>609.2</ele>
        <time>2020-04-14T19:08:16Z</time>
      </trkpt>
      <trkpt lat="42.7385680" lon="-7.2740410">
        <ele>609.2</ele>
        <time>2020-04-14T19:08:18Z</time>
      </trkpt>
      <trkpt lat="42.7386260" lon="-7.2742600">
        <ele>609.0</ele>
        <time>2020-04-14T19:08:20Z</time>
      </trkpt>
      <trkpt lat="42.7386860" lon="-7.2744080">
        <ele>608.8</ele>
        <time>2020-04-14T19:08:22Z</time>
      </trkpt>
      <trkpt lat="42.7387500" lon="-7.2745650">
        <ele>608.5</ele>
        <time>2020-04-14T19:08:24Z</time>
      </trkpt>
      <trkpt lat="42.7388170" lon="-7.2747310">
        <ele>608.1</ele>
        <time>2020-04-14T19:08:26Z</time>
      </trkpt>
      <trkpt lat="42.7389580" lon="-7.2751070">
        <ele>607.0</ele>
        <time>2020-04-14T19:08:28Z</time>
      </trkpt>
      <trkpt lat="42.7390150" lon="-7.2752830">
        <ele>606.6</ele>
        <time>2020-04-14T19:08:30Z</time>
      </trkpt>
      <trkpt lat="42.7391100" lon="-7.2755990">
        <ele>606.0</ele>
        <time>2020-04-14T19:08:32Z</time>
      </trkpt>
      <trkpt lat="42.7391500" lon="-7.2757740">
        <ele>605.8</ele>
        <time>2020-04-14T19:08:34Z</time>
      </trkpt>
      <trkpt lat="42.7391880" lon="-7.2759430">
        <ele>605.6</ele>
        <time>2020-04-14T19:08:36Z</time>
      </trkpt>
      <trkpt lat="42.7392260" lon="-7.2761090">
        <ele>605.5</ele>
        <time>2020-04-14T19:08:38Z</time>
      </trkpt>
      <trkpt lat="42.7393200" lon="-7.2765190">
        <ele>605.2</ele>
        <time>2020-04-14T19:08:40Z</time>
      </trkpt>
      <trkpt lat="42.7393670" lon="-7.2767120">
        <ele>605.3</ele>
        <time>2020-04-14T19:08:42Z</time>
      </trkpt>
      <trkpt lat="42.7394070" lon="-7.2768710">
        <ele>605.4</ele>
        <time>2020-04-14T19:08:44Z</time>
      </trkpt>
      <trkpt lat="42.7394480" lon="-7.2770320">
        <ele>605.4</ele>
        <time>2020-04-14T19:08:46Z</time>
      </trkpt>
      <trkpt lat="42.7395440" lon="-7.2774040">
        <ele>605.5</ele>
        <time>2020-04-14T19:08:48Z</time>
      </trkpt>
      <trkpt lat="42.7396000" lon="-7.2775580">
        <ele>605.5</ele>
        <time>2020-04-14T19:08:50Z</time>
      </trkpt>
      <trkpt lat="42.7396940" lon="-7.2778290">
        <ele>605.4</ele>
        <time>2020-04-14T19:08:52Z</time>
      </trkpt>
      <trkpt lat="42.7397210" lon="-7.2779990">
        <ele>605.3</ele>
        <time>2020-04-14T19:08:54Z</time>
      </trkpt>
      <trkpt lat="42.7397440" lon="-7.2782560">
        <ele>604.9</ele>
        <time>2020-04-14T19:08:56Z</time>
      </trkpt>
      <trkpt lat="42.7397540" lon="-7.2784540">
        <ele>604.6</ele>
        <time>2020-04-14T19:08:58Z</time>
      </trkpt>
      <trkpt lat="42.7397890" lon="-7.2788340">
        <ele>603.9</ele>
        <time>2020-04-14T19:09:00Z</time>
      </trkpt>
      <trkpt lat="42.7398660" lon="-7.2791090">
        <ele>603.4</ele>
        <time>2020-04-14T19:09:02Z</time>
      </trkpt>
      <trkpt lat="42.7399720" lon="-7.2794340">
        <ele>602.4</ele>
        <time>2020-04-14T19:09:04Z</time>
      </trkpt>
      <trkpt lat="42.7400380" lon="-7.2797760">
        <ele>601.0</ele>
        <time>2020-04-14T19:09:06Z</time>
      </trkpt>
      <trkpt lat="42.7400520" lon="-7.2801040">
        <ele>599.6</ele>
        <time>2020-04-14T19:09:08Z</time>
      </trkpt>
      <trkpt lat="42.7400440" lon="-7.2803710">
        <ele>598.4</ele>
        <time>2020-04-14T19:09:10Z</time>
      </trkpt>
      <trkpt lat="42.7400360" lon="-7.2807960">
        <ele>596.3</ele>
        <time>2020-04-14T19:09:12Z</time>
      </trkpt>
      <trkpt lat="42.7400480" lon="-7.2811480">
        <ele>594.4</ele>
        <time>2020-04-14T19:09:14Z</time>
      </trkpt>
      <trkpt lat="42.7400940" lon="-7.2814630">
        <ele>592.6</ele>
        <time>2020-04-14T19:09:16Z</time>
      </trkpt>
      <trkpt lat="42.7401690" lon="-7.2818010">
        <ele>591.5</ele>
        <time>2020-04-14T19:09:18Z</time>
      </trkpt>
      <trkpt lat="42.7402290" lon="-7.2820540">
        <ele>591.0</ele>
        <time>2020-04-14T19:09:20Z</time>
      </trkpt>
      <trkpt lat="42.7402800" lon="-7.2822730">
        <ele>591.0</ele>
        <time>2020-04-14T19:09:22Z</time>
      </trkpt>
      <trkpt lat="42.7403250" lon="-7.2824630">
        <ele>591.0</ele>
        <time>2020-04-14T19:09:24Z</time>
      </trkpt>
      <trkpt lat="42.7403700" lon="-7.2826520">
        <ele>591.3</ele>
        <time>2020-04-14T19:09:26Z</time>
      </trkpt>
      <trkpt lat="42.7404630" lon="-7.2830480">
        <ele>591.9</ele>
        <time>2020-04-14T19:09:28Z</time>
      </trkpt>
      <trkpt lat="42.7405080" lon="-7.2832360">
        <ele>592.0</ele>
        <time>2020-04-14T19:09:30Z</time>
      </trkpt>
      <trkpt lat="42.7405520" lon="-7.2834240">
        <ele>592.2</ele>
        <time>2020-04-14T19:09:32Z</time>
      </trkpt>
      <trkpt lat="42.7406300" lon="-7.2838190">
        <ele>592.9</ele>
        <time>2020-04-14T19:09:34Z</time>
      </trkpt>
      <trkpt lat="42.7406550" lon="-7.2839970">
        <ele>593.0</ele>
        <time>2020-04-14T19:09:36Z</time>
      </trkpt>
      <trkpt lat="42.7406790" lon="-7.2841630">
        <ele>593.2</ele>
        <time>2020-04-14T19:09:38Z</time>
      </trkpt>
      <trkpt lat="42.7406970" lon="-7.2845210">
        <ele>593.8</ele>
        <time>2020-04-14T19:09:40Z</time>
      </trkpt>
      <trkpt lat="42.7406790" lon="-7.2846710">
        <ele>594.0</ele>
        <time>2020-04-14T19:09:42Z</time>
      </trkpt>
      <trkpt lat="42.7406620" lon="-7.2848130">
        <ele>594.2</ele>
        <time>2020-04-14T19:09:44Z</time>
      </trkpt>
      <trkpt lat="42.7406450" lon="-7.2849490">
        <ele>594.3</ele>
        <time>2020-04-14T19:09:46Z</time>
      </trkpt>
      <trkpt lat="42.7406300" lon="-7.2850790">
        <ele>594.5</ele>
        <time>2020-04-14T19:09:48Z</time>
      </trkpt>
      <trkpt lat="42.7405740" lon="-7.2854770">
        <ele>595.2</ele>
        <time>2020-04-14T19:09:50Z</time>
      </trkpt>
      <trkpt lat="42.7405450" lon="-7.2856010">
        <ele>595.4</ele>
        <time>2020-04-14T19:09:52Z</time>
      </trkpt>
      <trkpt lat="42.7405140" lon="-7.2857290">
        <ele>595.7</ele>
        <time>2020-04-14T19:09:54Z</time>
      </trkpt>
      <trkpt lat="42.7404820" lon="-7.2858610">
        <ele>595.9</ele>
        <time>2020-04-14T19:09:56Z</time>
      </trkpt>
      <trkpt lat="42.7404110" lon="-7.2861530">
        <ele>596.5</ele>
        <time>2020-04-14T19:09:58Z</time>
      </trkpt>
      <trkpt lat="42.7403780" lon="-7.2862930">
        <ele>596.8</ele>
        <time>2020-04-14T19:10:00Z</time>
      </trkpt>
      <trkpt lat="42.7403440" lon="-7.2864350">
        <ele>597.1</ele>
        <time>2020-04-14T19:10:02Z</time>
      </trkpt>
      <trkpt lat="42.7402610" lon="-7.2867250">
        <ele>597.9</ele>
        <time>2020-04-14T19:10:04Z</time>
      </trkpt>
      <trkpt lat="42.7402160" lon="-7.2868560">
        <ele>598.3</ele>
        <time>2020-04-14T19:10:06Z</time>
      </trkpt>
      <trkpt lat="42.7401710" lon="-7.2869840">
        <ele>598.7</ele>
        <time>2020-04-14T19:10:08Z</time>
      </trkpt>
      <trkpt lat="42.7401280" lon="-7.2871080">
        <ele>599.0</ele>
        <time>2020-04-14T19:10:10Z</time>
      </trkpt>
      <trkpt lat="42.7400860" lon="-7.2872280">
        <ele>599.3</ele>
        <time>2020-04-14T19:10:12Z</time>
      </trkpt>
      <trkpt lat="42.7399620" lon="-7.2876000">
        <ele>600.4</ele>
        <time>2020-04-14T19:10:14Z</time>
      </trkpt>
      <trkpt lat="42.7399320" lon="-7.2877210">
        <ele>600.7</ele>
        <time>2020-04-14T19:10:16Z</time>
      </trkpt>
      <trkpt lat="42.7399050" lon="-7.2879250">
        <ele>601.1</ele>
        <time>2020-04-14T19:10:18Z</time>
      </trkpt>
      <trkpt lat="42.7399110" lon="-7.2880480">
        <ele>601.2</ele>
        <time>2020-04-14T19:10:20Z</time>
      </trkpt>
      <trkpt lat="42.7399250" lon="-7.2882730">
        <ele>601.4</ele>
        <time>2020-04-14T19:10:22Z</time>
      </trkpt>
      <trkpt lat="42.7399410" lon="-7.2883920">
        <ele>601.5</ele>
        <time>2020-04-14T19:10:24Z</time>
      </trkpt>
      <trkpt lat="42.7399560" lon="-7.2885090">
        <ele>601.5</ele>
        <time>2020-04-14T19:10:26Z</time>
      </trkpt>
      <trkpt lat="42.7399790" lon="-7.2887450">
        <ele>601.4</ele>
        <time>2020-04-14T19:10:28Z</time>
      </trkpt>
      <trkpt lat="42.7399760" lon="-7.2888710">
        <ele>601.3</ele>
        <time>2020-04-14T19:10:30Z</time>
      </trkpt>
      <trkpt lat="42.7399660" lon="-7.2891060">
        <ele>601.2</ele>
        <time>2020-04-14T19:10:32Z</time>
      </trkpt>
      <trkpt lat="42.7399490" lon="-7.2892450">
        <ele>601.1</ele>
        <time>2020-04-14T19:10:34Z</time>
      </trkpt>
      <trkpt lat="42.7399090" lon="-7.2894580">
        <ele>600.8</ele>
        <time>2020-04-14T19:10:36Z</time>
      </trkpt>
      <trkpt lat="42.7398720" lon="-7.2896000">
        <ele>600.6</ele>
        <time>2020-04-14T19:10:38Z</time>
      </trkpt>
      <trkpt lat="42.7398340" lon="-7.2897460">
        <ele>600.4</ele>
        <time>2020-04-14T19:10:40Z</time>
      </trkpt>
      <trkpt lat="42.7397570" lon="-7.2900420">
        <ele>600.0</ele>
        <time>2020-04-14T19:10:42Z</time>
      </trkpt>
      <trkpt lat="42.7397060" lon="-7.2902560">
        <ele>599.6</ele>
        <time>2020-04-14T19:10:44Z</time>
      </trkpt>
      <trkpt lat="42.7396690" lon="-7.2904800">
        <ele>599.3</ele>
        <time>2020-04-14T19:10:46Z</time>
      </trkpt>
      <trkpt lat="42.7396470" lon="-7.2907160">
        <ele>599.1</ele>
        <time>2020-04-14T19:10:48Z</time>
      </trkpt>
      <trkpt lat="42.7396340" lon="-7.2909580">
        <ele>598.9</ele>
        <time>2020-04-14T19:10:50Z</time>
      </trkpt>
      <trkpt lat="42.7396120" lon="-7.2912330">
        <ele>598.2</ele>
        <time>2020-04-14T19:10:52Z</time>
      </trkpt>
      <trkpt lat="42.7395510" lon="-7.2915230">
        <ele>597.7</ele>
        <time>2020-04-14T19:10:54Z</time>
      </trkpt>
      <trkpt lat="42.7394650" lon="-7.2917360">
        <ele>597.3</ele>
        <time>2020-04-14T19:10:56Z</time>
      </trkpt>
      <trkpt lat="42.7393570" lon="-7.2919550">
        <ele>596.9</ele>
        <time>2020-04-14T19:10:58Z</time>
      </trkpt>
      <trkpt lat="42.7392810" lon="-7.2921050">
        <ele>596.5</ele>
        <time>2020-04-14T19:11:00Z</time>
      </trkpt>
      <trkpt lat="42.7392080" lon="-7.2922530">
        <ele>596.2</ele>
        <time>2020-04-14T19:11:02Z</time>
      </trkpt>
      <trkpt lat="42.7390600" lon="-7.2925470">
        <ele>595.5</ele>
        <time>2020-04-14T19:11:04Z</time>
      </trkpt>
      <trkpt lat="42.7389870" lon="-7.2926940">
        <ele>595.2</ele>
        <time>2020-04-14T19:11:06Z</time>
      </trkpt>
      <trkpt lat="42.7389120" lon="-7.2928450">
        <ele>594.9</ele>
        <time>2020-04-14T19:11:08Z</time>
      </trkpt>
      <trkpt lat="42.7388350" lon="-7.2930000">
        <ele>594.7</ele>
        <time>2020-04-14T19:11:10Z</time>
      </trkpt>
      <trkpt lat="42.7386540" lon="-7.2933800">
        <ele>594.3</ele>
        <time>2020-04-14T19:11:12Z</time>
      </trkpt>
      <trkpt lat="42.7385910" lon="-7.2936540">
        <ele>594.1</ele>
        <time>2020-04-14T19:11:14Z</time>
      </trkpt>
      <trkpt lat="42.7385950" lon="-7.2938960">
        <ele>594.0</ele>
        <time>2020-04-14T19:11:16Z</time>
      </trkpt>
      <trkpt lat="42.7386450" lon="-7.2941380">
        <ele>593.9</ele>
        <time>2020-04-14T19:11:18Z</time>
      </trkpt>
      <trkpt lat="42.7386940" lon="-7.2943200">
        <ele>593.9</ele>
        <time>2020-04-14T19:11:20Z</time>
      </trkpt>
      <trkpt lat="42.7387410" lon="-7.2944930">
        <ele>593.8</ele>
        <time>2020-04-14T19:11:22Z</time>
      </trkpt>
      <trkpt lat="42.7388200" lon="-7.2948760">
        <ele>594.1</ele>
        <time>2020-04-14T19:11:24Z</time>
      </trkpt>
      <trkpt lat="42.7388250" lon="-7.2951250">
        <ele>594.3</ele>
        <time>2020-04-14T19:11:26Z</time>
      </trkpt>
      <trkpt lat="42.7387930" lon="-7.2953460">
        <ele>594.4</ele>
        <time>2020-04-14T19:11:28Z</time>
      </trkpt>
      <trkpt lat="42.7387300" lon="-7.2955640">
        <ele>594.5</ele>
        <time>2020-04-14T19:11:30Z</time>
      </trkpt>
      <trkpt lat="42.7386710" lon="-7.2957070">
        <ele>594.7</ele>
        <time>2020-04-14T19:11:32Z</time>
      </trkpt>
      <trkpt lat="42.7385720" lon="-7.2959170">
        <ele>594.9</ele>
        <time>2020-04-14T19:11:34Z</time>
      </trkpt>
      <trkpt lat="42.7385060" lon="-7.2960450">
        <ele>595.1</ele>
        <time>2020-04-14T19:11:36Z</time>
      </trkpt>
      <trkpt lat="42.7384420" lon="-7.2961710">
        <ele>595.3</ele>
        <time>2020-04-14T19:11:38Z</time>
      </trkpt>
      <trkpt lat="42.7383120" lon="-7.2964280">
        <ele>595.7</ele>
        <time>2020-04-14T19:11:40Z</time>
      </trkpt>
      <trkpt lat="42.7382510" lon="-7.2965520">
        <ele>596.0</ele>
        <time>2020-04-14T19:11:42Z</time>
      </trkpt>
      <trkpt lat="42.7381390" lon="-7.2967790">
        <ele>596.4</ele>
        <time>2020-04-14T19:11:44Z</time>
      </trkpt>
      <trkpt lat="42.7380790" lon="-7.2968990">
        <ele>596.6</ele>
        <time>2020-04-14T19:11:46Z</time>
      </trkpt>
      <trkpt lat="42.7379660" lon="-7.2971290">
        <ele>597.0</ele>
        <time>2020-04-14T19:11:48Z</time>
      </trkpt>
      <trkpt lat="42.7379050" lon="-7.2972530">
        <ele>597.1</ele>
        <time>2020-04-14T19:11:50Z</time>
      </trkpt>
      <trkpt lat="42.7378390" lon="-7.2973860">
        <ele>597.3</ele>
        <time>2020-04-14T19:11:52Z</time>
      </trkpt>
      <trkpt lat="42.7377150" lon="-7.2976570">
        <ele>597.8</ele>
        <time>2020-04-14T19:11:54Z</time>
      </trkpt>
      <trkpt lat="42.7376580" lon="-7.2978130">
        <ele>597.9</ele>
        <time>2020-04-14T19:11:56Z</time>
      </trkpt>
      <trkpt lat="42.7375830" lon="-7.2980700">
        <ele>598.3</ele>
        <time>2020-04-14T19:11:58Z</time>
      </trkpt>
      <trkpt lat="42.7375280" lon="-7.2983480">
        <ele>598.7</ele>
        <time>2020-04-14T19:12:00Z</time>
      </trkpt>
      <trkpt lat="42.7375000" lon="-7.2985990">
        <ele>598.9</ele>
        <time>2020-04-14T19:12:02Z</time>
      </trkpt>
      <trkpt lat="42.7374950" lon="-7.2987760">
        <ele>599.1</ele>
        <time>2020-04-14T19:12:04Z</time>
      </trkpt>
      <trkpt lat="42.7375000" lon="-7.2990470">
        <ele>599.4</ele>
        <time>2020-04-14T19:12:06Z</time>
      </trkpt>
      <trkpt lat="42.7375190" lon="-7.2992920">
        <ele>599.7</ele>
        <time>2020-04-14T19:12:08Z</time>
      </trkpt>
      <trkpt lat="42.7375410" lon="-7.2994340">
        <ele>599.9</ele>
        <time>2020-04-14T19:12:10Z</time>
      </trkpt>
      <trkpt lat="42.7375840" lon="-7.2996350">
        <ele>600.1</ele>
        <time>2020-04-14T19:12:12Z</time>
      </trkpt>
      <trkpt lat="42.7376200" lon="-7.2997550">
        <ele>600.3</ele>
        <time>2020-04-14T19:12:14Z</time>
      </trkpt>
      <trkpt lat="42.7376840" lon="-7.2999610">
        <ele>600.7</ele>
        <time>2020-04-14T19:12:16Z</time>
      </trkpt>
      <trkpt lat="42.7377240" lon="-7.3000760">
        <ele>600.9</ele>
        <time>2020-04-14T19:12:18Z</time>
      </trkpt>
      <trkpt lat="42.7377660" lon="-7.3001940">
        <ele>601.1</ele>
        <time>2020-04-14T19:12:20Z</time>
      </trkpt>
      <trkpt lat="42.7378080" lon="-7.3003140">
        <ele>601.3</ele>
        <time>2020-04-14T19:12:22Z</time>
      </trkpt>
      <trkpt lat="42.7378500" lon="-7.3004350">
        <ele>601.4</ele>
        <time>2020-04-14T19:12:24Z</time>
      </trkpt>
      <trkpt lat="42.7379730" lon="-7.3007840">
        <ele>601.9</ele>
        <time>2020-04-14T19:12:26Z</time>
      </trkpt>
      <trkpt lat="42.7380170" lon="-7.3009100">
        <ele>602.0</ele>
        <time>2020-04-14T19:12:28Z</time>
      </trkpt>
      <trkpt lat="42.7380610" lon="-7.3010360">
        <ele>602.2</ele>
        <time>2020-04-14T19:12:30Z</time>
      </trkpt>
      <trkpt lat="42.7381070" lon="-7.3011660">
        <ele>602.3</ele>
        <time>2020-04-14T19:12:32Z</time>
      </trkpt>
      <trkpt lat="42.7381520" lon="-7.3012950">
        <ele>602.5</ele>
        <time>2020-04-14T19:12:34Z</time>
      </trkpt>
      <trkpt lat="42.7382770" lon="-7.3016520">
        <ele>603.4</ele>
        <time>2020-04-14T19:12:36Z</time>
      </trkpt>
      <trkpt lat="42.7383210" lon="-7.3017760">
        <ele>603.7</ele>
        <time>2020-04-14T19:12:38Z</time>
      </trkpt>
      <trkpt lat="42.7383630" lon="-7.3018950">
        <ele>604.1</ele>
        <time>2020-04-14T19:12:40Z</time>
      </trkpt>
      <trkpt lat="42.7384030" lon="-7.3020080">
        <ele>604.4</ele>
        <time>2020-04-14T19:12:42Z</time>
      </trkpt>
      <trkpt lat="42.7384410" lon="-7.3021180">
        <ele>604.7</ele>
        <time>2020-04-14T19:12:44Z</time>
      </trkpt>
      <trkpt lat="42.7384780" lon="-7.3022240">
        <ele>605.0</ele>
        <time>2020-04-14T19:12:46Z</time>
      </trkpt>
      <trkpt lat="42.7385940" lon="-7.3025540">
        <ele>606.2</ele>
        <time>2020-04-14T19:12:48Z</time>
      </trkpt>
      <trkpt lat="42.7386300" lon="-7.3026540">
        <ele>606.5</ele>
        <time>2020-04-14T19:12:50Z</time>
      </trkpt>
      <trkpt lat="42.7386640" lon="-7.3027530">
        <ele>606.9</ele>
        <time>2020-04-14T19:12:52Z</time>
      </trkpt>
      <trkpt lat="42.7386980" lon="-7.3028500">
        <ele>607.2</ele>
        <time>2020-04-14T19:12:54Z</time>
      </trkpt>
      <trkpt lat="42.7387320" lon="-7.3029450">
        <ele>607.6</ele>
        <time>2020-04-14T19:12:56Z</time>
      </trkpt>
      <trkpt lat="42.7387650" lon="-7.3030390">
        <ele>607.9</ele>
        <time>2020-04-14T19:12:58Z</time>
      </trkpt>
      <trkpt lat="42.7388730" lon="-7.3033630">
        <ele>609.0</ele>
        <time>2020-04-14T19:13:00Z</time>
      </trkpt>
      <trkpt lat="42.7388970" lon="-7.3034730">
        <ele>609.3</ele>
        <time>2020-04-14T19:13:02Z</time>
      </trkpt>
      <trkpt lat="42.7389230" lon="-7.3035900">
        <ele>609.5</ele>
        <time>2020-04-14T19:13:04Z</time>
      </trkpt>
      <trkpt lat="42.7389730" lon="-7.3038440">
        <ele>609.9</ele>
        <time>2020-04-14T19:13:06Z</time>
      </trkpt>
      <trkpt lat="42.7389830" lon="-7.3039750">
        <ele>610.1</ele>
        <time>2020-04-14T19:13:08Z</time>
      </trkpt>
      <trkpt lat="42.7389970" lon="-7.3042090">
        <ele>610.3</ele>
        <time>2020-04-14T19:13:10Z</time>
      </trkpt>
      <trkpt lat="42.7389930" lon="-7.3043480">
        <ele>610.4</ele>
        <time>2020-04-14T19:13:12Z</time>
      </trkpt>
      <trkpt lat="42.7389820" lon="-7.3045950">
        <ele>610.4</ele>
        <time>2020-04-14T19:13:14Z</time>
      </trkpt>
      <trkpt lat="42.7389610" lon="-7.3047360">
        <ele>610.3</ele>
        <time>2020-04-14T19:13:16Z</time>
      </trkpt>
      <trkpt lat="42.7389230" lon="-7.3049510">
        <ele>610.3</ele>
        <time>2020-04-14T19:13:18Z</time>
      </trkpt>
      <trkpt lat="42.7388900" lon="-7.3050930">
        <ele>610.2</ele>
        <time>2020-04-14T19:13:20Z</time>
      </trkpt>
      <trkpt lat="42.7388170" lon="-7.3053220">
        <ele>610.0</ele>
        <time>2020-04-14T19:13:22Z</time>
      </trkpt>
      <trkpt lat="42.7387320" lon="-7.3055430">
        <ele>609.8</ele>
        <time>2020-04-14T19:13:24Z</time>
      </trkpt>
      <trkpt lat="42.7386700" lon="-7.3056820">
        <ele>609.7</ele>
        <time>2020-04-14T19:13:26Z</time>
      </trkpt>
      <trkpt lat="42.7386090" lon="-7.3058200">
        <ele>609.5</ele>
        <time>2020-04-14T19:13:28Z</time>
      </trkpt>
      <trkpt lat="42.7384810" lon="-7.3061080">
        <ele>609.2</ele>
        <time>2020-04-14T19:13:30Z</time>
      </trkpt>
      <trkpt lat="42.7384170" lon="-7.3062540">
        <ele>609.0</ele>
        <time>2020-04-14T19:13:32Z</time>
      </trkpt>
      <trkpt lat="42.7383490" lon="-7.3064070">
        <ele>608.8</ele>
        <time>2020-04-14T19:13:34Z</time>
      </trkpt>
      <trkpt lat="42.7382240" lon="-7.3067180">
        <ele>608.5</ele>
        <time>2020-04-14T19:13:36Z</time>
      </trkpt>
      <trkpt lat="42.7381600" lon="-7.3069640">
        <ele>608.1</ele>
        <time>2020-04-14T19:13:38Z</time>
      </trkpt>
      <trkpt lat="42.7381110" lon="-7.3072360">
        <ele>607.6</ele>
        <time>2020-04-14T19:13:40Z</time>
      </trkpt>
      <trkpt lat="42.7380980" lon="-7.3074960">
        <ele>607.0</ele>
        <time>2020-04-14T19:13:42Z</time>
      </trkpt>
      <trkpt lat="42.7380980" lon="-7.3077060">
        <ele>606.5</ele>
        <time>2020-04-14T19:13:44Z</time>
      </trkpt>
      <trkpt lat="42.7380970" lon="-7.3079220">
        <ele>605.9</ele>
        <time>2020-04-14T19:13:46Z</time>
      </trkpt>
      <trkpt lat="42.7380970" lon="-7.3083500">
        <ele>604.7</ele>
        <time>2020-04-14T19:13:48Z</time>
      </trkpt>
      <trkpt lat="42.7380920" lon="-7.3086820">
        <ele>603.5</ele>
        <time>2020-04-14T19:13:50Z</time>
      </trkpt>
      <trkpt lat="42.7380710" lon="-7.3090090">
        <ele>602.7</ele>
        <time>2020-04-14T19:13:52Z</time>
      </trkpt>
      <trkpt lat="42.7380290" lon="-7.3092970">
        <ele>602.4</ele>
        <time>2020-04-14T19:13:54Z</time>
      </trkpt>
      <trkpt lat="42.7379690" lon="-7.3095590">
        <ele>601.4</ele>
        <time>2020-04-14T19:13:56Z</time>
      </trkpt>
      <trkpt lat="42.7378430" lon="-7.3099340">
        <ele>599.5</ele>
        <time>2020-04-14T19:13:58Z</time>
      </trkpt>
      <trkpt lat="42.7377030" lon="-7.3102130">
        <ele>597.8</ele>
        <time>2020-04-14T19:14:00Z</time>
      </trkpt>
      <trkpt lat="42.7375790" lon="-7.3104170">
        <ele>596.4</ele>
        <time>2020-04-14T19:14:02Z</time>
      </trkpt>
      <trkpt lat="42.7374480" lon="-7.3106330">
        <ele>594.9</ele>
        <time>2020-04-14T19:14:04Z</time>
      </trkpt>
      <trkpt lat="42.7371820" lon="-7.3110710">
        <ele>592.1</ele>
        <time>2020-04-14T19:14:06Z</time>
      </trkpt>
      <trkpt lat="42.7369940" lon="-7.3113810">
        <ele>587.8</ele>
        <time>2020-04-14T19:14:08Z</time>
      </trkpt>
      <trkpt lat="42.7368220" lon="-7.3116580">
        <ele>585.4</ele>
        <time>2020-04-14T19:14:10Z</time>
      </trkpt>
      <trkpt lat="42.7366350" lon="-7.3119820">
        <ele>585.3</ele>
        <time>2020-04-14T19:14:12Z</time>
      </trkpt>
      <trkpt lat="42.7364420" lon="-7.3123440">
        <ele>585.3</ele>
        <time>2020-04-14T19:14:14Z</time>
      </trkpt>
      <trkpt lat="42.7363080" lon="-7.3126560">
        <ele>585.6</ele>
        <time>2020-04-14T19:14:16Z</time>
      </trkpt>
      <trkpt lat="42.7362380" lon="-7.3128810">
        <ele>586.1</ele>
        <time>2020-04-14T19:14:18Z</time>
      </trkpt>
      <trkpt lat="42.7361420" lon="-7.3132130">
        <ele>586.6</ele>
        <time>2020-04-14T19:14:20Z</time>
      </trkpt>
      <trkpt lat="42.7360870" lon="-7.3134750">
        <ele>587.2</ele>
        <time>2020-04-14T19:14:22Z</time>
      </trkpt>
      <trkpt lat="42.7360620" lon="-7.3136420">
        <ele>588.1</ele>
        <time>2020-04-14T19:14:24Z</time>
      </trkpt>
      <trkpt lat="42.7360390" lon="-7.3137890">
        <ele>589.0</ele>
        <time>2020-04-14T19:14:26Z</time>
      </trkpt>
      <trkpt lat="42.7360190" lon="-7.3139190">
        <ele>589.9</ele>
        <time>2020-04-14T19:14:28Z</time>
      </trkpt>
      <trkpt lat="42.7360020" lon="-7.3140340">
        <ele>590.7</ele>
        <time>2020-04-14T19:14:30Z</time>
      </trkpt>
      <trkpt lat="42.7359470" lon="-7.3143760">
        <ele>592.5</ele>
        <time>2020-04-14T19:14:32Z</time>
      </trkpt>
      <trkpt lat="42.7359250" lon="-7.3144940">
        <ele>592.6</ele>
        <time>2020-04-14T19:14:34Z</time>
      </trkpt>
      <trkpt lat="42.7359030" lon="-7.3146190">
        <ele>592.8</ele>
        <time>2020-04-14T19:14:36Z</time>
      </trkpt>
      <trkpt lat="42.7358800" lon="-7.3147470">
        <ele>593.1</ele>
        <time>2020-04-14T19:14:38Z</time>
      </trkpt>
      <trkpt lat="42.7358560" lon="-7.3148810">
        <ele>593.4</ele>
        <time>2020-04-14T19:14:40Z</time>
      </trkpt>
      <trkpt lat="42.7357880" lon="-7.3152700">
        <ele>593.9</ele>
        <time>2020-04-14T19:14:42Z</time>
      </trkpt>
      <trkpt lat="42.7357710" lon="-7.3154130">
        <ele>594.1</ele>
        <time>2020-04-14T19:14:44Z</time>
      </trkpt>
      <trkpt lat="42.7357550" lon="-7.3155580">
        <ele>594.4</ele>
        <time>2020-04-14T19:14:46Z</time>
      </trkpt>
      <trkpt lat="42.7357220" lon="-7.3158560">
        <ele>594.8</ele>
        <time>2020-04-14T19:14:48Z</time>
      </trkpt>
      <trkpt lat="42.7357070" lon="-7.3160670">
        <ele>595.0</ele>
        <time>2020-04-14T19:14:50Z</time>
      </trkpt>
      <trkpt lat="42.7356980" lon="-7.3162040">
        <ele>595.3</ele>
        <time>2020-04-14T19:14:52Z</time>
      </trkpt>
      <trkpt lat="42.7356900" lon="-7.3163250">
        <ele>595.6</ele>
        <time>2020-04-14T19:14:54Z</time>
      </trkpt>
      <trkpt lat="42.7356830" lon="-7.3164330">
        <ele>596.0</ele>
        <time>2020-04-14T19:14:56Z</time>
      </trkpt>
      <trkpt lat="42.7356760" lon="-7.3165290">
        <ele>596.3</ele>
        <time>2020-04-14T19:14:58Z</time>
      </trkpt>
      <trkpt lat="42.7356700" lon="-7.3166170">
        <ele>596.6</ele>
        <time>2020-04-14T19:15:00Z</time>
      </trkpt>
      <trkpt lat="42.7356530" lon="-7.3169150">
        <ele>597.8</ele>
        <time>2020-04-14T19:15:02Z</time>
      </trkpt>
      <trkpt lat="42.7356520" lon="-7.3169910">
        <ele>598.2</ele>
        <time>2020-04-14T19:15:04Z</time>
      </trkpt>
      <trkpt lat="42.7356510" lon="-7.3170630">
        <ele>598.5</ele>
        <time>2020-04-14T19:15:06Z</time>
      </trkpt>
      <trkpt lat="42.7356490" lon="-7.3172300">
        <ele>599.0</ele>
        <time>2020-04-14T19:15:08Z</time>
      </trkpt>
      <trkpt lat="42.7356490" lon="-7.3172980">
        <ele>599.2</ele>
        <time>2020-04-14T19:15:10Z</time>
      </trkpt>
      <trkpt lat="42.7356480" lon="-7.3173660">
        <ele>599.4</ele>
        <time>2020-04-14T19:15:12Z</time>
      </trkpt>
      <trkpt lat="42.7356480" lon="-7.3174340">
        <ele>599.7</ele>
        <time>2020-04-14T19:15:14Z</time>
      </trkpt>
      <trkpt lat="42.7356480" lon="-7.3175010">
        <ele>600.1</ele>
        <time>2020-04-14T19:15:16Z</time>
      </trkpt>
      <trkpt lat="42.7356430" lon="-7.3176800">
        <ele>601.2</ele>
        <time>2020-04-14T19:15:18Z</time>
      </trkpt>
      <trkpt lat="42.7356390" lon="-7.3177650">
        <ele>601.7</ele>
        <time>2020-04-14T19:15:20Z</time>
      </trkpt>
      <trkpt lat="42.7356350" lon="-7.3178570">
        <ele>602.3</ele>
        <time>2020-04-14T19:15:22Z</time>
      </trkpt>
      <trkpt lat="42.7356300" lon="-7.3179500">
        <ele>602.9</ele>
        <time>2020-04-14T19:15:24Z</time>
      </trkpt>
      <trkpt lat="42.7356250" lon="-7.3180440">
        <ele>603.4</ele>
        <time>2020-04-14T19:15:26Z</time>
      </trkpt>
      <trkpt lat="42.7356130" lon="-7.3182950">
        <ele>604.6</ele>
        <time>2020-04-14T19:15:28Z</time>
      </trkpt>
      <trkpt lat="42.7356040" lon="-7.3184550">
        <ele>605.3</ele>
        <time>2020-04-14T19:15:30Z</time>
      </trkpt>
      <trkpt lat="42.7355950" lon="-7.3185510">
        <ele>605.6</ele>
        <time>2020-04-14T19:15:32Z</time>
      </trkpt>
      <trkpt lat="42.7355800" lon="-7.3187000">
        <ele>606.2</ele>
        <time>2020-04-14T19:15:34Z</time>
      </trkpt>
      <trkpt lat="42.7355680" lon="-7.3187960">
        <ele>606.5</ele>
        <time>2020-04-14T19:15:36Z</time>
      </trkpt>
      <trkpt lat="42.7355570" lon="-7.3188920">
        <ele>606.8</ele>
        <time>2020-04-14T19:15:38Z</time>
      </trkpt>
      <trkpt lat="42.7355330" lon="-7.3190940">
        <ele>607.4</ele>
        <time>2020-04-14T19:15:40Z</time>
      </trkpt>
      <trkpt lat="42.7355190" lon="-7.3192030">
        <ele>607.7</ele>
        <time>2020-04-14T19:15:42Z</time>
      </trkpt>
      <trkpt lat="42.7354970" lon="-7.3194080">
        <ele>608.2</ele>
        <time>2020-04-14T19:15:44Z</time>
      </trkpt>
      <trkpt lat="42.7354840" lon="-7.3195860">
        <ele>608.2</ele>
        <time>2020-04-14T19:15:46Z</time>
      </trkpt>
      <trkpt lat="42.7354770" lon="-7.3197570">
        <ele>607.8</ele>
        <time>2020-04-14T19:15:48Z</time>
      </trkpt>
      <trkpt lat="42.7354790" lon="-7.3199460">
        <ele>607.3</ele>
        <time>2020-04-14T19:15:50Z</time>
      </trkpt>
      <trkpt lat="42.7354930" lon="-7.3201350">
        <ele>606.7</ele>
        <time>2020-04-14T19:15:52Z</time>
      </trkpt>
      <trkpt lat="42.7355190" lon="-7.3203410">
        <ele>606.0</ele>
        <time>2020-04-14T19:15:54Z</time>
      </trkpt>
      <trkpt lat="42.7355640" lon="-7.3205650">
        <ele>605.3</ele>
        <time>2020-04-14T19:15:56Z</time>
      </trkpt>
      <trkpt lat="42.7356290" lon="-7.3207900">
        <ele>604.9</ele>
        <time>2020-04-14T19:15:58Z</time>
      </trkpt>
      <trkpt lat="42.7357080" lon="-7.3210270">
        <ele>604.5</ele>
        <time>2020-04-14T19:16:00Z</time>
      </trkpt>
      <trkpt lat="42.7358050" lon="-7.3212780">
        <ele>603.7</ele>
        <time>2020-04-14T19:16:02Z</time>
      </trkpt>
      <trkpt lat="42.7358910" lon="-7.3214820">
        <ele>602.9</ele>
        <time>2020-04-14T19:16:04Z</time>
      </trkpt>
      <trkpt lat="42.7360300" lon="-7.3218080">
        <ele>601.3</ele>
        <time>2020-04-14T19:16:06Z</time>
      </trkpt>
      <trkpt lat="42.7361260" lon="-7.3220290">
        <ele>600.1</ele>
        <time>2020-04-14T19:16:08Z</time>
      </trkpt>
      <trkpt lat="42.7362890" lon="-7.3224070">
        <ele>597.8</ele>
        <time>2020-04-14T19:16:10Z</time>
      </trkpt>
      <trkpt lat="42.7364480" lon="-7.3227780">
        <ele>595.4</ele>
        <time>2020-04-14T19:16:12Z</time>
      </trkpt>
      <trkpt lat="42.7365530" lon="-7.3230220">
        <ele>593.9</ele>
        <time>2020-04-14T19:16:14Z</time>
      </trkpt>
      <trkpt lat="42.7367130" lon="-7.3233960">
        <ele>591.5</ele>
        <time>2020-04-14T19:16:16Z</time>
      </trkpt>
      <trkpt lat="42.7368930" lon="-7.3238130">
        <ele>589.0</ele>
        <time>2020-04-14T19:16:18Z</time>
      </trkpt>
      <trkpt lat="42.7370510" lon="-7.3241740">
        <ele>586.6</ele>
        <time>2020-04-14T19:16:20Z</time>
      </trkpt>
      <trkpt lat="42.7371480" lon="-7.3245690">
        <ele>584.4</ele>
        <time>2020-04-14T19:16:22Z</time>
      </trkpt>
      <trkpt lat="42.7371600" lon="-7.3249610">
        <ele>582.3</ele>
        <time>2020-04-14T19:16:25Z</time>
      </trkpt>
      <trkpt lat="42.7370980" lon="-7.3253780">
        <ele>580.0</ele>
        <time>2020-04-14T19:16:27Z</time>
      </trkpt>
      <trkpt lat="42.7369650" lon="-7.3257290">
        <ele>577.7</ele>
        <time>2020-04-14T19:16:29Z</time>
      </trkpt>
      <trkpt lat="42.7367250" lon="-7.3260800">
        <ele>570.4</ele>
        <time>2020-04-14T19:16:31Z</time>
      </trkpt>
      <trkpt lat="42.7363990" lon="-7.3263150">
        <ele>563.5</ele>
        <time>2020-04-14T19:16:33Z</time>
      </trkpt>
      <trkpt lat="42.7360480" lon="-7.3264270">
        <ele>561.5</ele>
        <time>2020-04-14T19:16:35Z</time>
      </trkpt>
      <trkpt lat="42.7357060" lon="-7.3263820">
        <ele>560.4</ele>
        <time>2020-04-14T19:16:37Z</time>
      </trkpt>
      <trkpt lat="42.7353580" lon="-7.3262560">
        <ele>559.0</ele>
        <time>2020-04-14T19:16:39Z</time>
      </trkpt>
      <trkpt lat="42.7351300" lon="-7.3261670">
        <ele>558.1</ele>
        <time>2020-04-14T19:16:41Z</time>
      </trkpt>
      <trkpt lat="42.7347890" lon="-7.3260330">
        <ele>557.0</ele>
        <time>2020-04-14T19:16:43Z</time>
      </trkpt>
      <trkpt lat="42.7344900" lon="-7.3259000">
        <ele>555.9</ele>
        <time>2020-04-14T19:16:45Z</time>
      </trkpt>
      <trkpt lat="42.7342580" lon="-7.3257050">
        <ele>554.9</ele>
        <time>2020-04-14T19:16:47Z</time>
      </trkpt>
      <trkpt lat="42.7341140" lon="-7.3254170">
        <ele>554.0</ele>
        <time>2020-04-14T19:16:49Z</time>
      </trkpt>
      <trkpt lat="42.7340460" lon="-7.3250850">
        <ele>553.2</ele>
        <time>2020-04-14T19:16:51Z</time>
      </trkpt>
      <trkpt lat="42.7339970" lon="-7.3247940">
        <ele>552.5</ele>
        <time>2020-04-14T19:16:53Z</time>
      </trkpt>
      <trkpt lat="42.7339220" lon="-7.3245060">
        <ele>551.7</ele>
        <time>2020-04-14T19:16:55Z</time>
      </trkpt>
      <trkpt lat="42.7338060" lon="-7.3242820">
        <ele>551.1</ele>
        <time>2020-04-14T19:16:57Z</time>
      </trkpt>
      <trkpt lat="42.7336860" lon="-7.3241230">
        <ele>550.5</ele>
        <time>2020-04-14T19:16:59Z</time>
      </trkpt>
      <trkpt lat="42.7335340" lon="-7.3239380">
        <ele>549.9</ele>
        <time>2020-04-14T19:17:01Z</time>
      </trkpt>
      <trkpt lat="42.7334060" lon="-7.3238050">
        <ele>549.4</ele>
        <time>2020-04-14T19:17:03Z</time>
      </trkpt>
      <trkpt lat="42.7332450" lon="-7.3236860">
        <ele>548.8</ele>
        <time>2020-04-14T19:17:05Z</time>
      </trkpt>
      <trkpt lat="42.7330680" lon="-7.3236370">
        <ele>548.3</ele>
        <time>2020-04-14T19:17:07Z</time>
      </trkpt>
      <trkpt lat="42.7328880" lon="-7.3237030">
        <ele>547.7</ele>
        <time>2020-04-14T19:17:09Z</time>
      </trkpt>
      <trkpt lat="42.7327700" lon="-7.3238510">
        <ele>546.9</ele>
        <time>2020-04-14T19:17:11Z</time>
      </trkpt>
      <trkpt lat="42.7326420" lon="-7.3240310">
        <ele>546.0</ele>
        <time>2020-04-14T19:17:13Z</time>
      </trkpt>
      <trkpt lat="42.7324860" lon="-7.3242580">
        <ele>545.3</ele>
        <time>2020-04-14T19:17:15Z</time>
      </trkpt>
      <trkpt lat="42.7323340" lon="-7.3245100">
        <ele>544.4</ele>
        <time>2020-04-14T19:17:17Z</time>
      </trkpt>
      <trkpt lat="42.7322800" lon="-7.3248260">
        <ele>542.2</ele>
        <time>2020-04-14T19:17:19Z</time>
      </trkpt>
      <trkpt lat="42.7323350" lon="-7.3251650">
        <ele>535.7</ele>
        <time>2020-04-14T19:17:21Z</time>
      </trkpt>
      <trkpt lat="42.7325070" lon="-7.3254690">
        <ele>534.8</ele>
        <time>2020-04-14T19:17:23Z</time>
      </trkpt>
      <trkpt lat="42.7327150" lon="-7.3257030">
        <ele>535.1</ele>
        <time>2020-04-14T19:17:25Z</time>
      </trkpt>
      <trkpt lat="42.7328090" lon="-7.3260450">
        <ele>535.6</ele>
        <time>2020-04-14T19:17:27Z</time>
      </trkpt>
      <trkpt lat="42.7326860" lon="-7.3263190">
        <ele>536.3</ele>
        <time>2020-04-14T19:17:29Z</time>
      </trkpt>
      <trkpt lat="42.7325270" lon="-7.3265350">
        <ele>536.9</ele>
        <time>2020-04-14T19:17:31Z</time>
      </trkpt>
      <trkpt lat="42.7323920" lon="-7.3267090">
        <ele>537.3</ele>
        <time>2020-04-14T19:17:33Z</time>
      </trkpt>
      <trkpt lat="42.7322230" lon="-7.3268490">
        <ele>537.9</ele>
        <time>2020-04-14T19:17:35Z</time>
      </trkpt>
      <trkpt lat="42.7320460" lon="-7.3269520">
        <ele>538.5</ele>
        <time>2020-04-14T19:17:37Z</time>
      </trkpt>
      <trkpt lat="42.7318850" lon="-7.3270010">
        <ele>539.0</ele>
        <time>2020-04-14T19:17:39Z</time>
      </trkpt>
      <trkpt lat="42.7317640" lon="-7.3269920">
        <ele>539.4</ele>
        <time>2020-04-14T19:17:41Z</time>
      </trkpt>
      <trkpt lat="42.7315710" lon="-7.3269770">
        <ele>539.9</ele>
        <time>2020-04-14T19:17:43Z</time>
      </trkpt>
      <trkpt lat="42.7314010" lon="-7.3269600">
        <ele>540.2</ele>
        <time>2020-04-14T19:17:45Z</time>
      </trkpt>
      <trkpt lat="42.7312840" lon="-7.3269480">
        <ele>540.4</ele>
        <time>2020-04-14T19:17:47Z</time>
      </trkpt>
      <trkpt lat="42.7310830" lon="-7.3269140">
        <ele>540.8</ele>
        <time>2020-04-14T19:17:49Z</time>
      </trkpt>
      <trkpt lat="42.7309420" lon="-7.3268580">
        <ele>540.9</ele>
        <time>2020-04-14T19:17:51Z</time>
      </trkpt>
      <trkpt lat="42.7307980" lon="-7.3267790">
        <ele>540.8</ele>
        <time>2020-04-14T19:17:53Z</time>
      </trkpt>
      <trkpt lat="42.7306170" lon="-7.3266800">
        <ele>540.7</ele>
        <time>2020-04-14T19:17:55Z</time>
      </trkpt>
      <trkpt lat="42.7304580" lon="-7.3266280">
        <ele>536.0</ele>
        <time>2020-04-14T19:17:57Z</time>
      </trkpt>
      <trkpt lat="42.7302810" lon="-7.3266380">
        <ele>535.3</ele>
        <time>2020-04-14T19:17:59Z</time>
      </trkpt>
      <trkpt lat="42.7300850" lon="-7.3266920">
        <ele>534.9</ele>
        <time>2020-04-14T19:18:01Z</time>
      </trkpt>
      <trkpt lat="42.7299040" lon="-7.3268070">
        <ele>534.4</ele>
        <time>2020-04-14T19:18:03Z</time>
      </trkpt>
      <trkpt lat="42.7297310" lon="-7.3269410">
        <ele>534.1</ele>
        <time>2020-04-14T19:18:05Z</time>
      </trkpt>
      <trkpt lat="42.7295990" lon="-7.3270970">
        <ele>533.9</ele>
        <time>2020-04-14T19:18:07Z</time>
      </trkpt>
      <trkpt lat="42.7294300" lon="-7.3273490">
        <ele>533.8</ele>
        <time>2020-04-14T19:18:09Z</time>
      </trkpt>
      <trkpt lat="42.7293240" lon="-7.3275920">
        <ele>533.7</ele>
        <time>2020-04-14T19:18:11Z</time>
      </trkpt>
      <trkpt lat="42.7292390" lon="-7.3278170">
        <ele>533.6</ele>
        <time>2020-04-14T19:18:13Z</time>
      </trkpt>
      <trkpt lat="42.7291610" lon="-7.3280470">
        <ele>533.5</ele>
        <time>2020-04-14T19:18:15Z</time>
      </trkpt>
      <trkpt lat="42.7290790" lon="-7.3283410">
        <ele>533.3</ele>
        <time>2020-04-14T19:18:17Z</time>
      </trkpt>
      <trkpt lat="42.7290350" lon="-7.3285970">
        <ele>533.2</ele>
        <time>2020-04-14T19:18:19Z</time>
      </trkpt>
      <trkpt lat="42.7290070" lon="-7.3288450">
        <ele>533.1</ele>
        <time>2020-04-14T19:18:21Z</time>
      </trkpt>
      <trkpt lat="42.7289970" lon="-7.3290970">
        <ele>533.1</ele>
        <time>2020-04-14T19:18:23Z</time>
      </trkpt>
      <trkpt lat="42.7290220" lon="-7.3293350">
        <ele>533.0</ele>
        <time>2020-04-14T19:18:25Z</time>
      </trkpt>
      <trkpt lat="42.7290950" lon="-7.3295750">
        <ele>532.9</ele>
        <time>2020-04-14T19:18:27Z</time>
      </trkpt>
      <trkpt lat="42.7291840" lon="-7.3297780">
        <ele>532.9</ele>
        <time>2020-04-14T19:18:29Z</time>
      </trkpt>
      <trkpt lat="42.7292870" lon="-7.3299680">
        <ele>532.8</ele>
        <time>2020-04-14T19:18:31Z</time>
      </trkpt>
      <trkpt lat="42.7293650" lon="-7.3301070">
        <ele>532.8</ele>
        <time>2020-04-14T19:18:33Z</time>
      </trkpt>
      <trkpt lat="42.7294930" lon="-7.3303280">
        <ele>532.8</ele>
        <time>2020-04-14T19:18:35Z</time>
      </trkpt>
      <trkpt lat="42.7295680" lon="-7.3304530">
        <ele>532.8</ele>
        <time>2020-04-14T19:18:37Z</time>
      </trkpt>
      <trkpt lat="42.7296900" lon="-7.3306560">
        <ele>532.8</ele>
        <time>2020-04-14T19:18:39Z</time>
      </trkpt>
      <trkpt lat="42.7298020" lon="-7.3308380">
        <ele>532.8</ele>
        <time>2020-04-14T19:18:41Z</time>
      </trkpt>
      <trkpt lat="42.7298670" lon="-7.3309450">
        <ele>532.8</ele>
        <time>2020-04-14T19:18:43Z</time>
      </trkpt>
      <trkpt lat="42.7299290" lon="-7.3310470">
        <ele>532.8</ele>
        <time>2020-04-14T19:18:45Z</time>
      </trkpt>
      <trkpt lat="42.7300460" lon="-7.3312440">
        <ele>532.8</ele>
        <time>2020-04-14T19:18:47Z</time>
      </trkpt>
      <trkpt lat="42.7301060" lon="-7.3313500">
        <ele>532.8</ele>
        <time>2020-04-14T19:18:49Z</time>
      </trkpt>
      <trkpt lat="42.7301690" lon="-7.3314620">
        <ele>532.7</ele>
        <time>2020-04-14T19:18:51Z</time>
      </trkpt>
      <trkpt lat="42.7303010" lon="-7.3317080">
        <ele>532.7</ele>
        <time>2020-04-14T19:18:53Z</time>
      </trkpt>
      <trkpt lat="42.7303770" lon="-7.3318900">
        <ele>532.6</ele>
        <time>2020-04-14T19:18:55Z</time>
      </trkpt>
      <trkpt lat="42.7304450" lon="-7.3320840">
        <ele>532.6</ele>
        <time>2020-04-14T19:18:57Z</time>
      </trkpt>
      <trkpt lat="42.7304920" lon="-7.3322300">
        <ele>532.6</ele>
        <time>2020-04-14T19:18:59Z</time>
      </trkpt>
      <trkpt lat="42.7305390" lon="-7.3323790">
        <ele>532.5</ele>
        <time>2020-04-14T19:19:01Z</time>
      </trkpt>
      <trkpt lat="42.7306220" lon="-7.3326550">
        <ele>532.5</ele>
        <time>2020-04-14T19:19:03Z</time>
      </trkpt>
      <trkpt lat="42.7306610" lon="-7.3328860">
        <ele>532.4</ele>
        <time>2020-04-14T19:19:05Z</time>
      </trkpt>
      <trkpt lat="42.7306600" lon="-7.3331590">
        <ele>532.1</ele>
        <time>2020-04-14T19:19:07Z</time>
      </trkpt>
      <trkpt lat="42.7306120" lon="-7.3333720">
        <ele>531.9</ele>
        <time>2020-04-14T19:19:09Z</time>
      </trkpt>
      <trkpt lat="42.7305070" lon="-7.3335910">
        <ele>531.4</ele>
        <time>2020-04-14T19:19:11Z</time>
      </trkpt>
      <trkpt lat="42.7303640" lon="-7.3337730">
        <ele>530.8</ele>
        <time>2020-04-14T19:19:13Z</time>
      </trkpt>
      <trkpt lat="42.7302520" lon="-7.3338910">
        <ele>530.4</ele>
        <time>2020-04-14T19:19:15Z</time>
      </trkpt>
      <trkpt lat="42.7300770" lon="-7.3340520">
        <ele>529.6</ele>
        <time>2020-04-14T19:19:17Z</time>
      </trkpt>
      <trkpt lat="42.7298600" lon="-7.3342350">
        <ele>529.0</ele>
        <time>2020-04-14T19:19:19Z</time>
      </trkpt>
      <trkpt lat="42.7297190" lon="-7.3343420">
        <ele>528.6</ele>
        <time>2020-04-14T19:19:21Z</time>
      </trkpt>
      <trkpt lat="42.7294970" lon="-7.3344960">
        <ele>527.8</ele>
        <time>2020-04-14T19:19:23Z</time>
      </trkpt>
      <trkpt lat="42.7292700" lon="-7.3346410">
        <ele>526.9</ele>
        <time>2020-04-14T19:19:25Z</time>
      </trkpt>
      <trkpt lat="42.7291080" lon="-7.3347360">
        <ele>526.2</ele>
        <time>2020-04-14T19:19:27Z</time>
      </trkpt>
      <trkpt lat="42.7289430" lon="-7.3348320">
        <ele>525.5</ele>
        <time>2020-04-14T19:19:29Z</time>
      </trkpt>
      <trkpt lat="42.7286150" lon="-7.3350240">
        <ele>524.4</ele>
        <time>2020-04-14T19:19:31Z</time>
      </trkpt>
      <trkpt lat="42.7283940" lon="-7.3351530">
        <ele>523.7</ele>
        <time>2020-04-14T19:19:33Z</time>
      </trkpt>
      <trkpt lat="42.7281290" lon="-7.3353080">
        <ele>523.0</ele>
        <time>2020-04-14T19:19:35Z</time>
      </trkpt>
      <trkpt lat="42.7279780" lon="-7.3353960">
        <ele>522.8</ele>
        <time>2020-04-14T19:19:37Z</time>
      </trkpt>
      <trkpt lat="42.7278340" lon="-7.3354810">
        <ele>522.6</ele>
        <time>2020-04-14T19:19:39Z</time>
      </trkpt>
      <trkpt lat="42.7275330" lon="-7.3356570">
        <ele>522.4</ele>
        <time>2020-04-14T19:19:41Z</time>
      </trkpt>
      <trkpt lat="42.7273950" lon="-7.3357340">
        <ele>522.4</ele>
        <time>2020-04-14T19:19:43Z</time>
      </trkpt>
      <trkpt lat="42.7272610" lon="-7.3358080">
        <ele>522.4</ele>
        <time>2020-04-14T19:19:45Z</time>
      </trkpt>
      <trkpt lat="42.7269940" lon="-7.3359600">
        <ele>522.4</ele>
        <time>2020-04-14T19:19:47Z</time>
      </trkpt>
      <trkpt lat="42.7268300" lon="-7.3360610">
        <ele>522.2</ele>
        <time>2020-04-14T19:19:49Z</time>
      </trkpt>
      <trkpt lat="42.7266420" lon="-7.3361710">
        <ele>522.1</ele>
        <time>2020-04-14T19:19:51Z</time>
      </trkpt>
      <trkpt lat="42.7264860" lon="-7.3362980">
        <ele>522.3</ele>
        <time>2020-04-14T19:19:53Z</time>
      </trkpt>
      <trkpt lat="42.7263480" lon="-7.3364370">
        <ele>522.4</ele>
        <time>2020-04-14T19:19:55Z</time>
      </trkpt>
      <trkpt lat="42.7262030" lon="-7.3366340">
        <ele>522.6</ele>
        <time>2020-04-14T19:19:57Z</time>
      </trkpt>
      <trkpt lat="42.7261030" lon="-7.3368220">
        <ele>522.7</ele>
        <time>2020-04-14T19:19:59Z</time>
      </trkpt>
      <trkpt lat="42.7260280" lon="-7.3370240">
        <ele>522.7</ele>
        <time>2020-04-14T19:20:01Z</time>
      </trkpt>
      <trkpt lat="42.7259530" lon="-7.3372820">
        <ele>522.8</ele>
        <time>2020-04-14T19:20:03Z</time>
      </trkpt>
      <trkpt lat="42.7258990" lon="-7.3375520">
        <ele>523.0</ele>
        <time>2020-04-14T19:20:05Z</time>
      </trkpt>
      <trkpt lat="42.7258710" lon="-7.3377820">
        <ele>523.1</ele>
        <time>2020-04-14T19:20:07Z</time>
      </trkpt>
      <trkpt lat="42.7258370" lon="-7.3379450">
        <ele>523.0</ele>
        <time>2020-04-14T19:20:09Z</time>
      </trkpt>
      <trkpt lat="42.7258040" lon="-7.3381050">
        <ele>523.0</ele>
        <time>2020-04-14T19:20:11Z</time>
      </trkpt>
      <trkpt lat="42.7257280" lon="-7.3383860">
        <ele>522.8</ele>
        <time>2020-04-14T19:20:13Z</time>
      </trkpt>
      <trkpt lat="42.7256520" lon="-7.3385760">
        <ele>522.6</ele>
        <time>2020-04-14T19:20:15Z</time>
      </trkpt>
      <trkpt lat="42.7255610" lon="-7.3387550">
        <ele>522.3</ele>
        <time>2020-04-14T19:20:17Z</time>
      </trkpt>
      <trkpt lat="42.7254880" lon="-7.3388850">
        <ele>522.1</ele>
        <time>2020-04-14T19:20:19Z</time>
      </trkpt>
      <trkpt lat="42.7254130" lon="-7.3390190">
        <ele>521.9</ele>
        <time>2020-04-14T19:20:21Z</time>
      </trkpt>
      <trkpt lat="42.7253370" lon="-7.3391560">
        <ele>521.7</ele>
        <time>2020-04-14T19:20:23Z</time>
      </trkpt>
      <trkpt lat="42.7251420" lon="-7.3395070">
        <ele>521.1</ele>
        <time>2020-04-14T19:20:25Z</time>
      </trkpt>
      <trkpt lat="42.7250600" lon="-7.3396530">
        <ele>520.9</ele>
        <time>2020-04-14T19:20:27Z</time>
      </trkpt>
      <trkpt lat="42.7249230" lon="-7.3399000">
        <ele>520.6</ele>
        <time>2020-04-14T19:20:29Z</time>
      </trkpt>
      <trkpt lat="42.7248380" lon="-7.3400520">
        <ele>520.5</ele>
        <time>2020-04-14T19:20:31Z</time>
      </trkpt>
      <trkpt lat="42.7246870" lon="-7.3403080">
        <ele>520.2</ele>
        <time>2020-04-14T19:20:33Z</time>
      </trkpt>
      <trkpt lat="42.7245670" lon="-7.3404980">
        <ele>520.1</ele>
        <time>2020-04-14T19:20:35Z</time>
      </trkpt>
      <trkpt lat="42.7244730" lon="-7.3406490">
        <ele>519.8</ele>
        <time>2020-04-14T19:20:37Z</time>
      </trkpt>
      <trkpt lat="42.7243030" lon="-7.3409450">
        <ele>519.1</ele>
        <time>2020-04-14T19:20:39Z</time>
      </trkpt>
      <trkpt lat="42.7242240" lon="-7.3411820">
        <ele>518.8</ele>
        <time>2020-04-14T19:20:41Z</time>
      </trkpt>
      <trkpt lat="42.7241550" lon="-7.3414790">
        <ele>518.5</ele>
        <time>2020-04-14T19:20:43Z</time>
      </trkpt>
      <trkpt lat="42.7241420" lon="-7.3417610">
        <ele>518.3</ele>
        <time>2020-04-14T19:20:45Z</time>
      </trkpt>
      <trkpt lat="42.7241930" lon="-7.3420670">
        <ele>518.0</ele>
        <time>2020-04-14T19:20:47Z</time>
      </trkpt>
      <trkpt lat="42.7242910" lon="-7.3422790">
        <ele>517.8</ele>
        <time>2020-04-14T19:20:49Z</time>
      </trkpt>
      <trkpt lat="42.7244430" lon="-7.3424820">
        <ele>517.6</ele>
        <time>2020-04-14T19:20:51Z</time>
      </trkpt>
      <trkpt lat="42.7245970" lon="-7.3425990">
        <ele>517.4</ele>
        <time>2020-04-14T19:20:53Z</time>
      </trkpt>
      <trkpt lat="42.7247960" lon="-7.3426770">
        <ele>517.2</ele>
        <time>2020-04-14T19:20:55Z</time>
      </trkpt>
      <trkpt lat="42.7249710" lon="-7.3427050">
        <ele>517.0</ele>
        <time>2020-04-14T19:20:57Z</time>
      </trkpt>
      <trkpt lat="42.7250950" lon="-7.3427240">
        <ele>516.8</ele>
        <time>2020-04-14T19:20:59Z</time>
      </trkpt>
      <trkpt lat="42.7252180" lon="-7.3427430">
        <ele>516.6</ele>
        <time>2020-04-14T19:21:01Z</time>
      </trkpt>
      <trkpt lat="42.7254520" lon="-7.3427800">
        <ele>516.6</ele>
        <time>2020-04-14T19:21:03Z</time>
      </trkpt>
      <trkpt lat="42.7255730" lon="-7.3428010">
        <ele>516.8</ele>
        <time>2020-04-14T19:21:05Z</time>
      </trkpt>
      <trkpt lat="42.7258070" lon="-7.3428480">
        <ele>517.1</ele>
        <time>2020-04-14T19:21:07Z</time>
      </trkpt>
      <trkpt lat="42.7259520" lon="-7.3429170">
        <ele>517.4</ele>
        <time>2020-04-14T19:21:09Z</time>
      </trkpt>
      <trkpt lat="42.7260820" lon="-7.3430390">
        <ele>517.7</ele>
        <time>2020-04-14T19:21:11Z</time>
      </trkpt>
      <trkpt lat="42.7262050" lon="-7.3432270">
        <ele>518.0</ele>
        <time>2020-04-14T19:21:13Z</time>
      </trkpt>
      <trkpt lat="42.7262850" lon="-7.3434230">
        <ele>518.2</ele>
        <time>2020-04-14T19:21:15Z</time>
      </trkpt>
      <trkpt lat="42.7263550" lon="-7.3436100">
        <ele>518.2</ele>
        <time>2020-04-14T19:21:17Z</time>
      </trkpt>
      <trkpt lat="42.7264150" lon="-7.3437700">
        <ele>518.0</ele>
        <time>2020-04-14T19:21:19Z</time>
      </trkpt>
      <trkpt lat="42.7264770" lon="-7.3439320">
        <ele>517.8</ele>
        <time>2020-04-14T19:21:21Z</time>
      </trkpt>
      <trkpt lat="42.7266120" lon="-7.3442910">
        <ele>517.4</ele>
        <time>2020-04-14T19:21:23Z</time>
      </trkpt>
      <trkpt lat="42.7266740" lon="-7.3444560">
        <ele>517.2</ele>
        <time>2020-04-14T19:21:25Z</time>
      </trkpt>
      <trkpt lat="42.7267370" lon="-7.3446220">
        <ele>517.0</ele>
        <time>2020-04-14T19:21:27Z</time>
      </trkpt>
      <trkpt lat="42.7268720" lon="-7.3449820">
        <ele>516.5</ele>
        <time>2020-04-14T19:21:29Z</time>
      </trkpt>
      <trkpt lat="42.7269440" lon="-7.3451720">
        <ele>516.4</ele>
        <time>2020-04-14T19:21:31Z</time>
      </trkpt>
      <trkpt lat="42.7270370" lon="-7.3454120">
        <ele>516.3</ele>
        <time>2020-04-14T19:21:33Z</time>
      </trkpt>
      <trkpt lat="42.7271060" lon="-7.3455750">
        <ele>516.2</ele>
        <time>2020-04-14T19:21:35Z</time>
      </trkpt>
      <trkpt lat="42.7272200" lon="-7.3458240">
        <ele>516.1</ele>
        <time>2020-04-14T19:21:37Z</time>
      </trkpt>
      <trkpt lat="42.7273410" lon="-7.3460540">
        <ele>516.0</ele>
        <time>2020-04-14T19:21:39Z</time>
      </trkpt>
      <trkpt lat="42.7274680" lon="-7.3462480">
        <ele>515.9</ele>
        <time>2020-04-14T19:21:41Z</time>
      </trkpt>
      <trkpt lat="42.7275650" lon="-7.3463610">
        <ele>515.9</ele>
        <time>2020-04-14T19:21:43Z</time>
      </trkpt>
      <trkpt lat="42.7276620" lon="-7.3464760">
        <ele>515.8</ele>
        <time>2020-04-14T19:21:45Z</time>
      </trkpt>
      <trkpt lat="42.7278400" lon="-7.3466760">
        <ele>515.7</ele>
        <time>2020-04-14T19:21:47Z</time>
      </trkpt>
      <trkpt lat="42.7279900" lon="-7.3468360">
        <ele>515.5</ele>
        <time>2020-04-14T19:21:49Z</time>
      </trkpt>
      <trkpt lat="42.7280900" lon="-7.3469440">
        <ele>515.5</ele>
        <time>2020-04-14T19:21:51Z</time>
      </trkpt>
      <trkpt lat="42.7281920" lon="-7.3470540">
        <ele>515.4</ele>
        <time>2020-04-14T19:21:53Z</time>
      </trkpt>
      <trkpt lat="42.7284140" lon="-7.3473000">
        <ele>515.2</ele>
        <time>2020-04-14T19:21:55Z</time>
      </trkpt>
      <trkpt lat="42.7285450" lon="-7.3474810">
        <ele>515.0</ele>
        <time>2020-04-14T19:21:57Z</time>
      </trkpt>
      <trkpt lat="42.7286720" lon="-7.3476890">
        <ele>514.8</ele>
        <time>2020-04-14T19:21:59Z</time>
      </trkpt>
      <trkpt lat="42.7287670" lon="-7.3479190">
        <ele>514.6</ele>
        <time>2020-04-14T19:22:01Z</time>
      </trkpt>
      <trkpt lat="42.7288370" lon="-7.3481310">
        <ele>514.6</ele>
        <time>2020-04-14T19:22:03Z</time>
      </trkpt>
      <trkpt lat="42.7289090" lon="-7.3483690">
        <ele>514.4</ele>
        <time>2020-04-14T19:22:05Z</time>
      </trkpt>
      <trkpt lat="42.7289620" lon="-7.3485410">
        <ele>514.1</ele>
        <time>2020-04-14T19:22:07Z</time>
      </trkpt>
      <trkpt lat="42.7290600" lon="-7.3488570">
        <ele>513.7</ele>
        <time>2020-04-14T19:22:09Z</time>
      </trkpt>
      <trkpt lat="42.7291070" lon="-7.3490140">
        <ele>513.7</ele>
        <time>2020-04-14T19:22:11Z</time>
      </trkpt>
      <trkpt lat="42.7291520" lon="-7.3491660">
        <ele>513.8</ele>
        <time>2020-04-14T19:22:13Z</time>
      </trkpt>
      <trkpt lat="42.7292460" lon="-7.3494420">
        <ele>514.2</ele>
        <time>2020-04-14T19:22:15Z</time>
      </trkpt>
      <trkpt lat="42.7293020" lon="-7.3495730">
        <ele>514.6</ele>
        <time>2020-04-14T19:22:17Z</time>
      </trkpt>
      <trkpt lat="42.7294090" lon="-7.3497590">
        <ele>515.2</ele>
        <time>2020-04-14T19:22:19Z</time>
      </trkpt>
      <trkpt lat="42.7295190" lon="-7.3499060">
        <ele>515.7</ele>
        <time>2020-04-14T19:22:21Z</time>
      </trkpt>
      <trkpt lat="42.7295930" lon="-7.3499720">
        <ele>516.0</ele>
        <time>2020-04-14T19:22:23Z</time>
      </trkpt>
      <trkpt lat="42.7297080" lon="-7.3500540">
        <ele>516.7</ele>
        <time>2020-04-14T19:22:25Z</time>
      </trkpt>
      <trkpt lat="42.7297780" lon="-7.3500940">
        <ele>517.3</ele>
        <time>2020-04-14T19:22:27Z</time>
      </trkpt>
      <trkpt lat="42.7299050" lon="-7.3501570">
        <ele>518.4</ele>
        <time>2020-04-14T19:22:29Z</time>
      </trkpt>
      <trkpt lat="42.7300130" lon="-7.3501950">
        <ele>519.3</ele>
        <time>2020-04-14T19:22:31Z</time>
      </trkpt>
      <trkpt lat="42.7300800" lon="-7.3502110">
        <ele>519.9</ele>
        <time>2020-04-14T19:22:33Z</time>
      </trkpt>
      <trkpt lat="42.7301450" lon="-7.3502260">
        <ele>520.4</ele>
        <time>2020-04-14T19:22:35Z</time>
      </trkpt>
      <trkpt lat="42.7302610" lon="-7.3502510">
        <ele>521.4</ele>
        <time>2020-04-14T19:22:37Z</time>
      </trkpt>
      <trkpt lat="42.7303200" lon="-7.3502620">
        <ele>521.9</ele>
        <time>2020-04-14T19:22:39Z</time>
      </trkpt>
      <trkpt lat="42.7303750" lon="-7.3502730">
        <ele>522.3</ele>
        <time>2020-04-14T19:22:41Z</time>
      </trkpt>
      <trkpt lat="42.7304290" lon="-7.3502830">
        <ele>522.8</ele>
        <time>2020-04-14T19:22:43Z</time>
      </trkpt>
      <trkpt lat="42.7304810" lon="-7.3502930">
        <ele>523.2</ele>
        <time>2020-04-14T19:22:45Z</time>
      </trkpt>
      <trkpt lat="42.7305330" lon="-7.3503020">
        <ele>523.6</ele>
        <time>2020-04-14T19:22:47Z</time>
      </trkpt>
      <trkpt lat="42.7305840" lon="-7.3503120">
        <ele>524.0</ele>
        <time>2020-04-14T19:22:49Z</time>
      </trkpt>
      <trkpt lat="42.7306340" lon="-7.3503210">
        <ele>524.4</ele>
        <time>2020-04-14T19:22:51Z</time>
      </trkpt>
      <trkpt lat="42.7306840" lon="-7.3503310">
        <ele>524.8</ele>
        <time>2020-04-14T19:22:53Z</time>
      </trkpt>
      <trkpt lat="42.7307330" lon="-7.3503400">
        <ele>525.1</ele>
        <time>2020-04-14T19:22:55Z</time>
      </trkpt>
      <trkpt lat="42.7307830" lon="-7.3503490">
        <ele>525.5</ele>
        <time>2020-04-14T19:22:57Z</time>
      </trkpt>
      <trkpt lat="42.7310400" lon="-7.3504000">
        <ele>527.5</ele>
        <time>2020-04-14T19:22:59Z</time>
      </trkpt>
      <trkpt lat="42.7310890" lon="-7.3504130">
        <ele>527.9</ele>
        <time>2020-04-14T19:23:01Z</time>
      </trkpt>
      <trkpt lat="42.7311380" lon="-7.3504260">
        <ele>528.3</ele>
        <time>2020-04-14T19:23:03Z</time>
      </trkpt>
      <trkpt lat="42.7311870" lon="-7.3504390">
        <ele>528.7</ele>
        <time>2020-04-14T19:23:05Z</time>
      </trkpt>
      <trkpt lat="42.7313070" lon="-7.3504750">
        <ele>529.8</ele>
        <time>2020-04-14T19:23:07Z</time>
      </trkpt>
      <trkpt lat="42.7313550" lon="-7.3504940">
        <ele>530.2</ele>
        <time>2020-04-14T19:23:09Z</time>
      </trkpt>
      <trkpt lat="42.7314030" lon="-7.3505130">
        <ele>530.7</ele>
        <time>2020-04-14T19:23:11Z</time>
      </trkpt>
      <trkpt lat="42.7314500" lon="-7.3505320">
        <ele>531.1</ele>
        <time>2020-04-14T19:23:13Z</time>
      </trkpt>
      <trkpt lat="42.7314980" lon="-7.3505510">
        <ele>531.6</ele>
        <time>2020-04-14T19:23:15Z</time>
      </trkpt>
      <trkpt lat="42.7316290" lon="-7.3506080">
        <ele>532.8</ele>
        <time>2020-04-14T19:23:17Z</time>
      </trkpt>
      <trkpt lat="42.7316760" lon="-7.3506320">
        <ele>533.2</ele>
        <time>2020-04-14T19:23:19Z</time>
      </trkpt>
      <trkpt lat="42.7317220" lon="-7.3506570">
        <ele>533.6</ele>
        <time>2020-04-14T19:23:21Z</time>
      </trkpt>
      <trkpt lat="42.7318310" lon="-7.3507140">
        <ele>534.7</ele>
        <time>2020-04-14T19:23:23Z</time>
      </trkpt>
      <trkpt lat="42.7318780" lon="-7.3507440">
        <ele>535.1</ele>
        <time>2020-04-14T19:23:25Z</time>
      </trkpt>
      <trkpt lat="42.7319260" lon="-7.3507740">
        <ele>535.6</ele>
        <time>2020-04-14T19:23:27Z</time>
      </trkpt>
      <trkpt lat="42.7320130" lon="-7.3508360">
        <ele>536.5</ele>
        <time>2020-04-14T19:23:29Z</time>
      </trkpt>
      <trkpt lat="42.7320590" lon="-7.3508750">
        <ele>537.1</ele>
        <time>2020-04-14T19:23:31Z</time>
      </trkpt>
      <trkpt lat="42.7321360" lon="-7.3509450">
        <ele>537.9</ele>
        <time>2020-04-14T19:23:33Z</time>
      </trkpt>
      <trkpt lat="42.7321780" lon="-7.3509880">
        <ele>538.3</ele>
        <time>2020-04-14T19:23:35Z</time>
      </trkpt>
      <trkpt lat="42.7322460" lon="-7.3510670">
        <ele>539.0</ele>
        <time>2020-04-14T19:23:37Z</time>
      </trkpt>
      <trkpt lat="42.7322840" lon="-7.3511180">
        <ele>539.5</ele>
        <time>2020-04-14T19:23:39Z</time>
      </trkpt>
      <trkpt lat="42.7323430" lon="-7.3512100">
        <ele>540.2</ele>
        <time>2020-04-14T19:23:41Z</time>
      </trkpt>
      <trkpt lat="42.7323740" lon="-7.3512690">
        <ele>540.6</ele>
        <time>2020-04-14T19:23:43Z</time>
      </trkpt>
      <trkpt lat="42.7324070" lon="-7.3513310">
        <ele>541.0</ele>
        <time>2020-04-14T19:23:45Z</time>
      </trkpt>
      <trkpt lat="42.7324770" lon="-7.3514680">
        <ele>541.8</ele>
        <time>2020-04-14T19:23:47Z</time>
      </trkpt>
      <trkpt lat="42.7325000" lon="-7.3515340">
        <ele>542.2</ele>
        <time>2020-04-14T19:23:49Z</time>
      </trkpt>
      <trkpt lat="42.7325230" lon="-7.3515990">
        <ele>542.5</ele>
        <time>2020-04-14T19:23:51Z</time>
      </trkpt>
      <trkpt lat="42.7325600" lon="-7.3517230">
        <ele>543.2</ele>
        <time>2020-04-14T19:23:53Z</time>
      </trkpt>
      <trkpt lat="42.7325750" lon="-7.3517880">
        <ele>543.6</ele>
        <time>2020-04-14T19:23:55Z</time>
      </trkpt>
      <trkpt lat="42.7325910" lon="-7.3518510">
        <ele>544.0</ele>
        <time>2020-04-14T19:23:57Z</time>
      </trkpt>
      <trkpt lat="42.7326230" lon="-7.3520000">
        <ele>545.0</ele>
        <time>2020-04-14T19:23:59Z</time>
      </trkpt>
      <trkpt lat="42.7326280" lon="-7.3520640">
        <ele>545.4</ele>
        <time>2020-04-14T19:24:01Z</time>
      </trkpt>
      <trkpt lat="42.7326320" lon="-7.3521270">
        <ele>545.8</ele>
        <time>2020-04-14T19:24:03Z</time>
      </trkpt>
      <trkpt lat="42.7326410" lon="-7.3522550">
        <ele>546.6</ele>
        <time>2020-04-14T19:24:05Z</time>
      </trkpt>
      <trkpt lat="42.7326450" lon="-7.3523180">
        <ele>546.9</ele>
        <time>2020-04-14T19:24:07Z</time>
      </trkpt>
      <trkpt lat="42.7326510" lon="-7.3524170">
        <ele>547.4</ele>
        <time>2020-04-14T19:24:09Z</time>
      </trkpt>
      <trkpt lat="42.7326550" lon="-7.3524800">
        <ele>547.6</ele>
        <time>2020-04-14T19:24:11Z</time>
      </trkpt>
      <trkpt lat="42.7326600" lon="-7.3525790">
        <ele>548.0</ele>
        <time>2020-04-14T19:24:13Z</time>
      </trkpt>
      <trkpt lat="42.7326630" lon="-7.3526410">
        <ele>548.3</ele>
        <time>2020-04-14T19:24:15Z</time>
      </trkpt>
      <trkpt lat="42.7326650" lon="-7.3527040">
        <ele>548.7</ele>
        <time>2020-04-14T19:24:17Z</time>
      </trkpt>
      <trkpt lat="42.7326680" lon="-7.3527670">
        <ele>549.1</ele>
        <time>2020-04-14T19:24:19Z</time>
      </trkpt>
      <trkpt lat="42.7326710" lon="-7.3528290">
        <ele>549.5</ele>
        <time>2020-04-14T19:24:21Z</time>
      </trkpt>
      <trkpt lat="42.7326820" lon="-7.3530140">
        <ele>550.9</ele>
        <time>2020-04-14T19:24:23Z</time>
      </trkpt>
      <trkpt lat="42.7326890" lon="-7.3530830">
        <ele>551.5</ele>
        <time>2020-04-14T19:24:25Z</time>
      </trkpt>
      <trkpt lat="42.7326960" lon="-7.3531540">
        <ele>552.0</ele>
        <time>2020-04-14T19:24:27Z</time>
      </trkpt>
      <trkpt lat="42.7327040" lon="-7.3532260">
        <ele>552.6</ele>
        <time>2020-04-14T19:24:29Z</time>
      </trkpt>
      <trkpt lat="42.7327230" lon="-7.3533880">
        <ele>553.7</ele>
        <time>2020-04-14T19:24:31Z</time>
      </trkpt>
      <trkpt lat="42.7327340" lon="-7.3534590">
        <ele>554.2</ele>
        <time>2020-04-14T19:24:33Z</time>
      </trkpt>
      <trkpt lat="42.7327600" lon="-7.3535860">
        <ele>555.1</ele>
        <time>2020-04-14T19:24:35Z</time>
      </trkpt>
      <trkpt lat="42.7327810" lon="-7.3536530">
        <ele>555.5</ele>
        <time>2020-04-14T19:24:37Z</time>
      </trkpt>
      <trkpt lat="42.7328010" lon="-7.3537200">
        <ele>555.8</ele>
        <time>2020-04-14T19:24:39Z</time>
      </trkpt>
      <trkpt lat="42.7328480" lon="-7.3538630">
        <ele>556.2</ele>
        <time>2020-04-14T19:24:41Z</time>
      </trkpt>
      <trkpt lat="42.7328790" lon="-7.3539210">
        <ele>556.3</ele>
        <time>2020-04-14T19:24:43Z</time>
      </trkpt>
      <trkpt lat="42.7329100" lon="-7.3539800">
        <ele>556.5</ele>
        <time>2020-04-14T19:24:45Z</time>
      </trkpt>
      <trkpt lat="42.7329780" lon="-7.3541070">
        <ele>557.2</ele>
        <time>2020-04-14T19:24:47Z</time>
      </trkpt>
      <trkpt lat="42.7330230" lon="-7.3541650">
        <ele>557.6</ele>
        <time>2020-04-14T19:24:49Z</time>
      </trkpt>
      <trkpt lat="42.7330740" lon="-7.3542310">
        <ele>558.1</ele>
        <time>2020-04-14T19:24:51Z</time>
      </trkpt>
      <trkpt lat="42.7331750" lon="-7.3543560">
        <ele>559.0</ele>
        <time>2020-04-14T19:24:53Z</time>
      </trkpt>
      <trkpt lat="42.7332340" lon="-7.3544260">
        <ele>559.5</ele>
        <time>2020-04-14T19:24:55Z</time>
      </trkpt>
      <trkpt lat="42.7332950" lon="-7.3544970">
        <ele>560.1</ele>
        <time>2020-04-14T19:24:57Z</time>
      </trkpt>
      <trkpt lat="42.7333560" lon="-7.3545680">
        <ele>560.6</ele>
        <time>2020-04-14T19:24:59Z</time>
      </trkpt>
      <trkpt lat="42.7334170" lon="-7.3546400">
        <ele>561.1</ele>
        <time>2020-04-14T19:25:01Z</time>
      </trkpt>
      <trkpt lat="42.7335890" lon="-7.3548410">
        <ele>562.2</ele>
        <time>2020-04-14T19:25:03Z</time>
      </trkpt>
      <trkpt lat="42.7336670" lon="-7.3549330">
        <ele>562.5</ele>
        <time>2020-04-14T19:25:05Z</time>
      </trkpt>
      <trkpt lat="42.7337280" lon="-7.3550050">
        <ele>562.7</ele>
        <time>2020-04-14T19:25:07Z</time>
      </trkpt>
      <trkpt lat="42.7338260" lon="-7.3551210">
        <ele>563.4</ele>
        <time>2020-04-14T19:25:09Z</time>
      </trkpt>
      <trkpt lat="42.7338800" lon="-7.3551850">
        <ele>563.7</ele>
        <time>2020-04-14T19:25:11Z</time>
      </trkpt>
      <trkpt lat="42.7339300" lon="-7.3552440">
        <ele>564.1</ele>
        <time>2020-04-14T19:25:13Z</time>
      </trkpt>
      <trkpt lat="42.7339780" lon="-7.3553000">
        <ele>564.5</ele>
        <time>2020-04-14T19:25:15Z</time>
      </trkpt>
      <trkpt lat="42.7340230" lon="-7.3553530">
        <ele>564.9</ele>
        <time>2020-04-14T19:25:17Z</time>
      </trkpt>
      <trkpt lat="42.7341670" lon="-7.3555250">
        <ele>566.2</ele>
        <time>2020-04-14T19:25:19Z</time>
      </trkpt>
      <trkpt lat="42.7342030" lon="-7.3555830">
        <ele>566.5</ele>
        <time>2020-04-14T19:25:21Z</time>
      </trkpt>
      <trkpt lat="42.7342390" lon="-7.3556410">
        <ele>566.8</ele>
        <time>2020-04-14T19:25:23Z</time>
      </trkpt>
      <trkpt lat="42.7342730" lon="-7.3556960">
        <ele>567.2</ele>
        <time>2020-04-14T19:25:25Z</time>
      </trkpt>
      <trkpt lat="42.7343590" lon="-7.3558340">
        <ele>568.0</ele>
        <time>2020-04-14T19:25:27Z</time>
      </trkpt>
      <trkpt lat="42.7343890" lon="-7.3558940">
        <ele>568.3</ele>
        <time>2020-04-14T19:25:29Z</time>
      </trkpt>
      <trkpt lat="42.7344360" lon="-7.3559960">
        <ele>568.7</ele>
        <time>2020-04-14T19:25:31Z</time>
      </trkpt>
      <trkpt lat="42.7344590" lon="-7.3560600">
        <ele>568.9</ele>
        <time>2020-04-14T19:25:33Z</time>
      </trkpt>
      <trkpt lat="42.7344940" lon="-7.3561650">
        <ele>569.1</ele>
        <time>2020-04-14T19:25:35Z</time>
      </trkpt>
      <trkpt lat="42.7345170" lon="-7.3562400">
        <ele>569.2</ele>
        <time>2020-04-14T19:25:37Z</time>
      </trkpt>
      <trkpt lat="42.7345490" lon="-7.3563690">
        <ele>569.6</ele>
        <time>2020-04-14T19:25:39Z</time>
      </trkpt>
      <trkpt lat="42.7345650" lon="-7.3564510">
        <ele>569.9</ele>
        <time>2020-04-14T19:25:41Z</time>
      </trkpt>
      <trkpt lat="42.7345810" lon="-7.3565350">
        <ele>570.3</ele>
        <time>2020-04-14T19:25:43Z</time>
      </trkpt>
      <trkpt lat="42.7346180" lon="-7.3567270">
        <ele>571.0</ele>
        <time>2020-04-14T19:25:45Z</time>
      </trkpt>
      <trkpt lat="42.7346320" lon="-7.3568120">
        <ele>571.4</ele>
        <time>2020-04-14T19:25:47Z</time>
      </trkpt>
      <trkpt lat="42.7346470" lon="-7.3568980">
        <ele>571.7</ele>
        <time>2020-04-14T19:25:49Z</time>
      </trkpt>
      <trkpt lat="42.7346610" lon="-7.3569850">
        <ele>572.1</ele>
        <time>2020-04-14T19:25:51Z</time>
      </trkpt>
      <trkpt lat="42.7346760" lon="-7.3570700">
        <ele>572.5</ele>
        <time>2020-04-14T19:25:53Z</time>
      </trkpt>
      <trkpt lat="42.7346900" lon="-7.3571540">
        <ele>572.9</ele>
        <time>2020-04-14T19:25:55Z</time>
      </trkpt>
      <trkpt lat="42.7347370" lon="-7.3574330">
        <ele>574.1</ele>
        <time>2020-04-14T19:25:57Z</time>
      </trkpt>
      <trkpt lat="42.7347470" lon="-7.3575300">
        <ele>574.5</ele>
        <time>2020-04-14T19:25:59Z</time>
      </trkpt>
      <trkpt lat="42.7347580" lon="-7.3576390">
        <ele>574.9</ele>
        <time>2020-04-14T19:26:01Z</time>
      </trkpt>
      <trkpt lat="42.7347760" lon="-7.3578560">
        <ele>575.7</ele>
        <time>2020-04-14T19:26:03Z</time>
      </trkpt>
      <trkpt lat="42.7347780" lon="-7.3580340">
        <ele>576.1</ele>
        <time>2020-04-14T19:26:05Z</time>
      </trkpt>
      <trkpt lat="42.7347660" lon="-7.3581610">
        <ele>576.4</ele>
        <time>2020-04-14T19:26:07Z</time>
      </trkpt>
      <trkpt lat="42.7347460" lon="-7.3583300">
        <ele>576.7</ele>
        <time>2020-04-14T19:26:09Z</time>
      </trkpt>
      <trkpt lat="42.7347140" lon="-7.3585070">
        <ele>576.8</ele>
        <time>2020-04-14T19:26:11Z</time>
      </trkpt>
      <trkpt lat="42.7346670" lon="-7.3586830">
        <ele>576.8</ele>
        <time>2020-04-14T19:26:13Z</time>
      </trkpt>
      <trkpt lat="42.7346220" lon="-7.3588020">
        <ele>576.8</ele>
        <time>2020-04-14T19:26:15Z</time>
      </trkpt>
      <trkpt lat="42.7345760" lon="-7.3589280">
        <ele>576.8</ele>
        <time>2020-04-14T19:26:17Z</time>
      </trkpt>
      <trkpt lat="42.7345270" lon="-7.3590570">
        <ele>576.7</ele>
        <time>2020-04-14T19:26:19Z</time>
      </trkpt>
      <trkpt lat="42.7344210" lon="-7.3593440">
        <ele>576.6</ele>
        <time>2020-04-14T19:26:21Z</time>
      </trkpt>
      <trkpt lat="42.7343520" lon="-7.3595330">
        <ele>576.6</ele>
        <time>2020-04-14T19:26:23Z</time>
      </trkpt>
      <trkpt lat="42.7342910" lon="-7.3597230">
        <ele>576.4</ele>
        <time>2020-04-14T19:26:25Z</time>
      </trkpt>
      <trkpt lat="42.7342410" lon="-7.3599400">
        <ele>576.1</ele>
        <time>2020-04-14T19:26:27Z</time>
      </trkpt>
      <trkpt lat="42.7341940" lon="-7.3602040">
        <ele>575.8</ele>
        <time>2020-04-14T19:26:29Z</time>
      </trkpt>
      <trkpt lat="42.7341790" lon="-7.3603730">
        <ele>575.6</ele>
        <time>2020-04-14T19:26:31Z</time>
      </trkpt>
      <trkpt lat="42.7341630" lon="-7.3605480">
        <ele>575.3</ele>
        <time>2020-04-14T19:26:33Z</time>
      </trkpt>
      <trkpt lat="42.7341410" lon="-7.3608600">
        <ele>574.9</ele>
        <time>2020-04-14T19:26:35Z</time>
      </trkpt>
      <trkpt lat="42.7341260" lon="-7.3611700">
        <ele>574.6</ele>
        <time>2020-04-14T19:26:37Z</time>
      </trkpt>
      <trkpt lat="42.7341390" lon="-7.3613530">
        <ele>574.4</ele>
        <time>2020-04-14T19:26:39Z</time>
      </trkpt>
      <trkpt lat="42.7341680" lon="-7.3616480">
        <ele>574.0</ele>
        <time>2020-04-14T19:26:41Z</time>
      </trkpt>
      <trkpt lat="42.7342040" lon="-7.3618280">
        <ele>573.8</ele>
        <time>2020-04-14T19:26:43Z</time>
      </trkpt>
      <trkpt lat="42.7342840" lon="-7.3621000">
        <ele>573.5</ele>
        <time>2020-04-14T19:26:45Z</time>
      </trkpt>
      <trkpt lat="42.7343910" lon="-7.3623300">
        <ele>573.5</ele>
        <time>2020-04-14T19:26:47Z</time>
      </trkpt>
      <trkpt lat="42.7345070" lon="-7.3625460">
        <ele>573.5</ele>
        <time>2020-04-14T19:26:49Z</time>
      </trkpt>
      <trkpt lat="42.7345900" lon="-7.3627010">
        <ele>573.5</ele>
        <time>2020-04-14T19:26:51Z</time>
      </trkpt>
      <trkpt lat="42.7347190" lon="-7.3629260">
        <ele>573.4</ele>
        <time>2020-04-14T19:26:53Z</time>
      </trkpt>
      <trkpt lat="42.7348540" lon="-7.3631490">
        <ele>573.4</ele>
        <time>2020-04-14T19:26:55Z</time>
      </trkpt>
      <trkpt lat="42.7350120" lon="-7.3634040">
        <ele>573.5</ele>
        <time>2020-04-14T19:26:57Z</time>
      </trkpt>
      <trkpt lat="42.7351330" lon="-7.3635930">
        <ele>573.5</ele>
        <time>2020-04-14T19:26:59Z</time>
      </trkpt>
      <trkpt lat="42.7352270" lon="-7.3637430">
        <ele>573.6</ele>
        <time>2020-04-14T19:27:01Z</time>
      </trkpt>
      <trkpt lat="42.7353700" lon="-7.3639700">
        <ele>573.7</ele>
        <time>2020-04-14T19:27:03Z</time>
      </trkpt>
      <trkpt lat="42.7355110" lon="-7.3641910">
        <ele>573.9</ele>
        <time>2020-04-14T19:27:05Z</time>
      </trkpt>
      <trkpt lat="42.7355990" lon="-7.3643140">
        <ele>574.1</ele>
        <time>2020-04-14T19:27:07Z</time>
      </trkpt>
      <trkpt lat="42.7357420" lon="-7.3645130">
        <ele>574.4</ele>
        <time>2020-04-14T19:27:09Z</time>
      </trkpt>
      <trkpt lat="42.7358280" lon="-7.3646320">
        <ele>574.6</ele>
        <time>2020-04-14T19:27:11Z</time>
      </trkpt>
      <trkpt lat="42.7359750" lon="-7.3648130">
        <ele>574.8</ele>
        <time>2020-04-14T19:27:13Z</time>
      </trkpt>
      <trkpt lat="42.7360710" lon="-7.3649130">
        <ele>574.9</ele>
        <time>2020-04-14T19:27:15Z</time>
      </trkpt>
      <trkpt lat="42.7361670" lon="-7.3650130">
        <ele>575.1</ele>
        <time>2020-04-14T19:27:17Z</time>
      </trkpt>
      <trkpt lat="42.7363680" lon="-7.3652230">
        <ele>575.7</ele>
        <time>2020-04-14T19:27:19Z</time>
      </trkpt>
      <trkpt lat="42.7365000" lon="-7.3653610">
        <ele>576.0</ele>
        <time>2020-04-14T19:27:21Z</time>
      </trkpt>
      <trkpt lat="42.7366150" lon="-7.3654780">
        <ele>576.4</ele>
        <time>2020-04-14T19:27:23Z</time>
      </trkpt>
      <trkpt lat="42.7367000" lon="-7.3655650">
        <ele>576.9</ele>
        <time>2020-04-14T19:27:25Z</time>
      </trkpt>
      <trkpt lat="42.7367810" lon="-7.3656480">
        <ele>577.4</ele>
        <time>2020-04-14T19:27:27Z</time>
      </trkpt>
      <trkpt lat="42.7368570" lon="-7.3657260">
        <ele>577.8</ele>
        <time>2020-04-14T19:27:29Z</time>
      </trkpt>
      <trkpt lat="42.7369300" lon="-7.3657990">
        <ele>578.3</ele>
        <time>2020-04-14T19:27:31Z</time>
      </trkpt>
      <trkpt lat="42.7369990" lon="-7.3658700">
        <ele>578.8</ele>
        <time>2020-04-14T19:27:33Z</time>
      </trkpt>
      <trkpt lat="42.7372360" lon="-7.3661120">
        <ele>580.2</ele>
        <time>2020-04-14T19:27:35Z</time>
      </trkpt>
      <trkpt lat="42.7373290" lon="-7.3662070">
        <ele>580.7</ele>
        <time>2020-04-14T19:27:37Z</time>
      </trkpt>
      <trkpt lat="42.7374020" lon="-7.3662810">
        <ele>581.0</ele>
        <time>2020-04-14T19:27:39Z</time>
      </trkpt>
      <trkpt lat="42.7374810" lon="-7.3663610">
        <ele>581.3</ele>
        <time>2020-04-14T19:27:41Z</time>
      </trkpt>
      <trkpt lat="42.7375650" lon="-7.3664460">
        <ele>581.5</ele>
        <time>2020-04-14T19:27:43Z</time>
      </trkpt>
      <trkpt lat="42.7376530" lon="-7.3665350">
        <ele>581.7</ele>
        <time>2020-04-14T19:27:45Z</time>
      </trkpt>
      <trkpt lat="42.7378880" lon="-7.3667730">
        <ele>581.8</ele>
        <time>2020-04-14T19:27:47Z</time>
      </trkpt>
      <trkpt lat="42.7379830" lon="-7.3668690">
        <ele>581.9</ele>
        <time>2020-04-14T19:27:49Z</time>
      </trkpt>
      <trkpt lat="42.7380800" lon="-7.3669680">
        <ele>582.0</ele>
        <time>2020-04-14T19:27:51Z</time>
      </trkpt>
      <trkpt lat="42.7383020" lon="-7.3671940">
        <ele>581.9</ele>
        <time>2020-04-14T19:27:53Z</time>
      </trkpt>
      <trkpt lat="42.7384040" lon="-7.3672980">
        <ele>582.0</ele>
        <time>2020-04-14T19:27:55Z</time>
      </trkpt>
      <trkpt lat="42.7385520" lon="-7.3674490">
        <ele>582.1</ele>
        <time>2020-04-14T19:27:57Z</time>
      </trkpt>
      <trkpt lat="42.7386500" lon="-7.3675490">
        <ele>582.1</ele>
        <time>2020-04-14T19:27:59Z</time>
      </trkpt>
      <trkpt lat="42.7387460" lon="-7.3676460">
        <ele>582.2</ele>
        <time>2020-04-14T19:28:01Z</time>
      </trkpt>
      <trkpt lat="42.7388380" lon="-7.3677400">
        <ele>582.4</ele>
        <time>2020-04-14T19:28:03Z</time>
      </trkpt>
      <trkpt lat="42.7389280" lon="-7.3678320">
        <ele>582.5</ele>
        <time>2020-04-14T19:28:05Z</time>
      </trkpt>
      <trkpt lat="42.7391810" lon="-7.3681060">
        <ele>582.9</ele>
        <time>2020-04-14T19:28:07Z</time>
      </trkpt>
      <trkpt lat="42.7393100" lon="-7.3682780">
        <ele>583.1</ele>
        <time>2020-04-14T19:28:09Z</time>
      </trkpt>
      <trkpt lat="42.7393910" lon="-7.3684230">
        <ele>583.4</ele>
        <time>2020-04-14T19:28:11Z</time>
      </trkpt>
      <trkpt lat="42.7394510" lon="-7.3685270">
        <ele>583.6</ele>
        <time>2020-04-14T19:28:13Z</time>
      </trkpt>
      <trkpt lat="42.7395530" lon="-7.3687060">
        <ele>584.2</ele>
        <time>2020-04-14T19:28:15Z</time>
      </trkpt>
      <trkpt lat="42.7396050" lon="-7.3688070">
        <ele>584.6</ele>
        <time>2020-04-14T19:28:17Z</time>
      </trkpt>
      <trkpt lat="42.7396550" lon="-7.3689060">
        <ele>585.0</ele>
        <time>2020-04-14T19:28:19Z</time>
      </trkpt>
      <trkpt lat="42.7397570" lon="-7.3691060">
        <ele>585.8</ele>
        <time>2020-04-14T19:28:21Z</time>
      </trkpt>
      <trkpt lat="42.7398150" lon="-7.3692180">
        <ele>586.3</ele>
        <time>2020-04-14T19:28:23Z</time>
      </trkpt>
      <trkpt lat="42.7398610" lon="-7.3693060">
        <ele>586.7</ele>
        <time>2020-04-14T19:28:25Z</time>
      </trkpt>
      <trkpt lat="42.7399060" lon="-7.3693920">
        <ele>587.2</ele>
        <time>2020-04-14T19:28:27Z</time>
      </trkpt>
      <trkpt lat="42.7399490" lon="-7.3694730">
        <ele>587.6</ele>
        <time>2020-04-14T19:28:29Z</time>
      </trkpt>
      <trkpt lat="42.7399900" lon="-7.3695530">
        <ele>588.0</ele>
        <time>2020-04-14T19:28:31Z</time>
      </trkpt>
      <trkpt lat="42.7400320" lon="-7.3696320">
        <ele>588.4</ele>
        <time>2020-04-14T19:28:33Z</time>
      </trkpt>
      <trkpt lat="42.7401680" lon="-7.3698870">
        <ele>589.7</ele>
        <time>2020-04-14T19:28:35Z</time>
      </trkpt>
      <trkpt lat="42.7402110" lon="-7.3699590">
        <ele>590.1</ele>
        <time>2020-04-14T19:28:37Z</time>
      </trkpt>
      <trkpt lat="42.7402910" lon="-7.3700810">
        <ele>590.7</ele>
        <time>2020-04-14T19:28:39Z</time>
      </trkpt>
      <trkpt lat="42.7403650" lon="-7.3701750">
        <ele>591.2</ele>
        <time>2020-04-14T19:28:41Z</time>
      </trkpt>
      <trkpt lat="42.7404290" lon="-7.3702520">
        <ele>591.5</ele>
        <time>2020-04-14T19:28:43Z</time>
      </trkpt>
      <trkpt lat="42.7404970" lon="-7.3703290">
        <ele>591.6</ele>
        <time>2020-04-14T19:28:45Z</time>
      </trkpt>
      <trkpt lat="42.7405690" lon="-7.3704080">
        <ele>591.7</ele>
        <time>2020-04-14T19:28:47Z</time>
      </trkpt>
      <trkpt lat="42.7406350" lon="-7.3704570">
        <ele>591.8</ele>
        <time>2020-04-14T19:28:49Z</time>
      </trkpt>
      <trkpt lat="42.7407090" lon="-7.3705120">
        <ele>592.0</ele>
        <time>2020-04-14T19:28:51Z</time>
      </trkpt>
      <trkpt lat="42.7408680" lon="-7.3706260">
        <ele>592.4</ele>
        <time>2020-04-14T19:28:53Z</time>
      </trkpt>
      <trkpt lat="42.7409580" lon="-7.3706750">
        <ele>592.5</ele>
        <time>2020-04-14T19:28:55Z</time>
      </trkpt>
      <trkpt lat="42.7410520" lon="-7.3707270">
        <ele>592.6</ele>
        <time>2020-04-14T19:28:57Z</time>
      </trkpt>
      <trkpt lat="42.7412300" lon="-7.3708210">
        <ele>592.6</ele>
        <time>2020-04-14T19:28:59Z</time>
      </trkpt>
      <trkpt lat="42.7413340" lon="-7.3708730">
        <ele>592.6</ele>
        <time>2020-04-14T19:29:01Z</time>
      </trkpt>
      <trkpt lat="42.7415410" lon="-7.3709760">
        <ele>592.4</ele>
        <time>2020-04-14T19:29:03Z</time>
      </trkpt>
      <trkpt lat="42.7416710" lon="-7.3710430">
        <ele>592.3</ele>
        <time>2020-04-14T19:29:05Z</time>
      </trkpt>
      <trkpt lat="42.7417810" lon="-7.3711000">
        <ele>592.3</ele>
        <time>2020-04-14T19:29:07Z</time>
      </trkpt>
      <trkpt lat="42.7418940" lon="-7.3711590">
        <ele>592.2</ele>
        <time>2020-04-14T19:29:09Z</time>
      </trkpt>
      <trkpt lat="42.7421370" lon="-7.3712840">
        <ele>592.0</ele>
        <time>2020-04-14T19:29:11Z</time>
      </trkpt>
      <trkpt lat="42.7422520" lon="-7.3713420">
        <ele>591.9</ele>
        <time>2020-04-14T19:29:13Z</time>
      </trkpt>
      <trkpt lat="42.7424430" lon="-7.3714390">
        <ele>591.6</ele>
        <time>2020-04-14T19:29:15Z</time>
      </trkpt>
      <trkpt lat="42.7425690" lon="-7.3715030">
        <ele>591.1</ele>
        <time>2020-04-14T19:29:17Z</time>
      </trkpt>
      <trkpt lat="42.7427050" lon="-7.3715710">
        <ele>590.6</ele>
        <time>2020-04-14T19:29:19Z</time>
      </trkpt>
      <trkpt lat="42.7428480" lon="-7.3716440">
        <ele>590.0</ele>
        <time>2020-04-14T19:29:21Z</time>
      </trkpt>
      <trkpt lat="42.7432010" lon="-7.3718220">
        <ele>588.4</ele>
        <time>2020-04-14T19:29:23Z</time>
      </trkpt>
      <trkpt lat="42.7433590" lon="-7.3719020">
        <ele>587.5</ele>
        <time>2020-04-14T19:29:25Z</time>
      </trkpt>
      <trkpt lat="42.7435210" lon="-7.3719850">
        <ele>586.4</ele>
        <time>2020-04-14T19:29:27Z</time>
      </trkpt>
      <trkpt lat="42.7438680" lon="-7.3721620">
        <ele>584.2</ele>
        <time>2020-04-14T19:29:29Z</time>
      </trkpt>
      <trkpt lat="42.7440630" lon="-7.3722640">
        <ele>582.8</ele>
        <time>2020-04-14T19:29:31Z</time>
      </trkpt>
      <trkpt lat="42.7442400" lon="-7.3723580">
        <ele>581.5</ele>
        <time>2020-04-14T19:29:33Z</time>
      </trkpt>
      <trkpt lat="42.7444250" lon="-7.3724550">
        <ele>579.9</ele>
        <time>2020-04-14T19:29:35Z</time>
      </trkpt>
      <trkpt lat="42.7448150" lon="-7.3726600">
        <ele>576.9</ele>
        <time>2020-04-14T19:29:37Z</time>
      </trkpt>
      <trkpt lat="42.7451230" lon="-7.3728220">
        <ele>575.4</ele>
        <time>2020-04-14T19:29:39Z</time>
      </trkpt>
      <trkpt lat="42.7453620" lon="-7.3729440">
        <ele>574.3</ele>
        <time>2020-04-14T19:29:41Z</time>
      </trkpt>
      <trkpt lat="42.7456040" lon="-7.3730710">
        <ele>573.0</ele>
        <time>2020-04-14T19:29:43Z</time>
      </trkpt>
      <trkpt lat="42.7458050" lon="-7.3731760">
        <ele>571.1</ele>
        <time>2020-04-14T19:29:45Z</time>
      </trkpt>
      <trkpt lat="42.7462180" lon="-7.3733900">
        <ele>567.1</ele>
        <time>2020-04-14T19:29:47Z</time>
      </trkpt>
      <trkpt lat="42.7465030" lon="-7.3734900">
        <ele>564.9</ele>
        <time>2020-04-14T19:29:49Z</time>
      </trkpt>
      <trkpt lat="42.7467570" lon="-7.3734860">
        <ele>563.7</ele>
        <time>2020-04-14T19:29:51Z</time>
      </trkpt>
      <trkpt lat="42.7470610" lon="-7.3733980">
        <ele>562.1</ele>
        <time>2020-04-14T19:29:53Z</time>
      </trkpt>
      <trkpt lat="42.7472740" lon="-7.3732980">
        <ele>560.9</ele>
        <time>2020-04-14T19:29:55Z</time>
      </trkpt>
      <trkpt lat="42.7475860" lon="-7.3731670">
        <ele>560.2</ele>
        <time>2020-04-14T19:29:57Z</time>
      </trkpt>
      <trkpt lat="42.7478510" lon="-7.3731460">
        <ele>558.9</ele>
        <time>2020-04-14T19:29:59Z</time>
      </trkpt>
      <trkpt lat="42.7480840" lon="-7.3732160">
        <ele>557.6</ele>
        <time>2020-04-14T19:30:01Z</time>
      </trkpt>
      <trkpt lat="42.7483500" lon="-7.3733760">
        <ele>556.1</ele>
        <time>2020-04-14T19:30:03Z</time>
      </trkpt>
      <trkpt lat="42.7485300" lon="-7.3735760">
        <ele>555.2</ele>
        <time>2020-04-14T19:30:05Z</time>
      </trkpt>
      <trkpt lat="42.7486930" lon="-7.3738230">
        <ele>554.4</ele>
        <time>2020-04-14T19:30:07Z</time>
      </trkpt>
      <trkpt lat="42.7488780" lon="-7.3741590">
        <ele>552.3</ele>
        <time>2020-04-14T19:30:09Z</time>
      </trkpt>
      <trkpt lat="42.7490360" lon="-7.3744600">
        <ele>550.3</ele>
        <time>2020-04-14T19:30:11Z</time>
      </trkpt>
      <trkpt lat="42.7491860" lon="-7.3747500">
        <ele>548.1</ele>
        <time>2020-04-14T19:30:13Z</time>
      </trkpt>
      <trkpt lat="42.7493090" lon="-7.3749890">
        <ele>546.5</ele>
        <time>2020-04-14T19:30:15Z</time>
      </trkpt>
      <trkpt lat="42.7495290" lon="-7.3754130">
        <ele>543.6</ele>
        <time>2020-04-14T19:30:17Z</time>
      </trkpt>
      <trkpt lat="42.7496850" lon="-7.3757130">
        <ele>541.6</ele>
        <time>2020-04-14T19:30:19Z</time>
      </trkpt>
      <trkpt lat="42.7498740" lon="-7.3761020">
        <ele>539.2</ele>
        <time>2020-04-14T19:30:21Z</time>
      </trkpt>
      <trkpt lat="42.7500340" lon="-7.3765020">
        <ele>536.7</ele>
        <time>2020-04-14T19:30:23Z</time>
      </trkpt>
      <trkpt lat="42.7501110" lon="-7.3769290">
        <ele>535.5</ele>
        <time>2020-04-14T19:30:25Z</time>
      </trkpt>
      <trkpt lat="42.7500960" lon="-7.3773640">
        <ele>533.3</ele>
        <time>2020-04-14T19:30:27Z</time>
      </trkpt>
      <trkpt lat="42.7500290" lon="-7.3777230">
        <ele>531.5</ele>
        <time>2020-04-14T19:30:29Z</time>
      </trkpt>
      <trkpt lat="42.7499420" lon="-7.3780960">
        <ele>530.2</ele>
        <time>2020-04-14T19:30:31Z</time>
      </trkpt>
      <trkpt lat="42.7498710" lon="-7.3783870">
        <ele>528.7</ele>
        <time>2020-04-14T19:30:33Z</time>
      </trkpt>
      <trkpt lat="42.7497500" lon="-7.3788870">
        <ele>526.1</ele>
        <time>2020-04-14T19:30:35Z</time>
      </trkpt>
      <trkpt lat="42.7496760" lon="-7.3791880">
        <ele>524.4</ele>
        <time>2020-04-14T19:30:37Z</time>
      </trkpt>
      <trkpt lat="42.7495340" lon="-7.3797670">
        <ele>522.5</ele>
        <time>2020-04-14T19:30:39Z</time>
      </trkpt>
      <trkpt lat="42.7494180" lon="-7.3802200">
        <ele>519.8</ele>
        <time>2020-04-14T19:30:41Z</time>
      </trkpt>
      <trkpt lat="42.7493480" lon="-7.3806220">
        <ele>516.9</ele>
        <time>2020-04-14T19:30:43Z</time>
      </trkpt>
      <trkpt lat="42.7493070" lon="-7.3810510">
        <ele>513.8</ele>
        <time>2020-04-14T19:30:45Z</time>
      </trkpt>
      <trkpt lat="42.7493240" lon="-7.3814890">
        <ele>511.9</ele>
        <time>2020-04-14T19:30:47Z</time>
      </trkpt>
      <trkpt lat="42.7493780" lon="-7.3818620">
        <ele>509.3</ele>
        <time>2020-04-14T19:30:49Z</time>
      </trkpt>
      <trkpt lat="42.7495090" lon="-7.3822750">
        <ele>505.6</ele>
        <time>2020-04-14T19:30:51Z</time>
      </trkpt>
      <trkpt lat="42.7497080" lon="-7.3825890">
        <ele>502.4</ele>
        <time>2020-04-14T19:30:53Z</time>
      </trkpt>
      <trkpt lat="42.7500060" lon="-7.3828560">
        <ele>499.3</ele>
        <time>2020-04-14T19:30:55Z</time>
      </trkpt>
      <trkpt lat="42.7502920" lon="-7.3829840">
        <ele>497.6</ele>
        <time>2020-04-14T19:30:57Z</time>
      </trkpt>
      <trkpt lat="42.7506530" lon="-7.3831270">
        <ele>494.5</ele>
        <time>2020-04-14T19:30:59Z</time>
      </trkpt>
      <trkpt lat="42.7508950" lon="-7.3832280">
        <ele>492.5</ele>
        <time>2020-04-14T19:31:01Z</time>
      </trkpt>
      <trkpt lat="42.7512930" lon="-7.3834490">
        <ele>489.2</ele>
        <time>2020-04-14T19:31:03Z</time>
      </trkpt>
      <trkpt lat="42.7515870" lon="-7.3837400">
        <ele>486.8</ele>
        <time>2020-04-14T19:31:05Z</time>
      </trkpt>
      <trkpt lat="42.7518450" lon="-7.3840190">
        <ele>483.7</ele>
        <time>2020-04-14T19:31:07Z</time>
      </trkpt>
      <trkpt lat="42.7522010" lon="-7.3841120">
        <ele>480.2</ele>
        <time>2020-04-14T19:31:09Z</time>
      </trkpt>
      <trkpt lat="42.7524900" lon="-7.3838750">
        <ele>478.1</ele>
        <time>2020-04-14T19:31:11Z</time>
      </trkpt>
      <trkpt lat="42.7526630" lon="-7.3835880">
        <ele>476.6</ele>
        <time>2020-04-14T19:31:13Z</time>
      </trkpt>
      <trkpt lat="42.7529210" lon="-7.3832560">
        <ele>473.6</ele>
        <time>2020-04-14T19:31:15Z</time>
      </trkpt>
      <trkpt lat="42.7532040" lon="-7.3830410">
        <ele>471.0</ele>
        <time>2020-04-14T19:31:17Z</time>
      </trkpt>
      <trkpt lat="42.7535200" lon="-7.3829290">
        <ele>468.4</ele>
        <time>2020-04-14T19:31:19Z</time>
      </trkpt>
      <trkpt lat="42.7538480" lon="-7.3829240">
        <ele>465.7</ele>
        <time>2020-04-14T19:31:21Z</time>
      </trkpt>
      <trkpt lat="42.7541920" lon="-7.3830310">
        <ele>462.0</ele>
        <time>2020-04-14T19:31:23Z</time>
      </trkpt>
      <trkpt lat="42.7545210" lon="-7.3832880">
        <ele>453.4</ele>
        <time>2020-04-14T19:31:25Z</time>
      </trkpt>
      <trkpt lat="42.7547590" lon="-7.3836460">
        <ele>453.1</ele>
        <time>2020-04-14T19:31:27Z</time>
      </trkpt>
      <trkpt lat="42.7549000" lon="-7.3840230">
        <ele>452.9</ele>
        <time>2020-04-14T19:31:29Z</time>
      </trkpt>
      <trkpt lat="42.7549850" lon="-7.3843980">
        <ele>453.5</ele>
        <time>2020-04-14T19:31:31Z</time>
      </trkpt>
      <trkpt lat="42.7550670" lon="-7.3847960">
        <ele>453.7</ele>
        <time>2020-04-14T19:31:33Z</time>
      </trkpt>
      <trkpt lat="42.7551180" lon="-7.3850440">
        <ele>454.3</ele>
        <time>2020-04-14T19:31:35Z</time>
      </trkpt>
      <trkpt lat="42.7552000" lon="-7.3854450">
        <ele>454.7</ele>
        <time>2020-04-14T19:31:37Z</time>
      </trkpt>
      <trkpt lat="42.7552560" lon="-7.3857190">
        <ele>454.8</ele>
        <time>2020-04-14T19:31:39Z</time>
      </trkpt>
      <trkpt lat="42.7552980" lon="-7.3859230">
        <ele>454.8</ele>
        <time>2020-04-14T19:31:41Z</time>
      </trkpt>
      <trkpt lat="42.7553750" lon="-7.3862100">
        <ele>454.6</ele>
        <time>2020-04-14T19:31:43Z</time>
      </trkpt>
      <trkpt lat="42.7554840" lon="-7.3864830">
        <ele>454.3</ele>
        <time>2020-04-14T19:31:45Z</time>
      </trkpt>
      <trkpt lat="42.7556220" lon="-7.3866850">
        <ele>454.1</ele>
        <time>2020-04-14T19:31:47Z</time>
      </trkpt>
      <trkpt lat="42.7557950" lon="-7.3868510">
        <ele>454.0</ele>
        <time>2020-04-14T19:31:49Z</time>
      </trkpt>
      <trkpt lat="42.7559250" lon="-7.3869650">
        <ele>454.1</ele>
        <time>2020-04-14T19:31:51Z</time>
      </trkpt>
      <trkpt lat="42.7561740" lon="-7.3871780">
        <ele>454.2</ele>
        <time>2020-04-14T19:31:53Z</time>
      </trkpt>
      <trkpt lat="42.7563070" lon="-7.3872880">
        <ele>454.2</ele>
        <time>2020-04-14T19:31:55Z</time>
      </trkpt>
      <trkpt lat="42.7564400" lon="-7.3873980">
        <ele>454.3</ele>
        <time>2020-04-14T19:31:57Z</time>
      </trkpt>
      <trkpt lat="42.7566910" lon="-7.3876070">
        <ele>454.4</ele>
        <time>2020-04-14T19:31:59Z</time>
      </trkpt>
      <trkpt lat="42.7568210" lon="-7.3877150">
        <ele>454.5</ele>
        <time>2020-04-14T19:32:01Z</time>
      </trkpt>
      <trkpt lat="42.7570660" lon="-7.3879200">
        <ele>454.6</ele>
        <time>2020-04-14T19:32:03Z</time>
      </trkpt>
      <trkpt lat="42.7572190" lon="-7.3880500">
        <ele>454.7</ele>
        <time>2020-04-14T19:32:05Z</time>
      </trkpt>
      <trkpt lat="42.7573910" lon="-7.3882050">
        <ele>454.8</ele>
        <time>2020-04-14T19:32:07Z</time>
      </trkpt>
      <trkpt lat="42.7575700" lon="-7.3884110">
        <ele>455.0</ele>
        <time>2020-04-14T19:32:09Z</time>
      </trkpt>
      <trkpt lat="42.7576730" lon="-7.3886030">
        <ele>455.3</ele>
        <time>2020-04-14T19:32:11Z</time>
      </trkpt>
      <trkpt lat="42.7577720" lon="-7.3888520">
        <ele>455.8</ele>
        <time>2020-04-14T19:32:13Z</time>
      </trkpt>
      <trkpt lat="42.7578190" lon="-7.3890570">
        <ele>456.1</ele>
        <time>2020-04-14T19:32:15Z</time>
      </trkpt>
      <trkpt lat="42.7578570" lon="-7.3892870">
        <ele>456.3</ele>
        <time>2020-04-14T19:32:17Z</time>
      </trkpt>
      <trkpt lat="42.7578810" lon="-7.3894520">
        <ele>456.4</ele>
        <time>2020-04-14T19:32:19Z</time>
      </trkpt>
      <trkpt lat="42.7579190" lon="-7.3897090">
        <ele>456.6</ele>
        <time>2020-04-14T19:32:21Z</time>
      </trkpt>
      <trkpt lat="42.7579670" lon="-7.3899550">
        <ele>456.8</ele>
        <time>2020-04-14T19:32:23Z</time>
      </trkpt>
      <trkpt lat="42.7580420" lon="-7.3901800">
        <ele>457.0</ele>
        <time>2020-04-14T19:32:25Z</time>
      </trkpt>
      <trkpt lat="42.7581480" lon="-7.3904050">
        <ele>457.3</ele>
        <time>2020-04-14T19:32:27Z</time>
      </trkpt>
      <trkpt lat="42.7582390" lon="-7.3905380">
        <ele>457.5</ele>
        <time>2020-04-14T19:32:29Z</time>
      </trkpt>
      <trkpt lat="42.7583920" lon="-7.3907150">
        <ele>457.9</ele>
        <time>2020-04-14T19:32:31Z</time>
      </trkpt>
      <trkpt lat="42.7585510" lon="-7.3908450">
        <ele>458.3</ele>
        <time>2020-04-14T19:32:33Z</time>
      </trkpt>
      <trkpt lat="42.7586630" lon="-7.3909280">
        <ele>458.7</ele>
        <time>2020-04-14T19:32:35Z</time>
      </trkpt>
      <trkpt lat="42.7588600" lon="-7.3910690">
        <ele>459.4</ele>
        <time>2020-04-14T19:32:37Z</time>
      </trkpt>
      <trkpt lat="42.7589650" lon="-7.3911340">
        <ele>459.8</ele>
        <time>2020-04-14T19:32:39Z</time>
      </trkpt>
      <trkpt lat="42.7590650" lon="-7.3911950">
        <ele>460.1</ele>
        <time>2020-04-14T19:32:41Z</time>
      </trkpt>
      <trkpt lat="42.7591610" lon="-7.3912550">
        <ele>460.4</ele>
        <time>2020-04-14T19:32:43Z</time>
      </trkpt>
      <trkpt lat="42.7594070" lon="-7.3914070">
        <ele>461.4</ele>
        <time>2020-04-14T19:32:45Z</time>
      </trkpt>
      <trkpt lat="42.7594950" lon="-7.3914610">
        <ele>461.7</ele>
        <time>2020-04-14T19:32:47Z</time>
      </trkpt>
      <trkpt lat="42.7595790" lon="-7.3915120">
        <ele>462.0</ele>
        <time>2020-04-14T19:32:49Z</time>
      </trkpt>
      <trkpt lat="42.7596580" lon="-7.3915610">
        <ele>462.3</ele>
        <time>2020-04-14T19:32:51Z</time>
      </trkpt>
      <trkpt lat="42.7597340" lon="-7.3916080">
        <ele>462.6</ele>
        <time>2020-04-14T19:32:53Z</time>
      </trkpt>
      <trkpt lat="42.7599380" lon="-7.3917220">
        <ele>463.2</ele>
        <time>2020-04-14T19:32:55Z</time>
      </trkpt>
      <trkpt lat="42.7600410" lon="-7.3917560">
        <ele>463.4</ele>
        <time>2020-04-14T19:32:57Z</time>
      </trkpt>
      <trkpt lat="42.7601480" lon="-7.3917710">
        <ele>463.8</ele>
        <time>2020-04-14T19:32:59Z</time>
      </trkpt>
      <trkpt lat="42.7602230" lon="-7.3917740">
        <ele>464.0</ele>
        <time>2020-04-14T19:33:01Z</time>
      </trkpt>
      <trkpt lat="42.7603500" lon="-7.3917660">
        <ele>464.3</ele>
        <time>2020-04-14T19:33:03Z</time>
      </trkpt>
      <trkpt lat="42.7604500" lon="-7.3917420">
        <ele>464.6</ele>
        <time>2020-04-14T19:33:05Z</time>
      </trkpt>
      <trkpt lat="42.7605450" lon="-7.3917130">
        <ele>464.8</ele>
        <time>2020-04-14T19:33:07Z</time>
      </trkpt>
      <trkpt lat="42.7606380" lon="-7.3916690">
        <ele>465.0</ele>
        <time>2020-04-14T19:33:09Z</time>
      </trkpt>
      <trkpt lat="42.7607360" lon="-7.3916030">
        <ele>465.3</ele>
        <time>2020-04-14T19:33:11Z</time>
      </trkpt>
      <trkpt lat="42.7608340" lon="-7.3915210">
        <ele>465.7</ele>
        <time>2020-04-14T19:33:13Z</time>
      </trkpt>
      <trkpt lat="42.7608960" lon="-7.3914570">
        <ele>466.1</ele>
        <time>2020-04-14T19:33:15Z</time>
      </trkpt>
      <trkpt lat="42.7609580" lon="-7.3913930">
        <ele>466.5</ele>
        <time>2020-04-14T19:33:17Z</time>
      </trkpt>
      <trkpt lat="42.7610200" lon="-7.3913290">
        <ele>466.8</ele>
        <time>2020-04-14T19:33:19Z</time>
      </trkpt>
      <trkpt lat="42.7610820" lon="-7.3912640">
        <ele>467.2</ele>
        <time>2020-04-14T19:33:21Z</time>
      </trkpt>
      <trkpt lat="42.7612470" lon="-7.3910950">
        <ele>468.2</ele>
        <time>2020-04-14T19:33:23Z</time>
      </trkpt>
      <trkpt lat="42.7613310" lon="-7.3910100">
        <ele>468.7</ele>
        <time>2020-04-14T19:33:25Z</time>
      </trkpt>
      <trkpt lat="42.7613930" lon="-7.3909470">
        <ele>469.1</ele>
        <time>2020-04-14T19:33:27Z</time>
      </trkpt>
      <trkpt lat="42.7614560" lon="-7.3908840">
        <ele>469.4</ele>
        <time>2020-04-14T19:33:29Z</time>
      </trkpt>
      <trkpt lat="42.7615160" lon="-7.3908230">
        <ele>469.8</ele>
        <time>2020-04-14T19:33:31Z</time>
      </trkpt>
      <trkpt lat="42.7615760" lon="-7.3907630">
        <ele>470.1</ele>
        <time>2020-04-14T19:33:33Z</time>
      </trkpt>
      <trkpt lat="42.7617620" lon="-7.3905770">
        <ele>471.4</ele>
        <time>2020-04-14T19:33:35Z</time>
      </trkpt>
      <trkpt lat="42.7618280" lon="-7.3905290">
        <ele>471.9</ele>
        <time>2020-04-14T19:33:37Z</time>
      </trkpt>
      <trkpt lat="42.7619390" lon="-7.3904480">
        <ele>472.7</ele>
        <time>2020-04-14T19:33:39Z</time>
      </trkpt>
      <trkpt lat="42.7620350" lon="-7.3903870">
        <ele>473.4</ele>
        <time>2020-04-14T19:33:41Z</time>
      </trkpt>
      <trkpt lat="42.7621070" lon="-7.3903580">
        <ele>473.8</ele>
        <time>2020-04-14T19:33:43Z</time>
      </trkpt>
      <trkpt lat="42.7622270" lon="-7.3903090">
        <ele>474.5</ele>
        <time>2020-04-14T19:33:45Z</time>
      </trkpt>
      <trkpt lat="42.7623030" lon="-7.3902960">
        <ele>474.8</ele>
        <time>2020-04-14T19:33:47Z</time>
      </trkpt>
      <trkpt lat="42.7624180" lon="-7.3902860">
        <ele>475.2</ele>
        <time>2020-04-14T19:33:49Z</time>
      </trkpt>
      <trkpt lat="42.7624940" lon="-7.3902930">
        <ele>475.6</ele>
        <time>2020-04-14T19:33:51Z</time>
      </trkpt>
      <trkpt lat="42.7626210" lon="-7.3903170">
        <ele>476.3</ele>
        <time>2020-04-14T19:33:53Z</time>
      </trkpt>
      <trkpt lat="42.7626990" lon="-7.3903450">
        <ele>476.7</ele>
        <time>2020-04-14T19:33:55Z</time>
      </trkpt>
      <trkpt lat="42.7628290" lon="-7.3904000">
        <ele>477.5</ele>
        <time>2020-04-14T19:33:57Z</time>
      </trkpt>
      <trkpt lat="42.7629390" lon="-7.3904660">
        <ele>478.1</ele>
        <time>2020-04-14T19:33:59Z</time>
      </trkpt>
      <trkpt lat="42.7630080" lon="-7.3905250">
        <ele>478.6</ele>
        <time>2020-04-14T19:34:01Z</time>
      </trkpt>
      <trkpt lat="42.7631190" lon="-7.3906300">
        <ele>479.3</ele>
        <time>2020-04-14T19:34:03Z</time>
      </trkpt>
      <trkpt lat="42.7631790" lon="-7.3907040">
        <ele>479.7</ele>
        <time>2020-04-14T19:34:05Z</time>
      </trkpt>
      <trkpt lat="42.7632620" lon="-7.3908320">
        <ele>480.3</ele>
        <time>2020-04-14T19:34:07Z</time>
      </trkpt>
      <trkpt lat="42.7633060" lon="-7.3909150">
        <ele>480.7</ele>
        <time>2020-04-14T19:34:09Z</time>
      </trkpt>
      <trkpt lat="42.7633800" lon="-7.3910560">
        <ele>481.4</ele>
        <time>2020-04-14T19:34:11Z</time>
      </trkpt>
      <trkpt lat="42.7634290" lon="-7.3911760">
        <ele>481.8</ele>
        <time>2020-04-14T19:34:13Z</time>
      </trkpt>
      <trkpt lat="42.7634600" lon="-7.3912590">
        <ele>482.1</ele>
        <time>2020-04-14T19:34:15Z</time>
      </trkpt>
      <trkpt lat="42.7635150" lon="-7.3914040">
        <ele>482.6</ele>
        <time>2020-04-14T19:34:17Z</time>
      </trkpt>
      <trkpt lat="42.7635450" lon="-7.3914840">
        <ele>483.0</ele>
        <time>2020-04-14T19:34:19Z</time>
      </trkpt>
      <trkpt lat="42.7635750" lon="-7.3915640">
        <ele>483.5</ele>
        <time>2020-04-14T19:34:21Z</time>
      </trkpt>
      <trkpt lat="42.7636050" lon="-7.3916430">
        <ele>484.0</ele>
        <time>2020-04-14T19:34:23Z</time>
      </trkpt>
      <trkpt lat="42.7636350" lon="-7.3917210">
        <ele>484.6</ele>
        <time>2020-04-14T19:34:25Z</time>
      </trkpt>
      <trkpt lat="42.7637150" lon="-7.3919460">
        <ele>485.7</ele>
        <time>2020-04-14T19:34:27Z</time>
      </trkpt>
      <trkpt lat="42.7637450" lon="-7.3920360">
        <ele>485.9</ele>
        <time>2020-04-14T19:34:29Z</time>
      </trkpt>
      <trkpt lat="42.7638020" lon="-7.3922100">
        <ele>486.7</ele>
        <time>2020-04-14T19:34:31Z</time>
      </trkpt>
      <trkpt lat="42.7638330" lon="-7.3923060">
        <ele>487.2</ele>
        <time>2020-04-14T19:34:33Z</time>
      </trkpt>
      <trkpt lat="42.7638650" lon="-7.3924020">
        <ele>487.7</ele>
        <time>2020-04-14T19:34:35Z</time>
      </trkpt>
      <trkpt lat="42.7638970" lon="-7.3924980">
        <ele>488.2</ele>
        <time>2020-04-14T19:34:37Z</time>
      </trkpt>
      <trkpt lat="42.7639300" lon="-7.3925950">
        <ele>488.7</ele>
        <time>2020-04-14T19:34:39Z</time>
      </trkpt>
      <trkpt lat="42.7639620" lon="-7.3926920">
        <ele>489.1</ele>
        <time>2020-04-14T19:34:41Z</time>
      </trkpt>
      <trkpt lat="42.7640500" lon="-7.3929760">
        <ele>489.9</ele>
        <time>2020-04-14T19:34:43Z</time>
      </trkpt>
      <trkpt lat="42.7640760" lon="-7.3930750">
        <ele>489.9</ele>
        <time>2020-04-14T19:34:45Z</time>
      </trkpt>
      <trkpt lat="42.7641310" lon="-7.3932670">
        <ele>490.1</ele>
        <time>2020-04-14T19:34:47Z</time>
      </trkpt>
      <trkpt lat="42.7641770" lon="-7.3933930">
        <ele>490.1</ele>
        <time>2020-04-14T19:34:49Z</time>
      </trkpt>
      <trkpt lat="42.7642410" lon="-7.3935480">
        <ele>490.1</ele>
        <time>2020-04-14T19:34:51Z</time>
      </trkpt>
      <trkpt lat="42.7643290" lon="-7.3937260">
        <ele>490.2</ele>
        <time>2020-04-14T19:34:53Z</time>
      </trkpt>
      <trkpt lat="42.7644320" lon="-7.3938970">
        <ele>490.3</ele>
        <time>2020-04-14T19:34:55Z</time>
      </trkpt>
      <trkpt lat="42.7645140" lon="-7.3940200">
        <ele>490.4</ele>
        <time>2020-04-14T19:34:57Z</time>
      </trkpt>
      <trkpt lat="42.7646840" lon="-7.3942040">
        <ele>490.2</ele>
        <time>2020-04-14T19:34:59Z</time>
      </trkpt>
      <trkpt lat="42.7648230" lon="-7.3943090">
        <ele>489.5</ele>
        <time>2020-04-14T19:35:01Z</time>
      </trkpt>
      <trkpt lat="42.7649460" lon="-7.3943950">
        <ele>488.7</ele>
        <time>2020-04-14T19:35:03Z</time>
      </trkpt>
      <trkpt lat="42.7651600" lon="-7.3945380">
        <ele>487.3</ele>
        <time>2020-04-14T19:35:05Z</time>
      </trkpt>
      <trkpt lat="42.7652940" lon="-7.3946220">
        <ele>486.4</ele>
        <time>2020-04-14T19:35:07Z</time>
      </trkpt>
      <trkpt lat="42.7655010" lon="-7.3947860">
        <ele>484.9</ele>
        <time>2020-04-14T19:35:09Z</time>
      </trkpt>
      <trkpt lat="42.7656980" lon="-7.3949920">
        <ele>484.4</ele>
        <time>2020-04-14T19:35:11Z</time>
      </trkpt>
      <trkpt lat="42.7658510" lon="-7.3952130">
        <ele>483.4</ele>
        <time>2020-04-14T19:35:13Z</time>
      </trkpt>
      <trkpt lat="42.7659670" lon="-7.3954790">
        <ele>482.3</ele>
        <time>2020-04-14T19:35:15Z</time>
      </trkpt>
      <trkpt lat="42.7660350" lon="-7.3957520">
        <ele>481.2</ele>
        <time>2020-04-14T19:35:17Z</time>
      </trkpt>
      <trkpt lat="42.7660930" lon="-7.3960700">
        <ele>479.9</ele>
        <time>2020-04-14T19:35:19Z</time>
      </trkpt>
      <trkpt lat="42.7661470" lon="-7.3964110">
        <ele>478.4</ele>
        <time>2020-04-14T19:35:21Z</time>
      </trkpt>
      <trkpt lat="42.7662090" lon="-7.3967620">
        <ele>476.8</ele>
        <time>2020-04-14T19:35:23Z</time>
      </trkpt>
      <trkpt lat="42.7663150" lon="-7.3971660">
        <ele>474.7</ele>
        <time>2020-04-14T19:35:25Z</time>
      </trkpt>
      <trkpt lat="42.7664560" lon="-7.3974520">
        <ele>473.1</ele>
        <time>2020-04-14T19:35:27Z</time>
      </trkpt>
      <trkpt lat="42.7666830" lon="-7.3977610">
        <ele>471.1</ele>
        <time>2020-04-14T19:35:29Z</time>
      </trkpt>
      <trkpt lat="42.7669230" lon="-7.3979460">
        <ele>469.5</ele>
        <time>2020-04-14T19:35:31Z</time>
      </trkpt>
      <trkpt lat="42.7671820" lon="-7.3980570">
        <ele>467.9</ele>
        <time>2020-04-14T19:35:33Z</time>
      </trkpt>
      <trkpt lat="42.7674190" lon="-7.3980970">
        <ele>466.7</ele>
        <time>2020-04-14T19:35:35Z</time>
      </trkpt>
      <trkpt lat="42.7676950" lon="-7.3980620">
        <ele>465.6</ele>
        <time>2020-04-14T19:35:37Z</time>
      </trkpt>
      <trkpt lat="42.7679640" lon="-7.3979900">
        <ele>463.6</ele>
        <time>2020-04-14T19:35:39Z</time>
      </trkpt>
      <trkpt lat="42.7681630" lon="-7.3979180">
        <ele>462.0</ele>
        <time>2020-04-14T19:35:41Z</time>
      </trkpt>
      <trkpt lat="42.7684810" lon="-7.3978020">
        <ele>459.4</ele>
        <time>2020-04-14T19:35:43Z</time>
      </trkpt>
      <trkpt lat="42.7688080" lon="-7.3976890">
        <ele>456.9</ele>
        <time>2020-04-14T19:35:45Z</time>
      </trkpt>
      <trkpt lat="42.7691050" lon="-7.3976330">
        <ele>454.8</ele>
        <time>2020-04-14T19:35:47Z</time>
      </trkpt>
      <trkpt lat="42.7694080" lon="-7.3976690">
        <ele>452.3</ele>
        <time>2020-04-14T19:35:49Z</time>
      </trkpt>
      <trkpt lat="42.7697230" lon="-7.3977630">
        <ele>450.1</ele>
        <time>2020-04-14T19:35:51Z</time>
      </trkpt>
      <trkpt lat="42.7699430" lon="-7.3978410">
        <ele>449.2</ele>
        <time>2020-04-14T19:35:53Z</time>
      </trkpt>
      <trkpt lat="42.7703070" lon="-7.3979700">
        <ele>447.9</ele>
        <time>2020-04-14T19:35:55Z</time>
      </trkpt>
      <trkpt lat="42.7705930" lon="-7.3980680">
        <ele>446.6</ele>
        <time>2020-04-14T19:35:57Z</time>
      </trkpt>
      <trkpt lat="42.7708090" lon="-7.3981430">
        <ele>445.5</ele>
        <time>2020-04-14T19:35:59Z</time>
      </trkpt>
      <trkpt lat="42.7710160" lon="-7.3982140">
        <ele>444.5</ele>
        <time>2020-04-14T19:36:01Z</time>
      </trkpt>
      <trkpt lat="42.7714250" lon="-7.3983640">
        <ele>442.6</ele>
        <time>2020-04-14T19:36:03Z</time>
      </trkpt>
      <trkpt lat="42.7717060" lon="-7.3984950">
        <ele>441.2</ele>
        <time>2020-04-14T19:36:05Z</time>
      </trkpt>
      <trkpt lat="42.7719370" lon="-7.3986760">
        <ele>439.9</ele>
        <time>2020-04-14T19:36:07Z</time>
      </trkpt>
      <trkpt lat="42.7721410" lon="-7.3989200">
        <ele>438.8</ele>
        <time>2020-04-14T19:36:09Z</time>
      </trkpt>
      <trkpt lat="42.7723490" lon="-7.3992120">
        <ele>437.5</ele>
        <time>2020-04-14T19:36:11Z</time>
      </trkpt>
      <trkpt lat="42.7724770" lon="-7.3994090">
        <ele>436.6</ele>
        <time>2020-04-14T19:36:13Z</time>
      </trkpt>
      <trkpt lat="42.7726040" lon="-7.3996020">
        <ele>435.9</ele>
        <time>2020-04-14T19:36:15Z</time>
      </trkpt>
      <trkpt lat="42.7728670" lon="-7.4000070">
        <ele>434.4</ele>
        <time>2020-04-14T19:36:17Z</time>
      </trkpt>
      <trkpt lat="42.7729910" lon="-7.4002040">
        <ele>433.6</ele>
        <time>2020-04-14T19:36:19Z</time>
      </trkpt>
      <trkpt lat="42.7731990" lon="-7.4005340">
        <ele>432.3</ele>
        <time>2020-04-14T19:36:21Z</time>
      </trkpt>
      <trkpt lat="42.7733240" lon="-7.4007320">
        <ele>431.5</ele>
        <time>2020-04-14T19:36:23Z</time>
      </trkpt>
      <trkpt lat="42.7735470" lon="-7.4011180">
        <ele>430.3</ele>
        <time>2020-04-14T19:36:25Z</time>
      </trkpt>
      <trkpt lat="42.7736550" lon="-7.4014090">
        <ele>429.7</ele>
        <time>2020-04-14T19:36:27Z</time>
      </trkpt>
      <trkpt lat="42.7737160" lon="-7.4016260">
        <ele>429.1</ele>
        <time>2020-04-14T19:36:29Z</time>
      </trkpt>
      <trkpt lat="42.7737990" lon="-7.4019490">
        <ele>428.2</ele>
        <time>2020-04-14T19:36:31Z</time>
      </trkpt>
      <trkpt lat="42.7738730" lon="-7.4022530">
        <ele>427.6</ele>
        <time>2020-04-14T19:36:33Z</time>
      </trkpt>
      <trkpt lat="42.7739230" lon="-7.4024620">
        <ele>427.2</ele>
        <time>2020-04-14T19:36:35Z</time>
      </trkpt>
      <trkpt lat="42.7740160" lon="-7.4028510">
        <ele>426.0</ele>
        <time>2020-04-14T19:36:37Z</time>
      </trkpt>
      <trkpt lat="42.7740760" lon="-7.4031100">
        <ele>425.6</ele>
        <time>2020-04-14T19:36:39Z</time>
      </trkpt>
      <trkpt lat="42.7741290" lon="-7.4033270">
        <ele>425.2</ele>
        <time>2020-04-14T19:36:41Z</time>
      </trkpt>
      <trkpt lat="42.7741820" lon="-7.4035460">
        <ele>424.7</ele>
        <time>2020-04-14T19:36:43Z</time>
      </trkpt>
      <trkpt lat="42.7743040" lon="-7.4039880">
        <ele>423.9</ele>
        <time>2020-04-14T19:36:45Z</time>
      </trkpt>
      <trkpt lat="42.7744150" lon="-7.4042810">
        <ele>423.4</ele>
        <time>2020-04-14T19:36:47Z</time>
      </trkpt>
      <trkpt lat="42.7744990" lon="-7.4044500">
        <ele>423.2</ele>
        <time>2020-04-14T19:36:49Z</time>
      </trkpt>
      <trkpt lat="42.7746320" lon="-7.4046940">
        <ele>423.0</ele>
        <time>2020-04-14T19:36:51Z</time>
      </trkpt>
      <trkpt lat="42.7747200" lon="-7.4048330">
        <ele>423.0</ele>
        <time>2020-04-14T19:36:53Z</time>
      </trkpt>
      <trkpt lat="42.7748730" lon="-7.4050710">
        <ele>422.9</ele>
        <time>2020-04-14T19:36:55Z</time>
      </trkpt>
      <trkpt lat="42.7749830" lon="-7.4052330">
        <ele>422.9</ele>
        <time>2020-04-14T19:36:57Z</time>
      </trkpt>
      <trkpt lat="42.7750690" lon="-7.4053610">
        <ele>422.9</ele>
        <time>2020-04-14T19:36:59Z</time>
      </trkpt>
      <trkpt lat="42.7751520" lon="-7.4054840">
        <ele>422.9</ele>
        <time>2020-04-14T19:37:01Z</time>
      </trkpt>
      <trkpt lat="42.7753280" lon="-7.4057830">
        <ele>423.1</ele>
        <time>2020-04-14T19:37:03Z</time>
      </trkpt>
      <trkpt lat="42.7754160" lon="-7.4058960">
        <ele>423.4</ele>
        <time>2020-04-14T19:37:05Z</time>
      </trkpt>
      <trkpt lat="42.7754950" lon="-7.4060130">
        <ele>423.5</ele>
        <time>2020-04-14T19:37:07Z</time>
      </trkpt>
      <trkpt lat="42.7755740" lon="-7.4061290">
        <ele>423.7</ele>
        <time>2020-04-14T19:37:09Z</time>
      </trkpt>
      <trkpt lat="42.7757160" lon="-7.4063380">
        <ele>423.7</ele>
        <time>2020-04-14T19:37:11Z</time>
      </trkpt>
      <trkpt lat="42.7758190" lon="-7.4064930">
        <ele>423.9</ele>
        <time>2020-04-14T19:37:13Z</time>
      </trkpt>
      <trkpt lat="42.7759470" lon="-7.4066820">
        <ele>423.9</ele>
        <time>2020-04-14T19:37:15Z</time>
      </trkpt>
      <trkpt lat="42.7760250" lon="-7.4067980">
        <ele>423.8</ele>
        <time>2020-04-14T19:37:17Z</time>
      </trkpt>
      <trkpt lat="42.7761030" lon="-7.4069140">
        <ele>423.7</ele>
        <time>2020-04-14T19:37:19Z</time>
      </trkpt>
      <trkpt lat="42.7761810" lon="-7.4070300">
        <ele>423.6</ele>
        <time>2020-04-14T19:37:21Z</time>
      </trkpt>
      <trkpt lat="42.7763550" lon="-7.4072890">
        <ele>423.6</ele>
        <time>2020-04-14T19:37:23Z</time>
      </trkpt>
      <trkpt lat="42.7764780" lon="-7.4074720">
        <ele>423.4</ele>
        <time>2020-04-14T19:37:25Z</time>
      </trkpt>
      <trkpt lat="42.7765750" lon="-7.4076170">
        <ele>423.3</ele>
        <time>2020-04-14T19:37:27Z</time>
      </trkpt>
      <trkpt lat="42.7766590" lon="-7.4077430">
        <ele>423.2</ele>
        <time>2020-04-14T19:37:29Z</time>
      </trkpt>
      <trkpt lat="42.7768040" lon="-7.4079600">
        <ele>423.2</ele>
        <time>2020-04-14T19:37:31Z</time>
      </trkpt>
      <trkpt lat="42.7769200" lon="-7.4081320">
        <ele>423.3</ele>
        <time>2020-04-14T19:37:33Z</time>
      </trkpt>
      <trkpt lat="42.7770640" lon="-7.4083500">
        <ele>423.4</ele>
        <time>2020-04-14T19:37:35Z</time>
      </trkpt>
      <trkpt lat="42.7771770" lon="-7.4085320">
        <ele>423.4</ele>
        <time>2020-04-14T19:37:37Z</time>
      </trkpt>
      <trkpt lat="42.7772700" lon="-7.4086650">
        <ele>423.5</ele>
        <time>2020-04-14T19:37:39Z</time>
      </trkpt>
      <trkpt lat="42.7773570" lon="-7.4087920">
        <ele>423.5</ele>
        <time>2020-04-14T19:37:41Z</time>
      </trkpt>
      <trkpt lat="42.7775460" lon="-7.4090650">
        <ele>423.6</ele>
        <time>2020-04-14T19:37:43Z</time>
      </trkpt>
      <trkpt lat="42.7776270" lon="-7.4091810">
        <ele>423.7</ele>
        <time>2020-04-14T19:37:45Z</time>
      </trkpt>
      <trkpt lat="42.7777610" lon="-7.4093890">
        <ele>423.7</ele>
        <time>2020-04-14T19:37:47Z</time>
      </trkpt>
      <trkpt lat="42.7778380" lon="-7.4095000">
        <ele>423.6</ele>
        <time>2020-04-14T19:37:49Z</time>
      </trkpt>
      <trkpt lat="42.7779550" lon="-7.4096750">
        <ele>423.8</ele>
        <time>2020-04-14T19:37:51Z</time>
      </trkpt>
      <trkpt lat="42.7780690" lon="-7.4098500">
        <ele>424.2</ele>
        <time>2020-04-14T19:37:53Z</time>
      </trkpt>
      <trkpt lat="42.7781470" lon="-7.4099680">
        <ele>424.5</ele>
        <time>2020-04-14T19:37:55Z</time>
      </trkpt>
      <trkpt lat="42.7782240" lon="-7.4100870">
        <ele>424.8</ele>
        <time>2020-04-14T19:37:57Z</time>
      </trkpt>
      <trkpt lat="42.7783840" lon="-7.4103300">
        <ele>425.3</ele>
        <time>2020-04-14T19:37:59Z</time>
      </trkpt>
      <trkpt lat="42.7784640" lon="-7.4104470">
        <ele>425.4</ele>
        <time>2020-04-14T19:38:02Z</time>
      </trkpt>
      <trkpt lat="42.7786020" lon="-7.4106470">
        <ele>425.5</ele>
        <time>2020-04-14T19:38:04Z</time>
      </trkpt>
      <trkpt lat="42.7787210" lon="-7.4108320">
        <ele>425.6</ele>
        <time>2020-04-14T19:38:06Z</time>
      </trkpt>
      <trkpt lat="42.7788020" lon="-7.4109520">
        <ele>425.6</ele>
        <time>2020-04-14T19:38:08Z</time>
      </trkpt>
      <trkpt lat="42.7788830" lon="-7.4110730">
        <ele>425.6</ele>
        <time>2020-04-14T19:38:10Z</time>
      </trkpt>
      <trkpt lat="42.7790510" lon="-7.4113200">
        <ele>425.6</ele>
        <time>2020-04-14T19:38:12Z</time>
      </trkpt>
      <trkpt lat="42.7791480" lon="-7.4114570">
        <ele>425.6</ele>
        <time>2020-04-14T19:38:14Z</time>
      </trkpt>
      <trkpt lat="42.7792330" lon="-7.4115830">
        <ele>425.6</ele>
        <time>2020-04-14T19:38:16Z</time>
      </trkpt>
      <trkpt lat="42.7793730" lon="-7.4117990">
        <ele>425.5</ele>
        <time>2020-04-14T19:38:18Z</time>
      </trkpt>
      <trkpt lat="42.7794590" lon="-7.4119350">
        <ele>425.5</ele>
        <time>2020-04-14T19:38:20Z</time>
      </trkpt>
      <trkpt lat="42.7796270" lon="-7.4121990">
        <ele>425.2</ele>
        <time>2020-04-14T19:38:22Z</time>
      </trkpt>
      <trkpt lat="42.7797360" lon="-7.4123600">
        <ele>425.1</ele>
        <time>2020-04-14T19:38:24Z</time>
      </trkpt>
      <trkpt lat="42.7798780" lon="-7.4125680">
        <ele>425.0</ele>
        <time>2020-04-14T19:38:26Z</time>
      </trkpt>
      <trkpt lat="42.7799970" lon="-7.4127370">
        <ele>424.9</ele>
        <time>2020-04-14T19:38:28Z</time>
      </trkpt>
      <trkpt lat="42.7800860" lon="-7.4128810">
        <ele>424.8</ele>
        <time>2020-04-14T19:38:30Z</time>
      </trkpt>
      <trkpt lat="42.7802520" lon="-7.4131450">
        <ele>424.7</ele>
        <time>2020-04-14T19:38:32Z</time>
      </trkpt>
      <trkpt lat="42.7803750" lon="-7.4133270">
        <ele>424.6</ele>
        <time>2020-04-14T19:38:34Z</time>
      </trkpt>
      <trkpt lat="42.7804680" lon="-7.4134690">
        <ele>424.6</ele>
        <time>2020-04-14T19:38:36Z</time>
      </trkpt>
      <trkpt lat="42.7806370" lon="-7.4137240">
        <ele>424.5</ele>
        <time>2020-04-14T19:38:38Z</time>
      </trkpt>
      <trkpt lat="42.7807840" lon="-7.4139270">
        <ele>424.4</ele>
        <time>2020-04-14T19:38:40Z</time>
      </trkpt>
      <trkpt lat="42.7809440" lon="-7.4140670">
        <ele>424.3</ele>
        <time>2020-04-14T19:38:42Z</time>
      </trkpt>
      <trkpt lat="42.7810430" lon="-7.4142410">
        <ele>424.1</ele>
        <time>2020-04-14T19:38:44Z</time>
      </trkpt>
      <trkpt lat="42.7811240" lon="-7.4144480">
        <ele>424.1</ele>
        <time>2020-04-14T19:38:46Z</time>
      </trkpt>
      <trkpt lat="42.7812300" lon="-7.4146160">
        <ele>424.0</ele>
        <time>2020-04-14T19:38:48Z</time>
      </trkpt>
      <trkpt lat="42.7813270" lon="-7.4147570">
        <ele>424.0</ele>
        <time>2020-04-14T19:38:50Z</time>
      </trkpt>
      <trkpt lat="42.7814260" lon="-7.4149010">
        <ele>424.0</ele>
        <time>2020-04-14T19:38:52Z</time>
      </trkpt>
      <trkpt lat="42.7816570" lon="-7.4152380">
        <ele>423.9</ele>
        <time>2020-04-14T19:38:54Z</time>
      </trkpt>
      <trkpt lat="42.7817680" lon="-7.4154110">
        <ele>423.8</ele>
        <time>2020-04-14T19:38:56Z</time>
      </trkpt>
      <trkpt lat="42.7818830" lon="-7.4155910">
        <ele>423.6</ele>
        <time>2020-04-14T19:38:58Z</time>
      </trkpt>
      <trkpt lat="42.7819780" lon="-7.4157400">
        <ele>423.4</ele>
        <time>2020-04-14T19:39:00Z</time>
      </trkpt>
      <trkpt lat="42.7821410" lon="-7.4159940">
        <ele>423.1</ele>
        <time>2020-04-14T19:39:02Z</time>
      </trkpt>
      <trkpt lat="42.7822380" lon="-7.4161460">
        <ele>422.9</ele>
        <time>2020-04-14T19:39:04Z</time>
      </trkpt>
      <trkpt lat="42.7824290" lon="-7.4164350">
        <ele>422.8</ele>
        <time>2020-04-14T19:39:06Z</time>
      </trkpt>
      <trkpt lat="42.7825350" lon="-7.4165790">
        <ele>422.8</ele>
        <time>2020-04-14T19:39:08Z</time>
      </trkpt>
      <trkpt lat="42.7826980" lon="-7.4168250">
        <ele>423.1</ele>
        <time>2020-04-14T19:39:10Z</time>
      </trkpt>
      <trkpt lat="42.7828270" lon="-7.4170240">
        <ele>423.4</ele>
        <time>2020-04-14T19:39:12Z</time>
      </trkpt>
      <trkpt lat="42.7829270" lon="-7.4171700">
        <ele>423.2</ele>
        <time>2020-04-14T19:39:14Z</time>
      </trkpt>
      <trkpt lat="42.7829890" lon="-7.4172610">
        <ele>423.1</ele>
        <time>2020-04-14T19:39:16Z</time>
      </trkpt>
      <trkpt lat="42.7830360" lon="-7.4173290">
        <ele>423.1</ele>
        <time>2020-04-14T19:39:18Z</time>
      </trkpt>
      <trkpt lat="42.7830700" lon="-7.4173800">
        <ele>423.0</ele>
        <time>2020-04-14T19:39:20Z</time>
      </trkpt>
      <trkpt lat="42.7830960" lon="-7.4174180">
        <ele>423.0</ele>
        <time>2020-04-14T19:39:22Z</time>
      </trkpt>
      <trkpt lat="42.7831170" lon="-7.4174480">
        <ele>423.0</ele>
        <time>2020-04-14T19:39:24Z</time>
      </trkpt>
      <trkpt lat="42.7832110" lon="-7.4175940">
        <ele>422.9</ele>
        <time>2020-04-14T19:39:26Z</time>
      </trkpt>
      <trkpt lat="42.7831690" lon="-7.4176230">
        <ele>422.8</ele>
        <time>2020-04-14T19:39:28Z</time>
      </trkpt>
      <trkpt lat="42.7831100" lon="-7.4176640">
        <ele>422.8</ele>
        <time>2020-04-14T19:39:30Z</time>
      </trkpt>
      <trkpt lat="42.7830360" lon="-7.4177160">
        <ele>422.8</ele>
        <time>2020-04-14T19:39:32Z</time>
      </trkpt>
      <trkpt lat="42.7829480" lon="-7.4177770">
        <ele>422.7</ele>
        <time>2020-04-14T19:39:34Z</time>
      </trkpt>
      <trkpt lat="42.7828500" lon="-7.4178460">
        <ele>422.7</ele>
        <time>2020-04-14T19:39:36Z</time>
      </trkpt>
      <trkpt lat="42.7827410" lon="-7.4179220">
        <ele>422.7</ele>
        <time>2020-04-14T19:39:38Z</time>
      </trkpt>
      <trkpt lat="42.7824280" lon="-7.4181380">
        <ele>422.9</ele>
        <time>2020-04-14T19:39:40Z</time>
      </trkpt>
      <trkpt lat="42.7823220" lon="-7.4182130">
        <ele>423.1</ele>
        <time>2020-04-14T19:39:42Z</time>
      </trkpt>
      <trkpt lat="42.7822190" lon="-7.4182850">
        <ele>423.3</ele>
        <time>2020-04-14T19:39:44Z</time>
      </trkpt>
      <trkpt lat="42.7821190" lon="-7.4183540">
        <ele>423.5</ele>
        <time>2020-04-14T19:39:46Z</time>
      </trkpt>
      <trkpt lat="42.7820230" lon="-7.4184210">
        <ele>423.7</ele>
        <time>2020-04-14T19:39:48Z</time>
      </trkpt>
      <trkpt lat="42.7817590" lon="-7.4186050">
        <ele>424.1</ele>
        <time>2020-04-14T19:39:50Z</time>
      </trkpt>
      <trkpt lat="42.7816400" lon="-7.4186910">
        <ele>424.3</ele>
        <time>2020-04-14T19:39:52Z</time>
      </trkpt>
      <trkpt lat="42.7815620" lon="-7.4187470">
        <ele>424.4</ele>
        <time>2020-04-14T19:39:54Z</time>
      </trkpt>
      <trkpt lat="42.7814940" lon="-7.4187970">
        <ele>424.6</ele>
        <time>2020-04-14T19:39:56Z</time>
      </trkpt>
      <trkpt lat="42.7813370" lon="-7.4189120">
        <ele>424.9</ele>
        <time>2020-04-14T19:39:58Z</time>
      </trkpt>
      <trkpt lat="42.7812830" lon="-7.4189510">
        <ele>425.0</ele>
        <time>2020-04-14T19:40:00Z</time>
      </trkpt>
      <trkpt lat="42.7812000" lon="-7.4190110">
        <ele>425.2</ele>
        <time>2020-04-14T19:40:02Z</time>
      </trkpt>
      <trkpt lat="42.7811550" lon="-7.4190430">
        <ele>425.4</ele>
        <time>2020-04-14T19:40:04Z</time>
      </trkpt>
      <trkpt lat="42.7811130" lon="-7.4190740">
        <ele>425.5</ele>
        <time>2020-04-14T19:40:06Z</time>
      </trkpt>
      <trkpt lat="42.7810240" lon="-7.4191400">
        <ele>426.0</ele>
        <time>2020-04-14T19:40:08Z</time>
      </trkpt>
      <trkpt lat="42.7809820" lon="-7.4191710">
        <ele>426.2</ele>
        <time>2020-04-14T19:40:10Z</time>
      </trkpt>
      <trkpt lat="42.7809350" lon="-7.4192070">
        <ele>426.4</ele>
        <time>2020-04-14T19:40:12Z</time>
      </trkpt>
      <trkpt lat="42.7808870" lon="-7.4192430">
        <ele>426.7</ele>
        <time>2020-04-14T19:40:14Z</time>
      </trkpt>
      <trkpt lat="42.7808370" lon="-7.4192800">
        <ele>426.9</ele>
        <time>2020-04-14T19:40:16Z</time>
      </trkpt>
      <trkpt lat="42.7807450" lon="-7.4193910">
        <ele>427.2</ele>
        <time>2020-04-14T19:40:18Z</time>
      </trkpt>
      <trkpt lat="42.7807910" lon="-7.4195030">
        <ele>427.3</ele>
        <time>2020-04-14T19:40:20Z</time>
      </trkpt>
      <trkpt lat="42.7808210" lon="-7.4196120">
        <ele>427.3</ele>
        <time>2020-04-14T19:40:22Z</time>
      </trkpt>
      <trkpt lat="42.7808650" lon="-7.4198060">
        <ele>427.3</ele>
        <time>2020-04-14T19:40:24Z</time>
      </trkpt>
      <trkpt lat="42.7808890" lon="-7.4199470">
        <ele>427.2</ele>
        <time>2020-04-14T19:40:26Z</time>
      </trkpt>
      <trkpt lat="42.7809160" lon="-7.4201010">
        <ele>427.1</ele>
        <time>2020-04-14T19:40:28Z</time>
      </trkpt>
      <trkpt lat="42.7809740" lon="-7.4204380">
        <ele>426.8</ele>
        <time>2020-04-14T19:40:30Z</time>
      </trkpt>
      <trkpt lat="42.7810180" lon="-7.4206750">
        <ele>426.7</ele>
        <time>2020-04-14T19:40:32Z</time>
      </trkpt>
      <trkpt lat="42.7810540" lon="-7.4208350">
        <ele>426.6</ele>
        <time>2020-04-14T19:40:34Z</time>
      </trkpt>
      <trkpt lat="42.7811450" lon="-7.4210830">
        <ele>426.4</ele>
        <time>2020-04-14T19:40:36Z</time>
      </trkpt>
      <trkpt lat="42.7812000" lon="-7.4212320">
        <ele>426.5</ele>
        <time>2020-04-14T19:40:38Z</time>
      </trkpt>
      <trkpt lat="42.7812870" lon="-7.4214600">
        <ele>426.7</ele>
        <time>2020-04-14T19:40:40Z</time>
      </trkpt>
      <trkpt lat="42.7813260" lon="-7.4216280">
        <ele>427.0</ele>
        <time>2020-04-14T19:40:42Z</time>
      </trkpt>
      <trkpt lat="42.7813230" lon="-7.4218140">
        <ele>427.9</ele>
        <time>2020-04-14T19:40:44Z</time>
      </trkpt>
      <trkpt lat="42.7813130" lon="-7.4219310">
        <ele>428.7</ele>
        <time>2020-04-14T19:40:46Z</time>
      </trkpt>
      <trkpt lat="42.7813050" lon="-7.4220290">
        <ele>429.4</ele>
        <time>2020-04-14T19:40:48Z</time>
      </trkpt>
      <trkpt lat="42.7812980" lon="-7.4221110">
        <ele>430.0</ele>
        <time>2020-04-14T19:40:50Z</time>
      </trkpt>
      <trkpt lat="42.7812920" lon="-7.4221790">
        <ele>430.4</ele>
        <time>2020-04-14T19:40:52Z</time>
      </trkpt>
      <trkpt lat="42.7812870" lon="-7.4222380">
        <ele>430.9</ele>
        <time>2020-04-14T19:40:54Z</time>
      </trkpt>
      <trkpt lat="42.7812660" lon="-7.4224790">
        <ele>432.7</ele>
        <time>2020-04-14T19:40:56Z</time>
      </trkpt>
      <trkpt lat="42.7812620" lon="-7.4225290">
        <ele>433.0</ele>
        <time>2020-04-14T19:40:58Z</time>
      </trkpt>
      <trkpt lat="42.7812580" lon="-7.4225750">
        <ele>433.4</ele>
        <time>2020-04-14T19:41:00Z</time>
      </trkpt>
      <trkpt lat="42.7812540" lon="-7.4226210">
        <ele>433.7</ele>
        <time>2020-04-14T19:41:02Z</time>
      </trkpt>
      <trkpt lat="42.7812510" lon="-7.4226670">
        <ele>433.9</ele>
        <time>2020-04-14T19:41:04Z</time>
      </trkpt>
      <trkpt lat="42.7812400" lon="-7.4227890">
        <ele>434.5</ele>
        <time>2020-04-14T19:41:06Z</time>
      </trkpt>
      <trkpt lat="42.7812350" lon="-7.4228390">
        <ele>434.5</ele>
        <time>2020-04-14T19:41:08Z</time>
      </trkpt>
      <trkpt lat="42.7812310" lon="-7.4228900">
        <ele>434.6</ele>
        <time>2020-04-14T19:41:10Z</time>
      </trkpt>
      <trkpt lat="42.7812210" lon="-7.4229950">
        <ele>434.7</ele>
        <time>2020-04-14T19:41:12Z</time>
      </trkpt>
      <trkpt lat="42.7812150" lon="-7.4230530">
        <ele>434.8</ele>
        <time>2020-04-14T19:41:14Z</time>
      </trkpt>
      <trkpt lat="42.7812100" lon="-7.4231120">
        <ele>435.0</ele>
        <time>2020-04-14T19:41:16Z</time>
      </trkpt>
      <trkpt lat="42.7812040" lon="-7.4231700">
        <ele>435.1</ele>
        <time>2020-04-14T19:41:17Z</time>
      </trkpt>
      <trkpt lat="42.7812040" lon="-7.4231700">
        <ele>435.1</ele>
        <time>2020-04-14T19:41:17Z</time>
      </trkpt>
      <trkpt lat="42.7812040" lon="-7.4231700">
        <ele>435.1</ele>
        <time>2020-04-14T19:41:19Z</time>
      </trkpt>
      <trkpt lat="42.7812040" lon="-7.4231700">
        <ele>435.1</ele>
        <time>2020-04-14T19:41:21Z</time>
      </trkpt>
      <trkpt lat="42.7812040" lon="-7.4231700">
        <ele>435.1</ele>
        <time>2020-04-14T19:41:23Z</time>
      </trkpt>
      <trkpt lat="42.7812040" lon="-7.4231700">
        <ele>435.1</ele>
        <time>2020-04-14T19:41:25Z</time>
      </trkpt>
      <trkpt lat="42.7804690" lon="-7.4194840">
        <ele>433.3</ele>
        <time>2020-04-16T17:37:02Z</time>
      </trkpt>
      <trkpt lat="42.7804690" lon="-7.4194840">
        <ele>433.3</ele>
        <time>2020-04-16T17:37:04Z</time>
      </trkpt>
      <trkpt lat="42.7804690" lon="-7.4194840">
        <ele>433.3</ele>
        <time>2020-04-16T17:37:06Z</time>
      </trkpt>
      <trkpt lat="42.7804690" lon="-7.4194840">
        <ele>433.3</ele>
        <time>2020-04-16T17:37:09Z</time>
      </trkpt>
      <trkpt lat="42.7804690" lon="-7.4194840">
        <ele>433.3</ele>
        <time>2020-04-16T17:37:11Z</time>
      </trkpt>
      <trkpt lat="42.7804690" lon="-7.4194840">
        <ele>433.3</ele>
        <time>2020-04-16T17:37:13Z</time>
      </trkpt>
      <trkpt lat="42.7804690" lon="-7.4194840">
        <ele>433.3</ele>
        <time>2020-04-16T17:37:15Z</time>
      </trkpt>
      <trkpt lat="42.7804690" lon="-7.4194840">
        <ele>433.3</ele>
        <time>2020-04-16T17:37:17Z</time>
      </trkpt>
      <trkpt lat="42.7804690" lon="-7.4194840">
        <ele>433.3</ele>
        <time>2020-04-16T17:37:19Z</time>
      </trkpt>
      <trkpt lat="42.7804690" lon="-7.4194840">
        <ele>433.3</ele>
        <time>2020-04-16T17:37:21Z</time>
      </trkpt>
      <trkpt lat="42.7804690" lon="-7.4194840">
        <ele>433.3</ele>
        <time>2020-04-16T17:37:23Z</time>
      </trkpt>
      <trkpt lat="42.7804690" lon="-7.4194840">
        <ele>433.3</ele>
        <time>2020-04-16T17:37:25Z</time>
      </trkpt>
      <trkpt lat="42.7804690" lon="-7.4194840">
        <ele>433.3</ele>
        <time>2020-04-16T17:37:27Z</time>
      </trkpt>
      <trkpt lat="42.7804690" lon="-7.4194840">
        <ele>433.3</ele>
        <time>2020-04-16T17:37:29Z</time>
      </trkpt>
      <trkpt lat="42.7804690" lon="-7.4194840">
        <ele>433.3</ele>
        <time>2020-04-16T17:37:31Z</time>
      </trkpt>
      <trkpt lat="42.7804690" lon="-7.4194840">
        <ele>433.3</ele>
        <time>2020-04-16T17:37:33Z</time>
      </trkpt>
      <trkpt lat="42.7804690" lon="-7.4194840">
        <ele>433.3</ele>
        <time>2020-04-16T17:37:35Z</time>
      </trkpt>
      <trkpt lat="42.7804690" lon="-7.4194840">
        <ele>433.3</ele>
        <time>2020-04-16T17:37:37Z</time>
      </trkpt>
      <trkpt lat="42.7804690" lon="-7.4194840">
        <ele>433.3</ele>
        <time>2020-04-16T17:37:39Z</time>
      </trkpt>
      <trkpt lat="42.7804690" lon="-7.4194840">
        <ele>433.3</ele>
        <time>2020-04-16T17:37:41Z</time>
      </trkpt>
      <trkpt lat="42.7804690" lon="-7.4194840">
        <ele>433.3</ele>
        <time>2020-04-16T17:37:43Z</time>
      </trkpt>
      <trkpt lat="42.7804690" lon="-7.4194840">
        <ele>433.3</ele>
        <time>2020-04-16T17:37:45Z</time>
      </trkpt>
      <trkpt lat="42.7804690" lon="-7.4194840">
        <ele>433.3</ele>
        <time>2020-04-16T17:37:47Z</time>
      </trkpt>
      <trkpt lat="42.7804690" lon="-7.4194840">
        <ele>433.3</ele>
        <time>2020-04-16T17:37:49Z</time>
      </trkpt>
      <trkpt lat="42.7804690" lon="-7.4194840">
        <ele>433.3</ele>
        <time>2020-04-16T17:37:51Z</time>
      </trkpt>
      <trkpt lat="42.7804690" lon="-7.4194840">
        <ele>433.3</ele>
        <time>2020-04-16T17:37:53Z</time>
      </trkpt>
      <trkpt lat="42.7804690" lon="-7.4194840">
        <ele>433.3</ele>
        <time>2020-04-16T17:37:55Z</time>
      </trkpt>
      <trkpt lat="42.7804690" lon="-7.4194840">
        <ele>433.3</ele>
        <time>2020-04-16T17:37:57Z</time>
      </trkpt>
      <trkpt lat="42.7804690" lon="-7.4194840">
        <ele>433.3</ele>
        <time>2020-04-16T17:37:59Z</time>
      </trkpt>
      <trkpt lat="42.7804690" lon="-7.4194840">
        <ele>433.3</ele>
        <time>2020-04-16T17:37:59Z</time>
      </trkpt>
      <trkpt lat="42.7804710" lon="-7.4194830">
        <ele>433.3</ele>
        <time>2020-04-16T17:38:01Z</time>
      </trkpt>
      <trkpt lat="42.7805030" lon="-7.4194740">
        <ele>432.6</ele>
        <time>2020-04-16T17:38:03Z</time>
      </trkpt>
      <trkpt lat="42.7805800" lon="-7.4194410">
        <ele>430.7</ele>
        <time>2020-04-16T17:38:05Z</time>
      </trkpt>
      <trkpt lat="42.7806600" lon="-7.4193990">
        <ele>428.9</ele>
        <time>2020-04-16T17:38:07Z</time>
      </trkpt>
      <trkpt lat="42.7807880" lon="-7.4194910">
        <ele>427.3</ele>
        <time>2020-04-16T17:38:09Z</time>
      </trkpt>
      <trkpt lat="42.7808320" lon="-7.4196520">
        <ele>427.3</ele>
        <time>2020-04-16T17:38:11Z</time>
      </trkpt>
      <trkpt lat="42.7808800" lon="-7.4198930">
        <ele>427.2</ele>
        <time>2020-04-16T17:38:13Z</time>
      </trkpt>
      <trkpt lat="42.7809090" lon="-7.4200620">
        <ele>427.1</ele>
        <time>2020-04-16T17:38:15Z</time>
      </trkpt>
      <trkpt lat="42.7809370" lon="-7.4202220">
        <ele>427.0</ele>
        <time>2020-04-16T17:38:17Z</time>
      </trkpt>
      <trkpt lat="42.7810010" lon="-7.4205930">
        <ele>426.8</ele>
        <time>2020-04-16T17:38:19Z</time>
      </trkpt>
      <trkpt lat="42.7809460" lon="-7.4207480">
        <ele>426.9</ele>
        <time>2020-04-16T17:38:21Z</time>
      </trkpt>
      <trkpt lat="42.7808780" lon="-7.4209480">
        <ele>427.1</ele>
        <time>2020-04-16T17:38:23Z</time>
      </trkpt>
      <trkpt lat="42.7808580" lon="-7.4210990">
        <ele>427.3</ele>
        <time>2020-04-16T17:38:25Z</time>
      </trkpt>
      <trkpt lat="42.7808490" lon="-7.4211670">
        <ele>427.4</ele>
        <time>2020-04-16T17:38:27Z</time>
      </trkpt>
      <trkpt lat="42.7808490" lon="-7.4211670">
        <ele>427.4</ele>
        <time>2020-04-16T17:38:29Z</time>
      </trkpt>
      <trkpt lat="42.7808490" lon="-7.4211670">
        <ele>427.4</ele>
        <time>2020-04-16T17:38:31Z</time>
      </trkpt>
      <trkpt lat="42.7808490" lon="-7.4211670">
        <ele>427.4</ele>
        <time>2020-04-16T17:38:33Z</time>
      </trkpt>
      <trkpt lat="42.7808490" lon="-7.4211670">
        <ele>427.4</ele>
        <time>2020-04-16T17:38:35Z</time>
      </trkpt>
      <trkpt lat="42.7808490" lon="-7.4211670">
        <ele>427.4</ele>
        <time>2020-04-16T17:38:37Z</time>
      </trkpt>
      <trkpt lat="42.7808490" lon="-7.4211670">
        <ele>427.4</ele>
        <time>2020-04-16T17:38:39Z</time>
      </trkpt>
      <trkpt lat="42.7808490" lon="-7.4211670">
        <ele>427.4</ele>
        <time>2020-04-16T17:38:41Z</time>
      </trkpt>
      <trkpt lat="42.7808490" lon="-7.4211670">
        <ele>427.4</ele>
        <time>2020-04-16T17:38:43Z</time>
      </trkpt>
      <trkpt lat="42.7808490" lon="-7.4211670">
        <ele>427.4</ele>
        <time>2020-04-16T17:38:45Z</time>
      </trkpt>
      <trkpt lat="42.7808490" lon="-7.4211670">
        <ele>427.4</ele>
        <time>2020-04-16T17:38:47Z</time>
      </trkpt>
      <trkpt lat="42.7808490" lon="-7.4211700">
        <ele>427.4</ele>
        <time>2020-04-16T17:38:49Z</time>
      </trkpt>
      <trkpt lat="42.7808460" lon="-7.4211930">
        <ele>427.4</ele>
        <time>2020-04-16T17:38:51Z</time>
      </trkpt>
      <trkpt lat="42.7808260" lon="-7.4213500">
        <ele>427.7</ele>
        <time>2020-04-16T17:38:53Z</time>
      </trkpt>
      <trkpt lat="42.7808240" lon="-7.4213710">
        <ele>427.8</ele>
        <time>2020-04-16T17:38:55Z</time>
      </trkpt>
      <trkpt lat="42.7808200" lon="-7.4214070">
        <ele>427.9</ele>
        <time>2020-04-16T17:38:57Z</time>
      </trkpt>
      <trkpt lat="42.7808150" lon="-7.4214680">
        <ele>428.1</ele>
        <time>2020-04-16T17:38:59Z</time>
      </trkpt>
      <trkpt lat="42.7808070" lon="-7.4215450">
        <ele>428.3</ele>
        <time>2020-04-16T17:39:01Z</time>
      </trkpt>
      <trkpt lat="42.7808000" lon="-7.4216280">
        <ele>428.6</ele>
        <time>2020-04-16T17:39:03Z</time>
      </trkpt>
      <trkpt lat="42.7807750" lon="-7.4218460">
        <ele>429.5</ele>
        <time>2020-04-16T17:39:05Z</time>
      </trkpt>
      <trkpt lat="42.7807570" lon="-7.4219220">
        <ele>430.0</ele>
        <time>2020-04-16T17:39:07Z</time>
      </trkpt>
      <trkpt lat="42.7807120" lon="-7.4220250">
        <ele>430.6</ele>
        <time>2020-04-16T17:39:09Z</time>
      </trkpt>
      <trkpt lat="42.7806520" lon="-7.4221070">
        <ele>431.1</ele>
        <time>2020-04-16T17:39:11Z</time>
      </trkpt>
      <trkpt lat="42.7806050" lon="-7.4221500">
        <ele>431.5</ele>
        <time>2020-04-16T17:39:13Z</time>
      </trkpt>
      <trkpt lat="42.7805600" lon="-7.4221920">
        <ele>431.8</ele>
        <time>2020-04-16T17:39:15Z</time>
      </trkpt>
      <trkpt lat="42.7805160" lon="-7.4222340">
        <ele>432.2</ele>
        <time>2020-04-16T17:39:17Z</time>
      </trkpt>
      <trkpt lat="42.7804710" lon="-7.4222760">
        <ele>432.5</ele>
        <time>2020-04-16T17:39:19Z</time>
      </trkpt>
      <trkpt lat="42.7804280" lon="-7.4223170">
        <ele>432.8</ele>
        <time>2020-04-16T17:39:21Z</time>
      </trkpt>
      <trkpt lat="42.7803840" lon="-7.4223580">
        <ele>433.1</ele>
        <time>2020-04-16T17:39:23Z</time>
      </trkpt>
      <trkpt lat="42.7803390" lon="-7.4223990">
        <ele>433.4</ele>
        <time>2020-04-16T17:39:25Z</time>
      </trkpt>
      <trkpt lat="42.7802950" lon="-7.4224410">
        <ele>433.7</ele>
        <time>2020-04-16T17:39:27Z</time>
      </trkpt>
      <trkpt lat="42.7801120" lon="-7.4226130">
        <ele>434.6</ele>
        <time>2020-04-16T17:39:29Z</time>
      </trkpt>
      <trkpt lat="42.7800350" lon="-7.4226860">
        <ele>434.8</ele>
        <time>2020-04-16T17:39:31Z</time>
      </trkpt>
      <trkpt lat="42.7799400" lon="-7.4227750">
        <ele>435.0</ele>
        <time>2020-04-16T17:39:33Z</time>
      </trkpt>
      <trkpt lat="42.7797340" lon="-7.4229600">
        <ele>434.8</ele>
        <time>2020-04-16T17:39:35Z</time>
      </trkpt>
      <trkpt lat="42.7795240" lon="-7.4230890">
        <ele>434.2</ele>
        <time>2020-04-16T17:39:37Z</time>
      </trkpt>
      <trkpt lat="42.7793220" lon="-7.4231770">
        <ele>433.6</ele>
        <time>2020-04-16T17:39:39Z</time>
      </trkpt>
      <trkpt lat="42.7791640" lon="-7.4232190">
        <ele>433.2</ele>
        <time>2020-04-16T17:39:41Z</time>
      </trkpt>
      <trkpt lat="42.7790130" lon="-7.4232590">
        <ele>432.9</ele>
        <time>2020-04-16T17:39:43Z</time>
      </trkpt>
      <trkpt lat="42.7787370" lon="-7.4233320">
        <ele>432.4</ele>
        <time>2020-04-16T17:39:45Z</time>
      </trkpt>
      <trkpt lat="42.7785960" lon="-7.4233690">
        <ele>432.2</ele>
        <time>2020-04-16T17:39:47Z</time>
      </trkpt>
      <trkpt lat="42.7783830" lon="-7.4234860">
        <ele>432.0</ele>
        <time>2020-04-16T17:39:49Z</time>
      </trkpt>
      <trkpt lat="42.7784050" lon="-7.4237200">
        <ele>431.3</ele>
        <time>2020-04-16T17:39:51Z</time>
      </trkpt>
      <trkpt lat="42.7783790" lon="-7.4239490">
        <ele>430.8</ele>
        <time>2020-04-16T17:39:53Z</time>
      </trkpt>
      <trkpt lat="42.7783180" lon="-7.4240810">
        <ele>430.9</ele>
        <time>2020-04-16T17:39:55Z</time>
      </trkpt>
      <trkpt lat="42.7782650" lon="-7.4241980">
        <ele>430.9</ele>
        <time>2020-04-16T17:39:57Z</time>
      </trkpt>
      <trkpt lat="42.7782180" lon="-7.4243010">
        <ele>431.0</ele>
        <time>2020-04-16T17:39:59Z</time>
      </trkpt>
      <trkpt lat="42.7781170" lon="-7.4245570">
        <ele>431.2</ele>
        <time>2020-04-16T17:40:01Z</time>
      </trkpt>
      <trkpt lat="42.7780910" lon="-7.4246460">
        <ele>431.3</ele>
        <time>2020-04-16T17:40:03Z</time>
      </trkpt>
      <trkpt lat="42.7780680" lon="-7.4247250">
        <ele>431.4</ele>
        <time>2020-04-16T17:40:05Z</time>
      </trkpt>
      <trkpt lat="42.7780460" lon="-7.4247980">
        <ele>431.5</ele>
        <time>2020-04-16T17:40:07Z</time>
      </trkpt>
      <trkpt lat="42.7780270" lon="-7.4248660">
        <ele>431.7</ele>
        <time>2020-04-16T17:40:09Z</time>
      </trkpt>
      <trkpt lat="42.7779570" lon="-7.4250850">
        <ele>432.9</ele>
        <time>2020-04-16T17:40:11Z</time>
      </trkpt>
      <trkpt lat="42.7779080" lon="-7.4251490">
        <ele>433.4</ele>
        <time>2020-04-16T17:40:13Z</time>
      </trkpt>
      <trkpt lat="42.7778750" lon="-7.4251930">
        <ele>433.7</ele>
        <time>2020-04-16T17:40:15Z</time>
      </trkpt>
      <trkpt lat="42.7778200" lon="-7.4252620">
        <ele>434.0</ele>
        <time>2020-04-16T17:40:17Z</time>
      </trkpt>
      <trkpt lat="42.7777710" lon="-7.4253100">
        <ele>434.1</ele>
        <time>2020-04-16T17:40:19Z</time>
      </trkpt>
      <trkpt lat="42.7777130" lon="-7.4253660">
        <ele>434.0</ele>
        <time>2020-04-16T17:40:21Z</time>
      </trkpt>
      <trkpt lat="42.7776490" lon="-7.4254280">
        <ele>433.8</ele>
        <time>2020-04-16T17:40:23Z</time>
      </trkpt>
      <trkpt lat="42.7774940" lon="-7.4255870">
        <ele>433.1</ele>
        <time>2020-04-16T17:40:25Z</time>
      </trkpt>
      <trkpt lat="42.7774280" lon="-7.4256610">
        <ele>432.9</ele>
        <time>2020-04-16T17:40:27Z</time>
      </trkpt>
      <trkpt lat="42.7773610" lon="-7.4257360">
        <ele>432.8</ele>
        <time>2020-04-16T17:40:29Z</time>
      </trkpt>
      <trkpt lat="42.7772920" lon="-7.4258120">
        <ele>432.7</ele>
        <time>2020-04-16T17:40:31Z</time>
      </trkpt>
      <trkpt lat="42.7772230" lon="-7.4258890">
        <ele>432.7</ele>
        <time>2020-04-16T17:40:33Z</time>
      </trkpt>
      <trkpt lat="42.7770630" lon="-7.4260960">
        <ele>432.8</ele>
        <time>2020-04-16T17:40:35Z</time>
      </trkpt>
      <trkpt lat="42.7770030" lon="-7.4261940">
        <ele>433.0</ele>
        <time>2020-04-16T17:40:37Z</time>
      </trkpt>
      <trkpt lat="42.7769410" lon="-7.4262940">
        <ele>433.3</ele>
        <time>2020-04-16T17:40:39Z</time>
      </trkpt>
      <trkpt lat="42.7768780" lon="-7.4263970">
        <ele>433.7</ele>
        <time>2020-04-16T17:40:41Z</time>
      </trkpt>
      <trkpt lat="42.7768150" lon="-7.4265000">
        <ele>434.1</ele>
        <time>2020-04-16T17:40:43Z</time>
      </trkpt>
      <trkpt lat="42.7767500" lon="-7.4266050">
        <ele>434.7</ele>
        <time>2020-04-16T17:40:45Z</time>
      </trkpt>
      <trkpt lat="42.7765220" lon="-7.4267850">
        <ele>435.2</ele>
        <time>2020-04-16T17:40:47Z</time>
      </trkpt>
      <trkpt lat="42.7764360" lon="-7.4266220">
        <ele>434.7</ele>
        <time>2020-04-16T17:40:49Z</time>
      </trkpt>
      <trkpt lat="42.7763220" lon="-7.4265650">
        <ele>434.4</ele>
        <time>2020-04-16T17:40:51Z</time>
      </trkpt>
      <trkpt lat="42.7762350" lon="-7.4266440">
        <ele>434.1</ele>
        <time>2020-04-16T17:40:53Z</time>
      </trkpt>
      <trkpt lat="42.7761430" lon="-7.4267690">
        <ele>433.9</ele>
        <time>2020-04-16T17:40:55Z</time>
      </trkpt>
      <trkpt lat="42.7760830" lon="-7.4268370">
        <ele>433.7</ele>
        <time>2020-04-16T17:40:57Z</time>
      </trkpt>
      <trkpt lat="42.7759810" lon="-7.4269450">
        <ele>433.5</ele>
        <time>2020-04-16T17:40:59Z</time>
      </trkpt>
      <trkpt lat="42.7759180" lon="-7.4269860">
        <ele>433.4</ele>
        <time>2020-04-16T17:41:01Z</time>
      </trkpt>
      <trkpt lat="42.7758580" lon="-7.4270250">
        <ele>433.4</ele>
        <time>2020-04-16T17:41:03Z</time>
      </trkpt>
      <trkpt lat="42.7758010" lon="-7.4270620">
        <ele>433.3</ele>
        <time>2020-04-16T17:41:05Z</time>
      </trkpt>
      <trkpt lat="42.7756790" lon="-7.4271580">
        <ele>433.2</ele>
        <time>2020-04-16T17:41:07Z</time>
      </trkpt>
      <trkpt lat="42.7756260" lon="-7.4272110">
        <ele>433.2</ele>
        <time>2020-04-16T17:41:09Z</time>
      </trkpt>
      <trkpt lat="42.7755350" lon="-7.4273130">
        <ele>433.2</ele>
        <time>2020-04-16T17:41:11Z</time>
      </trkpt>
      <trkpt lat="42.7754890" lon="-7.4273770">
        <ele>433.3</ele>
        <time>2020-04-16T17:41:13Z</time>
      </trkpt>
      <trkpt lat="42.7754420" lon="-7.4274410">
        <ele>433.3</ele>
        <time>2020-04-16T17:41:15Z</time>
      </trkpt>
      <trkpt lat="42.7753520" lon="-7.4275740">
        <ele>433.5</ele>
        <time>2020-04-16T17:41:17Z</time>
      </trkpt>
      <trkpt lat="42.7752850" lon="-7.4276850">
        <ele>433.7</ele>
        <time>2020-04-16T17:41:19Z</time>
      </trkpt>
      <trkpt lat="42.7752420" lon="-7.4277550">
        <ele>433.8</ele>
        <time>2020-04-16T17:41:21Z</time>
      </trkpt>
      <trkpt lat="42.7752000" lon="-7.4278250">
        <ele>433.9</ele>
        <time>2020-04-16T17:41:23Z</time>
      </trkpt>
      <trkpt lat="42.7751570" lon="-7.4278950">
        <ele>434.1</ele>
        <time>2020-04-16T17:41:25Z</time>
      </trkpt>
      <trkpt lat="42.7751140" lon="-7.4279650">
        <ele>434.2</ele>
        <time>2020-04-16T17:41:27Z</time>
      </trkpt>
      <trkpt lat="42.7749950" lon="-7.4281500">
        <ele>434.6</ele>
        <time>2020-04-16T17:41:29Z</time>
      </trkpt>
      <trkpt lat="42.7749400" lon="-7.4282130">
        <ele>434.7</ele>
        <time>2020-04-16T17:41:31Z</time>
      </trkpt>
      <trkpt lat="42.7748510" lon="-7.4283150">
        <ele>435.0</ele>
        <time>2020-04-16T17:41:33Z</time>
      </trkpt>
      <trkpt lat="42.7747480" lon="-7.4284340">
        <ele>435.4</ele>
        <time>2020-04-16T17:41:35Z</time>
      </trkpt>
      <trkpt lat="42.7746670" lon="-7.4285290">
        <ele>435.9</ele>
        <time>2020-04-16T17:41:37Z</time>
      </trkpt>
      <trkpt lat="42.7745930" lon="-7.4286480">
        <ele>436.3</ele>
        <time>2020-04-16T17:41:39Z</time>
      </trkpt>
      <trkpt lat="42.7745110" lon="-7.4288180">
        <ele>436.9</ele>
        <time>2020-04-16T17:41:41Z</time>
      </trkpt>
      <trkpt lat="42.7744740" lon="-7.4289430">
        <ele>437.3</ele>
        <time>2020-04-16T17:41:43Z</time>
      </trkpt>
      <trkpt lat="42.7744180" lon="-7.4291720">
        <ele>437.8</ele>
        <time>2020-04-16T17:41:45Z</time>
      </trkpt>
      <trkpt lat="42.7743890" lon="-7.4293020">
        <ele>438.1</ele>
        <time>2020-04-16T17:41:47Z</time>
      </trkpt>
      <trkpt lat="42.7743600" lon="-7.4294290">
        <ele>438.4</ele>
        <time>2020-04-16T17:41:49Z</time>
      </trkpt>
      <trkpt lat="42.7743320" lon="-7.4295510">
        <ele>438.9</ele>
        <time>2020-04-16T17:41:51Z</time>
      </trkpt>
      <trkpt lat="42.7743040" lon="-7.4296720">
        <ele>439.6</ele>
        <time>2020-04-16T17:41:53Z</time>
      </trkpt>
      <trkpt lat="42.7742780" lon="-7.4297910">
        <ele>440.4</ele>
        <time>2020-04-16T17:41:55Z</time>
      </trkpt>
      <trkpt lat="42.7741900" lon="-7.4301460">
        <ele>442.2</ele>
        <time>2020-04-16T17:41:57Z</time>
      </trkpt>
      <trkpt lat="42.7741240" lon="-7.4303090">
        <ele>442.1</ele>
        <time>2020-04-16T17:41:59Z</time>
      </trkpt>
      <trkpt lat="42.7740240" lon="-7.4303880">
        <ele>441.9</ele>
        <time>2020-04-16T17:42:01Z</time>
      </trkpt>
      <trkpt lat="42.7739450" lon="-7.4304350">
        <ele>441.6</ele>
        <time>2020-04-16T17:42:03Z</time>
      </trkpt>
      <trkpt lat="42.7738660" lon="-7.4304810">
        <ele>441.3</ele>
        <time>2020-04-16T17:42:05Z</time>
      </trkpt>
      <trkpt lat="42.7737060" lon="-7.4305720">
        <ele>440.6</ele>
        <time>2020-04-16T17:42:07Z</time>
      </trkpt>
      <trkpt lat="42.7736230" lon="-7.4306140">
        <ele>440.3</ele>
        <time>2020-04-16T17:42:09Z</time>
      </trkpt>
      <trkpt lat="42.7734720" lon="-7.4306730">
        <ele>439.7</ele>
        <time>2020-04-16T17:42:11Z</time>
      </trkpt>
      <trkpt lat="42.7733580" lon="-7.4307240">
        <ele>439.3</ele>
        <time>2020-04-16T17:42:13Z</time>
      </trkpt>
      <trkpt lat="42.7732700" lon="-7.4307810">
        <ele>439.0</ele>
        <time>2020-04-16T17:42:15Z</time>
      </trkpt>
      <trkpt lat="42.7731790" lon="-7.4308390">
        <ele>438.8</ele>
        <time>2020-04-16T17:42:17Z</time>
      </trkpt>
      <trkpt lat="42.7730870" lon="-7.4308980">
        <ele>438.7</ele>
        <time>2020-04-16T17:42:19Z</time>
      </trkpt>
      <trkpt lat="42.7729930" lon="-7.4309580">
        <ele>438.5</ele>
        <time>2020-04-16T17:42:21Z</time>
      </trkpt>
      <trkpt lat="42.7727150" lon="-7.4311440">
        <ele>438.7</ele>
        <time>2020-04-16T17:42:23Z</time>
      </trkpt>
      <trkpt lat="42.7726930" lon="-7.4313190">
        <ele>439.7</ele>
        <time>2020-04-16T17:42:25Z</time>
      </trkpt>
      <trkpt lat="42.7726870" lon="-7.4314460">
        <ele>440.7</ele>
        <time>2020-04-16T17:42:27Z</time>
      </trkpt>
      <trkpt lat="42.7726820" lon="-7.4315690">
        <ele>441.5</ele>
        <time>2020-04-16T17:42:29Z</time>
      </trkpt>
      <trkpt lat="42.7726770" lon="-7.4316860">
        <ele>442.3</ele>
        <time>2020-04-16T17:42:31Z</time>
      </trkpt>
      <trkpt lat="42.7726720" lon="-7.4318000">
        <ele>443.1</ele>
        <time>2020-04-16T17:42:33Z</time>
      </trkpt>
      <trkpt lat="42.7726670" lon="-7.4319090">
        <ele>443.7</ele>
        <time>2020-04-16T17:42:35Z</time>
      </trkpt>
      <trkpt lat="42.7726520" lon="-7.4322440">
        <ele>445.8</ele>
        <time>2020-04-16T17:42:37Z</time>
      </trkpt>
      <trkpt lat="42.7726470" lon="-7.4323750">
        <ele>446.7</ele>
        <time>2020-04-16T17:42:39Z</time>
      </trkpt>
      <trkpt lat="42.7726450" lon="-7.4324290">
        <ele>447.1</ele>
        <time>2020-04-16T17:42:41Z</time>
      </trkpt>
      <trkpt lat="42.7726440" lon="-7.4324610">
        <ele>447.4</ele>
        <time>2020-04-16T17:42:43Z</time>
      </trkpt>
      <trkpt lat="42.7726430" lon="-7.4324880">
        <ele>447.6</ele>
        <time>2020-04-16T17:42:45Z</time>
      </trkpt>
      <trkpt lat="42.7726420" lon="-7.4325130">
        <ele>447.8</ele>
        <time>2020-04-16T17:42:47Z</time>
      </trkpt>
      <trkpt lat="42.7726410" lon="-7.4325390">
        <ele>448.1</ele>
        <time>2020-04-16T17:42:49Z</time>
      </trkpt>
      <trkpt lat="42.7726400" lon="-7.4325650">
        <ele>448.4</ele>
        <time>2020-04-16T17:42:51Z</time>
      </trkpt>
      <trkpt lat="42.7726390" lon="-7.4325910">
        <ele>448.6</ele>
        <time>2020-04-16T17:42:53Z</time>
      </trkpt>
      <trkpt lat="42.7726380" lon="-7.4326170">
        <ele>448.9</ele>
        <time>2020-04-16T17:42:55Z</time>
      </trkpt>
      <trkpt lat="42.7726360" lon="-7.4326440">
        <ele>449.2</ele>
        <time>2020-04-16T17:42:57Z</time>
      </trkpt>
      <trkpt lat="42.7726350" lon="-7.4326710">
        <ele>449.5</ele>
        <time>2020-04-16T17:42:59Z</time>
      </trkpt>
      <trkpt lat="42.7726340" lon="-7.4326970">
        <ele>449.8</ele>
        <time>2020-04-16T17:43:01Z</time>
      </trkpt>
      <trkpt lat="42.7726330" lon="-7.4327220">
        <ele>450.1</ele>
        <time>2020-04-16T17:43:03Z</time>
      </trkpt>
      <trkpt lat="42.7726320" lon="-7.4327480">
        <ele>450.4</ele>
        <time>2020-04-16T17:43:05Z</time>
      </trkpt>
      <trkpt lat="42.7726310" lon="-7.4327760">
        <ele>450.7</ele>
        <time>2020-04-16T17:43:07Z</time>
      </trkpt>
      <trkpt lat="42.7726300" lon="-7.4328020">
        <ele>451.1</ele>
        <time>2020-04-16T17:43:09Z</time>
      </trkpt>
      <trkpt lat="42.7726210" lon="-7.4330130">
        <ele>454.3</ele>
        <time>2020-04-16T17:43:11Z</time>
      </trkpt>
      <trkpt lat="42.7726140" lon="-7.4330380">
        <ele>454.7</ele>
        <time>2020-04-16T17:43:13Z</time>
      </trkpt>
      <trkpt lat="42.7726070" lon="-7.4330620">
        <ele>455.1</ele>
        <time>2020-04-16T17:43:15Z</time>
      </trkpt>
      <trkpt lat="42.7726000" lon="-7.4330870">
        <ele>455.6</ele>
        <time>2020-04-16T17:43:17Z</time>
      </trkpt>
      <trkpt lat="42.7725930" lon="-7.4331110">
        <ele>456.0</ele>
        <time>2020-04-16T17:43:19Z</time>
      </trkpt>
      <trkpt lat="42.7725860" lon="-7.4331350">
        <ele>456.4</ele>
        <time>2020-04-16T17:43:21Z</time>
      </trkpt>
      <trkpt lat="42.7725790" lon="-7.4331600">
        <ele>456.8</ele>
        <time>2020-04-16T17:43:23Z</time>
      </trkpt>
      <trkpt lat="42.7725720" lon="-7.4331840">
        <ele>457.2</ele>
        <time>2020-04-16T17:43:25Z</time>
      </trkpt>
      <trkpt lat="42.7725650" lon="-7.4332090">
        <ele>457.6</ele>
        <time>2020-04-16T17:43:27Z</time>
      </trkpt>
      <trkpt lat="42.7725350" lon="-7.4333110">
        <ele>459.3</ele>
        <time>2020-04-16T17:43:29Z</time>
      </trkpt>
      <trkpt lat="42.7725270" lon="-7.4333360">
        <ele>459.7</ele>
        <time>2020-04-16T17:43:31Z</time>
      </trkpt>
      <trkpt lat="42.7725190" lon="-7.4333600">
        <ele>460.1</ele>
        <time>2020-04-16T17:43:33Z</time>
      </trkpt>
      <trkpt lat="42.7725120" lon="-7.4333840">
        <ele>460.5</ele>
        <time>2020-04-16T17:43:35Z</time>
      </trkpt>
      <trkpt lat="42.7725040" lon="-7.4334070">
        <ele>460.9</ele>
        <time>2020-04-16T17:43:37Z</time>
      </trkpt>
      <trkpt lat="42.7724960" lon="-7.4334320">
        <ele>461.3</ele>
        <time>2020-04-16T17:43:39Z</time>
      </trkpt>
      <trkpt lat="42.7724880" lon="-7.4334560">
        <ele>461.7</ele>
        <time>2020-04-16T17:43:41Z</time>
      </trkpt>
      <trkpt lat="42.7724610" lon="-7.4335410">
        <ele>463.0</ele>
        <time>2020-04-16T17:43:43Z</time>
      </trkpt>
      <trkpt lat="42.7724590" lon="-7.4335700">
        <ele>463.4</ele>
        <time>2020-04-16T17:43:45Z</time>
      </trkpt>
      <trkpt lat="42.7724590" lon="-7.4335970">
        <ele>463.8</ele>
        <time>2020-04-16T17:43:47Z</time>
      </trkpt>
      <trkpt lat="42.7724580" lon="-7.4336230">
        <ele>464.1</ele>
        <time>2020-04-16T17:43:49Z</time>
      </trkpt>
      <trkpt lat="42.7724580" lon="-7.4336500">
        <ele>464.5</ele>
        <time>2020-04-16T17:43:51Z</time>
      </trkpt>
      <trkpt lat="42.7724570" lon="-7.4336760">
        <ele>464.9</ele>
        <time>2020-04-16T17:43:53Z</time>
      </trkpt>
      <trkpt lat="42.7724560" lon="-7.4337030">
        <ele>465.3</ele>
        <time>2020-04-16T17:43:55Z</time>
      </trkpt>
      <trkpt lat="42.7724560" lon="-7.4337300">
        <ele>465.6</ele>
        <time>2020-04-16T17:43:57Z</time>
      </trkpt>
      <trkpt lat="42.7724550" lon="-7.4337560">
        <ele>466.0</ele>
        <time>2020-04-16T17:43:59Z</time>
      </trkpt>
      <trkpt lat="42.7724540" lon="-7.4337830">
        <ele>466.4</ele>
        <time>2020-04-16T17:44:01Z</time>
      </trkpt>
      <trkpt lat="42.7724540" lon="-7.4338100">
        <ele>466.7</ele>
        <time>2020-04-16T17:44:03Z</time>
      </trkpt>
      <trkpt lat="42.7724530" lon="-7.4338370">
        <ele>467.1</ele>
        <time>2020-04-16T17:44:05Z</time>
      </trkpt>
      <trkpt lat="42.7724500" lon="-7.4339740">
        <ele>469.2</ele>
        <time>2020-04-16T17:44:07Z</time>
      </trkpt>
      <trkpt lat="42.7724470" lon="-7.4340070">
        <ele>469.7</ele>
        <time>2020-04-16T17:44:09Z</time>
      </trkpt>
      <trkpt lat="42.7724450" lon="-7.4340340">
        <ele>470.1</ele>
        <time>2020-04-16T17:44:11Z</time>
      </trkpt>
      <trkpt lat="42.7724430" lon="-7.4340620">
        <ele>470.5</ele>
        <time>2020-04-16T17:44:13Z</time>
      </trkpt>
      <trkpt lat="42.7724410" lon="-7.4340890">
        <ele>470.9</ele>
        <time>2020-04-16T17:44:15Z</time>
      </trkpt>
      <trkpt lat="42.7724400" lon="-7.4341170">
        <ele>471.3</ele>
        <time>2020-04-16T17:44:17Z</time>
      </trkpt>
      <trkpt lat="42.7724380" lon="-7.4341450">
        <ele>471.7</ele>
        <time>2020-04-16T17:44:19Z</time>
      </trkpt>
      <trkpt lat="42.7724360" lon="-7.4341720">
        <ele>472.1</ele>
        <time>2020-04-16T17:44:21Z</time>
      </trkpt>
      <trkpt lat="42.7724340" lon="-7.4341990">
        <ele>472.5</ele>
        <time>2020-04-16T17:44:23Z</time>
      </trkpt>
      <trkpt lat="42.7724330" lon="-7.4342270">
        <ele>472.9</ele>
        <time>2020-04-16T17:44:25Z</time>
      </trkpt>
      <trkpt lat="42.7724310" lon="-7.4342550">
        <ele>473.3</ele>
        <time>2020-04-16T17:44:27Z</time>
      </trkpt>
      <trkpt lat="42.7724210" lon="-7.4343820">
        <ele>474.9</ele>
        <time>2020-04-16T17:44:29Z</time>
      </trkpt>
      <trkpt lat="42.7724180" lon="-7.4344090">
        <ele>475.3</ele>
        <time>2020-04-16T17:44:31Z</time>
      </trkpt>
      <trkpt lat="42.7724150" lon="-7.4344360">
        <ele>475.6</ele>
        <time>2020-04-16T17:44:33Z</time>
      </trkpt>
      <trkpt lat="42.7724120" lon="-7.4344630">
        <ele>476.0</ele>
        <time>2020-04-16T17:44:35Z</time>
      </trkpt>
      <trkpt lat="42.7724090" lon="-7.4344910">
        <ele>476.3</ele>
        <time>2020-04-16T17:44:37Z</time>
      </trkpt>
      <trkpt lat="42.7724060" lon="-7.4345180">
        <ele>476.7</ele>
        <time>2020-04-16T17:44:39Z</time>
      </trkpt>
      <trkpt lat="42.7724030" lon="-7.4345450">
        <ele>477.0</ele>
        <time>2020-04-16T17:44:41Z</time>
      </trkpt>
      <trkpt lat="42.7724000" lon="-7.4345730">
        <ele>477.4</ele>
        <time>2020-04-16T17:44:43Z</time>
      </trkpt>
      <trkpt lat="42.7723910" lon="-7.4346780">
        <ele>478.6</ele>
        <time>2020-04-16T17:44:45Z</time>
      </trkpt>
      <trkpt lat="42.7723900" lon="-7.4347060">
        <ele>478.9</ele>
        <time>2020-04-16T17:44:47Z</time>
      </trkpt>
      <trkpt lat="42.7723900" lon="-7.4347330">
        <ele>479.2</ele>
        <time>2020-04-16T17:44:49Z</time>
      </trkpt>
      <trkpt lat="42.7723890" lon="-7.4347600">
        <ele>479.5</ele>
        <time>2020-04-16T17:44:51Z</time>
      </trkpt>
      <trkpt lat="42.7723890" lon="-7.4347880">
        <ele>479.8</ele>
        <time>2020-04-16T17:44:53Z</time>
      </trkpt>
      <trkpt lat="42.7723880" lon="-7.4348160">
        <ele>480.1</ele>
        <time>2020-04-16T17:44:55Z</time>
      </trkpt>
      <trkpt lat="42.7723880" lon="-7.4348430">
        <ele>480.3</ele>
        <time>2020-04-16T17:44:57Z</time>
      </trkpt>
      <trkpt lat="42.7723870" lon="-7.4348710">
        <ele>480.6</ele>
        <time>2020-04-16T17:44:59Z</time>
      </trkpt>
      <trkpt lat="42.7723870" lon="-7.4348990">
        <ele>480.9</ele>
        <time>2020-04-16T17:45:01Z</time>
      </trkpt>
      <trkpt lat="42.7723860" lon="-7.4349260">
        <ele>481.1</ele>
        <time>2020-04-16T17:45:03Z</time>
      </trkpt>
      <trkpt lat="42.7723860" lon="-7.4349540">
        <ele>481.4</ele>
        <time>2020-04-16T17:45:05Z</time>
      </trkpt>
      <trkpt lat="42.7723850" lon="-7.4349820">
        <ele>481.6</ele>
        <time>2020-04-16T17:45:07Z</time>
      </trkpt>
      <trkpt lat="42.7723850" lon="-7.4350100">
        <ele>481.8</ele>
        <time>2020-04-16T17:45:09Z</time>
      </trkpt>
      <trkpt lat="42.7723840" lon="-7.4350390">
        <ele>482.1</ele>
        <time>2020-04-16T17:45:11Z</time>
      </trkpt>
      <trkpt lat="42.7723840" lon="-7.4350670">
        <ele>482.3</ele>
        <time>2020-04-16T17:45:13Z</time>
      </trkpt>
      <trkpt lat="42.7723830" lon="-7.4350960">
        <ele>482.6</ele>
        <time>2020-04-16T17:45:15Z</time>
      </trkpt>
      <trkpt lat="42.7723820" lon="-7.4351250">
        <ele>482.8</ele>
        <time>2020-04-16T17:45:17Z</time>
      </trkpt>
      <trkpt lat="42.7723820" lon="-7.4351540">
        <ele>483.0</ele>
        <time>2020-04-16T17:45:19Z</time>
      </trkpt>
      <trkpt lat="42.7723810" lon="-7.4351830">
        <ele>483.3</ele>
        <time>2020-04-16T17:45:21Z</time>
      </trkpt>
      <trkpt lat="42.7723780" lon="-7.4353960">
        <ele>485.3</ele>
        <time>2020-04-16T17:45:23Z</time>
      </trkpt>
      <trkpt lat="42.7723770" lon="-7.4354250">
        <ele>485.6</ele>
        <time>2020-04-16T17:45:25Z</time>
      </trkpt>
      <trkpt lat="42.7723770" lon="-7.4354540">
        <ele>485.9</ele>
        <time>2020-04-16T17:45:27Z</time>
      </trkpt>
      <trkpt lat="42.7723770" lon="-7.4354830">
        <ele>486.2</ele>
        <time>2020-04-16T17:45:29Z</time>
      </trkpt>
      <trkpt lat="42.7723770" lon="-7.4355610">
        <ele>487.0</ele>
        <time>2020-04-16T17:45:31Z</time>
      </trkpt>
      <trkpt lat="42.7723790" lon="-7.4356100">
        <ele>487.6</ele>
        <time>2020-04-16T17:45:33Z</time>
      </trkpt>
      <trkpt lat="42.7723820" lon="-7.4356640">
        <ele>488.2</ele>
        <time>2020-04-16T17:45:35Z</time>
      </trkpt>
      <trkpt lat="42.7723850" lon="-7.4357190">
        <ele>488.8</ele>
        <time>2020-04-16T17:45:37Z</time>
      </trkpt>
      <trkpt lat="42.7723880" lon="-7.4357740">
        <ele>489.4</ele>
        <time>2020-04-16T17:45:39Z</time>
      </trkpt>
      <trkpt lat="42.7723910" lon="-7.4358290">
        <ele>490.0</ele>
        <time>2020-04-16T17:45:41Z</time>
      </trkpt>
      <trkpt lat="42.7723940" lon="-7.4358840">
        <ele>490.7</ele>
        <time>2020-04-16T17:45:43Z</time>
      </trkpt>
      <trkpt lat="42.7724040" lon="-7.4360830">
        <ele>492.7</ele>
        <time>2020-04-16T17:45:45Z</time>
      </trkpt>
      <trkpt lat="42.7723980" lon="-7.4361450">
        <ele>493.3</ele>
        <time>2020-04-16T17:45:47Z</time>
      </trkpt>
      <trkpt lat="42.7723930" lon="-7.4362010">
        <ele>493.9</ele>
        <time>2020-04-16T17:45:49Z</time>
      </trkpt>
      <trkpt lat="42.7723890" lon="-7.4362570">
        <ele>494.4</ele>
        <time>2020-04-16T17:45:51Z</time>
      </trkpt>
      <trkpt lat="42.7723680" lon="-7.4363770">
        <ele>495.6</ele>
        <time>2020-04-16T17:45:53Z</time>
      </trkpt>
      <trkpt lat="42.7723350" lon="-7.4363630">
        <ele>496.0</ele>
        <time>2020-04-16T17:45:55Z</time>
      </trkpt>
      <trkpt lat="42.7723190" lon="-7.4363120">
        <ele>496.4</ele>
        <time>2020-04-16T17:45:57Z</time>
      </trkpt>
      <trkpt lat="42.7723040" lon="-7.4362610">
        <ele>496.8</ele>
        <time>2020-04-16T17:45:59Z</time>
      </trkpt>
      <trkpt lat="42.7722880" lon="-7.4362090">
        <ele>497.1</ele>
        <time>2020-04-16T17:46:01Z</time>
      </trkpt>
      <trkpt lat="42.7722500" lon="-7.4360880">
        <ele>497.5</ele>
        <time>2020-04-16T17:46:03Z</time>
      </trkpt>
      <trkpt lat="42.7722310" lon="-7.4360370">
        <ele>497.6</ele>
        <time>2020-04-16T17:46:05Z</time>
      </trkpt>
      <trkpt lat="42.7722130" lon="-7.4359870">
        <ele>497.7</ele>
        <time>2020-04-16T17:46:07Z</time>
      </trkpt>
      <trkpt lat="42.7721950" lon="-7.4359360">
        <ele>497.8</ele>
        <time>2020-04-16T17:46:10Z</time>
      </trkpt>
      <trkpt lat="42.7721310" lon="-7.4358400">
        <ele>498.1</ele>
        <time>2020-04-16T17:46:12Z</time>
      </trkpt>
      <trkpt lat="42.7720830" lon="-7.4358060">
        <ele>498.3</ele>
        <time>2020-04-16T17:46:14Z</time>
      </trkpt>
      <trkpt lat="42.7719940" lon="-7.4357850">
        <ele>498.7</ele>
        <time>2020-04-16T17:46:16Z</time>
      </trkpt>
      <trkpt lat="42.7719380" lon="-7.4357930">
        <ele>499.0</ele>
        <time>2020-04-16T17:46:18Z</time>
      </trkpt>
      <trkpt lat="42.7718240" lon="-7.4358080">
        <ele>499.6</ele>
        <time>2020-04-16T17:46:20Z</time>
      </trkpt>
      <trkpt lat="42.7717670" lon="-7.4358190">
        <ele>500.0</ele>
        <time>2020-04-16T17:46:22Z</time>
      </trkpt>
      <trkpt lat="42.7717090" lon="-7.4358300">
        <ele>500.3</ele>
        <time>2020-04-16T17:46:24Z</time>
      </trkpt>
      <trkpt lat="42.7716510" lon="-7.4358410">
        <ele>500.7</ele>
        <time>2020-04-16T17:46:26Z</time>
      </trkpt>
      <trkpt lat="42.7715200" lon="-7.4358820">
        <ele>501.3</ele>
        <time>2020-04-16T17:46:28Z</time>
      </trkpt>
      <trkpt lat="42.7714700" lon="-7.4359240">
        <ele>501.4</ele>
        <time>2020-04-16T17:46:30Z</time>
      </trkpt>
      <trkpt lat="42.7713860" lon="-7.4360050">
        <ele>501.7</ele>
        <time>2020-04-16T17:46:32Z</time>
      </trkpt>
      <trkpt lat="42.7713360" lon="-7.4360870">
        <ele>501.8</ele>
        <time>2020-04-16T17:46:34Z</time>
      </trkpt>
      <trkpt lat="42.7712880" lon="-7.4361830">
        <ele>502.0</ele>
        <time>2020-04-16T17:46:36Z</time>
      </trkpt>
      <trkpt lat="42.7712610" lon="-7.4362640">
        <ele>502.2</ele>
        <time>2020-04-16T17:46:38Z</time>
      </trkpt>
      <trkpt lat="42.7712310" lon="-7.4363560">
        <ele>502.3</ele>
        <time>2020-04-16T17:46:40Z</time>
      </trkpt>
      <trkpt lat="42.7711970" lon="-7.4364600">
        <ele>502.5</ele>
        <time>2020-04-16T17:46:42Z</time>
      </trkpt>
      <trkpt lat="42.7711600" lon="-7.4365700">
        <ele>502.7</ele>
        <time>2020-04-16T17:46:44Z</time>
      </trkpt>
      <trkpt lat="42.7711210" lon="-7.4366880">
        <ele>502.9</ele>
        <time>2020-04-16T17:46:46Z</time>
      </trkpt>
      <trkpt lat="42.7710140" lon="-7.4370150">
        <ele>503.3</ele>
        <time>2020-04-16T17:46:48Z</time>
      </trkpt>
      <trkpt lat="42.7709720" lon="-7.4371450">
        <ele>503.4</ele>
        <time>2020-04-16T17:46:50Z</time>
      </trkpt>
      <trkpt lat="42.7709280" lon="-7.4372790">
        <ele>503.5</ele>
        <time>2020-04-16T17:46:52Z</time>
      </trkpt>
      <trkpt lat="42.7708280" lon="-7.4375780">
        <ele>503.8</ele>
        <time>2020-04-16T17:46:54Z</time>
      </trkpt>
      <trkpt lat="42.7707490" lon="-7.4377420">
        <ele>504.1</ele>
        <time>2020-04-16T17:46:56Z</time>
      </trkpt>
      <trkpt lat="42.7706710" lon="-7.4378580">
        <ele>504.2</ele>
        <time>2020-04-16T17:46:58Z</time>
      </trkpt>
      <trkpt lat="42.7705930" lon="-7.4379760">
        <ele>504.3</ele>
        <time>2020-04-16T17:47:00Z</time>
      </trkpt>
      <trkpt lat="42.7705130" lon="-7.4380970">
        <ele>504.3</ele>
        <time>2020-04-16T17:47:02Z</time>
      </trkpt>
      <trkpt lat="42.7703270" lon="-7.4383850">
        <ele>504.2</ele>
        <time>2020-04-16T17:47:04Z</time>
      </trkpt>
      <trkpt lat="42.7702410" lon="-7.4385540">
        <ele>504.3</ele>
        <time>2020-04-16T17:47:06Z</time>
      </trkpt>
      <trkpt lat="42.7701580" lon="-7.4387520">
        <ele>504.3</ele>
        <time>2020-04-16T17:47:08Z</time>
      </trkpt>
      <trkpt lat="42.7700670" lon="-7.4389850">
        <ele>504.4</ele>
        <time>2020-04-16T17:47:10Z</time>
      </trkpt>
      <trkpt lat="42.7700070" lon="-7.4391330">
        <ele>504.4</ele>
        <time>2020-04-16T17:47:12Z</time>
      </trkpt>
      <trkpt lat="42.7699480" lon="-7.4392790">
        <ele>504.4</ele>
        <time>2020-04-16T17:47:14Z</time>
      </trkpt>
      <trkpt lat="42.7698230" lon="-7.4395870">
        <ele>504.8</ele>
        <time>2020-04-16T17:47:16Z</time>
      </trkpt>
      <trkpt lat="42.7698660" lon="-7.4397770">
        <ele>505.1</ele>
        <time>2020-04-16T17:47:18Z</time>
      </trkpt>
      <trkpt lat="42.7700030" lon="-7.4398800">
        <ele>505.4</ele>
        <time>2020-04-16T17:47:20Z</time>
      </trkpt>
      <trkpt lat="42.7701560" lon="-7.4399900">
        <ele>505.8</ele>
        <time>2020-04-16T17:47:22Z</time>
      </trkpt>
      <trkpt lat="42.7702740" lon="-7.4401040">
        <ele>506.2</ele>
        <time>2020-04-16T17:47:24Z</time>
      </trkpt>
      <trkpt lat="42.7703740" lon="-7.4403060">
        <ele>506.8</ele>
        <time>2020-04-16T17:47:26Z</time>
      </trkpt>
      <trkpt lat="42.7704110" lon="-7.4404790">
        <ele>507.2</ele>
        <time>2020-04-16T17:47:28Z</time>
      </trkpt>
      <trkpt lat="42.7704740" lon="-7.4407500">
        <ele>507.8</ele>
        <time>2020-04-16T17:47:30Z</time>
      </trkpt>
      <trkpt lat="42.7705390" lon="-7.4410350">
        <ele>508.0</ele>
        <time>2020-04-16T17:47:32Z</time>
      </trkpt>
      <trkpt lat="42.7705790" lon="-7.4413010">
        <ele>508.0</ele>
        <time>2020-04-16T17:47:34Z</time>
      </trkpt>
      <trkpt lat="42.7705980" lon="-7.4415520">
        <ele>507.8</ele>
        <time>2020-04-16T17:47:36Z</time>
      </trkpt>
      <trkpt lat="42.7706200" lon="-7.4418120">
        <ele>507.5</ele>
        <time>2020-04-16T17:47:38Z</time>
      </trkpt>
      <trkpt lat="42.7706680" lon="-7.4420250">
        <ele>507.2</ele>
        <time>2020-04-16T17:47:40Z</time>
      </trkpt>
      <trkpt lat="42.7707070" lon="-7.4421680">
        <ele>507.0</ele>
        <time>2020-04-16T17:47:42Z</time>
      </trkpt>
      <trkpt lat="42.7707660" lon="-7.4423890">
        <ele>506.8</ele>
        <time>2020-04-16T17:47:44Z</time>
      </trkpt>
      <trkpt lat="42.7708110" lon="-7.4425850">
        <ele>506.6</ele>
        <time>2020-04-16T17:47:46Z</time>
      </trkpt>
      <trkpt lat="42.7708280" lon="-7.4427050">
        <ele>506.5</ele>
        <time>2020-04-16T17:47:48Z</time>
      </trkpt>
      <trkpt lat="42.7708560" lon="-7.4428660">
        <ele>506.5</ele>
        <time>2020-04-16T17:47:50Z</time>
      </trkpt>
      <trkpt lat="42.7708750" lon="-7.4429520">
        <ele>506.5</ele>
        <time>2020-04-16T17:47:52Z</time>
      </trkpt>
      <trkpt lat="42.7708990" lon="-7.4430910">
        <ele>506.5</ele>
        <time>2020-04-16T17:47:54Z</time>
      </trkpt>
      <trkpt lat="42.7709120" lon="-7.4432080">
        <ele>506.5</ele>
        <time>2020-04-16T17:47:56Z</time>
      </trkpt>
      <trkpt lat="42.7709030" lon="-7.4432950">
        <ele>506.5</ele>
        <time>2020-04-16T17:47:58Z</time>
      </trkpt>
      <trkpt lat="42.7708660" lon="-7.4433500">
        <ele>506.5</ele>
        <time>2020-04-16T17:48:00Z</time>
      </trkpt>
      <trkpt lat="42.7708160" lon="-7.4433830">
        <ele>506.5</ele>
        <time>2020-04-16T17:48:02Z</time>
      </trkpt>
      <trkpt lat="42.7707760" lon="-7.4433990">
        <ele>506.6</ele>
        <time>2020-04-16T17:48:04Z</time>
      </trkpt>
      <trkpt lat="42.7707360" lon="-7.4434150">
        <ele>506.6</ele>
        <time>2020-04-16T17:48:06Z</time>
      </trkpt>
      <trkpt lat="42.7706960" lon="-7.4434300">
        <ele>506.6</ele>
        <time>2020-04-16T17:48:08Z</time>
      </trkpt>
      <trkpt lat="42.7706560" lon="-7.4434450">
        <ele>506.6</ele>
        <time>2020-04-16T17:48:10Z</time>
      </trkpt>
      <trkpt lat="42.7705440" lon="-7.4434940">
        <ele>506.8</ele>
        <time>2020-04-16T17:48:12Z</time>
      </trkpt>
      <trkpt lat="42.7704980" lon="-7.4435210">
        <ele>506.9</ele>
        <time>2020-04-16T17:48:14Z</time>
      </trkpt>
      <trkpt lat="42.7704490" lon="-7.4435490">
        <ele>507.1</ele>
        <time>2020-04-16T17:48:16Z</time>
      </trkpt>
      <trkpt lat="42.7703990" lon="-7.4435770">
        <ele>507.3</ele>
        <time>2020-04-16T17:48:18Z</time>
      </trkpt>
      <trkpt lat="42.7702890" lon="-7.4436460">
        <ele>508.0</ele>
        <time>2020-04-16T17:48:20Z</time>
      </trkpt>
      <trkpt lat="42.7702400" lon="-7.4436800">
        <ele>508.5</ele>
        <time>2020-04-16T17:48:22Z</time>
      </trkpt>
      <trkpt lat="42.7701500" lon="-7.4437490">
        <ele>509.4</ele>
        <time>2020-04-16T17:48:24Z</time>
      </trkpt>
      <trkpt lat="42.7701040" lon="-7.4437910">
        <ele>510.0</ele>
        <time>2020-04-16T17:48:26Z</time>
      </trkpt>
      <trkpt lat="42.7700580" lon="-7.4438340">
        <ele>510.7</ele>
        <time>2020-04-16T17:48:28Z</time>
      </trkpt>
      <trkpt lat="42.7699700" lon="-7.4439300">
        <ele>512.1</ele>
        <time>2020-04-16T17:48:30Z</time>
      </trkpt>
      <trkpt lat="42.7699350" lon="-7.4439890">
        <ele>512.7</ele>
        <time>2020-04-16T17:48:32Z</time>
      </trkpt>
      <trkpt lat="42.7698680" lon="-7.4440970">
        <ele>513.9</ele>
        <time>2020-04-16T17:48:34Z</time>
      </trkpt>
      <trkpt lat="42.7698280" lon="-7.4441530">
        <ele>514.4</ele>
        <time>2020-04-16T17:48:36Z</time>
      </trkpt>
      <trkpt lat="42.7697570" lon="-7.4442420">
        <ele>515.2</ele>
        <time>2020-04-16T17:48:38Z</time>
      </trkpt>
      <trkpt lat="42.7697090" lon="-7.4442850">
        <ele>515.7</ele>
        <time>2020-04-16T17:48:40Z</time>
      </trkpt>
      <trkpt lat="42.7696330" lon="-7.4443500">
        <ele>516.4</ele>
        <time>2020-04-16T17:48:42Z</time>
      </trkpt>
      <trkpt lat="42.7695450" lon="-7.4444150">
        <ele>516.9</ele>
        <time>2020-04-16T17:48:44Z</time>
      </trkpt>
      <trkpt lat="42.7694790" lon="-7.4444120">
        <ele>516.9</ele>
        <time>2020-04-16T17:48:46Z</time>
      </trkpt>
      <trkpt lat="42.7693750" lon="-7.4444000">
        <ele>517.1</ele>
        <time>2020-04-16T17:48:48Z</time>
      </trkpt>
      <trkpt lat="42.7692690" lon="-7.4443810">
        <ele>517.4</ele>
        <time>2020-04-16T17:48:50Z</time>
      </trkpt>
      <trkpt lat="42.7691720" lon="-7.4443620">
        <ele>517.7</ele>
        <time>2020-04-16T17:48:52Z</time>
      </trkpt>
      <trkpt lat="42.7690810" lon="-7.4443030">
        <ele>518.1</ele>
        <time>2020-04-16T17:48:54Z</time>
      </trkpt>
      <trkpt lat="42.7690120" lon="-7.4442280">
        <ele>518.5</ele>
        <time>2020-04-16T17:48:56Z</time>
      </trkpt>
      <trkpt lat="42.7689150" lon="-7.4441570">
        <ele>519.1</ele>
        <time>2020-04-16T17:48:58Z</time>
      </trkpt>
      <trkpt lat="42.7688250" lon="-7.4441390">
        <ele>519.5</ele>
        <time>2020-04-16T17:49:00Z</time>
      </trkpt>
      <trkpt lat="42.7687460" lon="-7.4441910">
        <ele>519.8</ele>
        <time>2020-04-16T17:49:02Z</time>
      </trkpt>
      <trkpt lat="42.7686790" lon="-7.4442850">
        <ele>521.1</ele>
        <time>2020-04-16T17:49:04Z</time>
      </trkpt>
      <trkpt lat="42.7686270" lon="-7.4443900">
        <ele>521.9</ele>
        <time>2020-04-16T17:49:06Z</time>
      </trkpt>
      <trkpt lat="42.7686000" lon="-7.4444670">
        <ele>522.2</ele>
        <time>2020-04-16T17:49:08Z</time>
      </trkpt>
      <trkpt lat="42.7685520" lon="-7.4445820">
        <ele>522.8</ele>
        <time>2020-04-16T17:49:10Z</time>
      </trkpt>
      <trkpt lat="42.7685320" lon="-7.4446970">
        <ele>523.3</ele>
        <time>2020-04-16T17:49:12Z</time>
      </trkpt>
      <trkpt lat="42.7685550" lon="-7.4447710">
        <ele>523.5</ele>
        <time>2020-04-16T17:49:14Z</time>
      </trkpt>
      <trkpt lat="42.7685870" lon="-7.4449020">
        <ele>523.9</ele>
        <time>2020-04-16T17:49:16Z</time>
      </trkpt>
      <trkpt lat="42.7685890" lon="-7.4449940">
        <ele>524.3</ele>
        <time>2020-04-16T17:49:18Z</time>
      </trkpt>
      <trkpt lat="42.7685880" lon="-7.4451210">
        <ele>525.1</ele>
        <time>2020-04-16T17:49:20Z</time>
      </trkpt>
      <trkpt lat="42.7685770" lon="-7.4451970">
        <ele>525.7</ele>
        <time>2020-04-16T17:49:22Z</time>
      </trkpt>
      <trkpt lat="42.7685480" lon="-7.4453150">
        <ele>526.6</ele>
        <time>2020-04-16T17:49:24Z</time>
      </trkpt>
      <trkpt lat="42.7684980" lon="-7.4453990">
        <ele>527.5</ele>
        <time>2020-04-16T17:49:26Z</time>
      </trkpt>
      <trkpt lat="42.7684380" lon="-7.4454600">
        <ele>528.3</ele>
        <time>2020-04-16T17:49:28Z</time>
      </trkpt>
      <trkpt lat="42.7683890" lon="-7.4455020">
        <ele>528.9</ele>
        <time>2020-04-16T17:49:30Z</time>
      </trkpt>
      <trkpt lat="42.7683410" lon="-7.4455430">
        <ele>529.4</ele>
        <time>2020-04-16T17:49:32Z</time>
      </trkpt>
      <trkpt lat="42.7682920" lon="-7.4455850">
        <ele>529.9</ele>
        <time>2020-04-16T17:49:34Z</time>
      </trkpt>
      <trkpt lat="42.7682450" lon="-7.4456260">
        <ele>530.3</ele>
        <time>2020-04-16T17:49:36Z</time>
      </trkpt>
      <trkpt lat="42.7681190" lon="-7.4457360">
        <ele>531.0</ele>
        <time>2020-04-16T17:49:38Z</time>
      </trkpt>
      <trkpt lat="42.7680720" lon="-7.4457790">
        <ele>531.1</ele>
        <time>2020-04-16T17:49:40Z</time>
      </trkpt>
      <trkpt lat="42.7680240" lon="-7.4458230">
        <ele>531.3</ele>
        <time>2020-04-16T17:49:42Z</time>
      </trkpt>
      <trkpt lat="42.7679300" lon="-7.4459220">
        <ele>531.8</ele>
        <time>2020-04-16T17:49:44Z</time>
      </trkpt>
      <trkpt lat="42.7678890" lon="-7.4459750">
        <ele>532.0</ele>
        <time>2020-04-16T17:49:46Z</time>
      </trkpt>
      <trkpt lat="42.7678180" lon="-7.4460680">
        <ele>532.4</ele>
        <time>2020-04-16T17:49:48Z</time>
      </trkpt>
      <trkpt lat="42.7677730" lon="-7.4461280">
        <ele>532.7</ele>
        <time>2020-04-16T17:49:50Z</time>
      </trkpt>
      <trkpt lat="42.7676820" lon="-7.4462470">
        <ele>533.2</ele>
        <time>2020-04-16T17:49:52Z</time>
      </trkpt>
      <trkpt lat="42.7676280" lon="-7.4463000">
        <ele>533.5</ele>
        <time>2020-04-16T17:49:54Z</time>
      </trkpt>
      <trkpt lat="42.7675730" lon="-7.4463540">
        <ele>533.8</ele>
        <time>2020-04-16T17:49:56Z</time>
      </trkpt>
      <trkpt lat="42.7675170" lon="-7.4464080">
        <ele>534.2</ele>
        <time>2020-04-16T17:49:58Z</time>
      </trkpt>
      <trkpt lat="42.7674620" lon="-7.4464620">
        <ele>534.5</ele>
        <time>2020-04-16T17:50:00Z</time>
      </trkpt>
      <trkpt lat="42.7673210" lon="-7.4466120">
        <ele>535.3</ele>
        <time>2020-04-16T17:50:02Z</time>
      </trkpt>
      <trkpt lat="42.7672560" lon="-7.4466950">
        <ele>535.5</ele>
        <time>2020-04-16T17:50:04Z</time>
      </trkpt>
      <trkpt lat="42.7672050" lon="-7.4467590">
        <ele>535.6</ele>
        <time>2020-04-16T17:50:06Z</time>
      </trkpt>
      <trkpt lat="42.7671200" lon="-7.4468700">
        <ele>535.9</ele>
        <time>2020-04-16T17:50:08Z</time>
      </trkpt>
      <trkpt lat="42.7670740" lon="-7.4469310">
        <ele>536.1</ele>
        <time>2020-04-16T17:50:10Z</time>
      </trkpt>
      <trkpt lat="42.7669900" lon="-7.4470460">
        <ele>536.4</ele>
        <time>2020-04-16T17:50:12Z</time>
      </trkpt>
      <trkpt lat="42.7669300" lon="-7.4471330">
        <ele>536.6</ele>
        <time>2020-04-16T17:50:14Z</time>
      </trkpt>
      <trkpt lat="42.7669000" lon="-7.4472020">
        <ele>536.8</ele>
        <time>2020-04-16T17:50:16Z</time>
      </trkpt>
      <trkpt lat="42.7668530" lon="-7.4473150">
        <ele>537.2</ele>
        <time>2020-04-16T17:50:18Z</time>
      </trkpt>
      <trkpt lat="42.7668300" lon="-7.4473860">
        <ele>537.6</ele>
        <time>2020-04-16T17:50:20Z</time>
      </trkpt>
      <trkpt lat="42.7668080" lon="-7.4474560">
        <ele>538.1</ele>
        <time>2020-04-16T17:50:22Z</time>
      </trkpt>
      <trkpt lat="42.7667850" lon="-7.4475260">
        <ele>538.7</ele>
        <time>2020-04-16T17:50:24Z</time>
      </trkpt>
      <trkpt lat="42.7667340" lon="-7.4476790">
        <ele>540.2</ele>
        <time>2020-04-16T17:50:26Z</time>
      </trkpt>
      <trkpt lat="42.7667090" lon="-7.4477470">
        <ele>540.9</ele>
        <time>2020-04-16T17:50:28Z</time>
      </trkpt>
      <trkpt lat="42.7666860" lon="-7.4478150">
        <ele>541.6</ele>
        <time>2020-04-16T17:50:30Z</time>
      </trkpt>
      <trkpt lat="42.7666380" lon="-7.4479700">
        <ele>543.1</ele>
        <time>2020-04-16T17:50:32Z</time>
      </trkpt>
      <trkpt lat="42.7666140" lon="-7.4480790">
        <ele>544.0</ele>
        <time>2020-04-16T17:50:34Z</time>
      </trkpt>
      <trkpt lat="42.7666020" lon="-7.4481520">
        <ele>544.5</ele>
        <time>2020-04-16T17:50:36Z</time>
      </trkpt>
      <trkpt lat="42.7665860" lon="-7.4482680">
        <ele>545.2</ele>
        <time>2020-04-16T17:50:38Z</time>
      </trkpt>
      <trkpt lat="42.7665820" lon="-7.4483430">
        <ele>545.5</ele>
        <time>2020-04-16T17:50:40Z</time>
      </trkpt>
      <trkpt lat="42.7665760" lon="-7.4484600">
        <ele>545.8</ele>
        <time>2020-04-16T17:50:42Z</time>
      </trkpt>
      <trkpt lat="42.7665720" lon="-7.4485350">
        <ele>546.0</ele>
        <time>2020-04-16T17:50:44Z</time>
      </trkpt>
      <trkpt lat="42.7665690" lon="-7.4486100">
        <ele>546.2</ele>
        <time>2020-04-16T17:50:46Z</time>
      </trkpt>
      <trkpt lat="42.7665600" lon="-7.4487890">
        <ele>546.6</ele>
        <time>2020-04-16T17:50:48Z</time>
      </trkpt>
      <trkpt lat="42.7665570" lon="-7.4488650">
        <ele>546.7</ele>
        <time>2020-04-16T17:50:50Z</time>
      </trkpt>
      <trkpt lat="42.7665440" lon="-7.4489810">
        <ele>546.9</ele>
        <time>2020-04-16T17:50:52Z</time>
      </trkpt>
      <trkpt lat="42.7665180" lon="-7.4490820">
        <ele>547.0</ele>
        <time>2020-04-16T17:50:54Z</time>
      </trkpt>
      <trkpt lat="42.7664960" lon="-7.4491500">
        <ele>547.1</ele>
        <time>2020-04-16T17:50:56Z</time>
      </trkpt>
      <trkpt lat="42.7664740" lon="-7.4492190">
        <ele>547.3</ele>
        <time>2020-04-16T17:50:58Z</time>
      </trkpt>
      <trkpt lat="42.7664250" lon="-7.4493540">
        <ele>547.6</ele>
        <time>2020-04-16T17:51:00Z</time>
      </trkpt>
      <trkpt lat="42.7663670" lon="-7.4494940">
        <ele>548.0</ele>
        <time>2020-04-16T17:51:02Z</time>
      </trkpt>
      <trkpt lat="42.7663230" lon="-7.4495910">
        <ele>548.3</ele>
        <time>2020-04-16T17:51:04Z</time>
      </trkpt>
      <trkpt lat="42.7662440" lon="-7.4497590">
        <ele>548.8</ele>
        <time>2020-04-16T17:51:06Z</time>
      </trkpt>
      <trkpt lat="42.7661920" lon="-7.4498650">
        <ele>549.0</ele>
        <time>2020-04-16T17:51:08Z</time>
      </trkpt>
      <trkpt lat="42.7661030" lon="-7.4500140">
        <ele>549.3</ele>
        <time>2020-04-16T17:51:10Z</time>
      </trkpt>
      <trkpt lat="42.7660050" lon="-7.4501500">
        <ele>549.5</ele>
        <time>2020-04-16T17:51:12Z</time>
      </trkpt>
      <trkpt lat="42.7659110" lon="-7.4503240">
        <ele>549.7</ele>
        <time>2020-04-16T17:51:14Z</time>
      </trkpt>
      <trkpt lat="42.7659650" lon="-7.4504560">
        <ele>550.0</ele>
        <time>2020-04-16T17:51:16Z</time>
      </trkpt>
      <trkpt lat="42.7660250" lon="-7.4505400">
        <ele>550.3</ele>
        <time>2020-04-16T17:51:18Z</time>
      </trkpt>
      <trkpt lat="42.7660770" lon="-7.4506120">
        <ele>550.5</ele>
        <time>2020-04-16T17:51:20Z</time>
      </trkpt>
      <trkpt lat="42.7661210" lon="-7.4506730">
        <ele>550.8</ele>
        <time>2020-04-16T17:51:22Z</time>
      </trkpt>
      <trkpt lat="42.7662400" lon="-7.4508370">
        <ele>551.2</ele>
        <time>2020-04-16T17:51:24Z</time>
      </trkpt>
      <trkpt lat="42.7662760" lon="-7.4508840">
        <ele>551.4</ele>
        <time>2020-04-16T17:51:26Z</time>
      </trkpt>
      <trkpt lat="42.7663100" lon="-7.4509270">
        <ele>551.7</ele>
        <time>2020-04-16T17:51:28Z</time>
      </trkpt>
      <trkpt lat="42.7663830" lon="-7.4510180">
        <ele>552.3</ele>
        <time>2020-04-16T17:51:30Z</time>
      </trkpt>
      <trkpt lat="42.7664160" lon="-7.4510540">
        <ele>552.6</ele>
        <time>2020-04-16T17:51:32Z</time>
      </trkpt>
      <trkpt lat="42.7664490" lon="-7.4510890">
        <ele>552.8</ele>
        <time>2020-04-16T17:51:34Z</time>
      </trkpt>
      <trkpt lat="42.7664810" lon="-7.4511250">
        <ele>553.1</ele>
        <time>2020-04-16T17:51:36Z</time>
      </trkpt>
      <trkpt lat="42.7665130" lon="-7.4511590">
        <ele>553.4</ele>
        <time>2020-04-16T17:51:38Z</time>
      </trkpt>
      <trkpt lat="42.7665450" lon="-7.4511940">
        <ele>553.8</ele>
        <time>2020-04-16T17:51:40Z</time>
      </trkpt>
      <trkpt lat="42.7666440" lon="-7.4512990">
        <ele>554.7</ele>
        <time>2020-04-16T17:51:42Z</time>
      </trkpt>
      <trkpt lat="42.7666780" lon="-7.4513320">
        <ele>555.0</ele>
        <time>2020-04-16T17:51:44Z</time>
      </trkpt>
      <trkpt lat="42.7667400" lon="-7.4513930">
        <ele>555.6</ele>
        <time>2020-04-16T17:51:46Z</time>
      </trkpt>
      <trkpt lat="42.7667810" lon="-7.4514330">
        <ele>556.0</ele>
        <time>2020-04-16T17:51:48Z</time>
      </trkpt>
      <trkpt lat="42.7668260" lon="-7.4514770">
        <ele>556.4</ele>
        <time>2020-04-16T17:51:50Z</time>
      </trkpt>
      <trkpt lat="42.7668730" lon="-7.4515220">
        <ele>556.8</ele>
        <time>2020-04-16T17:51:52Z</time>
      </trkpt>
      <trkpt lat="42.7669200" lon="-7.4515690">
        <ele>557.2</ele>
        <time>2020-04-16T17:51:54Z</time>
      </trkpt>
      <trkpt lat="42.7669670" lon="-7.4516150">
        <ele>557.6</ele>
        <time>2020-04-16T17:51:56Z</time>
      </trkpt>
      <trkpt lat="42.7671130" lon="-7.4517550">
        <ele>558.8</ele>
        <time>2020-04-16T17:51:58Z</time>
      </trkpt>
      <trkpt lat="42.7671640" lon="-7.4517970">
        <ele>559.1</ele>
        <time>2020-04-16T17:52:00Z</time>
      </trkpt>
      <trkpt lat="42.7672150" lon="-7.4518390">
        <ele>559.5</ele>
        <time>2020-04-16T17:52:02Z</time>
      </trkpt>
      <trkpt lat="42.7672660" lon="-7.4518820">
        <ele>559.9</ele>
        <time>2020-04-16T17:52:04Z</time>
      </trkpt>
      <trkpt lat="42.7673180" lon="-7.4519250">
        <ele>560.3</ele>
        <time>2020-04-16T17:52:06Z</time>
      </trkpt>
      <trkpt lat="42.7673700" lon="-7.4519690">
        <ele>560.7</ele>
        <time>2020-04-16T17:52:08Z</time>
      </trkpt>
      <trkpt lat="42.7674220" lon="-7.4520120">
        <ele>561.1</ele>
        <time>2020-04-16T17:52:10Z</time>
      </trkpt>
      <trkpt lat="42.7676050" lon="-7.4521650">
        <ele>562.7</ele>
        <time>2020-04-16T17:52:12Z</time>
      </trkpt>
      <trkpt lat="42.7676710" lon="-7.4522180">
        <ele>563.3</ele>
        <time>2020-04-16T17:52:14Z</time>
      </trkpt>
      <trkpt lat="42.7677360" lon="-7.4522690">
        <ele>563.9</ele>
        <time>2020-04-16T17:52:16Z</time>
      </trkpt>
      <trkpt lat="42.7678070" lon="-7.4523250">
        <ele>564.5</ele>
        <time>2020-04-16T17:52:18Z</time>
      </trkpt>
      <trkpt lat="42.7678820" lon="-7.4523840">
        <ele>565.2</ele>
        <time>2020-04-16T17:52:20Z</time>
      </trkpt>
      <trkpt lat="42.7679580" lon="-7.4524440">
        <ele>565.9</ele>
        <time>2020-04-16T17:52:22Z</time>
      </trkpt>
      <trkpt lat="42.7681620" lon="-7.4525910">
        <ele>567.4</ele>
        <time>2020-04-16T17:52:24Z</time>
      </trkpt>
      <trkpt lat="42.7682450" lon="-7.4526440">
        <ele>567.9</ele>
        <time>2020-04-16T17:52:26Z</time>
      </trkpt>
      <trkpt lat="42.7683280" lon="-7.4526960">
        <ele>568.3</ele>
        <time>2020-04-16T17:52:28Z</time>
      </trkpt>
      <trkpt lat="42.7684130" lon="-7.4527490">
        <ele>568.8</ele>
        <time>2020-04-16T17:52:30Z</time>
      </trkpt>
      <trkpt lat="42.7686270" lon="-7.4529040">
        <ele>569.6</ele>
        <time>2020-04-16T17:52:32Z</time>
      </trkpt>
      <trkpt lat="42.7687000" lon="-7.4530170">
        <ele>569.8</ele>
        <time>2020-04-16T17:52:34Z</time>
      </trkpt>
      <trkpt lat="42.7687550" lon="-7.4531090">
        <ele>570.0</ele>
        <time>2020-04-16T17:52:36Z</time>
      </trkpt>
      <trkpt lat="42.7688080" lon="-7.4531970">
        <ele>570.3</ele>
        <time>2020-04-16T17:52:38Z</time>
      </trkpt>
      <trkpt lat="42.7688590" lon="-7.4532820">
        <ele>570.6</ele>
        <time>2020-04-16T17:52:40Z</time>
      </trkpt>
      <trkpt lat="42.7689990" lon="-7.4535150">
        <ele>571.3</ele>
        <time>2020-04-16T17:52:42Z</time>
      </trkpt>
      <trkpt lat="42.7690440" lon="-7.4535950">
        <ele>571.6</ele>
        <time>2020-04-16T17:52:44Z</time>
      </trkpt>
      <trkpt lat="42.7691200" lon="-7.4537340">
        <ele>572.2</ele>
        <time>2020-04-16T17:52:46Z</time>
      </trkpt>
      <trkpt lat="42.7691560" lon="-7.4538180">
        <ele>572.6</ele>
        <time>2020-04-16T17:52:48Z</time>
      </trkpt>
      <trkpt lat="42.7692120" lon="-7.4539610">
        <ele>573.2</ele>
        <time>2020-04-16T17:52:50Z</time>
      </trkpt>
      <trkpt lat="42.7692390" lon="-7.4540420">
        <ele>573.5</ele>
        <time>2020-04-16T17:52:52Z</time>
      </trkpt>
      <trkpt lat="42.7692840" lon="-7.4541840">
        <ele>574.1</ele>
        <time>2020-04-16T17:52:54Z</time>
      </trkpt>
      <trkpt lat="42.7693030" lon="-7.4542610">
        <ele>574.5</ele>
        <time>2020-04-16T17:52:56Z</time>
      </trkpt>
      <trkpt lat="42.7693200" lon="-7.4543320">
        <ele>574.8</ele>
        <time>2020-04-16T17:52:58Z</time>
      </trkpt>
      <trkpt lat="42.7693480" lon="-7.4544530">
        <ele>575.5</ele>
        <time>2020-04-16T17:53:00Z</time>
      </trkpt>
      <trkpt lat="42.7693620" lon="-7.4545190">
        <ele>575.9</ele>
        <time>2020-04-16T17:53:02Z</time>
      </trkpt>
      <trkpt lat="42.7693760" lon="-7.4545850">
        <ele>576.2</ele>
        <time>2020-04-16T17:53:04Z</time>
      </trkpt>
      <trkpt lat="42.7694020" lon="-7.4547330">
        <ele>577.1</ele>
        <time>2020-04-16T17:53:06Z</time>
      </trkpt>
      <trkpt lat="42.7694110" lon="-7.4548000">
        <ele>577.4</ele>
        <time>2020-04-16T17:53:08Z</time>
      </trkpt>
      <trkpt lat="42.7694230" lon="-7.4549130">
        <ele>578.0</ele>
        <time>2020-04-16T17:53:10Z</time>
      </trkpt>
      <trkpt lat="42.7694280" lon="-7.4549810">
        <ele>578.4</ele>
        <time>2020-04-16T17:53:12Z</time>
      </trkpt>
      <trkpt lat="42.7694330" lon="-7.4550490">
        <ele>578.7</ele>
        <time>2020-04-16T17:53:14Z</time>
      </trkpt>
      <trkpt lat="42.7694450" lon="-7.4552050">
        <ele>579.5</ele>
        <time>2020-04-16T17:53:16Z</time>
      </trkpt>
      <trkpt lat="42.7694520" lon="-7.4552720">
        <ele>579.8</ele>
        <time>2020-04-16T17:53:18Z</time>
      </trkpt>
      <trkpt lat="42.7694650" lon="-7.4553760">
        <ele>580.3</ele>
        <time>2020-04-16T17:53:20Z</time>
      </trkpt>
      <trkpt lat="42.7694760" lon="-7.4554360">
        <ele>580.6</ele>
        <time>2020-04-16T17:53:22Z</time>
      </trkpt>
      <trkpt lat="42.7694960" lon="-7.4555340">
        <ele>581.2</ele>
        <time>2020-04-16T17:53:24Z</time>
      </trkpt>
      <trkpt lat="42.7695090" lon="-7.4555890">
        <ele>581.6</ele>
        <time>2020-04-16T17:53:26Z</time>
      </trkpt>
      <trkpt lat="42.7695230" lon="-7.4556420">
        <ele>581.9</ele>
        <time>2020-04-16T17:53:28Z</time>
      </trkpt>
      <trkpt lat="42.7695360" lon="-7.4556950">
        <ele>582.3</ele>
        <time>2020-04-16T17:53:30Z</time>
      </trkpt>
      <trkpt lat="42.7695710" lon="-7.4558400">
        <ele>583.6</ele>
        <time>2020-04-16T17:53:32Z</time>
      </trkpt>
      <trkpt lat="42.7695740" lon="-7.4558950">
        <ele>584.0</ele>
        <time>2020-04-16T17:53:34Z</time>
      </trkpt>
      <trkpt lat="42.7695780" lon="-7.4559500">
        <ele>584.5</ele>
        <time>2020-04-16T17:53:36Z</time>
      </trkpt>
      <trkpt lat="42.7695690" lon="-7.4560520">
        <ele>585.4</ele>
        <time>2020-04-16T17:53:38Z</time>
      </trkpt>
      <trkpt lat="42.7695500" lon="-7.4561280">
        <ele>586.1</ele>
        <time>2020-04-16T17:53:40Z</time>
      </trkpt>
      <trkpt lat="42.7695370" lon="-7.4561820">
        <ele>586.5</ele>
        <time>2020-04-16T17:53:42Z</time>
      </trkpt>
      <trkpt lat="42.7695080" lon="-7.4562650">
        <ele>587.1</ele>
        <time>2020-04-16T17:53:44Z</time>
      </trkpt>
      <trkpt lat="42.7694870" lon="-7.4563140">
        <ele>587.5</ele>
        <time>2020-04-16T17:53:46Z</time>
      </trkpt>
      <trkpt lat="42.7694430" lon="-7.4564040">
        <ele>588.1</ele>
        <time>2020-04-16T17:53:48Z</time>
      </trkpt>
      <trkpt lat="42.7694150" lon="-7.4564460">
        <ele>588.4</ele>
        <time>2020-04-16T17:53:50Z</time>
      </trkpt>
      <trkpt lat="42.7693620" lon="-7.4565150">
        <ele>588.8</ele>
        <time>2020-04-16T17:53:52Z</time>
      </trkpt>
      <trkpt lat="42.7693190" lon="-7.4565580">
        <ele>589.2</ele>
        <time>2020-04-16T17:53:54Z</time>
      </trkpt>
      <trkpt lat="42.7692370" lon="-7.4566420">
        <ele>589.8</ele>
        <time>2020-04-16T17:53:56Z</time>
      </trkpt>
      <trkpt lat="42.7691760" lon="-7.4567010">
        <ele>590.2</ele>
        <time>2020-04-16T17:53:58Z</time>
      </trkpt>
      <trkpt lat="42.7691120" lon="-7.4567640">
        <ele>590.6</ele>
        <time>2020-04-16T17:54:00Z</time>
      </trkpt>
      <trkpt lat="42.7690470" lon="-7.4568280">
        <ele>591.0</ele>
        <time>2020-04-16T17:54:02Z</time>
      </trkpt>
      <trkpt lat="42.7689090" lon="-7.4569890">
        <ele>592.0</ele>
        <time>2020-04-16T17:54:04Z</time>
      </trkpt>
      <trkpt lat="42.7688400" lon="-7.4571180">
        <ele>592.7</ele>
        <time>2020-04-16T17:54:06Z</time>
      </trkpt>
      <trkpt lat="42.7687910" lon="-7.4572470">
        <ele>593.3</ele>
        <time>2020-04-16T17:54:08Z</time>
      </trkpt>
      <trkpt lat="42.7687630" lon="-7.4573960">
        <ele>593.9</ele>
        <time>2020-04-16T17:54:10Z</time>
      </trkpt>
      <trkpt lat="42.7687210" lon="-7.4575510">
        <ele>594.1</ele>
        <time>2020-04-16T17:54:12Z</time>
      </trkpt>
      <trkpt lat="42.7686740" lon="-7.4576630">
        <ele>594.3</ele>
        <time>2020-04-16T17:54:14Z</time>
      </trkpt>
      <trkpt lat="42.7685780" lon="-7.4578940">
        <ele>594.8</ele>
        <time>2020-04-16T17:54:16Z</time>
      </trkpt>
      <trkpt lat="42.7685260" lon="-7.4580190">
        <ele>595.0</ele>
        <time>2020-04-16T17:54:18Z</time>
      </trkpt>
      <trkpt lat="42.7684520" lon="-7.4582070">
        <ele>595.2</ele>
        <time>2020-04-16T17:54:20Z</time>
      </trkpt>
      <trkpt lat="42.7683990" lon="-7.4583460">
        <ele>595.2</ele>
        <time>2020-04-16T17:54:22Z</time>
      </trkpt>
      <trkpt lat="42.7683020" lon="-7.4585800">
        <ele>595.3</ele>
        <time>2020-04-16T17:54:24Z</time>
      </trkpt>
      <trkpt lat="42.7681990" lon="-7.4588070">
        <ele>595.1</ele>
        <time>2020-04-16T17:54:26Z</time>
      </trkpt>
      <trkpt lat="42.7680860" lon="-7.4589340">
        <ele>594.8</ele>
        <time>2020-04-16T17:54:28Z</time>
      </trkpt>
      <trkpt lat="42.7681050" lon="-7.4591280">
        <ele>594.7</ele>
        <time>2020-04-16T17:54:30Z</time>
      </trkpt>
      <trkpt lat="42.7682020" lon="-7.4593120">
        <ele>595.0</ele>
        <time>2020-04-16T17:54:32Z</time>
      </trkpt>
      <trkpt lat="42.7683370" lon="-7.4594640">
        <ele>595.5</ele>
        <time>2020-04-16T17:54:34Z</time>
      </trkpt>
      <trkpt lat="42.7684790" lon="-7.4595500">
        <ele>595.9</ele>
        <time>2020-04-16T17:54:36Z</time>
      </trkpt>
      <trkpt lat="42.7686340" lon="-7.4596400">
        <ele>596.3</ele>
        <time>2020-04-16T17:54:38Z</time>
      </trkpt>
      <trkpt lat="42.7687190" lon="-7.4597910">
        <ele>596.5</ele>
        <time>2020-04-16T17:54:40Z</time>
      </trkpt>
      <trkpt lat="42.7688120" lon="-7.4600090">
        <ele>596.6</ele>
        <time>2020-04-16T17:54:42Z</time>
      </trkpt>
      <trkpt lat="42.7689280" lon="-7.4601360">
        <ele>596.7</ele>
        <time>2020-04-16T17:54:44Z</time>
      </trkpt>
      <trkpt lat="42.7689610" lon="-7.4603410">
        <ele>596.6</ele>
        <time>2020-04-16T17:54:46Z</time>
      </trkpt>
      <trkpt lat="42.7690210" lon="-7.4605420">
        <ele>596.4</ele>
        <time>2020-04-16T17:54:48Z</time>
      </trkpt>
      <trkpt lat="42.7690840" lon="-7.4606720">
        <ele>596.2</ele>
        <time>2020-04-16T17:54:50Z</time>
      </trkpt>
      <trkpt lat="42.7691690" lon="-7.4608790">
        <ele>596.1</ele>
        <time>2020-04-16T17:54:52Z</time>
      </trkpt>
      <trkpt lat="42.7692090" lon="-7.4611130">
        <ele>596.0</ele>
        <time>2020-04-16T17:54:54Z</time>
      </trkpt>
      <trkpt lat="42.7691830" lon="-7.4613190">
        <ele>596.1</ele>
        <time>2020-04-16T17:54:56Z</time>
      </trkpt>
      <trkpt lat="42.7691710" lon="-7.4615350">
        <ele>596.3</ele>
        <time>2020-04-16T17:54:58Z</time>
      </trkpt>
      <trkpt lat="42.7691830" lon="-7.4617260">
        <ele>596.8</ele>
        <time>2020-04-16T17:55:00Z</time>
      </trkpt>
      <trkpt lat="42.7692140" lon="-7.4619250">
        <ele>597.7</ele>
        <time>2020-04-16T17:55:02Z</time>
      </trkpt>
      <trkpt lat="42.7692580" lon="-7.4621400">
        <ele>598.8</ele>
        <time>2020-04-16T17:55:04Z</time>
      </trkpt>
      <trkpt lat="42.7692850" lon="-7.4622620">
        <ele>599.7</ele>
        <time>2020-04-16T17:55:06Z</time>
      </trkpt>
      <trkpt lat="42.7693080" lon="-7.4623600">
        <ele>600.4</ele>
        <time>2020-04-16T17:55:08Z</time>
      </trkpt>
      <trkpt lat="42.7693390" lon="-7.4625570">
        <ele>601.9</ele>
        <time>2020-04-16T17:55:10Z</time>
      </trkpt>
      <trkpt lat="42.7693410" lon="-7.4626560">
        <ele>602.7</ele>
        <time>2020-04-16T17:55:12Z</time>
      </trkpt>
      <trkpt lat="42.7693370" lon="-7.4627150">
        <ele>603.2</ele>
        <time>2020-04-16T17:55:14Z</time>
      </trkpt>
      <trkpt lat="42.7693250" lon="-7.4628100">
        <ele>604.0</ele>
        <time>2020-04-16T17:55:16Z</time>
      </trkpt>
      <trkpt lat="42.7693160" lon="-7.4628600">
        <ele>604.5</ele>
        <time>2020-04-16T17:55:18Z</time>
      </trkpt>
      <trkpt lat="42.7693070" lon="-7.4629090">
        <ele>604.9</ele>
        <time>2020-04-16T17:55:20Z</time>
      </trkpt>
      <trkpt lat="42.7692870" lon="-7.4630190">
        <ele>605.8</ele>
        <time>2020-04-16T17:55:22Z</time>
      </trkpt>
      <trkpt lat="42.7692820" lon="-7.4630680">
        <ele>606.3</ele>
        <time>2020-04-16T17:55:24Z</time>
      </trkpt>
      <trkpt lat="42.7692780" lon="-7.4631160">
        <ele>606.7</ele>
        <time>2020-04-16T17:55:26Z</time>
      </trkpt>
      <trkpt lat="42.7692780" lon="-7.4632070">
        <ele>607.5</ele>
        <time>2020-04-16T17:55:28Z</time>
      </trkpt>
      <trkpt lat="42.7692840" lon="-7.4632560">
        <ele>608.0</ele>
        <time>2020-04-16T17:55:30Z</time>
      </trkpt>
      <trkpt lat="42.7693010" lon="-7.4633380">
        <ele>608.8</ele>
        <time>2020-04-16T17:55:32Z</time>
      </trkpt>
      <trkpt lat="42.7693160" lon="-7.4633840">
        <ele>609.3</ele>
        <time>2020-04-16T17:55:34Z</time>
      </trkpt>
      <trkpt lat="42.7693480" lon="-7.4634540">
        <ele>610.1</ele>
        <time>2020-04-16T17:55:36Z</time>
      </trkpt>
      <trkpt lat="42.7693740" lon="-7.4634900">
        <ele>610.6</ele>
        <time>2020-04-16T17:55:38Z</time>
      </trkpt>
      <trkpt lat="42.7694220" lon="-7.4635560">
        <ele>611.5</ele>
        <time>2020-04-16T17:55:40Z</time>
      </trkpt>
      <trkpt lat="42.7694490" lon="-7.4635900">
        <ele>612.0</ele>
        <time>2020-04-16T17:55:42Z</time>
      </trkpt>
      <trkpt lat="42.7694760" lon="-7.4636230">
        <ele>612.5</ele>
        <time>2020-04-16T17:55:44Z</time>
      </trkpt>
      <trkpt lat="42.7695030" lon="-7.4636580">
        <ele>612.9</ele>
        <time>2020-04-16T17:55:46Z</time>
      </trkpt>
      <trkpt lat="42.7695640" lon="-7.4637380">
        <ele>613.9</ele>
        <time>2020-04-16T17:55:48Z</time>
      </trkpt>
      <trkpt lat="42.7695870" lon="-7.4637780">
        <ele>614.4</ele>
        <time>2020-04-16T17:55:50Z</time>
      </trkpt>
      <trkpt lat="42.7696300" lon="-7.4638540">
        <ele>615.1</ele>
        <time>2020-04-16T17:55:52Z</time>
      </trkpt>
      <trkpt lat="42.7696420" lon="-7.4639020">
        <ele>615.5</ele>
        <time>2020-04-16T17:55:54Z</time>
      </trkpt>
      <trkpt lat="42.7696620" lon="-7.4639830">
        <ele>616.1</ele>
        <time>2020-04-16T17:55:56Z</time>
      </trkpt>
      <trkpt lat="42.7696680" lon="-7.4640340">
        <ele>616.5</ele>
        <time>2020-04-16T17:55:58Z</time>
      </trkpt>
      <trkpt lat="42.7696770" lon="-7.4641250">
        <ele>617.1</ele>
        <time>2020-04-16T17:56:00Z</time>
      </trkpt>
      <trkpt lat="42.7696790" lon="-7.4641760">
        <ele>617.4</ele>
        <time>2020-04-16T17:56:02Z</time>
      </trkpt>
      <trkpt lat="42.7696800" lon="-7.4642280">
        <ele>617.7</ele>
        <time>2020-04-16T17:56:04Z</time>
      </trkpt>
      <trkpt lat="42.7696820" lon="-7.4642790">
        <ele>618.0</ele>
        <time>2020-04-16T17:56:06Z</time>
      </trkpt>
      <trkpt lat="42.7696830" lon="-7.4643300">
        <ele>618.3</ele>
        <time>2020-04-16T17:56:08Z</time>
      </trkpt>
      <trkpt lat="42.7696850" lon="-7.4643820">
        <ele>618.5</ele>
        <time>2020-04-16T17:56:10Z</time>
      </trkpt>
      <trkpt lat="42.7696890" lon="-7.4645290">
        <ele>619.3</ele>
        <time>2020-04-16T17:56:12Z</time>
      </trkpt>
      <trkpt lat="42.7696910" lon="-7.4645810">
        <ele>619.5</ele>
        <time>2020-04-16T17:56:14Z</time>
      </trkpt>
      <trkpt lat="42.7696930" lon="-7.4646330">
        <ele>619.8</ele>
        <time>2020-04-16T17:56:16Z</time>
      </trkpt>
      <trkpt lat="42.7696940" lon="-7.4646840">
        <ele>620.0</ele>
        <time>2020-04-16T17:56:18Z</time>
      </trkpt>
      <trkpt lat="42.7696960" lon="-7.4647360">
        <ele>620.3</ele>
        <time>2020-04-16T17:56:20Z</time>
      </trkpt>
      <trkpt lat="42.7697090" lon="-7.4648960">
        <ele>621.1</ele>
        <time>2020-04-16T17:56:22Z</time>
      </trkpt>
      <trkpt lat="42.7697540" lon="-7.4650140">
        <ele>621.8</ele>
        <time>2020-04-16T17:56:24Z</time>
      </trkpt>
      <trkpt lat="42.7698140" lon="-7.4650770">
        <ele>622.3</ele>
        <time>2020-04-16T17:56:26Z</time>
      </trkpt>
      <trkpt lat="42.7699250" lon="-7.4651960">
        <ele>623.2</ele>
        <time>2020-04-16T17:56:28Z</time>
      </trkpt>
      <trkpt lat="42.7700010" lon="-7.4653070">
        <ele>623.8</ele>
        <time>2020-04-16T17:56:30Z</time>
      </trkpt>
      <trkpt lat="42.7700560" lon="-7.4654430">
        <ele>624.5</ele>
        <time>2020-04-16T17:56:32Z</time>
      </trkpt>
      <trkpt lat="42.7700720" lon="-7.4655640">
        <ele>625.0</ele>
        <time>2020-04-16T17:56:34Z</time>
      </trkpt>
      <trkpt lat="42.7700930" lon="-7.4657310">
        <ele>625.7</ele>
        <time>2020-04-16T17:56:36Z</time>
      </trkpt>
      <trkpt lat="42.7701140" lon="-7.4659060">
        <ele>626.5</ele>
        <time>2020-04-16T17:56:38Z</time>
      </trkpt>
      <trkpt lat="42.7701310" lon="-7.4660270">
        <ele>627.0</ele>
        <time>2020-04-16T17:56:40Z</time>
      </trkpt>
      <trkpt lat="42.7701630" lon="-7.4662410">
        <ele>627.9</ele>
        <time>2020-04-16T17:56:42Z</time>
      </trkpt>
      <trkpt lat="42.7701990" lon="-7.4663950">
        <ele>628.4</ele>
        <time>2020-04-16T17:56:44Z</time>
      </trkpt>
      <trkpt lat="42.7702900" lon="-7.4665240">
        <ele>628.7</ele>
        <time>2020-04-16T17:56:46Z</time>
      </trkpt>
      <trkpt lat="42.7704010" lon="-7.4665740">
        <ele>628.8</ele>
        <time>2020-04-16T17:56:48Z</time>
      </trkpt>
      <trkpt lat="42.7705300" lon="-7.4666190">
        <ele>628.9</ele>
        <time>2020-04-16T17:56:50Z</time>
      </trkpt>
      <trkpt lat="42.7706260" lon="-7.4666520">
        <ele>628.9</ele>
        <time>2020-04-16T17:56:52Z</time>
      </trkpt>
      <trkpt lat="42.7707860" lon="-7.4667230">
        <ele>629.0</ele>
        <time>2020-04-16T17:56:54Z</time>
      </trkpt>
      <trkpt lat="42.7709220" lon="-7.4668280">
        <ele>629.0</ele>
        <time>2020-04-16T17:56:56Z</time>
      </trkpt>
      <trkpt lat="42.7708780" lon="-7.4669710">
        <ele>628.8</ele>
        <time>2020-04-16T17:56:58Z</time>
      </trkpt>
      <trkpt lat="42.7709680" lon="-7.4671150">
        <ele>628.8</ele>
        <time>2020-04-16T17:57:00Z</time>
      </trkpt>
      <trkpt lat="42.7710890" lon="-7.4672780">
        <ele>628.7</ele>
        <time>2020-04-16T17:57:02Z</time>
      </trkpt>
      <trkpt lat="42.7712350" lon="-7.4672950">
        <ele>628.7</ele>
        <time>2020-04-16T17:57:04Z</time>
      </trkpt>
      <trkpt lat="42.7713600" lon="-7.4672340">
        <ele>628.7</ele>
        <time>2020-04-16T17:57:06Z</time>
      </trkpt>
      <trkpt lat="42.7715190" lon="-7.4671780">
        <ele>628.7</ele>
        <time>2020-04-16T17:57:08Z</time>
      </trkpt>
      <trkpt lat="42.7716970" lon="-7.4672650">
        <ele>628.5</ele>
        <time>2020-04-16T17:57:10Z</time>
      </trkpt>
      <trkpt lat="42.7718290" lon="-7.4674070">
        <ele>628.2</ele>
        <time>2020-04-16T17:57:12Z</time>
      </trkpt>
      <trkpt lat="42.7719340" lon="-7.4675180">
        <ele>627.9</ele>
        <time>2020-04-16T17:57:14Z</time>
      </trkpt>
      <trkpt lat="42.7720990" lon="-7.4676940">
        <ele>627.4</ele>
        <time>2020-04-16T17:57:16Z</time>
      </trkpt>
      <trkpt lat="42.7722380" lon="-7.4678390">
        <ele>626.9</ele>
        <time>2020-04-16T17:57:18Z</time>
      </trkpt>
      <trkpt lat="42.7723490" lon="-7.4679530">
        <ele>626.6</ele>
        <time>2020-04-16T17:57:20Z</time>
      </trkpt>
      <trkpt lat="42.7725310" lon="-7.4681820">
        <ele>625.9</ele>
        <time>2020-04-16T17:57:22Z</time>
      </trkpt>
      <trkpt lat="42.7726220" lon="-7.4683320">
        <ele>625.7</ele>
        <time>2020-04-16T17:57:24Z</time>
      </trkpt>
      <trkpt lat="42.7727940" lon="-7.4686130">
        <ele>625.2</ele>
        <time>2020-04-16T17:57:26Z</time>
      </trkpt>
      <trkpt lat="42.7729270" lon="-7.4687950">
        <ele>624.8</ele>
        <time>2020-04-16T17:57:28Z</time>
      </trkpt>
      <trkpt lat="42.7731060" lon="-7.4690040">
        <ele>624.2</ele>
        <time>2020-04-16T17:57:30Z</time>
      </trkpt>
      <trkpt lat="42.7732270" lon="-7.4692020">
        <ele>623.4</ele>
        <time>2020-04-16T17:57:32Z</time>
      </trkpt>
      <trkpt lat="42.7733540" lon="-7.4694430">
        <ele>622.4</ele>
        <time>2020-04-16T17:57:34Z</time>
      </trkpt>
      <trkpt lat="42.7734780" lon="-7.4697390">
        <ele>621.4</ele>
        <time>2020-04-16T17:57:36Z</time>
      </trkpt>
      <trkpt lat="42.7736010" lon="-7.4699570">
        <ele>620.4</ele>
        <time>2020-04-16T17:57:38Z</time>
      </trkpt>
      <trkpt lat="42.7737550" lon="-7.4701500">
        <ele>619.3</ele>
        <time>2020-04-16T17:57:40Z</time>
      </trkpt>
      <trkpt lat="42.7738810" lon="-7.4703420">
        <ele>618.7</ele>
        <time>2020-04-16T17:57:42Z</time>
      </trkpt>
      <trkpt lat="42.7740110" lon="-7.4705470">
        <ele>618.2</ele>
        <time>2020-04-16T17:57:44Z</time>
      </trkpt>
      <trkpt lat="42.7741090" lon="-7.4707570">
        <ele>617.8</ele>
        <time>2020-04-16T17:57:46Z</time>
      </trkpt>
      <trkpt lat="42.7742150" lon="-7.4709380">
        <ele>617.6</ele>
        <time>2020-04-16T17:57:48Z</time>
      </trkpt>
      <trkpt lat="42.7743700" lon="-7.4710610">
        <ele>617.5</ele>
        <time>2020-04-16T17:57:50Z</time>
      </trkpt>
      <trkpt lat="42.7744970" lon="-7.4711410">
        <ele>617.6</ele>
        <time>2020-04-16T17:57:52Z</time>
      </trkpt>
      <trkpt lat="42.7747000" lon="-7.4713080">
        <ele>617.8</ele>
        <time>2020-04-16T17:57:54Z</time>
      </trkpt>
      <trkpt lat="42.7748550" lon="-7.4715230">
        <ele>617.9</ele>
        <time>2020-04-16T17:57:56Z</time>
      </trkpt>
      <trkpt lat="42.7749280" lon="-7.4716970">
        <ele>617.9</ele>
        <time>2020-04-16T17:57:58Z</time>
      </trkpt>
      <trkpt lat="42.7750010" lon="-7.4719870">
        <ele>618.0</ele>
        <time>2020-04-16T17:58:00Z</time>
      </trkpt>
      <trkpt lat="42.7749520" lon="-7.4722460">
        <ele>617.8</ele>
        <time>2020-04-16T17:58:02Z</time>
      </trkpt>
      <trkpt lat="42.7748920" lon="-7.4724300">
        <ele>617.4</ele>
        <time>2020-04-16T17:58:04Z</time>
      </trkpt>
      <trkpt lat="42.7747800" lon="-7.4727710">
        <ele>616.6</ele>
        <time>2020-04-16T17:58:06Z</time>
      </trkpt>
      <trkpt lat="42.7747210" lon="-7.4729580">
        <ele>616.0</ele>
        <time>2020-04-16T17:58:08Z</time>
      </trkpt>
      <trkpt lat="42.7746630" lon="-7.4731440">
        <ele>615.5</ele>
        <time>2020-04-16T17:58:10Z</time>
      </trkpt>
      <trkpt lat="42.7745510" lon="-7.4735020">
        <ele>614.4</ele>
        <time>2020-04-16T17:58:12Z</time>
      </trkpt>
      <trkpt lat="42.7744940" lon="-7.4736900">
        <ele>613.8</ele>
        <time>2020-04-16T17:58:14Z</time>
      </trkpt>
      <trkpt lat="42.7744000" lon="-7.4740020">
        <ele>612.8</ele>
        <time>2020-04-16T17:58:16Z</time>
      </trkpt>
      <trkpt lat="42.7743100" lon="-7.4742950">
        <ele>612.0</ele>
        <time>2020-04-16T17:58:18Z</time>
      </trkpt>
      <trkpt lat="42.7742530" lon="-7.4744830">
        <ele>611.4</ele>
        <time>2020-04-16T17:58:20Z</time>
      </trkpt>
      <trkpt lat="42.7741960" lon="-7.4746700">
        <ele>610.9</ele>
        <time>2020-04-16T17:58:22Z</time>
      </trkpt>
      <trkpt lat="42.7740760" lon="-7.4750630">
        <ele>609.7</ele>
        <time>2020-04-16T17:58:24Z</time>
      </trkpt>
      <trkpt lat="42.7740090" lon="-7.4752750">
        <ele>608.9</ele>
        <time>2020-04-16T17:58:26Z</time>
      </trkpt>
      <trkpt lat="42.7739190" lon="-7.4755700">
        <ele>607.9</ele>
        <time>2020-04-16T17:58:28Z</time>
      </trkpt>
      <trkpt lat="42.7738560" lon="-7.4758120">
        <ele>607.3</ele>
        <time>2020-04-16T17:58:30Z</time>
      </trkpt>
      <trkpt lat="42.7737560" lon="-7.4760610">
        <ele>606.7</ele>
        <time>2020-04-16T17:58:32Z</time>
      </trkpt>
      <trkpt lat="42.7736250" lon="-7.4762920">
        <ele>606.1</ele>
        <time>2020-04-16T17:58:34Z</time>
      </trkpt>
      <trkpt lat="42.7735250" lon="-7.4765850">
        <ele>605.3</ele>
        <time>2020-04-16T17:58:36Z</time>
      </trkpt>
      <trkpt lat="42.7734210" lon="-7.4768270">
        <ele>604.6</ele>
        <time>2020-04-16T17:58:38Z</time>
      </trkpt>
      <trkpt lat="42.7732380" lon="-7.4770720">
        <ele>603.8</ele>
        <time>2020-04-16T17:58:40Z</time>
      </trkpt>
      <trkpt lat="42.7731620" lon="-7.4773490">
        <ele>602.9</ele>
        <time>2020-04-16T17:58:42Z</time>
      </trkpt>
      <trkpt lat="42.7731550" lon="-7.4776600">
        <ele>601.8</ele>
        <time>2020-04-16T17:58:44Z</time>
      </trkpt>
      <trkpt lat="42.7731440" lon="-7.4778760">
        <ele>601.0</ele>
        <time>2020-04-16T17:58:46Z</time>
      </trkpt>
      <trkpt lat="42.7731010" lon="-7.4782070">
        <ele>600.0</ele>
        <time>2020-04-16T17:58:48Z</time>
      </trkpt>
      <trkpt lat="42.7730060" lon="-7.4784550">
        <ele>599.3</ele>
        <time>2020-04-16T17:58:50Z</time>
      </trkpt>
      <trkpt lat="42.7728420" lon="-7.4786810">
        <ele>598.8</ele>
        <time>2020-04-16T17:58:52Z</time>
      </trkpt>
      <trkpt lat="42.7728170" lon="-7.4789100">
        <ele>598.5</ele>
        <time>2020-04-16T17:58:54Z</time>
      </trkpt>
      <trkpt lat="42.7727440" lon="-7.4791990">
        <ele>598.2</ele>
        <time>2020-04-16T17:58:56Z</time>
      </trkpt>
      <trkpt lat="42.7726510" lon="-7.4794860">
        <ele>597.7</ele>
        <time>2020-04-16T17:58:58Z</time>
      </trkpt>
      <trkpt lat="42.7725660" lon="-7.4798590">
        <ele>597.0</ele>
        <time>2020-04-16T17:59:00Z</time>
      </trkpt>
      <trkpt lat="42.7727770" lon="-7.4799940">
        <ele>596.0</ele>
        <time>2020-04-16T17:59:02Z</time>
      </trkpt>
      <trkpt lat="42.7729700" lon="-7.4799880">
        <ele>594.8</ele>
        <time>2020-04-16T17:59:04Z</time>
      </trkpt>
      <trkpt lat="42.7731470" lon="-7.4798790">
        <ele>593.6</ele>
        <time>2020-04-16T17:59:06Z</time>
      </trkpt>
      <trkpt lat="42.7733500" lon="-7.4797930">
        <ele>592.3</ele>
        <time>2020-04-16T17:59:08Z</time>
      </trkpt>
      <trkpt lat="42.7735270" lon="-7.4798380">
        <ele>592.1</ele>
        <time>2020-04-16T17:59:10Z</time>
      </trkpt>
      <trkpt lat="42.7736870" lon="-7.4799040">
        <ele>592.9</ele>
        <time>2020-04-16T17:59:12Z</time>
      </trkpt>
      <trkpt lat="42.7738060" lon="-7.4799410">
        <ele>593.6</ele>
        <time>2020-04-16T17:59:14Z</time>
      </trkpt>
      <trkpt lat="42.7739960" lon="-7.4799940">
        <ele>595.0</ele>
        <time>2020-04-16T17:59:16Z</time>
      </trkpt>
      <trkpt lat="42.7741760" lon="-7.4800370">
        <ele>596.4</ele>
        <time>2020-04-16T17:59:18Z</time>
      </trkpt>
      <trkpt lat="42.7742760" lon="-7.4800730">
        <ele>597.0</ele>
        <time>2020-04-16T17:59:20Z</time>
      </trkpt>
      <trkpt lat="42.7744310" lon="-7.4801490">
        <ele>597.9</ele>
        <time>2020-04-16T17:59:22Z</time>
      </trkpt>
      <trkpt lat="42.7745130" lon="-7.4802150">
        <ele>598.5</ele>
        <time>2020-04-16T17:59:24Z</time>
      </trkpt>
      <trkpt lat="42.7745930" lon="-7.4802790">
        <ele>599.1</ele>
        <time>2020-04-16T17:59:26Z</time>
      </trkpt>
      <trkpt lat="42.7747580" lon="-7.4804060">
        <ele>600.3</ele>
        <time>2020-04-16T17:59:28Z</time>
      </trkpt>
      <trkpt lat="42.7748880" lon="-7.4804500">
        <ele>601.2</ele>
        <time>2020-04-16T17:59:30Z</time>
      </trkpt>
      <trkpt lat="42.7749800" lon="-7.4805320">
        <ele>601.9</ele>
        <time>2020-04-16T17:59:32Z</time>
      </trkpt>
      <trkpt lat="42.7750390" lon="-7.4806780">
        <ele>602.7</ele>
        <time>2020-04-16T17:59:34Z</time>
      </trkpt>
      <trkpt lat="42.7751390" lon="-7.4807240">
        <ele>603.3</ele>
        <time>2020-04-16T17:59:36Z</time>
      </trkpt>
      <trkpt lat="42.7752810" lon="-7.4807290">
        <ele>603.8</ele>
        <time>2020-04-16T17:59:38Z</time>
      </trkpt>
      <trkpt lat="42.7753840" lon="-7.4807580">
        <ele>604.1</ele>
        <time>2020-04-16T17:59:40Z</time>
      </trkpt>
      <trkpt lat="42.7755080" lon="-7.4808080">
        <ele>604.4</ele>
        <time>2020-04-16T17:59:42Z</time>
      </trkpt>
      <trkpt lat="42.7756030" lon="-7.4808490">
        <ele>604.6</ele>
        <time>2020-04-16T17:59:44Z</time>
      </trkpt>
      <trkpt lat="42.7757760" lon="-7.4809150">
        <ele>605.2</ele>
        <time>2020-04-16T17:59:46Z</time>
      </trkpt>
      <trkpt lat="42.7759080" lon="-7.4809710">
        <ele>605.8</ele>
        <time>2020-04-16T17:59:48Z</time>
      </trkpt>
      <trkpt lat="42.7760500" lon="-7.4810440">
        <ele>606.4</ele>
        <time>2020-04-16T17:59:50Z</time>
      </trkpt>
      <trkpt lat="42.7761430" lon="-7.4810810">
        <ele>606.7</ele>
        <time>2020-04-16T17:59:52Z</time>
      </trkpt>
      <trkpt lat="42.7762300" lon="-7.4811160">
        <ele>607.0</ele>
        <time>2020-04-16T17:59:54Z</time>
      </trkpt>
      <trkpt lat="42.7764090" lon="-7.4811880">
        <ele>607.7</ele>
        <time>2020-04-16T17:59:56Z</time>
      </trkpt>
      <trkpt lat="42.7764850" lon="-7.4812180">
        <ele>608.0</ele>
        <time>2020-04-16T17:59:58Z</time>
      </trkpt>
      <trkpt lat="42.7766030" lon="-7.4812760">
        <ele>608.4</ele>
        <time>2020-04-16T18:00:00Z</time>
      </trkpt>
      <trkpt lat="42.7767010" lon="-7.4813430">
        <ele>608.8</ele>
        <time>2020-04-16T18:00:02Z</time>
      </trkpt>
      <trkpt lat="42.7767610" lon="-7.4813930">
        <ele>609.1</ele>
        <time>2020-04-16T18:00:04Z</time>
      </trkpt>
      <trkpt lat="42.7768200" lon="-7.4814420">
        <ele>609.4</ele>
        <time>2020-04-16T18:00:06Z</time>
      </trkpt>
      <trkpt lat="42.7768770" lon="-7.4814890">
        <ele>609.6</ele>
        <time>2020-04-16T18:00:08Z</time>
      </trkpt>
      <trkpt lat="42.7770140" lon="-7.4815920">
        <ele>610.4</ele>
        <time>2020-04-16T18:00:10Z</time>
      </trkpt>
      <trkpt lat="42.7770530" lon="-7.4816810">
        <ele>610.3</ele>
        <time>2020-04-16T18:00:12Z</time>
      </trkpt>
      <trkpt lat="42.7770130" lon="-7.4817880">
        <ele>610.2</ele>
        <time>2020-04-16T18:00:14Z</time>
      </trkpt>
      <trkpt lat="42.7769390" lon="-7.4819890">
        <ele>609.8</ele>
        <time>2020-04-16T18:00:16Z</time>
      </trkpt>
      <trkpt lat="42.7768940" lon="-7.4821110">
        <ele>609.5</ele>
        <time>2020-04-16T18:00:18Z</time>
      </trkpt>
      <trkpt lat="42.7768490" lon="-7.4822370">
        <ele>609.4</ele>
        <time>2020-04-16T18:00:20Z</time>
      </trkpt>
      <trkpt lat="42.7768020" lon="-7.4823660">
        <ele>609.2</ele>
        <time>2020-04-16T18:00:22Z</time>
      </trkpt>
      <trkpt lat="42.7766900" lon="-7.4826750">
        <ele>608.6</ele>
        <time>2020-04-16T18:00:24Z</time>
      </trkpt>
      <trkpt lat="42.7766400" lon="-7.4828150">
        <ele>608.5</ele>
        <time>2020-04-16T18:00:26Z</time>
      </trkpt>
      <trkpt lat="42.7765870" lon="-7.4829600">
        <ele>608.3</ele>
        <time>2020-04-16T18:00:28Z</time>
      </trkpt>
      <trkpt lat="42.7765320" lon="-7.4831110">
        <ele>608.1</ele>
        <time>2020-04-16T18:00:30Z</time>
      </trkpt>
      <trkpt lat="42.7764760" lon="-7.4832660">
        <ele>607.9</ele>
        <time>2020-04-16T18:00:32Z</time>
      </trkpt>
      <trkpt lat="42.7763240" lon="-7.4836880">
        <ele>607.4</ele>
        <time>2020-04-16T18:00:34Z</time>
      </trkpt>
      <trkpt lat="42.7762650" lon="-7.4838510">
        <ele>607.2</ele>
        <time>2020-04-16T18:00:36Z</time>
      </trkpt>
      <trkpt lat="42.7762040" lon="-7.4840190">
        <ele>607.0</ele>
        <time>2020-04-16T18:00:38Z</time>
      </trkpt>
      <trkpt lat="42.7761430" lon="-7.4841880">
        <ele>606.8</ele>
        <time>2020-04-16T18:00:40Z</time>
      </trkpt>
      <trkpt lat="42.7759860" lon="-7.4846270">
        <ele>606.2</ele>
        <time>2020-04-16T18:00:42Z</time>
      </trkpt>
      <trkpt lat="42.7759220" lon="-7.4848000">
        <ele>606.2</ele>
        <time>2020-04-16T18:00:44Z</time>
      </trkpt>
      <trkpt lat="42.7758580" lon="-7.4849760">
        <ele>606.0</ele>
        <time>2020-04-16T18:00:46Z</time>
      </trkpt>
      <trkpt lat="42.7757930" lon="-7.4851530">
        <ele>605.7</ele>
        <time>2020-04-16T18:00:48Z</time>
      </trkpt>
      <trkpt lat="42.7756380" lon="-7.4855910">
        <ele>605.2</ele>
        <time>2020-04-16T18:00:50Z</time>
      </trkpt>
      <trkpt lat="42.7755900" lon="-7.4857830">
        <ele>604.9</ele>
        <time>2020-04-16T18:00:52Z</time>
      </trkpt>
      <trkpt lat="42.7755410" lon="-7.4860890">
        <ele>604.4</ele>
        <time>2020-04-16T18:00:54Z</time>
      </trkpt>
      <trkpt lat="42.7755360" lon="-7.4863790">
        <ele>603.8</ele>
        <time>2020-04-16T18:00:56Z</time>
      </trkpt>
      <trkpt lat="42.7755600" lon="-7.4866770">
        <ele>603.1</ele>
        <time>2020-04-16T18:00:58Z</time>
      </trkpt>
      <trkpt lat="42.7755960" lon="-7.4868770">
        <ele>602.5</ele>
        <time>2020-04-16T18:01:00Z</time>
      </trkpt>
      <trkpt lat="42.7756600" lon="-7.4872420">
        <ele>601.4</ele>
        <time>2020-04-16T18:01:02Z</time>
      </trkpt>
      <trkpt lat="42.7756840" lon="-7.4874500">
        <ele>600.6</ele>
        <time>2020-04-16T18:01:04Z</time>
      </trkpt>
      <trkpt lat="42.7756940" lon="-7.4877520">
        <ele>599.5</ele>
        <time>2020-04-16T18:01:06Z</time>
      </trkpt>
      <trkpt lat="42.7756750" lon="-7.4880490">
        <ele>598.5</ele>
        <time>2020-04-16T18:01:08Z</time>
      </trkpt>
      <trkpt lat="42.7756510" lon="-7.4882650">
        <ele>597.7</ele>
        <time>2020-04-16T18:01:10Z</time>
      </trkpt>
      <trkpt lat="42.7756280" lon="-7.4884850">
        <ele>596.9</ele>
        <time>2020-04-16T18:01:12Z</time>
      </trkpt>
      <trkpt lat="42.7755780" lon="-7.4889430">
        <ele>595.0</ele>
        <time>2020-04-16T18:01:14Z</time>
      </trkpt>
      <trkpt lat="42.7755440" lon="-7.4892690">
        <ele>593.5</ele>
        <time>2020-04-16T18:01:16Z</time>
      </trkpt>
      <trkpt lat="42.7755200" lon="-7.4895040">
        <ele>592.4</ele>
        <time>2020-04-16T18:01:18Z</time>
      </trkpt>
      <trkpt lat="42.7754740" lon="-7.4899460">
        <ele>590.7</ele>
        <time>2020-04-16T18:01:20Z</time>
      </trkpt>
      <trkpt lat="42.7754440" lon="-7.4901870">
        <ele>589.6</ele>
        <time>2020-04-16T18:01:22Z</time>
      </trkpt>
      <trkpt lat="42.7753860" lon="-7.4905870">
        <ele>587.9</ele>
        <time>2020-04-16T18:01:24Z</time>
      </trkpt>
      <trkpt lat="42.7753370" lon="-7.4908200">
        <ele>586.9</ele>
        <time>2020-04-16T18:01:26Z</time>
      </trkpt>
      <trkpt lat="42.7752480" lon="-7.4912450">
        <ele>585.3</ele>
        <time>2020-04-16T18:01:28Z</time>
      </trkpt>
      <trkpt lat="42.7751790" lon="-7.4914790">
        <ele>584.3</ele>
        <time>2020-04-16T18:01:30Z</time>
      </trkpt>
      <trkpt lat="42.7751100" lon="-7.4917160">
        <ele>583.3</ele>
        <time>2020-04-16T18:01:32Z</time>
      </trkpt>
      <trkpt lat="42.7749670" lon="-7.4921190">
        <ele>582.1</ele>
        <time>2020-04-16T18:01:34Z</time>
      </trkpt>
      <trkpt lat="42.7748720" lon="-7.4923570">
        <ele>581.4</ele>
        <time>2020-04-16T18:01:36Z</time>
      </trkpt>
      <trkpt lat="42.7746940" lon="-7.4927670">
        <ele>580.4</ele>
        <time>2020-04-16T18:01:38Z</time>
      </trkpt>
      <trkpt lat="42.7745330" lon="-7.4930880">
        <ele>579.8</ele>
        <time>2020-04-16T18:01:40Z</time>
      </trkpt>
      <trkpt lat="42.7743490" lon="-7.4934110">
        <ele>579.4</ele>
        <time>2020-04-16T18:01:42Z</time>
      </trkpt>
      <trkpt lat="42.7742100" lon="-7.4936650">
        <ele>579.1</ele>
        <time>2020-04-16T18:01:44Z</time>
      </trkpt>
      <trkpt lat="42.7741010" lon="-7.4938630">
        <ele>578.9</ele>
        <time>2020-04-16T18:01:46Z</time>
      </trkpt>
      <trkpt lat="42.7739090" lon="-7.4942170">
        <ele>578.6</ele>
        <time>2020-04-16T18:01:48Z</time>
      </trkpt>
      <trkpt lat="42.7738130" lon="-7.4944060">
        <ele>578.2</ele>
        <time>2020-04-16T18:01:50Z</time>
      </trkpt>
      <trkpt lat="42.7737200" lon="-7.4945920">
        <ele>577.7</ele>
        <time>2020-04-16T18:01:52Z</time>
      </trkpt>
      <trkpt lat="42.7736280" lon="-7.4947740">
        <ele>577.2</ele>
        <time>2020-04-16T18:01:54Z</time>
      </trkpt>
      <trkpt lat="42.7734220" lon="-7.4951820">
        <ele>576.1</ele>
        <time>2020-04-16T18:01:56Z</time>
      </trkpt>
      <trkpt lat="42.7733260" lon="-7.4953720">
        <ele>575.5</ele>
        <time>2020-04-16T18:01:58Z</time>
      </trkpt>
      <trkpt lat="42.7732280" lon="-7.4955650">
        <ele>574.9</ele>
        <time>2020-04-16T18:02:00Z</time>
      </trkpt>
      <trkpt lat="42.7730150" lon="-7.4959880">
        <ele>573.4</ele>
        <time>2020-04-16T18:02:02Z</time>
      </trkpt>
      <trkpt lat="42.7728860" lon="-7.4962460">
        <ele>572.4</ele>
        <time>2020-04-16T18:02:04Z</time>
      </trkpt>
      <trkpt lat="42.7727790" lon="-7.4964610">
        <ele>571.6</ele>
        <time>2020-04-16T18:02:06Z</time>
      </trkpt>
      <trkpt lat="42.7725890" lon="-7.4968610">
        <ele>570.0</ele>
        <time>2020-04-16T18:02:08Z</time>
      </trkpt>
      <trkpt lat="42.7724460" lon="-7.4972250">
        <ele>568.9</ele>
        <time>2020-04-16T18:02:10Z</time>
      </trkpt>
      <trkpt lat="42.7723610" lon="-7.4975310">
        <ele>568.0</ele>
        <time>2020-04-16T18:02:12Z</time>
      </trkpt>
      <trkpt lat="42.7722570" lon="-7.4979200">
        <ele>566.3</ele>
        <time>2020-04-16T18:02:14Z</time>
      </trkpt>
      <trkpt lat="42.7721890" lon="-7.4981930">
        <ele>565.1</ele>
        <time>2020-04-16T18:02:16Z</time>
      </trkpt>
      <trkpt lat="42.7720630" lon="-7.4987040">
        <ele>562.7</ele>
        <time>2020-04-16T18:02:18Z</time>
      </trkpt>
      <trkpt lat="42.7719960" lon="-7.4989730">
        <ele>561.5</ele>
        <time>2020-04-16T18:02:20Z</time>
      </trkpt>
      <trkpt lat="42.7719300" lon="-7.4992410">
        <ele>560.5</ele>
        <time>2020-04-16T18:02:22Z</time>
      </trkpt>
      <trkpt lat="42.7718050" lon="-7.4997480">
        <ele>559.2</ele>
        <time>2020-04-16T18:02:24Z</time>
      </trkpt>
      <trkpt lat="42.7717010" lon="-7.5001700">
        <ele>558.1</ele>
        <time>2020-04-16T18:02:26Z</time>
      </trkpt>
      <trkpt lat="42.7716380" lon="-7.5005150">
        <ele>557.0</ele>
        <time>2020-04-16T18:02:28Z</time>
      </trkpt>
      <trkpt lat="42.7716180" lon="-7.5009000">
        <ele>556.0</ele>
        <time>2020-04-16T18:02:30Z</time>
      </trkpt>
      <trkpt lat="42.7716320" lon="-7.5011860">
        <ele>555.3</ele>
        <time>2020-04-16T18:02:32Z</time>
      </trkpt>
      <trkpt lat="42.7716500" lon="-7.5016110">
        <ele>554.3</ele>
        <time>2020-04-16T18:02:34Z</time>
      </trkpt>
      <trkpt lat="42.7716680" lon="-7.5020480">
        <ele>552.7</ele>
        <time>2020-04-16T18:02:36Z</time>
      </trkpt>
      <trkpt lat="42.7716790" lon="-7.5023270">
        <ele>551.5</ele>
        <time>2020-04-16T18:02:38Z</time>
      </trkpt>
      <trkpt lat="42.7716910" lon="-7.5026030">
        <ele>550.3</ele>
        <time>2020-04-16T18:02:40Z</time>
      </trkpt>
      <trkpt lat="42.7716750" lon="-7.5031650">
        <ele>548.0</ele>
        <time>2020-04-16T18:02:42Z</time>
      </trkpt>
      <trkpt lat="42.7716040" lon="-7.5034250">
        <ele>546.8</ele>
        <time>2020-04-16T18:02:44Z</time>
      </trkpt>
      <trkpt lat="42.7714750" lon="-7.5038930">
        <ele>544.8</ele>
        <time>2020-04-16T18:02:46Z</time>
      </trkpt>
      <trkpt lat="42.7714050" lon="-7.5041510">
        <ele>543.7</ele>
        <time>2020-04-16T18:02:48Z</time>
      </trkpt>
      <trkpt lat="42.7713350" lon="-7.5044060">
        <ele>542.7</ele>
        <time>2020-04-16T18:02:50Z</time>
      </trkpt>
      <trkpt lat="42.7712430" lon="-7.5048840">
        <ele>541.2</ele>
        <time>2020-04-16T18:02:52Z</time>
      </trkpt>
      <trkpt lat="42.7712170" lon="-7.5051340">
        <ele>540.6</ele>
        <time>2020-04-16T18:02:54Z</time>
      </trkpt>
      <trkpt lat="42.7711920" lon="-7.5053700">
        <ele>540.1</ele>
        <time>2020-04-16T18:02:56Z</time>
      </trkpt>
      <trkpt lat="42.7711370" lon="-7.5058780">
        <ele>539.3</ele>
        <time>2020-04-16T18:02:58Z</time>
      </trkpt>
      <trkpt lat="42.7711120" lon="-7.5060910">
        <ele>539.1</ele>
        <time>2020-04-16T18:03:00Z</time>
      </trkpt>
      <trkpt lat="42.7710870" lon="-7.5062950">
        <ele>538.9</ele>
        <time>2020-04-16T18:03:02Z</time>
      </trkpt>
      <trkpt lat="42.7710340" lon="-7.5067380">
        <ele>538.3</ele>
        <time>2020-04-16T18:03:04Z</time>
      </trkpt>
      <trkpt lat="42.7710100" lon="-7.5069390">
        <ele>538.0</ele>
        <time>2020-04-16T18:03:06Z</time>
      </trkpt>
      <trkpt lat="42.7709860" lon="-7.5071410">
        <ele>537.5</ele>
        <time>2020-04-16T18:03:08Z</time>
      </trkpt>
      <trkpt lat="42.7709320" lon="-7.5075870">
        <ele>536.6</ele>
        <time>2020-04-16T18:03:10Z</time>
      </trkpt>
      <trkpt lat="42.7709010" lon="-7.5078610">
        <ele>536.0</ele>
        <time>2020-04-16T18:03:12Z</time>
      </trkpt>
      <trkpt lat="42.7708780" lon="-7.5080650">
        <ele>535.5</ele>
        <time>2020-04-16T18:03:14Z</time>
      </trkpt>
      <trkpt lat="42.7708560" lon="-7.5082700">
        <ele>534.8</ele>
        <time>2020-04-16T18:03:16Z</time>
      </trkpt>
      <trkpt lat="42.7708150" lon="-7.5086500">
        <ele>533.4</ele>
        <time>2020-04-16T18:03:18Z</time>
      </trkpt>
      <trkpt lat="42.7707910" lon="-7.5088680">
        <ele>532.6</ele>
        <time>2020-04-16T18:03:20Z</time>
      </trkpt>
      <trkpt lat="42.7707670" lon="-7.5090920">
        <ele>531.8</ele>
        <time>2020-04-16T18:03:22Z</time>
      </trkpt>
      <trkpt lat="42.7707270" lon="-7.5095640">
        <ele>530.1</ele>
        <time>2020-04-16T18:03:24Z</time>
      </trkpt>
      <trkpt lat="42.7707130" lon="-7.5098020">
        <ele>529.4</ele>
        <time>2020-04-16T18:03:26Z</time>
      </trkpt>
      <trkpt lat="42.7706880" lon="-7.5102540">
        <ele>528.4</ele>
        <time>2020-04-16T18:03:28Z</time>
      </trkpt>
      <trkpt lat="42.7706750" lon="-7.5104890">
        <ele>528.0</ele>
        <time>2020-04-16T18:03:30Z</time>
      </trkpt>
      <trkpt lat="42.7706630" lon="-7.5107110">
        <ele>527.5</ele>
        <time>2020-04-16T18:03:32Z</time>
      </trkpt>
      <trkpt lat="42.7706450" lon="-7.5111370">
        <ele>526.8</ele>
        <time>2020-04-16T18:03:34Z</time>
      </trkpt>
      <trkpt lat="42.7706400" lon="-7.5113490">
        <ele>526.5</ele>
        <time>2020-04-16T18:03:36Z</time>
      </trkpt>
      <trkpt lat="42.7706310" lon="-7.5117640">
        <ele>525.7</ele>
        <time>2020-04-16T18:03:38Z</time>
      </trkpt>
      <trkpt lat="42.7706290" lon="-7.5119710">
        <ele>525.4</ele>
        <time>2020-04-16T18:03:40Z</time>
      </trkpt>
      <trkpt lat="42.7706140" lon="-7.5122850">
        <ele>525.1</ele>
        <time>2020-04-16T18:03:42Z</time>
      </trkpt>
      <trkpt lat="42.7705850" lon="-7.5125920">
        <ele>524.6</ele>
        <time>2020-04-16T18:03:44Z</time>
      </trkpt>
      <trkpt lat="42.7705370" lon="-7.5127700">
        <ele>524.4</ele>
        <time>2020-04-16T18:03:46Z</time>
      </trkpt>
      <trkpt lat="42.7704480" lon="-7.5130590">
        <ele>524.0</ele>
        <time>2020-04-16T18:03:48Z</time>
      </trkpt>
      <trkpt lat="42.7703820" lon="-7.5132200">
        <ele>523.7</ele>
        <time>2020-04-16T18:03:50Z</time>
      </trkpt>
      <trkpt lat="42.7702550" lon="-7.5134510">
        <ele>523.4</ele>
        <time>2020-04-16T18:03:52Z</time>
      </trkpt>
      <trkpt lat="42.7701110" lon="-7.5136440">
        <ele>523.0</ele>
        <time>2020-04-16T18:03:54Z</time>
      </trkpt>
      <trkpt lat="42.7700170" lon="-7.5137520">
        <ele>522.8</ele>
        <time>2020-04-16T18:03:56Z</time>
      </trkpt>
      <trkpt lat="42.7699260" lon="-7.5138560">
        <ele>522.6</ele>
        <time>2020-04-16T18:03:58Z</time>
      </trkpt>
      <trkpt lat="42.7698390" lon="-7.5139550">
        <ele>522.4</ele>
        <time>2020-04-16T18:04:00Z</time>
      </trkpt>
      <trkpt lat="42.7697540" lon="-7.5140520">
        <ele>522.2</ele>
        <time>2020-04-16T18:04:02Z</time>
      </trkpt>
      <trkpt lat="42.7696710" lon="-7.5141450">
        <ele>522.1</ele>
        <time>2020-04-16T18:04:04Z</time>
      </trkpt>
      <trkpt lat="42.7694220" lon="-7.5144300">
        <ele>521.4</ele>
        <time>2020-04-16T18:04:06Z</time>
      </trkpt>
      <trkpt lat="42.7693300" lon="-7.5145340">
        <ele>521.2</ele>
        <time>2020-04-16T18:04:08Z</time>
      </trkpt>
      <trkpt lat="42.7692320" lon="-7.5146460">
        <ele>521.0</ele>
        <time>2020-04-16T18:04:10Z</time>
      </trkpt>
      <trkpt lat="42.7691290" lon="-7.5147630">
        <ele>520.8</ele>
        <time>2020-04-16T18:04:12Z</time>
      </trkpt>
      <trkpt lat="42.7688590" lon="-7.5150810">
        <ele>520.1</ele>
        <time>2020-04-16T18:04:14Z</time>
      </trkpt>
      <trkpt lat="42.7687630" lon="-7.5152320">
        <ele>519.7</ele>
        <time>2020-04-16T18:04:16Z</time>
      </trkpt>
      <trkpt lat="42.7686070" lon="-7.5155040">
        <ele>519.3</ele>
        <time>2020-04-16T18:04:18Z</time>
      </trkpt>
      <trkpt lat="42.7685190" lon="-7.5157690">
        <ele>519.2</ele>
        <time>2020-04-16T18:04:20Z</time>
      </trkpt>
      <trkpt lat="42.7684800" lon="-7.5160810">
        <ele>519.1</ele>
        <time>2020-04-16T18:04:22Z</time>
      </trkpt>
      <trkpt lat="42.7684900" lon="-7.5162950">
        <ele>519.2</ele>
        <time>2020-04-16T18:04:24Z</time>
      </trkpt>
      <trkpt lat="42.7684990" lon="-7.5164960">
        <ele>519.5</ele>
        <time>2020-04-16T18:04:26Z</time>
      </trkpt>
      <trkpt lat="42.7685070" lon="-7.5166860">
        <ele>519.9</ele>
        <time>2020-04-16T18:04:28Z</time>
      </trkpt>
      <trkpt lat="42.7685270" lon="-7.5171500">
        <ele>521.0</ele>
        <time>2020-04-16T18:04:30Z</time>
      </trkpt>
      <trkpt lat="42.7685130" lon="-7.5173260">
        <ele>521.4</ele>
        <time>2020-04-16T18:04:32Z</time>
      </trkpt>
      <trkpt lat="42.7684870" lon="-7.5176040">
        <ele>521.9</ele>
        <time>2020-04-16T18:04:34Z</time>
      </trkpt>
      <trkpt lat="42.7684600" lon="-7.5177580">
        <ele>522.0</ele>
        <time>2020-04-16T18:04:36Z</time>
      </trkpt>
      <trkpt lat="42.7684090" lon="-7.5179830">
        <ele>522.2</ele>
        <time>2020-04-16T18:04:38Z</time>
      </trkpt>
      <trkpt lat="42.7683400" lon="-7.5182070">
        <ele>522.4</ele>
        <time>2020-04-16T18:04:40Z</time>
      </trkpt>
      <trkpt lat="42.7682880" lon="-7.5183390">
        <ele>522.4</ele>
        <time>2020-04-16T18:04:42Z</time>
      </trkpt>
      <trkpt lat="42.7681970" lon="-7.5185610">
        <ele>522.6</ele>
        <time>2020-04-16T18:04:44Z</time>
      </trkpt>
      <trkpt lat="42.7681360" lon="-7.5186810">
        <ele>522.7</ele>
        <time>2020-04-16T18:04:46Z</time>
      </trkpt>
      <trkpt lat="42.7680760" lon="-7.5188010">
        <ele>522.8</ele>
        <time>2020-04-16T18:04:48Z</time>
      </trkpt>
      <trkpt lat="42.7680170" lon="-7.5189190">
        <ele>522.9</ele>
        <time>2020-04-16T18:04:50Z</time>
      </trkpt>
      <trkpt lat="42.7679580" lon="-7.5190360">
        <ele>523.1</ele>
        <time>2020-04-16T18:04:52Z</time>
      </trkpt>
      <trkpt lat="42.7678990" lon="-7.5191530">
        <ele>523.2</ele>
        <time>2020-04-16T18:04:54Z</time>
      </trkpt>
      <trkpt lat="42.7677270" lon="-7.5194940">
        <ele>523.7</ele>
        <time>2020-04-16T18:04:56Z</time>
      </trkpt>
      <trkpt lat="42.7676700" lon="-7.5196080">
        <ele>524.0</ele>
        <time>2020-04-16T18:04:58Z</time>
      </trkpt>
      <trkpt lat="42.7675720" lon="-7.5198070">
        <ele>524.5</ele>
        <time>2020-04-16T18:05:00Z</time>
      </trkpt>
      <trkpt lat="42.7674880" lon="-7.5199750">
        <ele>524.9</ele>
        <time>2020-04-16T18:05:02Z</time>
      </trkpt>
      <trkpt lat="42.7674310" lon="-7.5200860">
        <ele>525.1</ele>
        <time>2020-04-16T18:05:04Z</time>
      </trkpt>
      <trkpt lat="42.7673340" lon="-7.5202810">
        <ele>525.7</ele>
        <time>2020-04-16T18:05:06Z</time>
      </trkpt>
      <trkpt lat="42.7672860" lon="-7.5203970">
        <ele>526.1</ele>
        <time>2020-04-16T18:05:08Z</time>
      </trkpt>
      <trkpt lat="42.7672200" lon="-7.5205880">
        <ele>526.7</ele>
        <time>2020-04-16T18:05:10Z</time>
      </trkpt>
      <trkpt lat="42.7671790" lon="-7.5207820">
        <ele>527.4</ele>
        <time>2020-04-16T18:05:12Z</time>
      </trkpt>
      <trkpt lat="42.7671690" lon="-7.5209110">
        <ele>527.8</ele>
        <time>2020-04-16T18:05:14Z</time>
      </trkpt>
      <trkpt lat="42.7671580" lon="-7.5211280">
        <ele>528.4</ele>
        <time>2020-04-16T18:05:16Z</time>
      </trkpt>
      <trkpt lat="42.7671610" lon="-7.5212520">
        <ele>528.8</ele>
        <time>2020-04-16T18:05:18Z</time>
      </trkpt>
      <trkpt lat="42.7671640" lon="-7.5213730">
        <ele>529.1</ele>
        <time>2020-04-16T18:05:20Z</time>
      </trkpt>
      <trkpt lat="42.7671670" lon="-7.5214920">
        <ele>529.5</ele>
        <time>2020-04-16T18:05:22Z</time>
      </trkpt>
      <trkpt lat="42.7671690" lon="-7.5216090">
        <ele>529.8</ele>
        <time>2020-04-16T18:05:24Z</time>
      </trkpt>
      <trkpt lat="42.7671720" lon="-7.5217260">
        <ele>530.2</ele>
        <time>2020-04-16T18:05:26Z</time>
      </trkpt>
      <trkpt lat="42.7671810" lon="-7.5220940">
        <ele>531.3</ele>
        <time>2020-04-16T18:05:28Z</time>
      </trkpt>
      <trkpt lat="42.7671830" lon="-7.5222090">
        <ele>531.6</ele>
        <time>2020-04-16T18:05:30Z</time>
      </trkpt>
      <trkpt lat="42.7671840" lon="-7.5223250">
        <ele>532.0</ele>
        <time>2020-04-16T18:05:32Z</time>
      </trkpt>
      <trkpt lat="42.7671860" lon="-7.5224420">
        <ele>532.3</ele>
        <time>2020-04-16T18:05:34Z</time>
      </trkpt>
      <trkpt lat="42.7671870" lon="-7.5225600">
        <ele>532.7</ele>
        <time>2020-04-16T18:05:36Z</time>
      </trkpt>
      <trkpt lat="42.7671870" lon="-7.5228820">
        <ele>533.7</ele>
        <time>2020-04-16T18:05:38Z</time>
      </trkpt>
      <trkpt lat="42.7671830" lon="-7.5229980">
        <ele>534.1</ele>
        <time>2020-04-16T18:05:40Z</time>
      </trkpt>
      <trkpt lat="42.7671800" lon="-7.5231170">
        <ele>534.5</ele>
        <time>2020-04-16T18:05:42Z</time>
      </trkpt>
      <trkpt lat="42.7671760" lon="-7.5232340">
        <ele>534.9</ele>
        <time>2020-04-16T18:05:44Z</time>
      </trkpt>
      <trkpt lat="42.7671600" lon="-7.5235050">
        <ele>535.7</ele>
        <time>2020-04-16T18:05:46Z</time>
      </trkpt>
      <trkpt lat="42.7671490" lon="-7.5236230">
        <ele>536.0</ele>
        <time>2020-04-16T18:05:48Z</time>
      </trkpt>
      <trkpt lat="42.7671380" lon="-7.5237410">
        <ele>536.4</ele>
        <time>2020-04-16T18:05:50Z</time>
      </trkpt>
      <trkpt lat="42.7671070" lon="-7.5240090">
        <ele>537.2</ele>
        <time>2020-04-16T18:05:52Z</time>
      </trkpt>
      <trkpt lat="42.7670870" lon="-7.5241220">
        <ele>537.5</ele>
        <time>2020-04-16T18:05:54Z</time>
      </trkpt>
      <trkpt lat="42.7670690" lon="-7.5242300">
        <ele>537.8</ele>
        <time>2020-04-16T18:05:56Z</time>
      </trkpt>
      <trkpt lat="42.7670250" lon="-7.5244620">
        <ele>538.4</ele>
        <time>2020-04-16T18:05:58Z</time>
      </trkpt>
      <trkpt lat="42.7670000" lon="-7.5245640">
        <ele>538.7</ele>
        <time>2020-04-16T18:06:00Z</time>
      </trkpt>
      <trkpt lat="42.7669760" lon="-7.5246650">
        <ele>539.0</ele>
        <time>2020-04-16T18:06:02Z</time>
      </trkpt>
      <trkpt lat="42.7669530" lon="-7.5247650">
        <ele>539.3</ele>
        <time>2020-04-16T18:06:04Z</time>
      </trkpt>
      <trkpt lat="42.7669290" lon="-7.5248650">
        <ele>539.5</ele>
        <time>2020-04-16T18:06:06Z</time>
      </trkpt>
      <trkpt lat="42.7669050" lon="-7.5249630">
        <ele>539.8</ele>
        <time>2020-04-16T18:06:08Z</time>
      </trkpt>
      <trkpt lat="42.7668260" lon="-7.5252550">
        <ele>540.7</ele>
        <time>2020-04-16T18:06:10Z</time>
      </trkpt>
      <trkpt lat="42.7667900" lon="-7.5253470">
        <ele>541.0</ele>
        <time>2020-04-16T18:06:12Z</time>
      </trkpt>
      <trkpt lat="42.7667540" lon="-7.5254390">
        <ele>541.2</ele>
        <time>2020-04-16T18:06:14Z</time>
      </trkpt>
      <trkpt lat="42.7667180" lon="-7.5255320">
        <ele>541.5</ele>
        <time>2020-04-16T18:06:16Z</time>
      </trkpt>
      <trkpt lat="42.7666820" lon="-7.5256260">
        <ele>541.8</ele>
        <time>2020-04-16T18:06:18Z</time>
      </trkpt>
      <trkpt lat="42.7666450" lon="-7.5257200">
        <ele>542.0</ele>
        <time>2020-04-16T18:06:20Z</time>
      </trkpt>
      <trkpt lat="42.7665200" lon="-7.5260370">
        <ele>542.5</ele>
        <time>2020-04-16T18:06:22Z</time>
      </trkpt>
      <trkpt lat="42.7664770" lon="-7.5261260">
        <ele>542.7</ele>
        <time>2020-04-16T18:06:24Z</time>
      </trkpt>
      <trkpt lat="42.7664350" lon="-7.5262160">
        <ele>542.9</ele>
        <time>2020-04-16T18:06:26Z</time>
      </trkpt>
      <trkpt lat="42.7663930" lon="-7.5263050">
        <ele>543.1</ele>
        <time>2020-04-16T18:06:28Z</time>
      </trkpt>
      <trkpt lat="42.7663500" lon="-7.5263950">
        <ele>543.3</ele>
        <time>2020-04-16T18:06:30Z</time>
      </trkpt>
      <trkpt lat="42.7662300" lon="-7.5266360">
        <ele>543.7</ele>
        <time>2020-04-16T18:06:32Z</time>
      </trkpt>
      <trkpt lat="42.7661710" lon="-7.5267280">
        <ele>543.9</ele>
        <time>2020-04-16T18:06:34Z</time>
      </trkpt>
      <trkpt lat="42.7661010" lon="-7.5268340">
        <ele>544.1</ele>
        <time>2020-04-16T18:06:36Z</time>
      </trkpt>
      <trkpt lat="42.7660240" lon="-7.5269520">
        <ele>544.3</ele>
        <time>2020-04-16T18:06:38Z</time>
      </trkpt>
      <trkpt lat="42.7658530" lon="-7.5272260">
        <ele>544.4</ele>
        <time>2020-04-16T18:06:40Z</time>
      </trkpt>
      <trkpt lat="42.7657720" lon="-7.5273710">
        <ele>544.3</ele>
        <time>2020-04-16T18:06:42Z</time>
      </trkpt>
      <trkpt lat="42.7656470" lon="-7.5276580">
        <ele>544.1</ele>
        <time>2020-04-16T18:06:44Z</time>
      </trkpt>
      <trkpt lat="42.7655930" lon="-7.5278970">
        <ele>544.0</ele>
        <time>2020-04-16T18:06:46Z</time>
      </trkpt>
      <trkpt lat="42.7655890" lon="-7.5281720">
        <ele>543.8</ele>
        <time>2020-04-16T18:06:48Z</time>
      </trkpt>
      <trkpt lat="42.7656280" lon="-7.5284520">
        <ele>543.7</ele>
        <time>2020-04-16T18:06:50Z</time>
      </trkpt>
      <trkpt lat="42.7657170" lon="-7.5286770">
        <ele>543.6</ele>
        <time>2020-04-16T18:06:52Z</time>
      </trkpt>
      <trkpt lat="42.7658000" lon="-7.5288040">
        <ele>543.6</ele>
        <time>2020-04-16T18:06:54Z</time>
      </trkpt>
      <trkpt lat="42.7659280" lon="-7.5290030">
        <ele>543.5</ele>
        <time>2020-04-16T18:06:56Z</time>
      </trkpt>
      <trkpt lat="42.7660170" lon="-7.5291270">
        <ele>543.7</ele>
        <time>2020-04-16T18:06:58Z</time>
      </trkpt>
      <trkpt lat="42.7660910" lon="-7.5292280">
        <ele>544.1</ele>
        <time>2020-04-16T18:07:00Z</time>
      </trkpt>
      <trkpt lat="42.7662100" lon="-7.5294210">
        <ele>545.2</ele>
        <time>2020-04-16T18:07:02Z</time>
      </trkpt>
      <trkpt lat="42.7662500" lon="-7.5295140">
        <ele>545.8</ele>
        <time>2020-04-16T18:07:04Z</time>
      </trkpt>
      <trkpt lat="42.7662820" lon="-7.5295900">
        <ele>546.3</ele>
        <time>2020-04-16T18:07:06Z</time>
      </trkpt>
      <trkpt lat="42.7663070" lon="-7.5296490">
        <ele>546.6</ele>
        <time>2020-04-16T18:07:08Z</time>
      </trkpt>
      <trkpt lat="42.7663270" lon="-7.5296970">
        <ele>546.9</ele>
        <time>2020-04-16T18:07:10Z</time>
      </trkpt>
      <trkpt lat="42.7663970" lon="-7.5298720">
        <ele>548.1</ele>
        <time>2020-04-16T18:07:12Z</time>
      </trkpt>
      <trkpt lat="42.7664080" lon="-7.5299120">
        <ele>548.4</ele>
        <time>2020-04-16T18:07:14Z</time>
      </trkpt>
      <trkpt lat="42.7664190" lon="-7.5299490">
        <ele>548.6</ele>
        <time>2020-04-16T18:07:16Z</time>
      </trkpt>
      <trkpt lat="42.7664310" lon="-7.5299870">
        <ele>548.9</ele>
        <time>2020-04-16T18:07:18Z</time>
      </trkpt>
      <trkpt lat="42.7664430" lon="-7.5300280">
        <ele>549.1</ele>
        <time>2020-04-16T18:07:20Z</time>
      </trkpt>
      <trkpt lat="42.7664560" lon="-7.5300750">
        <ele>549.5</ele>
        <time>2020-04-16T18:07:22Z</time>
      </trkpt>
      <trkpt lat="42.7664900" lon="-7.5302140">
        <ele>550.4</ele>
        <time>2020-04-16T18:07:24Z</time>
      </trkpt>
      <trkpt lat="42.7664970" lon="-7.5302700">
        <ele>550.7</ele>
        <time>2020-04-16T18:07:26Z</time>
      </trkpt>
      <trkpt lat="42.7665040" lon="-7.5303270">
        <ele>551.1</ele>
        <time>2020-04-16T18:07:28Z</time>
      </trkpt>
      <trkpt lat="42.7665120" lon="-7.5303850">
        <ele>551.5</ele>
        <time>2020-04-16T18:07:30Z</time>
      </trkpt>
      <trkpt lat="42.7665190" lon="-7.5304430">
        <ele>551.8</ele>
        <time>2020-04-16T18:07:32Z</time>
      </trkpt>
      <trkpt lat="42.7665330" lon="-7.5306080">
        <ele>552.8</ele>
        <time>2020-04-16T18:07:34Z</time>
      </trkpt>
      <trkpt lat="42.7665340" lon="-7.5306890">
        <ele>553.3</ele>
        <time>2020-04-16T18:07:36Z</time>
      </trkpt>
      <trkpt lat="42.7665340" lon="-7.5307770">
        <ele>553.8</ele>
        <time>2020-04-16T18:07:38Z</time>
      </trkpt>
      <trkpt lat="42.7665340" lon="-7.5308680">
        <ele>554.3</ele>
        <time>2020-04-16T18:07:40Z</time>
      </trkpt>
      <trkpt lat="42.7665250" lon="-7.5310810">
        <ele>555.6</ele>
        <time>2020-04-16T18:07:42Z</time>
      </trkpt>
      <trkpt lat="42.7665160" lon="-7.5311750">
        <ele>556.1</ele>
        <time>2020-04-16T18:07:44Z</time>
      </trkpt>
      <trkpt lat="42.7664910" lon="-7.5313340">
        <ele>557.0</ele>
        <time>2020-04-16T18:07:46Z</time>
      </trkpt>
      <trkpt lat="42.7664720" lon="-7.5314260">
        <ele>557.5</ele>
        <time>2020-04-16T18:07:48Z</time>
      </trkpt>
      <trkpt lat="42.7664530" lon="-7.5315180">
        <ele>558.0</ele>
        <time>2020-04-16T18:07:50Z</time>
      </trkpt>
      <trkpt lat="42.7664340" lon="-7.5316090">
        <ele>558.5</ele>
        <time>2020-04-16T18:07:52Z</time>
      </trkpt>
      <trkpt lat="42.7663800" lon="-7.5318490">
        <ele>559.8</ele>
        <time>2020-04-16T18:07:54Z</time>
      </trkpt>
      <trkpt lat="42.7663550" lon="-7.5319330">
        <ele>560.3</ele>
        <time>2020-04-16T18:07:56Z</time>
      </trkpt>
      <trkpt lat="42.7663300" lon="-7.5320110">
        <ele>560.7</ele>
        <time>2020-04-16T18:07:58Z</time>
      </trkpt>
      <trkpt lat="42.7663070" lon="-7.5320870">
        <ele>561.2</ele>
        <time>2020-04-16T18:08:00Z</time>
      </trkpt>
      <trkpt lat="42.7662840" lon="-7.5321610">
        <ele>561.6</ele>
        <time>2020-04-16T18:08:02Z</time>
      </trkpt>
      <trkpt lat="42.7662620" lon="-7.5322330">
        <ele>562.0</ele>
        <time>2020-04-16T18:08:04Z</time>
      </trkpt>
      <trkpt lat="42.7662410" lon="-7.5323030">
        <ele>562.5</ele>
        <time>2020-04-16T18:08:06Z</time>
      </trkpt>
      <trkpt lat="42.7661640" lon="-7.5325450">
        <ele>564.0</ele>
        <time>2020-04-16T18:08:08Z</time>
      </trkpt>
      <trkpt lat="42.7661420" lon="-7.5326140">
        <ele>564.4</ele>
        <time>2020-04-16T18:08:10Z</time>
      </trkpt>
      <trkpt lat="42.7661190" lon="-7.5326810">
        <ele>564.8</ele>
        <time>2020-04-16T18:08:12Z</time>
      </trkpt>
      <trkpt lat="42.7660960" lon="-7.5327500">
        <ele>565.2</ele>
        <time>2020-04-16T18:08:14Z</time>
      </trkpt>
      <trkpt lat="42.7660360" lon="-7.5329380">
        <ele>566.4</ele>
        <time>2020-04-16T18:08:16Z</time>
      </trkpt>
      <trkpt lat="42.7660190" lon="-7.5330090">
        <ele>566.8</ele>
        <time>2020-04-16T18:08:18Z</time>
      </trkpt>
      <trkpt lat="42.7660020" lon="-7.5330800">
        <ele>567.3</ele>
        <time>2020-04-16T18:08:20Z</time>
      </trkpt>
      <trkpt lat="42.7659850" lon="-7.5331500">
        <ele>567.7</ele>
        <time>2020-04-16T18:08:22Z</time>
      </trkpt>
      <trkpt lat="42.7659510" lon="-7.5333090">
        <ele>568.7</ele>
        <time>2020-04-16T18:08:24Z</time>
      </trkpt>
      <trkpt lat="42.7659390" lon="-7.5333780">
        <ele>569.2</ele>
        <time>2020-04-16T18:08:26Z</time>
      </trkpt>
      <trkpt lat="42.7659270" lon="-7.5334470">
        <ele>569.6</ele>
        <time>2020-04-16T18:08:28Z</time>
      </trkpt>
      <trkpt lat="42.7659100" lon="-7.5335890">
        <ele>570.5</ele>
        <time>2020-04-16T18:08:30Z</time>
      </trkpt>
      <trkpt lat="42.7659070" lon="-7.5336570">
        <ele>570.9</ele>
        <time>2020-04-16T18:08:32Z</time>
      </trkpt>
      <trkpt lat="42.7659040" lon="-7.5337250">
        <ele>571.4</ele>
        <time>2020-04-16T18:08:34Z</time>
      </trkpt>
      <trkpt lat="42.7659020" lon="-7.5337920">
        <ele>571.8</ele>
        <time>2020-04-16T18:08:36Z</time>
      </trkpt>
      <trkpt lat="42.7658990" lon="-7.5338590">
        <ele>572.3</ele>
        <time>2020-04-16T18:08:38Z</time>
      </trkpt>
      <trkpt lat="42.7658990" lon="-7.5340510">
        <ele>573.6</ele>
        <time>2020-04-16T18:08:40Z</time>
      </trkpt>
      <trkpt lat="42.7659080" lon="-7.5341170">
        <ele>574.0</ele>
        <time>2020-04-16T18:08:42Z</time>
      </trkpt>
      <trkpt lat="42.7659170" lon="-7.5341840">
        <ele>574.5</ele>
        <time>2020-04-16T18:08:44Z</time>
      </trkpt>
      <trkpt lat="42.7659270" lon="-7.5342510">
        <ele>574.9</ele>
        <time>2020-04-16T18:08:46Z</time>
      </trkpt>
      <trkpt lat="42.7659360" lon="-7.5343170">
        <ele>575.4</ele>
        <time>2020-04-16T18:08:48Z</time>
      </trkpt>
      <trkpt lat="42.7659450" lon="-7.5343830">
        <ele>575.8</ele>
        <time>2020-04-16T18:08:50Z</time>
      </trkpt>
      <trkpt lat="42.7659780" lon="-7.5345890">
        <ele>577.3</ele>
        <time>2020-04-16T18:08:52Z</time>
      </trkpt>
      <trkpt lat="42.7659900" lon="-7.5346510">
        <ele>577.7</ele>
        <time>2020-04-16T18:08:54Z</time>
      </trkpt>
      <trkpt lat="42.7660030" lon="-7.5347130">
        <ele>578.2</ele>
        <time>2020-04-16T18:08:56Z</time>
      </trkpt>
      <trkpt lat="42.7660150" lon="-7.5347730">
        <ele>578.6</ele>
        <time>2020-04-16T18:08:58Z</time>
      </trkpt>
      <trkpt lat="42.7660270" lon="-7.5348330">
        <ele>579.0</ele>
        <time>2020-04-16T18:09:00Z</time>
      </trkpt>
      <trkpt lat="42.7660400" lon="-7.5348930">
        <ele>579.5</ele>
        <time>2020-04-16T18:09:02Z</time>
      </trkpt>
      <trkpt lat="42.7660520" lon="-7.5349530">
        <ele>579.9</ele>
        <time>2020-04-16T18:09:04Z</time>
      </trkpt>
      <trkpt lat="42.7660640" lon="-7.5350130">
        <ele>580.3</ele>
        <time>2020-04-16T18:09:06Z</time>
      </trkpt>
      <trkpt lat="42.7660760" lon="-7.5350730">
        <ele>580.7</ele>
        <time>2020-04-16T18:09:08Z</time>
      </trkpt>
      <trkpt lat="42.7660880" lon="-7.5351320">
        <ele>581.1</ele>
        <time>2020-04-16T18:09:10Z</time>
      </trkpt>
      <trkpt lat="42.7661000" lon="-7.5351920">
        <ele>581.6</ele>
        <time>2020-04-16T18:09:12Z</time>
      </trkpt>
      <trkpt lat="42.7661120" lon="-7.5352520">
        <ele>582.0</ele>
        <time>2020-04-16T18:09:14Z</time>
      </trkpt>
      <trkpt lat="42.7661250" lon="-7.5353120">
        <ele>582.5</ele>
        <time>2020-04-16T18:09:16Z</time>
      </trkpt>
      <trkpt lat="42.7661920" lon="-7.5356650">
        <ele>584.9</ele>
        <time>2020-04-16T18:09:18Z</time>
      </trkpt>
      <trkpt lat="42.7661960" lon="-7.5357250">
        <ele>585.3</ele>
        <time>2020-04-16T18:09:20Z</time>
      </trkpt>
      <trkpt lat="42.7662010" lon="-7.5357880">
        <ele>585.7</ele>
        <time>2020-04-16T18:09:22Z</time>
      </trkpt>
      <trkpt lat="42.7662050" lon="-7.5358500">
        <ele>586.2</ele>
        <time>2020-04-16T18:09:24Z</time>
      </trkpt>
      <trkpt lat="42.7662100" lon="-7.5359110">
        <ele>586.6</ele>
        <time>2020-04-16T18:09:26Z</time>
      </trkpt>
      <trkpt lat="42.7662140" lon="-7.5359740">
        <ele>587.1</ele>
        <time>2020-04-16T18:09:28Z</time>
      </trkpt>
      <trkpt lat="42.7662190" lon="-7.5360360">
        <ele>587.5</ele>
        <time>2020-04-16T18:09:30Z</time>
      </trkpt>
      <trkpt lat="42.7662320" lon="-7.5362530">
        <ele>588.9</ele>
        <time>2020-04-16T18:09:32Z</time>
      </trkpt>
      <trkpt lat="42.7662280" lon="-7.5363150">
        <ele>589.3</ele>
        <time>2020-04-16T18:09:34Z</time>
      </trkpt>
      <trkpt lat="42.7662240" lon="-7.5363770">
        <ele>589.7</ele>
        <time>2020-04-16T18:09:36Z</time>
      </trkpt>
      <trkpt lat="42.7662200" lon="-7.5364390">
        <ele>590.1</ele>
        <time>2020-04-16T18:09:38Z</time>
      </trkpt>
      <trkpt lat="42.7662170" lon="-7.5365010">
        <ele>590.5</ele>
        <time>2020-04-16T18:09:40Z</time>
      </trkpt>
      <trkpt lat="42.7662130" lon="-7.5365630">
        <ele>590.9</ele>
        <time>2020-04-16T18:09:42Z</time>
      </trkpt>
      <trkpt lat="42.7661960" lon="-7.5367490">
        <ele>592.0</ele>
        <time>2020-04-16T18:09:44Z</time>
      </trkpt>
      <trkpt lat="42.7661830" lon="-7.5368090">
        <ele>592.4</ele>
        <time>2020-04-16T18:09:46Z</time>
      </trkpt>
      <trkpt lat="42.7661720" lon="-7.5368690">
        <ele>592.8</ele>
        <time>2020-04-16T18:09:48Z</time>
      </trkpt>
      <trkpt lat="42.7661600" lon="-7.5369280">
        <ele>593.2</ele>
        <time>2020-04-16T18:09:50Z</time>
      </trkpt>
      <trkpt lat="42.7661470" lon="-7.5369880">
        <ele>593.6</ele>
        <time>2020-04-16T18:09:52Z</time>
      </trkpt>
      <trkpt lat="42.7661350" lon="-7.5370470">
        <ele>594.0</ele>
        <time>2020-04-16T18:09:54Z</time>
      </trkpt>
      <trkpt lat="42.7661240" lon="-7.5371060">
        <ele>594.4</ele>
        <time>2020-04-16T18:09:56Z</time>
      </trkpt>
      <trkpt lat="42.7660750" lon="-7.5373180">
        <ele>595.6</ele>
        <time>2020-04-16T18:09:58Z</time>
      </trkpt>
      <trkpt lat="42.7660550" lon="-7.5373740">
        <ele>595.9</ele>
        <time>2020-04-16T18:10:00Z</time>
      </trkpt>
      <trkpt lat="42.7660350" lon="-7.5374300">
        <ele>596.2</ele>
        <time>2020-04-16T18:10:02Z</time>
      </trkpt>
      <trkpt lat="42.7660160" lon="-7.5374860">
        <ele>596.6</ele>
        <time>2020-04-16T18:10:04Z</time>
      </trkpt>
      <trkpt lat="42.7659960" lon="-7.5375420">
        <ele>596.8</ele>
        <time>2020-04-16T18:10:06Z</time>
      </trkpt>
      <trkpt lat="42.7659760" lon="-7.5375980">
        <ele>597.1</ele>
        <time>2020-04-16T18:10:08Z</time>
      </trkpt>
      <trkpt lat="42.7659130" lon="-7.5377750">
        <ele>597.8</ele>
        <time>2020-04-16T18:10:10Z</time>
      </trkpt>
      <trkpt lat="42.7658840" lon="-7.5378560">
        <ele>598.1</ele>
        <time>2020-04-16T18:10:12Z</time>
      </trkpt>
      <trkpt lat="42.7658500" lon="-7.5379510">
        <ele>598.3</ele>
        <time>2020-04-16T18:10:14Z</time>
      </trkpt>
      <trkpt lat="42.7657780" lon="-7.5381530">
        <ele>598.8</ele>
        <time>2020-04-16T18:10:16Z</time>
      </trkpt>
      <trkpt lat="42.7657230" lon="-7.5383080">
        <ele>599.0</ele>
        <time>2020-04-16T18:10:18Z</time>
      </trkpt>
      <trkpt lat="42.7656810" lon="-7.5384260">
        <ele>599.2</ele>
        <time>2020-04-16T18:10:20Z</time>
      </trkpt>
      <trkpt lat="42.7656370" lon="-7.5385500">
        <ele>599.3</ele>
        <time>2020-04-16T18:10:22Z</time>
      </trkpt>
      <trkpt lat="42.7655920" lon="-7.5386760">
        <ele>599.3</ele>
        <time>2020-04-16T18:10:24Z</time>
      </trkpt>
      <trkpt lat="42.7654900" lon="-7.5389780">
        <ele>599.1</ele>
        <time>2020-04-16T18:10:26Z</time>
      </trkpt>
      <trkpt lat="42.7654510" lon="-7.5391080">
        <ele>599.0</ele>
        <time>2020-04-16T18:10:28Z</time>
      </trkpt>
      <trkpt lat="42.7654130" lon="-7.5392370">
        <ele>598.9</ele>
        <time>2020-04-16T18:10:30Z</time>
      </trkpt>
      <trkpt lat="42.7653750" lon="-7.5393650">
        <ele>598.9</ele>
        <time>2020-04-16T18:10:32Z</time>
      </trkpt>
      <trkpt lat="42.7653370" lon="-7.5394910">
        <ele>598.9</ele>
        <time>2020-04-16T18:10:34Z</time>
      </trkpt>
      <trkpt lat="42.7652990" lon="-7.5396170">
        <ele>598.9</ele>
        <time>2020-04-16T18:10:36Z</time>
      </trkpt>
      <trkpt lat="42.7652020" lon="-7.5400190">
        <ele>598.9</ele>
        <time>2020-04-16T18:10:38Z</time>
      </trkpt>
      <trkpt lat="42.7651860" lon="-7.5401520">
        <ele>599.0</ele>
        <time>2020-04-16T18:10:40Z</time>
      </trkpt>
      <trkpt lat="42.7651710" lon="-7.5403910">
        <ele>599.2</ele>
        <time>2020-04-16T18:10:42Z</time>
      </trkpt>
      <trkpt lat="42.7651710" lon="-7.5405230">
        <ele>599.4</ele>
        <time>2020-04-16T18:10:44Z</time>
      </trkpt>
      <trkpt lat="42.7651700" lon="-7.5406550">
        <ele>599.5</ele>
        <time>2020-04-16T18:10:46Z</time>
      </trkpt>
      <trkpt lat="42.7651700" lon="-7.5407850">
        <ele>599.6</ele>
        <time>2020-04-16T18:10:48Z</time>
      </trkpt>
      <trkpt lat="42.7651700" lon="-7.5410980">
        <ele>600.0</ele>
        <time>2020-04-16T18:10:50Z</time>
      </trkpt>
      <trkpt lat="42.7651700" lon="-7.5412400">
        <ele>600.3</ele>
        <time>2020-04-16T18:10:52Z</time>
      </trkpt>
      <trkpt lat="42.7651690" lon="-7.5413900">
        <ele>600.5</ele>
        <time>2020-04-16T18:10:54Z</time>
      </trkpt>
      <trkpt lat="42.7651540" lon="-7.5417250">
        <ele>601.2</ele>
        <time>2020-04-16T18:10:56Z</time>
      </trkpt>
      <trkpt lat="42.7651290" lon="-7.5418840">
        <ele>601.4</ele>
        <time>2020-04-16T18:10:58Z</time>
      </trkpt>
      <trkpt lat="42.7650590" lon="-7.5421200">
        <ele>601.7</ele>
        <time>2020-04-16T18:11:00Z</time>
      </trkpt>
      <trkpt lat="42.7649610" lon="-7.5423360">
        <ele>601.8</ele>
        <time>2020-04-16T18:11:02Z</time>
      </trkpt>
      <trkpt lat="42.7648340" lon="-7.5425190">
        <ele>601.7</ele>
        <time>2020-04-16T18:11:04Z</time>
      </trkpt>
      <trkpt lat="42.7647290" lon="-7.5426170">
        <ele>601.5</ele>
        <time>2020-04-16T18:11:06Z</time>
      </trkpt>
      <trkpt lat="42.7646250" lon="-7.5427140">
        <ele>601.3</ele>
        <time>2020-04-16T18:11:08Z</time>
      </trkpt>
      <trkpt lat="42.7645230" lon="-7.5428080">
        <ele>601.1</ele>
        <time>2020-04-16T18:11:10Z</time>
      </trkpt>
      <trkpt lat="42.7644220" lon="-7.5429030">
        <ele>600.9</ele>
        <time>2020-04-16T18:11:12Z</time>
      </trkpt>
      <trkpt lat="42.7641660" lon="-7.5431850">
        <ele>600.3</ele>
        <time>2020-04-16T18:11:14Z</time>
      </trkpt>
      <trkpt lat="42.7640540" lon="-7.5433900">
        <ele>600.3</ele>
        <time>2020-04-16T18:11:16Z</time>
      </trkpt>
      <trkpt lat="42.7640260" lon="-7.5435470">
        <ele>600.3</ele>
        <time>2020-04-16T18:11:18Z</time>
      </trkpt>
      <trkpt lat="42.7639890" lon="-7.5437960">
        <ele>600.5</ele>
        <time>2020-04-16T18:11:20Z</time>
      </trkpt>
      <trkpt lat="42.7639830" lon="-7.5439480">
        <ele>600.7</ele>
        <time>2020-04-16T18:11:22Z</time>
      </trkpt>
      <trkpt lat="42.7639780" lon="-7.5440920">
        <ele>601.0</ele>
        <time>2020-04-16T18:11:24Z</time>
      </trkpt>
      <trkpt lat="42.7639730" lon="-7.5442270">
        <ele>601.2</ele>
        <time>2020-04-16T18:11:26Z</time>
      </trkpt>
      <trkpt lat="42.7639680" lon="-7.5443560">
        <ele>601.4</ele>
        <time>2020-04-16T18:11:28Z</time>
      </trkpt>
      <trkpt lat="42.7639630" lon="-7.5444800">
        <ele>601.6</ele>
        <time>2020-04-16T18:11:30Z</time>
      </trkpt>
      <trkpt lat="42.7639270" lon="-7.5448710">
        <ele>602.2</ele>
        <time>2020-04-16T18:11:32Z</time>
      </trkpt>
      <trkpt lat="42.7639040" lon="-7.5449810">
        <ele>602.4</ele>
        <time>2020-04-16T18:11:34Z</time>
      </trkpt>
      <trkpt lat="42.7638520" lon="-7.5451640">
        <ele>602.6</ele>
        <time>2020-04-16T18:11:36Z</time>
      </trkpt>
      <trkpt lat="42.7638140" lon="-7.5452700">
        <ele>602.8</ele>
        <time>2020-04-16T18:11:38Z</time>
      </trkpt>
      <trkpt lat="42.7637760" lon="-7.5453780">
        <ele>603.0</ele>
        <time>2020-04-16T18:11:40Z</time>
      </trkpt>
      <trkpt lat="42.7637360" lon="-7.5454900">
        <ele>603.2</ele>
        <time>2020-04-16T18:11:42Z</time>
      </trkpt>
      <trkpt lat="42.7636970" lon="-7.5456030">
        <ele>603.4</ele>
        <time>2020-04-16T18:11:44Z</time>
      </trkpt>
      <trkpt lat="42.7636570" lon="-7.5457160">
        <ele>603.6</ele>
        <time>2020-04-16T18:11:46Z</time>
      </trkpt>
      <trkpt lat="42.7635340" lon="-7.5460820">
        <ele>604.4</ele>
        <time>2020-04-16T18:11:48Z</time>
      </trkpt>
      <trkpt lat="42.7635030" lon="-7.5462020">
        <ele>604.6</ele>
        <time>2020-04-16T18:11:50Z</time>
      </trkpt>
      <trkpt lat="42.7634650" lon="-7.5464160">
        <ele>605.1</ele>
        <time>2020-04-16T18:11:52Z</time>
      </trkpt>
      <trkpt lat="42.7634640" lon="-7.5465460">
        <ele>605.4</ele>
        <time>2020-04-16T18:11:54Z</time>
      </trkpt>
      <trkpt lat="42.7634790" lon="-7.5467620">
        <ele>605.9</ele>
        <time>2020-04-16T18:11:56Z</time>
      </trkpt>
      <trkpt lat="42.7634990" lon="-7.5468920">
        <ele>606.1</ele>
        <time>2020-04-16T18:11:58Z</time>
      </trkpt>
      <trkpt lat="42.7635190" lon="-7.5470230">
        <ele>606.4</ele>
        <time>2020-04-16T18:12:00Z</time>
      </trkpt>
      <trkpt lat="42.7635390" lon="-7.5471550">
        <ele>606.7</ele>
        <time>2020-04-16T18:12:02Z</time>
      </trkpt>
      <trkpt lat="42.7635600" lon="-7.5472890">
        <ele>607.0</ele>
        <time>2020-04-16T18:12:04Z</time>
      </trkpt>
      <trkpt lat="42.7636060" lon="-7.5476680">
        <ele>607.8</ele>
        <time>2020-04-16T18:12:06Z</time>
      </trkpt>
      <trkpt lat="42.7636100" lon="-7.5478060">
        <ele>608.0</ele>
        <time>2020-04-16T18:12:08Z</time>
      </trkpt>
      <trkpt lat="42.7636060" lon="-7.5480480">
        <ele>608.4</ele>
        <time>2020-04-16T18:12:10Z</time>
      </trkpt>
      <trkpt lat="42.7635950" lon="-7.5481900">
        <ele>608.5</ele>
        <time>2020-04-16T18:12:12Z</time>
      </trkpt>
      <trkpt lat="42.7635840" lon="-7.5483320">
        <ele>608.5</ele>
        <time>2020-04-16T18:12:15Z</time>
      </trkpt>
      <trkpt lat="42.7635730" lon="-7.5484760">
        <ele>608.6</ele>
        <time>2020-04-16T18:12:17Z</time>
      </trkpt>
      <trkpt lat="42.7635620" lon="-7.5486210">
        <ele>608.6</ele>
        <time>2020-04-16T18:12:19Z</time>
      </trkpt>
      <trkpt lat="42.7635300" lon="-7.5490170">
        <ele>608.7</ele>
        <time>2020-04-16T18:12:21Z</time>
      </trkpt>
      <trkpt lat="42.7635150" lon="-7.5491600">
        <ele>608.8</ele>
        <time>2020-04-16T18:12:23Z</time>
      </trkpt>
      <trkpt lat="42.7635010" lon="-7.5493020">
        <ele>608.9</ele>
        <time>2020-04-16T18:12:25Z</time>
      </trkpt>
      <trkpt lat="42.7634870" lon="-7.5494420">
        <ele>609.0</ele>
        <time>2020-04-16T18:12:27Z</time>
      </trkpt>
      <trkpt lat="42.7634730" lon="-7.5495820">
        <ele>609.1</ele>
        <time>2020-04-16T18:12:29Z</time>
      </trkpt>
      <trkpt lat="42.7634300" lon="-7.5500110">
        <ele>609.5</ele>
        <time>2020-04-16T18:12:31Z</time>
      </trkpt>
      <trkpt lat="42.7634160" lon="-7.5501480">
        <ele>609.6</ele>
        <time>2020-04-16T18:12:33Z</time>
      </trkpt>
      <trkpt lat="42.7634020" lon="-7.5502840">
        <ele>609.8</ele>
        <time>2020-04-16T18:12:35Z</time>
      </trkpt>
      <trkpt lat="42.7633780" lon="-7.5505280">
        <ele>609.9</ele>
        <time>2020-04-16T18:12:37Z</time>
      </trkpt>
      <trkpt lat="42.7633640" lon="-7.5506660">
        <ele>609.9</ele>
        <time>2020-04-16T18:12:39Z</time>
      </trkpt>
      <trkpt lat="42.7633500" lon="-7.5508040">
        <ele>609.9</ele>
        <time>2020-04-16T18:12:41Z</time>
      </trkpt>
      <trkpt lat="42.7633150" lon="-7.5511250">
        <ele>610.0</ele>
        <time>2020-04-16T18:12:43Z</time>
      </trkpt>
      <trkpt lat="42.7632970" lon="-7.5512620">
        <ele>610.0</ele>
        <time>2020-04-16T18:12:45Z</time>
      </trkpt>
      <trkpt lat="42.7632780" lon="-7.5514010">
        <ele>610.0</ele>
        <time>2020-04-16T18:12:47Z</time>
      </trkpt>
      <trkpt lat="42.7632590" lon="-7.5515390">
        <ele>610.1</ele>
        <time>2020-04-16T18:12:49Z</time>
      </trkpt>
      <trkpt lat="42.7632400" lon="-7.5516770">
        <ele>610.1</ele>
        <time>2020-04-16T18:12:51Z</time>
      </trkpt>
      <trkpt lat="42.7632210" lon="-7.5518160">
        <ele>610.1</ele>
        <time>2020-04-16T18:12:53Z</time>
      </trkpt>
      <trkpt lat="42.7631630" lon="-7.5522420">
        <ele>610.1</ele>
        <time>2020-04-16T18:12:55Z</time>
      </trkpt>
      <trkpt lat="42.7631440" lon="-7.5523820">
        <ele>610.1</ele>
        <time>2020-04-16T18:12:57Z</time>
      </trkpt>
      <trkpt lat="42.7631250" lon="-7.5525250">
        <ele>610.1</ele>
        <time>2020-04-16T18:12:59Z</time>
      </trkpt>
      <trkpt lat="42.7631050" lon="-7.5526690">
        <ele>610.0</ele>
        <time>2020-04-16T18:13:01Z</time>
      </trkpt>
      <trkpt lat="42.7630850" lon="-7.5528150">
        <ele>609.9</ele>
        <time>2020-04-16T18:13:03Z</time>
      </trkpt>
      <trkpt lat="42.7630250" lon="-7.5532460">
        <ele>609.4</ele>
        <time>2020-04-16T18:13:05Z</time>
      </trkpt>
      <trkpt lat="42.7629880" lon="-7.5533920">
        <ele>609.3</ele>
        <time>2020-04-16T18:13:07Z</time>
      </trkpt>
      <trkpt lat="42.7629530" lon="-7.5535370">
        <ele>609.3</ele>
        <time>2020-04-16T18:13:09Z</time>
      </trkpt>
      <trkpt lat="42.7628780" lon="-7.5538280">
        <ele>609.2</ele>
        <time>2020-04-16T18:13:11Z</time>
      </trkpt>
      <trkpt lat="42.7628260" lon="-7.5539700">
        <ele>609.1</ele>
        <time>2020-04-16T18:13:13Z</time>
      </trkpt>
      <trkpt lat="42.7627720" lon="-7.5541200">
        <ele>609.1</ele>
        <time>2020-04-16T18:13:15Z</time>
      </trkpt>
      <trkpt lat="42.7626610" lon="-7.5544280">
        <ele>609.1</ele>
        <time>2020-04-16T18:13:17Z</time>
      </trkpt>
      <trkpt lat="42.7626020" lon="-7.5545900">
        <ele>609.1</ele>
        <time>2020-04-16T18:13:19Z</time>
      </trkpt>
      <trkpt lat="42.7625430" lon="-7.5547550">
        <ele>609.1</ele>
        <time>2020-04-16T18:13:21Z</time>
      </trkpt>
      <trkpt lat="42.7624360" lon="-7.5550810">
        <ele>609.0</ele>
        <time>2020-04-16T18:13:23Z</time>
      </trkpt>
      <trkpt lat="42.7623580" lon="-7.5553560">
        <ele>608.8</ele>
        <time>2020-04-16T18:13:25Z</time>
      </trkpt>
      <trkpt lat="42.7623420" lon="-7.5555390">
        <ele>608.6</ele>
        <time>2020-04-16T18:13:27Z</time>
      </trkpt>
      <trkpt lat="42.7623270" lon="-7.5557180">
        <ele>608.5</ele>
        <time>2020-04-16T18:13:29Z</time>
      </trkpt>
      <trkpt lat="42.7623110" lon="-7.5558940">
        <ele>608.3</ele>
        <time>2020-04-16T18:13:31Z</time>
      </trkpt>
      <trkpt lat="42.7622780" lon="-7.5563200">
        <ele>607.7</ele>
        <time>2020-04-16T18:13:33Z</time>
      </trkpt>
      <trkpt lat="42.7622660" lon="-7.5564970">
        <ele>607.5</ele>
        <time>2020-04-16T18:13:35Z</time>
      </trkpt>
      <trkpt lat="42.7622540" lon="-7.5566740">
        <ele>607.2</ele>
        <time>2020-04-16T18:13:37Z</time>
      </trkpt>
      <trkpt lat="42.7622420" lon="-7.5568510">
        <ele>606.9</ele>
        <time>2020-04-16T18:13:39Z</time>
      </trkpt>
      <trkpt lat="42.7622130" lon="-7.5572760">
        <ele>606.2</ele>
        <time>2020-04-16T18:13:41Z</time>
      </trkpt>
      <trkpt lat="42.7622010" lon="-7.5574520">
        <ele>605.9</ele>
        <time>2020-04-16T18:13:43Z</time>
      </trkpt>
      <trkpt lat="42.7621890" lon="-7.5576290">
        <ele>605.6</ele>
        <time>2020-04-16T18:13:45Z</time>
      </trkpt>
      <trkpt lat="42.7621770" lon="-7.5578060">
        <ele>605.3</ele>
        <time>2020-04-16T18:13:47Z</time>
      </trkpt>
      <trkpt lat="42.7621310" lon="-7.5582240">
        <ele>604.7</ele>
        <time>2020-04-16T18:13:49Z</time>
      </trkpt>
      <trkpt lat="42.7620840" lon="-7.5583970">
        <ele>604.4</ele>
        <time>2020-04-16T18:13:51Z</time>
      </trkpt>
      <trkpt lat="42.7619820" lon="-7.5586620">
        <ele>604.0</ele>
        <time>2020-04-16T18:13:53Z</time>
      </trkpt>
      <trkpt lat="42.7619000" lon="-7.5588230">
        <ele>603.7</ele>
        <time>2020-04-16T18:13:55Z</time>
      </trkpt>
      <trkpt lat="42.7618170" lon="-7.5589860">
        <ele>603.3</ele>
        <time>2020-04-16T18:13:57Z</time>
      </trkpt>
      <trkpt lat="42.7616630" lon="-7.5593570">
        <ele>602.6</ele>
        <time>2020-04-16T18:13:59Z</time>
      </trkpt>
      <trkpt lat="42.7616130" lon="-7.5596500">
        <ele>602.1</ele>
        <time>2020-04-16T18:14:01Z</time>
      </trkpt>
      <trkpt lat="42.7616110" lon="-7.5598620">
        <ele>601.6</ele>
        <time>2020-04-16T18:14:03Z</time>
      </trkpt>
      <trkpt lat="42.7616390" lon="-7.5601960">
        <ele>601.0</ele>
        <time>2020-04-16T18:14:05Z</time>
      </trkpt>
      <trkpt lat="42.7616850" lon="-7.5604050">
        <ele>600.7</ele>
        <time>2020-04-16T18:14:07Z</time>
      </trkpt>
      <trkpt lat="42.7617540" lon="-7.5607910">
        <ele>600.2</ele>
        <time>2020-04-16T18:14:09Z</time>
      </trkpt>
      <trkpt lat="42.7617710" lon="-7.5610030">
        <ele>600.0</ele>
        <time>2020-04-16T18:14:11Z</time>
      </trkpt>
      <trkpt lat="42.7617880" lon="-7.5612040">
        <ele>599.9</ele>
        <time>2020-04-16T18:14:13Z</time>
      </trkpt>
      <trkpt lat="42.7618000" lon="-7.5615960">
        <ele>599.9</ele>
        <time>2020-04-16T18:14:15Z</time>
      </trkpt>
      <trkpt lat="42.7617920" lon="-7.5617890">
        <ele>599.8</ele>
        <time>2020-04-16T18:14:17Z</time>
      </trkpt>
      <trkpt lat="42.7617850" lon="-7.5619790">
        <ele>599.7</ele>
        <time>2020-04-16T18:14:19Z</time>
      </trkpt>
      <trkpt lat="42.7617680" lon="-7.5623880">
        <ele>599.6</ele>
        <time>2020-04-16T18:14:21Z</time>
      </trkpt>
      <trkpt lat="42.7617600" lon="-7.5625820">
        <ele>599.5</ele>
        <time>2020-04-16T18:14:23Z</time>
      </trkpt>
      <trkpt lat="42.7617520" lon="-7.5627820">
        <ele>599.4</ele>
        <time>2020-04-16T18:14:25Z</time>
      </trkpt>
      <trkpt lat="42.7617330" lon="-7.5632170">
        <ele>598.8</ele>
        <time>2020-04-16T18:14:27Z</time>
      </trkpt>
      <trkpt lat="42.7617180" lon="-7.5634260">
        <ele>598.5</ele>
        <time>2020-04-16T18:14:29Z</time>
      </trkpt>
      <trkpt lat="42.7617040" lon="-7.5636380">
        <ele>598.2</ele>
        <time>2020-04-16T18:14:31Z</time>
      </trkpt>
      <trkpt lat="42.7616680" lon="-7.5641090">
        <ele>597.7</ele>
        <time>2020-04-16T18:14:33Z</time>
      </trkpt>
      <trkpt lat="42.7616510" lon="-7.5643300">
        <ele>597.6</ele>
        <time>2020-04-16T18:14:35Z</time>
      </trkpt>
      <trkpt lat="42.7616340" lon="-7.5645590">
        <ele>597.2</ele>
        <time>2020-04-16T18:14:37Z</time>
      </trkpt>
      <trkpt lat="42.7615980" lon="-7.5650210">
        <ele>596.3</ele>
        <time>2020-04-16T18:14:39Z</time>
      </trkpt>
      <trkpt lat="42.7615800" lon="-7.5652610">
        <ele>595.7</ele>
        <time>2020-04-16T18:14:41Z</time>
      </trkpt>
      <trkpt lat="42.7615610" lon="-7.5655060">
        <ele>595.2</ele>
        <time>2020-04-16T18:14:43Z</time>
      </trkpt>
      <trkpt lat="42.7615290" lon="-7.5660250">
        <ele>594.1</ele>
        <time>2020-04-16T18:14:45Z</time>
      </trkpt>
      <trkpt lat="42.7615560" lon="-7.5662630">
        <ele>593.7</ele>
        <time>2020-04-16T18:14:47Z</time>
      </trkpt>
      <trkpt lat="42.7616420" lon="-7.5665770">
        <ele>593.9</ele>
        <time>2020-04-16T18:14:49Z</time>
      </trkpt>
      <trkpt lat="42.7617900" lon="-7.5668220">
        <ele>594.7</ele>
        <time>2020-04-16T18:14:51Z</time>
      </trkpt>
      <trkpt lat="42.7619170" lon="-7.5669190">
        <ele>595.4</ele>
        <time>2020-04-16T18:14:53Z</time>
      </trkpt>
      <trkpt lat="42.7621330" lon="-7.5670780">
        <ele>596.7</ele>
        <time>2020-04-16T18:14:55Z</time>
      </trkpt>
      <trkpt lat="42.7622470" lon="-7.5671490">
        <ele>597.5</ele>
        <time>2020-04-16T18:14:57Z</time>
      </trkpt>
      <trkpt lat="42.7623480" lon="-7.5672130">
        <ele>598.2</ele>
        <time>2020-04-16T18:14:59Z</time>
      </trkpt>
      <trkpt lat="42.7625570" lon="-7.5673450">
        <ele>599.8</ele>
        <time>2020-04-16T18:15:01Z</time>
      </trkpt>
      <trkpt lat="42.7626370" lon="-7.5673960">
        <ele>600.5</ele>
        <time>2020-04-16T18:15:03Z</time>
      </trkpt>
      <trkpt lat="42.7627100" lon="-7.5674420">
        <ele>601.2</ele>
        <time>2020-04-16T18:15:05Z</time>
      </trkpt>
      <trkpt lat="42.7627750" lon="-7.5674830">
        <ele>601.8</ele>
        <time>2020-04-16T18:15:07Z</time>
      </trkpt>
      <trkpt lat="42.7628350" lon="-7.5675210">
        <ele>602.4</ele>
        <time>2020-04-16T18:15:09Z</time>
      </trkpt>
      <trkpt lat="42.7630100" lon="-7.5676290">
        <ele>603.9</ele>
        <time>2020-04-16T18:15:11Z</time>
      </trkpt>
      <trkpt lat="42.7630630" lon="-7.5676550">
        <ele>604.2</ele>
        <time>2020-04-16T18:15:13Z</time>
      </trkpt>
      <trkpt lat="42.7631130" lon="-7.5676790">
        <ele>604.5</ele>
        <time>2020-04-16T18:15:15Z</time>
      </trkpt>
      <trkpt lat="42.7632160" lon="-7.5677140">
        <ele>605.0</ele>
        <time>2020-04-16T18:15:17Z</time>
      </trkpt>
      <trkpt lat="42.7632780" lon="-7.5677130">
        <ele>605.1</ele>
        <time>2020-04-16T18:15:19Z</time>
      </trkpt>
      <trkpt lat="42.7633480" lon="-7.5677120">
        <ele>605.3</ele>
        <time>2020-04-16T18:15:21Z</time>
      </trkpt>
      <trkpt lat="42.7634250" lon="-7.5677100">
        <ele>605.4</ele>
        <time>2020-04-16T18:15:23Z</time>
      </trkpt>
      <trkpt lat="42.7635070" lon="-7.5677080">
        <ele>605.5</ele>
        <time>2020-04-16T18:15:25Z</time>
      </trkpt>
      <trkpt lat="42.7635940" lon="-7.5677060">
        <ele>605.5</ele>
        <time>2020-04-16T18:15:27Z</time>
      </trkpt>
      <trkpt lat="42.7636860" lon="-7.5677040">
        <ele>605.5</ele>
        <time>2020-04-16T18:15:29Z</time>
      </trkpt>
      <trkpt lat="42.7639940" lon="-7.5676980">
        <ele>605.2</ele>
        <time>2020-04-16T18:15:31Z</time>
      </trkpt>
      <trkpt lat="42.7640930" lon="-7.5676960">
        <ele>605.1</ele>
        <time>2020-04-16T18:15:33Z</time>
      </trkpt>
      <trkpt lat="42.7641940" lon="-7.5676940">
        <ele>605.0</ele>
        <time>2020-04-16T18:15:35Z</time>
      </trkpt>
      <trkpt lat="42.7644020" lon="-7.5676910">
        <ele>605.0</ele>
        <time>2020-04-16T18:15:37Z</time>
      </trkpt>
      <trkpt lat="42.7645070" lon="-7.5676900">
        <ele>604.9</ele>
        <time>2020-04-16T18:15:39Z</time>
      </trkpt>
      <trkpt lat="42.7646840" lon="-7.5676870">
        <ele>604.9</ele>
        <time>2020-04-16T18:15:41Z</time>
      </trkpt>
      <trkpt lat="42.7648340" lon="-7.5676860">
        <ele>605.0</ele>
        <time>2020-04-16T18:15:43Z</time>
      </trkpt>
      <trkpt lat="42.7649310" lon="-7.5676850">
        <ele>605.0</ele>
        <time>2020-04-16T18:15:45Z</time>
      </trkpt>
      <trkpt lat="42.7650160" lon="-7.5676840">
        <ele>605.2</ele>
        <time>2020-04-16T18:15:47Z</time>
      </trkpt>
      <trkpt lat="42.7650910" lon="-7.5676830">
        <ele>605.4</ele>
        <time>2020-04-16T18:15:49Z</time>
      </trkpt>
      <trkpt lat="42.7651560" lon="-7.5676820">
        <ele>605.6</ele>
        <time>2020-04-16T18:15:51Z</time>
      </trkpt>
      <trkpt lat="42.7652140" lon="-7.5676820">
        <ele>605.8</ele>
        <time>2020-04-16T18:15:53Z</time>
      </trkpt>
      <trkpt lat="42.7652660" lon="-7.5676810">
        <ele>606.1</ele>
        <time>2020-04-16T18:15:55Z</time>
      </trkpt>
      <trkpt lat="42.7653130" lon="-7.5676810">
        <ele>606.4</ele>
        <time>2020-04-16T18:15:57Z</time>
      </trkpt>
      <trkpt lat="42.7653560" lon="-7.5676800">
        <ele>606.7</ele>
        <time>2020-04-16T18:15:59Z</time>
      </trkpt>
      <trkpt lat="42.7656120" lon="-7.5676780">
        <ele>608.5</ele>
        <time>2020-04-16T18:16:01Z</time>
      </trkpt>
      <trkpt lat="42.7656580" lon="-7.5676790">
        <ele>608.8</ele>
        <time>2020-04-16T18:16:03Z</time>
      </trkpt>
      <trkpt lat="42.7657050" lon="-7.5676800">
        <ele>609.0</ele>
        <time>2020-04-16T18:16:05Z</time>
      </trkpt>
      <trkpt lat="42.7657500" lon="-7.5676820">
        <ele>609.2</ele>
        <time>2020-04-16T18:16:07Z</time>
      </trkpt>
      <trkpt lat="42.7658520" lon="-7.5676840">
        <ele>609.5</ele>
        <time>2020-04-16T18:16:09Z</time>
      </trkpt>
      <trkpt lat="42.7659000" lon="-7.5676840">
        <ele>609.7</ele>
        <time>2020-04-16T18:16:11Z</time>
      </trkpt>
      <trkpt lat="42.7659480" lon="-7.5676830">
        <ele>609.9</ele>
        <time>2020-04-16T18:16:13Z</time>
      </trkpt>
      <trkpt lat="42.7659970" lon="-7.5676830">
        <ele>610.1</ele>
        <time>2020-04-16T18:16:15Z</time>
      </trkpt>
      <trkpt lat="42.7660450" lon="-7.5676830">
        <ele>610.3</ele>
        <time>2020-04-16T18:16:17Z</time>
      </trkpt>
      <trkpt lat="42.7661830" lon="-7.5676820">
        <ele>611.0</ele>
        <time>2020-04-16T18:16:19Z</time>
      </trkpt>
      <trkpt lat="42.7662520" lon="-7.5676810">
        <ele>611.3</ele>
        <time>2020-04-16T18:16:21Z</time>
      </trkpt>
      <trkpt lat="42.7663320" lon="-7.5676810">
        <ele>611.6</ele>
        <time>2020-04-16T18:16:23Z</time>
      </trkpt>
      <trkpt lat="42.7664180" lon="-7.5676800">
        <ele>611.8</ele>
        <time>2020-04-16T18:16:25Z</time>
      </trkpt>
      <trkpt lat="42.7665100" lon="-7.5676800">
        <ele>612.1</ele>
        <time>2020-04-16T18:16:27Z</time>
      </trkpt>
      <trkpt lat="42.7667460" lon="-7.5676800">
        <ele>612.6</ele>
        <time>2020-04-16T18:16:29Z</time>
      </trkpt>
      <trkpt lat="42.7668420" lon="-7.5676810">
        <ele>612.7</ele>
        <time>2020-04-16T18:16:31Z</time>
      </trkpt>
      <trkpt lat="42.7669390" lon="-7.5676820">
        <ele>613.0</ele>
        <time>2020-04-16T18:16:33Z</time>
      </trkpt>
      <trkpt lat="42.7671340" lon="-7.5677240">
        <ele>613.7</ele>
        <time>2020-04-16T18:16:35Z</time>
      </trkpt>
      <trkpt lat="42.7672300" lon="-7.5677690">
        <ele>614.1</ele>
        <time>2020-04-16T18:16:37Z</time>
      </trkpt>
      <trkpt lat="42.7673270" lon="-7.5678150">
        <ele>614.5</ele>
        <time>2020-04-16T18:16:39Z</time>
      </trkpt>
      <trkpt lat="42.7675270" lon="-7.5679270">
        <ele>615.3</ele>
        <time>2020-04-16T18:16:41Z</time>
      </trkpt>
      <trkpt lat="42.7676090" lon="-7.5679840">
        <ele>615.6</ele>
        <time>2020-04-16T18:16:43Z</time>
      </trkpt>
      <trkpt lat="42.7676820" lon="-7.5680350">
        <ele>615.9</ele>
        <time>2020-04-16T18:16:45Z</time>
      </trkpt>
      <trkpt lat="42.7677500" lon="-7.5680830">
        <ele>616.1</ele>
        <time>2020-04-16T18:16:47Z</time>
      </trkpt>
      <trkpt lat="42.7678120" lon="-7.5681260">
        <ele>616.3</ele>
        <time>2020-04-16T18:16:49Z</time>
      </trkpt>
      <trkpt lat="42.7680170" lon="-7.5682700">
        <ele>617.1</ele>
        <time>2020-04-16T18:16:51Z</time>
      </trkpt>
      <trkpt lat="42.7680690" lon="-7.5683130">
        <ele>617.2</ele>
        <time>2020-04-16T18:16:53Z</time>
      </trkpt>
      <trkpt lat="42.7681200" lon="-7.5683540">
        <ele>617.4</ele>
        <time>2020-04-16T18:16:55Z</time>
      </trkpt>
      <trkpt lat="42.7681690" lon="-7.5683930">
        <ele>617.5</ele>
        <time>2020-04-16T18:16:57Z</time>
      </trkpt>
      <trkpt lat="42.7682170" lon="-7.5684320">
        <ele>617.6</ele>
        <time>2020-04-16T18:16:59Z</time>
      </trkpt>
      <trkpt lat="42.7683530" lon="-7.5685420">
        <ele>617.7</ele>
        <time>2020-04-16T18:17:01Z</time>
      </trkpt>
      <trkpt lat="42.7683980" lon="-7.5685820">
        <ele>617.8</ele>
        <time>2020-04-16T18:17:03Z</time>
      </trkpt>
      <trkpt lat="42.7684430" lon="-7.5686210">
        <ele>617.9</ele>
        <time>2020-04-16T18:17:05Z</time>
      </trkpt>
      <trkpt lat="42.7684870" lon="-7.5686600">
        <ele>618.0</ele>
        <time>2020-04-16T18:17:07Z</time>
      </trkpt>
      <trkpt lat="42.7685320" lon="-7.5686990">
        <ele>618.1</ele>
        <time>2020-04-16T18:17:09Z</time>
      </trkpt>
      <trkpt lat="42.7685760" lon="-7.5687380">
        <ele>618.3</ele>
        <time>2020-04-16T18:17:11Z</time>
      </trkpt>
      <trkpt lat="42.7686190" lon="-7.5687760">
        <ele>618.4</ele>
        <time>2020-04-16T18:17:13Z</time>
      </trkpt>
      <trkpt lat="42.7687680" lon="-7.5689060">
        <ele>618.8</ele>
        <time>2020-04-16T18:17:15Z</time>
      </trkpt>
      <trkpt lat="42.7688410" lon="-7.5689700">
        <ele>618.9</ele>
        <time>2020-04-16T18:17:17Z</time>
      </trkpt>
      <trkpt lat="42.7689030" lon="-7.5690260">
        <ele>619.0</ele>
        <time>2020-04-16T18:17:19Z</time>
      </trkpt>
      <trkpt lat="42.7690130" lon="-7.5691270">
        <ele>619.1</ele>
        <time>2020-04-16T18:17:21Z</time>
      </trkpt>
      <trkpt lat="42.7690780" lon="-7.5691890">
        <ele>619.2</ele>
        <time>2020-04-16T18:17:23Z</time>
      </trkpt>
      <trkpt lat="42.7691850" lon="-7.5692900">
        <ele>619.3</ele>
        <time>2020-04-16T18:17:25Z</time>
      </trkpt>
      <trkpt lat="42.7692520" lon="-7.5693520">
        <ele>619.4</ele>
        <time>2020-04-16T18:17:27Z</time>
      </trkpt>
      <trkpt lat="42.7693200" lon="-7.5694140">
        <ele>619.4</ele>
        <time>2020-04-16T18:17:29Z</time>
      </trkpt>
      <trkpt lat="42.7693880" lon="-7.5694770">
        <ele>619.4</ele>
        <time>2020-04-16T18:17:31Z</time>
      </trkpt>
      <trkpt lat="42.7695470" lon="-7.5696440">
        <ele>619.7</ele>
        <time>2020-04-16T18:17:33Z</time>
      </trkpt>
      <trkpt lat="42.7696160" lon="-7.5697290">
        <ele>620.0</ele>
        <time>2020-04-16T18:17:35Z</time>
      </trkpt>
      <trkpt lat="42.7696870" lon="-7.5698170">
        <ele>620.2</ele>
        <time>2020-04-16T18:17:37Z</time>
      </trkpt>
      <trkpt lat="42.7698250" lon="-7.5700190">
        <ele>620.4</ele>
        <time>2020-04-16T18:17:39Z</time>
      </trkpt>
      <trkpt lat="42.7698860" lon="-7.5701300">
        <ele>620.4</ele>
        <time>2020-04-16T18:17:41Z</time>
      </trkpt>
      <trkpt lat="42.7700000" lon="-7.5703550">
        <ele>620.5</ele>
        <time>2020-04-16T18:17:43Z</time>
      </trkpt>
      <trkpt lat="42.7700450" lon="-7.5704850">
        <ele>620.6</ele>
        <time>2020-04-16T18:17:45Z</time>
      </trkpt>
      <trkpt lat="42.7700920" lon="-7.5706180">
        <ele>620.7</ele>
        <time>2020-04-16T18:17:47Z</time>
      </trkpt>
      <trkpt lat="42.7701660" lon="-7.5708670">
        <ele>620.8</ele>
        <time>2020-04-16T18:17:49Z</time>
      </trkpt>
      <trkpt lat="42.7702020" lon="-7.5710100">
        <ele>620.9</ele>
        <time>2020-04-16T18:17:51Z</time>
      </trkpt>
      <trkpt lat="42.7702390" lon="-7.5711540">
        <ele>621.0</ele>
        <time>2020-04-16T18:17:53Z</time>
      </trkpt>
      <trkpt lat="42.7702770" lon="-7.5713010">
        <ele>621.1</ele>
        <time>2020-04-16T18:17:55Z</time>
      </trkpt>
      <trkpt lat="42.7703780" lon="-7.5716940">
        <ele>621.4</ele>
        <time>2020-04-16T18:17:57Z</time>
      </trkpt>
      <trkpt lat="42.7704160" lon="-7.5718430">
        <ele>621.5</ele>
        <time>2020-04-16T18:17:59Z</time>
      </trkpt>
      <trkpt lat="42.7704830" lon="-7.5721040">
        <ele>621.6</ele>
        <time>2020-04-16T18:18:01Z</time>
      </trkpt>
      <trkpt lat="42.7705190" lon="-7.5722550">
        <ele>621.7</ele>
        <time>2020-04-16T18:18:03Z</time>
      </trkpt>
      <trkpt lat="42.7705540" lon="-7.5724070">
        <ele>621.9</ele>
        <time>2020-04-16T18:18:05Z</time>
      </trkpt>
      <trkpt lat="42.7706220" lon="-7.5726920">
        <ele>622.2</ele>
        <time>2020-04-16T18:18:07Z</time>
      </trkpt>
      <trkpt lat="42.7706560" lon="-7.5728360">
        <ele>622.3</ele>
        <time>2020-04-16T18:18:09Z</time>
      </trkpt>
      <trkpt lat="42.7706890" lon="-7.5729730">
        <ele>622.5</ele>
        <time>2020-04-16T18:18:11Z</time>
      </trkpt>
      <trkpt lat="42.7707200" lon="-7.5731050">
        <ele>622.7</ele>
        <time>2020-04-16T18:18:13Z</time>
      </trkpt>
      <trkpt lat="42.7707510" lon="-7.5732320">
        <ele>622.9</ele>
        <time>2020-04-16T18:18:15Z</time>
      </trkpt>
      <trkpt lat="42.7708340" lon="-7.5736060">
        <ele>623.6</ele>
        <time>2020-04-16T18:18:17Z</time>
      </trkpt>
      <trkpt lat="42.7708560" lon="-7.5737280">
        <ele>623.8</ele>
        <time>2020-04-16T18:18:19Z</time>
      </trkpt>
      <trkpt lat="42.7708780" lon="-7.5738470">
        <ele>624.1</ele>
        <time>2020-04-16T18:18:21Z</time>
      </trkpt>
      <trkpt lat="42.7708990" lon="-7.5739640">
        <ele>624.3</ele>
        <time>2020-04-16T18:18:23Z</time>
      </trkpt>
      <trkpt lat="42.7709200" lon="-7.5740790">
        <ele>624.6</ele>
        <time>2020-04-16T18:18:25Z</time>
      </trkpt>
      <trkpt lat="42.7709830" lon="-7.5744270">
        <ele>625.5</ele>
        <time>2020-04-16T18:18:27Z</time>
      </trkpt>
      <trkpt lat="42.7710040" lon="-7.5745400">
        <ele>625.8</ele>
        <time>2020-04-16T18:18:29Z</time>
      </trkpt>
      <trkpt lat="42.7710260" lon="-7.5746550">
        <ele>626.1</ele>
        <time>2020-04-16T18:18:31Z</time>
      </trkpt>
      <trkpt lat="42.7710480" lon="-7.5747720">
        <ele>626.5</ele>
        <time>2020-04-16T18:18:33Z</time>
      </trkpt>
      <trkpt lat="42.7710710" lon="-7.5748890">
        <ele>626.8</ele>
        <time>2020-04-16T18:18:35Z</time>
      </trkpt>
      <trkpt lat="42.7710930" lon="-7.5750070">
        <ele>627.1</ele>
        <time>2020-04-16T18:18:37Z</time>
      </trkpt>
      <trkpt lat="42.7711600" lon="-7.5753600">
        <ele>628.0</ele>
        <time>2020-04-16T18:18:39Z</time>
      </trkpt>
      <trkpt lat="42.7711830" lon="-7.5754780">
        <ele>628.3</ele>
        <time>2020-04-16T18:18:41Z</time>
      </trkpt>
      <trkpt lat="42.7712050" lon="-7.5755980">
        <ele>628.5</ele>
        <time>2020-04-16T18:18:43Z</time>
      </trkpt>
      <trkpt lat="42.7712280" lon="-7.5757170">
        <ele>628.7</ele>
        <time>2020-04-16T18:18:45Z</time>
      </trkpt>
      <trkpt lat="42.7712510" lon="-7.5758370">
        <ele>629.0</ele>
        <time>2020-04-16T18:18:47Z</time>
      </trkpt>
      <trkpt lat="42.7713190" lon="-7.5761910">
        <ele>629.7</ele>
        <time>2020-04-16T18:18:49Z</time>
      </trkpt>
      <trkpt lat="42.7713450" lon="-7.5763100">
        <ele>629.9</ele>
        <time>2020-04-16T18:18:51Z</time>
      </trkpt>
      <trkpt lat="42.7713720" lon="-7.5764330">
        <ele>630.1</ele>
        <time>2020-04-16T18:18:53Z</time>
      </trkpt>
      <trkpt lat="42.7713990" lon="-7.5765570">
        <ele>630.4</ele>
        <time>2020-04-16T18:18:55Z</time>
      </trkpt>
      <trkpt lat="42.7714270" lon="-7.5766830">
        <ele>630.6</ele>
        <time>2020-04-16T18:18:57Z</time>
      </trkpt>
      <trkpt lat="42.7714960" lon="-7.5770000">
        <ele>631.1</ele>
        <time>2020-04-16T18:18:59Z</time>
      </trkpt>
      <trkpt lat="42.7715250" lon="-7.5771280">
        <ele>631.3</ele>
        <time>2020-04-16T18:19:01Z</time>
      </trkpt>
      <trkpt lat="42.7715530" lon="-7.5772570">
        <ele>631.5</ele>
        <time>2020-04-16T18:19:03Z</time>
      </trkpt>
      <trkpt lat="42.7715820" lon="-7.5773860">
        <ele>631.6</ele>
        <time>2020-04-16T18:19:05Z</time>
      </trkpt>
      <trkpt lat="42.7716590" lon="-7.5777060">
        <ele>632.1</ele>
        <time>2020-04-16T18:19:07Z</time>
      </trkpt>
      <trkpt lat="42.7717220" lon="-7.5779000">
        <ele>632.3</ele>
        <time>2020-04-16T18:19:09Z</time>
      </trkpt>
      <trkpt lat="42.7718000" lon="-7.5780910">
        <ele>632.6</ele>
        <time>2020-04-16T18:19:11Z</time>
      </trkpt>
      <trkpt lat="42.7718620" lon="-7.5782260">
        <ele>632.7</ele>
        <time>2020-04-16T18:19:13Z</time>
      </trkpt>
      <trkpt lat="42.7719860" lon="-7.5784540">
        <ele>632.7</ele>
        <time>2020-04-16T18:19:15Z</time>
      </trkpt>
      <trkpt lat="42.7720710" lon="-7.5785750">
        <ele>632.7</ele>
        <time>2020-04-16T18:19:17Z</time>
      </trkpt>
      <trkpt lat="42.7722240" lon="-7.5787910">
        <ele>632.7</ele>
        <time>2020-04-16T18:19:19Z</time>
      </trkpt>
      <trkpt lat="42.7723210" lon="-7.5789060">
        <ele>632.6</ele>
        <time>2020-04-16T18:19:21Z</time>
      </trkpt>
      <trkpt lat="42.7724700" lon="-7.5790560">
        <ele>632.5</ele>
        <time>2020-04-16T18:19:23Z</time>
      </trkpt>
      <trkpt lat="42.7726300" lon="-7.5791870">
        <ele>632.5</ele>
        <time>2020-04-16T18:19:25Z</time>
      </trkpt>
      <trkpt lat="42.7728110" lon="-7.5793160">
        <ele>632.5</ele>
        <time>2020-04-16T18:19:27Z</time>
      </trkpt>
      <trkpt lat="42.7729350" lon="-7.5793880">
        <ele>632.5</ele>
        <time>2020-04-16T18:19:29Z</time>
      </trkpt>
      <trkpt lat="42.7731380" lon="-7.5794980">
        <ele>632.4</ele>
        <time>2020-04-16T18:19:31Z</time>
      </trkpt>
      <trkpt lat="42.7732730" lon="-7.5795630">
        <ele>632.4</ele>
        <time>2020-04-16T18:19:33Z</time>
      </trkpt>
      <trkpt lat="42.7734120" lon="-7.5796290">
        <ele>632.3</ele>
        <time>2020-04-16T18:19:35Z</time>
      </trkpt>
      <trkpt lat="42.7735550" lon="-7.5796980">
        <ele>632.1</ele>
        <time>2020-04-16T18:19:37Z</time>
      </trkpt>
      <trkpt lat="42.7739150" lon="-7.5798760">
        <ele>631.9</ele>
        <time>2020-04-16T18:19:39Z</time>
      </trkpt>
      <trkpt lat="42.7740590" lon="-7.5799660">
        <ele>631.8</ele>
        <time>2020-04-16T18:19:41Z</time>
      </trkpt>
      <trkpt lat="42.7743150" lon="-7.5801220">
        <ele>631.8</ele>
        <time>2020-04-16T18:19:43Z</time>
      </trkpt>
      <trkpt lat="42.7744520" lon="-7.5802190">
        <ele>631.9</ele>
        <time>2020-04-16T18:19:45Z</time>
      </trkpt>
      <trkpt lat="42.7746570" lon="-7.5803810">
        <ele>632.0</ele>
        <time>2020-04-16T18:19:47Z</time>
      </trkpt>
      <trkpt lat="42.7747680" lon="-7.5804870">
        <ele>631.9</ele>
        <time>2020-04-16T18:19:49Z</time>
      </trkpt>
      <trkpt lat="42.7749480" lon="-7.5806600">
        <ele>631.6</ele>
        <time>2020-04-16T18:19:51Z</time>
      </trkpt>
      <trkpt lat="42.7751120" lon="-7.5808180">
        <ele>631.1</ele>
        <time>2020-04-16T18:19:53Z</time>
      </trkpt>
      <trkpt lat="42.7752160" lon="-7.5809170">
        <ele>630.9</ele>
        <time>2020-04-16T18:19:55Z</time>
      </trkpt>
      <trkpt lat="42.7753310" lon="-7.5810280">
        <ele>630.5</ele>
        <time>2020-04-16T18:19:57Z</time>
      </trkpt>
      <trkpt lat="42.7755470" lon="-7.5812360">
        <ele>629.6</ele>
        <time>2020-04-16T18:19:59Z</time>
      </trkpt>
      <trkpt lat="42.7757310" lon="-7.5814140">
        <ele>628.6</ele>
        <time>2020-04-16T18:20:01Z</time>
      </trkpt>
      <trkpt lat="42.7759400" lon="-7.5816230">
        <ele>627.4</ele>
        <time>2020-04-16T18:20:03Z</time>
      </trkpt>
      <trkpt lat="42.7761390" lon="-7.5818470">
        <ele>626.1</ele>
        <time>2020-04-16T18:20:05Z</time>
      </trkpt>
      <trkpt lat="42.7762460" lon="-7.5821210">
        <ele>624.8</ele>
        <time>2020-04-16T18:20:07Z</time>
      </trkpt>
      <trkpt lat="42.7762890" lon="-7.5824150">
        <ele>623.4</ele>
        <time>2020-04-16T18:20:09Z</time>
      </trkpt>
      <trkpt lat="42.7762640" lon="-7.5826840">
        <ele>622.0</ele>
        <time>2020-04-16T18:20:11Z</time>
      </trkpt>
      <trkpt lat="42.7761690" lon="-7.5830050">
        <ele>620.1</ele>
        <time>2020-04-16T18:20:13Z</time>
      </trkpt>
      <trkpt lat="42.7760660" lon="-7.5831950">
        <ele>618.8</ele>
        <time>2020-04-16T18:20:15Z</time>
      </trkpt>
      <trkpt lat="42.7759140" lon="-7.5834840">
        <ele>616.7</ele>
        <time>2020-04-16T18:20:17Z</time>
      </trkpt>
      <trkpt lat="42.7757850" lon="-7.5838420">
        <ele>614.2</ele>
        <time>2020-04-16T18:20:19Z</time>
      </trkpt>
      <trkpt lat="42.7757450" lon="-7.5841570">
        <ele>612.1</ele>
        <time>2020-04-16T18:20:21Z</time>
      </trkpt>
      <trkpt lat="42.7757310" lon="-7.5844290">
        <ele>610.4</ele>
        <time>2020-04-16T18:20:23Z</time>
      </trkpt>
      <trkpt lat="42.7757090" lon="-7.5849310">
        <ele>608.8</ele>
        <time>2020-04-16T18:20:25Z</time>
      </trkpt>
      <trkpt lat="42.7756930" lon="-7.5853220">
        <ele>607.6</ele>
        <time>2020-04-16T18:20:27Z</time>
      </trkpt>
      <trkpt lat="42.7756810" lon="-7.5856090">
        <ele>606.8</ele>
        <time>2020-04-16T18:20:29Z</time>
      </trkpt>
      <trkpt lat="42.7756700" lon="-7.5858800">
        <ele>605.7</ele>
        <time>2020-04-16T18:20:31Z</time>
      </trkpt>
      <trkpt lat="42.7756500" lon="-7.5863750">
        <ele>603.5</ele>
        <time>2020-04-16T18:20:33Z</time>
      </trkpt>
      <trkpt lat="42.7756320" lon="-7.5867490">
        <ele>601.9</ele>
        <time>2020-04-16T18:20:35Z</time>
      </trkpt>
      <trkpt lat="42.7756180" lon="-7.5869970">
        <ele>600.8</ele>
        <time>2020-04-16T18:20:37Z</time>
      </trkpt>
      <trkpt lat="42.7755850" lon="-7.5873980">
        <ele>599.0</ele>
        <time>2020-04-16T18:20:39Z</time>
      </trkpt>
      <trkpt lat="42.7755590" lon="-7.5876610">
        <ele>597.8</ele>
        <time>2020-04-16T18:20:41Z</time>
      </trkpt>
      <trkpt lat="42.7755110" lon="-7.5881120">
        <ele>595.7</ele>
        <time>2020-04-16T18:20:43Z</time>
      </trkpt>
      <trkpt lat="42.7754690" lon="-7.5884740">
        <ele>594.2</ele>
        <time>2020-04-16T18:20:45Z</time>
      </trkpt>
      <trkpt lat="42.7754380" lon="-7.5887490">
        <ele>593.0</ele>
        <time>2020-04-16T18:20:47Z</time>
      </trkpt>
      <trkpt lat="42.7753730" lon="-7.5893070">
        <ele>591.8</ele>
        <time>2020-04-16T18:20:49Z</time>
      </trkpt>
      <trkpt lat="42.7753280" lon="-7.5897140">
        <ele>591.1</ele>
        <time>2020-04-16T18:20:51Z</time>
      </trkpt>
      <trkpt lat="42.7753130" lon="-7.5900810">
        <ele>582.1</ele>
        <time>2020-04-16T18:20:53Z</time>
      </trkpt>
      <trkpt lat="42.7753180" lon="-7.5904330">
        <ele>580.9</ele>
        <time>2020-04-16T18:20:55Z</time>
      </trkpt>
      <trkpt lat="42.7753290" lon="-7.5907440">
        <ele>579.1</ele>
        <time>2020-04-16T18:20:57Z</time>
      </trkpt>
      <trkpt lat="42.7753690" lon="-7.5913320">
        <ele>575.9</ele>
        <time>2020-04-16T18:20:59Z</time>
      </trkpt>
      <trkpt lat="42.7755220" lon="-7.5917540">
        <ele>573.9</ele>
        <time>2020-04-16T18:21:01Z</time>
      </trkpt>
      <trkpt lat="42.7757650" lon="-7.5920020">
        <ele>571.2</ele>
        <time>2020-04-16T18:21:03Z</time>
      </trkpt>
      <trkpt lat="42.7761180" lon="-7.5921150">
        <ele>567.0</ele>
        <time>2020-04-16T18:21:05Z</time>
      </trkpt>
      <trkpt lat="42.7764530" lon="-7.5919880">
        <ele>563.4</ele>
        <time>2020-04-16T18:21:07Z</time>
      </trkpt>
      <trkpt lat="42.7767050" lon="-7.5916980">
        <ele>561.2</ele>
        <time>2020-04-16T18:21:09Z</time>
      </trkpt>
      <trkpt lat="42.7769740" lon="-7.5913010">
        <ele>558.3</ele>
        <time>2020-04-16T18:21:11Z</time>
      </trkpt>
      <trkpt lat="42.7772420" lon="-7.5910110">
        <ele>556.6</ele>
        <time>2020-04-16T18:21:13Z</time>
      </trkpt>
      <trkpt lat="42.7775790" lon="-7.5909980">
        <ele>554.0</ele>
        <time>2020-04-16T18:21:15Z</time>
      </trkpt>
      <trkpt lat="42.7778670" lon="-7.5911920">
        <ele>551.7</ele>
        <time>2020-04-16T18:21:17Z</time>
      </trkpt>
      <trkpt lat="42.7780690" lon="-7.5915220">
        <ele>549.4</ele>
        <time>2020-04-16T18:21:19Z</time>
      </trkpt>
      <trkpt lat="42.7781860" lon="-7.5917550">
        <ele>547.8</ele>
        <time>2020-04-16T18:21:21Z</time>
      </trkpt>
      <trkpt lat="42.7782920" lon="-7.5919680">
        <ele>546.4</ele>
        <time>2020-04-16T18:21:23Z</time>
      </trkpt>
      <trkpt lat="42.7783600" lon="-7.5922240">
        <ele>545.2</ele>
        <time>2020-04-16T18:21:25Z</time>
      </trkpt>
      <trkpt lat="42.7784430" lon="-7.5922700">
        <ele>544.7</ele>
        <time>2020-04-16T18:21:27Z</time>
      </trkpt>
      <trkpt lat="42.7785400" lon="-7.5924650">
        <ele>544.2</ele>
        <time>2020-04-16T18:21:29Z</time>
      </trkpt>
      <trkpt lat="42.7787210" lon="-7.5928260">
        <ele>542.1</ele>
        <time>2020-04-16T18:21:31Z</time>
      </trkpt>
      <trkpt lat="42.7788360" lon="-7.5930570">
        <ele>540.7</ele>
        <time>2020-04-16T18:21:33Z</time>
      </trkpt>
      <trkpt lat="42.7790390" lon="-7.5934500">
        <ele>538.2</ele>
        <time>2020-04-16T18:21:35Z</time>
      </trkpt>
      <trkpt lat="42.7792330" lon="-7.5937550">
        <ele>536.0</ele>
        <time>2020-04-16T18:21:37Z</time>
      </trkpt>
      <trkpt lat="42.7794850" lon="-7.5940580">
        <ele>533.5</ele>
        <time>2020-04-16T18:21:39Z</time>
      </trkpt>
      <trkpt lat="42.7796770" lon="-7.5942590">
        <ele>531.8</ele>
        <time>2020-04-16T18:21:41Z</time>
      </trkpt>
      <trkpt lat="42.7800060" lon="-7.5946290">
        <ele>528.9</ele>
        <time>2020-04-16T18:21:43Z</time>
      </trkpt>
      <trkpt lat="42.7802000" lon="-7.5950140">
        <ele>526.3</ele>
        <time>2020-04-16T18:21:45Z</time>
      </trkpt>
      <trkpt lat="42.7802770" lon="-7.5954220">
        <ele>524.0</ele>
        <time>2020-04-16T18:21:47Z</time>
      </trkpt>
      <trkpt lat="42.7803490" lon="-7.5958800">
        <ele>521.4</ele>
        <time>2020-04-16T18:21:49Z</time>
      </trkpt>
      <trkpt lat="42.7804370" lon="-7.5963000">
        <ele>519.1</ele>
        <time>2020-04-16T18:21:51Z</time>
      </trkpt>
      <trkpt lat="42.7805220" lon="-7.5966160">
        <ele>517.4</ele>
        <time>2020-04-16T18:21:53Z</time>
      </trkpt>
      <trkpt lat="42.7806570" lon="-7.5971220">
        <ele>514.8</ele>
        <time>2020-04-16T18:21:55Z</time>
      </trkpt>
      <trkpt lat="42.7807370" lon="-7.5974180">
        <ele>513.2</ele>
        <time>2020-04-16T18:21:57Z</time>
      </trkpt>
      <trkpt lat="42.7809180" lon="-7.5979010">
        <ele>510.8</ele>
        <time>2020-04-16T18:21:59Z</time>
      </trkpt>
      <trkpt lat="42.7811330" lon="-7.5981610">
        <ele>508.9</ele>
        <time>2020-04-16T18:22:01Z</time>
      </trkpt>
      <trkpt lat="42.7813400" lon="-7.5982980">
        <ele>507.4</ele>
        <time>2020-04-16T18:22:03Z</time>
      </trkpt>
      <trkpt lat="42.7815900" lon="-7.5984320">
        <ele>505.6</ele>
        <time>2020-04-16T18:22:05Z</time>
      </trkpt>
      <trkpt lat="42.7817790" lon="-7.5985270">
        <ele>504.3</ele>
        <time>2020-04-16T18:22:07Z</time>
      </trkpt>
      <trkpt lat="42.7819710" lon="-7.5986230">
        <ele>503.0</ele>
        <time>2020-04-16T18:22:09Z</time>
      </trkpt>
      <trkpt lat="42.7824440" lon="-7.5988450">
        <ele>500.1</ele>
        <time>2020-04-16T18:22:11Z</time>
      </trkpt>
      <trkpt lat="42.7827370" lon="-7.5989440">
        <ele>498.6</ele>
        <time>2020-04-16T18:22:13Z</time>
      </trkpt>
      <trkpt lat="42.7829780" lon="-7.5990240">
        <ele>497.5</ele>
        <time>2020-04-16T18:22:15Z</time>
      </trkpt>
      <trkpt lat="42.7834310" lon="-7.5991700">
        <ele>494.1</ele>
        <time>2020-04-16T18:22:17Z</time>
      </trkpt>
      <trkpt lat="42.7836770" lon="-7.5992470">
        <ele>492.3</ele>
        <time>2020-04-16T18:22:19Z</time>
      </trkpt>
      <trkpt lat="42.7839110" lon="-7.5993200">
        <ele>490.7</ele>
        <time>2020-04-16T18:22:21Z</time>
      </trkpt>
      <trkpt lat="42.7843690" lon="-7.5995260">
        <ele>487.3</ele>
        <time>2020-04-16T18:22:23Z</time>
      </trkpt>
      <trkpt lat="42.7845710" lon="-7.5997880">
        <ele>485.4</ele>
        <time>2020-04-16T18:22:25Z</time>
      </trkpt>
      <trkpt lat="42.7846690" lon="-7.6000840">
        <ele>483.7</ele>
        <time>2020-04-16T18:22:27Z</time>
      </trkpt>
      <trkpt lat="42.7847150" lon="-7.6004570">
        <ele>481.7</ele>
        <time>2020-04-16T18:22:29Z</time>
      </trkpt>
      <trkpt lat="42.7847220" lon="-7.6007080">
        <ele>480.4</ele>
        <time>2020-04-16T18:22:31Z</time>
      </trkpt>
      <trkpt lat="42.7847290" lon="-7.6009620">
        <ele>479.0</ele>
        <time>2020-04-16T18:22:33Z</time>
      </trkpt>
      <trkpt lat="42.7847360" lon="-7.6014700">
        <ele>476.4</ele>
        <time>2020-04-16T18:22:35Z</time>
      </trkpt>
      <trkpt lat="42.7846960" lon="-7.6018490">
        <ele>474.4</ele>
        <time>2020-04-16T18:22:37Z</time>
      </trkpt>
      <trkpt lat="42.7846410" lon="-7.6021060">
        <ele>473.0</ele>
        <time>2020-04-16T18:22:39Z</time>
      </trkpt>
      <trkpt lat="42.7845930" lon="-7.6025890">
        <ele>470.3</ele>
        <time>2020-04-16T18:22:41Z</time>
      </trkpt>
      <trkpt lat="42.7846630" lon="-7.6029130">
        <ele>468.4</ele>
        <time>2020-04-16T18:22:43Z</time>
      </trkpt>
      <trkpt lat="42.7847680" lon="-7.6033450">
        <ele>465.7</ele>
        <time>2020-04-16T18:22:45Z</time>
      </trkpt>
      <trkpt lat="42.7847880" lon="-7.6037000">
        <ele>463.8</ele>
        <time>2020-04-16T18:22:47Z</time>
      </trkpt>
      <trkpt lat="42.7847960" lon="-7.6039920">
        <ele>462.1</ele>
        <time>2020-04-16T18:22:49Z</time>
      </trkpt>
      <trkpt lat="42.7847920" lon="-7.6045070">
        <ele>459.1</ele>
        <time>2020-04-16T18:22:51Z</time>
      </trkpt>
      <trkpt lat="42.7847460" lon="-7.6048420">
        <ele>457.1</ele>
        <time>2020-04-16T18:22:53Z</time>
      </trkpt>
      <trkpt lat="42.7846790" lon="-7.6051970">
        <ele>454.8</ele>
        <time>2020-04-16T18:22:55Z</time>
      </trkpt>
      <trkpt lat="42.7846210" lon="-7.6054530">
        <ele>453.3</ele>
        <time>2020-04-16T18:22:57Z</time>
      </trkpt>
      <trkpt lat="42.7845590" lon="-7.6057270">
        <ele>451.7</ele>
        <time>2020-04-16T18:22:59Z</time>
      </trkpt>
      <trkpt lat="42.7844140" lon="-7.6062800">
        <ele>448.1</ele>
        <time>2020-04-16T18:23:01Z</time>
      </trkpt>
      <trkpt lat="42.7842780" lon="-7.6066150">
        <ele>445.9</ele>
        <time>2020-04-16T18:23:03Z</time>
      </trkpt>
      <trkpt lat="42.7841040" lon="-7.6070170">
        <ele>443.3</ele>
        <time>2020-04-16T18:23:05Z</time>
      </trkpt>
      <trkpt lat="42.7840070" lon="-7.6072400">
        <ele>441.9</ele>
        <time>2020-04-16T18:23:07Z</time>
      </trkpt>
      <trkpt lat="42.7838490" lon="-7.6076090">
        <ele>439.8</ele>
        <time>2020-04-16T18:23:09Z</time>
      </trkpt>
      <trkpt lat="42.7837760" lon="-7.6078650">
        <ele>439.0</ele>
        <time>2020-04-16T18:23:11Z</time>
      </trkpt>
      <trkpt lat="42.7837250" lon="-7.6081030">
        <ele>438.1</ele>
        <time>2020-04-16T18:23:13Z</time>
      </trkpt>
      <trkpt lat="42.7836690" lon="-7.6083620">
        <ele>437.0</ele>
        <time>2020-04-16T18:23:15Z</time>
      </trkpt>
      <trkpt lat="42.7835550" lon="-7.6089420">
        <ele>434.5</ele>
        <time>2020-04-16T18:23:17Z</time>
      </trkpt>
      <trkpt lat="42.7835670" lon="-7.6093400">
        <ele>433.0</ele>
        <time>2020-04-16T18:23:19Z</time>
      </trkpt>
      <trkpt lat="42.7836440" lon="-7.6097870">
        <ele>431.3</ele>
        <time>2020-04-16T18:23:21Z</time>
      </trkpt>
      <trkpt lat="42.7837110" lon="-7.6101510">
        <ele>429.9</ele>
        <time>2020-04-16T18:23:23Z</time>
      </trkpt>
      <trkpt lat="42.7837920" lon="-7.6106530">
        <ele>427.9</ele>
        <time>2020-04-16T18:23:25Z</time>
      </trkpt>
      <trkpt lat="42.7837960" lon="-7.6111080">
        <ele>425.8</ele>
        <time>2020-04-16T18:23:27Z</time>
      </trkpt>
      <trkpt lat="42.7837520" lon="-7.6115210">
        <ele>423.8</ele>
        <time>2020-04-16T18:23:29Z</time>
      </trkpt>
      <trkpt lat="42.7836830" lon="-7.6120790">
        <ele>420.8</ele>
        <time>2020-04-16T18:23:31Z</time>
      </trkpt>
      <trkpt lat="42.7836390" lon="-7.6124300">
        <ele>418.8</ele>
        <time>2020-04-16T18:23:33Z</time>
      </trkpt>
      <trkpt lat="42.7835810" lon="-7.6129980">
        <ele>415.3</ele>
        <time>2020-04-16T18:23:35Z</time>
      </trkpt>
      <trkpt lat="42.7836500" lon="-7.6135180">
        <ele>411.9</ele>
        <time>2020-04-16T18:23:37Z</time>
      </trkpt>
      <trkpt lat="42.7838600" lon="-7.6138450">
        <ele>409.6</ele>
        <time>2020-04-16T18:23:39Z</time>
      </trkpt>
      <trkpt lat="42.7840990" lon="-7.6140200">
        <ele>407.9</ele>
        <time>2020-04-16T18:23:41Z</time>
      </trkpt>
      <trkpt lat="42.7844000" lon="-7.6141800">
        <ele>406.3</ele>
        <time>2020-04-16T18:23:43Z</time>
      </trkpt>
      <trkpt lat="42.7847810" lon="-7.6143430">
        <ele>404.3</ele>
        <time>2020-04-16T18:23:45Z</time>
      </trkpt>
      <trkpt lat="42.7851440" lon="-7.6143230">
        <ele>402.7</ele>
        <time>2020-04-16T18:23:47Z</time>
      </trkpt>
      <trkpt lat="42.7854860" lon="-7.6143670">
        <ele>401.4</ele>
        <time>2020-04-16T18:23:49Z</time>
      </trkpt>
      <trkpt lat="42.7857640" lon="-7.6144800">
        <ele>400.1</ele>
        <time>2020-04-16T18:23:51Z</time>
      </trkpt>
      <trkpt lat="42.7860700" lon="-7.6146330">
        <ele>398.4</ele>
        <time>2020-04-16T18:23:53Z</time>
      </trkpt>
      <trkpt lat="42.7863030" lon="-7.6148000">
        <ele>397.0</ele>
        <time>2020-04-16T18:23:55Z</time>
      </trkpt>
      <trkpt lat="42.7865130" lon="-7.6149770">
        <ele>395.4</ele>
        <time>2020-04-16T18:23:57Z</time>
      </trkpt>
      <trkpt lat="42.7866470" lon="-7.6151250">
        <ele>394.4</ele>
        <time>2020-04-16T18:23:59Z</time>
      </trkpt>
      <trkpt lat="42.7867710" lon="-7.6152620">
        <ele>393.3</ele>
        <time>2020-04-16T18:24:01Z</time>
      </trkpt>
      <trkpt lat="42.7869980" lon="-7.6155250">
        <ele>390.9</ele>
        <time>2020-04-16T18:24:03Z</time>
      </trkpt>
      <trkpt lat="42.7872370" lon="-7.6157360">
        <ele>388.3</ele>
        <time>2020-04-16T18:24:05Z</time>
      </trkpt>
      <trkpt lat="42.7874610" lon="-7.6158810">
        <ele>386.0</ele>
        <time>2020-04-16T18:24:07Z</time>
      </trkpt>
      <trkpt lat="42.7877800" lon="-7.6161330">
        <ele>383.4</ele>
        <time>2020-04-16T18:24:09Z</time>
      </trkpt>
      <trkpt lat="42.7879470" lon="-7.6163510">
        <ele>381.9</ele>
        <time>2020-04-16T18:24:11Z</time>
      </trkpt>
      <trkpt lat="42.7882170" lon="-7.6166930">
        <ele>378.0</ele>
        <time>2020-04-16T18:24:13Z</time>
      </trkpt>
      <trkpt lat="42.7884420" lon="-7.6168610">
        <ele>375.3</ele>
        <time>2020-04-16T18:24:15Z</time>
      </trkpt>
      <trkpt lat="42.7887150" lon="-7.6170710">
        <ele>371.9</ele>
        <time>2020-04-16T18:24:17Z</time>
      </trkpt>
      <trkpt lat="42.7888480" lon="-7.6173500">
        <ele>370.4</ele>
        <time>2020-04-16T18:24:19Z</time>
      </trkpt>
      <trkpt lat="42.7889410" lon="-7.6176550">
        <ele>368.0</ele>
        <time>2020-04-16T18:24:21Z</time>
      </trkpt>
      <trkpt lat="42.7890410" lon="-7.6179340">
        <ele>365.2</ele>
        <time>2020-04-16T18:24:23Z</time>
      </trkpt>
      <trkpt lat="42.7892210" lon="-7.6181030">
        <ele>362.3</ele>
        <time>2020-04-16T18:24:25Z</time>
      </trkpt>
      <trkpt lat="42.7894020" lon="-7.6180940">
        <ele>360.5</ele>
        <time>2020-04-16T18:24:27Z</time>
      </trkpt>
      <trkpt lat="42.7895890" lon="-7.6180000">
        <ele>358.4</ele>
        <time>2020-04-16T18:24:29Z</time>
      </trkpt>
      <trkpt lat="42.7897880" lon="-7.6178470">
        <ele>354.1</ele>
        <time>2020-04-16T18:24:31Z</time>
      </trkpt>
      <trkpt lat="42.7899660" lon="-7.6175560">
        <ele>351.0</ele>
        <time>2020-04-16T18:24:33Z</time>
      </trkpt>
      <trkpt lat="42.7900430" lon="-7.6172870">
        <ele>351.2</ele>
        <time>2020-04-16T18:24:35Z</time>
      </trkpt>
      <trkpt lat="42.7900830" lon="-7.6169140">
        <ele>351.2</ele>
        <time>2020-04-16T18:24:37Z</time>
      </trkpt>
      <trkpt lat="42.7901070" lon="-7.6166300">
        <ele>351.1</ele>
        <time>2020-04-16T18:24:39Z</time>
      </trkpt>
      <trkpt lat="42.7901330" lon="-7.6163330">
        <ele>351.0</ele>
        <time>2020-04-16T18:24:41Z</time>
      </trkpt>
      <trkpt lat="42.7901840" lon="-7.6157460">
        <ele>351.3</ele>
        <time>2020-04-16T18:24:43Z</time>
      </trkpt>
      <trkpt lat="42.7902060" lon="-7.6154880">
        <ele>351.4</ele>
        <time>2020-04-16T18:24:45Z</time>
      </trkpt>
      <trkpt lat="42.7902250" lon="-7.6152640">
        <ele>351.6</ele>
        <time>2020-04-16T18:24:47Z</time>
      </trkpt>
      <trkpt lat="42.7902730" lon="-7.6147620">
        <ele>352.0</ele>
        <time>2020-04-16T18:24:49Z</time>
      </trkpt>
      <trkpt lat="42.7903000" lon="-7.6146030">
        <ele>352.1</ele>
        <time>2020-04-16T18:24:51Z</time>
      </trkpt>
      <trkpt lat="42.7903230" lon="-7.6144680">
        <ele>352.4</ele>
        <time>2020-04-16T18:24:53Z</time>
      </trkpt>
      <trkpt lat="42.7903820" lon="-7.6142430">
        <ele>353.1</ele>
        <time>2020-04-16T18:24:55Z</time>
      </trkpt>
      <trkpt lat="42.7904240" lon="-7.6141330">
        <ele>353.4</ele>
        <time>2020-04-16T18:24:57Z</time>
      </trkpt>
      <trkpt lat="42.7904670" lon="-7.6140210">
        <ele>353.8</ele>
        <time>2020-04-16T18:24:59Z</time>
      </trkpt>
      <trkpt lat="42.7905670" lon="-7.6137730">
        <ele>354.3</ele>
        <time>2020-04-16T18:25:01Z</time>
      </trkpt>
      <trkpt lat="42.7906190" lon="-7.6136670">
        <ele>354.6</ele>
        <time>2020-04-16T18:25:03Z</time>
      </trkpt>
      <trkpt lat="42.7906700" lon="-7.6135620">
        <ele>354.9</ele>
        <time>2020-04-16T18:25:05Z</time>
      </trkpt>
      <trkpt lat="42.7907760" lon="-7.6133630">
        <ele>355.2</ele>
        <time>2020-04-16T18:25:07Z</time>
      </trkpt>
      <trkpt lat="42.7908300" lon="-7.6132760">
        <ele>355.2</ele>
        <time>2020-04-16T18:25:09Z</time>
      </trkpt>
      <trkpt lat="42.7909330" lon="-7.6131400">
        <ele>355.3</ele>
        <time>2020-04-16T18:25:11Z</time>
      </trkpt>
      <trkpt lat="42.7910010" lon="-7.6130770">
        <ele>355.3</ele>
        <time>2020-04-16T18:25:13Z</time>
      </trkpt>
      <trkpt lat="42.7911290" lon="-7.6129720">
        <ele>355.3</ele>
        <time>2020-04-16T18:25:15Z</time>
      </trkpt>
      <trkpt lat="42.7912080" lon="-7.6129500">
        <ele>355.3</ele>
        <time>2020-04-16T18:25:17Z</time>
      </trkpt>
      <trkpt lat="42.7913500" lon="-7.6129280">
        <ele>355.3</ele>
        <time>2020-04-16T18:25:19Z</time>
      </trkpt>
      <trkpt lat="42.7914500" lon="-7.6129420">
        <ele>355.3</ele>
        <time>2020-04-16T18:25:21Z</time>
      </trkpt>
      <trkpt lat="42.7916250" lon="-7.6129960">
        <ele>355.3</ele>
        <time>2020-04-16T18:25:23Z</time>
      </trkpt>
      <trkpt lat="42.7917260" lon="-7.6130810">
        <ele>355.3</ele>
        <time>2020-04-16T18:25:25Z</time>
      </trkpt>
      <trkpt lat="42.7918830" lon="-7.6132510">
        <ele>355.4</ele>
        <time>2020-04-16T18:25:27Z</time>
      </trkpt>
      <trkpt lat="42.7919690" lon="-7.6133900">
        <ele>355.5</ele>
        <time>2020-04-16T18:25:29Z</time>
      </trkpt>
      <trkpt lat="42.7921400" lon="-7.6136520">
        <ele>355.8</ele>
        <time>2020-04-16T18:25:31Z</time>
      </trkpt>
      <trkpt lat="42.7922560" lon="-7.6137820">
        <ele>355.8</ele>
        <time>2020-04-16T18:25:33Z</time>
      </trkpt>
      <trkpt lat="42.7924940" lon="-7.6140000">
        <ele>355.9</ele>
        <time>2020-04-16T18:25:35Z</time>
      </trkpt>
      <trkpt lat="42.7927140" lon="-7.6140620">
        <ele>356.0</ele>
        <time>2020-04-16T18:25:37Z</time>
      </trkpt>
      <trkpt lat="42.7928940" lon="-7.6140720">
        <ele>356.1</ele>
        <time>2020-04-16T18:25:39Z</time>
      </trkpt>
      <trkpt lat="42.7930830" lon="-7.6140820">
        <ele>356.4</ele>
        <time>2020-04-16T18:25:41Z</time>
      </trkpt>
      <trkpt lat="42.7934280" lon="-7.6141000">
        <ele>356.8</ele>
        <time>2020-04-16T18:25:43Z</time>
      </trkpt>
      <trkpt lat="42.7936300" lon="-7.6141110">
        <ele>356.9</ele>
        <time>2020-04-16T18:25:45Z</time>
      </trkpt>
      <trkpt lat="42.7939810" lon="-7.6140820">
        <ele>357.2</ele>
        <time>2020-04-16T18:25:47Z</time>
      </trkpt>
      <trkpt lat="42.7941620" lon="-7.6140340">
        <ele>357.4</ele>
        <time>2020-04-16T18:25:49Z</time>
      </trkpt>
      <trkpt lat="42.7943300" lon="-7.6139890">
        <ele>357.6</ele>
        <time>2020-04-16T18:25:51Z</time>
      </trkpt>
      <trkpt lat="42.7947220" lon="-7.6138860">
        <ele>358.5</ele>
        <time>2020-04-16T18:25:53Z</time>
      </trkpt>
      <trkpt lat="42.7948650" lon="-7.6138430">
        <ele>358.9</ele>
        <time>2020-04-16T18:25:55Z</time>
      </trkpt>
      <trkpt lat="42.7949980" lon="-7.6138030">
        <ele>359.3</ele>
        <time>2020-04-16T18:25:57Z</time>
      </trkpt>
      <trkpt lat="42.7952580" lon="-7.6137370">
        <ele>360.2</ele>
        <time>2020-04-16T18:25:59Z</time>
      </trkpt>
      <trkpt lat="42.7953750" lon="-7.6137530">
        <ele>360.6</ele>
        <time>2020-04-16T18:26:01Z</time>
      </trkpt>
      <trkpt lat="42.7955530" lon="-7.6137990">
        <ele>361.1</ele>
        <time>2020-04-16T18:26:03Z</time>
      </trkpt>
      <trkpt lat="42.7956460" lon="-7.6138580">
        <ele>361.5</ele>
        <time>2020-04-16T18:26:05Z</time>
      </trkpt>
      <trkpt lat="42.7957880" lon="-7.6139790">
        <ele>362.1</ele>
        <time>2020-04-16T18:26:07Z</time>
      </trkpt>
      <trkpt lat="42.7958430" lon="-7.6140790">
        <ele>362.5</ele>
        <time>2020-04-16T18:26:09Z</time>
      </trkpt>
      <trkpt lat="42.7958950" lon="-7.6141740">
        <ele>362.8</ele>
        <time>2020-04-16T18:26:11Z</time>
      </trkpt>
      <trkpt lat="42.7959640" lon="-7.6143690">
        <ele>363.4</ele>
        <time>2020-04-16T18:26:13Z</time>
      </trkpt>
      <trkpt lat="42.7959940" lon="-7.6145330">
        <ele>363.9</ele>
        <time>2020-04-16T18:26:15Z</time>
      </trkpt>
      <trkpt lat="42.7960030" lon="-7.6146310">
        <ele>364.2</ele>
        <time>2020-04-16T18:26:17Z</time>
      </trkpt>
      <trkpt lat="42.7960130" lon="-7.6147940">
        <ele>364.6</ele>
        <time>2020-04-16T18:26:19Z</time>
      </trkpt>
      <trkpt lat="42.7960100" lon="-7.6148830">
        <ele>364.9</ele>
        <time>2020-04-16T18:26:21Z</time>
      </trkpt>
      <trkpt lat="42.7960070" lon="-7.6149680">
        <ele>365.1</ele>
        <time>2020-04-16T18:26:23Z</time>
      </trkpt>
      <trkpt lat="42.7960020" lon="-7.6151530">
        <ele>365.6</ele>
        <time>2020-04-16T18:26:25Z</time>
      </trkpt>
      <trkpt lat="42.7960050" lon="-7.6152330">
        <ele>365.8</ele>
        <time>2020-04-16T18:26:27Z</time>
      </trkpt>
      <trkpt lat="42.7960080" lon="-7.6153120">
        <ele>366.0</ele>
        <time>2020-04-16T18:26:29Z</time>
      </trkpt>
      <trkpt lat="42.7960100" lon="-7.6153900">
        <ele>366.1</ele>
        <time>2020-04-16T18:26:31Z</time>
      </trkpt>
      <trkpt lat="42.7960130" lon="-7.6154660">
        <ele>366.3</ele>
        <time>2020-04-16T18:26:33Z</time>
      </trkpt>
      <trkpt lat="42.7960250" lon="-7.6156820">
        <ele>366.7</ele>
        <time>2020-04-16T18:26:35Z</time>
      </trkpt>
      <trkpt lat="42.7960470" lon="-7.6157630">
        <ele>366.9</ele>
        <time>2020-04-16T18:26:37Z</time>
      </trkpt>
      <trkpt lat="42.7960910" lon="-7.6159250">
        <ele>367.5</ele>
        <time>2020-04-16T18:26:39Z</time>
      </trkpt>
      <trkpt lat="42.7961320" lon="-7.6160210">
        <ele>367.8</ele>
        <time>2020-04-16T18:26:41Z</time>
      </trkpt>
      <trkpt lat="42.7962060" lon="-7.6161780">
        <ele>368.4</ele>
        <time>2020-04-16T18:26:43Z</time>
      </trkpt>
      <trkpt lat="42.7962680" lon="-7.6162680">
        <ele>368.7</ele>
        <time>2020-04-16T18:26:45Z</time>
      </trkpt>
      <trkpt lat="42.7963830" lon="-7.6164190">
        <ele>369.3</ele>
        <time>2020-04-16T18:26:47Z</time>
      </trkpt>
      <trkpt lat="42.7964650" lon="-7.6164830">
        <ele>369.7</ele>
        <time>2020-04-16T18:26:49Z</time>
      </trkpt>
      <trkpt lat="42.7966000" lon="-7.6165730">
        <ele>370.0</ele>
        <time>2020-04-16T18:26:51Z</time>
      </trkpt>
      <trkpt lat="42.7967410" lon="-7.6166510">
        <ele>370.4</ele>
        <time>2020-04-16T18:26:53Z</time>
      </trkpt>
      <trkpt lat="42.7968320" lon="-7.6167150">
        <ele>370.8</ele>
        <time>2020-04-16T18:26:55Z</time>
      </trkpt>
      <trkpt lat="42.7969270" lon="-7.6167810">
        <ele>371.3</ele>
        <time>2020-04-16T18:26:57Z</time>
      </trkpt>
      <trkpt lat="42.7971280" lon="-7.6169280">
        <ele>372.2</ele>
        <time>2020-04-16T18:26:59Z</time>
      </trkpt>
      <trkpt lat="42.7972080" lon="-7.6170390">
        <ele>372.6</ele>
        <time>2020-04-16T18:27:01Z</time>
      </trkpt>
      <trkpt lat="42.7973290" lon="-7.6172400">
        <ele>373.3</ele>
        <time>2020-04-16T18:27:03Z</time>
      </trkpt>
      <trkpt lat="42.7973750" lon="-7.6173920">
        <ele>373.7</ele>
        <time>2020-04-16T18:27:05Z</time>
      </trkpt>
      <trkpt lat="42.7974180" lon="-7.6176390">
        <ele>374.2</ele>
        <time>2020-04-16T18:27:07Z</time>
      </trkpt>
      <trkpt lat="42.7974020" lon="-7.6178630">
        <ele>374.5</ele>
        <time>2020-04-16T18:27:09Z</time>
      </trkpt>
      <trkpt lat="42.7973520" lon="-7.6180900">
        <ele>374.8</ele>
        <time>2020-04-16T18:27:11Z</time>
      </trkpt>
      <trkpt lat="42.7973050" lon="-7.6182420">
        <ele>375.0</ele>
        <time>2020-04-16T18:27:13Z</time>
      </trkpt>
      <trkpt lat="42.7972110" lon="-7.6185420">
        <ele>375.3</ele>
        <time>2020-04-16T18:27:15Z</time>
      </trkpt>
      <trkpt lat="42.7971800" lon="-7.6187030">
        <ele>375.3</ele>
        <time>2020-04-16T18:27:17Z</time>
      </trkpt>
      <trkpt lat="42.7971400" lon="-7.6189620">
        <ele>375.3</ele>
        <time>2020-04-16T18:27:19Z</time>
      </trkpt>
      <trkpt lat="42.7971530" lon="-7.6191290">
        <ele>375.3</ele>
        <time>2020-04-16T18:27:21Z</time>
      </trkpt>
      <trkpt lat="42.7972080" lon="-7.6193710">
        <ele>375.2</ele>
        <time>2020-04-16T18:27:23Z</time>
      </trkpt>
      <trkpt lat="42.7973350" lon="-7.6196200">
        <ele>375.2</ele>
        <time>2020-04-16T18:27:25Z</time>
      </trkpt>
      <trkpt lat="42.7974710" lon="-7.6197570">
        <ele>375.0</ele>
        <time>2020-04-16T18:27:27Z</time>
      </trkpt>
      <trkpt lat="42.7976720" lon="-7.6198630">
        <ele>374.8</ele>
        <time>2020-04-16T18:27:29Z</time>
      </trkpt>
      <trkpt lat="42.7978600" lon="-7.6198820">
        <ele>374.5</ele>
        <time>2020-04-16T18:27:31Z</time>
      </trkpt>
      <trkpt lat="42.7980750" lon="-7.6198670">
        <ele>374.1</ele>
        <time>2020-04-16T18:27:33Z</time>
      </trkpt>
      <trkpt lat="42.7982490" lon="-7.6198310">
        <ele>373.8</ele>
        <time>2020-04-16T18:27:35Z</time>
      </trkpt>
      <trkpt lat="42.7983820" lon="-7.6197990">
        <ele>373.5</ele>
        <time>2020-04-16T18:27:37Z</time>
      </trkpt>
      <trkpt lat="42.7985870" lon="-7.6197500">
        <ele>372.7</ele>
        <time>2020-04-16T18:27:39Z</time>
      </trkpt>
      <trkpt lat="42.7987570" lon="-7.6197100">
        <ele>372.1</ele>
        <time>2020-04-16T18:27:41Z</time>
      </trkpt>
      <trkpt lat="42.7988960" lon="-7.6196780">
        <ele>371.5</ele>
        <time>2020-04-16T18:27:43Z</time>
      </trkpt>
      <trkpt lat="42.7991890" lon="-7.6196110">
        <ele>370.2</ele>
        <time>2020-04-16T18:27:45Z</time>
      </trkpt>
      <trkpt lat="42.7993680" lon="-7.6195030">
        <ele>369.2</ele>
        <time>2020-04-16T18:27:47Z</time>
      </trkpt>
      <trkpt lat="42.7995420" lon="-7.6193340">
        <ele>368.1</ele>
        <time>2020-04-16T18:27:49Z</time>
      </trkpt>
      <trkpt lat="42.7996440" lon="-7.6191740">
        <ele>367.2</ele>
        <time>2020-04-16T18:27:51Z</time>
      </trkpt>
      <trkpt lat="42.7997470" lon="-7.6190140">
        <ele>366.4</ele>
        <time>2020-04-16T18:27:53Z</time>
      </trkpt>
      <trkpt lat="42.7999350" lon="-7.6187160">
        <ele>364.9</ele>
        <time>2020-04-16T18:27:55Z</time>
      </trkpt>
      <trkpt lat="42.8000390" lon="-7.6185490">
        <ele>364.1</ele>
        <time>2020-04-16T18:27:57Z</time>
      </trkpt>
      <trkpt lat="42.8002130" lon="-7.6182690">
        <ele>362.6</ele>
        <time>2020-04-16T18:27:59Z</time>
      </trkpt>
      <trkpt lat="42.8003170" lon="-7.6181010">
        <ele>361.8</ele>
        <time>2020-04-16T18:28:01Z</time>
      </trkpt>
      <trkpt lat="42.8004210" lon="-7.6179330">
        <ele>360.9</ele>
        <time>2020-04-16T18:28:03Z</time>
      </trkpt>
      <trkpt lat="42.8005250" lon="-7.6177650">
        <ele>360.0</ele>
        <time>2020-04-16T18:28:05Z</time>
      </trkpt>
      <trkpt lat="42.8007820" lon="-7.6173510">
        <ele>358.0</ele>
        <time>2020-04-16T18:28:07Z</time>
      </trkpt>
      <trkpt lat="42.8008790" lon="-7.6171950">
        <ele>357.4</ele>
        <time>2020-04-16T18:28:09Z</time>
      </trkpt>
      <trkpt lat="42.8009710" lon="-7.6170470">
        <ele>356.9</ele>
        <time>2020-04-16T18:28:11Z</time>
      </trkpt>
      <trkpt lat="42.8010580" lon="-7.6169070">
        <ele>356.1</ele>
        <time>2020-04-16T18:28:13Z</time>
      </trkpt>
      <trkpt lat="42.8013040" lon="-7.6165120">
        <ele>354.6</ele>
        <time>2020-04-16T18:28:15Z</time>
      </trkpt>
      <trkpt lat="42.8014200" lon="-7.6163280">
        <ele>354.2</ele>
        <time>2020-04-16T18:28:17Z</time>
      </trkpt>
      <trkpt lat="42.8015550" lon="-7.6161410">
        <ele>353.8</ele>
        <time>2020-04-16T18:28:19Z</time>
      </trkpt>
      <trkpt lat="42.8016880" lon="-7.6159590">
        <ele>353.2</ele>
        <time>2020-04-16T18:28:21Z</time>
      </trkpt>
      <trkpt lat="42.8017960" lon="-7.6158230">
        <ele>352.6</ele>
        <time>2020-04-16T18:28:23Z</time>
      </trkpt>
      <trkpt lat="42.8019780" lon="-7.6155680">
        <ele>351.6</ele>
        <time>2020-04-16T18:28:25Z</time>
      </trkpt>
      <trkpt lat="42.8020480" lon="-7.6153060">
        <ele>351.0</ele>
        <time>2020-04-16T18:28:27Z</time>
      </trkpt>
      <trkpt lat="42.8022040" lon="-7.6150540">
        <ele>350.4</ele>
        <time>2020-04-16T18:28:29Z</time>
      </trkpt>
      <trkpt lat="42.8023980" lon="-7.6151800">
        <ele>350.4</ele>
        <time>2020-04-16T18:28:31Z</time>
      </trkpt>
      <trkpt lat="42.8027220" lon="-7.6153910">
        <ele>350.4</ele>
        <time>2020-04-16T18:28:33Z</time>
      </trkpt>
      <trkpt lat="42.8029220" lon="-7.6155210">
        <ele>350.4</ele>
        <time>2020-04-16T18:28:35Z</time>
      </trkpt>
      <trkpt lat="42.8031060" lon="-7.6156400">
        <ele>350.5</ele>
        <time>2020-04-16T18:28:37Z</time>
      </trkpt>
      <trkpt lat="42.8034690" lon="-7.6158760">
        <ele>350.5</ele>
        <time>2020-04-16T18:28:39Z</time>
      </trkpt>
      <trkpt lat="42.8036300" lon="-7.6159800">
        <ele>350.5</ele>
        <time>2020-04-16T18:28:41Z</time>
      </trkpt>
      <trkpt lat="42.8037800" lon="-7.6160780">
        <ele>350.5</ele>
        <time>2020-04-16T18:28:43Z</time>
      </trkpt>
      <trkpt lat="42.8041150" lon="-7.6162950">
        <ele>350.3</ele>
        <time>2020-04-16T18:28:45Z</time>
      </trkpt>
      <trkpt lat="42.8042360" lon="-7.6163730">
        <ele>350.4</ele>
        <time>2020-04-16T18:28:47Z</time>
      </trkpt>
      <trkpt lat="42.8043310" lon="-7.6164350">
        <ele>350.4</ele>
        <time>2020-04-16T18:28:49Z</time>
      </trkpt>
      <trkpt lat="42.8044030" lon="-7.6164820">
        <ele>350.4</ele>
        <time>2020-04-16T18:28:51Z</time>
      </trkpt>
      <trkpt lat="42.8044570" lon="-7.6165170">
        <ele>350.5</ele>
        <time>2020-04-16T18:28:53Z</time>
      </trkpt>
      <trkpt lat="42.8044970" lon="-7.6165430">
        <ele>350.5</ele>
        <time>2020-04-16T18:28:55Z</time>
      </trkpt>
      <trkpt lat="42.8045800" lon="-7.6165960">
        <ele>350.5</ele>
        <time>2020-04-16T18:28:57Z</time>
      </trkpt>
      <trkpt lat="42.8046330" lon="-7.6166300">
        <ele>350.5</ele>
        <time>2020-04-16T18:28:59Z</time>
      </trkpt>
      <trkpt lat="42.8046860" lon="-7.6166630">
        <ele>350.6</ele>
        <time>2020-04-16T18:29:01Z</time>
      </trkpt>
      <trkpt lat="42.8047390" lon="-7.6166960">
        <ele>350.6</ele>
        <time>2020-04-16T18:29:03Z</time>
      </trkpt>
      <trkpt lat="42.8047920" lon="-7.6167300">
        <ele>350.6</ele>
        <time>2020-04-16T18:29:05Z</time>
      </trkpt>
      <trkpt lat="42.8048450" lon="-7.6167630">
        <ele>350.6</ele>
        <time>2020-04-16T18:29:07Z</time>
      </trkpt>
      <trkpt lat="42.8048710" lon="-7.6167640">
        <ele>350.7</ele>
        <time>2020-04-16T18:29:09Z</time>
      </trkpt>
      <trkpt lat="42.8048980" lon="-7.6167640">
        <ele>350.7</ele>
        <time>2020-04-16T18:29:11Z</time>
      </trkpt>
      <trkpt lat="42.8049530" lon="-7.6167720">
        <ele>350.9</ele>
        <time>2020-04-16T18:29:13Z</time>
      </trkpt>
      <trkpt lat="42.8049790" lon="-7.6167470">
        <ele>350.8</ele>
        <time>2020-04-16T18:29:15Z</time>
      </trkpt>
      <trkpt lat="42.8050090" lon="-7.6167330">
        <ele>350.9</ele>
        <time>2020-04-16T18:29:17Z</time>
      </trkpt>
      <trkpt lat="42.8050470" lon="-7.6167290">
        <ele>351.0</ele>
        <time>2020-04-16T18:29:19Z</time>
      </trkpt>
      <trkpt lat="42.8050830" lon="-7.6167430">
        <ele>351.3</ele>
        <time>2020-04-16T18:29:21Z</time>
      </trkpt>
      <trkpt lat="42.8051080" lon="-7.6167700">
        <ele>351.5</ele>
        <time>2020-04-16T18:29:23Z</time>
      </trkpt>
      <trkpt lat="42.8051370" lon="-7.6168130">
        <ele>351.8</ele>
        <time>2020-04-16T18:29:25Z</time>
      </trkpt>
      <trkpt lat="42.8051500" lon="-7.6168920">
        <ele>351.9</ele>
        <time>2020-04-16T18:29:27Z</time>
      </trkpt>
      <trkpt lat="42.8051030" lon="-7.6170140">
        <ele>351.7</ele>
        <time>2020-04-16T18:29:29Z</time>
      </trkpt>
      <trkpt lat="42.8050790" lon="-7.6171340">
        <ele>351.5</ele>
        <time>2020-04-16T18:29:31Z</time>
      </trkpt>
      <trkpt lat="42.8050640" lon="-7.6173460">
        <ele>351.2</ele>
        <time>2020-04-16T18:29:33Z</time>
      </trkpt>
      <trkpt lat="42.8050880" lon="-7.6175360">
        <ele>350.8</ele>
        <time>2020-04-16T18:29:35Z</time>
      </trkpt>
      <trkpt lat="42.8051440" lon="-7.6177930">
        <ele>350.5</ele>
        <time>2020-04-16T18:29:37Z</time>
      </trkpt>
      <trkpt lat="42.8052120" lon="-7.6180380">
        <ele>350.4</ele>
        <time>2020-04-16T18:29:39Z</time>
      </trkpt>
      <trkpt lat="42.8052870" lon="-7.6182700">
        <ele>350.3</ele>
        <time>2020-04-16T18:29:41Z</time>
      </trkpt>
      <trkpt lat="42.8053780" lon="-7.6184880">
        <ele>350.4</ele>
        <time>2020-04-16T18:29:43Z</time>
      </trkpt>
      <trkpt lat="42.8054900" lon="-7.6186440">
        <ele>350.5</ele>
        <time>2020-04-16T18:29:45Z</time>
      </trkpt>
      <trkpt lat="42.8056200" lon="-7.6187760">
        <ele>350.7</ele>
        <time>2020-04-16T18:29:47Z</time>
      </trkpt>
      <trkpt lat="42.8057420" lon="-7.6189000">
        <ele>350.8</ele>
        <time>2020-04-16T18:29:49Z</time>
      </trkpt>
      <trkpt lat="42.8056740" lon="-7.6190790">
        <ele>350.8</ele>
        <time>2020-04-16T18:29:51Z</time>
      </trkpt>
      <trkpt lat="42.8056180" lon="-7.6192090">
        <ele>350.7</ele>
        <time>2020-04-16T18:29:53Z</time>
      </trkpt>
      <trkpt lat="42.8055570" lon="-7.6193480">
        <ele>350.6</ele>
        <time>2020-04-16T18:29:55Z</time>
      </trkpt>
      <trkpt lat="42.8054940" lon="-7.6194920">
        <ele>350.3</ele>
        <time>2020-04-16T18:29:57Z</time>
      </trkpt>
      <trkpt lat="42.8054290" lon="-7.6196420">
        <ele>350.1</ele>
        <time>2020-04-16T18:29:59Z</time>
      </trkpt>
      <trkpt lat="42.8053630" lon="-7.6200270">
        <ele>349.9</ele>
        <time>2020-04-16T18:30:01Z</time>
      </trkpt>
      <trkpt lat="42.8054580" lon="-7.6202430">
        <ele>349.8</ele>
        <time>2020-04-16T18:30:03Z</time>
      </trkpt>
      <trkpt lat="42.8054560" lon="-7.6204820">
        <ele>349.5</ele>
        <time>2020-04-16T18:30:05Z</time>
      </trkpt>
      <trkpt lat="42.8054060" lon="-7.6207040">
        <ele>349.4</ele>
        <time>2020-04-16T18:30:07Z</time>
      </trkpt>
      <trkpt lat="42.8053600" lon="-7.6208470">
        <ele>349.8</ele>
        <time>2020-04-16T18:30:09Z</time>
      </trkpt>
      <trkpt lat="42.8053180" lon="-7.6209750">
        <ele>350.6</ele>
        <time>2020-04-16T18:30:11Z</time>
      </trkpt>
      <trkpt lat="42.8052510" lon="-7.6212300">
        <ele>352.5</ele>
        <time>2020-04-16T18:30:13Z</time>
      </trkpt>
      <trkpt lat="42.8052430" lon="-7.6213950">
        <ele>353.5</ele>
        <time>2020-04-16T18:30:15Z</time>
      </trkpt>
      <trkpt lat="42.8052720" lon="-7.6215420">
        <ele>354.2</ele>
        <time>2020-04-16T18:30:17Z</time>
      </trkpt>
      <trkpt lat="42.8052640" lon="-7.6216510">
        <ele>354.7</ele>
        <time>2020-04-16T18:30:19Z</time>
      </trkpt>
      <trkpt lat="42.8052390" lon="-7.6217730">
        <ele>355.6</ele>
        <time>2020-04-16T18:30:21Z</time>
      </trkpt>
      <trkpt lat="42.8052270" lon="-7.6218310">
        <ele>356.1</ele>
        <time>2020-04-16T18:30:23Z</time>
      </trkpt>
      <trkpt lat="42.8052180" lon="-7.6218720">
        <ele>356.5</ele>
        <time>2020-04-16T18:30:25Z</time>
      </trkpt>
      <trkpt lat="42.8052110" lon="-7.6219070">
        <ele>356.9</ele>
        <time>2020-04-16T18:30:27Z</time>
      </trkpt>
      <trkpt lat="42.8052040" lon="-7.6219410">
        <ele>357.3</ele>
        <time>2020-04-16T18:30:29Z</time>
      </trkpt>
      <trkpt lat="42.8051970" lon="-7.6219750">
        <ele>357.7</ele>
        <time>2020-04-16T18:30:31Z</time>
      </trkpt>
      <trkpt lat="42.8051670" lon="-7.6220940">
        <ele>359.2</ele>
        <time>2020-04-16T18:30:33Z</time>
      </trkpt>
      <trkpt lat="42.8051540" lon="-7.6221240">
        <ele>359.6</ele>
        <time>2020-04-16T18:30:35Z</time>
      </trkpt>
      <trkpt lat="42.8051410" lon="-7.6221540">
        <ele>360.1</ele>
        <time>2020-04-16T18:30:37Z</time>
      </trkpt>
      <trkpt lat="42.8051290" lon="-7.6221840">
        <ele>360.5</ele>
        <time>2020-04-16T18:30:39Z</time>
      </trkpt>
      <trkpt lat="42.8051160" lon="-7.6222140">
        <ele>360.9</ele>
        <time>2020-04-16T18:30:41Z</time>
      </trkpt>
      <trkpt lat="42.8051030" lon="-7.6222450">
        <ele>361.4</ele>
        <time>2020-04-16T18:30:43Z</time>
      </trkpt>
      <trkpt lat="42.8050610" lon="-7.6223430">
        <ele>362.9</ele>
        <time>2020-04-16T18:30:45Z</time>
      </trkpt>
      <trkpt lat="42.8050510" lon="-7.6223810">
        <ele>363.4</ele>
        <time>2020-04-16T18:30:47Z</time>
      </trkpt>
      <trkpt lat="42.8050420" lon="-7.6224140">
        <ele>363.9</ele>
        <time>2020-04-16T18:30:49Z</time>
      </trkpt>
      <trkpt lat="42.8050330" lon="-7.6224460">
        <ele>364.3</ele>
        <time>2020-04-16T18:30:51Z</time>
      </trkpt>
      <trkpt lat="42.8050240" lon="-7.6224780">
        <ele>364.7</ele>
        <time>2020-04-16T18:30:53Z</time>
      </trkpt>
      <trkpt lat="42.8050150" lon="-7.6225110">
        <ele>365.2</ele>
        <time>2020-04-16T18:30:55Z</time>
      </trkpt>
      <trkpt lat="42.8050060" lon="-7.6225440">
        <ele>365.7</ele>
        <time>2020-04-16T18:30:57Z</time>
      </trkpt>
      <trkpt lat="42.8049970" lon="-7.6225760">
        <ele>366.2</ele>
        <time>2020-04-16T18:30:59Z</time>
      </trkpt>
      <trkpt lat="42.8049880" lon="-7.6226090">
        <ele>366.6</ele>
        <time>2020-04-16T18:31:01Z</time>
      </trkpt>
      <trkpt lat="42.8049790" lon="-7.6226410">
        <ele>367.1</ele>
        <time>2020-04-16T18:31:03Z</time>
      </trkpt>
      <trkpt lat="42.8049700" lon="-7.6226740">
        <ele>367.6</ele>
        <time>2020-04-16T18:31:05Z</time>
      </trkpt>
      <trkpt lat="42.8049610" lon="-7.6227070">
        <ele>368.0</ele>
        <time>2020-04-16T18:31:07Z</time>
      </trkpt>
      <trkpt lat="42.8049520" lon="-7.6227400">
        <ele>368.5</ele>
        <time>2020-04-16T18:31:09Z</time>
      </trkpt>
      <trkpt lat="42.8049020" lon="-7.6229190">
        <ele>371.0</ele>
        <time>2020-04-16T18:31:11Z</time>
      </trkpt>
      <trkpt lat="42.8048900" lon="-7.6229620">
        <ele>371.6</ele>
        <time>2020-04-16T18:31:13Z</time>
      </trkpt>
      <trkpt lat="42.8048770" lon="-7.6230100">
        <ele>372.1</ele>
        <time>2020-04-16T18:31:15Z</time>
      </trkpt>
      <trkpt lat="42.8048640" lon="-7.6230580">
        <ele>372.7</ele>
        <time>2020-04-16T18:31:17Z</time>
      </trkpt>
      <trkpt lat="42.8048500" lon="-7.6231070">
        <ele>373.3</ele>
        <time>2020-04-16T18:31:19Z</time>
      </trkpt>
      <trkpt lat="42.8048370" lon="-7.6231570">
        <ele>373.8</ele>
        <time>2020-04-16T18:31:21Z</time>
      </trkpt>
      <trkpt lat="42.8048230" lon="-7.6232070">
        <ele>374.4</ele>
        <time>2020-04-16T18:31:23Z</time>
      </trkpt>
      <trkpt lat="42.8048090" lon="-7.6232570">
        <ele>374.9</ele>
        <time>2020-04-16T18:31:25Z</time>
      </trkpt>
      <trkpt lat="42.8047950" lon="-7.6233080">
        <ele>375.5</ele>
        <time>2020-04-16T18:31:27Z</time>
      </trkpt>
      <trkpt lat="42.8047810" lon="-7.6233570">
        <ele>376.0</ele>
        <time>2020-04-16T18:31:29Z</time>
      </trkpt>
      <trkpt lat="42.8047670" lon="-7.6234070">
        <ele>376.6</ele>
        <time>2020-04-16T18:31:31Z</time>
      </trkpt>
      <trkpt lat="42.8047540" lon="-7.6234560">
        <ele>377.1</ele>
        <time>2020-04-16T18:31:33Z</time>
      </trkpt>
      <trkpt lat="42.8047400" lon="-7.6235050">
        <ele>377.7</ele>
        <time>2020-04-16T18:31:35Z</time>
      </trkpt>
      <trkpt lat="42.8047270" lon="-7.6235550">
        <ele>378.3</ele>
        <time>2020-04-16T18:31:37Z</time>
      </trkpt>
      <trkpt lat="42.8046510" lon="-7.6238490">
        <ele>381.2</ele>
        <time>2020-04-16T18:31:39Z</time>
      </trkpt>
      <trkpt lat="42.8046530" lon="-7.6239020">
        <ele>381.3</ele>
        <time>2020-04-16T18:31:41Z</time>
      </trkpt>
      <trkpt lat="42.8046560" lon="-7.6239550">
        <ele>381.4</ele>
        <time>2020-04-16T18:31:43Z</time>
      </trkpt>
      <trkpt lat="42.8046580" lon="-7.6240080">
        <ele>381.5</ele>
        <time>2020-04-16T18:31:45Z</time>
      </trkpt>
      <trkpt lat="42.8046660" lon="-7.6241310">
        <ele>381.9</ele>
        <time>2020-04-16T18:31:47Z</time>
      </trkpt>
      <trkpt lat="42.8046720" lon="-7.6241830">
        <ele>382.1</ele>
        <time>2020-04-16T18:31:49Z</time>
      </trkpt>
      <trkpt lat="42.8046780" lon="-7.6242360">
        <ele>382.3</ele>
        <time>2020-04-16T18:31:51Z</time>
      </trkpt>
      <trkpt lat="42.8046840" lon="-7.6242880">
        <ele>382.5</ele>
        <time>2020-04-16T18:31:53Z</time>
      </trkpt>
      <trkpt lat="42.8046900" lon="-7.6243410">
        <ele>382.6</ele>
        <time>2020-04-16T18:31:55Z</time>
      </trkpt>
      <trkpt lat="42.8046960" lon="-7.6243930">
        <ele>382.8</ele>
        <time>2020-04-16T18:31:57Z</time>
      </trkpt>
      <trkpt lat="42.8047020" lon="-7.6244450">
        <ele>382.9</ele>
        <time>2020-04-16T18:31:59Z</time>
      </trkpt>
      <trkpt lat="42.8047080" lon="-7.6244970">
        <ele>383.1</ele>
        <time>2020-04-16T18:32:01Z</time>
      </trkpt>
      <trkpt lat="42.8047210" lon="-7.6246970">
        <ele>383.7</ele>
        <time>2020-04-16T18:32:03Z</time>
      </trkpt>
      <trkpt lat="42.8047120" lon="-7.6247490">
        <ele>384.0</ele>
        <time>2020-04-16T18:32:05Z</time>
      </trkpt>
      <trkpt lat="42.8047040" lon="-7.6248030">
        <ele>384.2</ele>
        <time>2020-04-16T18:32:07Z</time>
      </trkpt>
      <trkpt lat="42.8046950" lon="-7.6248570">
        <ele>384.5</ele>
        <time>2020-04-16T18:32:09Z</time>
      </trkpt>
      <trkpt lat="42.8046770" lon="-7.6249910">
        <ele>385.3</ele>
        <time>2020-04-16T18:32:11Z</time>
      </trkpt>
      <trkpt lat="42.8046760" lon="-7.6250470">
        <ele>385.7</ele>
        <time>2020-04-16T18:32:13Z</time>
      </trkpt>
      <trkpt lat="42.8046790" lon="-7.6251440">
        <ele>386.4</ele>
        <time>2020-04-16T18:32:15Z</time>
      </trkpt>
      <trkpt lat="42.8046940" lon="-7.6251950">
        <ele>386.7</ele>
        <time>2020-04-16T18:32:17Z</time>
      </trkpt>
      <trkpt lat="42.8047080" lon="-7.6252460">
        <ele>387.1</ele>
        <time>2020-04-16T18:32:19Z</time>
      </trkpt>
      <trkpt lat="42.8047450" lon="-7.6253370">
        <ele>387.6</ele>
        <time>2020-04-16T18:32:21Z</time>
      </trkpt>
      <trkpt lat="42.8047720" lon="-7.6253770">
        <ele>387.9</ele>
        <time>2020-04-16T18:32:23Z</time>
      </trkpt>
      <trkpt lat="42.8048240" lon="-7.6254560">
        <ele>388.3</ele>
        <time>2020-04-16T18:32:25Z</time>
      </trkpt>
      <trkpt lat="42.8048480" lon="-7.6255010">
        <ele>388.6</ele>
        <time>2020-04-16T18:32:27Z</time>
      </trkpt>
      <trkpt lat="42.8048710" lon="-7.6255450">
        <ele>388.8</ele>
        <time>2020-04-16T18:32:29Z</time>
      </trkpt>
      <trkpt lat="42.8048950" lon="-7.6255900">
        <ele>389.0</ele>
        <time>2020-04-16T18:32:31Z</time>
      </trkpt>
      <trkpt lat="42.8049420" lon="-7.6256950">
        <ele>389.6</ele>
        <time>2020-04-16T18:32:33Z</time>
      </trkpt>
      <trkpt lat="42.8049560" lon="-7.6257460">
        <ele>389.9</ele>
        <time>2020-04-16T18:32:35Z</time>
      </trkpt>
      <trkpt lat="42.8049700" lon="-7.6257970">
        <ele>390.1</ele>
        <time>2020-04-16T18:32:37Z</time>
      </trkpt>
      <trkpt lat="42.8049920" lon="-7.6259110">
        <ele>390.8</ele>
        <time>2020-04-16T18:32:39Z</time>
      </trkpt>
      <trkpt lat="42.8050040" lon="-7.6259970">
        <ele>391.3</ele>
        <time>2020-04-16T18:32:41Z</time>
      </trkpt>
      <trkpt lat="42.8050180" lon="-7.6260950">
        <ele>391.8</ele>
        <time>2020-04-16T18:32:43Z</time>
      </trkpt>
      <trkpt lat="42.8050320" lon="-7.6261990">
        <ele>392.4</ele>
        <time>2020-04-16T18:32:45Z</time>
      </trkpt>
      <trkpt lat="42.8050470" lon="-7.6263050">
        <ele>393.0</ele>
        <time>2020-04-16T18:32:47Z</time>
      </trkpt>
      <trkpt lat="42.8050620" lon="-7.6264150">
        <ele>393.6</ele>
        <time>2020-04-16T18:32:49Z</time>
      </trkpt>
      <trkpt lat="42.8050780" lon="-7.6265250">
        <ele>394.3</ele>
        <time>2020-04-16T18:32:51Z</time>
      </trkpt>
      <trkpt lat="42.8051360" lon="-7.6268820">
        <ele>396.8</ele>
        <time>2020-04-16T18:32:53Z</time>
      </trkpt>
      <trkpt lat="42.8051610" lon="-7.6269900">
        <ele>397.7</ele>
        <time>2020-04-16T18:32:55Z</time>
      </trkpt>
      <trkpt lat="42.8051870" lon="-7.6271000">
        <ele>398.6</ele>
        <time>2020-04-16T18:32:57Z</time>
      </trkpt>
      <trkpt lat="42.8052130" lon="-7.6272090">
        <ele>399.4</ele>
        <time>2020-04-16T18:32:59Z</time>
      </trkpt>
      <trkpt lat="42.8052380" lon="-7.6273190">
        <ele>400.2</ele>
        <time>2020-04-16T18:33:01Z</time>
      </trkpt>
      <trkpt lat="42.8052640" lon="-7.6274280">
        <ele>400.8</ele>
        <time>2020-04-16T18:33:03Z</time>
      </trkpt>
      <trkpt lat="42.8052890" lon="-7.6275350">
        <ele>401.2</ele>
        <time>2020-04-16T18:33:05Z</time>
      </trkpt>
      <trkpt lat="42.8053680" lon="-7.6279210">
        <ele>402.6</ele>
        <time>2020-04-16T18:33:07Z</time>
      </trkpt>
      <trkpt lat="42.8053840" lon="-7.6280380">
        <ele>403.0</ele>
        <time>2020-04-16T18:33:09Z</time>
      </trkpt>
      <trkpt lat="42.8054000" lon="-7.6281600">
        <ele>403.5</ele>
        <time>2020-04-16T18:33:11Z</time>
      </trkpt>
      <trkpt lat="42.8054490" lon="-7.6284140">
        <ele>404.7</ele>
        <time>2020-04-16T18:33:13Z</time>
      </trkpt>
      <trkpt lat="42.8054900" lon="-7.6285360">
        <ele>405.4</ele>
        <time>2020-04-16T18:33:15Z</time>
      </trkpt>
      <trkpt lat="42.8055610" lon="-7.6287410">
        <ele>406.5</ele>
        <time>2020-04-16T18:33:17Z</time>
      </trkpt>
      <trkpt lat="42.8056060" lon="-7.6288670">
        <ele>407.1</ele>
        <time>2020-04-16T18:33:19Z</time>
      </trkpt>
      <trkpt lat="42.8056790" lon="-7.6290710">
        <ele>408.0</ele>
        <time>2020-04-16T18:33:21Z</time>
      </trkpt>
      <trkpt lat="42.8057120" lon="-7.6291630">
        <ele>408.3</ele>
        <time>2020-04-16T18:33:23Z</time>
      </trkpt>
      <trkpt lat="42.8057380" lon="-7.6292350">
        <ele>408.5</ele>
        <time>2020-04-16T18:33:25Z</time>
      </trkpt>
      <trkpt lat="42.8057580" lon="-7.6292900">
        <ele>408.8</ele>
        <time>2020-04-16T18:33:27Z</time>
      </trkpt>
      <trkpt lat="42.8057740" lon="-7.6293340">
        <ele>408.9</ele>
        <time>2020-04-16T18:33:29Z</time>
      </trkpt>
      <trkpt lat="42.8057880" lon="-7.6293720">
        <ele>409.1</ele>
        <time>2020-04-16T18:33:31Z</time>
      </trkpt>
      <trkpt lat="42.8058000" lon="-7.6294060">
        <ele>409.2</ele>
        <time>2020-04-16T18:33:33Z</time>
      </trkpt>
      <trkpt lat="42.8058710" lon="-7.6296060">
        <ele>410.1</ele>
        <time>2020-04-16T18:33:35Z</time>
      </trkpt>
      <trkpt lat="42.8058790" lon="-7.6296440">
        <ele>410.3</ele>
        <time>2020-04-16T18:33:37Z</time>
      </trkpt>
      <trkpt lat="42.8058860" lon="-7.6296790">
        <ele>410.4</ele>
        <time>2020-04-16T18:33:39Z</time>
      </trkpt>
      <trkpt lat="42.8058930" lon="-7.6297130">
        <ele>410.6</ele>
        <time>2020-04-16T18:33:41Z</time>
      </trkpt>
      <trkpt lat="42.8059000" lon="-7.6297480">
        <ele>410.8</ele>
        <time>2020-04-16T18:33:43Z</time>
      </trkpt>
      <trkpt lat="42.8059070" lon="-7.6297840">
        <ele>410.9</ele>
        <time>2020-04-16T18:33:45Z</time>
      </trkpt>
      <trkpt lat="42.8059140" lon="-7.6298180">
        <ele>411.1</ele>
        <time>2020-04-16T18:33:47Z</time>
      </trkpt>
      <trkpt lat="42.8059210" lon="-7.6298520">
        <ele>411.3</ele>
        <time>2020-04-16T18:33:49Z</time>
      </trkpt>
      <trkpt lat="42.8059270" lon="-7.6298870">
        <ele>411.5</ele>
        <time>2020-04-16T18:33:51Z</time>
      </trkpt>
      <trkpt lat="42.8059340" lon="-7.6299220">
        <ele>411.7</ele>
        <time>2020-04-16T18:33:53Z</time>
      </trkpt>
      <trkpt lat="42.8059410" lon="-7.6299580">
        <ele>411.9</ele>
        <time>2020-04-16T18:33:55Z</time>
      </trkpt>
      <trkpt lat="42.8059480" lon="-7.6299920">
        <ele>412.0</ele>
        <time>2020-04-16T18:33:57Z</time>
      </trkpt>
      <trkpt lat="42.8059550" lon="-7.6300280">
        <ele>412.2</ele>
        <time>2020-04-16T18:33:59Z</time>
      </trkpt>
      <trkpt lat="42.8059900" lon="-7.6302220">
        <ele>413.3</ele>
        <time>2020-04-16T18:34:01Z</time>
      </trkpt>
      <trkpt lat="42.8059920" lon="-7.6302650">
        <ele>413.6</ele>
        <time>2020-04-16T18:34:03Z</time>
      </trkpt>
      <trkpt lat="42.8059940" lon="-7.6303100">
        <ele>413.9</ele>
        <time>2020-04-16T18:34:05Z</time>
      </trkpt>
      <trkpt lat="42.8059960" lon="-7.6303570">
        <ele>414.1</ele>
        <time>2020-04-16T18:34:07Z</time>
      </trkpt>
      <trkpt lat="42.8059980" lon="-7.6304050">
        <ele>414.4</ele>
        <time>2020-04-16T18:34:09Z</time>
      </trkpt>
      <trkpt lat="42.8060150" lon="-7.6305300">
        <ele>415.2</ele>
        <time>2020-04-16T18:34:11Z</time>
      </trkpt>
      <trkpt lat="42.8060280" lon="-7.6305740">
        <ele>415.4</ele>
        <time>2020-04-16T18:34:13Z</time>
      </trkpt>
      <trkpt lat="42.8060410" lon="-7.6306190">
        <ele>415.7</ele>
        <time>2020-04-16T18:34:15Z</time>
      </trkpt>
      <trkpt lat="42.8060530" lon="-7.6306630">
        <ele>416.0</ele>
        <time>2020-04-16T18:34:17Z</time>
      </trkpt>
      <trkpt lat="42.8060920" lon="-7.6307640">
        <ele>416.6</ele>
        <time>2020-04-16T18:34:19Z</time>
      </trkpt>
      <trkpt lat="42.8061120" lon="-7.6308020">
        <ele>416.9</ele>
        <time>2020-04-16T18:34:21Z</time>
      </trkpt>
      <trkpt lat="42.8061320" lon="-7.6308400">
        <ele>417.2</ele>
        <time>2020-04-16T18:34:23Z</time>
      </trkpt>
      <trkpt lat="42.8061520" lon="-7.6308780">
        <ele>417.5</ele>
        <time>2020-04-16T18:34:25Z</time>
      </trkpt>
      <trkpt lat="42.8061720" lon="-7.6309160">
        <ele>417.8</ele>
        <time>2020-04-16T18:34:27Z</time>
      </trkpt>
      <trkpt lat="42.8061920" lon="-7.6309530">
        <ele>418.0</ele>
        <time>2020-04-16T18:34:30Z</time>
      </trkpt>
      <trkpt lat="42.8062580" lon="-7.6310800">
        <ele>419.1</ele>
        <time>2020-04-16T18:34:32Z</time>
      </trkpt>
      <trkpt lat="42.8062780" lon="-7.6311180">
        <ele>419.5</ele>
        <time>2020-04-16T18:34:34Z</time>
      </trkpt>
      <trkpt lat="42.8062980" lon="-7.6311560">
        <ele>419.8</ele>
        <time>2020-04-16T18:34:36Z</time>
      </trkpt>
      <trkpt lat="42.8063400" lon="-7.6312310">
        <ele>420.5</ele>
        <time>2020-04-16T18:34:38Z</time>
      </trkpt>
      <trkpt lat="42.8063620" lon="-7.6312670">
        <ele>420.9</ele>
        <time>2020-04-16T18:34:40Z</time>
      </trkpt>
      <trkpt lat="42.8063850" lon="-7.6313040">
        <ele>421.2</ele>
        <time>2020-04-16T18:34:42Z</time>
      </trkpt>
      <trkpt lat="42.8064080" lon="-7.6313410">
        <ele>421.6</ele>
        <time>2020-04-16T18:34:44Z</time>
      </trkpt>
      <trkpt lat="42.8064300" lon="-7.6313770">
        <ele>421.9</ele>
        <time>2020-04-16T18:34:46Z</time>
      </trkpt>
      <trkpt lat="42.8064910" lon="-7.6314760">
        <ele>422.9</ele>
        <time>2020-04-16T18:34:48Z</time>
      </trkpt>
      <trkpt lat="42.8065140" lon="-7.6315120">
        <ele>423.2</ele>
        <time>2020-04-16T18:34:50Z</time>
      </trkpt>
      <trkpt lat="42.8065360" lon="-7.6315470">
        <ele>423.5</ele>
        <time>2020-04-16T18:34:52Z</time>
      </trkpt>
      <trkpt lat="42.8065580" lon="-7.6315820">
        <ele>423.8</ele>
        <time>2020-04-16T18:34:54Z</time>
      </trkpt>
      <trkpt lat="42.8065800" lon="-7.6316180">
        <ele>424.1</ele>
        <time>2020-04-16T18:34:56Z</time>
      </trkpt>
      <trkpt lat="42.8066020" lon="-7.6316530">
        <ele>424.4</ele>
        <time>2020-04-16T18:34:58Z</time>
      </trkpt>
      <trkpt lat="42.8066770" lon="-7.6317640">
        <ele>425.5</ele>
        <time>2020-04-16T18:35:00Z</time>
      </trkpt>
      <trkpt lat="42.8067100" lon="-7.6318060">
        <ele>426.0</ele>
        <time>2020-04-16T18:35:02Z</time>
      </trkpt>
      <trkpt lat="42.8067460" lon="-7.6318510">
        <ele>426.6</ele>
        <time>2020-04-16T18:35:04Z</time>
      </trkpt>
      <trkpt lat="42.8067820" lon="-7.6318980">
        <ele>427.2</ele>
        <time>2020-04-16T18:35:06Z</time>
      </trkpt>
      <trkpt lat="42.8068190" lon="-7.6319450">
        <ele>427.8</ele>
        <time>2020-04-16T18:35:08Z</time>
      </trkpt>
      <trkpt lat="42.8069160" lon="-7.6320730">
        <ele>429.3</ele>
        <time>2020-04-16T18:35:10Z</time>
      </trkpt>
      <trkpt lat="42.8069620" lon="-7.6321450">
        <ele>430.1</ele>
        <time>2020-04-16T18:35:12Z</time>
      </trkpt>
      <trkpt lat="42.8069960" lon="-7.6321970">
        <ele>430.6</ele>
        <time>2020-04-16T18:35:14Z</time>
      </trkpt>
      <trkpt lat="42.8070300" lon="-7.6322490">
        <ele>431.2</ele>
        <time>2020-04-16T18:35:16Z</time>
      </trkpt>
      <trkpt lat="42.8070640" lon="-7.6323010">
        <ele>431.7</ele>
        <time>2020-04-16T18:35:18Z</time>
      </trkpt>
      <trkpt lat="42.8071360" lon="-7.6324290">
        <ele>432.8</ele>
        <time>2020-04-16T18:35:20Z</time>
      </trkpt>
      <trkpt lat="42.8071620" lon="-7.6324880">
        <ele>433.2</ele>
        <time>2020-04-16T18:35:22Z</time>
      </trkpt>
      <trkpt lat="42.8071890" lon="-7.6325480">
        <ele>433.7</ele>
        <time>2020-04-16T18:35:24Z</time>
      </trkpt>
      <trkpt lat="42.8072510" lon="-7.6326900">
        <ele>434.7</ele>
        <time>2020-04-16T18:35:26Z</time>
      </trkpt>
      <trkpt lat="42.8072750" lon="-7.6327510">
        <ele>435.2</ele>
        <time>2020-04-16T18:35:28Z</time>
      </trkpt>
      <trkpt lat="42.8072990" lon="-7.6328130">
        <ele>435.7</ele>
        <time>2020-04-16T18:35:30Z</time>
      </trkpt>
      <trkpt lat="42.8073240" lon="-7.6328740">
        <ele>436.3</ele>
        <time>2020-04-16T18:35:32Z</time>
      </trkpt>
      <trkpt lat="42.8073810" lon="-7.6330220">
        <ele>437.6</ele>
        <time>2020-04-16T18:35:34Z</time>
      </trkpt>
      <trkpt lat="42.8074030" lon="-7.6330920">
        <ele>438.3</ele>
        <time>2020-04-16T18:35:36Z</time>
      </trkpt>
      <trkpt lat="42.8074230" lon="-7.6331580">
        <ele>438.9</ele>
        <time>2020-04-16T18:35:38Z</time>
      </trkpt>
      <trkpt lat="42.8074430" lon="-7.6332240">
        <ele>439.5</ele>
        <time>2020-04-16T18:35:40Z</time>
      </trkpt>
      <trkpt lat="42.8074630" lon="-7.6332900">
        <ele>440.1</ele>
        <time>2020-04-16T18:35:42Z</time>
      </trkpt>
      <trkpt lat="42.8074830" lon="-7.6333560">
        <ele>440.6</ele>
        <time>2020-04-16T18:35:44Z</time>
      </trkpt>
      <trkpt lat="42.8075400" lon="-7.6335560">
        <ele>442.1</ele>
        <time>2020-04-16T18:35:46Z</time>
      </trkpt>
      <trkpt lat="42.8075540" lon="-7.6336260">
        <ele>442.5</ele>
        <time>2020-04-16T18:35:48Z</time>
      </trkpt>
      <trkpt lat="42.8075790" lon="-7.6337530">
        <ele>443.1</ele>
        <time>2020-04-16T18:35:50Z</time>
      </trkpt>
      <trkpt lat="42.8075860" lon="-7.6338260">
        <ele>443.4</ele>
        <time>2020-04-16T18:35:52Z</time>
      </trkpt>
      <trkpt lat="42.8075870" lon="-7.6339450">
        <ele>443.9</ele>
        <time>2020-04-16T18:35:54Z</time>
      </trkpt>
      <trkpt lat="42.8075760" lon="-7.6340160">
        <ele>444.3</ele>
        <time>2020-04-16T18:35:56Z</time>
      </trkpt>
      <trkpt lat="42.8075650" lon="-7.6340870">
        <ele>444.6</ele>
        <time>2020-04-16T18:35:58Z</time>
      </trkpt>
      <trkpt lat="42.8075250" lon="-7.6342270">
        <ele>445.2</ele>
        <time>2020-04-16T18:36:00Z</time>
      </trkpt>
      <trkpt lat="42.8074900" lon="-7.6343120">
        <ele>445.6</ele>
        <time>2020-04-16T18:36:02Z</time>
      </trkpt>
      <trkpt lat="42.8074490" lon="-7.6344090">
        <ele>446.0</ele>
        <time>2020-04-16T18:36:04Z</time>
      </trkpt>
      <trkpt lat="42.8074050" lon="-7.6345150">
        <ele>446.4</ele>
        <time>2020-04-16T18:36:06Z</time>
      </trkpt>
      <trkpt lat="42.8072990" lon="-7.6347720">
        <ele>447.0</ele>
        <time>2020-04-16T18:36:08Z</time>
      </trkpt>
      <trkpt lat="42.8072370" lon="-7.6349260">
        <ele>447.1</ele>
        <time>2020-04-16T18:36:10Z</time>
      </trkpt>
      <trkpt lat="42.8071930" lon="-7.6350460">
        <ele>447.0</ele>
        <time>2020-04-16T18:36:12Z</time>
      </trkpt>
      <trkpt lat="42.8071490" lon="-7.6351670">
        <ele>446.9</ele>
        <time>2020-04-16T18:36:14Z</time>
      </trkpt>
      <trkpt lat="42.8070730" lon="-7.6354060">
        <ele>446.6</ele>
        <time>2020-04-16T18:36:16Z</time>
      </trkpt>
      <trkpt lat="42.8070400" lon="-7.6355360">
        <ele>446.3</ele>
        <time>2020-04-16T18:36:18Z</time>
      </trkpt>
      <trkpt lat="42.8069730" lon="-7.6357840">
        <ele>445.8</ele>
        <time>2020-04-16T18:36:20Z</time>
      </trkpt>
      <trkpt lat="42.8069330" lon="-7.6359160">
        <ele>445.4</ele>
        <time>2020-04-16T18:36:22Z</time>
      </trkpt>
      <trkpt lat="42.8068580" lon="-7.6361320">
        <ele>444.8</ele>
        <time>2020-04-16T18:36:24Z</time>
      </trkpt>
      <trkpt lat="42.8068050" lon="-7.6362640">
        <ele>444.4</ele>
        <time>2020-04-16T18:36:26Z</time>
      </trkpt>
      <trkpt lat="42.8067500" lon="-7.6363990">
        <ele>444.1</ele>
        <time>2020-04-16T18:36:28Z</time>
      </trkpt>
      <trkpt lat="42.8066420" lon="-7.6366850">
        <ele>443.6</ele>
        <time>2020-04-16T18:36:30Z</time>
      </trkpt>
      <trkpt lat="42.8065900" lon="-7.6368760">
        <ele>443.4</ele>
        <time>2020-04-16T18:36:32Z</time>
      </trkpt>
      <trkpt lat="42.8065870" lon="-7.6370090">
        <ele>443.4</ele>
        <time>2020-04-16T18:36:34Z</time>
      </trkpt>
      <trkpt lat="42.8065840" lon="-7.6372150">
        <ele>443.4</ele>
        <time>2020-04-16T18:36:36Z</time>
      </trkpt>
      <trkpt lat="42.8065920" lon="-7.6374260">
        <ele>443.4</ele>
        <time>2020-04-16T18:36:38Z</time>
      </trkpt>
      <trkpt lat="42.8066160" lon="-7.6376240">
        <ele>443.4</ele>
        <time>2020-04-16T18:36:40Z</time>
      </trkpt>
      <trkpt lat="42.8066510" lon="-7.6378360">
        <ele>443.4</ele>
        <time>2020-04-16T18:36:42Z</time>
      </trkpt>
      <trkpt lat="42.8067020" lon="-7.6379850">
        <ele>443.3</ele>
        <time>2020-04-16T18:36:44Z</time>
      </trkpt>
      <trkpt lat="42.8067600" lon="-7.6382710">
        <ele>442.8</ele>
        <time>2020-04-16T18:36:46Z</time>
      </trkpt>
      <trkpt lat="42.8067920" lon="-7.6384390">
        <ele>442.5</ele>
        <time>2020-04-16T18:36:48Z</time>
      </trkpt>
      <trkpt lat="42.8068450" lon="-7.6386980">
        <ele>442.1</ele>
        <time>2020-04-16T18:36:50Z</time>
      </trkpt>
      <trkpt lat="42.8068980" lon="-7.6388340">
        <ele>441.9</ele>
        <time>2020-04-16T18:36:52Z</time>
      </trkpt>
      <trkpt lat="42.8069890" lon="-7.6390660">
        <ele>441.7</ele>
        <time>2020-04-16T18:36:54Z</time>
      </trkpt>
      <trkpt lat="42.8070610" lon="-7.6392280">
        <ele>441.6</ele>
        <time>2020-04-16T18:36:56Z</time>
      </trkpt>
      <trkpt lat="42.8071370" lon="-7.6393190">
        <ele>441.5</ele>
        <time>2020-04-16T18:36:58Z</time>
      </trkpt>
      <trkpt lat="42.8072620" lon="-7.6394480">
        <ele>441.5</ele>
        <time>2020-04-16T18:37:00Z</time>
      </trkpt>
      <trkpt lat="42.8073820" lon="-7.6395080">
        <ele>441.6</ele>
        <time>2020-04-16T18:37:02Z</time>
      </trkpt>
      <trkpt lat="42.8074620" lon="-7.6395190">
        <ele>441.6</ele>
        <time>2020-04-16T18:37:04Z</time>
      </trkpt>
      <trkpt lat="42.8075290" lon="-7.6395290">
        <ele>441.7</ele>
        <time>2020-04-16T18:37:06Z</time>
      </trkpt>
      <trkpt lat="42.8076560" lon="-7.6395520">
        <ele>441.9</ele>
        <time>2020-04-16T18:37:08Z</time>
      </trkpt>
      <trkpt lat="42.8077270" lon="-7.6395700">
        <ele>442.1</ele>
        <time>2020-04-16T18:37:10Z</time>
      </trkpt>
      <trkpt lat="42.8077880" lon="-7.6395880">
        <ele>442.3</ele>
        <time>2020-04-16T18:37:12Z</time>
      </trkpt>
      <trkpt lat="42.8078220" lon="-7.6396100">
        <ele>442.4</ele>
        <time>2020-04-16T18:37:14Z</time>
      </trkpt>
      <trkpt lat="42.8078760" lon="-7.6396480">
        <ele>442.7</ele>
        <time>2020-04-16T18:37:16Z</time>
      </trkpt>
      <trkpt lat="42.8079020" lon="-7.6396790">
        <ele>442.9</ele>
        <time>2020-04-16T18:37:18Z</time>
      </trkpt>
      <trkpt lat="42.8079490" lon="-7.6397360">
        <ele>443.3</ele>
        <time>2020-04-16T18:37:20Z</time>
      </trkpt>
      <trkpt lat="42.8079740" lon="-7.6397790">
        <ele>443.6</ele>
        <time>2020-04-16T18:37:22Z</time>
      </trkpt>
      <trkpt lat="42.8079990" lon="-7.6398200">
        <ele>443.9</ele>
        <time>2020-04-16T18:37:24Z</time>
      </trkpt>
      <trkpt lat="42.8080240" lon="-7.6398630">
        <ele>444.2</ele>
        <time>2020-04-16T18:37:26Z</time>
      </trkpt>
      <trkpt lat="42.8080500" lon="-7.6399070">
        <ele>444.5</ele>
        <time>2020-04-16T18:37:28Z</time>
      </trkpt>
      <trkpt lat="42.8080760" lon="-7.6399500">
        <ele>444.8</ele>
        <time>2020-04-16T18:37:30Z</time>
      </trkpt>
      <trkpt lat="42.8081490" lon="-7.6400750">
        <ele>445.6</ele>
        <time>2020-04-16T18:37:32Z</time>
      </trkpt>
      <trkpt lat="42.8081780" lon="-7.6401250">
        <ele>445.9</ele>
        <time>2020-04-16T18:37:34Z</time>
      </trkpt>
      <trkpt lat="42.8082070" lon="-7.6401770">
        <ele>446.2</ele>
        <time>2020-04-16T18:37:36Z</time>
      </trkpt>
      <trkpt lat="42.8082370" lon="-7.6402290">
        <ele>446.5</ele>
        <time>2020-04-16T18:37:38Z</time>
      </trkpt>
      <trkpt lat="42.8082670" lon="-7.6402810">
        <ele>446.7</ele>
        <time>2020-04-16T18:37:40Z</time>
      </trkpt>
      <trkpt lat="42.8083540" lon="-7.6404290">
        <ele>447.1</ele>
        <time>2020-04-16T18:37:42Z</time>
      </trkpt>
      <trkpt lat="42.8083870" lon="-7.6404800">
        <ele>447.1</ele>
        <time>2020-04-16T18:37:44Z</time>
      </trkpt>
      <trkpt lat="42.8084190" lon="-7.6405300">
        <ele>447.2</ele>
        <time>2020-04-16T18:37:46Z</time>
      </trkpt>
      <trkpt lat="42.8084520" lon="-7.6405810">
        <ele>447.3</ele>
        <time>2020-04-16T18:37:48Z</time>
      </trkpt>
      <trkpt lat="42.8084840" lon="-7.6406310">
        <ele>447.5</ele>
        <time>2020-04-16T18:37:50Z</time>
      </trkpt>
      <trkpt lat="42.8085740" lon="-7.6407790">
        <ele>447.9</ele>
        <time>2020-04-16T18:37:52Z</time>
      </trkpt>
      <trkpt lat="42.8086030" lon="-7.6408340">
        <ele>448.1</ele>
        <time>2020-04-16T18:37:54Z</time>
      </trkpt>
      <trkpt lat="42.8086310" lon="-7.6408890">
        <ele>448.4</ele>
        <time>2020-04-16T18:37:56Z</time>
      </trkpt>
      <trkpt lat="42.8086590" lon="-7.6409440">
        <ele>448.6</ele>
        <time>2020-04-16T18:37:58Z</time>
      </trkpt>
      <trkpt lat="42.8086870" lon="-7.6409990">
        <ele>448.9</ele>
        <time>2020-04-16T18:38:00Z</time>
      </trkpt>
      <trkpt lat="42.8087700" lon="-7.6411520">
        <ele>449.8</ele>
        <time>2020-04-16T18:38:02Z</time>
      </trkpt>
      <trkpt lat="42.8088070" lon="-7.6412080">
        <ele>450.2</ele>
        <time>2020-04-16T18:38:04Z</time>
      </trkpt>
      <trkpt lat="42.8088460" lon="-7.6412660">
        <ele>450.6</ele>
        <time>2020-04-16T18:38:06Z</time>
      </trkpt>
      <trkpt lat="42.8088850" lon="-7.6413250">
        <ele>451.2</ele>
        <time>2020-04-16T18:38:08Z</time>
      </trkpt>
      <trkpt lat="42.8089240" lon="-7.6413850">
        <ele>451.7</ele>
        <time>2020-04-16T18:38:10Z</time>
      </trkpt>
      <trkpt lat="42.8089640" lon="-7.6414440">
        <ele>452.2</ele>
        <time>2020-04-16T18:38:12Z</time>
      </trkpt>
      <trkpt lat="42.8090900" lon="-7.6416350">
        <ele>453.6</ele>
        <time>2020-04-16T18:38:14Z</time>
      </trkpt>
      <trkpt lat="42.8091300" lon="-7.6416950">
        <ele>453.9</ele>
        <time>2020-04-16T18:38:16Z</time>
      </trkpt>
      <trkpt lat="42.8091690" lon="-7.6417550">
        <ele>454.1</ele>
        <time>2020-04-16T18:38:18Z</time>
      </trkpt>
      <trkpt lat="42.8092090" lon="-7.6418140">
        <ele>454.3</ele>
        <time>2020-04-16T18:38:20Z</time>
      </trkpt>
      <trkpt lat="42.8092480" lon="-7.6418740">
        <ele>454.4</ele>
        <time>2020-04-16T18:38:22Z</time>
      </trkpt>
      <trkpt lat="42.8092880" lon="-7.6419340">
        <ele>454.5</ele>
        <time>2020-04-16T18:38:24Z</time>
      </trkpt>
      <trkpt lat="42.8094180" lon="-7.6421090">
        <ele>454.7</ele>
        <time>2020-04-16T18:38:26Z</time>
      </trkpt>
      <trkpt lat="42.8094730" lon="-7.6421110">
        <ele>454.9</ele>
        <time>2020-04-16T18:38:28Z</time>
      </trkpt>
      <trkpt lat="42.8095200" lon="-7.6421930">
        <ele>454.8</ele>
        <time>2020-04-16T18:38:30Z</time>
      </trkpt>
      <trkpt lat="42.8095760" lon="-7.6422900">
        <ele>454.7</ele>
        <time>2020-04-16T18:38:32Z</time>
      </trkpt>
      <trkpt lat="42.8096380" lon="-7.6423980">
        <ele>454.7</ele>
        <time>2020-04-16T18:38:34Z</time>
      </trkpt>
      <trkpt lat="42.8097740" lon="-7.6426410">
        <ele>454.6</ele>
        <time>2020-04-16T18:38:36Z</time>
      </trkpt>
      <trkpt lat="42.8099020" lon="-7.6427410">
        <ele>454.5</ele>
        <time>2020-04-16T18:38:38Z</time>
      </trkpt>
      <trkpt lat="42.8099950" lon="-7.6429140">
        <ele>454.5</ele>
        <time>2020-04-16T18:38:40Z</time>
      </trkpt>
      <trkpt lat="42.8100860" lon="-7.6430770">
        <ele>454.4</ele>
        <time>2020-04-16T18:38:42Z</time>
      </trkpt>
      <trkpt lat="42.8102050" lon="-7.6433010">
        <ele>454.2</ele>
        <time>2020-04-16T18:38:44Z</time>
      </trkpt>
      <trkpt lat="42.8103090" lon="-7.6434930">
        <ele>453.8</ele>
        <time>2020-04-16T18:38:46Z</time>
      </trkpt>
      <trkpt lat="42.8103820" lon="-7.6436260">
        <ele>453.5</ele>
        <time>2020-04-16T18:38:48Z</time>
      </trkpt>
      <trkpt lat="42.8104540" lon="-7.6437570">
        <ele>453.3</ele>
        <time>2020-04-16T18:38:50Z</time>
      </trkpt>
      <trkpt lat="42.8105260" lon="-7.6438870">
        <ele>453.2</ele>
        <time>2020-04-16T18:38:52Z</time>
      </trkpt>
      <trkpt lat="42.8107040" lon="-7.6442130">
        <ele>452.4</ele>
        <time>2020-04-16T18:38:54Z</time>
      </trkpt>
      <trkpt lat="42.8107760" lon="-7.6443450">
        <ele>451.9</ele>
        <time>2020-04-16T18:38:56Z</time>
      </trkpt>
      <trkpt lat="42.8108500" lon="-7.6444800">
        <ele>451.5</ele>
        <time>2020-04-16T18:38:58Z</time>
      </trkpt>
      <trkpt lat="42.8109250" lon="-7.6446160">
        <ele>451.1</ele>
        <time>2020-04-16T18:39:00Z</time>
      </trkpt>
      <trkpt lat="42.8111080" lon="-7.6449510">
        <ele>450.1</ele>
        <time>2020-04-16T18:39:02Z</time>
      </trkpt>
      <trkpt lat="42.8111850" lon="-7.6450910">
        <ele>449.8</ele>
        <time>2020-04-16T18:39:04Z</time>
      </trkpt>
      <trkpt lat="42.8112630" lon="-7.6452340">
        <ele>449.5</ele>
        <time>2020-04-16T18:39:06Z</time>
      </trkpt>
      <trkpt lat="42.8113420" lon="-7.6453780">
        <ele>449.3</ele>
        <time>2020-04-16T18:39:08Z</time>
      </trkpt>
      <trkpt lat="42.8115230" lon="-7.6457260">
        <ele>449.2</ele>
        <time>2020-04-16T18:39:10Z</time>
      </trkpt>
      <trkpt lat="42.8115850" lon="-7.6458960">
        <ele>449.3</ele>
        <time>2020-04-16T18:39:12Z</time>
      </trkpt>
      <trkpt lat="42.8116310" lon="-7.6460340">
        <ele>449.5</ele>
        <time>2020-04-16T18:39:14Z</time>
      </trkpt>
      <trkpt lat="42.8117020" lon="-7.6462890">
        <ele>449.9</ele>
        <time>2020-04-16T18:39:16Z</time>
      </trkpt>
      <trkpt lat="42.8117120" lon="-7.6464120">
        <ele>450.1</ele>
        <time>2020-04-16T18:39:18Z</time>
      </trkpt>
      <trkpt lat="42.8117200" lon="-7.6465250">
        <ele>450.2</ele>
        <time>2020-04-16T18:39:20Z</time>
      </trkpt>
      <trkpt lat="42.8117280" lon="-7.6466280">
        <ele>450.3</ele>
        <time>2020-04-16T18:39:22Z</time>
      </trkpt>
      <trkpt lat="42.8117450" lon="-7.6468930">
        <ele>450.6</ele>
        <time>2020-04-16T18:39:24Z</time>
      </trkpt>
      <trkpt lat="42.8117470" lon="-7.6469840">
        <ele>450.7</ele>
        <time>2020-04-16T18:39:26Z</time>
      </trkpt>
      <trkpt lat="42.8117500" lon="-7.6470670">
        <ele>450.8</ele>
        <time>2020-04-16T18:39:28Z</time>
      </trkpt>
      <trkpt lat="42.8117520" lon="-7.6471460">
        <ele>450.8</ele>
        <time>2020-04-16T18:39:30Z</time>
      </trkpt>
      <trkpt lat="42.8117540" lon="-7.6472210">
        <ele>450.9</ele>
        <time>2020-04-16T18:39:32Z</time>
      </trkpt>
      <trkpt lat="42.8117550" lon="-7.6472920">
        <ele>451.0</ele>
        <time>2020-04-16T18:39:34Z</time>
      </trkpt>
      <trkpt lat="42.8117570" lon="-7.6473610">
        <ele>451.0</ele>
        <time>2020-04-16T18:39:36Z</time>
      </trkpt>
      <trkpt lat="42.8117590" lon="-7.6474300">
        <ele>451.1</ele>
        <time>2020-04-16T18:39:38Z</time>
      </trkpt>
      <trkpt lat="42.8117610" lon="-7.6474970">
        <ele>451.2</ele>
        <time>2020-04-16T18:39:40Z</time>
      </trkpt>
      <trkpt lat="42.8117630" lon="-7.6475640">
        <ele>451.2</ele>
        <time>2020-04-16T18:39:42Z</time>
      </trkpt>
      <trkpt lat="42.8117720" lon="-7.6478990">
        <ele>451.7</ele>
        <time>2020-04-16T18:39:44Z</time>
      </trkpt>
      <trkpt lat="42.8117740" lon="-7.6479650">
        <ele>451.8</ele>
        <time>2020-04-16T18:39:46Z</time>
      </trkpt>
      <trkpt lat="42.8117750" lon="-7.6480310">
        <ele>451.9</ele>
        <time>2020-04-16T18:39:48Z</time>
      </trkpt>
      <trkpt lat="42.8117770" lon="-7.6480960">
        <ele>452.0</ele>
        <time>2020-04-16T18:39:50Z</time>
      </trkpt>
      <trkpt lat="42.8117790" lon="-7.6481620">
        <ele>452.1</ele>
        <time>2020-04-16T18:39:52Z</time>
      </trkpt>
      <trkpt lat="42.8117810" lon="-7.6482280">
        <ele>452.3</ele>
        <time>2020-04-16T18:39:54Z</time>
      </trkpt>
      <trkpt lat="42.8117830" lon="-7.6482940">
        <ele>452.4</ele>
        <time>2020-04-16T18:39:56Z</time>
      </trkpt>
      <trkpt lat="42.8117850" lon="-7.6483600">
        <ele>452.5</ele>
        <time>2020-04-16T18:39:58Z</time>
      </trkpt>
      <trkpt lat="42.8117870" lon="-7.6484270">
        <ele>452.7</ele>
        <time>2020-04-16T18:40:00Z</time>
      </trkpt>
      <trkpt lat="42.8117950" lon="-7.6487090">
        <ele>453.3</ele>
        <time>2020-04-16T18:40:02Z</time>
      </trkpt>
      <trkpt lat="42.8117970" lon="-7.6487760">
        <ele>453.5</ele>
        <time>2020-04-16T18:40:04Z</time>
      </trkpt>
      <trkpt lat="42.8118000" lon="-7.6488970">
        <ele>453.8</ele>
        <time>2020-04-16T18:40:06Z</time>
      </trkpt>
      <trkpt lat="42.8118030" lon="-7.6489750">
        <ele>454.1</ele>
        <time>2020-04-16T18:40:08Z</time>
      </trkpt>
      <trkpt lat="42.8118060" lon="-7.6490630">
        <ele>454.4</ele>
        <time>2020-04-16T18:40:10Z</time>
      </trkpt>
      <trkpt lat="42.8118090" lon="-7.6491560">
        <ele>454.6</ele>
        <time>2020-04-16T18:40:12Z</time>
      </trkpt>
      <trkpt lat="42.8118120" lon="-7.6492520">
        <ele>455.0</ele>
        <time>2020-04-16T18:40:14Z</time>
      </trkpt>
      <trkpt lat="42.8118150" lon="-7.6493470">
        <ele>455.3</ele>
        <time>2020-04-16T18:40:16Z</time>
      </trkpt>
      <trkpt lat="42.8118180" lon="-7.6494440">
        <ele>455.6</ele>
        <time>2020-04-16T18:40:18Z</time>
      </trkpt>
      <trkpt lat="42.8118210" lon="-7.6495420">
        <ele>456.0</ele>
        <time>2020-04-16T18:40:20Z</time>
      </trkpt>
      <trkpt lat="42.8118320" lon="-7.6499110">
        <ele>457.4</ele>
        <time>2020-04-16T18:40:22Z</time>
      </trkpt>
      <trkpt lat="42.8118350" lon="-7.6500110">
        <ele>457.9</ele>
        <time>2020-04-16T18:40:24Z</time>
      </trkpt>
      <trkpt lat="42.8118390" lon="-7.6501110">
        <ele>458.3</ele>
        <time>2020-04-16T18:40:26Z</time>
      </trkpt>
      <trkpt lat="42.8118420" lon="-7.6502100">
        <ele>458.8</ele>
        <time>2020-04-16T18:40:28Z</time>
      </trkpt>
      <trkpt lat="42.8118450" lon="-7.6503100">
        <ele>459.3</ele>
        <time>2020-04-16T18:40:30Z</time>
      </trkpt>
      <trkpt lat="42.8118480" lon="-7.6504100">
        <ele>459.7</ele>
        <time>2020-04-16T18:40:32Z</time>
      </trkpt>
      <trkpt lat="42.8118510" lon="-7.6505100">
        <ele>460.2</ele>
        <time>2020-04-16T18:40:34Z</time>
      </trkpt>
      <trkpt lat="42.8118540" lon="-7.6506100">
        <ele>460.6</ele>
        <time>2020-04-16T18:40:36Z</time>
      </trkpt>
      <trkpt lat="42.8118650" lon="-7.6509810">
        <ele>462.0</ele>
        <time>2020-04-16T18:40:38Z</time>
      </trkpt>
      <trkpt lat="42.8118690" lon="-7.6510950">
        <ele>462.4</ele>
        <time>2020-04-16T18:40:40Z</time>
      </trkpt>
      <trkpt lat="42.8118730" lon="-7.6512200">
        <ele>462.9</ele>
        <time>2020-04-16T18:40:42Z</time>
      </trkpt>
      <trkpt lat="42.8118770" lon="-7.6513560">
        <ele>463.5</ele>
        <time>2020-04-16T18:40:44Z</time>
      </trkpt>
      <trkpt lat="42.8118820" lon="-7.6514990">
        <ele>464.0</ele>
        <time>2020-04-16T18:40:46Z</time>
      </trkpt>
      <trkpt lat="42.8118950" lon="-7.6518910">
        <ele>465.0</ele>
        <time>2020-04-16T18:40:48Z</time>
      </trkpt>
      <trkpt lat="42.8118990" lon="-7.6520490">
        <ele>465.3</ele>
        <time>2020-04-16T18:40:50Z</time>
      </trkpt>
      <trkpt lat="42.8119050" lon="-7.6522130">
        <ele>465.5</ele>
        <time>2020-04-16T18:40:52Z</time>
      </trkpt>
      <trkpt lat="42.8119100" lon="-7.6523820">
        <ele>465.7</ele>
        <time>2020-04-16T18:40:54Z</time>
      </trkpt>
      <trkpt lat="42.8119240" lon="-7.6528170">
        <ele>465.9</ele>
        <time>2020-04-16T18:40:56Z</time>
      </trkpt>
      <trkpt lat="42.8119300" lon="-7.6529860">
        <ele>466.0</ele>
        <time>2020-04-16T18:40:58Z</time>
      </trkpt>
      <trkpt lat="42.8119350" lon="-7.6531450">
        <ele>466.1</ele>
        <time>2020-04-16T18:41:00Z</time>
      </trkpt>
      <trkpt lat="42.8119400" lon="-7.6532990">
        <ele>466.1</ele>
        <time>2020-04-16T18:41:02Z</time>
      </trkpt>
      <trkpt lat="42.8119530" lon="-7.6536710">
        <ele>466.2</ele>
        <time>2020-04-16T18:41:04Z</time>
      </trkpt>
      <trkpt lat="42.8119590" lon="-7.6538250">
        <ele>466.2</ele>
        <time>2020-04-16T18:41:06Z</time>
      </trkpt>
      <trkpt lat="42.8119640" lon="-7.6539800">
        <ele>466.3</ele>
        <time>2020-04-16T18:41:08Z</time>
      </trkpt>
      <trkpt lat="42.8119690" lon="-7.6541330">
        <ele>466.3</ele>
        <time>2020-04-16T18:41:10Z</time>
      </trkpt>
      <trkpt lat="42.8119750" lon="-7.6542840">
        <ele>466.4</ele>
        <time>2020-04-16T18:41:12Z</time>
      </trkpt>
      <trkpt lat="42.8119860" lon="-7.6546870">
        <ele>466.6</ele>
        <time>2020-04-16T18:41:14Z</time>
      </trkpt>
      <trkpt lat="42.8119890" lon="-7.6548260">
        <ele>466.8</ele>
        <time>2020-04-16T18:41:16Z</time>
      </trkpt>
      <trkpt lat="42.8119920" lon="-7.6549560">
        <ele>467.0</ele>
        <time>2020-04-16T18:41:18Z</time>
      </trkpt>
      <trkpt lat="42.8119940" lon="-7.6550780">
        <ele>467.3</ele>
        <time>2020-04-16T18:41:20Z</time>
      </trkpt>
      <trkpt lat="42.8119970" lon="-7.6551930">
        <ele>467.6</ele>
        <time>2020-04-16T18:41:22Z</time>
      </trkpt>
      <trkpt lat="42.8120040" lon="-7.6555480">
        <ele>468.7</ele>
        <time>2020-04-16T18:41:24Z</time>
      </trkpt>
      <trkpt lat="42.8120060" lon="-7.6556530">
        <ele>469.0</ele>
        <time>2020-04-16T18:41:26Z</time>
      </trkpt>
      <trkpt lat="42.8120080" lon="-7.6557550">
        <ele>469.3</ele>
        <time>2020-04-16T18:41:28Z</time>
      </trkpt>
      <trkpt lat="42.8120110" lon="-7.6558540">
        <ele>469.6</ele>
        <time>2020-04-16T18:41:30Z</time>
      </trkpt>
      <trkpt lat="42.8120160" lon="-7.6561000">
        <ele>470.4</ele>
        <time>2020-04-16T18:41:32Z</time>
      </trkpt>
      <trkpt lat="42.8120190" lon="-7.6561880">
        <ele>470.7</ele>
        <time>2020-04-16T18:41:34Z</time>
      </trkpt>
      <trkpt lat="42.8120220" lon="-7.6562670">
        <ele>471.0</ele>
        <time>2020-04-16T18:41:36Z</time>
      </trkpt>
      <trkpt lat="42.8120280" lon="-7.6564340">
        <ele>471.7</ele>
        <time>2020-04-16T18:41:38Z</time>
      </trkpt>
      <trkpt lat="42.8120300" lon="-7.6565030">
        <ele>472.0</ele>
        <time>2020-04-16T18:41:40Z</time>
      </trkpt>
      <trkpt lat="42.8120320" lon="-7.6565700">
        <ele>472.3</ele>
        <time>2020-04-16T18:41:42Z</time>
      </trkpt>
      <trkpt lat="42.8120350" lon="-7.6566330">
        <ele>472.6</ele>
        <time>2020-04-16T18:41:44Z</time>
      </trkpt>
      <trkpt lat="42.8120370" lon="-7.6566960">
        <ele>472.9</ele>
        <time>2020-04-16T18:41:46Z</time>
      </trkpt>
      <trkpt lat="42.8120390" lon="-7.6567560">
        <ele>473.1</ele>
        <time>2020-04-16T18:41:48Z</time>
      </trkpt>
      <trkpt lat="42.8120410" lon="-7.6568160">
        <ele>473.4</ele>
        <time>2020-04-16T18:41:50Z</time>
      </trkpt>
      <trkpt lat="42.8120430" lon="-7.6568760">
        <ele>473.7</ele>
        <time>2020-04-16T18:41:52Z</time>
      </trkpt>
      <trkpt lat="42.8120450" lon="-7.6569350">
        <ele>474.0</ele>
        <time>2020-04-16T18:41:54Z</time>
      </trkpt>
      <trkpt lat="42.8120470" lon="-7.6569950">
        <ele>474.3</ele>
        <time>2020-04-16T18:41:56Z</time>
      </trkpt>
      <trkpt lat="42.8120500" lon="-7.6570560">
        <ele>474.6</ele>
        <time>2020-04-16T18:41:58Z</time>
      </trkpt>
      <trkpt lat="42.8120610" lon="-7.6573670">
        <ele>476.2</ele>
        <time>2020-04-16T18:42:00Z</time>
      </trkpt>
      <trkpt lat="42.8120650" lon="-7.6574420">
        <ele>476.6</ele>
        <time>2020-04-16T18:42:02Z</time>
      </trkpt>
      <trkpt lat="42.8120700" lon="-7.6575260">
        <ele>477.1</ele>
        <time>2020-04-16T18:42:04Z</time>
      </trkpt>
      <trkpt lat="42.8120750" lon="-7.6576140">
        <ele>477.5</ele>
        <time>2020-04-16T18:42:06Z</time>
      </trkpt>
      <trkpt lat="42.8120810" lon="-7.6577050">
        <ele>477.9</ele>
        <time>2020-04-16T18:42:08Z</time>
      </trkpt>
      <trkpt lat="42.8120960" lon="-7.6579600">
        <ele>479.2</ele>
        <time>2020-04-16T18:42:10Z</time>
      </trkpt>
      <trkpt lat="42.8121070" lon="-7.6580520">
        <ele>479.7</ele>
        <time>2020-04-16T18:42:12Z</time>
      </trkpt>
      <trkpt lat="42.8121170" lon="-7.6581460">
        <ele>480.2</ele>
        <time>2020-04-16T18:42:14Z</time>
      </trkpt>
      <trkpt lat="42.8121270" lon="-7.6582400">
        <ele>480.7</ele>
        <time>2020-04-16T18:42:16Z</time>
      </trkpt>
      <trkpt lat="42.8121380" lon="-7.6583340">
        <ele>481.3</ele>
        <time>2020-04-16T18:42:18Z</time>
      </trkpt>
      <trkpt lat="42.8121490" lon="-7.6584280">
        <ele>481.8</ele>
        <time>2020-04-16T18:42:20Z</time>
      </trkpt>
      <trkpt lat="42.8121540" lon="-7.6587060">
        <ele>483.5</ele>
        <time>2020-04-16T18:42:22Z</time>
      </trkpt>
      <trkpt lat="42.8121370" lon="-7.6588290">
        <ele>484.0</ele>
        <time>2020-04-16T18:42:24Z</time>
      </trkpt>
      <trkpt lat="42.8121540" lon="-7.6589310">
        <ele>484.2</ele>
        <time>2020-04-16T18:42:26Z</time>
      </trkpt>
      <trkpt lat="42.8121720" lon="-7.6590390">
        <ele>484.6</ele>
        <time>2020-04-16T18:42:28Z</time>
      </trkpt>
      <trkpt lat="42.8121910" lon="-7.6591510">
        <ele>484.9</ele>
        <time>2020-04-16T18:42:30Z</time>
      </trkpt>
      <trkpt lat="42.8122100" lon="-7.6592660">
        <ele>485.3</ele>
        <time>2020-04-16T18:42:32Z</time>
      </trkpt>
      <trkpt lat="42.8122290" lon="-7.6593820">
        <ele>485.6</ele>
        <time>2020-04-16T18:42:34Z</time>
      </trkpt>
      <trkpt lat="42.8122880" lon="-7.6597390">
        <ele>486.0</ele>
        <time>2020-04-16T18:42:36Z</time>
      </trkpt>
      <trkpt lat="42.8123080" lon="-7.6598560">
        <ele>486.1</ele>
        <time>2020-04-16T18:42:38Z</time>
      </trkpt>
      <trkpt lat="42.8123270" lon="-7.6599750">
        <ele>486.2</ele>
        <time>2020-04-16T18:42:40Z</time>
      </trkpt>
      <trkpt lat="42.8123660" lon="-7.6602080">
        <ele>486.3</ele>
        <time>2020-04-16T18:42:42Z</time>
      </trkpt>
      <trkpt lat="42.8123870" lon="-7.6603380">
        <ele>486.4</ele>
        <time>2020-04-16T18:42:44Z</time>
      </trkpt>
      <trkpt lat="42.8124300" lon="-7.6606030">
        <ele>486.7</ele>
        <time>2020-04-16T18:42:46Z</time>
      </trkpt>
      <trkpt lat="42.8124530" lon="-7.6607450">
        <ele>486.8</ele>
        <time>2020-04-16T18:42:48Z</time>
      </trkpt>
      <trkpt lat="42.8124770" lon="-7.6608910">
        <ele>487.0</ele>
        <time>2020-04-16T18:42:50Z</time>
      </trkpt>
      <trkpt lat="42.8125010" lon="-7.6610400">
        <ele>487.2</ele>
        <time>2020-04-16T18:42:52Z</time>
      </trkpt>
      <trkpt lat="42.8125250" lon="-7.6611920">
        <ele>487.4</ele>
        <time>2020-04-16T18:42:54Z</time>
      </trkpt>
      <trkpt lat="42.8125890" lon="-7.6615850">
        <ele>488.0</ele>
        <time>2020-04-16T18:42:56Z</time>
      </trkpt>
      <trkpt lat="42.8126140" lon="-7.6617380">
        <ele>488.2</ele>
        <time>2020-04-16T18:42:58Z</time>
      </trkpt>
      <trkpt lat="42.8126390" lon="-7.6618870">
        <ele>488.4</ele>
        <time>2020-04-16T18:43:00Z</time>
      </trkpt>
      <trkpt lat="42.8126630" lon="-7.6620350">
        <ele>488.6</ele>
        <time>2020-04-16T18:43:02Z</time>
      </trkpt>
      <trkpt lat="42.8127270" lon="-7.6624200">
        <ele>489.4</ele>
        <time>2020-04-16T18:43:04Z</time>
      </trkpt>
      <trkpt lat="42.8127540" lon="-7.6625640">
        <ele>489.8</ele>
        <time>2020-04-16T18:43:06Z</time>
      </trkpt>
      <trkpt lat="42.8128050" lon="-7.6628120">
        <ele>490.5</ele>
        <time>2020-04-16T18:43:08Z</time>
      </trkpt>
      <trkpt lat="42.8128550" lon="-7.6629870">
        <ele>490.8</ele>
        <time>2020-04-16T18:43:10Z</time>
      </trkpt>
      <trkpt lat="42.8128940" lon="-7.6630820">
        <ele>491.1</ele>
        <time>2020-04-16T18:43:12Z</time>
      </trkpt>
      <trkpt lat="42.8129280" lon="-7.6631640">
        <ele>491.5</ele>
        <time>2020-04-16T18:43:14Z</time>
      </trkpt>
      <trkpt lat="42.8129580" lon="-7.6632350">
        <ele>492.0</ele>
        <time>2020-04-16T18:43:16Z</time>
      </trkpt>
      <trkpt lat="42.8130270" lon="-7.6634000">
        <ele>493.3</ele>
        <time>2020-04-16T18:43:18Z</time>
      </trkpt>
      <trkpt lat="42.8130520" lon="-7.6634580">
        <ele>493.8</ele>
        <time>2020-04-16T18:43:20Z</time>
      </trkpt>
      <trkpt lat="42.8130770" lon="-7.6635120">
        <ele>494.2</ele>
        <time>2020-04-16T18:43:22Z</time>
      </trkpt>
      <trkpt lat="42.8131000" lon="-7.6635650">
        <ele>494.7</ele>
        <time>2020-04-16T18:43:24Z</time>
      </trkpt>
      <trkpt lat="42.8131230" lon="-7.6636160">
        <ele>495.1</ele>
        <time>2020-04-16T18:43:26Z</time>
      </trkpt>
      <trkpt lat="42.8131450" lon="-7.6636670">
        <ele>495.6</ele>
        <time>2020-04-16T18:43:28Z</time>
      </trkpt>
      <trkpt lat="42.8131680" lon="-7.6637180">
        <ele>496.0</ele>
        <time>2020-04-16T18:43:30Z</time>
      </trkpt>
      <trkpt lat="42.8132490" lon="-7.6639010">
        <ele>497.6</ele>
        <time>2020-04-16T18:43:32Z</time>
      </trkpt>
      <trkpt lat="42.8132730" lon="-7.6639550">
        <ele>498.1</ele>
        <time>2020-04-16T18:43:34Z</time>
      </trkpt>
      <trkpt lat="42.8132980" lon="-7.6640110">
        <ele>498.5</ele>
        <time>2020-04-16T18:43:36Z</time>
      </trkpt>
      <trkpt lat="42.8133230" lon="-7.6640680">
        <ele>499.0</ele>
        <time>2020-04-16T18:43:38Z</time>
      </trkpt>
      <trkpt lat="42.8133480" lon="-7.6641240">
        <ele>499.4</ele>
        <time>2020-04-16T18:43:40Z</time>
      </trkpt>
      <trkpt lat="42.8133740" lon="-7.6641820">
        <ele>499.9</ele>
        <time>2020-04-16T18:43:42Z</time>
      </trkpt>
      <trkpt lat="42.8133990" lon="-7.6642390">
        <ele>500.4</ele>
        <time>2020-04-16T18:43:44Z</time>
      </trkpt>
      <trkpt lat="42.8134250" lon="-7.6642970">
        <ele>500.8</ele>
        <time>2020-04-16T18:43:46Z</time>
      </trkpt>
      <trkpt lat="42.8134500" lon="-7.6643550">
        <ele>501.3</ele>
        <time>2020-04-16T18:43:48Z</time>
      </trkpt>
      <trkpt lat="42.8134760" lon="-7.6644120">
        <ele>501.8</ele>
        <time>2020-04-16T18:43:50Z</time>
      </trkpt>
      <trkpt lat="42.8135010" lon="-7.6644700">
        <ele>502.2</ele>
        <time>2020-04-16T18:43:52Z</time>
      </trkpt>
      <trkpt lat="42.8136290" lon="-7.6647570">
        <ele>503.8</ele>
        <time>2020-04-16T18:43:54Z</time>
      </trkpt>
      <trkpt lat="42.8136550" lon="-7.6648140">
        <ele>503.9</ele>
        <time>2020-04-16T18:43:56Z</time>
      </trkpt>
      <trkpt lat="42.8136810" lon="-7.6648710">
        <ele>504.1</ele>
        <time>2020-04-16T18:43:58Z</time>
      </trkpt>
      <trkpt lat="42.8137070" lon="-7.6649280">
        <ele>504.3</ele>
        <time>2020-04-16T18:44:00Z</time>
      </trkpt>
      <trkpt lat="42.8137330" lon="-7.6649850">
        <ele>504.6</ele>
        <time>2020-04-16T18:44:02Z</time>
      </trkpt>
      <trkpt lat="42.8137600" lon="-7.6650430">
        <ele>505.0</ele>
        <time>2020-04-16T18:44:04Z</time>
      </trkpt>
      <trkpt lat="42.8137860" lon="-7.6651000">
        <ele>505.4</ele>
        <time>2020-04-16T18:44:06Z</time>
      </trkpt>
      <trkpt lat="42.8138120" lon="-7.6651570">
        <ele>505.8</ele>
        <time>2020-04-16T18:44:08Z</time>
      </trkpt>
      <trkpt lat="42.8138380" lon="-7.6652140">
        <ele>506.3</ele>
        <time>2020-04-16T18:44:10Z</time>
      </trkpt>
      <trkpt lat="42.8138640" lon="-7.6652710">
        <ele>506.7</ele>
        <time>2020-04-16T18:44:12Z</time>
      </trkpt>
      <trkpt lat="42.8139850" lon="-7.6655360">
        <ele>508.8</ele>
        <time>2020-04-16T18:44:14Z</time>
      </trkpt>
      <trkpt lat="42.8140110" lon="-7.6655930">
        <ele>509.3</ele>
        <time>2020-04-16T18:44:16Z</time>
      </trkpt>
      <trkpt lat="42.8140370" lon="-7.6656500">
        <ele>509.8</ele>
        <time>2020-04-16T18:44:18Z</time>
      </trkpt>
      <trkpt lat="42.8140620" lon="-7.6657050">
        <ele>510.2</ele>
        <time>2020-04-16T18:44:20Z</time>
      </trkpt>
      <trkpt lat="42.8140880" lon="-7.6657620">
        <ele>510.7</ele>
        <time>2020-04-16T18:44:22Z</time>
      </trkpt>
      <trkpt lat="42.8141130" lon="-7.6658170">
        <ele>511.2</ele>
        <time>2020-04-16T18:44:24Z</time>
      </trkpt>
      <trkpt lat="42.8141390" lon="-7.6658740">
        <ele>511.6</ele>
        <time>2020-04-16T18:44:26Z</time>
      </trkpt>
      <trkpt lat="42.8141640" lon="-7.6659300">
        <ele>512.1</ele>
        <time>2020-04-16T18:44:28Z</time>
      </trkpt>
      <trkpt lat="42.8141900" lon="-7.6659860">
        <ele>512.6</ele>
        <time>2020-04-16T18:44:30Z</time>
      </trkpt>
      <trkpt lat="42.8142160" lon="-7.6660440">
        <ele>513.0</ele>
        <time>2020-04-16T18:44:32Z</time>
      </trkpt>
      <trkpt lat="42.8143360" lon="-7.6663080">
        <ele>514.9</ele>
        <time>2020-04-16T18:44:34Z</time>
      </trkpt>
      <trkpt lat="42.8143620" lon="-7.6663650">
        <ele>515.0</ele>
        <time>2020-04-16T18:44:36Z</time>
      </trkpt>
      <trkpt lat="42.8143880" lon="-7.6664210">
        <ele>515.1</ele>
        <time>2020-04-16T18:44:38Z</time>
      </trkpt>
      <trkpt lat="42.8144140" lon="-7.6664780">
        <ele>515.3</ele>
        <time>2020-04-16T18:44:40Z</time>
      </trkpt>
      <trkpt lat="42.8144400" lon="-7.6665350">
        <ele>515.6</ele>
        <time>2020-04-16T18:44:42Z</time>
      </trkpt>
      <trkpt lat="42.8144660" lon="-7.6665910">
        <ele>515.9</ele>
        <time>2020-04-16T18:44:44Z</time>
      </trkpt>
      <trkpt lat="42.8144920" lon="-7.6666480">
        <ele>516.3</ele>
        <time>2020-04-16T18:44:46Z</time>
      </trkpt>
      <trkpt lat="42.8145180" lon="-7.6667050">
        <ele>516.7</ele>
        <time>2020-04-16T18:44:48Z</time>
      </trkpt>
      <trkpt lat="42.8145440" lon="-7.6667610">
        <ele>517.1</ele>
        <time>2020-04-16T18:44:50Z</time>
      </trkpt>
      <trkpt lat="42.8146480" lon="-7.6669900">
        <ele>518.6</ele>
        <time>2020-04-16T18:44:52Z</time>
      </trkpt>
      <trkpt lat="42.8146870" lon="-7.6670780">
        <ele>519.2</ele>
        <time>2020-04-16T18:44:54Z</time>
      </trkpt>
      <trkpt lat="42.8147150" lon="-7.6671410">
        <ele>519.6</ele>
        <time>2020-04-16T18:44:56Z</time>
      </trkpt>
      <trkpt lat="42.8147440" lon="-7.6672070">
        <ele>520.0</ele>
        <time>2020-04-16T18:44:58Z</time>
      </trkpt>
      <trkpt lat="42.8147730" lon="-7.6672720">
        <ele>520.5</ele>
        <time>2020-04-16T18:45:00Z</time>
      </trkpt>
      <trkpt lat="42.8148030" lon="-7.6673400">
        <ele>520.9</ele>
        <time>2020-04-16T18:45:02Z</time>
      </trkpt>
      <trkpt lat="42.8148330" lon="-7.6674080">
        <ele>521.4</ele>
        <time>2020-04-16T18:45:04Z</time>
      </trkpt>
      <trkpt lat="42.8148630" lon="-7.6674760">
        <ele>521.9</ele>
        <time>2020-04-16T18:45:06Z</time>
      </trkpt>
      <trkpt lat="42.8148930" lon="-7.6675440">
        <ele>522.3</ele>
        <time>2020-04-16T18:45:08Z</time>
      </trkpt>
      <trkpt lat="42.8149230" lon="-7.6676110">
        <ele>522.8</ele>
        <time>2020-04-16T18:45:10Z</time>
      </trkpt>
      <trkpt lat="42.8150430" lon="-7.6678810">
        <ele>524.5</ele>
        <time>2020-04-16T18:45:12Z</time>
      </trkpt>
      <trkpt lat="42.8150720" lon="-7.6679480">
        <ele>524.9</ele>
        <time>2020-04-16T18:45:14Z</time>
      </trkpt>
      <trkpt lat="42.8151020" lon="-7.6680160">
        <ele>525.3</ele>
        <time>2020-04-16T18:45:16Z</time>
      </trkpt>
      <trkpt lat="42.8151320" lon="-7.6680830">
        <ele>525.6</ele>
        <time>2020-04-16T18:45:18Z</time>
      </trkpt>
      <trkpt lat="42.8151620" lon="-7.6681510">
        <ele>526.0</ele>
        <time>2020-04-16T18:45:20Z</time>
      </trkpt>
      <trkpt lat="42.8151920" lon="-7.6682170">
        <ele>526.3</ele>
        <time>2020-04-16T18:45:22Z</time>
      </trkpt>
      <trkpt lat="42.8152210" lon="-7.6682840">
        <ele>526.6</ele>
        <time>2020-04-16T18:45:24Z</time>
      </trkpt>
      <trkpt lat="42.8152510" lon="-7.6683510">
        <ele>526.9</ele>
        <time>2020-04-16T18:45:26Z</time>
      </trkpt>
      <trkpt lat="42.8153740" lon="-7.6686230">
        <ele>527.8</ele>
        <time>2020-04-16T18:45:28Z</time>
      </trkpt>
      <trkpt lat="42.8154160" lon="-7.6687080">
        <ele>528.0</ele>
        <time>2020-04-16T18:45:30Z</time>
      </trkpt>
      <trkpt lat="42.8154640" lon="-7.6688040">
        <ele>528.3</ele>
        <time>2020-04-16T18:45:32Z</time>
      </trkpt>
      <trkpt lat="42.8155150" lon="-7.6689060">
        <ele>528.6</ele>
        <time>2020-04-16T18:45:34Z</time>
      </trkpt>
      <trkpt lat="42.8155680" lon="-7.6690120">
        <ele>528.8</ele>
        <time>2020-04-16T18:45:36Z</time>
      </trkpt>
      <trkpt lat="42.8157010" lon="-7.6692790">
        <ele>529.5</ele>
        <time>2020-04-16T18:45:38Z</time>
      </trkpt>
      <trkpt lat="42.8157560" lon="-7.6693900">
        <ele>529.8</ele>
        <time>2020-04-16T18:45:40Z</time>
      </trkpt>
      <trkpt lat="42.8158130" lon="-7.6695030">
        <ele>530.1</ele>
        <time>2020-04-16T18:45:42Z</time>
      </trkpt>
      <trkpt lat="42.8158700" lon="-7.6696170">
        <ele>530.4</ele>
        <time>2020-04-16T18:45:44Z</time>
      </trkpt>
      <trkpt lat="42.8160070" lon="-7.6698920">
        <ele>530.8</ele>
        <time>2020-04-16T18:45:46Z</time>
      </trkpt>
      <trkpt lat="42.8160660" lon="-7.6700100">
        <ele>531.1</ele>
        <time>2020-04-16T18:45:48Z</time>
      </trkpt>
      <trkpt lat="42.8161730" lon="-7.6702150">
        <ele>531.7</ele>
        <time>2020-04-16T18:45:50Z</time>
      </trkpt>
      <trkpt lat="42.8162310" lon="-7.6703190">
        <ele>532.1</ele>
        <time>2020-04-16T18:45:52Z</time>
      </trkpt>
      <trkpt lat="42.8162840" lon="-7.6704170">
        <ele>532.4</ele>
        <time>2020-04-16T18:45:54Z</time>
      </trkpt>
      <trkpt lat="42.8163350" lon="-7.6705100">
        <ele>532.7</ele>
        <time>2020-04-16T18:45:56Z</time>
      </trkpt>
      <trkpt lat="42.8164770" lon="-7.6707670">
        <ele>533.5</ele>
        <time>2020-04-16T18:45:58Z</time>
      </trkpt>
      <trkpt lat="42.8165230" lon="-7.6708510">
        <ele>533.7</ele>
        <time>2020-04-16T18:46:00Z</time>
      </trkpt>
      <trkpt lat="42.8165670" lon="-7.6709300">
        <ele>534.0</ele>
        <time>2020-04-16T18:46:02Z</time>
      </trkpt>
      <trkpt lat="42.8166090" lon="-7.6710060">
        <ele>534.2</ele>
        <time>2020-04-16T18:46:04Z</time>
      </trkpt>
      <trkpt lat="42.8166490" lon="-7.6710790">
        <ele>534.4</ele>
        <time>2020-04-16T18:46:06Z</time>
      </trkpt>
      <trkpt lat="42.8166890" lon="-7.6711510">
        <ele>534.7</ele>
        <time>2020-04-16T18:46:08Z</time>
      </trkpt>
      <trkpt lat="42.8168130" lon="-7.6713750">
        <ele>535.5</ele>
        <time>2020-04-16T18:46:10Z</time>
      </trkpt>
      <trkpt lat="42.8168520" lon="-7.6714440">
        <ele>535.7</ele>
        <time>2020-04-16T18:46:12Z</time>
      </trkpt>
      <trkpt lat="42.8168900" lon="-7.6715130">
        <ele>535.9</ele>
        <time>2020-04-16T18:46:14Z</time>
      </trkpt>
      <trkpt lat="42.8169290" lon="-7.6715820">
        <ele>536.2</ele>
        <time>2020-04-16T18:46:16Z</time>
      </trkpt>
      <trkpt lat="42.8170270" lon="-7.6717560">
        <ele>536.7</ele>
        <time>2020-04-16T18:46:18Z</time>
      </trkpt>
      <trkpt lat="42.8170680" lon="-7.6718300">
        <ele>536.9</ele>
        <time>2020-04-16T18:46:20Z</time>
      </trkpt>
      <trkpt lat="42.8171120" lon="-7.6719090">
        <ele>537.3</ele>
        <time>2020-04-16T18:46:22Z</time>
      </trkpt>
      <trkpt lat="42.8171580" lon="-7.6719910">
        <ele>537.8</ele>
        <time>2020-04-16T18:46:24Z</time>
      </trkpt>
      <trkpt lat="42.8172050" lon="-7.6720750">
        <ele>538.3</ele>
        <time>2020-04-16T18:46:26Z</time>
      </trkpt>
      <trkpt lat="42.8172530" lon="-7.6721600">
        <ele>538.9</ele>
        <time>2020-04-16T18:46:28Z</time>
      </trkpt>
      <trkpt lat="42.8173010" lon="-7.6722460">
        <ele>539.5</ele>
        <time>2020-04-16T18:46:30Z</time>
      </trkpt>
      <trkpt lat="42.8174670" lon="-7.6725410">
        <ele>541.1</ele>
        <time>2020-04-16T18:46:32Z</time>
      </trkpt>
      <trkpt lat="42.8175160" lon="-7.6726280">
        <ele>541.3</ele>
        <time>2020-04-16T18:46:34Z</time>
      </trkpt>
      <trkpt lat="42.8175930" lon="-7.6727650">
        <ele>541.8</ele>
        <time>2020-04-16T18:46:36Z</time>
      </trkpt>
      <trkpt lat="42.8176420" lon="-7.6728530">
        <ele>542.1</ele>
        <time>2020-04-16T18:46:38Z</time>
      </trkpt>
      <trkpt lat="42.8176910" lon="-7.6729400">
        <ele>542.5</ele>
        <time>2020-04-16T18:46:40Z</time>
      </trkpt>
      <trkpt lat="42.8177390" lon="-7.6730260">
        <ele>542.9</ele>
        <time>2020-04-16T18:46:42Z</time>
      </trkpt>
      <trkpt lat="42.8178660" lon="-7.6732520">
        <ele>543.7</ele>
        <time>2020-04-16T18:46:44Z</time>
      </trkpt>
      <trkpt lat="42.8179160" lon="-7.6733430">
        <ele>543.9</ele>
        <time>2020-04-16T18:46:46Z</time>
      </trkpt>
      <trkpt lat="42.8179710" lon="-7.6734430">
        <ele>544.2</ele>
        <time>2020-04-16T18:46:48Z</time>
      </trkpt>
      <trkpt lat="42.8180300" lon="-7.6735490">
        <ele>544.4</ele>
        <time>2020-04-16T18:46:50Z</time>
      </trkpt>
      <trkpt lat="42.8181580" lon="-7.6737820">
        <ele>544.7</ele>
        <time>2020-04-16T18:46:52Z</time>
      </trkpt>
      <trkpt lat="42.8182250" lon="-7.6739030">
        <ele>544.7</ele>
        <time>2020-04-16T18:46:54Z</time>
      </trkpt>
      <trkpt lat="42.8182940" lon="-7.6740280">
        <ele>544.6</ele>
        <time>2020-04-16T18:46:56Z</time>
      </trkpt>
      <trkpt lat="42.8183660" lon="-7.6741580">
        <ele>544.5</ele>
        <time>2020-04-16T18:46:58Z</time>
      </trkpt>
      <trkpt lat="42.8184400" lon="-7.6742940">
        <ele>544.4</ele>
        <time>2020-04-16T18:47:00Z</time>
      </trkpt>
      <trkpt lat="42.8186600" lon="-7.6746910">
        <ele>543.9</ele>
        <time>2020-04-16T18:47:02Z</time>
      </trkpt>
      <trkpt lat="42.8187340" lon="-7.6748250">
        <ele>543.7</ele>
        <time>2020-04-16T18:47:04Z</time>
      </trkpt>
      <trkpt lat="42.8188040" lon="-7.6749520">
        <ele>543.5</ele>
        <time>2020-04-16T18:47:06Z</time>
      </trkpt>
      <trkpt lat="42.8188710" lon="-7.6750720">
        <ele>543.4</ele>
        <time>2020-04-16T18:47:08Z</time>
      </trkpt>
      <trkpt lat="42.8189340" lon="-7.6751860">
        <ele>543.2</ele>
        <time>2020-04-16T18:47:10Z</time>
      </trkpt>
      <trkpt lat="42.8189940" lon="-7.6752950">
        <ele>543.0</ele>
        <time>2020-04-16T18:47:12Z</time>
      </trkpt>
      <trkpt lat="42.8191960" lon="-7.6756600">
        <ele>542.3</ele>
        <time>2020-04-16T18:47:14Z</time>
      </trkpt>
      <trkpt lat="42.8192530" lon="-7.6757630">
        <ele>542.1</ele>
        <time>2020-04-16T18:47:16Z</time>
      </trkpt>
      <trkpt lat="42.8193080" lon="-7.6758630">
        <ele>541.9</ele>
        <time>2020-04-16T18:47:18Z</time>
      </trkpt>
      <trkpt lat="42.8194190" lon="-7.6760620">
        <ele>541.6</ele>
        <time>2020-04-16T18:47:20Z</time>
      </trkpt>
      <trkpt lat="42.8194710" lon="-7.6761550">
        <ele>541.4</ele>
        <time>2020-04-16T18:47:22Z</time>
      </trkpt>
      <trkpt lat="42.8195230" lon="-7.6762470">
        <ele>541.3</ele>
        <time>2020-04-16T18:47:24Z</time>
      </trkpt>
      <trkpt lat="42.8195730" lon="-7.6763360">
        <ele>541.2</ele>
        <time>2020-04-16T18:47:26Z</time>
      </trkpt>
      <trkpt lat="42.8196990" lon="-7.6765590">
        <ele>541.1</ele>
        <time>2020-04-16T18:47:28Z</time>
      </trkpt>
      <trkpt lat="42.8197630" lon="-7.6766760">
        <ele>541.1</ele>
        <time>2020-04-16T18:47:30Z</time>
      </trkpt>
      <trkpt lat="42.8198190" lon="-7.6767770">
        <ele>541.0</ele>
        <time>2020-04-16T18:47:32Z</time>
      </trkpt>
      <trkpt lat="42.8198790" lon="-7.6768860">
        <ele>541.0</ele>
        <time>2020-04-16T18:47:34Z</time>
      </trkpt>
      <trkpt lat="42.8199430" lon="-7.6770010">
        <ele>541.0</ele>
        <time>2020-04-16T18:47:36Z</time>
      </trkpt>
      <trkpt lat="42.8200090" lon="-7.6771200">
        <ele>541.0</ele>
        <time>2020-04-16T18:47:38Z</time>
      </trkpt>
      <trkpt lat="42.8200770" lon="-7.6772430">
        <ele>541.0</ele>
        <time>2020-04-16T18:47:40Z</time>
      </trkpt>
      <trkpt lat="42.8202910" lon="-7.6776310">
        <ele>541.2</ele>
        <time>2020-04-16T18:47:42Z</time>
      </trkpt>
      <trkpt lat="42.8203560" lon="-7.6777480">
        <ele>541.3</ele>
        <time>2020-04-16T18:47:44Z</time>
      </trkpt>
      <trkpt lat="42.8204130" lon="-7.6778530">
        <ele>541.4</ele>
        <time>2020-04-16T18:47:46Z</time>
      </trkpt>
      <trkpt lat="42.8204650" lon="-7.6779460">
        <ele>541.5</ele>
        <time>2020-04-16T18:47:48Z</time>
      </trkpt>
      <trkpt lat="42.8205120" lon="-7.6780310">
        <ele>541.6</ele>
        <time>2020-04-16T18:47:50Z</time>
      </trkpt>
      <trkpt lat="42.8205540" lon="-7.6781070">
        <ele>541.7</ele>
        <time>2020-04-16T18:47:52Z</time>
      </trkpt>
      <trkpt lat="42.8205930" lon="-7.6781760">
        <ele>541.8</ele>
        <time>2020-04-16T18:47:54Z</time>
      </trkpt>
      <trkpt lat="42.8206280" lon="-7.6782400">
        <ele>541.9</ele>
        <time>2020-04-16T18:47:56Z</time>
      </trkpt>
      <trkpt lat="42.8208040" lon="-7.6785580">
        <ele>542.8</ele>
        <time>2020-04-16T18:47:58Z</time>
      </trkpt>
      <trkpt lat="42.8208340" lon="-7.6786180">
        <ele>543.0</ele>
        <time>2020-04-16T18:48:00Z</time>
      </trkpt>
      <trkpt lat="42.8208610" lon="-7.6786740">
        <ele>543.1</ele>
        <time>2020-04-16T18:48:02Z</time>
      </trkpt>
      <trkpt lat="42.8208880" lon="-7.6787280">
        <ele>543.3</ele>
        <time>2020-04-16T18:48:04Z</time>
      </trkpt>
      <trkpt lat="42.8209150" lon="-7.6787810">
        <ele>543.4</ele>
        <time>2020-04-16T18:48:06Z</time>
      </trkpt>
      <trkpt lat="42.8209840" lon="-7.6789220">
        <ele>543.8</ele>
        <time>2020-04-16T18:48:08Z</time>
      </trkpt>
      <trkpt lat="42.8210170" lon="-7.6789910">
        <ele>544.0</ele>
        <time>2020-04-16T18:48:10Z</time>
      </trkpt>
      <trkpt lat="42.8210700" lon="-7.6791210">
        <ele>544.3</ele>
        <time>2020-04-16T18:48:12Z</time>
      </trkpt>
      <trkpt lat="42.8211140" lon="-7.6792630">
        <ele>544.4</ele>
        <time>2020-04-16T18:48:14Z</time>
      </trkpt>
      <trkpt lat="42.8211440" lon="-7.6793720">
        <ele>544.4</ele>
        <time>2020-04-16T18:48:16Z</time>
      </trkpt>
      <trkpt lat="42.8211750" lon="-7.6794890">
        <ele>544.4</ele>
        <time>2020-04-16T18:48:18Z</time>
      </trkpt>
      <trkpt lat="42.8212260" lon="-7.6797180">
        <ele>544.2</ele>
        <time>2020-04-16T18:48:20Z</time>
      </trkpt>
      <trkpt lat="42.8212510" lon="-7.6798520">
        <ele>543.9</ele>
        <time>2020-04-16T18:48:22Z</time>
      </trkpt>
      <trkpt lat="42.8213030" lon="-7.6801370">
        <ele>543.2</ele>
        <time>2020-04-16T18:48:24Z</time>
      </trkpt>
      <trkpt lat="42.8213250" lon="-7.6802860">
        <ele>542.7</ele>
        <time>2020-04-16T18:48:26Z</time>
      </trkpt>
      <trkpt lat="42.8213480" lon="-7.6804370">
        <ele>542.2</ele>
        <time>2020-04-16T18:48:28Z</time>
      </trkpt>
      <trkpt lat="42.8213710" lon="-7.6805910">
        <ele>541.7</ele>
        <time>2020-04-16T18:48:30Z</time>
      </trkpt>
      <trkpt lat="42.8213950" lon="-7.6807480">
        <ele>541.1</ele>
        <time>2020-04-16T18:48:32Z</time>
      </trkpt>
      <trkpt lat="42.8214190" lon="-7.6809080">
        <ele>540.5</ele>
        <time>2020-04-16T18:48:34Z</time>
      </trkpt>
      <trkpt lat="42.8214880" lon="-7.6813640">
        <ele>538.8</ele>
        <time>2020-04-16T18:48:36Z</time>
      </trkpt>
      <trkpt lat="42.8215140" lon="-7.6815310">
        <ele>538.2</ele>
        <time>2020-04-16T18:48:38Z</time>
      </trkpt>
      <trkpt lat="42.8215390" lon="-7.6816990">
        <ele>537.6</ele>
        <time>2020-04-16T18:48:40Z</time>
      </trkpt>
      <trkpt lat="42.8215650" lon="-7.6818690">
        <ele>537.1</ele>
        <time>2020-04-16T18:48:42Z</time>
      </trkpt>
      <trkpt lat="42.8215910" lon="-7.6820390">
        <ele>536.5</ele>
        <time>2020-04-16T18:48:44Z</time>
      </trkpt>
      <trkpt lat="42.8216610" lon="-7.6825060">
        <ele>535.4</ele>
        <time>2020-04-16T18:48:46Z</time>
      </trkpt>
      <trkpt lat="42.8216880" lon="-7.6826820">
        <ele>535.0</ele>
        <time>2020-04-16T18:48:48Z</time>
      </trkpt>
      <trkpt lat="42.8217150" lon="-7.6828600">
        <ele>534.6</ele>
        <time>2020-04-16T18:48:50Z</time>
      </trkpt>
      <trkpt lat="42.8217420" lon="-7.6830420">
        <ele>534.4</ele>
        <time>2020-04-16T18:48:52Z</time>
      </trkpt>
      <trkpt lat="42.8218140" lon="-7.6835210">
        <ele>534.3</ele>
        <time>2020-04-16T18:48:54Z</time>
      </trkpt>
      <trkpt lat="42.8218430" lon="-7.6837080">
        <ele>534.4</ele>
        <time>2020-04-16T18:48:56Z</time>
      </trkpt>
      <trkpt lat="42.8218710" lon="-7.6838980">
        <ele>534.7</ele>
        <time>2020-04-16T18:48:58Z</time>
      </trkpt>
      <trkpt lat="42.8219010" lon="-7.6840910">
        <ele>535.0</ele>
        <time>2020-04-16T18:49:00Z</time>
      </trkpt>
      <trkpt lat="42.8219750" lon="-7.6845780">
        <ele>535.5</ele>
        <time>2020-04-16T18:49:02Z</time>
      </trkpt>
      <trkpt lat="42.8220070" lon="-7.6847750">
        <ele>535.7</ele>
        <time>2020-04-16T18:49:04Z</time>
      </trkpt>
      <trkpt lat="42.8220380" lon="-7.6849740">
        <ele>536.0</ele>
        <time>2020-04-16T18:49:06Z</time>
      </trkpt>
      <trkpt lat="42.8220700" lon="-7.6851760">
        <ele>536.1</ele>
        <time>2020-04-16T18:49:08Z</time>
      </trkpt>
      <trkpt lat="42.8221490" lon="-7.6856730">
        <ele>535.6</ele>
        <time>2020-04-16T18:49:10Z</time>
      </trkpt>
      <trkpt lat="42.8222080" lon="-7.6859420">
        <ele>535.1</ele>
        <time>2020-04-16T18:49:12Z</time>
      </trkpt>
      <trkpt lat="42.8222850" lon="-7.6861900">
        <ele>534.5</ele>
        <time>2020-04-16T18:49:14Z</time>
      </trkpt>
      <trkpt lat="42.8223900" lon="-7.6864640">
        <ele>533.5</ele>
        <time>2020-04-16T18:49:16Z</time>
      </trkpt>
      <trkpt lat="42.8225130" lon="-7.6867120">
        <ele>532.5</ele>
        <time>2020-04-16T18:49:18Z</time>
      </trkpt>
      <trkpt lat="42.8226080" lon="-7.6868780">
        <ele>531.7</ele>
        <time>2020-04-16T18:49:20Z</time>
      </trkpt>
      <trkpt lat="42.8226970" lon="-7.6870330">
        <ele>531.1</ele>
        <time>2020-04-16T18:49:22Z</time>
      </trkpt>
      <trkpt lat="42.8227820" lon="-7.6871800">
        <ele>530.5</ele>
        <time>2020-04-16T18:49:24Z</time>
      </trkpt>
      <trkpt lat="42.8228620" lon="-7.6873200">
        <ele>529.9</ele>
        <time>2020-04-16T18:49:26Z</time>
      </trkpt>
      <trkpt lat="42.8230770" lon="-7.6876940">
        <ele>528.7</ele>
        <time>2020-04-16T18:49:28Z</time>
      </trkpt>
      <trkpt lat="42.8231500" lon="-7.6878220">
        <ele>528.4</ele>
        <time>2020-04-16T18:49:30Z</time>
      </trkpt>
      <trkpt lat="42.8232210" lon="-7.6879460">
        <ele>528.3</ele>
        <time>2020-04-16T18:49:32Z</time>
      </trkpt>
      <trkpt lat="42.8233810" lon="-7.6882250">
        <ele>528.2</ele>
        <time>2020-04-16T18:49:34Z</time>
      </trkpt>
      <trkpt lat="42.8234530" lon="-7.6883520">
        <ele>528.2</ele>
        <time>2020-04-16T18:49:36Z</time>
      </trkpt>
      <trkpt lat="42.8235780" lon="-7.6885700">
        <ele>528.2</ele>
        <time>2020-04-16T18:49:38Z</time>
      </trkpt>
      <trkpt lat="42.8236600" lon="-7.6887120">
        <ele>528.4</ele>
        <time>2020-04-16T18:49:40Z</time>
      </trkpt>
      <trkpt lat="42.8237470" lon="-7.6888640">
        <ele>528.6</ele>
        <time>2020-04-16T18:49:42Z</time>
      </trkpt>
      <trkpt lat="42.8238370" lon="-7.6890200">
        <ele>529.0</ele>
        <time>2020-04-16T18:49:44Z</time>
      </trkpt>
      <trkpt lat="42.8240660" lon="-7.6894220">
        <ele>530.1</ele>
        <time>2020-04-16T18:49:46Z</time>
      </trkpt>
      <trkpt lat="42.8241500" lon="-7.6895790">
        <ele>530.6</ele>
        <time>2020-04-16T18:49:48Z</time>
      </trkpt>
      <trkpt lat="42.8242280" lon="-7.6897250">
        <ele>531.0</ele>
        <time>2020-04-16T18:49:50Z</time>
      </trkpt>
      <trkpt lat="42.8243800" lon="-7.6900070">
        <ele>532.0</ele>
        <time>2020-04-16T18:49:52Z</time>
      </trkpt>
      <trkpt lat="42.8244720" lon="-7.6901800">
        <ele>532.7</ele>
        <time>2020-04-16T18:49:54Z</time>
      </trkpt>
      <trkpt lat="42.8245560" lon="-7.6903450">
        <ele>533.3</ele>
        <time>2020-04-16T18:49:56Z</time>
      </trkpt>
      <trkpt lat="42.8246330" lon="-7.6905130">
        <ele>533.9</ele>
        <time>2020-04-16T18:49:58Z</time>
      </trkpt>
      <trkpt lat="42.8246730" lon="-7.6906260">
        <ele>534.2</ele>
        <time>2020-04-16T18:50:00Z</time>
      </trkpt>
      <trkpt lat="42.8247100" lon="-7.6907320">
        <ele>534.6</ele>
        <time>2020-04-16T18:50:02Z</time>
      </trkpt>
      <trkpt lat="42.8247450" lon="-7.6908320">
        <ele>534.9</ele>
        <time>2020-04-16T18:50:04Z</time>
      </trkpt>
      <trkpt lat="42.8248160" lon="-7.6910450">
        <ele>535.8</ele>
        <time>2020-04-16T18:50:06Z</time>
      </trkpt>
      <trkpt lat="42.8248430" lon="-7.6911340">
        <ele>536.2</ele>
        <time>2020-04-16T18:50:08Z</time>
      </trkpt>
      <trkpt lat="42.8248690" lon="-7.6912160">
        <ele>536.5</ele>
        <time>2020-04-16T18:50:10Z</time>
      </trkpt>
      <trkpt lat="42.8248930" lon="-7.6912940">
        <ele>536.9</ele>
        <time>2020-04-16T18:50:12Z</time>
      </trkpt>
      <trkpt lat="42.8249160" lon="-7.6913680">
        <ele>537.2</ele>
        <time>2020-04-16T18:50:14Z</time>
      </trkpt>
      <trkpt lat="42.8249370" lon="-7.6914390">
        <ele>537.5</ele>
        <time>2020-04-16T18:50:16Z</time>
      </trkpt>
      <trkpt lat="42.8249580" lon="-7.6915070">
        <ele>537.9</ele>
        <time>2020-04-16T18:50:18Z</time>
      </trkpt>
      <trkpt lat="42.8249790" lon="-7.6915730">
        <ele>538.2</ele>
        <time>2020-04-16T18:50:20Z</time>
      </trkpt>
      <trkpt lat="42.8249990" lon="-7.6916400">
        <ele>538.4</ele>
        <time>2020-04-16T18:50:22Z</time>
      </trkpt>
      <trkpt lat="42.8250960" lon="-7.6919550">
        <ele>539.6</ele>
        <time>2020-04-16T18:50:24Z</time>
      </trkpt>
      <trkpt lat="42.8251180" lon="-7.6920240">
        <ele>539.8</ele>
        <time>2020-04-16T18:50:26Z</time>
      </trkpt>
      <trkpt lat="42.8251390" lon="-7.6920920">
        <ele>540.0</ele>
        <time>2020-04-16T18:50:28Z</time>
      </trkpt>
      <trkpt lat="42.8251600" lon="-7.6921600">
        <ele>540.2</ele>
        <time>2020-04-16T18:50:30Z</time>
      </trkpt>
      <trkpt lat="42.8252140" lon="-7.6923380">
        <ele>540.8</ele>
        <time>2020-04-16T18:50:32Z</time>
      </trkpt>
      <trkpt lat="42.8252420" lon="-7.6924270">
        <ele>541.2</ele>
        <time>2020-04-16T18:50:34Z</time>
      </trkpt>
      <trkpt lat="42.8252730" lon="-7.6925270">
        <ele>541.6</ele>
        <time>2020-04-16T18:50:36Z</time>
      </trkpt>
      <trkpt lat="42.8253060" lon="-7.6926350">
        <ele>542.1</ele>
        <time>2020-04-16T18:50:38Z</time>
      </trkpt>
      <trkpt lat="42.8253850" lon="-7.6928930">
        <ele>543.3</ele>
        <time>2020-04-16T18:50:40Z</time>
      </trkpt>
      <trkpt lat="42.8254200" lon="-7.6930080">
        <ele>543.8</ele>
        <time>2020-04-16T18:50:42Z</time>
      </trkpt>
      <trkpt lat="42.8254570" lon="-7.6931260">
        <ele>544.3</ele>
        <time>2020-04-16T18:50:44Z</time>
      </trkpt>
      <trkpt lat="42.8254930" lon="-7.6932450">
        <ele>544.7</ele>
        <time>2020-04-16T18:50:46Z</time>
      </trkpt>
      <trkpt lat="42.8255300" lon="-7.6933660">
        <ele>545.1</ele>
        <time>2020-04-16T18:50:48Z</time>
      </trkpt>
      <trkpt lat="42.8256320" lon="-7.6936990">
        <ele>546.0</ele>
        <time>2020-04-16T18:50:50Z</time>
      </trkpt>
      <trkpt lat="42.8256830" lon="-7.6938640">
        <ele>546.3</ele>
        <time>2020-04-16T18:50:52Z</time>
      </trkpt>
      <trkpt lat="42.8257230" lon="-7.6939960">
        <ele>546.7</ele>
        <time>2020-04-16T18:50:54Z</time>
      </trkpt>
      <trkpt lat="42.8257650" lon="-7.6941330">
        <ele>547.1</ele>
        <time>2020-04-16T18:50:56Z</time>
      </trkpt>
      <trkpt lat="42.8258090" lon="-7.6942770">
        <ele>547.4</ele>
        <time>2020-04-16T18:50:58Z</time>
      </trkpt>
      <trkpt lat="42.8259220" lon="-7.6946470">
        <ele>548.0</ele>
        <time>2020-04-16T18:51:00Z</time>
      </trkpt>
      <trkpt lat="42.8259790" lon="-7.6948280">
        <ele>548.4</ele>
        <time>2020-04-16T18:51:02Z</time>
      </trkpt>
      <trkpt lat="42.8260270" lon="-7.6949820">
        <ele>548.8</ele>
        <time>2020-04-16T18:51:04Z</time>
      </trkpt>
      <trkpt lat="42.8260760" lon="-7.6951400">
        <ele>549.2</ele>
        <time>2020-04-16T18:51:06Z</time>
      </trkpt>
      <trkpt lat="42.8261270" lon="-7.6953020">
        <ele>549.6</ele>
        <time>2020-04-16T18:51:08Z</time>
      </trkpt>
      <trkpt lat="42.8262620" lon="-7.6957080">
        <ele>550.7</ele>
        <time>2020-04-16T18:51:10Z</time>
      </trkpt>
      <trkpt lat="42.8263260" lon="-7.6958480">
        <ele>551.0</ele>
        <time>2020-04-16T18:51:12Z</time>
      </trkpt>
      <trkpt lat="42.8263850" lon="-7.6959760">
        <ele>551.4</ele>
        <time>2020-04-16T18:51:14Z</time>
      </trkpt>
      <trkpt lat="42.8264390" lon="-7.6960950">
        <ele>551.7</ele>
        <time>2020-04-16T18:51:16Z</time>
      </trkpt>
      <trkpt lat="42.8265740" lon="-7.6963640">
        <ele>552.2</ele>
        <time>2020-04-16T18:51:18Z</time>
      </trkpt>
      <trkpt lat="42.8266300" lon="-7.6964580">
        <ele>552.3</ele>
        <time>2020-04-16T18:51:20Z</time>
      </trkpt>
      <trkpt lat="42.8266830" lon="-7.6965460">
        <ele>552.5</ele>
        <time>2020-04-16T18:51:22Z</time>
      </trkpt>
      <trkpt lat="42.8267320" lon="-7.6966290">
        <ele>552.7</ele>
        <time>2020-04-16T18:51:24Z</time>
      </trkpt>
      <trkpt lat="42.8267790" lon="-7.6967080">
        <ele>552.8</ele>
        <time>2020-04-16T18:51:26Z</time>
      </trkpt>
      <trkpt lat="42.8268250" lon="-7.6967840">
        <ele>553.0</ele>
        <time>2020-04-16T18:51:28Z</time>
      </trkpt>
      <trkpt lat="42.8268680" lon="-7.6968570">
        <ele>553.2</ele>
        <time>2020-04-16T18:51:30Z</time>
      </trkpt>
      <trkpt lat="42.8269690" lon="-7.6971720">
        <ele>553.9</ele>
        <time>2020-04-16T18:51:32Z</time>
      </trkpt>
      <trkpt lat="42.8269620" lon="-7.6972840">
        <ele>553.9</ele>
        <time>2020-04-16T18:51:34Z</time>
      </trkpt>
      <trkpt lat="42.8269570" lon="-7.6973820">
        <ele>554.0</ele>
        <time>2020-04-16T18:51:36Z</time>
      </trkpt>
      <trkpt lat="42.8269510" lon="-7.6974870">
        <ele>554.1</ele>
        <time>2020-04-16T18:51:38Z</time>
      </trkpt>
      <trkpt lat="42.8269190" lon="-7.6976840">
        <ele>554.3</ele>
        <time>2020-04-16T18:51:40Z</time>
      </trkpt>
      <trkpt lat="42.8268710" lon="-7.6978280">
        <ele>554.7</ele>
        <time>2020-04-16T18:51:42Z</time>
      </trkpt>
      <trkpt lat="42.8268140" lon="-7.6979760">
        <ele>555.3</ele>
        <time>2020-04-16T18:51:44Z</time>
      </trkpt>
      <trkpt lat="42.8267690" lon="-7.6981170">
        <ele>555.9</ele>
        <time>2020-04-16T18:51:46Z</time>
      </trkpt>
      <trkpt lat="42.8267750" lon="-7.6982610">
        <ele>556.6</ele>
        <time>2020-04-16T18:51:48Z</time>
      </trkpt>
      <trkpt lat="42.8268230" lon="-7.6983630">
        <ele>557.4</ele>
        <time>2020-04-16T18:51:50Z</time>
      </trkpt>
      <trkpt lat="42.8268980" lon="-7.6985330">
        <ele>558.8</ele>
        <time>2020-04-16T18:51:52Z</time>
      </trkpt>
      <trkpt lat="42.8269530" lon="-7.6986860">
        <ele>559.9</ele>
        <time>2020-04-16T18:51:54Z</time>
      </trkpt>
      <trkpt lat="42.8270090" lon="-7.6988030">
        <ele>560.6</ele>
        <time>2020-04-16T18:51:56Z</time>
      </trkpt>
      <trkpt lat="42.8270600" lon="-7.6988860">
        <ele>561.3</ele>
        <time>2020-04-16T18:51:58Z</time>
      </trkpt>
      <trkpt lat="42.8271560" lon="-7.6990240">
        <ele>562.7</ele>
        <time>2020-04-16T18:52:00Z</time>
      </trkpt>
      <trkpt lat="42.8272160" lon="-7.6990830">
        <ele>563.3</ele>
        <time>2020-04-16T18:52:02Z</time>
      </trkpt>
      <trkpt lat="42.8273130" lon="-7.6991790">
        <ele>564.0</ele>
        <time>2020-04-16T18:52:04Z</time>
      </trkpt>
      <trkpt lat="42.8273710" lon="-7.6992360">
        <ele>564.4</ele>
        <time>2020-04-16T18:52:06Z</time>
      </trkpt>
      <trkpt lat="42.8274520" lon="-7.6993450">
        <ele>565.0</ele>
        <time>2020-04-16T18:52:08Z</time>
      </trkpt>
      <trkpt lat="42.8275110" lon="-7.6994480">
        <ele>565.5</ele>
        <time>2020-04-16T18:52:10Z</time>
      </trkpt>
      <trkpt lat="42.8275440" lon="-7.6995080">
        <ele>565.8</ele>
        <time>2020-04-16T18:52:12Z</time>
      </trkpt>
      <trkpt lat="42.8275740" lon="-7.6995610">
        <ele>566.1</ele>
        <time>2020-04-16T18:52:14Z</time>
      </trkpt>
      <trkpt lat="42.8276400" lon="-7.6996690">
        <ele>566.7</ele>
        <time>2020-04-16T18:52:16Z</time>
      </trkpt>
      <trkpt lat="42.8276710" lon="-7.6997100">
        <ele>567.0</ele>
        <time>2020-04-16T18:52:18Z</time>
      </trkpt>
      <trkpt lat="42.8277000" lon="-7.6997490">
        <ele>567.3</ele>
        <time>2020-04-16T18:52:20Z</time>
      </trkpt>
      <trkpt lat="42.8277270" lon="-7.6997860">
        <ele>567.5</ele>
        <time>2020-04-16T18:52:22Z</time>
      </trkpt>
      <trkpt lat="42.8277570" lon="-7.6998260">
        <ele>567.8</ele>
        <time>2020-04-16T18:52:24Z</time>
      </trkpt>
      <trkpt lat="42.8277880" lon="-7.6998680">
        <ele>568.1</ele>
        <time>2020-04-16T18:52:26Z</time>
      </trkpt>
      <trkpt lat="42.8278210" lon="-7.6999120">
        <ele>568.4</ele>
        <time>2020-04-16T18:52:28Z</time>
      </trkpt>
      <trkpt lat="42.8279400" lon="-7.7000720">
        <ele>569.3</ele>
        <time>2020-04-16T18:52:30Z</time>
      </trkpt>
      <trkpt lat="42.8279740" lon="-7.7001180">
        <ele>569.5</ele>
        <time>2020-04-16T18:52:32Z</time>
      </trkpt>
      <trkpt lat="42.8280080" lon="-7.7001640">
        <ele>569.7</ele>
        <time>2020-04-16T18:52:34Z</time>
      </trkpt>
      <trkpt lat="42.8280420" lon="-7.7002100">
        <ele>569.9</ele>
        <time>2020-04-16T18:52:36Z</time>
      </trkpt>
      <trkpt lat="42.8280770" lon="-7.7002560">
        <ele>570.2</ele>
        <time>2020-04-16T18:52:38Z</time>
      </trkpt>
      <trkpt lat="42.8281110" lon="-7.7003010">
        <ele>570.6</ele>
        <time>2020-04-16T18:52:40Z</time>
      </trkpt>
      <trkpt lat="42.8282200" lon="-7.7004490">
        <ele>571.7</ele>
        <time>2020-04-16T18:52:42Z</time>
      </trkpt>
      <trkpt lat="42.8282460" lon="-7.7005010">
        <ele>572.0</ele>
        <time>2020-04-16T18:52:44Z</time>
      </trkpt>
      <trkpt lat="42.8282720" lon="-7.7005510">
        <ele>572.4</ele>
        <time>2020-04-16T18:52:46Z</time>
      </trkpt>
      <trkpt lat="42.8282980" lon="-7.7006010">
        <ele>572.7</ele>
        <time>2020-04-16T18:52:48Z</time>
      </trkpt>
      <trkpt lat="42.8283240" lon="-7.7006510">
        <ele>573.0</ele>
        <time>2020-04-16T18:52:50Z</time>
      </trkpt>
      <trkpt lat="42.8283490" lon="-7.7007010">
        <ele>573.3</ele>
        <time>2020-04-16T18:52:52Z</time>
      </trkpt>
      <trkpt lat="42.8284300" lon="-7.7008520">
        <ele>574.3</ele>
        <time>2020-04-16T18:52:54Z</time>
      </trkpt>
      <trkpt lat="42.8284610" lon="-7.7008960">
        <ele>574.5</ele>
        <time>2020-04-16T18:52:56Z</time>
      </trkpt>
      <trkpt lat="42.8284910" lon="-7.7009410">
        <ele>574.8</ele>
        <time>2020-04-16T18:52:58Z</time>
      </trkpt>
      <trkpt lat="42.8285220" lon="-7.7009850">
        <ele>575.1</ele>
        <time>2020-04-16T18:53:00Z</time>
      </trkpt>
      <trkpt lat="42.8285530" lon="-7.7010300">
        <ele>575.5</ele>
        <time>2020-04-16T18:53:02Z</time>
      </trkpt>
      <trkpt lat="42.8285830" lon="-7.7010740">
        <ele>575.9</ele>
        <time>2020-04-16T18:53:04Z</time>
      </trkpt>
      <trkpt lat="42.8286140" lon="-7.7011190">
        <ele>576.3</ele>
        <time>2020-04-16T18:53:06Z</time>
      </trkpt>
      <trkpt lat="42.8286450" lon="-7.7011640">
        <ele>576.7</ele>
        <time>2020-04-16T18:53:08Z</time>
      </trkpt>
      <trkpt lat="42.8286760" lon="-7.7012090">
        <ele>577.1</ele>
        <time>2020-04-16T18:53:10Z</time>
      </trkpt>
      <trkpt lat="42.8288060" lon="-7.7013840">
        <ele>578.5</ele>
        <time>2020-04-16T18:53:12Z</time>
      </trkpt>
      <trkpt lat="42.8288630" lon="-7.7014430">
        <ele>578.9</ele>
        <time>2020-04-16T18:53:14Z</time>
      </trkpt>
      <trkpt lat="42.8289100" lon="-7.7014920">
        <ele>579.1</ele>
        <time>2020-04-16T18:53:16Z</time>
      </trkpt>
      <trkpt lat="42.8289590" lon="-7.7015430">
        <ele>579.2</ele>
        <time>2020-04-16T18:53:18Z</time>
      </trkpt>
      <trkpt lat="42.8290060" lon="-7.7015920">
        <ele>579.3</ele>
        <time>2020-04-16T18:53:21Z</time>
      </trkpt>
      <trkpt lat="42.8290520" lon="-7.7016400">
        <ele>579.4</ele>
        <time>2020-04-16T18:53:23Z</time>
      </trkpt>
      <trkpt lat="42.8291800" lon="-7.7017680">
        <ele>579.5</ele>
        <time>2020-04-16T18:53:25Z</time>
      </trkpt>
      <trkpt lat="42.8292260" lon="-7.7018050">
        <ele>579.5</ele>
        <time>2020-04-16T18:53:27Z</time>
      </trkpt>
      <trkpt lat="42.8292700" lon="-7.7018410">
        <ele>579.6</ele>
        <time>2020-04-16T18:53:29Z</time>
      </trkpt>
      <trkpt lat="42.8293130" lon="-7.7018760">
        <ele>579.6</ele>
        <time>2020-04-16T18:53:31Z</time>
      </trkpt>
      <trkpt lat="42.8293560" lon="-7.7019110">
        <ele>579.7</ele>
        <time>2020-04-16T18:53:33Z</time>
      </trkpt>
      <trkpt lat="42.8293970" lon="-7.7019440">
        <ele>579.8</ele>
        <time>2020-04-16T18:53:35Z</time>
      </trkpt>
      <trkpt lat="42.8294380" lon="-7.7019780">
        <ele>579.8</ele>
        <time>2020-04-16T18:53:37Z</time>
      </trkpt>
      <trkpt lat="42.8295870" lon="-7.7021060">
        <ele>580.2</ele>
        <time>2020-04-16T18:53:39Z</time>
      </trkpt>
      <trkpt lat="42.8296320" lon="-7.7021780">
        <ele>580.4</ele>
        <time>2020-04-16T18:53:41Z</time>
      </trkpt>
      <trkpt lat="42.8296470" lon="-7.7022610">
        <ele>580.6</ele>
        <time>2020-04-16T18:53:43Z</time>
      </trkpt>
      <trkpt lat="42.8296460" lon="-7.7023270">
        <ele>580.7</ele>
        <time>2020-04-16T18:53:45Z</time>
      </trkpt>
      <trkpt lat="42.8296440" lon="-7.7023940">
        <ele>580.9</ele>
        <time>2020-04-16T18:53:47Z</time>
      </trkpt>
      <trkpt lat="42.8296430" lon="-7.7025380">
        <ele>581.4</ele>
        <time>2020-04-16T18:53:49Z</time>
      </trkpt>
      <trkpt lat="42.8296540" lon="-7.7026110">
        <ele>581.7</ele>
        <time>2020-04-16T18:53:51Z</time>
      </trkpt>
      <trkpt lat="42.8296740" lon="-7.7027400">
        <ele>582.4</ele>
        <time>2020-04-16T18:53:53Z</time>
      </trkpt>
      <trkpt lat="42.8296980" lon="-7.7028080">
        <ele>582.9</ele>
        <time>2020-04-16T18:53:55Z</time>
      </trkpt>
      <trkpt lat="42.8297440" lon="-7.7029110">
        <ele>583.6</ele>
        <time>2020-04-16T18:53:57Z</time>
      </trkpt>
      <trkpt lat="42.8297990" lon="-7.7029870">
        <ele>584.3</ele>
        <time>2020-04-16T18:53:59Z</time>
      </trkpt>
      <trkpt lat="42.8298260" lon="-7.7030520">
        <ele>584.8</ele>
        <time>2020-04-16T18:54:01Z</time>
      </trkpt>
      <trkpt lat="42.8298520" lon="-7.7031580">
        <ele>585.3</ele>
        <time>2020-04-16T18:54:03Z</time>
      </trkpt>
      <trkpt lat="42.8298570" lon="-7.7032630">
        <ele>585.7</ele>
        <time>2020-04-16T18:54:05Z</time>
      </trkpt>
      <trkpt lat="42.8298560" lon="-7.7033640">
        <ele>586.1</ele>
        <time>2020-04-16T18:54:07Z</time>
      </trkpt>
      <trkpt lat="42.8298710" lon="-7.7034330">
        <ele>586.2</ele>
        <time>2020-04-16T18:54:09Z</time>
      </trkpt>
      <trkpt lat="42.8298860" lon="-7.7035020">
        <ele>586.4</ele>
        <time>2020-04-16T18:54:11Z</time>
      </trkpt>
      <trkpt lat="42.8299010" lon="-7.7035710">
        <ele>586.6</ele>
        <time>2020-04-16T18:54:13Z</time>
      </trkpt>
      <trkpt lat="42.8299430" lon="-7.7037330">
        <ele>587.1</ele>
        <time>2020-04-16T18:54:15Z</time>
      </trkpt>
      <trkpt lat="42.8299670" lon="-7.7038020">
        <ele>587.4</ele>
        <time>2020-04-16T18:54:17Z</time>
      </trkpt>
      <trkpt lat="42.8299910" lon="-7.7038700">
        <ele>587.6</ele>
        <time>2020-04-16T18:54:19Z</time>
      </trkpt>
      <trkpt lat="42.8300150" lon="-7.7039380">
        <ele>587.9</ele>
        <time>2020-04-16T18:54:21Z</time>
      </trkpt>
      <trkpt lat="42.8300780" lon="-7.7041160">
        <ele>588.7</ele>
        <time>2020-04-16T18:54:23Z</time>
      </trkpt>
      <trkpt lat="42.8301070" lon="-7.7041790">
        <ele>589.0</ele>
        <time>2020-04-16T18:54:25Z</time>
      </trkpt>
      <trkpt lat="42.8301360" lon="-7.7042410">
        <ele>589.3</ele>
        <time>2020-04-16T18:54:27Z</time>
      </trkpt>
      <trkpt lat="42.8301630" lon="-7.7043020">
        <ele>589.6</ele>
        <time>2020-04-16T18:54:29Z</time>
      </trkpt>
      <trkpt lat="42.8301920" lon="-7.7043630">
        <ele>589.9</ele>
        <time>2020-04-16T18:54:31Z</time>
      </trkpt>
      <trkpt lat="42.8302190" lon="-7.7044240">
        <ele>590.2</ele>
        <time>2020-04-16T18:54:33Z</time>
      </trkpt>
      <trkpt lat="42.8302470" lon="-7.7044850">
        <ele>590.4</ele>
        <time>2020-04-16T18:54:35Z</time>
      </trkpt>
      <trkpt lat="42.8302750" lon="-7.7045460">
        <ele>590.7</ele>
        <time>2020-04-16T18:54:37Z</time>
      </trkpt>
      <trkpt lat="42.8303780" lon="-7.7047710">
        <ele>591.6</ele>
        <time>2020-04-16T18:54:39Z</time>
      </trkpt>
      <trkpt lat="42.8304220" lon="-7.7048650">
        <ele>592.0</ele>
        <time>2020-04-16T18:54:41Z</time>
      </trkpt>
      <trkpt lat="42.8304560" lon="-7.7049380">
        <ele>592.3</ele>
        <time>2020-04-16T18:54:43Z</time>
      </trkpt>
      <trkpt lat="42.8304930" lon="-7.7050150">
        <ele>592.5</ele>
        <time>2020-04-16T18:54:45Z</time>
      </trkpt>
      <trkpt lat="42.8305290" lon="-7.7050910">
        <ele>592.6</ele>
        <time>2020-04-16T18:54:47Z</time>
      </trkpt>
      <trkpt lat="42.8305640" lon="-7.7051640">
        <ele>592.8</ele>
        <time>2020-04-16T18:54:49Z</time>
      </trkpt>
      <trkpt lat="42.8306650" lon="-7.7053620">
        <ele>593.1</ele>
        <time>2020-04-16T18:54:51Z</time>
      </trkpt>
      <trkpt lat="42.8307070" lon="-7.7054230">
        <ele>593.2</ele>
        <time>2020-04-16T18:54:53Z</time>
      </trkpt>
      <trkpt lat="42.8307840" lon="-7.7054870">
        <ele>593.4</ele>
        <time>2020-04-16T18:54:55Z</time>
      </trkpt>
      <trkpt lat="42.8308600" lon="-7.7055490">
        <ele>593.5</ele>
        <time>2020-04-16T18:54:57Z</time>
      </trkpt>
      <trkpt lat="42.8308730" lon="-7.7056270">
        <ele>593.5</ele>
        <time>2020-04-16T18:54:59Z</time>
      </trkpt>
      <trkpt lat="42.8308870" lon="-7.7057060">
        <ele>593.5</ele>
        <time>2020-04-16T18:55:01Z</time>
      </trkpt>
      <trkpt lat="42.8309160" lon="-7.7058650">
        <ele>593.5</ele>
        <time>2020-04-16T18:55:03Z</time>
      </trkpt>
      <trkpt lat="42.8309320" lon="-7.7059400">
        <ele>593.5</ele>
        <time>2020-04-16T18:55:05Z</time>
      </trkpt>
      <trkpt lat="42.8309480" lon="-7.7060140">
        <ele>593.5</ele>
        <time>2020-04-16T18:55:07Z</time>
      </trkpt>
      <trkpt lat="42.8309840" lon="-7.7061700">
        <ele>593.5</ele>
        <time>2020-04-16T18:55:09Z</time>
      </trkpt>
      <trkpt lat="42.8310090" lon="-7.7062490">
        <ele>593.5</ele>
        <time>2020-04-16T18:55:11Z</time>
      </trkpt>
      <trkpt lat="42.8310340" lon="-7.7063310">
        <ele>593.5</ele>
        <time>2020-04-16T18:55:13Z</time>
      </trkpt>
      <trkpt lat="42.8310600" lon="-7.7064150">
        <ele>593.5</ele>
        <time>2020-04-16T18:55:15Z</time>
      </trkpt>
      <trkpt lat="42.8311210" lon="-7.7066150">
        <ele>593.6</ele>
        <time>2020-04-16T18:55:17Z</time>
      </trkpt>
      <trkpt lat="42.8311460" lon="-7.7067090">
        <ele>593.6</ele>
        <time>2020-04-16T18:55:19Z</time>
      </trkpt>
      <trkpt lat="42.8311710" lon="-7.7068030">
        <ele>593.5</ele>
        <time>2020-04-16T18:55:21Z</time>
      </trkpt>
      <trkpt lat="42.8312210" lon="-7.7069900">
        <ele>593.3</ele>
        <time>2020-04-16T18:55:23Z</time>
      </trkpt>
      <trkpt lat="42.8312560" lon="-7.7071100">
        <ele>593.1</ele>
        <time>2020-04-16T18:55:25Z</time>
      </trkpt>
      <trkpt lat="42.8312830" lon="-7.7072010">
        <ele>593.0</ele>
        <time>2020-04-16T18:55:27Z</time>
      </trkpt>
      <trkpt lat="42.8313100" lon="-7.7072910">
        <ele>592.8</ele>
        <time>2020-04-16T18:55:29Z</time>
      </trkpt>
      <trkpt lat="42.8313370" lon="-7.7073810">
        <ele>592.7</ele>
        <time>2020-04-16T18:55:31Z</time>
      </trkpt>
      <trkpt lat="42.8313640" lon="-7.7074700">
        <ele>592.6</ele>
        <time>2020-04-16T18:55:33Z</time>
      </trkpt>
      <trkpt lat="42.8314400" lon="-7.7077370">
        <ele>592.6</ele>
        <time>2020-04-16T18:55:35Z</time>
      </trkpt>
      <trkpt lat="42.8314600" lon="-7.7078230">
        <ele>592.7</ele>
        <time>2020-04-16T18:55:37Z</time>
      </trkpt>
      <trkpt lat="42.8314920" lon="-7.7079780">
        <ele>592.8</ele>
        <time>2020-04-16T18:55:39Z</time>
      </trkpt>
      <trkpt lat="42.8315030" lon="-7.7080640">
        <ele>593.0</ele>
        <time>2020-04-16T18:55:41Z</time>
      </trkpt>
      <trkpt lat="42.8315130" lon="-7.7082140">
        <ele>593.2</ele>
        <time>2020-04-16T18:55:43Z</time>
      </trkpt>
      <trkpt lat="42.8315140" lon="-7.7083350">
        <ele>593.5</ele>
        <time>2020-04-16T18:55:45Z</time>
      </trkpt>
      <trkpt lat="42.8315310" lon="-7.7084480">
        <ele>593.8</ele>
        <time>2020-04-16T18:55:47Z</time>
      </trkpt>
      <trkpt lat="42.8315760" lon="-7.7085670">
        <ele>594.1</ele>
        <time>2020-04-16T18:55:49Z</time>
      </trkpt>
      <trkpt lat="42.8316330" lon="-7.7086190">
        <ele>594.6</ele>
        <time>2020-04-16T18:55:51Z</time>
      </trkpt>
      <trkpt lat="42.8317240" lon="-7.7087180">
        <ele>595.8</ele>
        <time>2020-04-16T18:55:53Z</time>
      </trkpt>
      <trkpt lat="42.8317260" lon="-7.7088320">
        <ele>596.7</ele>
        <time>2020-04-16T18:55:55Z</time>
      </trkpt>
      <trkpt lat="42.8317230" lon="-7.7089450">
        <ele>597.5</ele>
        <time>2020-04-16T18:55:57Z</time>
      </trkpt>
      <trkpt lat="42.8317370" lon="-7.7090640">
        <ele>598.2</ele>
        <time>2020-04-16T18:55:59Z</time>
      </trkpt>
      <trkpt lat="42.8317600" lon="-7.7091390">
        <ele>598.5</ele>
        <time>2020-04-16T18:56:01Z</time>
      </trkpt>
      <trkpt lat="42.8317830" lon="-7.7092130">
        <ele>598.8</ele>
        <time>2020-04-16T18:56:03Z</time>
      </trkpt>
      <trkpt lat="42.8318060" lon="-7.7092890">
        <ele>599.2</ele>
        <time>2020-04-16T18:56:05Z</time>
      </trkpt>
      <trkpt lat="42.8318290" lon="-7.7093650">
        <ele>599.7</ele>
        <time>2020-04-16T18:56:07Z</time>
      </trkpt>
      <trkpt lat="42.8319020" lon="-7.7095840">
        <ele>601.2</ele>
        <time>2020-04-16T18:56:09Z</time>
      </trkpt>
      <trkpt lat="42.8319400" lon="-7.7096470">
        <ele>601.7</ele>
        <time>2020-04-16T18:56:11Z</time>
      </trkpt>
      <trkpt lat="42.8320070" lon="-7.7097470">
        <ele>602.9</ele>
        <time>2020-04-16T18:56:13Z</time>
      </trkpt>
      <trkpt lat="42.8320650" lon="-7.7098210">
        <ele>603.8</ele>
        <time>2020-04-16T18:56:15Z</time>
      </trkpt>
      <trkpt lat="42.8321190" lon="-7.7099240">
        <ele>604.9</ele>
        <time>2020-04-16T18:56:17Z</time>
      </trkpt>
      <trkpt lat="42.8321220" lon="-7.7100040">
        <ele>605.5</ele>
        <time>2020-04-16T18:56:19Z</time>
      </trkpt>
      <trkpt lat="42.8321410" lon="-7.7101210">
        <ele>606.3</ele>
        <time>2020-04-16T18:56:21Z</time>
      </trkpt>
      <trkpt lat="42.8321880" lon="-7.7102300">
        <ele>607.1</ele>
        <time>2020-04-16T18:56:23Z</time>
      </trkpt>
      <trkpt lat="42.8322200" lon="-7.7102960">
        <ele>607.7</ele>
        <time>2020-04-16T18:56:25Z</time>
      </trkpt>
      <trkpt lat="42.8322750" lon="-7.7103910">
        <ele>608.9</ele>
        <time>2020-04-16T18:56:27Z</time>
      </trkpt>
      <trkpt lat="42.8323180" lon="-7.7104440">
        <ele>609.6</ele>
        <time>2020-04-16T18:56:29Z</time>
      </trkpt>
      <trkpt lat="42.8323820" lon="-7.7105360">
        <ele>610.9</ele>
        <time>2020-04-16T18:56:31Z</time>
      </trkpt>
      <trkpt lat="42.8324180" lon="-7.7105950">
        <ele>611.6</ele>
        <time>2020-04-16T18:56:33Z</time>
      </trkpt>
      <trkpt lat="42.8324540" lon="-7.7106550">
        <ele>612.2</ele>
        <time>2020-04-16T18:56:35Z</time>
      </trkpt>
      <trkpt lat="42.8324900" lon="-7.7107150">
        <ele>612.9</ele>
        <time>2020-04-16T18:56:37Z</time>
      </trkpt>
      <trkpt lat="42.8325270" lon="-7.7107770">
        <ele>613.6</ele>
        <time>2020-04-16T18:56:39Z</time>
      </trkpt>
      <trkpt lat="42.8326310" lon="-7.7109510">
        <ele>615.0</ele>
        <time>2020-04-16T18:56:41Z</time>
      </trkpt>
      <trkpt lat="42.8326650" lon="-7.7110130">
        <ele>615.5</ele>
        <time>2020-04-16T18:56:43Z</time>
      </trkpt>
      <trkpt lat="42.8326990" lon="-7.7110740">
        <ele>616.0</ele>
        <time>2020-04-16T18:56:45Z</time>
      </trkpt>
      <trkpt lat="42.8327340" lon="-7.7111350">
        <ele>616.6</ele>
        <time>2020-04-16T18:56:47Z</time>
      </trkpt>
      <trkpt lat="42.8327680" lon="-7.7111960">
        <ele>617.3</ele>
        <time>2020-04-16T18:56:49Z</time>
      </trkpt>
      <trkpt lat="42.8328010" lon="-7.7112550">
        <ele>618.0</ele>
        <time>2020-04-16T18:56:51Z</time>
      </trkpt>
      <trkpt lat="42.8329130" lon="-7.7114550">
        <ele>620.3</ele>
        <time>2020-04-16T18:56:53Z</time>
      </trkpt>
      <trkpt lat="42.8329430" lon="-7.7115080">
        <ele>620.9</ele>
        <time>2020-04-16T18:56:55Z</time>
      </trkpt>
      <trkpt lat="42.8329720" lon="-7.7115590">
        <ele>621.5</ele>
        <time>2020-04-16T18:56:57Z</time>
      </trkpt>
      <trkpt lat="42.8330000" lon="-7.7116090">
        <ele>622.1</ele>
        <time>2020-04-16T18:56:59Z</time>
      </trkpt>
      <trkpt lat="42.8330280" lon="-7.7116590">
        <ele>622.6</ele>
        <time>2020-04-16T18:57:01Z</time>
      </trkpt>
      <trkpt lat="42.8330550" lon="-7.7117070">
        <ele>623.2</ele>
        <time>2020-04-16T18:57:03Z</time>
      </trkpt>
      <trkpt lat="42.8330830" lon="-7.7117560">
        <ele>623.7</ele>
        <time>2020-04-16T18:57:05Z</time>
      </trkpt>
      <trkpt lat="42.8331110" lon="-7.7118050">
        <ele>624.2</ele>
        <time>2020-04-16T18:57:07Z</time>
      </trkpt>
      <trkpt lat="42.8332050" lon="-7.7120040">
        <ele>625.9</ele>
        <time>2020-04-16T18:57:09Z</time>
      </trkpt>
      <trkpt lat="42.8331960" lon="-7.7120630">
        <ele>626.2</ele>
        <time>2020-04-16T18:57:11Z</time>
      </trkpt>
      <trkpt lat="42.8331940" lon="-7.7121620">
        <ele>626.8</ele>
        <time>2020-04-16T18:57:13Z</time>
      </trkpt>
      <trkpt lat="42.8332150" lon="-7.7122380">
        <ele>627.2</ele>
        <time>2020-04-16T18:57:15Z</time>
      </trkpt>
      <trkpt lat="42.8332330" lon="-7.7122760">
        <ele>627.5</ele>
        <time>2020-04-16T18:57:17Z</time>
      </trkpt>
      <trkpt lat="42.8332470" lon="-7.7123050">
        <ele>627.7</ele>
        <time>2020-04-16T18:57:19Z</time>
      </trkpt>
      <trkpt lat="42.8332600" lon="-7.7123310">
        <ele>627.9</ele>
        <time>2020-04-16T18:57:21Z</time>
      </trkpt>
      <trkpt lat="42.8332920" lon="-7.7123980">
        <ele>628.4</ele>
        <time>2020-04-16T18:57:23Z</time>
      </trkpt>
      <trkpt lat="42.8333030" lon="-7.7124260">
        <ele>628.6</ele>
        <time>2020-04-16T18:57:25Z</time>
      </trkpt>
      <trkpt lat="42.8333140" lon="-7.7124550">
        <ele>628.8</ele>
        <time>2020-04-16T18:57:27Z</time>
      </trkpt>
      <trkpt lat="42.8333250" lon="-7.7124820">
        <ele>628.9</ele>
        <time>2020-04-16T18:57:29Z</time>
      </trkpt>
      <trkpt lat="42.8333360" lon="-7.7125100">
        <ele>629.2</ele>
        <time>2020-04-16T18:57:31Z</time>
      </trkpt>
      <trkpt lat="42.8333480" lon="-7.7125390">
        <ele>629.4</ele>
        <time>2020-04-16T18:57:33Z</time>
      </trkpt>
      <trkpt lat="42.8333600" lon="-7.7125680">
        <ele>629.6</ele>
        <time>2020-04-16T18:57:35Z</time>
      </trkpt>
      <trkpt lat="42.8333710" lon="-7.7125980">
        <ele>629.8</ele>
        <time>2020-04-16T18:57:37Z</time>
      </trkpt>
      <trkpt lat="42.8334170" lon="-7.7127120">
        <ele>630.7</ele>
        <time>2020-04-16T18:57:39Z</time>
      </trkpt>
      <trkpt lat="42.8334290" lon="-7.7127420">
        <ele>630.9</ele>
        <time>2020-04-16T18:57:41Z</time>
      </trkpt>
      <trkpt lat="42.8334400" lon="-7.7127720">
        <ele>631.1</ele>
        <time>2020-04-16T18:57:43Z</time>
      </trkpt>
      <trkpt lat="42.8334520" lon="-7.7128020">
        <ele>631.4</ele>
        <time>2020-04-16T18:57:45Z</time>
      </trkpt>
      <trkpt lat="42.8334630" lon="-7.7128320">
        <ele>631.6</ele>
        <time>2020-04-16T18:57:47Z</time>
      </trkpt>
      <trkpt lat="42.8334750" lon="-7.7128610">
        <ele>631.8</ele>
        <time>2020-04-16T18:57:49Z</time>
      </trkpt>
      <trkpt lat="42.8334860" lon="-7.7128910">
        <ele>632.0</ele>
        <time>2020-04-16T18:57:51Z</time>
      </trkpt>
      <trkpt lat="42.8334980" lon="-7.7129210">
        <ele>632.3</ele>
        <time>2020-04-16T18:57:53Z</time>
      </trkpt>
      <trkpt lat="42.8335090" lon="-7.7129510">
        <ele>632.5</ele>
        <time>2020-04-16T18:57:55Z</time>
      </trkpt>
      <trkpt lat="42.8335210" lon="-7.7129810">
        <ele>632.7</ele>
        <time>2020-04-16T18:57:57Z</time>
      </trkpt>
      <trkpt lat="42.8335710" lon="-7.7131100">
        <ele>633.7</ele>
        <time>2020-04-16T18:57:59Z</time>
      </trkpt>
      <trkpt lat="42.8335820" lon="-7.7131400">
        <ele>633.9</ele>
        <time>2020-04-16T18:58:01Z</time>
      </trkpt>
      <trkpt lat="42.8335940" lon="-7.7131700">
        <ele>634.2</ele>
        <time>2020-04-16T18:58:03Z</time>
      </trkpt>
      <trkpt lat="42.8336050" lon="-7.7132000">
        <ele>634.4</ele>
        <time>2020-04-16T18:58:05Z</time>
      </trkpt>
      <trkpt lat="42.8336170" lon="-7.7132300">
        <ele>634.7</ele>
        <time>2020-04-16T18:58:07Z</time>
      </trkpt>
      <trkpt lat="42.8336280" lon="-7.7132590">
        <ele>634.9</ele>
        <time>2020-04-16T18:58:09Z</time>
      </trkpt>
      <trkpt lat="42.8336550" lon="-7.7133610">
        <ele>635.8</ele>
        <time>2020-04-16T18:58:11Z</time>
      </trkpt>
      <trkpt lat="42.8336560" lon="-7.7134070">
        <ele>636.1</ele>
        <time>2020-04-16T18:58:13Z</time>
      </trkpt>
      <trkpt lat="42.8336570" lon="-7.7134930">
        <ele>636.7</ele>
        <time>2020-04-16T18:58:15Z</time>
      </trkpt>
      <trkpt lat="42.8336580" lon="-7.7135400">
        <ele>637.0</ele>
        <time>2020-04-16T18:58:17Z</time>
      </trkpt>
      <trkpt lat="42.8336680" lon="-7.7136140">
        <ele>637.4</ele>
        <time>2020-04-16T18:58:19Z</time>
      </trkpt>
      <trkpt lat="42.8336960" lon="-7.7136410">
        <ele>637.8</ele>
        <time>2020-04-16T18:58:21Z</time>
      </trkpt>
      <trkpt lat="42.8337340" lon="-7.7136980">
        <ele>638.6</ele>
        <time>2020-04-16T18:58:23Z</time>
      </trkpt>
      <trkpt lat="42.8337420" lon="-7.7137430">
        <ele>639.1</ele>
        <time>2020-04-16T18:58:25Z</time>
      </trkpt>
      <trkpt lat="42.8337510" lon="-7.7137880">
        <ele>639.6</ele>
        <time>2020-04-16T18:58:27Z</time>
      </trkpt>
      <trkpt lat="42.8337660" lon="-7.7138830">
        <ele>640.6</ele>
        <time>2020-04-16T18:58:29Z</time>
      </trkpt>
      <trkpt lat="42.8337690" lon="-7.7139290">
        <ele>641.0</ele>
        <time>2020-04-16T18:58:31Z</time>
      </trkpt>
      <trkpt lat="42.8337720" lon="-7.7139750">
        <ele>641.4</ele>
        <time>2020-04-16T18:58:33Z</time>
      </trkpt>
      <trkpt lat="42.8337690" lon="-7.7140570">
        <ele>642.0</ele>
        <time>2020-04-16T18:58:35Z</time>
      </trkpt>
      <trkpt lat="42.8337610" lon="-7.7141280">
        <ele>642.4</ele>
        <time>2020-04-16T18:58:37Z</time>
      </trkpt>
      <trkpt lat="42.8337530" lon="-7.7141890">
        <ele>642.8</ele>
        <time>2020-04-16T18:58:39Z</time>
      </trkpt>
      <trkpt lat="42.8337420" lon="-7.7142330">
        <ele>643.1</ele>
        <time>2020-04-16T18:58:41Z</time>
      </trkpt>
      <trkpt lat="42.8337320" lon="-7.7142780">
        <ele>643.4</ele>
        <time>2020-04-16T18:58:43Z</time>
      </trkpt>
      <trkpt lat="42.8337230" lon="-7.7143220">
        <ele>643.7</ele>
        <time>2020-04-16T18:58:45Z</time>
      </trkpt>
      <trkpt lat="42.8337120" lon="-7.7143670">
        <ele>644.1</ele>
        <time>2020-04-16T18:58:47Z</time>
      </trkpt>
      <trkpt lat="42.8336830" lon="-7.7144990">
        <ele>645.4</ele>
        <time>2020-04-16T18:58:49Z</time>
      </trkpt>
      <trkpt lat="42.8336740" lon="-7.7145440">
        <ele>645.9</ele>
        <time>2020-04-16T18:58:51Z</time>
      </trkpt>
      <trkpt lat="42.8336660" lon="-7.7145860">
        <ele>646.3</ele>
        <time>2020-04-16T18:58:53Z</time>
      </trkpt>
      <trkpt lat="42.8336580" lon="-7.7146280">
        <ele>646.7</ele>
        <time>2020-04-16T18:58:55Z</time>
      </trkpt>
      <trkpt lat="42.8336490" lon="-7.7146700">
        <ele>647.2</ele>
        <time>2020-04-16T18:58:57Z</time>
      </trkpt>
      <trkpt lat="42.8336410" lon="-7.7147110">
        <ele>647.6</ele>
        <time>2020-04-16T18:58:59Z</time>
      </trkpt>
      <trkpt lat="42.8336330" lon="-7.7147540">
        <ele>648.0</ele>
        <time>2020-04-16T18:59:01Z</time>
      </trkpt>
      <trkpt lat="42.8336250" lon="-7.7147940">
        <ele>648.4</ele>
        <time>2020-04-16T18:59:03Z</time>
      </trkpt>
      <trkpt lat="42.8336170" lon="-7.7148360">
        <ele>648.8</ele>
        <time>2020-04-16T18:59:05Z</time>
      </trkpt>
      <trkpt lat="42.8336090" lon="-7.7148770">
        <ele>649.3</ele>
        <time>2020-04-16T18:59:07Z</time>
      </trkpt>
      <trkpt lat="42.8335730" lon="-7.7150660">
        <ele>651.3</ele>
        <time>2020-04-16T18:59:09Z</time>
      </trkpt>
      <trkpt lat="42.8335670" lon="-7.7151090">
        <ele>651.8</ele>
        <time>2020-04-16T18:59:11Z</time>
      </trkpt>
      <trkpt lat="42.8335620" lon="-7.7151510">
        <ele>652.3</ele>
        <time>2020-04-16T18:59:13Z</time>
      </trkpt>
      <trkpt lat="42.8335570" lon="-7.7151930">
        <ele>652.7</ele>
        <time>2020-04-16T18:59:15Z</time>
      </trkpt>
      <trkpt lat="42.8335510" lon="-7.7152360">
        <ele>653.2</ele>
        <time>2020-04-16T18:59:17Z</time>
      </trkpt>
      <trkpt lat="42.8335460" lon="-7.7152780">
        <ele>653.6</ele>
        <time>2020-04-16T18:59:19Z</time>
      </trkpt>
      <trkpt lat="42.8335400" lon="-7.7153210">
        <ele>654.1</ele>
        <time>2020-04-16T18:59:21Z</time>
      </trkpt>
      <trkpt lat="42.8335350" lon="-7.7153630">
        <ele>654.5</ele>
        <time>2020-04-16T18:59:23Z</time>
      </trkpt>
      <trkpt lat="42.8335300" lon="-7.7154060">
        <ele>654.9</ele>
        <time>2020-04-16T18:59:25Z</time>
      </trkpt>
      <trkpt lat="42.8335240" lon="-7.7154490">
        <ele>655.4</ele>
        <time>2020-04-16T18:59:27Z</time>
      </trkpt>
      <trkpt lat="42.8335190" lon="-7.7154920">
        <ele>655.9</ele>
        <time>2020-04-16T18:59:29Z</time>
      </trkpt>
      <trkpt lat="42.8335130" lon="-7.7155350">
        <ele>656.3</ele>
        <time>2020-04-16T18:59:31Z</time>
      </trkpt>
      <trkpt lat="42.8334850" lon="-7.7157620">
        <ele>658.9</ele>
        <time>2020-04-16T18:59:33Z</time>
      </trkpt>
      <trkpt lat="42.8334850" lon="-7.7158100">
        <ele>659.4</ele>
        <time>2020-04-16T18:59:35Z</time>
      </trkpt>
      <trkpt lat="42.8334860" lon="-7.7158600">
        <ele>660.0</ele>
        <time>2020-04-16T18:59:37Z</time>
      </trkpt>
      <trkpt lat="42.8334860" lon="-7.7159090">
        <ele>660.5</ele>
        <time>2020-04-16T18:59:39Z</time>
      </trkpt>
      <trkpt lat="42.8334860" lon="-7.7159580">
        <ele>661.1</ele>
        <time>2020-04-16T18:59:41Z</time>
      </trkpt>
      <trkpt lat="42.8334870" lon="-7.7160080">
        <ele>661.6</ele>
        <time>2020-04-16T18:59:43Z</time>
      </trkpt>
      <trkpt lat="42.8334870" lon="-7.7160570">
        <ele>662.2</ele>
        <time>2020-04-16T18:59:45Z</time>
      </trkpt>
      <trkpt lat="42.8334880" lon="-7.7161070">
        <ele>662.8</ele>
        <time>2020-04-16T18:59:47Z</time>
      </trkpt>
      <trkpt lat="42.8334880" lon="-7.7161560">
        <ele>663.3</ele>
        <time>2020-04-16T18:59:49Z</time>
      </trkpt>
      <trkpt lat="42.8334880" lon="-7.7162060">
        <ele>663.9</ele>
        <time>2020-04-16T18:59:51Z</time>
      </trkpt>
      <trkpt lat="42.8334900" lon="-7.7164250">
        <ele>666.4</ele>
        <time>2020-04-16T18:59:53Z</time>
      </trkpt>
      <trkpt lat="42.8334910" lon="-7.7164740">
        <ele>667.0</ele>
        <time>2020-04-16T18:59:55Z</time>
      </trkpt>
      <trkpt lat="42.8334910" lon="-7.7165230">
        <ele>667.5</ele>
        <time>2020-04-16T18:59:57Z</time>
      </trkpt>
      <trkpt lat="42.8334950" lon="-7.7166220">
        <ele>668.7</ele>
        <time>2020-04-16T18:59:59Z</time>
      </trkpt>
      <trkpt lat="42.8334980" lon="-7.7166710">
        <ele>669.2</ele>
        <time>2020-04-16T19:00:01Z</time>
      </trkpt>
      <trkpt lat="42.8335020" lon="-7.7167200">
        <ele>669.7</ele>
        <time>2020-04-16T19:00:03Z</time>
      </trkpt>
      <trkpt lat="42.8335060" lon="-7.7167690">
        <ele>670.2</ele>
        <time>2020-04-16T19:00:05Z</time>
      </trkpt>
      <trkpt lat="42.8335090" lon="-7.7168190">
        <ele>670.7</ele>
        <time>2020-04-16T19:00:07Z</time>
      </trkpt>
      <trkpt lat="42.8335200" lon="-7.7169670">
        <ele>671.9</ele>
        <time>2020-04-16T19:00:09Z</time>
      </trkpt>
      <trkpt lat="42.8335250" lon="-7.7170360">
        <ele>672.2</ele>
        <time>2020-04-16T19:00:11Z</time>
      </trkpt>
      <trkpt lat="42.8335290" lon="-7.7170850">
        <ele>672.7</ele>
        <time>2020-04-16T19:00:13Z</time>
      </trkpt>
      <trkpt lat="42.8335330" lon="-7.7171350">
        <ele>673.0</ele>
        <time>2020-04-16T19:00:15Z</time>
      </trkpt>
      <trkpt lat="42.8335550" lon="-7.7172210">
        <ele>673.8</ele>
        <time>2020-04-16T19:00:17Z</time>
      </trkpt>
      <trkpt lat="42.8335790" lon="-7.7172590">
        <ele>674.2</ele>
        <time>2020-04-16T19:00:19Z</time>
      </trkpt>
      <trkpt lat="42.8336030" lon="-7.7172980">
        <ele>674.6</ele>
        <time>2020-04-16T19:00:21Z</time>
      </trkpt>
      <trkpt lat="42.8336270" lon="-7.7173360">
        <ele>675.1</ele>
        <time>2020-04-16T19:00:23Z</time>
      </trkpt>
      <trkpt lat="42.8336510" lon="-7.7173740">
        <ele>675.5</ele>
        <time>2020-04-16T19:00:25Z</time>
      </trkpt>
      <trkpt lat="42.8337140" lon="-7.7174890">
        <ele>676.7</ele>
        <time>2020-04-16T19:00:27Z</time>
      </trkpt>
      <trkpt lat="42.8337450" lon="-7.7175550">
        <ele>677.3</ele>
        <time>2020-04-16T19:00:29Z</time>
      </trkpt>
      <trkpt lat="42.8338020" lon="-7.7176800">
        <ele>678.5</ele>
        <time>2020-04-16T19:00:31Z</time>
      </trkpt>
      <trkpt lat="42.8338390" lon="-7.7177600">
        <ele>679.2</ele>
        <time>2020-04-16T19:00:33Z</time>
      </trkpt>
      <trkpt lat="42.8338770" lon="-7.7178420">
        <ele>679.8</ele>
        <time>2020-04-16T19:00:35Z</time>
      </trkpt>
      <trkpt lat="42.8339140" lon="-7.7179240">
        <ele>680.4</ele>
        <time>2020-04-16T19:00:37Z</time>
      </trkpt>
      <trkpt lat="42.8339530" lon="-7.7180070">
        <ele>681.0</ele>
        <time>2020-04-16T19:00:39Z</time>
      </trkpt>
      <trkpt lat="42.8340440" lon="-7.7182460">
        <ele>682.3</ele>
        <time>2020-04-16T19:00:41Z</time>
      </trkpt>
      <trkpt lat="42.8340760" lon="-7.7183960">
        <ele>682.8</ele>
        <time>2020-04-16T19:00:43Z</time>
      </trkpt>
      <trkpt lat="42.8340960" lon="-7.7184930">
        <ele>683.0</ele>
        <time>2020-04-16T19:00:45Z</time>
      </trkpt>
      <trkpt lat="42.8341260" lon="-7.7186510">
        <ele>683.4</ele>
        <time>2020-04-16T19:00:47Z</time>
      </trkpt>
      <trkpt lat="42.8341420" lon="-7.7187460">
        <ele>683.7</ele>
        <time>2020-04-16T19:00:49Z</time>
      </trkpt>
      <trkpt lat="42.8341570" lon="-7.7188390">
        <ele>683.9</ele>
        <time>2020-04-16T19:00:51Z</time>
      </trkpt>
      <trkpt lat="42.8341870" lon="-7.7190280">
        <ele>684.3</ele>
        <time>2020-04-16T19:00:53Z</time>
      </trkpt>
      <trkpt lat="42.8342010" lon="-7.7191190">
        <ele>684.4</ele>
        <time>2020-04-16T19:00:55Z</time>
      </trkpt>
      <trkpt lat="42.8342110" lon="-7.7192610">
        <ele>684.6</ele>
        <time>2020-04-16T19:00:57Z</time>
      </trkpt>
      <trkpt lat="42.8342110" lon="-7.7193510">
        <ele>684.6</ele>
        <time>2020-04-16T19:00:59Z</time>
      </trkpt>
      <trkpt lat="42.8342110" lon="-7.7194390">
        <ele>684.7</ele>
        <time>2020-04-16T19:01:01Z</time>
      </trkpt>
      <trkpt lat="42.8342110" lon="-7.7195280">
        <ele>684.8</ele>
        <time>2020-04-16T19:01:03Z</time>
      </trkpt>
      <trkpt lat="42.8342110" lon="-7.7196170">
        <ele>685.0</ele>
        <time>2020-04-16T19:01:05Z</time>
      </trkpt>
      <trkpt lat="42.8342080" lon="-7.7198810">
        <ele>685.4</ele>
        <time>2020-04-16T19:01:07Z</time>
      </trkpt>
      <trkpt lat="42.8342000" lon="-7.7199680">
        <ele>685.6</ele>
        <time>2020-04-16T19:01:09Z</time>
      </trkpt>
      <trkpt lat="42.8341860" lon="-7.7201180">
        <ele>686.0</ele>
        <time>2020-04-16T19:01:11Z</time>
      </trkpt>
      <trkpt lat="42.8341760" lon="-7.7202310">
        <ele>686.3</ele>
        <time>2020-04-16T19:01:13Z</time>
      </trkpt>
      <trkpt lat="42.8341650" lon="-7.7203630">
        <ele>686.8</ele>
        <time>2020-04-16T19:01:15Z</time>
      </trkpt>
      <trkpt lat="42.8341370" lon="-7.7206710">
        <ele>687.9</ele>
        <time>2020-04-16T19:01:17Z</time>
      </trkpt>
      <trkpt lat="42.8340780" lon="-7.7208150">
        <ele>688.6</ele>
        <time>2020-04-16T19:01:19Z</time>
      </trkpt>
      <trkpt lat="42.8339850" lon="-7.7210470">
        <ele>689.5</ele>
        <time>2020-04-16T19:01:21Z</time>
      </trkpt>
      <trkpt lat="42.8339460" lon="-7.7212740">
        <ele>689.9</ele>
        <time>2020-04-16T19:01:23Z</time>
      </trkpt>
      <trkpt lat="42.8340580" lon="-7.7214630">
        <ele>689.7</ele>
        <time>2020-04-16T19:01:25Z</time>
      </trkpt>
      <trkpt lat="42.8342090" lon="-7.7216570">
        <ele>689.2</ele>
        <time>2020-04-16T19:01:27Z</time>
      </trkpt>
      <trkpt lat="42.8343870" lon="-7.7218220">
        <ele>688.3</ele>
        <time>2020-04-16T19:01:29Z</time>
      </trkpt>
      <trkpt lat="42.8345800" lon="-7.7219920">
        <ele>687.0</ele>
        <time>2020-04-16T19:01:31Z</time>
      </trkpt>
      <trkpt lat="42.8347370" lon="-7.7221250">
        <ele>686.0</ele>
        <time>2020-04-16T19:01:33Z</time>
      </trkpt>
      <trkpt lat="42.8350140" lon="-7.7224120">
        <ele>684.2</ele>
        <time>2020-04-16T19:01:35Z</time>
      </trkpt>
      <trkpt lat="42.8351260" lon="-7.7226640">
        <ele>683.0</ele>
        <time>2020-04-16T19:01:37Z</time>
      </trkpt>
      <trkpt lat="42.8352570" lon="-7.7229400">
        <ele>681.9</ele>
        <time>2020-04-16T19:01:39Z</time>
      </trkpt>
      <trkpt lat="42.8353630" lon="-7.7230880">
        <ele>681.4</ele>
        <time>2020-04-16T19:01:41Z</time>
      </trkpt>
      <trkpt lat="42.8355270" lon="-7.7233050">
        <ele>680.9</ele>
        <time>2020-04-16T19:01:43Z</time>
      </trkpt>
      <trkpt lat="42.8356820" lon="-7.7234350">
        <ele>680.4</ele>
        <time>2020-04-16T19:01:45Z</time>
      </trkpt>
      <trkpt lat="42.8358270" lon="-7.7236340">
        <ele>680.1</ele>
        <time>2020-04-16T19:01:47Z</time>
      </trkpt>
      <trkpt lat="42.8358850" lon="-7.7237730">
        <ele>680.1</ele>
        <time>2020-04-16T19:01:49Z</time>
      </trkpt>
      <trkpt lat="42.8359660" lon="-7.7239610">
        <ele>680.1</ele>
        <time>2020-04-16T19:01:51Z</time>
      </trkpt>
      <trkpt lat="42.8360360" lon="-7.7241550">
        <ele>680.1</ele>
        <time>2020-04-16T19:01:53Z</time>
      </trkpt>
      <trkpt lat="42.8360910" lon="-7.7243590">
        <ele>680.1</ele>
        <time>2020-04-16T19:01:55Z</time>
      </trkpt>
      <trkpt lat="42.8361800" lon="-7.7243470">
        <ele>680.0</ele>
        <time>2020-04-16T19:01:57Z</time>
      </trkpt>
      <trkpt lat="42.8362410" lon="-7.7244330">
        <ele>680.1</ele>
        <time>2020-04-16T19:01:59Z</time>
      </trkpt>
      <trkpt lat="42.8362800" lon="-7.7245580">
        <ele>680.2</ele>
        <time>2020-04-16T19:02:01Z</time>
      </trkpt>
      <trkpt lat="42.8363500" lon="-7.7247730">
        <ele>680.5</ele>
        <time>2020-04-16T19:02:03Z</time>
      </trkpt>
      <trkpt lat="42.8363900" lon="-7.7248920">
        <ele>680.6</ele>
        <time>2020-04-16T19:02:05Z</time>
      </trkpt>
      <trkpt lat="42.8364290" lon="-7.7250110">
        <ele>680.7</ele>
        <time>2020-04-16T19:02:07Z</time>
      </trkpt>
      <trkpt lat="42.8365190" lon="-7.7252870">
        <ele>680.8</ele>
        <time>2020-04-16T19:02:09Z</time>
      </trkpt>
      <trkpt lat="42.8365570" lon="-7.7254030">
        <ele>680.8</ele>
        <time>2020-04-16T19:02:11Z</time>
      </trkpt>
      <trkpt lat="42.8365950" lon="-7.7255190">
        <ele>680.8</ele>
        <time>2020-04-16T19:02:13Z</time>
      </trkpt>
      <trkpt lat="42.8366340" lon="-7.7256360">
        <ele>680.9</ele>
        <time>2020-04-16T19:02:15Z</time>
      </trkpt>
      <trkpt lat="42.8366720" lon="-7.7257530">
        <ele>680.9</ele>
        <time>2020-04-16T19:02:17Z</time>
      </trkpt>
      <trkpt lat="42.8367100" lon="-7.7258690">
        <ele>680.9</ele>
        <time>2020-04-16T19:02:19Z</time>
      </trkpt>
      <trkpt lat="42.8368310" lon="-7.7262380">
        <ele>681.1</ele>
        <time>2020-04-16T19:02:21Z</time>
      </trkpt>
      <trkpt lat="42.8368700" lon="-7.7263540">
        <ele>681.2</ele>
        <time>2020-04-16T19:02:23Z</time>
      </trkpt>
      <trkpt lat="42.8369080" lon="-7.7264690">
        <ele>681.3</ele>
        <time>2020-04-16T19:02:25Z</time>
      </trkpt>
      <trkpt lat="42.8369840" lon="-7.7266990">
        <ele>681.5</ele>
        <time>2020-04-16T19:02:27Z</time>
      </trkpt>
      <trkpt lat="42.8370210" lon="-7.7268140">
        <ele>681.6</ele>
        <time>2020-04-16T19:02:29Z</time>
      </trkpt>
      <trkpt lat="42.8370580" lon="-7.7269260">
        <ele>681.7</ele>
        <time>2020-04-16T19:02:31Z</time>
      </trkpt>
      <trkpt lat="42.8371390" lon="-7.7271750">
        <ele>682.1</ele>
        <time>2020-04-16T19:02:33Z</time>
      </trkpt>
      <trkpt lat="42.8371740" lon="-7.7272830">
        <ele>682.2</ele>
        <time>2020-04-16T19:02:35Z</time>
      </trkpt>
      <trkpt lat="42.8372090" lon="-7.7273910">
        <ele>682.4</ele>
        <time>2020-04-16T19:02:37Z</time>
      </trkpt>
      <trkpt lat="42.8372450" lon="-7.7274990">
        <ele>682.6</ele>
        <time>2020-04-16T19:02:39Z</time>
      </trkpt>
      <trkpt lat="42.8372790" lon="-7.7276050">
        <ele>682.8</ele>
        <time>2020-04-16T19:02:41Z</time>
      </trkpt>
      <trkpt lat="42.8373740" lon="-7.7278950">
        <ele>683.5</ele>
        <time>2020-04-16T19:02:43Z</time>
      </trkpt>
      <trkpt lat="42.8374080" lon="-7.7280000">
        <ele>683.7</ele>
        <time>2020-04-16T19:02:45Z</time>
      </trkpt>
      <trkpt lat="42.8374650" lon="-7.7281700">
        <ele>684.1</ele>
        <time>2020-04-16T19:02:47Z</time>
      </trkpt>
      <trkpt lat="42.8374980" lon="-7.7282700">
        <ele>684.3</ele>
        <time>2020-04-16T19:02:49Z</time>
      </trkpt>
      <trkpt lat="42.8375290" lon="-7.7283640">
        <ele>684.5</ele>
        <time>2020-04-16T19:02:51Z</time>
      </trkpt>
      <trkpt lat="42.8375590" lon="-7.7284560">
        <ele>684.6</ele>
        <time>2020-04-16T19:02:53Z</time>
      </trkpt>
      <trkpt lat="42.8375880" lon="-7.7285440">
        <ele>684.8</ele>
        <time>2020-04-16T19:02:55Z</time>
      </trkpt>
      <trkpt lat="42.8376170" lon="-7.7286300">
        <ele>685.0</ele>
        <time>2020-04-16T19:02:57Z</time>
      </trkpt>
      <trkpt lat="42.8376450" lon="-7.7287140">
        <ele>685.2</ele>
        <time>2020-04-16T19:02:59Z</time>
      </trkpt>
      <trkpt lat="42.8376720" lon="-7.7287970">
        <ele>685.4</ele>
        <time>2020-04-16T19:03:01Z</time>
      </trkpt>
      <trkpt lat="42.8377860" lon="-7.7291260">
        <ele>686.1</ele>
        <time>2020-04-16T19:03:03Z</time>
      </trkpt>
      <trkpt lat="42.8378170" lon="-7.7292040">
        <ele>686.3</ele>
        <time>2020-04-16T19:03:05Z</time>
      </trkpt>
      <trkpt lat="42.8378770" lon="-7.7293500">
        <ele>686.7</ele>
        <time>2020-04-16T19:03:07Z</time>
      </trkpt>
      <trkpt lat="42.8379120" lon="-7.7294220">
        <ele>686.8</ele>
        <time>2020-04-16T19:03:09Z</time>
      </trkpt>
      <trkpt lat="42.8379760" lon="-7.7295530">
        <ele>687.1</ele>
        <time>2020-04-16T19:03:11Z</time>
      </trkpt>
      <trkpt lat="42.8380200" lon="-7.7296290">
        <ele>687.2</ele>
        <time>2020-04-16T19:03:13Z</time>
      </trkpt>
      <trkpt lat="42.8380680" lon="-7.7297130">
        <ele>687.3</ele>
        <time>2020-04-16T19:03:15Z</time>
      </trkpt>
      <trkpt lat="42.8381730" lon="-7.7298840">
        <ele>687.7</ele>
        <time>2020-04-16T19:03:17Z</time>
      </trkpt>
      <trkpt lat="42.8382390" lon="-7.7299710">
        <ele>687.9</ele>
        <time>2020-04-16T19:03:19Z</time>
      </trkpt>
      <trkpt lat="42.8383600" lon="-7.7301330">
        <ele>688.1</ele>
        <time>2020-04-16T19:03:21Z</time>
      </trkpt>
      <trkpt lat="42.8384620" lon="-7.7302610">
        <ele>688.4</ele>
        <time>2020-04-16T19:03:23Z</time>
      </trkpt>
      <trkpt lat="42.8385450" lon="-7.7303470">
        <ele>688.6</ele>
        <time>2020-04-16T19:03:25Z</time>
      </trkpt>
      <trkpt lat="42.8386960" lon="-7.7305010">
        <ele>688.9</ele>
        <time>2020-04-16T19:03:27Z</time>
      </trkpt>
      <trkpt lat="42.8387870" lon="-7.7305800">
        <ele>689.0</ele>
        <time>2020-04-16T19:03:29Z</time>
      </trkpt>
      <trkpt lat="42.8388740" lon="-7.7306560">
        <ele>689.1</ele>
        <time>2020-04-16T19:03:31Z</time>
      </trkpt>
      <trkpt lat="42.8389580" lon="-7.7307290">
        <ele>689.1</ele>
        <time>2020-04-16T19:03:33Z</time>
      </trkpt>
      <trkpt lat="42.8390390" lon="-7.7308000">
        <ele>689.2</ele>
        <time>2020-04-16T19:03:35Z</time>
      </trkpt>
      <trkpt lat="42.8391180" lon="-7.7308680">
        <ele>689.2</ele>
        <time>2020-04-16T19:03:37Z</time>
      </trkpt>
      <trkpt lat="42.8391940" lon="-7.7309350">
        <ele>689.2</ele>
        <time>2020-04-16T19:03:39Z</time>
      </trkpt>
      <trkpt lat="42.8394640" lon="-7.7311700">
        <ele>689.0</ele>
        <time>2020-04-16T19:03:41Z</time>
      </trkpt>
      <trkpt lat="42.8395370" lon="-7.7312330">
        <ele>688.9</ele>
        <time>2020-04-16T19:03:43Z</time>
      </trkpt>
      <trkpt lat="42.8396080" lon="-7.7312950">
        <ele>688.9</ele>
        <time>2020-04-16T19:03:45Z</time>
      </trkpt>
      <trkpt lat="42.8396780" lon="-7.7313560">
        <ele>688.8</ele>
        <time>2020-04-16T19:03:47Z</time>
      </trkpt>
      <trkpt lat="42.8397470" lon="-7.7314160">
        <ele>688.8</ele>
        <time>2020-04-16T19:03:49Z</time>
      </trkpt>
      <trkpt lat="42.8398140" lon="-7.7314750">
        <ele>688.7</ele>
        <time>2020-04-16T19:03:51Z</time>
      </trkpt>
      <trkpt lat="42.8398820" lon="-7.7315340">
        <ele>688.7</ele>
        <time>2020-04-16T19:03:53Z</time>
      </trkpt>
      <trkpt lat="42.8399480" lon="-7.7315910">
        <ele>688.6</ele>
        <time>2020-04-16T19:03:55Z</time>
      </trkpt>
      <trkpt lat="42.8402100" lon="-7.7318190">
        <ele>688.4</ele>
        <time>2020-04-16T19:03:57Z</time>
      </trkpt>
      <trkpt lat="42.8402800" lon="-7.7318810">
        <ele>688.3</ele>
        <time>2020-04-16T19:03:59Z</time>
      </trkpt>
      <trkpt lat="42.8403530" lon="-7.7319450">
        <ele>688.2</ele>
        <time>2020-04-16T19:04:01Z</time>
      </trkpt>
      <trkpt lat="42.8404280" lon="-7.7320100">
        <ele>688.0</ele>
        <time>2020-04-16T19:04:03Z</time>
      </trkpt>
      <trkpt lat="42.8405040" lon="-7.7320760">
        <ele>687.9</ele>
        <time>2020-04-16T19:04:05Z</time>
      </trkpt>
      <trkpt lat="42.8405790" lon="-7.7321420">
        <ele>687.8</ele>
        <time>2020-04-16T19:04:07Z</time>
      </trkpt>
      <trkpt lat="42.8406570" lon="-7.7322090">
        <ele>687.7</ele>
        <time>2020-04-16T19:04:09Z</time>
      </trkpt>
      <trkpt lat="42.8409410" lon="-7.7324570">
        <ele>687.6</ele>
        <time>2020-04-16T19:04:11Z</time>
      </trkpt>
      <trkpt lat="42.8410180" lon="-7.7325270">
        <ele>687.7</ele>
        <time>2020-04-16T19:04:13Z</time>
      </trkpt>
      <trkpt lat="42.8410950" lon="-7.7325970">
        <ele>687.7</ele>
        <time>2020-04-16T19:04:15Z</time>
      </trkpt>
      <trkpt lat="42.8411730" lon="-7.7326680">
        <ele>687.8</ele>
        <time>2020-04-16T19:04:17Z</time>
      </trkpt>
      <trkpt lat="42.8413670" lon="-7.7328380">
        <ele>688.0</ele>
        <time>2020-04-16T19:04:19Z</time>
      </trkpt>
      <trkpt lat="42.8414540" lon="-7.7328940">
        <ele>688.1</ele>
        <time>2020-04-16T19:04:21Z</time>
      </trkpt>
      <trkpt lat="42.8415740" lon="-7.7329820">
        <ele>688.3</ele>
        <time>2020-04-16T19:04:23Z</time>
      </trkpt>
      <trkpt lat="42.8416360" lon="-7.7330340">
        <ele>688.5</ele>
        <time>2020-04-16T19:04:25Z</time>
      </trkpt>
      <trkpt lat="42.8416870" lon="-7.7330760">
        <ele>688.6</ele>
        <time>2020-04-16T19:04:27Z</time>
      </trkpt>
      <trkpt lat="42.8417300" lon="-7.7331110">
        <ele>688.6</ele>
        <time>2020-04-16T19:04:29Z</time>
      </trkpt>
      <trkpt lat="42.8417650" lon="-7.7331410">
        <ele>688.7</ele>
        <time>2020-04-16T19:04:31Z</time>
      </trkpt>
      <trkpt lat="42.8418950" lon="-7.7332400">
        <ele>688.8</ele>
        <time>2020-04-16T19:04:33Z</time>
      </trkpt>
      <trkpt lat="42.8419360" lon="-7.7332810">
        <ele>688.9</ele>
        <time>2020-04-16T19:04:35Z</time>
      </trkpt>
      <trkpt lat="42.8419570" lon="-7.7333320">
        <ele>688.9</ele>
        <time>2020-04-16T19:04:37Z</time>
      </trkpt>
      <trkpt lat="42.8419610" lon="-7.7333980">
        <ele>688.9</ele>
        <time>2020-04-16T19:04:39Z</time>
      </trkpt>
      <trkpt lat="42.8419650" lon="-7.7334460">
        <ele>689.0</ele>
        <time>2020-04-16T19:04:41Z</time>
      </trkpt>
      <trkpt lat="42.8419780" lon="-7.7334840">
        <ele>689.0</ele>
        <time>2020-04-16T19:04:43Z</time>
      </trkpt>
      <trkpt lat="42.8419910" lon="-7.7335230">
        <ele>689.1</ele>
        <time>2020-04-16T19:04:45Z</time>
      </trkpt>
      <trkpt lat="42.8420190" lon="-7.7335980">
        <ele>689.2</ele>
        <time>2020-04-16T19:04:47Z</time>
      </trkpt>
      <trkpt lat="42.8420340" lon="-7.7336300">
        <ele>689.2</ele>
        <time>2020-04-16T19:04:49Z</time>
      </trkpt>
      <trkpt lat="42.8420610" lon="-7.7336900">
        <ele>689.3</ele>
        <time>2020-04-16T19:04:51Z</time>
      </trkpt>
      <trkpt lat="42.8420780" lon="-7.7337270">
        <ele>689.3</ele>
        <time>2020-04-16T19:04:53Z</time>
      </trkpt>
      <trkpt lat="42.8421130" lon="-7.7337950">
        <ele>689.4</ele>
        <time>2020-04-16T19:04:55Z</time>
      </trkpt>
      <trkpt lat="42.8421370" lon="-7.7338370">
        <ele>689.4</ele>
        <time>2020-04-16T19:04:57Z</time>
      </trkpt>
      <trkpt lat="42.8421590" lon="-7.7338730">
        <ele>689.4</ele>
        <time>2020-04-16T19:04:59Z</time>
      </trkpt>
      <trkpt lat="42.8421790" lon="-7.7339080">
        <ele>689.4</ele>
        <time>2020-04-16T19:05:01Z</time>
      </trkpt>
      <trkpt lat="42.8421990" lon="-7.7339420">
        <ele>689.4</ele>
        <time>2020-04-16T19:05:03Z</time>
      </trkpt>
      <trkpt lat="42.8422190" lon="-7.7339760">
        <ele>689.4</ele>
        <time>2020-04-16T19:05:05Z</time>
      </trkpt>
      <trkpt lat="42.8422390" lon="-7.7340090">
        <ele>689.3</ele>
        <time>2020-04-16T19:05:07Z</time>
      </trkpt>
      <trkpt lat="42.8423050" lon="-7.7341240">
        <ele>689.3</ele>
        <time>2020-04-16T19:05:09Z</time>
      </trkpt>
      <trkpt lat="42.8423400" lon="-7.7341930">
        <ele>689.2</ele>
        <time>2020-04-16T19:05:11Z</time>
      </trkpt>
      <trkpt lat="42.8424140" lon="-7.7343250">
        <ele>689.1</ele>
        <time>2020-04-16T19:05:13Z</time>
      </trkpt>
      <trkpt lat="42.8423590" lon="-7.7344510">
        <ele>688.8</ele>
        <time>2020-04-16T19:05:15Z</time>
      </trkpt>
      <trkpt lat="42.8422320" lon="-7.7346070">
        <ele>688.2</ele>
        <time>2020-04-16T19:05:17Z</time>
      </trkpt>
      <trkpt lat="42.8421080" lon="-7.7348020">
        <ele>687.3</ele>
        <time>2020-04-16T19:05:19Z</time>
      </trkpt>
      <trkpt lat="42.8419980" lon="-7.7350330">
        <ele>686.1</ele>
        <time>2020-04-16T19:05:21Z</time>
      </trkpt>
      <trkpt lat="42.8418920" lon="-7.7353550">
        <ele>684.1</ele>
        <time>2020-04-16T19:05:23Z</time>
      </trkpt>
      <trkpt lat="42.8419510" lon="-7.7355740">
        <ele>684.0</ele>
        <time>2020-04-16T19:05:25Z</time>
      </trkpt>
      <trkpt lat="42.8420120" lon="-7.7357980">
        <ele>683.8</ele>
        <time>2020-04-16T19:05:27Z</time>
      </trkpt>
      <trkpt lat="42.8421120" lon="-7.7362010">
        <ele>684.4</ele>
        <time>2020-04-16T19:05:29Z</time>
      </trkpt>
      <trkpt lat="42.8421810" lon="-7.7365050">
        <ele>685.3</ele>
        <time>2020-04-16T19:05:31Z</time>
      </trkpt>
      <trkpt lat="42.8422650" lon="-7.7368650">
        <ele>686.4</ele>
        <time>2020-04-16T19:05:33Z</time>
      </trkpt>
      <trkpt lat="42.8423370" lon="-7.7370440">
        <ele>687.1</ele>
        <time>2020-04-16T19:05:35Z</time>
      </trkpt>
      <trkpt lat="42.8424030" lon="-7.7372100">
        <ele>687.8</ele>
        <time>2020-04-16T19:05:37Z</time>
      </trkpt>
      <trkpt lat="42.8425010" lon="-7.7375200">
        <ele>688.9</ele>
        <time>2020-04-16T19:05:39Z</time>
      </trkpt>
      <trkpt lat="42.8425390" lon="-7.7377610">
        <ele>689.6</ele>
        <time>2020-04-16T19:05:41Z</time>
      </trkpt>
      <trkpt lat="42.8425520" lon="-7.7379160">
        <ele>690.0</ele>
        <time>2020-04-16T19:05:43Z</time>
      </trkpt>
      <trkpt lat="42.8425640" lon="-7.7380630">
        <ele>690.3</ele>
        <time>2020-04-16T19:05:45Z</time>
      </trkpt>
      <trkpt lat="42.8425880" lon="-7.7383640">
        <ele>691.0</ele>
        <time>2020-04-16T19:05:47Z</time>
      </trkpt>
      <trkpt lat="42.8425980" lon="-7.7384940">
        <ele>691.3</ele>
        <time>2020-04-16T19:05:49Z</time>
      </trkpt>
      <trkpt lat="42.8426080" lon="-7.7386180">
        <ele>691.6</ele>
        <time>2020-04-16T19:05:51Z</time>
      </trkpt>
      <trkpt lat="42.8426170" lon="-7.7387360">
        <ele>691.9</ele>
        <time>2020-04-16T19:05:53Z</time>
      </trkpt>
      <trkpt lat="42.8426260" lon="-7.7388480">
        <ele>692.2</ele>
        <time>2020-04-16T19:05:55Z</time>
      </trkpt>
      <trkpt lat="42.8426350" lon="-7.7389570">
        <ele>692.5</ele>
        <time>2020-04-16T19:05:57Z</time>
      </trkpt>
      <trkpt lat="42.8426440" lon="-7.7390610">
        <ele>692.9</ele>
        <time>2020-04-16T19:05:59Z</time>
      </trkpt>
      <trkpt lat="42.8426770" lon="-7.7394820">
        <ele>694.4</ele>
        <time>2020-04-16T19:06:01Z</time>
      </trkpt>
      <trkpt lat="42.8426850" lon="-7.7395780">
        <ele>694.8</ele>
        <time>2020-04-16T19:06:03Z</time>
      </trkpt>
      <trkpt lat="42.8426920" lon="-7.7396660">
        <ele>695.1</ele>
        <time>2020-04-16T19:06:05Z</time>
      </trkpt>
      <trkpt lat="42.8426990" lon="-7.7397480">
        <ele>695.5</ele>
        <time>2020-04-16T19:06:07Z</time>
      </trkpt>
      <trkpt lat="42.8427050" lon="-7.7398240">
        <ele>695.8</ele>
        <time>2020-04-16T19:06:09Z</time>
      </trkpt>
      <trkpt lat="42.8427110" lon="-7.7398980">
        <ele>696.1</ele>
        <time>2020-04-16T19:06:11Z</time>
      </trkpt>
      <trkpt lat="42.8427170" lon="-7.7399690">
        <ele>696.5</ele>
        <time>2020-04-16T19:06:13Z</time>
      </trkpt>
      <trkpt lat="42.8427220" lon="-7.7400380">
        <ele>696.8</ele>
        <time>2020-04-16T19:06:15Z</time>
      </trkpt>
      <trkpt lat="42.8427280" lon="-7.7401040">
        <ele>697.1</ele>
        <time>2020-04-16T19:06:17Z</time>
      </trkpt>
      <trkpt lat="42.8427330" lon="-7.7401710">
        <ele>697.4</ele>
        <time>2020-04-16T19:06:19Z</time>
      </trkpt>
      <trkpt lat="42.8427390" lon="-7.7402370">
        <ele>697.7</ele>
        <time>2020-04-16T19:06:21Z</time>
      </trkpt>
      <trkpt lat="42.8427440" lon="-7.7403010">
        <ele>697.9</ele>
        <time>2020-04-16T19:06:23Z</time>
      </trkpt>
      <trkpt lat="42.8427750" lon="-7.7406850">
        <ele>699.4</ele>
        <time>2020-04-16T19:06:25Z</time>
      </trkpt>
      <trkpt lat="42.8427810" lon="-7.7407560">
        <ele>699.6</ele>
        <time>2020-04-16T19:06:27Z</time>
      </trkpt>
      <trkpt lat="42.8427870" lon="-7.7408300">
        <ele>699.9</ele>
        <time>2020-04-16T19:06:29Z</time>
      </trkpt>
      <trkpt lat="42.8428120" lon="-7.7409700">
        <ele>700.3</ele>
        <time>2020-04-16T19:06:31Z</time>
      </trkpt>
      <trkpt lat="42.8428410" lon="-7.7410560">
        <ele>700.5</ele>
        <time>2020-04-16T19:06:33Z</time>
      </trkpt>
      <trkpt lat="42.8429010" lon="-7.7412310">
        <ele>700.9</ele>
        <time>2020-04-16T19:06:35Z</time>
      </trkpt>
      <trkpt lat="42.8429380" lon="-7.7413370">
        <ele>701.1</ele>
        <time>2020-04-16T19:06:37Z</time>
      </trkpt>
      <trkpt lat="42.8429770" lon="-7.7414520">
        <ele>701.2</ele>
        <time>2020-04-16T19:06:39Z</time>
      </trkpt>
      <trkpt lat="42.8430190" lon="-7.7415730">
        <ele>701.2</ele>
        <time>2020-04-16T19:06:41Z</time>
      </trkpt>
      <trkpt lat="42.8430630" lon="-7.7417000">
        <ele>701.2</ele>
        <time>2020-04-16T19:06:43Z</time>
      </trkpt>
      <trkpt lat="42.8431720" lon="-7.7420170">
        <ele>701.0</ele>
        <time>2020-04-16T19:06:45Z</time>
      </trkpt>
      <trkpt lat="42.8432080" lon="-7.7422460">
        <ele>701.0</ele>
        <time>2020-04-16T19:06:47Z</time>
      </trkpt>
      <trkpt lat="42.8432190" lon="-7.7424000">
        <ele>700.9</ele>
        <time>2020-04-16T19:06:49Z</time>
      </trkpt>
      <trkpt lat="42.8432320" lon="-7.7425590">
        <ele>700.9</ele>
        <time>2020-04-16T19:06:51Z</time>
      </trkpt>
      <trkpt lat="42.8432550" lon="-7.7428590">
        <ele>701.0</ele>
        <time>2020-04-16T19:06:53Z</time>
      </trkpt>
      <trkpt lat="42.8432680" lon="-7.7430240">
        <ele>701.2</ele>
        <time>2020-04-16T19:06:55Z</time>
      </trkpt>
      <trkpt lat="42.8432810" lon="-7.7431910">
        <ele>701.4</ele>
        <time>2020-04-16T19:06:57Z</time>
      </trkpt>
      <trkpt lat="42.8433100" lon="-7.7435670">
        <ele>701.8</ele>
        <time>2020-04-16T19:06:59Z</time>
      </trkpt>
      <trkpt lat="42.8433230" lon="-7.7437390">
        <ele>702.0</ele>
        <time>2020-04-16T19:07:01Z</time>
      </trkpt>
      <trkpt lat="42.8433360" lon="-7.7439140">
        <ele>702.2</ele>
        <time>2020-04-16T19:07:03Z</time>
      </trkpt>
      <trkpt lat="42.8433660" lon="-7.7443020">
        <ele>702.5</ele>
        <time>2020-04-16T19:07:05Z</time>
      </trkpt>
      <trkpt lat="42.8433800" lon="-7.7444790">
        <ele>702.7</ele>
        <time>2020-04-16T19:07:07Z</time>
      </trkpt>
      <trkpt lat="42.8433940" lon="-7.7446560">
        <ele>702.9</ele>
        <time>2020-04-16T19:07:09Z</time>
      </trkpt>
      <trkpt lat="42.8434080" lon="-7.7448350">
        <ele>703.1</ele>
        <time>2020-04-16T19:07:11Z</time>
      </trkpt>
      <trkpt lat="42.8434380" lon="-7.7452250">
        <ele>703.6</ele>
        <time>2020-04-16T19:07:13Z</time>
      </trkpt>
      <trkpt lat="42.8434510" lon="-7.7453940">
        <ele>703.7</ele>
        <time>2020-04-16T19:07:15Z</time>
      </trkpt>
      <trkpt lat="42.8434910" lon="-7.7456680">
        <ele>703.7</ele>
        <time>2020-04-16T19:07:17Z</time>
      </trkpt>
      <trkpt lat="42.8435420" lon="-7.7459260">
        <ele>703.6</ele>
        <time>2020-04-16T19:07:19Z</time>
      </trkpt>
      <trkpt lat="42.8435730" lon="-7.7460800">
        <ele>703.5</ele>
        <time>2020-04-16T19:07:21Z</time>
      </trkpt>
      <trkpt lat="42.8436320" lon="-7.7463390">
        <ele>703.1</ele>
        <time>2020-04-16T19:07:23Z</time>
      </trkpt>
      <trkpt lat="42.8436820" lon="-7.7464780">
        <ele>703.0</ele>
        <time>2020-04-16T19:07:25Z</time>
      </trkpt>
      <trkpt lat="42.8437300" lon="-7.7466130">
        <ele>702.9</ele>
        <time>2020-04-16T19:07:27Z</time>
      </trkpt>
      <trkpt lat="42.8437780" lon="-7.7467460">
        <ele>702.9</ele>
        <time>2020-04-16T19:07:29Z</time>
      </trkpt>
      <trkpt lat="42.8438240" lon="-7.7468740">
        <ele>702.8</ele>
        <time>2020-04-16T19:07:31Z</time>
      </trkpt>
      <trkpt lat="42.8438690" lon="-7.7470000">
        <ele>702.8</ele>
        <time>2020-04-16T19:07:33Z</time>
      </trkpt>
      <trkpt lat="42.8440200" lon="-7.7474120">
        <ele>702.6</ele>
        <time>2020-04-16T19:07:35Z</time>
      </trkpt>
      <trkpt lat="42.8440720" lon="-7.7475280">
        <ele>702.5</ele>
        <time>2020-04-16T19:07:37Z</time>
      </trkpt>
      <trkpt lat="42.8441550" lon="-7.7477140">
        <ele>702.5</ele>
        <time>2020-04-16T19:07:39Z</time>
      </trkpt>
      <trkpt lat="42.8442050" lon="-7.7478290">
        <ele>702.4</ele>
        <time>2020-04-16T19:07:41Z</time>
      </trkpt>
      <trkpt lat="42.8442930" lon="-7.7480580">
        <ele>702.3</ele>
        <time>2020-04-16T19:07:43Z</time>
      </trkpt>
      <trkpt lat="42.8443000" lon="-7.7482210">
        <ele>702.2</ele>
        <time>2020-04-16T19:07:45Z</time>
      </trkpt>
      <trkpt lat="42.8442510" lon="-7.7483820">
        <ele>702.0</ele>
        <time>2020-04-16T19:07:47Z</time>
      </trkpt>
      <trkpt lat="42.8442190" lon="-7.7485800">
        <ele>701.9</ele>
        <time>2020-04-16T19:07:49Z</time>
      </trkpt>
      <trkpt lat="42.8442480" lon="-7.7487510">
        <ele>701.8</ele>
        <time>2020-04-16T19:07:51Z</time>
      </trkpt>
      <trkpt lat="42.8442770" lon="-7.7488970">
        <ele>701.8</ele>
        <time>2020-04-16T19:07:53Z</time>
      </trkpt>
      <trkpt lat="42.8443360" lon="-7.7491620">
        <ele>701.8</ele>
        <time>2020-04-16T19:07:55Z</time>
      </trkpt>
      <trkpt lat="42.8444010" lon="-7.7493760">
        <ele>702.0</ele>
        <time>2020-04-16T19:07:57Z</time>
      </trkpt>
      <trkpt lat="42.8444850" lon="-7.7495720">
        <ele>702.2</ele>
        <time>2020-04-16T19:07:59Z</time>
      </trkpt>
      <trkpt lat="42.8445440" lon="-7.7497110">
        <ele>702.3</ele>
        <time>2020-04-16T19:08:01Z</time>
      </trkpt>
      <trkpt lat="42.8446240" lon="-7.7499270">
        <ele>702.8</ele>
        <time>2020-04-16T19:08:03Z</time>
      </trkpt>
      <trkpt lat="42.8446700" lon="-7.7500760">
        <ele>703.3</ele>
        <time>2020-04-16T19:08:05Z</time>
      </trkpt>
      <trkpt lat="42.8447160" lon="-7.7502260">
        <ele>703.9</ele>
        <time>2020-04-16T19:08:07Z</time>
      </trkpt>
      <trkpt lat="42.8448070" lon="-7.7505330">
        <ele>705.2</ele>
        <time>2020-04-16T19:08:09Z</time>
      </trkpt>
      <trkpt lat="42.8448410" lon="-7.7506580">
        <ele>705.7</ele>
        <time>2020-04-16T19:08:11Z</time>
      </trkpt>
      <trkpt lat="42.8448710" lon="-7.7507660">
        <ele>706.2</ele>
        <time>2020-04-16T19:08:13Z</time>
      </trkpt>
      <trkpt lat="42.8448960" lon="-7.7508590">
        <ele>706.6</ele>
        <time>2020-04-16T19:08:15Z</time>
      </trkpt>
      <trkpt lat="42.8449630" lon="-7.7511040">
        <ele>707.8</ele>
        <time>2020-04-16T19:08:17Z</time>
      </trkpt>
      <trkpt lat="42.8449830" lon="-7.7511760">
        <ele>708.2</ele>
        <time>2020-04-16T19:08:19Z</time>
      </trkpt>
      <trkpt lat="42.8450010" lon="-7.7512420">
        <ele>708.5</ele>
        <time>2020-04-16T19:08:21Z</time>
      </trkpt>
      <trkpt lat="42.8450180" lon="-7.7513050">
        <ele>708.8</ele>
        <time>2020-04-16T19:08:23Z</time>
      </trkpt>
      <trkpt lat="42.8450340" lon="-7.7513640">
        <ele>709.1</ele>
        <time>2020-04-16T19:08:25Z</time>
      </trkpt>
      <trkpt lat="42.8450500" lon="-7.7514230">
        <ele>709.5</ele>
        <time>2020-04-16T19:08:27Z</time>
      </trkpt>
      <trkpt lat="42.8450660" lon="-7.7514800">
        <ele>709.8</ele>
        <time>2020-04-16T19:08:29Z</time>
      </trkpt>
      <trkpt lat="42.8450810" lon="-7.7515360">
        <ele>710.1</ele>
        <time>2020-04-16T19:08:31Z</time>
      </trkpt>
      <trkpt lat="42.8451470" lon="-7.7517780">
        <ele>711.5</ele>
        <time>2020-04-16T19:08:33Z</time>
      </trkpt>
      <trkpt lat="42.8451680" lon="-7.7518540">
        <ele>712.0</ele>
        <time>2020-04-16T19:08:35Z</time>
      </trkpt>
      <trkpt lat="42.8451900" lon="-7.7519360">
        <ele>712.5</ele>
        <time>2020-04-16T19:08:37Z</time>
      </trkpt>
      <trkpt lat="42.8452140" lon="-7.7520200">
        <ele>713.1</ele>
        <time>2020-04-16T19:08:39Z</time>
      </trkpt>
      <trkpt lat="42.8452370" lon="-7.7521040">
        <ele>713.6</ele>
        <time>2020-04-16T19:08:41Z</time>
      </trkpt>
      <trkpt lat="42.8452600" lon="-7.7521900">
        <ele>714.2</ele>
        <time>2020-04-16T19:08:43Z</time>
      </trkpt>
      <trkpt lat="42.8452840" lon="-7.7522760">
        <ele>714.7</ele>
        <time>2020-04-16T19:08:45Z</time>
      </trkpt>
      <trkpt lat="42.8453680" lon="-7.7525830">
        <ele>716.5</ele>
        <time>2020-04-16T19:08:47Z</time>
      </trkpt>
      <trkpt lat="42.8453920" lon="-7.7526690">
        <ele>717.0</ele>
        <time>2020-04-16T19:08:49Z</time>
      </trkpt>
      <trkpt lat="42.8454180" lon="-7.7528150">
        <ele>717.7</ele>
        <time>2020-04-16T19:08:51Z</time>
      </trkpt>
      <trkpt lat="42.8454210" lon="-7.7529070">
        <ele>718.2</ele>
        <time>2020-04-16T19:08:53Z</time>
      </trkpt>
      <trkpt lat="42.8454250" lon="-7.7530700">
        <ele>719.0</ele>
        <time>2020-04-16T19:08:55Z</time>
      </trkpt>
      <trkpt lat="42.8454280" lon="-7.7531720">
        <ele>719.5</ele>
        <time>2020-04-16T19:08:57Z</time>
      </trkpt>
      <trkpt lat="42.8454310" lon="-7.7532790">
        <ele>720.0</ele>
        <time>2020-04-16T19:08:59Z</time>
      </trkpt>
      <trkpt lat="42.8454330" lon="-7.7533890">
        <ele>720.4</ele>
        <time>2020-04-16T19:09:01Z</time>
      </trkpt>
      <trkpt lat="42.8454360" lon="-7.7535020">
        <ele>720.8</ele>
        <time>2020-04-16T19:09:03Z</time>
      </trkpt>
      <trkpt lat="42.8454390" lon="-7.7536160">
        <ele>721.1</ele>
        <time>2020-04-16T19:09:05Z</time>
      </trkpt>
      <trkpt lat="42.8454490" lon="-7.7539780">
        <ele>721.7</ele>
        <time>2020-04-16T19:09:07Z</time>
      </trkpt>
      <trkpt lat="42.8454610" lon="-7.7541290">
        <ele>721.8</ele>
        <time>2020-04-16T19:09:09Z</time>
      </trkpt>
      <trkpt lat="42.8454850" lon="-7.7542400">
        <ele>721.8</ele>
        <time>2020-04-16T19:09:11Z</time>
      </trkpt>
      <trkpt lat="42.8455290" lon="-7.7544450">
        <ele>721.8</ele>
        <time>2020-04-16T19:09:13Z</time>
      </trkpt>
      <trkpt lat="42.8455530" lon="-7.7545580">
        <ele>721.7</ele>
        <time>2020-04-16T19:09:15Z</time>
      </trkpt>
      <trkpt lat="42.8455780" lon="-7.7546750">
        <ele>721.7</ele>
        <time>2020-04-16T19:09:17Z</time>
      </trkpt>
      <trkpt lat="42.8456040" lon="-7.7547960">
        <ele>721.5</ele>
        <time>2020-04-16T19:09:19Z</time>
      </trkpt>
      <trkpt lat="42.8456310" lon="-7.7549220">
        <ele>721.3</ele>
        <time>2020-04-16T19:09:21Z</time>
      </trkpt>
      <trkpt lat="42.8456580" lon="-7.7550500">
        <ele>721.0</ele>
        <time>2020-04-16T19:09:23Z</time>
      </trkpt>
      <trkpt lat="42.8456860" lon="-7.7551810">
        <ele>720.9</ele>
        <time>2020-04-16T19:09:25Z</time>
      </trkpt>
      <trkpt lat="42.8457840" lon="-7.7556210">
        <ele>720.5</ele>
        <time>2020-04-16T19:09:27Z</time>
      </trkpt>
      <trkpt lat="42.8458280" lon="-7.7557470">
        <ele>720.3</ele>
        <time>2020-04-16T19:09:29Z</time>
      </trkpt>
      <trkpt lat="42.8459180" lon="-7.7559250">
        <ele>719.8</ele>
        <time>2020-04-16T19:09:31Z</time>
      </trkpt>
      <trkpt lat="42.8459910" lon="-7.7560290">
        <ele>719.4</ele>
        <time>2020-04-16T19:09:33Z</time>
      </trkpt>
      <trkpt lat="42.8461270" lon="-7.7562250">
        <ele>718.7</ele>
        <time>2020-04-16T19:09:35Z</time>
      </trkpt>
      <trkpt lat="42.8462050" lon="-7.7563350">
        <ele>718.3</ele>
        <time>2020-04-16T19:09:37Z</time>
      </trkpt>
      <trkpt lat="42.8463470" lon="-7.7565280">
        <ele>717.8</ele>
        <time>2020-04-16T19:09:39Z</time>
      </trkpt>
      <trkpt lat="42.8464410" lon="-7.7566360">
        <ele>717.5</ele>
        <time>2020-04-16T19:09:41Z</time>
      </trkpt>
      <trkpt lat="42.8465990" lon="-7.7568160">
        <ele>717.0</ele>
        <time>2020-04-16T19:09:43Z</time>
      </trkpt>
      <trkpt lat="42.8467550" lon="-7.7569920">
        <ele>716.8</ele>
        <time>2020-04-16T19:09:45Z</time>
      </trkpt>
      <trkpt lat="42.8468700" lon="-7.7570880">
        <ele>716.6</ele>
        <time>2020-04-16T19:09:47Z</time>
      </trkpt>
      <trkpt lat="42.8470430" lon="-7.7572330">
        <ele>716.6</ele>
        <time>2020-04-16T19:09:49Z</time>
      </trkpt>
      <trkpt lat="42.8471550" lon="-7.7573260">
        <ele>716.6</ele>
        <time>2020-04-16T19:09:51Z</time>
      </trkpt>
      <trkpt lat="42.8472640" lon="-7.7574180">
        <ele>716.7</ele>
        <time>2020-04-16T19:09:53Z</time>
      </trkpt>
      <trkpt lat="42.8473710" lon="-7.7575070">
        <ele>716.8</ele>
        <time>2020-04-16T19:09:55Z</time>
      </trkpt>
      <trkpt lat="42.8476560" lon="-7.7577450">
        <ele>717.0</ele>
        <time>2020-04-16T19:09:57Z</time>
      </trkpt>
      <trkpt lat="42.8477580" lon="-7.7578310">
        <ele>717.3</ele>
        <time>2020-04-16T19:09:59Z</time>
      </trkpt>
      <trkpt lat="42.8479080" lon="-7.7579770">
        <ele>717.8</ele>
        <time>2020-04-16T19:10:01Z</time>
      </trkpt>
      <trkpt lat="42.8479820" lon="-7.7580760">
        <ele>718.2</ele>
        <time>2020-04-16T19:10:03Z</time>
      </trkpt>
      <trkpt lat="42.8480500" lon="-7.7581670">
        <ele>718.5</ele>
        <time>2020-04-16T19:10:05Z</time>
      </trkpt>
      <trkpt lat="42.8481930" lon="-7.7583580">
        <ele>719.3</ele>
        <time>2020-04-16T19:10:07Z</time>
      </trkpt>
      <trkpt lat="42.8482520" lon="-7.7584360">
        <ele>719.6</ele>
        <time>2020-04-16T19:10:09Z</time>
      </trkpt>
      <trkpt lat="42.8483050" lon="-7.7585080">
        <ele>719.8</ele>
        <time>2020-04-16T19:10:11Z</time>
      </trkpt>
      <trkpt lat="42.8483560" lon="-7.7585760">
        <ele>720.0</ele>
        <time>2020-04-16T19:10:13Z</time>
      </trkpt>
      <trkpt lat="42.8484040" lon="-7.7586400">
        <ele>720.1</ele>
        <time>2020-04-16T19:10:15Z</time>
      </trkpt>
      <trkpt lat="42.8485450" lon="-7.7588280">
        <ele>720.2</ele>
        <time>2020-04-16T19:10:17Z</time>
      </trkpt>
      <trkpt lat="42.8486110" lon="-7.7589160">
        <ele>720.2</ele>
        <time>2020-04-16T19:10:19Z</time>
      </trkpt>
      <trkpt lat="42.8486920" lon="-7.7590240">
        <ele>720.2</ele>
        <time>2020-04-16T19:10:21Z</time>
      </trkpt>
      <trkpt lat="42.8487850" lon="-7.7591480">
        <ele>720.2</ele>
        <time>2020-04-16T19:10:23Z</time>
      </trkpt>
      <trkpt lat="42.8490030" lon="-7.7594400">
        <ele>719.6</ele>
        <time>2020-04-16T19:10:25Z</time>
      </trkpt>
      <trkpt lat="42.8491170" lon="-7.7595930">
        <ele>719.1</ele>
        <time>2020-04-16T19:10:27Z</time>
      </trkpt>
      <trkpt lat="42.8492420" lon="-7.7597590">
        <ele>718.7</ele>
        <time>2020-04-16T19:10:29Z</time>
      </trkpt>
      <trkpt lat="42.8495120" lon="-7.7601360">
        <ele>717.8</ele>
        <time>2020-04-16T19:10:31Z</time>
      </trkpt>
      <trkpt lat="42.8496660" lon="-7.7604210">
        <ele>717.1</ele>
        <time>2020-04-16T19:10:33Z</time>
      </trkpt>
      <trkpt lat="42.8497230" lon="-7.7606340">
        <ele>716.6</ele>
        <time>2020-04-16T19:10:35Z</time>
      </trkpt>
      <trkpt lat="42.8497980" lon="-7.7609170">
        <ele>715.9</ele>
        <time>2020-04-16T19:10:37Z</time>
      </trkpt>
      <trkpt lat="42.8498830" lon="-7.7612330">
        <ele>714.8</ele>
        <time>2020-04-16T19:10:39Z</time>
      </trkpt>
      <trkpt lat="42.8499380" lon="-7.7614370">
        <ele>714.0</ele>
        <time>2020-04-16T19:10:41Z</time>
      </trkpt>
      <trkpt lat="42.8500450" lon="-7.7617570">
        <ele>712.6</ele>
        <time>2020-04-16T19:10:43Z</time>
      </trkpt>
      <trkpt lat="42.8501360" lon="-7.7619930">
        <ele>711.5</ele>
        <time>2020-04-16T19:10:45Z</time>
      </trkpt>
      <trkpt lat="42.8503090" lon="-7.7624430">
        <ele>709.6</ele>
        <time>2020-04-16T19:10:47Z</time>
      </trkpt>
      <trkpt lat="42.8504030" lon="-7.7626860">
        <ele>709.1</ele>
        <time>2020-04-16T19:10:49Z</time>
      </trkpt>
      <trkpt lat="42.8505680" lon="-7.7631160">
        <ele>706.8</ele>
        <time>2020-04-16T19:10:51Z</time>
      </trkpt>
      <trkpt lat="42.8506800" lon="-7.7634090">
        <ele>704.5</ele>
        <time>2020-04-16T19:10:53Z</time>
      </trkpt>
      <trkpt lat="42.8507580" lon="-7.7636160">
        <ele>703.0</ele>
        <time>2020-04-16T19:10:55Z</time>
      </trkpt>
      <trkpt lat="42.8508600" lon="-7.7639540">
        <ele>701.7</ele>
        <time>2020-04-16T19:10:57Z</time>
      </trkpt>
      <trkpt lat="42.8509100" lon="-7.7641830">
        <ele>700.6</ele>
        <time>2020-04-16T19:10:59Z</time>
      </trkpt>
      <trkpt lat="42.8509630" lon="-7.7644210">
        <ele>699.2</ele>
        <time>2020-04-16T19:11:01Z</time>
      </trkpt>
      <trkpt lat="42.8510710" lon="-7.7649110">
        <ele>696.1</ele>
        <time>2020-04-16T19:11:03Z</time>
      </trkpt>
      <trkpt lat="42.8511610" lon="-7.7653040">
        <ele>693.7</ele>
        <time>2020-04-16T19:11:05Z</time>
      </trkpt>
      <trkpt lat="42.8512630" lon="-7.7656640">
        <ele>691.4</ele>
        <time>2020-04-16T19:11:07Z</time>
      </trkpt>
      <trkpt lat="42.8513390" lon="-7.7659350">
        <ele>689.6</ele>
        <time>2020-04-16T19:11:09Z</time>
      </trkpt>
      <trkpt lat="42.8514180" lon="-7.7662140">
        <ele>687.7</ele>
        <time>2020-04-16T19:11:11Z</time>
      </trkpt>
      <trkpt lat="42.8515780" lon="-7.7668060">
        <ele>683.7</ele>
        <time>2020-04-16T19:11:13Z</time>
      </trkpt>
      <trkpt lat="42.8516250" lon="-7.7671210">
        <ele>682.5</ele>
        <time>2020-04-16T19:11:15Z</time>
      </trkpt>
      <trkpt lat="42.8517320" lon="-7.7676660">
        <ele>680.1</ele>
        <time>2020-04-16T19:11:17Z</time>
      </trkpt>
      <trkpt lat="42.8518400" lon="-7.7680510">
        <ele>677.3</ele>
        <time>2020-04-16T19:11:19Z</time>
      </trkpt>
      <trkpt lat="42.8519480" lon="-7.7683540">
        <ele>675.2</ele>
        <time>2020-04-16T19:11:21Z</time>
      </trkpt>
      <trkpt lat="42.8521170" lon="-7.7688270">
        <ele>672.1</ele>
        <time>2020-04-16T19:11:23Z</time>
      </trkpt>
      <trkpt lat="42.8522880" lon="-7.7693050">
        <ele>669.3</ele>
        <time>2020-04-16T19:11:25Z</time>
      </trkpt>
      <trkpt lat="42.8523950" lon="-7.7696030">
        <ele>667.7</ele>
        <time>2020-04-16T19:11:27Z</time>
      </trkpt>
      <trkpt lat="42.8525140" lon="-7.7701060">
        <ele>665.3</ele>
        <time>2020-04-16T19:11:29Z</time>
      </trkpt>
      <trkpt lat="42.8525370" lon="-7.7705250">
        <ele>663.2</ele>
        <time>2020-04-16T19:11:31Z</time>
      </trkpt>
      <trkpt lat="42.8525370" lon="-7.7709440">
        <ele>660.7</ele>
        <time>2020-04-16T19:11:33Z</time>
      </trkpt>
      <trkpt lat="42.8525230" lon="-7.7712390">
        <ele>658.9</ele>
        <time>2020-04-16T19:11:35Z</time>
      </trkpt>
      <trkpt lat="42.8525090" lon="-7.7715270">
        <ele>657.3</ele>
        <time>2020-04-16T19:11:37Z</time>
      </trkpt>
      <trkpt lat="42.8525260" lon="-7.7721280">
        <ele>653.7</ele>
        <time>2020-04-16T19:11:39Z</time>
      </trkpt>
      <trkpt lat="42.8526090" lon="-7.7725350">
        <ele>651.5</ele>
        <time>2020-04-16T19:11:41Z</time>
      </trkpt>
      <trkpt lat="42.8527750" lon="-7.7728060">
        <ele>650.0</ele>
        <time>2020-04-16T19:11:43Z</time>
      </trkpt>
      <trkpt lat="42.8529270" lon="-7.7730020">
        <ele>649.0</ele>
        <time>2020-04-16T19:11:45Z</time>
      </trkpt>
      <trkpt lat="42.8532060" lon="-7.7733490">
        <ele>647.2</ele>
        <time>2020-04-16T19:11:47Z</time>
      </trkpt>
      <trkpt lat="42.8533610" lon="-7.7735270">
        <ele>646.1</ele>
        <time>2020-04-16T19:11:49Z</time>
      </trkpt>
      <trkpt lat="42.8535080" lon="-7.7736960">
        <ele>645.3</ele>
        <time>2020-04-16T19:11:51Z</time>
      </trkpt>
      <trkpt lat="42.8538080" lon="-7.7740670">
        <ele>643.7</ele>
        <time>2020-04-16T19:11:53Z</time>
      </trkpt>
      <trkpt lat="42.8539150" lon="-7.7742630">
        <ele>643.1</ele>
        <time>2020-04-16T19:11:55Z</time>
      </trkpt>
      <trkpt lat="42.8540980" lon="-7.7745960">
        <ele>642.1</ele>
        <time>2020-04-16T19:11:57Z</time>
      </trkpt>
      <trkpt lat="42.8541990" lon="-7.7747810">
        <ele>641.7</ele>
        <time>2020-04-16T19:11:59Z</time>
      </trkpt>
      <trkpt lat="42.8542960" lon="-7.7749580">
        <ele>641.3</ele>
        <time>2020-04-16T19:12:01Z</time>
      </trkpt>
      <trkpt lat="42.8544790" lon="-7.7753090">
        <ele>640.9</ele>
        <time>2020-04-16T19:12:03Z</time>
      </trkpt>
      <trkpt lat="42.8545640" lon="-7.7754850">
        <ele>640.4</ele>
        <time>2020-04-16T19:12:05Z</time>
      </trkpt>
      <trkpt lat="42.8547050" lon="-7.7757770">
        <ele>639.5</ele>
        <time>2020-04-16T19:12:07Z</time>
      </trkpt>
      <trkpt lat="42.8548240" lon="-7.7760540">
        <ele>638.8</ele>
        <time>2020-04-16T19:12:09Z</time>
      </trkpt>
      <trkpt lat="42.8548900" lon="-7.7762430">
        <ele>638.4</ele>
        <time>2020-04-16T19:12:11Z</time>
      </trkpt>
      <trkpt lat="42.8550080" lon="-7.7765810">
        <ele>637.8</ele>
        <time>2020-04-16T19:12:13Z</time>
      </trkpt>
      <trkpt lat="42.8550750" lon="-7.7767720">
        <ele>637.4</ele>
        <time>2020-04-16T19:12:15Z</time>
      </trkpt>
      <trkpt lat="42.8551970" lon="-7.7771090">
        <ele>636.7</ele>
        <time>2020-04-16T19:12:17Z</time>
      </trkpt>
      <trkpt lat="42.8553060" lon="-7.7773250">
        <ele>636.4</ele>
        <time>2020-04-16T19:12:19Z</time>
      </trkpt>
      <trkpt lat="42.8554850" lon="-7.7775270">
        <ele>635.5</ele>
        <time>2020-04-16T19:12:21Z</time>
      </trkpt>
      <trkpt lat="42.8556760" lon="-7.7776630">
        <ele>633.8</ele>
        <time>2020-04-16T19:12:23Z</time>
      </trkpt>
      <trkpt lat="42.8558970" lon="-7.7777360">
        <ele>632.3</ele>
        <time>2020-04-16T19:12:25Z</time>
      </trkpt>
      <trkpt lat="42.8561920" lon="-7.7778390">
        <ele>630.7</ele>
        <time>2020-04-16T19:12:27Z</time>
      </trkpt>
      <trkpt lat="42.8563790" lon="-7.7779630">
        <ele>629.9</ele>
        <time>2020-04-16T19:12:29Z</time>
      </trkpt>
      <trkpt lat="42.8566390" lon="-7.7781430">
        <ele>629.1</ele>
        <time>2020-04-16T19:12:31Z</time>
      </trkpt>
      <trkpt lat="42.8568240" lon="-7.7783000">
        <ele>628.7</ele>
        <time>2020-04-16T19:12:33Z</time>
      </trkpt>
      <trkpt lat="42.8570090" lon="-7.7784410">
        <ele>628.2</ele>
        <time>2020-04-16T19:12:35Z</time>
      </trkpt>
      <trkpt lat="42.8572190" lon="-7.7785870">
        <ele>627.9</ele>
        <time>2020-04-16T19:12:37Z</time>
      </trkpt>
      <trkpt lat="42.8573860" lon="-7.7787940">
        <ele>627.2</ele>
        <time>2020-04-16T19:12:39Z</time>
      </trkpt>
      <trkpt lat="42.8575280" lon="-7.7789690">
        <ele>626.7</ele>
        <time>2020-04-16T19:12:41Z</time>
      </trkpt>
      <trkpt lat="42.8576830" lon="-7.7790690">
        <ele>626.2</ele>
        <time>2020-04-16T19:12:43Z</time>
      </trkpt>
      <trkpt lat="42.8578480" lon="-7.7791410">
        <ele>625.8</ele>
        <time>2020-04-16T19:12:45Z</time>
      </trkpt>
      <trkpt lat="42.8579760" lon="-7.7791950">
        <ele>625.6</ele>
        <time>2020-04-16T19:12:47Z</time>
      </trkpt>
      <trkpt lat="42.8582310" lon="-7.7792970">
        <ele>625.4</ele>
        <time>2020-04-16T19:12:49Z</time>
      </trkpt>
      <trkpt lat="42.8583800" lon="-7.7793840">
        <ele>625.3</ele>
        <time>2020-04-16T19:12:51Z</time>
      </trkpt>
      <trkpt lat="42.8585130" lon="-7.7794980">
        <ele>625.2</ele>
        <time>2020-04-16T19:12:53Z</time>
      </trkpt>
      <trkpt lat="42.8586500" lon="-7.7796240">
        <ele>625.1</ele>
        <time>2020-04-16T19:12:55Z</time>
      </trkpt>
      <trkpt lat="42.8587760" lon="-7.7797250">
        <ele>625.0</ele>
        <time>2020-04-16T19:12:57Z</time>
      </trkpt>
      <trkpt lat="42.8589230" lon="-7.7798590">
        <ele>624.9</ele>
        <time>2020-04-16T19:12:59Z</time>
      </trkpt>
      <trkpt lat="42.8590410" lon="-7.7800300">
        <ele>624.8</ele>
        <time>2020-04-16T19:13:01Z</time>
      </trkpt>
      <trkpt lat="42.8591350" lon="-7.7801610">
        <ele>624.7</ele>
        <time>2020-04-16T19:13:03Z</time>
      </trkpt>
      <trkpt lat="42.8592720" lon="-7.7803670">
        <ele>624.5</ele>
        <time>2020-04-16T19:13:05Z</time>
      </trkpt>
      <trkpt lat="42.8593710" lon="-7.7805240">
        <ele>624.3</ele>
        <time>2020-04-16T19:13:07Z</time>
      </trkpt>
      <trkpt lat="42.8595740" lon="-7.7808380">
        <ele>623.9</ele>
        <time>2020-04-16T19:13:09Z</time>
      </trkpt>
      <trkpt lat="42.8596880" lon="-7.7810040">
        <ele>623.6</ele>
        <time>2020-04-16T19:13:11Z</time>
      </trkpt>
      <trkpt lat="42.8598050" lon="-7.7811750">
        <ele>623.2</ele>
        <time>2020-04-16T19:13:13Z</time>
      </trkpt>
      <trkpt lat="42.8601000" lon="-7.7814630">
        <ele>622.0</ele>
        <time>2020-04-16T19:13:15Z</time>
      </trkpt>
      <trkpt lat="42.8603260" lon="-7.7815130">
        <ele>620.7</ele>
        <time>2020-04-16T19:13:17Z</time>
      </trkpt>
      <trkpt lat="42.8604980" lon="-7.7816950">
        <ele>619.5</ele>
        <time>2020-04-16T19:13:19Z</time>
      </trkpt>
      <trkpt lat="42.8607330" lon="-7.7819290">
        <ele>618.3</ele>
        <time>2020-04-16T19:13:21Z</time>
      </trkpt>
      <trkpt lat="42.8609310" lon="-7.7821170">
        <ele>617.2</ele>
        <time>2020-04-16T19:13:23Z</time>
      </trkpt>
      <trkpt lat="42.8611420" lon="-7.7823310">
        <ele>615.7</ele>
        <time>2020-04-16T19:13:25Z</time>
      </trkpt>
      <trkpt lat="42.8613040" lon="-7.7825080">
        <ele>614.6</ele>
        <time>2020-04-16T19:13:27Z</time>
      </trkpt>
      <trkpt lat="42.8616370" lon="-7.7827260">
        <ele>613.5</ele>
        <time>2020-04-16T19:13:29Z</time>
      </trkpt>
      <trkpt lat="42.8619180" lon="-7.7827170">
        <ele>612.0</ele>
        <time>2020-04-16T19:13:31Z</time>
      </trkpt>
      <trkpt lat="42.8621720" lon="-7.7826150">
        <ele>609.8</ele>
        <time>2020-04-16T19:13:33Z</time>
      </trkpt>
      <trkpt lat="42.8623900" lon="-7.7826200">
        <ele>607.5</ele>
        <time>2020-04-16T19:13:35Z</time>
      </trkpt>
      <trkpt lat="42.8623240" lon="-7.7829110">
        <ele>604.9</ele>
        <time>2020-04-16T19:13:37Z</time>
      </trkpt>
      <trkpt lat="42.8622200" lon="-7.7832570">
        <ele>602.2</ele>
        <time>2020-04-16T19:13:39Z</time>
      </trkpt>
      <trkpt lat="42.8622540" lon="-7.7835480">
        <ele>601.2</ele>
        <time>2020-04-16T19:13:41Z</time>
      </trkpt>
      <trkpt lat="42.8623600" lon="-7.7838650">
        <ele>600.3</ele>
        <time>2020-04-16T19:13:43Z</time>
      </trkpt>
      <trkpt lat="42.8624170" lon="-7.7840740">
        <ele>600.2</ele>
        <time>2020-04-16T19:13:45Z</time>
      </trkpt>
      <trkpt lat="42.8625110" lon="-7.7844050">
        <ele>602.4</ele>
        <time>2020-04-16T19:13:47Z</time>
      </trkpt>
      <trkpt lat="42.8625790" lon="-7.7846190">
        <ele>604.5</ele>
        <time>2020-04-16T19:13:49Z</time>
      </trkpt>
      <trkpt lat="42.8626390" lon="-7.7848000">
        <ele>605.6</ele>
        <time>2020-04-16T19:13:51Z</time>
      </trkpt>
      <trkpt lat="42.8626810" lon="-7.7849100">
        <ele>605.9</ele>
        <time>2020-04-16T19:13:53Z</time>
      </trkpt>
      <trkpt lat="42.8627780" lon="-7.7850430">
        <ele>606.9</ele>
        <time>2020-04-16T19:13:55Z</time>
      </trkpt>
      <trkpt lat="42.8628600" lon="-7.7850930">
        <ele>607.9</ele>
        <time>2020-04-16T19:13:57Z</time>
      </trkpt>
      <trkpt lat="42.8629480" lon="-7.7851280">
        <ele>608.9</ele>
        <time>2020-04-16T19:13:59Z</time>
      </trkpt>
      <trkpt lat="42.8630080" lon="-7.7851470">
        <ele>609.6</ele>
        <time>2020-04-16T19:14:01Z</time>
      </trkpt>
      <trkpt lat="42.8630700" lon="-7.7851670">
        <ele>610.3</ele>
        <time>2020-04-16T19:14:03Z</time>
      </trkpt>
      <trkpt lat="42.8631310" lon="-7.7851860">
        <ele>611.0</ele>
        <time>2020-04-16T19:14:05Z</time>
      </trkpt>
      <trkpt lat="42.8631920" lon="-7.7852060">
        <ele>611.6</ele>
        <time>2020-04-16T19:14:07Z</time>
      </trkpt>
      <trkpt lat="42.8633640" lon="-7.7852630">
        <ele>612.9</ele>
        <time>2020-04-16T19:14:09Z</time>
      </trkpt>
      <trkpt lat="42.8634230" lon="-7.7852920">
        <ele>613.2</ele>
        <time>2020-04-16T19:14:11Z</time>
      </trkpt>
      <trkpt lat="42.8635080" lon="-7.7853470">
        <ele>613.8</ele>
        <time>2020-04-16T19:14:13Z</time>
      </trkpt>
      <trkpt lat="42.8635820" lon="-7.7854150">
        <ele>614.3</ele>
        <time>2020-04-16T19:14:15Z</time>
      </trkpt>
      <trkpt lat="42.8636310" lon="-7.7854670">
        <ele>614.7</ele>
        <time>2020-04-16T19:14:17Z</time>
      </trkpt>
      <trkpt lat="42.8637260" lon="-7.7855700">
        <ele>615.5</ele>
        <time>2020-04-16T19:14:19Z</time>
      </trkpt>
      <trkpt lat="42.8637730" lon="-7.7856270">
        <ele>615.9</ele>
        <time>2020-04-16T19:14:21Z</time>
      </trkpt>
      <trkpt lat="42.8638550" lon="-7.7857270">
        <ele>616.4</ele>
        <time>2020-04-16T19:14:23Z</time>
      </trkpt>
      <trkpt lat="42.8639020" lon="-7.7857870">
        <ele>616.8</ele>
        <time>2020-04-16T19:14:25Z</time>
      </trkpt>
      <trkpt lat="42.8639450" lon="-7.7858430">
        <ele>617.3</ele>
        <time>2020-04-16T19:14:27Z</time>
      </trkpt>
      <trkpt lat="42.8639870" lon="-7.7858970">
        <ele>617.8</ele>
        <time>2020-04-16T19:14:29Z</time>
      </trkpt>
      <trkpt lat="42.8640270" lon="-7.7859500">
        <ele>618.3</ele>
        <time>2020-04-16T19:14:31Z</time>
      </trkpt>
      <trkpt lat="42.8640670" lon="-7.7860020">
        <ele>618.8</ele>
        <time>2020-04-16T19:14:33Z</time>
      </trkpt>
      <trkpt lat="42.8641070" lon="-7.7860540">
        <ele>619.4</ele>
        <time>2020-04-16T19:14:35Z</time>
      </trkpt>
      <trkpt lat="42.8641470" lon="-7.7861060">
        <ele>619.9</ele>
        <time>2020-04-16T19:14:37Z</time>
      </trkpt>
      <trkpt lat="42.8641870" lon="-7.7861580">
        <ele>620.4</ele>
        <time>2020-04-16T19:14:39Z</time>
      </trkpt>
      <trkpt lat="42.8643530" lon="-7.7863680">
        <ele>622.2</ele>
        <time>2020-04-16T19:14:41Z</time>
      </trkpt>
      <trkpt lat="42.8644180" lon="-7.7864400">
        <ele>622.6</ele>
        <time>2020-04-16T19:14:43Z</time>
      </trkpt>
      <trkpt lat="42.8644680" lon="-7.7864860">
        <ele>623.3</ele>
        <time>2020-04-16T19:14:45Z</time>
      </trkpt>
      <trkpt lat="42.8645140" lon="-7.7865260">
        <ele>623.9</ele>
        <time>2020-04-16T19:14:47Z</time>
      </trkpt>
      <trkpt lat="42.8645610" lon="-7.7865660">
        <ele>624.6</ele>
        <time>2020-04-16T19:14:49Z</time>
      </trkpt>
      <trkpt lat="42.8646070" lon="-7.7866060">
        <ele>625.2</ele>
        <time>2020-04-16T19:14:51Z</time>
      </trkpt>
      <trkpt lat="42.8647320" lon="-7.7867120">
        <ele>626.3</ele>
        <time>2020-04-16T19:14:53Z</time>
      </trkpt>
      <trkpt lat="42.8647920" lon="-7.7867610">
        <ele>626.9</ele>
        <time>2020-04-16T19:14:55Z</time>
      </trkpt>
      <trkpt lat="42.8648500" lon="-7.7868090">
        <ele>627.0</ele>
        <time>2020-04-16T19:14:57Z</time>
      </trkpt>
      <trkpt lat="42.8649490" lon="-7.7868910">
        <ele>627.3</ele>
        <time>2020-04-16T19:14:59Z</time>
      </trkpt>
      <trkpt lat="42.8650200" lon="-7.7869500">
        <ele>627.7</ele>
        <time>2020-04-16T19:15:01Z</time>
      </trkpt>
      <trkpt lat="42.8650940" lon="-7.7870110">
        <ele>628.0</ele>
        <time>2020-04-16T19:15:03Z</time>
      </trkpt>
      <trkpt lat="42.8651680" lon="-7.7870730">
        <ele>628.3</ele>
        <time>2020-04-16T19:15:05Z</time>
      </trkpt>
      <trkpt lat="42.8653640" lon="-7.7872360">
        <ele>629.1</ele>
        <time>2020-04-16T19:15:07Z</time>
      </trkpt>
      <trkpt lat="42.8654250" lon="-7.7873470">
        <ele>629.4</ele>
        <time>2020-04-16T19:15:09Z</time>
      </trkpt>
      <trkpt lat="42.8654880" lon="-7.7875140">
        <ele>629.7</ele>
        <time>2020-04-16T19:15:11Z</time>
      </trkpt>
      <trkpt lat="42.8655240" lon="-7.7876780">
        <ele>629.9</ele>
        <time>2020-04-16T19:15:13Z</time>
      </trkpt>
      <trkpt lat="42.8655410" lon="-7.7878040">
        <ele>629.8</ele>
        <time>2020-04-16T19:15:15Z</time>
      </trkpt>
      <trkpt lat="42.8655590" lon="-7.7879330">
        <ele>629.8</ele>
        <time>2020-04-16T19:15:17Z</time>
      </trkpt>
      <trkpt lat="42.8655780" lon="-7.7880660">
        <ele>629.9</ele>
        <time>2020-04-16T19:15:19Z</time>
      </trkpt>
      <trkpt lat="42.8655960" lon="-7.7882010">
        <ele>629.9</ele>
        <time>2020-04-16T19:15:21Z</time>
      </trkpt>
      <trkpt lat="42.8656460" lon="-7.7885580">
        <ele>629.9</ele>
        <time>2020-04-16T19:15:23Z</time>
      </trkpt>
      <trkpt lat="42.8656510" lon="-7.7887410">
        <ele>629.8</ele>
        <time>2020-04-16T19:15:25Z</time>
      </trkpt>
      <trkpt lat="42.8656430" lon="-7.7888850">
        <ele>629.7</ele>
        <time>2020-04-16T19:15:27Z</time>
      </trkpt>
      <trkpt lat="42.8656290" lon="-7.7891320">
        <ele>629.5</ele>
        <time>2020-04-16T19:15:29Z</time>
      </trkpt>
      <trkpt lat="42.8656200" lon="-7.7892920">
        <ele>629.2</ele>
        <time>2020-04-16T19:15:31Z</time>
      </trkpt>
      <trkpt lat="42.8656110" lon="-7.7894620">
        <ele>628.9</ele>
        <time>2020-04-16T19:15:33Z</time>
      </trkpt>
      <trkpt lat="42.8656000" lon="-7.7896440">
        <ele>628.4</ele>
        <time>2020-04-16T19:15:35Z</time>
      </trkpt>
      <trkpt lat="42.8655750" lon="-7.7901010">
        <ele>626.8</ele>
        <time>2020-04-16T19:15:37Z</time>
      </trkpt>
      <trkpt lat="42.8655770" lon="-7.7903780">
        <ele>626.1</ele>
        <time>2020-04-16T19:15:39Z</time>
      </trkpt>
      <trkpt lat="42.8656440" lon="-7.7905590">
        <ele>625.4</ele>
        <time>2020-04-16T19:15:41Z</time>
      </trkpt>
      <trkpt lat="42.8657450" lon="-7.7908300">
        <ele>624.4</ele>
        <time>2020-04-16T19:15:43Z</time>
      </trkpt>
      <trkpt lat="42.8658090" lon="-7.7910030">
        <ele>623.9</ele>
        <time>2020-04-16T19:15:45Z</time>
      </trkpt>
      <trkpt lat="42.8658710" lon="-7.7911700">
        <ele>623.7</ele>
        <time>2020-04-16T19:15:47Z</time>
      </trkpt>
      <trkpt lat="42.8659970" lon="-7.7915560">
        <ele>623.5</ele>
        <time>2020-04-16T19:15:49Z</time>
      </trkpt>
      <trkpt lat="42.8660260" lon="-7.7917960">
        <ele>623.7</ele>
        <time>2020-04-16T19:15:51Z</time>
      </trkpt>
      <trkpt lat="42.8660490" lon="-7.7920300">
        <ele>624.0</ele>
        <time>2020-04-16T19:15:53Z</time>
      </trkpt>
      <trkpt lat="42.8660540" lon="-7.7921920">
        <ele>624.3</ele>
        <time>2020-04-16T19:15:55Z</time>
      </trkpt>
      <trkpt lat="42.8660630" lon="-7.7924740">
        <ele>625.0</ele>
        <time>2020-04-16T19:15:57Z</time>
      </trkpt>
      <trkpt lat="42.8660680" lon="-7.7926220">
        <ele>625.4</ele>
        <time>2020-04-16T19:15:59Z</time>
      </trkpt>
      <trkpt lat="42.8660730" lon="-7.7927640">
        <ele>625.9</ele>
        <time>2020-04-16T19:16:01Z</time>
      </trkpt>
      <trkpt lat="42.8660990" lon="-7.7930310">
        <ele>626.7</ele>
        <time>2020-04-16T19:16:03Z</time>
      </trkpt>
      <trkpt lat="42.8661240" lon="-7.7931600">
        <ele>627.0</ele>
        <time>2020-04-16T19:16:05Z</time>
      </trkpt>
      <trkpt lat="42.8661730" lon="-7.7933680">
        <ele>627.5</ele>
        <time>2020-04-16T19:16:07Z</time>
      </trkpt>
      <trkpt lat="42.8662080" lon="-7.7934820">
        <ele>627.8</ele>
        <time>2020-04-16T19:16:09Z</time>
      </trkpt>
      <trkpt lat="42.8662800" lon="-7.7936780">
        <ele>628.2</ele>
        <time>2020-04-16T19:16:11Z</time>
      </trkpt>
      <trkpt lat="42.8663260" lon="-7.7937710">
        <ele>628.5</ele>
        <time>2020-04-16T19:16:13Z</time>
      </trkpt>
      <trkpt lat="42.8663690" lon="-7.7938580">
        <ele>628.7</ele>
        <time>2020-04-16T19:16:15Z</time>
      </trkpt>
      <trkpt lat="42.8664100" lon="-7.7939420">
        <ele>629.0</ele>
        <time>2020-04-16T19:16:17Z</time>
      </trkpt>
      <trkpt lat="42.8664510" lon="-7.7940250">
        <ele>629.2</ele>
        <time>2020-04-16T19:16:19Z</time>
      </trkpt>
      <trkpt lat="42.8664920" lon="-7.7941080">
        <ele>629.5</ele>
        <time>2020-04-16T19:16:21Z</time>
      </trkpt>
      <trkpt lat="42.8665330" lon="-7.7941920">
        <ele>629.8</ele>
        <time>2020-04-16T19:16:23Z</time>
      </trkpt>
      <trkpt lat="42.8665750" lon="-7.7942770">
        <ele>630.1</ele>
        <time>2020-04-16T19:16:25Z</time>
      </trkpt>
      <trkpt lat="42.8667450" lon="-7.7946230">
        <ele>631.6</ele>
        <time>2020-04-16T19:16:27Z</time>
      </trkpt>
      <trkpt lat="42.8667880" lon="-7.7947110">
        <ele>632.1</ele>
        <time>2020-04-16T19:16:29Z</time>
      </trkpt>
      <trkpt lat="42.8668310" lon="-7.7947980">
        <ele>632.4</ele>
        <time>2020-04-16T19:16:31Z</time>
      </trkpt>
      <trkpt lat="42.8668740" lon="-7.7948860">
        <ele>632.8</ele>
        <time>2020-04-16T19:16:33Z</time>
      </trkpt>
      <trkpt lat="42.8669170" lon="-7.7949730">
        <ele>633.1</ele>
        <time>2020-04-16T19:16:35Z</time>
      </trkpt>
      <trkpt lat="42.8669600" lon="-7.7950610">
        <ele>633.5</ele>
        <time>2020-04-16T19:16:37Z</time>
      </trkpt>
      <trkpt lat="42.8670030" lon="-7.7951490">
        <ele>633.8</ele>
        <time>2020-04-16T19:16:39Z</time>
      </trkpt>
      <trkpt lat="42.8670470" lon="-7.7952370">
        <ele>634.0</ele>
        <time>2020-04-16T19:16:41Z</time>
      </trkpt>
      <trkpt lat="42.8672180" lon="-7.7955850">
        <ele>635.3</ele>
        <time>2020-04-16T19:16:43Z</time>
      </trkpt>
      <trkpt lat="42.8672610" lon="-7.7956730">
        <ele>635.6</ele>
        <time>2020-04-16T19:16:45Z</time>
      </trkpt>
      <trkpt lat="42.8673040" lon="-7.7957600">
        <ele>636.0</ele>
        <time>2020-04-16T19:16:47Z</time>
      </trkpt>
      <trkpt lat="42.8673480" lon="-7.7958480">
        <ele>636.4</ele>
        <time>2020-04-16T19:16:49Z</time>
      </trkpt>
      <trkpt lat="42.8673910" lon="-7.7959360">
        <ele>636.9</ele>
        <time>2020-04-16T19:16:51Z</time>
      </trkpt>
      <trkpt lat="42.8674340" lon="-7.7960240">
        <ele>637.3</ele>
        <time>2020-04-16T19:16:53Z</time>
      </trkpt>
      <trkpt lat="42.8675710" lon="-7.7962940">
        <ele>638.8</ele>
        <time>2020-04-16T19:16:55Z</time>
      </trkpt>
      <trkpt lat="42.8676180" lon="-7.7963790">
        <ele>639.3</ele>
        <time>2020-04-16T19:16:57Z</time>
      </trkpt>
      <trkpt lat="42.8676650" lon="-7.7964620">
        <ele>639.8</ele>
        <time>2020-04-16T19:16:59Z</time>
      </trkpt>
      <trkpt lat="42.8677120" lon="-7.7965460">
        <ele>640.3</ele>
        <time>2020-04-16T19:17:01Z</time>
      </trkpt>
      <trkpt lat="42.8677590" lon="-7.7966300">
        <ele>640.8</ele>
        <time>2020-04-16T19:17:03Z</time>
      </trkpt>
      <trkpt lat="42.8678060" lon="-7.7967130">
        <ele>641.3</ele>
        <time>2020-04-16T19:17:05Z</time>
      </trkpt>
      <trkpt lat="42.8678540" lon="-7.7967970">
        <ele>641.8</ele>
        <time>2020-04-16T19:17:07Z</time>
      </trkpt>
      <trkpt lat="42.8680230" lon="-7.7970990">
        <ele>643.9</ele>
        <time>2020-04-16T19:17:09Z</time>
      </trkpt>
      <trkpt lat="42.8680760" lon="-7.7971920">
        <ele>644.5</ele>
        <time>2020-04-16T19:17:11Z</time>
      </trkpt>
      <trkpt lat="42.8681330" lon="-7.7972940">
        <ele>645.2</ele>
        <time>2020-04-16T19:17:13Z</time>
      </trkpt>
      <trkpt lat="42.8681930" lon="-7.7974000">
        <ele>645.7</ele>
        <time>2020-04-16T19:17:15Z</time>
      </trkpt>
      <trkpt lat="42.8682560" lon="-7.7975120">
        <ele>646.1</ele>
        <time>2020-04-16T19:17:17Z</time>
      </trkpt>
      <trkpt lat="42.8684280" lon="-7.7978170">
        <ele>646.7</ele>
        <time>2020-04-16T19:17:19Z</time>
      </trkpt>
      <trkpt lat="42.8685190" lon="-7.7979450">
        <ele>646.6</ele>
        <time>2020-04-16T19:17:21Z</time>
      </trkpt>
      <trkpt lat="42.8685990" lon="-7.7980460">
        <ele>646.3</ele>
        <time>2020-04-16T19:17:23Z</time>
      </trkpt>
      <trkpt lat="42.8686780" lon="-7.7981470">
        <ele>646.0</ele>
        <time>2020-04-16T19:17:26Z</time>
      </trkpt>
      <trkpt lat="42.8687580" lon="-7.7982480">
        <ele>645.5</ele>
        <time>2020-04-16T19:17:28Z</time>
      </trkpt>
      <trkpt lat="42.8688370" lon="-7.7983490">
        <ele>645.0</ele>
        <time>2020-04-16T19:17:30Z</time>
      </trkpt>
      <trkpt lat="42.8690730" lon="-7.7986490">
        <ele>643.8</ele>
        <time>2020-04-16T19:17:32Z</time>
      </trkpt>
      <trkpt lat="42.8691610" lon="-7.7987610">
        <ele>643.4</ele>
        <time>2020-04-16T19:17:34Z</time>
      </trkpt>
      <trkpt lat="42.8692600" lon="-7.7988860">
        <ele>643.0</ele>
        <time>2020-04-16T19:17:36Z</time>
      </trkpt>
      <trkpt lat="42.8693660" lon="-7.7990210">
        <ele>642.6</ele>
        <time>2020-04-16T19:17:38Z</time>
      </trkpt>
      <trkpt lat="42.8696370" lon="-7.7993640">
        <ele>641.6</ele>
        <time>2020-04-16T19:17:40Z</time>
      </trkpt>
      <trkpt lat="42.8697580" lon="-7.7995180">
        <ele>641.1</ele>
        <time>2020-04-16T19:17:42Z</time>
      </trkpt>
      <trkpt lat="42.8698860" lon="-7.7996810">
        <ele>640.7</ele>
        <time>2020-04-16T19:17:44Z</time>
      </trkpt>
      <trkpt lat="42.8700190" lon="-7.7998490">
        <ele>640.1</ele>
        <time>2020-04-16T19:17:46Z</time>
      </trkpt>
      <trkpt lat="42.8703120" lon="-7.8002200">
        <ele>638.9</ele>
        <time>2020-04-16T19:17:48Z</time>
      </trkpt>
      <trkpt lat="42.8704460" lon="-7.8003900">
        <ele>638.3</ele>
        <time>2020-04-16T19:17:50Z</time>
      </trkpt>
      <trkpt lat="42.8705800" lon="-7.8005600">
        <ele>637.7</ele>
        <time>2020-04-16T19:17:52Z</time>
      </trkpt>
      <trkpt lat="42.8708690" lon="-7.8009270">
        <ele>636.0</ele>
        <time>2020-04-16T19:17:54Z</time>
      </trkpt>
      <trkpt lat="42.8710030" lon="-7.8010970">
        <ele>634.9</ele>
        <time>2020-04-16T19:17:56Z</time>
      </trkpt>
      <trkpt lat="42.8711810" lon="-7.8014110">
        <ele>632.7</ele>
        <time>2020-04-16T19:17:58Z</time>
      </trkpt>
      <trkpt lat="42.8713030" lon="-7.8017200">
        <ele>630.0</ele>
        <time>2020-04-16T19:18:00Z</time>
      </trkpt>
      <trkpt lat="42.8713960" lon="-7.8019580">
        <ele>627.6</ele>
        <time>2020-04-16T19:18:02Z</time>
      </trkpt>
      <trkpt lat="42.8714970" lon="-7.8022130">
        <ele>624.8</ele>
        <time>2020-04-16T19:18:04Z</time>
      </trkpt>
      <trkpt lat="42.8717040" lon="-7.8027410">
        <ele>618.9</ele>
        <time>2020-04-16T19:18:06Z</time>
      </trkpt>
      <trkpt lat="42.8718160" lon="-7.8030260">
        <ele>615.8</ele>
        <time>2020-04-16T19:18:08Z</time>
      </trkpt>
      <trkpt lat="42.8720330" lon="-7.8035780">
        <ele>610.7</ele>
        <time>2020-04-16T19:18:10Z</time>
      </trkpt>
      <trkpt lat="42.8722690" lon="-7.8039390">
        <ele>607.6</ele>
        <time>2020-04-16T19:18:12Z</time>
      </trkpt>
      <trkpt lat="42.8724600" lon="-7.8041700">
        <ele>605.5</ele>
        <time>2020-04-16T19:18:14Z</time>
      </trkpt>
      <trkpt lat="42.8727850" lon="-7.8045600">
        <ele>601.3</ele>
        <time>2020-04-16T19:18:16Z</time>
      </trkpt>
      <trkpt lat="42.8729800" lon="-7.8047970">
        <ele>598.6</ele>
        <time>2020-04-16T19:18:18Z</time>
      </trkpt>
      <trkpt lat="42.8733130" lon="-7.8051970">
        <ele>593.3</ele>
        <time>2020-04-16T19:18:20Z</time>
      </trkpt>
      <trkpt lat="42.8735150" lon="-7.8054410">
        <ele>590.1</ele>
        <time>2020-04-16T19:18:22Z</time>
      </trkpt>
      <trkpt lat="42.8737780" lon="-7.8059510">
        <ele>584.5</ele>
        <time>2020-04-16T19:18:24Z</time>
      </trkpt>
      <trkpt lat="42.8737450" lon="-7.8063390">
        <ele>582.7</ele>
        <time>2020-04-16T19:18:26Z</time>
      </trkpt>
      <trkpt lat="42.8736640" lon="-7.8069090">
        <ele>581.1</ele>
        <time>2020-04-16T19:18:28Z</time>
      </trkpt>
      <trkpt lat="42.8735130" lon="-7.8072470">
        <ele>580.1</ele>
        <time>2020-04-16T19:18:30Z</time>
      </trkpt>
      <trkpt lat="42.8735050" lon="-7.8076210">
        <ele>580.0</ele>
        <time>2020-04-16T19:18:32Z</time>
      </trkpt>
      <trkpt lat="42.8735830" lon="-7.8079690">
        <ele>579.8</ele>
        <time>2020-04-16T19:18:34Z</time>
      </trkpt>
      <trkpt lat="42.8736620" lon="-7.8081840">
        <ele>579.6</ele>
        <time>2020-04-16T19:18:36Z</time>
      </trkpt>
      <trkpt lat="42.8737260" lon="-7.8085740">
        <ele>580.1</ele>
        <time>2020-04-16T19:18:38Z</time>
      </trkpt>
      <trkpt lat="42.8737190" lon="-7.8088230">
        <ele>580.8</ele>
        <time>2020-04-16T19:18:40Z</time>
      </trkpt>
      <trkpt lat="42.8736890" lon="-7.8089800">
        <ele>581.2</ele>
        <time>2020-04-16T19:18:42Z</time>
      </trkpt>
      <trkpt lat="42.8736290" lon="-7.8091770">
        <ele>581.7</ele>
        <time>2020-04-16T19:18:44Z</time>
      </trkpt>
      <trkpt lat="42.8735930" lon="-7.8092690">
        <ele>582.0</ele>
        <time>2020-04-16T19:18:46Z</time>
      </trkpt>
      <trkpt lat="42.8735650" lon="-7.8093410">
        <ele>582.3</ele>
        <time>2020-04-16T19:18:48Z</time>
      </trkpt>
      <trkpt lat="42.8735440" lon="-7.8093970">
        <ele>582.5</ele>
        <time>2020-04-16T19:18:50Z</time>
      </trkpt>
      <trkpt lat="42.8735270" lon="-7.8094400">
        <ele>582.7</ele>
        <time>2020-04-16T19:18:52Z</time>
      </trkpt>
      <trkpt lat="42.8734890" lon="-7.8095360">
        <ele>583.1</ele>
        <time>2020-04-16T19:18:54Z</time>
      </trkpt>
      <trkpt lat="42.8734660" lon="-7.8095960">
        <ele>583.3</ele>
        <time>2020-04-16T19:18:56Z</time>
      </trkpt>
      <trkpt lat="42.8734420" lon="-7.8096570">
        <ele>583.6</ele>
        <time>2020-04-16T19:18:58Z</time>
      </trkpt>
      <trkpt lat="42.8734190" lon="-7.8097170">
        <ele>583.8</ele>
        <time>2020-04-16T19:19:00Z</time>
      </trkpt>
      <trkpt lat="42.8733950" lon="-7.8097780">
        <ele>584.1</ele>
        <time>2020-04-16T19:19:02Z</time>
      </trkpt>
      <trkpt lat="42.8733730" lon="-7.8098330">
        <ele>584.3</ele>
        <time>2020-04-16T19:19:04Z</time>
      </trkpt>
      <trkpt lat="42.8733450" lon="-7.8099070">
        <ele>584.5</ele>
        <time>2020-04-16T19:19:06Z</time>
      </trkpt>
      <trkpt lat="42.8733120" lon="-7.8099920">
        <ele>584.8</ele>
        <time>2020-04-16T19:19:08Z</time>
      </trkpt>
      <trkpt lat="42.8732760" lon="-7.8100830">
        <ele>585.1</ele>
        <time>2020-04-16T19:19:10Z</time>
      </trkpt>
      <trkpt lat="42.8732390" lon="-7.8101790">
        <ele>585.3</ele>
        <time>2020-04-16T19:19:12Z</time>
      </trkpt>
      <trkpt lat="42.8731250" lon="-7.8104580">
        <ele>586.0</ele>
        <time>2020-04-16T19:19:14Z</time>
      </trkpt>
      <trkpt lat="42.8730700" lon="-7.8105530">
        <ele>586.2</ele>
        <time>2020-04-16T19:19:16Z</time>
      </trkpt>
      <trkpt lat="42.8730120" lon="-7.8106510">
        <ele>586.5</ele>
        <time>2020-04-16T19:19:18Z</time>
      </trkpt>
      <trkpt lat="42.8729530" lon="-7.8107540">
        <ele>586.7</ele>
        <time>2020-04-16T19:19:20Z</time>
      </trkpt>
      <trkpt lat="42.8728110" lon="-7.8109950">
        <ele>587.2</ele>
        <time>2020-04-16T19:19:22Z</time>
      </trkpt>
      <trkpt lat="42.8727510" lon="-7.8110990">
        <ele>587.4</ele>
        <time>2020-04-16T19:19:24Z</time>
      </trkpt>
      <trkpt lat="42.8726910" lon="-7.8112010">
        <ele>587.6</ele>
        <time>2020-04-16T19:19:26Z</time>
      </trkpt>
      <trkpt lat="42.8726330" lon="-7.8113020">
        <ele>587.7</ele>
        <time>2020-04-16T19:19:28Z</time>
      </trkpt>
      <trkpt lat="42.8724950" lon="-7.8115380">
        <ele>588.1</ele>
        <time>2020-04-16T19:19:30Z</time>
      </trkpt>
      <trkpt lat="42.8724150" lon="-7.8116970">
        <ele>588.4</ele>
        <time>2020-04-16T19:19:32Z</time>
      </trkpt>
      <trkpt lat="42.8723890" lon="-7.8118170">
        <ele>588.6</ele>
        <time>2020-04-16T19:19:34Z</time>
      </trkpt>
      <trkpt lat="42.8723490" lon="-7.8119990">
        <ele>588.9</ele>
        <time>2020-04-16T19:19:36Z</time>
      </trkpt>
      <trkpt lat="42.8723080" lon="-7.8121910">
        <ele>589.3</ele>
        <time>2020-04-16T19:19:38Z</time>
      </trkpt>
      <trkpt lat="42.8722980" lon="-7.8123200">
        <ele>589.5</ele>
        <time>2020-04-16T19:19:40Z</time>
      </trkpt>
      <trkpt lat="42.8722880" lon="-7.8124470">
        <ele>589.8</ele>
        <time>2020-04-16T19:19:42Z</time>
      </trkpt>
      <trkpt lat="42.8722790" lon="-7.8125730">
        <ele>590.1</ele>
        <time>2020-04-16T19:19:44Z</time>
      </trkpt>
      <trkpt lat="42.8722690" lon="-7.8127030">
        <ele>590.4</ele>
        <time>2020-04-16T19:19:46Z</time>
      </trkpt>
      <trkpt lat="42.8722590" lon="-7.8128330">
        <ele>590.6</ele>
        <time>2020-04-16T19:19:48Z</time>
      </trkpt>
      <trkpt lat="42.8722310" lon="-7.8131970">
        <ele>591.1</ele>
        <time>2020-04-16T19:19:50Z</time>
      </trkpt>
      <trkpt lat="42.8722200" lon="-7.8133300">
        <ele>591.4</ele>
        <time>2020-04-16T19:19:52Z</time>
      </trkpt>
      <trkpt lat="42.8722000" lon="-7.8135640">
        <ele>591.9</ele>
        <time>2020-04-16T19:19:54Z</time>
      </trkpt>
      <trkpt lat="42.8721890" lon="-7.8137020">
        <ele>592.3</ele>
        <time>2020-04-16T19:19:56Z</time>
      </trkpt>
      <trkpt lat="42.8721670" lon="-7.8139780">
        <ele>593.0</ele>
        <time>2020-04-16T19:19:58Z</time>
      </trkpt>
      <trkpt lat="42.8721790" lon="-7.8141600">
        <ele>593.4</ele>
        <time>2020-04-16T19:20:00Z</time>
      </trkpt>
      <trkpt lat="42.8722550" lon="-7.8142850">
        <ele>593.6</ele>
        <time>2020-04-16T19:20:02Z</time>
      </trkpt>
      <trkpt lat="42.8723380" lon="-7.8143590">
        <ele>593.9</ele>
        <time>2020-04-16T19:20:04Z</time>
      </trkpt>
      <trkpt lat="42.8724190" lon="-7.8144310">
        <ele>594.3</ele>
        <time>2020-04-16T19:20:06Z</time>
      </trkpt>
      <trkpt lat="42.8725990" lon="-7.8145910">
        <ele>595.9</ele>
        <time>2020-04-16T19:20:08Z</time>
      </trkpt>
      <trkpt lat="42.8726120" lon="-7.8147460">
        <ele>597.3</ele>
        <time>2020-04-16T19:20:10Z</time>
      </trkpt>
      <trkpt lat="42.8726060" lon="-7.8148830">
        <ele>598.6</ele>
        <time>2020-04-16T19:20:12Z</time>
      </trkpt>
      <trkpt lat="42.8726360" lon="-7.8150670">
        <ele>600.4</ele>
        <time>2020-04-16T19:20:14Z</time>
      </trkpt>
      <trkpt lat="42.8727130" lon="-7.8151790">
        <ele>601.9</ele>
        <time>2020-04-16T19:20:16Z</time>
      </trkpt>
      <trkpt lat="42.8727800" lon="-7.8152480">
        <ele>602.7</ele>
        <time>2020-04-16T19:20:18Z</time>
      </trkpt>
      <trkpt lat="42.8728470" lon="-7.8153170">
        <ele>603.5</ele>
        <time>2020-04-16T19:20:20Z</time>
      </trkpt>
      <trkpt lat="42.8729810" lon="-7.8154600">
        <ele>604.9</ele>
        <time>2020-04-16T19:20:22Z</time>
      </trkpt>
      <trkpt lat="42.8730300" lon="-7.8155220">
        <ele>605.4</ele>
        <time>2020-04-16T19:20:24Z</time>
      </trkpt>
      <trkpt lat="42.8730700" lon="-7.8155720">
        <ele>605.8</ele>
        <time>2020-04-16T19:20:26Z</time>
      </trkpt>
      <trkpt lat="42.8731370" lon="-7.8156770">
        <ele>606.5</ele>
        <time>2020-04-16T19:20:28Z</time>
      </trkpt>
      <trkpt lat="42.8731670" lon="-7.8157420">
        <ele>606.8</ele>
        <time>2020-04-16T19:20:30Z</time>
      </trkpt>
      <trkpt lat="42.8731890" lon="-7.8158070">
        <ele>607.2</ele>
        <time>2020-04-16T19:20:32Z</time>
      </trkpt>
      <trkpt lat="42.8732010" lon="-7.8158540">
        <ele>607.4</ele>
        <time>2020-04-16T19:20:34Z</time>
      </trkpt>
      <trkpt lat="42.8732200" lon="-7.8159380">
        <ele>607.8</ele>
        <time>2020-04-16T19:20:36Z</time>
      </trkpt>
      <trkpt lat="42.8732300" lon="-7.8159850">
        <ele>608.0</ele>
        <time>2020-04-16T19:20:38Z</time>
      </trkpt>
      <trkpt lat="42.8732400" lon="-7.8160330">
        <ele>608.2</ele>
        <time>2020-04-16T19:20:40Z</time>
      </trkpt>
      <trkpt lat="42.8732500" lon="-7.8160810">
        <ele>608.4</ele>
        <time>2020-04-16T19:20:42Z</time>
      </trkpt>
      <trkpt lat="42.8732600" lon="-7.8161280">
        <ele>608.6</ele>
        <time>2020-04-16T19:20:44Z</time>
      </trkpt>
      <trkpt lat="42.8732700" lon="-7.8161760">
        <ele>608.8</ele>
        <time>2020-04-16T19:20:46Z</time>
      </trkpt>
      <trkpt lat="42.8732800" lon="-7.8162230">
        <ele>609.0</ele>
        <time>2020-04-16T19:20:48Z</time>
      </trkpt>
      <trkpt lat="42.8733130" lon="-7.8163900">
        <ele>609.7</ele>
        <time>2020-04-16T19:20:50Z</time>
      </trkpt>
      <trkpt lat="42.8733200" lon="-7.8164390">
        <ele>609.9</ele>
        <time>2020-04-16T19:20:52Z</time>
      </trkpt>
      <trkpt lat="42.8733330" lon="-7.8165340">
        <ele>610.3</ele>
        <time>2020-04-16T19:20:54Z</time>
      </trkpt>
      <trkpt lat="42.8733330" lon="-7.8166060">
        <ele>610.6</ele>
        <time>2020-04-16T19:20:56Z</time>
      </trkpt>
      <trkpt lat="42.8733330" lon="-7.8167070">
        <ele>610.9</ele>
        <time>2020-04-16T19:20:58Z</time>
      </trkpt>
      <trkpt lat="42.8733370" lon="-7.8169180">
        <ele>611.3</ele>
        <time>2020-04-16T19:21:00Z</time>
      </trkpt>
      <trkpt lat="42.8733490" lon="-7.8170430">
        <ele>611.6</ele>
        <time>2020-04-16T19:21:02Z</time>
      </trkpt>
      <trkpt lat="42.8733920" lon="-7.8172420">
        <ele>612.0</ele>
        <time>2020-04-16T19:21:04Z</time>
      </trkpt>
      <trkpt lat="42.8734790" lon="-7.8173700">
        <ele>612.3</ele>
        <time>2020-04-16T19:21:06Z</time>
      </trkpt>
      <trkpt lat="42.8735990" lon="-7.8174610">
        <ele>612.7</ele>
        <time>2020-04-16T19:21:08Z</time>
      </trkpt>
      <trkpt lat="42.8736970" lon="-7.8175250">
        <ele>613.0</ele>
        <time>2020-04-16T19:21:10Z</time>
      </trkpt>
      <trkpt lat="42.8738670" lon="-7.8176320">
        <ele>613.8</ele>
        <time>2020-04-16T19:21:12Z</time>
      </trkpt>
      <trkpt lat="42.8739510" lon="-7.8176840">
        <ele>614.3</ele>
        <time>2020-04-16T19:21:14Z</time>
      </trkpt>
      <trkpt lat="42.8740840" lon="-7.8177840">
        <ele>615.4</ele>
        <time>2020-04-16T19:21:16Z</time>
      </trkpt>
      <trkpt lat="42.8741530" lon="-7.8179160">
        <ele>616.6</ele>
        <time>2020-04-16T19:21:18Z</time>
      </trkpt>
      <trkpt lat="42.8741720" lon="-7.8180190">
        <ele>617.5</ele>
        <time>2020-04-16T19:21:20Z</time>
      </trkpt>
      <trkpt lat="42.8741690" lon="-7.8181470">
        <ele>618.5</ele>
        <time>2020-04-16T19:21:22Z</time>
      </trkpt>
      <trkpt lat="42.8741460" lon="-7.8182190">
        <ele>619.1</ele>
        <time>2020-04-16T19:21:24Z</time>
      </trkpt>
      <trkpt lat="42.8741250" lon="-7.8182880">
        <ele>619.7</ele>
        <time>2020-04-16T19:21:26Z</time>
      </trkpt>
      <trkpt lat="42.8740800" lon="-7.8184320">
        <ele>620.8</ele>
        <time>2020-04-16T19:21:28Z</time>
      </trkpt>
      <trkpt lat="42.8740590" lon="-7.8184970">
        <ele>621.3</ele>
        <time>2020-04-16T19:21:30Z</time>
      </trkpt>
      <trkpt lat="42.8740380" lon="-7.8185620">
        <ele>621.8</ele>
        <time>2020-04-16T19:21:32Z</time>
      </trkpt>
      <trkpt lat="42.8740180" lon="-7.8186240">
        <ele>622.2</ele>
        <time>2020-04-16T19:21:34Z</time>
      </trkpt>
      <trkpt lat="42.8739670" lon="-7.8187800">
        <ele>623.1</ele>
        <time>2020-04-16T19:21:36Z</time>
      </trkpt>
      <trkpt lat="42.8739530" lon="-7.8188500">
        <ele>623.4</ele>
        <time>2020-04-16T19:21:38Z</time>
      </trkpt>
      <trkpt lat="42.8739370" lon="-7.8189250">
        <ele>623.6</ele>
        <time>2020-04-16T19:21:40Z</time>
      </trkpt>
      <trkpt lat="42.8739200" lon="-7.8190010">
        <ele>623.9</ele>
        <time>2020-04-16T19:21:42Z</time>
      </trkpt>
      <trkpt lat="42.8739040" lon="-7.8190800">
        <ele>624.0</ele>
        <time>2020-04-16T19:21:44Z</time>
      </trkpt>
      <trkpt lat="42.8738870" lon="-7.8191580">
        <ele>624.2</ele>
        <time>2020-04-16T19:21:46Z</time>
      </trkpt>
      <trkpt lat="42.8738700" lon="-7.8192360">
        <ele>624.3</ele>
        <time>2020-04-16T19:21:48Z</time>
      </trkpt>
      <trkpt lat="42.8738130" lon="-7.8195070">
        <ele>624.4</ele>
        <time>2020-04-16T19:21:50Z</time>
      </trkpt>
      <trkpt lat="42.8737960" lon="-7.8195860">
        <ele>624.4</ele>
        <time>2020-04-16T19:21:52Z</time>
      </trkpt>
      <trkpt lat="42.8737790" lon="-7.8196640">
        <ele>624.4</ele>
        <time>2020-04-16T19:21:54Z</time>
      </trkpt>
      <trkpt lat="42.8737470" lon="-7.8198110">
        <ele>624.4</ele>
        <time>2020-04-16T19:21:56Z</time>
      </trkpt>
      <trkpt lat="42.8737290" lon="-7.8198880">
        <ele>624.3</ele>
        <time>2020-04-16T19:21:58Z</time>
      </trkpt>
      <trkpt lat="42.8737110" lon="-7.8199650">
        <ele>624.3</ele>
        <time>2020-04-16T19:22:00Z</time>
      </trkpt>
      <trkpt lat="42.8736930" lon="-7.8200430">
        <ele>624.3</ele>
        <time>2020-04-16T19:22:02Z</time>
      </trkpt>
      <trkpt lat="42.8736440" lon="-7.8202420">
        <ele>624.4</ele>
        <time>2020-04-16T19:22:04Z</time>
      </trkpt>
      <trkpt lat="42.8736190" lon="-7.8203210">
        <ele>624.5</ele>
        <time>2020-04-16T19:22:06Z</time>
      </trkpt>
      <trkpt lat="42.8735930" lon="-7.8204040">
        <ele>624.7</ele>
        <time>2020-04-16T19:22:08Z</time>
      </trkpt>
      <trkpt lat="42.8735660" lon="-7.8204890">
        <ele>624.8</ele>
        <time>2020-04-16T19:22:10Z</time>
      </trkpt>
      <trkpt lat="42.8734980" lon="-7.8206700">
        <ele>625.3</ele>
        <time>2020-04-16T19:22:12Z</time>
      </trkpt>
      <trkpt lat="42.8734620" lon="-7.8207500">
        <ele>625.6</ele>
        <time>2020-04-16T19:22:14Z</time>
      </trkpt>
      <trkpt lat="42.8734260" lon="-7.8208290">
        <ele>626.0</ele>
        <time>2020-04-16T19:22:16Z</time>
      </trkpt>
      <trkpt lat="42.8733900" lon="-7.8209090">
        <ele>626.3</ele>
        <time>2020-04-16T19:22:18Z</time>
      </trkpt>
      <trkpt lat="42.8732950" lon="-7.8211220">
        <ele>627.2</ele>
        <time>2020-04-16T19:22:20Z</time>
      </trkpt>
      <trkpt lat="42.8732580" lon="-7.8212020">
        <ele>627.5</ele>
        <time>2020-04-16T19:22:22Z</time>
      </trkpt>
      <trkpt lat="42.8731970" lon="-7.8213440">
        <ele>627.9</ele>
        <time>2020-04-16T19:22:24Z</time>
      </trkpt>
      <trkpt lat="42.8731720" lon="-7.8214350">
        <ele>628.2</ele>
        <time>2020-04-16T19:22:26Z</time>
      </trkpt>
      <trkpt lat="42.8731370" lon="-7.8215890">
        <ele>628.5</ele>
        <time>2020-04-16T19:22:28Z</time>
      </trkpt>
      <trkpt lat="42.8731230" lon="-7.8217370">
        <ele>628.6</ele>
        <time>2020-04-16T19:22:30Z</time>
      </trkpt>
      <trkpt lat="42.8731210" lon="-7.8218380">
        <ele>628.7</ele>
        <time>2020-04-16T19:22:32Z</time>
      </trkpt>
      <trkpt lat="42.8731200" lon="-7.8219400">
        <ele>628.8</ele>
        <time>2020-04-16T19:22:34Z</time>
      </trkpt>
      <trkpt lat="42.8731190" lon="-7.8220410">
        <ele>629.0</ele>
        <time>2020-04-16T19:22:36Z</time>
      </trkpt>
      <trkpt lat="42.8731030" lon="-7.8222810">
        <ele>629.7</ele>
        <time>2020-04-16T19:22:38Z</time>
      </trkpt>
      <trkpt lat="42.8730610" lon="-7.8223920">
        <ele>630.2</ele>
        <time>2020-04-16T19:22:40Z</time>
      </trkpt>
      <trkpt lat="42.8730140" lon="-7.8225280">
        <ele>631.0</ele>
        <time>2020-04-16T19:22:42Z</time>
      </trkpt>
      <trkpt lat="42.8729830" lon="-7.8226320">
        <ele>631.6</ele>
        <time>2020-04-16T19:22:44Z</time>
      </trkpt>
      <trkpt lat="42.8729640" lon="-7.8228050">
        <ele>632.5</ele>
        <time>2020-04-16T19:22:46Z</time>
      </trkpt>
      <trkpt lat="42.8729630" lon="-7.8229990">
        <ele>633.0</ele>
        <time>2020-04-16T19:22:48Z</time>
      </trkpt>
      <trkpt lat="42.8729770" lon="-7.8231240">
        <ele>633.0</ele>
        <time>2020-04-16T19:22:50Z</time>
      </trkpt>
      <trkpt lat="42.8729910" lon="-7.8232500">
        <ele>633.1</ele>
        <time>2020-04-16T19:22:52Z</time>
      </trkpt>
      <trkpt lat="42.8730050" lon="-7.8233730">
        <ele>633.2</ele>
        <time>2020-04-16T19:22:54Z</time>
      </trkpt>
      <trkpt lat="42.8730220" lon="-7.8236610">
        <ele>633.2</ele>
        <time>2020-04-16T19:22:56Z</time>
      </trkpt>
      <trkpt lat="42.8730140" lon="-7.8237830">
        <ele>633.1</ele>
        <time>2020-04-16T19:22:58Z</time>
      </trkpt>
      <trkpt lat="42.8729890" lon="-7.8239900">
        <ele>632.9</ele>
        <time>2020-04-16T19:23:00Z</time>
      </trkpt>
      <trkpt lat="42.8729570" lon="-7.8242090">
        <ele>632.3</ele>
        <time>2020-04-16T19:23:02Z</time>
      </trkpt>
      <trkpt lat="42.8729280" lon="-7.8244520">
        <ele>631.6</ele>
        <time>2020-04-16T19:23:04Z</time>
      </trkpt>
      <trkpt lat="42.8729460" lon="-7.8247330">
        <ele>630.6</ele>
        <time>2020-04-16T19:23:06Z</time>
      </trkpt>
      <trkpt lat="42.8729720" lon="-7.8249460">
        <ele>629.8</ele>
        <time>2020-04-16T19:23:08Z</time>
      </trkpt>
      <trkpt lat="42.8730380" lon="-7.8252870">
        <ele>628.7</ele>
        <time>2020-04-16T19:23:10Z</time>
      </trkpt>
      <trkpt lat="42.8731240" lon="-7.8255660">
        <ele>627.8</ele>
        <time>2020-04-16T19:23:12Z</time>
      </trkpt>
      <trkpt lat="42.8731970" lon="-7.8258000">
        <ele>627.0</ele>
        <time>2020-04-16T19:23:14Z</time>
      </trkpt>
      <trkpt lat="42.8733330" lon="-7.8262440">
        <ele>625.6</ele>
        <time>2020-04-16T19:23:16Z</time>
      </trkpt>
      <trkpt lat="42.8734770" lon="-7.8265070">
        <ele>624.3</ele>
        <time>2020-04-16T19:23:18Z</time>
      </trkpt>
      <trkpt lat="42.8736060" lon="-7.8267070">
        <ele>623.1</ele>
        <time>2020-04-16T19:23:20Z</time>
      </trkpt>
      <trkpt lat="42.8738570" lon="-7.8271040">
        <ele>621.0</ele>
        <time>2020-04-16T19:23:22Z</time>
      </trkpt>
      <trkpt lat="42.8739740" lon="-7.8273550">
        <ele>619.7</ele>
        <time>2020-04-16T19:23:24Z</time>
      </trkpt>
      <trkpt lat="42.8740770" lon="-7.8275740">
        <ele>618.6</ele>
        <time>2020-04-16T19:23:26Z</time>
      </trkpt>
      <trkpt lat="42.8742500" lon="-7.8279440">
        <ele>617.2</ele>
        <time>2020-04-16T19:23:28Z</time>
      </trkpt>
      <trkpt lat="42.8743550" lon="-7.8281670">
        <ele>616.6</ele>
        <time>2020-04-16T19:23:30Z</time>
      </trkpt>
      <trkpt lat="42.8745440" lon="-7.8285710">
        <ele>616.1</ele>
        <time>2020-04-16T19:23:32Z</time>
      </trkpt>
      <trkpt lat="42.8747150" lon="-7.8289280">
        <ele>615.7</ele>
        <time>2020-04-16T19:23:34Z</time>
      </trkpt>
      <trkpt lat="42.8748770" lon="-7.8291590">
        <ele>615.3</ele>
        <time>2020-04-16T19:23:36Z</time>
      </trkpt>
      <trkpt lat="42.8750530" lon="-7.8293710">
        <ele>614.5</ele>
        <time>2020-04-16T19:23:38Z</time>
      </trkpt>
      <trkpt lat="42.8752030" lon="-7.8296330">
        <ele>613.5</ele>
        <time>2020-04-16T19:23:40Z</time>
      </trkpt>
      <trkpt lat="42.8752660" lon="-7.8298330">
        <ele>613.0</ele>
        <time>2020-04-16T19:23:42Z</time>
      </trkpt>
      <trkpt lat="42.8753700" lon="-7.8301700">
        <ele>612.6</ele>
        <time>2020-04-16T19:23:44Z</time>
      </trkpt>
      <trkpt lat="42.8754250" lon="-7.8303480">
        <ele>612.5</ele>
        <time>2020-04-16T19:23:46Z</time>
      </trkpt>
      <trkpt lat="42.8755180" lon="-7.8306680">
        <ele>612.4</ele>
        <time>2020-04-16T19:23:48Z</time>
      </trkpt>
      <trkpt lat="42.8755470" lon="-7.8308390">
        <ele>612.4</ele>
        <time>2020-04-16T19:23:50Z</time>
      </trkpt>
      <trkpt lat="42.8755740" lon="-7.8310040">
        <ele>612.5</ele>
        <time>2020-04-16T19:23:52Z</time>
      </trkpt>
      <trkpt lat="42.8756000" lon="-7.8311620">
        <ele>612.5</ele>
        <time>2020-04-16T19:23:54Z</time>
      </trkpt>
      <trkpt lat="42.8756620" lon="-7.8315320">
        <ele>613.0</ele>
        <time>2020-04-16T19:23:56Z</time>
      </trkpt>
      <trkpt lat="42.8756870" lon="-7.8316780">
        <ele>613.3</ele>
        <time>2020-04-16T19:23:58Z</time>
      </trkpt>
      <trkpt lat="42.8757110" lon="-7.8318200">
        <ele>613.6</ele>
        <time>2020-04-16T19:24:00Z</time>
      </trkpt>
      <trkpt lat="42.8757330" lon="-7.8319560">
        <ele>613.8</ele>
        <time>2020-04-16T19:24:02Z</time>
      </trkpt>
      <trkpt lat="42.8757920" lon="-7.8323040">
        <ele>614.3</ele>
        <time>2020-04-16T19:24:04Z</time>
      </trkpt>
      <trkpt lat="42.8758130" lon="-7.8324320">
        <ele>614.5</ele>
        <time>2020-04-16T19:24:06Z</time>
      </trkpt>
      <trkpt lat="42.8758340" lon="-7.8325560">
        <ele>614.7</ele>
        <time>2020-04-16T19:24:08Z</time>
      </trkpt>
      <trkpt lat="42.8758790" lon="-7.8328300">
        <ele>615.1</ele>
        <time>2020-04-16T19:24:10Z</time>
      </trkpt>
      <trkpt lat="42.8758870" lon="-7.8329490">
        <ele>615.3</ele>
        <time>2020-04-16T19:24:12Z</time>
      </trkpt>
      <trkpt lat="42.8759000" lon="-7.8331300">
        <ele>615.6</ele>
        <time>2020-04-16T19:24:14Z</time>
      </trkpt>
      <trkpt lat="42.8759080" lon="-7.8332410">
        <ele>615.9</ele>
        <time>2020-04-16T19:24:16Z</time>
      </trkpt>
      <trkpt lat="42.8759150" lon="-7.8333460">
        <ele>616.2</ele>
        <time>2020-04-16T19:24:18Z</time>
      </trkpt>
      <trkpt lat="42.8759220" lon="-7.8334450">
        <ele>616.5</ele>
        <time>2020-04-16T19:24:20Z</time>
      </trkpt>
      <trkpt lat="42.8759290" lon="-7.8335390">
        <ele>616.7</ele>
        <time>2020-04-16T19:24:22Z</time>
      </trkpt>
      <trkpt lat="42.8759490" lon="-7.8338240">
        <ele>617.3</ele>
        <time>2020-04-16T19:24:24Z</time>
      </trkpt>
      <trkpt lat="42.8759550" lon="-7.8339120">
        <ele>617.4</ele>
        <time>2020-04-16T19:24:26Z</time>
      </trkpt>
      <trkpt lat="42.8759610" lon="-7.8340010">
        <ele>617.5</ele>
        <time>2020-04-16T19:24:28Z</time>
      </trkpt>
      <trkpt lat="42.8759680" lon="-7.8340930">
        <ele>617.6</ele>
        <time>2020-04-16T19:24:30Z</time>
      </trkpt>
      <trkpt lat="42.8759750" lon="-7.8341870">
        <ele>617.6</ele>
        <time>2020-04-16T19:24:32Z</time>
      </trkpt>
      <trkpt lat="42.8759810" lon="-7.8342830">
        <ele>617.7</ele>
        <time>2020-04-16T19:24:34Z</time>
      </trkpt>
      <trkpt lat="42.8759960" lon="-7.8345780">
        <ele>617.7</ele>
        <time>2020-04-16T19:24:36Z</time>
      </trkpt>
      <trkpt lat="42.8759930" lon="-7.8346900">
        <ele>617.7</ele>
        <time>2020-04-16T19:24:38Z</time>
      </trkpt>
      <trkpt lat="42.8759890" lon="-7.8349130">
        <ele>617.7</ele>
        <time>2020-04-16T19:24:40Z</time>
      </trkpt>
      <trkpt lat="42.8759860" lon="-7.8350400">
        <ele>617.7</ele>
        <time>2020-04-16T19:24:42Z</time>
      </trkpt>
      <trkpt lat="42.8759810" lon="-7.8352660">
        <ele>617.9</ele>
        <time>2020-04-16T19:24:44Z</time>
      </trkpt>
      <trkpt lat="42.8759660" lon="-7.8354000">
        <ele>618.0</ele>
        <time>2020-04-16T19:24:46Z</time>
      </trkpt>
      <trkpt lat="42.8759520" lon="-7.8355380">
        <ele>618.1</ele>
        <time>2020-04-16T19:24:48Z</time>
      </trkpt>
      <trkpt lat="42.8759170" lon="-7.8358120">
        <ele>618.5</ele>
        <time>2020-04-16T19:24:50Z</time>
      </trkpt>
      <trkpt lat="42.8758900" lon="-7.8359510">
        <ele>618.6</ele>
        <time>2020-04-16T19:24:52Z</time>
      </trkpt>
      <trkpt lat="42.8757920" lon="-7.8361660">
        <ele>618.8</ele>
        <time>2020-04-16T19:24:54Z</time>
      </trkpt>
      <trkpt lat="42.8757990" lon="-7.8363230">
        <ele>619.0</ele>
        <time>2020-04-16T19:24:56Z</time>
      </trkpt>
      <trkpt lat="42.8758060" lon="-7.8365120">
        <ele>619.3</ele>
        <time>2020-04-16T19:24:58Z</time>
      </trkpt>
      <trkpt lat="42.8757930" lon="-7.8367200">
        <ele>619.8</ele>
        <time>2020-04-16T19:25:00Z</time>
      </trkpt>
      <trkpt lat="42.8757700" lon="-7.8368500">
        <ele>620.0</ele>
        <time>2020-04-16T19:25:02Z</time>
      </trkpt>
      <trkpt lat="42.8757280" lon="-7.8370750">
        <ele>620.4</ele>
        <time>2020-04-16T19:25:04Z</time>
      </trkpt>
      <trkpt lat="42.8757000" lon="-7.8372000">
        <ele>620.6</ele>
        <time>2020-04-16T19:25:06Z</time>
      </trkpt>
      <trkpt lat="42.8756380" lon="-7.8373850">
        <ele>620.9</ele>
        <time>2020-04-16T19:25:08Z</time>
      </trkpt>
      <trkpt lat="42.8755890" lon="-7.8374860">
        <ele>621.1</ele>
        <time>2020-04-16T19:25:10Z</time>
      </trkpt>
      <trkpt lat="42.8755430" lon="-7.8375840">
        <ele>621.4</ele>
        <time>2020-04-16T19:25:12Z</time>
      </trkpt>
      <trkpt lat="42.8754980" lon="-7.8376760">
        <ele>621.6</ele>
        <time>2020-04-16T19:25:14Z</time>
      </trkpt>
      <trkpt lat="42.8753850" lon="-7.8379050">
        <ele>622.3</ele>
        <time>2020-04-16T19:25:16Z</time>
      </trkpt>
      <trkpt lat="42.8753400" lon="-7.8379900">
        <ele>622.7</ele>
        <time>2020-04-16T19:25:18Z</time>
      </trkpt>
      <trkpt lat="42.8752630" lon="-7.8381310">
        <ele>623.4</ele>
        <time>2020-04-16T19:25:20Z</time>
      </trkpt>
      <trkpt lat="42.8752170" lon="-7.8382100">
        <ele>623.9</ele>
        <time>2020-04-16T19:25:22Z</time>
      </trkpt>
      <trkpt lat="42.8751720" lon="-7.8382870">
        <ele>624.3</ele>
        <time>2020-04-16T19:25:24Z</time>
      </trkpt>
      <trkpt lat="42.8751280" lon="-7.8383620">
        <ele>624.7</ele>
        <time>2020-04-16T19:25:26Z</time>
      </trkpt>
      <trkpt lat="42.8750140" lon="-7.8385610">
        <ele>625.4</ele>
        <time>2020-04-16T19:25:28Z</time>
      </trkpt>
      <trkpt lat="42.8749740" lon="-7.8386390">
        <ele>625.6</ele>
        <time>2020-04-16T19:25:30Z</time>
      </trkpt>
      <trkpt lat="42.8749010" lon="-7.8387820">
        <ele>625.9</ele>
        <time>2020-04-16T19:25:32Z</time>
      </trkpt>
      <trkpt lat="42.8748660" lon="-7.8388690">
        <ele>626.1</ele>
        <time>2020-04-16T19:25:34Z</time>
      </trkpt>
      <trkpt lat="42.8748010" lon="-7.8390320">
        <ele>626.5</ele>
        <time>2020-04-16T19:25:36Z</time>
      </trkpt>
      <trkpt lat="42.8747490" lon="-7.8391200">
        <ele>626.8</ele>
        <time>2020-04-16T19:25:38Z</time>
      </trkpt>
      <trkpt lat="42.8746590" lon="-7.8392720">
        <ele>627.3</ele>
        <time>2020-04-16T19:25:40Z</time>
      </trkpt>
      <trkpt lat="42.8745960" lon="-7.8393480">
        <ele>627.5</ele>
        <time>2020-04-16T19:25:42Z</time>
      </trkpt>
      <trkpt lat="42.8745100" lon="-7.8394880">
        <ele>627.8</ele>
        <time>2020-04-16T19:25:44Z</time>
      </trkpt>
      <trkpt lat="42.8744800" lon="-7.8396260">
        <ele>628.1</ele>
        <time>2020-04-16T19:25:46Z</time>
      </trkpt>
      <trkpt lat="42.8744600" lon="-7.8398000">
        <ele>628.2</ele>
        <time>2020-04-16T19:25:48Z</time>
      </trkpt>
      <trkpt lat="42.8744470" lon="-7.8399170">
        <ele>628.2</ele>
        <time>2020-04-16T19:25:50Z</time>
      </trkpt>
      <trkpt lat="42.8744360" lon="-7.8401020">
        <ele>628.2</ele>
        <time>2020-04-16T19:25:52Z</time>
      </trkpt>
      <trkpt lat="42.8744330" lon="-7.8402290">
        <ele>628.2</ele>
        <time>2020-04-16T19:25:54Z</time>
      </trkpt>
      <trkpt lat="42.8744310" lon="-7.8403610">
        <ele>628.2</ele>
        <time>2020-04-16T19:25:56Z</time>
      </trkpt>
      <trkpt lat="42.8744280" lon="-7.8404960">
        <ele>628.2</ele>
        <time>2020-04-16T19:25:58Z</time>
      </trkpt>
      <trkpt lat="42.8744180" lon="-7.8408230">
        <ele>628.1</ele>
        <time>2020-04-16T19:26:00Z</time>
      </trkpt>
      <trkpt lat="42.8744090" lon="-7.8410210">
        <ele>628.0</ele>
        <time>2020-04-16T19:26:02Z</time>
      </trkpt>
      <trkpt lat="42.8744030" lon="-7.8411660">
        <ele>628.0</ele>
        <time>2020-04-16T19:26:04Z</time>
      </trkpt>
      <trkpt lat="42.8743840" lon="-7.8414410">
        <ele>628.0</ele>
        <time>2020-04-16T19:26:06Z</time>
      </trkpt>
      <trkpt lat="42.8743550" lon="-7.8415730">
        <ele>628.1</ele>
        <time>2020-04-16T19:26:08Z</time>
      </trkpt>
      <trkpt lat="42.8743160" lon="-7.8417850">
        <ele>628.2</ele>
        <time>2020-04-16T19:26:10Z</time>
      </trkpt>
      <trkpt lat="42.8743090" lon="-7.8419040">
        <ele>628.3</ele>
        <time>2020-04-16T19:26:12Z</time>
      </trkpt>
      <trkpt lat="42.8742990" lon="-7.8421080">
        <ele>628.5</ele>
        <time>2020-04-16T19:26:14Z</time>
      </trkpt>
      <trkpt lat="42.8743020" lon="-7.8422140">
        <ele>628.7</ele>
        <time>2020-04-16T19:26:16Z</time>
      </trkpt>
      <trkpt lat="42.8743050" lon="-7.8423140">
        <ele>628.9</ele>
        <time>2020-04-16T19:26:18Z</time>
      </trkpt>
      <trkpt lat="42.8743080" lon="-7.8424110">
        <ele>629.2</ele>
        <time>2020-04-16T19:26:20Z</time>
      </trkpt>
      <trkpt lat="42.8743110" lon="-7.8425050">
        <ele>629.4</ele>
        <time>2020-04-16T19:26:22Z</time>
      </trkpt>
      <trkpt lat="42.8743140" lon="-7.8425970">
        <ele>629.6</ele>
        <time>2020-04-16T19:26:24Z</time>
      </trkpt>
      <trkpt lat="42.8743220" lon="-7.8428790">
        <ele>630.4</ele>
        <time>2020-04-16T19:26:26Z</time>
      </trkpt>
      <trkpt lat="42.8743260" lon="-7.8429840">
        <ele>630.7</ele>
        <time>2020-04-16T19:26:28Z</time>
      </trkpt>
      <trkpt lat="42.8743290" lon="-7.8430980">
        <ele>631.1</ele>
        <time>2020-04-16T19:26:30Z</time>
      </trkpt>
      <trkpt lat="42.8743330" lon="-7.8432150">
        <ele>631.4</ele>
        <time>2020-04-16T19:26:32Z</time>
      </trkpt>
      <trkpt lat="42.8743430" lon="-7.8435220">
        <ele>632.6</ele>
        <time>2020-04-16T19:26:34Z</time>
      </trkpt>
      <trkpt lat="42.8743480" lon="-7.8436400">
        <ele>633.2</ele>
        <time>2020-04-16T19:26:36Z</time>
      </trkpt>
      <trkpt lat="42.8743540" lon="-7.8437560">
        <ele>633.8</ele>
        <time>2020-04-16T19:26:38Z</time>
      </trkpt>
      <trkpt lat="42.8743600" lon="-7.8438700">
        <ele>634.2</ele>
        <time>2020-04-16T19:26:40Z</time>
      </trkpt>
      <trkpt lat="42.8743730" lon="-7.8441510">
        <ele>634.8</ele>
        <time>2020-04-16T19:26:42Z</time>
      </trkpt>
      <trkpt lat="42.8743690" lon="-7.8443090">
        <ele>634.9</ele>
        <time>2020-04-16T19:26:44Z</time>
      </trkpt>
      <trkpt lat="42.8743670" lon="-7.8444240">
        <ele>634.9</ele>
        <time>2020-04-16T19:26:46Z</time>
      </trkpt>
      <trkpt lat="42.8743640" lon="-7.8445480">
        <ele>634.9</ele>
        <time>2020-04-16T19:26:48Z</time>
      </trkpt>
      <trkpt lat="42.8743620" lon="-7.8446800">
        <ele>634.9</ele>
        <time>2020-04-16T19:26:50Z</time>
      </trkpt>
      <trkpt lat="42.8743590" lon="-7.8448180">
        <ele>634.9</ele>
        <time>2020-04-16T19:26:52Z</time>
      </trkpt>
      <trkpt lat="42.8743500" lon="-7.8451750">
        <ele>634.8</ele>
        <time>2020-04-16T19:26:54Z</time>
      </trkpt>
      <trkpt lat="42.8743450" lon="-7.8453240">
        <ele>634.8</ele>
        <time>2020-04-16T19:26:56Z</time>
      </trkpt>
      <trkpt lat="42.8743400" lon="-7.8454780">
        <ele>634.7</ele>
        <time>2020-04-16T19:26:58Z</time>
      </trkpt>
      <trkpt lat="42.8743280" lon="-7.8458170">
        <ele>634.4</ele>
        <time>2020-04-16T19:27:00Z</time>
      </trkpt>
      <trkpt lat="42.8743160" lon="-7.8460310">
        <ele>634.1</ele>
        <time>2020-04-16T19:27:02Z</time>
      </trkpt>
      <trkpt lat="42.8743060" lon="-7.8462000">
        <ele>633.8</ele>
        <time>2020-04-16T19:27:04Z</time>
      </trkpt>
      <trkpt lat="42.8742970" lon="-7.8463740">
        <ele>633.6</ele>
        <time>2020-04-16T19:27:06Z</time>
      </trkpt>
      <trkpt lat="42.8742870" lon="-7.8465540">
        <ele>633.4</ele>
        <time>2020-04-16T19:27:08Z</time>
      </trkpt>
      <trkpt lat="42.8742870" lon="-7.8469980">
        <ele>633.7</ele>
        <time>2020-04-16T19:27:10Z</time>
      </trkpt>
      <trkpt lat="42.8742810" lon="-7.8472200">
        <ele>633.8</ele>
        <time>2020-04-16T19:27:12Z</time>
      </trkpt>
      <trkpt lat="42.8742740" lon="-7.8474130">
        <ele>633.9</ele>
        <time>2020-04-16T19:27:14Z</time>
      </trkpt>
      <trkpt lat="42.8742670" lon="-7.8476070">
        <ele>633.8</ele>
        <time>2020-04-16T19:27:16Z</time>
      </trkpt>
      <trkpt lat="42.8742560" lon="-7.8480470">
        <ele>633.6</ele>
        <time>2020-04-16T19:27:18Z</time>
      </trkpt>
      <trkpt lat="42.8742650" lon="-7.8482470">
        <ele>633.4</ele>
        <time>2020-04-16T19:27:20Z</time>
      </trkpt>
      <trkpt lat="42.8742820" lon="-7.8485780">
        <ele>632.9</ele>
        <time>2020-04-16T19:27:22Z</time>
      </trkpt>
      <trkpt lat="42.8743090" lon="-7.8488380">
        <ele>632.4</ele>
        <time>2020-04-16T19:27:24Z</time>
      </trkpt>
      <trkpt lat="42.8743580" lon="-7.8491510">
        <ele>631.7</ele>
        <time>2020-04-16T19:27:26Z</time>
      </trkpt>
      <trkpt lat="42.8744080" lon="-7.8493590">
        <ele>631.1</ele>
        <time>2020-04-16T19:27:28Z</time>
      </trkpt>
      <trkpt lat="42.8744950" lon="-7.8496730">
        <ele>630.2</ele>
        <time>2020-04-16T19:27:30Z</time>
      </trkpt>
      <trkpt lat="42.8745610" lon="-7.8498930">
        <ele>629.7</ele>
        <time>2020-04-16T19:27:32Z</time>
      </trkpt>
      <trkpt lat="42.8746880" lon="-7.8503160">
        <ele>628.5</ele>
        <time>2020-04-16T19:27:34Z</time>
      </trkpt>
      <trkpt lat="42.8747560" lon="-7.8505380">
        <ele>627.8</ele>
        <time>2020-04-16T19:27:36Z</time>
      </trkpt>
      <trkpt lat="42.8748210" lon="-7.8507530">
        <ele>627.2</ele>
        <time>2020-04-16T19:27:38Z</time>
      </trkpt>
      <trkpt lat="42.8748670" lon="-7.8512030">
        <ele>626.2</ele>
        <time>2020-04-16T19:27:40Z</time>
      </trkpt>
      <trkpt lat="42.8748190" lon="-7.8515220">
        <ele>625.8</ele>
        <time>2020-04-16T19:27:42Z</time>
      </trkpt>
      <trkpt lat="42.8747340" lon="-7.8518030">
        <ele>625.7</ele>
        <time>2020-04-16T19:27:44Z</time>
      </trkpt>
      <trkpt lat="42.8746090" lon="-7.8519460">
        <ele>625.8</ele>
        <time>2020-04-16T19:27:46Z</time>
      </trkpt>
      <trkpt lat="42.8745150" lon="-7.8521210">
        <ele>626.1</ele>
        <time>2020-04-16T19:27:48Z</time>
      </trkpt>
      <trkpt lat="42.8744540" lon="-7.8523150">
        <ele>626.5</ele>
        <time>2020-04-16T19:27:50Z</time>
      </trkpt>
      <trkpt lat="42.8743680" lon="-7.8525250">
        <ele>626.7</ele>
        <time>2020-04-16T19:27:52Z</time>
      </trkpt>
      <trkpt lat="42.8743320" lon="-7.8526590">
        <ele>626.3</ele>
        <time>2020-04-16T19:27:54Z</time>
      </trkpt>
      <trkpt lat="42.8742820" lon="-7.8528960">
        <ele>625.6</ele>
        <time>2020-04-16T19:27:56Z</time>
      </trkpt>
      <trkpt lat="42.8742490" lon="-7.8530840">
        <ele>625.1</ele>
        <time>2020-04-16T19:27:58Z</time>
      </trkpt>
      <trkpt lat="42.8742350" lon="-7.8533200">
        <ele>624.5</ele>
        <time>2020-04-16T19:28:00Z</time>
      </trkpt>
      <trkpt lat="42.8742260" lon="-7.8535440">
        <ele>624.0</ele>
        <time>2020-04-16T19:28:02Z</time>
      </trkpt>
      <trkpt lat="42.8742120" lon="-7.8537790">
        <ele>623.6</ele>
        <time>2020-04-16T19:28:04Z</time>
      </trkpt>
      <trkpt lat="42.8741880" lon="-7.8539940">
        <ele>623.2</ele>
        <time>2020-04-16T19:28:06Z</time>
      </trkpt>
      <trkpt lat="42.8741610" lon="-7.8541920">
        <ele>622.8</ele>
        <time>2020-04-16T19:28:08Z</time>
      </trkpt>
      <trkpt lat="42.8740920" lon="-7.8545490">
        <ele>622.1</ele>
        <time>2020-04-16T19:28:10Z</time>
      </trkpt>
      <trkpt lat="42.8740280" lon="-7.8548720">
        <ele>621.5</ele>
        <time>2020-04-16T19:28:12Z</time>
      </trkpt>
      <trkpt lat="42.8740170" lon="-7.8552140">
        <ele>620.2</ele>
        <time>2020-04-16T19:28:14Z</time>
      </trkpt>
      <trkpt lat="42.8739990" lon="-7.8555540">
        <ele>618.1</ele>
        <time>2020-04-16T19:28:16Z</time>
      </trkpt>
      <trkpt lat="42.8739860" lon="-7.8558130">
        <ele>616.7</ele>
        <time>2020-04-16T19:28:18Z</time>
      </trkpt>
      <trkpt lat="42.8739630" lon="-7.8562750">
        <ele>614.6</ele>
        <time>2020-04-16T19:28:20Z</time>
      </trkpt>
      <trkpt lat="42.8739360" lon="-7.8565480">
        <ele>613.3</ele>
        <time>2020-04-16T19:28:22Z</time>
      </trkpt>
      <trkpt lat="42.8738990" lon="-7.8570000">
        <ele>611.1</ele>
        <time>2020-04-16T19:28:24Z</time>
      </trkpt>
      <trkpt lat="42.8739110" lon="-7.8574050">
        <ele>609.6</ele>
        <time>2020-04-16T19:28:26Z</time>
      </trkpt>
      <trkpt lat="42.8738940" lon="-7.8577890">
        <ele>607.7</ele>
        <time>2020-04-16T19:28:28Z</time>
      </trkpt>
      <trkpt lat="42.8738200" lon="-7.8581580">
        <ele>606.0</ele>
        <time>2020-04-16T19:28:30Z</time>
      </trkpt>
      <trkpt lat="42.8737790" lon="-7.8585110">
        <ele>605.1</ele>
        <time>2020-04-16T19:28:32Z</time>
      </trkpt>
      <trkpt lat="42.8737400" lon="-7.8589270">
        <ele>603.8</ele>
        <time>2020-04-16T19:28:34Z</time>
      </trkpt>
      <trkpt lat="42.8736960" lon="-7.8592940">
        <ele>603.0</ele>
        <time>2020-04-16T19:28:36Z</time>
      </trkpt>
      <trkpt lat="42.8736750" lon="-7.8595790">
        <ele>602.7</ele>
        <time>2020-04-16T19:28:38Z</time>
      </trkpt>
      <trkpt lat="42.8736470" lon="-7.8599380">
        <ele>602.1</ele>
        <time>2020-04-16T19:28:40Z</time>
      </trkpt>
      <trkpt lat="42.8736310" lon="-7.8601550">
        <ele>601.9</ele>
        <time>2020-04-16T19:28:42Z</time>
      </trkpt>
      <trkpt lat="42.8736160" lon="-7.8603580">
        <ele>601.7</ele>
        <time>2020-04-16T19:28:44Z</time>
      </trkpt>
      <trkpt lat="42.8735850" lon="-7.8607820">
        <ele>601.3</ele>
        <time>2020-04-16T19:28:46Z</time>
      </trkpt>
      <trkpt lat="42.8735780" lon="-7.8609680">
        <ele>601.2</ele>
        <time>2020-04-16T19:28:48Z</time>
      </trkpt>
      <trkpt lat="42.8735710" lon="-7.8611460">
        <ele>601.1</ele>
        <time>2020-04-16T19:28:50Z</time>
      </trkpt>
      <trkpt lat="42.8735370" lon="-7.8615200">
        <ele>601.2</ele>
        <time>2020-04-16T19:28:52Z</time>
      </trkpt>
      <trkpt lat="42.8735010" lon="-7.8616900">
        <ele>601.4</ele>
        <time>2020-04-16T19:28:54Z</time>
      </trkpt>
      <trkpt lat="42.8734420" lon="-7.8619490">
        <ele>601.7</ele>
        <time>2020-04-16T19:28:56Z</time>
      </trkpt>
      <trkpt lat="42.8733960" lon="-7.8621200">
        <ele>602.0</ele>
        <time>2020-04-16T19:28:58Z</time>
      </trkpt>
      <trkpt lat="42.8733320" lon="-7.8624080">
        <ele>602.2</ele>
        <time>2020-04-16T19:29:00Z</time>
      </trkpt>
      <trkpt lat="42.8733120" lon="-7.8626700">
        <ele>601.6</ele>
        <time>2020-04-16T19:29:02Z</time>
      </trkpt>
      <trkpt lat="42.8733300" lon="-7.8629380">
        <ele>600.2</ele>
        <time>2020-04-16T19:29:04Z</time>
      </trkpt>
      <trkpt lat="42.8733740" lon="-7.8632220">
        <ele>598.1</ele>
        <time>2020-04-16T19:29:06Z</time>
      </trkpt>
      <trkpt lat="42.8734210" lon="-7.8635680">
        <ele>595.5</ele>
        <time>2020-04-16T19:29:08Z</time>
      </trkpt>
      <trkpt lat="42.8733970" lon="-7.8638780">
        <ele>593.0</ele>
        <time>2020-04-16T19:29:10Z</time>
      </trkpt>
      <trkpt lat="42.8733320" lon="-7.8641820">
        <ele>590.9</ele>
        <time>2020-04-16T19:29:12Z</time>
      </trkpt>
      <trkpt lat="42.8731780" lon="-7.8645480">
        <ele>588.2</ele>
        <time>2020-04-16T19:29:14Z</time>
      </trkpt>
      <trkpt lat="42.8730460" lon="-7.8647880">
        <ele>586.2</ele>
        <time>2020-04-16T19:29:16Z</time>
      </trkpt>
      <trkpt lat="42.8728320" lon="-7.8652520">
        <ele>582.0</ele>
        <time>2020-04-16T19:29:18Z</time>
      </trkpt>
      <trkpt lat="42.8727840" lon="-7.8656350">
        <ele>579.0</ele>
        <time>2020-04-16T19:29:20Z</time>
      </trkpt>
      <trkpt lat="42.8727560" lon="-7.8660850">
        <ele>575.2</ele>
        <time>2020-04-16T19:29:22Z</time>
      </trkpt>
      <trkpt lat="42.8728220" lon="-7.8665300">
        <ele>572.3</ele>
        <time>2020-04-16T19:29:24Z</time>
      </trkpt>
      <trkpt lat="42.8728650" lon="-7.8669710">
        <ele>570.9</ele>
        <time>2020-04-16T19:29:26Z</time>
      </trkpt>
      <trkpt lat="42.8727710" lon="-7.8673970">
        <ele>570.2</ele>
        <time>2020-04-16T19:29:28Z</time>
      </trkpt>
      <trkpt lat="42.8729020" lon="-7.8677090">
        <ele>569.1</ele>
        <time>2020-04-16T19:29:30Z</time>
      </trkpt>
      <trkpt lat="42.8730920" lon="-7.8678880">
        <ele>567.2</ele>
        <time>2020-04-16T19:29:32Z</time>
      </trkpt>
      <trkpt lat="42.8732500" lon="-7.8680330">
        <ele>565.2</ele>
        <time>2020-04-16T19:29:34Z</time>
      </trkpt>
      <trkpt lat="42.8735330" lon="-7.8683520">
        <ele>562.4</ele>
        <time>2020-04-16T19:29:36Z</time>
      </trkpt>
      <trkpt lat="42.8736970" lon="-7.8684400">
        <ele>562.1</ele>
        <time>2020-04-16T19:29:38Z</time>
      </trkpt>
      <trkpt lat="42.8738410" lon="-7.8684780">
        <ele>561.8</ele>
        <time>2020-04-16T19:29:39Z</time>
      </trkpt>
      <trkpt lat="42.8738410" lon="-7.8684780">
        <ele>561.8</ele>
        <time>2020-04-16T19:29:39Z</time>
      </trkpt>
      <trkpt lat="42.8738410" lon="-7.8684780">
        <ele>561.8</ele>
        <time>2020-04-16T19:29:41Z</time>
      </trkpt>
      <trkpt lat="42.8738410" lon="-7.8684780">
        <ele>561.8</ele>
        <time>2020-04-16T19:29:43Z</time>
      </trkpt>
      <trkpt lat="42.8738410" lon="-7.8684780">
        <ele>561.8</ele>
        <time>2020-04-16T19:29:45Z</time>
      </trkpt>
      <trkpt lat="42.8738410" lon="-7.8684780">
        <ele>561.8</ele>
        <time>2020-04-16T19:29:47Z</time>
      </trkpt>
      <trkpt lat="42.8738410" lon="-7.8684780">
        <ele>561.8</ele>
        <time>2020-04-16T19:29:49Z</time>
      </trkpt>
      <trkpt lat="42.8738410" lon="-7.8684780">
        <ele>561.8</ele>
        <time>2020-04-16T19:29:51Z</time>
      </trkpt>
      <trkpt lat="42.8738410" lon="-7.8684780">
        <ele>561.8</ele>
        <time>2020-04-16T19:29:52Z</time>
      </trkpt>
      <trkpt lat="42.8739190" lon="-7.8712380">
        <ele>541.5</ele>
        <time>2020-04-17T17:19:27Z</time>
      </trkpt>
      <trkpt lat="42.8739190" lon="-7.8712380">
        <ele>541.5</ele>
        <time>2020-04-17T17:19:29Z</time>
      </trkpt>
      <trkpt lat="42.8739190" lon="-7.8712380">
        <ele>541.5</ele>
        <time>2020-04-17T17:19:31Z</time>
      </trkpt>
      <trkpt lat="42.8739190" lon="-7.8712380">
        <ele>541.5</ele>
        <time>2020-04-17T17:19:34Z</time>
      </trkpt>
      <trkpt lat="42.8739190" lon="-7.8712380">
        <ele>541.5</ele>
        <time>2020-04-17T17:19:36Z</time>
      </trkpt>
      <trkpt lat="42.8739190" lon="-7.8712380">
        <ele>541.5</ele>
        <time>2020-04-17T17:19:38Z</time>
      </trkpt>
      <trkpt lat="42.8739190" lon="-7.8712380">
        <ele>541.5</ele>
        <time>2020-04-17T17:19:40Z</time>
      </trkpt>
      <trkpt lat="42.8739190" lon="-7.8712380">
        <ele>541.5</ele>
        <time>2020-04-17T17:19:42Z</time>
      </trkpt>
      <trkpt lat="42.8739190" lon="-7.8712380">
        <ele>541.5</ele>
        <time>2020-04-17T17:19:44Z</time>
      </trkpt>
      <trkpt lat="42.8739190" lon="-7.8712380">
        <ele>541.5</ele>
        <time>2020-04-17T17:19:46Z</time>
      </trkpt>
      <trkpt lat="42.8739190" lon="-7.8712380">
        <ele>541.5</ele>
        <time>2020-04-17T17:19:48Z</time>
      </trkpt>
      <trkpt lat="42.8739190" lon="-7.8712380">
        <ele>541.5</ele>
        <time>2020-04-17T17:19:50Z</time>
      </trkpt>
      <trkpt lat="42.8739190" lon="-7.8712380">
        <ele>541.5</ele>
        <time>2020-04-17T17:19:52Z</time>
      </trkpt>
      <trkpt lat="42.8739190" lon="-7.8712380">
        <ele>541.5</ele>
        <time>2020-04-17T17:19:54Z</time>
      </trkpt>
      <trkpt lat="42.8739190" lon="-7.8712380">
        <ele>541.5</ele>
        <time>2020-04-17T17:19:56Z</time>
      </trkpt>
      <trkpt lat="42.8739190" lon="-7.8712380">
        <ele>541.5</ele>
        <time>2020-04-17T17:19:58Z</time>
      </trkpt>
      <trkpt lat="42.8739190" lon="-7.8712380">
        <ele>541.5</ele>
        <time>2020-04-17T17:20:00Z</time>
      </trkpt>
      <trkpt lat="42.8739190" lon="-7.8712380">
        <ele>541.5</ele>
        <time>2020-04-17T17:20:02Z</time>
      </trkpt>
      <trkpt lat="42.8739190" lon="-7.8712380">
        <ele>541.5</ele>
        <time>2020-04-17T17:20:03Z</time>
      </trkpt>
      <trkpt lat="42.8739190" lon="-7.8712380">
        <ele>541.5</ele>
        <time>2020-04-17T17:20:03Z</time>
      </trkpt>
      <trkpt lat="42.8739190" lon="-7.8712380">
        <ele>541.5</ele>
        <time>2020-04-17T17:20:05Z</time>
      </trkpt>
      <trkpt lat="42.8739260" lon="-7.8712590">
        <ele>541.3</ele>
        <time>2020-04-17T17:20:07Z</time>
      </trkpt>
      <trkpt lat="42.8739460" lon="-7.8713360">
        <ele>541.0</ele>
        <time>2020-04-17T17:20:09Z</time>
      </trkpt>
      <trkpt lat="42.8739660" lon="-7.8714270">
        <ele>540.5</ele>
        <time>2020-04-17T17:20:11Z</time>
      </trkpt>
      <trkpt lat="42.8739910" lon="-7.8715890">
        <ele>539.8</ele>
        <time>2020-04-17T17:20:13Z</time>
      </trkpt>
      <trkpt lat="42.8740090" lon="-7.8717910">
        <ele>539.0</ele>
        <time>2020-04-17T17:20:15Z</time>
      </trkpt>
      <trkpt lat="42.8740120" lon="-7.8719930">
        <ele>538.2</ele>
        <time>2020-04-17T17:20:17Z</time>
      </trkpt>
      <trkpt lat="42.8739980" lon="-7.8722450">
        <ele>537.2</ele>
        <time>2020-04-17T17:20:19Z</time>
      </trkpt>
      <trkpt lat="42.8739660" lon="-7.8724900">
        <ele>536.1</ele>
        <time>2020-04-17T17:20:21Z</time>
      </trkpt>
      <trkpt lat="42.8739200" lon="-7.8727600">
        <ele>534.9</ele>
        <time>2020-04-17T17:20:23Z</time>
      </trkpt>
      <trkpt lat="42.8738670" lon="-7.8730410">
        <ele>534.4</ele>
        <time>2020-04-17T17:20:25Z</time>
      </trkpt>
      <trkpt lat="42.8738240" lon="-7.8732570">
        <ele>533.7</ele>
        <time>2020-04-17T17:20:27Z</time>
      </trkpt>
      <trkpt lat="42.8737810" lon="-7.8734770">
        <ele>532.7</ele>
        <time>2020-04-17T17:20:29Z</time>
      </trkpt>
      <trkpt lat="42.8736830" lon="-7.8739750">
        <ele>530.8</ele>
        <time>2020-04-17T17:20:31Z</time>
      </trkpt>
      <trkpt lat="42.8736340" lon="-7.8742390">
        <ele>530.4</ele>
        <time>2020-04-17T17:20:33Z</time>
      </trkpt>
      <trkpt lat="42.8735920" lon="-7.8744730">
        <ele>529.5</ele>
        <time>2020-04-17T17:20:35Z</time>
      </trkpt>
      <trkpt lat="42.8735150" lon="-7.8748990">
        <ele>527.9</ele>
        <time>2020-04-17T17:20:37Z</time>
      </trkpt>
      <trkpt lat="42.8734720" lon="-7.8751370">
        <ele>526.9</ele>
        <time>2020-04-17T17:20:39Z</time>
      </trkpt>
      <trkpt lat="42.8734290" lon="-7.8753780">
        <ele>526.0</ele>
        <time>2020-04-17T17:20:41Z</time>
      </trkpt>
      <trkpt lat="42.8733300" lon="-7.8759020">
        <ele>524.9</ele>
        <time>2020-04-17T17:20:43Z</time>
      </trkpt>
      <trkpt lat="42.8732660" lon="-7.8762330">
        <ele>524.0</ele>
        <time>2020-04-17T17:20:45Z</time>
      </trkpt>
      <trkpt lat="42.8732180" lon="-7.8764750">
        <ele>523.3</ele>
        <time>2020-04-17T17:20:47Z</time>
      </trkpt>
      <trkpt lat="42.8731320" lon="-7.8769120">
        <ele>521.8</ele>
        <time>2020-04-17T17:20:49Z</time>
      </trkpt>
      <trkpt lat="42.8730660" lon="-7.8772450">
        <ele>520.9</ele>
        <time>2020-04-17T17:20:51Z</time>
      </trkpt>
      <trkpt lat="42.8730190" lon="-7.8774860">
        <ele>520.4</ele>
        <time>2020-04-17T17:20:53Z</time>
      </trkpt>
      <trkpt lat="42.8729720" lon="-7.8777280">
        <ele>519.8</ele>
        <time>2020-04-17T17:20:55Z</time>
      </trkpt>
      <trkpt lat="42.8728850" lon="-7.8781670">
        <ele>519.1</ele>
        <time>2020-04-17T17:20:57Z</time>
      </trkpt>
      <trkpt lat="42.8728350" lon="-7.8784250">
        <ele>518.3</ele>
        <time>2020-04-17T17:20:59Z</time>
      </trkpt>
      <trkpt lat="42.8727440" lon="-7.8788900">
        <ele>516.7</ele>
        <time>2020-04-17T17:21:01Z</time>
      </trkpt>
      <trkpt lat="42.8726820" lon="-7.8792430">
        <ele>515.2</ele>
        <time>2020-04-17T17:21:03Z</time>
      </trkpt>
      <trkpt lat="42.8726180" lon="-7.8797160">
        <ele>513.3</ele>
        <time>2020-04-17T17:21:05Z</time>
      </trkpt>
      <trkpt lat="42.8725930" lon="-7.8800750">
        <ele>511.7</ele>
        <time>2020-04-17T17:21:07Z</time>
      </trkpt>
      <trkpt lat="42.8725740" lon="-7.8804390">
        <ele>510.3</ele>
        <time>2020-04-17T17:21:09Z</time>
      </trkpt>
      <trkpt lat="42.8725580" lon="-7.8806990">
        <ele>509.4</ele>
        <time>2020-04-17T17:21:11Z</time>
      </trkpt>
      <trkpt lat="42.8725270" lon="-7.8810690">
        <ele>508.2</ele>
        <time>2020-04-17T17:21:13Z</time>
      </trkpt>
      <trkpt lat="42.8724550" lon="-7.8814400">
        <ele>507.3</ele>
        <time>2020-04-17T17:21:15Z</time>
      </trkpt>
      <trkpt lat="42.8723720" lon="-7.8817070">
        <ele>506.6</ele>
        <time>2020-04-17T17:21:17Z</time>
      </trkpt>
      <trkpt lat="42.8722790" lon="-7.8819540">
        <ele>506.0</ele>
        <time>2020-04-17T17:21:19Z</time>
      </trkpt>
      <trkpt lat="42.8721390" lon="-7.8822360">
        <ele>505.8</ele>
        <time>2020-04-17T17:21:21Z</time>
      </trkpt>
      <trkpt lat="42.8720420" lon="-7.8823970">
        <ele>505.8</ele>
        <time>2020-04-17T17:21:23Z</time>
      </trkpt>
      <trkpt lat="42.8718900" lon="-7.8826310">
        <ele>506.0</ele>
        <time>2020-04-17T17:21:25Z</time>
      </trkpt>
      <trkpt lat="42.8717950" lon="-7.8827710">
        <ele>506.3</ele>
        <time>2020-04-17T17:21:27Z</time>
      </trkpt>
      <trkpt lat="42.8717040" lon="-7.8829060">
        <ele>506.6</ele>
        <time>2020-04-17T17:21:29Z</time>
      </trkpt>
      <trkpt lat="42.8715120" lon="-7.8831880">
        <ele>507.3</ele>
        <time>2020-04-17T17:21:31Z</time>
      </trkpt>
      <trkpt lat="42.8713800" lon="-7.8833790">
        <ele>508.3</ele>
        <time>2020-04-17T17:21:33Z</time>
      </trkpt>
      <trkpt lat="42.8713030" lon="-7.8834930">
        <ele>509.0</ele>
        <time>2020-04-17T17:21:35Z</time>
      </trkpt>
      <trkpt lat="42.8711880" lon="-7.8836650">
        <ele>510.1</ele>
        <time>2020-04-17T17:21:37Z</time>
      </trkpt>
      <trkpt lat="42.8711250" lon="-7.8837610">
        <ele>510.7</ele>
        <time>2020-04-17T17:21:39Z</time>
      </trkpt>
      <trkpt lat="42.8710670" lon="-7.8838490">
        <ele>511.3</ele>
        <time>2020-04-17T17:21:41Z</time>
      </trkpt>
      <trkpt lat="42.8710130" lon="-7.8839310">
        <ele>511.9</ele>
        <time>2020-04-17T17:21:43Z</time>
      </trkpt>
      <trkpt lat="42.8708630" lon="-7.8841620">
        <ele>513.4</ele>
        <time>2020-04-17T17:21:45Z</time>
      </trkpt>
      <trkpt lat="42.8708230" lon="-7.8842400">
        <ele>513.9</ele>
        <time>2020-04-17T17:21:47Z</time>
      </trkpt>
      <trkpt lat="42.8707860" lon="-7.8843140">
        <ele>514.3</ele>
        <time>2020-04-17T17:21:49Z</time>
      </trkpt>
      <trkpt lat="42.8707190" lon="-7.8844580">
        <ele>515.1</ele>
        <time>2020-04-17T17:21:51Z</time>
      </trkpt>
      <trkpt lat="42.8706910" lon="-7.8845330">
        <ele>515.5</ele>
        <time>2020-04-17T17:21:53Z</time>
      </trkpt>
      <trkpt lat="42.8706630" lon="-7.8846090">
        <ele>515.9</ele>
        <time>2020-04-17T17:21:55Z</time>
      </trkpt>
      <trkpt lat="42.8706350" lon="-7.8846850">
        <ele>516.2</ele>
        <time>2020-04-17T17:21:57Z</time>
      </trkpt>
      <trkpt lat="42.8705730" lon="-7.8848670">
        <ele>516.9</ele>
        <time>2020-04-17T17:21:59Z</time>
      </trkpt>
      <trkpt lat="42.8705520" lon="-7.8849480">
        <ele>517.2</ele>
        <time>2020-04-17T17:22:01Z</time>
      </trkpt>
      <trkpt lat="42.8705150" lon="-7.8850970">
        <ele>517.8</ele>
        <time>2020-04-17T17:22:03Z</time>
      </trkpt>
      <trkpt lat="42.8704990" lon="-7.8851800">
        <ele>518.1</ele>
        <time>2020-04-17T17:22:05Z</time>
      </trkpt>
      <trkpt lat="42.8704770" lon="-7.8853230">
        <ele>518.5</ele>
        <time>2020-04-17T17:22:07Z</time>
      </trkpt>
      <trkpt lat="42.8704680" lon="-7.8854080">
        <ele>518.8</ele>
        <time>2020-04-17T17:22:09Z</time>
      </trkpt>
      <trkpt lat="42.8704600" lon="-7.8854950">
        <ele>519.1</ele>
        <time>2020-04-17T17:22:11Z</time>
      </trkpt>
      <trkpt lat="42.8704460" lon="-7.8856660">
        <ele>519.6</ele>
        <time>2020-04-17T17:22:13Z</time>
      </trkpt>
      <trkpt lat="42.8704400" lon="-7.8857520">
        <ele>519.8</ele>
        <time>2020-04-17T17:22:15Z</time>
      </trkpt>
      <trkpt lat="42.8704290" lon="-7.8859170">
        <ele>520.0</ele>
        <time>2020-04-17T17:22:17Z</time>
      </trkpt>
      <trkpt lat="42.8704220" lon="-7.8860040">
        <ele>520.1</ele>
        <time>2020-04-17T17:22:19Z</time>
      </trkpt>
      <trkpt lat="42.8704140" lon="-7.8860920">
        <ele>520.3</ele>
        <time>2020-04-17T17:22:21Z</time>
      </trkpt>
      <trkpt lat="42.8703990" lon="-7.8862720">
        <ele>520.9</ele>
        <time>2020-04-17T17:22:23Z</time>
      </trkpt>
      <trkpt lat="42.8703920" lon="-7.8863620">
        <ele>521.2</ele>
        <time>2020-04-17T17:22:25Z</time>
      </trkpt>
      <trkpt lat="42.8703850" lon="-7.8864530">
        <ele>521.6</ele>
        <time>2020-04-17T17:22:27Z</time>
      </trkpt>
      <trkpt lat="42.8703780" lon="-7.8865430">
        <ele>521.9</ele>
        <time>2020-04-17T17:22:29Z</time>
      </trkpt>
      <trkpt lat="42.8703700" lon="-7.8866330">
        <ele>522.2</ele>
        <time>2020-04-17T17:22:31Z</time>
      </trkpt>
      <trkpt lat="42.8703630" lon="-7.8867230">
        <ele>522.5</ele>
        <time>2020-04-17T17:22:33Z</time>
      </trkpt>
      <trkpt lat="42.8703560" lon="-7.8868130">
        <ele>522.7</ele>
        <time>2020-04-17T17:22:35Z</time>
      </trkpt>
      <trkpt lat="42.8703310" lon="-7.8871340">
        <ele>523.4</ele>
        <time>2020-04-17T17:22:37Z</time>
      </trkpt>
      <trkpt lat="42.8703230" lon="-7.8872480">
        <ele>523.6</ele>
        <time>2020-04-17T17:22:39Z</time>
      </trkpt>
      <trkpt lat="42.8703180" lon="-7.8873330">
        <ele>523.8</ele>
        <time>2020-04-17T17:22:41Z</time>
      </trkpt>
      <trkpt lat="42.8703130" lon="-7.8874160">
        <ele>524.1</ele>
        <time>2020-04-17T17:22:43Z</time>
      </trkpt>
      <trkpt lat="42.8703080" lon="-7.8874960">
        <ele>524.4</ele>
        <time>2020-04-17T17:22:45Z</time>
      </trkpt>
      <trkpt lat="42.8703030" lon="-7.8875740">
        <ele>524.6</ele>
        <time>2020-04-17T17:22:47Z</time>
      </trkpt>
      <trkpt lat="42.8702980" lon="-7.8876510">
        <ele>524.9</ele>
        <time>2020-04-17T17:22:49Z</time>
      </trkpt>
      <trkpt lat="42.8702930" lon="-7.8877270">
        <ele>525.2</ele>
        <time>2020-04-17T17:22:51Z</time>
      </trkpt>
      <trkpt lat="42.8702890" lon="-7.8878030">
        <ele>525.4</ele>
        <time>2020-04-17T17:22:53Z</time>
      </trkpt>
      <trkpt lat="42.8702840" lon="-7.8878820">
        <ele>525.7</ele>
        <time>2020-04-17T17:22:55Z</time>
      </trkpt>
      <trkpt lat="42.8702650" lon="-7.8882170">
        <ele>526.8</ele>
        <time>2020-04-17T17:22:57Z</time>
      </trkpt>
      <trkpt lat="42.8702620" lon="-7.8882940">
        <ele>527.0</ele>
        <time>2020-04-17T17:22:59Z</time>
      </trkpt>
      <trkpt lat="42.8702600" lon="-7.8883700">
        <ele>527.3</ele>
        <time>2020-04-17T17:23:01Z</time>
      </trkpt>
      <trkpt lat="42.8702580" lon="-7.8884450">
        <ele>527.5</ele>
        <time>2020-04-17T17:23:03Z</time>
      </trkpt>
      <trkpt lat="42.8702550" lon="-7.8885190">
        <ele>527.8</ele>
        <time>2020-04-17T17:23:05Z</time>
      </trkpt>
      <trkpt lat="42.8702530" lon="-7.8885920">
        <ele>528.0</ele>
        <time>2020-04-17T17:23:07Z</time>
      </trkpt>
      <trkpt lat="42.8702450" lon="-7.8888430">
        <ele>528.8</ele>
        <time>2020-04-17T17:23:09Z</time>
      </trkpt>
      <trkpt lat="42.8702430" lon="-7.8889160">
        <ele>529.0</ele>
        <time>2020-04-17T17:23:11Z</time>
      </trkpt>
      <trkpt lat="42.8702410" lon="-7.8890420">
        <ele>529.3</ele>
        <time>2020-04-17T17:23:13Z</time>
      </trkpt>
      <trkpt lat="42.8702400" lon="-7.8891370">
        <ele>529.5</ele>
        <time>2020-04-17T17:23:15Z</time>
      </trkpt>
      <trkpt lat="42.8702400" lon="-7.8892480">
        <ele>529.7</ele>
        <time>2020-04-17T17:23:17Z</time>
      </trkpt>
      <trkpt lat="42.8702390" lon="-7.8894950">
        <ele>529.9</ele>
        <time>2020-04-17T17:23:19Z</time>
      </trkpt>
      <trkpt lat="42.8702430" lon="-7.8896210">
        <ele>529.9</ele>
        <time>2020-04-17T17:23:21Z</time>
      </trkpt>
      <trkpt lat="42.8702470" lon="-7.8897520">
        <ele>529.9</ele>
        <time>2020-04-17T17:23:23Z</time>
      </trkpt>
      <trkpt lat="42.8702510" lon="-7.8898860">
        <ele>529.8</ele>
        <time>2020-04-17T17:23:25Z</time>
      </trkpt>
      <trkpt lat="42.8702630" lon="-7.8901980">
        <ele>529.8</ele>
        <time>2020-04-17T17:23:27Z</time>
      </trkpt>
      <trkpt lat="42.8702730" lon="-7.8903750">
        <ele>529.8</ele>
        <time>2020-04-17T17:23:29Z</time>
      </trkpt>
      <trkpt lat="42.8702920" lon="-7.8906070">
        <ele>529.7</ele>
        <time>2020-04-17T17:23:31Z</time>
      </trkpt>
      <trkpt lat="42.8703280" lon="-7.8908250">
        <ele>529.7</ele>
        <time>2020-04-17T17:23:33Z</time>
      </trkpt>
      <trkpt lat="42.8703900" lon="-7.8910480">
        <ele>529.5</ele>
        <time>2020-04-17T17:23:35Z</time>
      </trkpt>
      <trkpt lat="42.8704810" lon="-7.8912670">
        <ele>529.2</ele>
        <time>2020-04-17T17:23:37Z</time>
      </trkpt>
      <trkpt lat="42.8705950" lon="-7.8914580">
        <ele>528.8</ele>
        <time>2020-04-17T17:23:39Z</time>
      </trkpt>
      <trkpt lat="42.8707330" lon="-7.8916440">
        <ele>528.3</ele>
        <time>2020-04-17T17:23:41Z</time>
      </trkpt>
      <trkpt lat="42.8709080" lon="-7.8918330">
        <ele>527.6</ele>
        <time>2020-04-17T17:23:43Z</time>
      </trkpt>
      <trkpt lat="42.8710750" lon="-7.8919500">
        <ele>526.9</ele>
        <time>2020-04-17T17:23:45Z</time>
      </trkpt>
      <trkpt lat="42.8712690" lon="-7.8920530">
        <ele>526.2</ele>
        <time>2020-04-17T17:23:47Z</time>
      </trkpt>
      <trkpt lat="42.8714600" lon="-7.8921160">
        <ele>525.6</ele>
        <time>2020-04-17T17:23:49Z</time>
      </trkpt>
      <trkpt lat="42.8716830" lon="-7.8921860">
        <ele>524.5</ele>
        <time>2020-04-17T17:23:51Z</time>
      </trkpt>
      <trkpt lat="42.8718370" lon="-7.8922470">
        <ele>523.6</ele>
        <time>2020-04-17T17:23:53Z</time>
      </trkpt>
      <trkpt lat="42.8721100" lon="-7.8923630">
        <ele>522.1</ele>
        <time>2020-04-17T17:23:55Z</time>
      </trkpt>
      <trkpt lat="42.8723000" lon="-7.8924930">
        <ele>521.0</ele>
        <time>2020-04-17T17:23:57Z</time>
      </trkpt>
      <trkpt lat="42.8724950" lon="-7.8926820">
        <ele>520.2</ele>
        <time>2020-04-17T17:23:59Z</time>
      </trkpt>
      <trkpt lat="42.8726730" lon="-7.8929150">
        <ele>519.5</ele>
        <time>2020-04-17T17:24:01Z</time>
      </trkpt>
      <trkpt lat="42.8727970" lon="-7.8931090">
        <ele>518.5</ele>
        <time>2020-04-17T17:24:03Z</time>
      </trkpt>
      <trkpt lat="42.8729980" lon="-7.8934350">
        <ele>517.1</ele>
        <time>2020-04-17T17:24:05Z</time>
      </trkpt>
      <trkpt lat="42.8731800" lon="-7.8937480">
        <ele>515.6</ele>
        <time>2020-04-17T17:24:07Z</time>
      </trkpt>
      <trkpt lat="42.8733240" lon="-7.8939320">
        <ele>514.6</ele>
        <time>2020-04-17T17:24:09Z</time>
      </trkpt>
      <trkpt lat="42.8735650" lon="-7.8942370">
        <ele>513.2</ele>
        <time>2020-04-17T17:24:11Z</time>
      </trkpt>
      <trkpt lat="42.8737130" lon="-7.8944180">
        <ele>512.3</ele>
        <time>2020-04-17T17:24:13Z</time>
      </trkpt>
      <trkpt lat="42.8739450" lon="-7.8946940">
        <ele>511.0</ele>
        <time>2020-04-17T17:24:15Z</time>
      </trkpt>
      <trkpt lat="42.8741750" lon="-7.8949560">
        <ele>509.8</ele>
        <time>2020-04-17T17:24:17Z</time>
      </trkpt>
      <trkpt lat="42.8743660" lon="-7.8951320">
        <ele>509.2</ele>
        <time>2020-04-17T17:24:19Z</time>
      </trkpt>
      <trkpt lat="42.8745520" lon="-7.8952120">
        <ele>509.0</ele>
        <time>2020-04-17T17:24:21Z</time>
      </trkpt>
      <trkpt lat="42.8747730" lon="-7.8951870">
        <ele>508.5</ele>
        <time>2020-04-17T17:24:23Z</time>
      </trkpt>
      <trkpt lat="42.8749270" lon="-7.8953370">
        <ele>507.8</ele>
        <time>2020-04-17T17:24:25Z</time>
      </trkpt>
      <trkpt lat="42.8749730" lon="-7.8955920">
        <ele>507.0</ele>
        <time>2020-04-17T17:24:27Z</time>
      </trkpt>
      <trkpt lat="42.8750580" lon="-7.8958110">
        <ele>506.3</ele>
        <time>2020-04-17T17:24:29Z</time>
      </trkpt>
      <trkpt lat="42.8751850" lon="-7.8960570">
        <ele>505.6</ele>
        <time>2020-04-17T17:24:31Z</time>
      </trkpt>
      <trkpt lat="42.8753220" lon="-7.8962960">
        <ele>505.0</ele>
        <time>2020-04-17T17:24:34Z</time>
      </trkpt>
      <trkpt lat="42.8754170" lon="-7.8964850">
        <ele>504.5</ele>
        <time>2020-04-17T17:24:36Z</time>
      </trkpt>
      <trkpt lat="42.8755580" lon="-7.8968200">
        <ele>503.8</ele>
        <time>2020-04-17T17:24:38Z</time>
      </trkpt>
      <trkpt lat="42.8756610" lon="-7.8971270">
        <ele>503.1</ele>
        <time>2020-04-17T17:24:40Z</time>
      </trkpt>
      <trkpt lat="42.8758070" lon="-7.8974560">
        <ele>502.8</ele>
        <time>2020-04-17T17:24:42Z</time>
      </trkpt>
      <trkpt lat="42.8760020" lon="-7.8976390">
        <ele>502.3</ele>
        <time>2020-04-17T17:24:44Z</time>
      </trkpt>
      <trkpt lat="42.8760070" lon="-7.8979710">
        <ele>501.6</ele>
        <time>2020-04-17T17:24:46Z</time>
      </trkpt>
      <trkpt lat="42.8760260" lon="-7.8982750">
        <ele>500.6</ele>
        <time>2020-04-17T17:24:48Z</time>
      </trkpt>
      <trkpt lat="42.8761060" lon="-7.8986600">
        <ele>499.3</ele>
        <time>2020-04-17T17:24:50Z</time>
      </trkpt>
      <trkpt lat="42.8762710" lon="-7.8989360">
        <ele>498.0</ele>
        <time>2020-04-17T17:24:52Z</time>
      </trkpt>
      <trkpt lat="42.8764590" lon="-7.8991500">
        <ele>496.3</ele>
        <time>2020-04-17T17:24:54Z</time>
      </trkpt>
      <trkpt lat="42.8766830" lon="-7.8993660">
        <ele>495.2</ele>
        <time>2020-04-17T17:24:56Z</time>
      </trkpt>
      <trkpt lat="42.8768810" lon="-7.8995070">
        <ele>494.7</ele>
        <time>2020-04-17T17:24:58Z</time>
      </trkpt>
      <trkpt lat="42.8771280" lon="-7.8996630">
        <ele>493.0</ele>
        <time>2020-04-17T17:25:00Z</time>
      </trkpt>
      <trkpt lat="42.8774150" lon="-7.8998510">
        <ele>490.6</ele>
        <time>2020-04-17T17:25:02Z</time>
      </trkpt>
      <trkpt lat="42.8776590" lon="-7.9000640">
        <ele>488.7</ele>
        <time>2020-04-17T17:25:04Z</time>
      </trkpt>
      <trkpt lat="42.8778630" lon="-7.9003660">
        <ele>486.9</ele>
        <time>2020-04-17T17:25:06Z</time>
      </trkpt>
      <trkpt lat="42.8780020" lon="-7.9006930">
        <ele>485.2</ele>
        <time>2020-04-17T17:25:08Z</time>
      </trkpt>
      <trkpt lat="42.8781010" lon="-7.9010320">
        <ele>483.8</ele>
        <time>2020-04-17T17:25:10Z</time>
      </trkpt>
      <trkpt lat="42.8781930" lon="-7.9014080">
        <ele>482.9</ele>
        <time>2020-04-17T17:25:12Z</time>
      </trkpt>
      <trkpt lat="42.8782870" lon="-7.9017360">
        <ele>482.1</ele>
        <time>2020-04-17T17:25:14Z</time>
      </trkpt>
      <trkpt lat="42.8783650" lon="-7.9019760">
        <ele>481.4</ele>
        <time>2020-04-17T17:25:16Z</time>
      </trkpt>
      <trkpt lat="42.8785500" lon="-7.9023970">
        <ele>480.7</ele>
        <time>2020-04-17T17:25:18Z</time>
      </trkpt>
      <trkpt lat="42.8786750" lon="-7.9025900">
        <ele>480.7</ele>
        <time>2020-04-17T17:25:20Z</time>
      </trkpt>
      <trkpt lat="42.8788430" lon="-7.9028240">
        <ele>480.7</ele>
        <time>2020-04-17T17:25:22Z</time>
      </trkpt>
      <trkpt lat="42.8789620" lon="-7.9029810">
        <ele>480.6</ele>
        <time>2020-04-17T17:25:24Z</time>
      </trkpt>
      <trkpt lat="42.8790810" lon="-7.9031400">
        <ele>480.4</ele>
        <time>2020-04-17T17:25:26Z</time>
      </trkpt>
      <trkpt lat="42.8793180" lon="-7.9034520">
        <ele>479.8</ele>
        <time>2020-04-17T17:25:28Z</time>
      </trkpt>
      <trkpt lat="42.8794400" lon="-7.9036100">
        <ele>479.4</ele>
        <time>2020-04-17T17:25:30Z</time>
      </trkpt>
      <trkpt lat="42.8795610" lon="-7.9037670">
        <ele>478.8</ele>
        <time>2020-04-17T17:25:32Z</time>
      </trkpt>
      <trkpt lat="42.8798280" lon="-7.9041150">
        <ele>477.3</ele>
        <time>2020-04-17T17:25:34Z</time>
      </trkpt>
      <trkpt lat="42.8799560" lon="-7.9042810">
        <ele>476.5</ele>
        <time>2020-04-17T17:25:36Z</time>
      </trkpt>
      <trkpt lat="42.8800880" lon="-7.9044530">
        <ele>475.6</ele>
        <time>2020-04-17T17:25:38Z</time>
      </trkpt>
      <trkpt lat="42.8803680" lon="-7.9048170">
        <ele>473.8</ele>
        <time>2020-04-17T17:25:40Z</time>
      </trkpt>
      <trkpt lat="42.8805070" lon="-7.9049970">
        <ele>472.8</ele>
        <time>2020-04-17T17:25:42Z</time>
      </trkpt>
      <trkpt lat="42.8806480" lon="-7.9051810">
        <ele>471.8</ele>
        <time>2020-04-17T17:25:44Z</time>
      </trkpt>
      <trkpt lat="42.8809360" lon="-7.9055560">
        <ele>469.8</ele>
        <time>2020-04-17T17:25:46Z</time>
      </trkpt>
      <trkpt lat="42.8810830" lon="-7.9057460">
        <ele>468.7</ele>
        <time>2020-04-17T17:25:48Z</time>
      </trkpt>
      <trkpt lat="42.8813750" lon="-7.9061270">
        <ele>466.6</ele>
        <time>2020-04-17T17:25:50Z</time>
      </trkpt>
      <trkpt lat="42.8815240" lon="-7.9063210">
        <ele>465.6</ele>
        <time>2020-04-17T17:25:52Z</time>
      </trkpt>
      <trkpt lat="42.8817500" lon="-7.9066170">
        <ele>464.0</ele>
        <time>2020-04-17T17:25:54Z</time>
      </trkpt>
      <trkpt lat="42.8819770" lon="-7.9068940">
        <ele>462.5</ele>
        <time>2020-04-17T17:25:56Z</time>
      </trkpt>
      <trkpt lat="42.8822240" lon="-7.9071250">
        <ele>461.7</ele>
        <time>2020-04-17T17:25:58Z</time>
      </trkpt>
      <trkpt lat="42.8824770" lon="-7.9072960">
        <ele>460.2</ele>
        <time>2020-04-17T17:26:00Z</time>
      </trkpt>
      <trkpt lat="42.8827500" lon="-7.9074290">
        <ele>458.2</ele>
        <time>2020-04-17T17:26:02Z</time>
      </trkpt>
      <trkpt lat="42.8830370" lon="-7.9075570">
        <ele>457.1</ele>
        <time>2020-04-17T17:26:04Z</time>
      </trkpt>
      <trkpt lat="42.8832670" lon="-7.9076890">
        <ele>456.2</ele>
        <time>2020-04-17T17:26:06Z</time>
      </trkpt>
      <trkpt lat="42.8834800" lon="-7.9078940">
        <ele>454.5</ele>
        <time>2020-04-17T17:26:08Z</time>
      </trkpt>
      <trkpt lat="42.8837490" lon="-7.9081440">
        <ele>452.4</ele>
        <time>2020-04-17T17:26:10Z</time>
      </trkpt>
      <trkpt lat="42.8840150" lon="-7.9082880">
        <ele>450.8</ele>
        <time>2020-04-17T17:26:12Z</time>
      </trkpt>
      <trkpt lat="42.8842690" lon="-7.9084010">
        <ele>449.7</ele>
        <time>2020-04-17T17:26:14Z</time>
      </trkpt>
      <trkpt lat="42.8844740" lon="-7.9084720">
        <ele>448.4</ele>
        <time>2020-04-17T17:26:16Z</time>
      </trkpt>
      <trkpt lat="42.8848240" lon="-7.9085980">
        <ele>446.8</ele>
        <time>2020-04-17T17:26:18Z</time>
      </trkpt>
      <trkpt lat="42.8851320" lon="-7.9087770">
        <ele>445.1</ele>
        <time>2020-04-17T17:26:20Z</time>
      </trkpt>
      <trkpt lat="42.8853050" lon="-7.9090450">
        <ele>443.7</ele>
        <time>2020-04-17T17:26:22Z</time>
      </trkpt>
      <trkpt lat="42.8854230" lon="-7.9092930">
        <ele>442.4</ele>
        <time>2020-04-17T17:26:24Z</time>
      </trkpt>
      <trkpt lat="42.8855910" lon="-7.9096870">
        <ele>440.3</ele>
        <time>2020-04-17T17:26:26Z</time>
      </trkpt>
      <trkpt lat="42.8857650" lon="-7.9101290">
        <ele>437.8</ele>
        <time>2020-04-17T17:26:28Z</time>
      </trkpt>
      <trkpt lat="42.8858690" lon="-7.9103910">
        <ele>436.3</ele>
        <time>2020-04-17T17:26:30Z</time>
      </trkpt>
      <trkpt lat="42.8860430" lon="-7.9108400">
        <ele>434.4</ele>
        <time>2020-04-17T17:26:32Z</time>
      </trkpt>
      <trkpt lat="42.8861340" lon="-7.9111170">
        <ele>433.2</ele>
        <time>2020-04-17T17:26:34Z</time>
      </trkpt>
      <trkpt lat="42.8862920" lon="-7.9116060">
        <ele>430.1</ele>
        <time>2020-04-17T17:26:36Z</time>
      </trkpt>
      <trkpt lat="42.8863460" lon="-7.9119540">
        <ele>429.4</ele>
        <time>2020-04-17T17:26:38Z</time>
      </trkpt>
      <trkpt lat="42.8863520" lon="-7.9123450">
        <ele>427.9</ele>
        <time>2020-04-17T17:26:40Z</time>
      </trkpt>
      <trkpt lat="42.8863410" lon="-7.9126060">
        <ele>426.8</ele>
        <time>2020-04-17T17:26:42Z</time>
      </trkpt>
      <trkpt lat="42.8863080" lon="-7.9130540">
        <ele>425.7</ele>
        <time>2020-04-17T17:26:44Z</time>
      </trkpt>
      <trkpt lat="42.8862350" lon="-7.9133710">
        <ele>425.4</ele>
        <time>2020-04-17T17:26:46Z</time>
      </trkpt>
      <trkpt lat="42.8861490" lon="-7.9137230">
        <ele>425.3</ele>
        <time>2020-04-17T17:26:48Z</time>
      </trkpt>
      <trkpt lat="42.8860820" lon="-7.9140340">
        <ele>425.2</ele>
        <time>2020-04-17T17:26:50Z</time>
      </trkpt>
      <trkpt lat="42.8860360" lon="-7.9142580">
        <ele>425.2</ele>
        <time>2020-04-17T17:26:52Z</time>
      </trkpt>
      <trkpt lat="42.8859850" lon="-7.9146030">
        <ele>425.3</ele>
        <time>2020-04-17T17:26:54Z</time>
      </trkpt>
      <trkpt lat="42.8859650" lon="-7.9149360">
        <ele>425.8</ele>
        <time>2020-04-17T17:26:56Z</time>
      </trkpt>
      <trkpt lat="42.8859670" lon="-7.9151390">
        <ele>426.4</ele>
        <time>2020-04-17T17:26:58Z</time>
      </trkpt>
      <trkpt lat="42.8859790" lon="-7.9154520">
        <ele>427.5</ele>
        <time>2020-04-17T17:27:00Z</time>
      </trkpt>
      <trkpt lat="42.8859970" lon="-7.9156280">
        <ele>428.3</ele>
        <time>2020-04-17T17:27:02Z</time>
      </trkpt>
      <trkpt lat="42.8860280" lon="-7.9159060">
        <ele>429.5</ele>
        <time>2020-04-17T17:27:04Z</time>
      </trkpt>
      <trkpt lat="42.8860490" lon="-7.9160510">
        <ele>430.2</ele>
        <time>2020-04-17T17:27:06Z</time>
      </trkpt>
      <trkpt lat="42.8860680" lon="-7.9161840">
        <ele>430.7</ele>
        <time>2020-04-17T17:27:08Z</time>
      </trkpt>
      <trkpt lat="42.8860860" lon="-7.9163050">
        <ele>431.3</ele>
        <time>2020-04-17T17:27:10Z</time>
      </trkpt>
      <trkpt lat="42.8861020" lon="-7.9164180">
        <ele>431.7</ele>
        <time>2020-04-17T17:27:12Z</time>
      </trkpt>
      <trkpt lat="42.8861540" lon="-7.9167740">
        <ele>433.2</ele>
        <time>2020-04-17T17:27:14Z</time>
      </trkpt>
      <trkpt lat="42.8861680" lon="-7.9168700">
        <ele>433.6</ele>
        <time>2020-04-17T17:27:16Z</time>
      </trkpt>
      <trkpt lat="42.8861810" lon="-7.9169620">
        <ele>433.9</ele>
        <time>2020-04-17T17:27:18Z</time>
      </trkpt>
      <trkpt lat="42.8861940" lon="-7.9170510">
        <ele>434.3</ele>
        <time>2020-04-17T17:27:20Z</time>
      </trkpt>
      <trkpt lat="42.8862070" lon="-7.9171400">
        <ele>434.7</ele>
        <time>2020-04-17T17:27:22Z</time>
      </trkpt>
      <trkpt lat="42.8862200" lon="-7.9172280">
        <ele>435.0</ele>
        <time>2020-04-17T17:27:24Z</time>
      </trkpt>
      <trkpt lat="42.8862320" lon="-7.9173170">
        <ele>435.4</ele>
        <time>2020-04-17T17:27:26Z</time>
      </trkpt>
      <trkpt lat="42.8862450" lon="-7.9174060">
        <ele>435.7</ele>
        <time>2020-04-17T17:27:28Z</time>
      </trkpt>
      <trkpt lat="42.8862970" lon="-7.9177440">
        <ele>437.0</ele>
        <time>2020-04-17T17:27:30Z</time>
      </trkpt>
      <trkpt lat="42.8863140" lon="-7.9178310">
        <ele>437.3</ele>
        <time>2020-04-17T17:27:32Z</time>
      </trkpt>
      <trkpt lat="42.8863310" lon="-7.9179180">
        <ele>437.6</ele>
        <time>2020-04-17T17:27:34Z</time>
      </trkpt>
      <trkpt lat="42.8863480" lon="-7.9180050">
        <ele>437.9</ele>
        <time>2020-04-17T17:27:36Z</time>
      </trkpt>
      <trkpt lat="42.8863660" lon="-7.9180920">
        <ele>438.3</ele>
        <time>2020-04-17T17:27:38Z</time>
      </trkpt>
      <trkpt lat="42.8864210" lon="-7.9183340">
        <ele>439.2</ele>
        <time>2020-04-17T17:27:40Z</time>
      </trkpt>
      <trkpt lat="42.8864500" lon="-7.9184270">
        <ele>439.6</ele>
        <time>2020-04-17T17:27:42Z</time>
      </trkpt>
      <trkpt lat="42.8864800" lon="-7.9185240">
        <ele>440.0</ele>
        <time>2020-04-17T17:27:44Z</time>
      </trkpt>
      <trkpt lat="42.8865510" lon="-7.9187330">
        <ele>440.9</ele>
        <time>2020-04-17T17:27:46Z</time>
      </trkpt>
      <trkpt lat="42.8865910" lon="-7.9188290">
        <ele>441.3</ele>
        <time>2020-04-17T17:27:48Z</time>
      </trkpt>
      <trkpt lat="42.8866330" lon="-7.9189260">
        <ele>441.7</ele>
        <time>2020-04-17T17:27:50Z</time>
      </trkpt>
      <trkpt lat="42.8867230" lon="-7.9191370">
        <ele>442.5</ele>
        <time>2020-04-17T17:27:52Z</time>
      </trkpt>
      <trkpt lat="42.8867690" lon="-7.9192320">
        <ele>442.8</ele>
        <time>2020-04-17T17:27:54Z</time>
      </trkpt>
      <trkpt lat="42.8868160" lon="-7.9193270">
        <ele>443.1</ele>
        <time>2020-04-17T17:27:56Z</time>
      </trkpt>
      <trkpt lat="42.8869110" lon="-7.9195230">
        <ele>443.6</ele>
        <time>2020-04-17T17:27:58Z</time>
      </trkpt>
      <trkpt lat="42.8869560" lon="-7.9196180">
        <ele>443.9</ele>
        <time>2020-04-17T17:28:00Z</time>
      </trkpt>
      <trkpt lat="42.8870010" lon="-7.9197120">
        <ele>444.1</ele>
        <time>2020-04-17T17:28:02Z</time>
      </trkpt>
      <trkpt lat="42.8870460" lon="-7.9198060">
        <ele>444.5</ele>
        <time>2020-04-17T17:28:04Z</time>
      </trkpt>
      <trkpt lat="42.8870900" lon="-7.9199000">
        <ele>444.8</ele>
        <time>2020-04-17T17:28:06Z</time>
      </trkpt>
      <trkpt lat="42.8872160" lon="-7.9201650">
        <ele>445.5</ele>
        <time>2020-04-17T17:28:08Z</time>
      </trkpt>
      <trkpt lat="42.8872690" lon="-7.9202730">
        <ele>445.7</ele>
        <time>2020-04-17T17:28:10Z</time>
      </trkpt>
      <trkpt lat="42.8873140" lon="-7.9203640">
        <ele>445.9</ele>
        <time>2020-04-17T17:28:12Z</time>
      </trkpt>
      <trkpt lat="42.8873590" lon="-7.9204540">
        <ele>446.1</ele>
        <time>2020-04-17T17:28:14Z</time>
      </trkpt>
      <trkpt lat="42.8874040" lon="-7.9205450">
        <ele>446.4</ele>
        <time>2020-04-17T17:28:16Z</time>
      </trkpt>
      <trkpt lat="42.8875150" lon="-7.9207670">
        <ele>446.7</ele>
        <time>2020-04-17T17:28:18Z</time>
      </trkpt>
      <trkpt lat="42.8875590" lon="-7.9208570">
        <ele>447.0</ele>
        <time>2020-04-17T17:28:20Z</time>
      </trkpt>
      <trkpt lat="42.8876040" lon="-7.9209470">
        <ele>447.3</ele>
        <time>2020-04-17T17:28:22Z</time>
      </trkpt>
      <trkpt lat="42.8877100" lon="-7.9211590">
        <ele>448.2</ele>
        <time>2020-04-17T17:28:24Z</time>
      </trkpt>
      <trkpt lat="42.8877540" lon="-7.9212480">
        <ele>448.6</ele>
        <time>2020-04-17T17:28:26Z</time>
      </trkpt>
      <trkpt lat="42.8877980" lon="-7.9213360">
        <ele>448.9</ele>
        <time>2020-04-17T17:28:28Z</time>
      </trkpt>
      <trkpt lat="42.8878420" lon="-7.9214250">
        <ele>449.3</ele>
        <time>2020-04-17T17:28:30Z</time>
      </trkpt>
      <trkpt lat="42.8878860" lon="-7.9215130">
        <ele>449.7</ele>
        <time>2020-04-17T17:28:32Z</time>
      </trkpt>
      <trkpt lat="42.8879290" lon="-7.9216000">
        <ele>450.1</ele>
        <time>2020-04-17T17:28:34Z</time>
      </trkpt>
      <trkpt lat="42.8879730" lon="-7.9216870">
        <ele>450.5</ele>
        <time>2020-04-17T17:28:36Z</time>
      </trkpt>
      <trkpt lat="42.8880160" lon="-7.9217740">
        <ele>450.8</ele>
        <time>2020-04-17T17:28:38Z</time>
      </trkpt>
      <trkpt lat="42.8880590" lon="-7.9218600">
        <ele>451.2</ele>
        <time>2020-04-17T17:28:40Z</time>
      </trkpt>
      <trkpt lat="42.8882360" lon="-7.9222160">
        <ele>452.7</ele>
        <time>2020-04-17T17:28:42Z</time>
      </trkpt>
      <trkpt lat="42.8882790" lon="-7.9223030">
        <ele>453.1</ele>
        <time>2020-04-17T17:28:44Z</time>
      </trkpt>
      <trkpt lat="42.8883220" lon="-7.9223890">
        <ele>453.5</ele>
        <time>2020-04-17T17:28:46Z</time>
      </trkpt>
      <trkpt lat="42.8883650" lon="-7.9224750">
        <ele>453.9</ele>
        <time>2020-04-17T17:28:48Z</time>
      </trkpt>
      <trkpt lat="42.8884080" lon="-7.9225610">
        <ele>454.3</ele>
        <time>2020-04-17T17:28:50Z</time>
      </trkpt>
      <trkpt lat="42.8885220" lon="-7.9227940">
        <ele>455.4</ele>
        <time>2020-04-17T17:28:52Z</time>
      </trkpt>
      <trkpt lat="42.8885590" lon="-7.9228720">
        <ele>455.8</ele>
        <time>2020-04-17T17:28:54Z</time>
      </trkpt>
      <trkpt lat="42.8885930" lon="-7.9229450">
        <ele>456.1</ele>
        <time>2020-04-17T17:28:56Z</time>
      </trkpt>
      <trkpt lat="42.8886260" lon="-7.9230150">
        <ele>456.5</ele>
        <time>2020-04-17T17:28:58Z</time>
      </trkpt>
      <trkpt lat="42.8887170" lon="-7.9232060">
        <ele>457.4</ele>
        <time>2020-04-17T17:29:00Z</time>
      </trkpt>
      <trkpt lat="42.8887480" lon="-7.9232710">
        <ele>457.7</ele>
        <time>2020-04-17T17:29:02Z</time>
      </trkpt>
      <trkpt lat="42.8887780" lon="-7.9233350">
        <ele>458.1</ele>
        <time>2020-04-17T17:29:04Z</time>
      </trkpt>
      <trkpt lat="42.8888080" lon="-7.9233990">
        <ele>458.4</ele>
        <time>2020-04-17T17:29:06Z</time>
      </trkpt>
      <trkpt lat="42.8888370" lon="-7.9234610">
        <ele>458.7</ele>
        <time>2020-04-17T17:29:08Z</time>
      </trkpt>
      <trkpt lat="42.8888660" lon="-7.9235230">
        <ele>459.0</ele>
        <time>2020-04-17T17:29:10Z</time>
      </trkpt>
      <trkpt lat="42.8888950" lon="-7.9235840">
        <ele>459.3</ele>
        <time>2020-04-17T17:29:12Z</time>
      </trkpt>
      <trkpt lat="42.8889250" lon="-7.9236460">
        <ele>459.7</ele>
        <time>2020-04-17T17:29:14Z</time>
      </trkpt>
      <trkpt lat="42.8889540" lon="-7.9237070">
        <ele>460.0</ele>
        <time>2020-04-17T17:29:16Z</time>
      </trkpt>
      <trkpt lat="42.8889820" lon="-7.9237690">
        <ele>460.4</ele>
        <time>2020-04-17T17:29:18Z</time>
      </trkpt>
      <trkpt lat="42.8890110" lon="-7.9238300">
        <ele>460.7</ele>
        <time>2020-04-17T17:29:20Z</time>
      </trkpt>
      <trkpt lat="42.8890400" lon="-7.9238910">
        <ele>461.1</ele>
        <time>2020-04-17T17:29:22Z</time>
      </trkpt>
      <trkpt lat="42.8891960" lon="-7.9242280">
        <ele>462.9</ele>
        <time>2020-04-17T17:29:24Z</time>
      </trkpt>
      <trkpt lat="42.8892150" lon="-7.9242950">
        <ele>463.2</ele>
        <time>2020-04-17T17:29:26Z</time>
      </trkpt>
      <trkpt lat="42.8892330" lon="-7.9243610">
        <ele>463.6</ele>
        <time>2020-04-17T17:29:28Z</time>
      </trkpt>
      <trkpt lat="42.8892520" lon="-7.9244260">
        <ele>463.9</ele>
        <time>2020-04-17T17:29:30Z</time>
      </trkpt>
      <trkpt lat="42.8892700" lon="-7.9244920">
        <ele>464.2</ele>
        <time>2020-04-17T17:29:32Z</time>
      </trkpt>
      <trkpt lat="42.8892890" lon="-7.9245570">
        <ele>464.5</ele>
        <time>2020-04-17T17:29:34Z</time>
      </trkpt>
      <trkpt lat="42.8893070" lon="-7.9246220">
        <ele>464.8</ele>
        <time>2020-04-17T17:29:36Z</time>
      </trkpt>
      <trkpt lat="42.8893260" lon="-7.9246870">
        <ele>465.2</ele>
        <time>2020-04-17T17:29:38Z</time>
      </trkpt>
      <trkpt lat="42.8893440" lon="-7.9247520">
        <ele>465.5</ele>
        <time>2020-04-17T17:29:40Z</time>
      </trkpt>
      <trkpt lat="42.8894200" lon="-7.9250200">
        <ele>466.9</ele>
        <time>2020-04-17T17:29:42Z</time>
      </trkpt>
      <trkpt lat="42.8894380" lon="-7.9250850">
        <ele>467.2</ele>
        <time>2020-04-17T17:29:44Z</time>
      </trkpt>
      <trkpt lat="42.8894560" lon="-7.9251490">
        <ele>467.5</ele>
        <time>2020-04-17T17:29:46Z</time>
      </trkpt>
      <trkpt lat="42.8894750" lon="-7.9252140">
        <ele>467.8</ele>
        <time>2020-04-17T17:29:48Z</time>
      </trkpt>
      <trkpt lat="42.8894930" lon="-7.9252780">
        <ele>468.1</ele>
        <time>2020-04-17T17:29:50Z</time>
      </trkpt>
      <trkpt lat="42.8895110" lon="-7.9253420">
        <ele>468.3</ele>
        <time>2020-04-17T17:29:52Z</time>
      </trkpt>
      <trkpt lat="42.8895290" lon="-7.9254070">
        <ele>468.6</ele>
        <time>2020-04-17T17:29:54Z</time>
      </trkpt>
      <trkpt lat="42.8895480" lon="-7.9254720">
        <ele>468.9</ele>
        <time>2020-04-17T17:29:56Z</time>
      </trkpt>
      <trkpt lat="42.8896250" lon="-7.9257390">
        <ele>470.3</ele>
        <time>2020-04-17T17:29:58Z</time>
      </trkpt>
      <trkpt lat="42.8896550" lon="-7.9258070">
        <ele>470.7</ele>
        <time>2020-04-17T17:30:00Z</time>
      </trkpt>
      <trkpt lat="42.8896890" lon="-7.9258810">
        <ele>471.1</ele>
        <time>2020-04-17T17:30:02Z</time>
      </trkpt>
      <trkpt lat="42.8897240" lon="-7.9259590">
        <ele>471.6</ele>
        <time>2020-04-17T17:30:04Z</time>
      </trkpt>
      <trkpt lat="42.8897590" lon="-7.9260380">
        <ele>472.0</ele>
        <time>2020-04-17T17:30:06Z</time>
      </trkpt>
      <trkpt lat="42.8897950" lon="-7.9261180">
        <ele>472.4</ele>
        <time>2020-04-17T17:30:08Z</time>
      </trkpt>
      <trkpt lat="42.8898300" lon="-7.9261970">
        <ele>472.9</ele>
        <time>2020-04-17T17:30:10Z</time>
      </trkpt>
      <trkpt lat="42.8898660" lon="-7.9262780">
        <ele>473.3</ele>
        <time>2020-04-17T17:30:12Z</time>
      </trkpt>
      <trkpt lat="42.8900010" lon="-7.9265790">
        <ele>474.5</ele>
        <time>2020-04-17T17:30:14Z</time>
      </trkpt>
      <trkpt lat="42.8900380" lon="-7.9266620">
        <ele>474.7</ele>
        <time>2020-04-17T17:30:16Z</time>
      </trkpt>
      <trkpt lat="42.8901040" lon="-7.9268090">
        <ele>475.3</ele>
        <time>2020-04-17T17:30:18Z</time>
      </trkpt>
      <trkpt lat="42.8901400" lon="-7.9268920">
        <ele>475.7</ele>
        <time>2020-04-17T17:30:20Z</time>
      </trkpt>
      <trkpt lat="42.8901750" lon="-7.9269750">
        <ele>476.1</ele>
        <time>2020-04-17T17:30:22Z</time>
      </trkpt>
      <trkpt lat="42.8902440" lon="-7.9271350">
        <ele>476.9</ele>
        <time>2020-04-17T17:30:24Z</time>
      </trkpt>
      <trkpt lat="42.8902770" lon="-7.9272130">
        <ele>477.3</ele>
        <time>2020-04-17T17:30:26Z</time>
      </trkpt>
      <trkpt lat="42.8903080" lon="-7.9272870">
        <ele>477.7</ele>
        <time>2020-04-17T17:30:28Z</time>
      </trkpt>
      <trkpt lat="42.8903390" lon="-7.9273580">
        <ele>478.1</ele>
        <time>2020-04-17T17:30:30Z</time>
      </trkpt>
      <trkpt lat="42.8903680" lon="-7.9274270">
        <ele>478.4</ele>
        <time>2020-04-17T17:30:32Z</time>
      </trkpt>
      <trkpt lat="42.8904580" lon="-7.9276380">
        <ele>479.6</ele>
        <time>2020-04-17T17:30:34Z</time>
      </trkpt>
      <trkpt lat="42.8904640" lon="-7.9277150">
        <ele>480.0</ele>
        <time>2020-04-17T17:30:36Z</time>
      </trkpt>
      <trkpt lat="42.8904700" lon="-7.9277900">
        <ele>480.4</ele>
        <time>2020-04-17T17:30:38Z</time>
      </trkpt>
      <trkpt lat="42.8904760" lon="-7.9278640">
        <ele>480.7</ele>
        <time>2020-04-17T17:30:40Z</time>
      </trkpt>
      <trkpt lat="42.8904820" lon="-7.9279390">
        <ele>481.0</ele>
        <time>2020-04-17T17:30:42Z</time>
      </trkpt>
      <trkpt lat="42.8904880" lon="-7.9280130">
        <ele>481.4</ele>
        <time>2020-04-17T17:30:44Z</time>
      </trkpt>
      <trkpt lat="42.8904930" lon="-7.9280870">
        <ele>481.7</ele>
        <time>2020-04-17T17:30:46Z</time>
      </trkpt>
      <trkpt lat="42.8904990" lon="-7.9281610">
        <ele>482.0</ele>
        <time>2020-04-17T17:30:48Z</time>
      </trkpt>
      <trkpt lat="42.8905050" lon="-7.9282350">
        <ele>482.3</ele>
        <time>2020-04-17T17:30:50Z</time>
      </trkpt>
      <trkpt lat="42.8905270" lon="-7.9285460">
        <ele>483.6</ele>
        <time>2020-04-17T17:30:52Z</time>
      </trkpt>
      <trkpt lat="42.8905200" lon="-7.9286330">
        <ele>484.0</ele>
        <time>2020-04-17T17:30:54Z</time>
      </trkpt>
      <trkpt lat="42.8905120" lon="-7.9287320">
        <ele>484.3</ele>
        <time>2020-04-17T17:30:56Z</time>
      </trkpt>
      <trkpt lat="42.8905040" lon="-7.9288360">
        <ele>484.7</ele>
        <time>2020-04-17T17:30:58Z</time>
      </trkpt>
      <trkpt lat="42.8904950" lon="-7.9289440">
        <ele>485.1</ele>
        <time>2020-04-17T17:31:00Z</time>
      </trkpt>
      <trkpt lat="42.8904870" lon="-7.9290550">
        <ele>485.4</ele>
        <time>2020-04-17T17:31:02Z</time>
      </trkpt>
      <trkpt lat="42.8904600" lon="-7.9293950">
        <ele>486.4</ele>
        <time>2020-04-17T17:31:04Z</time>
      </trkpt>
      <trkpt lat="42.8904380" lon="-7.9295070">
        <ele>486.7</ele>
        <time>2020-04-17T17:31:06Z</time>
      </trkpt>
      <trkpt lat="42.8904160" lon="-7.9296180">
        <ele>487.0</ele>
        <time>2020-04-17T17:31:08Z</time>
      </trkpt>
      <trkpt lat="42.8903940" lon="-7.9297280">
        <ele>487.3</ele>
        <time>2020-04-17T17:31:10Z</time>
      </trkpt>
      <trkpt lat="42.8903720" lon="-7.9298390">
        <ele>487.6</ele>
        <time>2020-04-17T17:31:12Z</time>
      </trkpt>
      <trkpt lat="42.8903500" lon="-7.9299500">
        <ele>487.9</ele>
        <time>2020-04-17T17:31:14Z</time>
      </trkpt>
      <trkpt lat="42.8902840" lon="-7.9302850">
        <ele>488.8</ele>
        <time>2020-04-17T17:31:16Z</time>
      </trkpt>
      <trkpt lat="42.8902620" lon="-7.9304000">
        <ele>489.0</ele>
        <time>2020-04-17T17:31:18Z</time>
      </trkpt>
      <trkpt lat="42.8902380" lon="-7.9305200">
        <ele>489.3</ele>
        <time>2020-04-17T17:31:20Z</time>
      </trkpt>
      <trkpt lat="42.8902150" lon="-7.9306410">
        <ele>489.7</ele>
        <time>2020-04-17T17:31:22Z</time>
      </trkpt>
      <trkpt lat="42.8901900" lon="-7.9307650">
        <ele>490.0</ele>
        <time>2020-04-17T17:31:24Z</time>
      </trkpt>
      <trkpt lat="42.8901230" lon="-7.9311120">
        <ele>490.5</ele>
        <time>2020-04-17T17:31:26Z</time>
      </trkpt>
      <trkpt lat="42.8901000" lon="-7.9312380">
        <ele>490.7</ele>
        <time>2020-04-17T17:31:28Z</time>
      </trkpt>
      <trkpt lat="42.8900590" lon="-7.9314660">
        <ele>491.1</ele>
        <time>2020-04-17T17:31:30Z</time>
      </trkpt>
      <trkpt lat="42.8900350" lon="-7.9316000">
        <ele>491.4</ele>
        <time>2020-04-17T17:31:32Z</time>
      </trkpt>
      <trkpt lat="42.8900100" lon="-7.9317400">
        <ele>491.7</ele>
        <time>2020-04-17T17:31:34Z</time>
      </trkpt>
      <trkpt lat="42.8899570" lon="-7.9320400">
        <ele>492.2</ele>
        <time>2020-04-17T17:31:36Z</time>
      </trkpt>
      <trkpt lat="42.8899300" lon="-7.9321920">
        <ele>492.4</ele>
        <time>2020-04-17T17:31:38Z</time>
      </trkpt>
      <trkpt lat="42.8899020" lon="-7.9323460">
        <ele>492.7</ele>
        <time>2020-04-17T17:31:40Z</time>
      </trkpt>
      <trkpt lat="42.8898740" lon="-7.9325050">
        <ele>492.9</ele>
        <time>2020-04-17T17:31:42Z</time>
      </trkpt>
      <trkpt lat="42.8898450" lon="-7.9326680">
        <ele>493.0</ele>
        <time>2020-04-17T17:31:44Z</time>
      </trkpt>
      <trkpt lat="42.8897830" lon="-7.9330870">
        <ele>493.3</ele>
        <time>2020-04-17T17:31:46Z</time>
      </trkpt>
      <trkpt lat="42.8897680" lon="-7.9332540">
        <ele>493.3</ele>
        <time>2020-04-17T17:31:48Z</time>
      </trkpt>
      <trkpt lat="42.8897570" lon="-7.9335470">
        <ele>493.2</ele>
        <time>2020-04-17T17:31:50Z</time>
      </trkpt>
      <trkpt lat="42.8897620" lon="-7.9337130">
        <ele>493.2</ele>
        <time>2020-04-17T17:31:52Z</time>
      </trkpt>
      <trkpt lat="42.8897670" lon="-7.9338780">
        <ele>493.1</ele>
        <time>2020-04-17T17:31:54Z</time>
      </trkpt>
      <trkpt lat="42.8897710" lon="-7.9340440">
        <ele>493.0</ele>
        <time>2020-04-17T17:31:56Z</time>
      </trkpt>
      <trkpt lat="42.8897840" lon="-7.9344630">
        <ele>492.4</ele>
        <time>2020-04-17T17:31:58Z</time>
      </trkpt>
      <trkpt lat="42.8897910" lon="-7.9346640">
        <ele>492.0</ele>
        <time>2020-04-17T17:32:00Z</time>
      </trkpt>
      <trkpt lat="42.8897970" lon="-7.9348480">
        <ele>491.7</ele>
        <time>2020-04-17T17:32:02Z</time>
      </trkpt>
      <trkpt lat="42.8898040" lon="-7.9350440">
        <ele>491.4</ele>
        <time>2020-04-17T17:32:04Z</time>
      </trkpt>
      <trkpt lat="42.8898120" lon="-7.9352510">
        <ele>491.1</ele>
        <time>2020-04-17T17:32:06Z</time>
      </trkpt>
      <trkpt lat="42.8898370" lon="-7.9357500">
        <ele>490.1</ele>
        <time>2020-04-17T17:32:08Z</time>
      </trkpt>
      <trkpt lat="42.8898550" lon="-7.9359740">
        <ele>489.6</ele>
        <time>2020-04-17T17:32:10Z</time>
      </trkpt>
      <trkpt lat="42.8899070" lon="-7.9363650">
        <ele>488.6</ele>
        <time>2020-04-17T17:32:12Z</time>
      </trkpt>
      <trkpt lat="42.8899500" lon="-7.9365980">
        <ele>487.9</ele>
        <time>2020-04-17T17:32:14Z</time>
      </trkpt>
      <trkpt lat="42.8899940" lon="-7.9368380">
        <ele>487.2</ele>
        <time>2020-04-17T17:32:16Z</time>
      </trkpt>
      <trkpt lat="42.8900910" lon="-7.9373610">
        <ele>485.1</ele>
        <time>2020-04-17T17:32:18Z</time>
      </trkpt>
      <trkpt lat="42.8901420" lon="-7.9376090">
        <ele>484.2</ele>
        <time>2020-04-17T17:32:20Z</time>
      </trkpt>
      <trkpt lat="42.8902290" lon="-7.9380370">
        <ele>482.5</ele>
        <time>2020-04-17T17:32:22Z</time>
      </trkpt>
      <trkpt lat="42.8902810" lon="-7.9382950">
        <ele>481.4</ele>
        <time>2020-04-17T17:32:24Z</time>
      </trkpt>
      <trkpt lat="42.8903690" lon="-7.9387350">
        <ele>480.2</ele>
        <time>2020-04-17T17:32:26Z</time>
      </trkpt>
      <trkpt lat="42.8904250" lon="-7.9390830">
        <ele>479.0</ele>
        <time>2020-04-17T17:32:28Z</time>
      </trkpt>
      <trkpt lat="42.8904490" lon="-7.9394690">
        <ele>478.1</ele>
        <time>2020-04-17T17:32:30Z</time>
      </trkpt>
      <trkpt lat="42.8904360" lon="-7.9398770">
        <ele>476.3</ele>
        <time>2020-04-17T17:32:32Z</time>
      </trkpt>
      <trkpt lat="42.8903920" lon="-7.9402890">
        <ele>474.6</ele>
        <time>2020-04-17T17:32:34Z</time>
      </trkpt>
      <trkpt lat="42.8903100" lon="-7.9406270">
        <ele>473.3</ele>
        <time>2020-04-17T17:32:36Z</time>
      </trkpt>
      <trkpt lat="42.8902090" lon="-7.9409560">
        <ele>472.5</ele>
        <time>2020-04-17T17:32:38Z</time>
      </trkpt>
      <trkpt lat="42.8901200" lon="-7.9411670">
        <ele>472.0</ele>
        <time>2020-04-17T17:32:40Z</time>
      </trkpt>
      <trkpt lat="42.8899740" lon="-7.9415030">
        <ele>471.0</ele>
        <time>2020-04-17T17:32:42Z</time>
      </trkpt>
      <trkpt lat="42.8898870" lon="-7.9416870">
        <ele>470.6</ele>
        <time>2020-04-17T17:32:44Z</time>
      </trkpt>
      <trkpt lat="42.8898030" lon="-7.9418640">
        <ele>470.3</ele>
        <time>2020-04-17T17:32:46Z</time>
      </trkpt>
      <trkpt lat="42.8896340" lon="-7.9422210">
        <ele>469.5</ele>
        <time>2020-04-17T17:32:48Z</time>
      </trkpt>
      <trkpt lat="42.8895510" lon="-7.9423950">
        <ele>469.3</ele>
        <time>2020-04-17T17:32:50Z</time>
      </trkpt>
      <trkpt lat="42.8894670" lon="-7.9425720">
        <ele>469.0</ele>
        <time>2020-04-17T17:32:52Z</time>
      </trkpt>
      <trkpt lat="42.8892780" lon="-7.9429700">
        <ele>468.6</ele>
        <time>2020-04-17T17:32:54Z</time>
      </trkpt>
      <trkpt lat="42.8891910" lon="-7.9431500">
        <ele>468.6</ele>
        <time>2020-04-17T17:32:56Z</time>
      </trkpt>
      <trkpt lat="42.8891030" lon="-7.9433320">
        <ele>468.5</ele>
        <time>2020-04-17T17:32:58Z</time>
      </trkpt>
      <trkpt lat="42.8889440" lon="-7.9436700">
        <ele>468.3</ele>
        <time>2020-04-17T17:33:00Z</time>
      </trkpt>
      <trkpt lat="42.8888600" lon="-7.9438580">
        <ele>468.2</ele>
        <time>2020-04-17T17:33:02Z</time>
      </trkpt>
      <trkpt lat="42.8886930" lon="-7.9442340">
        <ele>467.4</ele>
        <time>2020-04-17T17:33:04Z</time>
      </trkpt>
      <trkpt lat="42.8886280" lon="-7.9444370">
        <ele>467.1</ele>
        <time>2020-04-17T17:33:06Z</time>
      </trkpt>
      <trkpt lat="42.8885180" lon="-7.9447830">
        <ele>466.3</ele>
        <time>2020-04-17T17:33:08Z</time>
      </trkpt>
      <trkpt lat="42.8884570" lon="-7.9449870">
        <ele>465.7</ele>
        <time>2020-04-17T17:33:10Z</time>
      </trkpt>
      <trkpt lat="42.8883560" lon="-7.9453240">
        <ele>465.2</ele>
        <time>2020-04-17T17:33:12Z</time>
      </trkpt>
      <trkpt lat="42.8882920" lon="-7.9455360">
        <ele>464.7</ele>
        <time>2020-04-17T17:33:14Z</time>
      </trkpt>
      <trkpt lat="42.8882270" lon="-7.9457540">
        <ele>463.9</ele>
        <time>2020-04-17T17:33:16Z</time>
      </trkpt>
      <trkpt lat="42.8880980" lon="-7.9461810">
        <ele>462.2</ele>
        <time>2020-04-17T17:33:18Z</time>
      </trkpt>
      <trkpt lat="42.8880290" lon="-7.9464110">
        <ele>461.3</ele>
        <time>2020-04-17T17:33:20Z</time>
      </trkpt>
      <trkpt lat="42.8879590" lon="-7.9466450">
        <ele>460.3</ele>
        <time>2020-04-17T17:33:22Z</time>
      </trkpt>
      <trkpt lat="42.8878170" lon="-7.9471200">
        <ele>458.4</ele>
        <time>2020-04-17T17:33:24Z</time>
      </trkpt>
      <trkpt lat="42.8877460" lon="-7.9473570">
        <ele>457.4</ele>
        <time>2020-04-17T17:33:26Z</time>
      </trkpt>
      <trkpt lat="42.8876000" lon="-7.9478310">
        <ele>455.8</ele>
        <time>2020-04-17T17:33:28Z</time>
      </trkpt>
      <trkpt lat="42.8875150" lon="-7.9480600">
        <ele>455.2</ele>
        <time>2020-04-17T17:33:30Z</time>
      </trkpt>
      <trkpt lat="42.8873690" lon="-7.9484340">
        <ele>454.4</ele>
        <time>2020-04-17T17:33:32Z</time>
      </trkpt>
      <trkpt lat="42.8872320" lon="-7.9487460">
        <ele>454.1</ele>
        <time>2020-04-17T17:33:34Z</time>
      </trkpt>
      <trkpt lat="42.8871090" lon="-7.9490110">
        <ele>454.1</ele>
        <time>2020-04-17T17:33:36Z</time>
      </trkpt>
      <trkpt lat="42.8870160" lon="-7.9491980">
        <ele>454.2</ele>
        <time>2020-04-17T17:33:38Z</time>
      </trkpt>
      <trkpt lat="42.8869290" lon="-7.9493730">
        <ele>454.5</ele>
        <time>2020-04-17T17:33:40Z</time>
      </trkpt>
      <trkpt lat="42.8868490" lon="-7.9495350">
        <ele>454.9</ele>
        <time>2020-04-17T17:33:42Z</time>
      </trkpt>
      <trkpt lat="42.8866490" lon="-7.9499360">
        <ele>456.0</ele>
        <time>2020-04-17T17:33:44Z</time>
      </trkpt>
      <trkpt lat="42.8865800" lon="-7.9500760">
        <ele>456.4</ele>
        <time>2020-04-17T17:33:46Z</time>
      </trkpt>
      <trkpt lat="42.8865150" lon="-7.9502050">
        <ele>456.7</ele>
        <time>2020-04-17T17:33:48Z</time>
      </trkpt>
      <trkpt lat="42.8864570" lon="-7.9503240">
        <ele>457.0</ele>
        <time>2020-04-17T17:33:50Z</time>
      </trkpt>
      <trkpt lat="42.8864020" lon="-7.9504340">
        <ele>457.3</ele>
        <time>2020-04-17T17:33:52Z</time>
      </trkpt>
      <trkpt lat="42.8862270" lon="-7.9507850">
        <ele>458.7</ele>
        <time>2020-04-17T17:33:54Z</time>
      </trkpt>
      <trkpt lat="42.8861790" lon="-7.9508820">
        <ele>459.2</ele>
        <time>2020-04-17T17:33:56Z</time>
      </trkpt>
      <trkpt lat="42.8861330" lon="-7.9509750">
        <ele>459.7</ele>
        <time>2020-04-17T17:33:58Z</time>
      </trkpt>
      <trkpt lat="42.8860870" lon="-7.9510670">
        <ele>460.1</ele>
        <time>2020-04-17T17:34:00Z</time>
      </trkpt>
      <trkpt lat="42.8860420" lon="-7.9511580">
        <ele>460.6</ele>
        <time>2020-04-17T17:34:02Z</time>
      </trkpt>
      <trkpt lat="42.8859970" lon="-7.9512490">
        <ele>461.1</ele>
        <time>2020-04-17T17:34:04Z</time>
      </trkpt>
      <trkpt lat="42.8859520" lon="-7.9513400">
        <ele>461.5</ele>
        <time>2020-04-17T17:34:06Z</time>
      </trkpt>
      <trkpt lat="42.8859060" lon="-7.9514300">
        <ele>462.0</ele>
        <time>2020-04-17T17:34:08Z</time>
      </trkpt>
      <trkpt lat="42.8857390" lon="-7.9517710">
        <ele>463.9</ele>
        <time>2020-04-17T17:34:10Z</time>
      </trkpt>
      <trkpt lat="42.8856950" lon="-7.9518650">
        <ele>464.4</ele>
        <time>2020-04-17T17:34:12Z</time>
      </trkpt>
      <trkpt lat="42.8856490" lon="-7.9519620">
        <ele>464.8</ele>
        <time>2020-04-17T17:34:14Z</time>
      </trkpt>
      <trkpt lat="42.8856040" lon="-7.9520600">
        <ele>465.3</ele>
        <time>2020-04-17T17:34:16Z</time>
      </trkpt>
      <trkpt lat="42.8855580" lon="-7.9521580">
        <ele>465.7</ele>
        <time>2020-04-17T17:34:18Z</time>
      </trkpt>
      <trkpt lat="42.8854210" lon="-7.9524530">
        <ele>467.1</ele>
        <time>2020-04-17T17:34:20Z</time>
      </trkpt>
      <trkpt lat="42.8853800" lon="-7.9525610">
        <ele>467.6</ele>
        <time>2020-04-17T17:34:22Z</time>
      </trkpt>
      <trkpt lat="42.8853400" lon="-7.9526660">
        <ele>468.0</ele>
        <time>2020-04-17T17:34:24Z</time>
      </trkpt>
      <trkpt lat="42.8852620" lon="-7.9528750">
        <ele>468.7</ele>
        <time>2020-04-17T17:34:26Z</time>
      </trkpt>
      <trkpt lat="42.8852110" lon="-7.9530320">
        <ele>469.0</ele>
        <time>2020-04-17T17:34:28Z</time>
      </trkpt>
      <trkpt lat="42.8851820" lon="-7.9531440">
        <ele>469.2</ele>
        <time>2020-04-17T17:34:30Z</time>
      </trkpt>
      <trkpt lat="42.8851370" lon="-7.9533300">
        <ele>469.6</ele>
        <time>2020-04-17T17:34:32Z</time>
      </trkpt>
      <trkpt lat="42.8851150" lon="-7.9534440">
        <ele>469.9</ele>
        <time>2020-04-17T17:34:34Z</time>
      </trkpt>
      <trkpt lat="42.8850870" lon="-7.9536190">
        <ele>470.2</ele>
        <time>2020-04-17T17:34:36Z</time>
      </trkpt>
      <trkpt lat="42.8850590" lon="-7.9538210">
        <ele>470.4</ele>
        <time>2020-04-17T17:34:38Z</time>
      </trkpt>
      <trkpt lat="42.8850350" lon="-7.9539940">
        <ele>470.6</ele>
        <time>2020-04-17T17:34:40Z</time>
      </trkpt>
      <trkpt lat="42.8850210" lon="-7.9541240">
        <ele>470.9</ele>
        <time>2020-04-17T17:34:42Z</time>
      </trkpt>
      <trkpt lat="42.8850060" lon="-7.9542560">
        <ele>471.2</ele>
        <time>2020-04-17T17:34:44Z</time>
      </trkpt>
      <trkpt lat="42.8849920" lon="-7.9543900">
        <ele>471.5</ele>
        <time>2020-04-17T17:34:46Z</time>
      </trkpt>
      <trkpt lat="42.8849770" lon="-7.9545260">
        <ele>471.7</ele>
        <time>2020-04-17T17:34:48Z</time>
      </trkpt>
      <trkpt lat="42.8849370" lon="-7.9548890">
        <ele>472.4</ele>
        <time>2020-04-17T17:34:50Z</time>
      </trkpt>
      <trkpt lat="42.8849210" lon="-7.9550310">
        <ele>472.8</ele>
        <time>2020-04-17T17:34:52Z</time>
      </trkpt>
      <trkpt lat="42.8849060" lon="-7.9551750">
        <ele>473.1</ele>
        <time>2020-04-17T17:34:54Z</time>
      </trkpt>
      <trkpt lat="42.8848900" lon="-7.9553230">
        <ele>473.5</ele>
        <time>2020-04-17T17:34:56Z</time>
      </trkpt>
      <trkpt lat="42.8848730" lon="-7.9554740">
        <ele>473.9</ele>
        <time>2020-04-17T17:34:58Z</time>
      </trkpt>
      <trkpt lat="42.8848270" lon="-7.9559000">
        <ele>474.9</ele>
        <time>2020-04-17T17:35:00Z</time>
      </trkpt>
      <trkpt lat="42.8848130" lon="-7.9560780">
        <ele>475.3</ele>
        <time>2020-04-17T17:35:02Z</time>
      </trkpt>
      <trkpt lat="42.8847990" lon="-7.9563260">
        <ele>475.9</ele>
        <time>2020-04-17T17:35:04Z</time>
      </trkpt>
      <trkpt lat="42.8847960" lon="-7.9564840">
        <ele>476.2</ele>
        <time>2020-04-17T17:35:06Z</time>
      </trkpt>
      <trkpt lat="42.8848070" lon="-7.9567210">
        <ele>476.6</ele>
        <time>2020-04-17T17:35:08Z</time>
      </trkpt>
      <trkpt lat="42.8848300" lon="-7.9569910">
        <ele>477.0</ele>
        <time>2020-04-17T17:35:10Z</time>
      </trkpt>
      <trkpt lat="42.8848580" lon="-7.9571460">
        <ele>477.3</ele>
        <time>2020-04-17T17:35:12Z</time>
      </trkpt>
      <trkpt lat="42.8848850" lon="-7.9572990">
        <ele>477.6</ele>
        <time>2020-04-17T17:35:14Z</time>
      </trkpt>
      <trkpt lat="42.8849130" lon="-7.9574540">
        <ele>477.8</ele>
        <time>2020-04-17T17:35:16Z</time>
      </trkpt>
      <trkpt lat="42.8849800" lon="-7.9578310">
        <ele>478.3</ele>
        <time>2020-04-17T17:35:18Z</time>
      </trkpt>
      <trkpt lat="42.8850170" lon="-7.9579820">
        <ele>478.6</ele>
        <time>2020-04-17T17:35:20Z</time>
      </trkpt>
      <trkpt lat="42.8850540" lon="-7.9581330">
        <ele>478.8</ele>
        <time>2020-04-17T17:35:22Z</time>
      </trkpt>
      <trkpt lat="42.8850920" lon="-7.9582860">
        <ele>478.9</ele>
        <time>2020-04-17T17:35:24Z</time>
      </trkpt>
      <trkpt lat="42.8851720" lon="-7.9586050">
        <ele>479.0</ele>
        <time>2020-04-17T17:35:26Z</time>
      </trkpt>
      <trkpt lat="42.8852330" lon="-7.9588420">
        <ele>479.0</ele>
        <time>2020-04-17T17:35:28Z</time>
      </trkpt>
      <trkpt lat="42.8852940" lon="-7.9590720">
        <ele>478.8</ele>
        <time>2020-04-17T17:35:30Z</time>
      </trkpt>
      <trkpt lat="42.8853630" lon="-7.9592640">
        <ele>478.6</ele>
        <time>2020-04-17T17:35:32Z</time>
      </trkpt>
      <trkpt lat="42.8854390" lon="-7.9594600">
        <ele>478.3</ele>
        <time>2020-04-17T17:35:34Z</time>
      </trkpt>
      <trkpt lat="42.8855270" lon="-7.9596540">
        <ele>478.1</ele>
        <time>2020-04-17T17:35:36Z</time>
      </trkpt>
      <trkpt lat="42.8856390" lon="-7.9598740">
        <ele>477.7</ele>
        <time>2020-04-17T17:35:38Z</time>
      </trkpt>
      <trkpt lat="42.8857640" lon="-7.9600850">
        <ele>477.3</ele>
        <time>2020-04-17T17:35:40Z</time>
      </trkpt>
      <trkpt lat="42.8859080" lon="-7.9602990">
        <ele>476.7</ele>
        <time>2020-04-17T17:35:42Z</time>
      </trkpt>
      <trkpt lat="42.8860270" lon="-7.9604390">
        <ele>476.2</ele>
        <time>2020-04-17T17:35:44Z</time>
      </trkpt>
      <trkpt lat="42.8862410" lon="-7.9606700">
        <ele>475.6</ele>
        <time>2020-04-17T17:35:46Z</time>
      </trkpt>
      <trkpt lat="42.8863780" lon="-7.9607870">
        <ele>475.0</ele>
        <time>2020-04-17T17:35:48Z</time>
      </trkpt>
      <trkpt lat="42.8866290" lon="-7.9610130">
        <ele>473.8</ele>
        <time>2020-04-17T17:35:50Z</time>
      </trkpt>
      <trkpt lat="42.8868260" lon="-7.9611930">
        <ele>473.2</ele>
        <time>2020-04-17T17:35:52Z</time>
      </trkpt>
      <trkpt lat="42.8869710" lon="-7.9613230">
        <ele>472.6</ele>
        <time>2020-04-17T17:35:54Z</time>
      </trkpt>
      <trkpt lat="42.8872030" lon="-7.9615300">
        <ele>471.8</ele>
        <time>2020-04-17T17:35:56Z</time>
      </trkpt>
      <trkpt lat="42.8873570" lon="-7.9616670">
        <ele>471.4</ele>
        <time>2020-04-17T17:35:58Z</time>
      </trkpt>
      <trkpt lat="42.8876040" lon="-7.9618880">
        <ele>469.9</ele>
        <time>2020-04-17T17:36:00Z</time>
      </trkpt>
      <trkpt lat="42.8878530" lon="-7.9621110">
        <ele>468.8</ele>
        <time>2020-04-17T17:36:02Z</time>
      </trkpt>
      <trkpt lat="42.8880140" lon="-7.9622550">
        <ele>468.1</ele>
        <time>2020-04-17T17:36:04Z</time>
      </trkpt>
      <trkpt lat="42.8882860" lon="-7.9625020">
        <ele>467.2</ele>
        <time>2020-04-17T17:36:06Z</time>
      </trkpt>
      <trkpt lat="42.8885290" lon="-7.9627240">
        <ele>465.5</ele>
        <time>2020-04-17T17:36:08Z</time>
      </trkpt>
      <trkpt lat="42.8886930" lon="-7.9628740">
        <ele>464.3</ele>
        <time>2020-04-17T17:36:10Z</time>
      </trkpt>
      <trkpt lat="42.8889710" lon="-7.9631310">
        <ele>461.9</ele>
        <time>2020-04-17T17:36:12Z</time>
      </trkpt>
      <trkpt lat="42.8892060" lon="-7.9633650">
        <ele>459.8</ele>
        <time>2020-04-17T17:36:14Z</time>
      </trkpt>
      <trkpt lat="42.8893560" lon="-7.9635630">
        <ele>458.4</ele>
        <time>2020-04-17T17:36:16Z</time>
      </trkpt>
      <trkpt lat="42.8895850" lon="-7.9638860">
        <ele>456.8</ele>
        <time>2020-04-17T17:36:18Z</time>
      </trkpt>
      <trkpt lat="42.8897640" lon="-7.9642370">
        <ele>455.1</ele>
        <time>2020-04-17T17:36:20Z</time>
      </trkpt>
      <trkpt lat="42.8898730" lon="-7.9645330">
        <ele>453.8</ele>
        <time>2020-04-17T17:36:22Z</time>
      </trkpt>
      <trkpt lat="42.8900040" lon="-7.9649060">
        <ele>452.5</ele>
        <time>2020-04-17T17:36:24Z</time>
      </trkpt>
      <trkpt lat="42.8901420" lon="-7.9652780">
        <ele>450.9</ele>
        <time>2020-04-17T17:36:26Z</time>
      </trkpt>
      <trkpt lat="42.8902400" lon="-7.9655380">
        <ele>449.5</ele>
        <time>2020-04-17T17:36:28Z</time>
      </trkpt>
      <trkpt lat="42.8903390" lon="-7.9658000">
        <ele>448.2</ele>
        <time>2020-04-17T17:36:30Z</time>
      </trkpt>
      <trkpt lat="42.8905370" lon="-7.9663230">
        <ele>445.7</ele>
        <time>2020-04-17T17:36:32Z</time>
      </trkpt>
      <trkpt lat="42.8906320" lon="-7.9665740">
        <ele>444.6</ele>
        <time>2020-04-17T17:36:34Z</time>
      </trkpt>
      <trkpt lat="42.8908060" lon="-7.9670350">
        <ele>443.3</ele>
        <time>2020-04-17T17:36:36Z</time>
      </trkpt>
      <trkpt lat="42.8909330" lon="-7.9673430">
        <ele>443.3</ele>
        <time>2020-04-17T17:36:38Z</time>
      </trkpt>
      <trkpt lat="42.8910360" lon="-7.9675440">
        <ele>443.3</ele>
        <time>2020-04-17T17:36:40Z</time>
      </trkpt>
      <trkpt lat="42.8911310" lon="-7.9677300">
        <ele>443.4</ele>
        <time>2020-04-17T17:36:42Z</time>
      </trkpt>
      <trkpt lat="42.8912190" lon="-7.9679020">
        <ele>443.6</ele>
        <time>2020-04-17T17:36:44Z</time>
      </trkpt>
      <trkpt lat="42.8914180" lon="-7.9682920">
        <ele>444.7</ele>
        <time>2020-04-17T17:36:46Z</time>
      </trkpt>
      <trkpt lat="42.8914950" lon="-7.9684420">
        <ele>445.3</ele>
        <time>2020-04-17T17:36:48Z</time>
      </trkpt>
      <trkpt lat="42.8915670" lon="-7.9685840">
        <ele>446.0</ele>
        <time>2020-04-17T17:36:50Z</time>
      </trkpt>
      <trkpt lat="42.8917270" lon="-7.9688960">
        <ele>446.9</ele>
        <time>2020-04-17T17:36:52Z</time>
      </trkpt>
      <trkpt lat="42.8918180" lon="-7.9690740">
        <ele>447.3</ele>
        <time>2020-04-17T17:36:54Z</time>
      </trkpt>
      <trkpt lat="42.8918810" lon="-7.9691960">
        <ele>447.7</ele>
        <time>2020-04-17T17:36:56Z</time>
      </trkpt>
      <trkpt lat="42.8919420" lon="-7.9693150">
        <ele>448.2</ele>
        <time>2020-04-17T17:36:58Z</time>
      </trkpt>
      <trkpt lat="42.8920020" lon="-7.9694310">
        <ele>448.6</ele>
        <time>2020-04-17T17:37:00Z</time>
      </trkpt>
      <trkpt lat="42.8920600" lon="-7.9695440">
        <ele>449.0</ele>
        <time>2020-04-17T17:37:02Z</time>
      </trkpt>
      <trkpt lat="42.8922350" lon="-7.9698830">
        <ele>450.2</ele>
        <time>2020-04-17T17:37:04Z</time>
      </trkpt>
      <trkpt lat="42.8922910" lon="-7.9699920">
        <ele>450.6</ele>
        <time>2020-04-17T17:37:06Z</time>
      </trkpt>
      <trkpt lat="42.8923460" lon="-7.9700990">
        <ele>451.1</ele>
        <time>2020-04-17T17:37:08Z</time>
      </trkpt>
      <trkpt lat="42.8924010" lon="-7.9702050">
        <ele>451.5</ele>
        <time>2020-04-17T17:37:10Z</time>
      </trkpt>
      <trkpt lat="42.8924550" lon="-7.9703100">
        <ele>451.9</ele>
        <time>2020-04-17T17:37:12Z</time>
      </trkpt>
      <trkpt lat="42.8925080" lon="-7.9704140">
        <ele>452.4</ele>
        <time>2020-04-17T17:37:14Z</time>
      </trkpt>
      <trkpt lat="42.8926800" lon="-7.9707460">
        <ele>453.8</ele>
        <time>2020-04-17T17:37:16Z</time>
      </trkpt>
      <trkpt lat="42.8927330" lon="-7.9708490">
        <ele>454.1</ele>
        <time>2020-04-17T17:37:18Z</time>
      </trkpt>
      <trkpt lat="42.8927850" lon="-7.9709500">
        <ele>454.5</ele>
        <time>2020-04-17T17:37:20Z</time>
      </trkpt>
      <trkpt lat="42.8928370" lon="-7.9710520">
        <ele>455.0</ele>
        <time>2020-04-17T17:37:22Z</time>
      </trkpt>
      <trkpt lat="42.8928890" lon="-7.9711530">
        <ele>455.4</ele>
        <time>2020-04-17T17:37:24Z</time>
      </trkpt>
      <trkpt lat="42.8929410" lon="-7.9712530">
        <ele>455.9</ele>
        <time>2020-04-17T17:37:26Z</time>
      </trkpt>
      <trkpt lat="42.8929920" lon="-7.9713530">
        <ele>456.3</ele>
        <time>2020-04-17T17:37:28Z</time>
      </trkpt>
      <trkpt lat="42.8931620" lon="-7.9716820">
        <ele>457.8</ele>
        <time>2020-04-17T17:37:30Z</time>
      </trkpt>
      <trkpt lat="42.8932130" lon="-7.9717830">
        <ele>458.2</ele>
        <time>2020-04-17T17:37:32Z</time>
      </trkpt>
      <trkpt lat="42.8932640" lon="-7.9718820">
        <ele>458.7</ele>
        <time>2020-04-17T17:37:34Z</time>
      </trkpt>
      <trkpt lat="42.8933160" lon="-7.9719810">
        <ele>459.0</ele>
        <time>2020-04-17T17:37:36Z</time>
      </trkpt>
      <trkpt lat="42.8933670" lon="-7.9720810">
        <ele>459.4</ele>
        <time>2020-04-17T17:37:38Z</time>
      </trkpt>
      <trkpt lat="42.8934180" lon="-7.9721800">
        <ele>459.7</ele>
        <time>2020-04-17T17:37:40Z</time>
      </trkpt>
      <trkpt lat="42.8935890" lon="-7.9725090">
        <ele>460.4</ele>
        <time>2020-04-17T17:37:42Z</time>
      </trkpt>
      <trkpt lat="42.8936430" lon="-7.9726130">
        <ele>460.7</ele>
        <time>2020-04-17T17:37:44Z</time>
      </trkpt>
      <trkpt lat="42.8936990" lon="-7.9727190">
        <ele>461.0</ele>
        <time>2020-04-17T17:37:46Z</time>
      </trkpt>
      <trkpt lat="42.8937560" lon="-7.9728280">
        <ele>461.3</ele>
        <time>2020-04-17T17:37:48Z</time>
      </trkpt>
      <trkpt lat="42.8938140" lon="-7.9729390">
        <ele>461.5</ele>
        <time>2020-04-17T17:37:50Z</time>
      </trkpt>
      <trkpt lat="42.8938740" lon="-7.9730520">
        <ele>461.6</ele>
        <time>2020-04-17T17:37:52Z</time>
      </trkpt>
      <trkpt lat="42.8940650" lon="-7.9734170">
        <ele>461.7</ele>
        <time>2020-04-17T17:37:54Z</time>
      </trkpt>
      <trkpt lat="42.8941270" lon="-7.9735330">
        <ele>461.7</ele>
        <time>2020-04-17T17:37:56Z</time>
      </trkpt>
      <trkpt lat="42.8941880" lon="-7.9736500">
        <ele>461.6</ele>
        <time>2020-04-17T17:37:58Z</time>
      </trkpt>
      <trkpt lat="42.8943230" lon="-7.9739050">
        <ele>461.5</ele>
        <time>2020-04-17T17:38:00Z</time>
      </trkpt>
      <trkpt lat="42.8943850" lon="-7.9740290">
        <ele>461.5</ele>
        <time>2020-04-17T17:38:02Z</time>
      </trkpt>
      <trkpt lat="42.8944520" lon="-7.9741610">
        <ele>461.5</ele>
        <time>2020-04-17T17:38:04Z</time>
      </trkpt>
      <trkpt lat="42.8945790" lon="-7.9744120">
        <ele>461.1</ele>
        <time>2020-04-17T17:38:06Z</time>
      </trkpt>
      <trkpt lat="42.8946510" lon="-7.9745530">
        <ele>460.8</ele>
        <time>2020-04-17T17:38:08Z</time>
      </trkpt>
      <trkpt lat="42.8947230" lon="-7.9746960">
        <ele>460.6</ele>
        <time>2020-04-17T17:38:10Z</time>
      </trkpt>
      <trkpt lat="42.8947980" lon="-7.9748430">
        <ele>460.3</ele>
        <time>2020-04-17T17:38:12Z</time>
      </trkpt>
      <trkpt lat="42.8948730" lon="-7.9749910">
        <ele>460.1</ele>
        <time>2020-04-17T17:38:14Z</time>
      </trkpt>
      <trkpt lat="42.8950770" lon="-7.9753930">
        <ele>459.3</ele>
        <time>2020-04-17T17:38:16Z</time>
      </trkpt>
      <trkpt lat="42.8951550" lon="-7.9755470">
        <ele>459.0</ele>
        <time>2020-04-17T17:38:18Z</time>
      </trkpt>
      <trkpt lat="42.8952350" lon="-7.9757060">
        <ele>458.7</ele>
        <time>2020-04-17T17:38:20Z</time>
      </trkpt>
      <trkpt lat="42.8953170" lon="-7.9758680">
        <ele>458.4</ele>
        <time>2020-04-17T17:38:22Z</time>
      </trkpt>
      <trkpt lat="42.8955290" lon="-7.9762860">
        <ele>457.7</ele>
        <time>2020-04-17T17:38:24Z</time>
      </trkpt>
      <trkpt lat="42.8956130" lon="-7.9764530">
        <ele>457.4</ele>
        <time>2020-04-17T17:38:26Z</time>
      </trkpt>
      <trkpt lat="42.8956990" lon="-7.9766230">
        <ele>457.0</ele>
        <time>2020-04-17T17:38:28Z</time>
      </trkpt>
      <trkpt lat="42.8957860" lon="-7.9767950">
        <ele>456.7</ele>
        <time>2020-04-17T17:38:30Z</time>
      </trkpt>
      <trkpt lat="42.8960020" lon="-7.9772200">
        <ele>456.0</ele>
        <time>2020-04-17T17:38:32Z</time>
      </trkpt>
      <trkpt lat="42.8960920" lon="-7.9773970">
        <ele>455.7</ele>
        <time>2020-04-17T17:38:34Z</time>
      </trkpt>
      <trkpt lat="42.8961830" lon="-7.9775770">
        <ele>455.3</ele>
        <time>2020-04-17T17:38:36Z</time>
      </trkpt>
      <trkpt lat="42.8962740" lon="-7.9777570">
        <ele>455.0</ele>
        <time>2020-04-17T17:38:38Z</time>
      </trkpt>
      <trkpt lat="42.8964950" lon="-7.9781910">
        <ele>454.2</ele>
        <time>2020-04-17T17:38:40Z</time>
      </trkpt>
      <trkpt lat="42.8965870" lon="-7.9783740">
        <ele>453.8</ele>
        <time>2020-04-17T17:38:42Z</time>
      </trkpt>
      <trkpt lat="42.8966810" lon="-7.9785590">
        <ele>453.5</ele>
        <time>2020-04-17T17:38:44Z</time>
      </trkpt>
      <trkpt lat="42.8968690" lon="-7.9789190">
        <ele>452.8</ele>
        <time>2020-04-17T17:38:46Z</time>
      </trkpt>
      <trkpt lat="42.8970080" lon="-7.9791760">
        <ele>452.5</ele>
        <time>2020-04-17T17:38:48Z</time>
      </trkpt>
      <trkpt lat="42.8971040" lon="-7.9793540">
        <ele>452.0</ele>
        <time>2020-04-17T17:38:50Z</time>
      </trkpt>
      <trkpt lat="42.8972000" lon="-7.9795310">
        <ele>451.6</ele>
        <time>2020-04-17T17:38:52Z</time>
      </trkpt>
      <trkpt lat="42.8972940" lon="-7.9797050">
        <ele>451.3</ele>
        <time>2020-04-17T17:38:54Z</time>
      </trkpt>
      <trkpt lat="42.8975210" lon="-7.9801240">
        <ele>450.6</ele>
        <time>2020-04-17T17:38:56Z</time>
      </trkpt>
      <trkpt lat="42.8976150" lon="-7.9802970">
        <ele>450.2</ele>
        <time>2020-04-17T17:38:58Z</time>
      </trkpt>
      <trkpt lat="42.8977100" lon="-7.9804720">
        <ele>449.9</ele>
        <time>2020-04-17T17:39:00Z</time>
      </trkpt>
      <trkpt lat="42.8979380" lon="-7.9808920">
        <ele>449.6</ele>
        <time>2020-04-17T17:39:02Z</time>
      </trkpt>
      <trkpt lat="42.8980290" lon="-7.9810600">
        <ele>449.5</ele>
        <time>2020-04-17T17:39:04Z</time>
      </trkpt>
      <trkpt lat="42.8981150" lon="-7.9812180">
        <ele>449.4</ele>
        <time>2020-04-17T17:39:06Z</time>
      </trkpt>
      <trkpt lat="42.8981960" lon="-7.9813680">
        <ele>449.4</ele>
        <time>2020-04-17T17:39:08Z</time>
      </trkpt>
      <trkpt lat="42.8982750" lon="-7.9815130">
        <ele>449.4</ele>
        <time>2020-04-17T17:39:10Z</time>
      </trkpt>
      <trkpt lat="42.8984860" lon="-7.9819020">
        <ele>449.4</ele>
        <time>2020-04-17T17:39:12Z</time>
      </trkpt>
      <trkpt lat="42.8985610" lon="-7.9820420">
        <ele>449.4</ele>
        <time>2020-04-17T17:39:14Z</time>
      </trkpt>
      <trkpt lat="42.8986360" lon="-7.9821810">
        <ele>449.4</ele>
        <time>2020-04-17T17:39:16Z</time>
      </trkpt>
      <trkpt lat="42.8988100" lon="-7.9825040">
        <ele>449.4</ele>
        <time>2020-04-17T17:39:18Z</time>
      </trkpt>
      <trkpt lat="42.8989050" lon="-7.9826820">
        <ele>449.5</ele>
        <time>2020-04-17T17:39:20Z</time>
      </trkpt>
      <trkpt lat="42.8989750" lon="-7.9828160">
        <ele>449.6</ele>
        <time>2020-04-17T17:39:22Z</time>
      </trkpt>
      <trkpt lat="42.8990440" lon="-7.9829480">
        <ele>449.7</ele>
        <time>2020-04-17T17:39:24Z</time>
      </trkpt>
      <trkpt lat="42.8991120" lon="-7.9830790">
        <ele>450.0</ele>
        <time>2020-04-17T17:39:26Z</time>
      </trkpt>
      <trkpt lat="42.8991790" lon="-7.9832070">
        <ele>450.2</ele>
        <time>2020-04-17T17:39:28Z</time>
      </trkpt>
      <trkpt lat="42.8993730" lon="-7.9835810">
        <ele>450.6</ele>
        <time>2020-04-17T17:39:30Z</time>
      </trkpt>
      <trkpt lat="42.8994390" lon="-7.9837080">
        <ele>450.6</ele>
        <time>2020-04-17T17:39:32Z</time>
      </trkpt>
      <trkpt lat="42.8995040" lon="-7.9838360">
        <ele>450.7</ele>
        <time>2020-04-17T17:39:34Z</time>
      </trkpt>
      <trkpt lat="42.8995700" lon="-7.9839630">
        <ele>450.8</ele>
        <time>2020-04-17T17:39:36Z</time>
      </trkpt>
      <trkpt lat="42.8996340" lon="-7.9840890">
        <ele>451.0</ele>
        <time>2020-04-17T17:39:38Z</time>
      </trkpt>
      <trkpt lat="42.8998120" lon="-7.9844340">
        <ele>451.9</ele>
        <time>2020-04-17T17:39:40Z</time>
      </trkpt>
      <trkpt lat="42.8998760" lon="-7.9845590">
        <ele>452.1</ele>
        <time>2020-04-17T17:39:42Z</time>
      </trkpt>
      <trkpt lat="42.8999410" lon="-7.9846850">
        <ele>452.2</ele>
        <time>2020-04-17T17:39:44Z</time>
      </trkpt>
      <trkpt lat="42.9000790" lon="-7.9849510">
        <ele>452.4</ele>
        <time>2020-04-17T17:39:46Z</time>
      </trkpt>
      <trkpt lat="42.9001440" lon="-7.9850770">
        <ele>452.5</ele>
        <time>2020-04-17T17:39:48Z</time>
      </trkpt>
      <trkpt lat="42.9002100" lon="-7.9852050">
        <ele>452.8</ele>
        <time>2020-04-17T17:39:50Z</time>
      </trkpt>
      <trkpt lat="42.9003310" lon="-7.9854390">
        <ele>453.3</ele>
        <time>2020-04-17T17:39:52Z</time>
      </trkpt>
      <trkpt lat="42.9003980" lon="-7.9855690">
        <ele>453.6</ele>
        <time>2020-04-17T17:39:54Z</time>
      </trkpt>
      <trkpt lat="42.9004640" lon="-7.9856980">
        <ele>453.9</ele>
        <time>2020-04-17T17:39:56Z</time>
      </trkpt>
      <trkpt lat="42.9005310" lon="-7.9858280">
        <ele>454.2</ele>
        <time>2020-04-17T17:39:58Z</time>
      </trkpt>
      <trkpt lat="42.9005990" lon="-7.9859580">
        <ele>454.4</ele>
        <time>2020-04-17T17:40:00Z</time>
      </trkpt>
      <trkpt lat="42.9007950" lon="-7.9863390">
        <ele>455.2</ele>
        <time>2020-04-17T17:40:02Z</time>
      </trkpt>
      <trkpt lat="42.9008660" lon="-7.9864760">
        <ele>455.2</ele>
        <time>2020-04-17T17:40:04Z</time>
      </trkpt>
      <trkpt lat="42.9009390" lon="-7.9866180">
        <ele>455.2</ele>
        <time>2020-04-17T17:40:06Z</time>
      </trkpt>
      <trkpt lat="42.9010140" lon="-7.9867630">
        <ele>455.1</ele>
        <time>2020-04-17T17:40:08Z</time>
      </trkpt>
      <trkpt lat="42.9010910" lon="-7.9869130">
        <ele>454.8</ele>
        <time>2020-04-17T17:40:10Z</time>
      </trkpt>
      <trkpt lat="42.9012980" lon="-7.9873150">
        <ele>454.1</ele>
        <time>2020-04-17T17:40:12Z</time>
      </trkpt>
      <trkpt lat="42.9013770" lon="-7.9874690">
        <ele>453.7</ele>
        <time>2020-04-17T17:40:14Z</time>
      </trkpt>
      <trkpt lat="42.9014590" lon="-7.9876270">
        <ele>453.4</ele>
        <time>2020-04-17T17:40:16Z</time>
      </trkpt>
      <trkpt lat="42.9015410" lon="-7.9877860">
        <ele>453.0</ele>
        <time>2020-04-17T17:40:18Z</time>
      </trkpt>
      <trkpt lat="42.9017530" lon="-7.9881970">
        <ele>451.8</ele>
        <time>2020-04-17T17:40:20Z</time>
      </trkpt>
      <trkpt lat="42.9018400" lon="-7.9883660">
        <ele>451.2</ele>
        <time>2020-04-17T17:40:22Z</time>
      </trkpt>
      <trkpt lat="42.9019300" lon="-7.9885400">
        <ele>450.6</ele>
        <time>2020-04-17T17:40:24Z</time>
      </trkpt>
      <trkpt lat="42.9020220" lon="-7.9887190">
        <ele>449.9</ele>
        <time>2020-04-17T17:40:26Z</time>
      </trkpt>
      <trkpt lat="42.9022440" lon="-7.9891500">
        <ele>448.1</ele>
        <time>2020-04-17T17:40:28Z</time>
      </trkpt>
      <trkpt lat="42.9023390" lon="-7.9893340">
        <ele>447.3</ele>
        <time>2020-04-17T17:40:30Z</time>
      </trkpt>
      <trkpt lat="42.9025210" lon="-7.9896770">
        <ele>446.0</ele>
        <time>2020-04-17T17:40:32Z</time>
      </trkpt>
      <trkpt lat="42.9026310" lon="-7.9898580">
        <ele>445.3</ele>
        <time>2020-04-17T17:40:34Z</time>
      </trkpt>
      <trkpt lat="42.9028330" lon="-7.9901870">
        <ele>444.0</ele>
        <time>2020-04-17T17:40:36Z</time>
      </trkpt>
      <trkpt lat="42.9029690" lon="-7.9903420">
        <ele>443.3</ele>
        <time>2020-04-17T17:40:38Z</time>
      </trkpt>
      <trkpt lat="42.9031900" lon="-7.9905690">
        <ele>442.5</ele>
        <time>2020-04-17T17:40:40Z</time>
      </trkpt>
      <trkpt lat="42.9034080" lon="-7.9907520">
        <ele>441.6</ele>
        <time>2020-04-17T17:40:42Z</time>
      </trkpt>
      <trkpt lat="42.9036180" lon="-7.9908940">
        <ele>440.8</ele>
        <time>2020-04-17T17:40:44Z</time>
      </trkpt>
      <trkpt lat="42.9038470" lon="-7.9910020">
        <ele>440.2</ele>
        <time>2020-04-17T17:40:46Z</time>
      </trkpt>
      <trkpt lat="42.9040910" lon="-7.9910730">
        <ele>439.2</ele>
        <time>2020-04-17T17:40:48Z</time>
      </trkpt>
      <trkpt lat="42.9043390" lon="-7.9911270">
        <ele>438.2</ele>
        <time>2020-04-17T17:40:50Z</time>
      </trkpt>
      <trkpt lat="42.9045590" lon="-7.9911710">
        <ele>437.6</ele>
        <time>2020-04-17T17:40:52Z</time>
      </trkpt>
      <trkpt lat="42.9047300" lon="-7.9912100">
        <ele>437.0</ele>
        <time>2020-04-17T17:40:54Z</time>
      </trkpt>
      <trkpt lat="42.9049050" lon="-7.9912490">
        <ele>436.2</ele>
        <time>2020-04-17T17:40:56Z</time>
      </trkpt>
      <trkpt lat="42.9052520" lon="-7.9913260">
        <ele>434.5</ele>
        <time>2020-04-17T17:40:58Z</time>
      </trkpt>
      <trkpt lat="42.9054330" lon="-7.9913670">
        <ele>433.7</ele>
        <time>2020-04-17T17:41:00Z</time>
      </trkpt>
      <trkpt lat="42.9057860" lon="-7.9914500">
        <ele>431.9</ele>
        <time>2020-04-17T17:41:02Z</time>
      </trkpt>
      <trkpt lat="42.9059690" lon="-7.9915100">
        <ele>430.9</ele>
        <time>2020-04-17T17:41:04Z</time>
      </trkpt>
      <trkpt lat="42.9061570" lon="-7.9915710">
        <ele>429.9</ele>
        <time>2020-04-17T17:41:06Z</time>
      </trkpt>
      <trkpt lat="42.9065260" lon="-7.9916890">
        <ele>427.8</ele>
        <time>2020-04-17T17:41:08Z</time>
      </trkpt>
      <trkpt lat="42.9067190" lon="-7.9917470">
        <ele>426.7</ele>
        <time>2020-04-17T17:41:10Z</time>
      </trkpt>
      <trkpt lat="42.9070840" lon="-7.9918590">
        <ele>425.5</ele>
        <time>2020-04-17T17:41:12Z</time>
      </trkpt>
      <trkpt lat="42.9072810" lon="-7.9919350">
        <ele>424.7</ele>
        <time>2020-04-17T17:41:14Z</time>
      </trkpt>
      <trkpt lat="42.9076270" lon="-7.9920700">
        <ele>422.3</ele>
        <time>2020-04-17T17:41:16Z</time>
      </trkpt>
      <trkpt lat="42.9078290" lon="-7.9921480">
        <ele>420.9</ele>
        <time>2020-04-17T17:41:18Z</time>
      </trkpt>
      <trkpt lat="42.9081790" lon="-7.9922840">
        <ele>419.3</ele>
        <time>2020-04-17T17:41:20Z</time>
      </trkpt>
      <trkpt lat="42.9083780" lon="-7.9923550">
        <ele>418.6</ele>
        <time>2020-04-17T17:41:22Z</time>
      </trkpt>
      <trkpt lat="42.9085650" lon="-7.9924220">
        <ele>417.2</ele>
        <time>2020-04-17T17:41:24Z</time>
      </trkpt>
      <trkpt lat="42.9089480" lon="-7.9925600">
        <ele>415.1</ele>
        <time>2020-04-17T17:41:26Z</time>
      </trkpt>
      <trkpt lat="42.9091180" lon="-7.9926200">
        <ele>414.7</ele>
        <time>2020-04-17T17:41:28Z</time>
      </trkpt>
      <trkpt lat="42.9094080" lon="-7.9927180">
        <ele>414.1</ele>
        <time>2020-04-17T17:41:30Z</time>
      </trkpt>
      <trkpt lat="42.9095790" lon="-7.9927920">
        <ele>413.7</ele>
        <time>2020-04-17T17:41:32Z</time>
      </trkpt>
      <trkpt lat="42.9097300" lon="-7.9928680">
        <ele>413.4</ele>
        <time>2020-04-17T17:41:34Z</time>
      </trkpt>
      <trkpt lat="42.9098780" lon="-7.9929430">
        <ele>413.1</ele>
        <time>2020-04-17T17:41:36Z</time>
      </trkpt>
      <trkpt lat="42.9102190" lon="-7.9931200">
        <ele>412.8</ele>
        <time>2020-04-17T17:41:38Z</time>
      </trkpt>
      <trkpt lat="42.9103590" lon="-7.9932100">
        <ele>412.7</ele>
        <time>2020-04-17T17:41:40Z</time>
      </trkpt>
      <trkpt lat="42.9105630" lon="-7.9933590">
        <ele>412.6</ele>
        <time>2020-04-17T17:41:42Z</time>
      </trkpt>
      <trkpt lat="42.9107480" lon="-7.9935340">
        <ele>412.7</ele>
        <time>2020-04-17T17:41:44Z</time>
      </trkpt>
      <trkpt lat="42.9109270" lon="-7.9937500">
        <ele>412.7</ele>
        <time>2020-04-17T17:41:46Z</time>
      </trkpt>
      <trkpt lat="42.9109970" lon="-7.9939400">
        <ele>412.7</ele>
        <time>2020-04-17T17:41:48Z</time>
      </trkpt>
      <trkpt lat="42.9110630" lon="-7.9941150">
        <ele>412.7</ele>
        <time>2020-04-17T17:41:50Z</time>
      </trkpt>
      <trkpt lat="42.9111800" lon="-7.9944560">
        <ele>412.5</ele>
        <time>2020-04-17T17:41:52Z</time>
      </trkpt>
      <trkpt lat="42.9112180" lon="-7.9946360">
        <ele>412.3</ele>
        <time>2020-04-17T17:41:54Z</time>
      </trkpt>
      <trkpt lat="42.9112530" lon="-7.9949080">
        <ele>412.1</ele>
        <time>2020-04-17T17:41:56Z</time>
      </trkpt>
      <trkpt lat="42.9112690" lon="-7.9951950">
        <ele>412.1</ele>
        <time>2020-04-17T17:41:58Z</time>
      </trkpt>
      <trkpt lat="42.9112480" lon="-7.9953630">
        <ele>412.1</ele>
        <time>2020-04-17T17:42:00Z</time>
      </trkpt>
      <trkpt lat="42.9112270" lon="-7.9955280">
        <ele>412.1</ele>
        <time>2020-04-17T17:42:02Z</time>
      </trkpt>
      <trkpt lat="42.9112060" lon="-7.9956940">
        <ele>412.1</ele>
        <time>2020-04-17T17:42:04Z</time>
      </trkpt>
      <trkpt lat="42.9111850" lon="-7.9958590">
        <ele>412.2</ele>
        <time>2020-04-17T17:42:06Z</time>
      </trkpt>
      <trkpt lat="42.9111300" lon="-7.9962930">
        <ele>412.4</ele>
        <time>2020-04-17T17:42:08Z</time>
      </trkpt>
      <trkpt lat="42.9111090" lon="-7.9964520">
        <ele>412.6</ele>
        <time>2020-04-17T17:42:10Z</time>
      </trkpt>
      <trkpt lat="42.9110890" lon="-7.9966080">
        <ele>412.8</ele>
        <time>2020-04-17T17:42:12Z</time>
      </trkpt>
      <trkpt lat="42.9110690" lon="-7.9967600">
        <ele>413.0</ele>
        <time>2020-04-17T17:42:14Z</time>
      </trkpt>
      <trkpt lat="42.9110250" lon="-7.9971420">
        <ele>413.8</ele>
        <time>2020-04-17T17:42:16Z</time>
      </trkpt>
      <trkpt lat="42.9110150" lon="-7.9972910">
        <ele>414.3</ele>
        <time>2020-04-17T17:42:18Z</time>
      </trkpt>
      <trkpt lat="42.9110130" lon="-7.9975450">
        <ele>415.1</ele>
        <time>2020-04-17T17:42:20Z</time>
      </trkpt>
      <trkpt lat="42.9110220" lon="-7.9976900">
        <ele>415.6</ele>
        <time>2020-04-17T17:42:22Z</time>
      </trkpt>
      <trkpt lat="42.9110310" lon="-7.9978320">
        <ele>416.1</ele>
        <time>2020-04-17T17:42:24Z</time>
      </trkpt>
      <trkpt lat="42.9110580" lon="-7.9981390">
        <ele>416.8</ele>
        <time>2020-04-17T17:42:26Z</time>
      </trkpt>
      <trkpt lat="42.9110830" lon="-7.9982840">
        <ele>417.0</ele>
        <time>2020-04-17T17:42:28Z</time>
      </trkpt>
      <trkpt lat="42.9111080" lon="-7.9984370">
        <ele>417.2</ele>
        <time>2020-04-17T17:42:30Z</time>
      </trkpt>
      <trkpt lat="42.9111350" lon="-7.9985950">
        <ele>417.5</ele>
        <time>2020-04-17T17:42:32Z</time>
      </trkpt>
      <trkpt lat="42.9111950" lon="-7.9989500">
        <ele>417.9</ele>
        <time>2020-04-17T17:42:34Z</time>
      </trkpt>
      <trkpt lat="42.9112230" lon="-7.9991180">
        <ele>418.0</ele>
        <time>2020-04-17T17:42:36Z</time>
      </trkpt>
      <trkpt lat="42.9112740" lon="-7.9994140">
        <ele>418.3</ele>
        <time>2020-04-17T17:42:38Z</time>
      </trkpt>
      <trkpt lat="42.9113040" lon="-7.9995890">
        <ele>418.5</ele>
        <time>2020-04-17T17:42:40Z</time>
      </trkpt>
      <trkpt lat="42.9113530" lon="-7.9998800">
        <ele>418.7</ele>
        <time>2020-04-17T17:42:42Z</time>
      </trkpt>
      <trkpt lat="42.9113810" lon="-8.0000490">
        <ele>418.8</ele>
        <time>2020-04-17T17:42:44Z</time>
      </trkpt>
      <trkpt lat="42.9114080" lon="-8.0002150">
        <ele>419.1</ele>
        <time>2020-04-17T17:42:46Z</time>
      </trkpt>
      <trkpt lat="42.9114690" lon="-8.0005780">
        <ele>419.8</ele>
        <time>2020-04-17T17:42:48Z</time>
      </trkpt>
      <trkpt lat="42.9114960" lon="-8.0007380">
        <ele>420.0</ele>
        <time>2020-04-17T17:42:50Z</time>
      </trkpt>
      <trkpt lat="42.9115220" lon="-8.0008960">
        <ele>420.3</ele>
        <time>2020-04-17T17:42:52Z</time>
      </trkpt>
      <trkpt lat="42.9115820" lon="-8.0012540">
        <ele>420.9</ele>
        <time>2020-04-17T17:42:54Z</time>
      </trkpt>
      <trkpt lat="42.9116070" lon="-8.0014080">
        <ele>421.1</ele>
        <time>2020-04-17T17:42:56Z</time>
      </trkpt>
      <trkpt lat="42.9116510" lon="-8.0016750">
        <ele>421.8</ele>
        <time>2020-04-17T17:42:58Z</time>
      </trkpt>
      <trkpt lat="42.9116760" lon="-8.0018240">
        <ele>422.2</ele>
        <time>2020-04-17T17:43:00Z</time>
      </trkpt>
      <trkpt lat="42.9117140" lon="-8.0020520">
        <ele>422.5</ele>
        <time>2020-04-17T17:43:02Z</time>
      </trkpt>
      <trkpt lat="42.9117370" lon="-8.0021960">
        <ele>422.7</ele>
        <time>2020-04-17T17:43:04Z</time>
      </trkpt>
      <trkpt lat="42.9117610" lon="-8.0023390">
        <ele>423.1</ele>
        <time>2020-04-17T17:43:06Z</time>
      </trkpt>
      <trkpt lat="42.9117840" lon="-8.0024820">
        <ele>423.5</ele>
        <time>2020-04-17T17:43:08Z</time>
      </trkpt>
      <trkpt lat="42.9118470" lon="-8.0028610">
        <ele>424.5</ele>
        <time>2020-04-17T17:43:10Z</time>
      </trkpt>
      <trkpt lat="42.9118690" lon="-8.0029980">
        <ele>424.8</ele>
        <time>2020-04-17T17:43:12Z</time>
      </trkpt>
      <trkpt lat="42.9118900" lon="-8.0031280">
        <ele>425.1</ele>
        <time>2020-04-17T17:43:14Z</time>
      </trkpt>
      <trkpt lat="42.9119110" lon="-8.0032530">
        <ele>425.4</ele>
        <time>2020-04-17T17:43:16Z</time>
      </trkpt>
      <trkpt lat="42.9119310" lon="-8.0033730">
        <ele>425.7</ele>
        <time>2020-04-17T17:43:18Z</time>
      </trkpt>
      <trkpt lat="42.9119500" lon="-8.0034880">
        <ele>426.0</ele>
        <time>2020-04-17T17:43:20Z</time>
      </trkpt>
      <trkpt lat="42.9119680" lon="-8.0036010">
        <ele>426.3</ele>
        <time>2020-04-17T17:43:22Z</time>
      </trkpt>
      <trkpt lat="42.9119860" lon="-8.0037110">
        <ele>426.5</ele>
        <time>2020-04-17T17:43:24Z</time>
      </trkpt>
      <trkpt lat="42.9120590" lon="-8.0041360">
        <ele>427.2</ele>
        <time>2020-04-17T17:43:26Z</time>
      </trkpt>
      <trkpt lat="42.9120800" lon="-8.0042400">
        <ele>427.4</ele>
        <time>2020-04-17T17:43:28Z</time>
      </trkpt>
      <trkpt lat="42.9121220" lon="-8.0044530">
        <ele>427.9</ele>
        <time>2020-04-17T17:43:30Z</time>
      </trkpt>
      <trkpt lat="42.9121400" lon="-8.0045560">
        <ele>428.2</ele>
        <time>2020-04-17T17:43:32Z</time>
      </trkpt>
      <trkpt lat="42.9121570" lon="-8.0046590">
        <ele>428.5</ele>
        <time>2020-04-17T17:43:34Z</time>
      </trkpt>
      <trkpt lat="42.9121750" lon="-8.0047600">
        <ele>428.9</ele>
        <time>2020-04-17T17:43:36Z</time>
      </trkpt>
      <trkpt lat="42.9121920" lon="-8.0048610">
        <ele>429.3</ele>
        <time>2020-04-17T17:43:38Z</time>
      </trkpt>
      <trkpt lat="42.9122100" lon="-8.0049610">
        <ele>429.7</ele>
        <time>2020-04-17T17:43:40Z</time>
      </trkpt>
      <trkpt lat="42.9122630" lon="-8.0052670">
        <ele>430.9</ele>
        <time>2020-04-17T17:43:42Z</time>
      </trkpt>
      <trkpt lat="42.9122820" lon="-8.0053760">
        <ele>431.2</ele>
        <time>2020-04-17T17:43:44Z</time>
      </trkpt>
      <trkpt lat="42.9123020" lon="-8.0054920">
        <ele>431.6</ele>
        <time>2020-04-17T17:43:46Z</time>
      </trkpt>
      <trkpt lat="42.9123470" lon="-8.0057530">
        <ele>432.7</ele>
        <time>2020-04-17T17:43:48Z</time>
      </trkpt>
      <trkpt lat="42.9123680" lon="-8.0058740">
        <ele>432.9</ele>
        <time>2020-04-17T17:43:50Z</time>
      </trkpt>
      <trkpt lat="42.9123890" lon="-8.0059970">
        <ele>433.3</ele>
        <time>2020-04-17T17:43:52Z</time>
      </trkpt>
      <trkpt lat="42.9124110" lon="-8.0061200">
        <ele>433.7</ele>
        <time>2020-04-17T17:43:54Z</time>
      </trkpt>
      <trkpt lat="42.9124600" lon="-8.0064210">
        <ele>434.5</ele>
        <time>2020-04-17T17:43:56Z</time>
      </trkpt>
      <trkpt lat="42.9124810" lon="-8.0065470">
        <ele>434.8</ele>
        <time>2020-04-17T17:43:58Z</time>
      </trkpt>
      <trkpt lat="42.9125190" lon="-8.0067700">
        <ele>435.3</ele>
        <time>2020-04-17T17:44:00Z</time>
      </trkpt>
      <trkpt lat="42.9125410" lon="-8.0068930">
        <ele>435.4</ele>
        <time>2020-04-17T17:44:02Z</time>
      </trkpt>
      <trkpt lat="42.9125630" lon="-8.0070130">
        <ele>435.6</ele>
        <time>2020-04-17T17:44:04Z</time>
      </trkpt>
      <trkpt lat="42.9125830" lon="-8.0071290">
        <ele>435.9</ele>
        <time>2020-04-17T17:44:06Z</time>
      </trkpt>
      <trkpt lat="42.9126040" lon="-8.0072420">
        <ele>436.2</ele>
        <time>2020-04-17T17:44:08Z</time>
      </trkpt>
      <trkpt lat="42.9126230" lon="-8.0073520">
        <ele>436.5</ele>
        <time>2020-04-17T17:44:10Z</time>
      </trkpt>
      <trkpt lat="42.9126830" lon="-8.0076870">
        <ele>437.2</ele>
        <time>2020-04-17T17:44:12Z</time>
      </trkpt>
      <trkpt lat="42.9127010" lon="-8.0077930">
        <ele>437.6</ele>
        <time>2020-04-17T17:44:14Z</time>
      </trkpt>
      <trkpt lat="42.9127190" lon="-8.0078990">
        <ele>438.1</ele>
        <time>2020-04-17T17:44:16Z</time>
      </trkpt>
      <trkpt lat="42.9127370" lon="-8.0080020">
        <ele>438.6</ele>
        <time>2020-04-17T17:44:18Z</time>
      </trkpt>
      <trkpt lat="42.9127790" lon="-8.0082630">
        <ele>439.4</ele>
        <time>2020-04-17T17:44:20Z</time>
      </trkpt>
      <trkpt lat="42.9128020" lon="-8.0084090">
        <ele>439.5</ele>
        <time>2020-04-17T17:44:22Z</time>
      </trkpt>
      <trkpt lat="42.9128200" lon="-8.0085110">
        <ele>439.7</ele>
        <time>2020-04-17T17:44:24Z</time>
      </trkpt>
      <trkpt lat="42.9128380" lon="-8.0086130">
        <ele>440.1</ele>
        <time>2020-04-17T17:44:26Z</time>
      </trkpt>
      <trkpt lat="42.9128750" lon="-8.0088270">
        <ele>440.9</ele>
        <time>2020-04-17T17:44:28Z</time>
      </trkpt>
      <trkpt lat="42.9128940" lon="-8.0089370">
        <ele>441.3</ele>
        <time>2020-04-17T17:44:30Z</time>
      </trkpt>
      <trkpt lat="42.9129150" lon="-8.0090540">
        <ele>441.7</ele>
        <time>2020-04-17T17:44:32Z</time>
      </trkpt>
      <trkpt lat="42.9129360" lon="-8.0091740">
        <ele>442.2</ele>
        <time>2020-04-17T17:44:34Z</time>
      </trkpt>
      <trkpt lat="42.9129570" lon="-8.0092980">
        <ele>442.6</ele>
        <time>2020-04-17T17:44:36Z</time>
      </trkpt>
      <trkpt lat="42.9129790" lon="-8.0094240">
        <ele>443.1</ele>
        <time>2020-04-17T17:44:38Z</time>
      </trkpt>
      <trkpt lat="42.9130010" lon="-8.0095510">
        <ele>443.7</ele>
        <time>2020-04-17T17:44:40Z</time>
      </trkpt>
      <trkpt lat="42.9130790" lon="-8.0099960">
        <ele>445.4</ele>
        <time>2020-04-17T17:44:42Z</time>
      </trkpt>
      <trkpt lat="42.9131020" lon="-8.0101260">
        <ele>445.9</ele>
        <time>2020-04-17T17:44:44Z</time>
      </trkpt>
      <trkpt lat="42.9131440" lon="-8.0103660">
        <ele>446.5</ele>
        <time>2020-04-17T17:44:46Z</time>
      </trkpt>
      <trkpt lat="42.9131660" lon="-8.0104950">
        <ele>446.7</ele>
        <time>2020-04-17T17:44:48Z</time>
      </trkpt>
      <trkpt lat="42.9131880" lon="-8.0106190">
        <ele>447.0</ele>
        <time>2020-04-17T17:44:50Z</time>
      </trkpt>
      <trkpt lat="42.9132080" lon="-8.0107380">
        <ele>447.3</ele>
        <time>2020-04-17T17:44:52Z</time>
      </trkpt>
      <trkpt lat="42.9132540" lon="-8.0110280">
        <ele>448.0</ele>
        <time>2020-04-17T17:44:54Z</time>
      </trkpt>
      <trkpt lat="42.9132820" lon="-8.0111730">
        <ele>448.3</ele>
        <time>2020-04-17T17:44:56Z</time>
      </trkpt>
      <trkpt lat="42.9133040" lon="-8.0112820">
        <ele>448.6</ele>
        <time>2020-04-17T17:44:58Z</time>
      </trkpt>
      <trkpt lat="42.9133260" lon="-8.0113900">
        <ele>448.8</ele>
        <time>2020-04-17T17:45:00Z</time>
      </trkpt>
      <trkpt lat="42.9133690" lon="-8.0116150">
        <ele>449.3</ele>
        <time>2020-04-17T17:45:02Z</time>
      </trkpt>
      <trkpt lat="42.9133870" lon="-8.0117210">
        <ele>449.6</ele>
        <time>2020-04-17T17:45:04Z</time>
      </trkpt>
      <trkpt lat="42.9134190" lon="-8.0119060">
        <ele>450.2</ele>
        <time>2020-04-17T17:45:06Z</time>
      </trkpt>
      <trkpt lat="42.9134380" lon="-8.0120180">
        <ele>450.5</ele>
        <time>2020-04-17T17:45:08Z</time>
      </trkpt>
      <trkpt lat="42.9134580" lon="-8.0121370">
        <ele>450.8</ele>
        <time>2020-04-17T17:45:10Z</time>
      </trkpt>
      <trkpt lat="42.9134990" lon="-8.0123880">
        <ele>451.6</ele>
        <time>2020-04-17T17:45:12Z</time>
      </trkpt>
      <trkpt lat="42.9135220" lon="-8.0125420">
        <ele>451.9</ele>
        <time>2020-04-17T17:45:14Z</time>
      </trkpt>
      <trkpt lat="42.9135500" lon="-8.0127030">
        <ele>452.2</ele>
        <time>2020-04-17T17:45:16Z</time>
      </trkpt>
      <trkpt lat="42.9135720" lon="-8.0128310">
        <ele>452.5</ele>
        <time>2020-04-17T17:45:18Z</time>
      </trkpt>
      <trkpt lat="42.9135940" lon="-8.0129620">
        <ele>452.8</ele>
        <time>2020-04-17T17:45:20Z</time>
      </trkpt>
      <trkpt lat="42.9136430" lon="-8.0132310">
        <ele>453.5</ele>
        <time>2020-04-17T17:45:22Z</time>
      </trkpt>
      <trkpt lat="42.9136810" lon="-8.0134380">
        <ele>454.2</ele>
        <time>2020-04-17T17:45:24Z</time>
      </trkpt>
      <trkpt lat="42.9137070" lon="-8.0135990">
        <ele>454.5</ele>
        <time>2020-04-17T17:45:26Z</time>
      </trkpt>
      <trkpt lat="42.9137290" lon="-8.0137390">
        <ele>454.7</ele>
        <time>2020-04-17T17:45:28Z</time>
      </trkpt>
      <trkpt lat="42.9137750" lon="-8.0139920">
        <ele>455.0</ele>
        <time>2020-04-17T17:45:30Z</time>
      </trkpt>
      <trkpt lat="42.9138040" lon="-8.0141350">
        <ele>455.0</ele>
        <time>2020-04-17T17:45:32Z</time>
      </trkpt>
      <trkpt lat="42.9138620" lon="-8.0144100">
        <ele>455.1</ele>
        <time>2020-04-17T17:45:34Z</time>
      </trkpt>
      <trkpt lat="42.9139100" lon="-8.0146130">
        <ele>455.2</ele>
        <time>2020-04-17T17:45:36Z</time>
      </trkpt>
      <trkpt lat="42.9139480" lon="-8.0147850">
        <ele>455.3</ele>
        <time>2020-04-17T17:45:38Z</time>
      </trkpt>
      <trkpt lat="42.9139120" lon="-8.0149870">
        <ele>455.8</ele>
        <time>2020-04-17T17:45:40Z</time>
      </trkpt>
      <trkpt lat="42.9138620" lon="-8.0151700">
        <ele>456.2</ele>
        <time>2020-04-17T17:45:42Z</time>
      </trkpt>
      <trkpt lat="42.9138070" lon="-8.0153580">
        <ele>456.3</ele>
        <time>2020-04-17T17:45:44Z</time>
      </trkpt>
      <trkpt lat="42.9137670" lon="-8.0155100">
        <ele>456.3</ele>
        <time>2020-04-17T17:45:46Z</time>
      </trkpt>
      <trkpt lat="42.9136830" lon="-8.0157890">
        <ele>456.1</ele>
        <time>2020-04-17T17:45:48Z</time>
      </trkpt>
      <trkpt lat="42.9136200" lon="-8.0159950">
        <ele>455.9</ele>
        <time>2020-04-17T17:45:50Z</time>
      </trkpt>
      <trkpt lat="42.9135720" lon="-8.0161510">
        <ele>455.5</ele>
        <time>2020-04-17T17:45:52Z</time>
      </trkpt>
      <trkpt lat="42.9134990" lon="-8.0163890">
        <ele>454.8</ele>
        <time>2020-04-17T17:45:54Z</time>
      </trkpt>
      <trkpt lat="42.9134480" lon="-8.0165560">
        <ele>454.3</ele>
        <time>2020-04-17T17:45:56Z</time>
      </trkpt>
      <trkpt lat="42.9133500" lon="-8.0168760">
        <ele>453.7</ele>
        <time>2020-04-17T17:45:58Z</time>
      </trkpt>
      <trkpt lat="42.9132810" lon="-8.0171060">
        <ele>453.4</ele>
        <time>2020-04-17T17:46:00Z</time>
      </trkpt>
      <trkpt lat="42.9132300" lon="-8.0172910">
        <ele>452.9</ele>
        <time>2020-04-17T17:46:02Z</time>
      </trkpt>
      <trkpt lat="42.9131760" lon="-8.0174830">
        <ele>452.2</ele>
        <time>2020-04-17T17:46:04Z</time>
      </trkpt>
      <trkpt lat="42.9130690" lon="-8.0178640">
        <ele>450.8</ele>
        <time>2020-04-17T17:46:06Z</time>
      </trkpt>
      <trkpt lat="42.9130110" lon="-8.0180670">
        <ele>450.1</ele>
        <time>2020-04-17T17:46:08Z</time>
      </trkpt>
      <trkpt lat="42.9129060" lon="-8.0184360">
        <ele>449.2</ele>
        <time>2020-04-17T17:46:10Z</time>
      </trkpt>
      <trkpt lat="42.9128030" lon="-8.0187570">
        <ele>448.1</ele>
        <time>2020-04-17T17:46:12Z</time>
      </trkpt>
      <trkpt lat="42.9126790" lon="-8.0190080">
        <ele>447.1</ele>
        <time>2020-04-17T17:46:14Z</time>
      </trkpt>
      <trkpt lat="42.9125710" lon="-8.0191900">
        <ele>446.3</ele>
        <time>2020-04-17T17:46:16Z</time>
      </trkpt>
      <trkpt lat="42.9124610" lon="-8.0193750">
        <ele>445.5</ele>
        <time>2020-04-17T17:46:18Z</time>
      </trkpt>
      <trkpt lat="42.9122260" lon="-8.0197830">
        <ele>443.6</ele>
        <time>2020-04-17T17:46:20Z</time>
      </trkpt>
      <trkpt lat="42.9121090" lon="-8.0201100">
        <ele>442.1</ele>
        <time>2020-04-17T17:46:22Z</time>
      </trkpt>
      <trkpt lat="42.9120700" lon="-8.0204680">
        <ele>440.6</ele>
        <time>2020-04-17T17:46:24Z</time>
      </trkpt>
      <trkpt lat="42.9121230" lon="-8.0208210">
        <ele>439.1</ele>
        <time>2020-04-17T17:46:26Z</time>
      </trkpt>
      <trkpt lat="42.9122220" lon="-8.0211820">
        <ele>437.4</ele>
        <time>2020-04-17T17:46:28Z</time>
      </trkpt>
      <trkpt lat="42.9123400" lon="-8.0215870">
        <ele>436.2</ele>
        <time>2020-04-17T17:46:30Z</time>
      </trkpt>
      <trkpt lat="42.9124000" lon="-8.0218680">
        <ele>434.6</ele>
        <time>2020-04-17T17:46:32Z</time>
      </trkpt>
      <trkpt lat="42.9124820" lon="-8.0223200">
        <ele>432.9</ele>
        <time>2020-04-17T17:46:34Z</time>
      </trkpt>
      <trkpt lat="42.9125270" lon="-8.0226680">
        <ele>432.4</ele>
        <time>2020-04-17T17:46:36Z</time>
      </trkpt>
      <trkpt lat="42.9125660" lon="-8.0229540">
        <ele>431.2</ele>
        <time>2020-04-17T17:46:38Z</time>
      </trkpt>
      <trkpt lat="42.9126420" lon="-8.0235210">
        <ele>428.9</ele>
        <time>2020-04-17T17:46:40Z</time>
      </trkpt>
      <trkpt lat="42.9126960" lon="-8.0239200">
        <ele>427.9</ele>
        <time>2020-04-17T17:46:42Z</time>
      </trkpt>
      <trkpt lat="42.9127350" lon="-8.0242010">
        <ele>427.1</ele>
        <time>2020-04-17T17:46:44Z</time>
      </trkpt>
      <trkpt lat="42.9127960" lon="-8.0246420">
        <ele>425.7</ele>
        <time>2020-04-17T17:46:46Z</time>
      </trkpt>
      <trkpt lat="42.9128330" lon="-8.0249100">
        <ele>424.9</ele>
        <time>2020-04-17T17:46:48Z</time>
      </trkpt>
      <trkpt lat="42.9128700" lon="-8.0251790">
        <ele>424.2</ele>
        <time>2020-04-17T17:46:50Z</time>
      </trkpt>
      <trkpt lat="42.9129450" lon="-8.0257190">
        <ele>423.1</ele>
        <time>2020-04-17T17:46:52Z</time>
      </trkpt>
      <trkpt lat="42.9129790" lon="-8.0259630">
        <ele>422.7</ele>
        <time>2020-04-17T17:46:54Z</time>
      </trkpt>
      <trkpt lat="42.9130100" lon="-8.0261900">
        <ele>422.3</ele>
        <time>2020-04-17T17:46:56Z</time>
      </trkpt>
      <trkpt lat="42.9130790" lon="-8.0266820">
        <ele>421.9</ele>
        <time>2020-04-17T17:46:58Z</time>
      </trkpt>
      <trkpt lat="42.9131060" lon="-8.0268800">
        <ele>421.9</ele>
        <time>2020-04-17T17:47:00Z</time>
      </trkpt>
      <trkpt lat="42.9131330" lon="-8.0270710">
        <ele>422.0</ele>
        <time>2020-04-17T17:47:02Z</time>
      </trkpt>
      <trkpt lat="42.9131580" lon="-8.0272560">
        <ele>422.2</ele>
        <time>2020-04-17T17:47:04Z</time>
      </trkpt>
      <trkpt lat="42.9132220" lon="-8.0277120">
        <ele>422.7</ele>
        <time>2020-04-17T17:47:06Z</time>
      </trkpt>
      <trkpt lat="42.9132450" lon="-8.0278800">
        <ele>423.0</ele>
        <time>2020-04-17T17:47:08Z</time>
      </trkpt>
      <trkpt lat="42.9132670" lon="-8.0280360">
        <ele>423.2</ele>
        <time>2020-04-17T17:47:10Z</time>
      </trkpt>
      <trkpt lat="42.9132870" lon="-8.0281840">
        <ele>423.4</ele>
        <time>2020-04-17T17:47:12Z</time>
      </trkpt>
      <trkpt lat="42.9133070" lon="-8.0283240">
        <ele>423.7</ele>
        <time>2020-04-17T17:47:14Z</time>
      </trkpt>
      <trkpt lat="42.9133640" lon="-8.0287350">
        <ele>424.4</ele>
        <time>2020-04-17T17:47:16Z</time>
      </trkpt>
      <trkpt lat="42.9133900" lon="-8.0289200">
        <ele>424.6</ele>
        <time>2020-04-17T17:47:18Z</time>
      </trkpt>
      <trkpt lat="42.9134060" lon="-8.0290480">
        <ele>425.0</ele>
        <time>2020-04-17T17:47:20Z</time>
      </trkpt>
      <trkpt lat="42.9134230" lon="-8.0291760">
        <ele>425.4</ele>
        <time>2020-04-17T17:47:22Z</time>
      </trkpt>
      <trkpt lat="42.9134390" lon="-8.0293030">
        <ele>425.9</ele>
        <time>2020-04-17T17:47:24Z</time>
      </trkpt>
      <trkpt lat="42.9134550" lon="-8.0294290">
        <ele>426.3</ele>
        <time>2020-04-17T17:47:26Z</time>
      </trkpt>
      <trkpt lat="42.9135030" lon="-8.0297770">
        <ele>427.2</ele>
        <time>2020-04-17T17:47:28Z</time>
      </trkpt>
      <trkpt lat="42.9135250" lon="-8.0299030">
        <ele>427.6</ele>
        <time>2020-04-17T17:47:30Z</time>
      </trkpt>
      <trkpt lat="42.9135470" lon="-8.0300320">
        <ele>428.0</ele>
        <time>2020-04-17T17:47:32Z</time>
      </trkpt>
      <trkpt lat="42.9135700" lon="-8.0301620">
        <ele>428.5</ele>
        <time>2020-04-17T17:47:34Z</time>
      </trkpt>
      <trkpt lat="42.9136280" lon="-8.0304810">
        <ele>429.5</ele>
        <time>2020-04-17T17:47:36Z</time>
      </trkpt>
      <trkpt lat="42.9136570" lon="-8.0306110">
        <ele>429.8</ele>
        <time>2020-04-17T17:47:38Z</time>
      </trkpt>
      <trkpt lat="42.9136850" lon="-8.0307400">
        <ele>430.1</ele>
        <time>2020-04-17T17:47:40Z</time>
      </trkpt>
      <trkpt lat="42.9137140" lon="-8.0308710">
        <ele>430.4</ele>
        <time>2020-04-17T17:47:42Z</time>
      </trkpt>
      <trkpt lat="42.9137860" lon="-8.0311820">
        <ele>430.8</ele>
        <time>2020-04-17T17:47:44Z</time>
      </trkpt>
      <trkpt lat="42.9138200" lon="-8.0313150">
        <ele>431.0</ele>
        <time>2020-04-17T17:47:46Z</time>
      </trkpt>
      <trkpt lat="42.9138540" lon="-8.0314500">
        <ele>431.1</ele>
        <time>2020-04-17T17:47:48Z</time>
      </trkpt>
      <trkpt lat="42.9139300" lon="-8.0317450">
        <ele>431.3</ele>
        <time>2020-04-17T17:47:50Z</time>
      </trkpt>
      <trkpt lat="42.9139650" lon="-8.0318830">
        <ele>431.4</ele>
        <time>2020-04-17T17:47:52Z</time>
      </trkpt>
      <trkpt lat="42.9140010" lon="-8.0320210">
        <ele>431.4</ele>
        <time>2020-04-17T17:47:54Z</time>
      </trkpt>
      <trkpt lat="42.9140750" lon="-8.0323220">
        <ele>431.5</ele>
        <time>2020-04-17T17:47:56Z</time>
      </trkpt>
      <trkpt lat="42.9141030" lon="-8.0324580">
        <ele>431.6</ele>
        <time>2020-04-17T17:47:58Z</time>
      </trkpt>
      <trkpt lat="42.9141290" lon="-8.0325880">
        <ele>431.8</ele>
        <time>2020-04-17T17:48:00Z</time>
      </trkpt>
      <trkpt lat="42.9141550" lon="-8.0327120">
        <ele>432.0</ele>
        <time>2020-04-17T17:48:02Z</time>
      </trkpt>
      <trkpt lat="42.9142090" lon="-8.0330080">
        <ele>432.5</ele>
        <time>2020-04-17T17:48:04Z</time>
      </trkpt>
      <trkpt lat="42.9142260" lon="-8.0331250">
        <ele>432.8</ele>
        <time>2020-04-17T17:48:06Z</time>
      </trkpt>
      <trkpt lat="42.9142590" lon="-8.0333420">
        <ele>433.3</ele>
        <time>2020-04-17T17:48:08Z</time>
      </trkpt>
      <trkpt lat="42.9142770" lon="-8.0334530">
        <ele>433.6</ele>
        <time>2020-04-17T17:48:10Z</time>
      </trkpt>
      <trkpt lat="42.9142950" lon="-8.0335610">
        <ele>434.0</ele>
        <time>2020-04-17T17:48:12Z</time>
      </trkpt>
      <trkpt lat="42.9143120" lon="-8.0336670">
        <ele>434.3</ele>
        <time>2020-04-17T17:48:14Z</time>
      </trkpt>
      <trkpt lat="42.9143290" lon="-8.0337720">
        <ele>434.7</ele>
        <time>2020-04-17T17:48:16Z</time>
      </trkpt>
      <trkpt lat="42.9143850" lon="-8.0340570">
        <ele>435.7</ele>
        <time>2020-04-17T17:48:18Z</time>
      </trkpt>
      <trkpt lat="42.9144140" lon="-8.0341670">
        <ele>436.1</ele>
        <time>2020-04-17T17:48:20Z</time>
      </trkpt>
      <trkpt lat="42.9144440" lon="-8.0342830">
        <ele>436.5</ele>
        <time>2020-04-17T17:48:22Z</time>
      </trkpt>
      <trkpt lat="42.9144760" lon="-8.0344020">
        <ele>436.9</ele>
        <time>2020-04-17T17:48:24Z</time>
      </trkpt>
      <trkpt lat="42.9145090" lon="-8.0345250">
        <ele>437.3</ele>
        <time>2020-04-17T17:48:26Z</time>
      </trkpt>
      <trkpt lat="42.9145970" lon="-8.0348580">
        <ele>438.3</ele>
        <time>2020-04-17T17:48:28Z</time>
      </trkpt>
      <trkpt lat="42.9146310" lon="-8.0349850">
        <ele>438.5</ele>
        <time>2020-04-17T17:48:30Z</time>
      </trkpt>
      <trkpt lat="42.9146650" lon="-8.0351150">
        <ele>438.8</ele>
        <time>2020-04-17T17:48:32Z</time>
      </trkpt>
      <trkpt lat="42.9147000" lon="-8.0352460">
        <ele>439.0</ele>
        <time>2020-04-17T17:48:34Z</time>
      </trkpt>
      <trkpt lat="42.9147350" lon="-8.0353780">
        <ele>439.2</ele>
        <time>2020-04-17T17:48:36Z</time>
      </trkpt>
      <trkpt lat="42.9147710" lon="-8.0355110">
        <ele>439.3</ele>
        <time>2020-04-17T17:48:38Z</time>
      </trkpt>
      <trkpt lat="42.9148880" lon="-8.0359270">
        <ele>439.9</ele>
        <time>2020-04-17T17:48:40Z</time>
      </trkpt>
      <trkpt lat="42.9149310" lon="-8.0360590">
        <ele>440.1</ele>
        <time>2020-04-17T17:48:42Z</time>
      </trkpt>
      <trkpt lat="42.9149740" lon="-8.0361930">
        <ele>440.2</ele>
        <time>2020-04-17T17:48:44Z</time>
      </trkpt>
      <trkpt lat="42.9150170" lon="-8.0363240">
        <ele>440.3</ele>
        <time>2020-04-17T17:48:46Z</time>
      </trkpt>
      <trkpt lat="42.9151340" lon="-8.0366420">
        <ele>440.6</ele>
        <time>2020-04-17T17:48:48Z</time>
      </trkpt>
      <trkpt lat="42.9151910" lon="-8.0367590">
        <ele>440.6</ele>
        <time>2020-04-17T17:48:50Z</time>
      </trkpt>
      <trkpt lat="42.9152470" lon="-8.0368760">
        <ele>440.6</ele>
        <time>2020-04-17T17:48:52Z</time>
      </trkpt>
      <trkpt lat="42.9153760" lon="-8.0371260">
        <ele>440.8</ele>
        <time>2020-04-17T17:48:54Z</time>
      </trkpt>
      <trkpt lat="42.9154410" lon="-8.0372260">
        <ele>441.0</ele>
        <time>2020-04-17T17:48:56Z</time>
      </trkpt>
      <trkpt lat="42.9155490" lon="-8.0373760">
        <ele>441.2</ele>
        <time>2020-04-17T17:48:58Z</time>
      </trkpt>
      <trkpt lat="42.9156150" lon="-8.0374600">
        <ele>441.4</ele>
        <time>2020-04-17T17:49:00Z</time>
      </trkpt>
      <trkpt lat="42.9157280" lon="-8.0375910">
        <ele>441.5</ele>
        <time>2020-04-17T17:49:02Z</time>
      </trkpt>
      <trkpt lat="42.9157950" lon="-8.0376660">
        <ele>441.6</ele>
        <time>2020-04-17T17:49:04Z</time>
      </trkpt>
      <trkpt lat="42.9159140" lon="-8.0377830">
        <ele>441.8</ele>
        <time>2020-04-17T17:49:06Z</time>
      </trkpt>
      <trkpt lat="42.9160320" lon="-8.0378910">
        <ele>441.9</ele>
        <time>2020-04-17T17:49:08Z</time>
      </trkpt>
      <trkpt lat="42.9161100" lon="-8.0379530">
        <ele>441.8</ele>
        <time>2020-04-17T17:49:10Z</time>
      </trkpt>
      <trkpt lat="42.9161990" lon="-8.0380250">
        <ele>441.6</ele>
        <time>2020-04-17T17:49:12Z</time>
      </trkpt>
      <trkpt lat="42.9162980" lon="-8.0381050">
        <ele>441.2</ele>
        <time>2020-04-17T17:49:14Z</time>
      </trkpt>
      <trkpt lat="42.9165220" lon="-8.0382850">
        <ele>440.2</ele>
        <time>2020-04-17T17:49:16Z</time>
      </trkpt>
      <trkpt lat="42.9166380" lon="-8.0383790">
        <ele>439.6</ele>
        <time>2020-04-17T17:49:18Z</time>
      </trkpt>
      <trkpt lat="42.9167620" lon="-8.0384790">
        <ele>438.9</ele>
        <time>2020-04-17T17:49:20Z</time>
      </trkpt>
      <trkpt lat="42.9168920" lon="-8.0385840">
        <ele>438.1</ele>
        <time>2020-04-17T17:49:22Z</time>
      </trkpt>
      <trkpt lat="42.9171940" lon="-8.0388280">
        <ele>436.2</ele>
        <time>2020-04-17T17:49:24Z</time>
      </trkpt>
      <trkpt lat="42.9173350" lon="-8.0389410">
        <ele>435.5</ele>
        <time>2020-04-17T17:49:26Z</time>
      </trkpt>
      <trkpt lat="42.9174800" lon="-8.0390580">
        <ele>434.7</ele>
        <time>2020-04-17T17:49:28Z</time>
      </trkpt>
      <trkpt lat="42.9177940" lon="-8.0393110">
        <ele>433.1</ele>
        <time>2020-04-17T17:49:30Z</time>
      </trkpt>
      <trkpt lat="42.9179470" lon="-8.0394340">
        <ele>432.1</ele>
        <time>2020-04-17T17:49:32Z</time>
      </trkpt>
      <trkpt lat="42.9181020" lon="-8.0395590">
        <ele>431.2</ele>
        <time>2020-04-17T17:49:34Z</time>
      </trkpt>
      <trkpt lat="42.9184200" lon="-8.0398310">
        <ele>429.6</ele>
        <time>2020-04-17T17:49:36Z</time>
      </trkpt>
      <trkpt lat="42.9186430" lon="-8.0400600">
        <ele>429.1</ele>
        <time>2020-04-17T17:49:38Z</time>
      </trkpt>
      <trkpt lat="42.9188550" lon="-8.0403290">
        <ele>428.2</ele>
        <time>2020-04-17T17:49:40Z</time>
      </trkpt>
      <trkpt lat="42.9189750" lon="-8.0405470">
        <ele>427.3</ele>
        <time>2020-04-17T17:49:42Z</time>
      </trkpt>
      <trkpt lat="42.9191230" lon="-8.0409040">
        <ele>426.2</ele>
        <time>2020-04-17T17:49:44Z</time>
      </trkpt>
      <trkpt lat="42.9192120" lon="-8.0412870">
        <ele>425.6</ele>
        <time>2020-04-17T17:49:46Z</time>
      </trkpt>
      <trkpt lat="42.9192190" lon="-8.0416030">
        <ele>425.7</ele>
        <time>2020-04-17T17:49:48Z</time>
      </trkpt>
      <trkpt lat="42.9191910" lon="-8.0419030">
        <ele>425.9</ele>
        <time>2020-04-17T17:49:50Z</time>
      </trkpt>
      <trkpt lat="42.9191260" lon="-8.0422730">
        <ele>426.3</ele>
        <time>2020-04-17T17:49:52Z</time>
      </trkpt>
      <trkpt lat="42.9190530" lon="-8.0424660">
        <ele>426.7</ele>
        <time>2020-04-17T17:49:54Z</time>
      </trkpt>
      <trkpt lat="42.9189430" lon="-8.0427260">
        <ele>427.3</ele>
        <time>2020-04-17T17:49:56Z</time>
      </trkpt>
      <trkpt lat="42.9188360" lon="-8.0428990">
        <ele>427.7</ele>
        <time>2020-04-17T17:49:58Z</time>
      </trkpt>
      <trkpt lat="42.9187610" lon="-8.0430040">
        <ele>428.3</ele>
        <time>2020-04-17T17:50:00Z</time>
      </trkpt>
      <trkpt lat="42.9186350" lon="-8.0431700">
        <ele>429.8</ele>
        <time>2020-04-17T17:50:02Z</time>
      </trkpt>
      <trkpt lat="42.9185700" lon="-8.0432440">
        <ele>430.6</ele>
        <time>2020-04-17T17:50:04Z</time>
      </trkpt>
      <trkpt lat="42.9185120" lon="-8.0433110">
        <ele>431.4</ele>
        <time>2020-04-17T17:50:06Z</time>
      </trkpt>
      <trkpt lat="42.9183940" lon="-8.0434480">
        <ele>432.8</ele>
        <time>2020-04-17T17:50:08Z</time>
      </trkpt>
      <trkpt lat="42.9183460" lon="-8.0435050">
        <ele>433.3</ele>
        <time>2020-04-17T17:50:10Z</time>
      </trkpt>
      <trkpt lat="42.9183010" lon="-8.0435580">
        <ele>433.9</ele>
        <time>2020-04-17T17:50:12Z</time>
      </trkpt>
      <trkpt lat="42.9182550" lon="-8.0436120">
        <ele>434.4</ele>
        <time>2020-04-17T17:50:14Z</time>
      </trkpt>
      <trkpt lat="42.9182080" lon="-8.0436670">
        <ele>435.0</ele>
        <time>2020-04-17T17:50:16Z</time>
      </trkpt>
      <trkpt lat="42.9180650" lon="-8.0438390">
        <ele>436.5</ele>
        <time>2020-04-17T17:50:18Z</time>
      </trkpt>
      <trkpt lat="42.9180290" lon="-8.0439070">
        <ele>437.0</ele>
        <time>2020-04-17T17:50:20Z</time>
      </trkpt>
      <trkpt lat="42.9179930" lon="-8.0439750">
        <ele>437.5</ele>
        <time>2020-04-17T17:50:22Z</time>
      </trkpt>
      <trkpt lat="42.9179570" lon="-8.0440420">
        <ele>438.0</ele>
        <time>2020-04-17T17:50:24Z</time>
      </trkpt>
      <trkpt lat="42.9178750" lon="-8.0442070">
        <ele>438.8</ele>
        <time>2020-04-17T17:50:26Z</time>
      </trkpt>
      <trkpt lat="42.9178500" lon="-8.0442830">
        <ele>438.9</ele>
        <time>2020-04-17T17:50:28Z</time>
      </trkpt>
      <trkpt lat="42.9178250" lon="-8.0443590">
        <ele>439.1</ele>
        <time>2020-04-17T17:50:30Z</time>
      </trkpt>
      <trkpt lat="42.9178010" lon="-8.0444350">
        <ele>439.5</ele>
        <time>2020-04-17T17:50:32Z</time>
      </trkpt>
      <trkpt lat="42.9177760" lon="-8.0445110">
        <ele>439.9</ele>
        <time>2020-04-17T17:50:34Z</time>
      </trkpt>
      <trkpt lat="42.9177510" lon="-8.0445870">
        <ele>440.3</ele>
        <time>2020-04-17T17:50:36Z</time>
      </trkpt>
      <trkpt lat="42.9176730" lon="-8.0448300">
        <ele>441.5</ele>
        <time>2020-04-17T17:50:38Z</time>
      </trkpt>
      <trkpt lat="42.9176510" lon="-8.0449200">
        <ele>442.0</ele>
        <time>2020-04-17T17:50:40Z</time>
      </trkpt>
      <trkpt lat="42.9176290" lon="-8.0450080">
        <ele>442.4</ele>
        <time>2020-04-17T17:50:42Z</time>
      </trkpt>
      <trkpt lat="42.9176060" lon="-8.0450990">
        <ele>442.8</ele>
        <time>2020-04-17T17:50:44Z</time>
      </trkpt>
      <trkpt lat="42.9175830" lon="-8.0451910">
        <ele>443.2</ele>
        <time>2020-04-17T17:50:46Z</time>
      </trkpt>
      <trkpt lat="42.9175600" lon="-8.0452830">
        <ele>443.6</ele>
        <time>2020-04-17T17:50:48Z</time>
      </trkpt>
      <trkpt lat="42.9175370" lon="-8.0453760">
        <ele>444.0</ele>
        <time>2020-04-17T17:50:50Z</time>
      </trkpt>
      <trkpt lat="42.9175140" lon="-8.0454700">
        <ele>444.4</ele>
        <time>2020-04-17T17:50:52Z</time>
      </trkpt>
      <trkpt lat="42.9174900" lon="-8.0455630">
        <ele>444.8</ele>
        <time>2020-04-17T17:50:54Z</time>
      </trkpt>
      <trkpt lat="42.9174000" lon="-8.0459280">
        <ele>445.7</ele>
        <time>2020-04-17T17:50:56Z</time>
      </trkpt>
      <trkpt lat="42.9173770" lon="-8.0460210">
        <ele>445.9</ele>
        <time>2020-04-17T17:50:58Z</time>
      </trkpt>
      <trkpt lat="42.9173530" lon="-8.0461150">
        <ele>446.2</ele>
        <time>2020-04-17T17:51:00Z</time>
      </trkpt>
      <trkpt lat="42.9173300" lon="-8.0462080">
        <ele>446.6</ele>
        <time>2020-04-17T17:51:02Z</time>
      </trkpt>
      <trkpt lat="42.9173060" lon="-8.0463020">
        <ele>447.0</ele>
        <time>2020-04-17T17:51:04Z</time>
      </trkpt>
      <trkpt lat="42.9172450" lon="-8.0465700">
        <ele>448.1</ele>
        <time>2020-04-17T17:51:06Z</time>
      </trkpt>
      <trkpt lat="42.9172270" lon="-8.0466780">
        <ele>448.5</ele>
        <time>2020-04-17T17:51:08Z</time>
      </trkpt>
      <trkpt lat="42.9171920" lon="-8.0468900">
        <ele>449.3</ele>
        <time>2020-04-17T17:51:10Z</time>
      </trkpt>
      <trkpt lat="42.9171770" lon="-8.0470070">
        <ele>449.8</ele>
        <time>2020-04-17T17:51:12Z</time>
      </trkpt>
      <trkpt lat="42.9171540" lon="-8.0472170">
        <ele>450.6</ele>
        <time>2020-04-17T17:51:14Z</time>
      </trkpt>
      <trkpt lat="42.9171510" lon="-8.0473410">
        <ele>451.0</ele>
        <time>2020-04-17T17:51:16Z</time>
      </trkpt>
      <trkpt lat="42.9171460" lon="-8.0475630">
        <ele>451.8</ele>
        <time>2020-04-17T17:51:18Z</time>
      </trkpt>
      <trkpt lat="42.9171560" lon="-8.0476940">
        <ele>452.2</ele>
        <time>2020-04-17T17:51:20Z</time>
      </trkpt>
      <trkpt lat="42.9171670" lon="-8.0478210">
        <ele>452.6</ele>
        <time>2020-04-17T17:51:22Z</time>
      </trkpt>
      <trkpt lat="42.9171910" lon="-8.0480730">
        <ele>453.3</ele>
        <time>2020-04-17T17:51:24Z</time>
      </trkpt>
      <trkpt lat="42.9172090" lon="-8.0482020">
        <ele>453.6</ele>
        <time>2020-04-17T17:51:26Z</time>
      </trkpt>
      <trkpt lat="42.9172280" lon="-8.0483330">
        <ele>453.9</ele>
        <time>2020-04-17T17:51:28Z</time>
      </trkpt>
      <trkpt lat="42.9172690" lon="-8.0486110">
        <ele>454.4</ele>
        <time>2020-04-17T17:51:30Z</time>
      </trkpt>
      <trkpt lat="42.9172900" lon="-8.0487440">
        <ele>454.6</ele>
        <time>2020-04-17T17:51:32Z</time>
      </trkpt>
      <trkpt lat="42.9173280" lon="-8.0489860">
        <ele>454.9</ele>
        <time>2020-04-17T17:51:34Z</time>
      </trkpt>
      <trkpt lat="42.9173500" lon="-8.0491220">
        <ele>455.0</ele>
        <time>2020-04-17T17:51:36Z</time>
      </trkpt>
      <trkpt lat="42.9173860" lon="-8.0493500">
        <ele>455.5</ele>
        <time>2020-04-17T17:51:39Z</time>
      </trkpt>
      <trkpt lat="42.9174110" lon="-8.0495340">
        <ele>455.7</ele>
        <time>2020-04-17T17:51:41Z</time>
      </trkpt>
      <trkpt lat="42.9174310" lon="-8.0496720">
        <ele>455.7</ele>
        <time>2020-04-17T17:51:43Z</time>
      </trkpt>
      <trkpt lat="42.9174500" lon="-8.0498090">
        <ele>455.8</ele>
        <time>2020-04-17T17:51:45Z</time>
      </trkpt>
      <trkpt lat="42.9174860" lon="-8.0500620">
        <ele>456.0</ele>
        <time>2020-04-17T17:51:47Z</time>
      </trkpt>
      <trkpt lat="42.9175050" lon="-8.0501970">
        <ele>456.3</ele>
        <time>2020-04-17T17:51:49Z</time>
      </trkpt>
      <trkpt lat="42.9175250" lon="-8.0503320">
        <ele>456.6</ele>
        <time>2020-04-17T17:51:51Z</time>
      </trkpt>
      <trkpt lat="42.9175440" lon="-8.0504670">
        <ele>457.0</ele>
        <time>2020-04-17T17:51:53Z</time>
      </trkpt>
      <trkpt lat="42.9175960" lon="-8.0508290">
        <ele>457.8</ele>
        <time>2020-04-17T17:51:55Z</time>
      </trkpt>
      <trkpt lat="42.9176170" lon="-8.0509940">
        <ele>458.3</ele>
        <time>2020-04-17T17:51:57Z</time>
      </trkpt>
      <trkpt lat="42.9176310" lon="-8.0511200">
        <ele>458.7</ele>
        <time>2020-04-17T17:51:59Z</time>
      </trkpt>
      <trkpt lat="42.9176440" lon="-8.0512400">
        <ele>459.2</ele>
        <time>2020-04-17T17:52:01Z</time>
      </trkpt>
      <trkpt lat="42.9176570" lon="-8.0513550">
        <ele>459.6</ele>
        <time>2020-04-17T17:52:03Z</time>
      </trkpt>
      <trkpt lat="42.9176890" lon="-8.0516630">
        <ele>460.3</ele>
        <time>2020-04-17T17:52:05Z</time>
      </trkpt>
      <trkpt lat="42.9177010" lon="-8.0517900">
        <ele>460.5</ele>
        <time>2020-04-17T17:52:07Z</time>
      </trkpt>
      <trkpt lat="42.9177100" lon="-8.0518960">
        <ele>460.7</ele>
        <time>2020-04-17T17:52:09Z</time>
      </trkpt>
      <trkpt lat="42.9177180" lon="-8.0519980">
        <ele>460.9</ele>
        <time>2020-04-17T17:52:11Z</time>
      </trkpt>
      <trkpt lat="42.9177270" lon="-8.0521000">
        <ele>461.2</ele>
        <time>2020-04-17T17:52:13Z</time>
      </trkpt>
      <trkpt lat="42.9177510" lon="-8.0523760">
        <ele>461.9</ele>
        <time>2020-04-17T17:52:15Z</time>
      </trkpt>
      <trkpt lat="42.9177570" lon="-8.0524750">
        <ele>462.2</ele>
        <time>2020-04-17T17:52:17Z</time>
      </trkpt>
      <trkpt lat="42.9177630" lon="-8.0525740">
        <ele>462.5</ele>
        <time>2020-04-17T17:52:19Z</time>
      </trkpt>
      <trkpt lat="42.9177750" lon="-8.0527770">
        <ele>463.0</ele>
        <time>2020-04-17T17:52:21Z</time>
      </trkpt>
      <trkpt lat="42.9177820" lon="-8.0528850">
        <ele>463.2</ele>
        <time>2020-04-17T17:52:23Z</time>
      </trkpt>
      <trkpt lat="42.9177890" lon="-8.0530110">
        <ele>463.5</ele>
        <time>2020-04-17T17:52:25Z</time>
      </trkpt>
      <trkpt lat="42.9177980" lon="-8.0531500">
        <ele>463.8</ele>
        <time>2020-04-17T17:52:27Z</time>
      </trkpt>
      <trkpt lat="42.9178070" lon="-8.0532990">
        <ele>464.0</ele>
        <time>2020-04-17T17:52:29Z</time>
      </trkpt>
      <trkpt lat="42.9178160" lon="-8.0534570">
        <ele>464.2</ele>
        <time>2020-04-17T17:52:31Z</time>
      </trkpt>
      <trkpt lat="42.9178440" lon="-8.0539240">
        <ele>464.3</ele>
        <time>2020-04-17T17:52:33Z</time>
      </trkpt>
      <trkpt lat="42.9178550" lon="-8.0540930">
        <ele>464.1</ele>
        <time>2020-04-17T17:52:35Z</time>
      </trkpt>
      <trkpt lat="42.9178740" lon="-8.0543440">
        <ele>463.9</ele>
        <time>2020-04-17T17:52:37Z</time>
      </trkpt>
      <trkpt lat="42.9178890" lon="-8.0545210">
        <ele>463.6</ele>
        <time>2020-04-17T17:52:39Z</time>
      </trkpt>
      <trkpt lat="42.9179040" lon="-8.0547010">
        <ele>463.2</ele>
        <time>2020-04-17T17:52:41Z</time>
      </trkpt>
      <trkpt lat="42.9179420" lon="-8.0551100">
        <ele>462.2</ele>
        <time>2020-04-17T17:52:43Z</time>
      </trkpt>
      <trkpt lat="42.9179650" lon="-8.0552990">
        <ele>461.7</ele>
        <time>2020-04-17T17:52:45Z</time>
      </trkpt>
      <trkpt lat="42.9179880" lon="-8.0554910">
        <ele>461.1</ele>
        <time>2020-04-17T17:52:47Z</time>
      </trkpt>
      <trkpt lat="42.9180120" lon="-8.0556900">
        <ele>460.6</ele>
        <time>2020-04-17T17:52:49Z</time>
      </trkpt>
      <trkpt lat="42.9180740" lon="-8.0561970">
        <ele>459.2</ele>
        <time>2020-04-17T17:52:51Z</time>
      </trkpt>
      <trkpt lat="42.9180990" lon="-8.0564050">
        <ele>458.7</ele>
        <time>2020-04-17T17:52:53Z</time>
      </trkpt>
      <trkpt lat="42.9181440" lon="-8.0567630">
        <ele>457.9</ele>
        <time>2020-04-17T17:52:55Z</time>
      </trkpt>
      <trkpt lat="42.9181740" lon="-8.0569780">
        <ele>457.5</ele>
        <time>2020-04-17T17:52:57Z</time>
      </trkpt>
      <trkpt lat="42.9182260" lon="-8.0573570">
        <ele>456.7</ele>
        <time>2020-04-17T17:52:59Z</time>
      </trkpt>
      <trkpt lat="42.9182540" lon="-8.0575870">
        <ele>456.2</ele>
        <time>2020-04-17T17:53:01Z</time>
      </trkpt>
      <trkpt lat="42.9182820" lon="-8.0578220">
        <ele>455.6</ele>
        <time>2020-04-17T17:53:03Z</time>
      </trkpt>
      <trkpt lat="42.9183360" lon="-8.0582660">
        <ele>454.0</ele>
        <time>2020-04-17T17:53:05Z</time>
      </trkpt>
      <trkpt lat="42.9183670" lon="-8.0585120">
        <ele>453.3</ele>
        <time>2020-04-17T17:53:07Z</time>
      </trkpt>
      <trkpt lat="42.9184300" lon="-8.0589670">
        <ele>451.9</ele>
        <time>2020-04-17T17:53:09Z</time>
      </trkpt>
      <trkpt lat="42.9184750" lon="-8.0592200">
        <ele>451.0</ele>
        <time>2020-04-17T17:53:11Z</time>
      </trkpt>
      <trkpt lat="42.9185980" lon="-8.0595930">
        <ele>449.6</ele>
        <time>2020-04-17T17:53:13Z</time>
      </trkpt>
      <trkpt lat="42.9187560" lon="-8.0598850">
        <ele>448.2</ele>
        <time>2020-04-17T17:53:15Z</time>
      </trkpt>
      <trkpt lat="42.9189300" lon="-8.0600950">
        <ele>447.0</ele>
        <time>2020-04-17T17:53:17Z</time>
      </trkpt>
      <trkpt lat="42.9191120" lon="-8.0602510">
        <ele>445.9</ele>
        <time>2020-04-17T17:53:19Z</time>
      </trkpt>
      <trkpt lat="42.9193110" lon="-8.0603690">
        <ele>444.8</ele>
        <time>2020-04-17T17:53:21Z</time>
      </trkpt>
      <trkpt lat="42.9194780" lon="-8.0604530">
        <ele>443.9</ele>
        <time>2020-04-17T17:53:23Z</time>
      </trkpt>
      <trkpt lat="42.9197880" lon="-8.0606230">
        <ele>442.1</ele>
        <time>2020-04-17T17:53:25Z</time>
      </trkpt>
      <trkpt lat="42.9200170" lon="-8.0608090">
        <ele>440.6</ele>
        <time>2020-04-17T17:53:27Z</time>
      </trkpt>
      <trkpt lat="42.9202230" lon="-8.0610740">
        <ele>439.2</ele>
        <time>2020-04-17T17:53:29Z</time>
      </trkpt>
      <trkpt lat="42.9203920" lon="-8.0614420">
        <ele>437.5</ele>
        <time>2020-04-17T17:53:31Z</time>
      </trkpt>
      <trkpt lat="42.9204650" lon="-8.0617700">
        <ele>436.3</ele>
        <time>2020-04-17T17:53:33Z</time>
      </trkpt>
      <trkpt lat="42.9204820" lon="-8.0621320">
        <ele>434.9</ele>
        <time>2020-04-17T17:53:35Z</time>
      </trkpt>
      <trkpt lat="42.9204510" lon="-8.0625850">
        <ele>433.4</ele>
        <time>2020-04-17T17:53:37Z</time>
      </trkpt>
      <trkpt lat="42.9204080" lon="-8.0628600">
        <ele>432.6</ele>
        <time>2020-04-17T17:53:39Z</time>
      </trkpt>
      <trkpt lat="42.9203380" lon="-8.0633020">
        <ele>431.3</ele>
        <time>2020-04-17T17:53:41Z</time>
      </trkpt>
      <trkpt lat="42.9202950" lon="-8.0635790">
        <ele>430.7</ele>
        <time>2020-04-17T17:53:43Z</time>
      </trkpt>
      <trkpt lat="42.9202230" lon="-8.0640160">
        <ele>429.8</ele>
        <time>2020-04-17T17:53:45Z</time>
      </trkpt>
      <trkpt lat="42.9201790" lon="-8.0642740">
        <ele>429.2</ele>
        <time>2020-04-17T17:53:47Z</time>
      </trkpt>
      <trkpt lat="42.9200940" lon="-8.0647740">
        <ele>428.6</ele>
        <time>2020-04-17T17:53:49Z</time>
      </trkpt>
      <trkpt lat="42.9200550" lon="-8.0650090">
        <ele>428.3</ele>
        <time>2020-04-17T17:53:51Z</time>
      </trkpt>
      <trkpt lat="42.9199890" lon="-8.0653790">
        <ele>428.0</ele>
        <time>2020-04-17T17:53:53Z</time>
      </trkpt>
      <trkpt lat="42.9199200" lon="-8.0657160">
        <ele>427.8</ele>
        <time>2020-04-17T17:53:55Z</time>
      </trkpt>
      <trkpt lat="42.9198640" lon="-8.0659290">
        <ele>427.8</ele>
        <time>2020-04-17T17:53:57Z</time>
      </trkpt>
      <trkpt lat="42.9198100" lon="-8.0661340">
        <ele>427.8</ele>
        <time>2020-04-17T17:53:59Z</time>
      </trkpt>
      <trkpt lat="42.9197570" lon="-8.0663350">
        <ele>427.8</ele>
        <time>2020-04-17T17:54:01Z</time>
      </trkpt>
      <trkpt lat="42.9196370" lon="-8.0667740">
        <ele>427.9</ele>
        <time>2020-04-17T17:54:03Z</time>
      </trkpt>
      <trkpt lat="42.9195820" lon="-8.0669620">
        <ele>427.9</ele>
        <time>2020-04-17T17:54:05Z</time>
      </trkpt>
      <trkpt lat="42.9195290" lon="-8.0671460">
        <ele>427.9</ele>
        <time>2020-04-17T17:54:07Z</time>
      </trkpt>
      <trkpt lat="42.9194090" lon="-8.0675600">
        <ele>427.9</ele>
        <time>2020-04-17T17:54:09Z</time>
      </trkpt>
      <trkpt lat="42.9193570" lon="-8.0677390">
        <ele>427.8</ele>
        <time>2020-04-17T17:54:11Z</time>
      </trkpt>
      <trkpt lat="42.9193050" lon="-8.0679160">
        <ele>427.8</ele>
        <time>2020-04-17T17:54:13Z</time>
      </trkpt>
      <trkpt lat="42.9191970" lon="-8.0682890">
        <ele>427.7</ele>
        <time>2020-04-17T17:54:15Z</time>
      </trkpt>
      <trkpt lat="42.9191340" lon="-8.0685050">
        <ele>427.6</ele>
        <time>2020-04-17T17:54:17Z</time>
      </trkpt>
      <trkpt lat="42.9190830" lon="-8.0686810">
        <ele>427.6</ele>
        <time>2020-04-17T17:54:19Z</time>
      </trkpt>
      <trkpt lat="42.9190320" lon="-8.0688580">
        <ele>427.6</ele>
        <time>2020-04-17T17:54:21Z</time>
      </trkpt>
      <trkpt lat="42.9189140" lon="-8.0692680">
        <ele>427.4</ele>
        <time>2020-04-17T17:54:23Z</time>
      </trkpt>
      <trkpt lat="42.9188640" lon="-8.0694400">
        <ele>427.3</ele>
        <time>2020-04-17T17:54:25Z</time>
      </trkpt>
      <trkpt lat="42.9188160" lon="-8.0696050">
        <ele>427.2</ele>
        <time>2020-04-17T17:54:27Z</time>
      </trkpt>
      <trkpt lat="42.9187700" lon="-8.0697650">
        <ele>427.1</ele>
        <time>2020-04-17T17:54:29Z</time>
      </trkpt>
      <trkpt lat="42.9186580" lon="-8.0701500">
        <ele>426.8</ele>
        <time>2020-04-17T17:54:31Z</time>
      </trkpt>
      <trkpt lat="42.9186160" lon="-8.0702850">
        <ele>426.6</ele>
        <time>2020-04-17T17:54:33Z</time>
      </trkpt>
      <trkpt lat="42.9185780" lon="-8.0704080">
        <ele>426.4</ele>
        <time>2020-04-17T17:54:35Z</time>
      </trkpt>
      <trkpt lat="42.9185440" lon="-8.0705170">
        <ele>426.3</ele>
        <time>2020-04-17T17:54:37Z</time>
      </trkpt>
      <trkpt lat="42.9184610" lon="-8.0707680">
        <ele>425.8</ele>
        <time>2020-04-17T17:54:39Z</time>
      </trkpt>
      <trkpt lat="42.9184310" lon="-8.0708460">
        <ele>425.6</ele>
        <time>2020-04-17T17:54:41Z</time>
      </trkpt>
      <trkpt lat="42.9183920" lon="-8.0709460">
        <ele>425.3</ele>
        <time>2020-04-17T17:54:43Z</time>
      </trkpt>
      <trkpt lat="42.9183450" lon="-8.0710630">
        <ele>425.0</ele>
        <time>2020-04-17T17:54:45Z</time>
      </trkpt>
      <trkpt lat="42.9182930" lon="-8.0711960">
        <ele>424.7</ele>
        <time>2020-04-17T17:54:47Z</time>
      </trkpt>
      <trkpt lat="42.9181450" lon="-8.0715500">
        <ele>424.0</ele>
        <time>2020-04-17T17:54:49Z</time>
      </trkpt>
      <trkpt lat="42.9180750" lon="-8.0717030">
        <ele>423.7</ele>
        <time>2020-04-17T17:54:51Z</time>
      </trkpt>
      <trkpt lat="42.9179990" lon="-8.0718660">
        <ele>422.9</ele>
        <time>2020-04-17T17:54:53Z</time>
      </trkpt>
      <trkpt lat="42.9179180" lon="-8.0720390">
        <ele>422.1</ele>
        <time>2020-04-17T17:54:55Z</time>
      </trkpt>
      <trkpt lat="42.9177380" lon="-8.0724290">
        <ele>419.9</ele>
        <time>2020-04-17T17:54:57Z</time>
      </trkpt>
      <trkpt lat="42.9176510" lon="-8.0726160">
        <ele>418.7</ele>
        <time>2020-04-17T17:54:59Z</time>
      </trkpt>
      <trkpt lat="42.9175620" lon="-8.0728100">
        <ele>417.6</ele>
        <time>2020-04-17T17:55:01Z</time>
      </trkpt>
      <trkpt lat="42.9173620" lon="-8.0732370">
        <ele>416.1</ele>
        <time>2020-04-17T17:55:03Z</time>
      </trkpt>
      <trkpt lat="42.9172330" lon="-8.0735140">
        <ele>415.0</ele>
        <time>2020-04-17T17:55:05Z</time>
      </trkpt>
      <trkpt lat="42.9171380" lon="-8.0737220">
        <ele>414.0</ele>
        <time>2020-04-17T17:55:07Z</time>
      </trkpt>
      <trkpt lat="42.9169790" lon="-8.0740740">
        <ele>412.4</ele>
        <time>2020-04-17T17:55:09Z</time>
      </trkpt>
      <trkpt lat="42.9168610" lon="-8.0743460">
        <ele>411.0</ele>
        <time>2020-04-17T17:55:11Z</time>
      </trkpt>
      <trkpt lat="42.9167640" lon="-8.0745730">
        <ele>410.1</ele>
        <time>2020-04-17T17:55:13Z</time>
      </trkpt>
      <trkpt lat="42.9165990" lon="-8.0749800">
        <ele>408.4</ele>
        <time>2020-04-17T17:55:15Z</time>
      </trkpt>
      <trkpt lat="42.9164730" lon="-8.0753470">
        <ele>406.9</ele>
        <time>2020-04-17T17:55:17Z</time>
      </trkpt>
      <trkpt lat="42.9163670" lon="-8.0757170">
        <ele>405.4</ele>
        <time>2020-04-17T17:55:19Z</time>
      </trkpt>
      <trkpt lat="42.9162780" lon="-8.0760790">
        <ele>403.8</ele>
        <time>2020-04-17T17:55:21Z</time>
      </trkpt>
      <trkpt lat="42.9162020" lon="-8.0764490">
        <ele>402.4</ele>
        <time>2020-04-17T17:55:23Z</time>
      </trkpt>
      <trkpt lat="42.9161570" lon="-8.0769200">
        <ele>401.0</ele>
        <time>2020-04-17T17:55:25Z</time>
      </trkpt>
      <trkpt lat="42.9161450" lon="-8.0773110">
        <ele>399.5</ele>
        <time>2020-04-17T17:55:27Z</time>
      </trkpt>
      <trkpt lat="42.9161270" lon="-8.0775890">
        <ele>398.9</ele>
        <time>2020-04-17T17:55:29Z</time>
      </trkpt>
      <trkpt lat="42.9161010" lon="-8.0780390">
        <ele>398.2</ele>
        <time>2020-04-17T17:55:31Z</time>
      </trkpt>
      <trkpt lat="42.9160910" lon="-8.0783080">
        <ele>397.7</ele>
        <time>2020-04-17T17:55:33Z</time>
      </trkpt>
      <trkpt lat="42.9160810" lon="-8.0787080">
        <ele>396.8</ele>
        <time>2020-04-17T17:55:35Z</time>
      </trkpt>
      <trkpt lat="42.9160730" lon="-8.0791070">
        <ele>396.0</ele>
        <time>2020-04-17T17:55:37Z</time>
      </trkpt>
      <trkpt lat="42.9160640" lon="-8.0795310">
        <ele>394.3</ele>
        <time>2020-04-17T17:55:39Z</time>
      </trkpt>
      <trkpt lat="42.9160600" lon="-8.0798010">
        <ele>393.2</ele>
        <time>2020-04-17T17:55:41Z</time>
      </trkpt>
      <trkpt lat="42.9160560" lon="-8.0801830">
        <ele>391.4</ele>
        <time>2020-04-17T17:55:43Z</time>
      </trkpt>
      <trkpt lat="42.9160530" lon="-8.0804610">
        <ele>390.1</ele>
        <time>2020-04-17T17:55:45Z</time>
      </trkpt>
      <trkpt lat="42.9160370" lon="-8.0810060">
        <ele>388.4</ele>
        <time>2020-04-17T17:55:47Z</time>
      </trkpt>
      <trkpt lat="42.9159970" lon="-8.0813580">
        <ele>387.0</ele>
        <time>2020-04-17T17:55:49Z</time>
      </trkpt>
      <trkpt lat="42.9159240" lon="-8.0817590">
        <ele>385.0</ele>
        <time>2020-04-17T17:55:51Z</time>
      </trkpt>
      <trkpt lat="42.9158510" lon="-8.0820340">
        <ele>383.6</ele>
        <time>2020-04-17T17:55:53Z</time>
      </trkpt>
      <trkpt lat="42.9157280" lon="-8.0824960">
        <ele>381.1</ele>
        <time>2020-04-17T17:55:55Z</time>
      </trkpt>
      <trkpt lat="42.9156340" lon="-8.0828770">
        <ele>379.2</ele>
        <time>2020-04-17T17:55:57Z</time>
      </trkpt>
      <trkpt lat="42.9155780" lon="-8.0833210">
        <ele>376.8</ele>
        <time>2020-04-17T17:55:59Z</time>
      </trkpt>
      <trkpt lat="42.9156050" lon="-8.0836930">
        <ele>375.0</ele>
        <time>2020-04-17T17:56:01Z</time>
      </trkpt>
      <trkpt lat="42.9157110" lon="-8.0841120">
        <ele>372.6</ele>
        <time>2020-04-17T17:56:03Z</time>
      </trkpt>
      <trkpt lat="42.9158740" lon="-8.0844380">
        <ele>370.7</ele>
        <time>2020-04-17T17:56:05Z</time>
      </trkpt>
      <trkpt lat="42.9161330" lon="-8.0847440">
        <ele>368.4</ele>
        <time>2020-04-17T17:56:07Z</time>
      </trkpt>
      <trkpt lat="42.9164320" lon="-8.0849420">
        <ele>366.0</ele>
        <time>2020-04-17T17:56:09Z</time>
      </trkpt>
      <trkpt lat="42.9167380" lon="-8.0850150">
        <ele>363.6</ele>
        <time>2020-04-17T17:56:11Z</time>
      </trkpt>
      <trkpt lat="42.9170830" lon="-8.0850080">
        <ele>360.9</ele>
        <time>2020-04-17T17:56:13Z</time>
      </trkpt>
      <trkpt lat="42.9173840" lon="-8.0849840">
        <ele>358.7</ele>
        <time>2020-04-17T17:56:15Z</time>
      </trkpt>
      <trkpt lat="42.9177320" lon="-8.0849890">
        <ele>356.4</ele>
        <time>2020-04-17T17:56:17Z</time>
      </trkpt>
      <trkpt lat="42.9180460" lon="-8.0850450">
        <ele>354.3</ele>
        <time>2020-04-17T17:56:19Z</time>
      </trkpt>
      <trkpt lat="42.9182710" lon="-8.0851270">
        <ele>353.0</ele>
        <time>2020-04-17T17:56:21Z</time>
      </trkpt>
      <trkpt lat="42.9185860" lon="-8.0853080">
        <ele>351.7</ele>
        <time>2020-04-17T17:56:23Z</time>
      </trkpt>
      <trkpt lat="42.9188320" lon="-8.0854990">
        <ele>350.8</ele>
        <time>2020-04-17T17:56:25Z</time>
      </trkpt>
      <trkpt lat="42.9190470" lon="-8.0857200">
        <ele>350.5</ele>
        <time>2020-04-17T17:56:27Z</time>
      </trkpt>
      <trkpt lat="42.9192470" lon="-8.0859750">
        <ele>350.8</ele>
        <time>2020-04-17T17:56:29Z</time>
      </trkpt>
      <trkpt lat="42.9194150" lon="-8.0862250">
        <ele>351.6</ele>
        <time>2020-04-17T17:56:31Z</time>
      </trkpt>
      <trkpt lat="42.9195160" lon="-8.0864330">
        <ele>352.6</ele>
        <time>2020-04-17T17:56:33Z</time>
      </trkpt>
      <trkpt lat="42.9196170" lon="-8.0866780">
        <ele>354.1</ele>
        <time>2020-04-17T17:56:35Z</time>
      </trkpt>
      <trkpt lat="42.9196590" lon="-8.0868270">
        <ele>355.1</ele>
        <time>2020-04-17T17:56:37Z</time>
      </trkpt>
      <trkpt lat="42.9197210" lon="-8.0870410">
        <ele>356.5</ele>
        <time>2020-04-17T17:56:39Z</time>
      </trkpt>
      <trkpt lat="42.9197490" lon="-8.0871360">
        <ele>357.1</ele>
        <time>2020-04-17T17:56:41Z</time>
      </trkpt>
      <trkpt lat="42.9197900" lon="-8.0873040">
        <ele>358.1</ele>
        <time>2020-04-17T17:56:43Z</time>
      </trkpt>
      <trkpt lat="42.9197970" lon="-8.0874030">
        <ele>358.7</ele>
        <time>2020-04-17T17:56:45Z</time>
      </trkpt>
      <trkpt lat="42.9198030" lon="-8.0874690">
        <ele>359.1</ele>
        <time>2020-04-17T17:56:47Z</time>
      </trkpt>
      <trkpt lat="42.9198070" lon="-8.0875300">
        <ele>359.4</ele>
        <time>2020-04-17T17:56:49Z</time>
      </trkpt>
      <trkpt lat="42.9198120" lon="-8.0875890">
        <ele>359.8</ele>
        <time>2020-04-17T17:56:51Z</time>
      </trkpt>
      <trkpt lat="42.9198170" lon="-8.0876460">
        <ele>360.1</ele>
        <time>2020-04-17T17:56:53Z</time>
      </trkpt>
      <trkpt lat="42.9198300" lon="-8.0878150">
        <ele>361.0</ele>
        <time>2020-04-17T17:56:55Z</time>
      </trkpt>
      <trkpt lat="42.9198330" lon="-8.0879250">
        <ele>361.6</ele>
        <time>2020-04-17T17:56:57Z</time>
      </trkpt>
      <trkpt lat="42.9198330" lon="-8.0880180">
        <ele>362.1</ele>
        <time>2020-04-17T17:56:59Z</time>
      </trkpt>
      <trkpt lat="42.9198320" lon="-8.0881160">
        <ele>362.6</ele>
        <time>2020-04-17T17:57:01Z</time>
      </trkpt>
      <trkpt lat="42.9198260" lon="-8.0883340">
        <ele>363.7</ele>
        <time>2020-04-17T17:57:03Z</time>
      </trkpt>
      <trkpt lat="42.9198170" lon="-8.0884340">
        <ele>364.2</ele>
        <time>2020-04-17T17:57:05Z</time>
      </trkpt>
      <trkpt lat="42.9198080" lon="-8.0885350">
        <ele>364.8</ele>
        <time>2020-04-17T17:57:07Z</time>
      </trkpt>
      <trkpt lat="42.9197980" lon="-8.0886370">
        <ele>365.4</ele>
        <time>2020-04-17T17:57:09Z</time>
      </trkpt>
      <trkpt lat="42.9197710" lon="-8.0888640">
        <ele>366.6</ele>
        <time>2020-04-17T17:57:11Z</time>
      </trkpt>
      <trkpt lat="42.9197440" lon="-8.0890280">
        <ele>367.2</ele>
        <time>2020-04-17T17:57:13Z</time>
      </trkpt>
      <trkpt lat="42.9197270" lon="-8.0891280">
        <ele>367.6</ele>
        <time>2020-04-17T17:57:15Z</time>
      </trkpt>
      <trkpt lat="42.9197110" lon="-8.0892260">
        <ele>367.8</ele>
        <time>2020-04-17T17:57:17Z</time>
      </trkpt>
      <trkpt lat="42.9196950" lon="-8.0893230">
        <ele>368.0</ele>
        <time>2020-04-17T17:57:19Z</time>
      </trkpt>
      <trkpt lat="42.9196790" lon="-8.0894180">
        <ele>368.3</ele>
        <time>2020-04-17T17:57:21Z</time>
      </trkpt>
      <trkpt lat="42.9196640" lon="-8.0895120">
        <ele>368.7</ele>
        <time>2020-04-17T17:57:23Z</time>
      </trkpt>
      <trkpt lat="42.9196290" lon="-8.0897930">
        <ele>370.2</ele>
        <time>2020-04-17T17:57:25Z</time>
      </trkpt>
      <trkpt lat="42.9196270" lon="-8.0898880">
        <ele>370.6</ele>
        <time>2020-04-17T17:57:27Z</time>
      </trkpt>
      <trkpt lat="42.9196270" lon="-8.0900670">
        <ele>371.6</ele>
        <time>2020-04-17T17:57:29Z</time>
      </trkpt>
      <trkpt lat="42.9196340" lon="-8.0901610">
        <ele>372.2</ele>
        <time>2020-04-17T17:57:31Z</time>
      </trkpt>
      <trkpt lat="42.9196410" lon="-8.0902550">
        <ele>372.7</ele>
        <time>2020-04-17T17:57:33Z</time>
      </trkpt>
      <trkpt lat="42.9196650" lon="-8.0904390">
        <ele>373.8</ele>
        <time>2020-04-17T17:57:35Z</time>
      </trkpt>
      <trkpt lat="42.9196850" lon="-8.0905280">
        <ele>374.3</ele>
        <time>2020-04-17T17:57:37Z</time>
      </trkpt>
      <trkpt lat="42.9197220" lon="-8.0906860">
        <ele>375.2</ele>
        <time>2020-04-17T17:57:39Z</time>
      </trkpt>
      <trkpt lat="42.9197570" lon="-8.0908260">
        <ele>376.0</ele>
        <time>2020-04-17T17:57:41Z</time>
      </trkpt>
      <trkpt lat="42.9197790" lon="-8.0909080">
        <ele>376.5</ele>
        <time>2020-04-17T17:57:43Z</time>
      </trkpt>
      <trkpt lat="42.9198150" lon="-8.0910270">
        <ele>377.0</ele>
        <time>2020-04-17T17:57:45Z</time>
      </trkpt>
      <trkpt lat="42.9198540" lon="-8.0911130">
        <ele>377.2</ele>
        <time>2020-04-17T17:57:47Z</time>
      </trkpt>
      <trkpt lat="42.9198800" lon="-8.0911680">
        <ele>377.4</ele>
        <time>2020-04-17T17:57:49Z</time>
      </trkpt>
      <trkpt lat="42.9199040" lon="-8.0912210">
        <ele>377.6</ele>
        <time>2020-04-17T17:57:51Z</time>
      </trkpt>
      <trkpt lat="42.9199280" lon="-8.0912730">
        <ele>377.9</ele>
        <time>2020-04-17T17:57:53Z</time>
      </trkpt>
      <trkpt lat="42.9199520" lon="-8.0913240">
        <ele>378.1</ele>
        <time>2020-04-17T17:57:55Z</time>
      </trkpt>
      <trkpt lat="42.9200190" lon="-8.0914550">
        <ele>379.0</ele>
        <time>2020-04-17T17:57:57Z</time>
      </trkpt>
      <trkpt lat="42.9200490" lon="-8.0914990">
        <ele>379.3</ele>
        <time>2020-04-17T17:57:59Z</time>
      </trkpt>
      <trkpt lat="42.9200790" lon="-8.0915420">
        <ele>379.6</ele>
        <time>2020-04-17T17:58:01Z</time>
      </trkpt>
      <trkpt lat="42.9201090" lon="-8.0915850">
        <ele>380.0</ele>
        <time>2020-04-17T17:58:03Z</time>
      </trkpt>
      <trkpt lat="42.9201850" lon="-8.0916900">
        <ele>380.8</ele>
        <time>2020-04-17T17:58:05Z</time>
      </trkpt>
      <trkpt lat="42.9202190" lon="-8.0917290">
        <ele>381.2</ele>
        <time>2020-04-17T17:58:07Z</time>
      </trkpt>
      <trkpt lat="42.9202520" lon="-8.0917680">
        <ele>381.5</ele>
        <time>2020-04-17T17:58:09Z</time>
      </trkpt>
      <trkpt lat="42.9202850" lon="-8.0918070">
        <ele>381.9</ele>
        <time>2020-04-17T17:58:11Z</time>
      </trkpt>
      <trkpt lat="42.9203710" lon="-8.0918980">
        <ele>382.7</ele>
        <time>2020-04-17T17:58:13Z</time>
      </trkpt>
      <trkpt lat="42.9204190" lon="-8.0919420">
        <ele>383.1</ele>
        <time>2020-04-17T17:58:15Z</time>
      </trkpt>
      <trkpt lat="42.9205180" lon="-8.0920250">
        <ele>384.0</ele>
        <time>2020-04-17T17:58:17Z</time>
      </trkpt>
      <trkpt lat="42.9205740" lon="-8.0920660">
        <ele>384.5</ele>
        <time>2020-04-17T17:58:19Z</time>
      </trkpt>
      <trkpt lat="42.9206310" lon="-8.0921070">
        <ele>384.9</ele>
        <time>2020-04-17T17:58:21Z</time>
      </trkpt>
      <trkpt lat="42.9207460" lon="-8.0921830">
        <ele>385.7</ele>
        <time>2020-04-17T17:58:23Z</time>
      </trkpt>
      <trkpt lat="42.9208080" lon="-8.0922130">
        <ele>386.1</ele>
        <time>2020-04-17T17:58:25Z</time>
      </trkpt>
      <trkpt lat="42.9209200" lon="-8.0922650">
        <ele>386.8</ele>
        <time>2020-04-17T17:58:27Z</time>
      </trkpt>
      <trkpt lat="42.9209850" lon="-8.0922850">
        <ele>387.1</ele>
        <time>2020-04-17T17:58:29Z</time>
      </trkpt>
      <trkpt lat="42.9210490" lon="-8.0923060">
        <ele>387.5</ele>
        <time>2020-04-17T17:58:31Z</time>
      </trkpt>
      <trkpt lat="42.9211870" lon="-8.0923500">
        <ele>388.4</ele>
        <time>2020-04-17T17:58:33Z</time>
      </trkpt>
      <trkpt lat="42.9212530" lon="-8.0923600">
        <ele>388.9</ele>
        <time>2020-04-17T17:58:35Z</time>
      </trkpt>
      <trkpt lat="42.9213180" lon="-8.0923690">
        <ele>389.4</ele>
        <time>2020-04-17T17:58:37Z</time>
      </trkpt>
      <trkpt lat="42.9213840" lon="-8.0923790">
        <ele>389.9</ele>
        <time>2020-04-17T17:58:39Z</time>
      </trkpt>
      <trkpt lat="42.9215350" lon="-8.0924020">
        <ele>391.1</ele>
        <time>2020-04-17T17:58:41Z</time>
      </trkpt>
      <trkpt lat="42.9216000" lon="-8.0924110">
        <ele>391.6</ele>
        <time>2020-04-17T17:58:43Z</time>
      </trkpt>
      <trkpt lat="42.9216660" lon="-8.0924210">
        <ele>392.1</ele>
        <time>2020-04-17T17:58:45Z</time>
      </trkpt>
      <trkpt lat="42.9217320" lon="-8.0924310">
        <ele>392.6</ele>
        <time>2020-04-17T17:58:47Z</time>
      </trkpt>
      <trkpt lat="42.9217970" lon="-8.0924400">
        <ele>393.1</ele>
        <time>2020-04-17T17:58:49Z</time>
      </trkpt>
      <trkpt lat="42.9218620" lon="-8.0924490">
        <ele>393.6</ele>
        <time>2020-04-17T17:58:51Z</time>
      </trkpt>
      <trkpt lat="42.9220850" lon="-8.0924820">
        <ele>395.3</ele>
        <time>2020-04-17T17:58:53Z</time>
      </trkpt>
      <trkpt lat="42.9221660" lon="-8.0924940">
        <ele>395.9</ele>
        <time>2020-04-17T17:58:55Z</time>
      </trkpt>
      <trkpt lat="42.9222310" lon="-8.0925030">
        <ele>396.3</ele>
        <time>2020-04-17T17:58:57Z</time>
      </trkpt>
      <trkpt lat="42.9222960" lon="-8.0925120">
        <ele>396.8</ele>
        <time>2020-04-17T17:58:59Z</time>
      </trkpt>
      <trkpt lat="42.9223610" lon="-8.0925210">
        <ele>397.3</ele>
        <time>2020-04-17T17:59:01Z</time>
      </trkpt>
      <trkpt lat="42.9224260" lon="-8.0925290">
        <ele>397.8</ele>
        <time>2020-04-17T17:59:03Z</time>
      </trkpt>
      <trkpt lat="42.9224910" lon="-8.0925380">
        <ele>398.3</ele>
        <time>2020-04-17T17:59:05Z</time>
      </trkpt>
      <trkpt lat="42.9227000" lon="-8.0925690">
        <ele>399.9</ele>
        <time>2020-04-17T17:59:07Z</time>
      </trkpt>
      <trkpt lat="42.9227640" lon="-8.0925840">
        <ele>400.4</ele>
        <time>2020-04-17T17:59:09Z</time>
      </trkpt>
      <trkpt lat="42.9228300" lon="-8.0926000">
        <ele>400.9</ele>
        <time>2020-04-17T17:59:11Z</time>
      </trkpt>
      <trkpt lat="42.9229670" lon="-8.0926340">
        <ele>402.0</ele>
        <time>2020-04-17T17:59:13Z</time>
      </trkpt>
      <trkpt lat="42.9230300" lon="-8.0926570">
        <ele>402.5</ele>
        <time>2020-04-17T17:59:15Z</time>
      </trkpt>
      <trkpt lat="42.9230930" lon="-8.0926800">
        <ele>403.0</ele>
        <time>2020-04-17T17:59:17Z</time>
      </trkpt>
      <trkpt lat="42.9232200" lon="-8.0927300">
        <ele>404.0</ele>
        <time>2020-04-17T17:59:19Z</time>
      </trkpt>
      <trkpt lat="42.9232820" lon="-8.0927600">
        <ele>404.4</ele>
        <time>2020-04-17T17:59:21Z</time>
      </trkpt>
      <trkpt lat="42.9233430" lon="-8.0927900">
        <ele>404.9</ele>
        <time>2020-04-17T17:59:23Z</time>
      </trkpt>
      <trkpt lat="42.9234670" lon="-8.0928590">
        <ele>405.8</ele>
        <time>2020-04-17T17:59:25Z</time>
      </trkpt>
      <trkpt lat="42.9235300" lon="-8.0929030">
        <ele>406.3</ele>
        <time>2020-04-17T17:59:27Z</time>
      </trkpt>
      <trkpt lat="42.9236420" lon="-8.0929870">
        <ele>407.1</ele>
        <time>2020-04-17T17:59:29Z</time>
      </trkpt>
      <trkpt lat="42.9237050" lon="-8.0930410">
        <ele>407.5</ele>
        <time>2020-04-17T17:59:31Z</time>
      </trkpt>
      <trkpt lat="42.9237680" lon="-8.0930960">
        <ele>407.8</ele>
        <time>2020-04-17T17:59:33Z</time>
      </trkpt>
      <trkpt lat="42.9238870" lon="-8.0932180">
        <ele>408.5</ele>
        <time>2020-04-17T17:59:35Z</time>
      </trkpt>
      <trkpt lat="42.9239440" lon="-8.0932870">
        <ele>408.9</ele>
        <time>2020-04-17T17:59:37Z</time>
      </trkpt>
      <trkpt lat="42.9240000" lon="-8.0933570">
        <ele>409.2</ele>
        <time>2020-04-17T17:59:39Z</time>
      </trkpt>
      <trkpt lat="42.9241290" lon="-8.0935200">
        <ele>410.1</ele>
        <time>2020-04-17T17:59:41Z</time>
      </trkpt>
      <trkpt lat="42.9241790" lon="-8.0935980">
        <ele>410.4</ele>
        <time>2020-04-17T17:59:43Z</time>
      </trkpt>
      <trkpt lat="42.9242580" lon="-8.0937260">
        <ele>411.0</ele>
        <time>2020-04-17T17:59:45Z</time>
      </trkpt>
      <trkpt lat="42.9243070" lon="-8.0938140">
        <ele>411.3</ele>
        <time>2020-04-17T17:59:47Z</time>
      </trkpt>
      <trkpt lat="42.9244040" lon="-8.0939890">
        <ele>411.8</ele>
        <time>2020-04-17T17:59:49Z</time>
      </trkpt>
      <trkpt lat="42.9244490" lon="-8.0940900">
        <ele>412.1</ele>
        <time>2020-04-17T17:59:51Z</time>
      </trkpt>
      <trkpt lat="42.9244940" lon="-8.0941930">
        <ele>412.3</ele>
        <time>2020-04-17T17:59:53Z</time>
      </trkpt>
      <trkpt lat="42.9245400" lon="-8.0942970">
        <ele>412.7</ele>
        <time>2020-04-17T17:59:55Z</time>
      </trkpt>
      <trkpt lat="42.9245860" lon="-8.0944020">
        <ele>413.0</ele>
        <time>2020-04-17T17:59:57Z</time>
      </trkpt>
      <trkpt lat="42.9246310" lon="-8.0945060">
        <ele>413.4</ele>
        <time>2020-04-17T17:59:59Z</time>
      </trkpt>
      <trkpt lat="42.9246780" lon="-8.0946120">
        <ele>413.7</ele>
        <time>2020-04-17T18:00:01Z</time>
      </trkpt>
      <trkpt lat="42.9247250" lon="-8.0947180">
        <ele>414.1</ele>
        <time>2020-04-17T18:00:03Z</time>
      </trkpt>
      <trkpt lat="42.9248940" lon="-8.0950980">
        <ele>415.4</ele>
        <time>2020-04-17T18:00:05Z</time>
      </trkpt>
      <trkpt lat="42.9249430" lon="-8.0952040">
        <ele>415.8</ele>
        <time>2020-04-17T18:00:07Z</time>
      </trkpt>
      <trkpt lat="42.9249910" lon="-8.0953090">
        <ele>416.2</ele>
        <time>2020-04-17T18:00:09Z</time>
      </trkpt>
      <trkpt lat="42.9250400" lon="-8.0954140">
        <ele>416.7</ele>
        <time>2020-04-17T18:00:11Z</time>
      </trkpt>
      <trkpt lat="42.9251700" lon="-8.0956930">
        <ele>417.8</ele>
        <time>2020-04-17T18:00:13Z</time>
      </trkpt>
      <trkpt lat="42.9252180" lon="-8.0957970">
        <ele>418.2</ele>
        <time>2020-04-17T18:00:15Z</time>
      </trkpt>
      <trkpt lat="42.9252670" lon="-8.0959010">
        <ele>418.5</ele>
        <time>2020-04-17T18:00:17Z</time>
      </trkpt>
      <trkpt lat="42.9253080" lon="-8.0959900">
        <ele>418.8</ele>
        <time>2020-04-17T18:00:19Z</time>
      </trkpt>
      <trkpt lat="42.9253400" lon="-8.0960590">
        <ele>419.1</ele>
        <time>2020-04-17T18:00:21Z</time>
      </trkpt>
      <trkpt lat="42.9253630" lon="-8.0961080">
        <ele>419.2</ele>
        <time>2020-04-17T18:00:23Z</time>
      </trkpt>
      <trkpt lat="42.9254520" lon="-8.0962990">
        <ele>419.9</ele>
        <time>2020-04-17T18:00:25Z</time>
      </trkpt>
      <trkpt lat="42.9254520" lon="-8.0962990">
        <ele>419.9</ele>
        <time>2020-04-17T18:00:27Z</time>
      </trkpt>
      <trkpt lat="42.9254620" lon="-8.0963190">
        <ele>420.0</ele>
        <time>2020-04-17T18:00:29Z</time>
      </trkpt>
      <trkpt lat="42.9254920" lon="-8.0963750">
        <ele>420.2</ele>
        <time>2020-04-17T18:00:31Z</time>
      </trkpt>
      <trkpt lat="42.9255320" lon="-8.0964500">
        <ele>420.5</ele>
        <time>2020-04-17T18:00:33Z</time>
      </trkpt>
      <trkpt lat="42.9256200" lon="-8.0966100">
        <ele>421.2</ele>
        <time>2020-04-17T18:00:35Z</time>
      </trkpt>
      <trkpt lat="42.9256780" lon="-8.0966850">
        <ele>421.5</ele>
        <time>2020-04-17T18:00:37Z</time>
      </trkpt>
      <trkpt lat="42.9257360" lon="-8.0967590">
        <ele>421.9</ele>
        <time>2020-04-17T18:00:39Z</time>
      </trkpt>
      <trkpt lat="42.9257930" lon="-8.0968340">
        <ele>422.3</ele>
        <time>2020-04-17T18:00:41Z</time>
      </trkpt>
      <trkpt lat="42.9259300" lon="-8.0969780">
        <ele>423.0</ele>
        <time>2020-04-17T18:00:43Z</time>
      </trkpt>
      <trkpt lat="42.9259990" lon="-8.0970300">
        <ele>423.3</ele>
        <time>2020-04-17T18:00:45Z</time>
      </trkpt>
      <trkpt lat="42.9260680" lon="-8.0970820">
        <ele>423.5</ele>
        <time>2020-04-17T18:00:47Z</time>
      </trkpt>
      <trkpt lat="42.9261360" lon="-8.0971330">
        <ele>423.8</ele>
        <time>2020-04-17T18:00:49Z</time>
      </trkpt>
      <trkpt lat="42.9262050" lon="-8.0971850">
        <ele>424.1</ele>
        <time>2020-04-17T18:00:51Z</time>
      </trkpt>
      <trkpt lat="42.9264100" lon="-8.0973120">
        <ele>424.9</ele>
        <time>2020-04-17T18:00:53Z</time>
      </trkpt>
      <trkpt lat="42.9265000" lon="-8.0973390">
        <ele>425.3</ele>
        <time>2020-04-17T18:00:55Z</time>
      </trkpt>
      <trkpt lat="42.9266000" lon="-8.0973700">
        <ele>425.5</ele>
        <time>2020-04-17T18:00:57Z</time>
      </trkpt>
      <trkpt lat="42.9267060" lon="-8.0974020">
        <ele>425.7</ele>
        <time>2020-04-17T18:00:59Z</time>
      </trkpt>
      <trkpt lat="42.9268170" lon="-8.0974360">
        <ele>425.8</ele>
        <time>2020-04-17T18:01:01Z</time>
      </trkpt>
      <trkpt lat="42.9271140" lon="-8.0975300">
        <ele>425.6</ele>
        <time>2020-04-17T18:01:03Z</time>
      </trkpt>
      <trkpt lat="42.9272310" lon="-8.0975700">
        <ele>425.5</ele>
        <time>2020-04-17T18:01:05Z</time>
      </trkpt>
      <trkpt lat="42.9273490" lon="-8.0976110">
        <ele>425.2</ele>
        <time>2020-04-17T18:01:07Z</time>
      </trkpt>
      <trkpt lat="42.9274710" lon="-8.0976530">
        <ele>424.8</ele>
        <time>2020-04-17T18:01:09Z</time>
      </trkpt>
      <trkpt lat="42.9277880" lon="-8.0977660">
        <ele>423.2</ele>
        <time>2020-04-17T18:01:11Z</time>
      </trkpt>
      <trkpt lat="42.9279180" lon="-8.0978260">
        <ele>422.5</ele>
        <time>2020-04-17T18:01:13Z</time>
      </trkpt>
      <trkpt lat="42.9281480" lon="-8.0979470">
        <ele>421.0</ele>
        <time>2020-04-17T18:01:15Z</time>
      </trkpt>
      <trkpt lat="42.9282730" lon="-8.0980810">
        <ele>420.0</ele>
        <time>2020-04-17T18:01:17Z</time>
      </trkpt>
      <trkpt lat="42.9284590" lon="-8.0983190">
        <ele>418.4</ele>
        <time>2020-04-17T18:01:19Z</time>
      </trkpt>
      <trkpt lat="42.9286160" lon="-8.0986040">
        <ele>416.7</ele>
        <time>2020-04-17T18:01:21Z</time>
      </trkpt>
      <trkpt lat="42.9286970" lon="-8.0988290">
        <ele>415.5</ele>
        <time>2020-04-17T18:01:23Z</time>
      </trkpt>
      <trkpt lat="42.9288000" lon="-8.0992050">
        <ele>413.6</ele>
        <time>2020-04-17T18:01:25Z</time>
      </trkpt>
      <trkpt lat="42.9288750" lon="-8.0996020">
        <ele>411.6</ele>
        <time>2020-04-17T18:01:27Z</time>
      </trkpt>
      <trkpt lat="42.9289200" lon="-8.0999830">
        <ele>409.9</ele>
        <time>2020-04-17T18:01:29Z</time>
      </trkpt>
      <trkpt lat="42.9289510" lon="-8.1002480">
        <ele>408.9</ele>
        <time>2020-04-17T18:01:31Z</time>
      </trkpt>
      <trkpt lat="42.9289900" lon="-8.1006410">
        <ele>407.9</ele>
        <time>2020-04-17T18:01:33Z</time>
      </trkpt>
      <trkpt lat="42.9290120" lon="-8.1008910">
        <ele>407.2</ele>
        <time>2020-04-17T18:01:35Z</time>
      </trkpt>
      <trkpt lat="42.9290500" lon="-8.1013300">
        <ele>406.5</ele>
        <time>2020-04-17T18:01:37Z</time>
      </trkpt>
      <trkpt lat="42.9290820" lon="-8.1016860">
        <ele>405.1</ele>
        <time>2020-04-17T18:01:39Z</time>
      </trkpt>
      <trkpt lat="42.9291060" lon="-8.1019420">
        <ele>404.2</ele>
        <time>2020-04-17T18:01:41Z</time>
      </trkpt>
      <trkpt lat="42.9291520" lon="-8.1023740">
        <ele>402.6</ele>
        <time>2020-04-17T18:01:43Z</time>
      </trkpt>
      <trkpt lat="42.9292060" lon="-8.1027560">
        <ele>401.4</ele>
        <time>2020-04-17T18:01:45Z</time>
      </trkpt>
      <trkpt lat="42.9292870" lon="-8.1031310">
        <ele>400.7</ele>
        <time>2020-04-17T18:01:47Z</time>
      </trkpt>
      <trkpt lat="42.9293990" lon="-8.1034460">
        <ele>400.0</ele>
        <time>2020-04-17T18:01:49Z</time>
      </trkpt>
      <trkpt lat="42.9295030" lon="-8.1036750">
        <ele>399.3</ele>
        <time>2020-04-17T18:01:51Z</time>
      </trkpt>
      <trkpt lat="42.9296880" lon="-8.1040750">
        <ele>397.9</ele>
        <time>2020-04-17T18:01:53Z</time>
      </trkpt>
      <trkpt lat="42.9297930" lon="-8.1043000">
        <ele>396.9</ele>
        <time>2020-04-17T18:01:55Z</time>
      </trkpt>
      <trkpt lat="42.9298970" lon="-8.1045230">
        <ele>396.0</ele>
        <time>2020-04-17T18:01:57Z</time>
      </trkpt>
      <trkpt lat="42.9300990" lon="-8.1049890">
        <ele>395.0</ele>
        <time>2020-04-17T18:01:59Z</time>
      </trkpt>
      <trkpt lat="42.9301780" lon="-8.1052930">
        <ele>393.9</ele>
        <time>2020-04-17T18:02:01Z</time>
      </trkpt>
      <trkpt lat="42.9302190" lon="-8.1055940">
        <ele>393.1</ele>
        <time>2020-04-17T18:02:03Z</time>
      </trkpt>
      <trkpt lat="42.9302180" lon="-8.1059860">
        <ele>392.4</ele>
        <time>2020-04-17T18:02:05Z</time>
      </trkpt>
      <trkpt lat="42.9301810" lon="-8.1063100">
        <ele>392.1</ele>
        <time>2020-04-17T18:02:07Z</time>
      </trkpt>
      <trkpt lat="42.9301490" lon="-8.1065320">
        <ele>392.2</ele>
        <time>2020-04-17T18:02:09Z</time>
      </trkpt>
      <trkpt lat="42.9301180" lon="-8.1067380">
        <ele>392.5</ele>
        <time>2020-04-17T18:02:11Z</time>
      </trkpt>
      <trkpt lat="42.9300900" lon="-8.1069270">
        <ele>392.9</ele>
        <time>2020-04-17T18:02:13Z</time>
      </trkpt>
      <trkpt lat="42.9300190" lon="-8.1073900">
        <ele>394.0</ele>
        <time>2020-04-17T18:02:15Z</time>
      </trkpt>
      <trkpt lat="42.9299910" lon="-8.1075530">
        <ele>394.4</ele>
        <time>2020-04-17T18:02:17Z</time>
      </trkpt>
      <trkpt lat="42.9299650" lon="-8.1077040">
        <ele>395.0</ele>
        <time>2020-04-17T18:02:19Z</time>
      </trkpt>
      <trkpt lat="42.9299410" lon="-8.1078460">
        <ele>395.6</ele>
        <time>2020-04-17T18:02:21Z</time>
      </trkpt>
      <trkpt lat="42.9299180" lon="-8.1079800">
        <ele>396.2</ele>
        <time>2020-04-17T18:02:23Z</time>
      </trkpt>
      <trkpt lat="42.9298660" lon="-8.1083480">
        <ele>397.7</ele>
        <time>2020-04-17T18:02:25Z</time>
      </trkpt>
      <trkpt lat="42.9298590" lon="-8.1084600">
        <ele>398.1</ele>
        <time>2020-04-17T18:02:27Z</time>
      </trkpt>
      <trkpt lat="42.9298510" lon="-8.1085620">
        <ele>398.5</ele>
        <time>2020-04-17T18:02:29Z</time>
      </trkpt>
      <trkpt lat="42.9298470" lon="-8.1087800">
        <ele>399.4</ele>
        <time>2020-04-17T18:02:31Z</time>
      </trkpt>
      <trkpt lat="42.9298500" lon="-8.1088650">
        <ele>399.8</ele>
        <time>2020-04-17T18:02:33Z</time>
      </trkpt>
      <trkpt lat="42.9298530" lon="-8.1089450">
        <ele>400.1</ele>
        <time>2020-04-17T18:02:35Z</time>
      </trkpt>
      <trkpt lat="42.9298730" lon="-8.1091150">
        <ele>400.9</ele>
        <time>2020-04-17T18:02:37Z</time>
      </trkpt>
      <trkpt lat="42.9298920" lon="-8.1091840">
        <ele>401.3</ele>
        <time>2020-04-17T18:02:39Z</time>
      </trkpt>
      <trkpt lat="42.9299120" lon="-8.1092590">
        <ele>401.7</ele>
        <time>2020-04-17T18:02:41Z</time>
      </trkpt>
      <trkpt lat="42.9299330" lon="-8.1093360">
        <ele>402.1</ele>
        <time>2020-04-17T18:02:43Z</time>
      </trkpt>
      <trkpt lat="42.9299890" lon="-8.1095310">
        <ele>403.1</ele>
        <time>2020-04-17T18:02:45Z</time>
      </trkpt>
      <trkpt lat="42.9300220" lon="-8.1096020">
        <ele>403.6</ele>
        <time>2020-04-17T18:02:47Z</time>
      </trkpt>
      <trkpt lat="42.9300560" lon="-8.1096740">
        <ele>404.0</ele>
        <time>2020-04-17T18:02:49Z</time>
      </trkpt>
      <trkpt lat="42.9301270" lon="-8.1098130">
        <ele>404.8</ele>
        <time>2020-04-17T18:02:51Z</time>
      </trkpt>
      <trkpt lat="42.9301670" lon="-8.1098790">
        <ele>405.1</ele>
        <time>2020-04-17T18:02:53Z</time>
      </trkpt>
      <trkpt lat="42.9302060" lon="-8.1099450">
        <ele>405.3</ele>
        <time>2020-04-17T18:02:55Z</time>
      </trkpt>
      <trkpt lat="42.9302890" lon="-8.1100590">
        <ele>405.7</ele>
        <time>2020-04-17T18:02:57Z</time>
      </trkpt>
      <trkpt lat="42.9303370" lon="-8.1101140">
        <ele>405.9</ele>
        <time>2020-04-17T18:02:59Z</time>
      </trkpt>
      <trkpt lat="42.9303850" lon="-8.1101680">
        <ele>406.3</ele>
        <time>2020-04-17T18:03:01Z</time>
      </trkpt>
      <trkpt lat="42.9304940" lon="-8.1102800">
        <ele>407.2</ele>
        <time>2020-04-17T18:03:03Z</time>
      </trkpt>
      <trkpt lat="42.9305470" lon="-8.1103240">
        <ele>407.6</ele>
        <time>2020-04-17T18:03:05Z</time>
      </trkpt>
      <trkpt lat="42.9306530" lon="-8.1104110">
        <ele>408.5</ele>
        <time>2020-04-17T18:03:07Z</time>
      </trkpt>
      <trkpt lat="42.9307110" lon="-8.1104470">
        <ele>408.9</ele>
        <time>2020-04-17T18:03:09Z</time>
      </trkpt>
      <trkpt lat="42.9307680" lon="-8.1104820">
        <ele>409.4</ele>
        <time>2020-04-17T18:03:11Z</time>
      </trkpt>
      <trkpt lat="42.9308230" lon="-8.1105160">
        <ele>409.8</ele>
        <time>2020-04-17T18:03:13Z</time>
      </trkpt>
      <trkpt lat="42.9308780" lon="-8.1105500">
        <ele>410.2</ele>
        <time>2020-04-17T18:03:15Z</time>
      </trkpt>
      <trkpt lat="42.9309330" lon="-8.1105840">
        <ele>410.7</ele>
        <time>2020-04-17T18:03:17Z</time>
      </trkpt>
      <trkpt lat="42.9309870" lon="-8.1106170">
        <ele>411.1</ele>
        <time>2020-04-17T18:03:19Z</time>
      </trkpt>
      <trkpt lat="42.9310420" lon="-8.1106510">
        <ele>411.5</ele>
        <time>2020-04-17T18:03:21Z</time>
      </trkpt>
      <trkpt lat="42.9310970" lon="-8.1106850">
        <ele>412.0</ele>
        <time>2020-04-17T18:03:23Z</time>
      </trkpt>
      <trkpt lat="42.9311520" lon="-8.1107190">
        <ele>412.4</ele>
        <time>2020-04-17T18:03:25Z</time>
      </trkpt>
      <trkpt lat="42.9313920" lon="-8.1108710">
        <ele>414.5</ele>
        <time>2020-04-17T18:03:27Z</time>
      </trkpt>
      <trkpt lat="42.9314450" lon="-8.1109090">
        <ele>414.9</ele>
        <time>2020-04-17T18:03:29Z</time>
      </trkpt>
      <trkpt lat="42.9314980" lon="-8.1109470">
        <ele>415.4</ele>
        <time>2020-04-17T18:03:31Z</time>
      </trkpt>
      <trkpt lat="42.9315990" lon="-8.1110390">
        <ele>416.3</ele>
        <time>2020-04-17T18:03:33Z</time>
      </trkpt>
      <trkpt lat="42.9316440" lon="-8.1110920">
        <ele>416.7</ele>
        <time>2020-04-17T18:03:35Z</time>
      </trkpt>
      <trkpt lat="42.9316900" lon="-8.1111460">
        <ele>417.1</ele>
        <time>2020-04-17T18:03:37Z</time>
      </trkpt>
      <trkpt lat="42.9317860" lon="-8.1112700">
        <ele>418.0</ele>
        <time>2020-04-17T18:03:39Z</time>
      </trkpt>
      <trkpt lat="42.9318350" lon="-8.1113440">
        <ele>418.5</ele>
        <time>2020-04-17T18:03:41Z</time>
      </trkpt>
      <trkpt lat="42.9319290" lon="-8.1114940">
        <ele>419.5</ele>
        <time>2020-04-17T18:03:43Z</time>
      </trkpt>
      <trkpt lat="42.9319650" lon="-8.1115940">
        <ele>420.0</ele>
        <time>2020-04-17T18:03:45Z</time>
      </trkpt>
      <trkpt lat="42.9320290" lon="-8.1117730">
        <ele>420.7</ele>
        <time>2020-04-17T18:03:47Z</time>
      </trkpt>
      <trkpt lat="42.9320550" lon="-8.1118850">
        <ele>421.1</ele>
        <time>2020-04-17T18:03:49Z</time>
      </trkpt>
      <trkpt lat="42.9320880" lon="-8.1120760">
        <ele>421.6</ele>
        <time>2020-04-17T18:03:51Z</time>
      </trkpt>
      <trkpt lat="42.9320910" lon="-8.1121950">
        <ele>421.8</ele>
        <time>2020-04-17T18:03:53Z</time>
      </trkpt>
      <trkpt lat="42.9320840" lon="-8.1123890">
        <ele>422.2</ele>
        <time>2020-04-17T18:03:55Z</time>
      </trkpt>
      <trkpt lat="42.9320660" lon="-8.1125560">
        <ele>422.4</ele>
        <time>2020-04-17T18:03:57Z</time>
      </trkpt>
      <trkpt lat="42.9320390" lon="-8.1127030">
        <ele>422.3</ele>
        <time>2020-04-17T18:03:59Z</time>
      </trkpt>
      <trkpt lat="42.9319960" lon="-8.1128770">
        <ele>422.0</ele>
        <time>2020-04-17T18:04:01Z</time>
      </trkpt>
      <trkpt lat="42.9319380" lon="-8.1130780">
        <ele>421.5</ele>
        <time>2020-04-17T18:04:03Z</time>
      </trkpt>
      <trkpt lat="42.9318940" lon="-8.1132000">
        <ele>421.1</ele>
        <time>2020-04-17T18:04:05Z</time>
      </trkpt>
      <trkpt lat="42.9318500" lon="-8.1133240">
        <ele>420.6</ele>
        <time>2020-04-17T18:04:07Z</time>
      </trkpt>
      <trkpt lat="42.9317550" lon="-8.1135870">
        <ele>419.9</ele>
        <time>2020-04-17T18:04:09Z</time>
      </trkpt>
      <trkpt lat="42.9316970" lon="-8.1137540">
        <ele>419.5</ele>
        <time>2020-04-17T18:04:11Z</time>
      </trkpt>
      <trkpt lat="42.9316560" lon="-8.1139010">
        <ele>418.9</ele>
        <time>2020-04-17T18:04:13Z</time>
      </trkpt>
      <trkpt lat="42.9315860" lon="-8.1141690">
        <ele>417.6</ele>
        <time>2020-04-17T18:04:15Z</time>
      </trkpt>
      <trkpt lat="42.9315430" lon="-8.1144170">
        <ele>416.4</ele>
        <time>2020-04-17T18:04:17Z</time>
      </trkpt>
      <trkpt lat="42.9315220" lon="-8.1146150">
        <ele>415.4</ele>
        <time>2020-04-17T18:04:19Z</time>
      </trkpt>
      <trkpt lat="42.9314820" lon="-8.1150010">
        <ele>413.4</ele>
        <time>2020-04-17T18:04:21Z</time>
      </trkpt>
      <trkpt lat="42.9314580" lon="-8.1152330">
        <ele>412.2</ele>
        <time>2020-04-17T18:04:23Z</time>
      </trkpt>
      <trkpt lat="42.9314150" lon="-8.1156460">
        <ele>410.2</ele>
        <time>2020-04-17T18:04:25Z</time>
      </trkpt>
      <trkpt lat="42.9313830" lon="-8.1159030">
        <ele>408.8</ele>
        <time>2020-04-17T18:04:27Z</time>
      </trkpt>
      <trkpt lat="42.9313510" lon="-8.1161690">
        <ele>407.2</ele>
        <time>2020-04-17T18:04:29Z</time>
      </trkpt>
      <trkpt lat="42.9312720" lon="-8.1167300">
        <ele>404.1</ele>
        <time>2020-04-17T18:04:31Z</time>
      </trkpt>
      <trkpt lat="42.9312020" lon="-8.1169980">
        <ele>402.8</ele>
        <time>2020-04-17T18:04:33Z</time>
      </trkpt>
      <trkpt lat="42.9310720" lon="-8.1174750">
        <ele>401.3</ele>
        <time>2020-04-17T18:04:35Z</time>
      </trkpt>
      <trkpt lat="42.9309770" lon="-8.1177340">
        <ele>399.7</ele>
        <time>2020-04-17T18:04:37Z</time>
      </trkpt>
      <trkpt lat="42.9308350" lon="-8.1181240">
        <ele>397.1</ele>
        <time>2020-04-17T18:04:39Z</time>
      </trkpt>
      <trkpt lat="42.9306630" lon="-8.1185020">
        <ele>394.6</ele>
        <time>2020-04-17T18:04:41Z</time>
      </trkpt>
      <trkpt lat="42.9305170" lon="-8.1187430">
        <ele>392.7</ele>
        <time>2020-04-17T18:04:43Z</time>
      </trkpt>
      <trkpt lat="42.9302540" lon="-8.1191770">
        <ele>389.6</ele>
        <time>2020-04-17T18:04:45Z</time>
      </trkpt>
      <trkpt lat="42.9301100" lon="-8.1194140">
        <ele>387.9</ele>
        <time>2020-04-17T18:04:47Z</time>
      </trkpt>
      <trkpt lat="42.9298710" lon="-8.1198070">
        <ele>385.2</ele>
        <time>2020-04-17T18:04:49Z</time>
      </trkpt>
      <trkpt lat="42.9297110" lon="-8.1200650">
        <ele>383.3</ele>
        <time>2020-04-17T18:04:51Z</time>
      </trkpt>
      <trkpt lat="42.9295020" lon="-8.1203910">
        <ele>380.9</ele>
        <time>2020-04-17T18:04:53Z</time>
      </trkpt>
      <trkpt lat="42.9293740" lon="-8.1205790">
        <ele>379.3</ele>
        <time>2020-04-17T18:04:55Z</time>
      </trkpt>
      <trkpt lat="42.9292390" lon="-8.1207760">
        <ele>377.8</ele>
        <time>2020-04-17T18:04:57Z</time>
      </trkpt>
      <trkpt lat="42.9291200" lon="-8.1209350">
        <ele>376.5</ele>
        <time>2020-04-17T18:04:59Z</time>
      </trkpt>
      <trkpt lat="42.9289680" lon="-8.1211330">
        <ele>375.0</ele>
        <time>2020-04-17T18:05:01Z</time>
      </trkpt>
      <trkpt lat="42.9286920" lon="-8.1214480">
        <ele>372.1</ele>
        <time>2020-04-17T18:05:03Z</time>
      </trkpt>
      <trkpt lat="42.9283950" lon="-8.1217480">
        <ele>369.3</ele>
        <time>2020-04-17T18:05:05Z</time>
      </trkpt>
      <trkpt lat="42.9281140" lon="-8.1219990">
        <ele>367.1</ele>
        <time>2020-04-17T18:05:07Z</time>
      </trkpt>
      <trkpt lat="42.9279110" lon="-8.1221680">
        <ele>365.7</ele>
        <time>2020-04-17T18:05:09Z</time>
      </trkpt>
      <trkpt lat="42.9275870" lon="-8.1224380">
        <ele>363.1</ele>
        <time>2020-04-17T18:05:11Z</time>
      </trkpt>
      <trkpt lat="42.9273840" lon="-8.1226080">
        <ele>361.4</ele>
        <time>2020-04-17T18:05:13Z</time>
      </trkpt>
      <trkpt lat="42.9270670" lon="-8.1229000">
        <ele>358.6</ele>
        <time>2020-04-17T18:05:15Z</time>
      </trkpt>
      <trkpt lat="42.9267690" lon="-8.1232530">
        <ele>355.5</ele>
        <time>2020-04-17T18:05:17Z</time>
      </trkpt>
      <trkpt lat="42.9265650" lon="-8.1235900">
        <ele>352.8</ele>
        <time>2020-04-17T18:05:19Z</time>
      </trkpt>
      <trkpt lat="42.9263840" lon="-8.1239930">
        <ele>351.0</ele>
        <time>2020-04-17T18:05:21Z</time>
      </trkpt>
      <trkpt lat="42.9262970" lon="-8.1243170">
        <ele>349.8</ele>
        <time>2020-04-17T18:05:23Z</time>
      </trkpt>
      <trkpt lat="42.9261930" lon="-8.1248010">
        <ele>347.2</ele>
        <time>2020-04-17T18:05:25Z</time>
      </trkpt>
      <trkpt lat="42.9260950" lon="-8.1253110">
        <ele>344.5</ele>
        <time>2020-04-17T18:05:27Z</time>
      </trkpt>
      <trkpt lat="42.9260000" lon="-8.1258070">
        <ele>342.1</ele>
        <time>2020-04-17T18:05:29Z</time>
      </trkpt>
      <trkpt lat="42.9259410" lon="-8.1261170">
        <ele>340.6</ele>
        <time>2020-04-17T18:05:31Z</time>
      </trkpt>
      <trkpt lat="42.9258390" lon="-8.1266480">
        <ele>338.1</ele>
        <time>2020-04-17T18:05:33Z</time>
      </trkpt>
      <trkpt lat="42.9257800" lon="-8.1269630">
        <ele>336.7</ele>
        <time>2020-04-17T18:05:35Z</time>
      </trkpt>
      <trkpt lat="42.9257240" lon="-8.1272620">
        <ele>335.4</ele>
        <time>2020-04-17T18:05:37Z</time>
      </trkpt>
      <trkpt lat="42.9256180" lon="-8.1278280">
        <ele>332.8</ele>
        <time>2020-04-17T18:05:39Z</time>
      </trkpt>
      <trkpt lat="42.9255340" lon="-8.1282800">
        <ele>332.0</ele>
        <time>2020-04-17T18:05:41Z</time>
      </trkpt>
      <trkpt lat="42.9254540" lon="-8.1287140">
        <ele>330.2</ele>
        <time>2020-04-17T18:05:43Z</time>
      </trkpt>
      <trkpt lat="42.9253980" lon="-8.1290190">
        <ele>328.8</ele>
        <time>2020-04-17T18:05:45Z</time>
      </trkpt>
      <trkpt lat="42.9253440" lon="-8.1293180">
        <ele>327.3</ele>
        <time>2020-04-17T18:05:47Z</time>
      </trkpt>
      <trkpt lat="42.9252540" lon="-8.1298770">
        <ele>324.4</ele>
        <time>2020-04-17T18:05:49Z</time>
      </trkpt>
      <trkpt lat="42.9252100" lon="-8.1302990">
        <ele>322.5</ele>
        <time>2020-04-17T18:05:51Z</time>
      </trkpt>
      <trkpt lat="42.9252030" lon="-8.1306830">
        <ele>320.7</ele>
        <time>2020-04-17T18:05:53Z</time>
      </trkpt>
      <trkpt lat="42.9252310" lon="-8.1310780">
        <ele>319.1</ele>
        <time>2020-04-17T18:05:55Z</time>
      </trkpt>
      <trkpt lat="42.9252700" lon="-8.1314800">
        <ele>318.6</ele>
        <time>2020-04-17T18:05:57Z</time>
      </trkpt>
      <trkpt lat="42.9253050" lon="-8.1318480">
        <ele>318.0</ele>
        <time>2020-04-17T18:05:59Z</time>
      </trkpt>
      <trkpt lat="42.9253410" lon="-8.1322240">
        <ele>317.6</ele>
        <time>2020-04-17T18:06:01Z</time>
      </trkpt>
      <trkpt lat="42.9253760" lon="-8.1325810">
        <ele>317.4</ele>
        <time>2020-04-17T18:06:03Z</time>
      </trkpt>
      <trkpt lat="42.9254090" lon="-8.1328970">
        <ele>317.2</ele>
        <time>2020-04-17T18:06:05Z</time>
      </trkpt>
      <trkpt lat="42.9254350" lon="-8.1331110">
        <ele>317.2</ele>
        <time>2020-04-17T18:06:07Z</time>
      </trkpt>
      <trkpt lat="42.9254890" lon="-8.1334460">
        <ele>317.5</ele>
        <time>2020-04-17T18:06:09Z</time>
      </trkpt>
      <trkpt lat="42.9255310" lon="-8.1336270">
        <ele>317.8</ele>
        <time>2020-04-17T18:06:11Z</time>
      </trkpt>
      <trkpt lat="42.9256030" lon="-8.1339180">
        <ele>318.2</ele>
        <time>2020-04-17T18:06:13Z</time>
      </trkpt>
      <trkpt lat="42.9256450" lon="-8.1340680">
        <ele>318.5</ele>
        <time>2020-04-17T18:06:15Z</time>
      </trkpt>
      <trkpt lat="42.9257230" lon="-8.1343280">
        <ele>319.2</ele>
        <time>2020-04-17T18:06:17Z</time>
      </trkpt>
      <trkpt lat="42.9257720" lon="-8.1344480">
        <ele>319.5</ele>
        <time>2020-04-17T18:06:19Z</time>
      </trkpt>
      <trkpt lat="42.9258170" lon="-8.1345600">
        <ele>320.0</ele>
        <time>2020-04-17T18:06:21Z</time>
      </trkpt>
      <trkpt lat="42.9259170" lon="-8.1348050">
        <ele>321.5</ele>
        <time>2020-04-17T18:06:23Z</time>
      </trkpt>
      <trkpt lat="42.9259620" lon="-8.1348950">
        <ele>322.1</ele>
        <time>2020-04-17T18:06:25Z</time>
      </trkpt>
      <trkpt lat="42.9260030" lon="-8.1349760">
        <ele>322.6</ele>
        <time>2020-04-17T18:06:27Z</time>
      </trkpt>
      <trkpt lat="42.9260390" lon="-8.1350480">
        <ele>323.1</ele>
        <time>2020-04-17T18:06:29Z</time>
      </trkpt>
      <trkpt lat="42.9260720" lon="-8.1351140">
        <ele>323.6</ele>
        <time>2020-04-17T18:06:31Z</time>
      </trkpt>
      <trkpt lat="42.9261700" lon="-8.1353060">
        <ele>324.9</ele>
        <time>2020-04-17T18:06:33Z</time>
      </trkpt>
      <trkpt lat="42.9262030" lon="-8.1353580">
        <ele>325.3</ele>
        <time>2020-04-17T18:06:35Z</time>
      </trkpt>
      <trkpt lat="42.9262340" lon="-8.1354080">
        <ele>325.6</ele>
        <time>2020-04-17T18:06:37Z</time>
      </trkpt>
      <trkpt lat="42.9262650" lon="-8.1354590">
        <ele>325.9</ele>
        <time>2020-04-17T18:06:39Z</time>
      </trkpt>
      <trkpt lat="42.9262960" lon="-8.1355070">
        <ele>326.3</ele>
        <time>2020-04-17T18:06:41Z</time>
      </trkpt>
      <trkpt lat="42.9263250" lon="-8.1355550">
        <ele>326.7</ele>
        <time>2020-04-17T18:06:43Z</time>
      </trkpt>
      <trkpt lat="42.9263540" lon="-8.1356020">
        <ele>327.0</ele>
        <time>2020-04-17T18:06:45Z</time>
      </trkpt>
      <trkpt lat="42.9264580" lon="-8.1357640">
        <ele>328.1</ele>
        <time>2020-04-17T18:06:47Z</time>
      </trkpt>
      <trkpt lat="42.9264900" lon="-8.1358050">
        <ele>328.5</ele>
        <time>2020-04-17T18:06:49Z</time>
      </trkpt>
      <trkpt lat="42.9265260" lon="-8.1358510">
        <ele>328.8</ele>
        <time>2020-04-17T18:06:51Z</time>
      </trkpt>
      <trkpt lat="42.9265650" lon="-8.1359030">
        <ele>329.2</ele>
        <time>2020-04-17T18:06:53Z</time>
      </trkpt>
      <trkpt lat="42.9266060" lon="-8.1359550">
        <ele>329.5</ele>
        <time>2020-04-17T18:06:55Z</time>
      </trkpt>
      <trkpt lat="42.9267150" lon="-8.1360830">
        <ele>330.1</ele>
        <time>2020-04-17T18:06:57Z</time>
      </trkpt>
      <trkpt lat="42.9267660" lon="-8.1361310">
        <ele>330.4</ele>
        <time>2020-04-17T18:06:59Z</time>
      </trkpt>
      <trkpt lat="42.9268200" lon="-8.1361800">
        <ele>330.7</ele>
        <time>2020-04-17T18:07:01Z</time>
      </trkpt>
      <trkpt lat="42.9268740" lon="-8.1362300">
        <ele>331.1</ele>
        <time>2020-04-17T18:07:03Z</time>
      </trkpt>
      <trkpt lat="42.9270100" lon="-8.1363480">
        <ele>332.1</ele>
        <time>2020-04-17T18:07:05Z</time>
      </trkpt>
      <trkpt lat="42.9270680" lon="-8.1363880">
        <ele>332.5</ele>
        <time>2020-04-17T18:07:07Z</time>
      </trkpt>
      <trkpt lat="42.9271250" lon="-8.1364280">
        <ele>332.9</ele>
        <time>2020-04-17T18:07:09Z</time>
      </trkpt>
      <trkpt lat="42.9272560" lon="-8.1365170">
        <ele>333.7</ele>
        <time>2020-04-17T18:07:11Z</time>
      </trkpt>
      <trkpt lat="42.9273180" lon="-8.1365420">
        <ele>334.1</ele>
        <time>2020-04-17T18:07:13Z</time>
      </trkpt>
      <trkpt lat="42.9273790" lon="-8.1365680">
        <ele>334.5</ele>
        <time>2020-04-17T18:07:15Z</time>
      </trkpt>
      <trkpt lat="42.9274410" lon="-8.1365930">
        <ele>334.8</ele>
        <time>2020-04-17T18:07:17Z</time>
      </trkpt>
      <trkpt lat="42.9275800" lon="-8.1366390">
        <ele>335.6</ele>
        <time>2020-04-17T18:07:19Z</time>
      </trkpt>
      <trkpt lat="42.9276420" lon="-8.1366500">
        <ele>335.9</ele>
        <time>2020-04-17T18:07:21Z</time>
      </trkpt>
      <trkpt lat="42.9277650" lon="-8.1366700">
        <ele>336.5</ele>
        <time>2020-04-17T18:07:23Z</time>
      </trkpt>
      <trkpt lat="42.9278270" lon="-8.1366610">
        <ele>336.7</ele>
        <time>2020-04-17T18:07:25Z</time>
      </trkpt>
      <trkpt lat="42.9278870" lon="-8.1366520">
        <ele>337.0</ele>
        <time>2020-04-17T18:07:27Z</time>
      </trkpt>
      <trkpt lat="42.9279480" lon="-8.1366430">
        <ele>337.3</ele>
        <time>2020-04-17T18:07:29Z</time>
      </trkpt>
      <trkpt lat="42.9280880" lon="-8.1366190">
        <ele>337.8</ele>
        <time>2020-04-17T18:07:31Z</time>
      </trkpt>
      <trkpt lat="42.9281470" lon="-8.1365970">
        <ele>338.0</ele>
        <time>2020-04-17T18:07:33Z</time>
      </trkpt>
      <trkpt lat="42.9282050" lon="-8.1365760">
        <ele>338.2</ele>
        <time>2020-04-17T18:07:35Z</time>
      </trkpt>
      <trkpt lat="42.9282630" lon="-8.1365540">
        <ele>338.4</ele>
        <time>2020-04-17T18:07:37Z</time>
      </trkpt>
      <trkpt lat="42.9283970" lon="-8.1364950">
        <ele>338.8</ele>
        <time>2020-04-17T18:07:39Z</time>
      </trkpt>
      <trkpt lat="42.9284520" lon="-8.1364590">
        <ele>338.9</ele>
        <time>2020-04-17T18:07:41Z</time>
      </trkpt>
      <trkpt lat="42.9285560" lon="-8.1363910">
        <ele>339.1</ele>
        <time>2020-04-17T18:07:43Z</time>
      </trkpt>
      <trkpt lat="42.9286120" lon="-8.1363390">
        <ele>339.3</ele>
        <time>2020-04-17T18:07:45Z</time>
      </trkpt>
      <trkpt lat="42.9286780" lon="-8.1362780">
        <ele>339.4</ele>
        <time>2020-04-17T18:07:47Z</time>
      </trkpt>
      <trkpt lat="42.9287520" lon="-8.1362110">
        <ele>339.6</ele>
        <time>2020-04-17T18:07:49Z</time>
      </trkpt>
      <trkpt lat="42.9288300" lon="-8.1361390">
        <ele>339.7</ele>
        <time>2020-04-17T18:07:51Z</time>
      </trkpt>
      <trkpt lat="42.9289130" lon="-8.1360630">
        <ele>339.8</ele>
        <time>2020-04-17T18:07:53Z</time>
      </trkpt>
      <trkpt lat="42.9289990" lon="-8.1359840">
        <ele>339.9</ele>
        <time>2020-04-17T18:07:55Z</time>
      </trkpt>
      <trkpt lat="42.9292650" lon="-8.1357510">
        <ele>340.2</ele>
        <time>2020-04-17T18:07:57Z</time>
      </trkpt>
      <trkpt lat="42.9294160" lon="-8.1356370">
        <ele>340.4</ele>
        <time>2020-04-17T18:07:59Z</time>
      </trkpt>
      <trkpt lat="42.9295520" lon="-8.1355500">
        <ele>340.5</ele>
        <time>2020-04-17T18:08:01Z</time>
      </trkpt>
      <trkpt lat="42.9296570" lon="-8.1354960">
        <ele>340.6</ele>
        <time>2020-04-17T18:08:03Z</time>
      </trkpt>
      <trkpt lat="42.9298350" lon="-8.1354210">
        <ele>340.9</ele>
        <time>2020-04-17T18:08:05Z</time>
      </trkpt>
      <trkpt lat="42.9299820" lon="-8.1353950">
        <ele>341.1</ele>
        <time>2020-04-17T18:08:07Z</time>
      </trkpt>
      <trkpt lat="42.9301260" lon="-8.1353870">
        <ele>341.3</ele>
        <time>2020-04-17T18:08:09Z</time>
      </trkpt>
      <trkpt lat="42.9302740" lon="-8.1354070">
        <ele>341.5</ele>
        <time>2020-04-17T18:08:11Z</time>
      </trkpt>
      <trkpt lat="42.9304270" lon="-8.1354550">
        <ele>341.6</ele>
        <time>2020-04-17T18:08:13Z</time>
      </trkpt>
      <trkpt lat="42.9305270" lon="-8.1354980">
        <ele>341.7</ele>
        <time>2020-04-17T18:08:15Z</time>
      </trkpt>
      <trkpt lat="42.9306770" lon="-8.1355800">
        <ele>342.0</ele>
        <time>2020-04-17T18:08:17Z</time>
      </trkpt>
      <trkpt lat="42.9308160" lon="-8.1356790">
        <ele>342.6</ele>
        <time>2020-04-17T18:08:19Z</time>
      </trkpt>
      <trkpt lat="42.9309260" lon="-8.1357820">
        <ele>343.1</ele>
        <time>2020-04-17T18:08:21Z</time>
      </trkpt>
      <trkpt lat="42.9309910" lon="-8.1358610">
        <ele>343.5</ele>
        <time>2020-04-17T18:08:23Z</time>
      </trkpt>
      <trkpt lat="42.9310820" lon="-8.1359850">
        <ele>344.1</ele>
        <time>2020-04-17T18:08:25Z</time>
      </trkpt>
      <trkpt lat="42.9311310" lon="-8.1360630">
        <ele>344.4</ele>
        <time>2020-04-17T18:08:27Z</time>
      </trkpt>
      <trkpt lat="42.9312020" lon="-8.1362000">
        <ele>345.0</ele>
        <time>2020-04-17T18:08:29Z</time>
      </trkpt>
      <trkpt lat="42.9312370" lon="-8.1362780">
        <ele>345.3</ele>
        <time>2020-04-17T18:08:31Z</time>
      </trkpt>
      <trkpt lat="42.9312870" lon="-8.1364110">
        <ele>345.9</ele>
        <time>2020-04-17T18:08:33Z</time>
      </trkpt>
      <trkpt lat="42.9313110" lon="-8.1364900">
        <ele>346.3</ele>
        <time>2020-04-17T18:08:35Z</time>
      </trkpt>
      <trkpt lat="42.9313480" lon="-8.1366270">
        <ele>346.9</ele>
        <time>2020-04-17T18:08:37Z</time>
      </trkpt>
      <trkpt lat="42.9313710" lon="-8.1367290">
        <ele>347.3</ele>
        <time>2020-04-17T18:08:39Z</time>
      </trkpt>
      <trkpt lat="42.9313910" lon="-8.1368370">
        <ele>347.8</ele>
        <time>2020-04-17T18:08:41Z</time>
      </trkpt>
      <trkpt lat="42.9314000" lon="-8.1369110">
        <ele>348.2</ele>
        <time>2020-04-17T18:08:43Z</time>
      </trkpt>
      <trkpt lat="42.9314140" lon="-8.1370520">
        <ele>348.8</ele>
        <time>2020-04-17T18:08:45Z</time>
      </trkpt>
      <trkpt lat="42.9314170" lon="-8.1371240">
        <ele>349.2</ele>
        <time>2020-04-17T18:08:47Z</time>
      </trkpt>
      <trkpt lat="42.9314200" lon="-8.1371980">
        <ele>349.5</ele>
        <time>2020-04-17T18:08:49Z</time>
      </trkpt>
      <trkpt lat="42.9314230" lon="-8.1372790">
        <ele>349.9</ele>
        <time>2020-04-17T18:08:51Z</time>
      </trkpt>
      <trkpt lat="42.9314290" lon="-8.1374600">
        <ele>350.8</ele>
        <time>2020-04-17T18:08:53Z</time>
      </trkpt>
      <trkpt lat="42.9314290" lon="-8.1375490">
        <ele>351.2</ele>
        <time>2020-04-17T18:08:55Z</time>
      </trkpt>
      <trkpt lat="42.9314290" lon="-8.1376380">
        <ele>351.7</ele>
        <time>2020-04-17T18:08:57Z</time>
      </trkpt>
      <trkpt lat="42.9314290" lon="-8.1377290">
        <ele>352.1</ele>
        <time>2020-04-17T18:08:59Z</time>
      </trkpt>
      <trkpt lat="42.9314290" lon="-8.1378180">
        <ele>352.5</ele>
        <time>2020-04-17T18:09:01Z</time>
      </trkpt>
      <trkpt lat="42.9314270" lon="-8.1380670">
        <ele>353.8</ele>
        <time>2020-04-17T18:09:03Z</time>
      </trkpt>
      <trkpt lat="42.9314260" lon="-8.1381540">
        <ele>354.2</ele>
        <time>2020-04-17T18:09:05Z</time>
      </trkpt>
      <trkpt lat="42.9314250" lon="-8.1382400">
        <ele>354.7</ele>
        <time>2020-04-17T18:09:07Z</time>
      </trkpt>
      <trkpt lat="42.9314240" lon="-8.1383250">
        <ele>355.1</ele>
        <time>2020-04-17T18:09:09Z</time>
      </trkpt>
      <trkpt lat="42.9314230" lon="-8.1384100">
        <ele>355.6</ele>
        <time>2020-04-17T18:09:11Z</time>
      </trkpt>
      <trkpt lat="42.9314200" lon="-8.1386500">
        <ele>356.7</ele>
        <time>2020-04-17T18:09:13Z</time>
      </trkpt>
      <trkpt lat="42.9314190" lon="-8.1387340">
        <ele>357.2</ele>
        <time>2020-04-17T18:09:15Z</time>
      </trkpt>
      <trkpt lat="42.9314190" lon="-8.1388180">
        <ele>357.6</ele>
        <time>2020-04-17T18:09:17Z</time>
      </trkpt>
      <trkpt lat="42.9314120" lon="-8.1390020">
        <ele>358.5</ele>
        <time>2020-04-17T18:09:19Z</time>
      </trkpt>
      <trkpt lat="42.9314040" lon="-8.1390850">
        <ele>358.9</ele>
        <time>2020-04-17T18:09:21Z</time>
      </trkpt>
      <trkpt lat="42.9313960" lon="-8.1391680">
        <ele>359.3</ele>
        <time>2020-04-17T18:09:23Z</time>
      </trkpt>
      <trkpt lat="42.9313720" lon="-8.1393200">
        <ele>360.1</ele>
        <time>2020-04-17T18:09:25Z</time>
      </trkpt>
      <trkpt lat="42.9313570" lon="-8.1393940">
        <ele>360.5</ele>
        <time>2020-04-17T18:09:27Z</time>
      </trkpt>
      <trkpt lat="42.9313260" lon="-8.1395390">
        <ele>361.2</ele>
        <time>2020-04-17T18:09:29Z</time>
      </trkpt>
      <trkpt lat="42.9313060" lon="-8.1396040">
        <ele>361.6</ele>
        <time>2020-04-17T18:09:31Z</time>
      </trkpt>
      <trkpt lat="42.9312720" lon="-8.1397080">
        <ele>362.2</ele>
        <time>2020-04-17T18:09:33Z</time>
      </trkpt>
      <trkpt lat="42.9312500" lon="-8.1397700">
        <ele>362.6</ele>
        <time>2020-04-17T18:09:35Z</time>
      </trkpt>
      <trkpt lat="42.9312130" lon="-8.1398710">
        <ele>363.1</ele>
        <time>2020-04-17T18:09:37Z</time>
      </trkpt>
      <trkpt lat="42.9311890" lon="-8.1399300">
        <ele>363.5</ele>
        <time>2020-04-17T18:09:39Z</time>
      </trkpt>
      <trkpt lat="42.9311410" lon="-8.1400300">
        <ele>364.1</ele>
        <time>2020-04-17T18:09:41Z</time>
      </trkpt>
      <trkpt lat="42.9311110" lon="-8.1400830">
        <ele>364.4</ele>
        <time>2020-04-17T18:09:43Z</time>
      </trkpt>
      <trkpt lat="42.9310580" lon="-8.1401710">
        <ele>365.0</ele>
        <time>2020-04-17T18:09:45Z</time>
      </trkpt>
      <trkpt lat="42.9310260" lon="-8.1402220">
        <ele>365.3</ele>
        <time>2020-04-17T18:09:47Z</time>
      </trkpt>
      <trkpt lat="42.9309940" lon="-8.1402730">
        <ele>365.6</ele>
        <time>2020-04-17T18:09:49Z</time>
      </trkpt>
      <trkpt lat="42.9309240" lon="-8.1403730">
        <ele>366.2</ele>
        <time>2020-04-17T18:09:51Z</time>
      </trkpt>
      <trkpt lat="42.9308870" lon="-8.1404220">
        <ele>366.6</ele>
        <time>2020-04-17T18:09:53Z</time>
      </trkpt>
      <trkpt lat="42.9308490" lon="-8.1404710">
        <ele>366.9</ele>
        <time>2020-04-17T18:09:55Z</time>
      </trkpt>
      <trkpt lat="42.9308120" lon="-8.1405200">
        <ele>367.2</ele>
        <time>2020-04-17T18:09:57Z</time>
      </trkpt>
      <trkpt lat="42.9307170" lon="-8.1406390">
        <ele>368.0</ele>
        <time>2020-04-17T18:09:59Z</time>
      </trkpt>
      <trkpt lat="42.9306750" lon="-8.1406860">
        <ele>368.3</ele>
        <time>2020-04-17T18:10:01Z</time>
      </trkpt>
      <trkpt lat="42.9306350" lon="-8.1407320">
        <ele>368.7</ele>
        <time>2020-04-17T18:10:03Z</time>
      </trkpt>
      <trkpt lat="42.9305940" lon="-8.1407780">
        <ele>369.0</ele>
        <time>2020-04-17T18:10:05Z</time>
      </trkpt>
      <trkpt lat="42.9304850" lon="-8.1409020">
        <ele>369.9</ele>
        <time>2020-04-17T18:10:07Z</time>
      </trkpt>
      <trkpt lat="42.9304480" lon="-8.1409510">
        <ele>370.2</ele>
        <time>2020-04-17T18:10:09Z</time>
      </trkpt>
      <trkpt lat="42.9304100" lon="-8.1410000">
        <ele>370.5</ele>
        <time>2020-04-17T18:10:11Z</time>
      </trkpt>
      <trkpt lat="42.9303340" lon="-8.1411030">
        <ele>371.0</ele>
        <time>2020-04-17T18:10:13Z</time>
      </trkpt>
      <trkpt lat="42.9303020" lon="-8.1411590">
        <ele>371.1</ele>
        <time>2020-04-17T18:10:15Z</time>
      </trkpt>
      <trkpt lat="42.9302440" lon="-8.1412610">
        <ele>371.6</ele>
        <time>2020-04-17T18:10:17Z</time>
      </trkpt>
      <trkpt lat="42.9302140" lon="-8.1413300">
        <ele>372.1</ele>
        <time>2020-04-17T18:10:19Z</time>
      </trkpt>
      <trkpt lat="42.9301820" lon="-8.1414030">
        <ele>372.6</ele>
        <time>2020-04-17T18:10:21Z</time>
      </trkpt>
      <trkpt lat="42.9301310" lon="-8.1415360">
        <ele>373.5</ele>
        <time>2020-04-17T18:10:23Z</time>
      </trkpt>
      <trkpt lat="42.9301030" lon="-8.1416180">
        <ele>374.1</ele>
        <time>2020-04-17T18:10:25Z</time>
      </trkpt>
      <trkpt lat="42.9300630" lon="-8.1417650">
        <ele>375.0</ele>
        <time>2020-04-17T18:10:27Z</time>
      </trkpt>
      <trkpt lat="42.9300320" lon="-8.1419130">
        <ele>375.9</ele>
        <time>2020-04-17T18:10:29Z</time>
      </trkpt>
      <trkpt lat="42.9300200" lon="-8.1420050">
        <ele>376.5</ele>
        <time>2020-04-17T18:10:31Z</time>
      </trkpt>
      <trkpt lat="42.9300000" lon="-8.1421580">
        <ele>377.1</ele>
        <time>2020-04-17T18:10:33Z</time>
      </trkpt>
      <trkpt lat="42.9299960" lon="-8.1422510">
        <ele>377.4</ele>
        <time>2020-04-17T18:10:35Z</time>
      </trkpt>
      <trkpt lat="42.9299930" lon="-8.1423440">
        <ele>377.6</ele>
        <time>2020-04-17T18:10:37Z</time>
      </trkpt>
      <trkpt lat="42.9299870" lon="-8.1425320">
        <ele>378.3</ele>
        <time>2020-04-17T18:10:39Z</time>
      </trkpt>
      <trkpt lat="42.9299880" lon="-8.1426420">
        <ele>378.7</ele>
        <time>2020-04-17T18:10:41Z</time>
      </trkpt>
      <trkpt lat="42.9299890" lon="-8.1427620">
        <ele>379.1</ele>
        <time>2020-04-17T18:10:43Z</time>
      </trkpt>
      <trkpt lat="42.9299900" lon="-8.1428880">
        <ele>379.5</ele>
        <time>2020-04-17T18:10:45Z</time>
      </trkpt>
      <trkpt lat="42.9299920" lon="-8.1430190">
        <ele>379.8</ele>
        <time>2020-04-17T18:10:47Z</time>
      </trkpt>
      <trkpt lat="42.9299930" lon="-8.1431550">
        <ele>380.2</ele>
        <time>2020-04-17T18:10:49Z</time>
      </trkpt>
      <trkpt lat="42.9299960" lon="-8.1435860">
        <ele>381.1</ele>
        <time>2020-04-17T18:10:51Z</time>
      </trkpt>
      <trkpt lat="42.9299980" lon="-8.1437250">
        <ele>381.3</ele>
        <time>2020-04-17T18:10:53Z</time>
      </trkpt>
      <trkpt lat="42.9300010" lon="-8.1439230">
        <ele>381.4</ele>
        <time>2020-04-17T18:10:55Z</time>
      </trkpt>
      <trkpt lat="42.9300030" lon="-8.1440570">
        <ele>381.5</ele>
        <time>2020-04-17T18:10:57Z</time>
      </trkpt>
      <trkpt lat="42.9300050" lon="-8.1441870">
        <ele>381.6</ele>
        <time>2020-04-17T18:10:59Z</time>
      </trkpt>
      <trkpt lat="42.9300070" lon="-8.1443160">
        <ele>381.8</ele>
        <time>2020-04-17T18:11:01Z</time>
      </trkpt>
      <trkpt lat="42.9300120" lon="-8.1446730">
        <ele>382.2</ele>
        <time>2020-04-17T18:11:03Z</time>
      </trkpt>
      <trkpt lat="42.9300130" lon="-8.1447960">
        <ele>382.4</ele>
        <time>2020-04-17T18:11:05Z</time>
      </trkpt>
      <trkpt lat="42.9300130" lon="-8.1449190">
        <ele>382.5</ele>
        <time>2020-04-17T18:11:07Z</time>
      </trkpt>
      <trkpt lat="42.9300140" lon="-8.1450390">
        <ele>382.7</ele>
        <time>2020-04-17T18:11:09Z</time>
      </trkpt>
      <trkpt lat="42.9300150" lon="-8.1451580">
        <ele>382.9</ele>
        <time>2020-04-17T18:11:11Z</time>
      </trkpt>
      <trkpt lat="42.9300170" lon="-8.1454570">
        <ele>383.4</ele>
        <time>2020-04-17T18:11:13Z</time>
      </trkpt>
      <trkpt lat="42.9300180" lon="-8.1455730">
        <ele>383.6</ele>
        <time>2020-04-17T18:11:15Z</time>
      </trkpt>
      <trkpt lat="42.9300200" lon="-8.1457980">
        <ele>384.1</ele>
        <time>2020-04-17T18:11:17Z</time>
      </trkpt>
      <trkpt lat="42.9300220" lon="-8.1459180">
        <ele>384.3</ele>
        <time>2020-04-17T18:11:19Z</time>
      </trkpt>
      <trkpt lat="42.9300230" lon="-8.1460420">
        <ele>384.5</ele>
        <time>2020-04-17T18:11:21Z</time>
      </trkpt>
      <trkpt lat="42.9300240" lon="-8.1461670">
        <ele>384.7</ele>
        <time>2020-04-17T18:11:23Z</time>
      </trkpt>
      <trkpt lat="42.9300250" lon="-8.1462960">
        <ele>384.9</ele>
        <time>2020-04-17T18:11:25Z</time>
      </trkpt>
      <trkpt lat="42.9300270" lon="-8.1464260">
        <ele>385.2</ele>
        <time>2020-04-17T18:11:27Z</time>
      </trkpt>
      <trkpt lat="42.9300310" lon="-8.1468490">
        <ele>385.8</ele>
        <time>2020-04-17T18:11:29Z</time>
      </trkpt>
      <trkpt lat="42.9300330" lon="-8.1469820">
        <ele>386.0</ele>
        <time>2020-04-17T18:11:31Z</time>
      </trkpt>
      <trkpt lat="42.9300340" lon="-8.1471170">
        <ele>386.2</ele>
        <time>2020-04-17T18:11:33Z</time>
      </trkpt>
      <trkpt lat="42.9300360" lon="-8.1472510">
        <ele>386.4</ele>
        <time>2020-04-17T18:11:35Z</time>
      </trkpt>
      <trkpt lat="42.9300370" lon="-8.1473890">
        <ele>386.6</ele>
        <time>2020-04-17T18:11:37Z</time>
      </trkpt>
      <trkpt lat="42.9300390" lon="-8.1475260">
        <ele>386.8</ele>
        <time>2020-04-17T18:11:39Z</time>
      </trkpt>
      <trkpt lat="42.9300440" lon="-8.1479560">
        <ele>387.1</ele>
        <time>2020-04-17T18:11:41Z</time>
      </trkpt>
      <trkpt lat="42.9300470" lon="-8.1480980">
        <ele>387.2</ele>
        <time>2020-04-17T18:11:43Z</time>
      </trkpt>
      <trkpt lat="42.9300510" lon="-8.1482470">
        <ele>387.2</ele>
        <time>2020-04-17T18:11:45Z</time>
      </trkpt>
      <trkpt lat="42.9300540" lon="-8.1483990">
        <ele>387.2</ele>
        <time>2020-04-17T18:11:47Z</time>
      </trkpt>
      <trkpt lat="42.9300580" lon="-8.1485570">
        <ele>387.2</ele>
        <time>2020-04-17T18:11:49Z</time>
      </trkpt>
      <trkpt lat="42.9300680" lon="-8.1489750">
        <ele>387.1</ele>
        <time>2020-04-17T18:11:51Z</time>
      </trkpt>
      <trkpt lat="42.9300720" lon="-8.1491390">
        <ele>387.0</ele>
        <time>2020-04-17T18:11:53Z</time>
      </trkpt>
      <trkpt lat="42.9300760" lon="-8.1493060">
        <ele>386.8</ele>
        <time>2020-04-17T18:11:55Z</time>
      </trkpt>
      <trkpt lat="42.9300800" lon="-8.1494750">
        <ele>386.5</ele>
        <time>2020-04-17T18:11:57Z</time>
      </trkpt>
      <trkpt lat="42.9300880" lon="-8.1499010">
        <ele>386.2</ele>
        <time>2020-04-17T18:11:59Z</time>
      </trkpt>
      <trkpt lat="42.9300880" lon="-8.1501100">
        <ele>386.1</ele>
        <time>2020-04-17T18:12:01Z</time>
      </trkpt>
      <trkpt lat="42.9300900" lon="-8.1502750">
        <ele>385.9</ele>
        <time>2020-04-17T18:12:03Z</time>
      </trkpt>
      <trkpt lat="42.9300920" lon="-8.1504380">
        <ele>385.7</ele>
        <time>2020-04-17T18:12:05Z</time>
      </trkpt>
      <trkpt lat="42.9300960" lon="-8.1507780">
        <ele>385.4</ele>
        <time>2020-04-17T18:12:07Z</time>
      </trkpt>
      <trkpt lat="42.9300970" lon="-8.1509980">
        <ele>385.6</ele>
        <time>2020-04-17T18:12:09Z</time>
      </trkpt>
      <trkpt lat="42.9300960" lon="-8.1511530">
        <ele>385.7</ele>
        <time>2020-04-17T18:12:11Z</time>
      </trkpt>
      <trkpt lat="42.9300950" lon="-8.1513050">
        <ele>385.9</ele>
        <time>2020-04-17T18:12:13Z</time>
      </trkpt>
      <trkpt lat="42.9300850" lon="-8.1516100">
        <ele>386.5</ele>
        <time>2020-04-17T18:12:15Z</time>
      </trkpt>
      <trkpt lat="42.9300770" lon="-8.1517470">
        <ele>386.8</ele>
        <time>2020-04-17T18:12:17Z</time>
      </trkpt>
      <trkpt lat="42.9300610" lon="-8.1519850">
        <ele>387.5</ele>
        <time>2020-04-17T18:12:19Z</time>
      </trkpt>
      <trkpt lat="42.9300510" lon="-8.1521070">
        <ele>387.8</ele>
        <time>2020-04-17T18:12:21Z</time>
      </trkpt>
      <trkpt lat="42.9300280" lon="-8.1523310">
        <ele>388.5</ele>
        <time>2020-04-17T18:12:23Z</time>
      </trkpt>
      <trkpt lat="42.9300120" lon="-8.1524410">
        <ele>388.8</ele>
        <time>2020-04-17T18:12:25Z</time>
      </trkpt>
      <trkpt lat="42.9299970" lon="-8.1525510">
        <ele>389.1</ele>
        <time>2020-04-17T18:12:27Z</time>
      </trkpt>
      <trkpt lat="42.9299810" lon="-8.1526620">
        <ele>389.4</ele>
        <time>2020-04-17T18:12:29Z</time>
      </trkpt>
      <trkpt lat="42.9299390" lon="-8.1529070">
        <ele>390.1</ele>
        <time>2020-04-17T18:12:31Z</time>
      </trkpt>
      <trkpt lat="42.9299180" lon="-8.1530150">
        <ele>390.3</ele>
        <time>2020-04-17T18:12:33Z</time>
      </trkpt>
      <trkpt lat="42.9298960" lon="-8.1531240">
        <ele>390.5</ele>
        <time>2020-04-17T18:12:35Z</time>
      </trkpt>
      <trkpt lat="42.9298420" lon="-8.1533540">
        <ele>390.8</ele>
        <time>2020-04-17T18:12:37Z</time>
      </trkpt>
      <trkpt lat="42.9297980" lon="-8.1535070">
        <ele>390.9</ele>
        <time>2020-04-17T18:12:39Z</time>
      </trkpt>
      <trkpt lat="42.9297670" lon="-8.1536130">
        <ele>391.0</ele>
        <time>2020-04-17T18:12:41Z</time>
      </trkpt>
      <trkpt lat="42.9297120" lon="-8.1537990">
        <ele>391.1</ele>
        <time>2020-04-17T18:12:43Z</time>
      </trkpt>
      <trkpt lat="42.9296800" lon="-8.1539050">
        <ele>391.2</ele>
        <time>2020-04-17T18:12:45Z</time>
      </trkpt>
      <trkpt lat="42.9296220" lon="-8.1540890">
        <ele>391.4</ele>
        <time>2020-04-17T18:12:47Z</time>
      </trkpt>
      <trkpt lat="42.9295850" lon="-8.1541980">
        <ele>391.6</ele>
        <time>2020-04-17T18:12:49Z</time>
      </trkpt>
      <trkpt lat="42.9295190" lon="-8.1543820">
        <ele>391.9</ele>
        <time>2020-04-17T18:12:51Z</time>
      </trkpt>
      <trkpt lat="42.9294770" lon="-8.1544950">
        <ele>392.0</ele>
        <time>2020-04-17T18:12:53Z</time>
      </trkpt>
      <trkpt lat="42.9294330" lon="-8.1546110">
        <ele>392.2</ele>
        <time>2020-04-17T18:12:55Z</time>
      </trkpt>
      <trkpt lat="42.9293890" lon="-8.1547280">
        <ele>392.3</ele>
        <time>2020-04-17T18:12:57Z</time>
      </trkpt>
      <trkpt lat="42.9292860" lon="-8.1550000">
        <ele>392.9</ele>
        <time>2020-04-17T18:12:59Z</time>
      </trkpt>
      <trkpt lat="42.9292410" lon="-8.1551190">
        <ele>393.1</ele>
        <time>2020-04-17T18:13:01Z</time>
      </trkpt>
      <trkpt lat="42.9291540" lon="-8.1553490">
        <ele>393.5</ele>
        <time>2020-04-17T18:13:03Z</time>
      </trkpt>
      <trkpt lat="42.9291070" lon="-8.1554740">
        <ele>393.8</ele>
        <time>2020-04-17T18:13:05Z</time>
      </trkpt>
      <trkpt lat="42.9290580" lon="-8.1556030">
        <ele>394.0</ele>
        <time>2020-04-17T18:13:07Z</time>
      </trkpt>
      <trkpt lat="42.9290090" lon="-8.1557340">
        <ele>394.2</ele>
        <time>2020-04-17T18:13:09Z</time>
      </trkpt>
      <trkpt lat="42.9289590" lon="-8.1558670">
        <ele>394.4</ele>
        <time>2020-04-17T18:13:11Z</time>
      </trkpt>
      <trkpt lat="42.9289080" lon="-8.1560020">
        <ele>394.6</ele>
        <time>2020-04-17T18:13:13Z</time>
      </trkpt>
      <trkpt lat="42.9287580" lon="-8.1564000">
        <ele>394.8</ele>
        <time>2020-04-17T18:13:15Z</time>
      </trkpt>
      <trkpt lat="42.9287060" lon="-8.1565370">
        <ele>394.9</ele>
        <time>2020-04-17T18:13:17Z</time>
      </trkpt>
      <trkpt lat="42.9286090" lon="-8.1567930">
        <ele>394.9</ele>
        <time>2020-04-17T18:13:19Z</time>
      </trkpt>
      <trkpt lat="42.9285350" lon="-8.1569880">
        <ele>394.8</ele>
        <time>2020-04-17T18:13:21Z</time>
      </trkpt>
      <trkpt lat="42.9284740" lon="-8.1571510">
        <ele>394.6</ele>
        <time>2020-04-17T18:13:23Z</time>
      </trkpt>
      <trkpt lat="42.9283730" lon="-8.1574200">
        <ele>394.0</ele>
        <time>2020-04-17T18:13:25Z</time>
      </trkpt>
      <trkpt lat="42.9283040" lon="-8.1576070">
        <ele>393.6</ele>
        <time>2020-04-17T18:13:27Z</time>
      </trkpt>
      <trkpt lat="42.9281670" lon="-8.1579740">
        <ele>393.0</ele>
        <time>2020-04-17T18:13:29Z</time>
      </trkpt>
      <trkpt lat="42.9280610" lon="-8.1582550">
        <ele>392.7</ele>
        <time>2020-04-17T18:13:31Z</time>
      </trkpt>
      <trkpt lat="42.9279920" lon="-8.1584430">
        <ele>392.4</ele>
        <time>2020-04-17T18:13:33Z</time>
      </trkpt>
      <trkpt lat="42.9279240" lon="-8.1586260">
        <ele>392.2</ele>
        <time>2020-04-17T18:13:35Z</time>
      </trkpt>
      <trkpt lat="42.9277950" lon="-8.1589750">
        <ele>391.8</ele>
        <time>2020-04-17T18:13:37Z</time>
      </trkpt>
      <trkpt lat="42.9276970" lon="-8.1592450">
        <ele>391.4</ele>
        <time>2020-04-17T18:13:39Z</time>
      </trkpt>
      <trkpt lat="42.9276330" lon="-8.1594370">
        <ele>390.9</ele>
        <time>2020-04-17T18:13:41Z</time>
      </trkpt>
      <trkpt lat="42.9275730" lon="-8.1596200">
        <ele>390.5</ele>
        <time>2020-04-17T18:13:43Z</time>
      </trkpt>
      <trkpt lat="42.9274680" lon="-8.1599340">
        <ele>390.0</ele>
        <time>2020-04-17T18:13:45Z</time>
      </trkpt>
      <trkpt lat="42.9274050" lon="-8.1601250">
        <ele>389.6</ele>
        <time>2020-04-17T18:13:47Z</time>
      </trkpt>
      <trkpt lat="42.9272760" lon="-8.1605190">
        <ele>389.0</ele>
        <time>2020-04-17T18:13:49Z</time>
      </trkpt>
      <trkpt lat="42.9272040" lon="-8.1607430">
        <ele>388.8</ele>
        <time>2020-04-17T18:13:51Z</time>
      </trkpt>
      <trkpt lat="42.9271420" lon="-8.1609370">
        <ele>388.4</ele>
        <time>2020-04-17T18:13:53Z</time>
      </trkpt>
      <trkpt lat="42.9270800" lon="-8.1611300">
        <ele>388.2</ele>
        <time>2020-04-17T18:13:55Z</time>
      </trkpt>
      <trkpt lat="42.9269590" lon="-8.1615130">
        <ele>387.9</ele>
        <time>2020-04-17T18:13:57Z</time>
      </trkpt>
      <trkpt lat="42.9268980" lon="-8.1617060">
        <ele>387.9</ele>
        <time>2020-04-17T18:13:59Z</time>
      </trkpt>
      <trkpt lat="42.9267840" lon="-8.1620640">
        <ele>388.1</ele>
        <time>2020-04-17T18:14:01Z</time>
      </trkpt>
      <trkpt lat="42.9266880" lon="-8.1623640">
        <ele>388.4</ele>
        <time>2020-04-17T18:14:03Z</time>
      </trkpt>
      <trkpt lat="42.9266490" lon="-8.1626110">
        <ele>388.4</ele>
        <time>2020-04-17T18:14:05Z</time>
      </trkpt>
      <trkpt lat="42.9266380" lon="-8.1629130">
        <ele>388.4</ele>
        <time>2020-04-17T18:14:07Z</time>
      </trkpt>
      <trkpt lat="42.9266770" lon="-8.1631940">
        <ele>388.2</ele>
        <time>2020-04-17T18:14:09Z</time>
      </trkpt>
      <trkpt lat="42.9267240" lon="-8.1634330">
        <ele>387.5</ele>
        <time>2020-04-17T18:14:11Z</time>
      </trkpt>
      <trkpt lat="42.9267860" lon="-8.1637560">
        <ele>386.3</ele>
        <time>2020-04-17T18:14:13Z</time>
      </trkpt>
      <trkpt lat="42.9268370" lon="-8.1640210">
        <ele>385.6</ele>
        <time>2020-04-17T18:14:15Z</time>
      </trkpt>
      <trkpt lat="42.9268880" lon="-8.1643070">
        <ele>384.4</ele>
        <time>2020-04-17T18:14:17Z</time>
      </trkpt>
      <trkpt lat="42.9269290" lon="-8.1645360">
        <ele>383.2</ele>
        <time>2020-04-17T18:14:19Z</time>
      </trkpt>
      <trkpt lat="42.9270030" lon="-8.1649510">
        <ele>381.0</ele>
        <time>2020-04-17T18:14:21Z</time>
      </trkpt>
      <trkpt lat="42.9270730" lon="-8.1653170">
        <ele>380.2</ele>
        <time>2020-04-17T18:14:23Z</time>
      </trkpt>
      <trkpt lat="42.9271480" lon="-8.1656930">
        <ele>378.6</ele>
        <time>2020-04-17T18:14:25Z</time>
      </trkpt>
      <trkpt lat="42.9272750" lon="-8.1660180">
        <ele>376.7</ele>
        <time>2020-04-17T18:14:27Z</time>
      </trkpt>
      <trkpt lat="42.9274430" lon="-8.1662450">
        <ele>375.0</ele>
        <time>2020-04-17T18:14:29Z</time>
      </trkpt>
      <trkpt lat="42.9275980" lon="-8.1664400">
        <ele>373.6</ele>
        <time>2020-04-17T18:14:31Z</time>
      </trkpt>
      <trkpt lat="42.9278760" lon="-8.1668520">
        <ele>371.8</ele>
        <time>2020-04-17T18:14:33Z</time>
      </trkpt>
      <trkpt lat="42.9279880" lon="-8.1672250">
        <ele>370.3</ele>
        <time>2020-04-17T18:14:35Z</time>
      </trkpt>
      <trkpt lat="42.9280320" lon="-8.1675720">
        <ele>368.6</ele>
        <time>2020-04-17T18:14:37Z</time>
      </trkpt>
      <trkpt lat="42.9280680" lon="-8.1679830">
        <ele>367.0</ele>
        <time>2020-04-17T18:14:39Z</time>
      </trkpt>
      <trkpt lat="42.9281040" lon="-8.1682830">
        <ele>366.4</ele>
        <time>2020-04-17T18:14:41Z</time>
      </trkpt>
      <trkpt lat="42.9282090" lon="-8.1687410">
        <ele>364.3</ele>
        <time>2020-04-17T18:14:43Z</time>
      </trkpt>
      <trkpt lat="42.9284560" lon="-8.1689620">
        <ele>362.3</ele>
        <time>2020-04-17T18:14:45Z</time>
      </trkpt>
      <trkpt lat="42.9287180" lon="-8.1689980">
        <ele>360.5</ele>
        <time>2020-04-17T18:14:47Z</time>
      </trkpt>
      <trkpt lat="42.9290250" lon="-8.1690150">
        <ele>358.7</ele>
        <time>2020-04-17T18:14:49Z</time>
      </trkpt>
      <trkpt lat="42.9293550" lon="-8.1691040">
        <ele>356.8</ele>
        <time>2020-04-17T18:14:51Z</time>
      </trkpt>
      <trkpt lat="42.9296080" lon="-8.1692360">
        <ele>355.0</ele>
        <time>2020-04-17T18:14:53Z</time>
      </trkpt>
      <trkpt lat="42.9298020" lon="-8.1693510">
        <ele>353.8</ele>
        <time>2020-04-17T18:14:55Z</time>
      </trkpt>
      <trkpt lat="42.9301360" lon="-8.1695570">
        <ele>352.3</ele>
        <time>2020-04-17T18:14:57Z</time>
      </trkpt>
      <trkpt lat="42.9303270" lon="-8.1698520">
        <ele>351.1</ele>
        <time>2020-04-17T18:14:59Z</time>
      </trkpt>
      <trkpt lat="42.9303660" lon="-8.1701430">
        <ele>350.5</ele>
        <time>2020-04-17T18:15:01Z</time>
      </trkpt>
      <trkpt lat="42.9302950" lon="-8.1704360">
        <ele>350.2</ele>
        <time>2020-04-17T18:15:03Z</time>
      </trkpt>
      <trkpt lat="42.9301670" lon="-8.1706830">
        <ele>350.1</ele>
        <time>2020-04-17T18:15:05Z</time>
      </trkpt>
      <trkpt lat="42.9300610" lon="-8.1708660">
        <ele>350.2</ele>
        <time>2020-04-17T18:15:07Z</time>
      </trkpt>
      <trkpt lat="42.9299900" lon="-8.1709900">
        <ele>350.3</ele>
        <time>2020-04-17T18:15:09Z</time>
      </trkpt>
      <trkpt lat="42.9299310" lon="-8.1710920">
        <ele>350.4</ele>
        <time>2020-04-17T18:15:11Z</time>
      </trkpt>
      <trkpt lat="42.9298930" lon="-8.1711580">
        <ele>350.6</ele>
        <time>2020-04-17T18:15:13Z</time>
      </trkpt>
      <trkpt lat="42.9298790" lon="-8.1711810">
        <ele>350.7</ele>
        <time>2020-04-17T18:15:15Z</time>
      </trkpt>
      <trkpt lat="42.9298690" lon="-8.1711980">
        <ele>350.7</ele>
        <time>2020-04-17T18:15:17Z</time>
      </trkpt>
      <trkpt lat="42.9298590" lon="-8.1712160">
        <ele>350.8</ele>
        <time>2020-04-17T18:15:19Z</time>
      </trkpt>
      <trkpt lat="42.9298490" lon="-8.1712330">
        <ele>350.9</ele>
        <time>2020-04-17T18:15:21Z</time>
      </trkpt>
      <trkpt lat="42.9298400" lon="-8.1712500">
        <ele>350.9</ele>
        <time>2020-04-17T18:15:23Z</time>
      </trkpt>
      <trkpt lat="42.9298300" lon="-8.1712670">
        <ele>351.0</ele>
        <time>2020-04-17T18:15:25Z</time>
      </trkpt>
      <trkpt lat="42.9298200" lon="-8.1712850">
        <ele>351.1</ele>
        <time>2020-04-17T18:15:27Z</time>
      </trkpt>
      <trkpt lat="42.9298100" lon="-8.1713020">
        <ele>351.1</ele>
        <time>2020-04-17T18:15:29Z</time>
      </trkpt>
      <trkpt lat="42.9298000" lon="-8.1713190">
        <ele>351.2</ele>
        <time>2020-04-17T18:15:31Z</time>
      </trkpt>
      <trkpt lat="42.9297750" lon="-8.1713640">
        <ele>351.4</ele>
        <time>2020-04-17T18:15:33Z</time>
      </trkpt>
      <trkpt lat="42.9297450" lon="-8.1714180">
        <ele>351.7</ele>
        <time>2020-04-17T18:15:35Z</time>
      </trkpt>
      <trkpt lat="42.9297150" lon="-8.1714740">
        <ele>351.9</ele>
        <time>2020-04-17T18:15:37Z</time>
      </trkpt>
      <trkpt lat="42.9296850" lon="-8.1715280">
        <ele>352.2</ele>
        <time>2020-04-17T18:15:39Z</time>
      </trkpt>
      <trkpt lat="42.9296550" lon="-8.1715820">
        <ele>352.5</ele>
        <time>2020-04-17T18:15:41Z</time>
      </trkpt>
      <trkpt lat="42.9296250" lon="-8.1716360">
        <ele>352.7</ele>
        <time>2020-04-17T18:15:43Z</time>
      </trkpt>
      <trkpt lat="42.9295960" lon="-8.1716900">
        <ele>353.0</ele>
        <time>2020-04-17T18:15:45Z</time>
      </trkpt>
      <trkpt lat="42.9295650" lon="-8.1717460">
        <ele>353.2</ele>
        <time>2020-04-17T18:15:47Z</time>
      </trkpt>
      <trkpt lat="42.9295340" lon="-8.1718030">
        <ele>353.5</ele>
        <time>2020-04-17T18:15:49Z</time>
      </trkpt>
      <trkpt lat="42.9295030" lon="-8.1718600">
        <ele>353.7</ele>
        <time>2020-04-17T18:15:51Z</time>
      </trkpt>
      <trkpt lat="42.9293570" lon="-8.1721250">
        <ele>354.7</ele>
        <time>2020-04-17T18:15:53Z</time>
      </trkpt>
      <trkpt lat="42.9293150" lon="-8.1722000">
        <ele>355.0</ele>
        <time>2020-04-17T18:15:55Z</time>
      </trkpt>
      <trkpt lat="42.9292740" lon="-8.1722750">
        <ele>355.3</ele>
        <time>2020-04-17T18:15:57Z</time>
      </trkpt>
      <trkpt lat="42.9292300" lon="-8.1723560">
        <ele>355.7</ele>
        <time>2020-04-17T18:15:59Z</time>
      </trkpt>
      <trkpt lat="42.9291840" lon="-8.1724410">
        <ele>356.1</ele>
        <time>2020-04-17T18:16:01Z</time>
      </trkpt>
      <trkpt lat="42.9291360" lon="-8.1725280">
        <ele>356.5</ele>
        <time>2020-04-17T18:16:03Z</time>
      </trkpt>
      <trkpt lat="42.9290860" lon="-8.1726190">
        <ele>356.8</ele>
        <time>2020-04-17T18:16:05Z</time>
      </trkpt>
      <trkpt lat="42.9290340" lon="-8.1727150">
        <ele>357.1</ele>
        <time>2020-04-17T18:16:07Z</time>
      </trkpt>
      <trkpt lat="42.9288660" lon="-8.1730410">
        <ele>357.7</ele>
        <time>2020-04-17T18:16:09Z</time>
      </trkpt>
      <trkpt lat="42.9288220" lon="-8.1731500">
        <ele>357.7</ele>
        <time>2020-04-17T18:16:11Z</time>
      </trkpt>
      <trkpt lat="42.9287390" lon="-8.1733660">
        <ele>357.7</ele>
        <time>2020-04-17T18:16:13Z</time>
      </trkpt>
      <trkpt lat="42.9287030" lon="-8.1734960">
        <ele>357.6</ele>
        <time>2020-04-17T18:16:15Z</time>
      </trkpt>
      <trkpt lat="42.9286630" lon="-8.1736450">
        <ele>357.4</ele>
        <time>2020-04-17T18:16:17Z</time>
      </trkpt>
      <trkpt lat="42.9285830" lon="-8.1739510">
        <ele>356.8</ele>
        <time>2020-04-17T18:16:19Z</time>
      </trkpt>
      <trkpt lat="42.9285430" lon="-8.1741370">
        <ele>356.2</ele>
        <time>2020-04-17T18:16:21Z</time>
      </trkpt>
      <trkpt lat="42.9285010" lon="-8.1743360">
        <ele>355.6</ele>
        <time>2020-04-17T18:16:23Z</time>
      </trkpt>
      <trkpt lat="42.9284120" lon="-8.1747570">
        <ele>353.9</ele>
        <time>2020-04-17T18:16:25Z</time>
      </trkpt>
      <trkpt lat="42.9283660" lon="-8.1749710">
        <ele>353.1</ele>
        <time>2020-04-17T18:16:27Z</time>
      </trkpt>
      <trkpt lat="42.9283200" lon="-8.1751850">
        <ele>352.2</ele>
        <time>2020-04-17T18:16:29Z</time>
      </trkpt>
      <trkpt lat="42.9282290" lon="-8.1756150">
        <ele>350.7</ele>
        <time>2020-04-17T18:16:31Z</time>
      </trkpt>
      <trkpt lat="42.9281830" lon="-8.1758330">
        <ele>350.0</ele>
        <time>2020-04-17T18:16:33Z</time>
      </trkpt>
      <trkpt lat="42.9281370" lon="-8.1760530">
        <ele>349.3</ele>
        <time>2020-04-17T18:16:35Z</time>
      </trkpt>
      <trkpt lat="42.9280650" lon="-8.1765020">
        <ele>347.8</ele>
        <time>2020-04-17T18:16:37Z</time>
      </trkpt>
      <trkpt lat="42.9280520" lon="-8.1768570">
        <ele>346.6</ele>
        <time>2020-04-17T18:16:39Z</time>
      </trkpt>
      <trkpt lat="42.9280750" lon="-8.1772510">
        <ele>344.9</ele>
        <time>2020-04-17T18:16:41Z</time>
      </trkpt>
      <trkpt lat="42.9281440" lon="-8.1775030">
        <ele>343.9</ele>
        <time>2020-04-17T18:16:43Z</time>
      </trkpt>
      <trkpt lat="42.9283040" lon="-8.1778280">
        <ele>342.5</ele>
        <time>2020-04-17T18:16:45Z</time>
      </trkpt>
      <trkpt lat="42.9285100" lon="-8.1780920">
        <ele>341.7</ele>
        <time>2020-04-17T18:16:47Z</time>
      </trkpt>
      <trkpt lat="42.9287580" lon="-8.1782730">
        <ele>339.8</ele>
        <time>2020-04-17T18:16:49Z</time>
      </trkpt>
      <trkpt lat="42.9290590" lon="-8.1784110">
        <ele>337.5</ele>
        <time>2020-04-17T18:16:51Z</time>
      </trkpt>
      <trkpt lat="42.9292680" lon="-8.1784820">
        <ele>335.8</ele>
        <time>2020-04-17T18:16:53Z</time>
      </trkpt>
      <trkpt lat="42.9294790" lon="-8.1785530">
        <ele>334.1</ele>
        <time>2020-04-17T18:16:55Z</time>
      </trkpt>
      <trkpt lat="42.9299430" lon="-8.1787470">
        <ele>331.3</ele>
        <time>2020-04-17T18:16:57Z</time>
      </trkpt>
      <trkpt lat="42.9301870" lon="-8.1789680">
        <ele>330.1</ele>
        <time>2020-04-17T18:16:59Z</time>
      </trkpt>
      <trkpt lat="42.9303670" lon="-8.1792460">
        <ele>328.5</ele>
        <time>2020-04-17T18:17:01Z</time>
      </trkpt>
      <trkpt lat="42.9305250" lon="-8.1796220">
        <ele>327.0</ele>
        <time>2020-04-17T18:17:03Z</time>
      </trkpt>
      <trkpt lat="42.9305790" lon="-8.1799660">
        <ele>325.9</ele>
        <time>2020-04-17T18:17:05Z</time>
      </trkpt>
      <trkpt lat="42.9305910" lon="-8.1802780">
        <ele>325.8</ele>
        <time>2020-04-17T18:17:07Z</time>
      </trkpt>
      <trkpt lat="42.9305580" lon="-8.1806020">
        <ele>326.0</ele>
        <time>2020-04-17T18:17:09Z</time>
      </trkpt>
      <trkpt lat="42.9304870" lon="-8.1808780">
        <ele>326.3</ele>
        <time>2020-04-17T18:17:11Z</time>
      </trkpt>
      <trkpt lat="42.9303760" lon="-8.1811620">
        <ele>326.7</ele>
        <time>2020-04-17T18:17:13Z</time>
      </trkpt>
      <trkpt lat="42.9302830" lon="-8.1813100">
        <ele>327.0</ele>
        <time>2020-04-17T18:17:15Z</time>
      </trkpt>
      <trkpt lat="42.9301410" lon="-8.1814880">
        <ele>327.6</ele>
        <time>2020-04-17T18:17:17Z</time>
      </trkpt>
      <trkpt lat="42.9299790" lon="-8.1816470">
        <ele>328.1</ele>
        <time>2020-04-17T18:17:19Z</time>
      </trkpt>
      <trkpt lat="42.9298660" lon="-8.1817290">
        <ele>328.4</ele>
        <time>2020-04-17T18:17:21Z</time>
      </trkpt>
      <trkpt lat="42.9297500" lon="-8.1818130">
        <ele>328.6</ele>
        <time>2020-04-17T18:17:23Z</time>
      </trkpt>
      <trkpt lat="42.9296330" lon="-8.1818980">
        <ele>328.9</ele>
        <time>2020-04-17T18:17:25Z</time>
      </trkpt>
      <trkpt lat="42.9295130" lon="-8.1819850">
        <ele>329.1</ele>
        <time>2020-04-17T18:17:27Z</time>
      </trkpt>
      <trkpt lat="42.9292020" lon="-8.1822110">
        <ele>329.3</ele>
        <time>2020-04-17T18:17:29Z</time>
      </trkpt>
      <trkpt lat="42.9290150" lon="-8.1823490">
        <ele>329.3</ele>
        <time>2020-04-17T18:17:31Z</time>
      </trkpt>
      <trkpt lat="42.9288950" lon="-8.1824380">
        <ele>329.2</ele>
        <time>2020-04-17T18:17:33Z</time>
      </trkpt>
      <trkpt lat="42.9287770" lon="-8.1825250">
        <ele>329.0</ele>
        <time>2020-04-17T18:17:35Z</time>
      </trkpt>
      <trkpt lat="42.9285440" lon="-8.1827180">
        <ele>328.5</ele>
        <time>2020-04-17T18:17:37Z</time>
      </trkpt>
      <trkpt lat="42.9283820" lon="-8.1828900">
        <ele>327.9</ele>
        <time>2020-04-17T18:17:39Z</time>
      </trkpt>
      <trkpt lat="42.9283030" lon="-8.1830250">
        <ele>327.6</ele>
        <time>2020-04-17T18:17:41Z</time>
      </trkpt>
      <trkpt lat="42.9281900" lon="-8.1832420">
        <ele>327.2</ele>
        <time>2020-04-17T18:17:43Z</time>
      </trkpt>
      <trkpt lat="42.9281090" lon="-8.1834580">
        <ele>326.8</ele>
        <time>2020-04-17T18:17:45Z</time>
      </trkpt>
      <trkpt lat="42.9280620" lon="-8.1836270">
        <ele>326.5</ele>
        <time>2020-04-17T18:17:47Z</time>
      </trkpt>
      <trkpt lat="42.9279800" lon="-8.1839370">
        <ele>326.0</ele>
        <time>2020-04-17T18:17:49Z</time>
      </trkpt>
      <trkpt lat="42.9279400" lon="-8.1841360">
        <ele>325.7</ele>
        <time>2020-04-17T18:17:51Z</time>
      </trkpt>
      <trkpt lat="42.9278970" lon="-8.1843450">
        <ele>325.4</ele>
        <time>2020-04-17T18:17:53Z</time>
      </trkpt>
      <trkpt lat="42.9278170" lon="-8.1847440">
        <ele>325.2</ele>
        <time>2020-04-17T18:17:55Z</time>
      </trkpt>
      <trkpt lat="42.9277790" lon="-8.1849370">
        <ele>325.3</ele>
        <time>2020-04-17T18:17:57Z</time>
      </trkpt>
      <trkpt lat="42.9277020" lon="-8.1853070">
        <ele>326.0</ele>
        <time>2020-04-17T18:17:59Z</time>
      </trkpt>
      <trkpt lat="42.9276540" lon="-8.1854710">
        <ele>326.4</ele>
        <time>2020-04-17T18:18:01Z</time>
      </trkpt>
      <trkpt lat="42.9276090" lon="-8.1856280">
        <ele>327.0</ele>
        <time>2020-04-17T18:18:03Z</time>
      </trkpt>
      <trkpt lat="42.9275120" lon="-8.1859340">
        <ele>328.3</ele>
        <time>2020-04-17T18:18:05Z</time>
      </trkpt>
      <trkpt lat="42.9274490" lon="-8.1860530">
        <ele>329.0</ele>
        <time>2020-04-17T18:18:07Z</time>
      </trkpt>
      <trkpt lat="42.9273900" lon="-8.1861630">
        <ele>329.6</ele>
        <time>2020-04-17T18:18:09Z</time>
      </trkpt>
      <trkpt lat="42.9273350" lon="-8.1862650">
        <ele>330.1</ele>
        <time>2020-04-17T18:18:11Z</time>
      </trkpt>
      <trkpt lat="42.9271890" lon="-8.1865100">
        <ele>331.4</ele>
        <time>2020-04-17T18:18:13Z</time>
      </trkpt>
      <trkpt lat="42.9271090" lon="-8.1865880">
        <ele>331.9</ele>
        <time>2020-04-17T18:18:15Z</time>
      </trkpt>
      <trkpt lat="42.9270450" lon="-8.1866520">
        <ele>332.3</ele>
        <time>2020-04-17T18:18:17Z</time>
      </trkpt>
      <trkpt lat="42.9269840" lon="-8.1867130">
        <ele>332.7</ele>
        <time>2020-04-17T18:18:19Z</time>
      </trkpt>
      <trkpt lat="42.9268480" lon="-8.1868260">
        <ele>333.2</ele>
        <time>2020-04-17T18:18:21Z</time>
      </trkpt>
      <trkpt lat="42.9267810" lon="-8.1868670">
        <ele>333.4</ele>
        <time>2020-04-17T18:18:23Z</time>
      </trkpt>
      <trkpt lat="42.9267170" lon="-8.1869060">
        <ele>333.7</ele>
        <time>2020-04-17T18:18:25Z</time>
      </trkpt>
      <trkpt lat="42.9265720" lon="-8.1869890">
        <ele>334.5</ele>
        <time>2020-04-17T18:18:27Z</time>
      </trkpt>
      <trkpt lat="42.9265040" lon="-8.1870180">
        <ele>334.8</ele>
        <time>2020-04-17T18:18:29Z</time>
      </trkpt>
      <trkpt lat="42.9264360" lon="-8.1870470">
        <ele>335.2</ele>
        <time>2020-04-17T18:18:31Z</time>
      </trkpt>
      <trkpt lat="42.9263690" lon="-8.1870760">
        <ele>335.6</ele>
        <time>2020-04-17T18:18:33Z</time>
      </trkpt>
      <trkpt lat="42.9263030" lon="-8.1871040">
        <ele>336.0</ele>
        <time>2020-04-17T18:18:35Z</time>
      </trkpt>
      <trkpt lat="42.9262370" lon="-8.1871330">
        <ele>336.4</ele>
        <time>2020-04-17T18:18:37Z</time>
      </trkpt>
      <trkpt lat="42.9261710" lon="-8.1871610">
        <ele>336.8</ele>
        <time>2020-04-17T18:18:39Z</time>
      </trkpt>
      <trkpt lat="42.9259440" lon="-8.1872580">
        <ele>338.2</ele>
        <time>2020-04-17T18:18:41Z</time>
      </trkpt>
      <trkpt lat="42.9258420" lon="-8.1873030">
        <ele>338.8</ele>
        <time>2020-04-17T18:18:43Z</time>
      </trkpt>
      <trkpt lat="42.9257780" lon="-8.1873300">
        <ele>339.2</ele>
        <time>2020-04-17T18:18:45Z</time>
      </trkpt>
      <trkpt lat="42.9257120" lon="-8.1873580">
        <ele>339.6</ele>
        <time>2020-04-17T18:18:47Z</time>
      </trkpt>
      <trkpt lat="42.9256480" lon="-8.1873860">
        <ele>340.0</ele>
        <time>2020-04-17T18:18:49Z</time>
      </trkpt>
      <trkpt lat="42.9255830" lon="-8.1874130">
        <ele>340.4</ele>
        <time>2020-04-17T18:18:51Z</time>
      </trkpt>
      <trkpt lat="42.9253960" lon="-8.1874930">
        <ele>341.8</ele>
        <time>2020-04-17T18:18:53Z</time>
      </trkpt>
      <trkpt lat="42.9253320" lon="-8.1875210">
        <ele>342.2</ele>
        <time>2020-04-17T18:18:55Z</time>
      </trkpt>
      <trkpt lat="42.9252340" lon="-8.1875620">
        <ele>342.9</ele>
        <time>2020-04-17T18:18:57Z</time>
      </trkpt>
      <trkpt lat="42.9251690" lon="-8.1875890">
        <ele>343.3</ele>
        <time>2020-04-17T18:18:59Z</time>
      </trkpt>
      <trkpt lat="42.9251040" lon="-8.1876150">
        <ele>343.8</ele>
        <time>2020-04-17T18:19:01Z</time>
      </trkpt>
      <trkpt lat="42.9250400" lon="-8.1876410">
        <ele>344.3</ele>
        <time>2020-04-17T18:19:03Z</time>
      </trkpt>
      <trkpt lat="42.9249760" lon="-8.1876670">
        <ele>344.8</ele>
        <time>2020-04-17T18:19:05Z</time>
      </trkpt>
      <trkpt lat="42.9247860" lon="-8.1877400">
        <ele>346.2</ele>
        <time>2020-04-17T18:19:07Z</time>
      </trkpt>
      <trkpt lat="42.9247210" lon="-8.1877540">
        <ele>346.7</ele>
        <time>2020-04-17T18:19:09Z</time>
      </trkpt>
      <trkpt lat="42.9246570" lon="-8.1877680">
        <ele>347.1</ele>
        <time>2020-04-17T18:19:11Z</time>
      </trkpt>
      <trkpt lat="42.9245230" lon="-8.1877940">
        <ele>348.1</ele>
        <time>2020-04-17T18:19:13Z</time>
      </trkpt>
      <trkpt lat="42.9244590" lon="-8.1878000">
        <ele>348.5</ele>
        <time>2020-04-17T18:19:15Z</time>
      </trkpt>
      <trkpt lat="42.9243940" lon="-8.1878070">
        <ele>348.9</ele>
        <time>2020-04-17T18:19:17Z</time>
      </trkpt>
      <trkpt lat="42.9243300" lon="-8.1878130">
        <ele>349.3</ele>
        <time>2020-04-17T18:19:19Z</time>
      </trkpt>
      <trkpt lat="42.9241700" lon="-8.1878270">
        <ele>350.3</ele>
        <time>2020-04-17T18:19:21Z</time>
      </trkpt>
      <trkpt lat="42.9241060" lon="-8.1878310">
        <ele>350.6</ele>
        <time>2020-04-17T18:19:23Z</time>
      </trkpt>
      <trkpt lat="42.9240420" lon="-8.1878350">
        <ele>350.9</ele>
        <time>2020-04-17T18:19:25Z</time>
      </trkpt>
      <trkpt lat="42.9239270" lon="-8.1878440">
        <ele>351.4</ele>
        <time>2020-04-17T18:19:27Z</time>
      </trkpt>
      <trkpt lat="42.9238640" lon="-8.1878500">
        <ele>351.6</ele>
        <time>2020-04-17T18:19:29Z</time>
      </trkpt>
      <trkpt lat="42.9238020" lon="-8.1878570">
        <ele>351.9</ele>
        <time>2020-04-17T18:19:31Z</time>
      </trkpt>
      <trkpt lat="42.9236550" lon="-8.1878750">
        <ele>352.6</ele>
        <time>2020-04-17T18:19:33Z</time>
      </trkpt>
      <trkpt lat="42.9235720" lon="-8.1879010">
        <ele>353.0</ele>
        <time>2020-04-17T18:19:35Z</time>
      </trkpt>
      <trkpt lat="42.9234820" lon="-8.1879310">
        <ele>353.5</ele>
        <time>2020-04-17T18:19:37Z</time>
      </trkpt>
      <trkpt lat="42.9234190" lon="-8.1879660">
        <ele>354.0</ele>
        <time>2020-04-17T18:19:39Z</time>
      </trkpt>
      <trkpt lat="42.9233180" lon="-8.1880240">
        <ele>354.9</ele>
        <time>2020-04-17T18:19:41Z</time>
      </trkpt>
      <trkpt lat="42.9232610" lon="-8.1880640">
        <ele>355.4</ele>
        <time>2020-04-17T18:19:43Z</time>
      </trkpt>
      <trkpt lat="42.9231610" lon="-8.1881330">
        <ele>356.3</ele>
        <time>2020-04-17T18:19:45Z</time>
      </trkpt>
      <trkpt lat="42.9231080" lon="-8.1881900">
        <ele>356.9</ele>
        <time>2020-04-17T18:19:47Z</time>
      </trkpt>
      <trkpt lat="42.9230570" lon="-8.1882450">
        <ele>357.4</ele>
        <time>2020-04-17T18:19:49Z</time>
      </trkpt>
      <trkpt lat="42.9229710" lon="-8.1883490">
        <ele>358.3</ele>
        <time>2020-04-17T18:19:51Z</time>
      </trkpt>
      <trkpt lat="42.9228970" lon="-8.1884540">
        <ele>359.1</ele>
        <time>2020-04-17T18:19:53Z</time>
      </trkpt>
      <trkpt lat="42.9228340" lon="-8.1885580">
        <ele>359.6</ele>
        <time>2020-04-17T18:19:55Z</time>
      </trkpt>
      <trkpt lat="42.9227820" lon="-8.1886450">
        <ele>359.7</ele>
        <time>2020-04-17T18:19:57Z</time>
      </trkpt>
      <trkpt lat="42.9227210" lon="-8.1887470">
        <ele>360.1</ele>
        <time>2020-04-17T18:19:59Z</time>
      </trkpt>
      <trkpt lat="42.9226840" lon="-8.1888160">
        <ele>360.4</ele>
        <time>2020-04-17T18:20:01Z</time>
      </trkpt>
      <trkpt lat="42.9226480" lon="-8.1888830">
        <ele>360.7</ele>
        <time>2020-04-17T18:20:03Z</time>
      </trkpt>
      <trkpt lat="42.9226130" lon="-8.1889490">
        <ele>361.0</ele>
        <time>2020-04-17T18:20:05Z</time>
      </trkpt>
      <trkpt lat="42.9225780" lon="-8.1890140">
        <ele>361.4</ele>
        <time>2020-04-17T18:20:07Z</time>
      </trkpt>
      <trkpt lat="42.9225440" lon="-8.1890780">
        <ele>361.6</ele>
        <time>2020-04-17T18:20:09Z</time>
      </trkpt>
      <trkpt lat="42.9225100" lon="-8.1891400">
        <ele>361.9</ele>
        <time>2020-04-17T18:20:11Z</time>
      </trkpt>
      <trkpt lat="42.9223820" lon="-8.1893790">
        <ele>363.0</ele>
        <time>2020-04-17T18:20:13Z</time>
      </trkpt>
      <trkpt lat="42.9223280" lon="-8.1894760">
        <ele>363.5</ele>
        <time>2020-04-17T18:20:15Z</time>
      </trkpt>
      <trkpt lat="42.9222840" lon="-8.1895570">
        <ele>363.9</ele>
        <time>2020-04-17T18:20:17Z</time>
      </trkpt>
      <trkpt lat="42.9222380" lon="-8.1896410">
        <ele>364.3</ele>
        <time>2020-04-17T18:20:19Z</time>
      </trkpt>
      <trkpt lat="42.9221910" lon="-8.1897270">
        <ele>364.6</ele>
        <time>2020-04-17T18:20:21Z</time>
      </trkpt>
      <trkpt lat="42.9221410" lon="-8.1898180">
        <ele>365.0</ele>
        <time>2020-04-17T18:20:23Z</time>
      </trkpt>
      <trkpt lat="42.9220900" lon="-8.1899110">
        <ele>365.3</ele>
        <time>2020-04-17T18:20:25Z</time>
      </trkpt>
      <trkpt lat="42.9219460" lon="-8.1901730">
        <ele>366.2</ele>
        <time>2020-04-17T18:20:27Z</time>
      </trkpt>
      <trkpt lat="42.9218930" lon="-8.1902670">
        <ele>366.4</ele>
        <time>2020-04-17T18:20:29Z</time>
      </trkpt>
      <trkpt lat="42.9217920" lon="-8.1904450">
        <ele>366.7</ele>
        <time>2020-04-17T18:20:31Z</time>
      </trkpt>
      <trkpt lat="42.9217370" lon="-8.1905440">
        <ele>366.8</ele>
        <time>2020-04-17T18:20:33Z</time>
      </trkpt>
      <trkpt lat="42.9216800" lon="-8.1906450">
        <ele>366.8</ele>
        <time>2020-04-17T18:20:35Z</time>
      </trkpt>
      <trkpt lat="42.9216230" lon="-8.1907470">
        <ele>366.9</ele>
        <time>2020-04-17T18:20:37Z</time>
      </trkpt>
      <trkpt lat="42.9214950" lon="-8.1909750">
        <ele>366.9</ele>
        <time>2020-04-17T18:20:39Z</time>
      </trkpt>
      <trkpt lat="42.9214370" lon="-8.1910800">
        <ele>366.9</ele>
        <time>2020-04-17T18:20:41Z</time>
      </trkpt>
      <trkpt lat="42.9213790" lon="-8.1911840">
        <ele>366.9</ele>
        <time>2020-04-17T18:20:43Z</time>
      </trkpt>
      <trkpt lat="42.9212520" lon="-8.1914350">
        <ele>366.8</ele>
        <time>2020-04-17T18:20:45Z</time>
      </trkpt>
      <trkpt lat="42.9212090" lon="-8.1915530">
        <ele>366.6</ele>
        <time>2020-04-17T18:20:47Z</time>
      </trkpt>
      <trkpt lat="42.9211480" lon="-8.1917490">
        <ele>366.3</ele>
        <time>2020-04-17T18:20:49Z</time>
      </trkpt>
      <trkpt lat="42.9211050" lon="-8.1919390">
        <ele>366.0</ele>
        <time>2020-04-17T18:20:51Z</time>
      </trkpt>
      <trkpt lat="42.9210880" lon="-8.1920820">
        <ele>365.9</ele>
        <time>2020-04-17T18:20:53Z</time>
      </trkpt>
      <trkpt lat="42.9210750" lon="-8.1923290">
        <ele>365.3</ele>
        <time>2020-04-17T18:20:55Z</time>
      </trkpt>
      <trkpt lat="42.9210870" lon="-8.1925650">
        <ele>364.8</ele>
        <time>2020-04-17T18:20:57Z</time>
      </trkpt>
      <trkpt lat="42.9211260" lon="-8.1927900">
        <ele>364.4</ele>
        <time>2020-04-17T18:20:59Z</time>
      </trkpt>
      <trkpt lat="42.9211890" lon="-8.1930000">
        <ele>363.9</ele>
        <time>2020-04-17T18:21:01Z</time>
      </trkpt>
      <trkpt lat="42.9212380" lon="-8.1931310">
        <ele>363.6</ele>
        <time>2020-04-17T18:21:03Z</time>
      </trkpt>
      <trkpt lat="42.9212650" lon="-8.1932040">
        <ele>363.4</ele>
        <time>2020-04-17T18:21:05Z</time>
      </trkpt>
      <trkpt lat="42.9213020" lon="-8.1933050">
        <ele>363.2</ele>
        <time>2020-04-17T18:21:07Z</time>
      </trkpt>
      <trkpt lat="42.9213020" lon="-8.1933050">
        <ele>363.2</ele>
        <time>2020-04-17T18:21:09Z</time>
      </trkpt>
      <trkpt lat="42.9213020" lon="-8.1933050">
        <ele>363.2</ele>
        <time>2020-04-17T18:21:11Z</time>
      </trkpt>
      <trkpt lat="42.9213110" lon="-8.1933250">
        <ele>363.1</ele>
        <time>2020-04-17T18:21:13Z</time>
      </trkpt>
      <trkpt lat="42.9213310" lon="-8.1933740">
        <ele>363.1</ele>
        <time>2020-04-17T18:21:15Z</time>
      </trkpt>
      <trkpt lat="42.9213590" lon="-8.1934390">
        <ele>362.9</ele>
        <time>2020-04-17T18:21:17Z</time>
      </trkpt>
      <trkpt lat="42.9213910" lon="-8.1935170">
        <ele>362.8</ele>
        <time>2020-04-17T18:21:19Z</time>
      </trkpt>
      <trkpt lat="42.9214280" lon="-8.1936050">
        <ele>362.6</ele>
        <time>2020-04-17T18:21:21Z</time>
      </trkpt>
      <trkpt lat="42.9214690" lon="-8.1937020">
        <ele>362.3</ele>
        <time>2020-04-17T18:21:23Z</time>
      </trkpt>
      <trkpt lat="42.9215130" lon="-8.1938080">
        <ele>362.1</ele>
        <time>2020-04-17T18:21:25Z</time>
      </trkpt>
      <trkpt lat="42.9216530" lon="-8.1941410">
        <ele>361.2</ele>
        <time>2020-04-17T18:21:27Z</time>
      </trkpt>
      <trkpt lat="42.9217040" lon="-8.1942610">
        <ele>360.9</ele>
        <time>2020-04-17T18:21:29Z</time>
      </trkpt>
      <trkpt lat="42.9217570" lon="-8.1943880">
        <ele>360.5</ele>
        <time>2020-04-17T18:21:31Z</time>
      </trkpt>
      <trkpt lat="42.9218650" lon="-8.1946440">
        <ele>359.6</ele>
        <time>2020-04-17T18:21:33Z</time>
      </trkpt>
      <trkpt lat="42.9219470" lon="-8.1948350">
        <ele>358.8</ele>
        <time>2020-04-17T18:21:35Z</time>
      </trkpt>
      <trkpt lat="42.9220260" lon="-8.1950180">
        <ele>358.0</ele>
        <time>2020-04-17T18:21:37Z</time>
      </trkpt>
      <trkpt lat="42.9221210" lon="-8.1952410">
        <ele>357.0</ele>
        <time>2020-04-17T18:21:39Z</time>
      </trkpt>
      <trkpt lat="42.9221820" lon="-8.1953960">
        <ele>356.3</ele>
        <time>2020-04-17T18:21:41Z</time>
      </trkpt>
      <trkpt lat="42.9222460" lon="-8.1955560">
        <ele>355.6</ele>
        <time>2020-04-17T18:21:43Z</time>
      </trkpt>
      <trkpt lat="42.9223750" lon="-8.1958810">
        <ele>354.2</ele>
        <time>2020-04-17T18:21:45Z</time>
      </trkpt>
      <trkpt lat="42.9224430" lon="-8.1960460">
        <ele>353.5</ele>
        <time>2020-04-17T18:21:47Z</time>
      </trkpt>
      <trkpt lat="42.9225120" lon="-8.1962150">
        <ele>352.8</ele>
        <time>2020-04-17T18:21:49Z</time>
      </trkpt>
      <trkpt lat="42.9226660" lon="-8.1965870">
        <ele>351.9</ele>
        <time>2020-04-17T18:21:51Z</time>
      </trkpt>
      <trkpt lat="42.9227400" lon="-8.1967600">
        <ele>351.5</ele>
        <time>2020-04-17T18:21:53Z</time>
      </trkpt>
      <trkpt lat="42.9228530" lon="-8.1970050">
        <ele>350.4</ele>
        <time>2020-04-17T18:21:55Z</time>
      </trkpt>
      <trkpt lat="42.9229900" lon="-8.1972870">
        <ele>349.3</ele>
        <time>2020-04-17T18:21:57Z</time>
      </trkpt>
      <trkpt lat="42.9231180" lon="-8.1975080">
        <ele>348.6</ele>
        <time>2020-04-17T18:21:59Z</time>
      </trkpt>
      <trkpt lat="42.9232590" lon="-8.1977220">
        <ele>347.4</ele>
        <time>2020-04-17T18:22:01Z</time>
      </trkpt>
      <trkpt lat="42.9233720" lon="-8.1978740">
        <ele>346.3</ele>
        <time>2020-04-17T18:22:03Z</time>
      </trkpt>
      <trkpt lat="42.9235440" lon="-8.1981100">
        <ele>344.6</ele>
        <time>2020-04-17T18:22:05Z</time>
      </trkpt>
      <trkpt lat="42.9236980" lon="-8.1983550">
        <ele>343.1</ele>
        <time>2020-04-17T18:22:07Z</time>
      </trkpt>
      <trkpt lat="42.9238280" lon="-8.1986330">
        <ele>341.9</ele>
        <time>2020-04-17T18:22:09Z</time>
      </trkpt>
      <trkpt lat="42.9239070" lon="-8.1989250">
        <ele>341.0</ele>
        <time>2020-04-17T18:22:11Z</time>
      </trkpt>
      <trkpt lat="42.9239490" lon="-8.1992540">
        <ele>340.1</ele>
        <time>2020-04-17T18:22:13Z</time>
      </trkpt>
      <trkpt lat="42.9239360" lon="-8.1995620">
        <ele>339.3</ele>
        <time>2020-04-17T18:22:15Z</time>
      </trkpt>
      <trkpt lat="42.9238840" lon="-8.1998510">
        <ele>338.6</ele>
        <time>2020-04-17T18:22:17Z</time>
      </trkpt>
      <trkpt lat="42.9237840" lon="-8.2001110">
        <ele>338.3</ele>
        <time>2020-04-17T18:22:19Z</time>
      </trkpt>
      <trkpt lat="42.9236660" lon="-8.2003420">
        <ele>338.3</ele>
        <time>2020-04-17T18:22:21Z</time>
      </trkpt>
      <trkpt lat="42.9235370" lon="-8.2005380">
        <ele>338.6</ele>
        <time>2020-04-17T18:22:23Z</time>
      </trkpt>
      <trkpt lat="42.9234240" lon="-8.2006320">
        <ele>339.1</ele>
        <time>2020-04-17T18:22:25Z</time>
      </trkpt>
      <trkpt lat="42.9232520" lon="-8.2007770">
        <ele>340.2</ele>
        <time>2020-04-17T18:22:27Z</time>
      </trkpt>
      <trkpt lat="42.9231130" lon="-8.2008920">
        <ele>341.0</ele>
        <time>2020-04-17T18:22:29Z</time>
      </trkpt>
      <trkpt lat="42.9230230" lon="-8.2009550">
        <ele>341.7</ele>
        <time>2020-04-17T18:22:31Z</time>
      </trkpt>
      <trkpt lat="42.9228780" lon="-8.2010520">
        <ele>342.5</ele>
        <time>2020-04-17T18:22:33Z</time>
      </trkpt>
      <trkpt lat="42.9227620" lon="-8.2011200">
        <ele>342.9</ele>
        <time>2020-04-17T18:22:35Z</time>
      </trkpt>
      <trkpt lat="42.9226760" lon="-8.2011700">
        <ele>343.1</ele>
        <time>2020-04-17T18:22:37Z</time>
      </trkpt>
      <trkpt lat="42.9226260" lon="-8.2013190">
        <ele>343.3</ele>
        <time>2020-04-17T18:22:39Z</time>
      </trkpt>
      <trkpt lat="42.9226280" lon="-8.2014460">
        <ele>343.4</ele>
        <time>2020-04-17T18:22:41Z</time>
      </trkpt>
      <trkpt lat="42.9226180" lon="-8.2016920">
        <ele>343.8</ele>
        <time>2020-04-17T18:22:43Z</time>
      </trkpt>
      <trkpt lat="42.9225640" lon="-8.2017880">
        <ele>344.1</ele>
        <time>2020-04-17T18:22:45Z</time>
      </trkpt>
      <trkpt lat="42.9224630" lon="-8.2018930">
        <ele>344.5</ele>
        <time>2020-04-17T18:22:47Z</time>
      </trkpt>
      <trkpt lat="42.9223440" lon="-8.2019520">
        <ele>345.1</ele>
        <time>2020-04-17T18:22:49Z</time>
      </trkpt>
      <trkpt lat="42.9222190" lon="-8.2019730">
        <ele>345.5</ele>
        <time>2020-04-17T18:22:51Z</time>
      </trkpt>
      <trkpt lat="42.9221430" lon="-8.2019240">
        <ele>345.7</ele>
        <time>2020-04-17T18:22:53Z</time>
      </trkpt>
      <trkpt lat="42.9220250" lon="-8.2019140">
        <ele>346.2</ele>
        <time>2020-04-17T18:22:55Z</time>
      </trkpt>
      <trkpt lat="42.9219440" lon="-8.2019430">
        <ele>346.4</ele>
        <time>2020-04-17T18:22:57Z</time>
      </trkpt>
      <trkpt lat="42.9218230" lon="-8.2020380">
        <ele>346.7</ele>
        <time>2020-04-17T18:22:59Z</time>
      </trkpt>
      <trkpt lat="42.9217660" lon="-8.2021210">
        <ele>346.9</ele>
        <time>2020-04-17T18:23:01Z</time>
      </trkpt>
      <trkpt lat="42.9217090" lon="-8.2022040">
        <ele>347.2</ele>
        <time>2020-04-17T18:23:03Z</time>
      </trkpt>
      <trkpt lat="42.9216530" lon="-8.2022870">
        <ele>347.5</ele>
        <time>2020-04-17T18:23:05Z</time>
      </trkpt>
      <trkpt lat="42.9215020" lon="-8.2025070">
        <ele>348.7</ele>
        <time>2020-04-17T18:23:07Z</time>
      </trkpt>
      <trkpt lat="42.9214470" lon="-8.2025870">
        <ele>349.1</ele>
        <time>2020-04-17T18:23:09Z</time>
      </trkpt>
      <trkpt lat="42.9213940" lon="-8.2026640">
        <ele>349.6</ele>
        <time>2020-04-17T18:23:11Z</time>
      </trkpt>
      <trkpt lat="42.9213410" lon="-8.2027410">
        <ele>350.1</ele>
        <time>2020-04-17T18:23:13Z</time>
      </trkpt>
      <trkpt lat="42.9212880" lon="-8.2028180">
        <ele>350.6</ele>
        <time>2020-04-17T18:23:15Z</time>
      </trkpt>
      <trkpt lat="42.9211400" lon="-8.2030360">
        <ele>352.4</ele>
        <time>2020-04-17T18:23:17Z</time>
      </trkpt>
      <trkpt lat="42.9210910" lon="-8.2031140">
        <ele>352.9</ele>
        <time>2020-04-17T18:23:19Z</time>
      </trkpt>
      <trkpt lat="42.9210420" lon="-8.2031920">
        <ele>353.4</ele>
        <time>2020-04-17T18:23:21Z</time>
      </trkpt>
      <trkpt lat="42.9209590" lon="-8.2033430">
        <ele>354.2</ele>
        <time>2020-04-17T18:23:23Z</time>
      </trkpt>
      <trkpt lat="42.9209030" lon="-8.2034650">
        <ele>354.9</ele>
        <time>2020-04-17T18:23:25Z</time>
      </trkpt>
      <trkpt lat="42.9208520" lon="-8.2036020">
        <ele>355.5</ele>
        <time>2020-04-17T18:23:27Z</time>
      </trkpt>
      <trkpt lat="42.9208250" lon="-8.2036980">
        <ele>356.0</ele>
        <time>2020-04-17T18:23:29Z</time>
      </trkpt>
      <trkpt lat="42.9207980" lon="-8.2037930">
        <ele>356.4</ele>
        <time>2020-04-17T18:23:31Z</time>
      </trkpt>
      <trkpt lat="42.9207440" lon="-8.2040030">
        <ele>357.3</ele>
        <time>2020-04-17T18:23:33Z</time>
      </trkpt>
      <trkpt lat="42.9207290" lon="-8.2041020">
        <ele>357.6</ele>
        <time>2020-04-17T18:23:35Z</time>
      </trkpt>
      <trkpt lat="42.9207140" lon="-8.2042020">
        <ele>357.9</ele>
        <time>2020-04-17T18:23:37Z</time>
      </trkpt>
      <trkpt lat="42.9206990" lon="-8.2043010">
        <ele>358.1</ele>
        <time>2020-04-17T18:23:39Z</time>
      </trkpt>
      <trkpt lat="42.9206760" lon="-8.2045310">
        <ele>358.6</ele>
        <time>2020-04-17T18:23:41Z</time>
      </trkpt>
      <trkpt lat="42.9206730" lon="-8.2046970">
        <ele>358.9</ele>
        <time>2020-04-17T18:23:43Z</time>
      </trkpt>
      <trkpt lat="42.9206810" lon="-8.2048040">
        <ele>359.0</ele>
        <time>2020-04-17T18:23:45Z</time>
      </trkpt>
      <trkpt lat="42.9206880" lon="-8.2049100">
        <ele>359.1</ele>
        <time>2020-04-17T18:23:47Z</time>
      </trkpt>
      <trkpt lat="42.9206960" lon="-8.2050150">
        <ele>359.2</ele>
        <time>2020-04-17T18:23:49Z</time>
      </trkpt>
      <trkpt lat="42.9207040" lon="-8.2051200">
        <ele>359.3</ele>
        <time>2020-04-17T18:23:51Z</time>
      </trkpt>
      <trkpt lat="42.9207290" lon="-8.2054280">
        <ele>359.5</ele>
        <time>2020-04-17T18:23:53Z</time>
      </trkpt>
      <trkpt lat="42.9207660" lon="-8.2055250">
        <ele>359.5</ele>
        <time>2020-04-17T18:23:55Z</time>
      </trkpt>
      <trkpt lat="42.9208040" lon="-8.2056230">
        <ele>359.5</ele>
        <time>2020-04-17T18:23:57Z</time>
      </trkpt>
      <trkpt lat="42.9208740" lon="-8.2058080">
        <ele>359.4</ele>
        <time>2020-04-17T18:23:59Z</time>
      </trkpt>
      <trkpt lat="42.9209150" lon="-8.2059170">
        <ele>359.4</ele>
        <time>2020-04-17T18:24:01Z</time>
      </trkpt>
      <trkpt lat="42.9209580" lon="-8.2060320">
        <ele>359.2</ele>
        <time>2020-04-17T18:24:03Z</time>
      </trkpt>
      <trkpt lat="42.9210030" lon="-8.2061530">
        <ele>359.0</ele>
        <time>2020-04-17T18:24:05Z</time>
      </trkpt>
      <trkpt lat="42.9211090" lon="-8.2064340">
        <ele>358.5</ele>
        <time>2020-04-17T18:24:08Z</time>
      </trkpt>
      <trkpt lat="42.9211570" lon="-8.2065630">
        <ele>358.2</ele>
        <time>2020-04-17T18:24:10Z</time>
      </trkpt>
      <trkpt lat="42.9212440" lon="-8.2067950">
        <ele>357.9</ele>
        <time>2020-04-17T18:24:12Z</time>
      </trkpt>
      <trkpt lat="42.9213150" lon="-8.2069860">
        <ele>357.8</ele>
        <time>2020-04-17T18:24:14Z</time>
      </trkpt>
      <trkpt lat="42.9213680" lon="-8.2071260">
        <ele>357.6</ele>
        <time>2020-04-17T18:24:16Z</time>
      </trkpt>
      <trkpt lat="42.9214230" lon="-8.2072700">
        <ele>357.1</ele>
        <time>2020-04-17T18:24:18Z</time>
      </trkpt>
      <trkpt lat="42.9215380" lon="-8.2075780">
        <ele>356.3</ele>
        <time>2020-04-17T18:24:20Z</time>
      </trkpt>
      <trkpt lat="42.9216140" lon="-8.2077850">
        <ele>355.8</ele>
        <time>2020-04-17T18:24:22Z</time>
      </trkpt>
      <trkpt lat="42.9216700" lon="-8.2079430">
        <ele>355.5</ele>
        <time>2020-04-17T18:24:24Z</time>
      </trkpt>
      <trkpt lat="42.9217550" lon="-8.2082150">
        <ele>355.2</ele>
        <time>2020-04-17T18:24:26Z</time>
      </trkpt>
      <trkpt lat="42.9218260" lon="-8.2084760">
        <ele>355.1</ele>
        <time>2020-04-17T18:24:28Z</time>
      </trkpt>
      <trkpt lat="42.9218610" lon="-8.2087000">
        <ele>355.0</ele>
        <time>2020-04-17T18:24:30Z</time>
      </trkpt>
      <trkpt lat="42.9218790" lon="-8.2089460">
        <ele>354.9</ele>
        <time>2020-04-17T18:24:32Z</time>
      </trkpt>
      <trkpt lat="42.9218850" lon="-8.2091260">
        <ele>355.0</ele>
        <time>2020-04-17T18:24:34Z</time>
      </trkpt>
      <trkpt lat="42.9218780" lon="-8.2094380">
        <ele>355.1</ele>
        <time>2020-04-17T18:24:36Z</time>
      </trkpt>
      <trkpt lat="42.9218560" lon="-8.2096050">
        <ele>355.3</ele>
        <time>2020-04-17T18:24:38Z</time>
      </trkpt>
      <trkpt lat="42.9218070" lon="-8.2098740">
        <ele>355.9</ele>
        <time>2020-04-17T18:24:40Z</time>
      </trkpt>
      <trkpt lat="42.9217420" lon="-8.2100980">
        <ele>356.3</ele>
        <time>2020-04-17T18:24:42Z</time>
      </trkpt>
      <trkpt lat="42.9216880" lon="-8.2102300">
        <ele>356.6</ele>
        <time>2020-04-17T18:24:44Z</time>
      </trkpt>
      <trkpt lat="42.9216370" lon="-8.2103580">
        <ele>357.1</ele>
        <time>2020-04-17T18:24:46Z</time>
      </trkpt>
      <trkpt lat="42.9215880" lon="-8.2104800">
        <ele>357.7</ele>
        <time>2020-04-17T18:24:48Z</time>
      </trkpt>
      <trkpt lat="42.9214590" lon="-8.2107350">
        <ele>359.1</ele>
        <time>2020-04-17T18:24:50Z</time>
      </trkpt>
      <trkpt lat="42.9213960" lon="-8.2108290">
        <ele>359.6</ele>
        <time>2020-04-17T18:24:52Z</time>
      </trkpt>
      <trkpt lat="42.9213360" lon="-8.2109180">
        <ele>360.1</ele>
        <time>2020-04-17T18:24:54Z</time>
      </trkpt>
      <trkpt lat="42.9212790" lon="-8.2110040">
        <ele>360.6</ele>
        <time>2020-04-17T18:24:56Z</time>
      </trkpt>
      <trkpt lat="42.9211350" lon="-8.2112210">
        <ele>361.9</ele>
        <time>2020-04-17T18:24:58Z</time>
      </trkpt>
      <trkpt lat="42.9210580" lon="-8.2113380">
        <ele>362.7</ele>
        <time>2020-04-17T18:25:00Z</time>
      </trkpt>
      <trkpt lat="42.9209800" lon="-8.2114590">
        <ele>363.4</ele>
        <time>2020-04-17T18:25:02Z</time>
      </trkpt>
      <trkpt lat="42.9209280" lon="-8.2115390">
        <ele>363.8</ele>
        <time>2020-04-17T18:25:04Z</time>
      </trkpt>
      <trkpt lat="42.9208760" lon="-8.2116180">
        <ele>364.3</ele>
        <time>2020-04-17T18:25:06Z</time>
      </trkpt>
      <trkpt lat="42.9207630" lon="-8.2117920">
        <ele>365.3</ele>
        <time>2020-04-17T18:25:08Z</time>
      </trkpt>
      <trkpt lat="42.9207130" lon="-8.2118700">
        <ele>365.8</ele>
        <time>2020-04-17T18:25:10Z</time>
      </trkpt>
      <trkpt lat="42.9206400" lon="-8.2119850">
        <ele>366.5</ele>
        <time>2020-04-17T18:25:12Z</time>
      </trkpt>
      <trkpt lat="42.9205890" lon="-8.2120650">
        <ele>367.0</ele>
        <time>2020-04-17T18:25:14Z</time>
      </trkpt>
      <trkpt lat="42.9205390" lon="-8.2121440">
        <ele>367.4</ele>
        <time>2020-04-17T18:25:16Z</time>
      </trkpt>
      <trkpt lat="42.9204890" lon="-8.2122220">
        <ele>367.9</ele>
        <time>2020-04-17T18:25:18Z</time>
      </trkpt>
      <trkpt lat="42.9204410" lon="-8.2122990">
        <ele>368.3</ele>
        <time>2020-04-17T18:25:20Z</time>
      </trkpt>
      <trkpt lat="42.9202840" lon="-8.2125450">
        <ele>369.7</ele>
        <time>2020-04-17T18:25:22Z</time>
      </trkpt>
      <trkpt lat="42.9202360" lon="-8.2126210">
        <ele>370.1</ele>
        <time>2020-04-17T18:25:24Z</time>
      </trkpt>
      <trkpt lat="42.9201880" lon="-8.2126960">
        <ele>370.4</ele>
        <time>2020-04-17T18:25:26Z</time>
      </trkpt>
      <trkpt lat="42.9201410" lon="-8.2127710">
        <ele>370.8</ele>
        <time>2020-04-17T18:25:28Z</time>
      </trkpt>
      <trkpt lat="42.9200940" lon="-8.2128450">
        <ele>371.1</ele>
        <time>2020-04-17T18:25:30Z</time>
      </trkpt>
      <trkpt lat="42.9199750" lon="-8.2130400">
        <ele>371.6</ele>
        <time>2020-04-17T18:25:32Z</time>
      </trkpt>
      <trkpt lat="42.9199320" lon="-8.2131170">
        <ele>371.8</ele>
        <time>2020-04-17T18:25:34Z</time>
      </trkpt>
      <trkpt lat="42.9198890" lon="-8.2131950">
        <ele>372.0</ele>
        <time>2020-04-17T18:25:36Z</time>
      </trkpt>
      <trkpt lat="42.9198040" lon="-8.2133640">
        <ele>372.5</ele>
        <time>2020-04-17T18:25:38Z</time>
      </trkpt>
      <trkpt lat="42.9197370" lon="-8.2135180">
        <ele>372.7</ele>
        <time>2020-04-17T18:25:40Z</time>
      </trkpt>
      <trkpt lat="42.9197030" lon="-8.2136260">
        <ele>372.9</ele>
        <time>2020-04-17T18:25:42Z</time>
      </trkpt>
      <trkpt lat="42.9196600" lon="-8.2137760">
        <ele>373.1</ele>
        <time>2020-04-17T18:25:44Z</time>
      </trkpt>
      <trkpt lat="42.9196220" lon="-8.2139440">
        <ele>373.3</ele>
        <time>2020-04-17T18:25:46Z</time>
      </trkpt>
      <trkpt lat="42.9196040" lon="-8.2140590">
        <ele>373.5</ele>
        <time>2020-04-17T18:25:48Z</time>
      </trkpt>
      <trkpt lat="42.9195850" lon="-8.2142400">
        <ele>373.7</ele>
        <time>2020-04-17T18:25:50Z</time>
      </trkpt>
      <trkpt lat="42.9195760" lon="-8.2144270">
        <ele>373.8</ele>
        <time>2020-04-17T18:25:52Z</time>
      </trkpt>
      <trkpt lat="42.9195800" lon="-8.2145720">
        <ele>373.8</ele>
        <time>2020-04-17T18:25:54Z</time>
      </trkpt>
      <trkpt lat="42.9195950" lon="-8.2147440">
        <ele>373.7</ele>
        <time>2020-04-17T18:25:56Z</time>
      </trkpt>
      <trkpt lat="42.9196100" lon="-8.2148650">
        <ele>373.7</ele>
        <time>2020-04-17T18:25:58Z</time>
      </trkpt>
      <trkpt lat="42.9196450" lon="-8.2150590">
        <ele>373.7</ele>
        <time>2020-04-17T18:26:00Z</time>
      </trkpt>
      <trkpt lat="42.9196910" lon="-8.2152340">
        <ele>373.7</ele>
        <time>2020-04-17T18:26:02Z</time>
      </trkpt>
      <trkpt lat="42.9197290" lon="-8.2153450">
        <ele>373.7</ele>
        <time>2020-04-17T18:26:04Z</time>
      </trkpt>
      <trkpt lat="42.9197990" lon="-8.2155250">
        <ele>373.8</ele>
        <time>2020-04-17T18:26:06Z</time>
      </trkpt>
      <trkpt lat="42.9198710" lon="-8.2156810">
        <ele>374.0</ele>
        <time>2020-04-17T18:26:08Z</time>
      </trkpt>
      <trkpt lat="42.9199240" lon="-8.2157810">
        <ele>374.2</ele>
        <time>2020-04-17T18:26:10Z</time>
      </trkpt>
      <trkpt lat="42.9199780" lon="-8.2158820">
        <ele>374.5</ele>
        <time>2020-04-17T18:26:12Z</time>
      </trkpt>
      <trkpt lat="42.9200310" lon="-8.2159830">
        <ele>374.8</ele>
        <time>2020-04-17T18:26:14Z</time>
      </trkpt>
      <trkpt lat="42.9200850" lon="-8.2160830">
        <ele>374.9</ele>
        <time>2020-04-17T18:26:16Z</time>
      </trkpt>
      <trkpt lat="42.9201370" lon="-8.2161820">
        <ele>375.0</ele>
        <time>2020-04-17T18:26:18Z</time>
      </trkpt>
      <trkpt lat="42.9203000" lon="-8.2164890">
        <ele>375.5</ele>
        <time>2020-04-17T18:26:20Z</time>
      </trkpt>
      <trkpt lat="42.9203530" lon="-8.2165880">
        <ele>375.6</ele>
        <time>2020-04-17T18:26:22Z</time>
      </trkpt>
      <trkpt lat="42.9204060" lon="-8.2166880">
        <ele>375.6</ele>
        <time>2020-04-17T18:26:24Z</time>
      </trkpt>
      <trkpt lat="42.9204590" lon="-8.2167860">
        <ele>375.5</ele>
        <time>2020-04-17T18:26:26Z</time>
      </trkpt>
      <trkpt lat="42.9205120" lon="-8.2168850">
        <ele>375.4</ele>
        <time>2020-04-17T18:26:28Z</time>
      </trkpt>
      <trkpt lat="42.9205650" lon="-8.2169850">
        <ele>375.3</ele>
        <time>2020-04-17T18:26:30Z</time>
      </trkpt>
      <trkpt lat="42.9207280" lon="-8.2172910">
        <ele>375.1</ele>
        <time>2020-04-17T18:26:32Z</time>
      </trkpt>
      <trkpt lat="42.9207820" lon="-8.2173930">
        <ele>375.1</ele>
        <time>2020-04-17T18:26:34Z</time>
      </trkpt>
      <trkpt lat="42.9208380" lon="-8.2174980">
        <ele>375.1</ele>
        <time>2020-04-17T18:26:36Z</time>
      </trkpt>
      <trkpt lat="42.9208950" lon="-8.2176060">
        <ele>375.1</ele>
        <time>2020-04-17T18:26:38Z</time>
      </trkpt>
      <trkpt lat="42.9209550" lon="-8.2177180">
        <ele>375.0</ele>
        <time>2020-04-17T18:26:40Z</time>
      </trkpt>
      <trkpt lat="42.9211290" lon="-8.2180390">
        <ele>374.7</ele>
        <time>2020-04-17T18:26:42Z</time>
      </trkpt>
      <trkpt lat="42.9211940" lon="-8.2181550">
        <ele>374.6</ele>
        <time>2020-04-17T18:26:44Z</time>
      </trkpt>
      <trkpt lat="42.9212610" lon="-8.2182730">
        <ele>374.6</ele>
        <time>2020-04-17T18:26:46Z</time>
      </trkpt>
      <trkpt lat="42.9214130" lon="-8.2185430">
        <ele>374.5</ele>
        <time>2020-04-17T18:26:48Z</time>
      </trkpt>
      <trkpt lat="42.9214870" lon="-8.2186840">
        <ele>374.4</ele>
        <time>2020-04-17T18:26:50Z</time>
      </trkpt>
      <trkpt lat="42.9215650" lon="-8.2188310">
        <ele>374.1</ele>
        <time>2020-04-17T18:26:52Z</time>
      </trkpt>
      <trkpt lat="42.9216490" lon="-8.2189900">
        <ele>373.8</ele>
        <time>2020-04-17T18:26:54Z</time>
      </trkpt>
      <trkpt lat="42.9217400" lon="-8.2191610">
        <ele>373.3</ele>
        <time>2020-04-17T18:26:56Z</time>
      </trkpt>
      <trkpt lat="42.9219840" lon="-8.2196210">
        <ele>372.3</ele>
        <time>2020-04-17T18:26:58Z</time>
      </trkpt>
      <trkpt lat="42.9220830" lon="-8.2198000">
        <ele>371.9</ele>
        <time>2020-04-17T18:27:00Z</time>
      </trkpt>
      <trkpt lat="42.9221830" lon="-8.2199800">
        <ele>371.6</ele>
        <time>2020-04-17T18:27:02Z</time>
      </trkpt>
      <trkpt lat="42.9223900" lon="-8.2203560">
        <ele>371.2</ele>
        <time>2020-04-17T18:27:04Z</time>
      </trkpt>
      <trkpt lat="42.9225040" lon="-8.2206170">
        <ele>371.2</ele>
        <time>2020-04-17T18:27:06Z</time>
      </trkpt>
      <trkpt lat="42.9225830" lon="-8.2208880">
        <ele>371.2</ele>
        <time>2020-04-17T18:27:08Z</time>
      </trkpt>
      <trkpt lat="42.9226200" lon="-8.2211570">
        <ele>371.4</ele>
        <time>2020-04-17T18:27:10Z</time>
      </trkpt>
      <trkpt lat="42.9226340" lon="-8.2214250">
        <ele>371.8</ele>
        <time>2020-04-17T18:27:12Z</time>
      </trkpt>
      <trkpt lat="42.9226340" lon="-8.2216100">
        <ele>372.2</ele>
        <time>2020-04-17T18:27:14Z</time>
      </trkpt>
      <trkpt lat="42.9226330" lon="-8.2217860">
        <ele>372.6</ele>
        <time>2020-04-17T18:27:16Z</time>
      </trkpt>
      <trkpt lat="42.9226280" lon="-8.2221160">
        <ele>373.6</ele>
        <time>2020-04-17T18:27:18Z</time>
      </trkpt>
      <trkpt lat="42.9226220" lon="-8.2222710">
        <ele>374.1</ele>
        <time>2020-04-17T18:27:20Z</time>
      </trkpt>
      <trkpt lat="42.9226170" lon="-8.2224180">
        <ele>374.7</ele>
        <time>2020-04-17T18:27:22Z</time>
      </trkpt>
      <trkpt lat="42.9226120" lon="-8.2225580">
        <ele>375.1</ele>
        <time>2020-04-17T18:27:24Z</time>
      </trkpt>
      <trkpt lat="42.9226070" lon="-8.2226910">
        <ele>375.6</ele>
        <time>2020-04-17T18:27:26Z</time>
      </trkpt>
      <trkpt lat="42.9225940" lon="-8.2231030">
        <ele>377.1</ele>
        <time>2020-04-17T18:27:28Z</time>
      </trkpt>
      <trkpt lat="42.9225930" lon="-8.2232250">
        <ele>377.6</ele>
        <time>2020-04-17T18:27:30Z</time>
      </trkpt>
      <trkpt lat="42.9225930" lon="-8.2233430">
        <ele>377.9</ele>
        <time>2020-04-17T18:27:32Z</time>
      </trkpt>
      <trkpt lat="42.9225920" lon="-8.2234580">
        <ele>378.3</ele>
        <time>2020-04-17T18:27:34Z</time>
      </trkpt>
      <trkpt lat="42.9225920" lon="-8.2235690">
        <ele>378.6</ele>
        <time>2020-04-17T18:27:36Z</time>
      </trkpt>
      <trkpt lat="42.9225910" lon="-8.2236780">
        <ele>378.8</ele>
        <time>2020-04-17T18:27:38Z</time>
      </trkpt>
      <trkpt lat="42.9225910" lon="-8.2237840">
        <ele>379.0</ele>
        <time>2020-04-17T18:27:40Z</time>
      </trkpt>
      <trkpt lat="42.9225870" lon="-8.2241920">
        <ele>379.4</ele>
        <time>2020-04-17T18:27:42Z</time>
      </trkpt>
      <trkpt lat="42.9225850" lon="-8.2243020">
        <ele>379.4</ele>
        <time>2020-04-17T18:27:44Z</time>
      </trkpt>
      <trkpt lat="42.9225830" lon="-8.2244190">
        <ele>379.4</ele>
        <time>2020-04-17T18:27:46Z</time>
      </trkpt>
      <trkpt lat="42.9225810" lon="-8.2245420">
        <ele>379.5</ele>
        <time>2020-04-17T18:27:48Z</time>
      </trkpt>
      <trkpt lat="42.9225790" lon="-8.2246680">
        <ele>379.5</ele>
        <time>2020-04-17T18:27:50Z</time>
      </trkpt>
      <trkpt lat="42.9225770" lon="-8.2247960">
        <ele>379.7</ele>
        <time>2020-04-17T18:27:52Z</time>
      </trkpt>
      <trkpt lat="42.9225750" lon="-8.2249270">
        <ele>379.9</ele>
        <time>2020-04-17T18:27:54Z</time>
      </trkpt>
      <trkpt lat="42.9225640" lon="-8.2253630">
        <ele>380.5</ele>
        <time>2020-04-17T18:27:56Z</time>
      </trkpt>
      <trkpt lat="42.9225540" lon="-8.2254980">
        <ele>380.6</ele>
        <time>2020-04-17T18:27:58Z</time>
      </trkpt>
      <trkpt lat="42.9225330" lon="-8.2257250">
        <ele>380.9</ele>
        <time>2020-04-17T18:28:00Z</time>
      </trkpt>
      <trkpt lat="42.9225010" lon="-8.2259300">
        <ele>381.2</ele>
        <time>2020-04-17T18:28:02Z</time>
      </trkpt>
      <trkpt lat="42.9224700" lon="-8.2260540">
        <ele>381.4</ele>
        <time>2020-04-17T18:28:04Z</time>
      </trkpt>
      <trkpt lat="42.9224160" lon="-8.2262230">
        <ele>381.6</ele>
        <time>2020-04-17T18:28:06Z</time>
      </trkpt>
      <trkpt lat="42.9223800" lon="-8.2263220">
        <ele>381.7</ele>
        <time>2020-04-17T18:28:08Z</time>
      </trkpt>
      <trkpt lat="42.9223120" lon="-8.2264820">
        <ele>382.0</ele>
        <time>2020-04-17T18:28:10Z</time>
      </trkpt>
      <trkpt lat="42.9222720" lon="-8.2265610">
        <ele>382.2</ele>
        <time>2020-04-17T18:28:12Z</time>
      </trkpt>
      <trkpt lat="42.9221980" lon="-8.2267070">
        <ele>382.7</ele>
        <time>2020-04-17T18:28:14Z</time>
      </trkpt>
      <trkpt lat="42.9221540" lon="-8.2267790">
        <ele>382.8</ele>
        <time>2020-04-17T18:28:16Z</time>
      </trkpt>
      <trkpt lat="42.9221150" lon="-8.2268440">
        <ele>382.9</ele>
        <time>2020-04-17T18:28:18Z</time>
      </trkpt>
      <trkpt lat="42.9220770" lon="-8.2269070">
        <ele>383.1</ele>
        <time>2020-04-17T18:28:20Z</time>
      </trkpt>
      <trkpt lat="42.9219840" lon="-8.2270610">
        <ele>383.3</ele>
        <time>2020-04-17T18:28:22Z</time>
      </trkpt>
      <trkpt lat="42.9219420" lon="-8.2271350">
        <ele>383.5</ele>
        <time>2020-04-17T18:28:24Z</time>
      </trkpt>
      <trkpt lat="42.9218930" lon="-8.2272210">
        <ele>383.7</ele>
        <time>2020-04-17T18:28:26Z</time>
      </trkpt>
      <trkpt lat="42.9218400" lon="-8.2273140">
        <ele>383.9</ele>
        <time>2020-04-17T18:28:28Z</time>
      </trkpt>
      <trkpt lat="42.9217250" lon="-8.2275150">
        <ele>384.2</ele>
        <time>2020-04-17T18:28:30Z</time>
      </trkpt>
      <trkpt lat="42.9216660" lon="-8.2276190">
        <ele>384.4</ele>
        <time>2020-04-17T18:28:32Z</time>
      </trkpt>
      <trkpt lat="42.9216060" lon="-8.2277260">
        <ele>384.6</ele>
        <time>2020-04-17T18:28:34Z</time>
      </trkpt>
      <trkpt lat="42.9215430" lon="-8.2278350">
        <ele>384.7</ele>
        <time>2020-04-17T18:28:36Z</time>
      </trkpt>
      <trkpt lat="42.9214800" lon="-8.2279460">
        <ele>384.9</ele>
        <time>2020-04-17T18:28:38Z</time>
      </trkpt>
      <trkpt lat="42.9213070" lon="-8.2282610">
        <ele>385.0</ele>
        <time>2020-04-17T18:28:40Z</time>
      </trkpt>
      <trkpt lat="42.9212430" lon="-8.2283870">
        <ele>385.0</ele>
        <time>2020-04-17T18:28:42Z</time>
      </trkpt>
      <trkpt lat="42.9211780" lon="-8.2285160">
        <ele>385.0</ele>
        <time>2020-04-17T18:28:44Z</time>
      </trkpt>
      <trkpt lat="42.9210410" lon="-8.2288090">
        <ele>384.9</ele>
        <time>2020-04-17T18:28:46Z</time>
      </trkpt>
      <trkpt lat="42.9209890" lon="-8.2289580">
        <ele>384.7</ele>
        <time>2020-04-17T18:28:48Z</time>
      </trkpt>
      <trkpt lat="42.9209370" lon="-8.2291110">
        <ele>384.6</ele>
        <time>2020-04-17T18:28:50Z</time>
      </trkpt>
      <trkpt lat="42.9208240" lon="-8.2294420">
        <ele>384.2</ele>
        <time>2020-04-17T18:28:52Z</time>
      </trkpt>
      <trkpt lat="42.9207700" lon="-8.2296030">
        <ele>383.9</ele>
        <time>2020-04-17T18:28:54Z</time>
      </trkpt>
      <trkpt lat="42.9206830" lon="-8.2298690">
        <ele>383.5</ele>
        <time>2020-04-17T18:28:56Z</time>
      </trkpt>
      <trkpt lat="42.9206010" lon="-8.2301190">
        <ele>383.1</ele>
        <time>2020-04-17T18:28:58Z</time>
      </trkpt>
      <trkpt lat="42.9205430" lon="-8.2302980">
        <ele>382.9</ele>
        <time>2020-04-17T18:29:00Z</time>
      </trkpt>
      <trkpt lat="42.9204820" lon="-8.2304820">
        <ele>382.5</ele>
        <time>2020-04-17T18:29:02Z</time>
      </trkpt>
      <trkpt lat="42.9203470" lon="-8.2308900">
        <ele>381.8</ele>
        <time>2020-04-17T18:29:04Z</time>
      </trkpt>
      <trkpt lat="42.9202830" lon="-8.2310790">
        <ele>381.6</ele>
        <time>2020-04-17T18:29:06Z</time>
      </trkpt>
      <trkpt lat="42.9202190" lon="-8.2312670">
        <ele>381.2</ele>
        <time>2020-04-17T18:29:08Z</time>
      </trkpt>
      <trkpt lat="42.9201560" lon="-8.2314520">
        <ele>380.8</ele>
        <time>2020-04-17T18:29:10Z</time>
      </trkpt>
      <trkpt lat="42.9200100" lon="-8.2318860">
        <ele>379.9</ele>
        <time>2020-04-17T18:29:12Z</time>
      </trkpt>
      <trkpt lat="42.9199480" lon="-8.2320700">
        <ele>379.6</ele>
        <time>2020-04-17T18:29:14Z</time>
      </trkpt>
      <trkpt lat="42.9198860" lon="-8.2322540">
        <ele>379.3</ele>
        <time>2020-04-17T18:29:16Z</time>
      </trkpt>
      <trkpt lat="42.9198240" lon="-8.2324360">
        <ele>379.0</ele>
        <time>2020-04-17T18:29:18Z</time>
      </trkpt>
      <trkpt lat="42.9196710" lon="-8.2328930">
        <ele>378.2</ele>
        <time>2020-04-17T18:29:20Z</time>
      </trkpt>
      <trkpt lat="42.9196110" lon="-8.2330810">
        <ele>378.0</ele>
        <time>2020-04-17T18:29:22Z</time>
      </trkpt>
      <trkpt lat="42.9195510" lon="-8.2332690">
        <ele>377.8</ele>
        <time>2020-04-17T18:29:24Z</time>
      </trkpt>
      <trkpt lat="42.9194900" lon="-8.2334580">
        <ele>377.5</ele>
        <time>2020-04-17T18:29:26Z</time>
      </trkpt>
      <trkpt lat="42.9193380" lon="-8.2339370">
        <ele>377.0</ele>
        <time>2020-04-17T18:29:28Z</time>
      </trkpt>
      <trkpt lat="42.9192770" lon="-8.2341280">
        <ele>376.8</ele>
        <time>2020-04-17T18:29:30Z</time>
      </trkpt>
      <trkpt lat="42.9192160" lon="-8.2343190">
        <ele>376.5</ele>
        <time>2020-04-17T18:29:32Z</time>
      </trkpt>
      <trkpt lat="42.9191550" lon="-8.2345110">
        <ele>376.2</ele>
        <time>2020-04-17T18:29:34Z</time>
      </trkpt>
      <trkpt lat="42.9190010" lon="-8.2349940">
        <ele>375.2</ele>
        <time>2020-04-17T18:29:36Z</time>
      </trkpt>
      <trkpt lat="42.9189370" lon="-8.2351950">
        <ele>374.6</ele>
        <time>2020-04-17T18:29:38Z</time>
      </trkpt>
      <trkpt lat="42.9188690" lon="-8.2354080">
        <ele>373.9</ele>
        <time>2020-04-17T18:29:40Z</time>
      </trkpt>
      <trkpt lat="42.9187330" lon="-8.2358360">
        <ele>372.7</ele>
        <time>2020-04-17T18:29:42Z</time>
      </trkpt>
      <trkpt lat="42.9186300" lon="-8.2361490">
        <ele>372.2</ele>
        <time>2020-04-17T18:29:44Z</time>
      </trkpt>
      <trkpt lat="42.9185450" lon="-8.2363810">
        <ele>371.2</ele>
        <time>2020-04-17T18:29:46Z</time>
      </trkpt>
      <trkpt lat="42.9183840" lon="-8.2368230">
        <ele>368.8</ele>
        <time>2020-04-17T18:29:48Z</time>
      </trkpt>
      <trkpt lat="42.9182960" lon="-8.2370660">
        <ele>367.5</ele>
        <time>2020-04-17T18:29:50Z</time>
      </trkpt>
      <trkpt lat="42.9182080" lon="-8.2373110">
        <ele>366.3</ele>
        <time>2020-04-17T18:29:52Z</time>
      </trkpt>
      <trkpt lat="42.9180460" lon="-8.2377590">
        <ele>364.0</ele>
        <time>2020-04-17T18:29:54Z</time>
      </trkpt>
      <trkpt lat="42.9179030" lon="-8.2381540">
        <ele>362.4</ele>
        <time>2020-04-17T18:29:56Z</time>
      </trkpt>
      <trkpt lat="42.9177980" lon="-8.2384520">
        <ele>361.4</ele>
        <time>2020-04-17T18:29:58Z</time>
      </trkpt>
      <trkpt lat="42.9176660" lon="-8.2387570">
        <ele>360.6</ele>
        <time>2020-04-17T18:30:00Z</time>
      </trkpt>
      <trkpt lat="42.9174950" lon="-8.2390160">
        <ele>359.9</ele>
        <time>2020-04-17T18:30:02Z</time>
      </trkpt>
      <trkpt lat="42.9173270" lon="-8.2391940">
        <ele>359.3</ele>
        <time>2020-04-17T18:30:04Z</time>
      </trkpt>
      <trkpt lat="42.9171430" lon="-8.2393190">
        <ele>358.8</ele>
        <time>2020-04-17T18:30:06Z</time>
      </trkpt>
      <trkpt lat="42.9169890" lon="-8.2393860">
        <ele>358.4</ele>
        <time>2020-04-17T18:30:08Z</time>
      </trkpt>
      <trkpt lat="42.9167280" lon="-8.2395020">
        <ele>357.9</ele>
        <time>2020-04-17T18:30:10Z</time>
      </trkpt>
      <trkpt lat="42.9165060" lon="-8.2396040">
        <ele>357.0</ele>
        <time>2020-04-17T18:30:12Z</time>
      </trkpt>
      <trkpt lat="42.9163420" lon="-8.2396820">
        <ele>356.2</ele>
        <time>2020-04-17T18:30:14Z</time>
      </trkpt>
      <trkpt lat="42.9160610" lon="-8.2398460">
        <ele>354.6</ele>
        <time>2020-04-17T18:30:16Z</time>
      </trkpt>
      <trkpt lat="42.9158400" lon="-8.2400540">
        <ele>353.1</ele>
        <time>2020-04-17T18:30:18Z</time>
      </trkpt>
      <trkpt lat="42.9157080" lon="-8.2402420">
        <ele>352.1</ele>
        <time>2020-04-17T18:30:20Z</time>
      </trkpt>
      <trkpt lat="42.9155250" lon="-8.2405790">
        <ele>350.5</ele>
        <time>2020-04-17T18:30:22Z</time>
      </trkpt>
      <trkpt lat="42.9154160" lon="-8.2409440">
        <ele>348.7</ele>
        <time>2020-04-17T18:30:24Z</time>
      </trkpt>
      <trkpt lat="42.9153940" lon="-8.2412210">
        <ele>347.3</ele>
        <time>2020-04-17T18:30:26Z</time>
      </trkpt>
      <trkpt lat="42.9153860" lon="-8.2417030">
        <ele>345.1</ele>
        <time>2020-04-17T18:30:28Z</time>
      </trkpt>
      <trkpt lat="42.9154530" lon="-8.2421030">
        <ele>343.1</ele>
        <time>2020-04-17T18:30:30Z</time>
      </trkpt>
      <trkpt lat="42.9155750" lon="-8.2425050">
        <ele>342.2</ele>
        <time>2020-04-17T18:30:32Z</time>
      </trkpt>
      <trkpt lat="42.9156650" lon="-8.2427700">
        <ele>341.7</ele>
        <time>2020-04-17T18:30:34Z</time>
      </trkpt>
      <trkpt lat="42.9157920" lon="-8.2431850">
        <ele>340.0</ele>
        <time>2020-04-17T18:30:36Z</time>
      </trkpt>
      <trkpt lat="42.9158620" lon="-8.2435470">
        <ele>338.7</ele>
        <time>2020-04-17T18:30:38Z</time>
      </trkpt>
      <trkpt lat="42.9158840" lon="-8.2438960">
        <ele>337.9</ele>
        <time>2020-04-17T18:30:40Z</time>
      </trkpt>
      <trkpt lat="42.9158660" lon="-8.2442380">
        <ele>337.3</ele>
        <time>2020-04-17T18:30:42Z</time>
      </trkpt>
      <trkpt lat="42.9158290" lon="-8.2444610">
        <ele>337.1</ele>
        <time>2020-04-17T18:30:44Z</time>
      </trkpt>
      <trkpt lat="42.9157510" lon="-8.2448070">
        <ele>337.5</ele>
        <time>2020-04-17T18:30:46Z</time>
      </trkpt>
      <trkpt lat="42.9156560" lon="-8.2450630">
        <ele>338.1</ele>
        <time>2020-04-17T18:30:48Z</time>
      </trkpt>
      <trkpt lat="42.9155860" lon="-8.2452190">
        <ele>338.6</ele>
        <time>2020-04-17T18:30:50Z</time>
      </trkpt>
      <trkpt lat="42.9155220" lon="-8.2453610">
        <ele>339.2</ele>
        <time>2020-04-17T18:30:52Z</time>
      </trkpt>
      <trkpt lat="42.9153770" lon="-8.2456610">
        <ele>340.4</ele>
        <time>2020-04-17T18:30:54Z</time>
      </trkpt>
      <trkpt lat="42.9153120" lon="-8.2457720">
        <ele>340.9</ele>
        <time>2020-04-17T18:30:56Z</time>
      </trkpt>
      <trkpt lat="42.9152520" lon="-8.2458740">
        <ele>341.3</ele>
        <time>2020-04-17T18:30:58Z</time>
      </trkpt>
      <trkpt lat="42.9151290" lon="-8.2460880">
        <ele>341.8</ele>
        <time>2020-04-17T18:31:00Z</time>
      </trkpt>
      <trkpt lat="42.9150830" lon="-8.2461800">
        <ele>342.0</ele>
        <time>2020-04-17T18:31:02Z</time>
      </trkpt>
      <trkpt lat="42.9150410" lon="-8.2462640">
        <ele>342.2</ele>
        <time>2020-04-17T18:31:04Z</time>
      </trkpt>
      <trkpt lat="42.9150020" lon="-8.2463430">
        <ele>342.6</ele>
        <time>2020-04-17T18:31:06Z</time>
      </trkpt>
      <trkpt lat="42.9149650" lon="-8.2464170">
        <ele>342.9</ele>
        <time>2020-04-17T18:31:08Z</time>
      </trkpt>
      <trkpt lat="42.9149300" lon="-8.2464870">
        <ele>343.2</ele>
        <time>2020-04-17T18:31:10Z</time>
      </trkpt>
      <trkpt lat="42.9148970" lon="-8.2465540">
        <ele>343.4</ele>
        <time>2020-04-17T18:31:12Z</time>
      </trkpt>
      <trkpt lat="42.9148650" lon="-8.2466180">
        <ele>343.7</ele>
        <time>2020-04-17T18:31:14Z</time>
      </trkpt>
      <trkpt lat="42.9148350" lon="-8.2466790">
        <ele>343.9</ele>
        <time>2020-04-17T18:31:16Z</time>
      </trkpt>
      <trkpt lat="42.9146890" lon="-8.2469730">
        <ele>345.1</ele>
        <time>2020-04-17T18:31:18Z</time>
      </trkpt>
      <trkpt lat="42.9146600" lon="-8.2470310">
        <ele>345.3</ele>
        <time>2020-04-17T18:31:20Z</time>
      </trkpt>
      <trkpt lat="42.9146320" lon="-8.2470880">
        <ele>345.5</ele>
        <time>2020-04-17T18:31:22Z</time>
      </trkpt>
      <trkpt lat="42.9146040" lon="-8.2471450">
        <ele>345.7</ele>
        <time>2020-04-17T18:31:24Z</time>
      </trkpt>
      <trkpt lat="42.9145760" lon="-8.2472020">
        <ele>345.9</ele>
        <time>2020-04-17T18:31:26Z</time>
      </trkpt>
      <trkpt lat="42.9145490" lon="-8.2472580">
        <ele>346.1</ele>
        <time>2020-04-17T18:31:28Z</time>
      </trkpt>
      <trkpt lat="42.9145210" lon="-8.2473130">
        <ele>346.3</ele>
        <time>2020-04-17T18:31:30Z</time>
      </trkpt>
      <trkpt lat="42.9144940" lon="-8.2473680">
        <ele>346.5</ele>
        <time>2020-04-17T18:31:32Z</time>
      </trkpt>
      <trkpt lat="42.9144670" lon="-8.2474240">
        <ele>346.7</ele>
        <time>2020-04-17T18:31:34Z</time>
      </trkpt>
      <trkpt lat="42.9144400" lon="-8.2474790">
        <ele>346.9</ele>
        <time>2020-04-17T18:31:36Z</time>
      </trkpt>
      <trkpt lat="42.9144130" lon="-8.2475350">
        <ele>347.1</ele>
        <time>2020-04-17T18:31:38Z</time>
      </trkpt>
      <trkpt lat="42.9142700" lon="-8.2478260">
        <ele>348.1</ele>
        <time>2020-04-17T18:31:40Z</time>
      </trkpt>
      <trkpt lat="42.9142420" lon="-8.2478930">
        <ele>348.2</ele>
        <time>2020-04-17T18:31:42Z</time>
      </trkpt>
      <trkpt lat="42.9142070" lon="-8.2479760">
        <ele>348.4</ele>
        <time>2020-04-17T18:31:44Z</time>
      </trkpt>
      <trkpt lat="42.9141690" lon="-8.2480680">
        <ele>348.6</ele>
        <time>2020-04-17T18:31:46Z</time>
      </trkpt>
      <trkpt lat="42.9140990" lon="-8.2482710">
        <ele>349.0</ele>
        <time>2020-04-17T18:31:48Z</time>
      </trkpt>
      <trkpt lat="42.9140710" lon="-8.2483800">
        <ele>349.1</ele>
        <time>2020-04-17T18:31:50Z</time>
      </trkpt>
      <trkpt lat="42.9140420" lon="-8.2484890">
        <ele>349.2</ele>
        <time>2020-04-17T18:31:52Z</time>
      </trkpt>
      <trkpt lat="42.9140130" lon="-8.2486010">
        <ele>349.3</ele>
        <time>2020-04-17T18:31:54Z</time>
      </trkpt>
      <trkpt lat="42.9139830" lon="-8.2487150">
        <ele>349.4</ele>
        <time>2020-04-17T18:31:56Z</time>
      </trkpt>
      <trkpt lat="42.9138970" lon="-8.2490450">
        <ele>349.6</ele>
        <time>2020-04-17T18:31:58Z</time>
      </trkpt>
      <trkpt lat="42.9138660" lon="-8.2491650">
        <ele>349.6</ele>
        <time>2020-04-17T18:32:00Z</time>
      </trkpt>
      <trkpt lat="42.9138330" lon="-8.2492900">
        <ele>349.6</ele>
        <time>2020-04-17T18:32:02Z</time>
      </trkpt>
      <trkpt lat="42.9138000" lon="-8.2494200">
        <ele>349.6</ele>
        <time>2020-04-17T18:32:04Z</time>
      </trkpt>
      <trkpt lat="42.9137650" lon="-8.2495550">
        <ele>349.7</ele>
        <time>2020-04-17T18:32:06Z</time>
      </trkpt>
      <trkpt lat="42.9136710" lon="-8.2499060">
        <ele>349.6</ele>
        <time>2020-04-17T18:32:08Z</time>
      </trkpt>
      <trkpt lat="42.9136300" lon="-8.2500460">
        <ele>349.6</ele>
        <time>2020-04-17T18:32:10Z</time>
      </trkpt>
      <trkpt lat="42.9135490" lon="-8.2503290">
        <ele>349.3</ele>
        <time>2020-04-17T18:32:12Z</time>
      </trkpt>
      <trkpt lat="42.9135140" lon="-8.2504830">
        <ele>349.0</ele>
        <time>2020-04-17T18:32:14Z</time>
      </trkpt>
      <trkpt lat="42.9134760" lon="-8.2506520">
        <ele>348.7</ele>
        <time>2020-04-17T18:32:16Z</time>
      </trkpt>
      <trkpt lat="42.9134100" lon="-8.2510090">
        <ele>348.1</ele>
        <time>2020-04-17T18:32:18Z</time>
      </trkpt>
      <trkpt lat="42.9134080" lon="-8.2512840">
        <ele>347.6</ele>
        <time>2020-04-17T18:32:20Z</time>
      </trkpt>
      <trkpt lat="42.9134240" lon="-8.2515690">
        <ele>347.2</ele>
        <time>2020-04-17T18:32:22Z</time>
      </trkpt>
      <trkpt lat="42.9134740" lon="-8.2518500">
        <ele>347.0</ele>
        <time>2020-04-17T18:32:24Z</time>
      </trkpt>
      <trkpt lat="42.9135770" lon="-8.2521250">
        <ele>346.6</ele>
        <time>2020-04-17T18:32:26Z</time>
      </trkpt>
      <trkpt lat="42.9136760" lon="-8.2523010">
        <ele>346.3</ele>
        <time>2020-04-17T18:32:28Z</time>
      </trkpt>
      <trkpt lat="42.9138460" lon="-8.2525840">
        <ele>346.1</ele>
        <time>2020-04-17T18:32:30Z</time>
      </trkpt>
      <trkpt lat="42.9139640" lon="-8.2527250">
        <ele>345.9</ele>
        <time>2020-04-17T18:32:32Z</time>
      </trkpt>
      <trkpt lat="42.9140810" lon="-8.2528660">
        <ele>345.6</ele>
        <time>2020-04-17T18:32:34Z</time>
      </trkpt>
      <trkpt lat="42.9143010" lon="-8.2531280">
        <ele>345.3</ele>
        <time>2020-04-17T18:32:36Z</time>
      </trkpt>
      <trkpt lat="42.9144110" lon="-8.2532610">
        <ele>345.3</ele>
        <time>2020-04-17T18:32:38Z</time>
      </trkpt>
      <trkpt lat="42.9146160" lon="-8.2535170">
        <ele>345.1</ele>
        <time>2020-04-17T18:32:40Z</time>
      </trkpt>
      <trkpt lat="42.9147070" lon="-8.2536560">
        <ele>345.0</ele>
        <time>2020-04-17T18:32:42Z</time>
      </trkpt>
      <trkpt lat="42.9148510" lon="-8.2538690">
        <ele>344.9</ele>
        <time>2020-04-17T18:32:44Z</time>
      </trkpt>
      <trkpt lat="42.9149380" lon="-8.2539960">
        <ele>344.8</ele>
        <time>2020-04-17T18:32:46Z</time>
      </trkpt>
      <trkpt lat="42.9151120" lon="-8.2542480">
        <ele>344.7</ele>
        <time>2020-04-17T18:32:48Z</time>
      </trkpt>
      <trkpt lat="42.9151910" lon="-8.2543770">
        <ele>344.7</ele>
        <time>2020-04-17T18:32:50Z</time>
      </trkpt>
      <trkpt lat="42.9152720" lon="-8.2545090">
        <ele>344.6</ele>
        <time>2020-04-17T18:32:52Z</time>
      </trkpt>
      <trkpt lat="42.9153550" lon="-8.2546420">
        <ele>344.5</ele>
        <time>2020-04-17T18:32:54Z</time>
      </trkpt>
      <trkpt lat="42.9155270" lon="-8.2549220">
        <ele>344.2</ele>
        <time>2020-04-17T18:32:56Z</time>
      </trkpt>
      <trkpt lat="42.9156130" lon="-8.2550610">
        <ele>344.0</ele>
        <time>2020-04-17T18:32:58Z</time>
      </trkpt>
      <trkpt lat="42.9157890" lon="-8.2553430">
        <ele>343.7</ele>
        <time>2020-04-17T18:33:00Z</time>
      </trkpt>
      <trkpt lat="42.9158830" lon="-8.2554790">
        <ele>343.5</ele>
        <time>2020-04-17T18:33:02Z</time>
      </trkpt>
      <trkpt lat="42.9159790" lon="-8.2556180">
        <ele>343.3</ele>
        <time>2020-04-17T18:33:04Z</time>
      </trkpt>
      <trkpt lat="42.9161820" lon="-8.2559100">
        <ele>343.0</ele>
        <time>2020-04-17T18:33:06Z</time>
      </trkpt>
      <trkpt lat="42.9162820" lon="-8.2560550">
        <ele>342.9</ele>
        <time>2020-04-17T18:33:08Z</time>
      </trkpt>
      <trkpt lat="42.9163840" lon="-8.2562020">
        <ele>342.8</ele>
        <time>2020-04-17T18:33:10Z</time>
      </trkpt>
      <trkpt lat="42.9165890" lon="-8.2565040">
        <ele>342.7</ele>
        <time>2020-04-17T18:33:12Z</time>
      </trkpt>
      <trkpt lat="42.9166850" lon="-8.2566570">
        <ele>342.6</ele>
        <time>2020-04-17T18:33:14Z</time>
      </trkpt>
      <trkpt lat="42.9167790" lon="-8.2568070">
        <ele>342.7</ele>
        <time>2020-04-17T18:33:16Z</time>
      </trkpt>
      <trkpt lat="42.9169610" lon="-8.2571000">
        <ele>342.7</ele>
        <time>2020-04-17T18:33:18Z</time>
      </trkpt>
      <trkpt lat="42.9170510" lon="-8.2572440">
        <ele>342.7</ele>
        <time>2020-04-17T18:33:20Z</time>
      </trkpt>
      <trkpt lat="42.9171390" lon="-8.2573840">
        <ele>342.8</ele>
        <time>2020-04-17T18:33:22Z</time>
      </trkpt>
      <trkpt lat="42.9173030" lon="-8.2576800">
        <ele>342.9</ele>
        <time>2020-04-17T18:33:24Z</time>
      </trkpt>
      <trkpt lat="42.9173690" lon="-8.2578210">
        <ele>343.0</ele>
        <time>2020-04-17T18:33:26Z</time>
      </trkpt>
      <trkpt lat="42.9174300" lon="-8.2579520">
        <ele>343.3</ele>
        <time>2020-04-17T18:33:28Z</time>
      </trkpt>
      <trkpt lat="42.9174880" lon="-8.2580750">
        <ele>343.6</ele>
        <time>2020-04-17T18:33:30Z</time>
      </trkpt>
      <trkpt lat="42.9175430" lon="-8.2581940">
        <ele>343.8</ele>
        <time>2020-04-17T18:33:32Z</time>
      </trkpt>
      <trkpt lat="42.9177220" lon="-8.2585780">
        <ele>344.4</ele>
        <time>2020-04-17T18:33:34Z</time>
      </trkpt>
      <trkpt lat="42.9177740" lon="-8.2586880">
        <ele>344.6</ele>
        <time>2020-04-17T18:33:36Z</time>
      </trkpt>
      <trkpt lat="42.9178240" lon="-8.2587950">
        <ele>344.8</ele>
        <time>2020-04-17T18:33:38Z</time>
      </trkpt>
      <trkpt lat="42.9179180" lon="-8.2589910">
        <ele>345.2</ele>
        <time>2020-04-17T18:33:40Z</time>
      </trkpt>
      <trkpt lat="42.9179690" lon="-8.2590970">
        <ele>345.4</ele>
        <time>2020-04-17T18:33:42Z</time>
      </trkpt>
      <trkpt lat="42.9180220" lon="-8.2592040">
        <ele>345.7</ele>
        <time>2020-04-17T18:33:44Z</time>
      </trkpt>
      <trkpt lat="42.9180750" lon="-8.2593130">
        <ele>345.9</ele>
        <time>2020-04-17T18:33:46Z</time>
      </trkpt>
      <trkpt lat="42.9182170" lon="-8.2595950">
        <ele>346.6</ele>
        <time>2020-04-17T18:33:48Z</time>
      </trkpt>
      <trkpt lat="42.9182790" lon="-8.2596950">
        <ele>346.8</ele>
        <time>2020-04-17T18:33:50Z</time>
      </trkpt>
      <trkpt lat="42.9183410" lon="-8.2597960">
        <ele>347.1</ele>
        <time>2020-04-17T18:33:52Z</time>
      </trkpt>
      <trkpt lat="42.9184030" lon="-8.2598980">
        <ele>347.3</ele>
        <time>2020-04-17T18:33:54Z</time>
      </trkpt>
      <trkpt lat="42.9184660" lon="-8.2600000">
        <ele>347.5</ele>
        <time>2020-04-17T18:33:56Z</time>
      </trkpt>
      <trkpt lat="42.9186430" lon="-8.2602840">
        <ele>347.9</ele>
        <time>2020-04-17T18:33:58Z</time>
      </trkpt>
      <trkpt lat="42.9187110" lon="-8.2603830">
        <ele>348.0</ele>
        <time>2020-04-17T18:34:00Z</time>
      </trkpt>
      <trkpt lat="42.9187810" lon="-8.2604860">
        <ele>348.3</ele>
        <time>2020-04-17T18:34:02Z</time>
      </trkpt>
      <trkpt lat="42.9188520" lon="-8.2605880">
        <ele>348.5</ele>
        <time>2020-04-17T18:34:04Z</time>
      </trkpt>
      <trkpt lat="42.9189240" lon="-8.2606930">
        <ele>348.8</ele>
        <time>2020-04-17T18:34:06Z</time>
      </trkpt>
      <trkpt lat="42.9189960" lon="-8.2607980">
        <ele>348.9</ele>
        <time>2020-04-17T18:34:08Z</time>
      </trkpt>
      <trkpt lat="42.9192100" lon="-8.2611110">
        <ele>349.5</ele>
        <time>2020-04-17T18:34:10Z</time>
      </trkpt>
      <trkpt lat="42.9192840" lon="-8.2612180">
        <ele>349.7</ele>
        <time>2020-04-17T18:34:12Z</time>
      </trkpt>
      <trkpt lat="42.9193580" lon="-8.2613260">
        <ele>349.9</ele>
        <time>2020-04-17T18:34:14Z</time>
      </trkpt>
      <trkpt lat="42.9194320" lon="-8.2614340">
        <ele>350.1</ele>
        <time>2020-04-17T18:34:16Z</time>
      </trkpt>
      <trkpt lat="42.9195070" lon="-8.2615420">
        <ele>350.3</ele>
        <time>2020-04-17T18:34:18Z</time>
      </trkpt>
      <trkpt lat="42.9197220" lon="-8.2618560">
        <ele>351.0</ele>
        <time>2020-04-17T18:34:20Z</time>
      </trkpt>
      <trkpt lat="42.9197960" lon="-8.2619640">
        <ele>351.1</ele>
        <time>2020-04-17T18:34:22Z</time>
      </trkpt>
      <trkpt lat="42.9198690" lon="-8.2620690">
        <ele>351.3</ele>
        <time>2020-04-17T18:34:24Z</time>
      </trkpt>
      <trkpt lat="42.9199400" lon="-8.2621740">
        <ele>351.5</ele>
        <time>2020-04-17T18:34:26Z</time>
      </trkpt>
      <trkpt lat="42.9200110" lon="-8.2622760">
        <ele>351.6</ele>
        <time>2020-04-17T18:34:28Z</time>
      </trkpt>
      <trkpt lat="42.9202220" lon="-8.2625840">
        <ele>352.1</ele>
        <time>2020-04-17T18:34:30Z</time>
      </trkpt>
      <trkpt lat="42.9202920" lon="-8.2626860">
        <ele>352.3</ele>
        <time>2020-04-17T18:34:32Z</time>
      </trkpt>
      <trkpt lat="42.9203610" lon="-8.2627870">
        <ele>352.5</ele>
        <time>2020-04-17T18:34:34Z</time>
      </trkpt>
      <trkpt lat="42.9204290" lon="-8.2628860">
        <ele>352.7</ele>
        <time>2020-04-17T18:34:36Z</time>
      </trkpt>
      <trkpt lat="42.9204970" lon="-8.2629850">
        <ele>352.8</ele>
        <time>2020-04-17T18:34:38Z</time>
      </trkpt>
      <trkpt lat="42.9205650" lon="-8.2630840">
        <ele>353.0</ele>
        <time>2020-04-17T18:34:40Z</time>
      </trkpt>
      <trkpt lat="42.9207740" lon="-8.2633890">
        <ele>353.5</ele>
        <time>2020-04-17T18:34:42Z</time>
      </trkpt>
      <trkpt lat="42.9208430" lon="-8.2634890">
        <ele>353.7</ele>
        <time>2020-04-17T18:34:44Z</time>
      </trkpt>
      <trkpt lat="42.9209130" lon="-8.2635910">
        <ele>353.8</ele>
        <time>2020-04-17T18:34:46Z</time>
      </trkpt>
      <trkpt lat="42.9209830" lon="-8.2636920">
        <ele>354.0</ele>
        <time>2020-04-17T18:34:48Z</time>
      </trkpt>
      <trkpt lat="42.9210520" lon="-8.2637940">
        <ele>354.2</ele>
        <time>2020-04-17T18:34:50Z</time>
      </trkpt>
      <trkpt lat="42.9212620" lon="-8.2641010">
        <ele>354.7</ele>
        <time>2020-04-17T18:34:52Z</time>
      </trkpt>
      <trkpt lat="42.9213260" lon="-8.2642140">
        <ele>354.8</ele>
        <time>2020-04-17T18:34:54Z</time>
      </trkpt>
      <trkpt lat="42.9213880" lon="-8.2643250">
        <ele>354.9</ele>
        <time>2020-04-17T18:34:56Z</time>
      </trkpt>
      <trkpt lat="42.9214510" lon="-8.2644360">
        <ele>355.0</ele>
        <time>2020-04-17T18:34:58Z</time>
      </trkpt>
      <trkpt lat="42.9215160" lon="-8.2645500">
        <ele>355.2</ele>
        <time>2020-04-17T18:35:00Z</time>
      </trkpt>
      <trkpt lat="42.9216760" lon="-8.2648350">
        <ele>355.7</ele>
        <time>2020-04-17T18:35:02Z</time>
      </trkpt>
      <trkpt lat="42.9217440" lon="-8.2649560">
        <ele>355.8</ele>
        <time>2020-04-17T18:35:04Z</time>
      </trkpt>
      <trkpt lat="42.9218150" lon="-8.2650830">
        <ele>355.9</ele>
        <time>2020-04-17T18:35:06Z</time>
      </trkpt>
      <trkpt lat="42.9219810" lon="-8.2653840">
        <ele>356.2</ele>
        <time>2020-04-17T18:35:08Z</time>
      </trkpt>
      <trkpt lat="42.9220330" lon="-8.2655380">
        <ele>356.3</ele>
        <time>2020-04-17T18:35:10Z</time>
      </trkpt>
      <trkpt lat="42.9220860" lon="-8.2656950">
        <ele>356.5</ele>
        <time>2020-04-17T18:35:12Z</time>
      </trkpt>
      <trkpt lat="42.9221400" lon="-8.2658560">
        <ele>356.6</ele>
        <time>2020-04-17T18:35:14Z</time>
      </trkpt>
      <trkpt lat="42.9222650" lon="-8.2662270">
        <ele>356.9</ele>
        <time>2020-04-17T18:35:16Z</time>
      </trkpt>
      <trkpt lat="42.9223180" lon="-8.2663850">
        <ele>357.0</ele>
        <time>2020-04-17T18:35:18Z</time>
      </trkpt>
      <trkpt lat="42.9223700" lon="-8.2665370">
        <ele>357.1</ele>
        <time>2020-04-17T18:35:20Z</time>
      </trkpt>
      <trkpt lat="42.9224200" lon="-8.2666850">
        <ele>357.2</ele>
        <time>2020-04-17T18:35:22Z</time>
      </trkpt>
      <trkpt lat="42.9225330" lon="-8.2670420">
        <ele>357.5</ele>
        <time>2020-04-17T18:35:24Z</time>
      </trkpt>
      <trkpt lat="42.9225810" lon="-8.2672240">
        <ele>357.6</ele>
        <time>2020-04-17T18:35:26Z</time>
      </trkpt>
      <trkpt lat="42.9226180" lon="-8.2673670">
        <ele>357.7</ele>
        <time>2020-04-17T18:35:28Z</time>
      </trkpt>
      <trkpt lat="42.9226550" lon="-8.2675050">
        <ele>358.0</ele>
        <time>2020-04-17T18:35:30Z</time>
      </trkpt>
      <trkpt lat="42.9227400" lon="-8.2678360">
        <ele>358.5</ele>
        <time>2020-04-17T18:35:32Z</time>
      </trkpt>
      <trkpt lat="42.9227760" lon="-8.2679730">
        <ele>358.7</ele>
        <time>2020-04-17T18:35:34Z</time>
      </trkpt>
      <trkpt lat="42.9228340" lon="-8.2681960">
        <ele>359.1</ele>
        <time>2020-04-17T18:35:36Z</time>
      </trkpt>
      <trkpt lat="42.9228710" lon="-8.2683360">
        <ele>359.3</ele>
        <time>2020-04-17T18:35:38Z</time>
      </trkpt>
      <trkpt lat="42.9229070" lon="-8.2684760">
        <ele>359.5</ele>
        <time>2020-04-17T18:35:40Z</time>
      </trkpt>
      <trkpt lat="42.9229890" lon="-8.2687600">
        <ele>360.0</ele>
        <time>2020-04-17T18:35:42Z</time>
      </trkpt>
      <trkpt lat="42.9230340" lon="-8.2688990">
        <ele>360.2</ele>
        <time>2020-04-17T18:35:44Z</time>
      </trkpt>
      <trkpt lat="42.9231260" lon="-8.2691710">
        <ele>360.6</ele>
        <time>2020-04-17T18:35:46Z</time>
      </trkpt>
      <trkpt lat="42.9231820" lon="-8.2693000">
        <ele>360.8</ele>
        <time>2020-04-17T18:35:48Z</time>
      </trkpt>
      <trkpt lat="42.9232360" lon="-8.2694270">
        <ele>361.0</ele>
        <time>2020-04-17T18:35:50Z</time>
      </trkpt>
      <trkpt lat="42.9233430" lon="-8.2696640">
        <ele>361.4</ele>
        <time>2020-04-17T18:35:52Z</time>
      </trkpt>
      <trkpt lat="42.9233990" lon="-8.2697810">
        <ele>361.6</ele>
        <time>2020-04-17T18:35:54Z</time>
      </trkpt>
      <trkpt lat="42.9234550" lon="-8.2698980">
        <ele>361.8</ele>
        <time>2020-04-17T18:35:56Z</time>
      </trkpt>
      <trkpt lat="42.9235090" lon="-8.2700120">
        <ele>362.0</ele>
        <time>2020-04-17T18:35:58Z</time>
      </trkpt>
      <trkpt lat="42.9235630" lon="-8.2701250">
        <ele>362.2</ele>
        <time>2020-04-17T18:36:00Z</time>
      </trkpt>
      <trkpt lat="42.9237240" lon="-8.2704600">
        <ele>362.9</ele>
        <time>2020-04-17T18:36:02Z</time>
      </trkpt>
      <trkpt lat="42.9237770" lon="-8.2705710">
        <ele>363.1</ele>
        <time>2020-04-17T18:36:04Z</time>
      </trkpt>
      <trkpt lat="42.9238640" lon="-8.2707540">
        <ele>363.4</ele>
        <time>2020-04-17T18:36:06Z</time>
      </trkpt>
      <trkpt lat="42.9239140" lon="-8.2708650">
        <ele>363.7</ele>
        <time>2020-04-17T18:36:08Z</time>
      </trkpt>
      <trkpt lat="42.9239650" lon="-8.2709770">
        <ele>363.9</ele>
        <time>2020-04-17T18:36:10Z</time>
      </trkpt>
      <trkpt lat="42.9240160" lon="-8.2710880">
        <ele>364.1</ele>
        <time>2020-04-17T18:36:12Z</time>
      </trkpt>
      <trkpt lat="42.9241340" lon="-8.2713470">
        <ele>364.6</ele>
        <time>2020-04-17T18:36:14Z</time>
      </trkpt>
      <trkpt lat="42.9241830" lon="-8.2714550">
        <ele>364.9</ele>
        <time>2020-04-17T18:36:16Z</time>
      </trkpt>
      <trkpt lat="42.9242770" lon="-8.2716620">
        <ele>365.3</ele>
        <time>2020-04-17T18:36:18Z</time>
      </trkpt>
      <trkpt lat="42.9243260" lon="-8.2717690">
        <ele>365.5</ele>
        <time>2020-04-17T18:36:20Z</time>
      </trkpt>
      <trkpt lat="42.9243740" lon="-8.2718780">
        <ele>365.7</ele>
        <time>2020-04-17T18:36:22Z</time>
      </trkpt>
      <trkpt lat="42.9244780" lon="-8.2721130">
        <ele>366.1</ele>
        <time>2020-04-17T18:36:24Z</time>
      </trkpt>
      <trkpt lat="42.9245220" lon="-8.2722270">
        <ele>366.3</ele>
        <time>2020-04-17T18:36:26Z</time>
      </trkpt>
      <trkpt lat="42.9245640" lon="-8.2723390">
        <ele>366.5</ele>
        <time>2020-04-17T18:36:28Z</time>
      </trkpt>
      <trkpt lat="42.9246070" lon="-8.2724520">
        <ele>366.7</ele>
        <time>2020-04-17T18:36:30Z</time>
      </trkpt>
      <trkpt lat="42.9246500" lon="-8.2725640">
        <ele>366.8</ele>
        <time>2020-04-17T18:36:32Z</time>
      </trkpt>
      <trkpt lat="42.9247700" lon="-8.2728770">
        <ele>367.2</ele>
        <time>2020-04-17T18:36:34Z</time>
      </trkpt>
      <trkpt lat="42.9248140" lon="-8.2729920">
        <ele>367.2</ele>
        <time>2020-04-17T18:36:36Z</time>
      </trkpt>
      <trkpt lat="42.9248580" lon="-8.2731080">
        <ele>367.3</ele>
        <time>2020-04-17T18:36:38Z</time>
      </trkpt>
      <trkpt lat="42.9249040" lon="-8.2732290">
        <ele>367.3</ele>
        <time>2020-04-17T18:36:40Z</time>
      </trkpt>
      <trkpt lat="42.9249520" lon="-8.2733540">
        <ele>367.3</ele>
        <time>2020-04-17T18:36:42Z</time>
      </trkpt>
      <trkpt lat="42.9250770" lon="-8.2736810">
        <ele>367.3</ele>
        <time>2020-04-17T18:36:44Z</time>
      </trkpt>
      <trkpt lat="42.9251260" lon="-8.2738090">
        <ele>367.2</ele>
        <time>2020-04-17T18:36:46Z</time>
      </trkpt>
      <trkpt lat="42.9251770" lon="-8.2739400">
        <ele>367.1</ele>
        <time>2020-04-17T18:36:48Z</time>
      </trkpt>
      <trkpt lat="42.9252270" lon="-8.2740720">
        <ele>367.0</ele>
        <time>2020-04-17T18:36:50Z</time>
      </trkpt>
      <trkpt lat="42.9253560" lon="-8.2744070">
        <ele>366.8</ele>
        <time>2020-04-17T18:36:52Z</time>
      </trkpt>
      <trkpt lat="42.9254090" lon="-8.2745440">
        <ele>366.8</ele>
        <time>2020-04-17T18:36:54Z</time>
      </trkpt>
      <trkpt lat="42.9254630" lon="-8.2746840">
        <ele>366.8</ele>
        <time>2020-04-17T18:36:56Z</time>
      </trkpt>
      <trkpt lat="42.9255860" lon="-8.2750060">
        <ele>366.6</ele>
        <time>2020-04-17T18:36:58Z</time>
      </trkpt>
      <trkpt lat="42.9256370" lon="-8.2751590">
        <ele>366.3</ele>
        <time>2020-04-17T18:37:00Z</time>
      </trkpt>
      <trkpt lat="42.9256880" lon="-8.2753130">
        <ele>366.0</ele>
        <time>2020-04-17T18:37:02Z</time>
      </trkpt>
      <trkpt lat="42.9257810" lon="-8.2756100">
        <ele>365.7</ele>
        <time>2020-04-17T18:37:04Z</time>
      </trkpt>
      <trkpt lat="42.9258260" lon="-8.2757740">
        <ele>365.6</ele>
        <time>2020-04-17T18:37:06Z</time>
      </trkpt>
      <trkpt lat="42.9258990" lon="-8.2760510">
        <ele>365.3</ele>
        <time>2020-04-17T18:37:08Z</time>
      </trkpt>
      <trkpt lat="42.9259650" lon="-8.2763250">
        <ele>364.9</ele>
        <time>2020-04-17T18:37:10Z</time>
      </trkpt>
      <trkpt lat="42.9259940" lon="-8.2764990">
        <ele>364.8</ele>
        <time>2020-04-17T18:37:12Z</time>
      </trkpt>
      <trkpt lat="42.9260410" lon="-8.2767940">
        <ele>364.6</ele>
        <time>2020-04-17T18:37:14Z</time>
      </trkpt>
      <trkpt lat="42.9260640" lon="-8.2769730">
        <ele>364.4</ele>
        <time>2020-04-17T18:37:16Z</time>
      </trkpt>
      <trkpt lat="42.9261020" lon="-8.2772710">
        <ele>364.1</ele>
        <time>2020-04-17T18:37:18Z</time>
      </trkpt>
      <trkpt lat="42.9261230" lon="-8.2774530">
        <ele>363.8</ele>
        <time>2020-04-17T18:37:20Z</time>
      </trkpt>
      <trkpt lat="42.9261580" lon="-8.2777600">
        <ele>363.3</ele>
        <time>2020-04-17T18:37:22Z</time>
      </trkpt>
      <trkpt lat="42.9261800" lon="-8.2779490">
        <ele>363.0</ele>
        <time>2020-04-17T18:37:24Z</time>
      </trkpt>
      <trkpt lat="42.9262030" lon="-8.2781420">
        <ele>362.7</ele>
        <time>2020-04-17T18:37:26Z</time>
      </trkpt>
      <trkpt lat="42.9262530" lon="-8.2785760">
        <ele>362.1</ele>
        <time>2020-04-17T18:37:28Z</time>
      </trkpt>
      <trkpt lat="42.9262740" lon="-8.2787700">
        <ele>361.9</ele>
        <time>2020-04-17T18:37:30Z</time>
      </trkpt>
      <trkpt lat="42.9262950" lon="-8.2789620">
        <ele>361.8</ele>
        <time>2020-04-17T18:37:32Z</time>
      </trkpt>
      <trkpt lat="42.9263160" lon="-8.2791520">
        <ele>361.7</ele>
        <time>2020-04-17T18:37:34Z</time>
      </trkpt>
      <trkpt lat="42.9263570" lon="-8.2795890">
        <ele>361.5</ele>
        <time>2020-04-17T18:37:36Z</time>
      </trkpt>
      <trkpt lat="42.9263690" lon="-8.2797770">
        <ele>361.5</ele>
        <time>2020-04-17T18:37:38Z</time>
      </trkpt>
      <trkpt lat="42.9263770" lon="-8.2801010">
        <ele>361.4</ele>
        <time>2020-04-17T18:37:40Z</time>
      </trkpt>
      <trkpt lat="42.9263570" lon="-8.2803640">
        <ele>361.5</ele>
        <time>2020-04-17T18:37:42Z</time>
      </trkpt>
      <trkpt lat="42.9263200" lon="-8.2806140">
        <ele>361.7</ele>
        <time>2020-04-17T18:37:44Z</time>
      </trkpt>
      <trkpt lat="42.9262870" lon="-8.2807660">
        <ele>362.0</ele>
        <time>2020-04-17T18:37:46Z</time>
      </trkpt>
      <trkpt lat="42.9262320" lon="-8.2810070">
        <ele>362.5</ele>
        <time>2020-04-17T18:37:48Z</time>
      </trkpt>
      <trkpt lat="42.9261960" lon="-8.2811370">
        <ele>362.8</ele>
        <time>2020-04-17T18:37:50Z</time>
      </trkpt>
      <trkpt lat="42.9261360" lon="-8.2813380">
        <ele>363.1</ele>
        <time>2020-04-17T18:37:52Z</time>
      </trkpt>
      <trkpt lat="42.9260990" lon="-8.2814500">
        <ele>363.3</ele>
        <time>2020-04-17T18:37:54Z</time>
      </trkpt>
      <trkpt lat="42.9260290" lon="-8.2816470">
        <ele>363.8</ele>
        <time>2020-04-17T18:37:56Z</time>
      </trkpt>
      <trkpt lat="42.9259890" lon="-8.2817480">
        <ele>364.0</ele>
        <time>2020-04-17T18:37:58Z</time>
      </trkpt>
      <trkpt lat="42.9259160" lon="-8.2819270">
        <ele>364.4</ele>
        <time>2020-04-17T18:38:00Z</time>
      </trkpt>
      <trkpt lat="42.9258720" lon="-8.2820240">
        <ele>364.7</ele>
        <time>2020-04-17T18:38:02Z</time>
      </trkpt>
      <trkpt lat="42.9258280" lon="-8.2821190">
        <ele>365.0</ele>
        <time>2020-04-17T18:38:04Z</time>
      </trkpt>
      <trkpt lat="42.9257380" lon="-8.2823040">
        <ele>365.5</ele>
        <time>2020-04-17T18:38:06Z</time>
      </trkpt>
      <trkpt lat="42.9256880" lon="-8.2823920">
        <ele>365.8</ele>
        <time>2020-04-17T18:38:08Z</time>
      </trkpt>
      <trkpt lat="42.9256390" lon="-8.2824800">
        <ele>366.0</ele>
        <time>2020-04-17T18:38:10Z</time>
      </trkpt>
      <trkpt lat="42.9255430" lon="-8.2826500">
        <ele>366.4</ele>
        <time>2020-04-17T18:38:12Z</time>
      </trkpt>
      <trkpt lat="42.9254670" lon="-8.2827680">
        <ele>366.7</ele>
        <time>2020-04-17T18:38:14Z</time>
      </trkpt>
      <trkpt lat="42.9254080" lon="-8.2828490">
        <ele>367.0</ele>
        <time>2020-04-17T18:38:16Z</time>
      </trkpt>
      <trkpt lat="42.9252930" lon="-8.2830050">
        <ele>367.6</ele>
        <time>2020-04-17T18:38:18Z</time>
      </trkpt>
      <trkpt lat="42.9252280" lon="-8.2830870">
        <ele>367.9</ele>
        <time>2020-04-17T18:38:20Z</time>
      </trkpt>
      <trkpt lat="42.9251080" lon="-8.2832370">
        <ele>368.4</ele>
        <time>2020-04-17T18:38:22Z</time>
      </trkpt>
      <trkpt lat="42.9250330" lon="-8.2833170">
        <ele>368.7</ele>
        <time>2020-04-17T18:38:24Z</time>
      </trkpt>
      <trkpt lat="42.9249620" lon="-8.2833930">
        <ele>369.0</ele>
        <time>2020-04-17T18:38:26Z</time>
      </trkpt>
      <trkpt lat="42.9248900" lon="-8.2834700">
        <ele>369.3</ele>
        <time>2020-04-17T18:38:28Z</time>
      </trkpt>
      <trkpt lat="42.9247150" lon="-8.2836560">
        <ele>370.0</ele>
        <time>2020-04-17T18:38:30Z</time>
      </trkpt>
      <trkpt lat="42.9246400" lon="-8.2837320">
        <ele>370.3</ele>
        <time>2020-04-17T18:38:32Z</time>
      </trkpt>
      <trkpt lat="42.9245650" lon="-8.2838070">
        <ele>370.6</ele>
        <time>2020-04-17T18:38:34Z</time>
      </trkpt>
      <trkpt lat="42.9244910" lon="-8.2838820">
        <ele>370.9</ele>
        <time>2020-04-17T18:38:36Z</time>
      </trkpt>
      <trkpt lat="42.9244160" lon="-8.2839580">
        <ele>371.2</ele>
        <time>2020-04-17T18:38:38Z</time>
      </trkpt>
      <trkpt lat="42.9243410" lon="-8.2840330">
        <ele>371.5</ele>
        <time>2020-04-17T18:38:40Z</time>
      </trkpt>
      <trkpt lat="42.9241240" lon="-8.2842660">
        <ele>372.3</ele>
        <time>2020-04-17T18:38:42Z</time>
      </trkpt>
      <trkpt lat="42.9240570" lon="-8.2843530">
        <ele>372.6</ele>
        <time>2020-04-17T18:38:44Z</time>
      </trkpt>
      <trkpt lat="42.9239480" lon="-8.2845110">
        <ele>373.0</ele>
        <time>2020-04-17T18:38:46Z</time>
      </trkpt>
      <trkpt lat="42.9238890" lon="-8.2846090">
        <ele>373.3</ele>
        <time>2020-04-17T18:38:48Z</time>
      </trkpt>
      <trkpt lat="42.9237920" lon="-8.2847990">
        <ele>373.8</ele>
        <time>2020-04-17T18:38:50Z</time>
      </trkpt>
      <trkpt lat="42.9237490" lon="-8.2849170">
        <ele>374.0</ele>
        <time>2020-04-17T18:38:52Z</time>
      </trkpt>
      <trkpt lat="42.9236830" lon="-8.2851320">
        <ele>374.6</ele>
        <time>2020-04-17T18:38:54Z</time>
      </trkpt>
      <trkpt lat="42.9236580" lon="-8.2852630">
        <ele>374.8</ele>
        <time>2020-04-17T18:38:56Z</time>
      </trkpt>
      <trkpt lat="42.9236230" lon="-8.2854950">
        <ele>375.3</ele>
        <time>2020-04-17T18:38:58Z</time>
      </trkpt>
      <trkpt lat="42.9236150" lon="-8.2856810">
        <ele>375.6</ele>
        <time>2020-04-17T18:39:00Z</time>
      </trkpt>
      <trkpt lat="42.9236080" lon="-8.2858210">
        <ele>375.9</ele>
        <time>2020-04-17T18:39:02Z</time>
      </trkpt>
      <trkpt lat="42.9236290" lon="-8.2860370">
        <ele>376.6</ele>
        <time>2020-04-17T18:39:04Z</time>
      </trkpt>
      <trkpt lat="42.9236580" lon="-8.2861830">
        <ele>377.0</ele>
        <time>2020-04-17T18:39:06Z</time>
      </trkpt>
      <trkpt lat="42.9237230" lon="-8.2864600">
        <ele>377.5</ele>
        <time>2020-04-17T18:39:08Z</time>
      </trkpt>
      <trkpt lat="42.9237750" lon="-8.2866090">
        <ele>377.6</ele>
        <time>2020-04-17T18:39:10Z</time>
      </trkpt>
      <trkpt lat="42.9238290" lon="-8.2867630">
        <ele>378.0</ele>
        <time>2020-04-17T18:39:12Z</time>
      </trkpt>
      <trkpt lat="42.9238840" lon="-8.2869210">
        <ele>378.3</ele>
        <time>2020-04-17T18:39:14Z</time>
      </trkpt>
      <trkpt lat="42.9240230" lon="-8.2873200">
        <ele>378.8</ele>
        <time>2020-04-17T18:39:16Z</time>
      </trkpt>
      <trkpt lat="42.9240750" lon="-8.2874740">
        <ele>379.1</ele>
        <time>2020-04-17T18:39:18Z</time>
      </trkpt>
      <trkpt lat="42.9241230" lon="-8.2876170">
        <ele>379.5</ele>
        <time>2020-04-17T18:39:20Z</time>
      </trkpt>
      <trkpt lat="42.9241670" lon="-8.2877490">
        <ele>380.0</ele>
        <time>2020-04-17T18:39:22Z</time>
      </trkpt>
      <trkpt lat="42.9242760" lon="-8.2880780">
        <ele>381.4</ele>
        <time>2020-04-17T18:39:24Z</time>
      </trkpt>
      <trkpt lat="42.9243080" lon="-8.2881980">
        <ele>381.9</ele>
        <time>2020-04-17T18:39:26Z</time>
      </trkpt>
      <trkpt lat="42.9243520" lon="-8.2883720">
        <ele>382.7</ele>
        <time>2020-04-17T18:39:28Z</time>
      </trkpt>
      <trkpt lat="42.9243800" lon="-8.2885200">
        <ele>383.3</ele>
        <time>2020-04-17T18:39:30Z</time>
      </trkpt>
      <trkpt lat="42.9244030" lon="-8.2886910">
        <ele>384.0</ele>
        <time>2020-04-17T18:39:32Z</time>
      </trkpt>
      <trkpt lat="42.9244120" lon="-8.2888460">
        <ele>384.6</ele>
        <time>2020-04-17T18:39:34Z</time>
      </trkpt>
      <trkpt lat="42.9244150" lon="-8.2889490">
        <ele>384.9</ele>
        <time>2020-04-17T18:39:36Z</time>
      </trkpt>
      <trkpt lat="42.9244100" lon="-8.2890940">
        <ele>385.3</ele>
        <time>2020-04-17T18:39:38Z</time>
      </trkpt>
      <trkpt lat="42.9243960" lon="-8.2892430">
        <ele>385.6</ele>
        <time>2020-04-17T18:39:40Z</time>
      </trkpt>
      <trkpt lat="42.9243710" lon="-8.2893780">
        <ele>385.8</ele>
        <time>2020-04-17T18:39:42Z</time>
      </trkpt>
      <trkpt lat="42.9243490" lon="-8.2894820">
        <ele>386.1</ele>
        <time>2020-04-17T18:39:44Z</time>
      </trkpt>
      <trkpt lat="42.9243070" lon="-8.2896450">
        <ele>386.5</ele>
        <time>2020-04-17T18:39:46Z</time>
      </trkpt>
      <trkpt lat="42.9242610" lon="-8.2898090">
        <ele>387.0</ele>
        <time>2020-04-17T18:39:48Z</time>
      </trkpt>
      <trkpt lat="42.9242290" lon="-8.2899140">
        <ele>387.3</ele>
        <time>2020-04-17T18:39:50Z</time>
      </trkpt>
      <trkpt lat="42.9241960" lon="-8.2900180">
        <ele>387.6</ele>
        <time>2020-04-17T18:39:52Z</time>
      </trkpt>
      <trkpt lat="42.9241640" lon="-8.2901230">
        <ele>387.8</ele>
        <time>2020-04-17T18:39:54Z</time>
      </trkpt>
      <trkpt lat="42.9240870" lon="-8.2903660">
        <ele>388.2</ele>
        <time>2020-04-17T18:39:56Z</time>
      </trkpt>
      <trkpt lat="42.9240430" lon="-8.2905010">
        <ele>388.2</ele>
        <time>2020-04-17T18:39:58Z</time>
      </trkpt>
      <trkpt lat="42.9240100" lon="-8.2906050">
        <ele>388.4</ele>
        <time>2020-04-17T18:40:00Z</time>
      </trkpt>
      <trkpt lat="42.9239770" lon="-8.2907070">
        <ele>388.6</ele>
        <time>2020-04-17T18:40:02Z</time>
      </trkpt>
      <trkpt lat="42.9239440" lon="-8.2908080">
        <ele>388.8</ele>
        <time>2020-04-17T18:40:04Z</time>
      </trkpt>
      <trkpt lat="42.9239120" lon="-8.2909090">
        <ele>389.1</ele>
        <time>2020-04-17T18:40:06Z</time>
      </trkpt>
      <trkpt lat="42.9238790" lon="-8.2910090">
        <ele>389.5</ele>
        <time>2020-04-17T18:40:08Z</time>
      </trkpt>
      <trkpt lat="42.9238480" lon="-8.2911080">
        <ele>389.8</ele>
        <time>2020-04-17T18:40:10Z</time>
      </trkpt>
      <trkpt lat="42.9237230" lon="-8.2914950">
        <ele>391.2</ele>
        <time>2020-04-17T18:40:12Z</time>
      </trkpt>
      <trkpt lat="42.9236920" lon="-8.2915930">
        <ele>391.6</ele>
        <time>2020-04-17T18:40:14Z</time>
      </trkpt>
      <trkpt lat="42.9236610" lon="-8.2916920">
        <ele>392.0</ele>
        <time>2020-04-17T18:40:16Z</time>
      </trkpt>
      <trkpt lat="42.9235990" lon="-8.2918860">
        <ele>392.9</ele>
        <time>2020-04-17T18:40:18Z</time>
      </trkpt>
      <trkpt lat="42.9235690" lon="-8.2919850">
        <ele>393.4</ele>
        <time>2020-04-17T18:40:20Z</time>
      </trkpt>
      <trkpt lat="42.9235400" lon="-8.2920830">
        <ele>393.8</ele>
        <time>2020-04-17T18:40:22Z</time>
      </trkpt>
      <trkpt lat="42.9235100" lon="-8.2921820">
        <ele>394.3</ele>
        <time>2020-04-17T18:40:24Z</time>
      </trkpt>
      <trkpt lat="42.9234800" lon="-8.2922810">
        <ele>394.8</ele>
        <time>2020-04-17T18:40:26Z</time>
      </trkpt>
      <trkpt lat="42.9233940" lon="-8.2925720">
        <ele>395.9</ele>
        <time>2020-04-17T18:40:28Z</time>
      </trkpt>
      <trkpt lat="42.9233690" lon="-8.2926820">
        <ele>396.3</ele>
        <time>2020-04-17T18:40:30Z</time>
      </trkpt>
      <trkpt lat="42.9233410" lon="-8.2928020">
        <ele>396.6</ele>
        <time>2020-04-17T18:40:32Z</time>
      </trkpt>
      <trkpt lat="42.9232810" lon="-8.2930630">
        <ele>397.4</ele>
        <time>2020-04-17T18:40:34Z</time>
      </trkpt>
      <trkpt lat="42.9232570" lon="-8.2932000">
        <ele>397.7</ele>
        <time>2020-04-17T18:40:36Z</time>
      </trkpt>
      <trkpt lat="42.9232330" lon="-8.2933370">
        <ele>397.9</ele>
        <time>2020-04-17T18:40:38Z</time>
      </trkpt>
      <trkpt lat="42.9231900" lon="-8.2935790">
        <ele>398.3</ele>
        <time>2020-04-17T18:40:40Z</time>
      </trkpt>
      <trkpt lat="42.9231650" lon="-8.2937190">
        <ele>398.4</ele>
        <time>2020-04-17T18:40:42Z</time>
      </trkpt>
      <trkpt lat="42.9231130" lon="-8.2940050">
        <ele>398.3</ele>
        <time>2020-04-17T18:40:44Z</time>
      </trkpt>
      <trkpt lat="42.9230800" lon="-8.2941490">
        <ele>398.1</ele>
        <time>2020-04-17T18:40:46Z</time>
      </trkpt>
      <trkpt lat="42.9230220" lon="-8.2944020">
        <ele>397.8</ele>
        <time>2020-04-17T18:40:48Z</time>
      </trkpt>
      <trkpt lat="42.9229780" lon="-8.2945610">
        <ele>397.6</ele>
        <time>2020-04-17T18:40:50Z</time>
      </trkpt>
      <trkpt lat="42.9229030" lon="-8.2948190">
        <ele>397.3</ele>
        <time>2020-04-17T18:40:52Z</time>
      </trkpt>
      <trkpt lat="42.9228510" lon="-8.2949880">
        <ele>396.9</ele>
        <time>2020-04-17T18:40:54Z</time>
      </trkpt>
      <trkpt lat="42.9227960" lon="-8.2951640">
        <ele>396.3</ele>
        <time>2020-04-17T18:40:56Z</time>
      </trkpt>
      <trkpt lat="42.9226770" lon="-8.2955490">
        <ele>395.1</ele>
        <time>2020-04-17T18:40:58Z</time>
      </trkpt>
      <trkpt lat="42.9226170" lon="-8.2957390">
        <ele>394.4</ele>
        <time>2020-04-17T18:41:00Z</time>
      </trkpt>
      <trkpt lat="42.9225100" lon="-8.2960580">
        <ele>393.3</ele>
        <time>2020-04-17T18:41:02Z</time>
      </trkpt>
      <trkpt lat="42.9223990" lon="-8.2963690">
        <ele>392.2</ele>
        <time>2020-04-17T18:41:04Z</time>
      </trkpt>
      <trkpt lat="42.9222830" lon="-8.2966580">
        <ele>391.2</ele>
        <time>2020-04-17T18:41:06Z</time>
      </trkpt>
      <trkpt lat="42.9221900" lon="-8.2968660">
        <ele>390.2</ele>
        <time>2020-04-17T18:41:08Z</time>
      </trkpt>
      <trkpt lat="42.9220440" lon="-8.2971530">
        <ele>388.8</ele>
        <time>2020-04-17T18:41:10Z</time>
      </trkpt>
      <trkpt lat="42.9218730" lon="-8.2974420">
        <ele>387.4</ele>
        <time>2020-04-17T18:41:12Z</time>
      </trkpt>
      <trkpt lat="42.9216790" lon="-8.2977450">
        <ele>386.5</ele>
        <time>2020-04-17T18:41:14Z</time>
      </trkpt>
      <trkpt lat="42.9215170" lon="-8.2979820">
        <ele>385.5</ele>
        <time>2020-04-17T18:41:16Z</time>
      </trkpt>
      <trkpt lat="42.9213950" lon="-8.2981530">
        <ele>384.3</ele>
        <time>2020-04-17T18:41:18Z</time>
      </trkpt>
      <trkpt lat="42.9212780" lon="-8.2983180">
        <ele>383.3</ele>
        <time>2020-04-17T18:41:20Z</time>
      </trkpt>
      <trkpt lat="42.9210260" lon="-8.2986640">
        <ele>382.0</ele>
        <time>2020-04-17T18:41:22Z</time>
      </trkpt>
      <trkpt lat="42.9209110" lon="-8.2988180">
        <ele>381.3</ele>
        <time>2020-04-17T18:41:24Z</time>
      </trkpt>
      <trkpt lat="42.9207150" lon="-8.2990770">
        <ele>380.0</ele>
        <time>2020-04-17T18:41:26Z</time>
      </trkpt>
      <trkpt lat="42.9205990" lon="-8.2992190">
        <ele>379.3</ele>
        <time>2020-04-17T18:41:28Z</time>
      </trkpt>
      <trkpt lat="42.9204840" lon="-8.2993600">
        <ele>378.8</ele>
        <time>2020-04-17T18:41:30Z</time>
      </trkpt>
      <trkpt lat="42.9202330" lon="-8.2996610">
        <ele>378.0</ele>
        <time>2020-04-17T18:41:32Z</time>
      </trkpt>
      <trkpt lat="42.9201170" lon="-8.2997910">
        <ele>377.7</ele>
        <time>2020-04-17T18:41:34Z</time>
      </trkpt>
      <trkpt lat="42.9200070" lon="-8.2999160">
        <ele>377.5</ele>
        <time>2020-04-17T18:41:36Z</time>
      </trkpt>
      <trkpt lat="42.9198970" lon="-8.3000400">
        <ele>377.3</ele>
        <time>2020-04-17T18:41:38Z</time>
      </trkpt>
      <trkpt lat="42.9196360" lon="-8.3003350">
        <ele>377.0</ele>
        <time>2020-04-17T18:41:40Z</time>
      </trkpt>
      <trkpt lat="42.9195290" lon="-8.3004550">
        <ele>376.9</ele>
        <time>2020-04-17T18:41:42Z</time>
      </trkpt>
      <trkpt lat="42.9193530" lon="-8.3006550">
        <ele>376.9</ele>
        <time>2020-04-17T18:41:44Z</time>
      </trkpt>
      <trkpt lat="42.9192460" lon="-8.3007770">
        <ele>376.9</ele>
        <time>2020-04-17T18:41:46Z</time>
      </trkpt>
      <trkpt lat="42.9190470" lon="-8.3010250">
        <ele>377.0</ele>
        <time>2020-04-17T18:41:48Z</time>
      </trkpt>
      <trkpt lat="42.9189470" lon="-8.3011580">
        <ele>376.9</ele>
        <time>2020-04-17T18:41:50Z</time>
      </trkpt>
      <trkpt lat="42.9188000" lon="-8.3013720">
        <ele>376.6</ele>
        <time>2020-04-17T18:41:52Z</time>
      </trkpt>
      <trkpt lat="42.9186560" lon="-8.3016050">
        <ele>376.3</ele>
        <time>2020-04-17T18:41:54Z</time>
      </trkpt>
      <trkpt lat="42.9185540" lon="-8.3018040">
        <ele>376.3</ele>
        <time>2020-04-17T18:41:56Z</time>
      </trkpt>
      <trkpt lat="42.9184480" lon="-8.3020450">
        <ele>376.0</ele>
        <time>2020-04-17T18:41:58Z</time>
      </trkpt>
      <trkpt lat="42.9183840" lon="-8.3022190">
        <ele>375.6</ele>
        <time>2020-04-17T18:42:00Z</time>
      </trkpt>
      <trkpt lat="42.9182970" lon="-8.3024810">
        <ele>375.2</ele>
        <time>2020-04-17T18:42:02Z</time>
      </trkpt>
      <trkpt lat="42.9182330" lon="-8.3027340">
        <ele>375.0</ele>
        <time>2020-04-17T18:42:04Z</time>
      </trkpt>
      <trkpt lat="42.9181990" lon="-8.3029130">
        <ele>374.8</ele>
        <time>2020-04-17T18:42:06Z</time>
      </trkpt>
      <trkpt lat="42.9181500" lon="-8.3032100">
        <ele>374.7</ele>
        <time>2020-04-17T18:42:08Z</time>
      </trkpt>
      <trkpt lat="42.9181250" lon="-8.3033980">
        <ele>374.7</ele>
        <time>2020-04-17T18:42:10Z</time>
      </trkpt>
      <trkpt lat="42.9180790" lon="-8.3037540">
        <ele>374.5</ele>
        <time>2020-04-17T18:42:12Z</time>
      </trkpt>
      <trkpt lat="42.9180600" lon="-8.3039510">
        <ele>374.3</ele>
        <time>2020-04-17T18:42:14Z</time>
      </trkpt>
      <trkpt lat="42.9180410" lon="-8.3041530">
        <ele>374.1</ele>
        <time>2020-04-17T18:42:16Z</time>
      </trkpt>
      <trkpt lat="42.9180020" lon="-8.3045780">
        <ele>373.5</ele>
        <time>2020-04-17T18:42:18Z</time>
      </trkpt>
      <trkpt lat="42.9179820" lon="-8.3047850">
        <ele>373.1</ele>
        <time>2020-04-17T18:42:20Z</time>
      </trkpt>
      <trkpt lat="42.9179620" lon="-8.3049980">
        <ele>372.6</ele>
        <time>2020-04-17T18:42:22Z</time>
      </trkpt>
      <trkpt lat="42.9179190" lon="-8.3054310">
        <ele>371.7</ele>
        <time>2020-04-17T18:42:24Z</time>
      </trkpt>
      <trkpt lat="42.9178970" lon="-8.3056480">
        <ele>371.0</ele>
        <time>2020-04-17T18:42:26Z</time>
      </trkpt>
      <trkpt lat="42.9178740" lon="-8.3058680">
        <ele>370.1</ele>
        <time>2020-04-17T18:42:28Z</time>
      </trkpt>
      <trkpt lat="42.9178290" lon="-8.3063090">
        <ele>368.5</ele>
        <time>2020-04-17T18:42:30Z</time>
      </trkpt>
      <trkpt lat="42.9178060" lon="-8.3065290">
        <ele>367.7</ele>
        <time>2020-04-17T18:42:32Z</time>
      </trkpt>
      <trkpt lat="42.9177830" lon="-8.3067480">
        <ele>367.1</ele>
        <time>2020-04-17T18:42:34Z</time>
      </trkpt>
      <trkpt lat="42.9177610" lon="-8.3069660">
        <ele>366.5</ele>
        <time>2020-04-17T18:42:36Z</time>
      </trkpt>
      <trkpt lat="42.9177070" lon="-8.3074930">
        <ele>365.4</ele>
        <time>2020-04-17T18:42:38Z</time>
      </trkpt>
      <trkpt lat="42.9176840" lon="-8.3077120">
        <ele>365.2</ele>
        <time>2020-04-17T18:42:40Z</time>
      </trkpt>
      <trkpt lat="42.9176620" lon="-8.3079310">
        <ele>365.2</ele>
        <time>2020-04-17T18:42:42Z</time>
      </trkpt>
      <trkpt lat="42.9176390" lon="-8.3081500">
        <ele>365.3</ele>
        <time>2020-04-17T18:42:44Z</time>
      </trkpt>
      <trkpt lat="42.9175850" lon="-8.3086750">
        <ele>365.7</ele>
        <time>2020-04-17T18:42:46Z</time>
      </trkpt>
      <trkpt lat="42.9175650" lon="-8.3088750">
        <ele>366.1</ele>
        <time>2020-04-17T18:42:48Z</time>
      </trkpt>
      <trkpt lat="42.9175450" lon="-8.3090640">
        <ele>366.5</ele>
        <time>2020-04-17T18:42:50Z</time>
      </trkpt>
      <trkpt lat="42.9175270" lon="-8.3092400">
        <ele>367.0</ele>
        <time>2020-04-17T18:42:52Z</time>
      </trkpt>
      <trkpt lat="42.9174780" lon="-8.3097190">
        <ele>368.5</ele>
        <time>2020-04-17T18:42:54Z</time>
      </trkpt>
      <trkpt lat="42.9174620" lon="-8.3098770">
        <ele>369.0</ele>
        <time>2020-04-17T18:42:56Z</time>
      </trkpt>
      <trkpt lat="42.9174460" lon="-8.3100270">
        <ele>369.5</ele>
        <time>2020-04-17T18:42:58Z</time>
      </trkpt>
      <trkpt lat="42.9174320" lon="-8.3101700">
        <ele>370.0</ele>
        <time>2020-04-17T18:43:00Z</time>
      </trkpt>
      <trkpt lat="42.9173970" lon="-8.3105060">
        <ele>370.8</ele>
        <time>2020-04-17T18:43:02Z</time>
      </trkpt>
      <trkpt lat="42.9173840" lon="-8.3106370">
        <ele>371.1</ele>
        <time>2020-04-17T18:43:04Z</time>
      </trkpt>
      <trkpt lat="42.9173600" lon="-8.3108750">
        <ele>371.9</ele>
        <time>2020-04-17T18:43:06Z</time>
      </trkpt>
      <trkpt lat="42.9173480" lon="-8.3109920">
        <ele>372.3</ele>
        <time>2020-04-17T18:43:08Z</time>
      </trkpt>
      <trkpt lat="42.9173370" lon="-8.3111030">
        <ele>372.7</ele>
        <time>2020-04-17T18:43:10Z</time>
      </trkpt>
      <trkpt lat="42.9173260" lon="-8.3112060">
        <ele>373.1</ele>
        <time>2020-04-17T18:43:12Z</time>
      </trkpt>
      <trkpt lat="42.9173170" lon="-8.3113030">
        <ele>373.4</ele>
        <time>2020-04-17T18:43:14Z</time>
      </trkpt>
      <trkpt lat="42.9173070" lon="-8.3113950">
        <ele>373.7</ele>
        <time>2020-04-17T18:43:16Z</time>
      </trkpt>
      <trkpt lat="42.9172980" lon="-8.3114820">
        <ele>374.0</ele>
        <time>2020-04-17T18:43:18Z</time>
      </trkpt>
      <trkpt lat="42.9172900" lon="-8.3115650">
        <ele>374.2</ele>
        <time>2020-04-17T18:43:20Z</time>
      </trkpt>
      <trkpt lat="42.9172820" lon="-8.3116490">
        <ele>374.5</ele>
        <time>2020-04-17T18:43:22Z</time>
      </trkpt>
      <trkpt lat="42.9172420" lon="-8.3120410">
        <ele>375.6</ele>
        <time>2020-04-17T18:43:24Z</time>
      </trkpt>
      <trkpt lat="42.9172340" lon="-8.3121190">
        <ele>375.8</ele>
        <time>2020-04-17T18:43:26Z</time>
      </trkpt>
      <trkpt lat="42.9172270" lon="-8.3121930">
        <ele>376.0</ele>
        <time>2020-04-17T18:43:28Z</time>
      </trkpt>
      <trkpt lat="42.9172210" lon="-8.3122590">
        <ele>376.1</ele>
        <time>2020-04-17T18:43:30Z</time>
      </trkpt>
      <trkpt lat="42.9172170" lon="-8.3122990">
        <ele>376.2</ele>
        <time>2020-04-17T18:43:32Z</time>
      </trkpt>
      <trkpt lat="42.9172120" lon="-8.3123410">
        <ele>376.3</ele>
        <time>2020-04-17T18:43:34Z</time>
      </trkpt>
      <trkpt lat="42.9171930" lon="-8.3125330">
        <ele>376.6</ele>
        <time>2020-04-17T18:43:36Z</time>
      </trkpt>
      <trkpt lat="42.9171850" lon="-8.3126130">
        <ele>376.7</ele>
        <time>2020-04-17T18:43:38Z</time>
      </trkpt>
      <trkpt lat="42.9171770" lon="-8.3126980">
        <ele>376.9</ele>
        <time>2020-04-17T18:43:40Z</time>
      </trkpt>
      <trkpt lat="42.9171680" lon="-8.3127850">
        <ele>377.1</ele>
        <time>2020-04-17T18:43:42Z</time>
      </trkpt>
      <trkpt lat="42.9171590" lon="-8.3128760">
        <ele>377.3</ele>
        <time>2020-04-17T18:43:44Z</time>
      </trkpt>
      <trkpt lat="42.9171490" lon="-8.3129720">
        <ele>377.5</ele>
        <time>2020-04-17T18:43:46Z</time>
      </trkpt>
      <trkpt lat="42.9171200" lon="-8.3132630">
        <ele>378.2</ele>
        <time>2020-04-17T18:43:48Z</time>
      </trkpt>
      <trkpt lat="42.9171090" lon="-8.3133730">
        <ele>378.4</ele>
        <time>2020-04-17T18:43:50Z</time>
      </trkpt>
      <trkpt lat="42.9170980" lon="-8.3134900">
        <ele>378.7</ele>
        <time>2020-04-17T18:43:52Z</time>
      </trkpt>
      <trkpt lat="42.9170860" lon="-8.3136100">
        <ele>378.9</ele>
        <time>2020-04-17T18:43:54Z</time>
      </trkpt>
      <trkpt lat="42.9170730" lon="-8.3137310">
        <ele>379.1</ele>
        <time>2020-04-17T18:43:56Z</time>
      </trkpt>
      <trkpt lat="42.9170610" lon="-8.3138560">
        <ele>379.3</ele>
        <time>2020-04-17T18:43:58Z</time>
      </trkpt>
      <trkpt lat="42.9170480" lon="-8.3139810">
        <ele>379.5</ele>
        <time>2020-04-17T18:44:00Z</time>
      </trkpt>
      <trkpt lat="42.9170040" lon="-8.3144200">
        <ele>380.4</ele>
        <time>2020-04-17T18:44:02Z</time>
      </trkpt>
      <trkpt lat="42.9169920" lon="-8.3145480">
        <ele>380.6</ele>
        <time>2020-04-17T18:44:04Z</time>
      </trkpt>
      <trkpt lat="42.9169790" lon="-8.3146760">
        <ele>380.9</ele>
        <time>2020-04-17T18:44:06Z</time>
      </trkpt>
      <trkpt lat="42.9169660" lon="-8.3148060">
        <ele>381.1</ele>
        <time>2020-04-17T18:44:08Z</time>
      </trkpt>
      <trkpt lat="42.9169530" lon="-8.3149360">
        <ele>381.4</ele>
        <time>2020-04-17T18:44:10Z</time>
      </trkpt>
      <trkpt lat="42.9169400" lon="-8.3150670">
        <ele>381.7</ele>
        <time>2020-04-17T18:44:12Z</time>
      </trkpt>
      <trkpt lat="42.9168960" lon="-8.3155090">
        <ele>382.6</ele>
        <time>2020-04-17T18:44:14Z</time>
      </trkpt>
      <trkpt lat="42.9168840" lon="-8.3156390">
        <ele>382.8</ele>
        <time>2020-04-17T18:44:16Z</time>
      </trkpt>
      <trkpt lat="42.9168710" lon="-8.3157700">
        <ele>383.1</ele>
        <time>2020-04-17T18:44:18Z</time>
      </trkpt>
      <trkpt lat="42.9168590" lon="-8.3159010">
        <ele>383.4</ele>
        <time>2020-04-17T18:44:20Z</time>
      </trkpt>
      <trkpt lat="42.9168280" lon="-8.3162110">
        <ele>384.2</ele>
        <time>2020-04-17T18:44:22Z</time>
      </trkpt>
      <trkpt lat="42.9168070" lon="-8.3163920">
        <ele>384.6</ele>
        <time>2020-04-17T18:44:24Z</time>
      </trkpt>
      <trkpt lat="42.9167930" lon="-8.3165210">
        <ele>384.9</ele>
        <time>2020-04-17T18:44:26Z</time>
      </trkpt>
      <trkpt lat="42.9167670" lon="-8.3167440">
        <ele>385.4</ele>
        <time>2020-04-17T18:44:28Z</time>
      </trkpt>
      <trkpt lat="42.9167500" lon="-8.3168660">
        <ele>385.8</ele>
        <time>2020-04-17T18:44:30Z</time>
      </trkpt>
      <trkpt lat="42.9167330" lon="-8.3169870">
        <ele>386.1</ele>
        <time>2020-04-17T18:44:32Z</time>
      </trkpt>
      <trkpt lat="42.9166960" lon="-8.3172300">
        <ele>386.9</ele>
        <time>2020-04-17T18:44:34Z</time>
      </trkpt>
      <trkpt lat="42.9166760" lon="-8.3173460">
        <ele>387.3</ele>
        <time>2020-04-17T18:44:36Z</time>
      </trkpt>
      <trkpt lat="42.9166400" lon="-8.3175470">
        <ele>388.0</ele>
        <time>2020-04-17T18:44:38Z</time>
      </trkpt>
      <trkpt lat="42.9166140" lon="-8.3176600">
        <ele>388.2</ele>
        <time>2020-04-17T18:44:40Z</time>
      </trkpt>
      <trkpt lat="42.9165720" lon="-8.3178350">
        <ele>388.6</ele>
        <time>2020-04-17T18:44:42Z</time>
      </trkpt>
      <trkpt lat="42.9165440" lon="-8.3179390">
        <ele>388.9</ele>
        <time>2020-04-17T18:44:44Z</time>
      </trkpt>
      <trkpt lat="42.9164890" lon="-8.3181390">
        <ele>389.6</ele>
        <time>2020-04-17T18:44:46Z</time>
      </trkpt>
      <trkpt lat="42.9164560" lon="-8.3182320">
        <ele>390.0</ele>
        <time>2020-04-17T18:44:48Z</time>
      </trkpt>
      <trkpt lat="42.9164240" lon="-8.3183240">
        <ele>390.4</ele>
        <time>2020-04-17T18:44:50Z</time>
      </trkpt>
      <trkpt lat="42.9163930" lon="-8.3184120">
        <ele>390.8</ele>
        <time>2020-04-17T18:44:52Z</time>
      </trkpt>
      <trkpt lat="42.9163180" lon="-8.3186220">
        <ele>391.7</ele>
        <time>2020-04-17T18:44:54Z</time>
      </trkpt>
      <trkpt lat="42.9162850" lon="-8.3187080">
        <ele>392.1</ele>
        <time>2020-04-17T18:44:56Z</time>
      </trkpt>
      <trkpt lat="42.9162510" lon="-8.3187930">
        <ele>392.4</ele>
        <time>2020-04-17T18:44:58Z</time>
      </trkpt>
      <trkpt lat="42.9162180" lon="-8.3188760">
        <ele>392.7</ele>
        <time>2020-04-17T18:45:00Z</time>
      </trkpt>
      <trkpt lat="42.9161430" lon="-8.3190670">
        <ele>393.1</ele>
        <time>2020-04-17T18:45:02Z</time>
      </trkpt>
      <trkpt lat="42.9160910" lon="-8.3192040">
        <ele>393.5</ele>
        <time>2020-04-17T18:45:04Z</time>
      </trkpt>
      <trkpt lat="42.9160570" lon="-8.3192920">
        <ele>393.9</ele>
        <time>2020-04-17T18:45:06Z</time>
      </trkpt>
      <trkpt lat="42.9160210" lon="-8.3193850">
        <ele>394.3</ele>
        <time>2020-04-17T18:45:08Z</time>
      </trkpt>
      <trkpt lat="42.9159850" lon="-8.3194820">
        <ele>394.7</ele>
        <time>2020-04-17T18:45:10Z</time>
      </trkpt>
      <trkpt lat="42.9159470" lon="-8.3195800">
        <ele>395.1</ele>
        <time>2020-04-17T18:45:12Z</time>
      </trkpt>
      <trkpt lat="42.9159080" lon="-8.3196810">
        <ele>395.5</ele>
        <time>2020-04-17T18:45:14Z</time>
      </trkpt>
      <trkpt lat="42.9157870" lon="-8.3199970">
        <ele>396.8</ele>
        <time>2020-04-17T18:45:16Z</time>
      </trkpt>
      <trkpt lat="42.9157530" lon="-8.3201030">
        <ele>397.2</ele>
        <time>2020-04-17T18:45:18Z</time>
      </trkpt>
      <trkpt lat="42.9157190" lon="-8.3202080">
        <ele>397.6</ele>
        <time>2020-04-17T18:45:20Z</time>
      </trkpt>
      <trkpt lat="42.9156500" lon="-8.3204230">
        <ele>398.4</ele>
        <time>2020-04-17T18:45:22Z</time>
      </trkpt>
      <trkpt lat="42.9156210" lon="-8.3205300">
        <ele>398.7</ele>
        <time>2020-04-17T18:45:24Z</time>
      </trkpt>
      <trkpt lat="42.9155920" lon="-8.3206390">
        <ele>399.0</ele>
        <time>2020-04-17T18:45:26Z</time>
      </trkpt>
      <trkpt lat="42.9155410" lon="-8.3208400">
        <ele>399.6</ele>
        <time>2020-04-17T18:45:28Z</time>
      </trkpt>
      <trkpt lat="42.9155150" lon="-8.3209500">
        <ele>399.8</ele>
        <time>2020-04-17T18:45:30Z</time>
      </trkpt>
      <trkpt lat="42.9154760" lon="-8.3211380">
        <ele>400.3</ele>
        <time>2020-04-17T18:45:32Z</time>
      </trkpt>
      <trkpt lat="42.9154550" lon="-8.3212480">
        <ele>400.6</ele>
        <time>2020-04-17T18:45:34Z</time>
      </trkpt>
      <trkpt lat="42.9154210" lon="-8.3214530">
        <ele>401.1</ele>
        <time>2020-04-17T18:45:36Z</time>
      </trkpt>
      <trkpt lat="42.9154100" lon="-8.3215630">
        <ele>401.4</ele>
        <time>2020-04-17T18:45:38Z</time>
      </trkpt>
      <trkpt lat="42.9153990" lon="-8.3216720">
        <ele>401.7</ele>
        <time>2020-04-17T18:45:40Z</time>
      </trkpt>
      <trkpt lat="42.9153880" lon="-8.3217800">
        <ele>401.9</ele>
        <time>2020-04-17T18:45:42Z</time>
      </trkpt>
      <trkpt lat="42.9153780" lon="-8.3218870">
        <ele>402.1</ele>
        <time>2020-04-17T18:45:44Z</time>
      </trkpt>
      <trkpt lat="42.9153530" lon="-8.3221820">
        <ele>402.8</ele>
        <time>2020-04-17T18:45:46Z</time>
      </trkpt>
      <trkpt lat="42.9153490" lon="-8.3222890">
        <ele>403.0</ele>
        <time>2020-04-17T18:45:48Z</time>
      </trkpt>
      <trkpt lat="42.9153440" lon="-8.3223960">
        <ele>403.2</ele>
        <time>2020-04-17T18:45:50Z</time>
      </trkpt>
      <trkpt lat="42.9153400" lon="-8.3226340">
        <ele>403.7</ele>
        <time>2020-04-17T18:45:52Z</time>
      </trkpt>
      <trkpt lat="42.9153440" lon="-8.3227580">
        <ele>403.9</ele>
        <time>2020-04-17T18:45:54Z</time>
      </trkpt>
      <trkpt lat="42.9153480" lon="-8.3228900">
        <ele>404.2</ele>
        <time>2020-04-17T18:45:56Z</time>
      </trkpt>
      <trkpt lat="42.9153610" lon="-8.3231500">
        <ele>404.8</ele>
        <time>2020-04-17T18:45:58Z</time>
      </trkpt>
      <trkpt lat="42.9153780" lon="-8.3233830">
        <ele>405.2</ele>
        <time>2020-04-17T18:46:00Z</time>
      </trkpt>
      <trkpt lat="42.9153950" lon="-8.3235280">
        <ele>405.4</ele>
        <time>2020-04-17T18:46:02Z</time>
      </trkpt>
      <trkpt lat="42.9154240" lon="-8.3237720">
        <ele>405.6</ele>
        <time>2020-04-17T18:46:04Z</time>
      </trkpt>
      <trkpt lat="42.9154500" lon="-8.3239160">
        <ele>405.5</ele>
        <time>2020-04-17T18:46:06Z</time>
      </trkpt>
      <trkpt lat="42.9154950" lon="-8.3241640">
        <ele>405.2</ele>
        <time>2020-04-17T18:46:08Z</time>
      </trkpt>
      <trkpt lat="42.9155370" lon="-8.3243680">
        <ele>404.9</ele>
        <time>2020-04-17T18:46:10Z</time>
      </trkpt>
      <trkpt lat="42.9155840" lon="-8.3245590">
        <ele>404.8</ele>
        <time>2020-04-17T18:46:12Z</time>
      </trkpt>
      <trkpt lat="42.9156380" lon="-8.3247670">
        <ele>404.4</ele>
        <time>2020-04-17T18:46:14Z</time>
      </trkpt>
      <trkpt lat="42.9156840" lon="-8.3249190">
        <ele>403.9</ele>
        <time>2020-04-17T18:46:16Z</time>
      </trkpt>
      <trkpt lat="42.9157710" lon="-8.3252020">
        <ele>403.3</ele>
        <time>2020-04-17T18:46:18Z</time>
      </trkpt>
      <trkpt lat="42.9158260" lon="-8.3253600">
        <ele>403.1</ele>
        <time>2020-04-17T18:46:20Z</time>
      </trkpt>
      <trkpt lat="42.9158880" lon="-8.3255350">
        <ele>402.4</ele>
        <time>2020-04-17T18:46:22Z</time>
      </trkpt>
      <trkpt lat="42.9159540" lon="-8.3257220">
        <ele>401.5</ele>
        <time>2020-04-17T18:46:24Z</time>
      </trkpt>
      <trkpt lat="42.9161110" lon="-8.3261640">
        <ele>399.0</ele>
        <time>2020-04-17T18:46:26Z</time>
      </trkpt>
      <trkpt lat="42.9161950" lon="-8.3263980">
        <ele>397.6</ele>
        <time>2020-04-17T18:46:28Z</time>
      </trkpt>
      <trkpt lat="42.9163120" lon="-8.3267250">
        <ele>395.7</ele>
        <time>2020-04-17T18:46:30Z</time>
      </trkpt>
      <trkpt lat="42.9163940" lon="-8.3269610">
        <ele>394.5</ele>
        <time>2020-04-17T18:46:32Z</time>
      </trkpt>
      <trkpt lat="42.9165330" lon="-8.3273580">
        <ele>392.5</ele>
        <time>2020-04-17T18:46:34Z</time>
      </trkpt>
      <trkpt lat="42.9166190" lon="-8.3276040">
        <ele>391.0</ele>
        <time>2020-04-17T18:46:36Z</time>
      </trkpt>
      <trkpt lat="42.9167090" lon="-8.3278610">
        <ele>389.5</ele>
        <time>2020-04-17T18:46:38Z</time>
      </trkpt>
      <trkpt lat="42.9168860" lon="-8.3283960">
        <ele>386.5</ele>
        <time>2020-04-17T18:46:40Z</time>
      </trkpt>
      <trkpt lat="42.9170060" lon="-8.3288210">
        <ele>384.2</ele>
        <time>2020-04-17T18:46:42Z</time>
      </trkpt>
      <trkpt lat="42.9170750" lon="-8.3291110">
        <ele>382.7</ele>
        <time>2020-04-17T18:46:44Z</time>
      </trkpt>
      <trkpt lat="42.9171810" lon="-8.3295840">
        <ele>380.5</ele>
        <time>2020-04-17T18:46:46Z</time>
      </trkpt>
      <trkpt lat="42.9172660" lon="-8.3300230">
        <ele>378.6</ele>
        <time>2020-04-17T18:46:48Z</time>
      </trkpt>
      <trkpt lat="42.9173310" lon="-8.3304470">
        <ele>376.9</ele>
        <time>2020-04-17T18:46:50Z</time>
      </trkpt>
      <trkpt lat="42.9173790" lon="-8.3308300">
        <ele>375.5</ele>
        <time>2020-04-17T18:46:52Z</time>
      </trkpt>
      <trkpt lat="42.9174350" lon="-8.3312960">
        <ele>373.9</ele>
        <time>2020-04-17T18:46:54Z</time>
      </trkpt>
      <trkpt lat="42.9174720" lon="-8.3315980">
        <ele>372.7</ele>
        <time>2020-04-17T18:46:56Z</time>
      </trkpt>
      <trkpt lat="42.9175370" lon="-8.3321150">
        <ele>371.2</ele>
        <time>2020-04-17T18:46:58Z</time>
      </trkpt>
      <trkpt lat="42.9175770" lon="-8.3323930">
        <ele>370.1</ele>
        <time>2020-04-17T18:47:00Z</time>
      </trkpt>
      <trkpt lat="42.9176450" lon="-8.3328410">
        <ele>368.2</ele>
        <time>2020-04-17T18:47:02Z</time>
      </trkpt>
      <trkpt lat="42.9176900" lon="-8.3331130">
        <ele>367.2</ele>
        <time>2020-04-17T18:47:04Z</time>
      </trkpt>
      <trkpt lat="42.9177740" lon="-8.3335610">
        <ele>366.2</ele>
        <time>2020-04-17T18:47:06Z</time>
      </trkpt>
      <trkpt lat="42.9178600" lon="-8.3340000">
        <ele>364.7</ele>
        <time>2020-04-17T18:47:08Z</time>
      </trkpt>
      <trkpt lat="42.9179280" lon="-8.3343450">
        <ele>363.6</ele>
        <time>2020-04-17T18:47:10Z</time>
      </trkpt>
      <trkpt lat="42.9179830" lon="-8.3346230">
        <ele>362.4</ele>
        <time>2020-04-17T18:47:12Z</time>
      </trkpt>
      <trkpt lat="42.9180830" lon="-8.3351320">
        <ele>360.1</ele>
        <time>2020-04-17T18:47:14Z</time>
      </trkpt>
      <trkpt lat="42.9181570" lon="-8.3355140">
        <ele>358.4</ele>
        <time>2020-04-17T18:47:16Z</time>
      </trkpt>
      <trkpt lat="42.9182010" lon="-8.3357930">
        <ele>357.2</ele>
        <time>2020-04-17T18:47:18Z</time>
      </trkpt>
      <trkpt lat="42.9182550" lon="-8.3362060">
        <ele>356.3</ele>
        <time>2020-04-17T18:47:20Z</time>
      </trkpt>
      <trkpt lat="42.9182830" lon="-8.3364710">
        <ele>355.5</ele>
        <time>2020-04-17T18:47:22Z</time>
      </trkpt>
      <trkpt lat="42.9183190" lon="-8.3369030">
        <ele>353.8</ele>
        <time>2020-04-17T18:47:24Z</time>
      </trkpt>
      <trkpt lat="42.9183350" lon="-8.3371440">
        <ele>352.8</ele>
        <time>2020-04-17T18:47:26Z</time>
      </trkpt>
      <trkpt lat="42.9183640" lon="-8.3375660">
        <ele>351.0</ele>
        <time>2020-04-17T18:47:28Z</time>
      </trkpt>
      <trkpt lat="42.9183910" lon="-8.3379190">
        <ele>349.5</ele>
        <time>2020-04-17T18:47:30Z</time>
      </trkpt>
      <trkpt lat="42.9183990" lon="-8.3383060">
        <ele>348.1</ele>
        <time>2020-04-17T18:47:32Z</time>
      </trkpt>
      <trkpt lat="42.9183720" lon="-8.3386270">
        <ele>346.9</ele>
        <time>2020-04-17T18:47:34Z</time>
      </trkpt>
      <trkpt lat="42.9182950" lon="-8.3390110">
        <ele>345.6</ele>
        <time>2020-04-17T18:47:36Z</time>
      </trkpt>
      <trkpt lat="42.9181810" lon="-8.3393020">
        <ele>344.5</ele>
        <time>2020-04-17T18:47:38Z</time>
      </trkpt>
      <trkpt lat="42.9180380" lon="-8.3395440">
        <ele>343.5</ele>
        <time>2020-04-17T18:47:40Z</time>
      </trkpt>
      <trkpt lat="42.9178540" lon="-8.3397930">
        <ele>342.2</ele>
        <time>2020-04-17T18:47:42Z</time>
      </trkpt>
      <trkpt lat="42.9177270" lon="-8.3399480">
        <ele>341.3</ele>
        <time>2020-04-17T18:47:44Z</time>
      </trkpt>
      <trkpt lat="42.9175050" lon="-8.3402180">
        <ele>339.8</ele>
        <time>2020-04-17T18:47:46Z</time>
      </trkpt>
      <trkpt lat="42.9173740" lon="-8.3403780">
        <ele>339.0</ele>
        <time>2020-04-17T18:47:48Z</time>
      </trkpt>
      <trkpt lat="42.9171480" lon="-8.3406560">
        <ele>337.7</ele>
        <time>2020-04-17T18:47:50Z</time>
      </trkpt>
      <trkpt lat="42.9170170" lon="-8.3408320">
        <ele>336.8</ele>
        <time>2020-04-17T18:47:52Z</time>
      </trkpt>
      <trkpt lat="42.9168050" lon="-8.3411710">
        <ele>334.9</ele>
        <time>2020-04-17T18:47:54Z</time>
      </trkpt>
      <trkpt lat="42.9166990" lon="-8.3414190">
        <ele>333.7</ele>
        <time>2020-04-17T18:47:56Z</time>
      </trkpt>
      <trkpt lat="42.9166080" lon="-8.3417540">
        <ele>332.0</ele>
        <time>2020-04-17T18:47:58Z</time>
      </trkpt>
      <trkpt lat="42.9165510" lon="-8.3421170">
        <ele>330.3</ele>
        <time>2020-04-17T18:48:00Z</time>
      </trkpt>
      <trkpt lat="42.9165060" lon="-8.3425330">
        <ele>328.3</ele>
        <time>2020-04-17T18:48:02Z</time>
      </trkpt>
      <trkpt lat="42.9164760" lon="-8.3428040">
        <ele>327.0</ele>
        <time>2020-04-17T18:48:04Z</time>
      </trkpt>
      <trkpt lat="42.9164400" lon="-8.3432280">
        <ele>325.8</ele>
        <time>2020-04-17T18:48:06Z</time>
      </trkpt>
      <trkpt lat="42.9164320" lon="-8.3436310">
        <ele>323.5</ele>
        <time>2020-04-17T18:48:08Z</time>
      </trkpt>
      <trkpt lat="42.9164510" lon="-8.3439680">
        <ele>321.7</ele>
        <time>2020-04-17T18:48:10Z</time>
      </trkpt>
      <trkpt lat="42.9164890" lon="-8.3443650">
        <ele>320.6</ele>
        <time>2020-04-17T18:48:12Z</time>
      </trkpt>
      <trkpt lat="42.9165240" lon="-8.3446530">
        <ele>319.0</ele>
        <time>2020-04-17T18:48:14Z</time>
      </trkpt>
      <trkpt lat="42.9165950" lon="-8.3452260">
        <ele>316.5</ele>
        <time>2020-04-17T18:48:16Z</time>
      </trkpt>
      <trkpt lat="42.9166370" lon="-8.3455430">
        <ele>315.2</ele>
        <time>2020-04-17T18:48:18Z</time>
      </trkpt>
      <trkpt lat="42.9167030" lon="-8.3460300">
        <ele>312.9</ele>
        <time>2020-04-17T18:48:20Z</time>
      </trkpt>
      <trkpt lat="42.9167420" lon="-8.3463210">
        <ele>312.1</ele>
        <time>2020-04-17T18:48:22Z</time>
      </trkpt>
      <trkpt lat="42.9167970" lon="-8.3467290">
        <ele>310.2</ele>
        <time>2020-04-17T18:48:24Z</time>
      </trkpt>
      <trkpt lat="42.9168370" lon="-8.3470240">
        <ele>308.7</ele>
        <time>2020-04-17T18:48:26Z</time>
      </trkpt>
      <trkpt lat="42.9169180" lon="-8.3476310">
        <ele>305.6</ele>
        <time>2020-04-17T18:48:28Z</time>
      </trkpt>
      <trkpt lat="42.9169520" lon="-8.3479270">
        <ele>304.0</ele>
        <time>2020-04-17T18:48:30Z</time>
      </trkpt>
      <trkpt lat="42.9170060" lon="-8.3484070">
        <ele>301.2</ele>
        <time>2020-04-17T18:48:32Z</time>
      </trkpt>
      <trkpt lat="42.9170410" lon="-8.3487120">
        <ele>299.2</ele>
        <time>2020-04-17T18:48:34Z</time>
      </trkpt>
      <trkpt lat="42.9170410" lon="-8.3492090">
        <ele>296.3</ele>
        <time>2020-04-17T18:48:36Z</time>
      </trkpt>
      <trkpt lat="42.9169810" lon="-8.3496640">
        <ele>293.8</ele>
        <time>2020-04-17T18:48:38Z</time>
      </trkpt>
      <trkpt lat="42.9168490" lon="-8.3501040">
        <ele>291.9</ele>
        <time>2020-04-17T18:48:40Z</time>
      </trkpt>
      <trkpt lat="42.9167390" lon="-8.3503910">
        <ele>289.6</ele>
        <time>2020-04-17T18:48:42Z</time>
      </trkpt>
      <trkpt lat="42.9165710" lon="-8.3508310">
        <ele>287.1</ele>
        <time>2020-04-17T18:48:44Z</time>
      </trkpt>
      <trkpt lat="42.9164260" lon="-8.3512170">
        <ele>285.4</ele>
        <time>2020-04-17T18:48:46Z</time>
      </trkpt>
      <trkpt lat="42.9162860" lon="-8.3515740">
        <ele>283.9</ele>
        <time>2020-04-17T18:48:48Z</time>
      </trkpt>
      <trkpt lat="42.9161170" lon="-8.3519650">
        <ele>282.2</ele>
        <time>2020-04-17T18:48:50Z</time>
      </trkpt>
      <trkpt lat="42.9160000" lon="-8.3522390">
        <ele>281.2</ele>
        <time>2020-04-17T18:48:52Z</time>
      </trkpt>
      <trkpt lat="42.9158270" lon="-8.3526460">
        <ele>279.7</ele>
        <time>2020-04-17T18:48:54Z</time>
      </trkpt>
      <trkpt lat="42.9156830" lon="-8.3530050">
        <ele>277.7</ele>
        <time>2020-04-17T18:48:56Z</time>
      </trkpt>
      <trkpt lat="42.9155500" lon="-8.3533450">
        <ele>276.5</ele>
        <time>2020-04-17T18:48:58Z</time>
      </trkpt>
      <trkpt lat="42.9154140" lon="-8.3536890">
        <ele>275.0</ele>
        <time>2020-04-17T18:49:00Z</time>
      </trkpt>
      <trkpt lat="42.9153040" lon="-8.3539680">
        <ele>274.3</ele>
        <time>2020-04-17T18:49:02Z</time>
      </trkpt>
      <trkpt lat="42.9152110" lon="-8.3542070">
        <ele>273.2</ele>
        <time>2020-04-17T18:49:04Z</time>
      </trkpt>
      <trkpt lat="42.9150530" lon="-8.3546200">
        <ele>270.9</ele>
        <time>2020-04-17T18:49:06Z</time>
      </trkpt>
      <trkpt lat="42.9149120" lon="-8.3549970">
        <ele>268.8</ele>
        <time>2020-04-17T18:49:08Z</time>
      </trkpt>
      <trkpt lat="42.9147940" lon="-8.3553120">
        <ele>267.0</ele>
        <time>2020-04-17T18:49:10Z</time>
      </trkpt>
      <trkpt lat="42.9146590" lon="-8.3556600">
        <ele>265.3</ele>
        <time>2020-04-17T18:49:12Z</time>
      </trkpt>
      <trkpt lat="42.9144910" lon="-8.3560320">
        <ele>263.6</ele>
        <time>2020-04-17T18:49:14Z</time>
      </trkpt>
      <trkpt lat="42.9143020" lon="-8.3563100">
        <ele>262.8</ele>
        <time>2020-04-17T18:49:16Z</time>
      </trkpt>
      <trkpt lat="42.9140920" lon="-8.3565650">
        <ele>261.9</ele>
        <time>2020-04-17T18:49:18Z</time>
      </trkpt>
      <trkpt lat="42.9139330" lon="-8.3567230">
        <ele>261.3</ele>
        <time>2020-04-17T18:49:20Z</time>
      </trkpt>
      <trkpt lat="42.9136630" lon="-8.3569430">
        <ele>260.7</ele>
        <time>2020-04-17T18:49:22Z</time>
      </trkpt>
      <trkpt lat="42.9134990" lon="-8.3570230">
        <ele>260.6</ele>
        <time>2020-04-17T18:49:24Z</time>
      </trkpt>
      <trkpt lat="42.9132060" lon="-8.3571620">
        <ele>260.4</ele>
        <time>2020-04-17T18:49:26Z</time>
      </trkpt>
      <trkpt lat="42.9130510" lon="-8.3572180">
        <ele>260.4</ele>
        <time>2020-04-17T18:49:28Z</time>
      </trkpt>
      <trkpt lat="42.9129020" lon="-8.3572720">
        <ele>260.5</ele>
        <time>2020-04-17T18:49:30Z</time>
      </trkpt>
      <trkpt lat="42.9126080" lon="-8.3573780">
        <ele>260.8</ele>
        <time>2020-04-17T18:49:32Z</time>
      </trkpt>
      <trkpt lat="42.9124670" lon="-8.3574250">
        <ele>261.2</ele>
        <time>2020-04-17T18:49:34Z</time>
      </trkpt>
      <trkpt lat="42.9122250" lon="-8.3575060">
        <ele>261.8</ele>
        <time>2020-04-17T18:49:36Z</time>
      </trkpt>
      <trkpt lat="42.9121000" lon="-8.3575500">
        <ele>262.1</ele>
        <time>2020-04-17T18:49:38Z</time>
      </trkpt>
      <trkpt lat="42.9119860" lon="-8.3575910">
        <ele>262.4</ele>
        <time>2020-04-17T18:49:40Z</time>
      </trkpt>
      <trkpt lat="42.9118820" lon="-8.3576280">
        <ele>262.7</ele>
        <time>2020-04-17T18:49:42Z</time>
      </trkpt>
      <trkpt lat="42.9117870" lon="-8.3576610">
        <ele>263.0</ele>
        <time>2020-04-17T18:49:44Z</time>
      </trkpt>
      <trkpt lat="42.9115170" lon="-8.3577570">
        <ele>263.8</ele>
        <time>2020-04-17T18:49:46Z</time>
      </trkpt>
      <trkpt lat="42.9114370" lon="-8.3577860">
        <ele>264.0</ele>
        <time>2020-04-17T18:49:48Z</time>
      </trkpt>
      <trkpt lat="42.9112800" lon="-8.3578440">
        <ele>264.2</ele>
        <time>2020-04-17T18:49:50Z</time>
      </trkpt>
      <trkpt lat="42.9112110" lon="-8.3578690">
        <ele>264.2</ele>
        <time>2020-04-17T18:49:52Z</time>
      </trkpt>
      <trkpt lat="42.9111470" lon="-8.3578930">
        <ele>264.3</ele>
        <time>2020-04-17T18:49:54Z</time>
      </trkpt>
      <trkpt lat="42.9110870" lon="-8.3579140">
        <ele>264.3</ele>
        <time>2020-04-17T18:49:56Z</time>
      </trkpt>
      <trkpt lat="42.9109460" lon="-8.3579660">
        <ele>264.6</ele>
        <time>2020-04-17T18:49:58Z</time>
      </trkpt>
      <trkpt lat="42.9108920" lon="-8.3579870">
        <ele>264.7</ele>
        <time>2020-04-17T18:50:00Z</time>
      </trkpt>
      <trkpt lat="42.9107930" lon="-8.3580250">
        <ele>264.9</ele>
        <time>2020-04-17T18:50:02Z</time>
      </trkpt>
      <trkpt lat="42.9107320" lon="-8.3580490">
        <ele>265.0</ele>
        <time>2020-04-17T18:50:04Z</time>
      </trkpt>
      <trkpt lat="42.9106630" lon="-8.3580760">
        <ele>265.1</ele>
        <time>2020-04-17T18:50:06Z</time>
      </trkpt>
      <trkpt lat="42.9105880" lon="-8.3581050">
        <ele>265.2</ele>
        <time>2020-04-17T18:50:08Z</time>
      </trkpt>
      <trkpt lat="42.9105110" lon="-8.3581350">
        <ele>265.2</ele>
        <time>2020-04-17T18:50:10Z</time>
      </trkpt>
      <trkpt lat="42.9103190" lon="-8.3582070">
        <ele>265.5</ele>
        <time>2020-04-17T18:50:12Z</time>
      </trkpt>
      <trkpt lat="42.9102000" lon="-8.3582450">
        <ele>265.6</ele>
        <time>2020-04-17T18:50:14Z</time>
      </trkpt>
      <trkpt lat="42.9101160" lon="-8.3582710">
        <ele>265.8</ele>
        <time>2020-04-17T18:50:16Z</time>
      </trkpt>
      <trkpt lat="42.9100300" lon="-8.3582970">
        <ele>266.0</ele>
        <time>2020-04-17T18:50:18Z</time>
      </trkpt>
      <trkpt lat="42.9099420" lon="-8.3583240">
        <ele>266.1</ele>
        <time>2020-04-17T18:50:20Z</time>
      </trkpt>
      <trkpt lat="42.9097330" lon="-8.3583870">
        <ele>266.5</ele>
        <time>2020-04-17T18:50:22Z</time>
      </trkpt>
      <trkpt lat="42.9096560" lon="-8.3584110">
        <ele>266.6</ele>
        <time>2020-04-17T18:50:24Z</time>
      </trkpt>
      <trkpt lat="42.9095870" lon="-8.3584330">
        <ele>266.7</ele>
        <time>2020-04-17T18:50:26Z</time>
      </trkpt>
      <trkpt lat="42.9094290" lon="-8.3584810">
        <ele>267.0</ele>
        <time>2020-04-17T18:50:28Z</time>
      </trkpt>
      <trkpt lat="42.9093700" lon="-8.3584980">
        <ele>267.1</ele>
        <time>2020-04-17T18:50:30Z</time>
      </trkpt>
      <trkpt lat="42.9092830" lon="-8.3585230">
        <ele>267.2</ele>
        <time>2020-04-17T18:50:32Z</time>
      </trkpt>
      <trkpt lat="42.9092160" lon="-8.3585430">
        <ele>267.4</ele>
        <time>2020-04-17T18:50:34Z</time>
      </trkpt>
      <trkpt lat="42.9091500" lon="-8.3585620">
        <ele>267.6</ele>
        <time>2020-04-17T18:50:36Z</time>
      </trkpt>
      <trkpt lat="42.9091060" lon="-8.3585750">
        <ele>267.8</ele>
        <time>2020-04-17T18:50:38Z</time>
      </trkpt>
      <trkpt lat="42.9090630" lon="-8.3585880">
        <ele>268.0</ele>
        <time>2020-04-17T18:50:40Z</time>
      </trkpt>
      <trkpt lat="42.9089740" lon="-8.3586140">
        <ele>268.5</ele>
        <time>2020-04-17T18:50:42Z</time>
      </trkpt>
      <trkpt lat="42.9089330" lon="-8.3586260">
        <ele>268.7</ele>
        <time>2020-04-17T18:50:44Z</time>
      </trkpt>
      <trkpt lat="42.9088940" lon="-8.3586380">
        <ele>268.9</ele>
        <time>2020-04-17T18:50:46Z</time>
      </trkpt>
      <trkpt lat="42.9088540" lon="-8.3586490">
        <ele>269.1</ele>
        <time>2020-04-17T18:50:48Z</time>
      </trkpt>
      <trkpt lat="42.9088150" lon="-8.3586600">
        <ele>269.4</ele>
        <time>2020-04-17T18:50:50Z</time>
      </trkpt>
      <trkpt lat="42.9087750" lon="-8.3586720">
        <ele>269.6</ele>
        <time>2020-04-17T18:50:52Z</time>
      </trkpt>
      <trkpt lat="42.9087320" lon="-8.3586850">
        <ele>269.8</ele>
        <time>2020-04-17T18:50:54Z</time>
      </trkpt>
      <trkpt lat="42.9085690" lon="-8.3587320">
        <ele>270.7</ele>
        <time>2020-04-17T18:50:56Z</time>
      </trkpt>
      <trkpt lat="42.9085100" lon="-8.3587490">
        <ele>271.0</ele>
        <time>2020-04-17T18:50:58Z</time>
      </trkpt>
      <trkpt lat="42.9084460" lon="-8.3587680">
        <ele>271.4</ele>
        <time>2020-04-17T18:51:00Z</time>
      </trkpt>
      <trkpt lat="42.9083790" lon="-8.3587880">
        <ele>271.8</ele>
        <time>2020-04-17T18:51:02Z</time>
      </trkpt>
      <trkpt lat="42.9083120" lon="-8.3588070">
        <ele>272.2</ele>
        <time>2020-04-17T18:51:04Z</time>
      </trkpt>
      <trkpt lat="42.9082450" lon="-8.3588270">
        <ele>272.6</ele>
        <time>2020-04-17T18:51:06Z</time>
      </trkpt>
      <trkpt lat="42.9081780" lon="-8.3588470">
        <ele>273.0</ele>
        <time>2020-04-17T18:51:08Z</time>
      </trkpt>
      <trkpt lat="42.9079520" lon="-8.3589140">
        <ele>274.2</ele>
        <time>2020-04-17T18:51:10Z</time>
      </trkpt>
      <trkpt lat="42.9078850" lon="-8.3589370">
        <ele>274.6</ele>
        <time>2020-04-17T18:51:12Z</time>
      </trkpt>
      <trkpt lat="42.9078180" lon="-8.3589610">
        <ele>274.9</ele>
        <time>2020-04-17T18:51:14Z</time>
      </trkpt>
      <trkpt lat="42.9076830" lon="-8.3590100">
        <ele>275.6</ele>
        <time>2020-04-17T18:51:16Z</time>
      </trkpt>
      <trkpt lat="42.9076170" lon="-8.3590370">
        <ele>275.9</ele>
        <time>2020-04-17T18:51:18Z</time>
      </trkpt>
      <trkpt lat="42.9075520" lon="-8.3590630">
        <ele>276.2</ele>
        <time>2020-04-17T18:51:20Z</time>
      </trkpt>
      <trkpt lat="42.9074120" lon="-8.3591240">
        <ele>276.8</ele>
        <time>2020-04-17T18:51:22Z</time>
      </trkpt>
      <trkpt lat="42.9073480" lon="-8.3591600">
        <ele>277.0</ele>
        <time>2020-04-17T18:51:24Z</time>
      </trkpt>
      <trkpt lat="42.9072850" lon="-8.3591950">
        <ele>277.2</ele>
        <time>2020-04-17T18:51:26Z</time>
      </trkpt>
      <trkpt lat="42.9071530" lon="-8.3592720">
        <ele>277.7</ele>
        <time>2020-04-17T18:51:28Z</time>
      </trkpt>
      <trkpt lat="42.9070900" lon="-8.3593170">
        <ele>277.8</ele>
        <time>2020-04-17T18:51:30Z</time>
      </trkpt>
      <trkpt lat="42.9070230" lon="-8.3593640">
        <ele>278.1</ele>
        <time>2020-04-17T18:51:32Z</time>
      </trkpt>
      <trkpt lat="42.9068770" lon="-8.3594690">
        <ele>278.6</ele>
        <time>2020-04-17T18:51:34Z</time>
      </trkpt>
      <trkpt lat="42.9068130" lon="-8.3595270">
        <ele>278.8</ele>
        <time>2020-04-17T18:51:36Z</time>
      </trkpt>
      <trkpt lat="42.9067480" lon="-8.3595860">
        <ele>279.0</ele>
        <time>2020-04-17T18:51:38Z</time>
      </trkpt>
      <trkpt lat="42.9066840" lon="-8.3596440">
        <ele>279.3</ele>
        <time>2020-04-17T18:51:40Z</time>
      </trkpt>
      <trkpt lat="42.9065290" lon="-8.3597850">
        <ele>279.9</ele>
        <time>2020-04-17T18:51:42Z</time>
      </trkpt>
      <trkpt lat="42.9064380" lon="-8.3598620">
        <ele>280.2</ele>
        <time>2020-04-17T18:51:44Z</time>
      </trkpt>
      <trkpt lat="42.9063530" lon="-8.3599360">
        <ele>280.5</ele>
        <time>2020-04-17T18:51:46Z</time>
      </trkpt>
      <trkpt lat="42.9062850" lon="-8.3600010">
        <ele>280.7</ele>
        <time>2020-04-17T18:51:48Z</time>
      </trkpt>
      <trkpt lat="42.9062140" lon="-8.3600690">
        <ele>281.0</ele>
        <time>2020-04-17T18:51:50Z</time>
      </trkpt>
      <trkpt lat="42.9061400" lon="-8.3601400">
        <ele>281.2</ele>
        <time>2020-04-17T18:51:52Z</time>
      </trkpt>
      <trkpt lat="42.9059730" lon="-8.3603080">
        <ele>281.7</ele>
        <time>2020-04-17T18:51:54Z</time>
      </trkpt>
      <trkpt lat="42.9059000" lon="-8.3603870">
        <ele>281.8</ele>
        <time>2020-04-17T18:51:56Z</time>
      </trkpt>
      <trkpt lat="42.9057740" lon="-8.3605310">
        <ele>282.0</ele>
        <time>2020-04-17T18:51:58Z</time>
      </trkpt>
      <trkpt lat="42.9057020" lon="-8.3606190">
        <ele>282.1</ele>
        <time>2020-04-17T18:52:00Z</time>
      </trkpt>
      <trkpt lat="42.9055770" lon="-8.3607800">
        <ele>282.4</ele>
        <time>2020-04-17T18:52:02Z</time>
      </trkpt>
      <trkpt lat="42.9055110" lon="-8.3608790">
        <ele>282.7</ele>
        <time>2020-04-17T18:52:04Z</time>
      </trkpt>
      <trkpt lat="42.9053980" lon="-8.3610500">
        <ele>283.1</ele>
        <time>2020-04-17T18:52:06Z</time>
      </trkpt>
      <trkpt lat="42.9053290" lon="-8.3611540">
        <ele>283.4</ele>
        <time>2020-04-17T18:52:08Z</time>
      </trkpt>
      <trkpt lat="42.9052010" lon="-8.3613510">
        <ele>283.7</ele>
        <time>2020-04-17T18:52:10Z</time>
      </trkpt>
      <trkpt lat="42.9051360" lon="-8.3614620">
        <ele>283.9</ele>
        <time>2020-04-17T18:52:12Z</time>
      </trkpt>
      <trkpt lat="42.9050240" lon="-8.3616520">
        <ele>284.3</ele>
        <time>2020-04-17T18:52:14Z</time>
      </trkpt>
      <trkpt lat="42.9049490" lon="-8.3617830">
        <ele>284.4</ele>
        <time>2020-04-17T18:52:16Z</time>
      </trkpt>
      <trkpt lat="42.9048800" lon="-8.3619050">
        <ele>284.5</ele>
        <time>2020-04-17T18:52:18Z</time>
      </trkpt>
      <trkpt lat="42.9048080" lon="-8.3620320">
        <ele>284.8</ele>
        <time>2020-04-17T18:52:20Z</time>
      </trkpt>
      <trkpt lat="42.9046490" lon="-8.3623170">
        <ele>285.2</ele>
        <time>2020-04-17T18:52:22Z</time>
      </trkpt>
      <trkpt lat="42.9045510" lon="-8.3625080">
        <ele>285.5</ele>
        <time>2020-04-17T18:52:24Z</time>
      </trkpt>
      <trkpt lat="42.9044520" lon="-8.3627240">
        <ele>285.3</ele>
        <time>2020-04-17T18:52:26Z</time>
      </trkpt>
      <trkpt lat="42.9043840" lon="-8.3629300">
        <ele>285.0</ele>
        <time>2020-04-17T18:52:28Z</time>
      </trkpt>
      <trkpt lat="42.9043410" lon="-8.3631660">
        <ele>284.7</ele>
        <time>2020-04-17T18:52:30Z</time>
      </trkpt>
      <trkpt lat="42.9042980" lon="-8.3634760">
        <ele>284.1</ele>
        <time>2020-04-17T18:52:32Z</time>
      </trkpt>
      <trkpt lat="42.9042700" lon="-8.3636720">
        <ele>283.5</ele>
        <time>2020-04-17T18:52:34Z</time>
      </trkpt>
      <trkpt lat="42.9042420" lon="-8.3638730">
        <ele>282.9</ele>
        <time>2020-04-17T18:52:36Z</time>
      </trkpt>
      <trkpt lat="42.9041910" lon="-8.3642480">
        <ele>281.8</ele>
        <time>2020-04-17T18:52:38Z</time>
      </trkpt>
      <trkpt lat="42.9041660" lon="-8.3644580">
        <ele>281.0</ele>
        <time>2020-04-17T18:52:40Z</time>
      </trkpt>
      <trkpt lat="42.9041410" lon="-8.3646700">
        <ele>280.3</ele>
        <time>2020-04-17T18:52:42Z</time>
      </trkpt>
      <trkpt lat="42.9040850" lon="-8.3651320">
        <ele>279.4</ele>
        <time>2020-04-17T18:52:44Z</time>
      </trkpt>
      <trkpt lat="42.9040480" lon="-8.3654490">
        <ele>279.2</ele>
        <time>2020-04-17T18:52:46Z</time>
      </trkpt>
      <trkpt lat="42.9040200" lon="-8.3656690">
        <ele>278.7</ele>
        <time>2020-04-17T18:52:48Z</time>
      </trkpt>
      <trkpt lat="42.9039930" lon="-8.3658930">
        <ele>278.1</ele>
        <time>2020-04-17T18:52:50Z</time>
      </trkpt>
      <trkpt lat="42.9039650" lon="-8.3661190">
        <ele>277.6</ele>
        <time>2020-04-17T18:52:52Z</time>
      </trkpt>
      <trkpt lat="42.9039030" lon="-8.3666220">
        <ele>276.6</ele>
        <time>2020-04-17T18:52:55Z</time>
      </trkpt>
      <trkpt lat="42.9038750" lon="-8.3668510">
        <ele>276.2</ele>
        <time>2020-04-17T18:52:57Z</time>
      </trkpt>
      <trkpt lat="42.9038470" lon="-8.3670810">
        <ele>275.8</ele>
        <time>2020-04-17T18:52:59Z</time>
      </trkpt>
      <trkpt lat="42.9037830" lon="-8.3676220">
        <ele>275.5</ele>
        <time>2020-04-17T18:53:01Z</time>
      </trkpt>
      <trkpt lat="42.9037570" lon="-8.3678500">
        <ele>275.4</ele>
        <time>2020-04-17T18:53:03Z</time>
      </trkpt>
      <trkpt lat="42.9037310" lon="-8.3680730">
        <ele>275.2</ele>
        <time>2020-04-17T18:53:05Z</time>
      </trkpt>
      <trkpt lat="42.9036800" lon="-8.3685190">
        <ele>274.7</ele>
        <time>2020-04-17T18:53:07Z</time>
      </trkpt>
      <trkpt lat="42.9036520" lon="-8.3688310">
        <ele>274.2</ele>
        <time>2020-04-17T18:53:09Z</time>
      </trkpt>
      <trkpt lat="42.9036470" lon="-8.3691650">
        <ele>273.4</ele>
        <time>2020-04-17T18:53:11Z</time>
      </trkpt>
      <trkpt lat="42.9036830" lon="-8.3694770">
        <ele>272.8</ele>
        <time>2020-04-17T18:53:13Z</time>
      </trkpt>
      <trkpt lat="42.9037370" lon="-8.3697820">
        <ele>272.4</ele>
        <time>2020-04-17T18:53:15Z</time>
      </trkpt>
      <trkpt lat="42.9038070" lon="-8.3701870">
        <ele>271.0</ele>
        <time>2020-04-17T18:53:17Z</time>
      </trkpt>
      <trkpt lat="42.9038410" lon="-8.3705360">
        <ele>269.9</ele>
        <time>2020-04-17T18:53:19Z</time>
      </trkpt>
      <trkpt lat="42.9038320" lon="-8.3708400">
        <ele>269.5</ele>
        <time>2020-04-17T18:53:21Z</time>
      </trkpt>
      <trkpt lat="42.9037720" lon="-8.3711430">
        <ele>268.9</ele>
        <time>2020-04-17T18:53:23Z</time>
      </trkpt>
      <trkpt lat="42.9036730" lon="-8.3714530">
        <ele>268.3</ele>
        <time>2020-04-17T18:53:25Z</time>
      </trkpt>
      <trkpt lat="42.9035940" lon="-8.3716440">
        <ele>268.1</ele>
        <time>2020-04-17T18:53:27Z</time>
      </trkpt>
      <trkpt lat="42.9034660" lon="-8.3719410">
        <ele>268.0</ele>
        <time>2020-04-17T18:53:29Z</time>
      </trkpt>
      <trkpt lat="42.9033910" lon="-8.3721050">
        <ele>268.1</ele>
        <time>2020-04-17T18:53:31Z</time>
      </trkpt>
      <trkpt lat="42.9033210" lon="-8.3722610">
        <ele>268.3</ele>
        <time>2020-04-17T18:53:33Z</time>
      </trkpt>
      <trkpt lat="42.9032550" lon="-8.3724080">
        <ele>268.5</ele>
        <time>2020-04-17T18:53:35Z</time>
      </trkpt>
      <trkpt lat="42.9030920" lon="-8.3727670">
        <ele>269.4</ele>
        <time>2020-04-17T18:53:37Z</time>
      </trkpt>
      <trkpt lat="42.9030310" lon="-8.3729020">
        <ele>269.8</ele>
        <time>2020-04-17T18:53:39Z</time>
      </trkpt>
      <trkpt lat="42.9029730" lon="-8.3730300">
        <ele>270.2</ele>
        <time>2020-04-17T18:53:41Z</time>
      </trkpt>
      <trkpt lat="42.9029160" lon="-8.3731540">
        <ele>270.6</ele>
        <time>2020-04-17T18:53:43Z</time>
      </trkpt>
      <trkpt lat="42.9027630" lon="-8.3734920">
        <ele>271.3</ele>
        <time>2020-04-17T18:53:45Z</time>
      </trkpt>
      <trkpt lat="42.9027110" lon="-8.3736080">
        <ele>271.5</ele>
        <time>2020-04-17T18:53:47Z</time>
      </trkpt>
      <trkpt lat="42.9026600" lon="-8.3737200">
        <ele>271.6</ele>
        <time>2020-04-17T18:53:49Z</time>
      </trkpt>
      <trkpt lat="42.9026110" lon="-8.3738280">
        <ele>271.7</ele>
        <time>2020-04-17T18:53:51Z</time>
      </trkpt>
      <trkpt lat="42.9025620" lon="-8.3739360">
        <ele>271.9</ele>
        <time>2020-04-17T18:53:53Z</time>
      </trkpt>
      <trkpt lat="42.9025150" lon="-8.3740400">
        <ele>272.0</ele>
        <time>2020-04-17T18:53:55Z</time>
      </trkpt>
      <trkpt lat="42.9023690" lon="-8.3743630">
        <ele>272.3</ele>
        <time>2020-04-17T18:53:57Z</time>
      </trkpt>
      <trkpt lat="42.9023220" lon="-8.3744710">
        <ele>272.3</ele>
        <time>2020-04-17T18:53:59Z</time>
      </trkpt>
      <trkpt lat="42.9022730" lon="-8.3745820">
        <ele>272.3</ele>
        <time>2020-04-17T18:54:01Z</time>
      </trkpt>
      <trkpt lat="42.9022230" lon="-8.3746950">
        <ele>272.3</ele>
        <time>2020-04-17T18:54:03Z</time>
      </trkpt>
      <trkpt lat="42.9021720" lon="-8.3748110">
        <ele>272.4</ele>
        <time>2020-04-17T18:54:05Z</time>
      </trkpt>
      <trkpt lat="42.9021210" lon="-8.3749270">
        <ele>272.5</ele>
        <time>2020-04-17T18:54:07Z</time>
      </trkpt>
      <trkpt lat="42.9019650" lon="-8.3752830">
        <ele>273.0</ele>
        <time>2020-04-17T18:54:09Z</time>
      </trkpt>
      <trkpt lat="42.9019120" lon="-8.3754040">
        <ele>273.0</ele>
        <time>2020-04-17T18:54:11Z</time>
      </trkpt>
      <trkpt lat="42.9018580" lon="-8.3755250">
        <ele>273.1</ele>
        <time>2020-04-17T18:54:13Z</time>
      </trkpt>
      <trkpt lat="42.9018040" lon="-8.3756480">
        <ele>273.1</ele>
        <time>2020-04-17T18:54:15Z</time>
      </trkpt>
      <trkpt lat="42.9017500" lon="-8.3757710">
        <ele>273.1</ele>
        <time>2020-04-17T18:54:17Z</time>
      </trkpt>
      <trkpt lat="42.9015910" lon="-8.3761320">
        <ele>273.2</ele>
        <time>2020-04-17T18:54:19Z</time>
      </trkpt>
      <trkpt lat="42.9015340" lon="-8.3762620">
        <ele>273.3</ele>
        <time>2020-04-17T18:54:21Z</time>
      </trkpt>
      <trkpt lat="42.9014750" lon="-8.3763960">
        <ele>273.4</ele>
        <time>2020-04-17T18:54:23Z</time>
      </trkpt>
      <trkpt lat="42.9014150" lon="-8.3765340">
        <ele>273.4</ele>
        <time>2020-04-17T18:54:25Z</time>
      </trkpt>
      <trkpt lat="42.9013520" lon="-8.3766760">
        <ele>273.4</ele>
        <time>2020-04-17T18:54:27Z</time>
      </trkpt>
      <trkpt lat="42.9011850" lon="-8.3770570">
        <ele>273.3</ele>
        <time>2020-04-17T18:54:29Z</time>
      </trkpt>
      <trkpt lat="42.9011200" lon="-8.3772040">
        <ele>273.3</ele>
        <time>2020-04-17T18:54:31Z</time>
      </trkpt>
      <trkpt lat="42.9010550" lon="-8.3773530">
        <ele>273.2</ele>
        <time>2020-04-17T18:54:33Z</time>
      </trkpt>
      <trkpt lat="42.9009880" lon="-8.3775050">
        <ele>273.2</ele>
        <time>2020-04-17T18:54:35Z</time>
      </trkpt>
      <trkpt lat="42.9008170" lon="-8.3778950">
        <ele>273.2</ele>
        <time>2020-04-17T18:54:37Z</time>
      </trkpt>
      <trkpt lat="42.9007520" lon="-8.3780420">
        <ele>273.2</ele>
        <time>2020-04-17T18:54:39Z</time>
      </trkpt>
      <trkpt lat="42.9006890" lon="-8.3781850">
        <ele>273.2</ele>
        <time>2020-04-17T18:54:41Z</time>
      </trkpt>
      <trkpt lat="42.9006290" lon="-8.3783220">
        <ele>273.2</ele>
        <time>2020-04-17T18:54:43Z</time>
      </trkpt>
      <trkpt lat="42.9005700" lon="-8.3784550">
        <ele>273.2</ele>
        <time>2020-04-17T18:54:45Z</time>
      </trkpt>
      <trkpt lat="42.9004020" lon="-8.3788380">
        <ele>273.2</ele>
        <time>2020-04-17T18:54:47Z</time>
      </trkpt>
      <trkpt lat="42.9003480" lon="-8.3789620">
        <ele>273.2</ele>
        <time>2020-04-17T18:54:49Z</time>
      </trkpt>
      <trkpt lat="42.9002530" lon="-8.3791770">
        <ele>273.2</ele>
        <time>2020-04-17T18:54:51Z</time>
      </trkpt>
      <trkpt lat="42.9001970" lon="-8.3793040">
        <ele>273.1</ele>
        <time>2020-04-17T18:54:53Z</time>
      </trkpt>
      <trkpt lat="42.9001380" lon="-8.3794380">
        <ele>273.1</ele>
        <time>2020-04-17T18:54:55Z</time>
      </trkpt>
      <trkpt lat="42.9000050" lon="-8.3797420">
        <ele>273.1</ele>
        <time>2020-04-17T18:54:57Z</time>
      </trkpt>
      <trkpt lat="42.8999570" lon="-8.3798990">
        <ele>273.1</ele>
        <time>2020-04-17T18:54:59Z</time>
      </trkpt>
      <trkpt lat="42.8999080" lon="-8.3800620">
        <ele>273.1</ele>
        <time>2020-04-17T18:55:01Z</time>
      </trkpt>
      <trkpt lat="42.8998220" lon="-8.3803930">
        <ele>273.1</ele>
        <time>2020-04-17T18:55:03Z</time>
      </trkpt>
      <trkpt lat="42.8998040" lon="-8.3805740">
        <ele>273.1</ele>
        <time>2020-04-17T18:55:05Z</time>
      </trkpt>
      <trkpt lat="42.8997860" lon="-8.3807570">
        <ele>273.0</ele>
        <time>2020-04-17T18:55:07Z</time>
      </trkpt>
      <trkpt lat="42.8997730" lon="-8.3811080">
        <ele>273.0</ele>
        <time>2020-04-17T18:55:09Z</time>
      </trkpt>
      <trkpt lat="42.8997950" lon="-8.3813760">
        <ele>272.9</ele>
        <time>2020-04-17T18:55:11Z</time>
      </trkpt>
      <trkpt lat="42.8998390" lon="-8.3816610">
        <ele>272.4</ele>
        <time>2020-04-17T18:55:13Z</time>
      </trkpt>
      <trkpt lat="42.8998870" lon="-8.3818450">
        <ele>272.0</ele>
        <time>2020-04-17T18:55:15Z</time>
      </trkpt>
      <trkpt lat="42.8999370" lon="-8.3820350">
        <ele>271.7</ele>
        <time>2020-04-17T18:55:17Z</time>
      </trkpt>
      <trkpt lat="42.8999890" lon="-8.3822290">
        <ele>271.3</ele>
        <time>2020-04-17T18:55:19Z</time>
      </trkpt>
      <trkpt lat="42.9001060" lon="-8.3826660">
        <ele>270.3</ele>
        <time>2020-04-17T18:55:21Z</time>
      </trkpt>
      <trkpt lat="42.9001630" lon="-8.3828670">
        <ele>269.8</ele>
        <time>2020-04-17T18:55:23Z</time>
      </trkpt>
      <trkpt lat="42.9002210" lon="-8.3830710">
        <ele>269.3</ele>
        <time>2020-04-17T18:55:25Z</time>
      </trkpt>
      <trkpt lat="42.9002810" lon="-8.3832790">
        <ele>268.8</ele>
        <time>2020-04-17T18:55:27Z</time>
      </trkpt>
      <trkpt lat="42.9004240" lon="-8.3837850">
        <ele>267.6</ele>
        <time>2020-04-17T18:55:29Z</time>
      </trkpt>
      <trkpt lat="42.9004810" lon="-8.3839860">
        <ele>267.2</ele>
        <time>2020-04-17T18:55:31Z</time>
      </trkpt>
      <trkpt lat="42.9005360" lon="-8.3841800">
        <ele>266.9</ele>
        <time>2020-04-17T18:55:33Z</time>
      </trkpt>
      <trkpt lat="42.9005900" lon="-8.3843690">
        <ele>266.7</ele>
        <time>2020-04-17T18:55:35Z</time>
      </trkpt>
      <trkpt lat="42.9007280" lon="-8.3848560">
        <ele>266.3</ele>
        <time>2020-04-17T18:55:37Z</time>
      </trkpt>
      <trkpt lat="42.9007810" lon="-8.3850410">
        <ele>266.2</ele>
        <time>2020-04-17T18:55:39Z</time>
      </trkpt>
      <trkpt lat="42.9008330" lon="-8.3852250">
        <ele>266.1</ele>
        <time>2020-04-17T18:55:41Z</time>
      </trkpt>
      <trkpt lat="42.9008860" lon="-8.3854100">
        <ele>266.1</ele>
        <time>2020-04-17T18:55:43Z</time>
      </trkpt>
      <trkpt lat="42.9010160" lon="-8.3858680">
        <ele>266.0</ele>
        <time>2020-04-17T18:55:45Z</time>
      </trkpt>
      <trkpt lat="42.9010750" lon="-8.3860680">
        <ele>266.0</ele>
        <time>2020-04-17T18:55:47Z</time>
      </trkpt>
      <trkpt lat="42.9011260" lon="-8.3862410">
        <ele>266.0</ele>
        <time>2020-04-17T18:55:49Z</time>
      </trkpt>
      <trkpt lat="42.9011760" lon="-8.3864120">
        <ele>266.1</ele>
        <time>2020-04-17T18:55:51Z</time>
      </trkpt>
      <trkpt lat="42.9012260" lon="-8.3865820">
        <ele>266.1</ele>
        <time>2020-04-17T18:55:53Z</time>
      </trkpt>
      <trkpt lat="42.9013640" lon="-8.3870490">
        <ele>266.1</ele>
        <time>2020-04-17T18:55:55Z</time>
      </trkpt>
      <trkpt lat="42.9014140" lon="-8.3872180">
        <ele>266.1</ele>
        <time>2020-04-17T18:55:57Z</time>
      </trkpt>
      <trkpt lat="42.9014640" lon="-8.3873890">
        <ele>266.1</ele>
        <time>2020-04-17T18:55:59Z</time>
      </trkpt>
      <trkpt lat="42.9015150" lon="-8.3875620">
        <ele>266.0</ele>
        <time>2020-04-17T18:56:01Z</time>
      </trkpt>
      <trkpt lat="42.9015660" lon="-8.3877340">
        <ele>266.0</ele>
        <time>2020-04-17T18:56:03Z</time>
      </trkpt>
      <trkpt lat="42.9017070" lon="-8.3882030">
        <ele>265.7</ele>
        <time>2020-04-17T18:56:05Z</time>
      </trkpt>
      <trkpt lat="42.9017630" lon="-8.3883740">
        <ele>265.4</ele>
        <time>2020-04-17T18:56:07Z</time>
      </trkpt>
      <trkpt lat="42.9018700" lon="-8.3887000">
        <ele>264.7</ele>
        <time>2020-04-17T18:56:09Z</time>
      </trkpt>
      <trkpt lat="42.9019450" lon="-8.3888630">
        <ele>264.2</ele>
        <time>2020-04-17T18:56:11Z</time>
      </trkpt>
      <trkpt lat="42.9020220" lon="-8.3890310">
        <ele>263.7</ele>
        <time>2020-04-17T18:56:13Z</time>
      </trkpt>
      <trkpt lat="42.9021770" lon="-8.3893470">
        <ele>262.9</ele>
        <time>2020-04-17T18:56:15Z</time>
      </trkpt>
      <trkpt lat="42.9022720" lon="-8.3895100">
        <ele>262.4</ele>
        <time>2020-04-17T18:56:17Z</time>
      </trkpt>
      <trkpt lat="42.9024500" lon="-8.3898040">
        <ele>261.3</ele>
        <time>2020-04-17T18:56:19Z</time>
      </trkpt>
      <trkpt lat="42.9025600" lon="-8.3899650">
        <ele>260.6</ele>
        <time>2020-04-17T18:56:21Z</time>
      </trkpt>
      <trkpt lat="42.9026750" lon="-8.3901320">
        <ele>259.9</ele>
        <time>2020-04-17T18:56:23Z</time>
      </trkpt>
      <trkpt lat="42.9029240" lon="-8.3904960">
        <ele>258.3</ele>
        <time>2020-04-17T18:56:25Z</time>
      </trkpt>
      <trkpt lat="42.9030440" lon="-8.3906700">
        <ele>257.5</ele>
        <time>2020-04-17T18:56:27Z</time>
      </trkpt>
      <trkpt lat="42.9031670" lon="-8.3908490">
        <ele>256.7</ele>
        <time>2020-04-17T18:56:29Z</time>
      </trkpt>
      <trkpt lat="42.9034240" lon="-8.3912240">
        <ele>255.1</ele>
        <time>2020-04-17T18:56:31Z</time>
      </trkpt>
      <trkpt lat="42.9035490" lon="-8.3914060">
        <ele>254.3</ele>
        <time>2020-04-17T18:56:33Z</time>
      </trkpt>
      <trkpt lat="42.9036740" lon="-8.3915890">
        <ele>253.5</ele>
        <time>2020-04-17T18:56:35Z</time>
      </trkpt>
      <trkpt lat="42.9039320" lon="-8.3919660">
        <ele>252.2</ele>
        <time>2020-04-17T18:56:37Z</time>
      </trkpt>
      <trkpt lat="42.9040560" lon="-8.3921510">
        <ele>251.7</ele>
        <time>2020-04-17T18:56:39Z</time>
      </trkpt>
      <trkpt lat="42.9042740" lon="-8.3924730">
        <ele>250.5</ele>
        <time>2020-04-17T18:56:41Z</time>
      </trkpt>
      <trkpt lat="42.9043940" lon="-8.3926500">
        <ele>250.0</ele>
        <time>2020-04-17T18:56:43Z</time>
      </trkpt>
      <trkpt lat="42.9046020" lon="-8.3929540">
        <ele>249.3</ele>
        <time>2020-04-17T18:56:45Z</time>
      </trkpt>
      <trkpt lat="42.9047180" lon="-8.3931120">
        <ele>248.9</ele>
        <time>2020-04-17T18:56:47Z</time>
      </trkpt>
      <trkpt lat="42.9048950" lon="-8.3933540">
        <ele>248.6</ele>
        <time>2020-04-17T18:56:49Z</time>
      </trkpt>
      <trkpt lat="42.9050780" lon="-8.3935410">
        <ele>248.4</ele>
        <time>2020-04-17T18:56:51Z</time>
      </trkpt>
      <trkpt lat="42.9052500" lon="-8.3936550">
        <ele>248.6</ele>
        <time>2020-04-17T18:56:53Z</time>
      </trkpt>
      <trkpt lat="42.9054450" lon="-8.3937390">
        <ele>249.3</ele>
        <time>2020-04-17T18:56:55Z</time>
      </trkpt>
      <trkpt lat="42.9056280" lon="-8.3937870">
        <ele>250.0</ele>
        <time>2020-04-17T18:56:57Z</time>
      </trkpt>
      <trkpt lat="42.9057930" lon="-8.3938260">
        <ele>250.8</ele>
        <time>2020-04-17T18:56:59Z</time>
      </trkpt>
      <trkpt lat="42.9059420" lon="-8.3938620">
        <ele>251.1</ele>
        <time>2020-04-17T18:57:01Z</time>
      </trkpt>
      <trkpt lat="42.9060450" lon="-8.3938900">
        <ele>251.5</ele>
        <time>2020-04-17T18:57:03Z</time>
      </trkpt>
      <trkpt lat="42.9061820" lon="-8.3939370">
        <ele>252.3</ele>
        <time>2020-04-17T18:57:05Z</time>
      </trkpt>
      <trkpt lat="42.9063180" lon="-8.3939980">
        <ele>253.2</ele>
        <time>2020-04-17T18:57:07Z</time>
      </trkpt>
      <trkpt lat="42.9063890" lon="-8.3940450">
        <ele>253.7</ele>
        <time>2020-04-17T18:57:09Z</time>
      </trkpt>
      <trkpt lat="42.9064530" lon="-8.3940870">
        <ele>254.1</ele>
        <time>2020-04-17T18:57:11Z</time>
      </trkpt>
      <trkpt lat="42.9065790" lon="-8.3941780">
        <ele>255.0</ele>
        <time>2020-04-17T18:57:13Z</time>
      </trkpt>
      <trkpt lat="42.9066310" lon="-8.3942250">
        <ele>255.3</ele>
        <time>2020-04-17T18:57:15Z</time>
      </trkpt>
      <trkpt lat="42.9066820" lon="-8.3942730">
        <ele>255.7</ele>
        <time>2020-04-17T18:57:17Z</time>
      </trkpt>
      <trkpt lat="42.9067970" lon="-8.3943830">
        <ele>256.5</ele>
        <time>2020-04-17T18:57:19Z</time>
      </trkpt>
      <trkpt lat="42.9068420" lon="-8.3944460">
        <ele>256.8</ele>
        <time>2020-04-17T18:57:21Z</time>
      </trkpt>
      <trkpt lat="42.9068870" lon="-8.3945080">
        <ele>257.2</ele>
        <time>2020-04-17T18:57:23Z</time>
      </trkpt>
      <trkpt lat="42.9069330" lon="-8.3945710">
        <ele>257.6</ele>
        <time>2020-04-17T18:57:25Z</time>
      </trkpt>
      <trkpt lat="42.9070230" lon="-8.3947220">
        <ele>258.5</ele>
        <time>2020-04-17T18:57:27Z</time>
      </trkpt>
      <trkpt lat="42.9070590" lon="-8.3948010">
        <ele>258.9</ele>
        <time>2020-04-17T18:57:29Z</time>
      </trkpt>
      <trkpt lat="42.9070960" lon="-8.3948820">
        <ele>259.3</ele>
        <time>2020-04-17T18:57:31Z</time>
      </trkpt>
      <trkpt lat="42.9071720" lon="-8.3950610">
        <ele>259.9</ele>
        <time>2020-04-17T18:57:33Z</time>
      </trkpt>
      <trkpt lat="42.9072030" lon="-8.3951490">
        <ele>260.1</ele>
        <time>2020-04-17T18:57:35Z</time>
      </trkpt>
      <trkpt lat="42.9072330" lon="-8.3952370">
        <ele>260.5</ele>
        <time>2020-04-17T18:57:37Z</time>
      </trkpt>
      <trkpt lat="42.9072640" lon="-8.3953250">
        <ele>260.8</ele>
        <time>2020-04-17T18:57:39Z</time>
      </trkpt>
      <trkpt lat="42.9072950" lon="-8.3954140">
        <ele>261.2</ele>
        <time>2020-04-17T18:57:41Z</time>
      </trkpt>
      <trkpt lat="42.9073260" lon="-8.3955030">
        <ele>261.6</ele>
        <time>2020-04-17T18:57:43Z</time>
      </trkpt>
      <trkpt lat="42.9073570" lon="-8.3955910">
        <ele>262.0</ele>
        <time>2020-04-17T18:57:45Z</time>
      </trkpt>
      <trkpt lat="42.9074640" lon="-8.3958990">
        <ele>263.2</ele>
        <time>2020-04-17T18:57:47Z</time>
      </trkpt>
      <trkpt lat="42.9074950" lon="-8.3959870">
        <ele>263.5</ele>
        <time>2020-04-17T18:57:49Z</time>
      </trkpt>
      <trkpt lat="42.9075260" lon="-8.3960760">
        <ele>263.9</ele>
        <time>2020-04-17T18:57:51Z</time>
      </trkpt>
      <trkpt lat="42.9075570" lon="-8.3961640">
        <ele>264.3</ele>
        <time>2020-04-17T18:57:53Z</time>
      </trkpt>
      <trkpt lat="42.9075880" lon="-8.3962530">
        <ele>264.7</ele>
        <time>2020-04-17T18:57:55Z</time>
      </trkpt>
      <trkpt lat="42.9076190" lon="-8.3963420">
        <ele>265.1</ele>
        <time>2020-04-17T18:57:57Z</time>
      </trkpt>
      <trkpt lat="42.9076500" lon="-8.3964300">
        <ele>265.5</ele>
        <time>2020-04-17T18:57:59Z</time>
      </trkpt>
      <trkpt lat="42.9077570" lon="-8.3967400">
        <ele>266.4</ele>
        <time>2020-04-17T18:58:01Z</time>
      </trkpt>
      <trkpt lat="42.9077870" lon="-8.3968300">
        <ele>266.6</ele>
        <time>2020-04-17T18:58:03Z</time>
      </trkpt>
      <trkpt lat="42.9078160" lon="-8.3969190">
        <ele>266.9</ele>
        <time>2020-04-17T18:58:05Z</time>
      </trkpt>
      <trkpt lat="42.9078460" lon="-8.3970090">
        <ele>267.3</ele>
        <time>2020-04-17T18:58:07Z</time>
      </trkpt>
      <trkpt lat="42.9078750" lon="-8.3970980">
        <ele>267.8</ele>
        <time>2020-04-17T18:58:09Z</time>
      </trkpt>
      <trkpt lat="42.9079050" lon="-8.3971870">
        <ele>268.2</ele>
        <time>2020-04-17T18:58:11Z</time>
      </trkpt>
      <trkpt lat="42.9079350" lon="-8.3972770">
        <ele>268.7</ele>
        <time>2020-04-17T18:58:13Z</time>
      </trkpt>
      <trkpt lat="42.9079640" lon="-8.3973660">
        <ele>269.2</ele>
        <time>2020-04-17T18:58:15Z</time>
      </trkpt>
      <trkpt lat="42.9079940" lon="-8.3974560">
        <ele>269.7</ele>
        <time>2020-04-17T18:58:17Z</time>
      </trkpt>
      <trkpt lat="42.9081210" lon="-8.3978370">
        <ele>271.8</ele>
        <time>2020-04-17T18:58:19Z</time>
      </trkpt>
      <trkpt lat="42.9081480" lon="-8.3979190">
        <ele>272.2</ele>
        <time>2020-04-17T18:58:21Z</time>
      </trkpt>
      <trkpt lat="42.9081730" lon="-8.3979960">
        <ele>272.7</ele>
        <time>2020-04-17T18:58:23Z</time>
      </trkpt>
      <trkpt lat="42.9081980" lon="-8.3980700">
        <ele>273.1</ele>
        <time>2020-04-17T18:58:25Z</time>
      </trkpt>
      <trkpt lat="42.9082210" lon="-8.3981420">
        <ele>273.4</ele>
        <time>2020-04-17T18:58:27Z</time>
      </trkpt>
      <trkpt lat="42.9082450" lon="-8.3982120">
        <ele>273.8</ele>
        <time>2020-04-17T18:58:29Z</time>
      </trkpt>
      <trkpt lat="42.9082670" lon="-8.3982810">
        <ele>274.2</ele>
        <time>2020-04-17T18:58:31Z</time>
      </trkpt>
      <trkpt lat="42.9083540" lon="-8.3985440">
        <ele>275.5</ele>
        <time>2020-04-17T18:58:33Z</time>
      </trkpt>
      <trkpt lat="42.9083750" lon="-8.3986140">
        <ele>275.8</ele>
        <time>2020-04-17T18:58:35Z</time>
      </trkpt>
      <trkpt lat="42.9083970" lon="-8.3986830">
        <ele>276.2</ele>
        <time>2020-04-17T18:58:37Z</time>
      </trkpt>
      <trkpt lat="42.9084180" lon="-8.3987510">
        <ele>276.5</ele>
        <time>2020-04-17T18:58:39Z</time>
      </trkpt>
      <trkpt lat="42.9084600" lon="-8.3989230">
        <ele>277.3</ele>
        <time>2020-04-17T18:58:41Z</time>
      </trkpt>
      <trkpt lat="42.9084700" lon="-8.3989930">
        <ele>277.6</ele>
        <time>2020-04-17T18:58:43Z</time>
      </trkpt>
      <trkpt lat="42.9084800" lon="-8.3990620">
        <ele>277.9</ele>
        <time>2020-04-17T18:58:45Z</time>
      </trkpt>
      <trkpt lat="42.9084900" lon="-8.3991320">
        <ele>278.2</ele>
        <time>2020-04-17T18:58:47Z</time>
      </trkpt>
      <trkpt lat="42.9085000" lon="-8.3992010">
        <ele>278.5</ele>
        <time>2020-04-17T18:58:49Z</time>
      </trkpt>
      <trkpt lat="42.9085210" lon="-8.3994000">
        <ele>279.3</ele>
        <time>2020-04-17T18:58:51Z</time>
      </trkpt>
      <trkpt lat="42.9085200" lon="-8.3994740">
        <ele>279.5</ele>
        <time>2020-04-17T18:58:53Z</time>
      </trkpt>
      <trkpt lat="42.9085200" lon="-8.3996120">
        <ele>279.8</ele>
        <time>2020-04-17T18:58:55Z</time>
      </trkpt>
      <trkpt lat="42.9085200" lon="-8.3996980">
        <ele>279.9</ele>
        <time>2020-04-17T18:58:57Z</time>
      </trkpt>
      <trkpt lat="42.9085200" lon="-8.3997850">
        <ele>280.0</ele>
        <time>2020-04-17T18:58:59Z</time>
      </trkpt>
      <trkpt lat="42.9085170" lon="-8.3999710">
        <ele>280.4</ele>
        <time>2020-04-17T18:59:01Z</time>
      </trkpt>
      <trkpt lat="42.9085100" lon="-8.4000580">
        <ele>280.5</ele>
        <time>2020-04-17T18:59:03Z</time>
      </trkpt>
      <trkpt lat="42.9085040" lon="-8.4001450">
        <ele>280.8</ele>
        <time>2020-04-17T18:59:05Z</time>
      </trkpt>
      <trkpt lat="42.9084970" lon="-8.4002320">
        <ele>281.0</ele>
        <time>2020-04-17T18:59:07Z</time>
      </trkpt>
      <trkpt lat="42.9084910" lon="-8.4003190">
        <ele>281.3</ele>
        <time>2020-04-17T18:59:09Z</time>
      </trkpt>
      <trkpt lat="42.9084840" lon="-8.4004060">
        <ele>281.6</ele>
        <time>2020-04-17T18:59:11Z</time>
      </trkpt>
      <trkpt lat="42.9084780" lon="-8.4004940">
        <ele>281.9</ele>
        <time>2020-04-17T18:59:13Z</time>
      </trkpt>
      <trkpt lat="42.9084710" lon="-8.4005790">
        <ele>282.2</ele>
        <time>2020-04-17T18:59:15Z</time>
      </trkpt>
      <trkpt lat="42.9084440" lon="-8.4009220">
        <ele>283.4</ele>
        <time>2020-04-17T18:59:17Z</time>
      </trkpt>
      <trkpt lat="42.9084340" lon="-8.4010130">
        <ele>283.7</ele>
        <time>2020-04-17T18:59:19Z</time>
      </trkpt>
      <trkpt lat="42.9084240" lon="-8.4011100">
        <ele>284.1</ele>
        <time>2020-04-17T18:59:21Z</time>
      </trkpt>
      <trkpt lat="42.9084140" lon="-8.4012080">
        <ele>284.4</ele>
        <time>2020-04-17T18:59:23Z</time>
      </trkpt>
      <trkpt lat="42.9084040" lon="-8.4013080">
        <ele>284.8</ele>
        <time>2020-04-17T18:59:25Z</time>
      </trkpt>
      <trkpt lat="42.9083740" lon="-8.4015880">
        <ele>286.0</ele>
        <time>2020-04-17T18:59:27Z</time>
      </trkpt>
      <trkpt lat="42.9083640" lon="-8.4016890">
        <ele>286.4</ele>
        <time>2020-04-17T18:59:29Z</time>
      </trkpt>
      <trkpt lat="42.9083530" lon="-8.4017900">
        <ele>286.8</ele>
        <time>2020-04-17T18:59:31Z</time>
      </trkpt>
      <trkpt lat="42.9083420" lon="-8.4018910">
        <ele>287.3</ele>
        <time>2020-04-17T18:59:33Z</time>
      </trkpt>
      <trkpt lat="42.9083180" lon="-8.4021190">
        <ele>288.3</ele>
        <time>2020-04-17T18:59:35Z</time>
      </trkpt>
      <trkpt lat="42.9083080" lon="-8.4022210">
        <ele>288.7</ele>
        <time>2020-04-17T18:59:37Z</time>
      </trkpt>
      <trkpt lat="42.9082890" lon="-8.4023960">
        <ele>289.5</ele>
        <time>2020-04-17T18:59:39Z</time>
      </trkpt>
      <trkpt lat="42.9082790" lon="-8.4024890">
        <ele>289.8</ele>
        <time>2020-04-17T18:59:41Z</time>
      </trkpt>
      <trkpt lat="42.9082700" lon="-8.4025750">
        <ele>290.2</ele>
        <time>2020-04-17T18:59:43Z</time>
      </trkpt>
      <trkpt lat="42.9082610" lon="-8.4026560">
        <ele>290.5</ele>
        <time>2020-04-17T18:59:45Z</time>
      </trkpt>
      <trkpt lat="42.9082530" lon="-8.4027340">
        <ele>290.8</ele>
        <time>2020-04-17T18:59:47Z</time>
      </trkpt>
      <trkpt lat="42.9082450" lon="-8.4028100">
        <ele>291.1</ele>
        <time>2020-04-17T18:59:49Z</time>
      </trkpt>
      <trkpt lat="42.9082370" lon="-8.4028870">
        <ele>291.4</ele>
        <time>2020-04-17T18:59:51Z</time>
      </trkpt>
      <trkpt lat="42.9082050" lon="-8.4031910">
        <ele>292.8</ele>
        <time>2020-04-17T18:59:53Z</time>
      </trkpt>
      <trkpt lat="42.9082000" lon="-8.4032680">
        <ele>293.1</ele>
        <time>2020-04-17T18:59:55Z</time>
      </trkpt>
      <trkpt lat="42.9081940" lon="-8.4033450">
        <ele>293.5</ele>
        <time>2020-04-17T18:59:57Z</time>
      </trkpt>
      <trkpt lat="42.9081890" lon="-8.4034210">
        <ele>293.8</ele>
        <time>2020-04-17T18:59:59Z</time>
      </trkpt>
      <trkpt lat="42.9081830" lon="-8.4034980">
        <ele>294.1</ele>
        <time>2020-04-17T19:00:01Z</time>
      </trkpt>
      <trkpt lat="42.9081780" lon="-8.4035750">
        <ele>294.5</ele>
        <time>2020-04-17T19:00:03Z</time>
      </trkpt>
      <trkpt lat="42.9081720" lon="-8.4036530">
        <ele>294.8</ele>
        <time>2020-04-17T19:00:05Z</time>
      </trkpt>
      <trkpt lat="42.9081560" lon="-8.4039190">
        <ele>296.0</ele>
        <time>2020-04-17T19:00:07Z</time>
      </trkpt>
      <trkpt lat="42.9081570" lon="-8.4040050">
        <ele>296.4</ele>
        <time>2020-04-17T19:00:09Z</time>
      </trkpt>
      <trkpt lat="42.9081580" lon="-8.4040940">
        <ele>296.8</ele>
        <time>2020-04-17T19:00:11Z</time>
      </trkpt>
      <trkpt lat="42.9081590" lon="-8.4041870">
        <ele>297.2</ele>
        <time>2020-04-17T19:00:13Z</time>
      </trkpt>
      <trkpt lat="42.9081740" lon="-8.4044040">
        <ele>298.2</ele>
        <time>2020-04-17T19:00:15Z</time>
      </trkpt>
      <trkpt lat="42.9081940" lon="-8.4044930">
        <ele>298.6</ele>
        <time>2020-04-17T19:00:17Z</time>
      </trkpt>
      <trkpt lat="42.9082150" lon="-8.4045830">
        <ele>299.0</ele>
        <time>2020-04-17T19:00:19Z</time>
      </trkpt>
      <trkpt lat="42.9082650" lon="-8.4047690">
        <ele>299.8</ele>
        <time>2020-04-17T19:00:21Z</time>
      </trkpt>
      <trkpt lat="42.9082990" lon="-8.4048510">
        <ele>300.2</ele>
        <time>2020-04-17T19:00:23Z</time>
      </trkpt>
      <trkpt lat="42.9083330" lon="-8.4049330">
        <ele>300.7</ele>
        <time>2020-04-17T19:00:25Z</time>
      </trkpt>
      <trkpt lat="42.9083670" lon="-8.4050150">
        <ele>301.1</ele>
        <time>2020-04-17T19:00:27Z</time>
      </trkpt>
      <trkpt lat="42.9084580" lon="-8.4052010">
        <ele>302.2</ele>
        <time>2020-04-17T19:00:29Z</time>
      </trkpt>
      <trkpt lat="42.9085070" lon="-8.4052680">
        <ele>302.6</ele>
        <time>2020-04-17T19:00:31Z</time>
      </trkpt>
      <trkpt lat="42.9086010" lon="-8.4053970">
        <ele>303.5</ele>
        <time>2020-04-17T19:00:33Z</time>
      </trkpt>
      <trkpt lat="42.9086620" lon="-8.4054500">
        <ele>303.9</ele>
        <time>2020-04-17T19:00:35Z</time>
      </trkpt>
      <trkpt lat="42.9087260" lon="-8.4055060">
        <ele>304.3</ele>
        <time>2020-04-17T19:00:37Z</time>
      </trkpt>
      <trkpt lat="42.9088540" lon="-8.4056100">
        <ele>305.2</ele>
        <time>2020-04-17T19:00:39Z</time>
      </trkpt>
      <trkpt lat="42.9089240" lon="-8.4056540">
        <ele>305.7</ele>
        <time>2020-04-17T19:00:41Z</time>
      </trkpt>
      <trkpt lat="42.9090440" lon="-8.4057230">
        <ele>306.5</ele>
        <time>2020-04-17T19:00:43Z</time>
      </trkpt>
      <trkpt lat="42.9091560" lon="-8.4057760">
        <ele>307.2</ele>
        <time>2020-04-17T19:00:45Z</time>
      </trkpt>
      <trkpt lat="42.9092670" lon="-8.4058210">
        <ele>308.0</ele>
        <time>2020-04-17T19:00:47Z</time>
      </trkpt>
      <trkpt lat="42.9093740" lon="-8.4058550">
        <ele>308.7</ele>
        <time>2020-04-17T19:00:49Z</time>
      </trkpt>
      <trkpt lat="42.9094530" lon="-8.4058770">
        <ele>309.2</ele>
        <time>2020-04-17T19:00:51Z</time>
      </trkpt>
      <trkpt lat="42.9095700" lon="-8.4059090">
        <ele>309.9</ele>
        <time>2020-04-17T19:00:53Z</time>
      </trkpt>
      <trkpt lat="42.9096470" lon="-8.4059300">
        <ele>310.4</ele>
        <time>2020-04-17T19:00:55Z</time>
      </trkpt>
      <trkpt lat="42.9097990" lon="-8.4059690">
        <ele>311.4</ele>
        <time>2020-04-17T19:00:57Z</time>
      </trkpt>
      <trkpt lat="42.9098870" lon="-8.4059920">
        <ele>311.9</ele>
        <time>2020-04-17T19:00:59Z</time>
      </trkpt>
      <trkpt lat="42.9099600" lon="-8.4060110">
        <ele>312.4</ele>
        <time>2020-04-17T19:01:01Z</time>
      </trkpt>
      <trkpt lat="42.9100330" lon="-8.4060310">
        <ele>312.8</ele>
        <time>2020-04-17T19:01:03Z</time>
      </trkpt>
      <trkpt lat="42.9101060" lon="-8.4060500">
        <ele>313.2</ele>
        <time>2020-04-17T19:01:05Z</time>
      </trkpt>
      <trkpt lat="42.9101790" lon="-8.4060690">
        <ele>313.6</ele>
        <time>2020-04-17T19:01:07Z</time>
      </trkpt>
      <trkpt lat="42.9102510" lon="-8.4060880">
        <ele>314.0</ele>
        <time>2020-04-17T19:01:09Z</time>
      </trkpt>
      <trkpt lat="42.9104960" lon="-8.4061530">
        <ele>315.3</ele>
        <time>2020-04-17T19:01:11Z</time>
      </trkpt>
      <trkpt lat="42.9105740" lon="-8.4061740">
        <ele>315.6</ele>
        <time>2020-04-17T19:01:13Z</time>
      </trkpt>
      <trkpt lat="42.9106580" lon="-8.4061970">
        <ele>316.1</ele>
        <time>2020-04-17T19:01:15Z</time>
      </trkpt>
      <trkpt lat="42.9108240" lon="-8.4062430">
        <ele>317.0</ele>
        <time>2020-04-17T19:01:17Z</time>
      </trkpt>
      <trkpt lat="42.9109620" lon="-8.4062860">
        <ele>317.6</ele>
        <time>2020-04-17T19:01:19Z</time>
      </trkpt>
      <trkpt lat="42.9110540" lon="-8.4063170">
        <ele>317.9</ele>
        <time>2020-04-17T19:01:21Z</time>
      </trkpt>
      <trkpt lat="42.9111940" lon="-8.4063700">
        <ele>318.4</ele>
        <time>2020-04-17T19:01:23Z</time>
      </trkpt>
      <trkpt lat="42.9113250" lon="-8.4064290">
        <ele>319.2</ele>
        <time>2020-04-17T19:01:25Z</time>
      </trkpt>
      <trkpt lat="42.9114510" lon="-8.4064990">
        <ele>320.1</ele>
        <time>2020-04-17T19:01:27Z</time>
      </trkpt>
      <trkpt lat="42.9115650" lon="-8.4065720">
        <ele>320.9</ele>
        <time>2020-04-17T19:01:29Z</time>
      </trkpt>
      <trkpt lat="42.9116410" lon="-8.4066230">
        <ele>321.4</ele>
        <time>2020-04-17T19:01:31Z</time>
      </trkpt>
      <trkpt lat="42.9117730" lon="-8.4066750">
        <ele>321.9</ele>
        <time>2020-04-17T19:01:33Z</time>
      </trkpt>
      <trkpt lat="42.9118480" lon="-8.4066740">
        <ele>322.3</ele>
        <time>2020-04-17T19:01:35Z</time>
      </trkpt>
      <trkpt lat="42.9119790" lon="-8.4066710">
        <ele>323.0</ele>
        <time>2020-04-17T19:01:37Z</time>
      </trkpt>
      <trkpt lat="42.9120580" lon="-8.4066290">
        <ele>323.4</ele>
        <time>2020-04-17T19:01:39Z</time>
      </trkpt>
      <trkpt lat="42.9121500" lon="-8.4065560">
        <ele>324.1</ele>
        <time>2020-04-17T19:01:41Z</time>
      </trkpt>
      <trkpt lat="42.9122360" lon="-8.4065420">
        <ele>324.6</ele>
        <time>2020-04-17T19:01:43Z</time>
      </trkpt>
      <trkpt lat="42.9123180" lon="-8.4065680">
        <ele>325.1</ele>
        <time>2020-04-17T19:01:45Z</time>
      </trkpt>
      <trkpt lat="42.9123980" lon="-8.4066390">
        <ele>325.4</ele>
        <time>2020-04-17T19:01:47Z</time>
      </trkpt>
      <trkpt lat="42.9124680" lon="-8.4067870">
        <ele>325.8</ele>
        <time>2020-04-17T19:01:49Z</time>
      </trkpt>
      <trkpt lat="42.9124740" lon="-8.4069450">
        <ele>326.1</ele>
        <time>2020-04-17T19:01:51Z</time>
      </trkpt>
      <trkpt lat="42.9124110" lon="-8.4071200">
        <ele>326.1</ele>
        <time>2020-04-17T19:01:53Z</time>
      </trkpt>
      <trkpt lat="42.9123780" lon="-8.4072500">
        <ele>326.2</ele>
        <time>2020-04-17T19:01:55Z</time>
      </trkpt>
      <trkpt lat="42.9124000" lon="-8.4074360">
        <ele>326.4</ele>
        <time>2020-04-17T19:01:57Z</time>
      </trkpt>
      <trkpt lat="42.9123350" lon="-8.4075600">
        <ele>326.3</ele>
        <time>2020-04-17T19:01:59Z</time>
      </trkpt>
      <trkpt lat="42.9123390" lon="-8.4077270">
        <ele>326.6</ele>
        <time>2020-04-17T19:02:01Z</time>
      </trkpt>
      <trkpt lat="42.9123780" lon="-8.4078340">
        <ele>327.0</ele>
        <time>2020-04-17T19:02:03Z</time>
      </trkpt>
      <trkpt lat="42.9124110" lon="-8.4079280">
        <ele>327.5</ele>
        <time>2020-04-17T19:02:05Z</time>
      </trkpt>
      <trkpt lat="42.9124420" lon="-8.4080130">
        <ele>327.9</ele>
        <time>2020-04-17T19:02:07Z</time>
      </trkpt>
      <trkpt lat="42.9124690" lon="-8.4080890">
        <ele>328.3</ele>
        <time>2020-04-17T19:02:09Z</time>
      </trkpt>
      <trkpt lat="42.9124940" lon="-8.4081590">
        <ele>328.6</ele>
        <time>2020-04-17T19:02:11Z</time>
      </trkpt>
      <trkpt lat="42.9125190" lon="-8.4082260">
        <ele>329.0</ele>
        <time>2020-04-17T19:02:13Z</time>
      </trkpt>
      <trkpt lat="42.9126260" lon="-8.4085120">
        <ele>330.4</ele>
        <time>2020-04-17T19:02:15Z</time>
      </trkpt>
      <trkpt lat="42.9126530" lon="-8.4085720">
        <ele>330.7</ele>
        <time>2020-04-17T19:02:17Z</time>
      </trkpt>
      <trkpt lat="42.9127020" lon="-8.4086710">
        <ele>331.1</ele>
        <time>2020-04-17T19:02:19Z</time>
      </trkpt>
      <trkpt lat="42.9127400" lon="-8.4087430">
        <ele>331.3</ele>
        <time>2020-04-17T19:02:21Z</time>
      </trkpt>
      <trkpt lat="42.9127700" lon="-8.4087980">
        <ele>331.4</ele>
        <time>2020-04-17T19:02:23Z</time>
      </trkpt>
      <trkpt lat="42.9127980" lon="-8.4088520">
        <ele>331.6</ele>
        <time>2020-04-17T19:02:25Z</time>
      </trkpt>
      <trkpt lat="42.9128680" lon="-8.4089680">
        <ele>332.1</ele>
        <time>2020-04-17T19:02:27Z</time>
      </trkpt>
      <trkpt lat="42.9129020" lon="-8.4090160">
        <ele>332.4</ele>
        <time>2020-04-17T19:02:29Z</time>
      </trkpt>
      <trkpt lat="42.9129360" lon="-8.4090630">
        <ele>332.7</ele>
        <time>2020-04-17T19:02:31Z</time>
      </trkpt>
      <trkpt lat="42.9129700" lon="-8.4091110">
        <ele>333.0</ele>
        <time>2020-04-17T19:02:33Z</time>
      </trkpt>
      <trkpt lat="42.9130500" lon="-8.4092220">
        <ele>333.7</ele>
        <time>2020-04-17T19:02:35Z</time>
      </trkpt>
      <trkpt lat="42.9130830" lon="-8.4092680">
        <ele>334.1</ele>
        <time>2020-04-17T19:02:37Z</time>
      </trkpt>
      <trkpt lat="42.9131160" lon="-8.4093140">
        <ele>334.4</ele>
        <time>2020-04-17T19:02:39Z</time>
      </trkpt>
      <trkpt lat="42.9131950" lon="-8.4094190">
        <ele>335.1</ele>
        <time>2020-04-17T19:02:41Z</time>
      </trkpt>
      <trkpt lat="42.9132410" lon="-8.4094560">
        <ele>335.4</ele>
        <time>2020-04-17T19:02:43Z</time>
      </trkpt>
      <trkpt lat="42.9132900" lon="-8.4094950">
        <ele>335.8</ele>
        <time>2020-04-17T19:02:45Z</time>
      </trkpt>
      <trkpt lat="42.9133400" lon="-8.4095360">
        <ele>336.2</ele>
        <time>2020-04-17T19:02:47Z</time>
      </trkpt>
      <trkpt lat="42.9134610" lon="-8.4096320">
        <ele>337.0</ele>
        <time>2020-04-17T19:02:49Z</time>
      </trkpt>
      <trkpt lat="42.9135120" lon="-8.4096720">
        <ele>337.4</ele>
        <time>2020-04-17T19:02:51Z</time>
      </trkpt>
      <trkpt lat="42.9135640" lon="-8.4097130">
        <ele>337.8</ele>
        <time>2020-04-17T19:02:53Z</time>
      </trkpt>
      <trkpt lat="42.9136150" lon="-8.4097530">
        <ele>338.2</ele>
        <time>2020-04-17T19:02:55Z</time>
      </trkpt>
      <trkpt lat="42.9136670" lon="-8.4097940">
        <ele>338.7</ele>
        <time>2020-04-17T19:02:57Z</time>
      </trkpt>
      <trkpt lat="42.9137190" lon="-8.4098340">
        <ele>339.1</ele>
        <time>2020-04-17T19:02:59Z</time>
      </trkpt>
      <trkpt lat="42.9138840" lon="-8.4099640">
        <ele>340.5</ele>
        <time>2020-04-17T19:03:01Z</time>
      </trkpt>
      <trkpt lat="42.9139340" lon="-8.4100030">
        <ele>340.9</ele>
        <time>2020-04-17T19:03:03Z</time>
      </trkpt>
      <trkpt lat="42.9139820" lon="-8.4100410">
        <ele>341.3</ele>
        <time>2020-04-17T19:03:05Z</time>
      </trkpt>
      <trkpt lat="42.9140290" lon="-8.4100780">
        <ele>341.6</ele>
        <time>2020-04-17T19:03:07Z</time>
      </trkpt>
      <trkpt lat="42.9140760" lon="-8.4101150">
        <ele>342.0</ele>
        <time>2020-04-17T19:03:09Z</time>
      </trkpt>
      <trkpt lat="42.9142020" lon="-8.4102250">
        <ele>343.1</ele>
        <time>2020-04-17T19:03:11Z</time>
      </trkpt>
      <trkpt lat="42.9142380" lon="-8.4102780">
        <ele>343.5</ele>
        <time>2020-04-17T19:03:13Z</time>
      </trkpt>
      <trkpt lat="42.9142990" lon="-8.4103650">
        <ele>344.1</ele>
        <time>2020-04-17T19:03:15Z</time>
      </trkpt>
      <trkpt lat="42.9143340" lon="-8.4104160">
        <ele>344.4</ele>
        <time>2020-04-17T19:03:17Z</time>
      </trkpt>
      <trkpt lat="42.9143970" lon="-8.4105070">
        <ele>344.8</ele>
        <time>2020-04-17T19:03:19Z</time>
      </trkpt>
      <trkpt lat="42.9144340" lon="-8.4105600">
        <ele>345.0</ele>
        <time>2020-04-17T19:03:21Z</time>
      </trkpt>
      <trkpt lat="42.9144730" lon="-8.4106660">
        <ele>345.5</ele>
        <time>2020-04-17T19:03:23Z</time>
      </trkpt>
      <trkpt lat="42.9144640" lon="-8.4107390">
        <ele>345.8</ele>
        <time>2020-04-17T19:03:25Z</time>
      </trkpt>
      <trkpt lat="42.9144550" lon="-8.4108110">
        <ele>346.2</ele>
        <time>2020-04-17T19:03:27Z</time>
      </trkpt>
      <trkpt lat="42.9144350" lon="-8.4109730">
        <ele>347.2</ele>
        <time>2020-04-17T19:03:29Z</time>
      </trkpt>
      <trkpt lat="42.9144240" lon="-8.4110410">
        <ele>347.6</ele>
        <time>2020-04-17T19:03:31Z</time>
      </trkpt>
      <trkpt lat="42.9144120" lon="-8.4111070">
        <ele>348.1</ele>
        <time>2020-04-17T19:03:33Z</time>
      </trkpt>
      <trkpt lat="42.9144010" lon="-8.4111710">
        <ele>348.6</ele>
        <time>2020-04-17T19:03:35Z</time>
      </trkpt>
      <trkpt lat="42.9143900" lon="-8.4112340">
        <ele>349.0</ele>
        <time>2020-04-17T19:03:37Z</time>
      </trkpt>
      <trkpt lat="42.9143790" lon="-8.4112970">
        <ele>349.5</ele>
        <time>2020-04-17T19:03:39Z</time>
      </trkpt>
      <trkpt lat="42.9143690" lon="-8.4113590">
        <ele>349.9</ele>
        <time>2020-04-17T19:03:41Z</time>
      </trkpt>
      <trkpt lat="42.9143580" lon="-8.4114220">
        <ele>350.3</ele>
        <time>2020-04-17T19:03:43Z</time>
      </trkpt>
      <trkpt lat="42.9143140" lon="-8.4116670">
        <ele>352.0</ele>
        <time>2020-04-17T19:03:45Z</time>
      </trkpt>
      <trkpt lat="42.9142980" lon="-8.4117420">
        <ele>352.5</ele>
        <time>2020-04-17T19:03:47Z</time>
      </trkpt>
      <trkpt lat="42.9142860" lon="-8.4118010">
        <ele>352.9</ele>
        <time>2020-04-17T19:03:49Z</time>
      </trkpt>
      <trkpt lat="42.9142740" lon="-8.4118590">
        <ele>353.2</ele>
        <time>2020-04-17T19:03:51Z</time>
      </trkpt>
      <trkpt lat="42.9142620" lon="-8.4119170">
        <ele>353.6</ele>
        <time>2020-04-17T19:03:53Z</time>
      </trkpt>
      <trkpt lat="42.9142500" lon="-8.4119750">
        <ele>353.9</ele>
        <time>2020-04-17T19:03:55Z</time>
      </trkpt>
      <trkpt lat="42.9142370" lon="-8.4120320">
        <ele>354.2</ele>
        <time>2020-04-17T19:03:57Z</time>
      </trkpt>
      <trkpt lat="42.9142250" lon="-8.4120910">
        <ele>354.6</ele>
        <time>2020-04-17T19:03:59Z</time>
      </trkpt>
      <trkpt lat="42.9142130" lon="-8.4121480">
        <ele>354.9</ele>
        <time>2020-04-17T19:04:01Z</time>
      </trkpt>
      <trkpt lat="42.9141650" lon="-8.4123800">
        <ele>356.3</ele>
        <time>2020-04-17T19:04:03Z</time>
      </trkpt>
      <trkpt lat="42.9141480" lon="-8.4124540">
        <ele>356.8</ele>
        <time>2020-04-17T19:04:05Z</time>
      </trkpt>
      <trkpt lat="42.9141340" lon="-8.4125110">
        <ele>357.1</ele>
        <time>2020-04-17T19:04:07Z</time>
      </trkpt>
      <trkpt lat="42.9141200" lon="-8.4125680">
        <ele>357.4</ele>
        <time>2020-04-17T19:04:09Z</time>
      </trkpt>
      <trkpt lat="42.9141060" lon="-8.4126240">
        <ele>357.8</ele>
        <time>2020-04-17T19:04:11Z</time>
      </trkpt>
      <trkpt lat="42.9140940" lon="-8.4126760">
        <ele>358.1</ele>
        <time>2020-04-17T19:04:13Z</time>
      </trkpt>
      <trkpt lat="42.9140570" lon="-8.4128260">
        <ele>358.9</ele>
        <time>2020-04-17T19:04:15Z</time>
      </trkpt>
      <trkpt lat="42.9140400" lon="-8.4129010">
        <ele>359.2</ele>
        <time>2020-04-17T19:04:17Z</time>
      </trkpt>
      <trkpt lat="42.9140050" lon="-8.4130480">
        <ele>359.9</ele>
        <time>2020-04-17T19:04:19Z</time>
      </trkpt>
      <trkpt lat="42.9139840" lon="-8.4131430">
        <ele>360.3</ele>
        <time>2020-04-17T19:04:21Z</time>
      </trkpt>
      <trkpt lat="42.9139640" lon="-8.4133090">
        <ele>360.9</ele>
        <time>2020-04-17T19:04:23Z</time>
      </trkpt>
      <trkpt lat="42.9139760" lon="-8.4134650">
        <ele>361.4</ele>
        <time>2020-04-17T19:04:25Z</time>
      </trkpt>
      <trkpt lat="42.9140190" lon="-8.4136120">
        <ele>361.7</ele>
        <time>2020-04-17T19:04:27Z</time>
      </trkpt>
      <trkpt lat="42.9139700" lon="-8.4136970">
        <ele>362.0</ele>
        <time>2020-04-17T19:04:29Z</time>
      </trkpt>
      <trkpt lat="42.9139200" lon="-8.4137830">
        <ele>362.1</ele>
        <time>2020-04-17T19:04:31Z</time>
      </trkpt>
      <trkpt lat="42.9138700" lon="-8.4138690">
        <ele>362.2</ele>
        <time>2020-04-17T19:04:33Z</time>
      </trkpt>
      <trkpt lat="42.9137540" lon="-8.4140830">
        <ele>362.3</ele>
        <time>2020-04-17T19:04:35Z</time>
      </trkpt>
      <trkpt lat="42.9137550" lon="-8.4142030">
        <ele>362.3</ele>
        <time>2020-04-17T19:04:37Z</time>
      </trkpt>
      <trkpt lat="42.9137660" lon="-8.4144130">
        <ele>362.1</ele>
        <time>2020-04-17T19:04:39Z</time>
      </trkpt>
      <trkpt lat="42.9137930" lon="-8.4145920">
        <ele>362.0</ele>
        <time>2020-04-17T19:04:41Z</time>
      </trkpt>
      <trkpt lat="42.9138300" lon="-8.4147970">
        <ele>361.8</ele>
        <time>2020-04-17T19:04:43Z</time>
      </trkpt>
      <trkpt lat="42.9138430" lon="-8.4150100">
        <ele>361.6</ele>
        <time>2020-04-17T19:04:45Z</time>
      </trkpt>
      <trkpt lat="42.9138260" lon="-8.4152230">
        <ele>361.1</ele>
        <time>2020-04-17T19:04:47Z</time>
      </trkpt>
      <trkpt lat="42.9138090" lon="-8.4155030">
        <ele>360.2</ele>
        <time>2020-04-17T19:04:49Z</time>
      </trkpt>
      <trkpt lat="42.9138040" lon="-8.4156810">
        <ele>359.6</ele>
        <time>2020-04-17T19:04:51Z</time>
      </trkpt>
      <trkpt lat="42.9137960" lon="-8.4159840">
        <ele>358.3</ele>
        <time>2020-04-17T19:04:53Z</time>
      </trkpt>
      <trkpt lat="42.9137910" lon="-8.4161730">
        <ele>357.5</ele>
        <time>2020-04-17T19:04:55Z</time>
      </trkpt>
      <trkpt lat="42.9137860" lon="-8.4163680">
        <ele>356.7</ele>
        <time>2020-04-17T19:04:57Z</time>
      </trkpt>
      <trkpt lat="42.9137810" lon="-8.4165650">
        <ele>355.8</ele>
        <time>2020-04-17T19:04:59Z</time>
      </trkpt>
      <trkpt lat="42.9137690" lon="-8.4170030">
        <ele>353.8</ele>
        <time>2020-04-17T19:05:01Z</time>
      </trkpt>
      <trkpt lat="42.9137640" lon="-8.4172180">
        <ele>352.7</ele>
        <time>2020-04-17T19:05:03Z</time>
      </trkpt>
      <trkpt lat="42.9137580" lon="-8.4174420">
        <ele>351.6</ele>
        <time>2020-04-17T19:05:05Z</time>
      </trkpt>
      <trkpt lat="42.9137060" lon="-8.4179830">
        <ele>349.6</ele>
        <time>2020-04-17T19:05:07Z</time>
      </trkpt>
      <trkpt lat="42.9136100" lon="-8.4182580">
        <ele>348.5</ele>
        <time>2020-04-17T19:05:09Z</time>
      </trkpt>
      <trkpt lat="42.9136000" lon="-8.4185480">
        <ele>347.3</ele>
        <time>2020-04-17T19:05:11Z</time>
      </trkpt>
      <trkpt lat="42.9136370" lon="-8.4188890">
        <ele>346.0</ele>
        <time>2020-04-17T19:05:13Z</time>
      </trkpt>
      <trkpt lat="42.9136460" lon="-8.4191250">
        <ele>345.5</ele>
        <time>2020-04-17T19:05:15Z</time>
      </trkpt>
      <trkpt lat="42.9136550" lon="-8.4193520">
        <ele>345.0</ele>
        <time>2020-04-17T19:05:17Z</time>
      </trkpt>
      <trkpt lat="42.9136450" lon="-8.4198130">
        <ele>344.1</ele>
        <time>2020-04-17T19:05:19Z</time>
      </trkpt>
      <trkpt lat="42.9135500" lon="-8.4200840">
        <ele>343.6</ele>
        <time>2020-04-17T19:05:21Z</time>
      </trkpt>
      <trkpt lat="42.9134520" lon="-8.4204100">
        <ele>342.1</ele>
        <time>2020-04-17T19:05:23Z</time>
      </trkpt>
      <trkpt lat="42.9134570" lon="-8.4206590">
        <ele>340.4</ele>
        <time>2020-04-17T19:05:25Z</time>
      </trkpt>
      <trkpt lat="42.9134650" lon="-8.4211150">
        <ele>337.3</ele>
        <time>2020-04-17T19:05:27Z</time>
      </trkpt>
      <trkpt lat="42.9134590" lon="-8.4213810">
        <ele>335.5</ele>
        <time>2020-04-17T19:05:29Z</time>
      </trkpt>
      <trkpt lat="42.9134500" lon="-8.4217440">
        <ele>333.2</ele>
        <time>2020-04-17T19:05:31Z</time>
      </trkpt>
      <trkpt lat="42.9134250" lon="-8.4221810">
        <ele>331.5</ele>
        <time>2020-04-17T19:05:33Z</time>
      </trkpt>
      <trkpt lat="42.9133410" lon="-8.4225160">
        <ele>330.9</ele>
        <time>2020-04-17T19:05:35Z</time>
      </trkpt>
      <trkpt lat="42.9132260" lon="-8.4227130">
        <ele>330.3</ele>
        <time>2020-04-17T19:05:37Z</time>
      </trkpt>
      <trkpt lat="42.9130430" lon="-8.4230230">
        <ele>329.3</ele>
        <time>2020-04-17T19:05:39Z</time>
      </trkpt>
      <trkpt lat="42.9128900" lon="-8.4232530">
        <ele>328.7</ele>
        <time>2020-04-17T19:05:41Z</time>
      </trkpt>
      <trkpt lat="42.9127220" lon="-8.4234320">
        <ele>327.9</ele>
        <time>2020-04-17T19:05:43Z</time>
      </trkpt>
      <trkpt lat="42.9125240" lon="-8.4236070">
        <ele>327.3</ele>
        <time>2020-04-17T19:05:45Z</time>
      </trkpt>
      <trkpt lat="42.9123700" lon="-8.4237340">
        <ele>327.5</ele>
        <time>2020-04-17T19:05:47Z</time>
      </trkpt>
      <trkpt lat="42.9122810" lon="-8.4238260">
        <ele>328.0</ele>
        <time>2020-04-17T19:05:49Z</time>
      </trkpt>
      <trkpt lat="42.9121440" lon="-8.4239400">
        <ele>329.7</ele>
        <time>2020-04-17T19:05:51Z</time>
      </trkpt>
      <trkpt lat="42.9120380" lon="-8.4240010">
        <ele>331.6</ele>
        <time>2020-04-17T19:05:53Z</time>
      </trkpt>
      <trkpt lat="42.9119870" lon="-8.4240180">
        <ele>332.6</ele>
        <time>2020-04-17T19:05:55Z</time>
      </trkpt>
      <trkpt lat="42.9119180" lon="-8.4240420">
        <ele>333.9</ele>
        <time>2020-04-17T19:05:57Z</time>
      </trkpt>
      <trkpt lat="42.9118870" lon="-8.4240600">
        <ele>334.5</ele>
        <time>2020-04-17T19:05:59Z</time>
      </trkpt>
      <trkpt lat="42.9118650" lon="-8.4240730">
        <ele>335.0</ele>
        <time>2020-04-17T19:06:01Z</time>
      </trkpt>
      <trkpt lat="42.9118450" lon="-8.4240850">
        <ele>335.4</ele>
        <time>2020-04-17T19:06:03Z</time>
      </trkpt>
      <trkpt lat="42.9118240" lon="-8.4240970">
        <ele>335.8</ele>
        <time>2020-04-17T19:06:05Z</time>
      </trkpt>
      <trkpt lat="42.9117590" lon="-8.4241320">
        <ele>336.9</ele>
        <time>2020-04-17T19:06:07Z</time>
      </trkpt>
      <trkpt lat="42.9117180" lon="-8.4241470">
        <ele>337.6</ele>
        <time>2020-04-17T19:06:09Z</time>
      </trkpt>
      <trkpt lat="42.9116700" lon="-8.4241660">
        <ele>338.3</ele>
        <time>2020-04-17T19:06:11Z</time>
      </trkpt>
      <trkpt lat="42.9115600" lon="-8.4241940">
        <ele>339.4</ele>
        <time>2020-04-17T19:06:13Z</time>
      </trkpt>
      <trkpt lat="42.9114980" lon="-8.4241890">
        <ele>339.9</ele>
        <time>2020-04-17T19:06:15Z</time>
      </trkpt>
      <trkpt lat="42.9114320" lon="-8.4241830">
        <ele>340.2</ele>
        <time>2020-04-17T19:06:17Z</time>
      </trkpt>
      <trkpt lat="42.9113630" lon="-8.4241770">
        <ele>340.6</ele>
        <time>2020-04-17T19:06:19Z</time>
      </trkpt>
      <trkpt lat="42.9112900" lon="-8.4241700">
        <ele>340.8</ele>
        <time>2020-04-17T19:06:21Z</time>
      </trkpt>
      <trkpt lat="42.9111050" lon="-8.4242190">
        <ele>341.2</ele>
        <time>2020-04-17T19:06:23Z</time>
      </trkpt>
      <trkpt lat="42.9110220" lon="-8.4242710">
        <ele>341.3</ele>
        <time>2020-04-17T19:06:25Z</time>
      </trkpt>
      <trkpt lat="42.9109440" lon="-8.4242460">
        <ele>341.2</ele>
        <time>2020-04-17T19:06:27Z</time>
      </trkpt>
      <trkpt lat="42.9107870" lon="-8.4241970">
        <ele>341.2</ele>
        <time>2020-04-17T19:06:29Z</time>
      </trkpt>
      <trkpt lat="42.9106990" lon="-8.4241710">
        <ele>341.1</ele>
        <time>2020-04-17T19:06:31Z</time>
      </trkpt>
      <trkpt lat="42.9106120" lon="-8.4241440">
        <ele>341.1</ele>
        <time>2020-04-17T19:06:33Z</time>
      </trkpt>
      <trkpt lat="42.9104600" lon="-8.4240920">
        <ele>341.0</ele>
        <time>2020-04-17T19:06:35Z</time>
      </trkpt>
      <trkpt lat="42.9103720" lon="-8.4240580">
        <ele>340.9</ele>
        <time>2020-04-17T19:06:37Z</time>
      </trkpt>
      <trkpt lat="42.9102820" lon="-8.4240240">
        <ele>340.9</ele>
        <time>2020-04-17T19:06:39Z</time>
      </trkpt>
      <trkpt lat="42.9100830" lon="-8.4239480">
        <ele>340.7</ele>
        <time>2020-04-17T19:06:41Z</time>
      </trkpt>
      <trkpt lat="42.9099930" lon="-8.4239150">
        <ele>340.7</ele>
        <time>2020-04-17T19:06:43Z</time>
      </trkpt>
      <trkpt lat="42.9099030" lon="-8.4238820">
        <ele>340.6</ele>
        <time>2020-04-17T19:06:45Z</time>
      </trkpt>
      <trkpt lat="42.9098140" lon="-8.4238490">
        <ele>340.6</ele>
        <time>2020-04-17T19:06:47Z</time>
      </trkpt>
      <trkpt lat="42.9096050" lon="-8.4237730">
        <ele>340.4</ele>
        <time>2020-04-17T19:06:49Z</time>
      </trkpt>
      <trkpt lat="42.9095120" lon="-8.4237390">
        <ele>340.3</ele>
        <time>2020-04-17T19:06:51Z</time>
      </trkpt>
      <trkpt lat="42.9094170" lon="-8.4237040">
        <ele>340.2</ele>
        <time>2020-04-17T19:06:53Z</time>
      </trkpt>
      <trkpt lat="42.9093200" lon="-8.4236680">
        <ele>340.1</ele>
        <time>2020-04-17T19:06:55Z</time>
      </trkpt>
      <trkpt lat="42.9092200" lon="-8.4236320">
        <ele>339.9</ele>
        <time>2020-04-17T19:06:57Z</time>
      </trkpt>
      <trkpt lat="42.9091160" lon="-8.4235940">
        <ele>339.8</ele>
        <time>2020-04-17T19:06:59Z</time>
      </trkpt>
      <trkpt lat="42.9087660" lon="-8.4234650">
        <ele>339.6</ele>
        <time>2020-04-17T19:07:01Z</time>
      </trkpt>
      <trkpt lat="42.9086320" lon="-8.4234160">
        <ele>339.6</ele>
        <time>2020-04-17T19:07:03Z</time>
      </trkpt>
      <trkpt lat="42.9085210" lon="-8.4233740">
        <ele>339.6</ele>
        <time>2020-04-17T19:07:05Z</time>
      </trkpt>
      <trkpt lat="42.9084070" lon="-8.4233320">
        <ele>339.6</ele>
        <time>2020-04-17T19:07:07Z</time>
      </trkpt>
      <trkpt lat="42.9082920" lon="-8.4232890">
        <ele>339.6</ele>
        <time>2020-04-17T19:07:09Z</time>
      </trkpt>
      <trkpt lat="42.9079910" lon="-8.4231760">
        <ele>339.6</ele>
        <time>2020-04-17T19:07:11Z</time>
      </trkpt>
      <trkpt lat="42.9078350" lon="-8.4231180">
        <ele>339.6</ele>
        <time>2020-04-17T19:07:13Z</time>
      </trkpt>
      <trkpt lat="42.9077180" lon="-8.4230740">
        <ele>339.5</ele>
        <time>2020-04-17T19:07:15Z</time>
      </trkpt>
      <trkpt lat="42.9076020" lon="-8.4230300">
        <ele>339.5</ele>
        <time>2020-04-17T19:07:17Z</time>
      </trkpt>
      <trkpt lat="42.9074850" lon="-8.4229860">
        <ele>339.5</ele>
        <time>2020-04-17T19:07:19Z</time>
      </trkpt>
      <trkpt lat="42.9073710" lon="-8.4229430">
        <ele>339.6</ele>
        <time>2020-04-17T19:07:21Z</time>
      </trkpt>
      <trkpt lat="42.9070700" lon="-8.4228290">
        <ele>339.7</ele>
        <time>2020-04-17T19:07:23Z</time>
      </trkpt>
      <trkpt lat="42.9069230" lon="-8.4227740">
        <ele>339.8</ele>
        <time>2020-04-17T19:07:25Z</time>
      </trkpt>
      <trkpt lat="42.9068110" lon="-8.4227320">
        <ele>339.9</ele>
        <time>2020-04-17T19:07:27Z</time>
      </trkpt>
      <trkpt lat="42.9067010" lon="-8.4226910">
        <ele>340.1</ele>
        <time>2020-04-17T19:07:29Z</time>
      </trkpt>
      <trkpt lat="42.9065940" lon="-8.4226510">
        <ele>340.3</ele>
        <time>2020-04-17T19:07:31Z</time>
      </trkpt>
      <trkpt lat="42.9062970" lon="-8.4225390">
        <ele>341.0</ele>
        <time>2020-04-17T19:07:33Z</time>
      </trkpt>
      <trkpt lat="42.9061940" lon="-8.4224970">
        <ele>341.3</ele>
        <time>2020-04-17T19:07:35Z</time>
      </trkpt>
      <trkpt lat="42.9060900" lon="-8.4224550">
        <ele>341.6</ele>
        <time>2020-04-17T19:07:37Z</time>
      </trkpt>
      <trkpt lat="42.9059870" lon="-8.4224140">
        <ele>341.8</ele>
        <time>2020-04-17T19:07:39Z</time>
      </trkpt>
      <trkpt lat="42.9057600" lon="-8.4223290">
        <ele>342.4</ele>
        <time>2020-04-17T19:07:41Z</time>
      </trkpt>
      <trkpt lat="42.9056650" lon="-8.4222990">
        <ele>342.7</ele>
        <time>2020-04-17T19:07:43Z</time>
      </trkpt>
      <trkpt lat="42.9055760" lon="-8.4222700">
        <ele>342.9</ele>
        <time>2020-04-17T19:07:45Z</time>
      </trkpt>
      <trkpt lat="42.9054910" lon="-8.4222430">
        <ele>343.2</ele>
        <time>2020-04-17T19:07:47Z</time>
      </trkpt>
      <trkpt lat="42.9054100" lon="-8.4222170">
        <ele>343.4</ele>
        <time>2020-04-17T19:07:49Z</time>
      </trkpt>
      <trkpt lat="42.9053320" lon="-8.4221930">
        <ele>343.6</ele>
        <time>2020-04-17T19:07:51Z</time>
      </trkpt>
      <trkpt lat="42.9050580" lon="-8.4221140">
        <ele>344.2</ele>
        <time>2020-04-17T19:07:53Z</time>
      </trkpt>
      <trkpt lat="42.9049830" lon="-8.4221050">
        <ele>344.4</ele>
        <time>2020-04-17T19:07:55Z</time>
      </trkpt>
      <trkpt lat="42.9048560" lon="-8.4220930">
        <ele>344.8</ele>
        <time>2020-04-17T19:07:57Z</time>
      </trkpt>
      <trkpt lat="42.9047860" lon="-8.4220920">
        <ele>345.1</ele>
        <time>2020-04-17T19:07:59Z</time>
      </trkpt>
      <trkpt lat="42.9047170" lon="-8.4220910">
        <ele>345.3</ele>
        <time>2020-04-17T19:08:01Z</time>
      </trkpt>
      <trkpt lat="42.9045640" lon="-8.4220930">
        <ele>345.8</ele>
        <time>2020-04-17T19:08:03Z</time>
      </trkpt>
      <trkpt lat="42.9044970" lon="-8.4221070">
        <ele>346.0</ele>
        <time>2020-04-17T19:08:05Z</time>
      </trkpt>
      <trkpt lat="42.9044310" lon="-8.4221200">
        <ele>346.2</ele>
        <time>2020-04-17T19:08:07Z</time>
      </trkpt>
      <trkpt lat="42.9043630" lon="-8.4221340">
        <ele>346.4</ele>
        <time>2020-04-17T19:08:09Z</time>
      </trkpt>
      <trkpt lat="42.9042140" lon="-8.4221760">
        <ele>346.7</ele>
        <time>2020-04-17T19:08:11Z</time>
      </trkpt>
      <trkpt lat="42.9041510" lon="-8.4222040">
        <ele>346.9</ele>
        <time>2020-04-17T19:08:13Z</time>
      </trkpt>
      <trkpt lat="42.9040870" lon="-8.4222330">
        <ele>347.0</ele>
        <time>2020-04-17T19:08:15Z</time>
      </trkpt>
      <trkpt lat="42.9040220" lon="-8.4222610">
        <ele>347.2</ele>
        <time>2020-04-17T19:08:17Z</time>
      </trkpt>
      <trkpt lat="42.9038460" lon="-8.4223400">
        <ele>347.6</ele>
        <time>2020-04-17T19:08:19Z</time>
      </trkpt>
      <trkpt lat="42.9037840" lon="-8.4223830">
        <ele>347.8</ele>
        <time>2020-04-17T19:08:21Z</time>
      </trkpt>
      <trkpt lat="42.9037220" lon="-8.4224250">
        <ele>348.0</ele>
        <time>2020-04-17T19:08:23Z</time>
      </trkpt>
      <trkpt lat="42.9036610" lon="-8.4224680">
        <ele>348.2</ele>
        <time>2020-04-17T19:08:25Z</time>
      </trkpt>
      <trkpt lat="42.9035990" lon="-8.4225100">
        <ele>348.4</ele>
        <time>2020-04-17T19:08:27Z</time>
      </trkpt>
      <trkpt lat="42.9035380" lon="-8.4225520">
        <ele>348.6</ele>
        <time>2020-04-17T19:08:29Z</time>
      </trkpt>
      <trkpt lat="42.9034760" lon="-8.4225950">
        <ele>348.8</ele>
        <time>2020-04-17T19:08:31Z</time>
      </trkpt>
      <trkpt lat="42.9034150" lon="-8.4226370">
        <ele>349.0</ele>
        <time>2020-04-17T19:08:33Z</time>
      </trkpt>
      <trkpt lat="42.9033540" lon="-8.4226790">
        <ele>349.2</ele>
        <time>2020-04-17T19:08:35Z</time>
      </trkpt>
      <trkpt lat="42.9031080" lon="-8.4228550">
        <ele>350.2</ele>
        <time>2020-04-17T19:08:37Z</time>
      </trkpt>
      <trkpt lat="42.9030410" lon="-8.4229070">
        <ele>350.4</ele>
        <time>2020-04-17T19:08:39Z</time>
      </trkpt>
      <trkpt lat="42.9029710" lon="-8.4229610">
        <ele>350.7</ele>
        <time>2020-04-17T19:08:41Z</time>
      </trkpt>
      <trkpt lat="42.9029010" lon="-8.4230160">
        <ele>351.0</ele>
        <time>2020-04-17T19:08:43Z</time>
      </trkpt>
      <trkpt lat="42.9027190" lon="-8.4231570">
        <ele>351.8</ele>
        <time>2020-04-17T19:08:45Z</time>
      </trkpt>
      <trkpt lat="42.9026230" lon="-8.4232280">
        <ele>352.1</ele>
        <time>2020-04-17T19:08:47Z</time>
      </trkpt>
      <trkpt lat="42.9025530" lon="-8.4232800">
        <ele>352.3</ele>
        <time>2020-04-17T19:08:49Z</time>
      </trkpt>
      <trkpt lat="42.9024830" lon="-8.4233320">
        <ele>352.6</ele>
        <time>2020-04-17T19:08:51Z</time>
      </trkpt>
      <trkpt lat="42.9024140" lon="-8.4233830">
        <ele>352.8</ele>
        <time>2020-04-17T19:08:53Z</time>
      </trkpt>
      <trkpt lat="42.9023460" lon="-8.4234340">
        <ele>353.1</ele>
        <time>2020-04-17T19:08:55Z</time>
      </trkpt>
      <trkpt lat="42.9022770" lon="-8.4234850">
        <ele>353.3</ele>
        <time>2020-04-17T19:08:57Z</time>
      </trkpt>
      <trkpt lat="42.9020610" lon="-8.4236330">
        <ele>353.6</ele>
        <time>2020-04-17T19:08:59Z</time>
      </trkpt>
      <trkpt lat="42.9019310" lon="-8.4237020">
        <ele>353.9</ele>
        <time>2020-04-17T19:09:01Z</time>
      </trkpt>
      <trkpt lat="42.9017940" lon="-8.4237830">
        <ele>354.1</ele>
        <time>2020-04-17T19:09:03Z</time>
      </trkpt>
      <trkpt lat="42.9016560" lon="-8.4239340">
        <ele>354.3</ele>
        <time>2020-04-17T19:09:05Z</time>
      </trkpt>
      <trkpt lat="42.9016400" lon="-8.4241470">
        <ele>354.4</ele>
        <time>2020-04-17T19:09:07Z</time>
      </trkpt>
      <trkpt lat="42.9015680" lon="-8.4243490">
        <ele>354.4</ele>
        <time>2020-04-17T19:09:09Z</time>
      </trkpt>
      <trkpt lat="42.9013950" lon="-8.4244420">
        <ele>354.2</ele>
        <time>2020-04-17T19:09:11Z</time>
      </trkpt>
      <trkpt lat="42.9012730" lon="-8.4245890">
        <ele>353.8</ele>
        <time>2020-04-17T19:09:13Z</time>
      </trkpt>
      <trkpt lat="42.9011650" lon="-8.4248270">
        <ele>353.3</ele>
        <time>2020-04-17T19:09:15Z</time>
      </trkpt>
      <trkpt lat="42.9011300" lon="-8.4249990">
        <ele>352.9</ele>
        <time>2020-04-17T19:09:17Z</time>
      </trkpt>
      <trkpt lat="42.9010960" lon="-8.4251680">
        <ele>352.4</ele>
        <time>2020-04-17T19:09:19Z</time>
      </trkpt>
      <trkpt lat="42.9010620" lon="-8.4253330">
        <ele>351.7</ele>
        <time>2020-04-17T19:09:21Z</time>
      </trkpt>
      <trkpt lat="42.9010070" lon="-8.4257090">
        <ele>351.0</ele>
        <time>2020-04-17T19:09:23Z</time>
      </trkpt>
      <trkpt lat="42.9009870" lon="-8.4260020">
        <ele>350.6</ele>
        <time>2020-04-17T19:09:25Z</time>
      </trkpt>
      <trkpt lat="42.9009690" lon="-8.4261960">
        <ele>350.1</ele>
        <time>2020-04-17T19:09:27Z</time>
      </trkpt>
      <trkpt lat="42.9009430" lon="-8.4265110">
        <ele>349.0</ele>
        <time>2020-04-17T19:09:29Z</time>
      </trkpt>
      <trkpt lat="42.9009200" lon="-8.4268350">
        <ele>347.9</ele>
        <time>2020-04-17T19:09:31Z</time>
      </trkpt>
      <trkpt lat="42.9009040" lon="-8.4270500">
        <ele>347.2</ele>
        <time>2020-04-17T19:09:33Z</time>
      </trkpt>
      <trkpt lat="42.9008890" lon="-8.4272670">
        <ele>346.6</ele>
        <time>2020-04-17T19:09:35Z</time>
      </trkpt>
      <trkpt lat="42.9008590" lon="-8.4277040">
        <ele>345.4</ele>
        <time>2020-04-17T19:09:37Z</time>
      </trkpt>
      <trkpt lat="42.9008510" lon="-8.4279210">
        <ele>344.9</ele>
        <time>2020-04-17T19:09:39Z</time>
      </trkpt>
      <trkpt lat="42.9008420" lon="-8.4281340">
        <ele>344.4</ele>
        <time>2020-04-17T19:09:41Z</time>
      </trkpt>
      <trkpt lat="42.9008230" lon="-8.4286010">
        <ele>343.3</ele>
        <time>2020-04-17T19:09:43Z</time>
      </trkpt>
      <trkpt lat="42.9008150" lon="-8.4288180">
        <ele>342.8</ele>
        <time>2020-04-17T19:09:45Z</time>
      </trkpt>
      <trkpt lat="42.9008060" lon="-8.4290380">
        <ele>342.3</ele>
        <time>2020-04-17T19:09:47Z</time>
      </trkpt>
      <trkpt lat="42.9007970" lon="-8.4292610">
        <ele>341.8</ele>
        <time>2020-04-17T19:09:49Z</time>
      </trkpt>
      <trkpt lat="42.9007790" lon="-8.4297380">
        <ele>340.7</ele>
        <time>2020-04-17T19:09:51Z</time>
      </trkpt>
      <trkpt lat="42.9007660" lon="-8.4300630">
        <ele>340.1</ele>
        <time>2020-04-17T19:09:53Z</time>
      </trkpt>
      <trkpt lat="42.9007520" lon="-8.4304140">
        <ele>338.8</ele>
        <time>2020-04-17T19:09:55Z</time>
      </trkpt>
      <trkpt lat="42.9007340" lon="-8.4306890">
        <ele>338.2</ele>
        <time>2020-04-17T19:09:57Z</time>
      </trkpt>
      <trkpt lat="42.9007160" lon="-8.4309420">
        <ele>337.0</ele>
        <time>2020-04-17T19:09:59Z</time>
      </trkpt>
      <trkpt lat="42.9006980" lon="-8.4312070">
        <ele>335.7</ele>
        <time>2020-04-17T19:10:01Z</time>
      </trkpt>
      <trkpt lat="42.9006580" lon="-8.4317850">
        <ele>333.8</ele>
        <time>2020-04-17T19:10:03Z</time>
      </trkpt>
      <trkpt lat="42.9006310" lon="-8.4321690">
        <ele>332.5</ele>
        <time>2020-04-17T19:10:05Z</time>
      </trkpt>
      <trkpt lat="42.9006110" lon="-8.4324390">
        <ele>331.5</ele>
        <time>2020-04-17T19:10:07Z</time>
      </trkpt>
      <trkpt lat="42.9005800" lon="-8.4328760">
        <ele>329.8</ele>
        <time>2020-04-17T19:10:09Z</time>
      </trkpt>
      <trkpt lat="42.9005610" lon="-8.4331250">
        <ele>328.9</ele>
        <time>2020-04-17T19:10:11Z</time>
      </trkpt>
      <trkpt lat="42.9005440" lon="-8.4333710">
        <ele>328.0</ele>
        <time>2020-04-17T19:10:13Z</time>
      </trkpt>
      <trkpt lat="42.9005050" lon="-8.4339050">
        <ele>326.1</ele>
        <time>2020-04-17T19:10:15Z</time>
      </trkpt>
      <trkpt lat="42.9004880" lon="-8.4341500">
        <ele>325.1</ele>
        <time>2020-04-17T19:10:17Z</time>
      </trkpt>
      <trkpt lat="42.9004700" lon="-8.4344010">
        <ele>324.2</ele>
        <time>2020-04-17T19:10:19Z</time>
      </trkpt>
      <trkpt lat="42.9004260" lon="-8.4349410">
        <ele>322.1</ele>
        <time>2020-04-17T19:10:21Z</time>
      </trkpt>
      <trkpt lat="42.9003960" lon="-8.4351960">
        <ele>321.0</ele>
        <time>2020-04-17T19:10:23Z</time>
      </trkpt>
      <trkpt lat="42.9003410" lon="-8.4356080">
        <ele>319.5</ele>
        <time>2020-04-17T19:10:25Z</time>
      </trkpt>
      <trkpt lat="42.9002870" lon="-8.4359620">
        <ele>318.8</ele>
        <time>2020-04-17T19:10:27Z</time>
      </trkpt>
      <trkpt lat="42.9002510" lon="-8.4362020">
        <ele>318.3</ele>
        <time>2020-04-17T19:10:29Z</time>
      </trkpt>
      <trkpt lat="42.9002140" lon="-8.4364400">
        <ele>317.9</ele>
        <time>2020-04-17T19:10:31Z</time>
      </trkpt>
      <trkpt lat="42.9001380" lon="-8.4369350">
        <ele>316.9</ele>
        <time>2020-04-17T19:10:33Z</time>
      </trkpt>
      <trkpt lat="42.9001000" lon="-8.4371780">
        <ele>316.2</ele>
        <time>2020-04-17T19:10:35Z</time>
      </trkpt>
      <trkpt lat="42.9000620" lon="-8.4374250">
        <ele>315.3</ele>
        <time>2020-04-17T19:10:37Z</time>
      </trkpt>
      <trkpt lat="42.8999760" lon="-8.4379770">
        <ele>313.4</ele>
        <time>2020-04-17T19:10:39Z</time>
      </trkpt>
      <trkpt lat="42.8999240" lon="-8.4383180">
        <ele>312.8</ele>
        <time>2020-04-17T19:10:41Z</time>
      </trkpt>
      <trkpt lat="42.8998830" lon="-8.4385790">
        <ele>312.1</ele>
        <time>2020-04-17T19:10:43Z</time>
      </trkpt>
      <trkpt lat="42.8998090" lon="-8.4390580">
        <ele>310.6</ele>
        <time>2020-04-17T19:10:45Z</time>
      </trkpt>
      <trkpt lat="42.8997680" lon="-8.4393180">
        <ele>309.8</ele>
        <time>2020-04-17T19:10:47Z</time>
      </trkpt>
      <trkpt lat="42.8997300" lon="-8.4395650">
        <ele>309.0</ele>
        <time>2020-04-17T19:10:49Z</time>
      </trkpt>
      <trkpt lat="42.8996920" lon="-8.4398070">
        <ele>308.2</ele>
        <time>2020-04-17T19:10:51Z</time>
      </trkpt>
      <trkpt lat="42.8996040" lon="-8.4403660">
        <ele>306.4</ele>
        <time>2020-04-17T19:10:53Z</time>
      </trkpt>
      <trkpt lat="42.8995640" lon="-8.4405990">
        <ele>305.6</ele>
        <time>2020-04-17T19:10:55Z</time>
      </trkpt>
      <trkpt lat="42.8995250" lon="-8.4408330">
        <ele>304.7</ele>
        <time>2020-04-17T19:10:57Z</time>
      </trkpt>
      <trkpt lat="42.8994380" lon="-8.4413530">
        <ele>303.3</ele>
        <time>2020-04-17T19:10:59Z</time>
      </trkpt>
      <trkpt lat="42.8994040" lon="-8.4415780">
        <ele>302.8</ele>
        <time>2020-04-17T19:11:01Z</time>
      </trkpt>
      <trkpt lat="42.8993720" lon="-8.4417900">
        <ele>302.3</ele>
        <time>2020-04-17T19:11:03Z</time>
      </trkpt>
      <trkpt lat="42.8993410" lon="-8.4419910">
        <ele>302.0</ele>
        <time>2020-04-17T19:11:05Z</time>
      </trkpt>
      <trkpt lat="42.8992720" lon="-8.4424720">
        <ele>301.4</ele>
        <time>2020-04-17T19:11:07Z</time>
      </trkpt>
      <trkpt lat="42.8992490" lon="-8.4426660">
        <ele>301.2</ele>
        <time>2020-04-17T19:11:09Z</time>
      </trkpt>
      <trkpt lat="42.8992070" lon="-8.4430290">
        <ele>300.9</ele>
        <time>2020-04-17T19:11:11Z</time>
      </trkpt>
      <trkpt lat="42.8991930" lon="-8.4432170">
        <ele>301.0</ele>
        <time>2020-04-17T19:11:13Z</time>
      </trkpt>
      <trkpt lat="42.8991800" lon="-8.4434010">
        <ele>301.0</ele>
        <time>2020-04-17T19:11:15Z</time>
      </trkpt>
      <trkpt lat="42.8991670" lon="-8.4435810">
        <ele>301.0</ele>
        <time>2020-04-17T19:11:17Z</time>
      </trkpt>
      <trkpt lat="42.8991480" lon="-8.4439740">
        <ele>300.9</ele>
        <time>2020-04-17T19:11:19Z</time>
      </trkpt>
      <trkpt lat="42.8991470" lon="-8.4442560">
        <ele>300.9</ele>
        <time>2020-04-17T19:11:21Z</time>
      </trkpt>
      <trkpt lat="42.8991650" lon="-8.4445020">
        <ele>301.0</ele>
        <time>2020-04-17T19:11:23Z</time>
      </trkpt>
      <trkpt lat="42.8991830" lon="-8.4446990">
        <ele>300.9</ele>
        <time>2020-04-17T19:11:25Z</time>
      </trkpt>
      <trkpt lat="42.8992090" lon="-8.4449270">
        <ele>300.5</ele>
        <time>2020-04-17T19:11:27Z</time>
      </trkpt>
      <trkpt lat="42.8992320" lon="-8.4451780">
        <ele>299.7</ele>
        <time>2020-04-17T19:11:29Z</time>
      </trkpt>
      <trkpt lat="42.8992450" lon="-8.4454590">
        <ele>298.7</ele>
        <time>2020-04-17T19:11:31Z</time>
      </trkpt>
      <trkpt lat="42.8992420" lon="-8.4457210">
        <ele>297.8</ele>
        <time>2020-04-17T19:11:33Z</time>
      </trkpt>
      <trkpt lat="42.8992330" lon="-8.4460530">
        <ele>296.7</ele>
        <time>2020-04-17T19:11:35Z</time>
      </trkpt>
      <trkpt lat="42.8992250" lon="-8.4462700">
        <ele>295.9</ele>
        <time>2020-04-17T19:11:37Z</time>
      </trkpt>
      <trkpt lat="42.8992270" lon="-8.4466400">
        <ele>294.5</ele>
        <time>2020-04-17T19:11:39Z</time>
      </trkpt>
      <trkpt lat="42.8992790" lon="-8.4469560">
        <ele>293.4</ele>
        <time>2020-04-17T19:11:41Z</time>
      </trkpt>
      <trkpt lat="42.8993370" lon="-8.4471850">
        <ele>292.7</ele>
        <time>2020-04-17T19:11:43Z</time>
      </trkpt>
      <trkpt lat="42.8994360" lon="-8.4475050">
        <ele>292.1</ele>
        <time>2020-04-17T19:11:45Z</time>
      </trkpt>
      <trkpt lat="42.8995320" lon="-8.4478170">
        <ele>291.5</ele>
        <time>2020-04-17T19:11:47Z</time>
      </trkpt>
      <trkpt lat="42.8996040" lon="-8.4481160">
        <ele>291.2</ele>
        <time>2020-04-17T19:11:49Z</time>
      </trkpt>
      <trkpt lat="42.8996390" lon="-8.4483100">
        <ele>291.2</ele>
        <time>2020-04-17T19:11:51Z</time>
      </trkpt>
      <trkpt lat="42.8996820" lon="-8.4485980">
        <ele>291.3</ele>
        <time>2020-04-17T19:11:53Z</time>
      </trkpt>
      <trkpt lat="42.8997090" lon="-8.4488720">
        <ele>291.4</ele>
        <time>2020-04-17T19:11:55Z</time>
      </trkpt>
      <trkpt lat="42.8997180" lon="-8.4490400">
        <ele>291.6</ele>
        <time>2020-04-17T19:11:57Z</time>
      </trkpt>
      <trkpt lat="42.8997260" lon="-8.4491910">
        <ele>291.9</ele>
        <time>2020-04-17T19:11:59Z</time>
      </trkpt>
      <trkpt lat="42.8997330" lon="-8.4493300">
        <ele>292.2</ele>
        <time>2020-04-17T19:12:01Z</time>
      </trkpt>
      <trkpt lat="42.8997520" lon="-8.4496990">
        <ele>293.1</ele>
        <time>2020-04-17T19:12:03Z</time>
      </trkpt>
      <trkpt lat="42.8997590" lon="-8.4498170">
        <ele>293.4</ele>
        <time>2020-04-17T19:12:05Z</time>
      </trkpt>
      <trkpt lat="42.8997650" lon="-8.4499310">
        <ele>293.8</ele>
        <time>2020-04-17T19:12:07Z</time>
      </trkpt>
      <trkpt lat="42.8997700" lon="-8.4500420">
        <ele>294.1</ele>
        <time>2020-04-17T19:12:09Z</time>
      </trkpt>
      <trkpt lat="42.8997760" lon="-8.4501510">
        <ele>294.4</ele>
        <time>2020-04-17T19:12:11Z</time>
      </trkpt>
      <trkpt lat="42.8997890" lon="-8.4504480">
        <ele>295.3</ele>
        <time>2020-04-17T19:12:13Z</time>
      </trkpt>
      <trkpt lat="42.8997890" lon="-8.4505620">
        <ele>295.7</ele>
        <time>2020-04-17T19:12:15Z</time>
      </trkpt>
      <trkpt lat="42.8997890" lon="-8.4506820">
        <ele>296.0</ele>
        <time>2020-04-17T19:12:17Z</time>
      </trkpt>
      <trkpt lat="42.8997900" lon="-8.4509380">
        <ele>296.5</ele>
        <time>2020-04-17T19:12:19Z</time>
      </trkpt>
      <trkpt lat="42.8997940" lon="-8.4510650">
        <ele>296.8</ele>
        <time>2020-04-17T19:12:21Z</time>
      </trkpt>
      <trkpt lat="42.8997990" lon="-8.4511920">
        <ele>297.1</ele>
        <time>2020-04-17T19:12:23Z</time>
      </trkpt>
      <trkpt lat="42.8998030" lon="-8.4513210">
        <ele>297.5</ele>
        <time>2020-04-17T19:12:25Z</time>
      </trkpt>
      <trkpt lat="42.8998070" lon="-8.4514530">
        <ele>297.8</ele>
        <time>2020-04-17T19:12:27Z</time>
      </trkpt>
      <trkpt lat="42.8998110" lon="-8.4515840">
        <ele>298.2</ele>
        <time>2020-04-17T19:12:29Z</time>
      </trkpt>
      <trkpt lat="42.8998130" lon="-8.4519690">
        <ele>299.5</ele>
        <time>2020-04-17T19:12:31Z</time>
      </trkpt>
      <trkpt lat="42.8998070" lon="-8.4520970">
        <ele>299.9</ele>
        <time>2020-04-17T19:12:33Z</time>
      </trkpt>
      <trkpt lat="42.8998000" lon="-8.4522240">
        <ele>300.4</ele>
        <time>2020-04-17T19:12:35Z</time>
      </trkpt>
      <trkpt lat="42.8997940" lon="-8.4523480">
        <ele>300.8</ele>
        <time>2020-04-17T19:12:37Z</time>
      </trkpt>
      <trkpt lat="42.8997770" lon="-8.4526890">
        <ele>302.0</ele>
        <time>2020-04-17T19:12:39Z</time>
      </trkpt>
      <trkpt lat="42.8997710" lon="-8.4528110">
        <ele>302.5</ele>
        <time>2020-04-17T19:12:41Z</time>
      </trkpt>
      <trkpt lat="42.8997650" lon="-8.4529290">
        <ele>302.8</ele>
        <time>2020-04-17T19:12:43Z</time>
      </trkpt>
      <trkpt lat="42.8997590" lon="-8.4530470">
        <ele>303.2</ele>
        <time>2020-04-17T19:12:45Z</time>
      </trkpt>
      <trkpt lat="42.8997530" lon="-8.4531570">
        <ele>303.6</ele>
        <time>2020-04-17T19:12:47Z</time>
      </trkpt>
      <trkpt lat="42.8997480" lon="-8.4532640">
        <ele>303.9</ele>
        <time>2020-04-17T19:12:49Z</time>
      </trkpt>
      <trkpt lat="42.8997330" lon="-8.4535880">
        <ele>304.5</ele>
        <time>2020-04-17T19:12:51Z</time>
      </trkpt>
      <trkpt lat="42.8997290" lon="-8.4536930">
        <ele>304.7</ele>
        <time>2020-04-17T19:12:53Z</time>
      </trkpt>
      <trkpt lat="42.8997260" lon="-8.4537960">
        <ele>305.1</ele>
        <time>2020-04-17T19:12:55Z</time>
      </trkpt>
      <trkpt lat="42.8997220" lon="-8.4538980">
        <ele>305.4</ele>
        <time>2020-04-17T19:12:57Z</time>
      </trkpt>
      <trkpt lat="42.8997180" lon="-8.4540000">
        <ele>305.8</ele>
        <time>2020-04-17T19:12:59Z</time>
      </trkpt>
      <trkpt lat="42.8997150" lon="-8.4541040">
        <ele>306.3</ele>
        <time>2020-04-17T19:13:01Z</time>
      </trkpt>
      <trkpt lat="42.8997110" lon="-8.4542100">
        <ele>306.7</ele>
        <time>2020-04-17T19:13:03Z</time>
      </trkpt>
      <trkpt lat="42.8996970" lon="-8.4545800">
        <ele>308.1</ele>
        <time>2020-04-17T19:13:05Z</time>
      </trkpt>
      <trkpt lat="42.8996940" lon="-8.4546850">
        <ele>308.5</ele>
        <time>2020-04-17T19:13:07Z</time>
      </trkpt>
      <trkpt lat="42.8996900" lon="-8.4547900">
        <ele>308.9</ele>
        <time>2020-04-17T19:13:09Z</time>
      </trkpt>
      <trkpt lat="42.8996870" lon="-8.4548950">
        <ele>309.3</ele>
        <time>2020-04-17T19:13:11Z</time>
      </trkpt>
      <trkpt lat="42.8996830" lon="-8.4549970">
        <ele>309.6</ele>
        <time>2020-04-17T19:13:13Z</time>
      </trkpt>
      <trkpt lat="42.8996800" lon="-8.4550990">
        <ele>309.9</ele>
        <time>2020-04-17T19:13:15Z</time>
      </trkpt>
      <trkpt lat="42.8996660" lon="-8.4554650">
        <ele>310.9</ele>
        <time>2020-04-17T19:13:17Z</time>
      </trkpt>
      <trkpt lat="42.8996620" lon="-8.4555690">
        <ele>311.2</ele>
        <time>2020-04-17T19:13:19Z</time>
      </trkpt>
      <trkpt lat="42.8996590" lon="-8.4556770">
        <ele>311.4</ele>
        <time>2020-04-17T19:13:21Z</time>
      </trkpt>
      <trkpt lat="42.8996550" lon="-8.4557870">
        <ele>311.6</ele>
        <time>2020-04-17T19:13:23Z</time>
      </trkpt>
      <trkpt lat="42.8996510" lon="-8.4558970">
        <ele>311.8</ele>
        <time>2020-04-17T19:13:25Z</time>
      </trkpt>
      <trkpt lat="42.8996470" lon="-8.4560100">
        <ele>312.0</ele>
        <time>2020-04-17T19:13:27Z</time>
      </trkpt>
      <trkpt lat="42.8996430" lon="-8.4561230">
        <ele>312.1</ele>
        <time>2020-04-17T19:13:29Z</time>
      </trkpt>
      <trkpt lat="42.8996290" lon="-8.4565010">
        <ele>312.5</ele>
        <time>2020-04-17T19:13:31Z</time>
      </trkpt>
      <trkpt lat="42.8996280" lon="-8.4566450">
        <ele>312.5</ele>
        <time>2020-04-17T19:13:33Z</time>
      </trkpt>
      <trkpt lat="42.8996290" lon="-8.4568080">
        <ele>312.6</ele>
        <time>2020-04-17T19:13:35Z</time>
      </trkpt>
      <trkpt lat="42.8996300" lon="-8.4569140">
        <ele>312.6</ele>
        <time>2020-04-17T19:13:37Z</time>
      </trkpt>
      <trkpt lat="42.8996310" lon="-8.4570980">
        <ele>312.7</ele>
        <time>2020-04-17T19:13:39Z</time>
      </trkpt>
      <trkpt lat="42.8996320" lon="-8.4572060">
        <ele>312.8</ele>
        <time>2020-04-17T19:13:41Z</time>
      </trkpt>
      <trkpt lat="42.8996330" lon="-8.4573260">
        <ele>312.8</ele>
        <time>2020-04-17T19:13:43Z</time>
      </trkpt>
      <trkpt lat="42.8996340" lon="-8.4574560">
        <ele>312.8</ele>
        <time>2020-04-17T19:13:45Z</time>
      </trkpt>
      <trkpt lat="42.8996360" lon="-8.4577600">
        <ele>312.8</ele>
        <time>2020-04-17T19:13:47Z</time>
      </trkpt>
      <trkpt lat="42.8996290" lon="-8.4579370">
        <ele>312.7</ele>
        <time>2020-04-17T19:13:49Z</time>
      </trkpt>
      <trkpt lat="42.8996170" lon="-8.4580870">
        <ele>312.5</ele>
        <time>2020-04-17T19:13:51Z</time>
      </trkpt>
      <trkpt lat="42.8996050" lon="-8.4582410">
        <ele>312.4</ele>
        <time>2020-04-17T19:13:53Z</time>
      </trkpt>
      <trkpt lat="42.8995610" lon="-8.4585650">
        <ele>312.1</ele>
        <time>2020-04-17T19:13:55Z</time>
      </trkpt>
      <trkpt lat="42.8995250" lon="-8.4587120">
        <ele>312.0</ele>
        <time>2020-04-17T19:13:57Z</time>
      </trkpt>
      <trkpt lat="42.8994890" lon="-8.4588550">
        <ele>311.9</ele>
        <time>2020-04-17T19:13:59Z</time>
      </trkpt>
      <trkpt lat="42.8994120" lon="-8.4591450">
        <ele>311.7</ele>
        <time>2020-04-17T19:14:01Z</time>
      </trkpt>
      <trkpt lat="42.8993730" lon="-8.4592800">
        <ele>311.6</ele>
        <time>2020-04-17T19:14:03Z</time>
      </trkpt>
      <trkpt lat="42.8993350" lon="-8.4594130">
        <ele>311.7</ele>
        <time>2020-04-17T19:14:05Z</time>
      </trkpt>
      <trkpt lat="42.8992530" lon="-8.4597010">
        <ele>311.8</ele>
        <time>2020-04-17T19:14:07Z</time>
      </trkpt>
      <trkpt lat="42.8992180" lon="-8.4598300">
        <ele>311.7</ele>
        <time>2020-04-17T19:14:09Z</time>
      </trkpt>
      <trkpt lat="42.8991610" lon="-8.4600360">
        <ele>311.7</ele>
        <time>2020-04-17T19:14:11Z</time>
      </trkpt>
      <trkpt lat="42.8991270" lon="-8.4601630">
        <ele>311.8</ele>
        <time>2020-04-17T19:14:13Z</time>
      </trkpt>
      <trkpt lat="42.8990670" lon="-8.4603800">
        <ele>311.9</ele>
        <time>2020-04-17T19:14:15Z</time>
      </trkpt>
      <trkpt lat="42.8990330" lon="-8.4605020">
        <ele>312.0</ele>
        <time>2020-04-17T19:14:17Z</time>
      </trkpt>
      <trkpt lat="42.8989980" lon="-8.4606240">
        <ele>312.0</ele>
        <time>2020-04-17T19:14:19Z</time>
      </trkpt>
      <trkpt lat="42.8989340" lon="-8.4608960">
        <ele>312.3</ele>
        <time>2020-04-17T19:14:21Z</time>
      </trkpt>
      <trkpt lat="42.8989060" lon="-8.4610960">
        <ele>312.6</ele>
        <time>2020-04-17T19:14:23Z</time>
      </trkpt>
      <trkpt lat="42.8989020" lon="-8.4612220">
        <ele>312.8</ele>
        <time>2020-04-17T19:14:25Z</time>
      </trkpt>
      <trkpt lat="42.8989000" lon="-8.4614320">
        <ele>313.2</ele>
        <time>2020-04-17T19:14:27Z</time>
      </trkpt>
      <trkpt lat="42.8989140" lon="-8.4615570">
        <ele>313.4</ele>
        <time>2020-04-17T19:14:29Z</time>
      </trkpt>
      <trkpt lat="42.8989290" lon="-8.4616830">
        <ele>313.7</ele>
        <time>2020-04-17T19:14:31Z</time>
      </trkpt>
      <trkpt lat="42.8989640" lon="-8.4619110">
        <ele>314.2</ele>
        <time>2020-04-17T19:14:33Z</time>
      </trkpt>
      <trkpt lat="42.8989900" lon="-8.4620380">
        <ele>314.5</ele>
        <time>2020-04-17T19:14:35Z</time>
      </trkpt>
      <trkpt lat="42.8990360" lon="-8.4622640">
        <ele>315.1</ele>
        <time>2020-04-17T19:14:37Z</time>
      </trkpt>
      <trkpt lat="42.8990630" lon="-8.4623830">
        <ele>315.4</ele>
        <time>2020-04-17T19:14:39Z</time>
      </trkpt>
      <trkpt lat="42.8991110" lon="-8.4625970">
        <ele>315.9</ele>
        <time>2020-04-17T19:14:41Z</time>
      </trkpt>
      <trkpt lat="42.8991340" lon="-8.4627070">
        <ele>316.2</ele>
        <time>2020-04-17T19:14:43Z</time>
      </trkpt>
      <trkpt lat="42.8991700" lon="-8.4628730">
        <ele>316.7</ele>
        <time>2020-04-17T19:14:45Z</time>
      </trkpt>
      <trkpt lat="42.8991930" lon="-8.4629750">
        <ele>317.2</ele>
        <time>2020-04-17T19:14:47Z</time>
      </trkpt>
      <trkpt lat="42.8992160" lon="-8.4630760">
        <ele>317.6</ele>
        <time>2020-04-17T19:14:49Z</time>
      </trkpt>
      <trkpt lat="42.8992680" lon="-8.4633070">
        <ele>318.7</ele>
        <time>2020-04-17T19:14:51Z</time>
      </trkpt>
      <trkpt lat="42.8992890" lon="-8.4634340">
        <ele>319.3</ele>
        <time>2020-04-17T19:14:53Z</time>
      </trkpt>
      <trkpt lat="42.8992940" lon="-8.4635420">
        <ele>319.8</ele>
        <time>2020-04-17T19:14:55Z</time>
      </trkpt>
      <trkpt lat="42.8993010" lon="-8.4636550">
        <ele>320.3</ele>
        <time>2020-04-17T19:14:57Z</time>
      </trkpt>
      <trkpt lat="42.8993070" lon="-8.4637710">
        <ele>320.8</ele>
        <time>2020-04-17T19:14:59Z</time>
      </trkpt>
      <trkpt lat="42.8993070" lon="-8.4640520">
        <ele>322.1</ele>
        <time>2020-04-17T19:15:01Z</time>
      </trkpt>
      <trkpt lat="42.8992920" lon="-8.4641680">
        <ele>322.6</ele>
        <time>2020-04-17T19:15:03Z</time>
      </trkpt>
      <trkpt lat="42.8992760" lon="-8.4642860">
        <ele>323.2</ele>
        <time>2020-04-17T19:15:05Z</time>
      </trkpt>
      <trkpt lat="42.8992600" lon="-8.4644060">
        <ele>323.9</ele>
        <time>2020-04-17T19:15:07Z</time>
      </trkpt>
      <trkpt lat="42.8992040" lon="-8.4646780">
        <ele>325.2</ele>
        <time>2020-04-17T19:15:09Z</time>
      </trkpt>
      <trkpt lat="42.8991720" lon="-8.4647720">
        <ele>325.6</ele>
        <time>2020-04-17T19:15:11Z</time>
      </trkpt>
      <trkpt lat="42.8991430" lon="-8.4648540">
        <ele>326.0</ele>
        <time>2020-04-17T19:15:13Z</time>
      </trkpt>
      <trkpt lat="42.8991180" lon="-8.4649270">
        <ele>326.4</ele>
        <time>2020-04-17T19:15:15Z</time>
      </trkpt>
      <trkpt lat="42.8990950" lon="-8.4649940">
        <ele>326.7</ele>
        <time>2020-04-17T19:15:17Z</time>
      </trkpt>
      <trkpt lat="42.8990160" lon="-8.4652170">
        <ele>327.7</ele>
        <time>2020-04-17T19:15:19Z</time>
      </trkpt>
      <trkpt lat="42.8989830" lon="-8.4652650">
        <ele>327.9</ele>
        <time>2020-04-17T19:15:21Z</time>
      </trkpt>
      <trkpt lat="42.8989510" lon="-8.4653110">
        <ele>328.2</ele>
        <time>2020-04-17T19:15:23Z</time>
      </trkpt>
      <trkpt lat="42.8989200" lon="-8.4653570">
        <ele>328.5</ele>
        <time>2020-04-17T19:15:25Z</time>
      </trkpt>
      <trkpt lat="42.8988890" lon="-8.4654020">
        <ele>328.8</ele>
        <time>2020-04-17T19:15:27Z</time>
      </trkpt>
      <trkpt lat="42.8988580" lon="-8.4654480">
        <ele>329.2</ele>
        <time>2020-04-17T19:15:29Z</time>
      </trkpt>
      <trkpt lat="42.8988260" lon="-8.4654930">
        <ele>329.6</ele>
        <time>2020-04-17T19:15:31Z</time>
      </trkpt>
      <trkpt lat="42.8987960" lon="-8.4655380">
        <ele>330.0</ele>
        <time>2020-04-17T19:15:33Z</time>
      </trkpt>
      <trkpt lat="42.8986710" lon="-8.4657010">
        <ele>331.5</ele>
        <time>2020-04-17T19:15:35Z</time>
      </trkpt>
      <trkpt lat="42.8986310" lon="-8.4657320">
        <ele>331.9</ele>
        <time>2020-04-17T19:15:37Z</time>
      </trkpt>
      <trkpt lat="42.8985920" lon="-8.4657620">
        <ele>332.3</ele>
        <time>2020-04-17T19:15:39Z</time>
      </trkpt>
      <trkpt lat="42.8985520" lon="-8.4657930">
        <ele>332.7</ele>
        <time>2020-04-17T19:15:41Z</time>
      </trkpt>
      <trkpt lat="42.8985130" lon="-8.4658230">
        <ele>333.0</ele>
        <time>2020-04-17T19:15:43Z</time>
      </trkpt>
      <trkpt lat="42.8984730" lon="-8.4658530">
        <ele>333.4</ele>
        <time>2020-04-17T19:15:45Z</time>
      </trkpt>
      <trkpt lat="42.8983400" lon="-8.4659540">
        <ele>334.2</ele>
        <time>2020-04-17T19:15:47Z</time>
      </trkpt>
      <trkpt lat="42.8982940" lon="-8.4659890">
        <ele>334.3</ele>
        <time>2020-04-17T19:15:49Z</time>
      </trkpt>
      <trkpt lat="42.8982400" lon="-8.4660310">
        <ele>334.4</ele>
        <time>2020-04-17T19:15:51Z</time>
      </trkpt>
      <trkpt lat="42.8981240" lon="-8.4661180">
        <ele>335.0</ele>
        <time>2020-04-17T19:15:53Z</time>
      </trkpt>
      <trkpt lat="42.8980570" lon="-8.4661490">
        <ele>335.4</ele>
        <time>2020-04-17T19:15:55Z</time>
      </trkpt>
      <trkpt lat="42.8979910" lon="-8.4661800">
        <ele>335.8</ele>
        <time>2020-04-17T19:15:57Z</time>
      </trkpt>
      <trkpt lat="42.8979250" lon="-8.4662110">
        <ele>336.2</ele>
        <time>2020-04-17T19:15:59Z</time>
      </trkpt>
      <trkpt lat="42.8978580" lon="-8.4662420">
        <ele>336.6</ele>
        <time>2020-04-17T19:16:01Z</time>
      </trkpt>
      <trkpt lat="42.8977910" lon="-8.4662730">
        <ele>337.0</ele>
        <time>2020-04-17T19:16:03Z</time>
      </trkpt>
      <trkpt lat="42.8977230" lon="-8.4663040">
        <ele>337.4</ele>
        <time>2020-04-17T19:16:05Z</time>
      </trkpt>
      <trkpt lat="42.8976560" lon="-8.4663350">
        <ele>337.8</ele>
        <time>2020-04-17T19:16:07Z</time>
      </trkpt>
      <trkpt lat="42.8975890" lon="-8.4663670">
        <ele>338.2</ele>
        <time>2020-04-17T19:16:09Z</time>
      </trkpt>
      <trkpt lat="42.8973190" lon="-8.4665000">
        <ele>339.3</ele>
        <time>2020-04-17T19:16:11Z</time>
      </trkpt>
      <trkpt lat="42.8972460" lon="-8.4665460">
        <ele>339.6</ele>
        <time>2020-04-17T19:16:13Z</time>
      </trkpt>
      <trkpt lat="42.8971080" lon="-8.4666410">
        <ele>340.1</ele>
        <time>2020-04-17T19:16:15Z</time>
      </trkpt>
      <trkpt lat="42.8970340" lon="-8.4667100">
        <ele>340.2</ele>
        <time>2020-04-17T19:16:17Z</time>
      </trkpt>
      <trkpt lat="42.8969290" lon="-8.4668260">
        <ele>340.4</ele>
        <time>2020-04-17T19:16:19Z</time>
      </trkpt>
      <trkpt lat="42.8968340" lon="-8.4669600">
        <ele>340.6</ele>
        <time>2020-04-17T19:16:21Z</time>
      </trkpt>
      <trkpt lat="42.8967820" lon="-8.4670560">
        <ele>340.8</ele>
        <time>2020-04-17T19:16:23Z</time>
      </trkpt>
      <trkpt lat="42.8967070" lon="-8.4672200">
        <ele>341.2</ele>
        <time>2020-04-17T19:16:25Z</time>
      </trkpt>
      <trkpt lat="42.8966480" lon="-8.4673920">
        <ele>341.4</ele>
        <time>2020-04-17T19:16:27Z</time>
      </trkpt>
      <trkpt lat="42.8966250" lon="-8.4675040">
        <ele>341.5</ele>
        <time>2020-04-17T19:16:29Z</time>
      </trkpt>
      <trkpt lat="42.8965970" lon="-8.4676760">
        <ele>341.8</ele>
        <time>2020-04-17T19:16:31Z</time>
      </trkpt>
      <trkpt lat="42.8965850" lon="-8.4677850">
        <ele>341.9</ele>
        <time>2020-04-17T19:16:33Z</time>
      </trkpt>
      <trkpt lat="42.8965730" lon="-8.4679780">
        <ele>342.3</ele>
        <time>2020-04-17T19:16:35Z</time>
      </trkpt>
      <trkpt lat="42.8965750" lon="-8.4680830">
        <ele>342.5</ele>
        <time>2020-04-17T19:16:37Z</time>
      </trkpt>
      <trkpt lat="42.8965770" lon="-8.4681850">
        <ele>342.8</ele>
        <time>2020-04-17T19:16:39Z</time>
      </trkpt>
      <trkpt lat="42.8965780" lon="-8.4682860">
        <ele>343.0</ele>
        <time>2020-04-17T19:16:41Z</time>
      </trkpt>
      <trkpt lat="42.8965800" lon="-8.4683850">
        <ele>343.2</ele>
        <time>2020-04-17T19:16:43Z</time>
      </trkpt>
      <trkpt lat="42.8965820" lon="-8.4684840">
        <ele>343.5</ele>
        <time>2020-04-17T19:16:45Z</time>
      </trkpt>
      <trkpt lat="42.8965880" lon="-8.4687980">
        <ele>344.4</ele>
        <time>2020-04-17T19:16:47Z</time>
      </trkpt>
      <trkpt lat="42.8965900" lon="-8.4688980">
        <ele>344.7</ele>
        <time>2020-04-17T19:16:49Z</time>
      </trkpt>
      <trkpt lat="42.8965920" lon="-8.4689960">
        <ele>345.0</ele>
        <time>2020-04-17T19:16:51Z</time>
      </trkpt>
      <trkpt lat="42.8965940" lon="-8.4690940">
        <ele>345.3</ele>
        <time>2020-04-17T19:16:53Z</time>
      </trkpt>
      <trkpt lat="42.8965960" lon="-8.4691910">
        <ele>345.7</ele>
        <time>2020-04-17T19:16:55Z</time>
      </trkpt>
      <trkpt lat="42.8965980" lon="-8.4692880">
        <ele>346.0</ele>
        <time>2020-04-17T19:16:57Z</time>
      </trkpt>
      <trkpt lat="42.8965990" lon="-8.4696000">
        <ele>347.4</ele>
        <time>2020-04-17T19:16:59Z</time>
      </trkpt>
      <trkpt lat="42.8965960" lon="-8.4696970">
        <ele>347.7</ele>
        <time>2020-04-17T19:17:01Z</time>
      </trkpt>
      <trkpt lat="42.8965930" lon="-8.4697940">
        <ele>348.1</ele>
        <time>2020-04-17T19:17:03Z</time>
      </trkpt>
      <trkpt lat="42.8965900" lon="-8.4698910">
        <ele>348.5</ele>
        <time>2020-04-17T19:17:05Z</time>
      </trkpt>
      <trkpt lat="42.8965750" lon="-8.4701230">
        <ele>349.3</ele>
        <time>2020-04-17T19:17:07Z</time>
      </trkpt>
      <trkpt lat="42.8965560" lon="-8.4702590">
        <ele>349.8</ele>
        <time>2020-04-17T19:17:09Z</time>
      </trkpt>
      <trkpt lat="42.8965260" lon="-8.4703990">
        <ele>350.4</ele>
        <time>2020-04-17T19:17:11Z</time>
      </trkpt>
      <trkpt lat="42.8964960" lon="-8.4704870">
        <ele>350.7</ele>
        <time>2020-04-17T19:17:13Z</time>
      </trkpt>
      <trkpt lat="42.8964670" lon="-8.4705740">
        <ele>351.0</ele>
        <time>2020-04-17T19:17:15Z</time>
      </trkpt>
      <trkpt lat="42.8964040" lon="-8.4707330">
        <ele>351.6</ele>
        <time>2020-04-17T19:17:17Z</time>
      </trkpt>
      <trkpt lat="42.8963650" lon="-8.4708220">
        <ele>351.9</ele>
        <time>2020-04-17T19:17:19Z</time>
      </trkpt>
      <trkpt lat="42.8963250" lon="-8.4709140">
        <ele>352.2</ele>
        <time>2020-04-17T19:17:21Z</time>
      </trkpt>
      <trkpt lat="42.8962840" lon="-8.4710070">
        <ele>352.5</ele>
        <time>2020-04-17T19:17:23Z</time>
      </trkpt>
      <trkpt lat="42.8962420" lon="-8.4711030">
        <ele>352.9</ele>
        <time>2020-04-17T19:17:25Z</time>
      </trkpt>
      <trkpt lat="42.8962000" lon="-8.4711980">
        <ele>353.2</ele>
        <time>2020-04-17T19:17:27Z</time>
      </trkpt>
      <trkpt lat="42.8960620" lon="-8.4715130">
        <ele>354.5</ele>
        <time>2020-04-17T19:17:29Z</time>
      </trkpt>
      <trkpt lat="42.8960190" lon="-8.4716120">
        <ele>354.8</ele>
        <time>2020-04-17T19:17:31Z</time>
      </trkpt>
      <trkpt lat="42.8959770" lon="-8.4717080">
        <ele>355.2</ele>
        <time>2020-04-17T19:17:33Z</time>
      </trkpt>
      <trkpt lat="42.8959330" lon="-8.4718080">
        <ele>355.5</ele>
        <time>2020-04-17T19:17:35Z</time>
      </trkpt>
      <trkpt lat="42.8958910" lon="-8.4719050">
        <ele>355.8</ele>
        <time>2020-04-17T19:17:37Z</time>
      </trkpt>
      <trkpt lat="42.8958470" lon="-8.4720040">
        <ele>356.1</ele>
        <time>2020-04-17T19:17:39Z</time>
      </trkpt>
      <trkpt lat="42.8957090" lon="-8.4723200">
        <ele>356.9</ele>
        <time>2020-04-17T19:17:41Z</time>
      </trkpt>
      <trkpt lat="42.8956640" lon="-8.4724230">
        <ele>357.2</ele>
        <time>2020-04-17T19:17:43Z</time>
      </trkpt>
      <trkpt lat="42.8956170" lon="-8.4725290">
        <ele>357.4</ele>
        <time>2020-04-17T19:17:45Z</time>
      </trkpt>
      <trkpt lat="42.8955690" lon="-8.4726410">
        <ele>357.6</ele>
        <time>2020-04-17T19:17:47Z</time>
      </trkpt>
      <trkpt lat="42.8955200" lon="-8.4727530">
        <ele>357.8</ele>
        <time>2020-04-17T19:17:49Z</time>
      </trkpt>
      <trkpt lat="42.8954690" lon="-8.4728690">
        <ele>358.0</ele>
        <time>2020-04-17T19:17:51Z</time>
      </trkpt>
      <trkpt lat="42.8953290" lon="-8.4732080">
        <ele>358.3</ele>
        <time>2020-04-17T19:17:53Z</time>
      </trkpt>
      <trkpt lat="42.8952870" lon="-8.4733310">
        <ele>358.4</ele>
        <time>2020-04-17T19:17:55Z</time>
      </trkpt>
      <trkpt lat="42.8952440" lon="-8.4734570">
        <ele>358.6</ele>
        <time>2020-04-17T19:17:57Z</time>
      </trkpt>
      <trkpt lat="42.8952010" lon="-8.4735830">
        <ele>358.8</ele>
        <time>2020-04-17T19:17:59Z</time>
      </trkpt>
      <trkpt lat="42.8950980" lon="-8.4738840">
        <ele>359.2</ele>
        <time>2020-04-17T19:18:01Z</time>
      </trkpt>
      <trkpt lat="42.8950560" lon="-8.4740060">
        <ele>359.4</ele>
        <time>2020-04-17T19:18:03Z</time>
      </trkpt>
      <trkpt lat="42.8950150" lon="-8.4741260">
        <ele>359.7</ele>
        <time>2020-04-17T19:18:05Z</time>
      </trkpt>
      <trkpt lat="42.8949750" lon="-8.4742440">
        <ele>360.0</ele>
        <time>2020-04-17T19:18:07Z</time>
      </trkpt>
      <trkpt lat="42.8948680" lon="-8.4745310">
        <ele>360.8</ele>
        <time>2020-04-17T19:18:09Z</time>
      </trkpt>
      <trkpt lat="42.8948040" lon="-8.4746860">
        <ele>361.0</ele>
        <time>2020-04-17T19:18:11Z</time>
      </trkpt>
      <trkpt lat="42.8947440" lon="-8.4748410">
        <ele>361.4</ele>
        <time>2020-04-17T19:18:13Z</time>
      </trkpt>
      <trkpt lat="42.8947040" lon="-8.4749500">
        <ele>361.8</ele>
        <time>2020-04-17T19:18:15Z</time>
      </trkpt>
      <trkpt lat="42.8946310" lon="-8.4751450">
        <ele>362.7</ele>
        <time>2020-04-17T19:18:17Z</time>
      </trkpt>
      <trkpt lat="42.8945730" lon="-8.4752930">
        <ele>363.3</ele>
        <time>2020-04-17T19:18:19Z</time>
      </trkpt>
      <trkpt lat="42.8945330" lon="-8.4753980">
        <ele>363.8</ele>
        <time>2020-04-17T19:18:21Z</time>
      </trkpt>
      <trkpt lat="42.8944950" lon="-8.4755000">
        <ele>364.2</ele>
        <time>2020-04-17T19:18:23Z</time>
      </trkpt>
      <trkpt lat="42.8944180" lon="-8.4757050">
        <ele>364.9</ele>
        <time>2020-04-17T19:18:25Z</time>
      </trkpt>
      <trkpt lat="42.8943570" lon="-8.4758680">
        <ele>365.3</ele>
        <time>2020-04-17T19:18:27Z</time>
      </trkpt>
      <trkpt lat="42.8943210" lon="-8.4759680">
        <ele>365.7</ele>
        <time>2020-04-17T19:18:29Z</time>
      </trkpt>
      <trkpt lat="42.8942680" lon="-8.4761230">
        <ele>366.4</ele>
        <time>2020-04-17T19:18:31Z</time>
      </trkpt>
      <trkpt lat="42.8942390" lon="-8.4762250">
        <ele>367.0</ele>
        <time>2020-04-17T19:18:33Z</time>
      </trkpt>
      <trkpt lat="42.8942110" lon="-8.4763240">
        <ele>367.5</ele>
        <time>2020-04-17T19:18:35Z</time>
      </trkpt>
      <trkpt lat="42.8941500" lon="-8.4765460">
        <ele>368.9</ele>
        <time>2020-04-17T19:18:37Z</time>
      </trkpt>
      <trkpt lat="42.8941290" lon="-8.4766480">
        <ele>369.5</ele>
        <time>2020-04-17T19:18:39Z</time>
      </trkpt>
      <trkpt lat="42.8941090" lon="-8.4767480">
        <ele>370.1</ele>
        <time>2020-04-17T19:18:41Z</time>
      </trkpt>
      <trkpt lat="42.8940880" lon="-8.4768490">
        <ele>370.6</ele>
        <time>2020-04-17T19:18:43Z</time>
      </trkpt>
      <trkpt lat="42.8940680" lon="-8.4769480">
        <ele>371.1</ele>
        <time>2020-04-17T19:18:45Z</time>
      </trkpt>
      <trkpt lat="42.8940300" lon="-8.4772040">
        <ele>371.9</ele>
        <time>2020-04-17T19:18:47Z</time>
      </trkpt>
      <trkpt lat="42.8940230" lon="-8.4773060">
        <ele>372.1</ele>
        <time>2020-04-17T19:18:49Z</time>
      </trkpt>
      <trkpt lat="42.8940160" lon="-8.4774080">
        <ele>372.4</ele>
        <time>2020-04-17T19:18:51Z</time>
      </trkpt>
      <trkpt lat="42.8940090" lon="-8.4775100">
        <ele>372.6</ele>
        <time>2020-04-17T19:18:53Z</time>
      </trkpt>
      <trkpt lat="42.8940030" lon="-8.4776080">
        <ele>372.8</ele>
        <time>2020-04-17T19:18:55Z</time>
      </trkpt>
      <trkpt lat="42.8939840" lon="-8.4778940">
        <ele>373.3</ele>
        <time>2020-04-17T19:18:57Z</time>
      </trkpt>
      <trkpt lat="42.8939750" lon="-8.4780290">
        <ele>373.3</ele>
        <time>2020-04-17T19:18:59Z</time>
      </trkpt>
      <trkpt lat="42.8939670" lon="-8.4781360">
        <ele>373.4</ele>
        <time>2020-04-17T19:19:01Z</time>
      </trkpt>
      <trkpt lat="42.8939560" lon="-8.4782630">
        <ele>373.3</ele>
        <time>2020-04-17T19:19:03Z</time>
      </trkpt>
      <trkpt lat="42.8939320" lon="-8.4785530">
        <ele>373.1</ele>
        <time>2020-04-17T19:19:05Z</time>
      </trkpt>
      <trkpt lat="42.8939090" lon="-8.4787110">
        <ele>372.9</ele>
        <time>2020-04-17T19:19:07Z</time>
      </trkpt>
      <trkpt lat="42.8938830" lon="-8.4788820">
        <ele>372.7</ele>
        <time>2020-04-17T19:19:09Z</time>
      </trkpt>
      <trkpt lat="42.8938340" lon="-8.4792240">
        <ele>372.3</ele>
        <time>2020-04-17T19:19:11Z</time>
      </trkpt>
      <trkpt lat="42.8937960" lon="-8.4794580">
        <ele>372.0</ele>
        <time>2020-04-17T19:19:13Z</time>
      </trkpt>
      <trkpt lat="42.8937620" lon="-8.4796450">
        <ele>371.6</ele>
        <time>2020-04-17T19:19:15Z</time>
      </trkpt>
      <trkpt lat="42.8937040" lon="-8.4799620">
        <ele>371.1</ele>
        <time>2020-04-17T19:19:17Z</time>
      </trkpt>
      <trkpt lat="42.8936690" lon="-8.4801510">
        <ele>370.8</ele>
        <time>2020-04-17T19:19:19Z</time>
      </trkpt>
      <trkpt lat="42.8936000" lon="-8.4805080">
        <ele>370.2</ele>
        <time>2020-04-17T19:19:21Z</time>
      </trkpt>
      <trkpt lat="42.8935570" lon="-8.4806930">
        <ele>369.9</ele>
        <time>2020-04-17T19:19:23Z</time>
      </trkpt>
      <trkpt lat="42.8934910" lon="-8.4810000">
        <ele>369.7</ele>
        <time>2020-04-17T19:19:25Z</time>
      </trkpt>
      <trkpt lat="42.8934550" lon="-8.4811870">
        <ele>369.5</ele>
        <time>2020-04-17T19:19:27Z</time>
      </trkpt>
      <trkpt lat="42.8934170" lon="-8.4813790">
        <ele>369.1</ele>
        <time>2020-04-17T19:19:29Z</time>
      </trkpt>
      <trkpt lat="42.8933360" lon="-8.4817900">
        <ele>368.6</ele>
        <time>2020-04-17T19:19:31Z</time>
      </trkpt>
      <trkpt lat="42.8932880" lon="-8.4820310">
        <ele>368.4</ele>
        <time>2020-04-17T19:19:33Z</time>
      </trkpt>
      <trkpt lat="42.8932490" lon="-8.4822270">
        <ele>368.3</ele>
        <time>2020-04-17T19:19:35Z</time>
      </trkpt>
      <trkpt lat="42.8932100" lon="-8.4824230">
        <ele>368.0</ele>
        <time>2020-04-17T19:19:37Z</time>
      </trkpt>
      <trkpt lat="42.8931200" lon="-8.4828830">
        <ele>367.2</ele>
        <time>2020-04-17T19:19:39Z</time>
      </trkpt>
      <trkpt lat="42.8930890" lon="-8.4830800">
        <ele>366.8</ele>
        <time>2020-04-17T19:19:41Z</time>
      </trkpt>
      <trkpt lat="42.8930590" lon="-8.4832700">
        <ele>366.4</ele>
        <time>2020-04-17T19:19:43Z</time>
      </trkpt>
      <trkpt lat="42.8930300" lon="-8.4834570">
        <ele>365.9</ele>
        <time>2020-04-17T19:19:45Z</time>
      </trkpt>
      <trkpt lat="42.8929600" lon="-8.4839090">
        <ele>364.8</ele>
        <time>2020-04-17T19:19:47Z</time>
      </trkpt>
      <trkpt lat="42.8929220" lon="-8.4841550">
        <ele>364.0</ele>
        <time>2020-04-17T19:19:49Z</time>
      </trkpt>
      <trkpt lat="42.8928890" lon="-8.4843360">
        <ele>363.5</ele>
        <time>2020-04-17T19:19:51Z</time>
      </trkpt>
      <trkpt lat="42.8928550" lon="-8.4845260">
        <ele>363.0</ele>
        <time>2020-04-17T19:19:53Z</time>
      </trkpt>
      <trkpt lat="42.8927830" lon="-8.4849230">
        <ele>361.9</ele>
        <time>2020-04-17T19:19:55Z</time>
      </trkpt>
      <trkpt lat="42.8927460" lon="-8.4851280">
        <ele>361.4</ele>
        <time>2020-04-17T19:19:57Z</time>
      </trkpt>
      <trkpt lat="42.8926900" lon="-8.4854510">
        <ele>360.6</ele>
        <time>2020-04-17T19:19:59Z</time>
      </trkpt>
      <trkpt lat="42.8926540" lon="-8.4856690">
        <ele>360.1</ele>
        <time>2020-04-17T19:20:01Z</time>
      </trkpt>
      <trkpt lat="42.8925930" lon="-8.4860440">
        <ele>359.6</ele>
        <time>2020-04-17T19:20:03Z</time>
      </trkpt>
      <trkpt lat="42.8925590" lon="-8.4862490">
        <ele>359.1</ele>
        <time>2020-04-17T19:20:05Z</time>
      </trkpt>
      <trkpt lat="42.8925060" lon="-8.4865860">
        <ele>358.5</ele>
        <time>2020-04-17T19:20:07Z</time>
      </trkpt>
      <trkpt lat="42.8924580" lon="-8.4868930">
        <ele>358.3</ele>
        <time>2020-04-17T19:20:09Z</time>
      </trkpt>
      <trkpt lat="42.8924400" lon="-8.4870760">
        <ele>358.3</ele>
        <time>2020-04-17T19:20:11Z</time>
      </trkpt>
      <trkpt lat="42.8924190" lon="-8.4873320">
        <ele>358.1</ele>
        <time>2020-04-17T19:20:13Z</time>
      </trkpt>
      <trkpt lat="42.8924000" lon="-8.4876120">
        <ele>358.1</ele>
        <time>2020-04-17T19:20:15Z</time>
      </trkpt>
      <trkpt lat="42.8923900" lon="-8.4877830">
        <ele>358.1</ele>
        <time>2020-04-17T19:20:17Z</time>
      </trkpt>
      <trkpt lat="42.8923780" lon="-8.4880650">
        <ele>358.3</ele>
        <time>2020-04-17T19:20:19Z</time>
      </trkpt>
      <trkpt lat="42.8923750" lon="-8.4882330">
        <ele>358.4</ele>
        <time>2020-04-17T19:20:21Z</time>
      </trkpt>
      <trkpt lat="42.8923720" lon="-8.4883990">
        <ele>358.5</ele>
        <time>2020-04-17T19:20:23Z</time>
      </trkpt>
      <trkpt lat="42.8923700" lon="-8.4887500">
        <ele>358.6</ele>
        <time>2020-04-17T19:20:25Z</time>
      </trkpt>
      <trkpt lat="42.8923820" lon="-8.4889850">
        <ele>358.8</ele>
        <time>2020-04-17T19:20:27Z</time>
      </trkpt>
      <trkpt lat="42.8923940" lon="-8.4891450">
        <ele>359.0</ele>
        <time>2020-04-17T19:20:29Z</time>
      </trkpt>
      <trkpt lat="42.8924100" lon="-8.4893910">
        <ele>359.3</ele>
        <time>2020-04-17T19:20:31Z</time>
      </trkpt>
      <trkpt lat="42.8924180" lon="-8.4895880">
        <ele>359.7</ele>
        <time>2020-04-17T19:20:33Z</time>
      </trkpt>
      <trkpt lat="42.8924250" lon="-8.4897290">
        <ele>360.0</ele>
        <time>2020-04-17T19:20:35Z</time>
      </trkpt>
      <trkpt lat="42.8924310" lon="-8.4898640">
        <ele>360.2</ele>
        <time>2020-04-17T19:20:37Z</time>
      </trkpt>
      <trkpt lat="42.8924470" lon="-8.4901410">
        <ele>360.4</ele>
        <time>2020-04-17T19:20:39Z</time>
      </trkpt>
      <trkpt lat="42.8924580" lon="-8.4903380">
        <ele>360.7</ele>
        <time>2020-04-17T19:20:41Z</time>
      </trkpt>
      <trkpt lat="42.8924610" lon="-8.4904770">
        <ele>360.9</ele>
        <time>2020-04-17T19:20:43Z</time>
      </trkpt>
      <trkpt lat="42.8924640" lon="-8.4906250">
        <ele>361.0</ele>
        <time>2020-04-17T19:20:45Z</time>
      </trkpt>
      <trkpt lat="42.8924680" lon="-8.4907830">
        <ele>361.1</ele>
        <time>2020-04-17T19:20:47Z</time>
      </trkpt>
      <trkpt lat="42.8924770" lon="-8.4911610">
        <ele>361.4</ele>
        <time>2020-04-17T19:20:49Z</time>
      </trkpt>
      <trkpt lat="42.8924840" lon="-8.4913880">
        <ele>361.4</ele>
        <time>2020-04-17T19:20:51Z</time>
      </trkpt>
      <trkpt lat="42.8924890" lon="-8.4915670">
        <ele>361.3</ele>
        <time>2020-04-17T19:20:53Z</time>
      </trkpt>
      <trkpt lat="42.8924980" lon="-8.4918760">
        <ele>360.8</ele>
        <time>2020-04-17T19:20:55Z</time>
      </trkpt>
      <trkpt lat="42.8925040" lon="-8.4920680">
        <ele>360.3</ele>
        <time>2020-04-17T19:20:57Z</time>
      </trkpt>
      <trkpt lat="42.8925140" lon="-8.4924050">
        <ele>359.4</ele>
        <time>2020-04-17T19:20:59Z</time>
      </trkpt>
      <trkpt lat="42.8925200" lon="-8.4926110">
        <ele>358.6</ele>
        <time>2020-04-17T19:21:01Z</time>
      </trkpt>
      <trkpt lat="42.8925330" lon="-8.4929940">
        <ele>358.1</ele>
        <time>2020-04-17T19:21:03Z</time>
      </trkpt>
      <trkpt lat="42.8925420" lon="-8.4933070">
        <ele>357.5</ele>
        <time>2020-04-17T19:21:05Z</time>
      </trkpt>
      <trkpt lat="42.8925420" lon="-8.4935330">
        <ele>356.8</ele>
        <time>2020-04-17T19:21:07Z</time>
      </trkpt>
      <trkpt lat="42.8925410" lon="-8.4937650">
        <ele>355.7</ele>
        <time>2020-04-17T19:21:09Z</time>
      </trkpt>
      <trkpt lat="42.8925360" lon="-8.4942020">
        <ele>353.5</ele>
        <time>2020-04-17T19:21:11Z</time>
      </trkpt>
      <trkpt lat="42.8925300" lon="-8.4944480">
        <ele>352.4</ele>
        <time>2020-04-17T19:21:13Z</time>
      </trkpt>
      <trkpt lat="42.8925080" lon="-8.4948890">
        <ele>350.5</ele>
        <time>2020-04-17T19:21:15Z</time>
      </trkpt>
      <trkpt lat="42.8924870" lon="-8.4951460">
        <ele>349.2</ele>
        <time>2020-04-17T19:21:17Z</time>
      </trkpt>
      <trkpt lat="42.8924440" lon="-8.4956240">
        <ele>347.9</ele>
        <time>2020-04-17T19:21:19Z</time>
      </trkpt>
      <trkpt lat="42.8924160" lon="-8.4958840">
        <ele>347.1</ele>
        <time>2020-04-17T19:21:21Z</time>
      </trkpt>
      <trkpt lat="42.8923610" lon="-8.4963300">
        <ele>345.2</ele>
        <time>2020-04-17T19:21:23Z</time>
      </trkpt>
      <trkpt lat="42.8923260" lon="-8.4965880">
        <ele>344.0</ele>
        <time>2020-04-17T19:21:25Z</time>
      </trkpt>
      <trkpt lat="42.8922580" lon="-8.4970350">
        <ele>341.8</ele>
        <time>2020-04-17T19:21:27Z</time>
      </trkpt>
      <trkpt lat="42.8922070" lon="-8.4972980">
        <ele>340.6</ele>
        <time>2020-04-17T19:21:29Z</time>
      </trkpt>
      <trkpt lat="42.8920900" lon="-8.4977100">
        <ele>338.2</ele>
        <time>2020-04-17T19:21:31Z</time>
      </trkpt>
      <trkpt lat="42.8918990" lon="-8.4980810">
        <ele>335.3</ele>
        <time>2020-04-17T19:21:33Z</time>
      </trkpt>
      <trkpt lat="42.8916760" lon="-8.4983400">
        <ele>331.9</ele>
        <time>2020-04-17T19:21:35Z</time>
      </trkpt>
      <trkpt lat="42.8914720" lon="-8.4984840">
        <ele>329.3</ele>
        <time>2020-04-17T19:21:37Z</time>
      </trkpt>
      <trkpt lat="42.8911290" lon="-8.4987130">
        <ele>326.7</ele>
        <time>2020-04-17T19:21:39Z</time>
      </trkpt>
      <trkpt lat="42.8907870" lon="-8.4989200">
        <ele>323.2</ele>
        <time>2020-04-17T19:21:41Z</time>
      </trkpt>
      <trkpt lat="42.8905310" lon="-8.4991530">
        <ele>320.3</ele>
        <time>2020-04-17T19:21:43Z</time>
      </trkpt>
      <trkpt lat="42.8903210" lon="-8.4994800">
        <ele>318.9</ele>
        <time>2020-04-17T19:21:45Z</time>
      </trkpt>
      <trkpt lat="42.8901500" lon="-8.4998320">
        <ele>317.2</ele>
        <time>2020-04-17T19:21:47Z</time>
      </trkpt>
      <trkpt lat="42.8900530" lon="-8.5000950">
        <ele>315.7</ele>
        <time>2020-04-17T19:21:49Z</time>
      </trkpt>
      <trkpt lat="42.8899000" lon="-8.5005000">
        <ele>314.2</ele>
        <time>2020-04-17T19:21:51Z</time>
      </trkpt>
      <trkpt lat="42.8897490" lon="-8.5008400">
        <ele>311.6</ele>
        <time>2020-04-17T19:21:53Z</time>
      </trkpt>
      <trkpt lat="42.8895820" lon="-8.5011550">
        <ele>309.0</ele>
        <time>2020-04-17T19:21:55Z</time>
      </trkpt>
      <trkpt lat="42.8893730" lon="-8.5015320">
        <ele>305.8</ele>
        <time>2020-04-17T19:21:57Z</time>
      </trkpt>
      <trkpt lat="42.8892040" lon="-8.5018450">
        <ele>303.3</ele>
        <time>2020-04-17T19:21:59Z</time>
      </trkpt>
      <trkpt lat="42.8889850" lon="-8.5022640">
        <ele>300.1</ele>
        <time>2020-04-17T19:22:01Z</time>
      </trkpt>
      <trkpt lat="42.8888650" lon="-8.5025510">
        <ele>298.0</ele>
        <time>2020-04-17T19:22:03Z</time>
      </trkpt>
      <trkpt lat="42.8886700" lon="-8.5030220">
        <ele>295.9</ele>
        <time>2020-04-17T19:22:05Z</time>
      </trkpt>
      <trkpt lat="42.8884890" lon="-8.5034420">
        <ele>294.8</ele>
        <time>2020-04-17T19:22:07Z</time>
      </trkpt>
      <trkpt lat="42.8882940" lon="-8.5037570">
        <ele>293.9</ele>
        <time>2020-04-17T19:22:09Z</time>
      </trkpt>
      <trkpt lat="42.8880420" lon="-8.5040430">
        <ele>292.8</ele>
        <time>2020-04-17T19:22:11Z</time>
      </trkpt>
      <trkpt lat="42.8878200" lon="-8.5042270">
        <ele>292.5</ele>
        <time>2020-04-17T19:22:13Z</time>
      </trkpt>
      <trkpt lat="42.8876430" lon="-8.5043570">
        <ele>292.4</ele>
        <time>2020-04-17T19:22:15Z</time>
      </trkpt>
      <trkpt lat="42.8873570" lon="-8.5045770">
        <ele>292.2</ele>
        <time>2020-04-17T19:22:17Z</time>
      </trkpt>
      <trkpt lat="42.8871240" lon="-8.5047830">
        <ele>291.7</ele>
        <time>2020-04-17T19:22:19Z</time>
      </trkpt>
      <trkpt lat="42.8869340" lon="-8.5050800">
        <ele>291.0</ele>
        <time>2020-04-17T19:22:21Z</time>
      </trkpt>
      <trkpt lat="42.8868120" lon="-8.5054200">
        <ele>289.7</ele>
        <time>2020-04-17T19:22:23Z</time>
      </trkpt>
      <trkpt lat="42.8867580" lon="-8.5057440">
        <ele>288.7</ele>
        <time>2020-04-17T19:22:25Z</time>
      </trkpt>
      <trkpt lat="42.8867090" lon="-8.5061990">
        <ele>286.8</ele>
        <time>2020-04-17T19:22:27Z</time>
      </trkpt>
      <trkpt lat="42.8866720" lon="-8.5065340">
        <ele>285.7</ele>
        <time>2020-04-17T19:22:29Z</time>
      </trkpt>
      <trkpt lat="42.8866310" lon="-8.5069500">
        <ele>284.2</ele>
        <time>2020-04-17T19:22:31Z</time>
      </trkpt>
      <trkpt lat="42.8866030" lon="-8.5073780">
        <ele>281.1</ele>
        <time>2020-04-17T19:22:33Z</time>
      </trkpt>
      <trkpt lat="42.8865840" lon="-8.5077740">
        <ele>278.8</ele>
        <time>2020-04-17T19:22:35Z</time>
      </trkpt>
      <trkpt lat="42.8865770" lon="-8.5080650">
        <ele>277.8</ele>
        <time>2020-04-17T19:22:37Z</time>
      </trkpt>
      <trkpt lat="42.8865680" lon="-8.5084840">
        <ele>276.8</ele>
        <time>2020-04-17T19:22:39Z</time>
      </trkpt>
      <trkpt lat="42.8865570" lon="-8.5089370">
        <ele>275.8</ele>
        <time>2020-04-17T19:22:41Z</time>
      </trkpt>
      <trkpt lat="42.8865520" lon="-8.5091890">
        <ele>275.8</ele>
        <time>2020-04-17T19:22:43Z</time>
      </trkpt>
      <trkpt lat="42.8865440" lon="-8.5095440">
        <ele>275.8</ele>
        <time>2020-04-17T19:22:45Z</time>
      </trkpt>
      <trkpt lat="42.8865420" lon="-8.5098720">
        <ele>275.9</ele>
        <time>2020-04-17T19:22:47Z</time>
      </trkpt>
      <trkpt lat="42.8865650" lon="-8.5101960">
        <ele>276.1</ele>
        <time>2020-04-17T19:22:49Z</time>
      </trkpt>
      <trkpt lat="42.8866790" lon="-8.5103900">
        <ele>276.4</ele>
        <time>2020-04-17T19:22:51Z</time>
      </trkpt>
      <trkpt lat="42.8867850" lon="-8.5105650">
        <ele>276.6</ele>
        <time>2020-04-17T19:22:53Z</time>
      </trkpt>
      <trkpt lat="42.8868090" lon="-8.5107970">
        <ele>276.7</ele>
        <time>2020-04-17T19:22:55Z</time>
      </trkpt>
      <trkpt lat="42.8867310" lon="-8.5109950">
        <ele>276.8</ele>
        <time>2020-04-17T19:22:57Z</time>
      </trkpt>
      <trkpt lat="42.8865880" lon="-8.5111310">
        <ele>276.8</ele>
        <time>2020-04-17T19:22:59Z</time>
      </trkpt>
      <trkpt lat="42.8865250" lon="-8.5113250">
        <ele>276.8</ele>
        <time>2020-04-17T19:23:01Z</time>
      </trkpt>
      <trkpt lat="42.8865160" lon="-8.5114990">
        <ele>276.8</ele>
        <time>2020-04-17T19:23:03Z</time>
      </trkpt>
      <trkpt lat="42.8864980" lon="-8.5117110">
        <ele>276.9</ele>
        <time>2020-04-17T19:23:05Z</time>
      </trkpt>
      <trkpt lat="42.8864790" lon="-8.5119390">
        <ele>277.3</ele>
        <time>2020-04-17T19:23:07Z</time>
      </trkpt>
      <trkpt lat="42.8864750" lon="-8.5121380">
        <ele>277.8</ele>
        <time>2020-04-17T19:23:09Z</time>
      </trkpt>
      <trkpt lat="42.8864700" lon="-8.5122790">
        <ele>278.0</ele>
        <time>2020-04-17T19:23:11Z</time>
      </trkpt>
      <trkpt lat="42.8864660" lon="-8.5124120">
        <ele>278.4</ele>
        <time>2020-04-17T19:23:13Z</time>
      </trkpt>
      <trkpt lat="42.8865030" lon="-8.5126940">
        <ele>278.9</ele>
        <time>2020-04-17T19:23:15Z</time>
      </trkpt>
      <trkpt lat="42.8865690" lon="-8.5128270">
        <ele>279.1</ele>
        <time>2020-04-17T19:23:17Z</time>
      </trkpt>
      <trkpt lat="42.8866500" lon="-8.5129160">
        <ele>279.3</ele>
        <time>2020-04-17T19:23:19Z</time>
      </trkpt>
      <trkpt lat="42.8866520" lon="-8.5130650">
        <ele>279.5</ele>
        <time>2020-04-17T19:23:21Z</time>
      </trkpt>
      <trkpt lat="42.8865760" lon="-8.5131550">
        <ele>279.6</ele>
        <time>2020-04-17T19:23:23Z</time>
      </trkpt>
      <trkpt lat="42.8865140" lon="-8.5132210">
        <ele>279.7</ele>
        <time>2020-04-17T19:23:25Z</time>
      </trkpt>
      <trkpt lat="42.8864530" lon="-8.5133580">
        <ele>280.0</ele>
        <time>2020-04-17T19:23:27Z</time>
      </trkpt>
      <trkpt lat="42.8864500" lon="-8.5134550">
        <ele>280.1</ele>
        <time>2020-04-17T19:23:29Z</time>
      </trkpt>
      <trkpt lat="42.8864480" lon="-8.5135510">
        <ele>280.3</ele>
        <time>2020-04-17T19:23:31Z</time>
      </trkpt>
      <trkpt lat="42.8864450" lon="-8.5136460">
        <ele>280.5</ele>
        <time>2020-04-17T19:23:33Z</time>
      </trkpt>
      <trkpt lat="42.8864430" lon="-8.5137400">
        <ele>280.7</ele>
        <time>2020-04-17T19:23:35Z</time>
      </trkpt>
      <trkpt lat="42.8864400" lon="-8.5138360">
        <ele>280.9</ele>
        <time>2020-04-17T19:23:37Z</time>
      </trkpt>
      <trkpt lat="42.8864370" lon="-8.5139300">
        <ele>281.1</ele>
        <time>2020-04-17T19:23:39Z</time>
      </trkpt>
      <trkpt lat="42.8864290" lon="-8.5142490">
        <ele>281.6</ele>
        <time>2020-04-17T19:23:41Z</time>
      </trkpt>
      <trkpt lat="42.8864270" lon="-8.5143410">
        <ele>281.8</ele>
        <time>2020-04-17T19:23:43Z</time>
      </trkpt>
      <trkpt lat="42.8864220" lon="-8.5145080">
        <ele>282.1</ele>
        <time>2020-04-17T19:23:45Z</time>
      </trkpt>
      <trkpt lat="42.8864200" lon="-8.5146010">
        <ele>282.3</ele>
        <time>2020-04-17T19:23:47Z</time>
      </trkpt>
      <trkpt lat="42.8864180" lon="-8.5146920">
        <ele>282.6</ele>
        <time>2020-04-17T19:23:49Z</time>
      </trkpt>
      <trkpt lat="42.8864160" lon="-8.5147840">
        <ele>282.9</ele>
        <time>2020-04-17T19:23:51Z</time>
      </trkpt>
      <trkpt lat="42.8864140" lon="-8.5148750">
        <ele>283.2</ele>
        <time>2020-04-17T19:23:53Z</time>
      </trkpt>
      <trkpt lat="42.8864080" lon="-8.5151380">
        <ele>283.7</ele>
        <time>2020-04-17T19:23:55Z</time>
      </trkpt>
      <trkpt lat="42.8864070" lon="-8.5152290">
        <ele>283.9</ele>
        <time>2020-04-17T19:23:57Z</time>
      </trkpt>
      <trkpt lat="42.8864060" lon="-8.5153210">
        <ele>284.1</ele>
        <time>2020-04-17T19:23:59Z</time>
      </trkpt>
      <trkpt lat="42.8864040" lon="-8.5154120">
        <ele>284.4</ele>
        <time>2020-04-17T19:24:01Z</time>
      </trkpt>
      <trkpt lat="42.8864030" lon="-8.5156340">
        <ele>285.1</ele>
        <time>2020-04-17T19:24:03Z</time>
      </trkpt>
      <trkpt lat="42.8864060" lon="-8.5157250">
        <ele>285.2</ele>
        <time>2020-04-17T19:24:05Z</time>
      </trkpt>
      <trkpt lat="42.8864090" lon="-8.5158150">
        <ele>285.3</ele>
        <time>2020-04-17T19:24:07Z</time>
      </trkpt>
      <trkpt lat="42.8864150" lon="-8.5159810">
        <ele>285.7</ele>
        <time>2020-04-17T19:24:09Z</time>
      </trkpt>
      <trkpt lat="42.8864180" lon="-8.5160700">
        <ele>286.0</ele>
        <time>2020-04-17T19:24:11Z</time>
      </trkpt>
      <trkpt lat="42.8864210" lon="-8.5161590">
        <ele>286.3</ele>
        <time>2020-04-17T19:24:13Z</time>
      </trkpt>
      <trkpt lat="42.8864310" lon="-8.5163420">
        <ele>287.2</ele>
        <time>2020-04-17T19:24:15Z</time>
      </trkpt>
      <trkpt lat="42.8864420" lon="-8.5164820">
        <ele>287.8</ele>
        <time>2020-04-17T19:24:17Z</time>
      </trkpt>
      <trkpt lat="42.8864500" lon="-8.5165730">
        <ele>288.0</ele>
        <time>2020-04-17T19:24:19Z</time>
      </trkpt>
      <trkpt lat="42.8864580" lon="-8.5166700">
        <ele>288.2</ele>
        <time>2020-04-17T19:24:21Z</time>
      </trkpt>
      <trkpt lat="42.8864840" lon="-8.5168510">
        <ele>288.5</ele>
        <time>2020-04-17T19:24:23Z</time>
      </trkpt>
      <trkpt lat="42.8865390" lon="-8.5169830">
        <ele>288.6</ele>
        <time>2020-04-17T19:24:26Z</time>
      </trkpt>
      <trkpt lat="42.8865360" lon="-8.5171170">
        <ele>288.7</ele>
        <time>2020-04-17T19:24:28Z</time>
      </trkpt>
      <trkpt lat="42.8865230" lon="-8.5172290">
        <ele>288.8</ele>
        <time>2020-04-17T19:24:30Z</time>
      </trkpt>
      <trkpt lat="42.8865360" lon="-8.5173680">
        <ele>289.0</ele>
        <time>2020-04-17T19:24:32Z</time>
      </trkpt>
      <trkpt lat="42.8865430" lon="-8.5174680">
        <ele>289.1</ele>
        <time>2020-04-17T19:24:34Z</time>
      </trkpt>
      <trkpt lat="42.8865550" lon="-8.5176580">
        <ele>289.3</ele>
        <time>2020-04-17T19:24:36Z</time>
      </trkpt>
      <trkpt lat="42.8865610" lon="-8.5177610">
        <ele>289.4</ele>
        <time>2020-04-17T19:24:38Z</time>
      </trkpt>
      <trkpt lat="42.8865700" lon="-8.5179360">
        <ele>289.7</ele>
        <time>2020-04-17T19:24:40Z</time>
      </trkpt>
      <trkpt lat="42.8865770" lon="-8.5180440">
        <ele>289.9</ele>
        <time>2020-04-17T19:24:42Z</time>
      </trkpt>
      <trkpt lat="42.8865830" lon="-8.5181580">
        <ele>290.1</ele>
        <time>2020-04-17T19:24:44Z</time>
      </trkpt>
      <trkpt lat="42.8865900" lon="-8.5182780">
        <ele>290.3</ele>
        <time>2020-04-17T19:24:46Z</time>
      </trkpt>
      <trkpt lat="42.8865970" lon="-8.5184030">
        <ele>290.5</ele>
        <time>2020-04-17T19:24:48Z</time>
      </trkpt>
      <trkpt lat="42.8866180" lon="-8.5187300">
        <ele>291.0</ele>
        <time>2020-04-17T19:24:50Z</time>
      </trkpt>
      <trkpt lat="42.8866320" lon="-8.5189230">
        <ele>291.2</ele>
        <time>2020-04-17T19:24:52Z</time>
      </trkpt>
      <trkpt lat="42.8866460" lon="-8.5191100">
        <ele>291.2</ele>
        <time>2020-04-17T19:24:54Z</time>
      </trkpt>
      <trkpt lat="42.8866600" lon="-8.5192480">
        <ele>291.3</ele>
        <time>2020-04-17T19:24:56Z</time>
      </trkpt>
      <trkpt lat="42.8866740" lon="-8.5193900">
        <ele>291.4</ele>
        <time>2020-04-17T19:24:58Z</time>
      </trkpt>
      <trkpt lat="42.8867050" lon="-8.5196850">
        <ele>291.4</ele>
        <time>2020-04-17T19:25:00Z</time>
      </trkpt>
      <trkpt lat="42.8867240" lon="-8.5198340">
        <ele>291.3</ele>
        <time>2020-04-17T19:25:02Z</time>
      </trkpt>
      <trkpt lat="42.8867440" lon="-8.5199910">
        <ele>291.2</ele>
        <time>2020-04-17T19:25:04Z</time>
      </trkpt>
      <trkpt lat="42.8867900" lon="-8.5203300">
        <ele>290.6</ele>
        <time>2020-04-17T19:25:06Z</time>
      </trkpt>
      <trkpt lat="42.8868200" lon="-8.5204950">
        <ele>290.3</ele>
        <time>2020-04-17T19:25:08Z</time>
      </trkpt>
      <trkpt lat="42.8868520" lon="-8.5206660">
        <ele>290.0</ele>
        <time>2020-04-17T19:25:10Z</time>
      </trkpt>
      <trkpt lat="42.8869220" lon="-8.5210290">
        <ele>289.5</ele>
        <time>2020-04-17T19:25:12Z</time>
      </trkpt>
      <trkpt lat="42.8869890" lon="-8.5212620">
        <ele>289.2</ele>
        <time>2020-04-17T19:25:14Z</time>
      </trkpt>
      <trkpt lat="42.8870370" lon="-8.5214880">
        <ele>289.0</ele>
        <time>2020-04-17T19:25:16Z</time>
      </trkpt>
      <trkpt lat="42.8870700" lon="-8.5216580">
        <ele>288.9</ele>
        <time>2020-04-17T19:25:18Z</time>
      </trkpt>
      <trkpt lat="42.8871030" lon="-8.5218240">
        <ele>288.9</ele>
        <time>2020-04-17T19:25:20Z</time>
      </trkpt>
      <trkpt lat="42.8871640" lon="-8.5221410">
        <ele>288.6</ele>
        <time>2020-04-17T19:25:22Z</time>
      </trkpt>
      <trkpt lat="42.8871940" lon="-8.5223010">
        <ele>288.4</ele>
        <time>2020-04-17T19:25:24Z</time>
      </trkpt>
      <trkpt lat="42.8872530" lon="-8.5226060">
        <ele>288.1</ele>
        <time>2020-04-17T19:25:26Z</time>
      </trkpt>
      <trkpt lat="42.8872860" lon="-8.5227650">
        <ele>288.1</ele>
        <time>2020-04-17T19:25:28Z</time>
      </trkpt>
      <trkpt lat="42.8873210" lon="-8.5229280">
        <ele>287.9</ele>
        <time>2020-04-17T19:25:30Z</time>
      </trkpt>
      <trkpt lat="42.8873560" lon="-8.5230960">
        <ele>287.8</ele>
        <time>2020-04-17T19:25:32Z</time>
      </trkpt>
      <trkpt lat="42.8874360" lon="-8.5234820">
        <ele>287.6</ele>
        <time>2020-04-17T19:25:34Z</time>
      </trkpt>
      <trkpt lat="42.8873450" lon="-8.5236580">
        <ele>287.3</ele>
        <time>2020-04-17T19:25:36Z</time>
      </trkpt>
      <trkpt lat="42.8872790" lon="-8.5238780">
        <ele>286.9</ele>
        <time>2020-04-17T19:25:38Z</time>
      </trkpt>
      <trkpt lat="42.8872760" lon="-8.5240600">
        <ele>286.6</ele>
        <time>2020-04-17T19:25:40Z</time>
      </trkpt>
      <trkpt lat="42.8872740" lon="-8.5242340">
        <ele>286.3</ele>
        <time>2020-04-17T19:25:42Z</time>
      </trkpt>
      <trkpt lat="42.8872700" lon="-8.5245820">
        <ele>285.7</ele>
        <time>2020-04-17T19:25:44Z</time>
      </trkpt>
      <trkpt lat="42.8872690" lon="-8.5247490">
        <ele>285.4</ele>
        <time>2020-04-17T19:25:46Z</time>
      </trkpt>
      <trkpt lat="42.8872630" lon="-8.5250430">
        <ele>285.0</ele>
        <time>2020-04-17T19:25:48Z</time>
      </trkpt>
      <trkpt lat="42.8872420" lon="-8.5252780">
        <ele>284.8</ele>
        <time>2020-04-17T19:25:50Z</time>
      </trkpt>
      <trkpt lat="42.8871920" lon="-8.5254640">
        <ele>284.6</ele>
        <time>2020-04-17T19:25:52Z</time>
      </trkpt>
      <trkpt lat="42.8871350" lon="-8.5256400">
        <ele>284.6</ele>
        <time>2020-04-17T19:25:54Z</time>
      </trkpt>
      <trkpt lat="42.8870890" lon="-8.5257850">
        <ele>284.6</ele>
        <time>2020-04-17T19:25:56Z</time>
      </trkpt>
      <trkpt lat="42.8870050" lon="-8.5260350">
        <ele>284.7</ele>
        <time>2020-04-17T19:25:58Z</time>
      </trkpt>
      <trkpt lat="42.8869260" lon="-8.5262600">
        <ele>284.8</ele>
        <time>2020-04-17T19:26:00Z</time>
      </trkpt>
      <trkpt lat="42.8868700" lon="-8.5263850">
        <ele>284.8</ele>
        <time>2020-04-17T19:26:02Z</time>
      </trkpt>
      <trkpt lat="42.8868160" lon="-8.5265090">
        <ele>284.8</ele>
        <time>2020-04-17T19:26:04Z</time>
      </trkpt>
      <trkpt lat="42.8867170" lon="-8.5267280">
        <ele>284.9</ele>
        <time>2020-04-17T19:26:06Z</time>
      </trkpt>
      <trkpt lat="42.8866550" lon="-8.5268610">
        <ele>284.9</ele>
        <time>2020-04-17T19:26:08Z</time>
      </trkpt>
      <trkpt lat="42.8865290" lon="-8.5271370">
        <ele>284.9</ele>
        <time>2020-04-17T19:26:10Z</time>
      </trkpt>
      <trkpt lat="42.8864610" lon="-8.5272870">
        <ele>284.7</ele>
        <time>2020-04-17T19:26:12Z</time>
      </trkpt>
      <trkpt lat="42.8863380" lon="-8.5275540">
        <ele>284.2</ele>
        <time>2020-04-17T19:26:14Z</time>
      </trkpt>
      <trkpt lat="42.8862670" lon="-8.5277580">
        <ele>283.8</ele>
        <time>2020-04-17T19:26:16Z</time>
      </trkpt>
      <trkpt lat="42.8862110" lon="-8.5280530">
        <ele>283.4</ele>
        <time>2020-04-17T19:26:18Z</time>
      </trkpt>
      <trkpt lat="42.8861900" lon="-8.5283040">
        <ele>282.7</ele>
        <time>2020-04-17T19:26:20Z</time>
      </trkpt>
      <trkpt lat="42.8861750" lon="-8.5284890">
        <ele>282.2</ele>
        <time>2020-04-17T19:26:22Z</time>
      </trkpt>
      <trkpt lat="42.8861600" lon="-8.5286740">
        <ele>281.6</ele>
        <time>2020-04-17T19:26:24Z</time>
      </trkpt>
      <trkpt lat="42.8861280" lon="-8.5290620">
        <ele>280.6</ele>
        <time>2020-04-17T19:26:26Z</time>
      </trkpt>
      <trkpt lat="42.8861010" lon="-8.5292690">
        <ele>280.3</ele>
        <time>2020-04-17T19:26:28Z</time>
      </trkpt>
      <trkpt lat="42.8860540" lon="-8.5295730">
        <ele>279.5</ele>
        <time>2020-04-17T19:26:30Z</time>
      </trkpt>
      <trkpt lat="42.8860090" lon="-8.5298300">
        <ele>278.9</ele>
        <time>2020-04-17T19:26:32Z</time>
      </trkpt>
      <trkpt lat="42.8859420" lon="-8.5300890">
        <ele>278.5</ele>
        <time>2020-04-17T19:26:34Z</time>
      </trkpt>
      <trkpt lat="42.8858760" lon="-8.5302910">
        <ele>278.0</ele>
        <time>2020-04-17T19:26:36Z</time>
      </trkpt>
      <trkpt lat="42.8857450" lon="-8.5305760">
        <ele>277.5</ele>
        <time>2020-04-17T19:26:38Z</time>
      </trkpt>
      <trkpt lat="42.8856010" lon="-8.5308050">
        <ele>277.1</ele>
        <time>2020-04-17T19:26:40Z</time>
      </trkpt>
      <trkpt lat="42.8854970" lon="-8.5309500">
        <ele>276.9</ele>
        <time>2020-04-17T19:26:42Z</time>
      </trkpt>
      <trkpt lat="42.8853310" lon="-8.5312180">
        <ele>276.7</ele>
        <time>2020-04-17T19:26:44Z</time>
      </trkpt>
      <trkpt lat="42.8852090" lon="-8.5314660">
        <ele>276.5</ele>
        <time>2020-04-17T19:26:46Z</time>
      </trkpt>
      <trkpt lat="42.8851420" lon="-8.5316310">
        <ele>276.4</ele>
        <time>2020-04-17T19:26:48Z</time>
      </trkpt>
      <trkpt lat="42.8850540" lon="-8.5319310">
        <ele>276.0</ele>
        <time>2020-04-17T19:26:50Z</time>
      </trkpt>
      <trkpt lat="42.8851050" lon="-8.5321540">
        <ele>275.5</ele>
        <time>2020-04-17T19:26:52Z</time>
      </trkpt>
      <trkpt lat="42.8851640" lon="-8.5323330">
        <ele>274.9</ele>
        <time>2020-04-17T19:26:54Z</time>
      </trkpt>
      <trkpt lat="42.8852760" lon="-8.5326780">
        <ele>273.4</ele>
        <time>2020-04-17T19:26:56Z</time>
      </trkpt>
      <trkpt lat="42.8852710" lon="-8.5328930">
        <ele>272.6</ele>
        <time>2020-04-17T19:26:58Z</time>
      </trkpt>
      <trkpt lat="42.8851510" lon="-8.5331220">
        <ele>272.1</ele>
        <time>2020-04-17T19:27:00Z</time>
      </trkpt>
      <trkpt lat="42.8850450" lon="-8.5332350">
        <ele>272.0</ele>
        <time>2020-04-17T19:27:02Z</time>
      </trkpt>
      <trkpt lat="42.8849410" lon="-8.5333460">
        <ele>271.8</ele>
        <time>2020-04-17T19:27:04Z</time>
      </trkpt>
      <trkpt lat="42.8847200" lon="-8.5335910">
        <ele>272.1</ele>
        <time>2020-04-17T19:27:06Z</time>
      </trkpt>
      <trkpt lat="42.8846100" lon="-8.5337320">
        <ele>272.3</ele>
        <time>2020-04-17T19:27:08Z</time>
      </trkpt>
      <trkpt lat="42.8844590" lon="-8.5338550">
        <ele>272.4</ele>
        <time>2020-04-17T19:27:10Z</time>
      </trkpt>
      <trkpt lat="42.8842900" lon="-8.5339000">
        <ele>272.4</ele>
        <time>2020-04-17T19:27:12Z</time>
      </trkpt>
      <trkpt lat="42.8841790" lon="-8.5339540">
        <ele>272.5</ele>
        <time>2020-04-17T19:27:14Z</time>
      </trkpt>
      <trkpt lat="42.8840710" lon="-8.5340070">
        <ele>272.7</ele>
        <time>2020-04-17T19:27:16Z</time>
      </trkpt>
      <trkpt lat="42.8838550" lon="-8.5341050">
        <ele>273.1</ele>
        <time>2020-04-17T19:27:18Z</time>
      </trkpt>
      <trkpt lat="42.8837470" lon="-8.5341240">
        <ele>273.3</ele>
        <time>2020-04-17T19:27:20Z</time>
      </trkpt>
      <trkpt lat="42.8836430" lon="-8.5341440">
        <ele>273.6</ele>
        <time>2020-04-17T19:27:22Z</time>
      </trkpt>
      <trkpt lat="42.8835450" lon="-8.5341620">
        <ele>273.8</ele>
        <time>2020-04-17T19:27:24Z</time>
      </trkpt>
      <trkpt lat="42.8834490" lon="-8.5341790">
        <ele>274.0</ele>
        <time>2020-04-17T19:27:26Z</time>
      </trkpt>
      <trkpt lat="42.8831900" lon="-8.5342270">
        <ele>274.7</ele>
        <time>2020-04-17T19:27:28Z</time>
      </trkpt>
      <trkpt lat="42.8830980" lon="-8.5342440">
        <ele>274.9</ele>
        <time>2020-04-17T19:27:30Z</time>
      </trkpt>
      <trkpt lat="42.8830110" lon="-8.5342600">
        <ele>275.1</ele>
        <time>2020-04-17T19:27:32Z</time>
      </trkpt>
      <trkpt lat="42.8829250" lon="-8.5342760">
        <ele>275.4</ele>
        <time>2020-04-17T19:27:34Z</time>
      </trkpt>
      <trkpt lat="42.8828390" lon="-8.5342920">
        <ele>275.7</ele>
        <time>2020-04-17T19:27:36Z</time>
      </trkpt>
      <trkpt lat="42.8825910" lon="-8.5343480">
        <ele>276.4</ele>
        <time>2020-04-17T19:27:38Z</time>
      </trkpt>
      <trkpt lat="42.8824880" lon="-8.5344060">
        <ele>276.7</ele>
        <time>2020-04-17T19:27:40Z</time>
      </trkpt>
      <trkpt lat="42.8824190" lon="-8.5344630">
        <ele>276.9</ele>
        <time>2020-04-17T19:27:42Z</time>
      </trkpt>
      <trkpt lat="42.8823510" lon="-8.5345190">
        <ele>277.2</ele>
        <time>2020-04-17T19:27:44Z</time>
      </trkpt>
      <trkpt lat="42.8822840" lon="-8.5345730">
        <ele>277.5</ele>
        <time>2020-04-17T19:27:46Z</time>
      </trkpt>
      <trkpt lat="42.8822190" lon="-8.5346270">
        <ele>277.9</ele>
        <time>2020-04-17T19:27:48Z</time>
      </trkpt>
      <trkpt lat="42.8821550" lon="-8.5346800">
        <ele>278.3</ele>
        <time>2020-04-17T19:27:50Z</time>
      </trkpt>
      <trkpt lat="42.8819450" lon="-8.5348620">
        <ele>279.3</ele>
        <time>2020-04-17T19:27:52Z</time>
      </trkpt>
      <trkpt lat="42.8818930" lon="-8.5349340">
        <ele>279.5</ele>
        <time>2020-04-17T19:27:54Z</time>
      </trkpt>
      <trkpt lat="42.8818320" lon="-8.5350600">
        <ele>280.1</ele>
        <time>2020-04-17T19:27:56Z</time>
      </trkpt>
      <trkpt lat="42.8818010" lon="-8.5351510">
        <ele>280.5</ele>
        <time>2020-04-17T19:27:58Z</time>
      </trkpt>
      <trkpt lat="42.8817610" lon="-8.5353230">
        <ele>281.0</ele>
        <time>2020-04-17T19:28:00Z</time>
      </trkpt>
      <trkpt lat="42.8817470" lon="-8.5354430">
        <ele>281.0</ele>
        <time>2020-04-17T19:28:02Z</time>
      </trkpt>
      <trkpt lat="42.8817320" lon="-8.5355770">
        <ele>280.7</ele>
        <time>2020-04-17T19:28:04Z</time>
      </trkpt>
      <trkpt lat="42.8817160" lon="-8.5357230">
        <ele>280.4</ele>
        <time>2020-04-17T19:28:06Z</time>
      </trkpt>
      <trkpt lat="42.8816980" lon="-8.5358800">
        <ele>280.0</ele>
        <time>2020-04-17T19:28:08Z</time>
      </trkpt>
      <trkpt lat="42.8816400" lon="-8.5363060">
        <ele>278.9</ele>
        <time>2020-04-17T19:28:10Z</time>
      </trkpt>
      <trkpt lat="42.8815990" lon="-8.5364730">
        <ele>278.5</ele>
        <time>2020-04-17T19:28:12Z</time>
      </trkpt>
      <trkpt lat="42.8815270" lon="-8.5367730">
        <ele>277.3</ele>
        <time>2020-04-17T19:28:14Z</time>
      </trkpt>
      <trkpt lat="42.8814820" lon="-8.5369550">
        <ele>276.4</ele>
        <time>2020-04-17T19:28:16Z</time>
      </trkpt>
      <trkpt lat="42.8814040" lon="-8.5372970">
        <ele>274.8</ele>
        <time>2020-04-17T19:28:18Z</time>
      </trkpt>
      <trkpt lat="42.8813760" lon="-8.5375080">
        <ele>273.8</ele>
        <time>2020-04-17T19:28:20Z</time>
      </trkpt>
      <trkpt lat="42.8813460" lon="-8.5377360">
        <ele>272.7</ele>
        <time>2020-04-17T19:28:22Z</time>
      </trkpt>
      <trkpt lat="42.8813130" lon="-8.5382390">
        <ele>271.1</ele>
        <time>2020-04-17T19:28:24Z</time>
      </trkpt>
      <trkpt lat="42.8814110" lon="-8.5385320">
        <ele>270.0</ele>
        <time>2020-04-17T19:28:26Z</time>
      </trkpt>
      <trkpt lat="42.8815080" lon="-8.5387620">
        <ele>268.9</ele>
        <time>2020-04-17T19:28:28Z</time>
      </trkpt>
      <trkpt lat="42.8816670" lon="-8.5391370">
        <ele>267.4</ele>
        <time>2020-04-17T19:28:30Z</time>
      </trkpt>
      <trkpt lat="42.8817540" lon="-8.5393420">
        <ele>266.7</ele>
        <time>2020-04-17T19:28:32Z</time>
      </trkpt>
      <trkpt lat="42.8818820" lon="-8.5396930">
        <ele>266.1</ele>
        <time>2020-04-17T19:28:34Z</time>
      </trkpt>
      <trkpt lat="42.8819520" lon="-8.5399940">
        <ele>266.1</ele>
        <time>2020-04-17T19:28:36Z</time>
      </trkpt>
      <trkpt lat="42.8819160" lon="-8.5402220">
        <ele>266.4</ele>
        <time>2020-04-17T19:28:38Z</time>
      </trkpt>
      <trkpt lat="42.8818450" lon="-8.5404350">
        <ele>267.3</ele>
        <time>2020-04-17T19:28:40Z</time>
      </trkpt>
      <trkpt lat="42.8818380" lon="-8.5405990">
        <ele>268.0</ele>
        <time>2020-04-17T19:28:42Z</time>
      </trkpt>
      <trkpt lat="42.8818310" lon="-8.5407460">
        <ele>268.5</ele>
        <time>2020-04-17T19:28:44Z</time>
      </trkpt>
      <trkpt lat="42.8818000" lon="-8.5410490">
        <ele>269.8</ele>
        <time>2020-04-17T19:28:46Z</time>
      </trkpt>
      <trkpt lat="42.8817640" lon="-8.5411600">
        <ele>270.5</ele>
        <time>2020-04-17T19:28:48Z</time>
      </trkpt>
      <trkpt lat="42.8817310" lon="-8.5412610">
        <ele>271.1</ele>
        <time>2020-04-17T19:28:50Z</time>
      </trkpt>
      <trkpt lat="42.8817010" lon="-8.5413520">
        <ele>271.7</ele>
        <time>2020-04-17T19:28:52Z</time>
      </trkpt>
      <trkpt lat="42.8816730" lon="-8.5414370">
        <ele>272.2</ele>
        <time>2020-04-17T19:28:54Z</time>
      </trkpt>
      <trkpt lat="42.8815740" lon="-8.5416580">
        <ele>273.4</ele>
        <time>2020-04-17T19:28:56Z</time>
      </trkpt>
      <trkpt lat="42.8815170" lon="-8.5417500">
        <ele>273.9</ele>
        <time>2020-04-17T19:28:58Z</time>
      </trkpt>
      <trkpt lat="42.8814730" lon="-8.5418550">
        <ele>274.5</ele>
        <time>2020-04-17T19:29:00Z</time>
      </trkpt>
      <trkpt lat="42.8814390" lon="-8.5419750">
        <ele>275.0</ele>
        <time>2020-04-17T19:29:02Z</time>
      </trkpt>
      <trkpt lat="42.8814190" lon="-8.5420720">
        <ele>275.4</ele>
        <time>2020-04-17T19:29:04Z</time>
      </trkpt>
      <trkpt lat="42.8813970" lon="-8.5421790">
        <ele>275.9</ele>
        <time>2020-04-17T19:29:06Z</time>
      </trkpt>
      <trkpt lat="42.8813140" lon="-8.5423320">
        <ele>276.1</ele>
        <time>2020-04-17T19:29:08Z</time>
      </trkpt>
      <trkpt lat="42.8811880" lon="-8.5423980">
        <ele>275.9</ele>
        <time>2020-04-17T19:29:10Z</time>
      </trkpt>
      <trkpt lat="42.8811620" lon="-8.5425300">
        <ele>275.6</ele>
        <time>2020-04-17T19:29:12Z</time>
      </trkpt>
      <trkpt lat="42.8811780" lon="-8.5426650">
        <ele>275.3</ele>
        <time>2020-04-17T19:29:14Z</time>
      </trkpt>
      <trkpt lat="42.8812100" lon="-8.5429400">
        <ele>274.5</ele>
        <time>2020-04-17T19:29:16Z</time>
      </trkpt>
      <trkpt lat="42.8812220" lon="-8.5430910">
        <ele>274.0</ele>
        <time>2020-04-17T19:29:18Z</time>
      </trkpt>
      <trkpt lat="42.8812390" lon="-8.5433630">
        <ele>273.1</ele>
        <time>2020-04-17T19:29:20Z</time>
      </trkpt>
      <trkpt lat="42.8812350" lon="-8.5435470">
        <ele>272.2</ele>
        <time>2020-04-17T19:29:22Z</time>
      </trkpt>
      <trkpt lat="42.8812210" lon="-8.5438720">
        <ele>270.2</ele>
        <time>2020-04-17T19:29:24Z</time>
      </trkpt>
      <trkpt lat="42.8811920" lon="-8.5440800">
        <ele>268.9</ele>
        <time>2020-04-17T19:29:26Z</time>
      </trkpt>
      <trkpt lat="42.8811200" lon="-8.5445400">
        <ele>266.3</ele>
        <time>2020-04-17T19:29:28Z</time>
      </trkpt>
      <trkpt lat="42.8811200" lon="-8.5445400">
        <ele>266.3</ele>
        <time>2020-04-17T19:29:28Z</time>
      </trkpt>
      <trkpt lat="42.8811200" lon="-8.5445400">
        <ele>266.3</ele>
        <time>2020-04-17T19:29:30Z</time>
      </trkpt>
      <trkpt lat="42.8811200" lon="-8.5445400">
        <ele>266.3</ele>
        <time>2020-04-17T19:29:32Z</time>
      </trkpt>
      <trkpt lat="42.8811200" lon="-8.5445400">
        <ele>266.3</ele>
        <time>2020-04-17T19:29:34Z</time>
      </trkpt>
      <trkpt lat="42.8811200" lon="-8.5445400">
        <ele>266.3</ele>
        <time>2020-04-17T19:29:36Z</time>
      </trkpt>
      <trkpt lat="42.8811200" lon="-8.5445400">
        <ele>266.3</ele>
        <time>2020-04-17T19:29:37Z</time>
      </trkpt>
    </trkseg>
  </trk>
</gpx>
